<?xml version="1.0" encoding="UTF-8" standalone="no" ?>
<gpx xmlns="http://www.topografix.com/GPX/1/1" xmlns:xsi="http://www.w3.org/2001/XMLSchema-instance" xsi:schemaLocation="http://www.topografix.com/GPX/1/1 http://www.topografix.com/GPX/1/1/gpx.xsd" version="1.1" creator="VisuGPX - https://www.visugpx.com">
  <metadata>
    <name>Chamrousse - St Jean d'Arves</name>
  </metadata>
  <trk>
    <name><![CDATA[Chamrousse - St Jean d’Arves]]></name>
    <trkseg>
      <trkpt lat="45.12588" lon="5.87935">
        <ele>1646.8</ele>
        <time>2021-02-27T05:07:57Z</time>
      </trkpt>
      <trkpt lat="45.12587" lon="5.87939">
        <ele>1646.8</ele>
        <time>2021-02-27T05:08:00Z</time>
      </trkpt>
      <trkpt lat="45.12586" lon="5.87943">
        <ele>1646.8</ele>
        <time>2021-02-27T05:08:04Z</time>
      </trkpt>
      <trkpt lat="45.12586" lon="5.87947">
        <ele>1646.8</ele>
        <time>2021-02-27T05:08:06Z</time>
      </trkpt>
      <trkpt lat="45.12585" lon="5.87952">
        <ele>1646.8</ele>
        <time>2021-02-27T05:08:07Z</time>
      </trkpt>
      <trkpt lat="45.12585" lon="5.87954">
        <ele>1646.8</ele>
        <time>2021-02-27T05:08:08Z</time>
      </trkpt>
      <trkpt lat="45.12585" lon="5.87954">
        <ele>1646.8</ele>
        <time>2021-02-27T05:08:09Z</time>
      </trkpt>
      <trkpt lat="45.12585" lon="5.87959">
        <ele>1646.6</ele>
        <time>2021-02-27T05:08:10Z</time>
      </trkpt>
      <trkpt lat="45.12585" lon="5.87961">
        <ele>1646.6</ele>
        <time>2021-02-27T05:08:11Z</time>
      </trkpt>
      <trkpt lat="45.12585" lon="5.87961">
        <ele>1646.8</ele>
        <time>2021-02-27T05:08:12Z</time>
      </trkpt>
      <trkpt lat="45.12585" lon="5.87966">
        <ele>1647</ele>
        <time>2021-02-27T05:08:13Z</time>
      </trkpt>
      <trkpt lat="45.12585" lon="5.87966">
        <ele>1647</ele>
        <time>2021-02-27T05:08:14Z</time>
      </trkpt>
      <trkpt lat="45.12586" lon="5.8797">
        <ele>1647</ele>
        <time>2021-02-27T05:08:15Z</time>
      </trkpt>
      <trkpt lat="45.12586" lon="5.8797">
        <ele>1647.4</ele>
        <time>2021-02-27T05:08:16Z</time>
      </trkpt>
      <trkpt lat="45.12585" lon="5.87975">
        <ele>1647.8</ele>
        <time>2021-02-27T05:08:17Z</time>
      </trkpt>
      <trkpt lat="45.12585" lon="5.87975">
        <ele>1648</ele>
        <time>2021-02-27T05:08:18Z</time>
      </trkpt>
      <trkpt lat="45.12584" lon="5.87979">
        <ele>1648.4</ele>
        <time>2021-02-27T05:08:19Z</time>
      </trkpt>
      <trkpt lat="45.12584" lon="5.87979">
        <ele>1648.6</ele>
        <time>2021-02-27T05:08:20Z</time>
      </trkpt>
      <trkpt lat="45.12584" lon="5.87981">
        <ele>1648.6</ele>
        <time>2021-02-27T05:08:21Z</time>
      </trkpt>
      <trkpt lat="45.12584" lon="5.87983">
        <ele>1649</ele>
        <time>2021-02-27T05:08:22Z</time>
      </trkpt>
      <trkpt lat="45.12583" lon="5.87985">
        <ele>1649.2</ele>
        <time>2021-02-27T05:08:23Z</time>
      </trkpt>
      <trkpt lat="45.12582" lon="5.87988">
        <ele>1648.8</ele>
        <time>2021-02-27T05:08:24Z</time>
      </trkpt>
      <trkpt lat="45.12582" lon="5.87988">
        <ele>1648.8</ele>
        <time>2021-02-27T05:08:25Z</time>
      </trkpt>
      <trkpt lat="45.12582" lon="5.87992">
        <ele>1648.8</ele>
        <time>2021-02-27T05:08:26Z</time>
      </trkpt>
      <trkpt lat="45.12582" lon="5.87992">
        <ele>1649</ele>
        <time>2021-02-27T05:08:27Z</time>
      </trkpt>
      <trkpt lat="45.12582" lon="5.87995">
        <ele>1648.8</ele>
        <time>2021-02-27T05:08:28Z</time>
      </trkpt>
      <trkpt lat="45.12581" lon="5.87998">
        <ele>1648.8</ele>
        <time>2021-02-27T05:08:30Z</time>
      </trkpt>
      <trkpt lat="45.12581" lon="5.88002">
        <ele>1648.8</ele>
        <time>2021-02-27T05:08:31Z</time>
      </trkpt>
      <trkpt lat="45.1258" lon="5.88005">
        <ele>1648.6</ele>
        <time>2021-02-27T05:08:32Z</time>
      </trkpt>
      <trkpt lat="45.12579" lon="5.88009">
        <ele>1648.8</ele>
        <time>2021-02-27T05:08:33Z</time>
      </trkpt>
      <trkpt lat="45.12579" lon="5.88009">
        <ele>1648.8</ele>
        <time>2021-02-27T05:08:34Z</time>
      </trkpt>
      <trkpt lat="45.12578" lon="5.88011">
        <ele>1649</ele>
        <time>2021-02-27T05:08:35Z</time>
      </trkpt>
      <trkpt lat="45.12578" lon="5.88013">
        <ele>1648.8</ele>
        <time>2021-02-27T05:08:36Z</time>
      </trkpt>
      <trkpt lat="45.12577" lon="5.88015">
        <ele>1649</ele>
        <time>2021-02-27T05:08:37Z</time>
      </trkpt>
      <trkpt lat="45.12576" lon="5.88017">
        <ele>1649.2</ele>
        <time>2021-02-27T05:08:38Z</time>
      </trkpt>
      <trkpt lat="45.12575" lon="5.88019">
        <ele>1649.4</ele>
        <time>2021-02-27T05:08:39Z</time>
      </trkpt>
      <trkpt lat="45.12574" lon="5.88021">
        <ele>1649.6</ele>
        <time>2021-02-27T05:08:40Z</time>
      </trkpt>
      <trkpt lat="45.12572" lon="5.88023">
        <ele>1649.6</ele>
        <time>2021-02-27T05:08:41Z</time>
      </trkpt>
      <trkpt lat="45.12572" lon="5.88023">
        <ele>1649.8</ele>
        <time>2021-02-27T05:08:42Z</time>
      </trkpt>
      <trkpt lat="45.12571" lon="5.88025">
        <ele>1650</ele>
        <time>2021-02-27T05:08:43Z</time>
      </trkpt>
      <trkpt lat="45.12569" lon="5.88027">
        <ele>1650.2</ele>
        <time>2021-02-27T05:08:44Z</time>
      </trkpt>
      <trkpt lat="45.12568" lon="5.8803">
        <ele>1650.4</ele>
        <time>2021-02-27T05:08:45Z</time>
      </trkpt>
      <trkpt lat="45.12566" lon="5.88032">
        <ele>1650.6</ele>
        <time>2021-02-27T05:08:46Z</time>
      </trkpt>
      <trkpt lat="45.12566" lon="5.88032">
        <ele>1651</ele>
        <time>2021-02-27T05:08:47Z</time>
      </trkpt>
      <trkpt lat="45.12566" lon="5.88034">
        <ele>1651</ele>
        <time>2021-02-27T05:08:48Z</time>
      </trkpt>
      <trkpt lat="45.12565" lon="5.88035">
        <ele>1651.4</ele>
        <time>2021-02-27T05:08:49Z</time>
      </trkpt>
      <trkpt lat="45.12564" lon="5.88037">
        <ele>1651.4</ele>
        <time>2021-02-27T05:08:50Z</time>
      </trkpt>
      <trkpt lat="45.12563" lon="5.88038">
        <ele>1651.8</ele>
        <time>2021-02-27T05:08:51Z</time>
      </trkpt>
      <trkpt lat="45.12562" lon="5.8804">
        <ele>1652.2</ele>
        <time>2021-02-27T05:08:52Z</time>
      </trkpt>
      <trkpt lat="45.12562" lon="5.8804">
        <ele>1652.6</ele>
        <time>2021-02-27T05:08:53Z</time>
      </trkpt>
      <trkpt lat="45.12562" lon="5.8804">
        <ele>1653</ele>
        <time>2021-02-27T05:08:54Z</time>
      </trkpt>
      <trkpt lat="45.12562" lon="5.8804">
        <ele>1652.8</ele>
        <time>2021-02-27T05:08:55Z</time>
      </trkpt>
      <trkpt lat="45.12565" lon="5.88042">
        <ele>1653</ele>
        <time>2021-02-27T05:08:56Z</time>
      </trkpt>
      <trkpt lat="45.12565" lon="5.88042">
        <ele>1652.8</ele>
        <time>2021-02-27T05:08:57Z</time>
      </trkpt>
      <trkpt lat="45.12565" lon="5.88042">
        <ele>1653</ele>
        <time>2021-02-27T05:08:58Z</time>
      </trkpt>
      <trkpt lat="45.12569" lon="5.88042">
        <ele>1652.8</ele>
        <time>2021-02-27T05:08:59Z</time>
      </trkpt>
      <trkpt lat="45.12569" lon="5.88042">
        <ele>1652.6</ele>
        <time>2021-02-27T05:09:00Z</time>
      </trkpt>
      <trkpt lat="45.12569" lon="5.88042">
        <ele>1652.6</ele>
        <time>2021-02-27T05:09:01Z</time>
      </trkpt>
      <trkpt lat="45.12569" lon="5.88042">
        <ele>1652.6</ele>
        <time>2021-02-27T05:09:02Z</time>
      </trkpt>
      <trkpt lat="45.12569" lon="5.88042">
        <ele>1652.6</ele>
        <time>2021-02-27T05:09:03Z</time>
      </trkpt>
      <trkpt lat="45.12569" lon="5.88042">
        <ele>1652.8</ele>
        <time>2021-02-27T05:09:04Z</time>
      </trkpt>
      <trkpt lat="45.12569" lon="5.88042">
        <ele>1652.8</ele>
        <time>2021-02-27T05:09:05Z</time>
      </trkpt>
      <trkpt lat="45.1257" lon="5.88045">
        <ele>1652.8</ele>
        <time>2021-02-27T05:09:06Z</time>
      </trkpt>
      <trkpt lat="45.1257" lon="5.88045">
        <ele>1652.4</ele>
        <time>2021-02-27T05:09:07Z</time>
      </trkpt>
      <trkpt lat="45.1257" lon="5.88045">
        <ele>1652.6</ele>
        <time>2021-02-27T05:09:08Z</time>
      </trkpt>
      <trkpt lat="45.1257" lon="5.88045">
        <ele>1652.4</ele>
        <time>2021-02-27T05:09:09Z</time>
      </trkpt>
      <trkpt lat="45.1257" lon="5.88045">
        <ele>1652.4</ele>
        <time>2021-02-27T05:09:10Z</time>
      </trkpt>
      <trkpt lat="45.1257" lon="5.88045">
        <ele>1652.8</ele>
        <time>2021-02-27T05:09:11Z</time>
      </trkpt>
      <trkpt lat="45.1257" lon="5.88045">
        <ele>1652.8</ele>
        <time>2021-02-27T05:09:12Z</time>
      </trkpt>
      <trkpt lat="45.1257" lon="5.88045">
        <ele>1653</ele>
        <time>2021-02-27T05:09:13Z</time>
      </trkpt>
      <trkpt lat="45.1257" lon="5.88045">
        <ele>1653.2</ele>
        <time>2021-02-27T05:09:14Z</time>
      </trkpt>
      <trkpt lat="45.1257" lon="5.88045">
        <ele>1653.4</ele>
        <time>2021-02-27T05:09:15Z</time>
      </trkpt>
      <trkpt lat="45.1257" lon="5.88045">
        <ele>1653.4</ele>
        <time>2021-02-27T05:09:16Z</time>
      </trkpt>
      <trkpt lat="45.1257" lon="5.88045">
        <ele>1653.6</ele>
        <time>2021-02-27T05:09:17Z</time>
      </trkpt>
      <trkpt lat="45.1257" lon="5.88045">
        <ele>1653.4</ele>
        <time>2021-02-27T05:09:18Z</time>
      </trkpt>
      <trkpt lat="45.1257" lon="5.88045">
        <ele>1653.6</ele>
        <time>2021-02-27T05:09:19Z</time>
      </trkpt>
      <trkpt lat="45.12568" lon="5.88046">
        <ele>1653.2</ele>
        <time>2021-02-27T05:09:20Z</time>
      </trkpt>
      <trkpt lat="45.12568" lon="5.88046">
        <ele>1653.4</ele>
        <time>2021-02-27T05:09:21Z</time>
      </trkpt>
      <trkpt lat="45.12568" lon="5.88047">
        <ele>1653.4</ele>
        <time>2021-02-27T05:09:22Z</time>
      </trkpt>
      <trkpt lat="45.12567" lon="5.88048">
        <ele>1653.4</ele>
        <time>2021-02-27T05:09:23Z</time>
      </trkpt>
      <trkpt lat="45.12567" lon="5.88049">
        <ele>1653.6</ele>
        <time>2021-02-27T05:09:24Z</time>
      </trkpt>
      <trkpt lat="45.12566" lon="5.8805">
        <ele>1653.4</ele>
        <time>2021-02-27T05:09:25Z</time>
      </trkpt>
      <trkpt lat="45.12565" lon="5.88052">
        <ele>1653.6</ele>
        <time>2021-02-27T05:09:26Z</time>
      </trkpt>
      <trkpt lat="45.12565" lon="5.88053">
        <ele>1654</ele>
        <time>2021-02-27T05:09:27Z</time>
      </trkpt>
      <trkpt lat="45.12564" lon="5.88054">
        <ele>1653.8</ele>
        <time>2021-02-27T05:09:28Z</time>
      </trkpt>
      <trkpt lat="45.12563" lon="5.88055">
        <ele>1654</ele>
        <time>2021-02-27T05:09:29Z</time>
      </trkpt>
      <trkpt lat="45.12563" lon="5.88056">
        <ele>1654.2</ele>
        <time>2021-02-27T05:09:30Z</time>
      </trkpt>
      <trkpt lat="45.12562" lon="5.88057">
        <ele>1654.4</ele>
        <time>2021-02-27T05:09:31Z</time>
      </trkpt>
      <trkpt lat="45.12562" lon="5.88057">
        <ele>1654.6</ele>
        <time>2021-02-27T05:09:32Z</time>
      </trkpt>
      <trkpt lat="45.12562" lon="5.88058">
        <ele>1654.8</ele>
        <time>2021-02-27T05:09:33Z</time>
      </trkpt>
      <trkpt lat="45.12562" lon="5.88058">
        <ele>1654.8</ele>
        <time>2021-02-27T05:09:34Z</time>
      </trkpt>
      <trkpt lat="45.12561" lon="5.88059">
        <ele>1654.8</ele>
        <time>2021-02-27T05:09:35Z</time>
      </trkpt>
      <trkpt lat="45.12561" lon="5.88059">
        <ele>1654.8</ele>
        <time>2021-02-27T05:09:36Z</time>
      </trkpt>
      <trkpt lat="45.12561" lon="5.88059">
        <ele>1654.8</ele>
        <time>2021-02-27T05:09:37Z</time>
      </trkpt>
      <trkpt lat="45.12561" lon="5.8806">
        <ele>1655</ele>
        <time>2021-02-27T05:09:38Z</time>
      </trkpt>
      <trkpt lat="45.1256" lon="5.8806">
        <ele>1654.8</ele>
        <time>2021-02-27T05:09:39Z</time>
      </trkpt>
      <trkpt lat="45.1256" lon="5.88061">
        <ele>1654.8</ele>
        <time>2021-02-27T05:09:40Z</time>
      </trkpt>
      <trkpt lat="45.1256" lon="5.88061">
        <ele>1655</ele>
        <time>2021-02-27T05:09:41Z</time>
      </trkpt>
      <trkpt lat="45.1256" lon="5.88061">
        <ele>1655.2</ele>
        <time>2021-02-27T05:09:42Z</time>
      </trkpt>
      <trkpt lat="45.12559" lon="5.88062">
        <ele>1655</ele>
        <time>2021-02-27T05:09:43Z</time>
      </trkpt>
      <trkpt lat="45.12559" lon="5.88062">
        <ele>1655.4</ele>
        <time>2021-02-27T05:09:44Z</time>
      </trkpt>
      <trkpt lat="45.12559" lon="5.88063">
        <ele>1655.2</ele>
        <time>2021-02-27T05:09:45Z</time>
      </trkpt>
      <trkpt lat="45.12559" lon="5.88063">
        <ele>1655.4</ele>
        <time>2021-02-27T05:09:46Z</time>
      </trkpt>
      <trkpt lat="45.12558" lon="5.88063">
        <ele>1655.6</ele>
        <time>2021-02-27T05:09:47Z</time>
      </trkpt>
      <trkpt lat="45.12558" lon="5.88064">
        <ele>1655.6</ele>
        <time>2021-02-27T05:09:48Z</time>
      </trkpt>
      <trkpt lat="45.12557" lon="5.88065">
        <ele>1655.8</ele>
        <time>2021-02-27T05:09:49Z</time>
      </trkpt>
      <trkpt lat="45.12556" lon="5.88067">
        <ele>1656</ele>
        <time>2021-02-27T05:09:50Z</time>
      </trkpt>
      <trkpt lat="45.12555" lon="5.88068">
        <ele>1656.2</ele>
        <time>2021-02-27T05:09:51Z</time>
      </trkpt>
      <trkpt lat="45.12554" lon="5.8807">
        <ele>1656.6</ele>
        <time>2021-02-27T05:09:52Z</time>
      </trkpt>
      <trkpt lat="45.12554" lon="5.88071">
        <ele>1657</ele>
        <time>2021-02-27T05:09:53Z</time>
      </trkpt>
      <trkpt lat="45.12553" lon="5.88072">
        <ele>1657</ele>
        <time>2021-02-27T05:09:54Z</time>
      </trkpt>
      <trkpt lat="45.12551" lon="5.88074">
        <ele>1656.8</ele>
        <time>2021-02-27T05:09:55Z</time>
      </trkpt>
      <trkpt lat="45.12549" lon="5.88076">
        <ele>1657</ele>
        <time>2021-02-27T05:09:56Z</time>
      </trkpt>
      <trkpt lat="45.12548" lon="5.88078">
        <ele>1657.2</ele>
        <time>2021-02-27T05:09:57Z</time>
      </trkpt>
      <trkpt lat="45.12548" lon="5.88078">
        <ele>1657.4</ele>
        <time>2021-02-27T05:09:58Z</time>
      </trkpt>
      <trkpt lat="45.12546" lon="5.88079">
        <ele>1657.8</ele>
        <time>2021-02-27T05:09:59Z</time>
      </trkpt>
      <trkpt lat="45.12545" lon="5.88079">
        <ele>1658.2</ele>
        <time>2021-02-27T05:10:00Z</time>
      </trkpt>
      <trkpt lat="45.12543" lon="5.8808">
        <ele>1658.4</ele>
        <time>2021-02-27T05:10:01Z</time>
      </trkpt>
      <trkpt lat="45.12542" lon="5.88081">
        <ele>1658.4</ele>
        <time>2021-02-27T05:10:02Z</time>
      </trkpt>
      <trkpt lat="45.12541" lon="5.88082">
        <ele>1658.6</ele>
        <time>2021-02-27T05:10:03Z</time>
      </trkpt>
      <trkpt lat="45.12539" lon="5.88082">
        <ele>1658.6</ele>
        <time>2021-02-27T05:10:04Z</time>
      </trkpt>
      <trkpt lat="45.12538" lon="5.88083">
        <ele>1658.6</ele>
        <time>2021-02-27T05:10:05Z</time>
      </trkpt>
      <trkpt lat="45.12536" lon="5.88083">
        <ele>1658.8</ele>
        <time>2021-02-27T05:10:06Z</time>
      </trkpt>
      <trkpt lat="45.12534" lon="5.88084">
        <ele>1659</ele>
        <time>2021-02-27T05:10:07Z</time>
      </trkpt>
      <trkpt lat="45.12532" lon="5.88084">
        <ele>1659.4</ele>
        <time>2021-02-27T05:10:08Z</time>
      </trkpt>
      <trkpt lat="45.1253" lon="5.88085">
        <ele>1659.2</ele>
        <time>2021-02-27T05:10:09Z</time>
      </trkpt>
      <trkpt lat="45.12529" lon="5.88085">
        <ele>1659.2</ele>
        <time>2021-02-27T05:10:10Z</time>
      </trkpt>
      <trkpt lat="45.12527" lon="5.88086">
        <ele>1659.4</ele>
        <time>2021-02-27T05:10:11Z</time>
      </trkpt>
      <trkpt lat="45.12525" lon="5.88087">
        <ele>1659.8</ele>
        <time>2021-02-27T05:10:12Z</time>
      </trkpt>
      <trkpt lat="45.12524" lon="5.88087">
        <ele>1660</ele>
        <time>2021-02-27T05:10:13Z</time>
      </trkpt>
      <trkpt lat="45.12522" lon="5.88088">
        <ele>1660</ele>
        <time>2021-02-27T05:10:14Z</time>
      </trkpt>
      <trkpt lat="45.1252" lon="5.88088">
        <ele>1660.4</ele>
        <time>2021-02-27T05:10:15Z</time>
      </trkpt>
      <trkpt lat="45.12519" lon="5.88089">
        <ele>1660.6</ele>
        <time>2021-02-27T05:10:16Z</time>
      </trkpt>
      <trkpt lat="45.12517" lon="5.88089">
        <ele>1660.8</ele>
        <time>2021-02-27T05:10:17Z</time>
      </trkpt>
      <trkpt lat="45.12516" lon="5.88089">
        <ele>1660.8</ele>
        <time>2021-02-27T05:10:18Z</time>
      </trkpt>
      <trkpt lat="45.12515" lon="5.88089">
        <ele>1660.6</ele>
        <time>2021-02-27T05:10:19Z</time>
      </trkpt>
      <trkpt lat="45.12513" lon="5.8809">
        <ele>1661</ele>
        <time>2021-02-27T05:10:20Z</time>
      </trkpt>
      <trkpt lat="45.12512" lon="5.8809">
        <ele>1661.2</ele>
        <time>2021-02-27T05:10:21Z</time>
      </trkpt>
      <trkpt lat="45.12509" lon="5.8809">
        <ele>1661.6</ele>
        <time>2021-02-27T05:10:22Z</time>
      </trkpt>
      <trkpt lat="45.12509" lon="5.8809">
        <ele>1662</ele>
        <time>2021-02-27T05:10:23Z</time>
      </trkpt>
      <trkpt lat="45.12506" lon="5.88091">
        <ele>1662.2</ele>
        <time>2021-02-27T05:10:24Z</time>
      </trkpt>
      <trkpt lat="45.12506" lon="5.88091">
        <ele>1662</ele>
        <time>2021-02-27T05:10:25Z</time>
      </trkpt>
      <trkpt lat="45.12503" lon="5.8809">
        <ele>1662.2</ele>
        <time>2021-02-27T05:10:26Z</time>
      </trkpt>
      <trkpt lat="45.12503" lon="5.8809">
        <ele>1662.4</ele>
        <time>2021-02-27T05:10:27Z</time>
      </trkpt>
      <trkpt lat="45.125" lon="5.88089">
        <ele>1662.6</ele>
        <time>2021-02-27T05:10:28Z</time>
      </trkpt>
      <trkpt lat="45.125" lon="5.88089">
        <ele>1663</ele>
        <time>2021-02-27T05:10:29Z</time>
      </trkpt>
      <trkpt lat="45.12497" lon="5.88089">
        <ele>1663.4</ele>
        <time>2021-02-27T05:10:30Z</time>
      </trkpt>
      <trkpt lat="45.12497" lon="5.88089">
        <ele>1663.4</ele>
        <time>2021-02-27T05:10:31Z</time>
      </trkpt>
      <trkpt lat="45.12495" lon="5.88089">
        <ele>1663.6</ele>
        <time>2021-02-27T05:10:32Z</time>
      </trkpt>
      <trkpt lat="45.12495" lon="5.88089">
        <ele>1663.6</ele>
        <time>2021-02-27T05:10:33Z</time>
      </trkpt>
      <trkpt lat="45.12493" lon="5.88088">
        <ele>1664</ele>
        <time>2021-02-27T05:10:34Z</time>
      </trkpt>
      <trkpt lat="45.12493" lon="5.88088">
        <ele>1664.2</ele>
        <time>2021-02-27T05:10:35Z</time>
      </trkpt>
      <trkpt lat="45.1249" lon="5.88088">
        <ele>1664.6</ele>
        <time>2021-02-27T05:10:36Z</time>
      </trkpt>
      <trkpt lat="45.1249" lon="5.88088">
        <ele>1664.8</ele>
        <time>2021-02-27T05:10:37Z</time>
      </trkpt>
      <trkpt lat="45.12487" lon="5.88088">
        <ele>1665</ele>
        <time>2021-02-27T05:10:38Z</time>
      </trkpt>
      <trkpt lat="45.12487" lon="5.88088">
        <ele>1665</ele>
        <time>2021-02-27T05:10:39Z</time>
      </trkpt>
      <trkpt lat="45.12485" lon="5.88089">
        <ele>1665.2</ele>
        <time>2021-02-27T05:10:40Z</time>
      </trkpt>
      <trkpt lat="45.12485" lon="5.88089">
        <ele>1665.6</ele>
        <time>2021-02-27T05:10:41Z</time>
      </trkpt>
      <trkpt lat="45.12482" lon="5.88089">
        <ele>1666</ele>
        <time>2021-02-27T05:10:42Z</time>
      </trkpt>
      <trkpt lat="45.12482" lon="5.88089">
        <ele>1666.4</ele>
        <time>2021-02-27T05:10:43Z</time>
      </trkpt>
      <trkpt lat="45.1248" lon="5.88089">
        <ele>1666.4</ele>
        <time>2021-02-27T05:10:44Z</time>
      </trkpt>
      <trkpt lat="45.1248" lon="5.88089">
        <ele>1666.6</ele>
        <time>2021-02-27T05:10:45Z</time>
      </trkpt>
      <trkpt lat="45.12478" lon="5.8809">
        <ele>1667</ele>
        <time>2021-02-27T05:10:46Z</time>
      </trkpt>
      <trkpt lat="45.12478" lon="5.8809">
        <ele>1667.2</ele>
        <time>2021-02-27T05:10:47Z</time>
      </trkpt>
      <trkpt lat="45.12475" lon="5.8809">
        <ele>1667.6</ele>
        <time>2021-02-27T05:10:48Z</time>
      </trkpt>
      <trkpt lat="45.12475" lon="5.8809">
        <ele>1667.6</ele>
        <time>2021-02-27T05:10:49Z</time>
      </trkpt>
      <trkpt lat="45.12473" lon="5.8809">
        <ele>1667.8</ele>
        <time>2021-02-27T05:10:50Z</time>
      </trkpt>
      <trkpt lat="45.12473" lon="5.8809">
        <ele>1668</ele>
        <time>2021-02-27T05:10:51Z</time>
      </trkpt>
      <trkpt lat="45.1247" lon="5.88091">
        <ele>1668.4</ele>
        <time>2021-02-27T05:10:52Z</time>
      </trkpt>
      <trkpt lat="45.1247" lon="5.88091">
        <ele>1668.8</ele>
        <time>2021-02-27T05:10:53Z</time>
      </trkpt>
      <trkpt lat="45.12467" lon="5.88092">
        <ele>1669.4</ele>
        <time>2021-02-27T05:10:54Z</time>
      </trkpt>
      <trkpt lat="45.12467" lon="5.88092">
        <ele>1669.4</ele>
        <time>2021-02-27T05:10:55Z</time>
      </trkpt>
      <trkpt lat="45.12465" lon="5.88093">
        <ele>1669.6</ele>
        <time>2021-02-27T05:10:56Z</time>
      </trkpt>
      <trkpt lat="45.12465" lon="5.88093">
        <ele>1669.8</ele>
        <time>2021-02-27T05:10:57Z</time>
      </trkpt>
      <trkpt lat="45.12462" lon="5.88094">
        <ele>1670.4</ele>
        <time>2021-02-27T05:10:58Z</time>
      </trkpt>
      <trkpt lat="45.12462" lon="5.88094">
        <ele>1670.6</ele>
        <time>2021-02-27T05:10:59Z</time>
      </trkpt>
      <trkpt lat="45.12461" lon="5.88094">
        <ele>1671</ele>
        <time>2021-02-27T05:11:00Z</time>
      </trkpt>
      <trkpt lat="45.1246" lon="5.88094">
        <ele>1671.2</ele>
        <time>2021-02-27T05:11:01Z</time>
      </trkpt>
      <trkpt lat="45.12459" lon="5.88094">
        <ele>1671.4</ele>
        <time>2021-02-27T05:11:02Z</time>
      </trkpt>
      <trkpt lat="45.12458" lon="5.88095">
        <ele>1671.6</ele>
        <time>2021-02-27T05:11:03Z</time>
      </trkpt>
      <trkpt lat="45.12458" lon="5.88095">
        <ele>1672</ele>
        <time>2021-02-27T05:11:04Z</time>
      </trkpt>
      <trkpt lat="45.12457" lon="5.88095">
        <ele>1672</ele>
        <time>2021-02-27T05:11:05Z</time>
      </trkpt>
      <trkpt lat="45.12456" lon="5.88095">
        <ele>1672.2</ele>
        <time>2021-02-27T05:11:06Z</time>
      </trkpt>
      <trkpt lat="45.12455" lon="5.88096">
        <ele>1672.6</ele>
        <time>2021-02-27T05:11:07Z</time>
      </trkpt>
      <trkpt lat="45.12454" lon="5.88096">
        <ele>1673</ele>
        <time>2021-02-27T05:11:08Z</time>
      </trkpt>
      <trkpt lat="45.12453" lon="5.88096">
        <ele>1673.4</ele>
        <time>2021-02-27T05:11:09Z</time>
      </trkpt>
      <trkpt lat="45.12452" lon="5.88096">
        <ele>1673.6</ele>
        <time>2021-02-27T05:11:10Z</time>
      </trkpt>
      <trkpt lat="45.12451" lon="5.88097">
        <ele>1674</ele>
        <time>2021-02-27T05:11:11Z</time>
      </trkpt>
      <trkpt lat="45.1245" lon="5.88097">
        <ele>1674.4</ele>
        <time>2021-02-27T05:11:12Z</time>
      </trkpt>
      <trkpt lat="45.12449" lon="5.88098">
        <ele>1674.8</ele>
        <time>2021-02-27T05:11:13Z</time>
      </trkpt>
      <trkpt lat="45.12448" lon="5.88098">
        <ele>1675</ele>
        <time>2021-02-27T05:11:14Z</time>
      </trkpt>
      <trkpt lat="45.12447" lon="5.88098">
        <ele>1675.4</ele>
        <time>2021-02-27T05:11:15Z</time>
      </trkpt>
      <trkpt lat="45.12446" lon="5.88099">
        <ele>1675.8</ele>
        <time>2021-02-27T05:11:16Z</time>
      </trkpt>
      <trkpt lat="45.12445" lon="5.88099">
        <ele>1676.2</ele>
        <time>2021-02-27T05:11:17Z</time>
      </trkpt>
      <trkpt lat="45.12444" lon="5.88099">
        <ele>1676.4</ele>
        <time>2021-02-27T05:11:18Z</time>
      </trkpt>
      <trkpt lat="45.12443" lon="5.881">
        <ele>1676.4</ele>
        <time>2021-02-27T05:11:19Z</time>
      </trkpt>
      <trkpt lat="45.12442" lon="5.881">
        <ele>1677</ele>
        <time>2021-02-27T05:11:20Z</time>
      </trkpt>
      <trkpt lat="45.12442" lon="5.88101">
        <ele>1677.4</ele>
        <time>2021-02-27T05:11:21Z</time>
      </trkpt>
      <trkpt lat="45.12441" lon="5.88102">
        <ele>1677.8</ele>
        <time>2021-02-27T05:11:22Z</time>
      </trkpt>
      <trkpt lat="45.1244" lon="5.88102">
        <ele>1677.8</ele>
        <time>2021-02-27T05:11:23Z</time>
      </trkpt>
      <trkpt lat="45.12439" lon="5.88103">
        <ele>1678.2</ele>
        <time>2021-02-27T05:11:24Z</time>
      </trkpt>
      <trkpt lat="45.12438" lon="5.88104">
        <ele>1678.4</ele>
        <time>2021-02-27T05:11:25Z</time>
      </trkpt>
      <trkpt lat="45.12437" lon="5.88104">
        <ele>1679</ele>
        <time>2021-02-27T05:11:26Z</time>
      </trkpt>
      <trkpt lat="45.12436" lon="5.88105">
        <ele>1679</ele>
        <time>2021-02-27T05:11:27Z</time>
      </trkpt>
      <trkpt lat="45.12435" lon="5.88106">
        <ele>1679.4</ele>
        <time>2021-02-27T05:11:28Z</time>
      </trkpt>
      <trkpt lat="45.12434" lon="5.88107">
        <ele>1679.8</ele>
        <time>2021-02-27T05:11:29Z</time>
      </trkpt>
      <trkpt lat="45.12433" lon="5.88107">
        <ele>1680.4</ele>
        <time>2021-02-27T05:11:30Z</time>
      </trkpt>
      <trkpt lat="45.12432" lon="5.88108">
        <ele>1680.6</ele>
        <time>2021-02-27T05:11:31Z</time>
      </trkpt>
      <trkpt lat="45.12431" lon="5.88109">
        <ele>1680.8</ele>
        <time>2021-02-27T05:11:32Z</time>
      </trkpt>
      <trkpt lat="45.1243" lon="5.8811">
        <ele>1681</ele>
        <time>2021-02-27T05:11:33Z</time>
      </trkpt>
      <trkpt lat="45.12429" lon="5.8811">
        <ele>1681.4</ele>
        <time>2021-02-27T05:11:34Z</time>
      </trkpt>
      <trkpt lat="45.12429" lon="5.8811">
        <ele>1681.6</ele>
        <time>2021-02-27T05:11:35Z</time>
      </trkpt>
      <trkpt lat="45.12426" lon="5.88113">
        <ele>1681.8</ele>
        <time>2021-02-27T05:11:36Z</time>
      </trkpt>
      <trkpt lat="45.12426" lon="5.88113">
        <ele>1682.2</ele>
        <time>2021-02-27T05:11:37Z</time>
      </trkpt>
      <trkpt lat="45.12426" lon="5.88113">
        <ele>1682.6</ele>
        <time>2021-02-27T05:11:38Z</time>
      </trkpt>
      <trkpt lat="45.12425" lon="5.88115">
        <ele>1682.8</ele>
        <time>2021-02-27T05:11:39Z</time>
      </trkpt>
      <trkpt lat="45.12425" lon="5.88115">
        <ele>1683</ele>
        <time>2021-02-27T05:11:40Z</time>
      </trkpt>
      <trkpt lat="45.12425" lon="5.88115">
        <ele>1683.4</ele>
        <time>2021-02-27T05:11:41Z</time>
      </trkpt>
      <trkpt lat="45.12422" lon="5.88116">
        <ele>1684.2</ele>
        <time>2021-02-27T05:11:42Z</time>
      </trkpt>
      <trkpt lat="45.12422" lon="5.88116">
        <ele>1684.2</ele>
        <time>2021-02-27T05:11:43Z</time>
      </trkpt>
      <trkpt lat="45.12422" lon="5.88116">
        <ele>1684.4</ele>
        <time>2021-02-27T05:11:44Z</time>
      </trkpt>
      <trkpt lat="45.12422" lon="5.88116">
        <ele>1684.4</ele>
        <time>2021-02-27T05:11:45Z</time>
      </trkpt>
      <trkpt lat="45.1242" lon="5.88119">
        <ele>1685</ele>
        <time>2021-02-27T05:11:46Z</time>
      </trkpt>
      <trkpt lat="45.1242" lon="5.88119">
        <ele>1685.2</ele>
        <time>2021-02-27T05:11:47Z</time>
      </trkpt>
      <trkpt lat="45.1242" lon="5.88119">
        <ele>1685.4</ele>
        <time>2021-02-27T05:11:48Z</time>
      </trkpt>
      <trkpt lat="45.12418" lon="5.8812">
        <ele>1685.6</ele>
        <time>2021-02-27T05:11:49Z</time>
      </trkpt>
      <trkpt lat="45.12418" lon="5.8812">
        <ele>1686</ele>
        <time>2021-02-27T05:11:50Z</time>
      </trkpt>
      <trkpt lat="45.12418" lon="5.8812">
        <ele>1686.4</ele>
        <time>2021-02-27T05:11:51Z</time>
      </trkpt>
      <trkpt lat="45.12418" lon="5.8812">
        <ele>1686.4</ele>
        <time>2021-02-27T05:11:52Z</time>
      </trkpt>
      <trkpt lat="45.12416" lon="5.8812">
        <ele>1686.8</ele>
        <time>2021-02-27T05:11:53Z</time>
      </trkpt>
      <trkpt lat="45.12416" lon="5.8812">
        <ele>1687</ele>
        <time>2021-02-27T05:11:54Z</time>
      </trkpt>
      <trkpt lat="45.12415" lon="5.88121">
        <ele>1687.6</ele>
        <time>2021-02-27T05:11:55Z</time>
      </trkpt>
      <trkpt lat="45.12414" lon="5.88122">
        <ele>1687.6</ele>
        <time>2021-02-27T05:11:56Z</time>
      </trkpt>
      <trkpt lat="45.12413" lon="5.88122">
        <ele>1688</ele>
        <time>2021-02-27T05:11:57Z</time>
      </trkpt>
      <trkpt lat="45.12412" lon="5.88123">
        <ele>1688.4</ele>
        <time>2021-02-27T05:11:58Z</time>
      </trkpt>
      <trkpt lat="45.12411" lon="5.88124">
        <ele>1688.8</ele>
        <time>2021-02-27T05:11:59Z</time>
      </trkpt>
      <trkpt lat="45.1241" lon="5.88124">
        <ele>1688.8</ele>
        <time>2021-02-27T05:12:00Z</time>
      </trkpt>
      <trkpt lat="45.12409" lon="5.88125">
        <ele>1689.2</ele>
        <time>2021-02-27T05:12:01Z</time>
      </trkpt>
      <trkpt lat="45.12408" lon="5.88125">
        <ele>1689.2</ele>
        <time>2021-02-27T05:12:02Z</time>
      </trkpt>
      <trkpt lat="45.12407" lon="5.88126">
        <ele>1690</ele>
        <time>2021-02-27T05:12:03Z</time>
      </trkpt>
      <trkpt lat="45.12406" lon="5.88127">
        <ele>1690</ele>
        <time>2021-02-27T05:12:04Z</time>
      </trkpt>
      <trkpt lat="45.12405" lon="5.88127">
        <ele>1690.4</ele>
        <time>2021-02-27T05:12:05Z</time>
      </trkpt>
      <trkpt lat="45.12405" lon="5.88128">
        <ele>1690.6</ele>
        <time>2021-02-27T05:12:06Z</time>
      </trkpt>
      <trkpt lat="45.12404" lon="5.88129">
        <ele>1691.2</ele>
        <time>2021-02-27T05:12:07Z</time>
      </trkpt>
      <trkpt lat="45.12403" lon="5.8813">
        <ele>1691.4</ele>
        <time>2021-02-27T05:12:08Z</time>
      </trkpt>
      <trkpt lat="45.12402" lon="5.8813">
        <ele>1691.6</ele>
        <time>2021-02-27T05:12:09Z</time>
      </trkpt>
      <trkpt lat="45.12401" lon="5.88131">
        <ele>1692</ele>
        <time>2021-02-27T05:12:10Z</time>
      </trkpt>
      <trkpt lat="45.124" lon="5.88132">
        <ele>1692.2</ele>
        <time>2021-02-27T05:12:11Z</time>
      </trkpt>
      <trkpt lat="45.124" lon="5.88132">
        <ele>1692.2</ele>
        <time>2021-02-27T05:12:12Z</time>
      </trkpt>
      <trkpt lat="45.12399" lon="5.88133">
        <ele>1692.6</ele>
        <time>2021-02-27T05:12:13Z</time>
      </trkpt>
      <trkpt lat="45.12399" lon="5.88133">
        <ele>1692.8</ele>
        <time>2021-02-27T05:12:14Z</time>
      </trkpt>
      <trkpt lat="45.12396" lon="5.88135">
        <ele>1693.8</ele>
        <time>2021-02-27T05:12:15Z</time>
      </trkpt>
      <trkpt lat="45.12396" lon="5.88135">
        <ele>1694</ele>
        <time>2021-02-27T05:12:16Z</time>
      </trkpt>
      <trkpt lat="45.12395" lon="5.88135">
        <ele>1694.4</ele>
        <time>2021-02-27T05:12:17Z</time>
      </trkpt>
      <trkpt lat="45.12394" lon="5.88136">
        <ele>1694.4</ele>
        <time>2021-02-27T05:12:18Z</time>
      </trkpt>
      <trkpt lat="45.12394" lon="5.88137">
        <ele>1694.6</ele>
        <time>2021-02-27T05:12:19Z</time>
      </trkpt>
      <trkpt lat="45.12393" lon="5.88137">
        <ele>1695</ele>
        <time>2021-02-27T05:12:20Z</time>
      </trkpt>
      <trkpt lat="45.12392" lon="5.88138">
        <ele>1695</ele>
        <time>2021-02-27T05:12:21Z</time>
      </trkpt>
      <trkpt lat="45.12391" lon="5.88138">
        <ele>1695.2</ele>
        <time>2021-02-27T05:12:22Z</time>
      </trkpt>
      <trkpt lat="45.1239" lon="5.88139">
        <ele>1695.4</ele>
        <time>2021-02-27T05:12:23Z</time>
      </trkpt>
      <trkpt lat="45.12389" lon="5.88139">
        <ele>1695.8</ele>
        <time>2021-02-27T05:12:24Z</time>
      </trkpt>
      <trkpt lat="45.12388" lon="5.8814">
        <ele>1696.2</ele>
        <time>2021-02-27T05:12:25Z</time>
      </trkpt>
      <trkpt lat="45.12387" lon="5.8814">
        <ele>1696.4</ele>
        <time>2021-02-27T05:12:26Z</time>
      </trkpt>
      <trkpt lat="45.12386" lon="5.88141">
        <ele>1696.8</ele>
        <time>2021-02-27T05:12:27Z</time>
      </trkpt>
      <trkpt lat="45.12386" lon="5.88141">
        <ele>1697</ele>
        <time>2021-02-27T05:12:28Z</time>
      </trkpt>
      <trkpt lat="45.12385" lon="5.88141">
        <ele>1697.6</ele>
        <time>2021-02-27T05:12:29Z</time>
      </trkpt>
      <trkpt lat="45.12384" lon="5.88142">
        <ele>1697.8</ele>
        <time>2021-02-27T05:12:30Z</time>
      </trkpt>
      <trkpt lat="45.12383" lon="5.88142">
        <ele>1698.4</ele>
        <time>2021-02-27T05:12:31Z</time>
      </trkpt>
      <trkpt lat="45.12382" lon="5.88143">
        <ele>1698.4</ele>
        <time>2021-02-27T05:12:32Z</time>
      </trkpt>
      <trkpt lat="45.12381" lon="5.88143">
        <ele>1698.8</ele>
        <time>2021-02-27T05:12:33Z</time>
      </trkpt>
      <trkpt lat="45.12381" lon="5.88143">
        <ele>1699.2</ele>
        <time>2021-02-27T05:12:34Z</time>
      </trkpt>
      <trkpt lat="45.12381" lon="5.88143">
        <ele>1699.6</ele>
        <time>2021-02-27T05:12:35Z</time>
      </trkpt>
      <trkpt lat="45.12378" lon="5.88145">
        <ele>1699.6</ele>
        <time>2021-02-27T05:12:36Z</time>
      </trkpt>
      <trkpt lat="45.12378" lon="5.88145">
        <ele>1700</ele>
        <time>2021-02-27T05:12:37Z</time>
      </trkpt>
      <trkpt lat="45.12376" lon="5.88146">
        <ele>1700.4</ele>
        <time>2021-02-27T05:12:38Z</time>
      </trkpt>
      <trkpt lat="45.12376" lon="5.88146">
        <ele>1700.8</ele>
        <time>2021-02-27T05:12:39Z</time>
      </trkpt>
      <trkpt lat="45.12376" lon="5.88146">
        <ele>1700.8</ele>
        <time>2021-02-27T05:12:40Z</time>
      </trkpt>
      <trkpt lat="45.12374" lon="5.88146">
        <ele>1701.2</ele>
        <time>2021-02-27T05:12:41Z</time>
      </trkpt>
      <trkpt lat="45.12374" lon="5.88146">
        <ele>1701.6</ele>
        <time>2021-02-27T05:12:42Z</time>
      </trkpt>
      <trkpt lat="45.12374" lon="5.88147">
        <ele>1701.8</ele>
        <time>2021-02-27T05:12:43Z</time>
      </trkpt>
      <trkpt lat="45.12373" lon="5.88148">
        <ele>1702</ele>
        <time>2021-02-27T05:12:44Z</time>
      </trkpt>
      <trkpt lat="45.12372" lon="5.88148">
        <ele>1702.6</ele>
        <time>2021-02-27T05:12:45Z</time>
      </trkpt>
      <trkpt lat="45.12371" lon="5.88149">
        <ele>1703</ele>
        <time>2021-02-27T05:12:46Z</time>
      </trkpt>
      <trkpt lat="45.12371" lon="5.88149">
        <ele>1703</ele>
        <time>2021-02-27T05:12:47Z</time>
      </trkpt>
      <trkpt lat="45.1237" lon="5.8815">
        <ele>1703.4</ele>
        <time>2021-02-27T05:12:48Z</time>
      </trkpt>
      <trkpt lat="45.12369" lon="5.88151">
        <ele>1703.8</ele>
        <time>2021-02-27T05:12:49Z</time>
      </trkpt>
      <trkpt lat="45.12368" lon="5.88151">
        <ele>1704.2</ele>
        <time>2021-02-27T05:12:50Z</time>
      </trkpt>
      <trkpt lat="45.12368" lon="5.88152">
        <ele>1704.2</ele>
        <time>2021-02-27T05:12:51Z</time>
      </trkpt>
      <trkpt lat="45.12367" lon="5.88152">
        <ele>1704.8</ele>
        <time>2021-02-27T05:12:52Z</time>
      </trkpt>
      <trkpt lat="45.12366" lon="5.88153">
        <ele>1705.4</ele>
        <time>2021-02-27T05:12:53Z</time>
      </trkpt>
      <trkpt lat="45.12366" lon="5.88153">
        <ele>1705.4</ele>
        <time>2021-02-27T05:12:54Z</time>
      </trkpt>
      <trkpt lat="45.12365" lon="5.88153">
        <ele>1705.8</ele>
        <time>2021-02-27T05:12:55Z</time>
      </trkpt>
      <trkpt lat="45.12364" lon="5.88153">
        <ele>1706.4</ele>
        <time>2021-02-27T05:12:56Z</time>
      </trkpt>
      <trkpt lat="45.12364" lon="5.88153">
        <ele>1706.4</ele>
        <time>2021-02-27T05:12:57Z</time>
      </trkpt>
      <trkpt lat="45.12363" lon="5.88153">
        <ele>1706.8</ele>
        <time>2021-02-27T05:12:58Z</time>
      </trkpt>
      <trkpt lat="45.12363" lon="5.88153">
        <ele>1707</ele>
        <time>2021-02-27T05:12:59Z</time>
      </trkpt>
      <trkpt lat="45.12362" lon="5.88153">
        <ele>1707.4</ele>
        <time>2021-02-27T05:13:00Z</time>
      </trkpt>
      <trkpt lat="45.12362" lon="5.88153">
        <ele>1707.6</ele>
        <time>2021-02-27T05:13:01Z</time>
      </trkpt>
      <trkpt lat="45.12361" lon="5.88153">
        <ele>1708</ele>
        <time>2021-02-27T05:13:02Z</time>
      </trkpt>
      <trkpt lat="45.1236" lon="5.88153">
        <ele>1708.2</ele>
        <time>2021-02-27T05:13:03Z</time>
      </trkpt>
      <trkpt lat="45.1236" lon="5.88153">
        <ele>1708.6</ele>
        <time>2021-02-27T05:13:04Z</time>
      </trkpt>
      <trkpt lat="45.12359" lon="5.88153">
        <ele>1709</ele>
        <time>2021-02-27T05:13:05Z</time>
      </trkpt>
      <trkpt lat="45.12359" lon="5.88153">
        <ele>1709.4</ele>
        <time>2021-02-27T05:13:06Z</time>
      </trkpt>
      <trkpt lat="45.12358" lon="5.88153">
        <ele>1709.6</ele>
        <time>2021-02-27T05:13:07Z</time>
      </trkpt>
      <trkpt lat="45.12358" lon="5.88153">
        <ele>1709.8</ele>
        <time>2021-02-27T05:13:08Z</time>
      </trkpt>
      <trkpt lat="45.12357" lon="5.88153">
        <ele>1710.2</ele>
        <time>2021-02-27T05:13:09Z</time>
      </trkpt>
      <trkpt lat="45.12357" lon="5.88153">
        <ele>1710.4</ele>
        <time>2021-02-27T05:13:10Z</time>
      </trkpt>
      <trkpt lat="45.12355" lon="5.88156">
        <ele>1710.8</ele>
        <time>2021-02-27T05:13:11Z</time>
      </trkpt>
      <trkpt lat="45.12355" lon="5.88156">
        <ele>1711</ele>
        <time>2021-02-27T05:13:12Z</time>
      </trkpt>
      <trkpt lat="45.12355" lon="5.88156">
        <ele>1711.4</ele>
        <time>2021-02-27T05:13:13Z</time>
      </trkpt>
      <trkpt lat="45.12354" lon="5.88158">
        <ele>1712</ele>
        <time>2021-02-27T05:13:14Z</time>
      </trkpt>
      <trkpt lat="45.12354" lon="5.88158">
        <ele>1712</ele>
        <time>2021-02-27T05:13:15Z</time>
      </trkpt>
      <trkpt lat="45.12354" lon="5.88158">
        <ele>1712.2</ele>
        <time>2021-02-27T05:13:16Z</time>
      </trkpt>
      <trkpt lat="45.12351" lon="5.8816">
        <ele>1712.6</ele>
        <time>2021-02-27T05:13:17Z</time>
      </trkpt>
      <trkpt lat="45.12351" lon="5.8816">
        <ele>1713.2</ele>
        <time>2021-02-27T05:13:18Z</time>
      </trkpt>
      <trkpt lat="45.1235" lon="5.88162">
        <ele>1713.4</ele>
        <time>2021-02-27T05:13:19Z</time>
      </trkpt>
      <trkpt lat="45.1235" lon="5.88162">
        <ele>1713.6</ele>
        <time>2021-02-27T05:13:20Z</time>
      </trkpt>
      <trkpt lat="45.12348" lon="5.88164">
        <ele>1714.2</ele>
        <time>2021-02-27T05:13:21Z</time>
      </trkpt>
      <trkpt lat="45.12348" lon="5.88164">
        <ele>1714.2</ele>
        <time>2021-02-27T05:13:22Z</time>
      </trkpt>
      <trkpt lat="45.12348" lon="5.88165">
        <ele>1714.6</ele>
        <time>2021-02-27T05:13:23Z</time>
      </trkpt>
      <trkpt lat="45.12347" lon="5.88166">
        <ele>1715</ele>
        <time>2021-02-27T05:13:24Z</time>
      </trkpt>
      <trkpt lat="45.12346" lon="5.88166">
        <ele>1715.4</ele>
        <time>2021-02-27T05:13:25Z</time>
      </trkpt>
      <trkpt lat="45.12345" lon="5.88167">
        <ele>1715.6</ele>
        <time>2021-02-27T05:13:26Z</time>
      </trkpt>
      <trkpt lat="45.12344" lon="5.88167">
        <ele>1716</ele>
        <time>2021-02-27T05:13:27Z</time>
      </trkpt>
      <trkpt lat="45.12344" lon="5.88168">
        <ele>1716.2</ele>
        <time>2021-02-27T05:13:28Z</time>
      </trkpt>
      <trkpt lat="45.12343" lon="5.88169">
        <ele>1716.6</ele>
        <time>2021-02-27T05:13:29Z</time>
      </trkpt>
      <trkpt lat="45.12342" lon="5.88169">
        <ele>1716.8</ele>
        <time>2021-02-27T05:13:30Z</time>
      </trkpt>
      <trkpt lat="45.12341" lon="5.8817">
        <ele>1717.2</ele>
        <time>2021-02-27T05:13:31Z</time>
      </trkpt>
      <trkpt lat="45.1234" lon="5.88171">
        <ele>1717.8</ele>
        <time>2021-02-27T05:13:32Z</time>
      </trkpt>
      <trkpt lat="45.12339" lon="5.88171">
        <ele>1717.8</ele>
        <time>2021-02-27T05:13:33Z</time>
      </trkpt>
      <trkpt lat="45.12338" lon="5.88172">
        <ele>1718.2</ele>
        <time>2021-02-27T05:13:34Z</time>
      </trkpt>
      <trkpt lat="45.12337" lon="5.88173">
        <ele>1718.8</ele>
        <time>2021-02-27T05:13:35Z</time>
      </trkpt>
      <trkpt lat="45.12336" lon="5.88174">
        <ele>1718.8</ele>
        <time>2021-02-27T05:13:36Z</time>
      </trkpt>
      <trkpt lat="45.12335" lon="5.88174">
        <ele>1719.2</ele>
        <time>2021-02-27T05:13:37Z</time>
      </trkpt>
      <trkpt lat="45.12335" lon="5.88175">
        <ele>1719.4</ele>
        <time>2021-02-27T05:13:38Z</time>
      </trkpt>
      <trkpt lat="45.12334" lon="5.88175">
        <ele>1719.8</ele>
        <time>2021-02-27T05:13:39Z</time>
      </trkpt>
      <trkpt lat="45.12333" lon="5.88175">
        <ele>1719.8</ele>
        <time>2021-02-27T05:13:40Z</time>
      </trkpt>
      <trkpt lat="45.12332" lon="5.88176">
        <ele>1720.2</ele>
        <time>2021-02-27T05:13:41Z</time>
      </trkpt>
      <trkpt lat="45.12332" lon="5.88176">
        <ele>1720.6</ele>
        <time>2021-02-27T05:13:42Z</time>
      </trkpt>
      <trkpt lat="45.12331" lon="5.88177">
        <ele>1720.8</ele>
        <time>2021-02-27T05:13:43Z</time>
      </trkpt>
      <trkpt lat="45.1233" lon="5.88177">
        <ele>1721</ele>
        <time>2021-02-27T05:13:44Z</time>
      </trkpt>
      <trkpt lat="45.12329" lon="5.88178">
        <ele>1721.4</ele>
        <time>2021-02-27T05:13:45Z</time>
      </trkpt>
      <trkpt lat="45.12328" lon="5.88178">
        <ele>1721.8</ele>
        <time>2021-02-27T05:13:46Z</time>
      </trkpt>
      <trkpt lat="45.12327" lon="5.88179">
        <ele>1722</ele>
        <time>2021-02-27T05:13:47Z</time>
      </trkpt>
      <trkpt lat="45.12327" lon="5.88179">
        <ele>1722.2</ele>
        <time>2021-02-27T05:13:48Z</time>
      </trkpt>
      <trkpt lat="45.12326" lon="5.8818">
        <ele>1722.6</ele>
        <time>2021-02-27T05:13:49Z</time>
      </trkpt>
      <trkpt lat="45.12325" lon="5.8818">
        <ele>1723</ele>
        <time>2021-02-27T05:13:50Z</time>
      </trkpt>
      <trkpt lat="45.12324" lon="5.88181">
        <ele>1723.2</ele>
        <time>2021-02-27T05:13:51Z</time>
      </trkpt>
      <trkpt lat="45.12323" lon="5.88181">
        <ele>1723.4</ele>
        <time>2021-02-27T05:13:52Z</time>
      </trkpt>
      <trkpt lat="45.12322" lon="5.88182">
        <ele>1723.6</ele>
        <time>2021-02-27T05:13:53Z</time>
      </trkpt>
      <trkpt lat="45.12321" lon="5.88182">
        <ele>1724.2</ele>
        <time>2021-02-27T05:13:54Z</time>
      </trkpt>
      <trkpt lat="45.12321" lon="5.88183">
        <ele>1724.4</ele>
        <time>2021-02-27T05:13:55Z</time>
      </trkpt>
      <trkpt lat="45.12321" lon="5.88184">
        <ele>1724.6</ele>
        <time>2021-02-27T05:13:56Z</time>
      </trkpt>
      <trkpt lat="45.1232" lon="5.88185">
        <ele>1724.6</ele>
        <time>2021-02-27T05:13:57Z</time>
      </trkpt>
      <trkpt lat="45.1232" lon="5.88186">
        <ele>1725</ele>
        <time>2021-02-27T05:13:58Z</time>
      </trkpt>
      <trkpt lat="45.1232" lon="5.88186">
        <ele>1725.2</ele>
        <time>2021-02-27T05:13:59Z</time>
      </trkpt>
      <trkpt lat="45.12319" lon="5.88187">
        <ele>1725.6</ele>
        <time>2021-02-27T05:14:00Z</time>
      </trkpt>
      <trkpt lat="45.12319" lon="5.88188">
        <ele>1726</ele>
        <time>2021-02-27T05:14:01Z</time>
      </trkpt>
      <trkpt lat="45.12319" lon="5.88189">
        <ele>1726.4</ele>
        <time>2021-02-27T05:14:02Z</time>
      </trkpt>
      <trkpt lat="45.12318" lon="5.8819">
        <ele>1726.6</ele>
        <time>2021-02-27T05:14:03Z</time>
      </trkpt>
      <trkpt lat="45.12318" lon="5.8819">
        <ele>1727</ele>
        <time>2021-02-27T05:14:04Z</time>
      </trkpt>
      <trkpt lat="45.12318" lon="5.88191">
        <ele>1727.4</ele>
        <time>2021-02-27T05:14:05Z</time>
      </trkpt>
      <trkpt lat="45.12317" lon="5.88192">
        <ele>1727.6</ele>
        <time>2021-02-27T05:14:06Z</time>
      </trkpt>
      <trkpt lat="45.12317" lon="5.88192">
        <ele>1728.2</ele>
        <time>2021-02-27T05:14:07Z</time>
      </trkpt>
      <trkpt lat="45.12317" lon="5.88193">
        <ele>1728.4</ele>
        <time>2021-02-27T05:14:08Z</time>
      </trkpt>
      <trkpt lat="45.12316" lon="5.88194">
        <ele>1728.8</ele>
        <time>2021-02-27T05:14:09Z</time>
      </trkpt>
      <trkpt lat="45.12316" lon="5.88195">
        <ele>1729.2</ele>
        <time>2021-02-27T05:14:10Z</time>
      </trkpt>
      <trkpt lat="45.12316" lon="5.88195">
        <ele>1729.4</ele>
        <time>2021-02-27T05:14:11Z</time>
      </trkpt>
      <trkpt lat="45.12316" lon="5.88196">
        <ele>1729.8</ele>
        <time>2021-02-27T05:14:12Z</time>
      </trkpt>
      <trkpt lat="45.12315" lon="5.88197">
        <ele>1729.8</ele>
        <time>2021-02-27T05:14:13Z</time>
      </trkpt>
      <trkpt lat="45.12315" lon="5.88198">
        <ele>1730</ele>
        <time>2021-02-27T05:14:14Z</time>
      </trkpt>
      <trkpt lat="45.12315" lon="5.88199">
        <ele>1730.4</ele>
        <time>2021-02-27T05:14:15Z</time>
      </trkpt>
      <trkpt lat="45.12314" lon="5.882">
        <ele>1730.8</ele>
        <time>2021-02-27T05:14:16Z</time>
      </trkpt>
      <trkpt lat="45.12314" lon="5.882">
        <ele>1731.2</ele>
        <time>2021-02-27T05:14:17Z</time>
      </trkpt>
      <trkpt lat="45.12314" lon="5.88201">
        <ele>1731.4</ele>
        <time>2021-02-27T05:14:18Z</time>
      </trkpt>
      <trkpt lat="45.12313" lon="5.88202">
        <ele>1732.2</ele>
        <time>2021-02-27T05:14:19Z</time>
      </trkpt>
      <trkpt lat="45.12313" lon="5.88202">
        <ele>1732.2</ele>
        <time>2021-02-27T05:14:20Z</time>
      </trkpt>
      <trkpt lat="45.12312" lon="5.88203">
        <ele>1732.4</ele>
        <time>2021-02-27T05:14:21Z</time>
      </trkpt>
      <trkpt lat="45.12312" lon="5.88204">
        <ele>1732.6</ele>
        <time>2021-02-27T05:14:22Z</time>
      </trkpt>
      <trkpt lat="45.12311" lon="5.88204">
        <ele>1733</ele>
        <time>2021-02-27T05:14:23Z</time>
      </trkpt>
      <trkpt lat="45.12311" lon="5.88205">
        <ele>1733.2</ele>
        <time>2021-02-27T05:14:24Z</time>
      </trkpt>
      <trkpt lat="45.1231" lon="5.88206">
        <ele>1733.4</ele>
        <time>2021-02-27T05:14:25Z</time>
      </trkpt>
      <trkpt lat="45.1231" lon="5.88206">
        <ele>1734</ele>
        <time>2021-02-27T05:14:26Z</time>
      </trkpt>
      <trkpt lat="45.12309" lon="5.88207">
        <ele>1734</ele>
        <time>2021-02-27T05:14:27Z</time>
      </trkpt>
      <trkpt lat="45.12309" lon="5.88208">
        <ele>1734.2</ele>
        <time>2021-02-27T05:14:28Z</time>
      </trkpt>
      <trkpt lat="45.12308" lon="5.88208">
        <ele>1734.4</ele>
        <time>2021-02-27T05:14:29Z</time>
      </trkpt>
      <trkpt lat="45.12308" lon="5.88209">
        <ele>1734.8</ele>
        <time>2021-02-27T05:14:30Z</time>
      </trkpt>
      <trkpt lat="45.12307" lon="5.8821">
        <ele>1735</ele>
        <time>2021-02-27T05:14:31Z</time>
      </trkpt>
      <trkpt lat="45.12307" lon="5.8821">
        <ele>1735.4</ele>
        <time>2021-02-27T05:14:32Z</time>
      </trkpt>
      <trkpt lat="45.12306" lon="5.8821">
        <ele>1735.6</ele>
        <time>2021-02-27T05:14:33Z</time>
      </trkpt>
      <trkpt lat="45.12305" lon="5.88211">
        <ele>1736.2</ele>
        <time>2021-02-27T05:14:34Z</time>
      </trkpt>
      <trkpt lat="45.12305" lon="5.88211">
        <ele>1736.4</ele>
        <time>2021-02-27T05:14:35Z</time>
      </trkpt>
      <trkpt lat="45.12304" lon="5.88212">
        <ele>1736.8</ele>
        <time>2021-02-27T05:14:36Z</time>
      </trkpt>
      <trkpt lat="45.12303" lon="5.88212">
        <ele>1737.2</ele>
        <time>2021-02-27T05:14:37Z</time>
      </trkpt>
      <trkpt lat="45.12303" lon="5.88213">
        <ele>1737.6</ele>
        <time>2021-02-27T05:14:38Z</time>
      </trkpt>
      <trkpt lat="45.12302" lon="5.88213">
        <ele>1737.6</ele>
        <time>2021-02-27T05:14:39Z</time>
      </trkpt>
      <trkpt lat="45.12301" lon="5.88214">
        <ele>1737.8</ele>
        <time>2021-02-27T05:14:40Z</time>
      </trkpt>
      <trkpt lat="45.12301" lon="5.88214">
        <ele>1738.4</ele>
        <time>2021-02-27T05:14:41Z</time>
      </trkpt>
      <trkpt lat="45.123" lon="5.88214">
        <ele>1738.4</ele>
        <time>2021-02-27T05:14:42Z</time>
      </trkpt>
      <trkpt lat="45.123" lon="5.88215">
        <ele>1738.8</ele>
        <time>2021-02-27T05:14:43Z</time>
      </trkpt>
      <trkpt lat="45.12299" lon="5.88215">
        <ele>1739.4</ele>
        <time>2021-02-27T05:14:44Z</time>
      </trkpt>
      <trkpt lat="45.12298" lon="5.88216">
        <ele>1739.6</ele>
        <time>2021-02-27T05:14:45Z</time>
      </trkpt>
      <trkpt lat="45.12297" lon="5.88217">
        <ele>1740</ele>
        <time>2021-02-27T05:14:46Z</time>
      </trkpt>
      <trkpt lat="45.12297" lon="5.88218">
        <ele>1740.2</ele>
        <time>2021-02-27T05:14:47Z</time>
      </trkpt>
      <trkpt lat="45.12296" lon="5.88219">
        <ele>1740.6</ele>
        <time>2021-02-27T05:14:48Z</time>
      </trkpt>
      <trkpt lat="45.12295" lon="5.8822">
        <ele>1741.2</ele>
        <time>2021-02-27T05:14:49Z</time>
      </trkpt>
      <trkpt lat="45.12295" lon="5.8822">
        <ele>1741.4</ele>
        <time>2021-02-27T05:14:50Z</time>
      </trkpt>
      <trkpt lat="45.12295" lon="5.8822">
        <ele>1741.8</ele>
        <time>2021-02-27T05:14:51Z</time>
      </trkpt>
      <trkpt lat="45.12294" lon="5.88222">
        <ele>1742</ele>
        <time>2021-02-27T05:14:52Z</time>
      </trkpt>
      <trkpt lat="45.12294" lon="5.88222">
        <ele>1742.2</ele>
        <time>2021-02-27T05:14:53Z</time>
      </trkpt>
      <trkpt lat="45.12294" lon="5.88222">
        <ele>1742.4</ele>
        <time>2021-02-27T05:14:54Z</time>
      </trkpt>
      <trkpt lat="45.12292" lon="5.88223">
        <ele>1742.8</ele>
        <time>2021-02-27T05:14:55Z</time>
      </trkpt>
      <trkpt lat="45.12292" lon="5.88223">
        <ele>1743.2</ele>
        <time>2021-02-27T05:14:56Z</time>
      </trkpt>
      <trkpt lat="45.12292" lon="5.88223">
        <ele>1743.4</ele>
        <time>2021-02-27T05:14:57Z</time>
      </trkpt>
      <trkpt lat="45.12291" lon="5.88224">
        <ele>1744</ele>
        <time>2021-02-27T05:14:58Z</time>
      </trkpt>
      <trkpt lat="45.12291" lon="5.88224">
        <ele>1744</ele>
        <time>2021-02-27T05:14:59Z</time>
      </trkpt>
      <trkpt lat="45.12291" lon="5.88224">
        <ele>1744.2</ele>
        <time>2021-02-27T05:15:00Z</time>
      </trkpt>
      <trkpt lat="45.12291" lon="5.88224">
        <ele>1744.6</ele>
        <time>2021-02-27T05:15:01Z</time>
      </trkpt>
      <trkpt lat="45.12288" lon="5.88226">
        <ele>1745</ele>
        <time>2021-02-27T05:15:02Z</time>
      </trkpt>
      <trkpt lat="45.12288" lon="5.88226">
        <ele>1745.2</ele>
        <time>2021-02-27T05:15:03Z</time>
      </trkpt>
      <trkpt lat="45.12288" lon="5.88226">
        <ele>1745.2</ele>
        <time>2021-02-27T05:15:04Z</time>
      </trkpt>
      <trkpt lat="45.12286" lon="5.88227">
        <ele>1745.8</ele>
        <time>2021-02-27T05:15:05Z</time>
      </trkpt>
      <trkpt lat="45.12286" lon="5.88227">
        <ele>1745.8</ele>
        <time>2021-02-27T05:15:06Z</time>
      </trkpt>
      <trkpt lat="45.12286" lon="5.88227">
        <ele>1746</ele>
        <time>2021-02-27T05:15:07Z</time>
      </trkpt>
      <trkpt lat="45.12285" lon="5.88229">
        <ele>1746.8</ele>
        <time>2021-02-27T05:15:08Z</time>
      </trkpt>
      <trkpt lat="45.12285" lon="5.88229">
        <ele>1746.8</ele>
        <time>2021-02-27T05:15:09Z</time>
      </trkpt>
      <trkpt lat="45.12285" lon="5.88229">
        <ele>1747.2</ele>
        <time>2021-02-27T05:15:10Z</time>
      </trkpt>
      <trkpt lat="45.12283" lon="5.88232">
        <ele>1747.2</ele>
        <time>2021-02-27T05:15:11Z</time>
      </trkpt>
      <trkpt lat="45.12283" lon="5.88232">
        <ele>1747.6</ele>
        <time>2021-02-27T05:15:12Z</time>
      </trkpt>
      <trkpt lat="45.12282" lon="5.88233">
        <ele>1748</ele>
        <time>2021-02-27T05:15:13Z</time>
      </trkpt>
      <trkpt lat="45.12282" lon="5.88233">
        <ele>1748.2</ele>
        <time>2021-02-27T05:15:14Z</time>
      </trkpt>
      <trkpt lat="45.12281" lon="5.88234">
        <ele>1748.6</ele>
        <time>2021-02-27T05:15:15Z</time>
      </trkpt>
      <trkpt lat="45.12281" lon="5.88235">
        <ele>1748.8</ele>
        <time>2021-02-27T05:15:16Z</time>
      </trkpt>
      <trkpt lat="45.1228" lon="5.88236">
        <ele>1749.2</ele>
        <time>2021-02-27T05:15:17Z</time>
      </trkpt>
      <trkpt lat="45.1228" lon="5.88236">
        <ele>1749.6</ele>
        <time>2021-02-27T05:15:18Z</time>
      </trkpt>
      <trkpt lat="45.1228" lon="5.88236">
        <ele>1749.6</ele>
        <time>2021-02-27T05:15:19Z</time>
      </trkpt>
      <trkpt lat="45.12279" lon="5.88238">
        <ele>1750</ele>
        <time>2021-02-27T05:15:20Z</time>
      </trkpt>
      <trkpt lat="45.12279" lon="5.88238">
        <ele>1750.4</ele>
        <time>2021-02-27T05:15:21Z</time>
      </trkpt>
      <trkpt lat="45.12279" lon="5.88238">
        <ele>1751</ele>
        <time>2021-02-27T05:15:22Z</time>
      </trkpt>
      <trkpt lat="45.12279" lon="5.88238">
        <ele>1751.2</ele>
        <time>2021-02-27T05:15:23Z</time>
      </trkpt>
      <trkpt lat="45.12277" lon="5.88239">
        <ele>1751.4</ele>
        <time>2021-02-27T05:15:24Z</time>
      </trkpt>
      <trkpt lat="45.12277" lon="5.88239">
        <ele>1751.8</ele>
        <time>2021-02-27T05:15:25Z</time>
      </trkpt>
      <trkpt lat="45.12275" lon="5.88241">
        <ele>1751.8</ele>
        <time>2021-02-27T05:15:26Z</time>
      </trkpt>
      <trkpt lat="45.12275" lon="5.88241">
        <ele>1751.8</ele>
        <time>2021-02-27T05:15:27Z</time>
      </trkpt>
      <trkpt lat="45.12275" lon="5.88242">
        <ele>1752.8</ele>
        <time>2021-02-27T05:15:28Z</time>
      </trkpt>
      <trkpt lat="45.12274" lon="5.88242">
        <ele>1753</ele>
        <time>2021-02-27T05:15:29Z</time>
      </trkpt>
      <trkpt lat="45.12274" lon="5.88243">
        <ele>1752.8</ele>
        <time>2021-02-27T05:15:30Z</time>
      </trkpt>
      <trkpt lat="45.12273" lon="5.88244">
        <ele>1753.2</ele>
        <time>2021-02-27T05:15:31Z</time>
      </trkpt>
      <trkpt lat="45.12273" lon="5.88244">
        <ele>1753.6</ele>
        <time>2021-02-27T05:15:32Z</time>
      </trkpt>
      <trkpt lat="45.12272" lon="5.88245">
        <ele>1753.8</ele>
        <time>2021-02-27T05:15:33Z</time>
      </trkpt>
      <trkpt lat="45.12272" lon="5.88245">
        <ele>1754</ele>
        <time>2021-02-27T05:15:34Z</time>
      </trkpt>
      <trkpt lat="45.12271" lon="5.88246">
        <ele>1754.4</ele>
        <time>2021-02-27T05:15:35Z</time>
      </trkpt>
      <trkpt lat="45.12271" lon="5.88247">
        <ele>1754.8</ele>
        <time>2021-02-27T05:15:36Z</time>
      </trkpt>
      <trkpt lat="45.1227" lon="5.88247">
        <ele>1754.8</ele>
        <time>2021-02-27T05:15:37Z</time>
      </trkpt>
      <trkpt lat="45.1227" lon="5.88248">
        <ele>1755.2</ele>
        <time>2021-02-27T05:15:38Z</time>
      </trkpt>
      <trkpt lat="45.12269" lon="5.88249">
        <ele>1755.4</ele>
        <time>2021-02-27T05:15:39Z</time>
      </trkpt>
      <trkpt lat="45.12269" lon="5.88249">
        <ele>1755.8</ele>
        <time>2021-02-27T05:15:40Z</time>
      </trkpt>
      <trkpt lat="45.12268" lon="5.8825">
        <ele>1756</ele>
        <time>2021-02-27T05:15:41Z</time>
      </trkpt>
      <trkpt lat="45.12268" lon="5.8825">
        <ele>1756.6</ele>
        <time>2021-02-27T05:15:42Z</time>
      </trkpt>
      <trkpt lat="45.12267" lon="5.88251">
        <ele>1756.8</ele>
        <time>2021-02-27T05:15:43Z</time>
      </trkpt>
      <trkpt lat="45.12267" lon="5.88251">
        <ele>1757.4</ele>
        <time>2021-02-27T05:15:44Z</time>
      </trkpt>
      <trkpt lat="45.12266" lon="5.88252">
        <ele>1757.6</ele>
        <time>2021-02-27T05:15:45Z</time>
      </trkpt>
      <trkpt lat="45.12266" lon="5.88252">
        <ele>1757.8</ele>
        <time>2021-02-27T05:15:46Z</time>
      </trkpt>
      <trkpt lat="45.12265" lon="5.88252">
        <ele>1758.2</ele>
        <time>2021-02-27T05:15:47Z</time>
      </trkpt>
      <trkpt lat="45.12264" lon="5.88253">
        <ele>1758.6</ele>
        <time>2021-02-27T05:15:48Z</time>
      </trkpt>
      <trkpt lat="45.12264" lon="5.88253">
        <ele>1759.2</ele>
        <time>2021-02-27T05:15:49Z</time>
      </trkpt>
      <trkpt lat="45.12264" lon="5.88253">
        <ele>1759.4</ele>
        <time>2021-02-27T05:15:50Z</time>
      </trkpt>
      <trkpt lat="45.12264" lon="5.88253">
        <ele>1759.8</ele>
        <time>2021-02-27T05:15:51Z</time>
      </trkpt>
      <trkpt lat="45.12264" lon="5.88253">
        <ele>1760.2</ele>
        <time>2021-02-27T05:15:52Z</time>
      </trkpt>
      <trkpt lat="45.12262" lon="5.88255">
        <ele>1760.4</ele>
        <time>2021-02-27T05:15:53Z</time>
      </trkpt>
      <trkpt lat="45.12262" lon="5.88255">
        <ele>1760.8</ele>
        <time>2021-02-27T05:15:54Z</time>
      </trkpt>
      <trkpt lat="45.12262" lon="5.88255">
        <ele>1761.2</ele>
        <time>2021-02-27T05:15:55Z</time>
      </trkpt>
      <trkpt lat="45.12262" lon="5.88255">
        <ele>1761.2</ele>
        <time>2021-02-27T05:15:56Z</time>
      </trkpt>
      <trkpt lat="45.12262" lon="5.88255">
        <ele>1761.6</ele>
        <time>2021-02-27T05:15:57Z</time>
      </trkpt>
      <trkpt lat="45.12262" lon="5.88255">
        <ele>1762.2</ele>
        <time>2021-02-27T05:15:58Z</time>
      </trkpt>
      <trkpt lat="45.12262" lon="5.88255">
        <ele>1762.4</ele>
        <time>2021-02-27T05:15:59Z</time>
      </trkpt>
      <trkpt lat="45.12262" lon="5.88255">
        <ele>1762.6</ele>
        <time>2021-02-27T05:16:00Z</time>
      </trkpt>
      <trkpt lat="45.1226" lon="5.88257">
        <ele>1763</ele>
        <time>2021-02-27T05:16:01Z</time>
      </trkpt>
      <trkpt lat="45.1226" lon="5.88257">
        <ele>1763.4</ele>
        <time>2021-02-27T05:16:02Z</time>
      </trkpt>
      <trkpt lat="45.1226" lon="5.88257">
        <ele>1763.6</ele>
        <time>2021-02-27T05:16:03Z</time>
      </trkpt>
      <trkpt lat="45.12258" lon="5.8826">
        <ele>1763.8</ele>
        <time>2021-02-27T05:16:04Z</time>
      </trkpt>
      <trkpt lat="45.12258" lon="5.8826">
        <ele>1764</ele>
        <time>2021-02-27T05:16:05Z</time>
      </trkpt>
      <trkpt lat="45.12258" lon="5.8826">
        <ele>1764.2</ele>
        <time>2021-02-27T05:16:06Z</time>
      </trkpt>
      <trkpt lat="45.12257" lon="5.88262">
        <ele>1764.8</ele>
        <time>2021-02-27T05:16:07Z</time>
      </trkpt>
      <trkpt lat="45.12257" lon="5.88262">
        <ele>1765.2</ele>
        <time>2021-02-27T05:16:08Z</time>
      </trkpt>
      <trkpt lat="45.12257" lon="5.88262">
        <ele>1765.6</ele>
        <time>2021-02-27T05:16:09Z</time>
      </trkpt>
      <trkpt lat="45.12255" lon="5.88264">
        <ele>1766.2</ele>
        <time>2021-02-27T05:16:10Z</time>
      </trkpt>
      <trkpt lat="45.12255" lon="5.88264">
        <ele>1766.2</ele>
        <time>2021-02-27T05:16:11Z</time>
      </trkpt>
      <trkpt lat="45.12255" lon="5.88264">
        <ele>1766.4</ele>
        <time>2021-02-27T05:16:12Z</time>
      </trkpt>
      <trkpt lat="45.12255" lon="5.88264">
        <ele>1766.6</ele>
        <time>2021-02-27T05:16:13Z</time>
      </trkpt>
      <trkpt lat="45.12254" lon="5.88266">
        <ele>1767.2</ele>
        <time>2021-02-27T05:16:14Z</time>
      </trkpt>
      <trkpt lat="45.12254" lon="5.88266">
        <ele>1767.4</ele>
        <time>2021-02-27T05:16:15Z</time>
      </trkpt>
      <trkpt lat="45.12254" lon="5.88266">
        <ele>1768.2</ele>
        <time>2021-02-27T05:16:16Z</time>
      </trkpt>
      <trkpt lat="45.12252" lon="5.88267">
        <ele>1768.6</ele>
        <time>2021-02-27T05:16:17Z</time>
      </trkpt>
      <trkpt lat="45.12252" lon="5.88267">
        <ele>1769.2</ele>
        <time>2021-02-27T05:16:18Z</time>
      </trkpt>
      <trkpt lat="45.12252" lon="5.88267">
        <ele>1769.2</ele>
        <time>2021-02-27T05:16:19Z</time>
      </trkpt>
      <trkpt lat="45.12252" lon="5.88267">
        <ele>1769.2</ele>
        <time>2021-02-27T05:16:20Z</time>
      </trkpt>
      <trkpt lat="45.1225" lon="5.88269">
        <ele>1769.6</ele>
        <time>2021-02-27T05:16:21Z</time>
      </trkpt>
      <trkpt lat="45.1225" lon="5.88269">
        <ele>1769.8</ele>
        <time>2021-02-27T05:16:22Z</time>
      </trkpt>
      <trkpt lat="45.1225" lon="5.88269">
        <ele>1770.2</ele>
        <time>2021-02-27T05:16:23Z</time>
      </trkpt>
      <trkpt lat="45.1225" lon="5.88269">
        <ele>1770.4</ele>
        <time>2021-02-27T05:16:24Z</time>
      </trkpt>
      <trkpt lat="45.12249" lon="5.88271">
        <ele>1770.6</ele>
        <time>2021-02-27T05:16:25Z</time>
      </trkpt>
      <trkpt lat="45.12249" lon="5.88271">
        <ele>1771.4</ele>
        <time>2021-02-27T05:16:26Z</time>
      </trkpt>
      <trkpt lat="45.12248" lon="5.88273">
        <ele>1771.4</ele>
        <time>2021-02-27T05:16:27Z</time>
      </trkpt>
      <trkpt lat="45.12248" lon="5.88273">
        <ele>1771.4</ele>
        <time>2021-02-27T05:16:28Z</time>
      </trkpt>
      <trkpt lat="45.12247" lon="5.88275">
        <ele>1771.4</ele>
        <time>2021-02-27T05:16:29Z</time>
      </trkpt>
      <trkpt lat="45.12247" lon="5.88275">
        <ele>1772</ele>
        <time>2021-02-27T05:16:30Z</time>
      </trkpt>
      <trkpt lat="45.12244" lon="5.88277">
        <ele>1772.4</ele>
        <time>2021-02-27T05:16:31Z</time>
      </trkpt>
      <trkpt lat="45.12244" lon="5.88277">
        <ele>1772.6</ele>
        <time>2021-02-27T05:16:32Z</time>
      </trkpt>
      <trkpt lat="45.12244" lon="5.88277">
        <ele>1773</ele>
        <time>2021-02-27T05:16:33Z</time>
      </trkpt>
      <trkpt lat="45.12244" lon="5.88277">
        <ele>1773.2</ele>
        <time>2021-02-27T05:16:34Z</time>
      </trkpt>
      <trkpt lat="45.12243" lon="5.8828">
        <ele>1773.4</ele>
        <time>2021-02-27T05:16:35Z</time>
      </trkpt>
      <trkpt lat="45.12243" lon="5.8828">
        <ele>1773.2</ele>
        <time>2021-02-27T05:16:36Z</time>
      </trkpt>
      <trkpt lat="45.12243" lon="5.8828">
        <ele>1773.6</ele>
        <time>2021-02-27T05:16:37Z</time>
      </trkpt>
      <trkpt lat="45.12243" lon="5.8828">
        <ele>1773.8</ele>
        <time>2021-02-27T05:16:38Z</time>
      </trkpt>
      <trkpt lat="45.12243" lon="5.8828">
        <ele>1773.6</ele>
        <time>2021-02-27T05:16:39Z</time>
      </trkpt>
      <trkpt lat="45.12244" lon="5.88277">
        <ele>1773.8</ele>
        <time>2021-02-27T05:16:40Z</time>
      </trkpt>
      <trkpt lat="45.12244" lon="5.88277">
        <ele>1773.4</ele>
        <time>2021-02-27T05:16:41Z</time>
      </trkpt>
      <trkpt lat="45.12244" lon="5.88277">
        <ele>1773.4</ele>
        <time>2021-02-27T05:16:42Z</time>
      </trkpt>
      <trkpt lat="45.12244" lon="5.88277">
        <ele>1773.6</ele>
        <time>2021-02-27T05:16:43Z</time>
      </trkpt>
      <trkpt lat="45.12245" lon="5.88274">
        <ele>1773.8</ele>
        <time>2021-02-27T05:16:44Z</time>
      </trkpt>
      <trkpt lat="45.12245" lon="5.88274">
        <ele>1774</ele>
        <time>2021-02-27T05:16:45Z</time>
      </trkpt>
      <trkpt lat="45.12245" lon="5.88274">
        <ele>1774.4</ele>
        <time>2021-02-27T05:16:46Z</time>
      </trkpt>
      <trkpt lat="45.12245" lon="5.88274">
        <ele>1774.6</ele>
        <time>2021-02-27T05:16:47Z</time>
      </trkpt>
      <trkpt lat="45.12245" lon="5.88274">
        <ele>1774.6</ele>
        <time>2021-02-27T05:16:48Z</time>
      </trkpt>
      <trkpt lat="45.12245" lon="5.88274">
        <ele>1774.8</ele>
        <time>2021-02-27T05:16:49Z</time>
      </trkpt>
      <trkpt lat="45.12245" lon="5.88274">
        <ele>1774.8</ele>
        <time>2021-02-27T05:16:50Z</time>
      </trkpt>
      <trkpt lat="45.12245" lon="5.88274">
        <ele>1775</ele>
        <time>2021-02-27T05:16:51Z</time>
      </trkpt>
      <trkpt lat="45.12245" lon="5.88274">
        <ele>1775</ele>
        <time>2021-02-27T05:16:52Z</time>
      </trkpt>
      <trkpt lat="45.12245" lon="5.88274">
        <ele>1775.2</ele>
        <time>2021-02-27T05:16:53Z</time>
      </trkpt>
      <trkpt lat="45.12245" lon="5.88274">
        <ele>1774.8</ele>
        <time>2021-02-27T05:16:54Z</time>
      </trkpt>
      <trkpt lat="45.12245" lon="5.88274">
        <ele>1774.8</ele>
        <time>2021-02-27T05:16:55Z</time>
      </trkpt>
      <trkpt lat="45.12247" lon="5.88274">
        <ele>1774.4</ele>
        <time>2021-02-27T05:16:56Z</time>
      </trkpt>
      <trkpt lat="45.12247" lon="5.88274">
        <ele>1774.2</ele>
        <time>2021-02-27T05:16:57Z</time>
      </trkpt>
      <trkpt lat="45.12247" lon="5.88274">
        <ele>1774.2</ele>
        <time>2021-02-27T05:16:58Z</time>
      </trkpt>
      <trkpt lat="45.12247" lon="5.88274">
        <ele>1774.6</ele>
        <time>2021-02-27T05:16:59Z</time>
      </trkpt>
      <trkpt lat="45.12247" lon="5.88274">
        <ele>1774.4</ele>
        <time>2021-02-27T05:17:00Z</time>
      </trkpt>
      <trkpt lat="45.12247" lon="5.88274">
        <ele>1774.2</ele>
        <time>2021-02-27T05:17:01Z</time>
      </trkpt>
      <trkpt lat="45.12247" lon="5.88274">
        <ele>1774.2</ele>
        <time>2021-02-27T05:17:02Z</time>
      </trkpt>
      <trkpt lat="45.12247" lon="5.88274">
        <ele>1774</ele>
        <time>2021-02-27T05:17:03Z</time>
      </trkpt>
      <trkpt lat="45.12247" lon="5.88274">
        <ele>1773.8</ele>
        <time>2021-02-27T05:17:04Z</time>
      </trkpt>
      <trkpt lat="45.12247" lon="5.88274">
        <ele>1773.8</ele>
        <time>2021-02-27T05:17:05Z</time>
      </trkpt>
      <trkpt lat="45.12247" lon="5.88274">
        <ele>1773.8</ele>
        <time>2021-02-27T05:17:06Z</time>
      </trkpt>
      <trkpt lat="45.12247" lon="5.88274">
        <ele>1773.8</ele>
        <time>2021-02-27T05:17:07Z</time>
      </trkpt>
      <trkpt lat="45.12247" lon="5.88274">
        <ele>1774</ele>
        <time>2021-02-27T05:17:08Z</time>
      </trkpt>
      <trkpt lat="45.12247" lon="5.88274">
        <ele>1774</ele>
        <time>2021-02-27T05:17:09Z</time>
      </trkpt>
      <trkpt lat="45.12247" lon="5.88274">
        <ele>1774.2</ele>
        <time>2021-02-27T05:17:10Z</time>
      </trkpt>
      <trkpt lat="45.12247" lon="5.88274">
        <ele>1774.2</ele>
        <time>2021-02-27T05:17:11Z</time>
      </trkpt>
      <trkpt lat="45.12247" lon="5.88274">
        <ele>1774.2</ele>
        <time>2021-02-27T05:17:12Z</time>
      </trkpt>
      <trkpt lat="45.12247" lon="5.88274">
        <ele>1774.2</ele>
        <time>2021-02-27T05:17:13Z</time>
      </trkpt>
      <trkpt lat="45.12247" lon="5.88274">
        <ele>1774.4</ele>
        <time>2021-02-27T05:17:14Z</time>
      </trkpt>
      <trkpt lat="45.12247" lon="5.88274">
        <ele>1774.2</ele>
        <time>2021-02-27T05:17:15Z</time>
      </trkpt>
      <trkpt lat="45.12247" lon="5.88274">
        <ele>1774.2</ele>
        <time>2021-02-27T05:17:16Z</time>
      </trkpt>
      <trkpt lat="45.12247" lon="5.88274">
        <ele>1774.2</ele>
        <time>2021-02-27T05:17:17Z</time>
      </trkpt>
      <trkpt lat="45.12247" lon="5.88274">
        <ele>1774.6</ele>
        <time>2021-02-27T05:17:18Z</time>
      </trkpt>
      <trkpt lat="45.12247" lon="5.88274">
        <ele>1774.6</ele>
        <time>2021-02-27T05:17:19Z</time>
      </trkpt>
      <trkpt lat="45.12247" lon="5.88274">
        <ele>1775</ele>
        <time>2021-02-27T05:17:20Z</time>
      </trkpt>
      <trkpt lat="45.12247" lon="5.88274">
        <ele>1775.2</ele>
        <time>2021-02-27T05:17:21Z</time>
      </trkpt>
      <trkpt lat="45.12247" lon="5.88274">
        <ele>1775.2</ele>
        <time>2021-02-27T05:17:22Z</time>
      </trkpt>
      <trkpt lat="45.12247" lon="5.88274">
        <ele>1775.6</ele>
        <time>2021-02-27T05:17:23Z</time>
      </trkpt>
      <trkpt lat="45.12247" lon="5.88274">
        <ele>1775.4</ele>
        <time>2021-02-27T05:17:24Z</time>
      </trkpt>
      <trkpt lat="45.12247" lon="5.88274">
        <ele>1775.2</ele>
        <time>2021-02-27T05:17:25Z</time>
      </trkpt>
      <trkpt lat="45.12247" lon="5.88274">
        <ele>1775.2</ele>
        <time>2021-02-27T05:17:26Z</time>
      </trkpt>
      <trkpt lat="45.12246" lon="5.88276">
        <ele>1775.6</ele>
        <time>2021-02-27T05:17:27Z</time>
      </trkpt>
      <trkpt lat="45.12246" lon="5.88276">
        <ele>1776</ele>
        <time>2021-02-27T05:17:28Z</time>
      </trkpt>
      <trkpt lat="45.12246" lon="5.88276">
        <ele>1776.6</ele>
        <time>2021-02-27T05:17:29Z</time>
      </trkpt>
      <trkpt lat="45.12244" lon="5.88279">
        <ele>1776.8</ele>
        <time>2021-02-27T05:17:30Z</time>
      </trkpt>
      <trkpt lat="45.12244" lon="5.88279">
        <ele>1776.8</ele>
        <time>2021-02-27T05:17:31Z</time>
      </trkpt>
      <trkpt lat="45.12243" lon="5.88281">
        <ele>1777</ele>
        <time>2021-02-27T05:17:32Z</time>
      </trkpt>
      <trkpt lat="45.12243" lon="5.88281">
        <ele>1777</ele>
        <time>2021-02-27T05:17:33Z</time>
      </trkpt>
      <trkpt lat="45.12241" lon="5.88284">
        <ele>1777.4</ele>
        <time>2021-02-27T05:17:34Z</time>
      </trkpt>
      <trkpt lat="45.12241" lon="5.88284">
        <ele>1777.6</ele>
        <time>2021-02-27T05:17:35Z</time>
      </trkpt>
      <trkpt lat="45.1224" lon="5.88286">
        <ele>1777.6</ele>
        <time>2021-02-27T05:17:36Z</time>
      </trkpt>
      <trkpt lat="45.1224" lon="5.88286">
        <ele>1777.8</ele>
        <time>2021-02-27T05:17:37Z</time>
      </trkpt>
      <trkpt lat="45.1224" lon="5.88286">
        <ele>1777.8</ele>
        <time>2021-02-27T05:17:38Z</time>
      </trkpt>
      <trkpt lat="45.12238" lon="5.88289">
        <ele>1778.4</ele>
        <time>2021-02-27T05:17:39Z</time>
      </trkpt>
      <trkpt lat="45.12238" lon="5.88289">
        <ele>1778.4</ele>
        <time>2021-02-27T05:17:40Z</time>
      </trkpt>
      <trkpt lat="45.12238" lon="5.88289">
        <ele>1778.6</ele>
        <time>2021-02-27T05:17:41Z</time>
      </trkpt>
      <trkpt lat="45.12238" lon="5.88289">
        <ele>1778.8</ele>
        <time>2021-02-27T05:17:42Z</time>
      </trkpt>
      <trkpt lat="45.12236" lon="5.88291">
        <ele>1778.8</ele>
        <time>2021-02-27T05:17:43Z</time>
      </trkpt>
      <trkpt lat="45.12236" lon="5.88291">
        <ele>1779</ele>
        <time>2021-02-27T05:17:44Z</time>
      </trkpt>
      <trkpt lat="45.12235" lon="5.88293">
        <ele>1779.4</ele>
        <time>2021-02-27T05:17:45Z</time>
      </trkpt>
      <trkpt lat="45.12235" lon="5.88293">
        <ele>1779.8</ele>
        <time>2021-02-27T05:17:46Z</time>
      </trkpt>
      <trkpt lat="45.12235" lon="5.88293">
        <ele>1780.2</ele>
        <time>2021-02-27T05:17:47Z</time>
      </trkpt>
      <trkpt lat="45.12234" lon="5.88295">
        <ele>1780</ele>
        <time>2021-02-27T05:17:48Z</time>
      </trkpt>
      <trkpt lat="45.12234" lon="5.88295">
        <ele>1780.2</ele>
        <time>2021-02-27T05:17:49Z</time>
      </trkpt>
      <trkpt lat="45.12233" lon="5.88298">
        <ele>1780.4</ele>
        <time>2021-02-27T05:17:50Z</time>
      </trkpt>
      <trkpt lat="45.12233" lon="5.88298">
        <ele>1780.8</ele>
        <time>2021-02-27T05:17:51Z</time>
      </trkpt>
      <trkpt lat="45.12231" lon="5.88301">
        <ele>1780.6</ele>
        <time>2021-02-27T05:17:52Z</time>
      </trkpt>
      <trkpt lat="45.12231" lon="5.88301">
        <ele>1781</ele>
        <time>2021-02-27T05:17:53Z</time>
      </trkpt>
      <trkpt lat="45.12231" lon="5.88301">
        <ele>1781.2</ele>
        <time>2021-02-27T05:17:54Z</time>
      </trkpt>
      <trkpt lat="45.1223" lon="5.88303">
        <ele>1781.4</ele>
        <time>2021-02-27T05:17:55Z</time>
      </trkpt>
      <trkpt lat="45.1223" lon="5.88303">
        <ele>1781.6</ele>
        <time>2021-02-27T05:17:56Z</time>
      </trkpt>
      <trkpt lat="45.1223" lon="5.88303">
        <ele>1781.8</ele>
        <time>2021-02-27T05:17:57Z</time>
      </trkpt>
      <trkpt lat="45.12229" lon="5.88307">
        <ele>1782</ele>
        <time>2021-02-27T05:17:58Z</time>
      </trkpt>
      <trkpt lat="45.12229" lon="5.88307">
        <ele>1782.2</ele>
        <time>2021-02-27T05:17:59Z</time>
      </trkpt>
      <trkpt lat="45.12228" lon="5.8831">
        <ele>1782.2</ele>
        <time>2021-02-27T05:18:00Z</time>
      </trkpt>
      <trkpt lat="45.12228" lon="5.8831">
        <ele>1782.6</ele>
        <time>2021-02-27T05:18:01Z</time>
      </trkpt>
      <trkpt lat="45.12227" lon="5.88313">
        <ele>1783</ele>
        <time>2021-02-27T05:18:02Z</time>
      </trkpt>
      <trkpt lat="45.12227" lon="5.88313">
        <ele>1783.4</ele>
        <time>2021-02-27T05:18:03Z</time>
      </trkpt>
      <trkpt lat="45.12226" lon="5.88317">
        <ele>1784</ele>
        <time>2021-02-27T05:18:04Z</time>
      </trkpt>
      <trkpt lat="45.12226" lon="5.88317">
        <ele>1784</ele>
        <time>2021-02-27T05:18:05Z</time>
      </trkpt>
      <trkpt lat="45.12225" lon="5.88319">
        <ele>1784.4</ele>
        <time>2021-02-27T05:18:06Z</time>
      </trkpt>
      <trkpt lat="45.12225" lon="5.88319">
        <ele>1784.8</ele>
        <time>2021-02-27T05:18:07Z</time>
      </trkpt>
      <trkpt lat="45.12225" lon="5.88323">
        <ele>1784.8</ele>
        <time>2021-02-27T05:18:08Z</time>
      </trkpt>
      <trkpt lat="45.12225" lon="5.88323">
        <ele>1785</ele>
        <time>2021-02-27T05:18:09Z</time>
      </trkpt>
      <trkpt lat="45.12225" lon="5.88323">
        <ele>1785</ele>
        <time>2021-02-27T05:18:10Z</time>
      </trkpt>
      <trkpt lat="45.12225" lon="5.88326">
        <ele>1785.4</ele>
        <time>2021-02-27T05:18:11Z</time>
      </trkpt>
      <trkpt lat="45.12225" lon="5.88326">
        <ele>1785.4</ele>
        <time>2021-02-27T05:18:12Z</time>
      </trkpt>
      <trkpt lat="45.12225" lon="5.8833">
        <ele>1785.6</ele>
        <time>2021-02-27T05:18:13Z</time>
      </trkpt>
      <trkpt lat="45.12225" lon="5.8833">
        <ele>1786</ele>
        <time>2021-02-27T05:18:14Z</time>
      </trkpt>
      <trkpt lat="45.12224" lon="5.88333">
        <ele>1786.2</ele>
        <time>2021-02-27T05:18:15Z</time>
      </trkpt>
      <trkpt lat="45.12224" lon="5.88333">
        <ele>1786.6</ele>
        <time>2021-02-27T05:18:16Z</time>
      </trkpt>
      <trkpt lat="45.12224" lon="5.88336">
        <ele>1786.8</ele>
        <time>2021-02-27T05:18:17Z</time>
      </trkpt>
      <trkpt lat="45.12224" lon="5.88336">
        <ele>1787</ele>
        <time>2021-02-27T05:18:18Z</time>
      </trkpt>
      <trkpt lat="45.12223" lon="5.8834">
        <ele>1787.2</ele>
        <time>2021-02-27T05:18:19Z</time>
      </trkpt>
      <trkpt lat="45.12223" lon="5.8834">
        <ele>1788</ele>
        <time>2021-02-27T05:18:20Z</time>
      </trkpt>
      <trkpt lat="45.12223" lon="5.88343">
        <ele>1788</ele>
        <time>2021-02-27T05:18:21Z</time>
      </trkpt>
      <trkpt lat="45.12223" lon="5.88343">
        <ele>1788.2</ele>
        <time>2021-02-27T05:18:22Z</time>
      </trkpt>
      <trkpt lat="45.12222" lon="5.88346">
        <ele>1788.4</ele>
        <time>2021-02-27T05:18:23Z</time>
      </trkpt>
      <trkpt lat="45.12222" lon="5.88346">
        <ele>1788.8</ele>
        <time>2021-02-27T05:18:24Z</time>
      </trkpt>
      <trkpt lat="45.12222" lon="5.88349">
        <ele>1789.2</ele>
        <time>2021-02-27T05:18:25Z</time>
      </trkpt>
      <trkpt lat="45.12222" lon="5.88349">
        <ele>1789.2</ele>
        <time>2021-02-27T05:18:26Z</time>
      </trkpt>
      <trkpt lat="45.12222" lon="5.88352">
        <ele>1789.6</ele>
        <time>2021-02-27T05:18:27Z</time>
      </trkpt>
      <trkpt lat="45.12222" lon="5.88352">
        <ele>1790</ele>
        <time>2021-02-27T05:18:28Z</time>
      </trkpt>
      <trkpt lat="45.12222" lon="5.88352">
        <ele>1790.4</ele>
        <time>2021-02-27T05:18:29Z</time>
      </trkpt>
      <trkpt lat="45.12222" lon="5.88356">
        <ele>1790.6</ele>
        <time>2021-02-27T05:18:30Z</time>
      </trkpt>
      <trkpt lat="45.12222" lon="5.88356">
        <ele>1790.6</ele>
        <time>2021-02-27T05:18:31Z</time>
      </trkpt>
      <trkpt lat="45.12223" lon="5.88359">
        <ele>1791</ele>
        <time>2021-02-27T05:18:32Z</time>
      </trkpt>
      <trkpt lat="45.12223" lon="5.88359">
        <ele>1791.4</ele>
        <time>2021-02-27T05:18:33Z</time>
      </trkpt>
      <trkpt lat="45.12222" lon="5.88362">
        <ele>1791.4</ele>
        <time>2021-02-27T05:18:34Z</time>
      </trkpt>
      <trkpt lat="45.12222" lon="5.88362">
        <ele>1791.6</ele>
        <time>2021-02-27T05:18:35Z</time>
      </trkpt>
      <trkpt lat="45.12222" lon="5.88365">
        <ele>1791.8</ele>
        <time>2021-02-27T05:18:36Z</time>
      </trkpt>
      <trkpt lat="45.12222" lon="5.88365">
        <ele>1792.2</ele>
        <time>2021-02-27T05:18:37Z</time>
      </trkpt>
      <trkpt lat="45.12221" lon="5.88369">
        <ele>1792.4</ele>
        <time>2021-02-27T05:18:38Z</time>
      </trkpt>
      <trkpt lat="45.12221" lon="5.88369">
        <ele>1792.6</ele>
        <time>2021-02-27T05:18:39Z</time>
      </trkpt>
      <trkpt lat="45.1222" lon="5.88372">
        <ele>1792.8</ele>
        <time>2021-02-27T05:18:40Z</time>
      </trkpt>
      <trkpt lat="45.1222" lon="5.88372">
        <ele>1793</ele>
        <time>2021-02-27T05:18:41Z</time>
      </trkpt>
      <trkpt lat="45.1222" lon="5.88372">
        <ele>1793.4</ele>
        <time>2021-02-27T05:18:42Z</time>
      </trkpt>
      <trkpt lat="45.1222" lon="5.88376">
        <ele>1793</ele>
        <time>2021-02-27T05:18:43Z</time>
      </trkpt>
      <trkpt lat="45.1222" lon="5.88376">
        <ele>1793.4</ele>
        <time>2021-02-27T05:18:44Z</time>
      </trkpt>
      <trkpt lat="45.12219" lon="5.8838">
        <ele>1793.4</ele>
        <time>2021-02-27T05:18:45Z</time>
      </trkpt>
      <trkpt lat="45.12219" lon="5.8838">
        <ele>1793.8</ele>
        <time>2021-02-27T05:18:46Z</time>
      </trkpt>
      <trkpt lat="45.12219" lon="5.8838">
        <ele>1794</ele>
        <time>2021-02-27T05:18:47Z</time>
      </trkpt>
      <trkpt lat="45.12218" lon="5.88383">
        <ele>1794.2</ele>
        <time>2021-02-27T05:18:48Z</time>
      </trkpt>
      <trkpt lat="45.12218" lon="5.88383">
        <ele>1794.6</ele>
        <time>2021-02-27T05:18:49Z</time>
      </trkpt>
      <trkpt lat="45.12217" lon="5.88386">
        <ele>1794.8</ele>
        <time>2021-02-27T05:18:50Z</time>
      </trkpt>
      <trkpt lat="45.12217" lon="5.88386">
        <ele>1795</ele>
        <time>2021-02-27T05:18:51Z</time>
      </trkpt>
      <trkpt lat="45.12216" lon="5.88389">
        <ele>1795.2</ele>
        <time>2021-02-27T05:18:52Z</time>
      </trkpt>
      <trkpt lat="45.12216" lon="5.88389">
        <ele>1795.4</ele>
        <time>2021-02-27T05:18:53Z</time>
      </trkpt>
      <trkpt lat="45.12215" lon="5.88392">
        <ele>1795.6</ele>
        <time>2021-02-27T05:18:54Z</time>
      </trkpt>
      <trkpt lat="45.12215" lon="5.88392">
        <ele>1796.2</ele>
        <time>2021-02-27T05:18:55Z</time>
      </trkpt>
      <trkpt lat="45.12215" lon="5.88395">
        <ele>1796.2</ele>
        <time>2021-02-27T05:18:56Z</time>
      </trkpt>
      <trkpt lat="45.12215" lon="5.88395">
        <ele>1796.4</ele>
        <time>2021-02-27T05:18:57Z</time>
      </trkpt>
      <trkpt lat="45.12214" lon="5.88398">
        <ele>1796.4</ele>
        <time>2021-02-27T05:18:58Z</time>
      </trkpt>
      <trkpt lat="45.12214" lon="5.88398">
        <ele>1796.8</ele>
        <time>2021-02-27T05:18:59Z</time>
      </trkpt>
      <trkpt lat="45.12213" lon="5.88401">
        <ele>1797</ele>
        <time>2021-02-27T05:19:00Z</time>
      </trkpt>
      <trkpt lat="45.12213" lon="5.88401">
        <ele>1797.2</ele>
        <time>2021-02-27T05:19:01Z</time>
      </trkpt>
      <trkpt lat="45.12212" lon="5.88404">
        <ele>1797.2</ele>
        <time>2021-02-27T05:19:02Z</time>
      </trkpt>
      <trkpt lat="45.12212" lon="5.88404">
        <ele>1797.6</ele>
        <time>2021-02-27T05:19:03Z</time>
      </trkpt>
      <trkpt lat="45.12211" lon="5.88407">
        <ele>1798</ele>
        <time>2021-02-27T05:19:04Z</time>
      </trkpt>
      <trkpt lat="45.12211" lon="5.88407">
        <ele>1798.2</ele>
        <time>2021-02-27T05:19:05Z</time>
      </trkpt>
      <trkpt lat="45.1221" lon="5.8841">
        <ele>1798.2</ele>
        <time>2021-02-27T05:19:06Z</time>
      </trkpt>
      <trkpt lat="45.1221" lon="5.8841">
        <ele>1798.4</ele>
        <time>2021-02-27T05:19:07Z</time>
      </trkpt>
      <trkpt lat="45.12209" lon="5.88413">
        <ele>1798.8</ele>
        <time>2021-02-27T05:19:08Z</time>
      </trkpt>
      <trkpt lat="45.12209" lon="5.88413">
        <ele>1799</ele>
        <time>2021-02-27T05:19:09Z</time>
      </trkpt>
      <trkpt lat="45.12209" lon="5.88413">
        <ele>1799.2</ele>
        <time>2021-02-27T05:19:10Z</time>
      </trkpt>
      <trkpt lat="45.12208" lon="5.88417">
        <ele>1799.4</ele>
        <time>2021-02-27T05:19:11Z</time>
      </trkpt>
      <trkpt lat="45.12208" lon="5.88417">
        <ele>1799.4</ele>
        <time>2021-02-27T05:19:12Z</time>
      </trkpt>
      <trkpt lat="45.12207" lon="5.8842">
        <ele>1799.6</ele>
        <time>2021-02-27T05:19:13Z</time>
      </trkpt>
      <trkpt lat="45.12207" lon="5.8842">
        <ele>1799.8</ele>
        <time>2021-02-27T05:19:14Z</time>
      </trkpt>
      <trkpt lat="45.12206" lon="5.88422">
        <ele>1799.8</ele>
        <time>2021-02-27T05:19:15Z</time>
      </trkpt>
      <trkpt lat="45.12206" lon="5.88422">
        <ele>1800.2</ele>
        <time>2021-02-27T05:19:16Z</time>
      </trkpt>
      <trkpt lat="45.12206" lon="5.88422">
        <ele>1800.2</ele>
        <time>2021-02-27T05:19:17Z</time>
      </trkpt>
      <trkpt lat="45.12205" lon="5.88425">
        <ele>1800.6</ele>
        <time>2021-02-27T05:19:18Z</time>
      </trkpt>
      <trkpt lat="45.12205" lon="5.88425">
        <ele>1800.8</ele>
        <time>2021-02-27T05:19:19Z</time>
      </trkpt>
      <trkpt lat="45.12204" lon="5.88427">
        <ele>1801</ele>
        <time>2021-02-27T05:19:20Z</time>
      </trkpt>
      <trkpt lat="45.12204" lon="5.88427">
        <ele>1801</ele>
        <time>2021-02-27T05:19:21Z</time>
      </trkpt>
      <trkpt lat="45.12202" lon="5.88429">
        <ele>1801.2</ele>
        <time>2021-02-27T05:19:22Z</time>
      </trkpt>
      <trkpt lat="45.12202" lon="5.88429">
        <ele>1801.4</ele>
        <time>2021-02-27T05:19:23Z</time>
      </trkpt>
      <trkpt lat="45.122" lon="5.88432">
        <ele>1801.6</ele>
        <time>2021-02-27T05:19:24Z</time>
      </trkpt>
      <trkpt lat="45.122" lon="5.88432">
        <ele>1802.2</ele>
        <time>2021-02-27T05:19:25Z</time>
      </trkpt>
      <trkpt lat="45.12198" lon="5.88433">
        <ele>1802.2</ele>
        <time>2021-02-27T05:19:26Z</time>
      </trkpt>
      <trkpt lat="45.12198" lon="5.88433">
        <ele>1802.2</ele>
        <time>2021-02-27T05:19:27Z</time>
      </trkpt>
      <trkpt lat="45.12197" lon="5.88436">
        <ele>1803</ele>
        <time>2021-02-27T05:19:28Z</time>
      </trkpt>
      <trkpt lat="45.12197" lon="5.88436">
        <ele>1803</ele>
        <time>2021-02-27T05:19:29Z</time>
      </trkpt>
      <trkpt lat="45.12194" lon="5.88438">
        <ele>1803.2</ele>
        <time>2021-02-27T05:19:30Z</time>
      </trkpt>
      <trkpt lat="45.12194" lon="5.88438">
        <ele>1803.2</ele>
        <time>2021-02-27T05:19:31Z</time>
      </trkpt>
      <trkpt lat="45.12192" lon="5.8844">
        <ele>1803.6</ele>
        <time>2021-02-27T05:19:32Z</time>
      </trkpt>
      <trkpt lat="45.12192" lon="5.8844">
        <ele>1803.8</ele>
        <time>2021-02-27T05:19:33Z</time>
      </trkpt>
      <trkpt lat="45.12192" lon="5.8844">
        <ele>1804.2</ele>
        <time>2021-02-27T05:19:34Z</time>
      </trkpt>
      <trkpt lat="45.12189" lon="5.88443">
        <ele>1804.2</ele>
        <time>2021-02-27T05:19:35Z</time>
      </trkpt>
      <trkpt lat="45.12189" lon="5.88443">
        <ele>1804.4</ele>
        <time>2021-02-27T05:19:36Z</time>
      </trkpt>
      <trkpt lat="45.12188" lon="5.88444">
        <ele>1804.6</ele>
        <time>2021-02-27T05:19:37Z</time>
      </trkpt>
      <trkpt lat="45.12188" lon="5.88444">
        <ele>1804.8</ele>
        <time>2021-02-27T05:19:38Z</time>
      </trkpt>
      <trkpt lat="45.12186" lon="5.88447">
        <ele>1805.6</ele>
        <time>2021-02-27T05:19:39Z</time>
      </trkpt>
      <trkpt lat="45.12186" lon="5.88447">
        <ele>1805.6</ele>
        <time>2021-02-27T05:19:40Z</time>
      </trkpt>
      <trkpt lat="45.12184" lon="5.8845">
        <ele>1805.8</ele>
        <time>2021-02-27T05:19:41Z</time>
      </trkpt>
      <trkpt lat="45.12184" lon="5.8845">
        <ele>1805.8</ele>
        <time>2021-02-27T05:19:42Z</time>
      </trkpt>
      <trkpt lat="45.12182" lon="5.88452">
        <ele>1806.2</ele>
        <time>2021-02-27T05:19:43Z</time>
      </trkpt>
      <trkpt lat="45.12182" lon="5.88452">
        <ele>1806.2</ele>
        <time>2021-02-27T05:19:44Z</time>
      </trkpt>
      <trkpt lat="45.1218" lon="5.88453">
        <ele>1806.2</ele>
        <time>2021-02-27T05:19:45Z</time>
      </trkpt>
      <trkpt lat="45.1218" lon="5.88453">
        <ele>1806.4</ele>
        <time>2021-02-27T05:19:46Z</time>
      </trkpt>
      <trkpt lat="45.12179" lon="5.88454">
        <ele>1806.8</ele>
        <time>2021-02-27T05:19:47Z</time>
      </trkpt>
      <trkpt lat="45.12178" lon="5.88455">
        <ele>1807</ele>
        <time>2021-02-27T05:19:48Z</time>
      </trkpt>
      <trkpt lat="45.12177" lon="5.88456">
        <ele>1807.2</ele>
        <time>2021-02-27T05:19:49Z</time>
      </trkpt>
      <trkpt lat="45.12176" lon="5.88457">
        <ele>1807.4</ele>
        <time>2021-02-27T05:19:50Z</time>
      </trkpt>
      <trkpt lat="45.12174" lon="5.88458">
        <ele>1807.6</ele>
        <time>2021-02-27T05:19:51Z</time>
      </trkpt>
      <trkpt lat="45.12173" lon="5.88459">
        <ele>1807.8</ele>
        <time>2021-02-27T05:19:52Z</time>
      </trkpt>
      <trkpt lat="45.12172" lon="5.8846">
        <ele>1808.2</ele>
        <time>2021-02-27T05:19:53Z</time>
      </trkpt>
      <trkpt lat="45.12171" lon="5.8846">
        <ele>1808.2</ele>
        <time>2021-02-27T05:19:54Z</time>
      </trkpt>
      <trkpt lat="45.1217" lon="5.8846">
        <ele>1808.4</ele>
        <time>2021-02-27T05:19:55Z</time>
      </trkpt>
      <trkpt lat="45.12169" lon="5.88461">
        <ele>1808.6</ele>
        <time>2021-02-27T05:19:56Z</time>
      </trkpt>
      <trkpt lat="45.12169" lon="5.88461">
        <ele>1808.8</ele>
        <time>2021-02-27T05:19:57Z</time>
      </trkpt>
      <trkpt lat="45.12168" lon="5.88461">
        <ele>1809.4</ele>
        <time>2021-02-27T05:19:58Z</time>
      </trkpt>
      <trkpt lat="45.12167" lon="5.88461">
        <ele>1809.4</ele>
        <time>2021-02-27T05:19:59Z</time>
      </trkpt>
      <trkpt lat="45.12166" lon="5.88462">
        <ele>1809.6</ele>
        <time>2021-02-27T05:20:00Z</time>
      </trkpt>
      <trkpt lat="45.12165" lon="5.88462">
        <ele>1809.8</ele>
        <time>2021-02-27T05:20:01Z</time>
      </trkpt>
      <trkpt lat="45.12164" lon="5.88462">
        <ele>1810.4</ele>
        <time>2021-02-27T05:20:02Z</time>
      </trkpt>
      <trkpt lat="45.12164" lon="5.88462">
        <ele>1810.4</ele>
        <time>2021-02-27T05:20:03Z</time>
      </trkpt>
      <trkpt lat="45.12163" lon="5.88462">
        <ele>1810.6</ele>
        <time>2021-02-27T05:20:04Z</time>
      </trkpt>
      <trkpt lat="45.12162" lon="5.88464">
        <ele>1810.8</ele>
        <time>2021-02-27T05:20:05Z</time>
      </trkpt>
      <trkpt lat="45.12162" lon="5.88466">
        <ele>1811</ele>
        <time>2021-02-27T05:20:06Z</time>
      </trkpt>
      <trkpt lat="45.12162" lon="5.88467">
        <ele>1811.2</ele>
        <time>2021-02-27T05:20:07Z</time>
      </trkpt>
      <trkpt lat="45.12161" lon="5.88469">
        <ele>1811.8</ele>
        <time>2021-02-27T05:20:08Z</time>
      </trkpt>
      <trkpt lat="45.1216" lon="5.88472">
        <ele>1812</ele>
        <time>2021-02-27T05:20:09Z</time>
      </trkpt>
      <trkpt lat="45.1216" lon="5.88472">
        <ele>1812.2</ele>
        <time>2021-02-27T05:20:10Z</time>
      </trkpt>
      <trkpt lat="45.1216" lon="5.88475">
        <ele>1812.6</ele>
        <time>2021-02-27T05:20:11Z</time>
      </trkpt>
      <trkpt lat="45.1216" lon="5.88475">
        <ele>1812.6</ele>
        <time>2021-02-27T05:20:12Z</time>
      </trkpt>
      <trkpt lat="45.12159" lon="5.88478">
        <ele>1812.8</ele>
        <time>2021-02-27T05:20:13Z</time>
      </trkpt>
      <trkpt lat="45.12159" lon="5.88478">
        <ele>1813</ele>
        <time>2021-02-27T05:20:14Z</time>
      </trkpt>
      <trkpt lat="45.12158" lon="5.8848">
        <ele>1813.2</ele>
        <time>2021-02-27T05:20:15Z</time>
      </trkpt>
      <trkpt lat="45.12158" lon="5.8848">
        <ele>1813.4</ele>
        <time>2021-02-27T05:20:16Z</time>
      </trkpt>
      <trkpt lat="45.12158" lon="5.88483">
        <ele>1813.6</ele>
        <time>2021-02-27T05:20:17Z</time>
      </trkpt>
      <trkpt lat="45.12158" lon="5.88483">
        <ele>1814</ele>
        <time>2021-02-27T05:20:18Z</time>
      </trkpt>
      <trkpt lat="45.12158" lon="5.88483">
        <ele>1814.2</ele>
        <time>2021-02-27T05:20:19Z</time>
      </trkpt>
      <trkpt lat="45.12156" lon="5.88487">
        <ele>1814.4</ele>
        <time>2021-02-27T05:20:20Z</time>
      </trkpt>
      <trkpt lat="45.12156" lon="5.88487">
        <ele>1814.6</ele>
        <time>2021-02-27T05:20:21Z</time>
      </trkpt>
      <trkpt lat="45.12156" lon="5.88487">
        <ele>1815.4</ele>
        <time>2021-02-27T05:20:22Z</time>
      </trkpt>
      <trkpt lat="45.12156" lon="5.8849">
        <ele>1815.2</ele>
        <time>2021-02-27T05:20:23Z</time>
      </trkpt>
      <trkpt lat="45.12156" lon="5.8849">
        <ele>1815.4</ele>
        <time>2021-02-27T05:20:24Z</time>
      </trkpt>
      <trkpt lat="45.12156" lon="5.88493">
        <ele>1815.8</ele>
        <time>2021-02-27T05:20:25Z</time>
      </trkpt>
      <trkpt lat="45.12156" lon="5.88493">
        <ele>1816.2</ele>
        <time>2021-02-27T05:20:26Z</time>
      </trkpt>
      <trkpt lat="45.12156" lon="5.88495">
        <ele>1816.2</ele>
        <time>2021-02-27T05:20:27Z</time>
      </trkpt>
      <trkpt lat="45.12156" lon="5.88495">
        <ele>1816.4</ele>
        <time>2021-02-27T05:20:28Z</time>
      </trkpt>
      <trkpt lat="45.12155" lon="5.88498">
        <ele>1816.4</ele>
        <time>2021-02-27T05:20:29Z</time>
      </trkpt>
      <trkpt lat="45.12155" lon="5.88498">
        <ele>1816.8</ele>
        <time>2021-02-27T05:20:30Z</time>
      </trkpt>
      <trkpt lat="45.12155" lon="5.88498">
        <ele>1817</ele>
        <time>2021-02-27T05:20:31Z</time>
      </trkpt>
      <trkpt lat="45.12154" lon="5.88501">
        <ele>1817.4</ele>
        <time>2021-02-27T05:20:32Z</time>
      </trkpt>
      <trkpt lat="45.12154" lon="5.88501">
        <ele>1817.6</ele>
        <time>2021-02-27T05:20:33Z</time>
      </trkpt>
      <trkpt lat="45.12153" lon="5.88504">
        <ele>1818.2</ele>
        <time>2021-02-27T05:20:34Z</time>
      </trkpt>
      <trkpt lat="45.12153" lon="5.88504">
        <ele>1818.2</ele>
        <time>2021-02-27T05:20:35Z</time>
      </trkpt>
      <trkpt lat="45.12153" lon="5.88504">
        <ele>1818.8</ele>
        <time>2021-02-27T05:20:36Z</time>
      </trkpt>
      <trkpt lat="45.12152" lon="5.88507">
        <ele>1819</ele>
        <time>2021-02-27T05:20:37Z</time>
      </trkpt>
      <trkpt lat="45.12152" lon="5.88507">
        <ele>1819.2</ele>
        <time>2021-02-27T05:20:38Z</time>
      </trkpt>
      <trkpt lat="45.12151" lon="5.88509">
        <ele>1819.4</ele>
        <time>2021-02-27T05:20:39Z</time>
      </trkpt>
      <trkpt lat="45.12151" lon="5.88509">
        <ele>1819.6</ele>
        <time>2021-02-27T05:20:40Z</time>
      </trkpt>
      <trkpt lat="45.12151" lon="5.88511">
        <ele>1820</ele>
        <time>2021-02-27T05:20:41Z</time>
      </trkpt>
      <trkpt lat="45.12151" lon="5.88511">
        <ele>1820.2</ele>
        <time>2021-02-27T05:20:42Z</time>
      </trkpt>
      <trkpt lat="45.1215" lon="5.88513">
        <ele>1820.4</ele>
        <time>2021-02-27T05:20:43Z</time>
      </trkpt>
      <trkpt lat="45.1215" lon="5.88513">
        <ele>1820.8</ele>
        <time>2021-02-27T05:20:44Z</time>
      </trkpt>
      <trkpt lat="45.1215" lon="5.88513">
        <ele>1821.2</ele>
        <time>2021-02-27T05:20:45Z</time>
      </trkpt>
      <trkpt lat="45.12149" lon="5.88517">
        <ele>1821.2</ele>
        <time>2021-02-27T05:20:46Z</time>
      </trkpt>
      <trkpt lat="45.12149" lon="5.88517">
        <ele>1821.4</ele>
        <time>2021-02-27T05:20:47Z</time>
      </trkpt>
      <trkpt lat="45.12149" lon="5.88517">
        <ele>1822</ele>
        <time>2021-02-27T05:20:48Z</time>
      </trkpt>
      <trkpt lat="45.12149" lon="5.88517">
        <ele>1822.2</ele>
        <time>2021-02-27T05:20:49Z</time>
      </trkpt>
      <trkpt lat="45.12149" lon="5.8852">
        <ele>1822.4</ele>
        <time>2021-02-27T05:20:50Z</time>
      </trkpt>
      <trkpt lat="45.12149" lon="5.8852">
        <ele>1822.4</ele>
        <time>2021-02-27T05:20:51Z</time>
      </trkpt>
      <trkpt lat="45.12149" lon="5.8852">
        <ele>1822.8</ele>
        <time>2021-02-27T05:20:52Z</time>
      </trkpt>
      <trkpt lat="45.12148" lon="5.88523">
        <ele>1823</ele>
        <time>2021-02-27T05:20:53Z</time>
      </trkpt>
      <trkpt lat="45.12148" lon="5.88523">
        <ele>1823.4</ele>
        <time>2021-02-27T05:20:54Z</time>
      </trkpt>
      <trkpt lat="45.12148" lon="5.88523">
        <ele>1823.6</ele>
        <time>2021-02-27T05:20:55Z</time>
      </trkpt>
      <trkpt lat="45.12148" lon="5.88526">
        <ele>1824</ele>
        <time>2021-02-27T05:20:56Z</time>
      </trkpt>
      <trkpt lat="45.12148" lon="5.88526">
        <ele>1824.2</ele>
        <time>2021-02-27T05:20:57Z</time>
      </trkpt>
      <trkpt lat="45.12147" lon="5.88529">
        <ele>1824.4</ele>
        <time>2021-02-27T05:20:58Z</time>
      </trkpt>
      <trkpt lat="45.12147" lon="5.88529">
        <ele>1824.6</ele>
        <time>2021-02-27T05:20:59Z</time>
      </trkpt>
      <trkpt lat="45.12147" lon="5.88529">
        <ele>1824.8</ele>
        <time>2021-02-27T05:21:00Z</time>
      </trkpt>
      <trkpt lat="45.12147" lon="5.88529">
        <ele>1824.8</ele>
        <time>2021-02-27T05:21:01Z</time>
      </trkpt>
      <trkpt lat="45.12146" lon="5.88534">
        <ele>1825.2</ele>
        <time>2021-02-27T05:21:02Z</time>
      </trkpt>
      <trkpt lat="45.12146" lon="5.88534">
        <ele>1825.6</ele>
        <time>2021-02-27T05:21:03Z</time>
      </trkpt>
      <trkpt lat="45.12145" lon="5.88537">
        <ele>1825.6</ele>
        <time>2021-02-27T05:21:04Z</time>
      </trkpt>
      <trkpt lat="45.12145" lon="5.88537">
        <ele>1826</ele>
        <time>2021-02-27T05:21:05Z</time>
      </trkpt>
      <trkpt lat="45.12145" lon="5.88537">
        <ele>1826.2</ele>
        <time>2021-02-27T05:21:06Z</time>
      </trkpt>
      <trkpt lat="45.12144" lon="5.8854">
        <ele>1826.6</ele>
        <time>2021-02-27T05:21:07Z</time>
      </trkpt>
      <trkpt lat="45.12144" lon="5.8854">
        <ele>1826.8</ele>
        <time>2021-02-27T05:21:08Z</time>
      </trkpt>
      <trkpt lat="45.12143" lon="5.88542">
        <ele>1827.2</ele>
        <time>2021-02-27T05:21:09Z</time>
      </trkpt>
      <trkpt lat="45.12143" lon="5.88542">
        <ele>1827.6</ele>
        <time>2021-02-27T05:21:10Z</time>
      </trkpt>
      <trkpt lat="45.12142" lon="5.88545">
        <ele>1827.6</ele>
        <time>2021-02-27T05:21:11Z</time>
      </trkpt>
      <trkpt lat="45.12142" lon="5.88545">
        <ele>1827.8</ele>
        <time>2021-02-27T05:21:12Z</time>
      </trkpt>
      <trkpt lat="45.12142" lon="5.88545">
        <ele>1828.2</ele>
        <time>2021-02-27T05:21:13Z</time>
      </trkpt>
      <trkpt lat="45.12141" lon="5.88547">
        <ele>1828.2</ele>
        <time>2021-02-27T05:21:14Z</time>
      </trkpt>
      <trkpt lat="45.12141" lon="5.88547">
        <ele>1828.2</ele>
        <time>2021-02-27T05:21:15Z</time>
      </trkpt>
      <trkpt lat="45.1214" lon="5.8855">
        <ele>1828.6</ele>
        <time>2021-02-27T05:21:16Z</time>
      </trkpt>
      <trkpt lat="45.1214" lon="5.8855">
        <ele>1829</ele>
        <time>2021-02-27T05:21:17Z</time>
      </trkpt>
      <trkpt lat="45.1214" lon="5.8855">
        <ele>1829.2</ele>
        <time>2021-02-27T05:21:18Z</time>
      </trkpt>
      <trkpt lat="45.12139" lon="5.88554">
        <ele>1829.4</ele>
        <time>2021-02-27T05:21:19Z</time>
      </trkpt>
      <trkpt lat="45.12139" lon="5.88554">
        <ele>1829.8</ele>
        <time>2021-02-27T05:21:20Z</time>
      </trkpt>
      <trkpt lat="45.12138" lon="5.88556">
        <ele>1830</ele>
        <time>2021-02-27T05:21:21Z</time>
      </trkpt>
      <trkpt lat="45.12138" lon="5.88556">
        <ele>1830.2</ele>
        <time>2021-02-27T05:21:22Z</time>
      </trkpt>
      <trkpt lat="45.12138" lon="5.88556">
        <ele>1830.2</ele>
        <time>2021-02-27T05:21:23Z</time>
      </trkpt>
      <trkpt lat="45.12138" lon="5.8856">
        <ele>1830.6</ele>
        <time>2021-02-27T05:21:24Z</time>
      </trkpt>
      <trkpt lat="45.12138" lon="5.8856">
        <ele>1830.6</ele>
        <time>2021-02-27T05:21:25Z</time>
      </trkpt>
      <trkpt lat="45.12138" lon="5.8856">
        <ele>1831</ele>
        <time>2021-02-27T05:21:26Z</time>
      </trkpt>
      <trkpt lat="45.12137" lon="5.88562">
        <ele>1831.4</ele>
        <time>2021-02-27T05:21:27Z</time>
      </trkpt>
      <trkpt lat="45.12137" lon="5.88562">
        <ele>1832</ele>
        <time>2021-02-27T05:21:28Z</time>
      </trkpt>
      <trkpt lat="45.12137" lon="5.88565">
        <ele>1832.2</ele>
        <time>2021-02-27T05:21:29Z</time>
      </trkpt>
      <trkpt lat="45.12137" lon="5.88565">
        <ele>1832.6</ele>
        <time>2021-02-27T05:21:30Z</time>
      </trkpt>
      <trkpt lat="45.12137" lon="5.88565">
        <ele>1833</ele>
        <time>2021-02-27T05:21:31Z</time>
      </trkpt>
      <trkpt lat="45.12137" lon="5.88568">
        <ele>1833.2</ele>
        <time>2021-02-27T05:21:32Z</time>
      </trkpt>
      <trkpt lat="45.12137" lon="5.88568">
        <ele>1833.6</ele>
        <time>2021-02-27T05:21:33Z</time>
      </trkpt>
      <trkpt lat="45.12137" lon="5.88568">
        <ele>1833.8</ele>
        <time>2021-02-27T05:21:34Z</time>
      </trkpt>
      <trkpt lat="45.12138" lon="5.88571">
        <ele>1834</ele>
        <time>2021-02-27T05:21:35Z</time>
      </trkpt>
      <trkpt lat="45.12138" lon="5.88571">
        <ele>1834.2</ele>
        <time>2021-02-27T05:21:36Z</time>
      </trkpt>
      <trkpt lat="45.12138" lon="5.88571">
        <ele>1834.6</ele>
        <time>2021-02-27T05:21:37Z</time>
      </trkpt>
      <trkpt lat="45.12138" lon="5.88574">
        <ele>1834.8</ele>
        <time>2021-02-27T05:21:38Z</time>
      </trkpt>
      <trkpt lat="45.12138" lon="5.88574">
        <ele>1835</ele>
        <time>2021-02-27T05:21:39Z</time>
      </trkpt>
      <trkpt lat="45.12138" lon="5.88574">
        <ele>1835.4</ele>
        <time>2021-02-27T05:21:40Z</time>
      </trkpt>
      <trkpt lat="45.12138" lon="5.88574">
        <ele>1835.6</ele>
        <time>2021-02-27T05:21:41Z</time>
      </trkpt>
      <trkpt lat="45.12138" lon="5.88578">
        <ele>1836.2</ele>
        <time>2021-02-27T05:21:42Z</time>
      </trkpt>
      <trkpt lat="45.12138" lon="5.88578">
        <ele>1836.2</ele>
        <time>2021-02-27T05:21:43Z</time>
      </trkpt>
      <trkpt lat="45.12138" lon="5.88581">
        <ele>1836.6</ele>
        <time>2021-02-27T05:21:44Z</time>
      </trkpt>
      <trkpt lat="45.12138" lon="5.88581">
        <ele>1836.8</ele>
        <time>2021-02-27T05:21:45Z</time>
      </trkpt>
      <trkpt lat="45.12137" lon="5.88584">
        <ele>1837.2</ele>
        <time>2021-02-27T05:21:46Z</time>
      </trkpt>
      <trkpt lat="45.12137" lon="5.88584">
        <ele>1837</ele>
        <time>2021-02-27T05:21:47Z</time>
      </trkpt>
      <trkpt lat="45.12137" lon="5.88587">
        <ele>1837.6</ele>
        <time>2021-02-27T05:21:48Z</time>
      </trkpt>
      <trkpt lat="45.12137" lon="5.88587">
        <ele>1837.8</ele>
        <time>2021-02-27T05:21:49Z</time>
      </trkpt>
      <trkpt lat="45.12137" lon="5.88587">
        <ele>1838</ele>
        <time>2021-02-27T05:21:50Z</time>
      </trkpt>
      <trkpt lat="45.12136" lon="5.8859">
        <ele>1838.4</ele>
        <time>2021-02-27T05:21:51Z</time>
      </trkpt>
      <trkpt lat="45.12136" lon="5.8859">
        <ele>1838.4</ele>
        <time>2021-02-27T05:21:52Z</time>
      </trkpt>
      <trkpt lat="45.12136" lon="5.8859">
        <ele>1838.6</ele>
        <time>2021-02-27T05:21:53Z</time>
      </trkpt>
      <trkpt lat="45.12135" lon="5.88593">
        <ele>1838.4</ele>
        <time>2021-02-27T05:21:54Z</time>
      </trkpt>
      <trkpt lat="45.12135" lon="5.88593">
        <ele>1838.8</ele>
        <time>2021-02-27T05:21:55Z</time>
      </trkpt>
      <trkpt lat="45.12135" lon="5.88593">
        <ele>1839.2</ele>
        <time>2021-02-27T05:21:56Z</time>
      </trkpt>
      <trkpt lat="45.12135" lon="5.88597">
        <ele>1839.4</ele>
        <time>2021-02-27T05:21:57Z</time>
      </trkpt>
      <trkpt lat="45.12135" lon="5.88597">
        <ele>1839.6</ele>
        <time>2021-02-27T05:21:58Z</time>
      </trkpt>
      <trkpt lat="45.12133" lon="5.886">
        <ele>1839.8</ele>
        <time>2021-02-27T05:21:59Z</time>
      </trkpt>
      <trkpt lat="45.12133" lon="5.886">
        <ele>1839.8</ele>
        <time>2021-02-27T05:22:00Z</time>
      </trkpt>
      <trkpt lat="45.12132" lon="5.88602">
        <ele>1839.8</ele>
        <time>2021-02-27T05:22:01Z</time>
      </trkpt>
      <trkpt lat="45.12132" lon="5.88602">
        <ele>1839.8</ele>
        <time>2021-02-27T05:22:02Z</time>
      </trkpt>
      <trkpt lat="45.1213" lon="5.88605">
        <ele>1840</ele>
        <time>2021-02-27T05:22:03Z</time>
      </trkpt>
      <trkpt lat="45.1213" lon="5.88605">
        <ele>1840.4</ele>
        <time>2021-02-27T05:22:04Z</time>
      </trkpt>
      <trkpt lat="45.1213" lon="5.88605">
        <ele>1840.4</ele>
        <time>2021-02-27T05:22:05Z</time>
      </trkpt>
      <trkpt lat="45.12131" lon="5.88608">
        <ele>1840.4</ele>
        <time>2021-02-27T05:22:06Z</time>
      </trkpt>
      <trkpt lat="45.12131" lon="5.88608">
        <ele>1840.6</ele>
        <time>2021-02-27T05:22:07Z</time>
      </trkpt>
      <trkpt lat="45.12131" lon="5.88608">
        <ele>1841</ele>
        <time>2021-02-27T05:22:08Z</time>
      </trkpt>
      <trkpt lat="45.12131" lon="5.88611">
        <ele>1841.2</ele>
        <time>2021-02-27T05:22:09Z</time>
      </trkpt>
      <trkpt lat="45.12131" lon="5.88611">
        <ele>1841.2</ele>
        <time>2021-02-27T05:22:10Z</time>
      </trkpt>
      <trkpt lat="45.12131" lon="5.88614">
        <ele>1841.8</ele>
        <time>2021-02-27T05:22:11Z</time>
      </trkpt>
      <trkpt lat="45.12131" lon="5.88614">
        <ele>1842</ele>
        <time>2021-02-27T05:22:12Z</time>
      </trkpt>
      <trkpt lat="45.1213" lon="5.88617">
        <ele>1842</ele>
        <time>2021-02-27T05:22:13Z</time>
      </trkpt>
      <trkpt lat="45.1213" lon="5.88617">
        <ele>1842</ele>
        <time>2021-02-27T05:22:14Z</time>
      </trkpt>
      <trkpt lat="45.1213" lon="5.88621">
        <ele>1842.6</ele>
        <time>2021-02-27T05:22:15Z</time>
      </trkpt>
      <trkpt lat="45.1213" lon="5.88621">
        <ele>1842.8</ele>
        <time>2021-02-27T05:22:16Z</time>
      </trkpt>
      <trkpt lat="45.1213" lon="5.88624">
        <ele>1843.2</ele>
        <time>2021-02-27T05:22:17Z</time>
      </trkpt>
      <trkpt lat="45.1213" lon="5.88624">
        <ele>1843.2</ele>
        <time>2021-02-27T05:22:18Z</time>
      </trkpt>
      <trkpt lat="45.1213" lon="5.88627">
        <ele>1843.4</ele>
        <time>2021-02-27T05:22:19Z</time>
      </trkpt>
      <trkpt lat="45.1213" lon="5.88627">
        <ele>1843.6</ele>
        <time>2021-02-27T05:22:20Z</time>
      </trkpt>
      <trkpt lat="45.1213" lon="5.88629">
        <ele>1843.8</ele>
        <time>2021-02-27T05:22:21Z</time>
      </trkpt>
      <trkpt lat="45.1213" lon="5.88629">
        <ele>1844.2</ele>
        <time>2021-02-27T05:22:22Z</time>
      </trkpt>
      <trkpt lat="45.1213" lon="5.88632">
        <ele>1844.2</ele>
        <time>2021-02-27T05:22:23Z</time>
      </trkpt>
      <trkpt lat="45.1213" lon="5.88632">
        <ele>1844.6</ele>
        <time>2021-02-27T05:22:24Z</time>
      </trkpt>
      <trkpt lat="45.12131" lon="5.88635">
        <ele>1844.6</ele>
        <time>2021-02-27T05:22:25Z</time>
      </trkpt>
      <trkpt lat="45.12131" lon="5.88635">
        <ele>1844.8</ele>
        <time>2021-02-27T05:22:26Z</time>
      </trkpt>
      <trkpt lat="45.12131" lon="5.88638">
        <ele>1845</ele>
        <time>2021-02-27T05:22:27Z</time>
      </trkpt>
      <trkpt lat="45.12131" lon="5.88638">
        <ele>1845.6</ele>
        <time>2021-02-27T05:22:28Z</time>
      </trkpt>
      <trkpt lat="45.12131" lon="5.88641">
        <ele>1845.8</ele>
        <time>2021-02-27T05:22:29Z</time>
      </trkpt>
      <trkpt lat="45.12131" lon="5.88641">
        <ele>1845.8</ele>
        <time>2021-02-27T05:22:30Z</time>
      </trkpt>
      <trkpt lat="45.12131" lon="5.88641">
        <ele>1845.8</ele>
        <time>2021-02-27T05:22:31Z</time>
      </trkpt>
      <trkpt lat="45.12131" lon="5.88645">
        <ele>1846.2</ele>
        <time>2021-02-27T05:22:32Z</time>
      </trkpt>
      <trkpt lat="45.12131" lon="5.88645">
        <ele>1846.6</ele>
        <time>2021-02-27T05:22:33Z</time>
      </trkpt>
      <trkpt lat="45.12131" lon="5.88645">
        <ele>1846.8</ele>
        <time>2021-02-27T05:22:34Z</time>
      </trkpt>
      <trkpt lat="45.12132" lon="5.88649">
        <ele>1847</ele>
        <time>2021-02-27T05:22:35Z</time>
      </trkpt>
      <trkpt lat="45.12132" lon="5.88649">
        <ele>1847.6</ele>
        <time>2021-02-27T05:22:36Z</time>
      </trkpt>
      <trkpt lat="45.12132" lon="5.88651">
        <ele>1847.6</ele>
        <time>2021-02-27T05:22:37Z</time>
      </trkpt>
      <trkpt lat="45.12132" lon="5.88651">
        <ele>1847.6</ele>
        <time>2021-02-27T05:22:38Z</time>
      </trkpt>
      <trkpt lat="45.12131" lon="5.88655">
        <ele>1847.6</ele>
        <time>2021-02-27T05:22:39Z</time>
      </trkpt>
      <trkpt lat="45.12131" lon="5.88655">
        <ele>1848</ele>
        <time>2021-02-27T05:22:40Z</time>
      </trkpt>
      <trkpt lat="45.12131" lon="5.88657">
        <ele>1848.2</ele>
        <time>2021-02-27T05:22:41Z</time>
      </trkpt>
      <trkpt lat="45.12131" lon="5.88657">
        <ele>1848.6</ele>
        <time>2021-02-27T05:22:42Z</time>
      </trkpt>
      <trkpt lat="45.12132" lon="5.8866">
        <ele>1848.8</ele>
        <time>2021-02-27T05:22:43Z</time>
      </trkpt>
      <trkpt lat="45.12132" lon="5.8866">
        <ele>1849</ele>
        <time>2021-02-27T05:22:44Z</time>
      </trkpt>
      <trkpt lat="45.12132" lon="5.88664">
        <ele>1849.2</ele>
        <time>2021-02-27T05:22:45Z</time>
      </trkpt>
      <trkpt lat="45.12132" lon="5.88664">
        <ele>1849.6</ele>
        <time>2021-02-27T05:22:46Z</time>
      </trkpt>
      <trkpt lat="45.12132" lon="5.88667">
        <ele>1849.4</ele>
        <time>2021-02-27T05:22:47Z</time>
      </trkpt>
      <trkpt lat="45.12132" lon="5.88667">
        <ele>1849.8</ele>
        <time>2021-02-27T05:22:48Z</time>
      </trkpt>
      <trkpt lat="45.12133" lon="5.8867">
        <ele>1850</ele>
        <time>2021-02-27T05:22:49Z</time>
      </trkpt>
      <trkpt lat="45.12133" lon="5.8867">
        <ele>1850.2</ele>
        <time>2021-02-27T05:22:50Z</time>
      </trkpt>
      <trkpt lat="45.12132" lon="5.88673">
        <ele>1850.4</ele>
        <time>2021-02-27T05:22:51Z</time>
      </trkpt>
      <trkpt lat="45.12132" lon="5.88673">
        <ele>1850.6</ele>
        <time>2021-02-27T05:22:52Z</time>
      </trkpt>
      <trkpt lat="45.12132" lon="5.88676">
        <ele>1850.8</ele>
        <time>2021-02-27T05:22:53Z</time>
      </trkpt>
      <trkpt lat="45.12132" lon="5.88676">
        <ele>1851.2</ele>
        <time>2021-02-27T05:22:54Z</time>
      </trkpt>
      <trkpt lat="45.12132" lon="5.88679">
        <ele>1851.2</ele>
        <time>2021-02-27T05:22:55Z</time>
      </trkpt>
      <trkpt lat="45.12132" lon="5.88679">
        <ele>1851.4</ele>
        <time>2021-02-27T05:22:56Z</time>
      </trkpt>
      <trkpt lat="45.12131" lon="5.88682">
        <ele>1851.6</ele>
        <time>2021-02-27T05:22:57Z</time>
      </trkpt>
      <trkpt lat="45.12131" lon="5.88682">
        <ele>1851.8</ele>
        <time>2021-02-27T05:22:58Z</time>
      </trkpt>
      <trkpt lat="45.12131" lon="5.88685">
        <ele>1852.4</ele>
        <time>2021-02-27T05:22:59Z</time>
      </trkpt>
      <trkpt lat="45.12131" lon="5.88685">
        <ele>1852.6</ele>
        <time>2021-02-27T05:23:00Z</time>
      </trkpt>
      <trkpt lat="45.12131" lon="5.88688">
        <ele>1852.8</ele>
        <time>2021-02-27T05:23:01Z</time>
      </trkpt>
      <trkpt lat="45.12131" lon="5.88688">
        <ele>1852.8</ele>
        <time>2021-02-27T05:23:02Z</time>
      </trkpt>
      <trkpt lat="45.12131" lon="5.88692">
        <ele>1853.2</ele>
        <time>2021-02-27T05:23:03Z</time>
      </trkpt>
      <trkpt lat="45.12131" lon="5.88692">
        <ele>1853.4</ele>
        <time>2021-02-27T05:23:04Z</time>
      </trkpt>
      <trkpt lat="45.12132" lon="5.88695">
        <ele>1853.4</ele>
        <time>2021-02-27T05:23:05Z</time>
      </trkpt>
      <trkpt lat="45.12132" lon="5.88695">
        <ele>1853.4</ele>
        <time>2021-02-27T05:23:06Z</time>
      </trkpt>
      <trkpt lat="45.12132" lon="5.88698">
        <ele>1853.6</ele>
        <time>2021-02-27T05:23:07Z</time>
      </trkpt>
      <trkpt lat="45.12132" lon="5.88698">
        <ele>1853.8</ele>
        <time>2021-02-27T05:23:08Z</time>
      </trkpt>
      <trkpt lat="45.12132" lon="5.88701">
        <ele>1854</ele>
        <time>2021-02-27T05:23:09Z</time>
      </trkpt>
      <trkpt lat="45.12132" lon="5.88701">
        <ele>1854</ele>
        <time>2021-02-27T05:23:10Z</time>
      </trkpt>
      <trkpt lat="45.12132" lon="5.88704">
        <ele>1854.2</ele>
        <time>2021-02-27T05:23:11Z</time>
      </trkpt>
      <trkpt lat="45.12132" lon="5.88704">
        <ele>1854.6</ele>
        <time>2021-02-27T05:23:12Z</time>
      </trkpt>
      <trkpt lat="45.12132" lon="5.88707">
        <ele>1854.6</ele>
        <time>2021-02-27T05:23:13Z</time>
      </trkpt>
      <trkpt lat="45.12132" lon="5.88707">
        <ele>1855</ele>
        <time>2021-02-27T05:23:14Z</time>
      </trkpt>
      <trkpt lat="45.12132" lon="5.8871">
        <ele>1855</ele>
        <time>2021-02-27T05:23:15Z</time>
      </trkpt>
      <trkpt lat="45.12132" lon="5.8871">
        <ele>1855.2</ele>
        <time>2021-02-27T05:23:16Z</time>
      </trkpt>
      <trkpt lat="45.12132" lon="5.88713">
        <ele>1855.4</ele>
        <time>2021-02-27T05:23:17Z</time>
      </trkpt>
      <trkpt lat="45.12132" lon="5.88713">
        <ele>1855.6</ele>
        <time>2021-02-27T05:23:18Z</time>
      </trkpt>
      <trkpt lat="45.12132" lon="5.88716">
        <ele>1855.8</ele>
        <time>2021-02-27T05:23:19Z</time>
      </trkpt>
      <trkpt lat="45.12132" lon="5.88716">
        <ele>1856.2</ele>
        <time>2021-02-27T05:23:20Z</time>
      </trkpt>
      <trkpt lat="45.12132" lon="5.88719">
        <ele>1856.6</ele>
        <time>2021-02-27T05:23:21Z</time>
      </trkpt>
      <trkpt lat="45.12132" lon="5.88719">
        <ele>1856.8</ele>
        <time>2021-02-27T05:23:22Z</time>
      </trkpt>
      <trkpt lat="45.12132" lon="5.88723">
        <ele>1856.8</ele>
        <time>2021-02-27T05:23:23Z</time>
      </trkpt>
      <trkpt lat="45.12132" lon="5.88723">
        <ele>1856.6</ele>
        <time>2021-02-27T05:23:24Z</time>
      </trkpt>
      <trkpt lat="45.12131" lon="5.88726">
        <ele>1856.8</ele>
        <time>2021-02-27T05:23:25Z</time>
      </trkpt>
      <trkpt lat="45.12131" lon="5.88726">
        <ele>1856.8</ele>
        <time>2021-02-27T05:23:26Z</time>
      </trkpt>
      <trkpt lat="45.12131" lon="5.8873">
        <ele>1856.6</ele>
        <time>2021-02-27T05:23:27Z</time>
      </trkpt>
      <trkpt lat="45.12131" lon="5.8873">
        <ele>1857</ele>
        <time>2021-02-27T05:23:28Z</time>
      </trkpt>
      <trkpt lat="45.12131" lon="5.8873">
        <ele>1857</ele>
        <time>2021-02-27T05:23:29Z</time>
      </trkpt>
      <trkpt lat="45.12132" lon="5.88734">
        <ele>1856.8</ele>
        <time>2021-02-27T05:23:30Z</time>
      </trkpt>
      <trkpt lat="45.12132" lon="5.88734">
        <ele>1856.8</ele>
        <time>2021-02-27T05:23:31Z</time>
      </trkpt>
      <trkpt lat="45.12133" lon="5.88738">
        <ele>1856.8</ele>
        <time>2021-02-27T05:23:32Z</time>
      </trkpt>
      <trkpt lat="45.12133" lon="5.88738">
        <ele>1856.8</ele>
        <time>2021-02-27T05:23:33Z</time>
      </trkpt>
      <trkpt lat="45.12133" lon="5.88742">
        <ele>1856.8</ele>
        <time>2021-02-27T05:23:34Z</time>
      </trkpt>
      <trkpt lat="45.12133" lon="5.88742">
        <ele>1856.6</ele>
        <time>2021-02-27T05:23:35Z</time>
      </trkpt>
      <trkpt lat="45.12133" lon="5.88746">
        <ele>1856.6</ele>
        <time>2021-02-27T05:23:36Z</time>
      </trkpt>
      <trkpt lat="45.12133" lon="5.88746">
        <ele>1857</ele>
        <time>2021-02-27T05:23:37Z</time>
      </trkpt>
      <trkpt lat="45.12133" lon="5.88751">
        <ele>1857.2</ele>
        <time>2021-02-27T05:23:38Z</time>
      </trkpt>
      <trkpt lat="45.12133" lon="5.88751">
        <ele>1857.2</ele>
        <time>2021-02-27T05:23:39Z</time>
      </trkpt>
      <trkpt lat="45.12134" lon="5.88754">
        <ele>1857.4</ele>
        <time>2021-02-27T05:23:40Z</time>
      </trkpt>
      <trkpt lat="45.12134" lon="5.88754">
        <ele>1857.4</ele>
        <time>2021-02-27T05:23:41Z</time>
      </trkpt>
      <trkpt lat="45.12135" lon="5.88759">
        <ele>1857.4</ele>
        <time>2021-02-27T05:23:42Z</time>
      </trkpt>
      <trkpt lat="45.12135" lon="5.88759">
        <ele>1857.4</ele>
        <time>2021-02-27T05:23:43Z</time>
      </trkpt>
      <trkpt lat="45.12136" lon="5.88763">
        <ele>1857.6</ele>
        <time>2021-02-27T05:23:44Z</time>
      </trkpt>
      <trkpt lat="45.12136" lon="5.88763">
        <ele>1858</ele>
        <time>2021-02-27T05:23:45Z</time>
      </trkpt>
      <trkpt lat="45.12137" lon="5.88767">
        <ele>1858</ele>
        <time>2021-02-27T05:23:46Z</time>
      </trkpt>
      <trkpt lat="45.12137" lon="5.88767">
        <ele>1858</ele>
        <time>2021-02-27T05:23:47Z</time>
      </trkpt>
      <trkpt lat="45.12138" lon="5.8877">
        <ele>1858.4</ele>
        <time>2021-02-27T05:23:48Z</time>
      </trkpt>
      <trkpt lat="45.12138" lon="5.8877">
        <ele>1858.2</ele>
        <time>2021-02-27T05:23:49Z</time>
      </trkpt>
      <trkpt lat="45.12138" lon="5.88775">
        <ele>1858.2</ele>
        <time>2021-02-27T05:23:50Z</time>
      </trkpt>
      <trkpt lat="45.12138" lon="5.88775">
        <ele>1858.2</ele>
        <time>2021-02-27T05:23:51Z</time>
      </trkpt>
      <trkpt lat="45.12139" lon="5.88779">
        <ele>1857.8</ele>
        <time>2021-02-27T05:23:52Z</time>
      </trkpt>
      <trkpt lat="45.12139" lon="5.88779">
        <ele>1858</ele>
        <time>2021-02-27T05:23:53Z</time>
      </trkpt>
      <trkpt lat="45.1214" lon="5.88782">
        <ele>1858.2</ele>
        <time>2021-02-27T05:23:54Z</time>
      </trkpt>
      <trkpt lat="45.1214" lon="5.88782">
        <ele>1858</ele>
        <time>2021-02-27T05:23:55Z</time>
      </trkpt>
      <trkpt lat="45.12141" lon="5.88786">
        <ele>1858</ele>
        <time>2021-02-27T05:23:56Z</time>
      </trkpt>
      <trkpt lat="45.12141" lon="5.88786">
        <ele>1858.4</ele>
        <time>2021-02-27T05:23:57Z</time>
      </trkpt>
      <trkpt lat="45.12142" lon="5.8879">
        <ele>1858.4</ele>
        <time>2021-02-27T05:23:58Z</time>
      </trkpt>
      <trkpt lat="45.12142" lon="5.8879">
        <ele>1858.6</ele>
        <time>2021-02-27T05:23:59Z</time>
      </trkpt>
      <trkpt lat="45.12142" lon="5.88793">
        <ele>1858.6</ele>
        <time>2021-02-27T05:24:00Z</time>
      </trkpt>
      <trkpt lat="45.12142" lon="5.88793">
        <ele>1858.6</ele>
        <time>2021-02-27T05:24:01Z</time>
      </trkpt>
      <trkpt lat="45.12143" lon="5.88797">
        <ele>1858.6</ele>
        <time>2021-02-27T05:24:02Z</time>
      </trkpt>
      <trkpt lat="45.12143" lon="5.88797">
        <ele>1859</ele>
        <time>2021-02-27T05:24:03Z</time>
      </trkpt>
      <trkpt lat="45.12144" lon="5.88801">
        <ele>1859</ele>
        <time>2021-02-27T05:24:04Z</time>
      </trkpt>
      <trkpt lat="45.12144" lon="5.88801">
        <ele>1859.2</ele>
        <time>2021-02-27T05:24:05Z</time>
      </trkpt>
      <trkpt lat="45.12145" lon="5.88805">
        <ele>1859.4</ele>
        <time>2021-02-27T05:24:06Z</time>
      </trkpt>
      <trkpt lat="45.12145" lon="5.88805">
        <ele>1859.4</ele>
        <time>2021-02-27T05:24:07Z</time>
      </trkpt>
      <trkpt lat="45.12146" lon="5.88809">
        <ele>1859.4</ele>
        <time>2021-02-27T05:24:08Z</time>
      </trkpt>
      <trkpt lat="45.12146" lon="5.88809">
        <ele>1859.4</ele>
        <time>2021-02-27T05:24:09Z</time>
      </trkpt>
      <trkpt lat="45.12147" lon="5.88813">
        <ele>1859.6</ele>
        <time>2021-02-27T05:24:10Z</time>
      </trkpt>
      <trkpt lat="45.12148" lon="5.88815">
        <ele>1859.6</ele>
        <time>2021-02-27T05:24:11Z</time>
      </trkpt>
      <trkpt lat="45.12148" lon="5.88815">
        <ele>1859.4</ele>
        <time>2021-02-27T05:24:12Z</time>
      </trkpt>
      <trkpt lat="45.12148" lon="5.88817">
        <ele>1859.6</ele>
        <time>2021-02-27T05:24:13Z</time>
      </trkpt>
      <trkpt lat="45.12149" lon="5.88819">
        <ele>1859.2</ele>
        <time>2021-02-27T05:24:14Z</time>
      </trkpt>
      <trkpt lat="45.1215" lon="5.88821">
        <ele>1859.4</ele>
        <time>2021-02-27T05:24:15Z</time>
      </trkpt>
      <trkpt lat="45.12151" lon="5.88825">
        <ele>1859.6</ele>
        <time>2021-02-27T05:24:16Z</time>
      </trkpt>
      <trkpt lat="45.12151" lon="5.88825">
        <ele>1859.8</ele>
        <time>2021-02-27T05:24:17Z</time>
      </trkpt>
      <trkpt lat="45.12151" lon="5.8883">
        <ele>1859.8</ele>
        <time>2021-02-27T05:24:18Z</time>
      </trkpt>
      <trkpt lat="45.12151" lon="5.8883">
        <ele>1859.8</ele>
        <time>2021-02-27T05:24:19Z</time>
      </trkpt>
      <trkpt lat="45.12152" lon="5.88833">
        <ele>1859.8</ele>
        <time>2021-02-27T05:24:20Z</time>
      </trkpt>
      <trkpt lat="45.12152" lon="5.88833">
        <ele>1859.6</ele>
        <time>2021-02-27T05:24:21Z</time>
      </trkpt>
      <trkpt lat="45.12152" lon="5.88837">
        <ele>1859.8</ele>
        <time>2021-02-27T05:24:22Z</time>
      </trkpt>
      <trkpt lat="45.12152" lon="5.88837">
        <ele>1860</ele>
        <time>2021-02-27T05:24:23Z</time>
      </trkpt>
      <trkpt lat="45.12152" lon="5.88842">
        <ele>1860.4</ele>
        <time>2021-02-27T05:24:24Z</time>
      </trkpt>
      <trkpt lat="45.12152" lon="5.88842">
        <ele>1860.8</ele>
        <time>2021-02-27T05:24:25Z</time>
      </trkpt>
      <trkpt lat="45.12153" lon="5.88845">
        <ele>1861</ele>
        <time>2021-02-27T05:24:26Z</time>
      </trkpt>
      <trkpt lat="45.12153" lon="5.88845">
        <ele>1861.2</ele>
        <time>2021-02-27T05:24:27Z</time>
      </trkpt>
      <trkpt lat="45.12154" lon="5.88849">
        <ele>1861.2</ele>
        <time>2021-02-27T05:24:28Z</time>
      </trkpt>
      <trkpt lat="45.12154" lon="5.88849">
        <ele>1861.4</ele>
        <time>2021-02-27T05:24:29Z</time>
      </trkpt>
      <trkpt lat="45.12154" lon="5.88853">
        <ele>1861.8</ele>
        <time>2021-02-27T05:24:30Z</time>
      </trkpt>
      <trkpt lat="45.12154" lon="5.88853">
        <ele>1861.8</ele>
        <time>2021-02-27T05:24:31Z</time>
      </trkpt>
      <trkpt lat="45.12155" lon="5.88855">
        <ele>1862.2</ele>
        <time>2021-02-27T05:24:32Z</time>
      </trkpt>
      <trkpt lat="45.12155" lon="5.88857">
        <ele>1862.4</ele>
        <time>2021-02-27T05:24:33Z</time>
      </trkpt>
      <trkpt lat="45.12155" lon="5.88859">
        <ele>1862.4</ele>
        <time>2021-02-27T05:24:34Z</time>
      </trkpt>
      <trkpt lat="45.12155" lon="5.88862">
        <ele>1862.6</ele>
        <time>2021-02-27T05:24:35Z</time>
      </trkpt>
      <trkpt lat="45.12155" lon="5.88862">
        <ele>1862.8</ele>
        <time>2021-02-27T05:24:36Z</time>
      </trkpt>
      <trkpt lat="45.12156" lon="5.88866">
        <ele>1863.4</ele>
        <time>2021-02-27T05:24:37Z</time>
      </trkpt>
      <trkpt lat="45.12156" lon="5.88866">
        <ele>1863.8</ele>
        <time>2021-02-27T05:24:38Z</time>
      </trkpt>
      <trkpt lat="45.12156" lon="5.88866">
        <ele>1864.2</ele>
        <time>2021-02-27T05:24:39Z</time>
      </trkpt>
      <trkpt lat="45.12157" lon="5.88869">
        <ele>1864.2</ele>
        <time>2021-02-27T05:24:40Z</time>
      </trkpt>
      <trkpt lat="45.12157" lon="5.88869">
        <ele>1864.4</ele>
        <time>2021-02-27T05:24:41Z</time>
      </trkpt>
      <trkpt lat="45.12157" lon="5.88872">
        <ele>1864.4</ele>
        <time>2021-02-27T05:24:42Z</time>
      </trkpt>
      <trkpt lat="45.12157" lon="5.88872">
        <ele>1864.8</ele>
        <time>2021-02-27T05:24:43Z</time>
      </trkpt>
      <trkpt lat="45.12158" lon="5.88875">
        <ele>1865</ele>
        <time>2021-02-27T05:24:44Z</time>
      </trkpt>
      <trkpt lat="45.12158" lon="5.88875">
        <ele>1865</ele>
        <time>2021-02-27T05:24:45Z</time>
      </trkpt>
      <trkpt lat="45.12158" lon="5.88878">
        <ele>1865</ele>
        <time>2021-02-27T05:24:46Z</time>
      </trkpt>
      <trkpt lat="45.12158" lon="5.88878">
        <ele>1865</ele>
        <time>2021-02-27T05:24:47Z</time>
      </trkpt>
      <trkpt lat="45.12159" lon="5.88881">
        <ele>1865.2</ele>
        <time>2021-02-27T05:24:48Z</time>
      </trkpt>
      <trkpt lat="45.12159" lon="5.88881">
        <ele>1865.6</ele>
        <time>2021-02-27T05:24:49Z</time>
      </trkpt>
      <trkpt lat="45.12159" lon="5.88884">
        <ele>1865.8</ele>
        <time>2021-02-27T05:24:50Z</time>
      </trkpt>
      <trkpt lat="45.12159" lon="5.88884">
        <ele>1866</ele>
        <time>2021-02-27T05:24:51Z</time>
      </trkpt>
      <trkpt lat="45.12159" lon="5.88887">
        <ele>1866</ele>
        <time>2021-02-27T05:24:52Z</time>
      </trkpt>
      <trkpt lat="45.12159" lon="5.88887">
        <ele>1866.2</ele>
        <time>2021-02-27T05:24:53Z</time>
      </trkpt>
      <trkpt lat="45.12159" lon="5.88891">
        <ele>1866.6</ele>
        <time>2021-02-27T05:24:54Z</time>
      </trkpt>
      <trkpt lat="45.12159" lon="5.88891">
        <ele>1866.6</ele>
        <time>2021-02-27T05:24:55Z</time>
      </trkpt>
      <trkpt lat="45.12158" lon="5.88894">
        <ele>1866.8</ele>
        <time>2021-02-27T05:24:56Z</time>
      </trkpt>
      <trkpt lat="45.12158" lon="5.88894">
        <ele>1867.2</ele>
        <time>2021-02-27T05:24:57Z</time>
      </trkpt>
      <trkpt lat="45.12159" lon="5.88897">
        <ele>1867.2</ele>
        <time>2021-02-27T05:24:58Z</time>
      </trkpt>
      <trkpt lat="45.12159" lon="5.88897">
        <ele>1867.4</ele>
        <time>2021-02-27T05:24:59Z</time>
      </trkpt>
      <trkpt lat="45.12158" lon="5.889">
        <ele>1867.8</ele>
        <time>2021-02-27T05:25:00Z</time>
      </trkpt>
      <trkpt lat="45.12158" lon="5.889">
        <ele>1867.8</ele>
        <time>2021-02-27T05:25:01Z</time>
      </trkpt>
      <trkpt lat="45.12158" lon="5.88903">
        <ele>1868</ele>
        <time>2021-02-27T05:25:02Z</time>
      </trkpt>
      <trkpt lat="45.12158" lon="5.88903">
        <ele>1868.2</ele>
        <time>2021-02-27T05:25:03Z</time>
      </trkpt>
      <trkpt lat="45.12158" lon="5.88906">
        <ele>1868.4</ele>
        <time>2021-02-27T05:25:04Z</time>
      </trkpt>
      <trkpt lat="45.12158" lon="5.88906">
        <ele>1868.6</ele>
        <time>2021-02-27T05:25:05Z</time>
      </trkpt>
      <trkpt lat="45.12158" lon="5.88906">
        <ele>1868.8</ele>
        <time>2021-02-27T05:25:06Z</time>
      </trkpt>
      <trkpt lat="45.12159" lon="5.88909">
        <ele>1869</ele>
        <time>2021-02-27T05:25:07Z</time>
      </trkpt>
      <trkpt lat="45.12159" lon="5.88909">
        <ele>1869.2</ele>
        <time>2021-02-27T05:25:08Z</time>
      </trkpt>
      <trkpt lat="45.12159" lon="5.88909">
        <ele>1869.4</ele>
        <time>2021-02-27T05:25:09Z</time>
      </trkpt>
      <trkpt lat="45.12158" lon="5.88913">
        <ele>1869.8</ele>
        <time>2021-02-27T05:25:10Z</time>
      </trkpt>
      <trkpt lat="45.12158" lon="5.88913">
        <ele>1870</ele>
        <time>2021-02-27T05:25:11Z</time>
      </trkpt>
      <trkpt lat="45.12158" lon="5.88916">
        <ele>1870.2</ele>
        <time>2021-02-27T05:25:12Z</time>
      </trkpt>
      <trkpt lat="45.12158" lon="5.88916">
        <ele>1870.2</ele>
        <time>2021-02-27T05:25:13Z</time>
      </trkpt>
      <trkpt lat="45.12158" lon="5.88919">
        <ele>1870.4</ele>
        <time>2021-02-27T05:25:14Z</time>
      </trkpt>
      <trkpt lat="45.12158" lon="5.88919">
        <ele>1870.8</ele>
        <time>2021-02-27T05:25:15Z</time>
      </trkpt>
      <trkpt lat="45.12158" lon="5.88919">
        <ele>1870.8</ele>
        <time>2021-02-27T05:25:16Z</time>
      </trkpt>
      <trkpt lat="45.12156" lon="5.88923">
        <ele>1871.2</ele>
        <time>2021-02-27T05:25:17Z</time>
      </trkpt>
      <trkpt lat="45.12156" lon="5.88923">
        <ele>1871.4</ele>
        <time>2021-02-27T05:25:18Z</time>
      </trkpt>
      <trkpt lat="45.12156" lon="5.88923">
        <ele>1871.8</ele>
        <time>2021-02-27T05:25:19Z</time>
      </trkpt>
      <trkpt lat="45.12157" lon="5.88925">
        <ele>1871.8</ele>
        <time>2021-02-27T05:25:20Z</time>
      </trkpt>
      <trkpt lat="45.12157" lon="5.88925">
        <ele>1872.2</ele>
        <time>2021-02-27T05:25:21Z</time>
      </trkpt>
      <trkpt lat="45.12156" lon="5.88928">
        <ele>1872.4</ele>
        <time>2021-02-27T05:25:22Z</time>
      </trkpt>
      <trkpt lat="45.12156" lon="5.88928">
        <ele>1872.8</ele>
        <time>2021-02-27T05:25:23Z</time>
      </trkpt>
      <trkpt lat="45.12156" lon="5.88928">
        <ele>1872.8</ele>
        <time>2021-02-27T05:25:24Z</time>
      </trkpt>
      <trkpt lat="45.12157" lon="5.88933">
        <ele>1873.2</ele>
        <time>2021-02-27T05:25:25Z</time>
      </trkpt>
      <trkpt lat="45.12157" lon="5.88933">
        <ele>1873.8</ele>
        <time>2021-02-27T05:25:26Z</time>
      </trkpt>
      <trkpt lat="45.12157" lon="5.88936">
        <ele>1874</ele>
        <time>2021-02-27T05:25:27Z</time>
      </trkpt>
      <trkpt lat="45.12157" lon="5.88936">
        <ele>1874.2</ele>
        <time>2021-02-27T05:25:28Z</time>
      </trkpt>
      <trkpt lat="45.12157" lon="5.88938">
        <ele>1874.6</ele>
        <time>2021-02-27T05:25:29Z</time>
      </trkpt>
      <trkpt lat="45.12157" lon="5.88938">
        <ele>1874.8</ele>
        <time>2021-02-27T05:25:30Z</time>
      </trkpt>
      <trkpt lat="45.12157" lon="5.88941">
        <ele>1875.2</ele>
        <time>2021-02-27T05:25:31Z</time>
      </trkpt>
      <trkpt lat="45.12157" lon="5.88941">
        <ele>1875.2</ele>
        <time>2021-02-27T05:25:32Z</time>
      </trkpt>
      <trkpt lat="45.12157" lon="5.88945">
        <ele>1875.4</ele>
        <time>2021-02-27T05:25:33Z</time>
      </trkpt>
      <trkpt lat="45.12157" lon="5.88945">
        <ele>1875.8</ele>
        <time>2021-02-27T05:25:34Z</time>
      </trkpt>
      <trkpt lat="45.12158" lon="5.88948">
        <ele>1876</ele>
        <time>2021-02-27T05:25:35Z</time>
      </trkpt>
      <trkpt lat="45.12158" lon="5.88948">
        <ele>1876.2</ele>
        <time>2021-02-27T05:25:36Z</time>
      </trkpt>
      <trkpt lat="45.12158" lon="5.88951">
        <ele>1876.2</ele>
        <time>2021-02-27T05:25:37Z</time>
      </trkpt>
      <trkpt lat="45.12158" lon="5.88951">
        <ele>1876.6</ele>
        <time>2021-02-27T05:25:38Z</time>
      </trkpt>
      <trkpt lat="45.12157" lon="5.88954">
        <ele>1876.8</ele>
        <time>2021-02-27T05:25:39Z</time>
      </trkpt>
      <trkpt lat="45.12157" lon="5.88954">
        <ele>1876.8</ele>
        <time>2021-02-27T05:25:40Z</time>
      </trkpt>
      <trkpt lat="45.12157" lon="5.88958">
        <ele>1877</ele>
        <time>2021-02-27T05:25:41Z</time>
      </trkpt>
      <trkpt lat="45.12157" lon="5.88958">
        <ele>1877</ele>
        <time>2021-02-27T05:25:42Z</time>
      </trkpt>
      <trkpt lat="45.12157" lon="5.88962">
        <ele>1877</ele>
        <time>2021-02-27T05:25:43Z</time>
      </trkpt>
      <trkpt lat="45.12157" lon="5.88962">
        <ele>1877.4</ele>
        <time>2021-02-27T05:25:44Z</time>
      </trkpt>
      <trkpt lat="45.12156" lon="5.88965">
        <ele>1877.6</ele>
        <time>2021-02-27T05:25:45Z</time>
      </trkpt>
      <trkpt lat="45.12156" lon="5.88965">
        <ele>1877.6</ele>
        <time>2021-02-27T05:25:46Z</time>
      </trkpt>
      <trkpt lat="45.12156" lon="5.88968">
        <ele>1877.6</ele>
        <time>2021-02-27T05:25:47Z</time>
      </trkpt>
      <trkpt lat="45.12156" lon="5.88968">
        <ele>1877.6</ele>
        <time>2021-02-27T05:25:48Z</time>
      </trkpt>
      <trkpt lat="45.12156" lon="5.88971">
        <ele>1877.8</ele>
        <time>2021-02-27T05:25:49Z</time>
      </trkpt>
      <trkpt lat="45.12156" lon="5.88971">
        <ele>1878</ele>
        <time>2021-02-27T05:25:50Z</time>
      </trkpt>
      <trkpt lat="45.12155" lon="5.88974">
        <ele>1878.6</ele>
        <time>2021-02-27T05:25:51Z</time>
      </trkpt>
      <trkpt lat="45.12155" lon="5.88974">
        <ele>1878.8</ele>
        <time>2021-02-27T05:25:52Z</time>
      </trkpt>
      <trkpt lat="45.12155" lon="5.88977">
        <ele>1878.8</ele>
        <time>2021-02-27T05:25:53Z</time>
      </trkpt>
      <trkpt lat="45.12155" lon="5.88977">
        <ele>1879.2</ele>
        <time>2021-02-27T05:25:54Z</time>
      </trkpt>
      <trkpt lat="45.12155" lon="5.88981">
        <ele>1879</ele>
        <time>2021-02-27T05:25:55Z</time>
      </trkpt>
      <trkpt lat="45.12155" lon="5.88981">
        <ele>1879.6</ele>
        <time>2021-02-27T05:25:56Z</time>
      </trkpt>
      <trkpt lat="45.12155" lon="5.88984">
        <ele>1879.8</ele>
        <time>2021-02-27T05:25:57Z</time>
      </trkpt>
      <trkpt lat="45.12155" lon="5.88984">
        <ele>1879.8</ele>
        <time>2021-02-27T05:25:58Z</time>
      </trkpt>
      <trkpt lat="45.12155" lon="5.88987">
        <ele>1880</ele>
        <time>2021-02-27T05:25:59Z</time>
      </trkpt>
      <trkpt lat="45.12155" lon="5.88987">
        <ele>1880.4</ele>
        <time>2021-02-27T05:26:00Z</time>
      </trkpt>
      <trkpt lat="45.12154" lon="5.8899">
        <ele>1880.8</ele>
        <time>2021-02-27T05:26:01Z</time>
      </trkpt>
      <trkpt lat="45.12154" lon="5.8899">
        <ele>1880.8</ele>
        <time>2021-02-27T05:26:02Z</time>
      </trkpt>
      <trkpt lat="45.12154" lon="5.88993">
        <ele>1880.8</ele>
        <time>2021-02-27T05:26:03Z</time>
      </trkpt>
      <trkpt lat="45.12154" lon="5.88993">
        <ele>1881.2</ele>
        <time>2021-02-27T05:26:04Z</time>
      </trkpt>
      <trkpt lat="45.12154" lon="5.88996">
        <ele>1881.6</ele>
        <time>2021-02-27T05:26:05Z</time>
      </trkpt>
      <trkpt lat="45.12154" lon="5.88996">
        <ele>1881.8</ele>
        <time>2021-02-27T05:26:06Z</time>
      </trkpt>
      <trkpt lat="45.12154" lon="5.88999">
        <ele>1881.6</ele>
        <time>2021-02-27T05:26:07Z</time>
      </trkpt>
      <trkpt lat="45.12154" lon="5.88999">
        <ele>1882</ele>
        <time>2021-02-27T05:26:08Z</time>
      </trkpt>
      <trkpt lat="45.12154" lon="5.89002">
        <ele>1882.2</ele>
        <time>2021-02-27T05:26:09Z</time>
      </trkpt>
      <trkpt lat="45.12154" lon="5.89002">
        <ele>1882.6</ele>
        <time>2021-02-27T05:26:10Z</time>
      </trkpt>
      <trkpt lat="45.12154" lon="5.89006">
        <ele>1882.6</ele>
        <time>2021-02-27T05:26:11Z</time>
      </trkpt>
      <trkpt lat="45.12154" lon="5.89006">
        <ele>1883</ele>
        <time>2021-02-27T05:26:12Z</time>
      </trkpt>
      <trkpt lat="45.12154" lon="5.89008">
        <ele>1883.2</ele>
        <time>2021-02-27T05:26:13Z</time>
      </trkpt>
      <trkpt lat="45.12154" lon="5.89008">
        <ele>1883.6</ele>
        <time>2021-02-27T05:26:14Z</time>
      </trkpt>
      <trkpt lat="45.12154" lon="5.89008">
        <ele>1883.6</ele>
        <time>2021-02-27T05:26:15Z</time>
      </trkpt>
      <trkpt lat="45.12152" lon="5.89012">
        <ele>1883.8</ele>
        <time>2021-02-27T05:26:16Z</time>
      </trkpt>
      <trkpt lat="45.12152" lon="5.89012">
        <ele>1884</ele>
        <time>2021-02-27T05:26:17Z</time>
      </trkpt>
      <trkpt lat="45.12152" lon="5.89012">
        <ele>1884.4</ele>
        <time>2021-02-27T05:26:18Z</time>
      </trkpt>
      <trkpt lat="45.12151" lon="5.89015">
        <ele>1884.4</ele>
        <time>2021-02-27T05:26:19Z</time>
      </trkpt>
      <trkpt lat="45.12151" lon="5.89015">
        <ele>1884.8</ele>
        <time>2021-02-27T05:26:20Z</time>
      </trkpt>
      <trkpt lat="45.1215" lon="5.89016">
        <ele>1885</ele>
        <time>2021-02-27T05:26:21Z</time>
      </trkpt>
      <trkpt lat="45.1215" lon="5.89017">
        <ele>1885.4</ele>
        <time>2021-02-27T05:26:22Z</time>
      </trkpt>
      <trkpt lat="45.1215" lon="5.89019">
        <ele>1885.6</ele>
        <time>2021-02-27T05:26:23Z</time>
      </trkpt>
      <trkpt lat="45.12149" lon="5.8902">
        <ele>1885.8</ele>
        <time>2021-02-27T05:26:24Z</time>
      </trkpt>
      <trkpt lat="45.12149" lon="5.89021">
        <ele>1886</ele>
        <time>2021-02-27T05:26:25Z</time>
      </trkpt>
      <trkpt lat="45.12149" lon="5.89023">
        <ele>1886.4</ele>
        <time>2021-02-27T05:26:26Z</time>
      </trkpt>
      <trkpt lat="45.12148" lon="5.89024">
        <ele>1886.4</ele>
        <time>2021-02-27T05:26:27Z</time>
      </trkpt>
      <trkpt lat="45.12148" lon="5.89025">
        <ele>1887</ele>
        <time>2021-02-27T05:26:28Z</time>
      </trkpt>
      <trkpt lat="45.12148" lon="5.89027">
        <ele>1887.2</ele>
        <time>2021-02-27T05:26:29Z</time>
      </trkpt>
      <trkpt lat="45.12148" lon="5.89028">
        <ele>1887.6</ele>
        <time>2021-02-27T05:26:30Z</time>
      </trkpt>
      <trkpt lat="45.12147" lon="5.89031">
        <ele>1887.6</ele>
        <time>2021-02-27T05:26:31Z</time>
      </trkpt>
      <trkpt lat="45.12147" lon="5.89031">
        <ele>1888</ele>
        <time>2021-02-27T05:26:32Z</time>
      </trkpt>
      <trkpt lat="45.12147" lon="5.89031">
        <ele>1888.4</ele>
        <time>2021-02-27T05:26:33Z</time>
      </trkpt>
      <trkpt lat="45.12146" lon="5.89034">
        <ele>1888.8</ele>
        <time>2021-02-27T05:26:34Z</time>
      </trkpt>
      <trkpt lat="45.12146" lon="5.89034">
        <ele>1888.8</ele>
        <time>2021-02-27T05:26:35Z</time>
      </trkpt>
      <trkpt lat="45.12146" lon="5.89035">
        <ele>1889.2</ele>
        <time>2021-02-27T05:26:36Z</time>
      </trkpt>
      <trkpt lat="45.12146" lon="5.89037">
        <ele>1889.6</ele>
        <time>2021-02-27T05:26:37Z</time>
      </trkpt>
      <trkpt lat="45.12146" lon="5.89038">
        <ele>1889.8</ele>
        <time>2021-02-27T05:26:38Z</time>
      </trkpt>
      <trkpt lat="45.12145" lon="5.89039">
        <ele>1890</ele>
        <time>2021-02-27T05:26:39Z</time>
      </trkpt>
      <trkpt lat="45.12145" lon="5.8904">
        <ele>1890.2</ele>
        <time>2021-02-27T05:26:40Z</time>
      </trkpt>
      <trkpt lat="45.12145" lon="5.89041">
        <ele>1890.8</ele>
        <time>2021-02-27T05:26:41Z</time>
      </trkpt>
      <trkpt lat="45.12145" lon="5.89042">
        <ele>1890.8</ele>
        <time>2021-02-27T05:26:42Z</time>
      </trkpt>
      <trkpt lat="45.12144" lon="5.89043">
        <ele>1891.2</ele>
        <time>2021-02-27T05:26:43Z</time>
      </trkpt>
      <trkpt lat="45.12144" lon="5.89044">
        <ele>1891.4</ele>
        <time>2021-02-27T05:26:44Z</time>
      </trkpt>
      <trkpt lat="45.12144" lon="5.89046">
        <ele>1891.6</ele>
        <time>2021-02-27T05:26:45Z</time>
      </trkpt>
      <trkpt lat="45.12144" lon="5.89047">
        <ele>1891.8</ele>
        <time>2021-02-27T05:26:46Z</time>
      </trkpt>
      <trkpt lat="45.12144" lon="5.89047">
        <ele>1892.2</ele>
        <time>2021-02-27T05:26:47Z</time>
      </trkpt>
      <trkpt lat="45.12144" lon="5.89047">
        <ele>1892.4</ele>
        <time>2021-02-27T05:26:48Z</time>
      </trkpt>
      <trkpt lat="45.12142" lon="5.89051">
        <ele>1893</ele>
        <time>2021-02-27T05:26:49Z</time>
      </trkpt>
      <trkpt lat="45.12142" lon="5.89051">
        <ele>1893</ele>
        <time>2021-02-27T05:26:50Z</time>
      </trkpt>
      <trkpt lat="45.12142" lon="5.89051">
        <ele>1893.2</ele>
        <time>2021-02-27T05:26:51Z</time>
      </trkpt>
      <trkpt lat="45.12141" lon="5.89054">
        <ele>1893.8</ele>
        <time>2021-02-27T05:26:52Z</time>
      </trkpt>
      <trkpt lat="45.12141" lon="5.89054">
        <ele>1893.8</ele>
        <time>2021-02-27T05:26:53Z</time>
      </trkpt>
      <trkpt lat="45.1214" lon="5.89056">
        <ele>1894</ele>
        <time>2021-02-27T05:26:54Z</time>
      </trkpt>
      <trkpt lat="45.1214" lon="5.89056">
        <ele>1894.4</ele>
        <time>2021-02-27T05:26:55Z</time>
      </trkpt>
      <trkpt lat="45.1214" lon="5.89058">
        <ele>1894.6</ele>
        <time>2021-02-27T05:26:56Z</time>
      </trkpt>
      <trkpt lat="45.1214" lon="5.89058">
        <ele>1895</ele>
        <time>2021-02-27T05:26:57Z</time>
      </trkpt>
      <trkpt lat="45.12139" lon="5.89061">
        <ele>1895.2</ele>
        <time>2021-02-27T05:26:58Z</time>
      </trkpt>
      <trkpt lat="45.12139" lon="5.89061">
        <ele>1895.8</ele>
        <time>2021-02-27T05:26:59Z</time>
      </trkpt>
      <trkpt lat="45.12138" lon="5.89064">
        <ele>1896</ele>
        <time>2021-02-27T05:27:00Z</time>
      </trkpt>
      <trkpt lat="45.12138" lon="5.89064">
        <ele>1896.2</ele>
        <time>2021-02-27T05:27:01Z</time>
      </trkpt>
      <trkpt lat="45.12137" lon="5.89067">
        <ele>1896.4</ele>
        <time>2021-02-27T05:27:02Z</time>
      </trkpt>
      <trkpt lat="45.12137" lon="5.89067">
        <ele>1896.8</ele>
        <time>2021-02-27T05:27:03Z</time>
      </trkpt>
      <trkpt lat="45.12136" lon="5.8907">
        <ele>1896.8</ele>
        <time>2021-02-27T05:27:04Z</time>
      </trkpt>
      <trkpt lat="45.12136" lon="5.8907">
        <ele>1897.2</ele>
        <time>2021-02-27T05:27:05Z</time>
      </trkpt>
      <trkpt lat="45.12136" lon="5.8907">
        <ele>1897.2</ele>
        <time>2021-02-27T05:27:06Z</time>
      </trkpt>
      <trkpt lat="45.12136" lon="5.89072">
        <ele>1897.6</ele>
        <time>2021-02-27T05:27:07Z</time>
      </trkpt>
      <trkpt lat="45.12136" lon="5.89072">
        <ele>1897.6</ele>
        <time>2021-02-27T05:27:08Z</time>
      </trkpt>
      <trkpt lat="45.12135" lon="5.89075">
        <ele>1898</ele>
        <time>2021-02-27T05:27:09Z</time>
      </trkpt>
      <trkpt lat="45.12135" lon="5.89075">
        <ele>1898.4</ele>
        <time>2021-02-27T05:27:10Z</time>
      </trkpt>
      <trkpt lat="45.12134" lon="5.89077">
        <ele>1898.6</ele>
        <time>2021-02-27T05:27:11Z</time>
      </trkpt>
      <trkpt lat="45.12134" lon="5.89077">
        <ele>1898.8</ele>
        <time>2021-02-27T05:27:12Z</time>
      </trkpt>
      <trkpt lat="45.12134" lon="5.89077">
        <ele>1899</ele>
        <time>2021-02-27T05:27:13Z</time>
      </trkpt>
      <trkpt lat="45.12133" lon="5.89081">
        <ele>1899.4</ele>
        <time>2021-02-27T05:27:14Z</time>
      </trkpt>
      <trkpt lat="45.12133" lon="5.89081">
        <ele>1899.4</ele>
        <time>2021-02-27T05:27:15Z</time>
      </trkpt>
      <trkpt lat="45.12133" lon="5.89081">
        <ele>1899.8</ele>
        <time>2021-02-27T05:27:16Z</time>
      </trkpt>
      <trkpt lat="45.12132" lon="5.89083">
        <ele>1900</ele>
        <time>2021-02-27T05:27:17Z</time>
      </trkpt>
      <trkpt lat="45.12132" lon="5.89083">
        <ele>1900.4</ele>
        <time>2021-02-27T05:27:18Z</time>
      </trkpt>
      <trkpt lat="45.12132" lon="5.89083">
        <ele>1900.6</ele>
        <time>2021-02-27T05:27:19Z</time>
      </trkpt>
      <trkpt lat="45.12131" lon="5.89086">
        <ele>1900.8</ele>
        <time>2021-02-27T05:27:20Z</time>
      </trkpt>
      <trkpt lat="45.12131" lon="5.89086">
        <ele>1901</ele>
        <time>2021-02-27T05:27:21Z</time>
      </trkpt>
      <trkpt lat="45.1213" lon="5.89088">
        <ele>1901</ele>
        <time>2021-02-27T05:27:22Z</time>
      </trkpt>
      <trkpt lat="45.1213" lon="5.89088">
        <ele>1901.4</ele>
        <time>2021-02-27T05:27:23Z</time>
      </trkpt>
      <trkpt lat="45.12128" lon="5.89091">
        <ele>1901.6</ele>
        <time>2021-02-27T05:27:24Z</time>
      </trkpt>
      <trkpt lat="45.12128" lon="5.89091">
        <ele>1902.2</ele>
        <time>2021-02-27T05:27:25Z</time>
      </trkpt>
      <trkpt lat="45.12127" lon="5.89094">
        <ele>1902.4</ele>
        <time>2021-02-27T05:27:26Z</time>
      </trkpt>
      <trkpt lat="45.12127" lon="5.89094">
        <ele>1902.6</ele>
        <time>2021-02-27T05:27:27Z</time>
      </trkpt>
      <trkpt lat="45.12127" lon="5.89094">
        <ele>1903</ele>
        <time>2021-02-27T05:27:28Z</time>
      </trkpt>
      <trkpt lat="45.12125" lon="5.89097">
        <ele>1903</ele>
        <time>2021-02-27T05:27:29Z</time>
      </trkpt>
      <trkpt lat="45.12125" lon="5.89097">
        <ele>1903.4</ele>
        <time>2021-02-27T05:27:30Z</time>
      </trkpt>
      <trkpt lat="45.12125" lon="5.891">
        <ele>1903.8</ele>
        <time>2021-02-27T05:27:31Z</time>
      </trkpt>
      <trkpt lat="45.12125" lon="5.891">
        <ele>1903.8</ele>
        <time>2021-02-27T05:27:32Z</time>
      </trkpt>
      <trkpt lat="45.12123" lon="5.89102">
        <ele>1904</ele>
        <time>2021-02-27T05:27:33Z</time>
      </trkpt>
      <trkpt lat="45.12123" lon="5.89102">
        <ele>1904.4</ele>
        <time>2021-02-27T05:27:34Z</time>
      </trkpt>
      <trkpt lat="45.12123" lon="5.89102">
        <ele>1904.8</ele>
        <time>2021-02-27T05:27:35Z</time>
      </trkpt>
      <trkpt lat="45.12122" lon="5.89104">
        <ele>1905.2</ele>
        <time>2021-02-27T05:27:36Z</time>
      </trkpt>
      <trkpt lat="45.12122" lon="5.89104">
        <ele>1905.4</ele>
        <time>2021-02-27T05:27:37Z</time>
      </trkpt>
      <trkpt lat="45.12122" lon="5.89104">
        <ele>1905.6</ele>
        <time>2021-02-27T05:27:38Z</time>
      </trkpt>
      <trkpt lat="45.12122" lon="5.89104">
        <ele>1905.6</ele>
        <time>2021-02-27T05:27:39Z</time>
      </trkpt>
      <trkpt lat="45.12122" lon="5.89107">
        <ele>1906.2</ele>
        <time>2021-02-27T05:27:40Z</time>
      </trkpt>
      <trkpt lat="45.12122" lon="5.89107">
        <ele>1906.4</ele>
        <time>2021-02-27T05:27:41Z</time>
      </trkpt>
      <trkpt lat="45.12122" lon="5.89107">
        <ele>1906.6</ele>
        <time>2021-02-27T05:27:42Z</time>
      </trkpt>
      <trkpt lat="45.12121" lon="5.89111">
        <ele>1907.2</ele>
        <time>2021-02-27T05:27:43Z</time>
      </trkpt>
      <trkpt lat="45.12121" lon="5.89111">
        <ele>1907.2</ele>
        <time>2021-02-27T05:27:44Z</time>
      </trkpt>
      <trkpt lat="45.12121" lon="5.89111">
        <ele>1907.6</ele>
        <time>2021-02-27T05:27:45Z</time>
      </trkpt>
      <trkpt lat="45.12119" lon="5.89113">
        <ele>1907.8</ele>
        <time>2021-02-27T05:27:46Z</time>
      </trkpt>
      <trkpt lat="45.12119" lon="5.89113">
        <ele>1908</ele>
        <time>2021-02-27T05:27:47Z</time>
      </trkpt>
      <trkpt lat="45.12119" lon="5.89113">
        <ele>1908.4</ele>
        <time>2021-02-27T05:27:48Z</time>
      </trkpt>
      <trkpt lat="45.12119" lon="5.89113">
        <ele>1908.4</ele>
        <time>2021-02-27T05:27:49Z</time>
      </trkpt>
      <trkpt lat="45.12118" lon="5.89116">
        <ele>1908.8</ele>
        <time>2021-02-27T05:27:50Z</time>
      </trkpt>
      <trkpt lat="45.12118" lon="5.89116">
        <ele>1909</ele>
        <time>2021-02-27T05:27:51Z</time>
      </trkpt>
      <trkpt lat="45.12118" lon="5.89116">
        <ele>1909.4</ele>
        <time>2021-02-27T05:27:52Z</time>
      </trkpt>
      <trkpt lat="45.12118" lon="5.89119">
        <ele>1909.8</ele>
        <time>2021-02-27T05:27:53Z</time>
      </trkpt>
      <trkpt lat="45.12118" lon="5.89119">
        <ele>1909.8</ele>
        <time>2021-02-27T05:27:54Z</time>
      </trkpt>
      <trkpt lat="45.12118" lon="5.8912">
        <ele>1910.2</ele>
        <time>2021-02-27T05:27:55Z</time>
      </trkpt>
      <trkpt lat="45.12117" lon="5.89121">
        <ele>1910.4</ele>
        <time>2021-02-27T05:27:56Z</time>
      </trkpt>
      <trkpt lat="45.12117" lon="5.89122">
        <ele>1910.8</ele>
        <time>2021-02-27T05:27:57Z</time>
      </trkpt>
      <trkpt lat="45.12117" lon="5.89123">
        <ele>1911.4</ele>
        <time>2021-02-27T05:27:58Z</time>
      </trkpt>
      <trkpt lat="45.12117" lon="5.89124">
        <ele>1911.4</ele>
        <time>2021-02-27T05:27:59Z</time>
      </trkpt>
      <trkpt lat="45.12117" lon="5.89125">
        <ele>1911.6</ele>
        <time>2021-02-27T05:28:00Z</time>
      </trkpt>
      <trkpt lat="45.12117" lon="5.89126">
        <ele>1912.2</ele>
        <time>2021-02-27T05:28:01Z</time>
      </trkpt>
      <trkpt lat="45.12116" lon="5.89126">
        <ele>1912</ele>
        <time>2021-02-27T05:28:02Z</time>
      </trkpt>
      <trkpt lat="45.12116" lon="5.89126">
        <ele>1912.2</ele>
        <time>2021-02-27T05:28:03Z</time>
      </trkpt>
      <trkpt lat="45.12116" lon="5.8913">
        <ele>1912.6</ele>
        <time>2021-02-27T05:28:04Z</time>
      </trkpt>
      <trkpt lat="45.12116" lon="5.8913">
        <ele>1912.8</ele>
        <time>2021-02-27T05:28:05Z</time>
      </trkpt>
      <trkpt lat="45.12116" lon="5.8913">
        <ele>1913.2</ele>
        <time>2021-02-27T05:28:06Z</time>
      </trkpt>
      <trkpt lat="45.12116" lon="5.8913">
        <ele>1913.4</ele>
        <time>2021-02-27T05:28:07Z</time>
      </trkpt>
      <trkpt lat="45.12115" lon="5.89132">
        <ele>1913.8</ele>
        <time>2021-02-27T05:28:08Z</time>
      </trkpt>
      <trkpt lat="45.12115" lon="5.89132">
        <ele>1913.8</ele>
        <time>2021-02-27T05:28:09Z</time>
      </trkpt>
      <trkpt lat="45.12115" lon="5.89132">
        <ele>1914.2</ele>
        <time>2021-02-27T05:28:10Z</time>
      </trkpt>
      <trkpt lat="45.12114" lon="5.89135">
        <ele>1914.4</ele>
        <time>2021-02-27T05:28:11Z</time>
      </trkpt>
      <trkpt lat="45.12114" lon="5.89135">
        <ele>1914.4</ele>
        <time>2021-02-27T05:28:12Z</time>
      </trkpt>
      <trkpt lat="45.12114" lon="5.89135">
        <ele>1914.8</ele>
        <time>2021-02-27T05:28:13Z</time>
      </trkpt>
      <trkpt lat="45.12114" lon="5.89135">
        <ele>1915.2</ele>
        <time>2021-02-27T05:28:14Z</time>
      </trkpt>
      <trkpt lat="45.12113" lon="5.89138">
        <ele>1915.2</ele>
        <time>2021-02-27T05:28:15Z</time>
      </trkpt>
      <trkpt lat="45.12113" lon="5.89138">
        <ele>1915.4</ele>
        <time>2021-02-27T05:28:16Z</time>
      </trkpt>
      <trkpt lat="45.12113" lon="5.89138">
        <ele>1915.6</ele>
        <time>2021-02-27T05:28:17Z</time>
      </trkpt>
      <trkpt lat="45.12112" lon="5.89141">
        <ele>1915.8</ele>
        <time>2021-02-27T05:28:18Z</time>
      </trkpt>
      <trkpt lat="45.12112" lon="5.89141">
        <ele>1916</ele>
        <time>2021-02-27T05:28:19Z</time>
      </trkpt>
      <trkpt lat="45.12112" lon="5.89141">
        <ele>1916.4</ele>
        <time>2021-02-27T05:28:20Z</time>
      </trkpt>
      <trkpt lat="45.12112" lon="5.89144">
        <ele>1916.8</ele>
        <time>2021-02-27T05:28:21Z</time>
      </trkpt>
      <trkpt lat="45.12112" lon="5.89144">
        <ele>1916.8</ele>
        <time>2021-02-27T05:28:22Z</time>
      </trkpt>
      <trkpt lat="45.12112" lon="5.89144">
        <ele>1917.2</ele>
        <time>2021-02-27T05:28:23Z</time>
      </trkpt>
      <trkpt lat="45.12111" lon="5.89147">
        <ele>1917.4</ele>
        <time>2021-02-27T05:28:24Z</time>
      </trkpt>
      <trkpt lat="45.12111" lon="5.89147">
        <ele>1917.8</ele>
        <time>2021-02-27T05:28:25Z</time>
      </trkpt>
      <trkpt lat="45.12111" lon="5.8915">
        <ele>1918.2</ele>
        <time>2021-02-27T05:28:26Z</time>
      </trkpt>
      <trkpt lat="45.12111" lon="5.8915">
        <ele>1918.6</ele>
        <time>2021-02-27T05:28:27Z</time>
      </trkpt>
      <trkpt lat="45.12111" lon="5.8915">
        <ele>1919</ele>
        <time>2021-02-27T05:28:28Z</time>
      </trkpt>
      <trkpt lat="45.1211" lon="5.89154">
        <ele>1919</ele>
        <time>2021-02-27T05:28:29Z</time>
      </trkpt>
      <trkpt lat="45.1211" lon="5.89154">
        <ele>1919.4</ele>
        <time>2021-02-27T05:28:30Z</time>
      </trkpt>
      <trkpt lat="45.1211" lon="5.89154">
        <ele>1919.6</ele>
        <time>2021-02-27T05:28:31Z</time>
      </trkpt>
      <trkpt lat="45.12109" lon="5.89157">
        <ele>1920</ele>
        <time>2021-02-27T05:28:32Z</time>
      </trkpt>
      <trkpt lat="45.12109" lon="5.89157">
        <ele>1919.8</ele>
        <time>2021-02-27T05:28:33Z</time>
      </trkpt>
      <trkpt lat="45.12109" lon="5.89159">
        <ele>1919.8</ele>
        <time>2021-02-27T05:28:34Z</time>
      </trkpt>
      <trkpt lat="45.12109" lon="5.89159">
        <ele>1920.4</ele>
        <time>2021-02-27T05:28:35Z</time>
      </trkpt>
      <trkpt lat="45.12109" lon="5.89159">
        <ele>1920.8</ele>
        <time>2021-02-27T05:28:36Z</time>
      </trkpt>
      <trkpt lat="45.12108" lon="5.89163">
        <ele>1921</ele>
        <time>2021-02-27T05:28:37Z</time>
      </trkpt>
      <trkpt lat="45.12108" lon="5.89163">
        <ele>1921.2</ele>
        <time>2021-02-27T05:28:38Z</time>
      </trkpt>
      <trkpt lat="45.12108" lon="5.89163">
        <ele>1921.8</ele>
        <time>2021-02-27T05:28:39Z</time>
      </trkpt>
      <trkpt lat="45.12107" lon="5.89165">
        <ele>1921.8</ele>
        <time>2021-02-27T05:28:40Z</time>
      </trkpt>
      <trkpt lat="45.12107" lon="5.89165">
        <ele>1922.2</ele>
        <time>2021-02-27T05:28:41Z</time>
      </trkpt>
      <trkpt lat="45.12106" lon="5.89167">
        <ele>1922.4</ele>
        <time>2021-02-27T05:28:42Z</time>
      </trkpt>
      <trkpt lat="45.12106" lon="5.89167">
        <ele>1922.6</ele>
        <time>2021-02-27T05:28:43Z</time>
      </trkpt>
      <trkpt lat="45.12105" lon="5.89169">
        <ele>1923</ele>
        <time>2021-02-27T05:28:44Z</time>
      </trkpt>
      <trkpt lat="45.12105" lon="5.89169">
        <ele>1923.4</ele>
        <time>2021-02-27T05:28:45Z</time>
      </trkpt>
      <trkpt lat="45.12103" lon="5.89171">
        <ele>1923.8</ele>
        <time>2021-02-27T05:28:46Z</time>
      </trkpt>
      <trkpt lat="45.12103" lon="5.89171">
        <ele>1924</ele>
        <time>2021-02-27T05:28:47Z</time>
      </trkpt>
      <trkpt lat="45.12102" lon="5.89173">
        <ele>1924.2</ele>
        <time>2021-02-27T05:28:48Z</time>
      </trkpt>
      <trkpt lat="45.12102" lon="5.89173">
        <ele>1924.4</ele>
        <time>2021-02-27T05:28:49Z</time>
      </trkpt>
      <trkpt lat="45.12102" lon="5.89173">
        <ele>1924.6</ele>
        <time>2021-02-27T05:28:50Z</time>
      </trkpt>
      <trkpt lat="45.12102" lon="5.89173">
        <ele>1924.6</ele>
        <time>2021-02-27T05:28:51Z</time>
      </trkpt>
      <trkpt lat="45.12102" lon="5.89176">
        <ele>1924.8</ele>
        <time>2021-02-27T05:28:52Z</time>
      </trkpt>
      <trkpt lat="45.12102" lon="5.89176">
        <ele>1925</ele>
        <time>2021-02-27T05:28:53Z</time>
      </trkpt>
      <trkpt lat="45.12102" lon="5.89176">
        <ele>1925</ele>
        <time>2021-02-27T05:28:54Z</time>
      </trkpt>
      <trkpt lat="45.12101" lon="5.8918">
        <ele>1925.4</ele>
        <time>2021-02-27T05:28:55Z</time>
      </trkpt>
      <trkpt lat="45.12101" lon="5.8918">
        <ele>1925.6</ele>
        <time>2021-02-27T05:28:56Z</time>
      </trkpt>
      <trkpt lat="45.12101" lon="5.8918">
        <ele>1926</ele>
        <time>2021-02-27T05:28:57Z</time>
      </trkpt>
      <trkpt lat="45.121" lon="5.89183">
        <ele>1926</ele>
        <time>2021-02-27T05:28:58Z</time>
      </trkpt>
      <trkpt lat="45.121" lon="5.89183">
        <ele>1926.4</ele>
        <time>2021-02-27T05:28:59Z</time>
      </trkpt>
      <trkpt lat="45.121" lon="5.89183">
        <ele>1926.8</ele>
        <time>2021-02-27T05:29:00Z</time>
      </trkpt>
      <trkpt lat="45.12098" lon="5.89186">
        <ele>1927</ele>
        <time>2021-02-27T05:29:01Z</time>
      </trkpt>
      <trkpt lat="45.12098" lon="5.89186">
        <ele>1927.6</ele>
        <time>2021-02-27T05:29:02Z</time>
      </trkpt>
      <trkpt lat="45.12096" lon="5.89188">
        <ele>1927.8</ele>
        <time>2021-02-27T05:29:03Z</time>
      </trkpt>
      <trkpt lat="45.12096" lon="5.89188">
        <ele>1928</ele>
        <time>2021-02-27T05:29:04Z</time>
      </trkpt>
      <trkpt lat="45.12094" lon="5.8919">
        <ele>1928</ele>
        <time>2021-02-27T05:29:05Z</time>
      </trkpt>
      <trkpt lat="45.12094" lon="5.8919">
        <ele>1928.2</ele>
        <time>2021-02-27T05:29:06Z</time>
      </trkpt>
      <trkpt lat="45.12094" lon="5.8919">
        <ele>1928.6</ele>
        <time>2021-02-27T05:29:07Z</time>
      </trkpt>
      <trkpt lat="45.12092" lon="5.89194">
        <ele>1928.6</ele>
        <time>2021-02-27T05:29:08Z</time>
      </trkpt>
      <trkpt lat="45.12092" lon="5.89194">
        <ele>1928.8</ele>
        <time>2021-02-27T05:29:09Z</time>
      </trkpt>
      <trkpt lat="45.12092" lon="5.89194">
        <ele>1929.4</ele>
        <time>2021-02-27T05:29:10Z</time>
      </trkpt>
      <trkpt lat="45.12092" lon="5.89194">
        <ele>1930</ele>
        <time>2021-02-27T05:29:11Z</time>
      </trkpt>
      <trkpt lat="45.1209" lon="5.89195">
        <ele>1930</ele>
        <time>2021-02-27T05:29:12Z</time>
      </trkpt>
      <trkpt lat="45.1209" lon="5.89195">
        <ele>1930.6</ele>
        <time>2021-02-27T05:29:13Z</time>
      </trkpt>
      <trkpt lat="45.1209" lon="5.89195">
        <ele>1930.8</ele>
        <time>2021-02-27T05:29:14Z</time>
      </trkpt>
      <trkpt lat="45.12088" lon="5.89198">
        <ele>1931</ele>
        <time>2021-02-27T05:29:15Z</time>
      </trkpt>
      <trkpt lat="45.12088" lon="5.89198">
        <ele>1931.2</ele>
        <time>2021-02-27T05:29:16Z</time>
      </trkpt>
      <trkpt lat="45.12088" lon="5.89198">
        <ele>1931.6</ele>
        <time>2021-02-27T05:29:17Z</time>
      </trkpt>
      <trkpt lat="45.12088" lon="5.89198">
        <ele>1931.8</ele>
        <time>2021-02-27T05:29:18Z</time>
      </trkpt>
      <trkpt lat="45.12086" lon="5.89199">
        <ele>1931.8</ele>
        <time>2021-02-27T05:29:19Z</time>
      </trkpt>
      <trkpt lat="45.12086" lon="5.89199">
        <ele>1932</ele>
        <time>2021-02-27T05:29:20Z</time>
      </trkpt>
      <trkpt lat="45.12085" lon="5.89201">
        <ele>1932.4</ele>
        <time>2021-02-27T05:29:21Z</time>
      </trkpt>
      <trkpt lat="45.12085" lon="5.89201">
        <ele>1932.8</ele>
        <time>2021-02-27T05:29:22Z</time>
      </trkpt>
      <trkpt lat="45.12084" lon="5.89204">
        <ele>1933</ele>
        <time>2021-02-27T05:29:23Z</time>
      </trkpt>
      <trkpt lat="45.12084" lon="5.89204">
        <ele>1933.4</ele>
        <time>2021-02-27T05:29:24Z</time>
      </trkpt>
      <trkpt lat="45.12084" lon="5.89204">
        <ele>1933.8</ele>
        <time>2021-02-27T05:29:25Z</time>
      </trkpt>
      <trkpt lat="45.12083" lon="5.89208">
        <ele>1933.6</ele>
        <time>2021-02-27T05:29:26Z</time>
      </trkpt>
      <trkpt lat="45.12083" lon="5.89208">
        <ele>1934</ele>
        <time>2021-02-27T05:29:27Z</time>
      </trkpt>
      <trkpt lat="45.12082" lon="5.8921">
        <ele>1934.6</ele>
        <time>2021-02-27T05:29:28Z</time>
      </trkpt>
      <trkpt lat="45.12082" lon="5.8921">
        <ele>1934.4</ele>
        <time>2021-02-27T05:29:29Z</time>
      </trkpt>
      <trkpt lat="45.12081" lon="5.89212">
        <ele>1934.6</ele>
        <time>2021-02-27T05:29:30Z</time>
      </trkpt>
      <trkpt lat="45.12081" lon="5.89212">
        <ele>1935</ele>
        <time>2021-02-27T05:29:31Z</time>
      </trkpt>
      <trkpt lat="45.12081" lon="5.89212">
        <ele>1935.4</ele>
        <time>2021-02-27T05:29:32Z</time>
      </trkpt>
      <trkpt lat="45.12079" lon="5.89215">
        <ele>1935.6</ele>
        <time>2021-02-27T05:29:33Z</time>
      </trkpt>
      <trkpt lat="45.12079" lon="5.89215">
        <ele>1936</ele>
        <time>2021-02-27T05:29:34Z</time>
      </trkpt>
      <trkpt lat="45.12079" lon="5.89215">
        <ele>1936.4</ele>
        <time>2021-02-27T05:29:35Z</time>
      </trkpt>
      <trkpt lat="45.12078" lon="5.89217">
        <ele>1936.6</ele>
        <time>2021-02-27T05:29:36Z</time>
      </trkpt>
      <trkpt lat="45.12078" lon="5.89217">
        <ele>1936.6</ele>
        <time>2021-02-27T05:29:37Z</time>
      </trkpt>
      <trkpt lat="45.12078" lon="5.89217">
        <ele>1937</ele>
        <time>2021-02-27T05:29:38Z</time>
      </trkpt>
      <trkpt lat="45.12078" lon="5.89217">
        <ele>1937.2</ele>
        <time>2021-02-27T05:29:39Z</time>
      </trkpt>
      <trkpt lat="45.12077" lon="5.89221">
        <ele>1937.2</ele>
        <time>2021-02-27T05:29:40Z</time>
      </trkpt>
      <trkpt lat="45.12077" lon="5.89221">
        <ele>1937.6</ele>
        <time>2021-02-27T05:29:41Z</time>
      </trkpt>
      <trkpt lat="45.12077" lon="5.89221">
        <ele>1938.2</ele>
        <time>2021-02-27T05:29:42Z</time>
      </trkpt>
      <trkpt lat="45.12075" lon="5.89223">
        <ele>1938.2</ele>
        <time>2021-02-27T05:29:43Z</time>
      </trkpt>
      <trkpt lat="45.12075" lon="5.89223">
        <ele>1938.4</ele>
        <time>2021-02-27T05:29:44Z</time>
      </trkpt>
      <trkpt lat="45.12075" lon="5.89223">
        <ele>1938.6</ele>
        <time>2021-02-27T05:29:45Z</time>
      </trkpt>
      <trkpt lat="45.12073" lon="5.89225">
        <ele>1939</ele>
        <time>2021-02-27T05:29:46Z</time>
      </trkpt>
      <trkpt lat="45.12073" lon="5.89225">
        <ele>1939</ele>
        <time>2021-02-27T05:29:47Z</time>
      </trkpt>
      <trkpt lat="45.12073" lon="5.89225">
        <ele>1939.2</ele>
        <time>2021-02-27T05:29:48Z</time>
      </trkpt>
      <trkpt lat="45.12071" lon="5.89227">
        <ele>1939.4</ele>
        <time>2021-02-27T05:29:49Z</time>
      </trkpt>
      <trkpt lat="45.12071" lon="5.89227">
        <ele>1939.4</ele>
        <time>2021-02-27T05:29:50Z</time>
      </trkpt>
      <trkpt lat="45.12069" lon="5.89229">
        <ele>1939.8</ele>
        <time>2021-02-27T05:29:51Z</time>
      </trkpt>
      <trkpt lat="45.12069" lon="5.89229">
        <ele>1940</ele>
        <time>2021-02-27T05:29:52Z</time>
      </trkpt>
      <trkpt lat="45.12067" lon="5.89231">
        <ele>1940.4</ele>
        <time>2021-02-27T05:29:53Z</time>
      </trkpt>
      <trkpt lat="45.12067" lon="5.89231">
        <ele>1940.6</ele>
        <time>2021-02-27T05:29:54Z</time>
      </trkpt>
      <trkpt lat="45.12065" lon="5.89232">
        <ele>1941</ele>
        <time>2021-02-27T05:29:55Z</time>
      </trkpt>
      <trkpt lat="45.12065" lon="5.89232">
        <ele>1941.4</ele>
        <time>2021-02-27T05:29:56Z</time>
      </trkpt>
      <trkpt lat="45.12063" lon="5.89233">
        <ele>1941.4</ele>
        <time>2021-02-27T05:29:57Z</time>
      </trkpt>
      <trkpt lat="45.12063" lon="5.89233">
        <ele>1941.4</ele>
        <time>2021-02-27T05:29:58Z</time>
      </trkpt>
      <trkpt lat="45.12061" lon="5.89234">
        <ele>1941.2</ele>
        <time>2021-02-27T05:29:59Z</time>
      </trkpt>
      <trkpt lat="45.12061" lon="5.89234">
        <ele>1941.4</ele>
        <time>2021-02-27T05:30:00Z</time>
      </trkpt>
      <trkpt lat="45.12058" lon="5.89235">
        <ele>1941.8</ele>
        <time>2021-02-27T05:30:01Z</time>
      </trkpt>
      <trkpt lat="45.12058" lon="5.89235">
        <ele>1941.8</ele>
        <time>2021-02-27T05:30:02Z</time>
      </trkpt>
      <trkpt lat="45.12056" lon="5.89236">
        <ele>1941.6</ele>
        <time>2021-02-27T05:30:03Z</time>
      </trkpt>
      <trkpt lat="45.12056" lon="5.89236">
        <ele>1941.8</ele>
        <time>2021-02-27T05:30:04Z</time>
      </trkpt>
      <trkpt lat="45.12054" lon="5.89237">
        <ele>1942</ele>
        <time>2021-02-27T05:30:05Z</time>
      </trkpt>
      <trkpt lat="45.12054" lon="5.89237">
        <ele>1942.2</ele>
        <time>2021-02-27T05:30:06Z</time>
      </trkpt>
      <trkpt lat="45.12051" lon="5.89239">
        <ele>1942.4</ele>
        <time>2021-02-27T05:30:07Z</time>
      </trkpt>
      <trkpt lat="45.12051" lon="5.89239">
        <ele>1942.4</ele>
        <time>2021-02-27T05:30:08Z</time>
      </trkpt>
      <trkpt lat="45.12049" lon="5.89239">
        <ele>1942.4</ele>
        <time>2021-02-27T05:30:09Z</time>
      </trkpt>
      <trkpt lat="45.12048" lon="5.89239">
        <ele>1942.6</ele>
        <time>2021-02-27T05:30:10Z</time>
      </trkpt>
      <trkpt lat="45.12047" lon="5.8924">
        <ele>1943</ele>
        <time>2021-02-27T05:30:11Z</time>
      </trkpt>
      <trkpt lat="45.12046" lon="5.8924">
        <ele>1942.8</ele>
        <time>2021-02-27T05:30:12Z</time>
      </trkpt>
      <trkpt lat="45.12045" lon="5.89241">
        <ele>1942.8</ele>
        <time>2021-02-27T05:30:13Z</time>
      </trkpt>
      <trkpt lat="45.12043" lon="5.89241">
        <ele>1942.8</ele>
        <time>2021-02-27T05:30:14Z</time>
      </trkpt>
      <trkpt lat="45.1204" lon="5.89242">
        <ele>1943</ele>
        <time>2021-02-27T05:30:15Z</time>
      </trkpt>
      <trkpt lat="45.1204" lon="5.89242">
        <ele>1943.2</ele>
        <time>2021-02-27T05:30:16Z</time>
      </trkpt>
      <trkpt lat="45.12038" lon="5.89243">
        <ele>1943</ele>
        <time>2021-02-27T05:30:17Z</time>
      </trkpt>
      <trkpt lat="45.12038" lon="5.89243">
        <ele>1943</ele>
        <time>2021-02-27T05:30:18Z</time>
      </trkpt>
      <trkpt lat="45.12036" lon="5.89243">
        <ele>1943</ele>
        <time>2021-02-27T05:30:19Z</time>
      </trkpt>
      <trkpt lat="45.12036" lon="5.89243">
        <ele>1943.2</ele>
        <time>2021-02-27T05:30:20Z</time>
      </trkpt>
      <trkpt lat="45.12033" lon="5.89243">
        <ele>1943.4</ele>
        <time>2021-02-27T05:30:21Z</time>
      </trkpt>
      <trkpt lat="45.12033" lon="5.89243">
        <ele>1943.4</ele>
        <time>2021-02-27T05:30:22Z</time>
      </trkpt>
      <trkpt lat="45.12031" lon="5.89243">
        <ele>1943.4</ele>
        <time>2021-02-27T05:30:23Z</time>
      </trkpt>
      <trkpt lat="45.12031" lon="5.89243">
        <ele>1943.6</ele>
        <time>2021-02-27T05:30:24Z</time>
      </trkpt>
      <trkpt lat="45.12031" lon="5.89243">
        <ele>1943.8</ele>
        <time>2021-02-27T05:30:25Z</time>
      </trkpt>
      <trkpt lat="45.12029" lon="5.89242">
        <ele>1944.2</ele>
        <time>2021-02-27T05:30:26Z</time>
      </trkpt>
      <trkpt lat="45.12029" lon="5.89242">
        <ele>1944.2</ele>
        <time>2021-02-27T05:30:27Z</time>
      </trkpt>
      <trkpt lat="45.12027" lon="5.89241">
        <ele>1944.2</ele>
        <time>2021-02-27T05:30:28Z</time>
      </trkpt>
      <trkpt lat="45.12027" lon="5.89241">
        <ele>1944</ele>
        <time>2021-02-27T05:30:29Z</time>
      </trkpt>
      <trkpt lat="45.12024" lon="5.89241">
        <ele>1944.6</ele>
        <time>2021-02-27T05:30:30Z</time>
      </trkpt>
      <trkpt lat="45.12024" lon="5.89241">
        <ele>1944.8</ele>
        <time>2021-02-27T05:30:31Z</time>
      </trkpt>
      <trkpt lat="45.12022" lon="5.8924">
        <ele>1945.2</ele>
        <time>2021-02-27T05:30:32Z</time>
      </trkpt>
      <trkpt lat="45.12022" lon="5.8924">
        <ele>1945.2</ele>
        <time>2021-02-27T05:30:33Z</time>
      </trkpt>
      <trkpt lat="45.1202" lon="5.89239">
        <ele>1945.8</ele>
        <time>2021-02-27T05:30:34Z</time>
      </trkpt>
      <trkpt lat="45.1202" lon="5.89239">
        <ele>1946</ele>
        <time>2021-02-27T05:30:35Z</time>
      </trkpt>
      <trkpt lat="45.1202" lon="5.89239">
        <ele>1946.4</ele>
        <time>2021-02-27T05:30:36Z</time>
      </trkpt>
      <trkpt lat="45.12018" lon="5.89239">
        <ele>1946.4</ele>
        <time>2021-02-27T05:30:37Z</time>
      </trkpt>
      <trkpt lat="45.12018" lon="5.89239">
        <ele>1947</ele>
        <time>2021-02-27T05:30:38Z</time>
      </trkpt>
      <trkpt lat="45.12018" lon="5.89239">
        <ele>1947</ele>
        <time>2021-02-27T05:30:39Z</time>
      </trkpt>
      <trkpt lat="45.12016" lon="5.89239">
        <ele>1947.2</ele>
        <time>2021-02-27T05:30:40Z</time>
      </trkpt>
      <trkpt lat="45.12016" lon="5.89239">
        <ele>1947.4</ele>
        <time>2021-02-27T05:30:41Z</time>
      </trkpt>
      <trkpt lat="45.12016" lon="5.89239">
        <ele>1947.4</ele>
        <time>2021-02-27T05:30:42Z</time>
      </trkpt>
      <trkpt lat="45.12016" lon="5.89239">
        <ele>1947.8</ele>
        <time>2021-02-27T05:30:43Z</time>
      </trkpt>
      <trkpt lat="45.12013" lon="5.89241">
        <ele>1948</ele>
        <time>2021-02-27T05:30:44Z</time>
      </trkpt>
      <trkpt lat="45.12013" lon="5.89241">
        <ele>1948</ele>
        <time>2021-02-27T05:30:45Z</time>
      </trkpt>
      <trkpt lat="45.12011" lon="5.89241">
        <ele>1948.4</ele>
        <time>2021-02-27T05:30:46Z</time>
      </trkpt>
      <trkpt lat="45.12011" lon="5.89241">
        <ele>1948.4</ele>
        <time>2021-02-27T05:30:47Z</time>
      </trkpt>
      <trkpt lat="45.12008" lon="5.89241">
        <ele>1948.6</ele>
        <time>2021-02-27T05:30:48Z</time>
      </trkpt>
      <trkpt lat="45.12008" lon="5.89241">
        <ele>1948.4</ele>
        <time>2021-02-27T05:30:49Z</time>
      </trkpt>
      <trkpt lat="45.12005" lon="5.89242">
        <ele>1948.6</ele>
        <time>2021-02-27T05:30:50Z</time>
      </trkpt>
      <trkpt lat="45.12005" lon="5.89242">
        <ele>1948.6</ele>
        <time>2021-02-27T05:30:51Z</time>
      </trkpt>
      <trkpt lat="45.12002" lon="5.89243">
        <ele>1948.8</ele>
        <time>2021-02-27T05:30:52Z</time>
      </trkpt>
      <trkpt lat="45.12002" lon="5.89243">
        <ele>1949</ele>
        <time>2021-02-27T05:30:53Z</time>
      </trkpt>
      <trkpt lat="45.12" lon="5.89243">
        <ele>1949.2</ele>
        <time>2021-02-27T05:30:54Z</time>
      </trkpt>
      <trkpt lat="45.12" lon="5.89243">
        <ele>1949.2</ele>
        <time>2021-02-27T05:30:55Z</time>
      </trkpt>
      <trkpt lat="45.11998" lon="5.89243">
        <ele>1949.4</ele>
        <time>2021-02-27T05:30:56Z</time>
      </trkpt>
      <trkpt lat="45.11998" lon="5.89243">
        <ele>1949.4</ele>
        <time>2021-02-27T05:30:57Z</time>
      </trkpt>
      <trkpt lat="45.11996" lon="5.89243">
        <ele>1949.8</ele>
        <time>2021-02-27T05:30:58Z</time>
      </trkpt>
      <trkpt lat="45.11996" lon="5.89243">
        <ele>1949.8</ele>
        <time>2021-02-27T05:30:59Z</time>
      </trkpt>
      <trkpt lat="45.11993" lon="5.89242">
        <ele>1950</ele>
        <time>2021-02-27T05:31:00Z</time>
      </trkpt>
      <trkpt lat="45.11993" lon="5.89242">
        <ele>1950.4</ele>
        <time>2021-02-27T05:31:01Z</time>
      </trkpt>
      <trkpt lat="45.11991" lon="5.89241">
        <ele>1950.8</ele>
        <time>2021-02-27T05:31:02Z</time>
      </trkpt>
      <trkpt lat="45.11991" lon="5.89241">
        <ele>1950.8</ele>
        <time>2021-02-27T05:31:03Z</time>
      </trkpt>
      <trkpt lat="45.11991" lon="5.89241">
        <ele>1951.2</ele>
        <time>2021-02-27T05:31:04Z</time>
      </trkpt>
      <trkpt lat="45.11989" lon="5.8924">
        <ele>1951.4</ele>
        <time>2021-02-27T05:31:05Z</time>
      </trkpt>
      <trkpt lat="45.11989" lon="5.8924">
        <ele>1951.6</ele>
        <time>2021-02-27T05:31:06Z</time>
      </trkpt>
      <trkpt lat="45.11986" lon="5.89241">
        <ele>1952</ele>
        <time>2021-02-27T05:31:07Z</time>
      </trkpt>
      <trkpt lat="45.11986" lon="5.89241">
        <ele>1952.2</ele>
        <time>2021-02-27T05:31:08Z</time>
      </trkpt>
      <trkpt lat="45.11984" lon="5.89241">
        <ele>1952.6</ele>
        <time>2021-02-27T05:31:09Z</time>
      </trkpt>
      <trkpt lat="45.11984" lon="5.89241">
        <ele>1952.8</ele>
        <time>2021-02-27T05:31:10Z</time>
      </trkpt>
      <trkpt lat="45.11984" lon="5.89241">
        <ele>1953</ele>
        <time>2021-02-27T05:31:11Z</time>
      </trkpt>
      <trkpt lat="45.11984" lon="5.89241">
        <ele>1953</ele>
        <time>2021-02-27T05:31:12Z</time>
      </trkpt>
      <trkpt lat="45.11982" lon="5.8924">
        <ele>1953.4</ele>
        <time>2021-02-27T05:31:13Z</time>
      </trkpt>
      <trkpt lat="45.11982" lon="5.8924">
        <ele>1953.6</ele>
        <time>2021-02-27T05:31:14Z</time>
      </trkpt>
      <trkpt lat="45.11982" lon="5.8924">
        <ele>1953.8</ele>
        <time>2021-02-27T05:31:15Z</time>
      </trkpt>
      <trkpt lat="45.11982" lon="5.8924">
        <ele>1954.2</ele>
        <time>2021-02-27T05:31:16Z</time>
      </trkpt>
      <trkpt lat="45.11979" lon="5.89242">
        <ele>1954.2</ele>
        <time>2021-02-27T05:31:17Z</time>
      </trkpt>
      <trkpt lat="45.11979" lon="5.89242">
        <ele>1954.8</ele>
        <time>2021-02-27T05:31:18Z</time>
      </trkpt>
      <trkpt lat="45.11979" lon="5.89242">
        <ele>1955</ele>
        <time>2021-02-27T05:31:19Z</time>
      </trkpt>
      <trkpt lat="45.11979" lon="5.89242">
        <ele>1955.2</ele>
        <time>2021-02-27T05:31:20Z</time>
      </trkpt>
      <trkpt lat="45.11976" lon="5.89242">
        <ele>1955.6</ele>
        <time>2021-02-27T05:31:21Z</time>
      </trkpt>
      <trkpt lat="45.11976" lon="5.89242">
        <ele>1955.8</ele>
        <time>2021-02-27T05:31:22Z</time>
      </trkpt>
      <trkpt lat="45.11976" lon="5.89242">
        <ele>1955.8</ele>
        <time>2021-02-27T05:31:23Z</time>
      </trkpt>
      <trkpt lat="45.11976" lon="5.89242">
        <ele>1956.4</ele>
        <time>2021-02-27T05:31:24Z</time>
      </trkpt>
      <trkpt lat="45.11974" lon="5.89242">
        <ele>1956.8</ele>
        <time>2021-02-27T05:31:25Z</time>
      </trkpt>
      <trkpt lat="45.11974" lon="5.89242">
        <ele>1957</ele>
        <time>2021-02-27T05:31:26Z</time>
      </trkpt>
      <trkpt lat="45.11974" lon="5.89242">
        <ele>1957.4</ele>
        <time>2021-02-27T05:31:27Z</time>
      </trkpt>
      <trkpt lat="45.11972" lon="5.89243">
        <ele>1957.6</ele>
        <time>2021-02-27T05:31:28Z</time>
      </trkpt>
      <trkpt lat="45.11972" lon="5.89243">
        <ele>1958.2</ele>
        <time>2021-02-27T05:31:29Z</time>
      </trkpt>
      <trkpt lat="45.11972" lon="5.89243">
        <ele>1958.6</ele>
        <time>2021-02-27T05:31:30Z</time>
      </trkpt>
      <trkpt lat="45.11969" lon="5.89244">
        <ele>1958.6</ele>
        <time>2021-02-27T05:31:31Z</time>
      </trkpt>
      <trkpt lat="45.11969" lon="5.89244">
        <ele>1959</ele>
        <time>2021-02-27T05:31:32Z</time>
      </trkpt>
      <trkpt lat="45.11967" lon="5.89245">
        <ele>1959.4</ele>
        <time>2021-02-27T05:31:33Z</time>
      </trkpt>
      <trkpt lat="45.11967" lon="5.89245">
        <ele>1959.6</ele>
        <time>2021-02-27T05:31:34Z</time>
      </trkpt>
      <trkpt lat="45.11967" lon="5.89245">
        <ele>1960.2</ele>
        <time>2021-02-27T05:31:35Z</time>
      </trkpt>
      <trkpt lat="45.11967" lon="5.89245">
        <ele>1960.4</ele>
        <time>2021-02-27T05:31:36Z</time>
      </trkpt>
      <trkpt lat="45.11964" lon="5.89245">
        <ele>1960.6</ele>
        <time>2021-02-27T05:31:37Z</time>
      </trkpt>
      <trkpt lat="45.11964" lon="5.89245">
        <ele>1960.8</ele>
        <time>2021-02-27T05:31:38Z</time>
      </trkpt>
      <trkpt lat="45.11963" lon="5.89247">
        <ele>1961</ele>
        <time>2021-02-27T05:31:39Z</time>
      </trkpt>
      <trkpt lat="45.11963" lon="5.89247">
        <ele>1961.4</ele>
        <time>2021-02-27T05:31:40Z</time>
      </trkpt>
      <trkpt lat="45.11963" lon="5.89247">
        <ele>1961.4</ele>
        <time>2021-02-27T05:31:41Z</time>
      </trkpt>
      <trkpt lat="45.11961" lon="5.89249">
        <ele>1961.6</ele>
        <time>2021-02-27T05:31:42Z</time>
      </trkpt>
      <trkpt lat="45.11961" lon="5.89249">
        <ele>1962</ele>
        <time>2021-02-27T05:31:43Z</time>
      </trkpt>
      <trkpt lat="45.11959" lon="5.8925">
        <ele>1962</ele>
        <time>2021-02-27T05:31:44Z</time>
      </trkpt>
      <trkpt lat="45.11959" lon="5.8925">
        <ele>1962.4</ele>
        <time>2021-02-27T05:31:45Z</time>
      </trkpt>
      <trkpt lat="45.11959" lon="5.8925">
        <ele>1962.6</ele>
        <time>2021-02-27T05:31:46Z</time>
      </trkpt>
      <trkpt lat="45.11957" lon="5.89252">
        <ele>1962.8</ele>
        <time>2021-02-27T05:31:47Z</time>
      </trkpt>
      <trkpt lat="45.11957" lon="5.89252">
        <ele>1963</ele>
        <time>2021-02-27T05:31:48Z</time>
      </trkpt>
      <trkpt lat="45.11956" lon="5.89252">
        <ele>1963.6</ele>
        <time>2021-02-27T05:31:49Z</time>
      </trkpt>
      <trkpt lat="45.11955" lon="5.89253">
        <ele>1963.6</ele>
        <time>2021-02-27T05:31:50Z</time>
      </trkpt>
      <trkpt lat="45.11955" lon="5.89254">
        <ele>1963.8</ele>
        <time>2021-02-27T05:31:51Z</time>
      </trkpt>
      <trkpt lat="45.11954" lon="5.89254">
        <ele>1964.2</ele>
        <time>2021-02-27T05:31:52Z</time>
      </trkpt>
      <trkpt lat="45.11953" lon="5.89255">
        <ele>1964.4</ele>
        <time>2021-02-27T05:31:53Z</time>
      </trkpt>
      <trkpt lat="45.11953" lon="5.89255">
        <ele>1964.6</ele>
        <time>2021-02-27T05:31:54Z</time>
      </trkpt>
      <trkpt lat="45.11952" lon="5.89256">
        <ele>1964.8</ele>
        <time>2021-02-27T05:31:55Z</time>
      </trkpt>
      <trkpt lat="45.11951" lon="5.89257">
        <ele>1965.2</ele>
        <time>2021-02-27T05:31:56Z</time>
      </trkpt>
      <trkpt lat="45.11951" lon="5.89257">
        <ele>1965.4</ele>
        <time>2021-02-27T05:31:57Z</time>
      </trkpt>
      <trkpt lat="45.11951" lon="5.89257">
        <ele>1965.4</ele>
        <time>2021-02-27T05:31:58Z</time>
      </trkpt>
      <trkpt lat="45.11951" lon="5.89257">
        <ele>1965.6</ele>
        <time>2021-02-27T05:31:59Z</time>
      </trkpt>
      <trkpt lat="45.11951" lon="5.89257">
        <ele>1965.8</ele>
        <time>2021-02-27T05:32:00Z</time>
      </trkpt>
      <trkpt lat="45.11951" lon="5.89257">
        <ele>1965.8</ele>
        <time>2021-02-27T05:32:01Z</time>
      </trkpt>
      <trkpt lat="45.11948" lon="5.8926">
        <ele>1966</ele>
        <time>2021-02-27T05:32:02Z</time>
      </trkpt>
      <trkpt lat="45.11948" lon="5.8926">
        <ele>1966.4</ele>
        <time>2021-02-27T05:32:03Z</time>
      </trkpt>
      <trkpt lat="45.11947" lon="5.8926">
        <ele>1966.4</ele>
        <time>2021-02-27T05:32:04Z</time>
      </trkpt>
      <trkpt lat="45.11946" lon="5.89261">
        <ele>1966.6</ele>
        <time>2021-02-27T05:32:05Z</time>
      </trkpt>
      <trkpt lat="45.11945" lon="5.89261">
        <ele>1967</ele>
        <time>2021-02-27T05:32:06Z</time>
      </trkpt>
      <trkpt lat="45.11945" lon="5.89262">
        <ele>1967</ele>
        <time>2021-02-27T05:32:07Z</time>
      </trkpt>
      <trkpt lat="45.11944" lon="5.89263">
        <ele>1967.2</ele>
        <time>2021-02-27T05:32:08Z</time>
      </trkpt>
      <trkpt lat="45.11943" lon="5.89263">
        <ele>1967.4</ele>
        <time>2021-02-27T05:32:09Z</time>
      </trkpt>
      <trkpt lat="45.11943" lon="5.89264">
        <ele>1967.6</ele>
        <time>2021-02-27T05:32:10Z</time>
      </trkpt>
      <trkpt lat="45.11942" lon="5.89264">
        <ele>1967.8</ele>
        <time>2021-02-27T05:32:11Z</time>
      </trkpt>
      <trkpt lat="45.11941" lon="5.89265">
        <ele>1968.2</ele>
        <time>2021-02-27T05:32:12Z</time>
      </trkpt>
      <trkpt lat="45.1194" lon="5.89266">
        <ele>1968.2</ele>
        <time>2021-02-27T05:32:13Z</time>
      </trkpt>
      <trkpt lat="45.1194" lon="5.89266">
        <ele>1968.6</ele>
        <time>2021-02-27T05:32:14Z</time>
      </trkpt>
      <trkpt lat="45.11939" lon="5.89267">
        <ele>1969</ele>
        <time>2021-02-27T05:32:15Z</time>
      </trkpt>
      <trkpt lat="45.11939" lon="5.89268">
        <ele>1968.8</ele>
        <time>2021-02-27T05:32:16Z</time>
      </trkpt>
      <trkpt lat="45.11938" lon="5.8927">
        <ele>1969.2</ele>
        <time>2021-02-27T05:32:17Z</time>
      </trkpt>
      <trkpt lat="45.11938" lon="5.89271">
        <ele>1969.6</ele>
        <time>2021-02-27T05:32:18Z</time>
      </trkpt>
      <trkpt lat="45.11937" lon="5.89272">
        <ele>1969.6</ele>
        <time>2021-02-27T05:32:19Z</time>
      </trkpt>
      <trkpt lat="45.11936" lon="5.89273">
        <ele>1969.8</ele>
        <time>2021-02-27T05:32:20Z</time>
      </trkpt>
      <trkpt lat="45.11936" lon="5.89274">
        <ele>1970.2</ele>
        <time>2021-02-27T05:32:21Z</time>
      </trkpt>
      <trkpt lat="45.11935" lon="5.89275">
        <ele>1970.6</ele>
        <time>2021-02-27T05:32:22Z</time>
      </trkpt>
      <trkpt lat="45.11935" lon="5.89277">
        <ele>1970.8</ele>
        <time>2021-02-27T05:32:23Z</time>
      </trkpt>
      <trkpt lat="45.11934" lon="5.89278">
        <ele>1971</ele>
        <time>2021-02-27T05:32:24Z</time>
      </trkpt>
      <trkpt lat="45.11933" lon="5.89279">
        <ele>1971.2</ele>
        <time>2021-02-27T05:32:25Z</time>
      </trkpt>
      <trkpt lat="45.11933" lon="5.89281">
        <ele>1971</ele>
        <time>2021-02-27T05:32:26Z</time>
      </trkpt>
      <trkpt lat="45.11932" lon="5.89282">
        <ele>1971.4</ele>
        <time>2021-02-27T05:32:27Z</time>
      </trkpt>
      <trkpt lat="45.11932" lon="5.89282">
        <ele>1971.8</ele>
        <time>2021-02-27T05:32:28Z</time>
      </trkpt>
      <trkpt lat="45.11931" lon="5.89286">
        <ele>1972</ele>
        <time>2021-02-27T05:32:29Z</time>
      </trkpt>
      <trkpt lat="45.11931" lon="5.89286">
        <ele>1972</ele>
        <time>2021-02-27T05:32:30Z</time>
      </trkpt>
      <trkpt lat="45.11931" lon="5.89287">
        <ele>1972.2</ele>
        <time>2021-02-27T05:32:31Z</time>
      </trkpt>
      <trkpt lat="45.11931" lon="5.89288">
        <ele>1972.2</ele>
        <time>2021-02-27T05:32:32Z</time>
      </trkpt>
      <trkpt lat="45.11931" lon="5.8929">
        <ele>1972.4</ele>
        <time>2021-02-27T05:32:33Z</time>
      </trkpt>
      <trkpt lat="45.11931" lon="5.89291">
        <ele>1972.8</ele>
        <time>2021-02-27T05:32:34Z</time>
      </trkpt>
      <trkpt lat="45.11931" lon="5.89292">
        <ele>1973</ele>
        <time>2021-02-27T05:32:35Z</time>
      </trkpt>
      <trkpt lat="45.11931" lon="5.89295">
        <ele>1973</ele>
        <time>2021-02-27T05:32:36Z</time>
      </trkpt>
      <trkpt lat="45.11931" lon="5.89295">
        <ele>1973.2</ele>
        <time>2021-02-27T05:32:37Z</time>
      </trkpt>
      <trkpt lat="45.1193" lon="5.89298">
        <ele>1973.6</ele>
        <time>2021-02-27T05:32:38Z</time>
      </trkpt>
      <trkpt lat="45.1193" lon="5.89298">
        <ele>1973.4</ele>
        <time>2021-02-27T05:32:39Z</time>
      </trkpt>
      <trkpt lat="45.1193" lon="5.89302">
        <ele>1973.4</ele>
        <time>2021-02-27T05:32:40Z</time>
      </trkpt>
      <trkpt lat="45.1193" lon="5.89302">
        <ele>1973.6</ele>
        <time>2021-02-27T05:32:41Z</time>
      </trkpt>
      <trkpt lat="45.1193" lon="5.89306">
        <ele>1973.4</ele>
        <time>2021-02-27T05:32:42Z</time>
      </trkpt>
      <trkpt lat="45.1193" lon="5.89306">
        <ele>1973.4</ele>
        <time>2021-02-27T05:32:43Z</time>
      </trkpt>
      <trkpt lat="45.1193" lon="5.89309">
        <ele>1973.6</ele>
        <time>2021-02-27T05:32:44Z</time>
      </trkpt>
      <trkpt lat="45.1193" lon="5.89309">
        <ele>1973.6</ele>
        <time>2021-02-27T05:32:45Z</time>
      </trkpt>
      <trkpt lat="45.1193" lon="5.89313">
        <ele>1973.6</ele>
        <time>2021-02-27T05:32:46Z</time>
      </trkpt>
      <trkpt lat="45.1193" lon="5.89313">
        <ele>1974</ele>
        <time>2021-02-27T05:32:47Z</time>
      </trkpt>
      <trkpt lat="45.1193" lon="5.89316">
        <ele>1974</ele>
        <time>2021-02-27T05:32:48Z</time>
      </trkpt>
      <trkpt lat="45.1193" lon="5.89316">
        <ele>1974</ele>
        <time>2021-02-27T05:32:49Z</time>
      </trkpt>
      <trkpt lat="45.1193" lon="5.8932">
        <ele>1974.2</ele>
        <time>2021-02-27T05:32:50Z</time>
      </trkpt>
      <trkpt lat="45.1193" lon="5.8932">
        <ele>1974.2</ele>
        <time>2021-02-27T05:32:51Z</time>
      </trkpt>
      <trkpt lat="45.1193" lon="5.89323">
        <ele>1974.2</ele>
        <time>2021-02-27T05:32:52Z</time>
      </trkpt>
      <trkpt lat="45.1193" lon="5.89323">
        <ele>1974.6</ele>
        <time>2021-02-27T05:32:53Z</time>
      </trkpt>
      <trkpt lat="45.1193" lon="5.89326">
        <ele>1974.8</ele>
        <time>2021-02-27T05:32:54Z</time>
      </trkpt>
      <trkpt lat="45.1193" lon="5.89326">
        <ele>1974.8</ele>
        <time>2021-02-27T05:32:55Z</time>
      </trkpt>
      <trkpt lat="45.11931" lon="5.89329">
        <ele>1975</ele>
        <time>2021-02-27T05:32:56Z</time>
      </trkpt>
      <trkpt lat="45.11931" lon="5.89329">
        <ele>1975.2</ele>
        <time>2021-02-27T05:32:57Z</time>
      </trkpt>
      <trkpt lat="45.11932" lon="5.89332">
        <ele>1975.2</ele>
        <time>2021-02-27T05:32:58Z</time>
      </trkpt>
      <trkpt lat="45.11932" lon="5.89332">
        <ele>1975.2</ele>
        <time>2021-02-27T05:32:59Z</time>
      </trkpt>
      <trkpt lat="45.11932" lon="5.89335">
        <ele>1975.4</ele>
        <time>2021-02-27T05:33:00Z</time>
      </trkpt>
      <trkpt lat="45.11932" lon="5.89335">
        <ele>1975.6</ele>
        <time>2021-02-27T05:33:01Z</time>
      </trkpt>
      <trkpt lat="45.11932" lon="5.89338">
        <ele>1976</ele>
        <time>2021-02-27T05:33:02Z</time>
      </trkpt>
      <trkpt lat="45.11932" lon="5.89338">
        <ele>1976</ele>
        <time>2021-02-27T05:33:03Z</time>
      </trkpt>
      <trkpt lat="45.11932" lon="5.89342">
        <ele>1976</ele>
        <time>2021-02-27T05:33:04Z</time>
      </trkpt>
      <trkpt lat="45.11932" lon="5.89342">
        <ele>1976</ele>
        <time>2021-02-27T05:33:05Z</time>
      </trkpt>
      <trkpt lat="45.11932" lon="5.89345">
        <ele>1976.4</ele>
        <time>2021-02-27T05:33:06Z</time>
      </trkpt>
      <trkpt lat="45.11932" lon="5.89345">
        <ele>1976.8</ele>
        <time>2021-02-27T05:33:07Z</time>
      </trkpt>
      <trkpt lat="45.11931" lon="5.89348">
        <ele>1976.8</ele>
        <time>2021-02-27T05:33:08Z</time>
      </trkpt>
      <trkpt lat="45.11931" lon="5.89348">
        <ele>1976.8</ele>
        <time>2021-02-27T05:33:09Z</time>
      </trkpt>
      <trkpt lat="45.1193" lon="5.89351">
        <ele>1977.2</ele>
        <time>2021-02-27T05:33:10Z</time>
      </trkpt>
      <trkpt lat="45.1193" lon="5.89351">
        <ele>1977.6</ele>
        <time>2021-02-27T05:33:11Z</time>
      </trkpt>
      <trkpt lat="45.11929" lon="5.89354">
        <ele>1977.8</ele>
        <time>2021-02-27T05:33:12Z</time>
      </trkpt>
      <trkpt lat="45.11929" lon="5.89354">
        <ele>1978</ele>
        <time>2021-02-27T05:33:13Z</time>
      </trkpt>
      <trkpt lat="45.11928" lon="5.89357">
        <ele>1978.4</ele>
        <time>2021-02-27T05:33:14Z</time>
      </trkpt>
      <trkpt lat="45.11928" lon="5.89357">
        <ele>1978.2</ele>
        <time>2021-02-27T05:33:15Z</time>
      </trkpt>
      <trkpt lat="45.11927" lon="5.8936">
        <ele>1978.4</ele>
        <time>2021-02-27T05:33:16Z</time>
      </trkpt>
      <trkpt lat="45.11927" lon="5.8936">
        <ele>1978.8</ele>
        <time>2021-02-27T05:33:17Z</time>
      </trkpt>
      <trkpt lat="45.11926" lon="5.89363">
        <ele>1979.2</ele>
        <time>2021-02-27T05:33:18Z</time>
      </trkpt>
      <trkpt lat="45.11926" lon="5.89363">
        <ele>1979</ele>
        <time>2021-02-27T05:33:19Z</time>
      </trkpt>
      <trkpt lat="45.11925" lon="5.89364">
        <ele>1979.2</ele>
        <time>2021-02-27T05:33:20Z</time>
      </trkpt>
      <trkpt lat="45.11925" lon="5.89365">
        <ele>1979.6</ele>
        <time>2021-02-27T05:33:21Z</time>
      </trkpt>
      <trkpt lat="45.11924" lon="5.89366">
        <ele>1979.8</ele>
        <time>2021-02-27T05:33:22Z</time>
      </trkpt>
      <trkpt lat="45.11923" lon="5.89367">
        <ele>1980.2</ele>
        <time>2021-02-27T05:33:23Z</time>
      </trkpt>
      <trkpt lat="45.11922" lon="5.89368">
        <ele>1980.4</ele>
        <time>2021-02-27T05:33:24Z</time>
      </trkpt>
      <trkpt lat="45.11922" lon="5.89369">
        <ele>1981</ele>
        <time>2021-02-27T05:33:25Z</time>
      </trkpt>
      <trkpt lat="45.11921" lon="5.89371">
        <ele>1981</ele>
        <time>2021-02-27T05:33:26Z</time>
      </trkpt>
      <trkpt lat="45.1192" lon="5.89372">
        <ele>1981.4</ele>
        <time>2021-02-27T05:33:27Z</time>
      </trkpt>
      <trkpt lat="45.11919" lon="5.89373">
        <ele>1981.8</ele>
        <time>2021-02-27T05:33:28Z</time>
      </trkpt>
      <trkpt lat="45.11919" lon="5.89374">
        <ele>1981.8</ele>
        <time>2021-02-27T05:33:29Z</time>
      </trkpt>
      <trkpt lat="45.11918" lon="5.89374">
        <ele>1982</ele>
        <time>2021-02-27T05:33:30Z</time>
      </trkpt>
      <trkpt lat="45.11917" lon="5.89375">
        <ele>1982.2</ele>
        <time>2021-02-27T05:33:31Z</time>
      </trkpt>
      <trkpt lat="45.11917" lon="5.89376">
        <ele>1982.4</ele>
        <time>2021-02-27T05:33:32Z</time>
      </trkpt>
      <trkpt lat="45.11916" lon="5.89377">
        <ele>1982.8</ele>
        <time>2021-02-27T05:33:33Z</time>
      </trkpt>
      <trkpt lat="45.11915" lon="5.89377">
        <ele>1983.4</ele>
        <time>2021-02-27T05:33:34Z</time>
      </trkpt>
      <trkpt lat="45.11915" lon="5.89377">
        <ele>1983.4</ele>
        <time>2021-02-27T05:33:35Z</time>
      </trkpt>
      <trkpt lat="45.11915" lon="5.89377">
        <ele>1983.6</ele>
        <time>2021-02-27T05:33:36Z</time>
      </trkpt>
      <trkpt lat="45.11913" lon="5.89381">
        <ele>1984.2</ele>
        <time>2021-02-27T05:33:37Z</time>
      </trkpt>
      <trkpt lat="45.11913" lon="5.89381">
        <ele>1984.4</ele>
        <time>2021-02-27T05:33:38Z</time>
      </trkpt>
      <trkpt lat="45.11913" lon="5.89381">
        <ele>1984.6</ele>
        <time>2021-02-27T05:33:39Z</time>
      </trkpt>
      <trkpt lat="45.11911" lon="5.89383">
        <ele>1984.6</ele>
        <time>2021-02-27T05:33:40Z</time>
      </trkpt>
      <trkpt lat="45.11911" lon="5.89383">
        <ele>1985.2</ele>
        <time>2021-02-27T05:33:41Z</time>
      </trkpt>
      <trkpt lat="45.11911" lon="5.89383">
        <ele>1985.4</ele>
        <time>2021-02-27T05:33:42Z</time>
      </trkpt>
      <trkpt lat="45.11909" lon="5.89384">
        <ele>1985.8</ele>
        <time>2021-02-27T05:33:43Z</time>
      </trkpt>
      <trkpt lat="45.11909" lon="5.89384">
        <ele>1986.4</ele>
        <time>2021-02-27T05:33:44Z</time>
      </trkpt>
      <trkpt lat="45.11908" lon="5.89385">
        <ele>1986.6</ele>
        <time>2021-02-27T05:33:45Z</time>
      </trkpt>
      <trkpt lat="45.11907" lon="5.89386">
        <ele>1986.8</ele>
        <time>2021-02-27T05:33:46Z</time>
      </trkpt>
      <trkpt lat="45.11906" lon="5.89387">
        <ele>1987.4</ele>
        <time>2021-02-27T05:33:47Z</time>
      </trkpt>
      <trkpt lat="45.11906" lon="5.89387">
        <ele>1987.6</ele>
        <time>2021-02-27T05:33:48Z</time>
      </trkpt>
      <trkpt lat="45.11906" lon="5.89387">
        <ele>1987.6</ele>
        <time>2021-02-27T05:33:49Z</time>
      </trkpt>
      <trkpt lat="45.11906" lon="5.89387">
        <ele>1988</ele>
        <time>2021-02-27T05:33:50Z</time>
      </trkpt>
      <trkpt lat="45.11906" lon="5.89387">
        <ele>1988.2</ele>
        <time>2021-02-27T05:33:51Z</time>
      </trkpt>
      <trkpt lat="45.11902" lon="5.89387">
        <ele>1988.2</ele>
        <time>2021-02-27T05:33:52Z</time>
      </trkpt>
      <trkpt lat="45.11902" lon="5.89387">
        <ele>1988.8</ele>
        <time>2021-02-27T05:33:53Z</time>
      </trkpt>
      <trkpt lat="45.11902" lon="5.89387">
        <ele>1989.2</ele>
        <time>2021-02-27T05:33:54Z</time>
      </trkpt>
      <trkpt lat="45.11899" lon="5.89387">
        <ele>1989.4</ele>
        <time>2021-02-27T05:33:55Z</time>
      </trkpt>
      <trkpt lat="45.11899" lon="5.89387">
        <ele>1989.8</ele>
        <time>2021-02-27T05:33:56Z</time>
      </trkpt>
      <trkpt lat="45.11897" lon="5.89386">
        <ele>1990.2</ele>
        <time>2021-02-27T05:33:57Z</time>
      </trkpt>
      <trkpt lat="45.11897" lon="5.89386">
        <ele>1990.6</ele>
        <time>2021-02-27T05:33:58Z</time>
      </trkpt>
      <trkpt lat="45.11897" lon="5.89386">
        <ele>1990.6</ele>
        <time>2021-02-27T05:33:59Z</time>
      </trkpt>
      <trkpt lat="45.11897" lon="5.89386">
        <ele>1990.8</ele>
        <time>2021-02-27T05:34:00Z</time>
      </trkpt>
      <trkpt lat="45.11895" lon="5.89385">
        <ele>1991.2</ele>
        <time>2021-02-27T05:34:01Z</time>
      </trkpt>
      <trkpt lat="45.11895" lon="5.89385">
        <ele>1991</ele>
        <time>2021-02-27T05:34:02Z</time>
      </trkpt>
      <trkpt lat="45.11895" lon="5.89385">
        <ele>1991.2</ele>
        <time>2021-02-27T05:34:03Z</time>
      </trkpt>
      <trkpt lat="45.11893" lon="5.89384">
        <ele>1991.4</ele>
        <time>2021-02-27T05:34:04Z</time>
      </trkpt>
      <trkpt lat="45.11893" lon="5.89384">
        <ele>1992.2</ele>
        <time>2021-02-27T05:34:05Z</time>
      </trkpt>
      <trkpt lat="45.11891" lon="5.89382">
        <ele>1992</ele>
        <time>2021-02-27T05:34:06Z</time>
      </trkpt>
      <trkpt lat="45.11891" lon="5.89382">
        <ele>1992.2</ele>
        <time>2021-02-27T05:34:07Z</time>
      </trkpt>
      <trkpt lat="45.11889" lon="5.89382">
        <ele>1992.6</ele>
        <time>2021-02-27T05:34:08Z</time>
      </trkpt>
      <trkpt lat="45.11889" lon="5.89382">
        <ele>1992.8</ele>
        <time>2021-02-27T05:34:09Z</time>
      </trkpt>
      <trkpt lat="45.11887" lon="5.8938">
        <ele>1993.4</ele>
        <time>2021-02-27T05:34:10Z</time>
      </trkpt>
      <trkpt lat="45.11887" lon="5.8938">
        <ele>1993.4</ele>
        <time>2021-02-27T05:34:11Z</time>
      </trkpt>
      <trkpt lat="45.11887" lon="5.8938">
        <ele>1993.6</ele>
        <time>2021-02-27T05:34:12Z</time>
      </trkpt>
      <trkpt lat="45.11885" lon="5.89377">
        <ele>1993.6</ele>
        <time>2021-02-27T05:34:13Z</time>
      </trkpt>
      <trkpt lat="45.11885" lon="5.89377">
        <ele>1993.8</ele>
        <time>2021-02-27T05:34:14Z</time>
      </trkpt>
      <trkpt lat="45.11883" lon="5.89375">
        <ele>1994</ele>
        <time>2021-02-27T05:34:15Z</time>
      </trkpt>
      <trkpt lat="45.11883" lon="5.89375">
        <ele>1994.4</ele>
        <time>2021-02-27T05:34:16Z</time>
      </trkpt>
      <trkpt lat="45.11881" lon="5.89373">
        <ele>1994.6</ele>
        <time>2021-02-27T05:34:17Z</time>
      </trkpt>
      <trkpt lat="45.11881" lon="5.89373">
        <ele>1994.8</ele>
        <time>2021-02-27T05:34:18Z</time>
      </trkpt>
      <trkpt lat="45.11878" lon="5.89372">
        <ele>1995</ele>
        <time>2021-02-27T05:34:19Z</time>
      </trkpt>
      <trkpt lat="45.11878" lon="5.89372">
        <ele>1995.2</ele>
        <time>2021-02-27T05:34:20Z</time>
      </trkpt>
      <trkpt lat="45.11877" lon="5.8937">
        <ele>1995.2</ele>
        <time>2021-02-27T05:34:21Z</time>
      </trkpt>
      <trkpt lat="45.11877" lon="5.8937">
        <ele>1995.4</ele>
        <time>2021-02-27T05:34:22Z</time>
      </trkpt>
      <trkpt lat="45.11875" lon="5.89368">
        <ele>1995.6</ele>
        <time>2021-02-27T05:34:23Z</time>
      </trkpt>
      <trkpt lat="45.11875" lon="5.89368">
        <ele>1996</ele>
        <time>2021-02-27T05:34:24Z</time>
      </trkpt>
      <trkpt lat="45.11873" lon="5.89366">
        <ele>1995.8</ele>
        <time>2021-02-27T05:34:25Z</time>
      </trkpt>
      <trkpt lat="45.11873" lon="5.89366">
        <ele>1996</ele>
        <time>2021-02-27T05:34:26Z</time>
      </trkpt>
      <trkpt lat="45.11871" lon="5.89364">
        <ele>1996.2</ele>
        <time>2021-02-27T05:34:27Z</time>
      </trkpt>
      <trkpt lat="45.11871" lon="5.89364">
        <ele>1996.4</ele>
        <time>2021-02-27T05:34:28Z</time>
      </trkpt>
      <trkpt lat="45.11869" lon="5.89362">
        <ele>1996.2</ele>
        <time>2021-02-27T05:34:29Z</time>
      </trkpt>
      <trkpt lat="45.11869" lon="5.89362">
        <ele>1996.6</ele>
        <time>2021-02-27T05:34:30Z</time>
      </trkpt>
      <trkpt lat="45.11868" lon="5.89361">
        <ele>1996.8</ele>
        <time>2021-02-27T05:34:31Z</time>
      </trkpt>
      <trkpt lat="45.11868" lon="5.89361">
        <ele>1997</ele>
        <time>2021-02-27T05:34:32Z</time>
      </trkpt>
      <trkpt lat="45.11866" lon="5.89359">
        <ele>1997</ele>
        <time>2021-02-27T05:34:33Z</time>
      </trkpt>
      <trkpt lat="45.11866" lon="5.89359">
        <ele>1997.2</ele>
        <time>2021-02-27T05:34:34Z</time>
      </trkpt>
      <trkpt lat="45.11866" lon="5.89359">
        <ele>1997.8</ele>
        <time>2021-02-27T05:34:35Z</time>
      </trkpt>
      <trkpt lat="45.11864" lon="5.89357">
        <ele>1998</ele>
        <time>2021-02-27T05:34:36Z</time>
      </trkpt>
      <trkpt lat="45.11864" lon="5.89357">
        <ele>1998</ele>
        <time>2021-02-27T05:34:37Z</time>
      </trkpt>
      <trkpt lat="45.11862" lon="5.89355">
        <ele>1998.2</ele>
        <time>2021-02-27T05:34:38Z</time>
      </trkpt>
      <trkpt lat="45.11862" lon="5.89355">
        <ele>1998.6</ele>
        <time>2021-02-27T05:34:39Z</time>
      </trkpt>
      <trkpt lat="45.1186" lon="5.89353">
        <ele>1998.8</ele>
        <time>2021-02-27T05:34:40Z</time>
      </trkpt>
      <trkpt lat="45.1186" lon="5.89353">
        <ele>1998.6</ele>
        <time>2021-02-27T05:34:41Z</time>
      </trkpt>
      <trkpt lat="45.11859" lon="5.89351">
        <ele>1999</ele>
        <time>2021-02-27T05:34:42Z</time>
      </trkpt>
      <trkpt lat="45.11859" lon="5.89351">
        <ele>1999.4</ele>
        <time>2021-02-27T05:34:43Z</time>
      </trkpt>
      <trkpt lat="45.11857" lon="5.89349">
        <ele>1999.4</ele>
        <time>2021-02-27T05:34:44Z</time>
      </trkpt>
      <trkpt lat="45.11857" lon="5.89349">
        <ele>1999.4</ele>
        <time>2021-02-27T05:34:45Z</time>
      </trkpt>
      <trkpt lat="45.11855" lon="5.89348">
        <ele>1999.8</ele>
        <time>2021-02-27T05:34:46Z</time>
      </trkpt>
      <trkpt lat="45.11855" lon="5.89348">
        <ele>2000.2</ele>
        <time>2021-02-27T05:34:47Z</time>
      </trkpt>
      <trkpt lat="45.11854" lon="5.89346">
        <ele>2000.2</ele>
        <time>2021-02-27T05:34:48Z</time>
      </trkpt>
      <trkpt lat="45.11854" lon="5.89346">
        <ele>2000.6</ele>
        <time>2021-02-27T05:34:49Z</time>
      </trkpt>
      <trkpt lat="45.11852" lon="5.89344">
        <ele>2000.8</ele>
        <time>2021-02-27T05:34:50Z</time>
      </trkpt>
      <trkpt lat="45.11852" lon="5.89344">
        <ele>2001</ele>
        <time>2021-02-27T05:34:51Z</time>
      </trkpt>
      <trkpt lat="45.11851" lon="5.89342">
        <ele>2001</ele>
        <time>2021-02-27T05:34:52Z</time>
      </trkpt>
      <trkpt lat="45.11851" lon="5.89342">
        <ele>2001.2</ele>
        <time>2021-02-27T05:34:53Z</time>
      </trkpt>
      <trkpt lat="45.11851" lon="5.89342">
        <ele>2002</ele>
        <time>2021-02-27T05:34:54Z</time>
      </trkpt>
      <trkpt lat="45.11849" lon="5.89339">
        <ele>2002</ele>
        <time>2021-02-27T05:34:55Z</time>
      </trkpt>
      <trkpt lat="45.11849" lon="5.89339">
        <ele>2002.4</ele>
        <time>2021-02-27T05:34:56Z</time>
      </trkpt>
      <trkpt lat="45.11847" lon="5.89338">
        <ele>2002.6</ele>
        <time>2021-02-27T05:34:57Z</time>
      </trkpt>
      <trkpt lat="45.11847" lon="5.89338">
        <ele>2003</ele>
        <time>2021-02-27T05:34:58Z</time>
      </trkpt>
      <trkpt lat="45.11847" lon="5.89338">
        <ele>2002.8</ele>
        <time>2021-02-27T05:34:59Z</time>
      </trkpt>
      <trkpt lat="45.11845" lon="5.89335">
        <ele>2003.2</ele>
        <time>2021-02-27T05:35:00Z</time>
      </trkpt>
      <trkpt lat="45.11845" lon="5.89335">
        <ele>2003.8</ele>
        <time>2021-02-27T05:35:01Z</time>
      </trkpt>
      <trkpt lat="45.11843" lon="5.89335">
        <ele>2004</ele>
        <time>2021-02-27T05:35:02Z</time>
      </trkpt>
      <trkpt lat="45.11843" lon="5.89335">
        <ele>2004</ele>
        <time>2021-02-27T05:35:03Z</time>
      </trkpt>
      <trkpt lat="45.11842" lon="5.89333">
        <ele>2004</ele>
        <time>2021-02-27T05:35:04Z</time>
      </trkpt>
      <trkpt lat="45.11842" lon="5.89333">
        <ele>2004.2</ele>
        <time>2021-02-27T05:35:05Z</time>
      </trkpt>
      <trkpt lat="45.1184" lon="5.89331">
        <ele>2004.4</ele>
        <time>2021-02-27T05:35:06Z</time>
      </trkpt>
      <trkpt lat="45.1184" lon="5.89331">
        <ele>2004.6</ele>
        <time>2021-02-27T05:35:07Z</time>
      </trkpt>
      <trkpt lat="45.11838" lon="5.8933">
        <ele>2005</ele>
        <time>2021-02-27T05:35:08Z</time>
      </trkpt>
      <trkpt lat="45.11838" lon="5.8933">
        <ele>2005.2</ele>
        <time>2021-02-27T05:35:09Z</time>
      </trkpt>
      <trkpt lat="45.11838" lon="5.8933">
        <ele>2005.4</ele>
        <time>2021-02-27T05:35:10Z</time>
      </trkpt>
      <trkpt lat="45.11835" lon="5.89328">
        <ele>2005.6</ele>
        <time>2021-02-27T05:35:11Z</time>
      </trkpt>
      <trkpt lat="45.11835" lon="5.89328">
        <ele>2005.8</ele>
        <time>2021-02-27T05:35:12Z</time>
      </trkpt>
      <trkpt lat="45.11835" lon="5.89328">
        <ele>2005.8</ele>
        <time>2021-02-27T05:35:13Z</time>
      </trkpt>
      <trkpt lat="45.11833" lon="5.89326">
        <ele>2006.2</ele>
        <time>2021-02-27T05:35:14Z</time>
      </trkpt>
      <trkpt lat="45.11833" lon="5.89326">
        <ele>2006.4</ele>
        <time>2021-02-27T05:35:15Z</time>
      </trkpt>
      <trkpt lat="45.11831" lon="5.89324">
        <ele>2006.8</ele>
        <time>2021-02-27T05:35:16Z</time>
      </trkpt>
      <trkpt lat="45.11831" lon="5.89324">
        <ele>2006.8</ele>
        <time>2021-02-27T05:35:17Z</time>
      </trkpt>
      <trkpt lat="45.11829" lon="5.89323">
        <ele>2007.2</ele>
        <time>2021-02-27T05:35:18Z</time>
      </trkpt>
      <trkpt lat="45.11829" lon="5.89323">
        <ele>2007.6</ele>
        <time>2021-02-27T05:35:19Z</time>
      </trkpt>
      <trkpt lat="45.11827" lon="5.89322">
        <ele>2008</ele>
        <time>2021-02-27T05:35:20Z</time>
      </trkpt>
      <trkpt lat="45.11827" lon="5.89322">
        <ele>2008.6</ele>
        <time>2021-02-27T05:35:21Z</time>
      </trkpt>
      <trkpt lat="45.11825" lon="5.8932">
        <ele>2008.8</ele>
        <time>2021-02-27T05:35:22Z</time>
      </trkpt>
      <trkpt lat="45.11825" lon="5.8932">
        <ele>2008.8</ele>
        <time>2021-02-27T05:35:23Z</time>
      </trkpt>
      <trkpt lat="45.11823" lon="5.89319">
        <ele>2009</ele>
        <time>2021-02-27T05:35:24Z</time>
      </trkpt>
      <trkpt lat="45.11823" lon="5.89319">
        <ele>2009</ele>
        <time>2021-02-27T05:35:25Z</time>
      </trkpt>
      <trkpt lat="45.11823" lon="5.89319">
        <ele>2009.2</ele>
        <time>2021-02-27T05:35:26Z</time>
      </trkpt>
      <trkpt lat="45.11821" lon="5.89317">
        <ele>2009.2</ele>
        <time>2021-02-27T05:35:27Z</time>
      </trkpt>
      <trkpt lat="45.11821" lon="5.89317">
        <ele>2009.6</ele>
        <time>2021-02-27T05:35:28Z</time>
      </trkpt>
      <trkpt lat="45.11821" lon="5.89317">
        <ele>2009.6</ele>
        <time>2021-02-27T05:35:29Z</time>
      </trkpt>
      <trkpt lat="45.11819" lon="5.89314">
        <ele>2009.8</ele>
        <time>2021-02-27T05:35:30Z</time>
      </trkpt>
      <trkpt lat="45.11819" lon="5.89314">
        <ele>2010</ele>
        <time>2021-02-27T05:35:31Z</time>
      </trkpt>
      <trkpt lat="45.11817" lon="5.89313">
        <ele>2010.4</ele>
        <time>2021-02-27T05:35:32Z</time>
      </trkpt>
      <trkpt lat="45.11817" lon="5.89313">
        <ele>2010.4</ele>
        <time>2021-02-27T05:35:33Z</time>
      </trkpt>
      <trkpt lat="45.11815" lon="5.89312">
        <ele>2010.8</ele>
        <time>2021-02-27T05:35:34Z</time>
      </trkpt>
      <trkpt lat="45.11815" lon="5.89312">
        <ele>2010.8</ele>
        <time>2021-02-27T05:35:35Z</time>
      </trkpt>
      <trkpt lat="45.11813" lon="5.8931">
        <ele>2011.2</ele>
        <time>2021-02-27T05:35:36Z</time>
      </trkpt>
      <trkpt lat="45.11813" lon="5.8931">
        <ele>2011.4</ele>
        <time>2021-02-27T05:35:37Z</time>
      </trkpt>
      <trkpt lat="45.11811" lon="5.8931">
        <ele>2011.4</ele>
        <time>2021-02-27T05:35:38Z</time>
      </trkpt>
      <trkpt lat="45.11811" lon="5.8931">
        <ele>2011.8</ele>
        <time>2021-02-27T05:35:39Z</time>
      </trkpt>
      <trkpt lat="45.1181" lon="5.89309">
        <ele>2011.8</ele>
        <time>2021-02-27T05:35:40Z</time>
      </trkpt>
      <trkpt lat="45.1181" lon="5.89309">
        <ele>2011.8</ele>
        <time>2021-02-27T05:35:41Z</time>
      </trkpt>
      <trkpt lat="45.11807" lon="5.89309">
        <ele>2012.2</ele>
        <time>2021-02-27T05:35:42Z</time>
      </trkpt>
      <trkpt lat="45.11807" lon="5.89309">
        <ele>2012.8</ele>
        <time>2021-02-27T05:35:43Z</time>
      </trkpt>
      <trkpt lat="45.11805" lon="5.89309">
        <ele>2013</ele>
        <time>2021-02-27T05:35:44Z</time>
      </trkpt>
      <trkpt lat="45.11805" lon="5.89309">
        <ele>2013</ele>
        <time>2021-02-27T05:35:45Z</time>
      </trkpt>
      <trkpt lat="45.11802" lon="5.8931">
        <ele>2013</ele>
        <time>2021-02-27T05:35:46Z</time>
      </trkpt>
      <trkpt lat="45.11802" lon="5.8931">
        <ele>2013.4</ele>
        <time>2021-02-27T05:35:47Z</time>
      </trkpt>
      <trkpt lat="45.11801" lon="5.8931">
        <ele>2013.4</ele>
        <time>2021-02-27T05:35:48Z</time>
      </trkpt>
      <trkpt lat="45.11801" lon="5.8931">
        <ele>2013.4</ele>
        <time>2021-02-27T05:35:49Z</time>
      </trkpt>
      <trkpt lat="45.11801" lon="5.8931">
        <ele>2013.8</ele>
        <time>2021-02-27T05:35:50Z</time>
      </trkpt>
      <trkpt lat="45.11798" lon="5.8931">
        <ele>2014.2</ele>
        <time>2021-02-27T05:35:51Z</time>
      </trkpt>
      <trkpt lat="45.11798" lon="5.8931">
        <ele>2014.2</ele>
        <time>2021-02-27T05:35:52Z</time>
      </trkpt>
      <trkpt lat="45.11798" lon="5.8931">
        <ele>2014.2</ele>
        <time>2021-02-27T05:35:53Z</time>
      </trkpt>
      <trkpt lat="45.11798" lon="5.8931">
        <ele>2014.2</ele>
        <time>2021-02-27T05:35:54Z</time>
      </trkpt>
      <trkpt lat="45.11798" lon="5.8931">
        <ele>2014.4</ele>
        <time>2021-02-27T05:35:55Z</time>
      </trkpt>
      <trkpt lat="45.11798" lon="5.8931">
        <ele>2014.4</ele>
        <time>2021-02-27T05:35:56Z</time>
      </trkpt>
      <trkpt lat="45.11796" lon="5.89311">
        <ele>2014.6</ele>
        <time>2021-02-27T05:35:57Z</time>
      </trkpt>
      <trkpt lat="45.11796" lon="5.89311">
        <ele>2014.4</ele>
        <time>2021-02-27T05:35:58Z</time>
      </trkpt>
      <trkpt lat="45.11796" lon="5.89311">
        <ele>2014.4</ele>
        <time>2021-02-27T05:35:59Z</time>
      </trkpt>
      <trkpt lat="45.11793" lon="5.89312">
        <ele>2014.8</ele>
        <time>2021-02-27T05:36:00Z</time>
      </trkpt>
      <trkpt lat="45.11793" lon="5.89312">
        <ele>2014.6</ele>
        <time>2021-02-27T05:36:01Z</time>
      </trkpt>
      <trkpt lat="45.11791" lon="5.89313">
        <ele>2015</ele>
        <time>2021-02-27T05:36:02Z</time>
      </trkpt>
      <trkpt lat="45.11791" lon="5.89313">
        <ele>2015.2</ele>
        <time>2021-02-27T05:36:03Z</time>
      </trkpt>
      <trkpt lat="45.11791" lon="5.89313">
        <ele>2015.6</ele>
        <time>2021-02-27T05:36:04Z</time>
      </trkpt>
      <trkpt lat="45.11788" lon="5.89313">
        <ele>2015.8</ele>
        <time>2021-02-27T05:36:05Z</time>
      </trkpt>
      <trkpt lat="45.11788" lon="5.89313">
        <ele>2016.2</ele>
        <time>2021-02-27T05:36:06Z</time>
      </trkpt>
      <trkpt lat="45.11788" lon="5.89313">
        <ele>2016.2</ele>
        <time>2021-02-27T05:36:07Z</time>
      </trkpt>
      <trkpt lat="45.11785" lon="5.89314">
        <ele>2016.2</ele>
        <time>2021-02-27T05:36:08Z</time>
      </trkpt>
      <trkpt lat="45.11785" lon="5.89314">
        <ele>2016.4</ele>
        <time>2021-02-27T05:36:09Z</time>
      </trkpt>
      <trkpt lat="45.11783" lon="5.89314">
        <ele>2016.4</ele>
        <time>2021-02-27T05:36:10Z</time>
      </trkpt>
      <trkpt lat="45.11783" lon="5.89314">
        <ele>2016.8</ele>
        <time>2021-02-27T05:36:11Z</time>
      </trkpt>
      <trkpt lat="45.11783" lon="5.89314">
        <ele>2017.2</ele>
        <time>2021-02-27T05:36:12Z</time>
      </trkpt>
      <trkpt lat="45.11781" lon="5.89314">
        <ele>2017</ele>
        <time>2021-02-27T05:36:13Z</time>
      </trkpt>
      <trkpt lat="45.11781" lon="5.89314">
        <ele>2017.6</ele>
        <time>2021-02-27T05:36:14Z</time>
      </trkpt>
      <trkpt lat="45.11781" lon="5.89314">
        <ele>2018.2</ele>
        <time>2021-02-27T05:36:15Z</time>
      </trkpt>
      <trkpt lat="45.11779" lon="5.89316">
        <ele>2018.4</ele>
        <time>2021-02-27T05:36:16Z</time>
      </trkpt>
      <trkpt lat="45.11779" lon="5.89316">
        <ele>2018.8</ele>
        <time>2021-02-27T05:36:17Z</time>
      </trkpt>
      <trkpt lat="45.11777" lon="5.89318">
        <ele>2019.2</ele>
        <time>2021-02-27T05:36:18Z</time>
      </trkpt>
      <trkpt lat="45.11777" lon="5.89318">
        <ele>2019.2</ele>
        <time>2021-02-27T05:36:19Z</time>
      </trkpt>
      <trkpt lat="45.11775" lon="5.89319">
        <ele>2019.4</ele>
        <time>2021-02-27T05:36:20Z</time>
      </trkpt>
      <trkpt lat="45.11775" lon="5.89319">
        <ele>2019.6</ele>
        <time>2021-02-27T05:36:21Z</time>
      </trkpt>
      <trkpt lat="45.11775" lon="5.89319">
        <ele>2020</ele>
        <time>2021-02-27T05:36:22Z</time>
      </trkpt>
      <trkpt lat="45.11773" lon="5.89321">
        <ele>2020.2</ele>
        <time>2021-02-27T05:36:23Z</time>
      </trkpt>
      <trkpt lat="45.11773" lon="5.89321">
        <ele>2020.6</ele>
        <time>2021-02-27T05:36:24Z</time>
      </trkpt>
      <trkpt lat="45.11773" lon="5.89321">
        <ele>2021</ele>
        <time>2021-02-27T05:36:25Z</time>
      </trkpt>
      <trkpt lat="45.11773" lon="5.89321">
        <ele>2021.2</ele>
        <time>2021-02-27T05:36:26Z</time>
      </trkpt>
      <trkpt lat="45.11773" lon="5.89321">
        <ele>2022</ele>
        <time>2021-02-27T05:36:27Z</time>
      </trkpt>
      <trkpt lat="45.11772" lon="5.89323">
        <ele>2021.8</ele>
        <time>2021-02-27T05:36:28Z</time>
      </trkpt>
      <trkpt lat="45.11772" lon="5.89323">
        <ele>2021.8</ele>
        <time>2021-02-27T05:36:29Z</time>
      </trkpt>
      <trkpt lat="45.1177" lon="5.89325">
        <ele>2022.4</ele>
        <time>2021-02-27T05:36:30Z</time>
      </trkpt>
      <trkpt lat="45.1177" lon="5.89325">
        <ele>2022.4</ele>
        <time>2021-02-27T05:36:31Z</time>
      </trkpt>
      <trkpt lat="45.1177" lon="5.89325">
        <ele>2022.6</ele>
        <time>2021-02-27T05:36:32Z</time>
      </trkpt>
      <trkpt lat="45.11768" lon="5.89327">
        <ele>2023.2</ele>
        <time>2021-02-27T05:36:33Z</time>
      </trkpt>
      <trkpt lat="45.11768" lon="5.89327">
        <ele>2023.4</ele>
        <time>2021-02-27T05:36:34Z</time>
      </trkpt>
      <trkpt lat="45.11768" lon="5.89327">
        <ele>2023.6</ele>
        <time>2021-02-27T05:36:35Z</time>
      </trkpt>
      <trkpt lat="45.11768" lon="5.89327">
        <ele>2024.2</ele>
        <time>2021-02-27T05:36:36Z</time>
      </trkpt>
      <trkpt lat="45.11766" lon="5.8933">
        <ele>2024.4</ele>
        <time>2021-02-27T05:36:37Z</time>
      </trkpt>
      <trkpt lat="45.11766" lon="5.8933">
        <ele>2024.8</ele>
        <time>2021-02-27T05:36:38Z</time>
      </trkpt>
      <trkpt lat="45.11766" lon="5.8933">
        <ele>2025.4</ele>
        <time>2021-02-27T05:36:39Z</time>
      </trkpt>
      <trkpt lat="45.11766" lon="5.8933">
        <ele>2025.8</ele>
        <time>2021-02-27T05:36:40Z</time>
      </trkpt>
      <trkpt lat="45.11766" lon="5.8933">
        <ele>2026</ele>
        <time>2021-02-27T05:36:41Z</time>
      </trkpt>
      <trkpt lat="45.11766" lon="5.8933">
        <ele>2026.4</ele>
        <time>2021-02-27T05:36:42Z</time>
      </trkpt>
      <trkpt lat="45.11766" lon="5.8933">
        <ele>2026.2</ele>
        <time>2021-02-27T05:36:43Z</time>
      </trkpt>
      <trkpt lat="45.11766" lon="5.8933">
        <ele>2026.6</ele>
        <time>2021-02-27T05:36:44Z</time>
      </trkpt>
      <trkpt lat="45.11766" lon="5.89332">
        <ele>2026.8</ele>
        <time>2021-02-27T05:36:45Z</time>
      </trkpt>
      <trkpt lat="45.11766" lon="5.89332">
        <ele>2027</ele>
        <time>2021-02-27T05:36:46Z</time>
      </trkpt>
      <trkpt lat="45.11766" lon="5.89332">
        <ele>2027.4</ele>
        <time>2021-02-27T05:36:47Z</time>
      </trkpt>
      <trkpt lat="45.11764" lon="5.89335">
        <ele>2027.6</ele>
        <time>2021-02-27T05:36:48Z</time>
      </trkpt>
      <trkpt lat="45.11764" lon="5.89335">
        <ele>2028</ele>
        <time>2021-02-27T05:36:49Z</time>
      </trkpt>
      <trkpt lat="45.11762" lon="5.89337">
        <ele>2028.4</ele>
        <time>2021-02-27T05:36:50Z</time>
      </trkpt>
      <trkpt lat="45.11762" lon="5.89337">
        <ele>2029</ele>
        <time>2021-02-27T05:36:51Z</time>
      </trkpt>
      <trkpt lat="45.11762" lon="5.89337">
        <ele>2029.4</ele>
        <time>2021-02-27T05:36:52Z</time>
      </trkpt>
      <trkpt lat="45.11761" lon="5.89339">
        <ele>2029.6</ele>
        <time>2021-02-27T05:36:53Z</time>
      </trkpt>
      <trkpt lat="45.11761" lon="5.89339">
        <ele>2029.8</ele>
        <time>2021-02-27T05:36:54Z</time>
      </trkpt>
      <trkpt lat="45.11761" lon="5.89339">
        <ele>2030</ele>
        <time>2021-02-27T05:36:55Z</time>
      </trkpt>
      <trkpt lat="45.11761" lon="5.89339">
        <ele>2030.2</ele>
        <time>2021-02-27T05:36:56Z</time>
      </trkpt>
      <trkpt lat="45.11761" lon="5.89339">
        <ele>2030.6</ele>
        <time>2021-02-27T05:36:57Z</time>
      </trkpt>
      <trkpt lat="45.11761" lon="5.89342">
        <ele>2031</ele>
        <time>2021-02-27T05:36:58Z</time>
      </trkpt>
      <trkpt lat="45.11761" lon="5.89342">
        <ele>2030.8</ele>
        <time>2021-02-27T05:36:59Z</time>
      </trkpt>
      <trkpt lat="45.11761" lon="5.89342">
        <ele>2031.2</ele>
        <time>2021-02-27T05:37:00Z</time>
      </trkpt>
      <trkpt lat="45.11761" lon="5.89342">
        <ele>2031.6</ele>
        <time>2021-02-27T05:37:01Z</time>
      </trkpt>
      <trkpt lat="45.11759" lon="5.89345">
        <ele>2031.6</ele>
        <time>2021-02-27T05:37:02Z</time>
      </trkpt>
      <trkpt lat="45.11759" lon="5.89345">
        <ele>2031.8</ele>
        <time>2021-02-27T05:37:03Z</time>
      </trkpt>
      <trkpt lat="45.11759" lon="5.89345">
        <ele>2032.6</ele>
        <time>2021-02-27T05:37:04Z</time>
      </trkpt>
      <trkpt lat="45.11758" lon="5.89348">
        <ele>2032.6</ele>
        <time>2021-02-27T05:37:05Z</time>
      </trkpt>
      <trkpt lat="45.11758" lon="5.89348">
        <ele>2032.8</ele>
        <time>2021-02-27T05:37:06Z</time>
      </trkpt>
      <trkpt lat="45.11758" lon="5.89348">
        <ele>2033.2</ele>
        <time>2021-02-27T05:37:07Z</time>
      </trkpt>
      <trkpt lat="45.11757" lon="5.89351">
        <ele>2033.2</ele>
        <time>2021-02-27T05:37:08Z</time>
      </trkpt>
      <trkpt lat="45.11757" lon="5.89351">
        <ele>2033.6</ele>
        <time>2021-02-27T05:37:09Z</time>
      </trkpt>
      <trkpt lat="45.11757" lon="5.89351">
        <ele>2033.8</ele>
        <time>2021-02-27T05:37:10Z</time>
      </trkpt>
      <trkpt lat="45.11756" lon="5.89354">
        <ele>2034</ele>
        <time>2021-02-27T05:37:11Z</time>
      </trkpt>
      <trkpt lat="45.11756" lon="5.89354">
        <ele>2034.4</ele>
        <time>2021-02-27T05:37:12Z</time>
      </trkpt>
      <trkpt lat="45.11754" lon="5.89356">
        <ele>2034.8</ele>
        <time>2021-02-27T05:37:13Z</time>
      </trkpt>
      <trkpt lat="45.11754" lon="5.89356">
        <ele>2035</ele>
        <time>2021-02-27T05:37:14Z</time>
      </trkpt>
      <trkpt lat="45.11754" lon="5.89356">
        <ele>2035.6</ele>
        <time>2021-02-27T05:37:15Z</time>
      </trkpt>
      <trkpt lat="45.11754" lon="5.89356">
        <ele>2036</ele>
        <time>2021-02-27T05:37:16Z</time>
      </trkpt>
      <trkpt lat="45.11752" lon="5.89357">
        <ele>2036.2</ele>
        <time>2021-02-27T05:37:17Z</time>
      </trkpt>
      <trkpt lat="45.11752" lon="5.89357">
        <ele>2036.4</ele>
        <time>2021-02-27T05:37:18Z</time>
      </trkpt>
      <trkpt lat="45.11752" lon="5.89357">
        <ele>2036.6</ele>
        <time>2021-02-27T05:37:19Z</time>
      </trkpt>
      <trkpt lat="45.11752" lon="5.89357">
        <ele>2037</ele>
        <time>2021-02-27T05:37:20Z</time>
      </trkpt>
      <trkpt lat="45.11752" lon="5.89357">
        <ele>2037.2</ele>
        <time>2021-02-27T05:37:21Z</time>
      </trkpt>
      <trkpt lat="45.1175" lon="5.89359">
        <ele>2037.8</ele>
        <time>2021-02-27T05:37:22Z</time>
      </trkpt>
      <trkpt lat="45.1175" lon="5.89359">
        <ele>2037.8</ele>
        <time>2021-02-27T05:37:23Z</time>
      </trkpt>
      <trkpt lat="45.1175" lon="5.89359">
        <ele>2038.2</ele>
        <time>2021-02-27T05:37:24Z</time>
      </trkpt>
      <trkpt lat="45.1175" lon="5.89359">
        <ele>2038.6</ele>
        <time>2021-02-27T05:37:25Z</time>
      </trkpt>
      <trkpt lat="45.1175" lon="5.89359">
        <ele>2038.8</ele>
        <time>2021-02-27T05:37:26Z</time>
      </trkpt>
      <trkpt lat="45.11749" lon="5.89362">
        <ele>2039.2</ele>
        <time>2021-02-27T05:37:27Z</time>
      </trkpt>
      <trkpt lat="45.11749" lon="5.89362">
        <ele>2039.8</ele>
        <time>2021-02-27T05:37:28Z</time>
      </trkpt>
      <trkpt lat="45.11747" lon="5.89363">
        <ele>2039.8</ele>
        <time>2021-02-27T05:37:29Z</time>
      </trkpt>
      <trkpt lat="45.11747" lon="5.89363">
        <ele>2039.8</ele>
        <time>2021-02-27T05:37:30Z</time>
      </trkpt>
      <trkpt lat="45.11746" lon="5.89365">
        <ele>2040.4</ele>
        <time>2021-02-27T05:37:31Z</time>
      </trkpt>
      <trkpt lat="45.11746" lon="5.89365">
        <ele>2040.6</ele>
        <time>2021-02-27T05:37:32Z</time>
      </trkpt>
      <trkpt lat="45.11746" lon="5.89365">
        <ele>2041</ele>
        <time>2021-02-27T05:37:33Z</time>
      </trkpt>
      <trkpt lat="45.11744" lon="5.89367">
        <ele>2041.4</ele>
        <time>2021-02-27T05:37:34Z</time>
      </trkpt>
      <trkpt lat="45.11744" lon="5.89367">
        <ele>2041.6</ele>
        <time>2021-02-27T05:37:35Z</time>
      </trkpt>
      <trkpt lat="45.11742" lon="5.89369">
        <ele>2042.2</ele>
        <time>2021-02-27T05:37:36Z</time>
      </trkpt>
      <trkpt lat="45.11742" lon="5.89369">
        <ele>2042.6</ele>
        <time>2021-02-27T05:37:37Z</time>
      </trkpt>
      <trkpt lat="45.11742" lon="5.89369">
        <ele>2042.4</ele>
        <time>2021-02-27T05:37:38Z</time>
      </trkpt>
      <trkpt lat="45.11742" lon="5.89369">
        <ele>2042.8</ele>
        <time>2021-02-27T05:37:39Z</time>
      </trkpt>
      <trkpt lat="45.11742" lon="5.89369">
        <ele>2043.2</ele>
        <time>2021-02-27T05:37:40Z</time>
      </trkpt>
      <trkpt lat="45.11741" lon="5.89372">
        <ele>2043.6</ele>
        <time>2021-02-27T05:37:41Z</time>
      </trkpt>
      <trkpt lat="45.11741" lon="5.89372">
        <ele>2044</ele>
        <time>2021-02-27T05:37:42Z</time>
      </trkpt>
      <trkpt lat="45.11741" lon="5.89372">
        <ele>2044.2</ele>
        <time>2021-02-27T05:37:43Z</time>
      </trkpt>
      <trkpt lat="45.1174" lon="5.89374">
        <ele>2044.6</ele>
        <time>2021-02-27T05:37:44Z</time>
      </trkpt>
      <trkpt lat="45.1174" lon="5.89374">
        <ele>2044.8</ele>
        <time>2021-02-27T05:37:45Z</time>
      </trkpt>
      <trkpt lat="45.1174" lon="5.89374">
        <ele>2045.4</ele>
        <time>2021-02-27T05:37:46Z</time>
      </trkpt>
      <trkpt lat="45.11739" lon="5.89378">
        <ele>2045.6</ele>
        <time>2021-02-27T05:37:47Z</time>
      </trkpt>
      <trkpt lat="45.11739" lon="5.89378">
        <ele>2045.6</ele>
        <time>2021-02-27T05:37:48Z</time>
      </trkpt>
      <trkpt lat="45.1174" lon="5.8938">
        <ele>2046.2</ele>
        <time>2021-02-27T05:37:49Z</time>
      </trkpt>
      <trkpt lat="45.1174" lon="5.8938">
        <ele>2046.4</ele>
        <time>2021-02-27T05:37:50Z</time>
      </trkpt>
      <trkpt lat="45.1174" lon="5.8938">
        <ele>2047</ele>
        <time>2021-02-27T05:37:51Z</time>
      </trkpt>
      <trkpt lat="45.11741" lon="5.89384">
        <ele>2047</ele>
        <time>2021-02-27T05:37:52Z</time>
      </trkpt>
      <trkpt lat="45.11741" lon="5.89384">
        <ele>2047.4</ele>
        <time>2021-02-27T05:37:53Z</time>
      </trkpt>
      <trkpt lat="45.11741" lon="5.89384">
        <ele>2047.8</ele>
        <time>2021-02-27T05:37:54Z</time>
      </trkpt>
      <trkpt lat="45.11742" lon="5.89387">
        <ele>2047.8</ele>
        <time>2021-02-27T05:37:55Z</time>
      </trkpt>
      <trkpt lat="45.11742" lon="5.89387">
        <ele>2048.2</ele>
        <time>2021-02-27T05:37:56Z</time>
      </trkpt>
      <trkpt lat="45.11743" lon="5.8939">
        <ele>2048.2</ele>
        <time>2021-02-27T05:37:57Z</time>
      </trkpt>
      <trkpt lat="45.11743" lon="5.8939">
        <ele>2048.8</ele>
        <time>2021-02-27T05:37:58Z</time>
      </trkpt>
      <trkpt lat="45.11743" lon="5.8939">
        <ele>2049</ele>
        <time>2021-02-27T05:37:59Z</time>
      </trkpt>
      <trkpt lat="45.11744" lon="5.89393">
        <ele>2049.4</ele>
        <time>2021-02-27T05:38:00Z</time>
      </trkpt>
      <trkpt lat="45.11744" lon="5.89393">
        <ele>2049.4</ele>
        <time>2021-02-27T05:38:01Z</time>
      </trkpt>
      <trkpt lat="45.11744" lon="5.89393">
        <ele>2049.8</ele>
        <time>2021-02-27T05:38:02Z</time>
      </trkpt>
      <trkpt lat="45.11745" lon="5.89397">
        <ele>2050</ele>
        <time>2021-02-27T05:38:03Z</time>
      </trkpt>
      <trkpt lat="45.11745" lon="5.89397">
        <ele>2050</ele>
        <time>2021-02-27T05:38:04Z</time>
      </trkpt>
      <trkpt lat="45.11745" lon="5.89397">
        <ele>2050.6</ele>
        <time>2021-02-27T05:38:05Z</time>
      </trkpt>
      <trkpt lat="45.11746" lon="5.894">
        <ele>2050.8</ele>
        <time>2021-02-27T05:38:06Z</time>
      </trkpt>
      <trkpt lat="45.11746" lon="5.894">
        <ele>2051.2</ele>
        <time>2021-02-27T05:38:07Z</time>
      </trkpt>
      <trkpt lat="45.11746" lon="5.894">
        <ele>2051.8</ele>
        <time>2021-02-27T05:38:08Z</time>
      </trkpt>
      <trkpt lat="45.11748" lon="5.89404">
        <ele>2051.8</ele>
        <time>2021-02-27T05:38:09Z</time>
      </trkpt>
      <trkpt lat="45.11748" lon="5.89404">
        <ele>2052.2</ele>
        <time>2021-02-27T05:38:10Z</time>
      </trkpt>
      <trkpt lat="45.1175" lon="5.89407">
        <ele>2052.4</ele>
        <time>2021-02-27T05:38:11Z</time>
      </trkpt>
      <trkpt lat="45.1175" lon="5.89407">
        <ele>2052.8</ele>
        <time>2021-02-27T05:38:12Z</time>
      </trkpt>
      <trkpt lat="45.11751" lon="5.8941">
        <ele>2053</ele>
        <time>2021-02-27T05:38:13Z</time>
      </trkpt>
      <trkpt lat="45.11751" lon="5.8941">
        <ele>2053.6</ele>
        <time>2021-02-27T05:38:14Z</time>
      </trkpt>
      <trkpt lat="45.11753" lon="5.89412">
        <ele>2053.8</ele>
        <time>2021-02-27T05:38:15Z</time>
      </trkpt>
      <trkpt lat="45.11753" lon="5.89412">
        <ele>2054</ele>
        <time>2021-02-27T05:38:16Z</time>
      </trkpt>
      <trkpt lat="45.11754" lon="5.89415">
        <ele>2054.2</ele>
        <time>2021-02-27T05:38:17Z</time>
      </trkpt>
      <trkpt lat="45.11754" lon="5.89415">
        <ele>2054.2</ele>
        <time>2021-02-27T05:38:18Z</time>
      </trkpt>
      <trkpt lat="45.11756" lon="5.89418">
        <ele>2054.8</ele>
        <time>2021-02-27T05:38:19Z</time>
      </trkpt>
      <trkpt lat="45.11756" lon="5.89418">
        <ele>2054.8</ele>
        <time>2021-02-27T05:38:20Z</time>
      </trkpt>
      <trkpt lat="45.11757" lon="5.8942">
        <ele>2055</ele>
        <time>2021-02-27T05:38:21Z</time>
      </trkpt>
      <trkpt lat="45.11757" lon="5.8942">
        <ele>2055.4</ele>
        <time>2021-02-27T05:38:22Z</time>
      </trkpt>
      <trkpt lat="45.11757" lon="5.8942">
        <ele>2055.8</ele>
        <time>2021-02-27T05:38:23Z</time>
      </trkpt>
      <trkpt lat="45.11758" lon="5.89424">
        <ele>2055.8</ele>
        <time>2021-02-27T05:38:24Z</time>
      </trkpt>
      <trkpt lat="45.11758" lon="5.89424">
        <ele>2056</ele>
        <time>2021-02-27T05:38:25Z</time>
      </trkpt>
      <trkpt lat="45.11758" lon="5.89424">
        <ele>2056.2</ele>
        <time>2021-02-27T05:38:26Z</time>
      </trkpt>
      <trkpt lat="45.11759" lon="5.89427">
        <ele>2056.6</ele>
        <time>2021-02-27T05:38:27Z</time>
      </trkpt>
      <trkpt lat="45.11759" lon="5.89427">
        <ele>2056.8</ele>
        <time>2021-02-27T05:38:28Z</time>
      </trkpt>
      <trkpt lat="45.1176" lon="5.89429">
        <ele>2056.8</ele>
        <time>2021-02-27T05:38:29Z</time>
      </trkpt>
      <trkpt lat="45.1176" lon="5.89429">
        <ele>2057.4</ele>
        <time>2021-02-27T05:38:30Z</time>
      </trkpt>
      <trkpt lat="45.1176" lon="5.89429">
        <ele>2057.4</ele>
        <time>2021-02-27T05:38:31Z</time>
      </trkpt>
      <trkpt lat="45.11761" lon="5.89433">
        <ele>2058</ele>
        <time>2021-02-27T05:38:32Z</time>
      </trkpt>
      <trkpt lat="45.11761" lon="5.89433">
        <ele>2058.2</ele>
        <time>2021-02-27T05:38:33Z</time>
      </trkpt>
      <trkpt lat="45.11762" lon="5.89435">
        <ele>2058.6</ele>
        <time>2021-02-27T05:38:34Z</time>
      </trkpt>
      <trkpt lat="45.11762" lon="5.89435">
        <ele>2058.8</ele>
        <time>2021-02-27T05:38:35Z</time>
      </trkpt>
      <trkpt lat="45.11764" lon="5.89438">
        <ele>2059.2</ele>
        <time>2021-02-27T05:38:36Z</time>
      </trkpt>
      <trkpt lat="45.11764" lon="5.89438">
        <ele>2059.4</ele>
        <time>2021-02-27T05:38:37Z</time>
      </trkpt>
      <trkpt lat="45.11765" lon="5.8944">
        <ele>2059.8</ele>
        <time>2021-02-27T05:38:38Z</time>
      </trkpt>
      <trkpt lat="45.11765" lon="5.8944">
        <ele>2060</ele>
        <time>2021-02-27T05:38:39Z</time>
      </trkpt>
      <trkpt lat="45.11766" lon="5.89443">
        <ele>2060.4</ele>
        <time>2021-02-27T05:38:40Z</time>
      </trkpt>
      <trkpt lat="45.11766" lon="5.89443">
        <ele>2060.4</ele>
        <time>2021-02-27T05:38:41Z</time>
      </trkpt>
      <trkpt lat="45.11767" lon="5.89446">
        <ele>2060.8</ele>
        <time>2021-02-27T05:38:42Z</time>
      </trkpt>
      <trkpt lat="45.11767" lon="5.89446">
        <ele>2061</ele>
        <time>2021-02-27T05:38:43Z</time>
      </trkpt>
      <trkpt lat="45.11768" lon="5.89449">
        <ele>2061.4</ele>
        <time>2021-02-27T05:38:44Z</time>
      </trkpt>
      <trkpt lat="45.11768" lon="5.89449">
        <ele>2061.4</ele>
        <time>2021-02-27T05:38:45Z</time>
      </trkpt>
      <trkpt lat="45.11769" lon="5.89451">
        <ele>2062</ele>
        <time>2021-02-27T05:38:46Z</time>
      </trkpt>
      <trkpt lat="45.11769" lon="5.89451">
        <ele>2062</ele>
        <time>2021-02-27T05:38:47Z</time>
      </trkpt>
      <trkpt lat="45.1177" lon="5.89454">
        <ele>2062</ele>
        <time>2021-02-27T05:38:48Z</time>
      </trkpt>
      <trkpt lat="45.1177" lon="5.89454">
        <ele>2062.6</ele>
        <time>2021-02-27T05:38:49Z</time>
      </trkpt>
      <trkpt lat="45.11771" lon="5.89457">
        <ele>2062.8</ele>
        <time>2021-02-27T05:38:50Z</time>
      </trkpt>
      <trkpt lat="45.11771" lon="5.89457">
        <ele>2063</ele>
        <time>2021-02-27T05:38:51Z</time>
      </trkpt>
      <trkpt lat="45.11772" lon="5.8946">
        <ele>2063.6</ele>
        <time>2021-02-27T05:38:52Z</time>
      </trkpt>
      <trkpt lat="45.11772" lon="5.8946">
        <ele>2063.8</ele>
        <time>2021-02-27T05:38:53Z</time>
      </trkpt>
      <trkpt lat="45.11772" lon="5.89463">
        <ele>2064.2</ele>
        <time>2021-02-27T05:38:54Z</time>
      </trkpt>
      <trkpt lat="45.11772" lon="5.89463">
        <ele>2064.2</ele>
        <time>2021-02-27T05:38:55Z</time>
      </trkpt>
      <trkpt lat="45.11773" lon="5.89465">
        <ele>2064.6</ele>
        <time>2021-02-27T05:38:56Z</time>
      </trkpt>
      <trkpt lat="45.11773" lon="5.89465">
        <ele>2065</ele>
        <time>2021-02-27T05:38:57Z</time>
      </trkpt>
      <trkpt lat="45.11773" lon="5.89465">
        <ele>2065.4</ele>
        <time>2021-02-27T05:38:58Z</time>
      </trkpt>
      <trkpt lat="45.11774" lon="5.89469">
        <ele>2065</ele>
        <time>2021-02-27T05:38:59Z</time>
      </trkpt>
      <trkpt lat="45.11774" lon="5.89469">
        <ele>2065.4</ele>
        <time>2021-02-27T05:39:00Z</time>
      </trkpt>
      <trkpt lat="45.11776" lon="5.89471">
        <ele>2066</ele>
        <time>2021-02-27T05:39:01Z</time>
      </trkpt>
      <trkpt lat="45.11776" lon="5.89471">
        <ele>2066.8</ele>
        <time>2021-02-27T05:39:02Z</time>
      </trkpt>
      <trkpt lat="45.11777" lon="5.89475">
        <ele>2066.6</ele>
        <time>2021-02-27T05:39:03Z</time>
      </trkpt>
      <trkpt lat="45.11777" lon="5.89475">
        <ele>2066.8</ele>
        <time>2021-02-27T05:39:04Z</time>
      </trkpt>
      <trkpt lat="45.11778" lon="5.89477">
        <ele>2067.2</ele>
        <time>2021-02-27T05:39:05Z</time>
      </trkpt>
      <trkpt lat="45.11778" lon="5.89477">
        <ele>2067.2</ele>
        <time>2021-02-27T05:39:06Z</time>
      </trkpt>
      <trkpt lat="45.11779" lon="5.8948">
        <ele>2067.6</ele>
        <time>2021-02-27T05:39:07Z</time>
      </trkpt>
      <trkpt lat="45.11779" lon="5.8948">
        <ele>2067.8</ele>
        <time>2021-02-27T05:39:08Z</time>
      </trkpt>
      <trkpt lat="45.1178" lon="5.89483">
        <ele>2068.2</ele>
        <time>2021-02-27T05:39:09Z</time>
      </trkpt>
      <trkpt lat="45.1178" lon="5.89483">
        <ele>2068.2</ele>
        <time>2021-02-27T05:39:10Z</time>
      </trkpt>
      <trkpt lat="45.11781" lon="5.89486">
        <ele>2068.4</ele>
        <time>2021-02-27T05:39:11Z</time>
      </trkpt>
      <trkpt lat="45.11781" lon="5.89486">
        <ele>2068.4</ele>
        <time>2021-02-27T05:39:12Z</time>
      </trkpt>
      <trkpt lat="45.11781" lon="5.89486">
        <ele>2068.8</ele>
        <time>2021-02-27T05:39:13Z</time>
      </trkpt>
      <trkpt lat="45.11782" lon="5.89489">
        <ele>2069</ele>
        <time>2021-02-27T05:39:14Z</time>
      </trkpt>
      <trkpt lat="45.11782" lon="5.89489">
        <ele>2069.6</ele>
        <time>2021-02-27T05:39:15Z</time>
      </trkpt>
      <trkpt lat="45.11782" lon="5.89492">
        <ele>2069.8</ele>
        <time>2021-02-27T05:39:16Z</time>
      </trkpt>
      <trkpt lat="45.11782" lon="5.89492">
        <ele>2070.2</ele>
        <time>2021-02-27T05:39:17Z</time>
      </trkpt>
      <trkpt lat="45.11783" lon="5.89495">
        <ele>2070.6</ele>
        <time>2021-02-27T05:39:18Z</time>
      </trkpt>
      <trkpt lat="45.11783" lon="5.89495">
        <ele>2071</ele>
        <time>2021-02-27T05:39:19Z</time>
      </trkpt>
      <trkpt lat="45.11783" lon="5.89497">
        <ele>2071</ele>
        <time>2021-02-27T05:39:20Z</time>
      </trkpt>
      <trkpt lat="45.11783" lon="5.89497">
        <ele>2071.6</ele>
        <time>2021-02-27T05:39:21Z</time>
      </trkpt>
      <trkpt lat="45.11784" lon="5.895">
        <ele>2071.4</ele>
        <time>2021-02-27T05:39:22Z</time>
      </trkpt>
      <trkpt lat="45.11784" lon="5.895">
        <ele>2071.8</ele>
        <time>2021-02-27T05:39:23Z</time>
      </trkpt>
      <trkpt lat="45.11785" lon="5.89503">
        <ele>2072</ele>
        <time>2021-02-27T05:39:24Z</time>
      </trkpt>
      <trkpt lat="45.11785" lon="5.89503">
        <ele>2072.2</ele>
        <time>2021-02-27T05:39:25Z</time>
      </trkpt>
      <trkpt lat="45.11786" lon="5.89505">
        <ele>2072.2</ele>
        <time>2021-02-27T05:39:26Z</time>
      </trkpt>
      <trkpt lat="45.11786" lon="5.89505">
        <ele>2072.6</ele>
        <time>2021-02-27T05:39:27Z</time>
      </trkpt>
      <trkpt lat="45.11786" lon="5.89508">
        <ele>2072.6</ele>
        <time>2021-02-27T05:39:28Z</time>
      </trkpt>
      <trkpt lat="45.11786" lon="5.89508">
        <ele>2073</ele>
        <time>2021-02-27T05:39:29Z</time>
      </trkpt>
      <trkpt lat="45.11787" lon="5.89511">
        <ele>2072.8</ele>
        <time>2021-02-27T05:39:30Z</time>
      </trkpt>
      <trkpt lat="45.11787" lon="5.89511">
        <ele>2073.4</ele>
        <time>2021-02-27T05:39:31Z</time>
      </trkpt>
      <trkpt lat="45.11788" lon="5.89514">
        <ele>2073.8</ele>
        <time>2021-02-27T05:39:32Z</time>
      </trkpt>
      <trkpt lat="45.11788" lon="5.89514">
        <ele>2074</ele>
        <time>2021-02-27T05:39:33Z</time>
      </trkpt>
      <trkpt lat="45.11789" lon="5.89517">
        <ele>2074.2</ele>
        <time>2021-02-27T05:39:34Z</time>
      </trkpt>
      <trkpt lat="45.11789" lon="5.89517">
        <ele>2074.6</ele>
        <time>2021-02-27T05:39:35Z</time>
      </trkpt>
      <trkpt lat="45.1179" lon="5.89519">
        <ele>2074.8</ele>
        <time>2021-02-27T05:39:36Z</time>
      </trkpt>
      <trkpt lat="45.1179" lon="5.89519">
        <ele>2075.2</ele>
        <time>2021-02-27T05:39:37Z</time>
      </trkpt>
      <trkpt lat="45.11791" lon="5.89522">
        <ele>2075.2</ele>
        <time>2021-02-27T05:39:38Z</time>
      </trkpt>
      <trkpt lat="45.11791" lon="5.89522">
        <ele>2075.6</ele>
        <time>2021-02-27T05:39:39Z</time>
      </trkpt>
      <trkpt lat="45.11792" lon="5.89525">
        <ele>2075.8</ele>
        <time>2021-02-27T05:39:40Z</time>
      </trkpt>
      <trkpt lat="45.11792" lon="5.89525">
        <ele>2076</ele>
        <time>2021-02-27T05:39:41Z</time>
      </trkpt>
      <trkpt lat="45.11793" lon="5.89528">
        <ele>2076</ele>
        <time>2021-02-27T05:39:42Z</time>
      </trkpt>
      <trkpt lat="45.11793" lon="5.89528">
        <ele>2076.4</ele>
        <time>2021-02-27T05:39:43Z</time>
      </trkpt>
      <trkpt lat="45.11794" lon="5.89531">
        <ele>2076.6</ele>
        <time>2021-02-27T05:39:44Z</time>
      </trkpt>
      <trkpt lat="45.11794" lon="5.89531">
        <ele>2077</ele>
        <time>2021-02-27T05:39:45Z</time>
      </trkpt>
      <trkpt lat="45.11795" lon="5.89533">
        <ele>2077.2</ele>
        <time>2021-02-27T05:39:46Z</time>
      </trkpt>
      <trkpt lat="45.11795" lon="5.89533">
        <ele>2077.6</ele>
        <time>2021-02-27T05:39:47Z</time>
      </trkpt>
      <trkpt lat="45.11796" lon="5.89536">
        <ele>2077.6</ele>
        <time>2021-02-27T05:39:48Z</time>
      </trkpt>
      <trkpt lat="45.11796" lon="5.89536">
        <ele>2077.6</ele>
        <time>2021-02-27T05:39:49Z</time>
      </trkpt>
      <trkpt lat="45.11797" lon="5.89539">
        <ele>2078</ele>
        <time>2021-02-27T05:39:50Z</time>
      </trkpt>
      <trkpt lat="45.11797" lon="5.89539">
        <ele>2078.4</ele>
        <time>2021-02-27T05:39:51Z</time>
      </trkpt>
      <trkpt lat="45.11799" lon="5.89541">
        <ele>2078.2</ele>
        <time>2021-02-27T05:39:52Z</time>
      </trkpt>
      <trkpt lat="45.11799" lon="5.89541">
        <ele>2078.6</ele>
        <time>2021-02-27T05:39:53Z</time>
      </trkpt>
      <trkpt lat="45.11799" lon="5.89544">
        <ele>2078.4</ele>
        <time>2021-02-27T05:39:54Z</time>
      </trkpt>
      <trkpt lat="45.11799" lon="5.89544">
        <ele>2078.8</ele>
        <time>2021-02-27T05:39:55Z</time>
      </trkpt>
      <trkpt lat="45.118" lon="5.89547">
        <ele>2078.8</ele>
        <time>2021-02-27T05:39:56Z</time>
      </trkpt>
      <trkpt lat="45.118" lon="5.89547">
        <ele>2079.2</ele>
        <time>2021-02-27T05:39:57Z</time>
      </trkpt>
      <trkpt lat="45.11801" lon="5.8955">
        <ele>2079.4</ele>
        <time>2021-02-27T05:39:58Z</time>
      </trkpt>
      <trkpt lat="45.11801" lon="5.8955">
        <ele>2080</ele>
        <time>2021-02-27T05:39:59Z</time>
      </trkpt>
      <trkpt lat="45.11802" lon="5.89553">
        <ele>2080.2</ele>
        <time>2021-02-27T05:40:00Z</time>
      </trkpt>
      <trkpt lat="45.11802" lon="5.89553">
        <ele>2080.4</ele>
        <time>2021-02-27T05:40:01Z</time>
      </trkpt>
      <trkpt lat="45.11803" lon="5.89555">
        <ele>2080.4</ele>
        <time>2021-02-27T05:40:02Z</time>
      </trkpt>
      <trkpt lat="45.11803" lon="5.89555">
        <ele>2080.6</ele>
        <time>2021-02-27T05:40:03Z</time>
      </trkpt>
      <trkpt lat="45.11805" lon="5.89558">
        <ele>2081</ele>
        <time>2021-02-27T05:40:04Z</time>
      </trkpt>
      <trkpt lat="45.11805" lon="5.89558">
        <ele>2081.4</ele>
        <time>2021-02-27T05:40:05Z</time>
      </trkpt>
      <trkpt lat="45.11807" lon="5.89561">
        <ele>2081.6</ele>
        <time>2021-02-27T05:40:06Z</time>
      </trkpt>
      <trkpt lat="45.11807" lon="5.89561">
        <ele>2081.8</ele>
        <time>2021-02-27T05:40:07Z</time>
      </trkpt>
      <trkpt lat="45.11808" lon="5.89564">
        <ele>2082</ele>
        <time>2021-02-27T05:40:08Z</time>
      </trkpt>
      <trkpt lat="45.11808" lon="5.89564">
        <ele>2082.4</ele>
        <time>2021-02-27T05:40:09Z</time>
      </trkpt>
      <trkpt lat="45.11808" lon="5.89566">
        <ele>2082.2</ele>
        <time>2021-02-27T05:40:10Z</time>
      </trkpt>
      <trkpt lat="45.11808" lon="5.89566">
        <ele>2082.4</ele>
        <time>2021-02-27T05:40:11Z</time>
      </trkpt>
      <trkpt lat="45.1181" lon="5.89569">
        <ele>2082.4</ele>
        <time>2021-02-27T05:40:12Z</time>
      </trkpt>
      <trkpt lat="45.1181" lon="5.89569">
        <ele>2083</ele>
        <time>2021-02-27T05:40:13Z</time>
      </trkpt>
      <trkpt lat="45.11811" lon="5.89572">
        <ele>2083</ele>
        <time>2021-02-27T05:40:14Z</time>
      </trkpt>
      <trkpt lat="45.11811" lon="5.89572">
        <ele>2083.2</ele>
        <time>2021-02-27T05:40:15Z</time>
      </trkpt>
      <trkpt lat="45.11812" lon="5.89575">
        <ele>2083.6</ele>
        <time>2021-02-27T05:40:16Z</time>
      </trkpt>
      <trkpt lat="45.11812" lon="5.89575">
        <ele>2084</ele>
        <time>2021-02-27T05:40:17Z</time>
      </trkpt>
      <trkpt lat="45.11813" lon="5.89578">
        <ele>2084.2</ele>
        <time>2021-02-27T05:40:18Z</time>
      </trkpt>
      <trkpt lat="45.11813" lon="5.89578">
        <ele>2084.4</ele>
        <time>2021-02-27T05:40:19Z</time>
      </trkpt>
      <trkpt lat="45.11815" lon="5.89581">
        <ele>2084.4</ele>
        <time>2021-02-27T05:40:20Z</time>
      </trkpt>
      <trkpt lat="45.11815" lon="5.89581">
        <ele>2084.6</ele>
        <time>2021-02-27T05:40:21Z</time>
      </trkpt>
      <trkpt lat="45.11816" lon="5.89583">
        <ele>2085</ele>
        <time>2021-02-27T05:40:22Z</time>
      </trkpt>
      <trkpt lat="45.11816" lon="5.89583">
        <ele>2085</ele>
        <time>2021-02-27T05:40:23Z</time>
      </trkpt>
      <trkpt lat="45.11818" lon="5.89586">
        <ele>2085.4</ele>
        <time>2021-02-27T05:40:24Z</time>
      </trkpt>
      <trkpt lat="45.11818" lon="5.89586">
        <ele>2085.4</ele>
        <time>2021-02-27T05:40:25Z</time>
      </trkpt>
      <trkpt lat="45.11819" lon="5.89588">
        <ele>2085.4</ele>
        <time>2021-02-27T05:40:26Z</time>
      </trkpt>
      <trkpt lat="45.11819" lon="5.89588">
        <ele>2085.8</ele>
        <time>2021-02-27T05:40:27Z</time>
      </trkpt>
      <trkpt lat="45.1182" lon="5.89591">
        <ele>2086.2</ele>
        <time>2021-02-27T05:40:28Z</time>
      </trkpt>
      <trkpt lat="45.1182" lon="5.89591">
        <ele>2086.2</ele>
        <time>2021-02-27T05:40:29Z</time>
      </trkpt>
      <trkpt lat="45.11822" lon="5.89594">
        <ele>2086.2</ele>
        <time>2021-02-27T05:40:30Z</time>
      </trkpt>
      <trkpt lat="45.11822" lon="5.89594">
        <ele>2086.4</ele>
        <time>2021-02-27T05:40:31Z</time>
      </trkpt>
      <trkpt lat="45.11823" lon="5.89597">
        <ele>2086.8</ele>
        <time>2021-02-27T05:40:32Z</time>
      </trkpt>
      <trkpt lat="45.11823" lon="5.89597">
        <ele>2087</ele>
        <time>2021-02-27T05:40:33Z</time>
      </trkpt>
      <trkpt lat="45.11823" lon="5.89599">
        <ele>2087.2</ele>
        <time>2021-02-27T05:40:34Z</time>
      </trkpt>
      <trkpt lat="45.11823" lon="5.89599">
        <ele>2087.2</ele>
        <time>2021-02-27T05:40:35Z</time>
      </trkpt>
      <trkpt lat="45.11824" lon="5.89602">
        <ele>2087.2</ele>
        <time>2021-02-27T05:40:36Z</time>
      </trkpt>
      <trkpt lat="45.11824" lon="5.89602">
        <ele>2087.4</ele>
        <time>2021-02-27T05:40:37Z</time>
      </trkpt>
      <trkpt lat="45.11826" lon="5.89605">
        <ele>2087.8</ele>
        <time>2021-02-27T05:40:38Z</time>
      </trkpt>
      <trkpt lat="45.11826" lon="5.89605">
        <ele>2088</ele>
        <time>2021-02-27T05:40:39Z</time>
      </trkpt>
      <trkpt lat="45.11828" lon="5.89608">
        <ele>2088.2</ele>
        <time>2021-02-27T05:40:40Z</time>
      </trkpt>
      <trkpt lat="45.11828" lon="5.89608">
        <ele>2088.4</ele>
        <time>2021-02-27T05:40:41Z</time>
      </trkpt>
      <trkpt lat="45.11829" lon="5.89609">
        <ele>2088.8</ele>
        <time>2021-02-27T05:40:42Z</time>
      </trkpt>
      <trkpt lat="45.11829" lon="5.89609">
        <ele>2089</ele>
        <time>2021-02-27T05:40:43Z</time>
      </trkpt>
      <trkpt lat="45.1183" lon="5.89612">
        <ele>2089.4</ele>
        <time>2021-02-27T05:40:44Z</time>
      </trkpt>
      <trkpt lat="45.1183" lon="5.89612">
        <ele>2089.6</ele>
        <time>2021-02-27T05:40:45Z</time>
      </trkpt>
      <trkpt lat="45.11831" lon="5.89614">
        <ele>2089.4</ele>
        <time>2021-02-27T05:40:46Z</time>
      </trkpt>
      <trkpt lat="45.11831" lon="5.89614">
        <ele>2089.6</ele>
        <time>2021-02-27T05:40:47Z</time>
      </trkpt>
      <trkpt lat="45.11832" lon="5.89617">
        <ele>2090</ele>
        <time>2021-02-27T05:40:48Z</time>
      </trkpt>
      <trkpt lat="45.11832" lon="5.89617">
        <ele>2090.2</ele>
        <time>2021-02-27T05:40:49Z</time>
      </trkpt>
      <trkpt lat="45.11833" lon="5.89619">
        <ele>2090.4</ele>
        <time>2021-02-27T05:40:50Z</time>
      </trkpt>
      <trkpt lat="45.11833" lon="5.89619">
        <ele>2090.6</ele>
        <time>2021-02-27T05:40:51Z</time>
      </trkpt>
      <trkpt lat="45.11834" lon="5.89622">
        <ele>2090.8</ele>
        <time>2021-02-27T05:40:52Z</time>
      </trkpt>
      <trkpt lat="45.11834" lon="5.89622">
        <ele>2091</ele>
        <time>2021-02-27T05:40:53Z</time>
      </trkpt>
      <trkpt lat="45.11834" lon="5.89624">
        <ele>2091.2</ele>
        <time>2021-02-27T05:40:54Z</time>
      </trkpt>
      <trkpt lat="45.11834" lon="5.89624">
        <ele>2091.6</ele>
        <time>2021-02-27T05:40:55Z</time>
      </trkpt>
      <trkpt lat="45.11835" lon="5.89626">
        <ele>2091.8</ele>
        <time>2021-02-27T05:40:56Z</time>
      </trkpt>
      <trkpt lat="45.11835" lon="5.89626">
        <ele>2092</ele>
        <time>2021-02-27T05:40:57Z</time>
      </trkpt>
      <trkpt lat="45.11837" lon="5.89629">
        <ele>2092.2</ele>
        <time>2021-02-27T05:40:58Z</time>
      </trkpt>
      <trkpt lat="45.11837" lon="5.89629">
        <ele>2092.4</ele>
        <time>2021-02-27T05:40:59Z</time>
      </trkpt>
      <trkpt lat="45.11838" lon="5.89631">
        <ele>2092.6</ele>
        <time>2021-02-27T05:41:00Z</time>
      </trkpt>
      <trkpt lat="45.11838" lon="5.89631">
        <ele>2092.8</ele>
        <time>2021-02-27T05:41:01Z</time>
      </trkpt>
      <trkpt lat="45.11838" lon="5.89633">
        <ele>2093</ele>
        <time>2021-02-27T05:41:02Z</time>
      </trkpt>
      <trkpt lat="45.11838" lon="5.89633">
        <ele>2093.4</ele>
        <time>2021-02-27T05:41:03Z</time>
      </trkpt>
      <trkpt lat="45.1184" lon="5.89636">
        <ele>2093.6</ele>
        <time>2021-02-27T05:41:04Z</time>
      </trkpt>
      <trkpt lat="45.1184" lon="5.89636">
        <ele>2094</ele>
        <time>2021-02-27T05:41:05Z</time>
      </trkpt>
      <trkpt lat="45.1184" lon="5.89638">
        <ele>2094.2</ele>
        <time>2021-02-27T05:41:06Z</time>
      </trkpt>
      <trkpt lat="45.1184" lon="5.89638">
        <ele>2094.4</ele>
        <time>2021-02-27T05:41:07Z</time>
      </trkpt>
      <trkpt lat="45.11842" lon="5.8964">
        <ele>2094.6</ele>
        <time>2021-02-27T05:41:08Z</time>
      </trkpt>
      <trkpt lat="45.11842" lon="5.8964">
        <ele>2094.8</ele>
        <time>2021-02-27T05:41:09Z</time>
      </trkpt>
      <trkpt lat="45.11843" lon="5.89643">
        <ele>2095</ele>
        <time>2021-02-27T05:41:10Z</time>
      </trkpt>
      <trkpt lat="45.11843" lon="5.89643">
        <ele>2095.4</ele>
        <time>2021-02-27T05:41:11Z</time>
      </trkpt>
      <trkpt lat="45.11844" lon="5.89645">
        <ele>2095.6</ele>
        <time>2021-02-27T05:41:12Z</time>
      </trkpt>
      <trkpt lat="45.11844" lon="5.89645">
        <ele>2095.6</ele>
        <time>2021-02-27T05:41:13Z</time>
      </trkpt>
      <trkpt lat="45.11845" lon="5.89648">
        <ele>2095.8</ele>
        <time>2021-02-27T05:41:14Z</time>
      </trkpt>
      <trkpt lat="45.11845" lon="5.89648">
        <ele>2096</ele>
        <time>2021-02-27T05:41:15Z</time>
      </trkpt>
      <trkpt lat="45.11845" lon="5.89648">
        <ele>2096.2</ele>
        <time>2021-02-27T05:41:16Z</time>
      </trkpt>
      <trkpt lat="45.11846" lon="5.89651">
        <ele>2096.4</ele>
        <time>2021-02-27T05:41:17Z</time>
      </trkpt>
      <trkpt lat="45.11846" lon="5.89651">
        <ele>2096.4</ele>
        <time>2021-02-27T05:41:18Z</time>
      </trkpt>
      <trkpt lat="45.11847" lon="5.89653">
        <ele>2096.8</ele>
        <time>2021-02-27T05:41:19Z</time>
      </trkpt>
      <trkpt lat="45.11847" lon="5.89653">
        <ele>2097</ele>
        <time>2021-02-27T05:41:20Z</time>
      </trkpt>
      <trkpt lat="45.11847" lon="5.89653">
        <ele>2097.2</ele>
        <time>2021-02-27T05:41:21Z</time>
      </trkpt>
      <trkpt lat="45.11847" lon="5.89656">
        <ele>2097.4</ele>
        <time>2021-02-27T05:41:22Z</time>
      </trkpt>
      <trkpt lat="45.11847" lon="5.89656">
        <ele>2097.8</ele>
        <time>2021-02-27T05:41:23Z</time>
      </trkpt>
      <trkpt lat="45.11847" lon="5.89656">
        <ele>2098</ele>
        <time>2021-02-27T05:41:24Z</time>
      </trkpt>
      <trkpt lat="45.11848" lon="5.89659">
        <ele>2098.2</ele>
        <time>2021-02-27T05:41:25Z</time>
      </trkpt>
      <trkpt lat="45.11848" lon="5.89659">
        <ele>2098</ele>
        <time>2021-02-27T05:41:26Z</time>
      </trkpt>
      <trkpt lat="45.11849" lon="5.89662">
        <ele>2098.2</ele>
        <time>2021-02-27T05:41:27Z</time>
      </trkpt>
      <trkpt lat="45.11849" lon="5.89662">
        <ele>2098.4</ele>
        <time>2021-02-27T05:41:28Z</time>
      </trkpt>
      <trkpt lat="45.11849" lon="5.89662">
        <ele>2098.6</ele>
        <time>2021-02-27T05:41:29Z</time>
      </trkpt>
      <trkpt lat="45.1185" lon="5.89665">
        <ele>2099</ele>
        <time>2021-02-27T05:41:30Z</time>
      </trkpt>
      <trkpt lat="45.1185" lon="5.89665">
        <ele>2099.2</ele>
        <time>2021-02-27T05:41:31Z</time>
      </trkpt>
      <trkpt lat="45.11851" lon="5.89667">
        <ele>2099.4</ele>
        <time>2021-02-27T05:41:32Z</time>
      </trkpt>
      <trkpt lat="45.11851" lon="5.89667">
        <ele>2099.6</ele>
        <time>2021-02-27T05:41:33Z</time>
      </trkpt>
      <trkpt lat="45.11853" lon="5.89669">
        <ele>2099.8</ele>
        <time>2021-02-27T05:41:34Z</time>
      </trkpt>
      <trkpt lat="45.11853" lon="5.89669">
        <ele>2100</ele>
        <time>2021-02-27T05:41:35Z</time>
      </trkpt>
      <trkpt lat="45.11854" lon="5.89671">
        <ele>2100</ele>
        <time>2021-02-27T05:41:36Z</time>
      </trkpt>
      <trkpt lat="45.11854" lon="5.89671">
        <ele>2100.2</ele>
        <time>2021-02-27T05:41:37Z</time>
      </trkpt>
      <trkpt lat="45.11857" lon="5.89673">
        <ele>2100.6</ele>
        <time>2021-02-27T05:41:38Z</time>
      </trkpt>
      <trkpt lat="45.11857" lon="5.89673">
        <ele>2100.8</ele>
        <time>2021-02-27T05:41:39Z</time>
      </trkpt>
      <trkpt lat="45.11859" lon="5.89675">
        <ele>2100.8</ele>
        <time>2021-02-27T05:41:40Z</time>
      </trkpt>
      <trkpt lat="45.11859" lon="5.89675">
        <ele>2100.8</ele>
        <time>2021-02-27T05:41:41Z</time>
      </trkpt>
      <trkpt lat="45.11861" lon="5.89676">
        <ele>2100.8</ele>
        <time>2021-02-27T05:41:42Z</time>
      </trkpt>
      <trkpt lat="45.11861" lon="5.89676">
        <ele>2101.2</ele>
        <time>2021-02-27T05:41:43Z</time>
      </trkpt>
      <trkpt lat="45.11863" lon="5.89678">
        <ele>2101.4</ele>
        <time>2021-02-27T05:41:44Z</time>
      </trkpt>
      <trkpt lat="45.11863" lon="5.89678">
        <ele>2101.6</ele>
        <time>2021-02-27T05:41:45Z</time>
      </trkpt>
      <trkpt lat="45.11865" lon="5.8968">
        <ele>2101.6</ele>
        <time>2021-02-27T05:41:46Z</time>
      </trkpt>
      <trkpt lat="45.11865" lon="5.8968">
        <ele>2101.8</ele>
        <time>2021-02-27T05:41:47Z</time>
      </trkpt>
      <trkpt lat="45.11867" lon="5.89682">
        <ele>2101.8</ele>
        <time>2021-02-27T05:41:48Z</time>
      </trkpt>
      <trkpt lat="45.11867" lon="5.89682">
        <ele>2102.2</ele>
        <time>2021-02-27T05:41:49Z</time>
      </trkpt>
      <trkpt lat="45.11869" lon="5.89685">
        <ele>2102.4</ele>
        <time>2021-02-27T05:41:50Z</time>
      </trkpt>
      <trkpt lat="45.11869" lon="5.89685">
        <ele>2103</ele>
        <time>2021-02-27T05:41:51Z</time>
      </trkpt>
      <trkpt lat="45.11869" lon="5.89685">
        <ele>2103.2</ele>
        <time>2021-02-27T05:41:52Z</time>
      </trkpt>
      <trkpt lat="45.11871" lon="5.89688">
        <ele>2103.4</ele>
        <time>2021-02-27T05:41:53Z</time>
      </trkpt>
      <trkpt lat="45.11871" lon="5.89688">
        <ele>2103.6</ele>
        <time>2021-02-27T05:41:54Z</time>
      </trkpt>
      <trkpt lat="45.11872" lon="5.8969">
        <ele>2104</ele>
        <time>2021-02-27T05:41:55Z</time>
      </trkpt>
      <trkpt lat="45.11872" lon="5.8969">
        <ele>2104.2</ele>
        <time>2021-02-27T05:41:56Z</time>
      </trkpt>
      <trkpt lat="45.11874" lon="5.89693">
        <ele>2104.4</ele>
        <time>2021-02-27T05:41:57Z</time>
      </trkpt>
      <trkpt lat="45.11874" lon="5.89693">
        <ele>2104.6</ele>
        <time>2021-02-27T05:41:58Z</time>
      </trkpt>
      <trkpt lat="45.11876" lon="5.89696">
        <ele>2104.6</ele>
        <time>2021-02-27T05:41:59Z</time>
      </trkpt>
      <trkpt lat="45.11876" lon="5.89696">
        <ele>2104.8</ele>
        <time>2021-02-27T05:42:00Z</time>
      </trkpt>
      <trkpt lat="45.11878" lon="5.89698">
        <ele>2105</ele>
        <time>2021-02-27T05:42:01Z</time>
      </trkpt>
      <trkpt lat="45.11878" lon="5.89698">
        <ele>2105.4</ele>
        <time>2021-02-27T05:42:02Z</time>
      </trkpt>
      <trkpt lat="45.11879" lon="5.897">
        <ele>2105.8</ele>
        <time>2021-02-27T05:42:03Z</time>
      </trkpt>
      <trkpt lat="45.11879" lon="5.897">
        <ele>2106.2</ele>
        <time>2021-02-27T05:42:04Z</time>
      </trkpt>
      <trkpt lat="45.1188" lon="5.89703">
        <ele>2106.2</ele>
        <time>2021-02-27T05:42:05Z</time>
      </trkpt>
      <trkpt lat="45.1188" lon="5.89703">
        <ele>2106.4</ele>
        <time>2021-02-27T05:42:06Z</time>
      </trkpt>
      <trkpt lat="45.1188" lon="5.89703">
        <ele>2106.8</ele>
        <time>2021-02-27T05:42:07Z</time>
      </trkpt>
      <trkpt lat="45.11882" lon="5.89705">
        <ele>2107</ele>
        <time>2021-02-27T05:42:08Z</time>
      </trkpt>
      <trkpt lat="45.11882" lon="5.89705">
        <ele>2107.4</ele>
        <time>2021-02-27T05:42:09Z</time>
      </trkpt>
      <trkpt lat="45.11884" lon="5.89706">
        <ele>2107.6</ele>
        <time>2021-02-27T05:42:10Z</time>
      </trkpt>
      <trkpt lat="45.11884" lon="5.89706">
        <ele>2108</ele>
        <time>2021-02-27T05:42:11Z</time>
      </trkpt>
      <trkpt lat="45.11885" lon="5.89708">
        <ele>2108</ele>
        <time>2021-02-27T05:42:12Z</time>
      </trkpt>
      <trkpt lat="45.11885" lon="5.89708">
        <ele>2108.4</ele>
        <time>2021-02-27T05:42:13Z</time>
      </trkpt>
      <trkpt lat="45.11887" lon="5.8971">
        <ele>2108.6</ele>
        <time>2021-02-27T05:42:14Z</time>
      </trkpt>
      <trkpt lat="45.11887" lon="5.8971">
        <ele>2108.6</ele>
        <time>2021-02-27T05:42:15Z</time>
      </trkpt>
      <trkpt lat="45.11889" lon="5.89711">
        <ele>2108.8</ele>
        <time>2021-02-27T05:42:16Z</time>
      </trkpt>
      <trkpt lat="45.11889" lon="5.89711">
        <ele>2109.2</ele>
        <time>2021-02-27T05:42:17Z</time>
      </trkpt>
      <trkpt lat="45.1189" lon="5.89713">
        <ele>2109.4</ele>
        <time>2021-02-27T05:42:18Z</time>
      </trkpt>
      <trkpt lat="45.1189" lon="5.89713">
        <ele>2109.4</ele>
        <time>2021-02-27T05:42:19Z</time>
      </trkpt>
      <trkpt lat="45.11892" lon="5.89714">
        <ele>2109.8</ele>
        <time>2021-02-27T05:42:20Z</time>
      </trkpt>
      <trkpt lat="45.11892" lon="5.89714">
        <ele>2110</ele>
        <time>2021-02-27T05:42:21Z</time>
      </trkpt>
      <trkpt lat="45.11894" lon="5.89716">
        <ele>2110</ele>
        <time>2021-02-27T05:42:22Z</time>
      </trkpt>
      <trkpt lat="45.11894" lon="5.89716">
        <ele>2110</ele>
        <time>2021-02-27T05:42:23Z</time>
      </trkpt>
      <trkpt lat="45.11896" lon="5.89717">
        <ele>2110.2</ele>
        <time>2021-02-27T05:42:24Z</time>
      </trkpt>
      <trkpt lat="45.11896" lon="5.89717">
        <ele>2110.8</ele>
        <time>2021-02-27T05:42:25Z</time>
      </trkpt>
      <trkpt lat="45.11897" lon="5.8972">
        <ele>2110.8</ele>
        <time>2021-02-27T05:42:26Z</time>
      </trkpt>
      <trkpt lat="45.11897" lon="5.8972">
        <ele>2111.2</ele>
        <time>2021-02-27T05:42:27Z</time>
      </trkpt>
      <trkpt lat="45.11899" lon="5.89721">
        <ele>2111.2</ele>
        <time>2021-02-27T05:42:28Z</time>
      </trkpt>
      <trkpt lat="45.11899" lon="5.89721">
        <ele>2111.8</ele>
        <time>2021-02-27T05:42:29Z</time>
      </trkpt>
      <trkpt lat="45.11901" lon="5.89723">
        <ele>2111.8</ele>
        <time>2021-02-27T05:42:30Z</time>
      </trkpt>
      <trkpt lat="45.11901" lon="5.89723">
        <ele>2112</ele>
        <time>2021-02-27T05:42:31Z</time>
      </trkpt>
      <trkpt lat="45.11903" lon="5.89725">
        <ele>2112.4</ele>
        <time>2021-02-27T05:42:32Z</time>
      </trkpt>
      <trkpt lat="45.11903" lon="5.89725">
        <ele>2112.6</ele>
        <time>2021-02-27T05:42:33Z</time>
      </trkpt>
      <trkpt lat="45.11905" lon="5.89726">
        <ele>2112.6</ele>
        <time>2021-02-27T05:42:34Z</time>
      </trkpt>
      <trkpt lat="45.11905" lon="5.89726">
        <ele>2113</ele>
        <time>2021-02-27T05:42:35Z</time>
      </trkpt>
      <trkpt lat="45.11907" lon="5.89727">
        <ele>2113.2</ele>
        <time>2021-02-27T05:42:36Z</time>
      </trkpt>
      <trkpt lat="45.11907" lon="5.89727">
        <ele>2113</ele>
        <time>2021-02-27T05:42:37Z</time>
      </trkpt>
      <trkpt lat="45.11909" lon="5.89729">
        <ele>2113.4</ele>
        <time>2021-02-27T05:42:38Z</time>
      </trkpt>
      <trkpt lat="45.11909" lon="5.89729">
        <ele>2113.6</ele>
        <time>2021-02-27T05:42:39Z</time>
      </trkpt>
      <trkpt lat="45.1191" lon="5.89731">
        <ele>2113.8</ele>
        <time>2021-02-27T05:42:40Z</time>
      </trkpt>
      <trkpt lat="45.1191" lon="5.89731">
        <ele>2113.6</ele>
        <time>2021-02-27T05:42:41Z</time>
      </trkpt>
      <trkpt lat="45.11912" lon="5.89732">
        <ele>2113.8</ele>
        <time>2021-02-27T05:42:42Z</time>
      </trkpt>
      <trkpt lat="45.11912" lon="5.89732">
        <ele>2114.2</ele>
        <time>2021-02-27T05:42:43Z</time>
      </trkpt>
      <trkpt lat="45.11912" lon="5.89732">
        <ele>2114.4</ele>
        <time>2021-02-27T05:42:44Z</time>
      </trkpt>
      <trkpt lat="45.11914" lon="5.89734">
        <ele>2114.4</ele>
        <time>2021-02-27T05:42:45Z</time>
      </trkpt>
      <trkpt lat="45.11914" lon="5.89734">
        <ele>2114.8</ele>
        <time>2021-02-27T05:42:46Z</time>
      </trkpt>
      <trkpt lat="45.11916" lon="5.89735">
        <ele>2115.4</ele>
        <time>2021-02-27T05:42:47Z</time>
      </trkpt>
      <trkpt lat="45.11916" lon="5.89735">
        <ele>2115.8</ele>
        <time>2021-02-27T05:42:48Z</time>
      </trkpt>
      <trkpt lat="45.11916" lon="5.89735">
        <ele>2115.8</ele>
        <time>2021-02-27T05:42:49Z</time>
      </trkpt>
      <trkpt lat="45.11919" lon="5.89736">
        <ele>2116.2</ele>
        <time>2021-02-27T05:42:50Z</time>
      </trkpt>
      <trkpt lat="45.11919" lon="5.89736">
        <ele>2116.4</ele>
        <time>2021-02-27T05:42:51Z</time>
      </trkpt>
      <trkpt lat="45.11921" lon="5.89737">
        <ele>2116.6</ele>
        <time>2021-02-27T05:42:52Z</time>
      </trkpt>
      <trkpt lat="45.11921" lon="5.89737">
        <ele>2116.8</ele>
        <time>2021-02-27T05:42:53Z</time>
      </trkpt>
      <trkpt lat="45.11921" lon="5.89737">
        <ele>2117.2</ele>
        <time>2021-02-27T05:42:54Z</time>
      </trkpt>
      <trkpt lat="45.11923" lon="5.89739">
        <ele>2117.4</ele>
        <time>2021-02-27T05:42:55Z</time>
      </trkpt>
      <trkpt lat="45.11923" lon="5.89739">
        <ele>2117.6</ele>
        <time>2021-02-27T05:42:56Z</time>
      </trkpt>
      <trkpt lat="45.11923" lon="5.89739">
        <ele>2117.8</ele>
        <time>2021-02-27T05:42:57Z</time>
      </trkpt>
      <trkpt lat="45.11925" lon="5.89741">
        <ele>2118</ele>
        <time>2021-02-27T05:42:58Z</time>
      </trkpt>
      <trkpt lat="45.11925" lon="5.89741">
        <ele>2118</ele>
        <time>2021-02-27T05:42:59Z</time>
      </trkpt>
      <trkpt lat="45.11925" lon="5.89741">
        <ele>2118</ele>
        <time>2021-02-27T05:43:00Z</time>
      </trkpt>
      <trkpt lat="45.11927" lon="5.89742">
        <ele>2118.4</ele>
        <time>2021-02-27T05:43:01Z</time>
      </trkpt>
      <trkpt lat="45.11927" lon="5.89742">
        <ele>2118.6</ele>
        <time>2021-02-27T05:43:02Z</time>
      </trkpt>
      <trkpt lat="45.11927" lon="5.89742">
        <ele>2118.6</ele>
        <time>2021-02-27T05:43:03Z</time>
      </trkpt>
      <trkpt lat="45.11929" lon="5.89745">
        <ele>2118.8</ele>
        <time>2021-02-27T05:43:04Z</time>
      </trkpt>
      <trkpt lat="45.11929" lon="5.89745">
        <ele>2119.2</ele>
        <time>2021-02-27T05:43:05Z</time>
      </trkpt>
      <trkpt lat="45.11931" lon="5.89746">
        <ele>2119.2</ele>
        <time>2021-02-27T05:43:06Z</time>
      </trkpt>
      <trkpt lat="45.11931" lon="5.89746">
        <ele>2119.4</ele>
        <time>2021-02-27T05:43:07Z</time>
      </trkpt>
      <trkpt lat="45.11933" lon="5.89747">
        <ele>2119.8</ele>
        <time>2021-02-27T05:43:08Z</time>
      </trkpt>
      <trkpt lat="45.11933" lon="5.89747">
        <ele>2119.8</ele>
        <time>2021-02-27T05:43:09Z</time>
      </trkpt>
      <trkpt lat="45.11936" lon="5.89749">
        <ele>2120</ele>
        <time>2021-02-27T05:43:10Z</time>
      </trkpt>
      <trkpt lat="45.11936" lon="5.89749">
        <ele>2120</ele>
        <time>2021-02-27T05:43:11Z</time>
      </trkpt>
      <trkpt lat="45.11938" lon="5.8975">
        <ele>2120.4</ele>
        <time>2021-02-27T05:43:12Z</time>
      </trkpt>
      <trkpt lat="45.11938" lon="5.8975">
        <ele>2120.2</ele>
        <time>2021-02-27T05:43:13Z</time>
      </trkpt>
      <trkpt lat="45.11941" lon="5.89751">
        <ele>2120.6</ele>
        <time>2021-02-27T05:43:14Z</time>
      </trkpt>
      <trkpt lat="45.11941" lon="5.89751">
        <ele>2120.6</ele>
        <time>2021-02-27T05:43:15Z</time>
      </trkpt>
      <trkpt lat="45.11943" lon="5.89753">
        <ele>2120.8</ele>
        <time>2021-02-27T05:43:16Z</time>
      </trkpt>
      <trkpt lat="45.11943" lon="5.89753">
        <ele>2120.6</ele>
        <time>2021-02-27T05:43:17Z</time>
      </trkpt>
      <trkpt lat="45.11945" lon="5.89754">
        <ele>2120.6</ele>
        <time>2021-02-27T05:43:18Z</time>
      </trkpt>
      <trkpt lat="45.11945" lon="5.89754">
        <ele>2120.8</ele>
        <time>2021-02-27T05:43:19Z</time>
      </trkpt>
      <trkpt lat="45.11948" lon="5.89756">
        <ele>2120.8</ele>
        <time>2021-02-27T05:43:20Z</time>
      </trkpt>
      <trkpt lat="45.11948" lon="5.89756">
        <ele>2121</ele>
        <time>2021-02-27T05:43:21Z</time>
      </trkpt>
      <trkpt lat="45.11949" lon="5.89758">
        <ele>2121.2</ele>
        <time>2021-02-27T05:43:22Z</time>
      </trkpt>
      <trkpt lat="45.11949" lon="5.89758">
        <ele>2121.4</ele>
        <time>2021-02-27T05:43:23Z</time>
      </trkpt>
      <trkpt lat="45.11952" lon="5.8976">
        <ele>2121.6</ele>
        <time>2021-02-27T05:43:24Z</time>
      </trkpt>
      <trkpt lat="45.11952" lon="5.8976">
        <ele>2121.8</ele>
        <time>2021-02-27T05:43:25Z</time>
      </trkpt>
      <trkpt lat="45.11954" lon="5.89761">
        <ele>2121.8</ele>
        <time>2021-02-27T05:43:26Z</time>
      </trkpt>
      <trkpt lat="45.11954" lon="5.89761">
        <ele>2122</ele>
        <time>2021-02-27T05:43:27Z</time>
      </trkpt>
      <trkpt lat="45.11956" lon="5.89763">
        <ele>2122</ele>
        <time>2021-02-27T05:43:28Z</time>
      </trkpt>
      <trkpt lat="45.11956" lon="5.89763">
        <ele>2122.2</ele>
        <time>2021-02-27T05:43:29Z</time>
      </trkpt>
      <trkpt lat="45.11959" lon="5.89765">
        <ele>2122</ele>
        <time>2021-02-27T05:43:30Z</time>
      </trkpt>
      <trkpt lat="45.11959" lon="5.89765">
        <ele>2122.2</ele>
        <time>2021-02-27T05:43:31Z</time>
      </trkpt>
      <trkpt lat="45.11961" lon="5.89767">
        <ele>2122.4</ele>
        <time>2021-02-27T05:43:32Z</time>
      </trkpt>
      <trkpt lat="45.11961" lon="5.89767">
        <ele>2122.6</ele>
        <time>2021-02-27T05:43:33Z</time>
      </trkpt>
      <trkpt lat="45.11965" lon="5.89769">
        <ele>2122.8</ele>
        <time>2021-02-27T05:43:34Z</time>
      </trkpt>
      <trkpt lat="45.11965" lon="5.89769">
        <ele>2122.6</ele>
        <time>2021-02-27T05:43:35Z</time>
      </trkpt>
      <trkpt lat="45.11967" lon="5.89771">
        <ele>2122.6</ele>
        <time>2021-02-27T05:43:36Z</time>
      </trkpt>
      <trkpt lat="45.11967" lon="5.89771">
        <ele>2122.6</ele>
        <time>2021-02-27T05:43:37Z</time>
      </trkpt>
      <trkpt lat="45.11969" lon="5.89774">
        <ele>2122.8</ele>
        <time>2021-02-27T05:43:38Z</time>
      </trkpt>
      <trkpt lat="45.11969" lon="5.89774">
        <ele>2123</ele>
        <time>2021-02-27T05:43:39Z</time>
      </trkpt>
      <trkpt lat="45.11971" lon="5.89776">
        <ele>2123</ele>
        <time>2021-02-27T05:43:40Z</time>
      </trkpt>
      <trkpt lat="45.11971" lon="5.89776">
        <ele>2123.2</ele>
        <time>2021-02-27T05:43:41Z</time>
      </trkpt>
      <trkpt lat="45.11974" lon="5.89778">
        <ele>2123.2</ele>
        <time>2021-02-27T05:43:42Z</time>
      </trkpt>
      <trkpt lat="45.11974" lon="5.89778">
        <ele>2123</ele>
        <time>2021-02-27T05:43:43Z</time>
      </trkpt>
      <trkpt lat="45.11976" lon="5.8978">
        <ele>2123.2</ele>
        <time>2021-02-27T05:43:44Z</time>
      </trkpt>
      <trkpt lat="45.11976" lon="5.8978">
        <ele>2123.2</ele>
        <time>2021-02-27T05:43:45Z</time>
      </trkpt>
      <trkpt lat="45.11978" lon="5.89782">
        <ele>2123.2</ele>
        <time>2021-02-27T05:43:46Z</time>
      </trkpt>
      <trkpt lat="45.11978" lon="5.89782">
        <ele>2123.2</ele>
        <time>2021-02-27T05:43:47Z</time>
      </trkpt>
      <trkpt lat="45.1198" lon="5.89784">
        <ele>2123.2</ele>
        <time>2021-02-27T05:43:48Z</time>
      </trkpt>
      <trkpt lat="45.1198" lon="5.89784">
        <ele>2123.4</ele>
        <time>2021-02-27T05:43:49Z</time>
      </trkpt>
      <trkpt lat="45.11983" lon="5.89786">
        <ele>2123.4</ele>
        <time>2021-02-27T05:43:50Z</time>
      </trkpt>
      <trkpt lat="45.11983" lon="5.89786">
        <ele>2123.8</ele>
        <time>2021-02-27T05:43:51Z</time>
      </trkpt>
      <trkpt lat="45.11985" lon="5.89788">
        <ele>2124</ele>
        <time>2021-02-27T05:43:52Z</time>
      </trkpt>
      <trkpt lat="45.11985" lon="5.89788">
        <ele>2124</ele>
        <time>2021-02-27T05:43:53Z</time>
      </trkpt>
      <trkpt lat="45.11987" lon="5.8979">
        <ele>2123.8</ele>
        <time>2021-02-27T05:43:54Z</time>
      </trkpt>
      <trkpt lat="45.11987" lon="5.8979">
        <ele>2124</ele>
        <time>2021-02-27T05:43:55Z</time>
      </trkpt>
      <trkpt lat="45.11989" lon="5.89792">
        <ele>2124.2</ele>
        <time>2021-02-27T05:43:56Z</time>
      </trkpt>
      <trkpt lat="45.11989" lon="5.89792">
        <ele>2124.4</ele>
        <time>2021-02-27T05:43:57Z</time>
      </trkpt>
      <trkpt lat="45.11991" lon="5.89794">
        <ele>2124.4</ele>
        <time>2021-02-27T05:43:58Z</time>
      </trkpt>
      <trkpt lat="45.11991" lon="5.89794">
        <ele>2124.6</ele>
        <time>2021-02-27T05:43:59Z</time>
      </trkpt>
      <trkpt lat="45.11993" lon="5.89796">
        <ele>2124.6</ele>
        <time>2021-02-27T05:44:00Z</time>
      </trkpt>
      <trkpt lat="45.11993" lon="5.89796">
        <ele>2124.8</ele>
        <time>2021-02-27T05:44:01Z</time>
      </trkpt>
      <trkpt lat="45.11995" lon="5.89798">
        <ele>2124.8</ele>
        <time>2021-02-27T05:44:02Z</time>
      </trkpt>
      <trkpt lat="45.11995" lon="5.89798">
        <ele>2124.8</ele>
        <time>2021-02-27T05:44:03Z</time>
      </trkpt>
      <trkpt lat="45.11998" lon="5.89799">
        <ele>2125.2</ele>
        <time>2021-02-27T05:44:04Z</time>
      </trkpt>
      <trkpt lat="45.11998" lon="5.89799">
        <ele>2125.2</ele>
        <time>2021-02-27T05:44:05Z</time>
      </trkpt>
      <trkpt lat="45.12" lon="5.89801">
        <ele>2125.4</ele>
        <time>2021-02-27T05:44:06Z</time>
      </trkpt>
      <trkpt lat="45.12" lon="5.89801">
        <ele>2125.4</ele>
        <time>2021-02-27T05:44:07Z</time>
      </trkpt>
      <trkpt lat="45.12002" lon="5.89802">
        <ele>2125.4</ele>
        <time>2021-02-27T05:44:08Z</time>
      </trkpt>
      <trkpt lat="45.12002" lon="5.89802">
        <ele>2125.8</ele>
        <time>2021-02-27T05:44:09Z</time>
      </trkpt>
      <trkpt lat="45.12004" lon="5.89804">
        <ele>2126</ele>
        <time>2021-02-27T05:44:10Z</time>
      </trkpt>
      <trkpt lat="45.12004" lon="5.89804">
        <ele>2126</ele>
        <time>2021-02-27T05:44:11Z</time>
      </trkpt>
      <trkpt lat="45.12006" lon="5.89806">
        <ele>2126.2</ele>
        <time>2021-02-27T05:44:12Z</time>
      </trkpt>
      <trkpt lat="45.12006" lon="5.89806">
        <ele>2126.2</ele>
        <time>2021-02-27T05:44:13Z</time>
      </trkpt>
      <trkpt lat="45.12008" lon="5.89809">
        <ele>2126.6</ele>
        <time>2021-02-27T05:44:14Z</time>
      </trkpt>
      <trkpt lat="45.12008" lon="5.89809">
        <ele>2126.4</ele>
        <time>2021-02-27T05:44:15Z</time>
      </trkpt>
      <trkpt lat="45.1201" lon="5.89811">
        <ele>2126.8</ele>
        <time>2021-02-27T05:44:16Z</time>
      </trkpt>
      <trkpt lat="45.1201" lon="5.89811">
        <ele>2126.8</ele>
        <time>2021-02-27T05:44:17Z</time>
      </trkpt>
      <trkpt lat="45.12012" lon="5.89814">
        <ele>2126.8</ele>
        <time>2021-02-27T05:44:18Z</time>
      </trkpt>
      <trkpt lat="45.12012" lon="5.89814">
        <ele>2127</ele>
        <time>2021-02-27T05:44:19Z</time>
      </trkpt>
      <trkpt lat="45.12014" lon="5.89816">
        <ele>2127</ele>
        <time>2021-02-27T05:44:20Z</time>
      </trkpt>
      <trkpt lat="45.12014" lon="5.89816">
        <ele>2127.4</ele>
        <time>2021-02-27T05:44:21Z</time>
      </trkpt>
      <trkpt lat="45.12015" lon="5.89819">
        <ele>2127.6</ele>
        <time>2021-02-27T05:44:22Z</time>
      </trkpt>
      <trkpt lat="45.12015" lon="5.89819">
        <ele>2127.6</ele>
        <time>2021-02-27T05:44:23Z</time>
      </trkpt>
      <trkpt lat="45.12017" lon="5.89822">
        <ele>2128</ele>
        <time>2021-02-27T05:44:24Z</time>
      </trkpt>
      <trkpt lat="45.12017" lon="5.89822">
        <ele>2128</ele>
        <time>2021-02-27T05:44:25Z</time>
      </trkpt>
      <trkpt lat="45.12019" lon="5.89825">
        <ele>2128</ele>
        <time>2021-02-27T05:44:26Z</time>
      </trkpt>
      <trkpt lat="45.12019" lon="5.89825">
        <ele>2128.2</ele>
        <time>2021-02-27T05:44:27Z</time>
      </trkpt>
      <trkpt lat="45.12022" lon="5.89828">
        <ele>2128.2</ele>
        <time>2021-02-27T05:44:28Z</time>
      </trkpt>
      <trkpt lat="45.12022" lon="5.89828">
        <ele>2128.6</ele>
        <time>2021-02-27T05:44:29Z</time>
      </trkpt>
      <trkpt lat="45.12024" lon="5.8983">
        <ele>2128.6</ele>
        <time>2021-02-27T05:44:30Z</time>
      </trkpt>
      <trkpt lat="45.12024" lon="5.8983">
        <ele>2128.8</ele>
        <time>2021-02-27T05:44:31Z</time>
      </trkpt>
      <trkpt lat="45.12026" lon="5.89833">
        <ele>2129</ele>
        <time>2021-02-27T05:44:32Z</time>
      </trkpt>
      <trkpt lat="45.12026" lon="5.89833">
        <ele>2129</ele>
        <time>2021-02-27T05:44:33Z</time>
      </trkpt>
      <trkpt lat="45.12027" lon="5.89836">
        <ele>2129</ele>
        <time>2021-02-27T05:44:34Z</time>
      </trkpt>
      <trkpt lat="45.12027" lon="5.89836">
        <ele>2129</ele>
        <time>2021-02-27T05:44:35Z</time>
      </trkpt>
      <trkpt lat="45.12029" lon="5.89839">
        <ele>2129</ele>
        <time>2021-02-27T05:44:36Z</time>
      </trkpt>
      <trkpt lat="45.12029" lon="5.89839">
        <ele>2129</ele>
        <time>2021-02-27T05:44:37Z</time>
      </trkpt>
      <trkpt lat="45.1203" lon="5.89841">
        <ele>2129.2</ele>
        <time>2021-02-27T05:44:38Z</time>
      </trkpt>
      <trkpt lat="45.1203" lon="5.89841">
        <ele>2129.4</ele>
        <time>2021-02-27T05:44:39Z</time>
      </trkpt>
      <trkpt lat="45.12032" lon="5.89845">
        <ele>2129.6</ele>
        <time>2021-02-27T05:44:40Z</time>
      </trkpt>
      <trkpt lat="45.12032" lon="5.89845">
        <ele>2129.6</ele>
        <time>2021-02-27T05:44:41Z</time>
      </trkpt>
      <trkpt lat="45.12033" lon="5.89847">
        <ele>2129.8</ele>
        <time>2021-02-27T05:44:42Z</time>
      </trkpt>
      <trkpt lat="45.12033" lon="5.89847">
        <ele>2129.8</ele>
        <time>2021-02-27T05:44:43Z</time>
      </trkpt>
      <trkpt lat="45.12035" lon="5.8985">
        <ele>2129.8</ele>
        <time>2021-02-27T05:44:44Z</time>
      </trkpt>
      <trkpt lat="45.12035" lon="5.8985">
        <ele>2129.8</ele>
        <time>2021-02-27T05:44:45Z</time>
      </trkpt>
      <trkpt lat="45.12036" lon="5.89853">
        <ele>2130</ele>
        <time>2021-02-27T05:44:46Z</time>
      </trkpt>
      <trkpt lat="45.12036" lon="5.89853">
        <ele>2130.2</ele>
        <time>2021-02-27T05:44:47Z</time>
      </trkpt>
      <trkpt lat="45.12037" lon="5.89856">
        <ele>2130.2</ele>
        <time>2021-02-27T05:44:48Z</time>
      </trkpt>
      <trkpt lat="45.12037" lon="5.89856">
        <ele>2130.2</ele>
        <time>2021-02-27T05:44:49Z</time>
      </trkpt>
      <trkpt lat="45.12039" lon="5.89859">
        <ele>2130.6</ele>
        <time>2021-02-27T05:44:50Z</time>
      </trkpt>
      <trkpt lat="45.12039" lon="5.89859">
        <ele>2130.8</ele>
        <time>2021-02-27T05:44:51Z</time>
      </trkpt>
      <trkpt lat="45.1204" lon="5.89861">
        <ele>2131.2</ele>
        <time>2021-02-27T05:44:52Z</time>
      </trkpt>
      <trkpt lat="45.1204" lon="5.89861">
        <ele>2131.4</ele>
        <time>2021-02-27T05:44:53Z</time>
      </trkpt>
      <trkpt lat="45.12042" lon="5.89864">
        <ele>2131.4</ele>
        <time>2021-02-27T05:44:54Z</time>
      </trkpt>
      <trkpt lat="45.12042" lon="5.89864">
        <ele>2131.4</ele>
        <time>2021-02-27T05:44:55Z</time>
      </trkpt>
      <trkpt lat="45.12044" lon="5.89868">
        <ele>2131.4</ele>
        <time>2021-02-27T05:44:56Z</time>
      </trkpt>
      <trkpt lat="45.12044" lon="5.89868">
        <ele>2131.6</ele>
        <time>2021-02-27T05:44:57Z</time>
      </trkpt>
      <trkpt lat="45.12045" lon="5.89871">
        <ele>2131.6</ele>
        <time>2021-02-27T05:44:58Z</time>
      </trkpt>
      <trkpt lat="45.12045" lon="5.89871">
        <ele>2131.4</ele>
        <time>2021-02-27T05:44:59Z</time>
      </trkpt>
      <trkpt lat="45.12046" lon="5.89875">
        <ele>2131.4</ele>
        <time>2021-02-27T05:45:00Z</time>
      </trkpt>
      <trkpt lat="45.12046" lon="5.89875">
        <ele>2131.6</ele>
        <time>2021-02-27T05:45:01Z</time>
      </trkpt>
      <trkpt lat="45.12047" lon="5.89876">
        <ele>2131.8</ele>
        <time>2021-02-27T05:45:02Z</time>
      </trkpt>
      <trkpt lat="45.12048" lon="5.89878">
        <ele>2132</ele>
        <time>2021-02-27T05:45:03Z</time>
      </trkpt>
      <trkpt lat="45.12049" lon="5.8988">
        <ele>2132</ele>
        <time>2021-02-27T05:45:04Z</time>
      </trkpt>
      <trkpt lat="45.1205" lon="5.89883">
        <ele>2132</ele>
        <time>2021-02-27T05:45:05Z</time>
      </trkpt>
      <trkpt lat="45.1205" lon="5.89883">
        <ele>2132.2</ele>
        <time>2021-02-27T05:45:06Z</time>
      </trkpt>
      <trkpt lat="45.12051" lon="5.89884">
        <ele>2132.4</ele>
        <time>2021-02-27T05:45:07Z</time>
      </trkpt>
      <trkpt lat="45.12052" lon="5.89886">
        <ele>2132.6</ele>
        <time>2021-02-27T05:45:08Z</time>
      </trkpt>
      <trkpt lat="45.12052" lon="5.89888">
        <ele>2132.4</ele>
        <time>2021-02-27T05:45:09Z</time>
      </trkpt>
      <trkpt lat="45.12053" lon="5.89889">
        <ele>2132.4</ele>
        <time>2021-02-27T05:45:10Z</time>
      </trkpt>
      <trkpt lat="45.12054" lon="5.89891">
        <ele>2132.8</ele>
        <time>2021-02-27T05:45:11Z</time>
      </trkpt>
      <trkpt lat="45.12055" lon="5.89892">
        <ele>2132.8</ele>
        <time>2021-02-27T05:45:12Z</time>
      </trkpt>
      <trkpt lat="45.12056" lon="5.89894">
        <ele>2133</ele>
        <time>2021-02-27T05:45:13Z</time>
      </trkpt>
      <trkpt lat="45.12057" lon="5.89897">
        <ele>2133</ele>
        <time>2021-02-27T05:45:14Z</time>
      </trkpt>
      <trkpt lat="45.12057" lon="5.89897">
        <ele>2133.2</ele>
        <time>2021-02-27T05:45:15Z</time>
      </trkpt>
      <trkpt lat="45.12059" lon="5.89901">
        <ele>2133.4</ele>
        <time>2021-02-27T05:45:16Z</time>
      </trkpt>
      <trkpt lat="45.12059" lon="5.89901">
        <ele>2133.8</ele>
        <time>2021-02-27T05:45:17Z</time>
      </trkpt>
      <trkpt lat="45.1206" lon="5.89904">
        <ele>2133.8</ele>
        <time>2021-02-27T05:45:18Z</time>
      </trkpt>
      <trkpt lat="45.1206" lon="5.89904">
        <ele>2134</ele>
        <time>2021-02-27T05:45:19Z</time>
      </trkpt>
      <trkpt lat="45.12061" lon="5.89906">
        <ele>2134</ele>
        <time>2021-02-27T05:45:20Z</time>
      </trkpt>
      <trkpt lat="45.12061" lon="5.89906">
        <ele>2134</ele>
        <time>2021-02-27T05:45:21Z</time>
      </trkpt>
      <trkpt lat="45.12062" lon="5.8991">
        <ele>2134</ele>
        <time>2021-02-27T05:45:22Z</time>
      </trkpt>
      <trkpt lat="45.12062" lon="5.8991">
        <ele>2134.2</ele>
        <time>2021-02-27T05:45:23Z</time>
      </trkpt>
      <trkpt lat="45.12064" lon="5.89912">
        <ele>2134.2</ele>
        <time>2021-02-27T05:45:24Z</time>
      </trkpt>
      <trkpt lat="45.12064" lon="5.89912">
        <ele>2134.6</ele>
        <time>2021-02-27T05:45:25Z</time>
      </trkpt>
      <trkpt lat="45.12065" lon="5.89913">
        <ele>2134.6</ele>
        <time>2021-02-27T05:45:26Z</time>
      </trkpt>
      <trkpt lat="45.12066" lon="5.89915">
        <ele>2134.8</ele>
        <time>2021-02-27T05:45:27Z</time>
      </trkpt>
      <trkpt lat="45.12066" lon="5.89916">
        <ele>2135.2</ele>
        <time>2021-02-27T05:45:28Z</time>
      </trkpt>
      <trkpt lat="45.12067" lon="5.89917">
        <ele>2135.2</ele>
        <time>2021-02-27T05:45:29Z</time>
      </trkpt>
      <trkpt lat="45.12069" lon="5.8992">
        <ele>2135.6</ele>
        <time>2021-02-27T05:45:30Z</time>
      </trkpt>
      <trkpt lat="45.12069" lon="5.8992">
        <ele>2135.6</ele>
        <time>2021-02-27T05:45:31Z</time>
      </trkpt>
      <trkpt lat="45.12071" lon="5.89923">
        <ele>2135.8</ele>
        <time>2021-02-27T05:45:32Z</time>
      </trkpt>
      <trkpt lat="45.12071" lon="5.89923">
        <ele>2136.2</ele>
        <time>2021-02-27T05:45:33Z</time>
      </trkpt>
      <trkpt lat="45.12074" lon="5.89925">
        <ele>2136.2</ele>
        <time>2021-02-27T05:45:34Z</time>
      </trkpt>
      <trkpt lat="45.12074" lon="5.89925">
        <ele>2136.6</ele>
        <time>2021-02-27T05:45:35Z</time>
      </trkpt>
      <trkpt lat="45.12076" lon="5.89927">
        <ele>2136.6</ele>
        <time>2021-02-27T05:45:36Z</time>
      </trkpt>
      <trkpt lat="45.12076" lon="5.89927">
        <ele>2136.6</ele>
        <time>2021-02-27T05:45:37Z</time>
      </trkpt>
      <trkpt lat="45.12078" lon="5.8993">
        <ele>2136.8</ele>
        <time>2021-02-27T05:45:38Z</time>
      </trkpt>
      <trkpt lat="45.12078" lon="5.8993">
        <ele>2137</ele>
        <time>2021-02-27T05:45:39Z</time>
      </trkpt>
      <trkpt lat="45.12079" lon="5.89933">
        <ele>2137.4</ele>
        <time>2021-02-27T05:45:40Z</time>
      </trkpt>
      <trkpt lat="45.12079" lon="5.89933">
        <ele>2137.6</ele>
        <time>2021-02-27T05:45:41Z</time>
      </trkpt>
      <trkpt lat="45.12081" lon="5.89935">
        <ele>2137.6</ele>
        <time>2021-02-27T05:45:42Z</time>
      </trkpt>
      <trkpt lat="45.12081" lon="5.89935">
        <ele>2137.6</ele>
        <time>2021-02-27T05:45:43Z</time>
      </trkpt>
      <trkpt lat="45.12083" lon="5.89938">
        <ele>2137.8</ele>
        <time>2021-02-27T05:45:44Z</time>
      </trkpt>
      <trkpt lat="45.12083" lon="5.89938">
        <ele>2137.8</ele>
        <time>2021-02-27T05:45:45Z</time>
      </trkpt>
      <trkpt lat="45.12085" lon="5.8994">
        <ele>2138</ele>
        <time>2021-02-27T05:45:46Z</time>
      </trkpt>
      <trkpt lat="45.12085" lon="5.8994">
        <ele>2138.2</ele>
        <time>2021-02-27T05:45:47Z</time>
      </trkpt>
      <trkpt lat="45.12086" lon="5.89942">
        <ele>2138.4</ele>
        <time>2021-02-27T05:45:48Z</time>
      </trkpt>
      <trkpt lat="45.12086" lon="5.89942">
        <ele>2138.4</ele>
        <time>2021-02-27T05:45:49Z</time>
      </trkpt>
      <trkpt lat="45.12088" lon="5.89945">
        <ele>2138.6</ele>
        <time>2021-02-27T05:45:50Z</time>
      </trkpt>
      <trkpt lat="45.12088" lon="5.89945">
        <ele>2138.8</ele>
        <time>2021-02-27T05:45:51Z</time>
      </trkpt>
      <trkpt lat="45.1209" lon="5.89948">
        <ele>2139</ele>
        <time>2021-02-27T05:45:52Z</time>
      </trkpt>
      <trkpt lat="45.1209" lon="5.89948">
        <ele>2139</ele>
        <time>2021-02-27T05:45:53Z</time>
      </trkpt>
      <trkpt lat="45.12092" lon="5.8995">
        <ele>2138.8</ele>
        <time>2021-02-27T05:45:54Z</time>
      </trkpt>
      <trkpt lat="45.12092" lon="5.8995">
        <ele>2138.8</ele>
        <time>2021-02-27T05:45:55Z</time>
      </trkpt>
      <trkpt lat="45.12094" lon="5.89952">
        <ele>2139</ele>
        <time>2021-02-27T05:45:56Z</time>
      </trkpt>
      <trkpt lat="45.12094" lon="5.89952">
        <ele>2139.4</ele>
        <time>2021-02-27T05:45:57Z</time>
      </trkpt>
      <trkpt lat="45.12096" lon="5.89953">
        <ele>2139.2</ele>
        <time>2021-02-27T05:45:58Z</time>
      </trkpt>
      <trkpt lat="45.12096" lon="5.89953">
        <ele>2139.2</ele>
        <time>2021-02-27T05:45:59Z</time>
      </trkpt>
      <trkpt lat="45.12098" lon="5.89955">
        <ele>2139</ele>
        <time>2021-02-27T05:46:00Z</time>
      </trkpt>
      <trkpt lat="45.12098" lon="5.89955">
        <ele>2139.4</ele>
        <time>2021-02-27T05:46:01Z</time>
      </trkpt>
      <trkpt lat="45.121" lon="5.89957">
        <ele>2139.4</ele>
        <time>2021-02-27T05:46:02Z</time>
      </trkpt>
      <trkpt lat="45.121" lon="5.89957">
        <ele>2139.6</ele>
        <time>2021-02-27T05:46:03Z</time>
      </trkpt>
      <trkpt lat="45.12103" lon="5.89958">
        <ele>2139.4</ele>
        <time>2021-02-27T05:46:04Z</time>
      </trkpt>
      <trkpt lat="45.12103" lon="5.89958">
        <ele>2139.4</ele>
        <time>2021-02-27T05:46:05Z</time>
      </trkpt>
      <trkpt lat="45.12106" lon="5.8996">
        <ele>2139.6</ele>
        <time>2021-02-27T05:46:06Z</time>
      </trkpt>
      <trkpt lat="45.12106" lon="5.8996">
        <ele>2139.8</ele>
        <time>2021-02-27T05:46:07Z</time>
      </trkpt>
      <trkpt lat="45.12109" lon="5.89961">
        <ele>2140</ele>
        <time>2021-02-27T05:46:08Z</time>
      </trkpt>
      <trkpt lat="45.12109" lon="5.89961">
        <ele>2140.2</ele>
        <time>2021-02-27T05:46:09Z</time>
      </trkpt>
      <trkpt lat="45.12112" lon="5.89962">
        <ele>2140.2</ele>
        <time>2021-02-27T05:46:10Z</time>
      </trkpt>
      <trkpt lat="45.12112" lon="5.89962">
        <ele>2140.2</ele>
        <time>2021-02-27T05:46:11Z</time>
      </trkpt>
      <trkpt lat="45.12116" lon="5.89964">
        <ele>2140.2</ele>
        <time>2021-02-27T05:46:12Z</time>
      </trkpt>
      <trkpt lat="45.12116" lon="5.89964">
        <ele>2140.4</ele>
        <time>2021-02-27T05:46:13Z</time>
      </trkpt>
      <trkpt lat="45.12118" lon="5.89964">
        <ele>2140.4</ele>
        <time>2021-02-27T05:46:14Z</time>
      </trkpt>
      <trkpt lat="45.12118" lon="5.89964">
        <ele>2140.6</ele>
        <time>2021-02-27T05:46:15Z</time>
      </trkpt>
      <trkpt lat="45.12121" lon="5.89965">
        <ele>2140.8</ele>
        <time>2021-02-27T05:46:16Z</time>
      </trkpt>
      <trkpt lat="45.12121" lon="5.89965">
        <ele>2140.6</ele>
        <time>2021-02-27T05:46:17Z</time>
      </trkpt>
      <trkpt lat="45.12124" lon="5.89967">
        <ele>2140.8</ele>
        <time>2021-02-27T05:46:18Z</time>
      </trkpt>
      <trkpt lat="45.12124" lon="5.89967">
        <ele>2141</ele>
        <time>2021-02-27T05:46:19Z</time>
      </trkpt>
      <trkpt lat="45.12127" lon="5.89968">
        <ele>2141.2</ele>
        <time>2021-02-27T05:46:20Z</time>
      </trkpt>
      <trkpt lat="45.12127" lon="5.89968">
        <ele>2141.4</ele>
        <time>2021-02-27T05:46:21Z</time>
      </trkpt>
      <trkpt lat="45.1213" lon="5.89969">
        <ele>2141.6</ele>
        <time>2021-02-27T05:46:22Z</time>
      </trkpt>
      <trkpt lat="45.1213" lon="5.89969">
        <ele>2141.8</ele>
        <time>2021-02-27T05:46:23Z</time>
      </trkpt>
      <trkpt lat="45.12132" lon="5.8997">
        <ele>2141.8</ele>
        <time>2021-02-27T05:46:24Z</time>
      </trkpt>
      <trkpt lat="45.12132" lon="5.8997">
        <ele>2141.8</ele>
        <time>2021-02-27T05:46:25Z</time>
      </trkpt>
      <trkpt lat="45.12135" lon="5.8997">
        <ele>2142</ele>
        <time>2021-02-27T05:46:26Z</time>
      </trkpt>
      <trkpt lat="45.12135" lon="5.8997">
        <ele>2142</ele>
        <time>2021-02-27T05:46:27Z</time>
      </trkpt>
      <trkpt lat="45.12138" lon="5.8997">
        <ele>2142.4</ele>
        <time>2021-02-27T05:46:28Z</time>
      </trkpt>
      <trkpt lat="45.12138" lon="5.8997">
        <ele>2142.4</ele>
        <time>2021-02-27T05:46:29Z</time>
      </trkpt>
      <trkpt lat="45.1214" lon="5.8997">
        <ele>2142.4</ele>
        <time>2021-02-27T05:46:30Z</time>
      </trkpt>
      <trkpt lat="45.1214" lon="5.8997">
        <ele>2142.4</ele>
        <time>2021-02-27T05:46:31Z</time>
      </trkpt>
      <trkpt lat="45.12143" lon="5.89972">
        <ele>2142.6</ele>
        <time>2021-02-27T05:46:32Z</time>
      </trkpt>
      <trkpt lat="45.12143" lon="5.89972">
        <ele>2143.2</ele>
        <time>2021-02-27T05:46:33Z</time>
      </trkpt>
      <trkpt lat="45.12146" lon="5.89972">
        <ele>2143.6</ele>
        <time>2021-02-27T05:46:34Z</time>
      </trkpt>
      <trkpt lat="45.12146" lon="5.89972">
        <ele>2143.8</ele>
        <time>2021-02-27T05:46:35Z</time>
      </trkpt>
      <trkpt lat="45.12148" lon="5.89973">
        <ele>2143.8</ele>
        <time>2021-02-27T05:46:36Z</time>
      </trkpt>
      <trkpt lat="45.12148" lon="5.89973">
        <ele>2143.6</ele>
        <time>2021-02-27T05:46:37Z</time>
      </trkpt>
      <trkpt lat="45.12151" lon="5.89973">
        <ele>2143.8</ele>
        <time>2021-02-27T05:46:38Z</time>
      </trkpt>
      <trkpt lat="45.12151" lon="5.89973">
        <ele>2144</ele>
        <time>2021-02-27T05:46:39Z</time>
      </trkpt>
      <trkpt lat="45.12153" lon="5.89973">
        <ele>2144</ele>
        <time>2021-02-27T05:46:40Z</time>
      </trkpt>
      <trkpt lat="45.12153" lon="5.89973">
        <ele>2144.2</ele>
        <time>2021-02-27T05:46:41Z</time>
      </trkpt>
      <trkpt lat="45.12156" lon="5.89974">
        <ele>2144.4</ele>
        <time>2021-02-27T05:46:42Z</time>
      </trkpt>
      <trkpt lat="45.12156" lon="5.89974">
        <ele>2144.6</ele>
        <time>2021-02-27T05:46:43Z</time>
      </trkpt>
      <trkpt lat="45.12158" lon="5.89974">
        <ele>2144.8</ele>
        <time>2021-02-27T05:46:44Z</time>
      </trkpt>
      <trkpt lat="45.12158" lon="5.89974">
        <ele>2145</ele>
        <time>2021-02-27T05:46:45Z</time>
      </trkpt>
      <trkpt lat="45.12161" lon="5.89974">
        <ele>2145.2</ele>
        <time>2021-02-27T05:46:46Z</time>
      </trkpt>
      <trkpt lat="45.12161" lon="5.89974">
        <ele>2145.6</ele>
        <time>2021-02-27T05:46:47Z</time>
      </trkpt>
      <trkpt lat="45.12163" lon="5.89974">
        <ele>2145.6</ele>
        <time>2021-02-27T05:46:48Z</time>
      </trkpt>
      <trkpt lat="45.12163" lon="5.89974">
        <ele>2145.4</ele>
        <time>2021-02-27T05:46:49Z</time>
      </trkpt>
      <trkpt lat="45.12166" lon="5.89974">
        <ele>2145.8</ele>
        <time>2021-02-27T05:46:50Z</time>
      </trkpt>
      <trkpt lat="45.12166" lon="5.89974">
        <ele>2145.8</ele>
        <time>2021-02-27T05:46:51Z</time>
      </trkpt>
      <trkpt lat="45.12168" lon="5.89974">
        <ele>2146.2</ele>
        <time>2021-02-27T05:46:52Z</time>
      </trkpt>
      <trkpt lat="45.12168" lon="5.89974">
        <ele>2146.2</ele>
        <time>2021-02-27T05:46:53Z</time>
      </trkpt>
      <trkpt lat="45.12171" lon="5.89974">
        <ele>2146.2</ele>
        <time>2021-02-27T05:46:54Z</time>
      </trkpt>
      <trkpt lat="45.12171" lon="5.89974">
        <ele>2146.6</ele>
        <time>2021-02-27T05:46:55Z</time>
      </trkpt>
      <trkpt lat="45.12174" lon="5.89974">
        <ele>2146.8</ele>
        <time>2021-02-27T05:46:56Z</time>
      </trkpt>
      <trkpt lat="45.12174" lon="5.89974">
        <ele>2147</ele>
        <time>2021-02-27T05:46:57Z</time>
      </trkpt>
      <trkpt lat="45.12177" lon="5.89974">
        <ele>2147</ele>
        <time>2021-02-27T05:46:58Z</time>
      </trkpt>
      <trkpt lat="45.12177" lon="5.89974">
        <ele>2147</ele>
        <time>2021-02-27T05:46:59Z</time>
      </trkpt>
      <trkpt lat="45.1218" lon="5.89975">
        <ele>2147.4</ele>
        <time>2021-02-27T05:47:00Z</time>
      </trkpt>
      <trkpt lat="45.1218" lon="5.89975">
        <ele>2147.6</ele>
        <time>2021-02-27T05:47:01Z</time>
      </trkpt>
      <trkpt lat="45.12182" lon="5.89975">
        <ele>2148</ele>
        <time>2021-02-27T05:47:02Z</time>
      </trkpt>
      <trkpt lat="45.12182" lon="5.89975">
        <ele>2148</ele>
        <time>2021-02-27T05:47:03Z</time>
      </trkpt>
      <trkpt lat="45.12184" lon="5.89976">
        <ele>2147.8</ele>
        <time>2021-02-27T05:47:04Z</time>
      </trkpt>
      <trkpt lat="45.12184" lon="5.89976">
        <ele>2148</ele>
        <time>2021-02-27T05:47:05Z</time>
      </trkpt>
      <trkpt lat="45.12186" lon="5.89976">
        <ele>2148</ele>
        <time>2021-02-27T05:47:06Z</time>
      </trkpt>
      <trkpt lat="45.12186" lon="5.89976">
        <ele>2148</ele>
        <time>2021-02-27T05:47:07Z</time>
      </trkpt>
      <trkpt lat="45.12188" lon="5.89977">
        <ele>2148.4</ele>
        <time>2021-02-27T05:47:08Z</time>
      </trkpt>
      <trkpt lat="45.12188" lon="5.89977">
        <ele>2149</ele>
        <time>2021-02-27T05:47:09Z</time>
      </trkpt>
      <trkpt lat="45.12191" lon="5.89977">
        <ele>2149</ele>
        <time>2021-02-27T05:47:10Z</time>
      </trkpt>
      <trkpt lat="45.12191" lon="5.89977">
        <ele>2149.2</ele>
        <time>2021-02-27T05:47:11Z</time>
      </trkpt>
      <trkpt lat="45.12193" lon="5.89976">
        <ele>2149.6</ele>
        <time>2021-02-27T05:47:12Z</time>
      </trkpt>
      <trkpt lat="45.12193" lon="5.89976">
        <ele>2149.6</ele>
        <time>2021-02-27T05:47:13Z</time>
      </trkpt>
      <trkpt lat="45.12195" lon="5.89976">
        <ele>2149.8</ele>
        <time>2021-02-27T05:47:14Z</time>
      </trkpt>
      <trkpt lat="45.12195" lon="5.89976">
        <ele>2150</ele>
        <time>2021-02-27T05:47:15Z</time>
      </trkpt>
      <trkpt lat="45.12197" lon="5.89976">
        <ele>2150.4</ele>
        <time>2021-02-27T05:47:16Z</time>
      </trkpt>
      <trkpt lat="45.12197" lon="5.89976">
        <ele>2150.4</ele>
        <time>2021-02-27T05:47:17Z</time>
      </trkpt>
      <trkpt lat="45.12199" lon="5.89976">
        <ele>2150.6</ele>
        <time>2021-02-27T05:47:18Z</time>
      </trkpt>
      <trkpt lat="45.12199" lon="5.89976">
        <ele>2151</ele>
        <time>2021-02-27T05:47:19Z</time>
      </trkpt>
      <trkpt lat="45.12199" lon="5.89976">
        <ele>2151.2</ele>
        <time>2021-02-27T05:47:20Z</time>
      </trkpt>
      <trkpt lat="45.12202" lon="5.89977">
        <ele>2151.4</ele>
        <time>2021-02-27T05:47:21Z</time>
      </trkpt>
      <trkpt lat="45.12202" lon="5.89977">
        <ele>2151.2</ele>
        <time>2021-02-27T05:47:22Z</time>
      </trkpt>
      <trkpt lat="45.12205" lon="5.89978">
        <ele>2151.6</ele>
        <time>2021-02-27T05:47:23Z</time>
      </trkpt>
      <trkpt lat="45.12205" lon="5.89978">
        <ele>2152</ele>
        <time>2021-02-27T05:47:24Z</time>
      </trkpt>
      <trkpt lat="45.12207" lon="5.89978">
        <ele>2152.4</ele>
        <time>2021-02-27T05:47:25Z</time>
      </trkpt>
      <trkpt lat="45.12207" lon="5.89978">
        <ele>2152.4</ele>
        <time>2021-02-27T05:47:26Z</time>
      </trkpt>
      <trkpt lat="45.12209" lon="5.89979">
        <ele>2152.6</ele>
        <time>2021-02-27T05:47:27Z</time>
      </trkpt>
      <trkpt lat="45.12209" lon="5.89979">
        <ele>2152.6</ele>
        <time>2021-02-27T05:47:28Z</time>
      </trkpt>
      <trkpt lat="45.12209" lon="5.89979">
        <ele>2152.6</ele>
        <time>2021-02-27T05:47:29Z</time>
      </trkpt>
      <trkpt lat="45.12211" lon="5.8998">
        <ele>2153</ele>
        <time>2021-02-27T05:47:30Z</time>
      </trkpt>
      <trkpt lat="45.12211" lon="5.8998">
        <ele>2153.2</ele>
        <time>2021-02-27T05:47:31Z</time>
      </trkpt>
      <trkpt lat="45.12213" lon="5.89981">
        <ele>2153.4</ele>
        <time>2021-02-27T05:47:32Z</time>
      </trkpt>
      <trkpt lat="45.12213" lon="5.89981">
        <ele>2153.8</ele>
        <time>2021-02-27T05:47:33Z</time>
      </trkpt>
      <trkpt lat="45.12213" lon="5.89981">
        <ele>2153.8</ele>
        <time>2021-02-27T05:47:34Z</time>
      </trkpt>
      <trkpt lat="45.12216" lon="5.89982">
        <ele>2154</ele>
        <time>2021-02-27T05:47:35Z</time>
      </trkpt>
      <trkpt lat="45.12216" lon="5.89982">
        <ele>2154.4</ele>
        <time>2021-02-27T05:47:36Z</time>
      </trkpt>
      <trkpt lat="45.12218" lon="5.89983">
        <ele>2154.8</ele>
        <time>2021-02-27T05:47:37Z</time>
      </trkpt>
      <trkpt lat="45.12218" lon="5.89983">
        <ele>2154.6</ele>
        <time>2021-02-27T05:47:38Z</time>
      </trkpt>
      <trkpt lat="45.12218" lon="5.89983">
        <ele>2155.2</ele>
        <time>2021-02-27T05:47:39Z</time>
      </trkpt>
      <trkpt lat="45.12221" lon="5.89983">
        <ele>2155.6</ele>
        <time>2021-02-27T05:47:40Z</time>
      </trkpt>
      <trkpt lat="45.12221" lon="5.89983">
        <ele>2156</ele>
        <time>2021-02-27T05:47:41Z</time>
      </trkpt>
      <trkpt lat="45.12221" lon="5.89983">
        <ele>2156.4</ele>
        <time>2021-02-27T05:47:42Z</time>
      </trkpt>
      <trkpt lat="45.12223" lon="5.89984">
        <ele>2156.8</ele>
        <time>2021-02-27T05:47:43Z</time>
      </trkpt>
      <trkpt lat="45.12223" lon="5.89984">
        <ele>2157</ele>
        <time>2021-02-27T05:47:44Z</time>
      </trkpt>
      <trkpt lat="45.12223" lon="5.89984">
        <ele>2156.8</ele>
        <time>2021-02-27T05:47:45Z</time>
      </trkpt>
      <trkpt lat="45.12224" lon="5.89985">
        <ele>2157</ele>
        <time>2021-02-27T05:47:46Z</time>
      </trkpt>
      <trkpt lat="45.12224" lon="5.89985">
        <ele>2157.4</ele>
        <time>2021-02-27T05:47:47Z</time>
      </trkpt>
      <trkpt lat="45.12225" lon="5.89986">
        <ele>2158</ele>
        <time>2021-02-27T05:47:48Z</time>
      </trkpt>
      <trkpt lat="45.12226" lon="5.89986">
        <ele>2158</ele>
        <time>2021-02-27T05:47:49Z</time>
      </trkpt>
      <trkpt lat="45.12227" lon="5.89986">
        <ele>2158.4</ele>
        <time>2021-02-27T05:47:50Z</time>
      </trkpt>
      <trkpt lat="45.12228" lon="5.89987">
        <ele>2158.6</ele>
        <time>2021-02-27T05:47:51Z</time>
      </trkpt>
      <trkpt lat="45.12229" lon="5.89987">
        <ele>2159</ele>
        <time>2021-02-27T05:47:52Z</time>
      </trkpt>
      <trkpt lat="45.1223" lon="5.89987">
        <ele>2159.2</ele>
        <time>2021-02-27T05:47:53Z</time>
      </trkpt>
      <trkpt lat="45.1223" lon="5.89987">
        <ele>2159.6</ele>
        <time>2021-02-27T05:47:54Z</time>
      </trkpt>
      <trkpt lat="45.12232" lon="5.89988">
        <ele>2159.8</ele>
        <time>2021-02-27T05:47:55Z</time>
      </trkpt>
      <trkpt lat="45.12232" lon="5.89988">
        <ele>2160</ele>
        <time>2021-02-27T05:47:56Z</time>
      </trkpt>
      <trkpt lat="45.12232" lon="5.89988">
        <ele>2160.4</ele>
        <time>2021-02-27T05:47:57Z</time>
      </trkpt>
      <trkpt lat="45.12234" lon="5.8999">
        <ele>2160.8</ele>
        <time>2021-02-27T05:47:58Z</time>
      </trkpt>
      <trkpt lat="45.12234" lon="5.8999">
        <ele>2161</ele>
        <time>2021-02-27T05:47:59Z</time>
      </trkpt>
      <trkpt lat="45.12236" lon="5.89992">
        <ele>2161.2</ele>
        <time>2021-02-27T05:48:00Z</time>
      </trkpt>
      <trkpt lat="45.12236" lon="5.89992">
        <ele>2161.4</ele>
        <time>2021-02-27T05:48:01Z</time>
      </trkpt>
      <trkpt lat="45.12236" lon="5.89992">
        <ele>2161.6</ele>
        <time>2021-02-27T05:48:02Z</time>
      </trkpt>
      <trkpt lat="45.12239" lon="5.89994">
        <ele>2161.8</ele>
        <time>2021-02-27T05:48:03Z</time>
      </trkpt>
      <trkpt lat="45.12239" lon="5.89994">
        <ele>2162.2</ele>
        <time>2021-02-27T05:48:04Z</time>
      </trkpt>
      <trkpt lat="45.12239" lon="5.89994">
        <ele>2162.6</ele>
        <time>2021-02-27T05:48:05Z</time>
      </trkpt>
      <trkpt lat="45.12241" lon="5.89996">
        <ele>2162.6</ele>
        <time>2021-02-27T05:48:06Z</time>
      </trkpt>
      <trkpt lat="45.12241" lon="5.89996">
        <ele>2163.2</ele>
        <time>2021-02-27T05:48:07Z</time>
      </trkpt>
      <trkpt lat="45.12241" lon="5.89996">
        <ele>2163.4</ele>
        <time>2021-02-27T05:48:08Z</time>
      </trkpt>
      <trkpt lat="45.12243" lon="5.89997">
        <ele>2163.4</ele>
        <time>2021-02-27T05:48:09Z</time>
      </trkpt>
      <trkpt lat="45.12243" lon="5.89997">
        <ele>2164</ele>
        <time>2021-02-27T05:48:10Z</time>
      </trkpt>
      <trkpt lat="45.12243" lon="5.89997">
        <ele>2164.2</ele>
        <time>2021-02-27T05:48:11Z</time>
      </trkpt>
      <trkpt lat="45.12245" lon="5.89999">
        <ele>2164.4</ele>
        <time>2021-02-27T05:48:12Z</time>
      </trkpt>
      <trkpt lat="45.12245" lon="5.89999">
        <ele>2164.6</ele>
        <time>2021-02-27T05:48:13Z</time>
      </trkpt>
      <trkpt lat="45.12248" lon="5.9">
        <ele>2164.8</ele>
        <time>2021-02-27T05:48:14Z</time>
      </trkpt>
      <trkpt lat="45.12248" lon="5.9">
        <ele>2165.2</ele>
        <time>2021-02-27T05:48:15Z</time>
      </trkpt>
      <trkpt lat="45.1225" lon="5.90001">
        <ele>2165.4</ele>
        <time>2021-02-27T05:48:16Z</time>
      </trkpt>
      <trkpt lat="45.1225" lon="5.90001">
        <ele>2165.8</ele>
        <time>2021-02-27T05:48:17Z</time>
      </trkpt>
      <trkpt lat="45.1225" lon="5.90001">
        <ele>2166</ele>
        <time>2021-02-27T05:48:18Z</time>
      </trkpt>
      <trkpt lat="45.12252" lon="5.90001">
        <ele>2166.4</ele>
        <time>2021-02-27T05:48:19Z</time>
      </trkpt>
      <trkpt lat="45.12252" lon="5.90001">
        <ele>2166.4</ele>
        <time>2021-02-27T05:48:20Z</time>
      </trkpt>
      <trkpt lat="45.12253" lon="5.90003">
        <ele>2167</ele>
        <time>2021-02-27T05:48:21Z</time>
      </trkpt>
      <trkpt lat="45.12253" lon="5.90003">
        <ele>2167.4</ele>
        <time>2021-02-27T05:48:22Z</time>
      </trkpt>
      <trkpt lat="45.12255" lon="5.90004">
        <ele>2167.6</ele>
        <time>2021-02-27T05:48:23Z</time>
      </trkpt>
      <trkpt lat="45.12255" lon="5.90004">
        <ele>2167.6</ele>
        <time>2021-02-27T05:48:24Z</time>
      </trkpt>
      <trkpt lat="45.12257" lon="5.90006">
        <ele>2168</ele>
        <time>2021-02-27T05:48:25Z</time>
      </trkpt>
      <trkpt lat="45.12257" lon="5.90006">
        <ele>2168</ele>
        <time>2021-02-27T05:48:26Z</time>
      </trkpt>
      <trkpt lat="45.12257" lon="5.90006">
        <ele>2168.2</ele>
        <time>2021-02-27T05:48:27Z</time>
      </trkpt>
      <trkpt lat="45.12259" lon="5.90008">
        <ele>2168.4</ele>
        <time>2021-02-27T05:48:28Z</time>
      </trkpt>
      <trkpt lat="45.12259" lon="5.90008">
        <ele>2168.6</ele>
        <time>2021-02-27T05:48:29Z</time>
      </trkpt>
      <trkpt lat="45.1226" lon="5.9001">
        <ele>2168.8</ele>
        <time>2021-02-27T05:48:30Z</time>
      </trkpt>
      <trkpt lat="45.1226" lon="5.9001">
        <ele>2169</ele>
        <time>2021-02-27T05:48:31Z</time>
      </trkpt>
      <trkpt lat="45.12262" lon="5.90012">
        <ele>2169</ele>
        <time>2021-02-27T05:48:32Z</time>
      </trkpt>
      <trkpt lat="45.12262" lon="5.90012">
        <ele>2169.4</ele>
        <time>2021-02-27T05:48:33Z</time>
      </trkpt>
      <trkpt lat="45.12263" lon="5.90014">
        <ele>2169.4</ele>
        <time>2021-02-27T05:48:34Z</time>
      </trkpt>
      <trkpt lat="45.12263" lon="5.90014">
        <ele>2169.8</ele>
        <time>2021-02-27T05:48:35Z</time>
      </trkpt>
      <trkpt lat="45.12265" lon="5.90016">
        <ele>2169.8</ele>
        <time>2021-02-27T05:48:36Z</time>
      </trkpt>
      <trkpt lat="45.12265" lon="5.90016">
        <ele>2170</ele>
        <time>2021-02-27T05:48:37Z</time>
      </trkpt>
      <trkpt lat="45.12267" lon="5.90018">
        <ele>2170.2</ele>
        <time>2021-02-27T05:48:38Z</time>
      </trkpt>
      <trkpt lat="45.12267" lon="5.90018">
        <ele>2170.6</ele>
        <time>2021-02-27T05:48:39Z</time>
      </trkpt>
      <trkpt lat="45.12269" lon="5.90019">
        <ele>2170.8</ele>
        <time>2021-02-27T05:48:40Z</time>
      </trkpt>
      <trkpt lat="45.12269" lon="5.90019">
        <ele>2171</ele>
        <time>2021-02-27T05:48:41Z</time>
      </trkpt>
      <trkpt lat="45.12269" lon="5.90019">
        <ele>2171.2</ele>
        <time>2021-02-27T05:48:42Z</time>
      </trkpt>
      <trkpt lat="45.12272" lon="5.90022">
        <ele>2171.6</ele>
        <time>2021-02-27T05:48:43Z</time>
      </trkpt>
      <trkpt lat="45.12272" lon="5.90022">
        <ele>2171.4</ele>
        <time>2021-02-27T05:48:44Z</time>
      </trkpt>
      <trkpt lat="45.12274" lon="5.90024">
        <ele>2171.8</ele>
        <time>2021-02-27T05:48:45Z</time>
      </trkpt>
      <trkpt lat="45.12274" lon="5.90024">
        <ele>2172</ele>
        <time>2021-02-27T05:48:46Z</time>
      </trkpt>
      <trkpt lat="45.12276" lon="5.90025">
        <ele>2172.6</ele>
        <time>2021-02-27T05:48:47Z</time>
      </trkpt>
      <trkpt lat="45.12276" lon="5.90025">
        <ele>2172.4</ele>
        <time>2021-02-27T05:48:48Z</time>
      </trkpt>
      <trkpt lat="45.12278" lon="5.90027">
        <ele>2172.6</ele>
        <time>2021-02-27T05:48:49Z</time>
      </trkpt>
      <trkpt lat="45.12278" lon="5.90027">
        <ele>2173</ele>
        <time>2021-02-27T05:48:50Z</time>
      </trkpt>
      <trkpt lat="45.12279" lon="5.90028">
        <ele>2173.4</ele>
        <time>2021-02-27T05:48:51Z</time>
      </trkpt>
      <trkpt lat="45.12279" lon="5.90028">
        <ele>2173.8</ele>
        <time>2021-02-27T05:48:52Z</time>
      </trkpt>
      <trkpt lat="45.12282" lon="5.90029">
        <ele>2173.6</ele>
        <time>2021-02-27T05:48:53Z</time>
      </trkpt>
      <trkpt lat="45.12282" lon="5.90029">
        <ele>2173.8</ele>
        <time>2021-02-27T05:48:54Z</time>
      </trkpt>
      <trkpt lat="45.12284" lon="5.90031">
        <ele>2173.8</ele>
        <time>2021-02-27T05:48:55Z</time>
      </trkpt>
      <trkpt lat="45.12284" lon="5.90031">
        <ele>2174.4</ele>
        <time>2021-02-27T05:48:56Z</time>
      </trkpt>
      <trkpt lat="45.12286" lon="5.90032">
        <ele>2174.4</ele>
        <time>2021-02-27T05:48:57Z</time>
      </trkpt>
      <trkpt lat="45.12286" lon="5.90032">
        <ele>2174.6</ele>
        <time>2021-02-27T05:48:58Z</time>
      </trkpt>
      <trkpt lat="45.12288" lon="5.90035">
        <ele>2174.8</ele>
        <time>2021-02-27T05:48:59Z</time>
      </trkpt>
      <trkpt lat="45.12288" lon="5.90035">
        <ele>2175.2</ele>
        <time>2021-02-27T05:49:00Z</time>
      </trkpt>
      <trkpt lat="45.1229" lon="5.90036">
        <ele>2175.4</ele>
        <time>2021-02-27T05:49:01Z</time>
      </trkpt>
      <trkpt lat="45.1229" lon="5.90036">
        <ele>2175.2</ele>
        <time>2021-02-27T05:49:02Z</time>
      </trkpt>
      <trkpt lat="45.12292" lon="5.90039">
        <ele>2175.8</ele>
        <time>2021-02-27T05:49:03Z</time>
      </trkpt>
      <trkpt lat="45.12292" lon="5.90039">
        <ele>2176</ele>
        <time>2021-02-27T05:49:04Z</time>
      </trkpt>
      <trkpt lat="45.12294" lon="5.9004">
        <ele>2176.4</ele>
        <time>2021-02-27T05:49:05Z</time>
      </trkpt>
      <trkpt lat="45.12294" lon="5.9004">
        <ele>2176.4</ele>
        <time>2021-02-27T05:49:06Z</time>
      </trkpt>
      <trkpt lat="45.12296" lon="5.90042">
        <ele>2176.6</ele>
        <time>2021-02-27T05:49:07Z</time>
      </trkpt>
      <trkpt lat="45.12296" lon="5.90042">
        <ele>2176.8</ele>
        <time>2021-02-27T05:49:08Z</time>
      </trkpt>
      <trkpt lat="45.12298" lon="5.90044">
        <ele>2177.2</ele>
        <time>2021-02-27T05:49:09Z</time>
      </trkpt>
      <trkpt lat="45.12298" lon="5.90044">
        <ele>2177</ele>
        <time>2021-02-27T05:49:10Z</time>
      </trkpt>
      <trkpt lat="45.123" lon="5.90046">
        <ele>2177.2</ele>
        <time>2021-02-27T05:49:11Z</time>
      </trkpt>
      <trkpt lat="45.123" lon="5.90046">
        <ele>2177.6</ele>
        <time>2021-02-27T05:49:12Z</time>
      </trkpt>
      <trkpt lat="45.12302" lon="5.90048">
        <ele>2178</ele>
        <time>2021-02-27T05:49:13Z</time>
      </trkpt>
      <trkpt lat="45.12302" lon="5.90048">
        <ele>2178.2</ele>
        <time>2021-02-27T05:49:14Z</time>
      </trkpt>
      <trkpt lat="45.12303" lon="5.9005">
        <ele>2178.2</ele>
        <time>2021-02-27T05:49:15Z</time>
      </trkpt>
      <trkpt lat="45.12303" lon="5.9005">
        <ele>2178.4</ele>
        <time>2021-02-27T05:49:16Z</time>
      </trkpt>
      <trkpt lat="45.12305" lon="5.90052">
        <ele>2178.6</ele>
        <time>2021-02-27T05:49:17Z</time>
      </trkpt>
      <trkpt lat="45.12305" lon="5.90052">
        <ele>2178.8</ele>
        <time>2021-02-27T05:49:18Z</time>
      </trkpt>
      <trkpt lat="45.12307" lon="5.90054">
        <ele>2178.8</ele>
        <time>2021-02-27T05:49:19Z</time>
      </trkpt>
      <trkpt lat="45.12307" lon="5.90054">
        <ele>2178.8</ele>
        <time>2021-02-27T05:49:20Z</time>
      </trkpt>
      <trkpt lat="45.1231" lon="5.90057">
        <ele>2179</ele>
        <time>2021-02-27T05:49:21Z</time>
      </trkpt>
      <trkpt lat="45.1231" lon="5.90057">
        <ele>2179.4</ele>
        <time>2021-02-27T05:49:22Z</time>
      </trkpt>
      <trkpt lat="45.12312" lon="5.90058">
        <ele>2179.8</ele>
        <time>2021-02-27T05:49:23Z</time>
      </trkpt>
      <trkpt lat="45.12312" lon="5.90058">
        <ele>2179.6</ele>
        <time>2021-02-27T05:49:24Z</time>
      </trkpt>
      <trkpt lat="45.12314" lon="5.9006">
        <ele>2180</ele>
        <time>2021-02-27T05:49:25Z</time>
      </trkpt>
      <trkpt lat="45.12314" lon="5.9006">
        <ele>2180.2</ele>
        <time>2021-02-27T05:49:26Z</time>
      </trkpt>
      <trkpt lat="45.12315" lon="5.90062">
        <ele>2180.4</ele>
        <time>2021-02-27T05:49:27Z</time>
      </trkpt>
      <trkpt lat="45.12315" lon="5.90062">
        <ele>2180.4</ele>
        <time>2021-02-27T05:49:28Z</time>
      </trkpt>
      <trkpt lat="45.12318" lon="5.90064">
        <ele>2180.4</ele>
        <time>2021-02-27T05:49:29Z</time>
      </trkpt>
      <trkpt lat="45.12318" lon="5.90064">
        <ele>2180.6</ele>
        <time>2021-02-27T05:49:30Z</time>
      </trkpt>
      <trkpt lat="45.1232" lon="5.90066">
        <ele>2181</ele>
        <time>2021-02-27T05:49:31Z</time>
      </trkpt>
      <trkpt lat="45.1232" lon="5.90066">
        <ele>2181</ele>
        <time>2021-02-27T05:49:32Z</time>
      </trkpt>
      <trkpt lat="45.12321" lon="5.90068">
        <ele>2181.2</ele>
        <time>2021-02-27T05:49:33Z</time>
      </trkpt>
      <trkpt lat="45.12321" lon="5.90068">
        <ele>2181.6</ele>
        <time>2021-02-27T05:49:34Z</time>
      </trkpt>
      <trkpt lat="45.12323" lon="5.90069">
        <ele>2181.8</ele>
        <time>2021-02-27T05:49:35Z</time>
      </trkpt>
      <trkpt lat="45.12323" lon="5.90069">
        <ele>2182</ele>
        <time>2021-02-27T05:49:36Z</time>
      </trkpt>
      <trkpt lat="45.12325" lon="5.90071">
        <ele>2182.2</ele>
        <time>2021-02-27T05:49:37Z</time>
      </trkpt>
      <trkpt lat="45.12325" lon="5.90071">
        <ele>2182</ele>
        <time>2021-02-27T05:49:38Z</time>
      </trkpt>
      <trkpt lat="45.12327" lon="5.90073">
        <ele>2182.4</ele>
        <time>2021-02-27T05:49:39Z</time>
      </trkpt>
      <trkpt lat="45.12327" lon="5.90073">
        <ele>2182.6</ele>
        <time>2021-02-27T05:49:40Z</time>
      </trkpt>
      <trkpt lat="45.12329" lon="5.90075">
        <ele>2183</ele>
        <time>2021-02-27T05:49:41Z</time>
      </trkpt>
      <trkpt lat="45.12329" lon="5.90075">
        <ele>2183</ele>
        <time>2021-02-27T05:49:42Z</time>
      </trkpt>
      <trkpt lat="45.12331" lon="5.90077">
        <ele>2183.2</ele>
        <time>2021-02-27T05:49:43Z</time>
      </trkpt>
      <trkpt lat="45.12331" lon="5.90077">
        <ele>2183.4</ele>
        <time>2021-02-27T05:49:44Z</time>
      </trkpt>
      <trkpt lat="45.12333" lon="5.90079">
        <ele>2183.6</ele>
        <time>2021-02-27T05:49:45Z</time>
      </trkpt>
      <trkpt lat="45.12333" lon="5.90079">
        <ele>2183.4</ele>
        <time>2021-02-27T05:49:46Z</time>
      </trkpt>
      <trkpt lat="45.12334" lon="5.90081">
        <ele>2183.6</ele>
        <time>2021-02-27T05:49:47Z</time>
      </trkpt>
      <trkpt lat="45.12334" lon="5.90081">
        <ele>2184.2</ele>
        <time>2021-02-27T05:49:48Z</time>
      </trkpt>
      <trkpt lat="45.12336" lon="5.90083">
        <ele>2184.6</ele>
        <time>2021-02-27T05:49:49Z</time>
      </trkpt>
      <trkpt lat="45.12336" lon="5.90083">
        <ele>2184.6</ele>
        <time>2021-02-27T05:49:50Z</time>
      </trkpt>
      <trkpt lat="45.12336" lon="5.90083">
        <ele>2185.2</ele>
        <time>2021-02-27T05:49:51Z</time>
      </trkpt>
      <trkpt lat="45.12338" lon="5.90086">
        <ele>2185.2</ele>
        <time>2021-02-27T05:49:52Z</time>
      </trkpt>
      <trkpt lat="45.12338" lon="5.90086">
        <ele>2185.4</ele>
        <time>2021-02-27T05:49:53Z</time>
      </trkpt>
      <trkpt lat="45.1234" lon="5.90087">
        <ele>2185.8</ele>
        <time>2021-02-27T05:49:54Z</time>
      </trkpt>
      <trkpt lat="45.1234" lon="5.90087">
        <ele>2186</ele>
        <time>2021-02-27T05:49:55Z</time>
      </trkpt>
      <trkpt lat="45.12342" lon="5.90089">
        <ele>2186</ele>
        <time>2021-02-27T05:49:56Z</time>
      </trkpt>
      <trkpt lat="45.12342" lon="5.90089">
        <ele>2186.2</ele>
        <time>2021-02-27T05:49:57Z</time>
      </trkpt>
      <trkpt lat="45.12344" lon="5.90091">
        <ele>2186.4</ele>
        <time>2021-02-27T05:49:58Z</time>
      </trkpt>
      <trkpt lat="45.12344" lon="5.90091">
        <ele>2186.8</ele>
        <time>2021-02-27T05:49:59Z</time>
      </trkpt>
      <trkpt lat="45.12347" lon="5.90093">
        <ele>2186.8</ele>
        <time>2021-02-27T05:50:00Z</time>
      </trkpt>
      <trkpt lat="45.12347" lon="5.90093">
        <ele>2187</ele>
        <time>2021-02-27T05:50:01Z</time>
      </trkpt>
      <trkpt lat="45.12349" lon="5.90095">
        <ele>2186.8</ele>
        <time>2021-02-27T05:50:02Z</time>
      </trkpt>
      <trkpt lat="45.12349" lon="5.90095">
        <ele>2187</ele>
        <time>2021-02-27T05:50:03Z</time>
      </trkpt>
      <trkpt lat="45.12351" lon="5.90097">
        <ele>2187.2</ele>
        <time>2021-02-27T05:50:04Z</time>
      </trkpt>
      <trkpt lat="45.12351" lon="5.90097">
        <ele>2187.4</ele>
        <time>2021-02-27T05:50:05Z</time>
      </trkpt>
      <trkpt lat="45.12353" lon="5.90099">
        <ele>2187.6</ele>
        <time>2021-02-27T05:50:06Z</time>
      </trkpt>
      <trkpt lat="45.12353" lon="5.90099">
        <ele>2187.8</ele>
        <time>2021-02-27T05:50:07Z</time>
      </trkpt>
      <trkpt lat="45.12354" lon="5.901">
        <ele>2188</ele>
        <time>2021-02-27T05:50:08Z</time>
      </trkpt>
      <trkpt lat="45.12354" lon="5.901">
        <ele>2188.2</ele>
        <time>2021-02-27T05:50:09Z</time>
      </trkpt>
      <trkpt lat="45.12356" lon="5.90102">
        <ele>2188.2</ele>
        <time>2021-02-27T05:50:10Z</time>
      </trkpt>
      <trkpt lat="45.12356" lon="5.90102">
        <ele>2188.4</ele>
        <time>2021-02-27T05:50:11Z</time>
      </trkpt>
      <trkpt lat="45.12358" lon="5.90104">
        <ele>2188.8</ele>
        <time>2021-02-27T05:50:12Z</time>
      </trkpt>
      <trkpt lat="45.12358" lon="5.90104">
        <ele>2189</ele>
        <time>2021-02-27T05:50:13Z</time>
      </trkpt>
      <trkpt lat="45.1236" lon="5.90106">
        <ele>2189.4</ele>
        <time>2021-02-27T05:50:14Z</time>
      </trkpt>
      <trkpt lat="45.1236" lon="5.90106">
        <ele>2189.6</ele>
        <time>2021-02-27T05:50:15Z</time>
      </trkpt>
      <trkpt lat="45.12362" lon="5.90107">
        <ele>2189.8</ele>
        <time>2021-02-27T05:50:16Z</time>
      </trkpt>
      <trkpt lat="45.12362" lon="5.90107">
        <ele>2190.2</ele>
        <time>2021-02-27T05:50:17Z</time>
      </trkpt>
      <trkpt lat="45.12363" lon="5.90109">
        <ele>2190.4</ele>
        <time>2021-02-27T05:50:18Z</time>
      </trkpt>
      <trkpt lat="45.12363" lon="5.90109">
        <ele>2190.8</ele>
        <time>2021-02-27T05:50:19Z</time>
      </trkpt>
      <trkpt lat="45.12363" lon="5.90109">
        <ele>2191</ele>
        <time>2021-02-27T05:50:20Z</time>
      </trkpt>
      <trkpt lat="45.12365" lon="5.90112">
        <ele>2191.2</ele>
        <time>2021-02-27T05:50:21Z</time>
      </trkpt>
      <trkpt lat="45.12365" lon="5.90112">
        <ele>2191.2</ele>
        <time>2021-02-27T05:50:22Z</time>
      </trkpt>
      <trkpt lat="45.12367" lon="5.90114">
        <ele>2191.4</ele>
        <time>2021-02-27T05:50:23Z</time>
      </trkpt>
      <trkpt lat="45.12367" lon="5.90114">
        <ele>2191.6</ele>
        <time>2021-02-27T05:50:24Z</time>
      </trkpt>
      <trkpt lat="45.12367" lon="5.90114">
        <ele>2191.8</ele>
        <time>2021-02-27T05:50:25Z</time>
      </trkpt>
      <trkpt lat="45.12369" lon="5.90116">
        <ele>2191.8</ele>
        <time>2021-02-27T05:50:26Z</time>
      </trkpt>
      <trkpt lat="45.12369" lon="5.90116">
        <ele>2191.8</ele>
        <time>2021-02-27T05:50:27Z</time>
      </trkpt>
      <trkpt lat="45.12372" lon="5.90118">
        <ele>2192</ele>
        <time>2021-02-27T05:50:28Z</time>
      </trkpt>
      <trkpt lat="45.12372" lon="5.90118">
        <ele>2192.4</ele>
        <time>2021-02-27T05:50:29Z</time>
      </trkpt>
      <trkpt lat="45.12373" lon="5.9012">
        <ele>2192.8</ele>
        <time>2021-02-27T05:50:30Z</time>
      </trkpt>
      <trkpt lat="45.12373" lon="5.9012">
        <ele>2192.6</ele>
        <time>2021-02-27T05:50:31Z</time>
      </trkpt>
      <trkpt lat="45.12375" lon="5.90122">
        <ele>2193</ele>
        <time>2021-02-27T05:50:32Z</time>
      </trkpt>
      <trkpt lat="45.12375" lon="5.90122">
        <ele>2193.4</ele>
        <time>2021-02-27T05:50:33Z</time>
      </trkpt>
      <trkpt lat="45.12377" lon="5.90124">
        <ele>2193.4</ele>
        <time>2021-02-27T05:50:34Z</time>
      </trkpt>
      <trkpt lat="45.12377" lon="5.90124">
        <ele>2193.8</ele>
        <time>2021-02-27T05:50:35Z</time>
      </trkpt>
      <trkpt lat="45.12378" lon="5.90126">
        <ele>2194.2</ele>
        <time>2021-02-27T05:50:36Z</time>
      </trkpt>
      <trkpt lat="45.12378" lon="5.90126">
        <ele>2194.4</ele>
        <time>2021-02-27T05:50:37Z</time>
      </trkpt>
      <trkpt lat="45.12378" lon="5.90126">
        <ele>2195</ele>
        <time>2021-02-27T05:50:38Z</time>
      </trkpt>
      <trkpt lat="45.1238" lon="5.90129">
        <ele>2195</ele>
        <time>2021-02-27T05:50:39Z</time>
      </trkpt>
      <trkpt lat="45.1238" lon="5.90129">
        <ele>2195.2</ele>
        <time>2021-02-27T05:50:40Z</time>
      </trkpt>
      <trkpt lat="45.12381" lon="5.9013">
        <ele>2195.6</ele>
        <time>2021-02-27T05:50:41Z</time>
      </trkpt>
      <trkpt lat="45.12381" lon="5.9013">
        <ele>2195.8</ele>
        <time>2021-02-27T05:50:42Z</time>
      </trkpt>
      <trkpt lat="45.12383" lon="5.90133">
        <ele>2196</ele>
        <time>2021-02-27T05:50:43Z</time>
      </trkpt>
      <trkpt lat="45.12383" lon="5.90133">
        <ele>2196</ele>
        <time>2021-02-27T05:50:44Z</time>
      </trkpt>
      <trkpt lat="45.12383" lon="5.90133">
        <ele>2196.4</ele>
        <time>2021-02-27T05:50:45Z</time>
      </trkpt>
      <trkpt lat="45.12385" lon="5.90135">
        <ele>2196.4</ele>
        <time>2021-02-27T05:50:46Z</time>
      </trkpt>
      <trkpt lat="45.12385" lon="5.90135">
        <ele>2196.8</ele>
        <time>2021-02-27T05:50:47Z</time>
      </trkpt>
      <trkpt lat="45.12387" lon="5.90137">
        <ele>2197</ele>
        <time>2021-02-27T05:50:48Z</time>
      </trkpt>
      <trkpt lat="45.12387" lon="5.90137">
        <ele>2197.2</ele>
        <time>2021-02-27T05:50:49Z</time>
      </trkpt>
      <trkpt lat="45.12387" lon="5.90137">
        <ele>2197.2</ele>
        <time>2021-02-27T05:50:50Z</time>
      </trkpt>
      <trkpt lat="45.12389" lon="5.90139">
        <ele>2197.8</ele>
        <time>2021-02-27T05:50:51Z</time>
      </trkpt>
      <trkpt lat="45.12389" lon="5.90139">
        <ele>2198.2</ele>
        <time>2021-02-27T05:50:52Z</time>
      </trkpt>
      <trkpt lat="45.12391" lon="5.90141">
        <ele>2198.6</ele>
        <time>2021-02-27T05:50:53Z</time>
      </trkpt>
      <trkpt lat="45.12391" lon="5.90141">
        <ele>2199</ele>
        <time>2021-02-27T05:50:54Z</time>
      </trkpt>
      <trkpt lat="45.12393" lon="5.90143">
        <ele>2199.2</ele>
        <time>2021-02-27T05:50:55Z</time>
      </trkpt>
      <trkpt lat="45.12393" lon="5.90143">
        <ele>2199.6</ele>
        <time>2021-02-27T05:50:56Z</time>
      </trkpt>
      <trkpt lat="45.12395" lon="5.90145">
        <ele>2199.8</ele>
        <time>2021-02-27T05:50:57Z</time>
      </trkpt>
      <trkpt lat="45.12395" lon="5.90145">
        <ele>2199.8</ele>
        <time>2021-02-27T05:50:58Z</time>
      </trkpt>
      <trkpt lat="45.12396" lon="5.90147">
        <ele>2200</ele>
        <time>2021-02-27T05:50:59Z</time>
      </trkpt>
      <trkpt lat="45.12396" lon="5.90147">
        <ele>2200</ele>
        <time>2021-02-27T05:51:00Z</time>
      </trkpt>
      <trkpt lat="45.12398" lon="5.90149">
        <ele>2200.2</ele>
        <time>2021-02-27T05:51:01Z</time>
      </trkpt>
      <trkpt lat="45.12398" lon="5.90149">
        <ele>2200.8</ele>
        <time>2021-02-27T05:51:02Z</time>
      </trkpt>
      <trkpt lat="45.124" lon="5.90152">
        <ele>2201</ele>
        <time>2021-02-27T05:51:03Z</time>
      </trkpt>
      <trkpt lat="45.124" lon="5.90152">
        <ele>2201.2</ele>
        <time>2021-02-27T05:51:04Z</time>
      </trkpt>
      <trkpt lat="45.12402" lon="5.90154">
        <ele>2201.4</ele>
        <time>2021-02-27T05:51:05Z</time>
      </trkpt>
      <trkpt lat="45.12402" lon="5.90154">
        <ele>2201.4</ele>
        <time>2021-02-27T05:51:06Z</time>
      </trkpt>
      <trkpt lat="45.12403" lon="5.90157">
        <ele>2202.2</ele>
        <time>2021-02-27T05:51:07Z</time>
      </trkpt>
      <trkpt lat="45.12403" lon="5.90157">
        <ele>2202.2</ele>
        <time>2021-02-27T05:51:08Z</time>
      </trkpt>
      <trkpt lat="45.12405" lon="5.90159">
        <ele>2202.2</ele>
        <time>2021-02-27T05:51:09Z</time>
      </trkpt>
      <trkpt lat="45.12405" lon="5.90159">
        <ele>2202.8</ele>
        <time>2021-02-27T05:51:10Z</time>
      </trkpt>
      <trkpt lat="45.12407" lon="5.90161">
        <ele>2202.8</ele>
        <time>2021-02-27T05:51:11Z</time>
      </trkpt>
      <trkpt lat="45.12407" lon="5.90161">
        <ele>2203</ele>
        <time>2021-02-27T05:51:12Z</time>
      </trkpt>
      <trkpt lat="45.12409" lon="5.90162">
        <ele>2203</ele>
        <time>2021-02-27T05:51:13Z</time>
      </trkpt>
      <trkpt lat="45.12409" lon="5.90162">
        <ele>2203</ele>
        <time>2021-02-27T05:51:14Z</time>
      </trkpt>
      <trkpt lat="45.1241" lon="5.90164">
        <ele>2203</ele>
        <time>2021-02-27T05:51:15Z</time>
      </trkpt>
      <trkpt lat="45.1241" lon="5.90164">
        <ele>2203.4</ele>
        <time>2021-02-27T05:51:16Z</time>
      </trkpt>
      <trkpt lat="45.12412" lon="5.90166">
        <ele>2203.4</ele>
        <time>2021-02-27T05:51:17Z</time>
      </trkpt>
      <trkpt lat="45.12412" lon="5.90166">
        <ele>2204</ele>
        <time>2021-02-27T05:51:18Z</time>
      </trkpt>
      <trkpt lat="45.12414" lon="5.90168">
        <ele>2204</ele>
        <time>2021-02-27T05:51:19Z</time>
      </trkpt>
      <trkpt lat="45.12414" lon="5.90168">
        <ele>2204</ele>
        <time>2021-02-27T05:51:20Z</time>
      </trkpt>
      <trkpt lat="45.12414" lon="5.90168">
        <ele>2204.4</ele>
        <time>2021-02-27T05:51:21Z</time>
      </trkpt>
      <trkpt lat="45.12415" lon="5.90171">
        <ele>2204.6</ele>
        <time>2021-02-27T05:51:22Z</time>
      </trkpt>
      <trkpt lat="45.12415" lon="5.90171">
        <ele>2204.8</ele>
        <time>2021-02-27T05:51:23Z</time>
      </trkpt>
      <trkpt lat="45.12417" lon="5.90174">
        <ele>2205</ele>
        <time>2021-02-27T05:51:24Z</time>
      </trkpt>
      <trkpt lat="45.12417" lon="5.90174">
        <ele>2205</ele>
        <time>2021-02-27T05:51:25Z</time>
      </trkpt>
      <trkpt lat="45.12419" lon="5.90176">
        <ele>2205</ele>
        <time>2021-02-27T05:51:26Z</time>
      </trkpt>
      <trkpt lat="45.12419" lon="5.90176">
        <ele>2205.2</ele>
        <time>2021-02-27T05:51:27Z</time>
      </trkpt>
      <trkpt lat="45.12421" lon="5.90178">
        <ele>2205</ele>
        <time>2021-02-27T05:51:28Z</time>
      </trkpt>
      <trkpt lat="45.12421" lon="5.90178">
        <ele>2205.2</ele>
        <time>2021-02-27T05:51:29Z</time>
      </trkpt>
      <trkpt lat="45.12423" lon="5.9018">
        <ele>2205.6</ele>
        <time>2021-02-27T05:51:30Z</time>
      </trkpt>
      <trkpt lat="45.12423" lon="5.9018">
        <ele>2205.6</ele>
        <time>2021-02-27T05:51:31Z</time>
      </trkpt>
      <trkpt lat="45.12425" lon="5.90183">
        <ele>2206</ele>
        <time>2021-02-27T05:51:32Z</time>
      </trkpt>
      <trkpt lat="45.12425" lon="5.90183">
        <ele>2206</ele>
        <time>2021-02-27T05:51:33Z</time>
      </trkpt>
      <trkpt lat="45.12426" lon="5.90185">
        <ele>2206.4</ele>
        <time>2021-02-27T05:51:34Z</time>
      </trkpt>
      <trkpt lat="45.12426" lon="5.90185">
        <ele>2206.8</ele>
        <time>2021-02-27T05:51:35Z</time>
      </trkpt>
      <trkpt lat="45.12428" lon="5.90187">
        <ele>2207</ele>
        <time>2021-02-27T05:51:36Z</time>
      </trkpt>
      <trkpt lat="45.12428" lon="5.90187">
        <ele>2207</ele>
        <time>2021-02-27T05:51:37Z</time>
      </trkpt>
      <trkpt lat="45.1243" lon="5.90189">
        <ele>2207.6</ele>
        <time>2021-02-27T05:51:38Z</time>
      </trkpt>
      <trkpt lat="45.1243" lon="5.90189">
        <ele>2207.6</ele>
        <time>2021-02-27T05:51:39Z</time>
      </trkpt>
      <trkpt lat="45.12432" lon="5.90191">
        <ele>2207.8</ele>
        <time>2021-02-27T05:51:40Z</time>
      </trkpt>
      <trkpt lat="45.12432" lon="5.90191">
        <ele>2208</ele>
        <time>2021-02-27T05:51:41Z</time>
      </trkpt>
      <trkpt lat="45.12434" lon="5.90193">
        <ele>2208.6</ele>
        <time>2021-02-27T05:51:42Z</time>
      </trkpt>
      <trkpt lat="45.12434" lon="5.90193">
        <ele>2208.4</ele>
        <time>2021-02-27T05:51:43Z</time>
      </trkpt>
      <trkpt lat="45.12435" lon="5.90195">
        <ele>2208.6</ele>
        <time>2021-02-27T05:51:44Z</time>
      </trkpt>
      <trkpt lat="45.12435" lon="5.90195">
        <ele>2208.6</ele>
        <time>2021-02-27T05:51:45Z</time>
      </trkpt>
      <trkpt lat="45.12436" lon="5.90198">
        <ele>2208.6</ele>
        <time>2021-02-27T05:51:46Z</time>
      </trkpt>
      <trkpt lat="45.12436" lon="5.90198">
        <ele>2209</ele>
        <time>2021-02-27T05:51:47Z</time>
      </trkpt>
      <trkpt lat="45.12438" lon="5.90199">
        <ele>2209</ele>
        <time>2021-02-27T05:51:48Z</time>
      </trkpt>
      <trkpt lat="45.12438" lon="5.90199">
        <ele>2209.4</ele>
        <time>2021-02-27T05:51:49Z</time>
      </trkpt>
      <trkpt lat="45.12439" lon="5.90202">
        <ele>2209.4</ele>
        <time>2021-02-27T05:51:50Z</time>
      </trkpt>
      <trkpt lat="45.12439" lon="5.90202">
        <ele>2209.6</ele>
        <time>2021-02-27T05:51:51Z</time>
      </trkpt>
      <trkpt lat="45.12441" lon="5.90204">
        <ele>2209.8</ele>
        <time>2021-02-27T05:51:52Z</time>
      </trkpt>
      <trkpt lat="45.12441" lon="5.90204">
        <ele>2210.2</ele>
        <time>2021-02-27T05:51:53Z</time>
      </trkpt>
      <trkpt lat="45.12443" lon="5.90206">
        <ele>2210.2</ele>
        <time>2021-02-27T05:51:54Z</time>
      </trkpt>
      <trkpt lat="45.12443" lon="5.90206">
        <ele>2210.4</ele>
        <time>2021-02-27T05:51:55Z</time>
      </trkpt>
      <trkpt lat="45.12445" lon="5.90208">
        <ele>2210.6</ele>
        <time>2021-02-27T05:51:56Z</time>
      </trkpt>
      <trkpt lat="45.12445" lon="5.90208">
        <ele>2211.2</ele>
        <time>2021-02-27T05:51:57Z</time>
      </trkpt>
      <trkpt lat="45.12447" lon="5.90211">
        <ele>2211.2</ele>
        <time>2021-02-27T05:51:58Z</time>
      </trkpt>
      <trkpt lat="45.12447" lon="5.90211">
        <ele>2211.4</ele>
        <time>2021-02-27T05:51:59Z</time>
      </trkpt>
      <trkpt lat="45.12448" lon="5.90213">
        <ele>2211.6</ele>
        <time>2021-02-27T05:52:00Z</time>
      </trkpt>
      <trkpt lat="45.12448" lon="5.90213">
        <ele>2212</ele>
        <time>2021-02-27T05:52:01Z</time>
      </trkpt>
      <trkpt lat="45.12449" lon="5.90216">
        <ele>2211.8</ele>
        <time>2021-02-27T05:52:02Z</time>
      </trkpt>
      <trkpt lat="45.12449" lon="5.90216">
        <ele>2212</ele>
        <time>2021-02-27T05:52:03Z</time>
      </trkpt>
      <trkpt lat="45.12451" lon="5.90218">
        <ele>2212.2</ele>
        <time>2021-02-27T05:52:04Z</time>
      </trkpt>
      <trkpt lat="45.12451" lon="5.90218">
        <ele>2212.8</ele>
        <time>2021-02-27T05:52:05Z</time>
      </trkpt>
      <trkpt lat="45.12452" lon="5.9022">
        <ele>2212.8</ele>
        <time>2021-02-27T05:52:06Z</time>
      </trkpt>
      <trkpt lat="45.12452" lon="5.9022">
        <ele>2212.6</ele>
        <time>2021-02-27T05:52:07Z</time>
      </trkpt>
      <trkpt lat="45.12454" lon="5.90223">
        <ele>2213.2</ele>
        <time>2021-02-27T05:52:08Z</time>
      </trkpt>
      <trkpt lat="45.12454" lon="5.90223">
        <ele>2213.4</ele>
        <time>2021-02-27T05:52:09Z</time>
      </trkpt>
      <trkpt lat="45.12455" lon="5.90226">
        <ele>2213.6</ele>
        <time>2021-02-27T05:52:10Z</time>
      </trkpt>
      <trkpt lat="45.12455" lon="5.90226">
        <ele>2213.4</ele>
        <time>2021-02-27T05:52:11Z</time>
      </trkpt>
      <trkpt lat="45.12457" lon="5.90228">
        <ele>2213.6</ele>
        <time>2021-02-27T05:52:12Z</time>
      </trkpt>
      <trkpt lat="45.12457" lon="5.90228">
        <ele>2213.6</ele>
        <time>2021-02-27T05:52:13Z</time>
      </trkpt>
      <trkpt lat="45.12457" lon="5.90228">
        <ele>2214</ele>
        <time>2021-02-27T05:52:14Z</time>
      </trkpt>
      <trkpt lat="45.12458" lon="5.90231">
        <ele>2214.4</ele>
        <time>2021-02-27T05:52:15Z</time>
      </trkpt>
      <trkpt lat="45.12458" lon="5.90231">
        <ele>2214.4</ele>
        <time>2021-02-27T05:52:16Z</time>
      </trkpt>
      <trkpt lat="45.1246" lon="5.90234">
        <ele>2214.8</ele>
        <time>2021-02-27T05:52:17Z</time>
      </trkpt>
      <trkpt lat="45.1246" lon="5.90234">
        <ele>2215</ele>
        <time>2021-02-27T05:52:18Z</time>
      </trkpt>
      <trkpt lat="45.12461" lon="5.90237">
        <ele>2215.4</ele>
        <time>2021-02-27T05:52:19Z</time>
      </trkpt>
      <trkpt lat="45.12461" lon="5.90237">
        <ele>2215.4</ele>
        <time>2021-02-27T05:52:20Z</time>
      </trkpt>
      <trkpt lat="45.12463" lon="5.90239">
        <ele>2215.6</ele>
        <time>2021-02-27T05:52:21Z</time>
      </trkpt>
      <trkpt lat="45.12463" lon="5.90239">
        <ele>2215.8</ele>
        <time>2021-02-27T05:52:22Z</time>
      </trkpt>
      <trkpt lat="45.12465" lon="5.90241">
        <ele>2216</ele>
        <time>2021-02-27T05:52:23Z</time>
      </trkpt>
      <trkpt lat="45.12465" lon="5.90241">
        <ele>2216.4</ele>
        <time>2021-02-27T05:52:24Z</time>
      </trkpt>
      <trkpt lat="45.12467" lon="5.90242">
        <ele>2216.4</ele>
        <time>2021-02-27T05:52:25Z</time>
      </trkpt>
      <trkpt lat="45.12467" lon="5.90242">
        <ele>2216.6</ele>
        <time>2021-02-27T05:52:26Z</time>
      </trkpt>
      <trkpt lat="45.12469" lon="5.90244">
        <ele>2217</ele>
        <time>2021-02-27T05:52:27Z</time>
      </trkpt>
      <trkpt lat="45.12469" lon="5.90244">
        <ele>2217.4</ele>
        <time>2021-02-27T05:52:28Z</time>
      </trkpt>
      <trkpt lat="45.12471" lon="5.90246">
        <ele>2217.4</ele>
        <time>2021-02-27T05:52:29Z</time>
      </trkpt>
      <trkpt lat="45.12471" lon="5.90246">
        <ele>2217.8</ele>
        <time>2021-02-27T05:52:30Z</time>
      </trkpt>
      <trkpt lat="45.12473" lon="5.90248">
        <ele>2218</ele>
        <time>2021-02-27T05:52:31Z</time>
      </trkpt>
      <trkpt lat="45.12473" lon="5.90248">
        <ele>2218</ele>
        <time>2021-02-27T05:52:32Z</time>
      </trkpt>
      <trkpt lat="45.12474" lon="5.90251">
        <ele>2218.8</ele>
        <time>2021-02-27T05:52:33Z</time>
      </trkpt>
      <trkpt lat="45.12474" lon="5.90251">
        <ele>2218.8</ele>
        <time>2021-02-27T05:52:34Z</time>
      </trkpt>
      <trkpt lat="45.12475" lon="5.90253">
        <ele>2218.8</ele>
        <time>2021-02-27T05:52:35Z</time>
      </trkpt>
      <trkpt lat="45.12475" lon="5.90253">
        <ele>2219.4</ele>
        <time>2021-02-27T05:52:36Z</time>
      </trkpt>
      <trkpt lat="45.12477" lon="5.90256">
        <ele>2219.2</ele>
        <time>2021-02-27T05:52:37Z</time>
      </trkpt>
      <trkpt lat="45.12477" lon="5.90256">
        <ele>2219.8</ele>
        <time>2021-02-27T05:52:38Z</time>
      </trkpt>
      <trkpt lat="45.12478" lon="5.90258">
        <ele>2220</ele>
        <time>2021-02-27T05:52:39Z</time>
      </trkpt>
      <trkpt lat="45.12478" lon="5.90258">
        <ele>2220</ele>
        <time>2021-02-27T05:52:40Z</time>
      </trkpt>
      <trkpt lat="45.12479" lon="5.90261">
        <ele>2219.8</ele>
        <time>2021-02-27T05:52:41Z</time>
      </trkpt>
      <trkpt lat="45.12479" lon="5.90261">
        <ele>2219.8</ele>
        <time>2021-02-27T05:52:42Z</time>
      </trkpt>
      <trkpt lat="45.1248" lon="5.90264">
        <ele>2220</ele>
        <time>2021-02-27T05:52:43Z</time>
      </trkpt>
      <trkpt lat="45.1248" lon="5.90264">
        <ele>2220.2</ele>
        <time>2021-02-27T05:52:44Z</time>
      </trkpt>
      <trkpt lat="45.12482" lon="5.90267">
        <ele>2220.2</ele>
        <time>2021-02-27T05:52:45Z</time>
      </trkpt>
      <trkpt lat="45.12482" lon="5.90267">
        <ele>2220.8</ele>
        <time>2021-02-27T05:52:46Z</time>
      </trkpt>
      <trkpt lat="45.12483" lon="5.90271">
        <ele>2220.8</ele>
        <time>2021-02-27T05:52:47Z</time>
      </trkpt>
      <trkpt lat="45.12483" lon="5.90271">
        <ele>2221.2</ele>
        <time>2021-02-27T05:52:48Z</time>
      </trkpt>
      <trkpt lat="45.12485" lon="5.90273">
        <ele>2221.2</ele>
        <time>2021-02-27T05:52:49Z</time>
      </trkpt>
      <trkpt lat="45.12485" lon="5.90273">
        <ele>2221</ele>
        <time>2021-02-27T05:52:50Z</time>
      </trkpt>
      <trkpt lat="45.12486" lon="5.90276">
        <ele>2221.2</ele>
        <time>2021-02-27T05:52:51Z</time>
      </trkpt>
      <trkpt lat="45.12486" lon="5.90276">
        <ele>2221.4</ele>
        <time>2021-02-27T05:52:52Z</time>
      </trkpt>
      <trkpt lat="45.12487" lon="5.90279">
        <ele>2221.6</ele>
        <time>2021-02-27T05:52:53Z</time>
      </trkpt>
      <trkpt lat="45.12487" lon="5.90279">
        <ele>2222.2</ele>
        <time>2021-02-27T05:52:54Z</time>
      </trkpt>
      <trkpt lat="45.12489" lon="5.90281">
        <ele>2222.2</ele>
        <time>2021-02-27T05:52:55Z</time>
      </trkpt>
      <trkpt lat="45.12489" lon="5.90281">
        <ele>2222.4</ele>
        <time>2021-02-27T05:52:56Z</time>
      </trkpt>
      <trkpt lat="45.1249" lon="5.90283">
        <ele>2222.8</ele>
        <time>2021-02-27T05:52:57Z</time>
      </trkpt>
      <trkpt lat="45.1249" lon="5.90283">
        <ele>2223</ele>
        <time>2021-02-27T05:52:58Z</time>
      </trkpt>
      <trkpt lat="45.12492" lon="5.90286">
        <ele>2223.2</ele>
        <time>2021-02-27T05:52:59Z</time>
      </trkpt>
      <trkpt lat="45.12492" lon="5.90286">
        <ele>2223.8</ele>
        <time>2021-02-27T05:53:00Z</time>
      </trkpt>
      <trkpt lat="45.12494" lon="5.90289">
        <ele>2224.2</ele>
        <time>2021-02-27T05:53:01Z</time>
      </trkpt>
      <trkpt lat="45.12494" lon="5.90289">
        <ele>2224.2</ele>
        <time>2021-02-27T05:53:02Z</time>
      </trkpt>
      <trkpt lat="45.12495" lon="5.90291">
        <ele>2224.6</ele>
        <time>2021-02-27T05:53:03Z</time>
      </trkpt>
      <trkpt lat="45.12495" lon="5.90291">
        <ele>2224.8</ele>
        <time>2021-02-27T05:53:04Z</time>
      </trkpt>
      <trkpt lat="45.12496" lon="5.90294">
        <ele>2225</ele>
        <time>2021-02-27T05:53:05Z</time>
      </trkpt>
      <trkpt lat="45.12496" lon="5.90294">
        <ele>2225</ele>
        <time>2021-02-27T05:53:06Z</time>
      </trkpt>
      <trkpt lat="45.12497" lon="5.90296">
        <ele>2225.4</ele>
        <time>2021-02-27T05:53:07Z</time>
      </trkpt>
      <trkpt lat="45.12497" lon="5.90296">
        <ele>2225.6</ele>
        <time>2021-02-27T05:53:08Z</time>
      </trkpt>
      <trkpt lat="45.12499" lon="5.90299">
        <ele>2226.2</ele>
        <time>2021-02-27T05:53:09Z</time>
      </trkpt>
      <trkpt lat="45.12499" lon="5.90299">
        <ele>2226.4</ele>
        <time>2021-02-27T05:53:10Z</time>
      </trkpt>
      <trkpt lat="45.125" lon="5.90301">
        <ele>2226.6</ele>
        <time>2021-02-27T05:53:11Z</time>
      </trkpt>
      <trkpt lat="45.125" lon="5.90301">
        <ele>2226.4</ele>
        <time>2021-02-27T05:53:12Z</time>
      </trkpt>
      <trkpt lat="45.12501" lon="5.90303">
        <ele>2227</ele>
        <time>2021-02-27T05:53:13Z</time>
      </trkpt>
      <trkpt lat="45.12501" lon="5.90303">
        <ele>2227.2</ele>
        <time>2021-02-27T05:53:14Z</time>
      </trkpt>
      <trkpt lat="45.12503" lon="5.90305">
        <ele>2227.4</ele>
        <time>2021-02-27T05:53:15Z</time>
      </trkpt>
      <trkpt lat="45.12503" lon="5.90305">
        <ele>2227.8</ele>
        <time>2021-02-27T05:53:16Z</time>
      </trkpt>
      <trkpt lat="45.12505" lon="5.90308">
        <ele>2227.6</ele>
        <time>2021-02-27T05:53:17Z</time>
      </trkpt>
      <trkpt lat="45.12505" lon="5.90308">
        <ele>2227.8</ele>
        <time>2021-02-27T05:53:18Z</time>
      </trkpt>
      <trkpt lat="45.12507" lon="5.9031">
        <ele>2228</ele>
        <time>2021-02-27T05:53:19Z</time>
      </trkpt>
      <trkpt lat="45.12507" lon="5.9031">
        <ele>2228</ele>
        <time>2021-02-27T05:53:20Z</time>
      </trkpt>
      <trkpt lat="45.12508" lon="5.90313">
        <ele>2227.8</ele>
        <time>2021-02-27T05:53:21Z</time>
      </trkpt>
      <trkpt lat="45.12508" lon="5.90313">
        <ele>2228</ele>
        <time>2021-02-27T05:53:22Z</time>
      </trkpt>
      <trkpt lat="45.12509" lon="5.90315">
        <ele>2228.2</ele>
        <time>2021-02-27T05:53:23Z</time>
      </trkpt>
      <trkpt lat="45.12509" lon="5.90315">
        <ele>2228.8</ele>
        <time>2021-02-27T05:53:24Z</time>
      </trkpt>
      <trkpt lat="45.1251" lon="5.90317">
        <ele>2228.8</ele>
        <time>2021-02-27T05:53:25Z</time>
      </trkpt>
      <trkpt lat="45.1251" lon="5.90317">
        <ele>2228.8</ele>
        <time>2021-02-27T05:53:26Z</time>
      </trkpt>
      <trkpt lat="45.12511" lon="5.9032">
        <ele>2229</ele>
        <time>2021-02-27T05:53:27Z</time>
      </trkpt>
      <trkpt lat="45.12511" lon="5.9032">
        <ele>2229.2</ele>
        <time>2021-02-27T05:53:28Z</time>
      </trkpt>
      <trkpt lat="45.12512" lon="5.90322">
        <ele>2229.2</ele>
        <time>2021-02-27T05:53:29Z</time>
      </trkpt>
      <trkpt lat="45.12512" lon="5.90322">
        <ele>2229.6</ele>
        <time>2021-02-27T05:53:30Z</time>
      </trkpt>
      <trkpt lat="45.12514" lon="5.90324">
        <ele>2230</ele>
        <time>2021-02-27T05:53:31Z</time>
      </trkpt>
      <trkpt lat="45.12514" lon="5.90324">
        <ele>2230.4</ele>
        <time>2021-02-27T05:53:32Z</time>
      </trkpt>
      <trkpt lat="45.12516" lon="5.90326">
        <ele>2230.4</ele>
        <time>2021-02-27T05:53:33Z</time>
      </trkpt>
      <trkpt lat="45.12516" lon="5.90326">
        <ele>2230.6</ele>
        <time>2021-02-27T05:53:34Z</time>
      </trkpt>
      <trkpt lat="45.12518" lon="5.90328">
        <ele>2231</ele>
        <time>2021-02-27T05:53:35Z</time>
      </trkpt>
      <trkpt lat="45.12518" lon="5.90328">
        <ele>2231.4</ele>
        <time>2021-02-27T05:53:36Z</time>
      </trkpt>
      <trkpt lat="45.12518" lon="5.90328">
        <ele>2231.8</ele>
        <time>2021-02-27T05:53:37Z</time>
      </trkpt>
      <trkpt lat="45.1252" lon="5.90331">
        <ele>2231.8</ele>
        <time>2021-02-27T05:53:38Z</time>
      </trkpt>
      <trkpt lat="45.1252" lon="5.90331">
        <ele>2232.4</ele>
        <time>2021-02-27T05:53:39Z</time>
      </trkpt>
      <trkpt lat="45.12522" lon="5.90333">
        <ele>2232.6</ele>
        <time>2021-02-27T05:53:40Z</time>
      </trkpt>
      <trkpt lat="45.12522" lon="5.90333">
        <ele>2233</ele>
        <time>2021-02-27T05:53:41Z</time>
      </trkpt>
      <trkpt lat="45.12524" lon="5.90334">
        <ele>2232.8</ele>
        <time>2021-02-27T05:53:42Z</time>
      </trkpt>
      <trkpt lat="45.12524" lon="5.90334">
        <ele>2233</ele>
        <time>2021-02-27T05:53:43Z</time>
      </trkpt>
      <trkpt lat="45.12526" lon="5.90337">
        <ele>2233.4</ele>
        <time>2021-02-27T05:53:44Z</time>
      </trkpt>
      <trkpt lat="45.12526" lon="5.90337">
        <ele>2234</ele>
        <time>2021-02-27T05:53:45Z</time>
      </trkpt>
      <trkpt lat="45.12528" lon="5.90339">
        <ele>2234</ele>
        <time>2021-02-27T05:53:46Z</time>
      </trkpt>
      <trkpt lat="45.12528" lon="5.90339">
        <ele>2234.4</ele>
        <time>2021-02-27T05:53:47Z</time>
      </trkpt>
      <trkpt lat="45.12529" lon="5.9034">
        <ele>2234.6</ele>
        <time>2021-02-27T05:53:48Z</time>
      </trkpt>
      <trkpt lat="45.12529" lon="5.9034">
        <ele>2234.8</ele>
        <time>2021-02-27T05:53:49Z</time>
      </trkpt>
      <trkpt lat="45.12531" lon="5.90342">
        <ele>2234.8</ele>
        <time>2021-02-27T05:53:50Z</time>
      </trkpt>
      <trkpt lat="45.12531" lon="5.90342">
        <ele>2235.2</ele>
        <time>2021-02-27T05:53:51Z</time>
      </trkpt>
      <trkpt lat="45.12533" lon="5.90344">
        <ele>2235.6</ele>
        <time>2021-02-27T05:53:52Z</time>
      </trkpt>
      <trkpt lat="45.12533" lon="5.90344">
        <ele>2235.8</ele>
        <time>2021-02-27T05:53:53Z</time>
      </trkpt>
      <trkpt lat="45.12535" lon="5.90347">
        <ele>2236.4</ele>
        <time>2021-02-27T05:53:54Z</time>
      </trkpt>
      <trkpt lat="45.12535" lon="5.90347">
        <ele>2236.4</ele>
        <time>2021-02-27T05:53:55Z</time>
      </trkpt>
      <trkpt lat="45.12537" lon="5.90348">
        <ele>2236.8</ele>
        <time>2021-02-27T05:53:56Z</time>
      </trkpt>
      <trkpt lat="45.12537" lon="5.90348">
        <ele>2237</ele>
        <time>2021-02-27T05:53:57Z</time>
      </trkpt>
      <trkpt lat="45.12539" lon="5.90349">
        <ele>2236.8</ele>
        <time>2021-02-27T05:53:58Z</time>
      </trkpt>
      <trkpt lat="45.12539" lon="5.90349">
        <ele>2237.6</ele>
        <time>2021-02-27T05:53:59Z</time>
      </trkpt>
      <trkpt lat="45.12541" lon="5.90351">
        <ele>2237.4</ele>
        <time>2021-02-27T05:54:00Z</time>
      </trkpt>
      <trkpt lat="45.12541" lon="5.90351">
        <ele>2237.6</ele>
        <time>2021-02-27T05:54:01Z</time>
      </trkpt>
      <trkpt lat="45.12544" lon="5.90352">
        <ele>2237.8</ele>
        <time>2021-02-27T05:54:02Z</time>
      </trkpt>
      <trkpt lat="45.12544" lon="5.90352">
        <ele>2238</ele>
        <time>2021-02-27T05:54:03Z</time>
      </trkpt>
      <trkpt lat="45.12546" lon="5.90353">
        <ele>2238.2</ele>
        <time>2021-02-27T05:54:04Z</time>
      </trkpt>
      <trkpt lat="45.12546" lon="5.90353">
        <ele>2238.4</ele>
        <time>2021-02-27T05:54:05Z</time>
      </trkpt>
      <trkpt lat="45.12548" lon="5.90353">
        <ele>2238.4</ele>
        <time>2021-02-27T05:54:06Z</time>
      </trkpt>
      <trkpt lat="45.12548" lon="5.90353">
        <ele>2238.6</ele>
        <time>2021-02-27T05:54:07Z</time>
      </trkpt>
      <trkpt lat="45.12551" lon="5.90354">
        <ele>2238.6</ele>
        <time>2021-02-27T05:54:08Z</time>
      </trkpt>
      <trkpt lat="45.12551" lon="5.90354">
        <ele>2239.2</ele>
        <time>2021-02-27T05:54:09Z</time>
      </trkpt>
      <trkpt lat="45.12553" lon="5.90356">
        <ele>2239.4</ele>
        <time>2021-02-27T05:54:10Z</time>
      </trkpt>
      <trkpt lat="45.12553" lon="5.90356">
        <ele>2239.4</ele>
        <time>2021-02-27T05:54:11Z</time>
      </trkpt>
      <trkpt lat="45.12555" lon="5.90356">
        <ele>2239.6</ele>
        <time>2021-02-27T05:54:12Z</time>
      </trkpt>
      <trkpt lat="45.12555" lon="5.90356">
        <ele>2239.6</ele>
        <time>2021-02-27T05:54:13Z</time>
      </trkpt>
      <trkpt lat="45.12558" lon="5.90357">
        <ele>2239.6</ele>
        <time>2021-02-27T05:54:14Z</time>
      </trkpt>
      <trkpt lat="45.12558" lon="5.90357">
        <ele>2239.6</ele>
        <time>2021-02-27T05:54:15Z</time>
      </trkpt>
      <trkpt lat="45.1256" lon="5.90357">
        <ele>2239.8</ele>
        <time>2021-02-27T05:54:16Z</time>
      </trkpt>
      <trkpt lat="45.1256" lon="5.90357">
        <ele>2240.2</ele>
        <time>2021-02-27T05:54:17Z</time>
      </trkpt>
      <trkpt lat="45.12563" lon="5.90357">
        <ele>2240</ele>
        <time>2021-02-27T05:54:18Z</time>
      </trkpt>
      <trkpt lat="45.12563" lon="5.90357">
        <ele>2240.4</ele>
        <time>2021-02-27T05:54:19Z</time>
      </trkpt>
      <trkpt lat="45.12566" lon="5.90357">
        <ele>2240.6</ele>
        <time>2021-02-27T05:54:20Z</time>
      </trkpt>
      <trkpt lat="45.12566" lon="5.90357">
        <ele>2241</ele>
        <time>2021-02-27T05:54:21Z</time>
      </trkpt>
      <trkpt lat="45.12568" lon="5.90357">
        <ele>2241.2</ele>
        <time>2021-02-27T05:54:22Z</time>
      </trkpt>
      <trkpt lat="45.12568" lon="5.90357">
        <ele>2241.4</ele>
        <time>2021-02-27T05:54:23Z</time>
      </trkpt>
      <trkpt lat="45.1257" lon="5.90358">
        <ele>2241.6</ele>
        <time>2021-02-27T05:54:24Z</time>
      </trkpt>
      <trkpt lat="45.1257" lon="5.90358">
        <ele>2241.6</ele>
        <time>2021-02-27T05:54:25Z</time>
      </trkpt>
      <trkpt lat="45.12573" lon="5.9036">
        <ele>2242</ele>
        <time>2021-02-27T05:54:26Z</time>
      </trkpt>
      <trkpt lat="45.12573" lon="5.9036">
        <ele>2242.2</ele>
        <time>2021-02-27T05:54:27Z</time>
      </trkpt>
      <trkpt lat="45.12575" lon="5.90362">
        <ele>2242.4</ele>
        <time>2021-02-27T05:54:28Z</time>
      </trkpt>
      <trkpt lat="45.12575" lon="5.90362">
        <ele>2242.8</ele>
        <time>2021-02-27T05:54:29Z</time>
      </trkpt>
      <trkpt lat="45.12577" lon="5.90364">
        <ele>2243.6</ele>
        <time>2021-02-27T05:54:30Z</time>
      </trkpt>
      <trkpt lat="45.12577" lon="5.90364">
        <ele>2244</ele>
        <time>2021-02-27T05:54:31Z</time>
      </trkpt>
      <trkpt lat="45.12579" lon="5.90365">
        <ele>2244</ele>
        <time>2021-02-27T05:54:32Z</time>
      </trkpt>
      <trkpt lat="45.12579" lon="5.90365">
        <ele>2243.6</ele>
        <time>2021-02-27T05:54:33Z</time>
      </trkpt>
      <trkpt lat="45.1258" lon="5.90368">
        <ele>2243.8</ele>
        <time>2021-02-27T05:54:34Z</time>
      </trkpt>
      <trkpt lat="45.1258" lon="5.90368">
        <ele>2243.8</ele>
        <time>2021-02-27T05:54:35Z</time>
      </trkpt>
      <trkpt lat="45.12582" lon="5.9037">
        <ele>2243.8</ele>
        <time>2021-02-27T05:54:36Z</time>
      </trkpt>
      <trkpt lat="45.12582" lon="5.9037">
        <ele>2244</ele>
        <time>2021-02-27T05:54:37Z</time>
      </trkpt>
      <trkpt lat="45.12582" lon="5.9037">
        <ele>2244.2</ele>
        <time>2021-02-27T05:54:38Z</time>
      </trkpt>
      <trkpt lat="45.12585" lon="5.90372">
        <ele>2244.4</ele>
        <time>2021-02-27T05:54:39Z</time>
      </trkpt>
      <trkpt lat="45.12585" lon="5.90372">
        <ele>2244.6</ele>
        <time>2021-02-27T05:54:40Z</time>
      </trkpt>
      <trkpt lat="45.12585" lon="5.90372">
        <ele>2244.4</ele>
        <time>2021-02-27T05:54:41Z</time>
      </trkpt>
      <trkpt lat="45.12585" lon="5.90372">
        <ele>2244.4</ele>
        <time>2021-02-27T05:54:42Z</time>
      </trkpt>
      <trkpt lat="45.12585" lon="5.90372">
        <ele>2244</ele>
        <time>2021-02-27T05:54:43Z</time>
      </trkpt>
      <trkpt lat="45.12585" lon="5.90372">
        <ele>2243.8</ele>
        <time>2021-02-27T05:54:44Z</time>
      </trkpt>
      <trkpt lat="45.12585" lon="5.90372">
        <ele>2243.8</ele>
        <time>2021-02-27T05:54:45Z</time>
      </trkpt>
      <trkpt lat="45.12585" lon="5.90372">
        <ele>2243.4</ele>
        <time>2021-02-27T05:54:46Z</time>
      </trkpt>
      <trkpt lat="45.12585" lon="5.90372">
        <ele>2243.6</ele>
        <time>2021-02-27T05:54:47Z</time>
      </trkpt>
      <trkpt lat="45.12585" lon="5.90372">
        <ele>2243.6</ele>
        <time>2021-02-27T05:54:48Z</time>
      </trkpt>
      <trkpt lat="45.12585" lon="5.90372">
        <ele>2243.6</ele>
        <time>2021-02-27T05:54:49Z</time>
      </trkpt>
      <trkpt lat="45.12585" lon="5.90372">
        <ele>2243.8</ele>
        <time>2021-02-27T05:54:50Z</time>
      </trkpt>
      <trkpt lat="45.12585" lon="5.90372">
        <ele>2243.8</ele>
        <time>2021-02-27T05:54:51Z</time>
      </trkpt>
      <trkpt lat="45.12585" lon="5.90372">
        <ele>2243.8</ele>
        <time>2021-02-27T05:54:52Z</time>
      </trkpt>
      <trkpt lat="45.12585" lon="5.90372">
        <ele>2244.2</ele>
        <time>2021-02-27T05:54:53Z</time>
      </trkpt>
      <trkpt lat="45.12585" lon="5.90372">
        <ele>2244.4</ele>
        <time>2021-02-27T05:54:54Z</time>
      </trkpt>
      <trkpt lat="45.12585" lon="5.90372">
        <ele>2244.4</ele>
        <time>2021-02-27T05:54:55Z</time>
      </trkpt>
      <trkpt lat="45.12585" lon="5.90372">
        <ele>2244.4</ele>
        <time>2021-02-27T05:54:56Z</time>
      </trkpt>
      <trkpt lat="45.12585" lon="5.90372">
        <ele>2244.4</ele>
        <time>2021-02-27T05:54:57Z</time>
      </trkpt>
      <trkpt lat="45.12585" lon="5.90372">
        <ele>2244.4</ele>
        <time>2021-02-27T05:54:58Z</time>
      </trkpt>
      <trkpt lat="45.12585" lon="5.90372">
        <ele>2244.6</ele>
        <time>2021-02-27T05:54:59Z</time>
      </trkpt>
      <trkpt lat="45.12585" lon="5.90372">
        <ele>2244.6</ele>
        <time>2021-02-27T05:55:00Z</time>
      </trkpt>
      <trkpt lat="45.12585" lon="5.90372">
        <ele>2244.4</ele>
        <time>2021-02-27T05:55:01Z</time>
      </trkpt>
      <trkpt lat="45.12585" lon="5.90372">
        <ele>2244.4</ele>
        <time>2021-02-27T05:55:02Z</time>
      </trkpt>
      <trkpt lat="45.12585" lon="5.90372">
        <ele>2244.2</ele>
        <time>2021-02-27T05:55:03Z</time>
      </trkpt>
      <trkpt lat="45.12585" lon="5.90372">
        <ele>2244.4</ele>
        <time>2021-02-27T05:55:04Z</time>
      </trkpt>
      <trkpt lat="45.12585" lon="5.90372">
        <ele>2244.2</ele>
        <time>2021-02-27T05:55:05Z</time>
      </trkpt>
      <trkpt lat="45.12585" lon="5.90372">
        <ele>2243.8</ele>
        <time>2021-02-27T05:55:06Z</time>
      </trkpt>
      <trkpt lat="45.12585" lon="5.90372">
        <ele>2243.6</ele>
        <time>2021-02-27T05:55:07Z</time>
      </trkpt>
      <trkpt lat="45.12585" lon="5.90372">
        <ele>2243.6</ele>
        <time>2021-02-27T05:55:08Z</time>
      </trkpt>
      <trkpt lat="45.12585" lon="5.90372">
        <ele>2243.2</ele>
        <time>2021-02-27T05:55:09Z</time>
      </trkpt>
      <trkpt lat="45.12585" lon="5.90372">
        <ele>2243.6</ele>
        <time>2021-02-27T05:55:10Z</time>
      </trkpt>
      <trkpt lat="45.12586" lon="5.90373">
        <ele>2243.8</ele>
        <time>2021-02-27T05:55:11Z</time>
      </trkpt>
      <trkpt lat="45.12586" lon="5.90373">
        <ele>2243.6</ele>
        <time>2021-02-27T05:55:12Z</time>
      </trkpt>
      <trkpt lat="45.12586" lon="5.90373">
        <ele>2244.2</ele>
        <time>2021-02-27T05:55:13Z</time>
      </trkpt>
      <trkpt lat="45.12586" lon="5.90373">
        <ele>2244.2</ele>
        <time>2021-02-27T05:55:14Z</time>
      </trkpt>
      <trkpt lat="45.12586" lon="5.90373">
        <ele>2244.6</ele>
        <time>2021-02-27T05:55:15Z</time>
      </trkpt>
      <trkpt lat="45.12586" lon="5.90373">
        <ele>2244.6</ele>
        <time>2021-02-27T05:55:16Z</time>
      </trkpt>
      <trkpt lat="45.12586" lon="5.90373">
        <ele>2244.6</ele>
        <time>2021-02-27T05:55:17Z</time>
      </trkpt>
      <trkpt lat="45.12586" lon="5.90373">
        <ele>2244.6</ele>
        <time>2021-02-27T05:55:18Z</time>
      </trkpt>
      <trkpt lat="45.12586" lon="5.90373">
        <ele>2244.4</ele>
        <time>2021-02-27T05:55:19Z</time>
      </trkpt>
      <trkpt lat="45.12586" lon="5.90373">
        <ele>2244.6</ele>
        <time>2021-02-27T05:55:20Z</time>
      </trkpt>
      <trkpt lat="45.12586" lon="5.90373">
        <ele>2244.6</ele>
        <time>2021-02-27T05:55:21Z</time>
      </trkpt>
      <trkpt lat="45.12586" lon="5.90373">
        <ele>2244.8</ele>
        <time>2021-02-27T05:55:22Z</time>
      </trkpt>
      <trkpt lat="45.12586" lon="5.90373">
        <ele>2244.8</ele>
        <time>2021-02-27T05:55:23Z</time>
      </trkpt>
      <trkpt lat="45.12586" lon="5.90373">
        <ele>2244.8</ele>
        <time>2021-02-27T05:55:24Z</time>
      </trkpt>
      <trkpt lat="45.12586" lon="5.90373">
        <ele>2244.6</ele>
        <time>2021-02-27T05:55:25Z</time>
      </trkpt>
      <trkpt lat="45.12586" lon="5.90373">
        <ele>2244.6</ele>
        <time>2021-02-27T05:55:26Z</time>
      </trkpt>
      <trkpt lat="45.12586" lon="5.90373">
        <ele>2244.8</ele>
        <time>2021-02-27T05:55:27Z</time>
      </trkpt>
      <trkpt lat="45.12586" lon="5.90373">
        <ele>2244.6</ele>
        <time>2021-02-27T05:55:28Z</time>
      </trkpt>
      <trkpt lat="45.12586" lon="5.90373">
        <ele>2244.4</ele>
        <time>2021-02-27T05:55:29Z</time>
      </trkpt>
      <trkpt lat="45.12586" lon="5.90373">
        <ele>2244.8</ele>
        <time>2021-02-27T05:55:30Z</time>
      </trkpt>
      <trkpt lat="45.12586" lon="5.90373">
        <ele>2245.2</ele>
        <time>2021-02-27T05:55:31Z</time>
      </trkpt>
      <trkpt lat="45.12586" lon="5.90373">
        <ele>2245.6</ele>
        <time>2021-02-27T05:55:32Z</time>
      </trkpt>
      <trkpt lat="45.12586" lon="5.90373">
        <ele>2245.6</ele>
        <time>2021-02-27T05:55:33Z</time>
      </trkpt>
      <trkpt lat="45.12586" lon="5.90373">
        <ele>2245.8</ele>
        <time>2021-02-27T05:55:34Z</time>
      </trkpt>
      <trkpt lat="45.12586" lon="5.90373">
        <ele>2246</ele>
        <time>2021-02-27T05:55:35Z</time>
      </trkpt>
      <trkpt lat="45.12586" lon="5.90373">
        <ele>2245.8</ele>
        <time>2021-02-27T05:55:36Z</time>
      </trkpt>
      <trkpt lat="45.12586" lon="5.90373">
        <ele>2245.6</ele>
        <time>2021-02-27T05:55:37Z</time>
      </trkpt>
      <trkpt lat="45.12586" lon="5.90373">
        <ele>2245.8</ele>
        <time>2021-02-27T05:55:38Z</time>
      </trkpt>
      <trkpt lat="45.12586" lon="5.90373">
        <ele>2245.8</ele>
        <time>2021-02-27T05:55:39Z</time>
      </trkpt>
      <trkpt lat="45.12586" lon="5.90373">
        <ele>2246.2</ele>
        <time>2021-02-27T05:55:40Z</time>
      </trkpt>
      <trkpt lat="45.12586" lon="5.90373">
        <ele>2246.2</ele>
        <time>2021-02-27T05:55:41Z</time>
      </trkpt>
      <trkpt lat="45.12586" lon="5.90373">
        <ele>2246.2</ele>
        <time>2021-02-27T05:55:42Z</time>
      </trkpt>
      <trkpt lat="45.12586" lon="5.90373">
        <ele>2246.2</ele>
        <time>2021-02-27T05:55:43Z</time>
      </trkpt>
      <trkpt lat="45.12586" lon="5.90373">
        <ele>2246</ele>
        <time>2021-02-27T05:55:44Z</time>
      </trkpt>
      <trkpt lat="45.12586" lon="5.90373">
        <ele>2246</ele>
        <time>2021-02-27T05:55:45Z</time>
      </trkpt>
      <trkpt lat="45.12586" lon="5.90373">
        <ele>2245.8</ele>
        <time>2021-02-27T05:55:46Z</time>
      </trkpt>
      <trkpt lat="45.12586" lon="5.90373">
        <ele>2245.2</ele>
        <time>2021-02-27T05:55:47Z</time>
      </trkpt>
      <trkpt lat="45.12586" lon="5.90373">
        <ele>2245</ele>
        <time>2021-02-27T05:55:48Z</time>
      </trkpt>
      <trkpt lat="45.12586" lon="5.90373">
        <ele>2245.2</ele>
        <time>2021-02-27T05:55:49Z</time>
      </trkpt>
      <trkpt lat="45.12586" lon="5.90373">
        <ele>2244.8</ele>
        <time>2021-02-27T05:55:50Z</time>
      </trkpt>
      <trkpt lat="45.12587" lon="5.90377">
        <ele>2244.4</ele>
        <time>2021-02-27T05:55:51Z</time>
      </trkpt>
      <trkpt lat="45.12587" lon="5.90377">
        <ele>2244.4</ele>
        <time>2021-02-27T05:55:52Z</time>
      </trkpt>
      <trkpt lat="45.12587" lon="5.90382">
        <ele>2244.2</ele>
        <time>2021-02-27T05:55:53Z</time>
      </trkpt>
      <trkpt lat="45.12587" lon="5.90382">
        <ele>2244.4</ele>
        <time>2021-02-27T05:55:54Z</time>
      </trkpt>
      <trkpt lat="45.12588" lon="5.90386">
        <ele>2244.4</ele>
        <time>2021-02-27T05:55:55Z</time>
      </trkpt>
      <trkpt lat="45.12588" lon="5.90386">
        <ele>2244</ele>
        <time>2021-02-27T05:55:56Z</time>
      </trkpt>
      <trkpt lat="45.12589" lon="5.9039">
        <ele>2244.2</ele>
        <time>2021-02-27T05:55:57Z</time>
      </trkpt>
      <trkpt lat="45.12589" lon="5.9039">
        <ele>2244.6</ele>
        <time>2021-02-27T05:55:58Z</time>
      </trkpt>
      <trkpt lat="45.1259" lon="5.90395">
        <ele>2244.4</ele>
        <time>2021-02-27T05:55:59Z</time>
      </trkpt>
      <trkpt lat="45.1259" lon="5.90395">
        <ele>2244.4</ele>
        <time>2021-02-27T05:56:00Z</time>
      </trkpt>
      <trkpt lat="45.12591" lon="5.904">
        <ele>2244.8</ele>
        <time>2021-02-27T05:56:01Z</time>
      </trkpt>
      <trkpt lat="45.12591" lon="5.90403">
        <ele>2244.6</ele>
        <time>2021-02-27T05:56:02Z</time>
      </trkpt>
      <trkpt lat="45.12591" lon="5.90406">
        <ele>2244.6</ele>
        <time>2021-02-27T05:56:03Z</time>
      </trkpt>
      <trkpt lat="45.12591" lon="5.90409">
        <ele>2244.6</ele>
        <time>2021-02-27T05:56:04Z</time>
      </trkpt>
      <trkpt lat="45.12591" lon="5.90413">
        <ele>2244.4</ele>
        <time>2021-02-27T05:56:05Z</time>
      </trkpt>
      <trkpt lat="45.1259" lon="5.90415">
        <ele>2244.4</ele>
        <time>2021-02-27T05:56:06Z</time>
      </trkpt>
      <trkpt lat="45.1259" lon="5.90415">
        <ele>2244.6</ele>
        <time>2021-02-27T05:56:07Z</time>
      </trkpt>
      <trkpt lat="45.1259" lon="5.9042">
        <ele>2244.4</ele>
        <time>2021-02-27T05:56:08Z</time>
      </trkpt>
      <trkpt lat="45.1259" lon="5.9042">
        <ele>2244.8</ele>
        <time>2021-02-27T05:56:09Z</time>
      </trkpt>
      <trkpt lat="45.12593" lon="5.90423">
        <ele>2244.8</ele>
        <time>2021-02-27T05:56:10Z</time>
      </trkpt>
      <trkpt lat="45.12594" lon="5.90424">
        <ele>2244.6</ele>
        <time>2021-02-27T05:56:11Z</time>
      </trkpt>
      <trkpt lat="45.12594" lon="5.90424">
        <ele>2245</ele>
        <time>2021-02-27T05:56:12Z</time>
      </trkpt>
      <trkpt lat="45.12598" lon="5.90426">
        <ele>2245.2</ele>
        <time>2021-02-27T05:56:13Z</time>
      </trkpt>
      <trkpt lat="45.126" lon="5.90427">
        <ele>2245.2</ele>
        <time>2021-02-27T05:56:14Z</time>
      </trkpt>
      <trkpt lat="45.126" lon="5.90427">
        <ele>2245.4</ele>
        <time>2021-02-27T05:56:15Z</time>
      </trkpt>
      <trkpt lat="45.12602" lon="5.90429">
        <ele>2245.6</ele>
        <time>2021-02-27T05:56:16Z</time>
      </trkpt>
      <trkpt lat="45.12604" lon="5.90431">
        <ele>2245.8</ele>
        <time>2021-02-27T05:56:17Z</time>
      </trkpt>
      <trkpt lat="45.12605" lon="5.90433">
        <ele>2246.4</ele>
        <time>2021-02-27T05:56:18Z</time>
      </trkpt>
      <trkpt lat="45.12606" lon="5.90436">
        <ele>2245.8</ele>
        <time>2021-02-27T05:56:19Z</time>
      </trkpt>
      <trkpt lat="45.12607" lon="5.90441">
        <ele>2245.6</ele>
        <time>2021-02-27T05:56:20Z</time>
      </trkpt>
      <trkpt lat="45.12608" lon="5.90446">
        <ele>2245.4</ele>
        <time>2021-02-27T05:56:21Z</time>
      </trkpt>
      <trkpt lat="45.12609" lon="5.90451">
        <ele>2245.2</ele>
        <time>2021-02-27T05:56:22Z</time>
      </trkpt>
      <trkpt lat="45.12609" lon="5.90458">
        <ele>2244.6</ele>
        <time>2021-02-27T05:56:23Z</time>
      </trkpt>
      <trkpt lat="45.1261" lon="5.90465">
        <ele>2243.8</ele>
        <time>2021-02-27T05:56:24Z</time>
      </trkpt>
      <trkpt lat="45.1261" lon="5.90472">
        <ele>2243.2</ele>
        <time>2021-02-27T05:56:25Z</time>
      </trkpt>
      <trkpt lat="45.1261" lon="5.9048">
        <ele>2242.6</ele>
        <time>2021-02-27T05:56:26Z</time>
      </trkpt>
      <trkpt lat="45.12609" lon="5.90488">
        <ele>2242.2</ele>
        <time>2021-02-27T05:56:27Z</time>
      </trkpt>
      <trkpt lat="45.12608" lon="5.90496">
        <ele>2241.8</ele>
        <time>2021-02-27T05:56:28Z</time>
      </trkpt>
      <trkpt lat="45.12607" lon="5.90503">
        <ele>2241.4</ele>
        <time>2021-02-27T05:56:29Z</time>
      </trkpt>
      <trkpt lat="45.12607" lon="5.90512">
        <ele>2240.2</ele>
        <time>2021-02-27T05:56:30Z</time>
      </trkpt>
      <trkpt lat="45.12606" lon="5.9052">
        <ele>2239.2</ele>
        <time>2021-02-27T05:56:31Z</time>
      </trkpt>
      <trkpt lat="45.12606" lon="5.90529">
        <ele>2238.6</ele>
        <time>2021-02-27T05:56:32Z</time>
      </trkpt>
      <trkpt lat="45.12605" lon="5.90538">
        <ele>2238.2</ele>
        <time>2021-02-27T05:56:33Z</time>
      </trkpt>
      <trkpt lat="45.12603" lon="5.90546">
        <ele>2237.6</ele>
        <time>2021-02-27T05:56:34Z</time>
      </trkpt>
      <trkpt lat="45.126" lon="5.90555">
        <ele>2236.8</ele>
        <time>2021-02-27T05:56:35Z</time>
      </trkpt>
      <trkpt lat="45.12598" lon="5.90563">
        <ele>2236.2</ele>
        <time>2021-02-27T05:56:36Z</time>
      </trkpt>
      <trkpt lat="45.12597" lon="5.9057">
        <ele>2235</ele>
        <time>2021-02-27T05:56:37Z</time>
      </trkpt>
      <trkpt lat="45.12599" lon="5.90579">
        <ele>2234.4</ele>
        <time>2021-02-27T05:56:38Z</time>
      </trkpt>
      <trkpt lat="45.12601" lon="5.90587">
        <ele>2234.2</ele>
        <time>2021-02-27T05:56:39Z</time>
      </trkpt>
      <trkpt lat="45.12601" lon="5.90596">
        <ele>2233.8</ele>
        <time>2021-02-27T05:56:40Z</time>
      </trkpt>
      <trkpt lat="45.12602" lon="5.90605">
        <ele>2233.2</ele>
        <time>2021-02-27T05:56:41Z</time>
      </trkpt>
      <trkpt lat="45.12603" lon="5.90616">
        <ele>2232</ele>
        <time>2021-02-27T05:56:42Z</time>
      </trkpt>
      <trkpt lat="45.12604" lon="5.90627">
        <ele>2231.2</ele>
        <time>2021-02-27T05:56:43Z</time>
      </trkpt>
      <trkpt lat="45.12604" lon="5.90637">
        <ele>2229.4</ele>
        <time>2021-02-27T05:56:44Z</time>
      </trkpt>
      <trkpt lat="45.12605" lon="5.90646">
        <ele>2228.4</ele>
        <time>2021-02-27T05:56:45Z</time>
      </trkpt>
      <trkpt lat="45.12608" lon="5.90656">
        <ele>2227.2</ele>
        <time>2021-02-27T05:56:46Z</time>
      </trkpt>
      <trkpt lat="45.12609" lon="5.90665">
        <ele>2225.8</ele>
        <time>2021-02-27T05:56:47Z</time>
      </trkpt>
      <trkpt lat="45.1261" lon="5.90675">
        <ele>2224</ele>
        <time>2021-02-27T05:56:48Z</time>
      </trkpt>
      <trkpt lat="45.12609" lon="5.90685">
        <ele>2222.4</ele>
        <time>2021-02-27T05:56:49Z</time>
      </trkpt>
      <trkpt lat="45.12608" lon="5.90696">
        <ele>2221</ele>
        <time>2021-02-27T05:56:50Z</time>
      </trkpt>
      <trkpt lat="45.12606" lon="5.90706">
        <ele>2219.6</ele>
        <time>2021-02-27T05:56:51Z</time>
      </trkpt>
      <trkpt lat="45.12602" lon="5.90716">
        <ele>2217.8</ele>
        <time>2021-02-27T05:56:52Z</time>
      </trkpt>
      <trkpt lat="45.12599" lon="5.90726">
        <ele>2216.4</ele>
        <time>2021-02-27T05:56:53Z</time>
      </trkpt>
      <trkpt lat="45.12595" lon="5.90737">
        <ele>2215</ele>
        <time>2021-02-27T05:56:54Z</time>
      </trkpt>
      <trkpt lat="45.12592" lon="5.90747">
        <ele>2213.8</ele>
        <time>2021-02-27T05:56:55Z</time>
      </trkpt>
      <trkpt lat="45.12588" lon="5.90757">
        <ele>2212.4</ele>
        <time>2021-02-27T05:56:56Z</time>
      </trkpt>
      <trkpt lat="45.12585" lon="5.90766">
        <ele>2210.8</ele>
        <time>2021-02-27T05:56:57Z</time>
      </trkpt>
      <trkpt lat="45.12584" lon="5.90775">
        <ele>2209.6</ele>
        <time>2021-02-27T05:56:58Z</time>
      </trkpt>
      <trkpt lat="45.12585" lon="5.90784">
        <ele>2208.2</ele>
        <time>2021-02-27T05:56:59Z</time>
      </trkpt>
      <trkpt lat="45.12584" lon="5.90794">
        <ele>2206.8</ele>
        <time>2021-02-27T05:57:00Z</time>
      </trkpt>
      <trkpt lat="45.12582" lon="5.90803">
        <ele>2205.6</ele>
        <time>2021-02-27T05:57:01Z</time>
      </trkpt>
      <trkpt lat="45.12581" lon="5.90813">
        <ele>2204.2</ele>
        <time>2021-02-27T05:57:02Z</time>
      </trkpt>
      <trkpt lat="45.12582" lon="5.90825">
        <ele>2202.2</ele>
        <time>2021-02-27T05:57:03Z</time>
      </trkpt>
      <trkpt lat="45.12581" lon="5.90835">
        <ele>2200</ele>
        <time>2021-02-27T05:57:04Z</time>
      </trkpt>
      <trkpt lat="45.1258" lon="5.90846">
        <ele>2198.2</ele>
        <time>2021-02-27T05:57:05Z</time>
      </trkpt>
      <trkpt lat="45.1258" lon="5.90858">
        <ele>2196.4</ele>
        <time>2021-02-27T05:57:06Z</time>
      </trkpt>
      <trkpt lat="45.1258" lon="5.90869">
        <ele>2194.2</ele>
        <time>2021-02-27T05:57:07Z</time>
      </trkpt>
      <trkpt lat="45.12582" lon="5.90882">
        <ele>2192.4</ele>
        <time>2021-02-27T05:57:08Z</time>
      </trkpt>
      <trkpt lat="45.12584" lon="5.90895">
        <ele>2190</ele>
        <time>2021-02-27T05:57:09Z</time>
      </trkpt>
      <trkpt lat="45.12585" lon="5.90908">
        <ele>2187.4</ele>
        <time>2021-02-27T05:57:10Z</time>
      </trkpt>
      <trkpt lat="45.12586" lon="5.90921">
        <ele>2185.4</ele>
        <time>2021-02-27T05:57:11Z</time>
      </trkpt>
      <trkpt lat="45.12588" lon="5.90933">
        <ele>2183.8</ele>
        <time>2021-02-27T05:57:12Z</time>
      </trkpt>
      <trkpt lat="45.12589" lon="5.90944">
        <ele>2181.8</ele>
        <time>2021-02-27T05:57:13Z</time>
      </trkpt>
      <trkpt lat="45.12591" lon="5.9095">
        <ele>2180.2</ele>
        <time>2021-02-27T05:57:14Z</time>
      </trkpt>
      <trkpt lat="45.12595" lon="5.90949">
        <ele>2179</ele>
        <time>2021-02-27T05:57:15Z</time>
      </trkpt>
      <trkpt lat="45.12598" lon="5.90945">
        <ele>2177.8</ele>
        <time>2021-02-27T05:57:16Z</time>
      </trkpt>
      <trkpt lat="45.12602" lon="5.90939">
        <ele>2177</ele>
        <time>2021-02-27T05:57:17Z</time>
      </trkpt>
      <trkpt lat="45.12605" lon="5.90931">
        <ele>2176</ele>
        <time>2021-02-27T05:57:18Z</time>
      </trkpt>
      <trkpt lat="45.12608" lon="5.90922">
        <ele>2175.2</ele>
        <time>2021-02-27T05:57:19Z</time>
      </trkpt>
      <trkpt lat="45.12612" lon="5.90914">
        <ele>2173.8</ele>
        <time>2021-02-27T05:57:20Z</time>
      </trkpt>
      <trkpt lat="45.12616" lon="5.90907">
        <ele>2172.2</ele>
        <time>2021-02-27T05:57:21Z</time>
      </trkpt>
      <trkpt lat="45.1262" lon="5.909">
        <ele>2171.2</ele>
        <time>2021-02-27T05:57:22Z</time>
      </trkpt>
      <trkpt lat="45.12625" lon="5.90893">
        <ele>2169.8</ele>
        <time>2021-02-27T05:57:23Z</time>
      </trkpt>
      <trkpt lat="45.12629" lon="5.90887">
        <ele>2168.4</ele>
        <time>2021-02-27T05:57:24Z</time>
      </trkpt>
      <trkpt lat="45.12634" lon="5.90881">
        <ele>2167.2</ele>
        <time>2021-02-27T05:57:25Z</time>
      </trkpt>
      <trkpt lat="45.12639" lon="5.90876">
        <ele>2166</ele>
        <time>2021-02-27T05:57:26Z</time>
      </trkpt>
      <trkpt lat="45.12643" lon="5.90871">
        <ele>2164.4</ele>
        <time>2021-02-27T05:57:27Z</time>
      </trkpt>
      <trkpt lat="45.12648" lon="5.90865">
        <ele>2162.6</ele>
        <time>2021-02-27T05:57:28Z</time>
      </trkpt>
      <trkpt lat="45.12648" lon="5.90865">
        <ele>2161</ele>
        <time>2021-02-27T05:57:29Z</time>
      </trkpt>
      <trkpt lat="45.12666" lon="5.90856">
        <ele>2158.8</ele>
        <time>2021-02-27T05:57:30Z</time>
      </trkpt>
      <trkpt lat="45.12671" lon="5.90855">
        <ele>2156.8</ele>
        <time>2021-02-27T05:57:31Z</time>
      </trkpt>
      <trkpt lat="45.1268" lon="5.90854">
        <ele>2154.6</ele>
        <time>2021-02-27T05:57:32Z</time>
      </trkpt>
      <trkpt lat="45.12689" lon="5.90864">
        <ele>2152.6</ele>
        <time>2021-02-27T05:57:33Z</time>
      </trkpt>
      <trkpt lat="45.12697" lon="5.90872">
        <ele>2150.6</ele>
        <time>2021-02-27T05:57:34Z</time>
      </trkpt>
      <trkpt lat="45.12704" lon="5.90883">
        <ele>2148</ele>
        <time>2021-02-27T05:57:35Z</time>
      </trkpt>
      <trkpt lat="45.12711" lon="5.90894">
        <ele>2145.4</ele>
        <time>2021-02-27T05:57:36Z</time>
      </trkpt>
      <trkpt lat="45.12718" lon="5.90906">
        <ele>2143.2</ele>
        <time>2021-02-27T05:57:37Z</time>
      </trkpt>
      <trkpt lat="45.12723" lon="5.90918">
        <ele>2140.4</ele>
        <time>2021-02-27T05:57:38Z</time>
      </trkpt>
      <trkpt lat="45.12729" lon="5.90929">
        <ele>2138</ele>
        <time>2021-02-27T05:57:39Z</time>
      </trkpt>
      <trkpt lat="45.12737" lon="5.90939">
        <ele>2135.6</ele>
        <time>2021-02-27T05:57:40Z</time>
      </trkpt>
      <trkpt lat="45.12743" lon="5.9095">
        <ele>2133.4</ele>
        <time>2021-02-27T05:57:41Z</time>
      </trkpt>
      <trkpt lat="45.1275" lon="5.90964">
        <ele>2130.8</ele>
        <time>2021-02-27T05:57:42Z</time>
      </trkpt>
      <trkpt lat="45.12757" lon="5.90977">
        <ele>2128.2</ele>
        <time>2021-02-27T05:57:43Z</time>
      </trkpt>
      <trkpt lat="45.12765" lon="5.90992">
        <ele>2125.2</ele>
        <time>2021-02-27T05:57:44Z</time>
      </trkpt>
      <trkpt lat="45.12773" lon="5.91007">
        <ele>2122.4</ele>
        <time>2021-02-27T05:57:45Z</time>
      </trkpt>
      <trkpt lat="45.12782" lon="5.9102">
        <ele>2119.8</ele>
        <time>2021-02-27T05:57:46Z</time>
      </trkpt>
      <trkpt lat="45.1279" lon="5.91033">
        <ele>2117.4</ele>
        <time>2021-02-27T05:57:47Z</time>
      </trkpt>
      <trkpt lat="45.12799" lon="5.91046">
        <ele>2115.2</ele>
        <time>2021-02-27T05:57:48Z</time>
      </trkpt>
      <trkpt lat="45.12807" lon="5.91059">
        <ele>2113.4</ele>
        <time>2021-02-27T05:57:49Z</time>
      </trkpt>
      <trkpt lat="45.12815" lon="5.91071">
        <ele>2111.6</ele>
        <time>2021-02-27T05:57:50Z</time>
      </trkpt>
      <trkpt lat="45.12822" lon="5.91084">
        <ele>2110</ele>
        <time>2021-02-27T05:57:51Z</time>
      </trkpt>
      <trkpt lat="45.12827" lon="5.91096">
        <ele>2108</ele>
        <time>2021-02-27T05:57:52Z</time>
      </trkpt>
      <trkpt lat="45.12831" lon="5.91108">
        <ele>2107</ele>
        <time>2021-02-27T05:57:53Z</time>
      </trkpt>
      <trkpt lat="45.12837" lon="5.91119">
        <ele>2106.2</ele>
        <time>2021-02-27T05:57:54Z</time>
      </trkpt>
      <trkpt lat="45.12842" lon="5.91129">
        <ele>2105.2</ele>
        <time>2021-02-27T05:57:55Z</time>
      </trkpt>
      <trkpt lat="45.12847" lon="5.9114">
        <ele>2104</ele>
        <time>2021-02-27T05:57:56Z</time>
      </trkpt>
      <trkpt lat="45.12851" lon="5.91152">
        <ele>2102.6</ele>
        <time>2021-02-27T05:57:57Z</time>
      </trkpt>
      <trkpt lat="45.12856" lon="5.91164">
        <ele>2101.2</ele>
        <time>2021-02-27T05:57:58Z</time>
      </trkpt>
      <trkpt lat="45.12862" lon="5.91175">
        <ele>2099.8</ele>
        <time>2021-02-27T05:57:59Z</time>
      </trkpt>
      <trkpt lat="45.12862" lon="5.91175">
        <ele>2097.8</ele>
        <time>2021-02-27T05:58:00Z</time>
      </trkpt>
      <trkpt lat="45.12874" lon="5.91201">
        <ele>2096.2</ele>
        <time>2021-02-27T05:58:01Z</time>
      </trkpt>
      <trkpt lat="45.12876" lon="5.91206">
        <ele>2095.2</ele>
        <time>2021-02-27T05:58:02Z</time>
      </trkpt>
      <trkpt lat="45.12883" lon="5.91221">
        <ele>2093.6</ele>
        <time>2021-02-27T05:58:03Z</time>
      </trkpt>
      <trkpt lat="45.12886" lon="5.91226">
        <ele>2092</ele>
        <time>2021-02-27T05:58:04Z</time>
      </trkpt>
      <trkpt lat="45.12894" lon="5.91242">
        <ele>2090</ele>
        <time>2021-02-27T05:58:05Z</time>
      </trkpt>
      <trkpt lat="45.12897" lon="5.91247">
        <ele>2088.2</ele>
        <time>2021-02-27T05:58:06Z</time>
      </trkpt>
      <trkpt lat="45.12902" lon="5.91259">
        <ele>2086</ele>
        <time>2021-02-27T05:58:07Z</time>
      </trkpt>
      <trkpt lat="45.12907" lon="5.91269">
        <ele>2083.6</ele>
        <time>2021-02-27T05:58:08Z</time>
      </trkpt>
      <trkpt lat="45.12911" lon="5.9128">
        <ele>2081.6</ele>
        <time>2021-02-27T05:58:09Z</time>
      </trkpt>
      <trkpt lat="45.12914" lon="5.91293">
        <ele>2079.4</ele>
        <time>2021-02-27T05:58:10Z</time>
      </trkpt>
      <trkpt lat="45.12918" lon="5.91306">
        <ele>2076.8</ele>
        <time>2021-02-27T05:58:11Z</time>
      </trkpt>
      <trkpt lat="45.12922" lon="5.91319">
        <ele>2074.8</ele>
        <time>2021-02-27T05:58:12Z</time>
      </trkpt>
      <trkpt lat="45.12922" lon="5.91319">
        <ele>2072.4</ele>
        <time>2021-02-27T05:58:13Z</time>
      </trkpt>
      <trkpt lat="45.12929" lon="5.91344">
        <ele>2070.6</ele>
        <time>2021-02-27T05:58:14Z</time>
      </trkpt>
      <trkpt lat="45.1293" lon="5.91347">
        <ele>2068.8</ele>
        <time>2021-02-27T05:58:15Z</time>
      </trkpt>
      <trkpt lat="45.12934" lon="5.91359">
        <ele>2067</ele>
        <time>2021-02-27T05:58:16Z</time>
      </trkpt>
      <trkpt lat="45.12935" lon="5.91363">
        <ele>2065.4</ele>
        <time>2021-02-27T05:58:17Z</time>
      </trkpt>
      <trkpt lat="45.12939" lon="5.91377">
        <ele>2063.6</ele>
        <time>2021-02-27T05:58:18Z</time>
      </trkpt>
      <trkpt lat="45.1294" lon="5.91382">
        <ele>2062.2</ele>
        <time>2021-02-27T05:58:19Z</time>
      </trkpt>
      <trkpt lat="45.12943" lon="5.91395">
        <ele>2060.2</ele>
        <time>2021-02-27T05:58:20Z</time>
      </trkpt>
      <trkpt lat="45.12943" lon="5.91399">
        <ele>2058.4</ele>
        <time>2021-02-27T05:58:21Z</time>
      </trkpt>
      <trkpt lat="45.12945" lon="5.9141">
        <ele>2057.2</ele>
        <time>2021-02-27T05:58:22Z</time>
      </trkpt>
      <trkpt lat="45.12946" lon="5.91414">
        <ele>2055.6</ele>
        <time>2021-02-27T05:58:23Z</time>
      </trkpt>
      <trkpt lat="45.12949" lon="5.9142">
        <ele>2053.6</ele>
        <time>2021-02-27T05:58:24Z</time>
      </trkpt>
      <trkpt lat="45.12949" lon="5.9142">
        <ele>2052</ele>
        <time>2021-02-27T05:58:25Z</time>
      </trkpt>
      <trkpt lat="45.12958" lon="5.91439">
        <ele>2050.6</ele>
        <time>2021-02-27T05:58:26Z</time>
      </trkpt>
      <trkpt lat="45.12959" lon="5.91443">
        <ele>2049</ele>
        <time>2021-02-27T05:58:27Z</time>
      </trkpt>
      <trkpt lat="45.12966" lon="5.91455">
        <ele>2047.2</ele>
        <time>2021-02-27T05:58:28Z</time>
      </trkpt>
      <trkpt lat="45.12969" lon="5.91459">
        <ele>2045.4</ele>
        <time>2021-02-27T05:58:29Z</time>
      </trkpt>
      <trkpt lat="45.12976" lon="5.91471">
        <ele>2043.8</ele>
        <time>2021-02-27T05:58:30Z</time>
      </trkpt>
      <trkpt lat="45.12978" lon="5.91476">
        <ele>2041.8</ele>
        <time>2021-02-27T05:58:31Z</time>
      </trkpt>
      <trkpt lat="45.12983" lon="5.91489">
        <ele>2039.8</ele>
        <time>2021-02-27T05:58:32Z</time>
      </trkpt>
      <trkpt lat="45.12984" lon="5.91494">
        <ele>2038.4</ele>
        <time>2021-02-27T05:58:33Z</time>
      </trkpt>
      <trkpt lat="45.12989" lon="5.91507">
        <ele>2036.4</ele>
        <time>2021-02-27T05:58:34Z</time>
      </trkpt>
      <trkpt lat="45.12991" lon="5.91513">
        <ele>2034.4</ele>
        <time>2021-02-27T05:58:35Z</time>
      </trkpt>
      <trkpt lat="45.12995" lon="5.91528">
        <ele>2032.2</ele>
        <time>2021-02-27T05:58:36Z</time>
      </trkpt>
      <trkpt lat="45.12996" lon="5.91532">
        <ele>2030</ele>
        <time>2021-02-27T05:58:37Z</time>
      </trkpt>
      <trkpt lat="45.13001" lon="5.91545">
        <ele>2028</ele>
        <time>2021-02-27T05:58:38Z</time>
      </trkpt>
      <trkpt lat="45.13003" lon="5.91549">
        <ele>2026.2</ele>
        <time>2021-02-27T05:58:39Z</time>
      </trkpt>
      <trkpt lat="45.13009" lon="5.91561">
        <ele>2024.4</ele>
        <time>2021-02-27T05:58:40Z</time>
      </trkpt>
      <trkpt lat="45.13011" lon="5.91566">
        <ele>2022.4</ele>
        <time>2021-02-27T05:58:41Z</time>
      </trkpt>
      <trkpt lat="45.13016" lon="5.9158">
        <ele>2020.4</ele>
        <time>2021-02-27T05:58:42Z</time>
      </trkpt>
      <trkpt lat="45.13018" lon="5.91585">
        <ele>2018.8</ele>
        <time>2021-02-27T05:58:43Z</time>
      </trkpt>
      <trkpt lat="45.13022" lon="5.916">
        <ele>2016.8</ele>
        <time>2021-02-27T05:58:44Z</time>
      </trkpt>
      <trkpt lat="45.13024" lon="5.91605">
        <ele>2014.6</ele>
        <time>2021-02-27T05:58:45Z</time>
      </trkpt>
      <trkpt lat="45.13027" lon="5.9162">
        <ele>2012.8</ele>
        <time>2021-02-27T05:58:46Z</time>
      </trkpt>
      <trkpt lat="45.13028" lon="5.91624">
        <ele>2011.4</ele>
        <time>2021-02-27T05:58:47Z</time>
      </trkpt>
      <trkpt lat="45.1303" lon="5.91633">
        <ele>2010</ele>
        <time>2021-02-27T05:58:48Z</time>
      </trkpt>
      <trkpt lat="45.1303" lon="5.91633">
        <ele>2009.2</ele>
        <time>2021-02-27T05:58:49Z</time>
      </trkpt>
      <trkpt lat="45.13033" lon="5.91636">
        <ele>2008.4</ele>
        <time>2021-02-27T05:58:50Z</time>
      </trkpt>
      <trkpt lat="45.13036" lon="5.91638">
        <ele>2007.8</ele>
        <time>2021-02-27T05:58:51Z</time>
      </trkpt>
      <trkpt lat="45.13039" lon="5.91641">
        <ele>2007.2</ele>
        <time>2021-02-27T05:58:52Z</time>
      </trkpt>
      <trkpt lat="45.13043" lon="5.91647">
        <ele>2006.8</ele>
        <time>2021-02-27T05:58:53Z</time>
      </trkpt>
      <trkpt lat="45.13046" lon="5.91654">
        <ele>2006.6</ele>
        <time>2021-02-27T05:58:54Z</time>
      </trkpt>
      <trkpt lat="45.1305" lon="5.91661">
        <ele>2006.2</ele>
        <time>2021-02-27T05:58:55Z</time>
      </trkpt>
      <trkpt lat="45.13055" lon="5.91673">
        <ele>2005.4</ele>
        <time>2021-02-27T05:58:56Z</time>
      </trkpt>
      <trkpt lat="45.13057" lon="5.91678">
        <ele>2004.8</ele>
        <time>2021-02-27T05:58:57Z</time>
      </trkpt>
      <trkpt lat="45.13063" lon="5.9169">
        <ele>2003.8</ele>
        <time>2021-02-27T05:58:58Z</time>
      </trkpt>
      <trkpt lat="45.13065" lon="5.91692">
        <ele>2003</ele>
        <time>2021-02-27T05:58:59Z</time>
      </trkpt>
      <trkpt lat="45.1307" lon="5.917">
        <ele>2002.2</ele>
        <time>2021-02-27T05:59:00Z</time>
      </trkpt>
      <trkpt lat="45.13072" lon="5.91702">
        <ele>2002</ele>
        <time>2021-02-27T05:59:01Z</time>
      </trkpt>
      <trkpt lat="45.13076" lon="5.91706">
        <ele>2001.4</ele>
        <time>2021-02-27T05:59:02Z</time>
      </trkpt>
      <trkpt lat="45.13076" lon="5.91706">
        <ele>2001.2</ele>
        <time>2021-02-27T05:59:03Z</time>
      </trkpt>
      <trkpt lat="45.13088" lon="5.91719">
        <ele>2000.4</ele>
        <time>2021-02-27T05:59:04Z</time>
      </trkpt>
      <trkpt lat="45.13091" lon="5.91722">
        <ele>1999.6</ele>
        <time>2021-02-27T05:59:05Z</time>
      </trkpt>
      <trkpt lat="45.13099" lon="5.91731">
        <ele>1998.6</ele>
        <time>2021-02-27T05:59:06Z</time>
      </trkpt>
      <trkpt lat="45.13102" lon="5.91734">
        <ele>1997.8</ele>
        <time>2021-02-27T05:59:07Z</time>
      </trkpt>
      <trkpt lat="45.13108" lon="5.91741">
        <ele>1997.2</ele>
        <time>2021-02-27T05:59:08Z</time>
      </trkpt>
      <trkpt lat="45.13109" lon="5.91743">
        <ele>1997</ele>
        <time>2021-02-27T05:59:09Z</time>
      </trkpt>
      <trkpt lat="45.13111" lon="5.91746">
        <ele>1996.4</ele>
        <time>2021-02-27T05:59:10Z</time>
      </trkpt>
      <trkpt lat="45.13117" lon="5.91755">
        <ele>1997</ele>
        <time>2021-02-27T05:59:11Z</time>
      </trkpt>
      <trkpt lat="45.13117" lon="5.91755">
        <ele>1996.8</ele>
        <time>2021-02-27T05:59:12Z</time>
      </trkpt>
      <trkpt lat="45.13121" lon="5.91761">
        <ele>1997</ele>
        <time>2021-02-27T05:59:13Z</time>
      </trkpt>
      <trkpt lat="45.13124" lon="5.91768">
        <ele>1996.8</ele>
        <time>2021-02-27T05:59:14Z</time>
      </trkpt>
      <trkpt lat="45.13128" lon="5.91774">
        <ele>1996.6</ele>
        <time>2021-02-27T05:59:15Z</time>
      </trkpt>
      <trkpt lat="45.13131" lon="5.9178">
        <ele>1996.4</ele>
        <time>2021-02-27T05:59:16Z</time>
      </trkpt>
      <trkpt lat="45.13131" lon="5.9178">
        <ele>1995.8</ele>
        <time>2021-02-27T05:59:17Z</time>
      </trkpt>
      <trkpt lat="45.13137" lon="5.91791">
        <ele>1995.4</ele>
        <time>2021-02-27T05:59:18Z</time>
      </trkpt>
      <trkpt lat="45.13137" lon="5.91791">
        <ele>1995.4</ele>
        <time>2021-02-27T05:59:19Z</time>
      </trkpt>
      <trkpt lat="45.13139" lon="5.91795">
        <ele>1995.2</ele>
        <time>2021-02-27T05:59:20Z</time>
      </trkpt>
      <trkpt lat="45.13141" lon="5.918">
        <ele>1994.8</ele>
        <time>2021-02-27T05:59:21Z</time>
      </trkpt>
      <trkpt lat="45.13143" lon="5.91805">
        <ele>1994.4</ele>
        <time>2021-02-27T05:59:22Z</time>
      </trkpt>
      <trkpt lat="45.13145" lon="5.9181">
        <ele>1994.6</ele>
        <time>2021-02-27T05:59:23Z</time>
      </trkpt>
      <trkpt lat="45.13146" lon="5.91814">
        <ele>1994.6</ele>
        <time>2021-02-27T05:59:24Z</time>
      </trkpt>
      <trkpt lat="45.13148" lon="5.91818">
        <ele>1994.4</ele>
        <time>2021-02-27T05:59:25Z</time>
      </trkpt>
      <trkpt lat="45.13149" lon="5.91821">
        <ele>1994.6</ele>
        <time>2021-02-27T05:59:26Z</time>
      </trkpt>
      <trkpt lat="45.13149" lon="5.91824">
        <ele>1995</ele>
        <time>2021-02-27T05:59:27Z</time>
      </trkpt>
      <trkpt lat="45.1315" lon="5.91826">
        <ele>1995.4</ele>
        <time>2021-02-27T05:59:28Z</time>
      </trkpt>
      <trkpt lat="45.13151" lon="5.91829">
        <ele>1995.4</ele>
        <time>2021-02-27T05:59:29Z</time>
      </trkpt>
      <trkpt lat="45.13151" lon="5.91832">
        <ele>1995.8</ele>
        <time>2021-02-27T05:59:30Z</time>
      </trkpt>
      <trkpt lat="45.13152" lon="5.91835">
        <ele>1995.8</ele>
        <time>2021-02-27T05:59:31Z</time>
      </trkpt>
      <trkpt lat="45.13153" lon="5.91837">
        <ele>1995.8</ele>
        <time>2021-02-27T05:59:32Z</time>
      </trkpt>
      <trkpt lat="45.13153" lon="5.91839">
        <ele>1995.8</ele>
        <time>2021-02-27T05:59:33Z</time>
      </trkpt>
      <trkpt lat="45.13154" lon="5.91841">
        <ele>1995.8</ele>
        <time>2021-02-27T05:59:34Z</time>
      </trkpt>
      <trkpt lat="45.13155" lon="5.91844">
        <ele>1996</ele>
        <time>2021-02-27T05:59:35Z</time>
      </trkpt>
      <trkpt lat="45.13155" lon="5.91846">
        <ele>1996.6</ele>
        <time>2021-02-27T05:59:36Z</time>
      </trkpt>
      <trkpt lat="45.13156" lon="5.91848">
        <ele>1996.6</ele>
        <time>2021-02-27T05:59:37Z</time>
      </trkpt>
      <trkpt lat="45.13157" lon="5.9185">
        <ele>1996.6</ele>
        <time>2021-02-27T05:59:38Z</time>
      </trkpt>
      <trkpt lat="45.13159" lon="5.91852">
        <ele>1997.2</ele>
        <time>2021-02-27T05:59:39Z</time>
      </trkpt>
      <trkpt lat="45.1316" lon="5.91854">
        <ele>1997</ele>
        <time>2021-02-27T05:59:40Z</time>
      </trkpt>
      <trkpt lat="45.13161" lon="5.91856">
        <ele>1997.4</ele>
        <time>2021-02-27T05:59:41Z</time>
      </trkpt>
      <trkpt lat="45.13162" lon="5.91857">
        <ele>1997.6</ele>
        <time>2021-02-27T05:59:42Z</time>
      </trkpt>
      <trkpt lat="45.13164" lon="5.9186">
        <ele>1997.6</ele>
        <time>2021-02-27T05:59:43Z</time>
      </trkpt>
      <trkpt lat="45.13166" lon="5.91862">
        <ele>1997.6</ele>
        <time>2021-02-27T05:59:44Z</time>
      </trkpt>
      <trkpt lat="45.13168" lon="5.91864">
        <ele>1997.8</ele>
        <time>2021-02-27T05:59:45Z</time>
      </trkpt>
      <trkpt lat="45.13169" lon="5.91866">
        <ele>1997.8</ele>
        <time>2021-02-27T05:59:46Z</time>
      </trkpt>
      <trkpt lat="45.13172" lon="5.91869">
        <ele>1997.4</ele>
        <time>2021-02-27T05:59:47Z</time>
      </trkpt>
      <trkpt lat="45.13174" lon="5.91871">
        <ele>1997.4</ele>
        <time>2021-02-27T05:59:48Z</time>
      </trkpt>
      <trkpt lat="45.13176" lon="5.91874">
        <ele>1997.2</ele>
        <time>2021-02-27T05:59:49Z</time>
      </trkpt>
      <trkpt lat="45.13181" lon="5.9188">
        <ele>1997</ele>
        <time>2021-02-27T05:59:50Z</time>
      </trkpt>
      <trkpt lat="45.13186" lon="5.91885">
        <ele>1996.6</ele>
        <time>2021-02-27T05:59:51Z</time>
      </trkpt>
      <trkpt lat="45.13191" lon="5.91891">
        <ele>1996.4</ele>
        <time>2021-02-27T05:59:52Z</time>
      </trkpt>
      <trkpt lat="45.13196" lon="5.91897">
        <ele>1996.2</ele>
        <time>2021-02-27T05:59:53Z</time>
      </trkpt>
      <trkpt lat="45.13198" lon="5.91899">
        <ele>1995.8</ele>
        <time>2021-02-27T05:59:54Z</time>
      </trkpt>
      <trkpt lat="45.13201" lon="5.91901">
        <ele>1995.8</ele>
        <time>2021-02-27T05:59:55Z</time>
      </trkpt>
      <trkpt lat="45.13201" lon="5.91901">
        <ele>1995.6</ele>
        <time>2021-02-27T05:59:56Z</time>
      </trkpt>
      <trkpt lat="45.13208" lon="5.91906">
        <ele>1996</ele>
        <time>2021-02-27T05:59:57Z</time>
      </trkpt>
      <trkpt lat="45.1321" lon="5.91907">
        <ele>1995.6</ele>
        <time>2021-02-27T05:59:58Z</time>
      </trkpt>
      <trkpt lat="45.1321" lon="5.91907">
        <ele>1995.6</ele>
        <time>2021-02-27T05:59:59Z</time>
      </trkpt>
      <trkpt lat="45.13213" lon="5.91909">
        <ele>1995.4</ele>
        <time>2021-02-27T06:00:00Z</time>
      </trkpt>
      <trkpt lat="45.13216" lon="5.91911">
        <ele>1995.2</ele>
        <time>2021-02-27T06:00:01Z</time>
      </trkpt>
      <trkpt lat="45.13219" lon="5.91913">
        <ele>1994.8</ele>
        <time>2021-02-27T06:00:02Z</time>
      </trkpt>
      <trkpt lat="45.13222" lon="5.91915">
        <ele>1995.2</ele>
        <time>2021-02-27T06:00:03Z</time>
      </trkpt>
      <trkpt lat="45.13225" lon="5.91918">
        <ele>1995.2</ele>
        <time>2021-02-27T06:00:04Z</time>
      </trkpt>
      <trkpt lat="45.13228" lon="5.9192">
        <ele>1995</ele>
        <time>2021-02-27T06:00:05Z</time>
      </trkpt>
      <trkpt lat="45.13231" lon="5.91922">
        <ele>1995</ele>
        <time>2021-02-27T06:00:06Z</time>
      </trkpt>
      <trkpt lat="45.13234" lon="5.91925">
        <ele>1995</ele>
        <time>2021-02-27T06:00:07Z</time>
      </trkpt>
      <trkpt lat="45.13237" lon="5.91927">
        <ele>1994.8</ele>
        <time>2021-02-27T06:00:08Z</time>
      </trkpt>
      <trkpt lat="45.13241" lon="5.9193">
        <ele>1994.4</ele>
        <time>2021-02-27T06:00:09Z</time>
      </trkpt>
      <trkpt lat="45.13245" lon="5.91932">
        <ele>1994.2</ele>
        <time>2021-02-27T06:00:10Z</time>
      </trkpt>
      <trkpt lat="45.1325" lon="5.91935">
        <ele>1994.2</ele>
        <time>2021-02-27T06:00:11Z</time>
      </trkpt>
      <trkpt lat="45.1325" lon="5.91935">
        <ele>1994</ele>
        <time>2021-02-27T06:00:12Z</time>
      </trkpt>
      <trkpt lat="45.13257" lon="5.91944">
        <ele>1993.8</ele>
        <time>2021-02-27T06:00:13Z</time>
      </trkpt>
      <trkpt lat="45.13257" lon="5.91944">
        <ele>1993.8</ele>
        <time>2021-02-27T06:00:14Z</time>
      </trkpt>
      <trkpt lat="45.13262" lon="5.91953">
        <ele>1993.6</ele>
        <time>2021-02-27T06:00:15Z</time>
      </trkpt>
      <trkpt lat="45.13262" lon="5.91953">
        <ele>1993.6</ele>
        <time>2021-02-27T06:00:16Z</time>
      </trkpt>
      <trkpt lat="45.13265" lon="5.91957">
        <ele>1993.8</ele>
        <time>2021-02-27T06:00:17Z</time>
      </trkpt>
      <trkpt lat="45.13267" lon="5.9196">
        <ele>1993.6</ele>
        <time>2021-02-27T06:00:18Z</time>
      </trkpt>
      <trkpt lat="45.1327" lon="5.91964">
        <ele>1993.8</ele>
        <time>2021-02-27T06:00:19Z</time>
      </trkpt>
      <trkpt lat="45.13271" lon="5.91967">
        <ele>1993.8</ele>
        <time>2021-02-27T06:00:20Z</time>
      </trkpt>
      <trkpt lat="45.13272" lon="5.91971">
        <ele>1994</ele>
        <time>2021-02-27T06:00:21Z</time>
      </trkpt>
      <trkpt lat="45.13273" lon="5.91974">
        <ele>1994.6</ele>
        <time>2021-02-27T06:00:22Z</time>
      </trkpt>
      <trkpt lat="45.13275" lon="5.91977">
        <ele>1995</ele>
        <time>2021-02-27T06:00:23Z</time>
      </trkpt>
      <trkpt lat="45.13275" lon="5.9198">
        <ele>1995</ele>
        <time>2021-02-27T06:00:24Z</time>
      </trkpt>
      <trkpt lat="45.13276" lon="5.91982">
        <ele>1995</ele>
        <time>2021-02-27T06:00:25Z</time>
      </trkpt>
      <trkpt lat="45.13277" lon="5.91984">
        <ele>1995.6</ele>
        <time>2021-02-27T06:00:26Z</time>
      </trkpt>
      <trkpt lat="45.13277" lon="5.91987">
        <ele>1995.6</ele>
        <time>2021-02-27T06:00:27Z</time>
      </trkpt>
      <trkpt lat="45.13278" lon="5.91989">
        <ele>1995.6</ele>
        <time>2021-02-27T06:00:28Z</time>
      </trkpt>
      <trkpt lat="45.13279" lon="5.91993">
        <ele>1996</ele>
        <time>2021-02-27T06:00:29Z</time>
      </trkpt>
      <trkpt lat="45.1328" lon="5.91996">
        <ele>1995.8</ele>
        <time>2021-02-27T06:00:30Z</time>
      </trkpt>
      <trkpt lat="45.13281" lon="5.92">
        <ele>1996</ele>
        <time>2021-02-27T06:00:31Z</time>
      </trkpt>
      <trkpt lat="45.13281" lon="5.92004">
        <ele>1995.8</ele>
        <time>2021-02-27T06:00:32Z</time>
      </trkpt>
      <trkpt lat="45.13282" lon="5.92009">
        <ele>1996.2</ele>
        <time>2021-02-27T06:00:33Z</time>
      </trkpt>
      <trkpt lat="45.13282" lon="5.92013">
        <ele>1995.8</ele>
        <time>2021-02-27T06:00:34Z</time>
      </trkpt>
      <trkpt lat="45.13282" lon="5.92018">
        <ele>1995.8</ele>
        <time>2021-02-27T06:00:35Z</time>
      </trkpt>
      <trkpt lat="45.13282" lon="5.92021">
        <ele>1996</ele>
        <time>2021-02-27T06:00:36Z</time>
      </trkpt>
      <trkpt lat="45.13283" lon="5.92023">
        <ele>1996.2</ele>
        <time>2021-02-27T06:00:37Z</time>
      </trkpt>
      <trkpt lat="45.13283" lon="5.92026">
        <ele>1996</ele>
        <time>2021-02-27T06:00:38Z</time>
      </trkpt>
      <trkpt lat="45.13284" lon="5.92029">
        <ele>1996.2</ele>
        <time>2021-02-27T06:00:39Z</time>
      </trkpt>
      <trkpt lat="45.13284" lon="5.92031">
        <ele>1996.2</ele>
        <time>2021-02-27T06:00:40Z</time>
      </trkpt>
      <trkpt lat="45.13285" lon="5.92035">
        <ele>1996.2</ele>
        <time>2021-02-27T06:00:41Z</time>
      </trkpt>
      <trkpt lat="45.13286" lon="5.92038">
        <ele>1996.4</ele>
        <time>2021-02-27T06:00:42Z</time>
      </trkpt>
      <trkpt lat="45.13287" lon="5.92042">
        <ele>1996.4</ele>
        <time>2021-02-27T06:00:43Z</time>
      </trkpt>
      <trkpt lat="45.13288" lon="5.92045">
        <ele>1996.4</ele>
        <time>2021-02-27T06:00:44Z</time>
      </trkpt>
      <trkpt lat="45.13292" lon="5.92048">
        <ele>1996.2</ele>
        <time>2021-02-27T06:00:45Z</time>
      </trkpt>
      <trkpt lat="45.13295" lon="5.92052">
        <ele>1995.8</ele>
        <time>2021-02-27T06:00:46Z</time>
      </trkpt>
      <trkpt lat="45.13298" lon="5.92055">
        <ele>1995.6</ele>
        <time>2021-02-27T06:00:47Z</time>
      </trkpt>
      <trkpt lat="45.13302" lon="5.92058">
        <ele>1995.2</ele>
        <time>2021-02-27T06:00:48Z</time>
      </trkpt>
      <trkpt lat="45.13305" lon="5.92061">
        <ele>1995</ele>
        <time>2021-02-27T06:00:49Z</time>
      </trkpt>
      <trkpt lat="45.13309" lon="5.92064">
        <ele>1994.8</ele>
        <time>2021-02-27T06:00:50Z</time>
      </trkpt>
      <trkpt lat="45.13312" lon="5.92069">
        <ele>1994.8</ele>
        <time>2021-02-27T06:00:51Z</time>
      </trkpt>
      <trkpt lat="45.13316" lon="5.92074">
        <ele>1994.6</ele>
        <time>2021-02-27T06:00:52Z</time>
      </trkpt>
      <trkpt lat="45.13319" lon="5.92079">
        <ele>1994.2</ele>
        <time>2021-02-27T06:00:53Z</time>
      </trkpt>
      <trkpt lat="45.13322" lon="5.92084">
        <ele>1994</ele>
        <time>2021-02-27T06:00:54Z</time>
      </trkpt>
      <trkpt lat="45.13324" lon="5.92091">
        <ele>1993.6</ele>
        <time>2021-02-27T06:00:55Z</time>
      </trkpt>
      <trkpt lat="45.13324" lon="5.92091">
        <ele>1992.8</ele>
        <time>2021-02-27T06:00:56Z</time>
      </trkpt>
      <trkpt lat="45.13335" lon="5.9211">
        <ele>1992.2</ele>
        <time>2021-02-27T06:00:57Z</time>
      </trkpt>
      <trkpt lat="45.13337" lon="5.92114">
        <ele>1991.4</ele>
        <time>2021-02-27T06:00:58Z</time>
      </trkpt>
      <trkpt lat="45.13342" lon="5.92121">
        <ele>1990.6</ele>
        <time>2021-02-27T06:00:59Z</time>
      </trkpt>
      <trkpt lat="45.13347" lon="5.92126">
        <ele>1990</ele>
        <time>2021-02-27T06:01:00Z</time>
      </trkpt>
      <trkpt lat="45.13352" lon="5.92131">
        <ele>1989.4</ele>
        <time>2021-02-27T06:01:01Z</time>
      </trkpt>
      <trkpt lat="45.13357" lon="5.92137">
        <ele>1989</ele>
        <time>2021-02-27T06:01:02Z</time>
      </trkpt>
      <trkpt lat="45.13362" lon="5.92142">
        <ele>1988.2</ele>
        <time>2021-02-27T06:01:03Z</time>
      </trkpt>
      <trkpt lat="45.13366" lon="5.92148">
        <ele>1987.2</ele>
        <time>2021-02-27T06:01:04Z</time>
      </trkpt>
      <trkpt lat="45.13366" lon="5.92148">
        <ele>1986.4</ele>
        <time>2021-02-27T06:01:05Z</time>
      </trkpt>
      <trkpt lat="45.1338" lon="5.92163">
        <ele>1985.6</ele>
        <time>2021-02-27T06:01:06Z</time>
      </trkpt>
      <trkpt lat="45.13383" lon="5.92165">
        <ele>1984.4</ele>
        <time>2021-02-27T06:01:07Z</time>
      </trkpt>
      <trkpt lat="45.1339" lon="5.92172">
        <ele>1983.8</ele>
        <time>2021-02-27T06:01:08Z</time>
      </trkpt>
      <trkpt lat="45.13391" lon="5.92172">
        <ele>1983.2</ele>
        <time>2021-02-27T06:01:09Z</time>
      </trkpt>
      <trkpt lat="45.13394" lon="5.92174">
        <ele>1982.2</ele>
        <time>2021-02-27T06:01:10Z</time>
      </trkpt>
      <trkpt lat="45.13408" lon="5.9218">
        <ele>1981.8</ele>
        <time>2021-02-27T06:01:11Z</time>
      </trkpt>
      <trkpt lat="45.13411" lon="5.9218">
        <ele>1981.2</ele>
        <time>2021-02-27T06:01:12Z</time>
      </trkpt>
      <trkpt lat="45.13416" lon="5.92181">
        <ele>1980.6</ele>
        <time>2021-02-27T06:01:13Z</time>
      </trkpt>
      <trkpt lat="45.13416" lon="5.92181">
        <ele>1980.6</ele>
        <time>2021-02-27T06:01:14Z</time>
      </trkpt>
      <trkpt lat="45.1342" lon="5.9218">
        <ele>1980</ele>
        <time>2021-02-27T06:01:15Z</time>
      </trkpt>
      <trkpt lat="45.13424" lon="5.9218">
        <ele>1979.8</ele>
        <time>2021-02-27T06:01:16Z</time>
      </trkpt>
      <trkpt lat="45.13428" lon="5.92179">
        <ele>1979.6</ele>
        <time>2021-02-27T06:01:17Z</time>
      </trkpt>
      <trkpt lat="45.13431" lon="5.92178">
        <ele>1979.6</ele>
        <time>2021-02-27T06:01:18Z</time>
      </trkpt>
      <trkpt lat="45.13434" lon="5.92178">
        <ele>1979.6</ele>
        <time>2021-02-27T06:01:19Z</time>
      </trkpt>
      <trkpt lat="45.13437" lon="5.92177">
        <ele>1979.2</ele>
        <time>2021-02-27T06:01:20Z</time>
      </trkpt>
      <trkpt lat="45.13441" lon="5.92177">
        <ele>1979.2</ele>
        <time>2021-02-27T06:01:21Z</time>
      </trkpt>
      <trkpt lat="45.13444" lon="5.92177">
        <ele>1979</ele>
        <time>2021-02-27T06:01:22Z</time>
      </trkpt>
      <trkpt lat="45.13447" lon="5.92177">
        <ele>1978.8</ele>
        <time>2021-02-27T06:01:23Z</time>
      </trkpt>
      <trkpt lat="45.13452" lon="5.92178">
        <ele>1978.8</ele>
        <time>2021-02-27T06:01:24Z</time>
      </trkpt>
      <trkpt lat="45.13458" lon="5.9218">
        <ele>1978.4</ele>
        <time>2021-02-27T06:01:25Z</time>
      </trkpt>
      <trkpt lat="45.13464" lon="5.92182">
        <ele>1978.4</ele>
        <time>2021-02-27T06:01:26Z</time>
      </trkpt>
      <trkpt lat="45.13471" lon="5.92186">
        <ele>1978</ele>
        <time>2021-02-27T06:01:27Z</time>
      </trkpt>
      <trkpt lat="45.13474" lon="5.92187">
        <ele>1977.8</ele>
        <time>2021-02-27T06:01:28Z</time>
      </trkpt>
      <trkpt lat="45.13481" lon="5.92191">
        <ele>1977.2</ele>
        <time>2021-02-27T06:01:29Z</time>
      </trkpt>
      <trkpt lat="45.13484" lon="5.92192">
        <ele>1976.6</ele>
        <time>2021-02-27T06:01:30Z</time>
      </trkpt>
      <trkpt lat="45.13492" lon="5.92197">
        <ele>1976</ele>
        <time>2021-02-27T06:01:31Z</time>
      </trkpt>
      <trkpt lat="45.13495" lon="5.92198">
        <ele>1975.2</ele>
        <time>2021-02-27T06:01:32Z</time>
      </trkpt>
      <trkpt lat="45.13504" lon="5.92201">
        <ele>1974.4</ele>
        <time>2021-02-27T06:01:33Z</time>
      </trkpt>
      <trkpt lat="45.13508" lon="5.92202">
        <ele>1973.6</ele>
        <time>2021-02-27T06:01:34Z</time>
      </trkpt>
      <trkpt lat="45.13518" lon="5.92204">
        <ele>1973</ele>
        <time>2021-02-27T06:01:35Z</time>
      </trkpt>
      <trkpt lat="45.13522" lon="5.92205">
        <ele>1972.2</ele>
        <time>2021-02-27T06:01:36Z</time>
      </trkpt>
      <trkpt lat="45.13533" lon="5.92207">
        <ele>1971</ele>
        <time>2021-02-27T06:01:37Z</time>
      </trkpt>
      <trkpt lat="45.13536" lon="5.92208">
        <ele>1969.8</ele>
        <time>2021-02-27T06:01:38Z</time>
      </trkpt>
      <trkpt lat="45.13544" lon="5.92211">
        <ele>1969.2</ele>
        <time>2021-02-27T06:01:39Z</time>
      </trkpt>
      <trkpt lat="45.13547" lon="5.92212">
        <ele>1968.6</ele>
        <time>2021-02-27T06:01:40Z</time>
      </trkpt>
      <trkpt lat="45.13552" lon="5.92214">
        <ele>1968.4</ele>
        <time>2021-02-27T06:01:41Z</time>
      </trkpt>
      <trkpt lat="45.13552" lon="5.92214">
        <ele>1968.2</ele>
        <time>2021-02-27T06:01:42Z</time>
      </trkpt>
      <trkpt lat="45.13564" lon="5.9222">
        <ele>1968</ele>
        <time>2021-02-27T06:01:43Z</time>
      </trkpt>
      <trkpt lat="45.13566" lon="5.92221">
        <ele>1967.4</ele>
        <time>2021-02-27T06:01:44Z</time>
      </trkpt>
      <trkpt lat="45.1357" lon="5.92224">
        <ele>1967</ele>
        <time>2021-02-27T06:01:45Z</time>
      </trkpt>
      <trkpt lat="45.1357" lon="5.92224">
        <ele>1967.2</ele>
        <time>2021-02-27T06:01:46Z</time>
      </trkpt>
      <trkpt lat="45.13575" lon="5.92225">
        <ele>1966.4</ele>
        <time>2021-02-27T06:01:47Z</time>
      </trkpt>
      <trkpt lat="45.13579" lon="5.92227">
        <ele>1966.4</ele>
        <time>2021-02-27T06:01:48Z</time>
      </trkpt>
      <trkpt lat="45.13583" lon="5.92229">
        <ele>1966.4</ele>
        <time>2021-02-27T06:01:49Z</time>
      </trkpt>
      <trkpt lat="45.13587" lon="5.92231">
        <ele>1965.8</ele>
        <time>2021-02-27T06:01:50Z</time>
      </trkpt>
      <trkpt lat="45.13591" lon="5.92234">
        <ele>1965.8</ele>
        <time>2021-02-27T06:01:51Z</time>
      </trkpt>
      <trkpt lat="45.13594" lon="5.92237">
        <ele>1965.8</ele>
        <time>2021-02-27T06:01:52Z</time>
      </trkpt>
      <trkpt lat="45.13597" lon="5.92239">
        <ele>1966</ele>
        <time>2021-02-27T06:01:53Z</time>
      </trkpt>
      <trkpt lat="45.136" lon="5.92241">
        <ele>1966</ele>
        <time>2021-02-27T06:01:54Z</time>
      </trkpt>
      <trkpt lat="45.13602" lon="5.92244">
        <ele>1965.8</ele>
        <time>2021-02-27T06:01:55Z</time>
      </trkpt>
      <trkpt lat="45.13605" lon="5.92246">
        <ele>1965.6</ele>
        <time>2021-02-27T06:01:56Z</time>
      </trkpt>
      <trkpt lat="45.13608" lon="5.92249">
        <ele>1966</ele>
        <time>2021-02-27T06:01:57Z</time>
      </trkpt>
      <trkpt lat="45.13611" lon="5.92252">
        <ele>1966</ele>
        <time>2021-02-27T06:01:58Z</time>
      </trkpt>
      <trkpt lat="45.13614" lon="5.92254">
        <ele>1966</ele>
        <time>2021-02-27T06:01:59Z</time>
      </trkpt>
      <trkpt lat="45.13617" lon="5.92256">
        <ele>1966.2</ele>
        <time>2021-02-27T06:02:00Z</time>
      </trkpt>
      <trkpt lat="45.1362" lon="5.92258">
        <ele>1966.2</ele>
        <time>2021-02-27T06:02:01Z</time>
      </trkpt>
      <trkpt lat="45.13623" lon="5.9226">
        <ele>1966.2</ele>
        <time>2021-02-27T06:02:02Z</time>
      </trkpt>
      <trkpt lat="45.13626" lon="5.92262">
        <ele>1966.4</ele>
        <time>2021-02-27T06:02:03Z</time>
      </trkpt>
      <trkpt lat="45.13629" lon="5.92264">
        <ele>1966.4</ele>
        <time>2021-02-27T06:02:04Z</time>
      </trkpt>
      <trkpt lat="45.13631" lon="5.92267">
        <ele>1966.2</ele>
        <time>2021-02-27T06:02:05Z</time>
      </trkpt>
      <trkpt lat="45.13633" lon="5.92269">
        <ele>1966.2</ele>
        <time>2021-02-27T06:02:06Z</time>
      </trkpt>
      <trkpt lat="45.13634" lon="5.92272">
        <ele>1966.2</ele>
        <time>2021-02-27T06:02:07Z</time>
      </trkpt>
      <trkpt lat="45.13636" lon="5.92274">
        <ele>1965.8</ele>
        <time>2021-02-27T06:02:08Z</time>
      </trkpt>
      <trkpt lat="45.13639" lon="5.92277">
        <ele>1965.8</ele>
        <time>2021-02-27T06:02:09Z</time>
      </trkpt>
      <trkpt lat="45.13641" lon="5.9228">
        <ele>1965.8</ele>
        <time>2021-02-27T06:02:10Z</time>
      </trkpt>
      <trkpt lat="45.13644" lon="5.92282">
        <ele>1965.6</ele>
        <time>2021-02-27T06:02:11Z</time>
      </trkpt>
      <trkpt lat="45.13646" lon="5.92285">
        <ele>1965.2</ele>
        <time>2021-02-27T06:02:12Z</time>
      </trkpt>
      <trkpt lat="45.13649" lon="5.92288">
        <ele>1964.8</ele>
        <time>2021-02-27T06:02:13Z</time>
      </trkpt>
      <trkpt lat="45.13651" lon="5.92291">
        <ele>1965</ele>
        <time>2021-02-27T06:02:14Z</time>
      </trkpt>
      <trkpt lat="45.13653" lon="5.92293">
        <ele>1964.6</ele>
        <time>2021-02-27T06:02:15Z</time>
      </trkpt>
      <trkpt lat="45.13656" lon="5.92294">
        <ele>1965</ele>
        <time>2021-02-27T06:02:16Z</time>
      </trkpt>
      <trkpt lat="45.13659" lon="5.92295">
        <ele>1965</ele>
        <time>2021-02-27T06:02:17Z</time>
      </trkpt>
      <trkpt lat="45.13661" lon="5.92296">
        <ele>1964.8</ele>
        <time>2021-02-27T06:02:18Z</time>
      </trkpt>
      <trkpt lat="45.13663" lon="5.92298">
        <ele>1964.6</ele>
        <time>2021-02-27T06:02:19Z</time>
      </trkpt>
      <trkpt lat="45.13666" lon="5.923">
        <ele>1964.4</ele>
        <time>2021-02-27T06:02:20Z</time>
      </trkpt>
      <trkpt lat="45.13668" lon="5.92302">
        <ele>1964.6</ele>
        <time>2021-02-27T06:02:21Z</time>
      </trkpt>
      <trkpt lat="45.13671" lon="5.92304">
        <ele>1964.6</ele>
        <time>2021-02-27T06:02:22Z</time>
      </trkpt>
      <trkpt lat="45.13673" lon="5.92306">
        <ele>1964.6</ele>
        <time>2021-02-27T06:02:23Z</time>
      </trkpt>
      <trkpt lat="45.13676" lon="5.92309">
        <ele>1964.8</ele>
        <time>2021-02-27T06:02:24Z</time>
      </trkpt>
      <trkpt lat="45.13678" lon="5.92311">
        <ele>1964.8</ele>
        <time>2021-02-27T06:02:25Z</time>
      </trkpt>
      <trkpt lat="45.13681" lon="5.92313">
        <ele>1964.8</ele>
        <time>2021-02-27T06:02:26Z</time>
      </trkpt>
      <trkpt lat="45.13682" lon="5.92316">
        <ele>1964.8</ele>
        <time>2021-02-27T06:02:27Z</time>
      </trkpt>
      <trkpt lat="45.13684" lon="5.92318">
        <ele>1965</ele>
        <time>2021-02-27T06:02:28Z</time>
      </trkpt>
      <trkpt lat="45.13686" lon="5.9232">
        <ele>1964.8</ele>
        <time>2021-02-27T06:02:29Z</time>
      </trkpt>
      <trkpt lat="45.13687" lon="5.92322">
        <ele>1964.8</ele>
        <time>2021-02-27T06:02:30Z</time>
      </trkpt>
      <trkpt lat="45.13689" lon="5.92324">
        <ele>1965</ele>
        <time>2021-02-27T06:02:31Z</time>
      </trkpt>
      <trkpt lat="45.1369" lon="5.92327">
        <ele>1965.4</ele>
        <time>2021-02-27T06:02:32Z</time>
      </trkpt>
      <trkpt lat="45.13692" lon="5.92329">
        <ele>1965.4</ele>
        <time>2021-02-27T06:02:33Z</time>
      </trkpt>
      <trkpt lat="45.13693" lon="5.92332">
        <ele>1965.6</ele>
        <time>2021-02-27T06:02:34Z</time>
      </trkpt>
      <trkpt lat="45.13695" lon="5.92334">
        <ele>1965.6</ele>
        <time>2021-02-27T06:02:35Z</time>
      </trkpt>
      <trkpt lat="45.13696" lon="5.92337">
        <ele>1965.8</ele>
        <time>2021-02-27T06:02:36Z</time>
      </trkpt>
      <trkpt lat="45.13697" lon="5.92338">
        <ele>1965.8</ele>
        <time>2021-02-27T06:02:37Z</time>
      </trkpt>
      <trkpt lat="45.13698" lon="5.9234">
        <ele>1965.8</ele>
        <time>2021-02-27T06:02:38Z</time>
      </trkpt>
      <trkpt lat="45.137" lon="5.92342">
        <ele>1965.6</ele>
        <time>2021-02-27T06:02:39Z</time>
      </trkpt>
      <trkpt lat="45.13701" lon="5.92343">
        <ele>1965.8</ele>
        <time>2021-02-27T06:02:40Z</time>
      </trkpt>
      <trkpt lat="45.13702" lon="5.92345">
        <ele>1965.4</ele>
        <time>2021-02-27T06:02:41Z</time>
      </trkpt>
      <trkpt lat="45.13703" lon="5.92346">
        <ele>1965.2</ele>
        <time>2021-02-27T06:02:42Z</time>
      </trkpt>
      <trkpt lat="45.13703" lon="5.92347">
        <ele>1965.2</ele>
        <time>2021-02-27T06:02:43Z</time>
      </trkpt>
      <trkpt lat="45.13704" lon="5.92347">
        <ele>1965.4</ele>
        <time>2021-02-27T06:02:44Z</time>
      </trkpt>
      <trkpt lat="45.13705" lon="5.92348">
        <ele>1965.4</ele>
        <time>2021-02-27T06:02:45Z</time>
      </trkpt>
      <trkpt lat="45.13706" lon="5.92348">
        <ele>1965.6</ele>
        <time>2021-02-27T06:02:46Z</time>
      </trkpt>
      <trkpt lat="45.13707" lon="5.92348">
        <ele>1965.6</ele>
        <time>2021-02-27T06:02:47Z</time>
      </trkpt>
      <trkpt lat="45.13708" lon="5.92349">
        <ele>1965.6</ele>
        <time>2021-02-27T06:02:48Z</time>
      </trkpt>
      <trkpt lat="45.13709" lon="5.92349">
        <ele>1966.2</ele>
        <time>2021-02-27T06:02:49Z</time>
      </trkpt>
      <trkpt lat="45.1371" lon="5.9235">
        <ele>1966.2</ele>
        <time>2021-02-27T06:02:50Z</time>
      </trkpt>
      <trkpt lat="45.1371" lon="5.9235">
        <ele>1966</ele>
        <time>2021-02-27T06:02:51Z</time>
      </trkpt>
      <trkpt lat="45.13711" lon="5.9235">
        <ele>1966</ele>
        <time>2021-02-27T06:02:52Z</time>
      </trkpt>
      <trkpt lat="45.13712" lon="5.92351">
        <ele>1966.4</ele>
        <time>2021-02-27T06:02:53Z</time>
      </trkpt>
      <trkpt lat="45.13713" lon="5.92352">
        <ele>1966.6</ele>
        <time>2021-02-27T06:02:54Z</time>
      </trkpt>
      <trkpt lat="45.13714" lon="5.92353">
        <ele>1966.8</ele>
        <time>2021-02-27T06:02:55Z</time>
      </trkpt>
      <trkpt lat="45.13715" lon="5.92354">
        <ele>1967</ele>
        <time>2021-02-27T06:02:56Z</time>
      </trkpt>
      <trkpt lat="45.13716" lon="5.92355">
        <ele>1967</ele>
        <time>2021-02-27T06:02:57Z</time>
      </trkpt>
      <trkpt lat="45.13717" lon="5.92356">
        <ele>1967.4</ele>
        <time>2021-02-27T06:02:58Z</time>
      </trkpt>
      <trkpt lat="45.13718" lon="5.92356">
        <ele>1967.8</ele>
        <time>2021-02-27T06:02:59Z</time>
      </trkpt>
      <trkpt lat="45.13719" lon="5.92357">
        <ele>1967.8</ele>
        <time>2021-02-27T06:03:00Z</time>
      </trkpt>
      <trkpt lat="45.1372" lon="5.92358">
        <ele>1967.8</ele>
        <time>2021-02-27T06:03:01Z</time>
      </trkpt>
      <trkpt lat="45.13721" lon="5.9236">
        <ele>1968.2</ele>
        <time>2021-02-27T06:03:02Z</time>
      </trkpt>
      <trkpt lat="45.13723" lon="5.92363">
        <ele>1968.4</ele>
        <time>2021-02-27T06:03:03Z</time>
      </trkpt>
      <trkpt lat="45.13725" lon="5.92365">
        <ele>1968.2</ele>
        <time>2021-02-27T06:03:04Z</time>
      </trkpt>
      <trkpt lat="45.13726" lon="5.92367">
        <ele>1968</ele>
        <time>2021-02-27T06:03:05Z</time>
      </trkpt>
      <trkpt lat="45.13729" lon="5.92369">
        <ele>1968.2</ele>
        <time>2021-02-27T06:03:06Z</time>
      </trkpt>
      <trkpt lat="45.13731" lon="5.92371">
        <ele>1967.8</ele>
        <time>2021-02-27T06:03:07Z</time>
      </trkpt>
      <trkpt lat="45.13733" lon="5.92373">
        <ele>1967.8</ele>
        <time>2021-02-27T06:03:08Z</time>
      </trkpt>
      <trkpt lat="45.13735" lon="5.92375">
        <ele>1967.6</ele>
        <time>2021-02-27T06:03:09Z</time>
      </trkpt>
      <trkpt lat="45.13737" lon="5.92377">
        <ele>1967.8</ele>
        <time>2021-02-27T06:03:10Z</time>
      </trkpt>
      <trkpt lat="45.13739" lon="5.92378">
        <ele>1967.6</ele>
        <time>2021-02-27T06:03:11Z</time>
      </trkpt>
      <trkpt lat="45.13742" lon="5.9238">
        <ele>1967.8</ele>
        <time>2021-02-27T06:03:12Z</time>
      </trkpt>
      <trkpt lat="45.13744" lon="5.92382">
        <ele>1967.4</ele>
        <time>2021-02-27T06:03:13Z</time>
      </trkpt>
      <trkpt lat="45.13747" lon="5.92383">
        <ele>1967</ele>
        <time>2021-02-27T06:03:14Z</time>
      </trkpt>
      <trkpt lat="45.1375" lon="5.92384">
        <ele>1967</ele>
        <time>2021-02-27T06:03:15Z</time>
      </trkpt>
      <trkpt lat="45.13754" lon="5.92386">
        <ele>1966.6</ele>
        <time>2021-02-27T06:03:16Z</time>
      </trkpt>
      <trkpt lat="45.13756" lon="5.92386">
        <ele>1966.2</ele>
        <time>2021-02-27T06:03:17Z</time>
      </trkpt>
      <trkpt lat="45.13759" lon="5.92386">
        <ele>1966</ele>
        <time>2021-02-27T06:03:18Z</time>
      </trkpt>
      <trkpt lat="45.13762" lon="5.92386">
        <ele>1966.2</ele>
        <time>2021-02-27T06:03:19Z</time>
      </trkpt>
      <trkpt lat="45.13764" lon="5.92387">
        <ele>1966.2</ele>
        <time>2021-02-27T06:03:20Z</time>
      </trkpt>
      <trkpt lat="45.13768" lon="5.92388">
        <ele>1966.2</ele>
        <time>2021-02-27T06:03:21Z</time>
      </trkpt>
      <trkpt lat="45.13771" lon="5.92389">
        <ele>1966</ele>
        <time>2021-02-27T06:03:22Z</time>
      </trkpt>
      <trkpt lat="45.13774" lon="5.9239">
        <ele>1965.8</ele>
        <time>2021-02-27T06:03:23Z</time>
      </trkpt>
      <trkpt lat="45.13785" lon="5.92397">
        <ele>1965.4</ele>
        <time>2021-02-27T06:03:24Z</time>
      </trkpt>
      <trkpt lat="45.13787" lon="5.92398">
        <ele>1965</ele>
        <time>2021-02-27T06:03:25Z</time>
      </trkpt>
      <trkpt lat="45.13792" lon="5.92399">
        <ele>1964.4</ele>
        <time>2021-02-27T06:03:26Z</time>
      </trkpt>
      <trkpt lat="45.13797" lon="5.924">
        <ele>1963.8</ele>
        <time>2021-02-27T06:03:27Z</time>
      </trkpt>
      <trkpt lat="45.13801" lon="5.92402">
        <ele>1963.2</ele>
        <time>2021-02-27T06:03:28Z</time>
      </trkpt>
      <trkpt lat="45.13801" lon="5.92402">
        <ele>1962.8</ele>
        <time>2021-02-27T06:03:29Z</time>
      </trkpt>
      <trkpt lat="45.13809" lon="5.92405">
        <ele>1962.8</ele>
        <time>2021-02-27T06:03:30Z</time>
      </trkpt>
      <trkpt lat="45.13809" lon="5.92405">
        <ele>1962.8</ele>
        <time>2021-02-27T06:03:31Z</time>
      </trkpt>
      <trkpt lat="45.13813" lon="5.92406">
        <ele>1962.6</ele>
        <time>2021-02-27T06:03:32Z</time>
      </trkpt>
      <trkpt lat="45.13816" lon="5.92407">
        <ele>1962.2</ele>
        <time>2021-02-27T06:03:33Z</time>
      </trkpt>
      <trkpt lat="45.1382" lon="5.92408">
        <ele>1962.2</ele>
        <time>2021-02-27T06:03:34Z</time>
      </trkpt>
      <trkpt lat="45.13825" lon="5.92412">
        <ele>1961.8</ele>
        <time>2021-02-27T06:03:35Z</time>
      </trkpt>
      <trkpt lat="45.13831" lon="5.92416">
        <ele>1961.6</ele>
        <time>2021-02-27T06:03:36Z</time>
      </trkpt>
      <trkpt lat="45.13836" lon="5.9242">
        <ele>1961.2</ele>
        <time>2021-02-27T06:03:37Z</time>
      </trkpt>
      <trkpt lat="45.13843" lon="5.92425">
        <ele>1960.6</ele>
        <time>2021-02-27T06:03:38Z</time>
      </trkpt>
      <trkpt lat="45.13846" lon="5.92426">
        <ele>1960.2</ele>
        <time>2021-02-27T06:03:39Z</time>
      </trkpt>
      <trkpt lat="45.13851" lon="5.92429">
        <ele>1959.4</ele>
        <time>2021-02-27T06:03:40Z</time>
      </trkpt>
      <trkpt lat="45.13852" lon="5.9243">
        <ele>1959.2</ele>
        <time>2021-02-27T06:03:41Z</time>
      </trkpt>
      <trkpt lat="45.13854" lon="5.9243">
        <ele>1959.4</ele>
        <time>2021-02-27T06:03:42Z</time>
      </trkpt>
      <trkpt lat="45.13857" lon="5.9243">
        <ele>1959.2</ele>
        <time>2021-02-27T06:03:43Z</time>
      </trkpt>
      <trkpt lat="45.1386" lon="5.92429">
        <ele>1959</ele>
        <time>2021-02-27T06:03:44Z</time>
      </trkpt>
      <trkpt lat="45.13864" lon="5.92429">
        <ele>1958.6</ele>
        <time>2021-02-27T06:03:45Z</time>
      </trkpt>
      <trkpt lat="45.13867" lon="5.92428">
        <ele>1958.6</ele>
        <time>2021-02-27T06:03:46Z</time>
      </trkpt>
      <trkpt lat="45.1387" lon="5.92427">
        <ele>1958.2</ele>
        <time>2021-02-27T06:03:47Z</time>
      </trkpt>
      <trkpt lat="45.13873" lon="5.92426">
        <ele>1958.2</ele>
        <time>2021-02-27T06:03:48Z</time>
      </trkpt>
      <trkpt lat="45.13879" lon="5.92426">
        <ele>1958</ele>
        <time>2021-02-27T06:03:49Z</time>
      </trkpt>
      <trkpt lat="45.13885" lon="5.92425">
        <ele>1957.6</ele>
        <time>2021-02-27T06:03:50Z</time>
      </trkpt>
      <trkpt lat="45.13892" lon="5.92425">
        <ele>1957.2</ele>
        <time>2021-02-27T06:03:51Z</time>
      </trkpt>
      <trkpt lat="45.13897" lon="5.92424">
        <ele>1956.6</ele>
        <time>2021-02-27T06:03:52Z</time>
      </trkpt>
      <trkpt lat="45.13897" lon="5.92424">
        <ele>1956.4</ele>
        <time>2021-02-27T06:03:53Z</time>
      </trkpt>
      <trkpt lat="45.13901" lon="5.92423">
        <ele>1956.2</ele>
        <time>2021-02-27T06:03:54Z</time>
      </trkpt>
      <trkpt lat="45.13904" lon="5.92422">
        <ele>1955.8</ele>
        <time>2021-02-27T06:03:55Z</time>
      </trkpt>
      <trkpt lat="45.13908" lon="5.92421">
        <ele>1955.2</ele>
        <time>2021-02-27T06:03:56Z</time>
      </trkpt>
      <trkpt lat="45.13908" lon="5.92421">
        <ele>1955.4</ele>
        <time>2021-02-27T06:03:57Z</time>
      </trkpt>
      <trkpt lat="45.13908" lon="5.92421">
        <ele>1955.4</ele>
        <time>2021-02-27T06:03:58Z</time>
      </trkpt>
      <trkpt lat="45.13908" lon="5.92421">
        <ele>1955.8</ele>
        <time>2021-02-27T06:03:59Z</time>
      </trkpt>
      <trkpt lat="45.13908" lon="5.92421">
        <ele>1956.2</ele>
        <time>2021-02-27T06:04:00Z</time>
      </trkpt>
      <trkpt lat="45.13908" lon="5.92421">
        <ele>1956.4</ele>
        <time>2021-02-27T06:04:01Z</time>
      </trkpt>
      <trkpt lat="45.1391" lon="5.92421">
        <ele>1956</ele>
        <time>2021-02-27T06:04:02Z</time>
      </trkpt>
      <trkpt lat="45.1391" lon="5.92421">
        <ele>1956.2</ele>
        <time>2021-02-27T06:04:03Z</time>
      </trkpt>
      <trkpt lat="45.1391" lon="5.92421">
        <ele>1956</ele>
        <time>2021-02-27T06:04:04Z</time>
      </trkpt>
      <trkpt lat="45.1391" lon="5.92421">
        <ele>1956</ele>
        <time>2021-02-27T06:04:05Z</time>
      </trkpt>
      <trkpt lat="45.1391" lon="5.92421">
        <ele>1956.2</ele>
        <time>2021-02-27T06:04:06Z</time>
      </trkpt>
      <trkpt lat="45.1391" lon="5.92421">
        <ele>1956.6</ele>
        <time>2021-02-27T06:04:07Z</time>
      </trkpt>
      <trkpt lat="45.1391" lon="5.92421">
        <ele>1956.2</ele>
        <time>2021-02-27T06:04:08Z</time>
      </trkpt>
      <trkpt lat="45.1391" lon="5.92421">
        <ele>1955.8</ele>
        <time>2021-02-27T06:04:09Z</time>
      </trkpt>
      <trkpt lat="45.1391" lon="5.92421">
        <ele>1956</ele>
        <time>2021-02-27T06:04:10Z</time>
      </trkpt>
      <trkpt lat="45.1391" lon="5.92421">
        <ele>1955.8</ele>
        <time>2021-02-27T06:04:11Z</time>
      </trkpt>
      <trkpt lat="45.1391" lon="5.92421">
        <ele>1955.6</ele>
        <time>2021-02-27T06:04:12Z</time>
      </trkpt>
      <trkpt lat="45.1391" lon="5.92421">
        <ele>1955.4</ele>
        <time>2021-02-27T06:04:13Z</time>
      </trkpt>
      <trkpt lat="45.1391" lon="5.92421">
        <ele>1955.4</ele>
        <time>2021-02-27T06:04:14Z</time>
      </trkpt>
      <trkpt lat="45.1391" lon="5.92421">
        <ele>1955.4</ele>
        <time>2021-02-27T06:04:15Z</time>
      </trkpt>
      <trkpt lat="45.1391" lon="5.92421">
        <ele>1955.2</ele>
        <time>2021-02-27T06:04:16Z</time>
      </trkpt>
      <trkpt lat="45.1391" lon="5.92421">
        <ele>1955.2</ele>
        <time>2021-02-27T06:04:17Z</time>
      </trkpt>
      <trkpt lat="45.1391" lon="5.92421">
        <ele>1955.6</ele>
        <time>2021-02-27T06:04:18Z</time>
      </trkpt>
      <trkpt lat="45.1391" lon="5.92421">
        <ele>1955.6</ele>
        <time>2021-02-27T06:04:19Z</time>
      </trkpt>
      <trkpt lat="45.1391" lon="5.92421">
        <ele>1955.8</ele>
        <time>2021-02-27T06:04:20Z</time>
      </trkpt>
      <trkpt lat="45.1391" lon="5.92421">
        <ele>1956.2</ele>
        <time>2021-02-27T06:04:21Z</time>
      </trkpt>
      <trkpt lat="45.1391" lon="5.92421">
        <ele>1956</ele>
        <time>2021-02-27T06:04:22Z</time>
      </trkpt>
      <trkpt lat="45.1391" lon="5.92421">
        <ele>1956.2</ele>
        <time>2021-02-27T06:04:23Z</time>
      </trkpt>
      <trkpt lat="45.1391" lon="5.92421">
        <ele>1956.2</ele>
        <time>2021-02-27T06:04:24Z</time>
      </trkpt>
      <trkpt lat="45.1391" lon="5.92421">
        <ele>1956.2</ele>
        <time>2021-02-27T06:04:25Z</time>
      </trkpt>
      <trkpt lat="45.1391" lon="5.92421">
        <ele>1956.4</ele>
        <time>2021-02-27T06:04:26Z</time>
      </trkpt>
      <trkpt lat="45.1391" lon="5.92421">
        <ele>1956.2</ele>
        <time>2021-02-27T06:04:27Z</time>
      </trkpt>
      <trkpt lat="45.13912" lon="5.92425">
        <ele>1956.4</ele>
        <time>2021-02-27T06:04:28Z</time>
      </trkpt>
      <trkpt lat="45.13912" lon="5.92425">
        <ele>1956.4</ele>
        <time>2021-02-27T06:04:29Z</time>
      </trkpt>
      <trkpt lat="45.13912" lon="5.92425">
        <ele>1956.2</ele>
        <time>2021-02-27T06:04:30Z</time>
      </trkpt>
      <trkpt lat="45.13912" lon="5.92425">
        <ele>1955.8</ele>
        <time>2021-02-27T06:04:31Z</time>
      </trkpt>
      <trkpt lat="45.13912" lon="5.92425">
        <ele>1955.6</ele>
        <time>2021-02-27T06:04:32Z</time>
      </trkpt>
      <trkpt lat="45.13912" lon="5.92425">
        <ele>1955.6</ele>
        <time>2021-02-27T06:04:33Z</time>
      </trkpt>
      <trkpt lat="45.13912" lon="5.92425">
        <ele>1955.2</ele>
        <time>2021-02-27T06:04:34Z</time>
      </trkpt>
      <trkpt lat="45.13912" lon="5.92425">
        <ele>1955</ele>
        <time>2021-02-27T06:04:35Z</time>
      </trkpt>
      <trkpt lat="45.13912" lon="5.92425">
        <ele>1954.8</ele>
        <time>2021-02-27T06:04:36Z</time>
      </trkpt>
      <trkpt lat="45.13912" lon="5.92425">
        <ele>1954.6</ele>
        <time>2021-02-27T06:04:37Z</time>
      </trkpt>
      <trkpt lat="45.13912" lon="5.92425">
        <ele>1954.6</ele>
        <time>2021-02-27T06:04:38Z</time>
      </trkpt>
      <trkpt lat="45.13912" lon="5.92425">
        <ele>1954.4</ele>
        <time>2021-02-27T06:04:39Z</time>
      </trkpt>
      <trkpt lat="45.13912" lon="5.92425">
        <ele>1954.4</ele>
        <time>2021-02-27T06:04:40Z</time>
      </trkpt>
      <trkpt lat="45.13912" lon="5.92425">
        <ele>1954.2</ele>
        <time>2021-02-27T06:04:41Z</time>
      </trkpt>
      <trkpt lat="45.13912" lon="5.92425">
        <ele>1954.4</ele>
        <time>2021-02-27T06:04:42Z</time>
      </trkpt>
      <trkpt lat="45.13912" lon="5.92425">
        <ele>1954.4</ele>
        <time>2021-02-27T06:04:43Z</time>
      </trkpt>
      <trkpt lat="45.13912" lon="5.92425">
        <ele>1954.2</ele>
        <time>2021-02-27T06:04:44Z</time>
      </trkpt>
      <trkpt lat="45.13912" lon="5.92425">
        <ele>1953.8</ele>
        <time>2021-02-27T06:04:45Z</time>
      </trkpt>
      <trkpt lat="45.13912" lon="5.92425">
        <ele>1953.6</ele>
        <time>2021-02-27T06:04:46Z</time>
      </trkpt>
      <trkpt lat="45.13912" lon="5.92425">
        <ele>1953.6</ele>
        <time>2021-02-27T06:04:47Z</time>
      </trkpt>
      <trkpt lat="45.13913" lon="5.92429">
        <ele>1953.4</ele>
        <time>2021-02-27T06:04:48Z</time>
      </trkpt>
      <trkpt lat="45.13913" lon="5.92429">
        <ele>1953.2</ele>
        <time>2021-02-27T06:04:49Z</time>
      </trkpt>
      <trkpt lat="45.13913" lon="5.92429">
        <ele>1953.4</ele>
        <time>2021-02-27T06:04:50Z</time>
      </trkpt>
      <trkpt lat="45.13913" lon="5.92429">
        <ele>1953.6</ele>
        <time>2021-02-27T06:04:51Z</time>
      </trkpt>
      <trkpt lat="45.13913" lon="5.92429">
        <ele>1954</ele>
        <time>2021-02-27T06:04:52Z</time>
      </trkpt>
      <trkpt lat="45.13913" lon="5.92429">
        <ele>1954.2</ele>
        <time>2021-02-27T06:04:53Z</time>
      </trkpt>
      <trkpt lat="45.13913" lon="5.92429">
        <ele>1954.4</ele>
        <time>2021-02-27T06:04:54Z</time>
      </trkpt>
      <trkpt lat="45.13913" lon="5.92429">
        <ele>1954.6</ele>
        <time>2021-02-27T06:04:55Z</time>
      </trkpt>
      <trkpt lat="45.13913" lon="5.92429">
        <ele>1954.6</ele>
        <time>2021-02-27T06:04:56Z</time>
      </trkpt>
      <trkpt lat="45.13913" lon="5.92429">
        <ele>1954.6</ele>
        <time>2021-02-27T06:04:57Z</time>
      </trkpt>
      <trkpt lat="45.13913" lon="5.92429">
        <ele>1954.8</ele>
        <time>2021-02-27T06:04:58Z</time>
      </trkpt>
      <trkpt lat="45.13913" lon="5.92429">
        <ele>1954.8</ele>
        <time>2021-02-27T06:04:59Z</time>
      </trkpt>
      <trkpt lat="45.13911" lon="5.92427">
        <ele>1954.8</ele>
        <time>2021-02-27T06:05:00Z</time>
      </trkpt>
      <trkpt lat="45.13911" lon="5.92427">
        <ele>1954.6</ele>
        <time>2021-02-27T06:05:01Z</time>
      </trkpt>
      <trkpt lat="45.13911" lon="5.92427">
        <ele>1954.2</ele>
        <time>2021-02-27T06:05:02Z</time>
      </trkpt>
      <trkpt lat="45.13911" lon="5.92427">
        <ele>1953.8</ele>
        <time>2021-02-27T06:05:03Z</time>
      </trkpt>
      <trkpt lat="45.13911" lon="5.92427">
        <ele>1953.6</ele>
        <time>2021-02-27T06:05:04Z</time>
      </trkpt>
      <trkpt lat="45.13911" lon="5.92427">
        <ele>1953.4</ele>
        <time>2021-02-27T06:05:05Z</time>
      </trkpt>
      <trkpt lat="45.13911" lon="5.92427">
        <ele>1953.2</ele>
        <time>2021-02-27T06:05:06Z</time>
      </trkpt>
      <trkpt lat="45.13911" lon="5.92427">
        <ele>1953</ele>
        <time>2021-02-27T06:05:07Z</time>
      </trkpt>
      <trkpt lat="45.13911" lon="5.92427">
        <ele>1952.8</ele>
        <time>2021-02-27T06:05:08Z</time>
      </trkpt>
      <trkpt lat="45.13911" lon="5.92427">
        <ele>1952.6</ele>
        <time>2021-02-27T06:05:09Z</time>
      </trkpt>
      <trkpt lat="45.13911" lon="5.92427">
        <ele>1952.6</ele>
        <time>2021-02-27T06:05:10Z</time>
      </trkpt>
      <trkpt lat="45.13911" lon="5.92427">
        <ele>1952.4</ele>
        <time>2021-02-27T06:05:11Z</time>
      </trkpt>
      <trkpt lat="45.13911" lon="5.92427">
        <ele>1952.2</ele>
        <time>2021-02-27T06:05:12Z</time>
      </trkpt>
      <trkpt lat="45.13911" lon="5.92427">
        <ele>1952.2</ele>
        <time>2021-02-27T06:05:13Z</time>
      </trkpt>
      <trkpt lat="45.13911" lon="5.92427">
        <ele>1952.4</ele>
        <time>2021-02-27T06:05:14Z</time>
      </trkpt>
      <trkpt lat="45.13911" lon="5.92427">
        <ele>1952.6</ele>
        <time>2021-02-27T06:05:15Z</time>
      </trkpt>
      <trkpt lat="45.13911" lon="5.92427">
        <ele>1952.6</ele>
        <time>2021-02-27T06:05:16Z</time>
      </trkpt>
      <trkpt lat="45.13911" lon="5.92427">
        <ele>1952.4</ele>
        <time>2021-02-27T06:05:17Z</time>
      </trkpt>
      <trkpt lat="45.13911" lon="5.92427">
        <ele>1952.2</ele>
        <time>2021-02-27T06:05:18Z</time>
      </trkpt>
      <trkpt lat="45.13911" lon="5.92427">
        <ele>1952.4</ele>
        <time>2021-02-27T06:05:19Z</time>
      </trkpt>
      <trkpt lat="45.13911" lon="5.92427">
        <ele>1952.2</ele>
        <time>2021-02-27T06:05:20Z</time>
      </trkpt>
      <trkpt lat="45.13911" lon="5.92427">
        <ele>1952</ele>
        <time>2021-02-27T06:05:21Z</time>
      </trkpt>
      <trkpt lat="45.13911" lon="5.92427">
        <ele>1951.8</ele>
        <time>2021-02-27T06:05:22Z</time>
      </trkpt>
      <trkpt lat="45.13911" lon="5.92427">
        <ele>1951.6</ele>
        <time>2021-02-27T06:05:23Z</time>
      </trkpt>
      <trkpt lat="45.13911" lon="5.92427">
        <ele>1951.6</ele>
        <time>2021-02-27T06:05:24Z</time>
      </trkpt>
      <trkpt lat="45.13911" lon="5.92427">
        <ele>1952</ele>
        <time>2021-02-27T06:05:25Z</time>
      </trkpt>
      <trkpt lat="45.13911" lon="5.92427">
        <ele>1952</ele>
        <time>2021-02-27T06:05:26Z</time>
      </trkpt>
      <trkpt lat="45.13911" lon="5.92427">
        <ele>1952</ele>
        <time>2021-02-27T06:05:27Z</time>
      </trkpt>
      <trkpt lat="45.13911" lon="5.92427">
        <ele>1952.2</ele>
        <time>2021-02-27T06:05:28Z</time>
      </trkpt>
      <trkpt lat="45.13911" lon="5.92427">
        <ele>1952.2</ele>
        <time>2021-02-27T06:05:29Z</time>
      </trkpt>
      <trkpt lat="45.13911" lon="5.92427">
        <ele>1952.4</ele>
        <time>2021-02-27T06:05:30Z</time>
      </trkpt>
      <trkpt lat="45.1391" lon="5.92423">
        <ele>1952.2</ele>
        <time>2021-02-27T06:05:31Z</time>
      </trkpt>
      <trkpt lat="45.1391" lon="5.92423">
        <ele>1951.8</ele>
        <time>2021-02-27T06:05:32Z</time>
      </trkpt>
      <trkpt lat="45.1391" lon="5.92423">
        <ele>1951.8</ele>
        <time>2021-02-27T06:05:33Z</time>
      </trkpt>
      <trkpt lat="45.1391" lon="5.92423">
        <ele>1951.6</ele>
        <time>2021-02-27T06:05:34Z</time>
      </trkpt>
      <trkpt lat="45.1391" lon="5.92423">
        <ele>1951.6</ele>
        <time>2021-02-27T06:05:35Z</time>
      </trkpt>
      <trkpt lat="45.1391" lon="5.92423">
        <ele>1951.6</ele>
        <time>2021-02-27T06:05:36Z</time>
      </trkpt>
      <trkpt lat="45.1391" lon="5.92423">
        <ele>1951.2</ele>
        <time>2021-02-27T06:05:37Z</time>
      </trkpt>
      <trkpt lat="45.1391" lon="5.92423">
        <ele>1951.2</ele>
        <time>2021-02-27T06:05:38Z</time>
      </trkpt>
      <trkpt lat="45.1391" lon="5.92423">
        <ele>1951.4</ele>
        <time>2021-02-27T06:05:39Z</time>
      </trkpt>
      <trkpt lat="45.13912" lon="5.92425">
        <ele>1951.4</ele>
        <time>2021-02-27T06:05:40Z</time>
      </trkpt>
      <trkpt lat="45.13912" lon="5.92425">
        <ele>1951.6</ele>
        <time>2021-02-27T06:05:41Z</time>
      </trkpt>
      <trkpt lat="45.13912" lon="5.92425">
        <ele>1951.8</ele>
        <time>2021-02-27T06:05:42Z</time>
      </trkpt>
      <trkpt lat="45.13912" lon="5.92425">
        <ele>1952</ele>
        <time>2021-02-27T06:05:43Z</time>
      </trkpt>
      <trkpt lat="45.13914" lon="5.92426">
        <ele>1952.4</ele>
        <time>2021-02-27T06:05:44Z</time>
      </trkpt>
      <trkpt lat="45.13914" lon="5.92426">
        <ele>1952.4</ele>
        <time>2021-02-27T06:05:45Z</time>
      </trkpt>
      <trkpt lat="45.13914" lon="5.92426">
        <ele>1952.6</ele>
        <time>2021-02-27T06:05:46Z</time>
      </trkpt>
      <trkpt lat="45.13915" lon="5.92428">
        <ele>1952.6</ele>
        <time>2021-02-27T06:05:47Z</time>
      </trkpt>
      <trkpt lat="45.13915" lon="5.92428">
        <ele>1953</ele>
        <time>2021-02-27T06:05:48Z</time>
      </trkpt>
      <trkpt lat="45.13915" lon="5.92428">
        <ele>1953</ele>
        <time>2021-02-27T06:05:49Z</time>
      </trkpt>
      <trkpt lat="45.13916" lon="5.92431">
        <ele>1953.4</ele>
        <time>2021-02-27T06:05:50Z</time>
      </trkpt>
      <trkpt lat="45.13916" lon="5.92431">
        <ele>1953.6</ele>
        <time>2021-02-27T06:05:51Z</time>
      </trkpt>
      <trkpt lat="45.13916" lon="5.92431">
        <ele>1953.8</ele>
        <time>2021-02-27T06:05:52Z</time>
      </trkpt>
      <trkpt lat="45.13918" lon="5.92433">
        <ele>1953.8</ele>
        <time>2021-02-27T06:05:53Z</time>
      </trkpt>
      <trkpt lat="45.13918" lon="5.92433">
        <ele>1954.2</ele>
        <time>2021-02-27T06:05:54Z</time>
      </trkpt>
      <trkpt lat="45.13918" lon="5.92433">
        <ele>1954.6</ele>
        <time>2021-02-27T06:05:55Z</time>
      </trkpt>
      <trkpt lat="45.13918" lon="5.92433">
        <ele>1955</ele>
        <time>2021-02-27T06:05:56Z</time>
      </trkpt>
      <trkpt lat="45.13919" lon="5.92434">
        <ele>1955.2</ele>
        <time>2021-02-27T06:05:57Z</time>
      </trkpt>
      <trkpt lat="45.13919" lon="5.92434">
        <ele>1955</ele>
        <time>2021-02-27T06:05:58Z</time>
      </trkpt>
      <trkpt lat="45.13919" lon="5.92434">
        <ele>1955.4</ele>
        <time>2021-02-27T06:05:59Z</time>
      </trkpt>
      <trkpt lat="45.13919" lon="5.92434">
        <ele>1955.8</ele>
        <time>2021-02-27T06:06:00Z</time>
      </trkpt>
      <trkpt lat="45.13919" lon="5.92434">
        <ele>1955.6</ele>
        <time>2021-02-27T06:06:01Z</time>
      </trkpt>
      <trkpt lat="45.13919" lon="5.92434">
        <ele>1955.8</ele>
        <time>2021-02-27T06:06:02Z</time>
      </trkpt>
      <trkpt lat="45.13921" lon="5.92436">
        <ele>1956.2</ele>
        <time>2021-02-27T06:06:03Z</time>
      </trkpt>
      <trkpt lat="45.13921" lon="5.92436">
        <ele>1956.2</ele>
        <time>2021-02-27T06:06:04Z</time>
      </trkpt>
      <trkpt lat="45.13921" lon="5.92436">
        <ele>1956.2</ele>
        <time>2021-02-27T06:06:05Z</time>
      </trkpt>
      <trkpt lat="45.13921" lon="5.92436">
        <ele>1957</ele>
        <time>2021-02-27T06:06:06Z</time>
      </trkpt>
      <trkpt lat="45.13923" lon="5.92437">
        <ele>1957.2</ele>
        <time>2021-02-27T06:06:07Z</time>
      </trkpt>
      <trkpt lat="45.13923" lon="5.92437">
        <ele>1957.2</ele>
        <time>2021-02-27T06:06:08Z</time>
      </trkpt>
      <trkpt lat="45.13923" lon="5.92437">
        <ele>1957.8</ele>
        <time>2021-02-27T06:06:09Z</time>
      </trkpt>
      <trkpt lat="45.13923" lon="5.92437">
        <ele>1958</ele>
        <time>2021-02-27T06:06:10Z</time>
      </trkpt>
      <trkpt lat="45.13925" lon="5.92438">
        <ele>1958.4</ele>
        <time>2021-02-27T06:06:11Z</time>
      </trkpt>
      <trkpt lat="45.13925" lon="5.92438">
        <ele>1958.6</ele>
        <time>2021-02-27T06:06:12Z</time>
      </trkpt>
      <trkpt lat="45.13925" lon="5.92438">
        <ele>1959</ele>
        <time>2021-02-27T06:06:13Z</time>
      </trkpt>
      <trkpt lat="45.13925" lon="5.92438">
        <ele>1959.2</ele>
        <time>2021-02-27T06:06:14Z</time>
      </trkpt>
      <trkpt lat="45.13925" lon="5.92438">
        <ele>1959.4</ele>
        <time>2021-02-27T06:06:15Z</time>
      </trkpt>
      <trkpt lat="45.13927" lon="5.92439">
        <ele>1960</ele>
        <time>2021-02-27T06:06:16Z</time>
      </trkpt>
      <trkpt lat="45.13927" lon="5.92439">
        <ele>1960</ele>
        <time>2021-02-27T06:06:17Z</time>
      </trkpt>
      <trkpt lat="45.13927" lon="5.92439">
        <ele>1960.6</ele>
        <time>2021-02-27T06:06:18Z</time>
      </trkpt>
      <trkpt lat="45.13927" lon="5.92439">
        <ele>1960.6</ele>
        <time>2021-02-27T06:06:19Z</time>
      </trkpt>
      <trkpt lat="45.13927" lon="5.92439">
        <ele>1961</ele>
        <time>2021-02-27T06:06:20Z</time>
      </trkpt>
      <trkpt lat="45.1393" lon="5.9244">
        <ele>1961.2</ele>
        <time>2021-02-27T06:06:21Z</time>
      </trkpt>
      <trkpt lat="45.1393" lon="5.9244">
        <ele>1961.4</ele>
        <time>2021-02-27T06:06:22Z</time>
      </trkpt>
      <trkpt lat="45.1393" lon="5.9244">
        <ele>1961.8</ele>
        <time>2021-02-27T06:06:23Z</time>
      </trkpt>
      <trkpt lat="45.1393" lon="5.9244">
        <ele>1962</ele>
        <time>2021-02-27T06:06:24Z</time>
      </trkpt>
      <trkpt lat="45.13931" lon="5.92441">
        <ele>1961.8</ele>
        <time>2021-02-27T06:06:25Z</time>
      </trkpt>
      <trkpt lat="45.13931" lon="5.92441">
        <ele>1962.4</ele>
        <time>2021-02-27T06:06:26Z</time>
      </trkpt>
      <trkpt lat="45.13931" lon="5.92441">
        <ele>1962.4</ele>
        <time>2021-02-27T06:06:27Z</time>
      </trkpt>
      <trkpt lat="45.13931" lon="5.92441">
        <ele>1962.6</ele>
        <time>2021-02-27T06:06:28Z</time>
      </trkpt>
      <trkpt lat="45.13934" lon="5.92442">
        <ele>1962.8</ele>
        <time>2021-02-27T06:06:29Z</time>
      </trkpt>
      <trkpt lat="45.13934" lon="5.92442">
        <ele>1963.4</ele>
        <time>2021-02-27T06:06:30Z</time>
      </trkpt>
      <trkpt lat="45.13936" lon="5.92443">
        <ele>1963.6</ele>
        <time>2021-02-27T06:06:31Z</time>
      </trkpt>
      <trkpt lat="45.13936" lon="5.92443">
        <ele>1963.6</ele>
        <time>2021-02-27T06:06:32Z</time>
      </trkpt>
      <trkpt lat="45.13936" lon="5.92443">
        <ele>1964</ele>
        <time>2021-02-27T06:06:33Z</time>
      </trkpt>
      <trkpt lat="45.13936" lon="5.92443">
        <ele>1964.4</ele>
        <time>2021-02-27T06:06:34Z</time>
      </trkpt>
      <trkpt lat="45.13936" lon="5.92443">
        <ele>1964.6</ele>
        <time>2021-02-27T06:06:35Z</time>
      </trkpt>
      <trkpt lat="45.13936" lon="5.92443">
        <ele>1964.8</ele>
        <time>2021-02-27T06:06:36Z</time>
      </trkpt>
      <trkpt lat="45.13937" lon="5.92446">
        <ele>1964.8</ele>
        <time>2021-02-27T06:06:37Z</time>
      </trkpt>
      <trkpt lat="45.13937" lon="5.92446">
        <ele>1965.2</ele>
        <time>2021-02-27T06:06:38Z</time>
      </trkpt>
      <trkpt lat="45.13937" lon="5.92446">
        <ele>1965.4</ele>
        <time>2021-02-27T06:06:39Z</time>
      </trkpt>
      <trkpt lat="45.13937" lon="5.92446">
        <ele>1965.4</ele>
        <time>2021-02-27T06:06:40Z</time>
      </trkpt>
      <trkpt lat="45.13937" lon="5.92446">
        <ele>1965.4</ele>
        <time>2021-02-27T06:06:41Z</time>
      </trkpt>
      <trkpt lat="45.13936" lon="5.92449">
        <ele>1966</ele>
        <time>2021-02-27T06:06:42Z</time>
      </trkpt>
      <trkpt lat="45.13936" lon="5.92449">
        <ele>1966.2</ele>
        <time>2021-02-27T06:06:43Z</time>
      </trkpt>
      <trkpt lat="45.13936" lon="5.92449">
        <ele>1966.8</ele>
        <time>2021-02-27T06:06:44Z</time>
      </trkpt>
      <trkpt lat="45.13936" lon="5.92449">
        <ele>1967</ele>
        <time>2021-02-27T06:06:45Z</time>
      </trkpt>
      <trkpt lat="45.13936" lon="5.92449">
        <ele>1967</ele>
        <time>2021-02-27T06:06:46Z</time>
      </trkpt>
      <trkpt lat="45.13936" lon="5.92452">
        <ele>1967.2</ele>
        <time>2021-02-27T06:06:47Z</time>
      </trkpt>
      <trkpt lat="45.13936" lon="5.92452">
        <ele>1967.4</ele>
        <time>2021-02-27T06:06:48Z</time>
      </trkpt>
      <trkpt lat="45.13936" lon="5.92452">
        <ele>1967.6</ele>
        <time>2021-02-27T06:06:49Z</time>
      </trkpt>
      <trkpt lat="45.13936" lon="5.92452">
        <ele>1968</ele>
        <time>2021-02-27T06:06:50Z</time>
      </trkpt>
      <trkpt lat="45.13936" lon="5.92452">
        <ele>1968</ele>
        <time>2021-02-27T06:06:51Z</time>
      </trkpt>
      <trkpt lat="45.13936" lon="5.92452">
        <ele>1968.2</ele>
        <time>2021-02-27T06:06:52Z</time>
      </trkpt>
      <trkpt lat="45.13938" lon="5.92453">
        <ele>1968.6</ele>
        <time>2021-02-27T06:06:53Z</time>
      </trkpt>
      <trkpt lat="45.13938" lon="5.92453">
        <ele>1968.4</ele>
        <time>2021-02-27T06:06:54Z</time>
      </trkpt>
      <trkpt lat="45.13938" lon="5.92453">
        <ele>1968.6</ele>
        <time>2021-02-27T06:06:55Z</time>
      </trkpt>
      <trkpt lat="45.13938" lon="5.92453">
        <ele>1968.8</ele>
        <time>2021-02-27T06:06:56Z</time>
      </trkpt>
      <trkpt lat="45.13938" lon="5.92453">
        <ele>1969</ele>
        <time>2021-02-27T06:06:57Z</time>
      </trkpt>
      <trkpt lat="45.13938" lon="5.92453">
        <ele>1969.6</ele>
        <time>2021-02-27T06:06:58Z</time>
      </trkpt>
      <trkpt lat="45.13938" lon="5.92453">
        <ele>1969.8</ele>
        <time>2021-02-27T06:06:59Z</time>
      </trkpt>
      <trkpt lat="45.13938" lon="5.92453">
        <ele>1970.2</ele>
        <time>2021-02-27T06:07:00Z</time>
      </trkpt>
      <trkpt lat="45.13939" lon="5.92456">
        <ele>1970.4</ele>
        <time>2021-02-27T06:07:01Z</time>
      </trkpt>
      <trkpt lat="45.13939" lon="5.92456">
        <ele>1970.2</ele>
        <time>2021-02-27T06:07:02Z</time>
      </trkpt>
      <trkpt lat="45.13939" lon="5.92456">
        <ele>1970.4</ele>
        <time>2021-02-27T06:07:03Z</time>
      </trkpt>
      <trkpt lat="45.13939" lon="5.92456">
        <ele>1970.6</ele>
        <time>2021-02-27T06:07:04Z</time>
      </trkpt>
      <trkpt lat="45.13939" lon="5.92456">
        <ele>1970.6</ele>
        <time>2021-02-27T06:07:05Z</time>
      </trkpt>
      <trkpt lat="45.13939" lon="5.92456">
        <ele>1971</ele>
        <time>2021-02-27T06:07:06Z</time>
      </trkpt>
      <trkpt lat="45.1394" lon="5.92459">
        <ele>1971</ele>
        <time>2021-02-27T06:07:07Z</time>
      </trkpt>
      <trkpt lat="45.1394" lon="5.92459">
        <ele>1971</ele>
        <time>2021-02-27T06:07:08Z</time>
      </trkpt>
      <trkpt lat="45.1394" lon="5.92459">
        <ele>1971.6</ele>
        <time>2021-02-27T06:07:09Z</time>
      </trkpt>
      <trkpt lat="45.1394" lon="5.92459">
        <ele>1972</ele>
        <time>2021-02-27T06:07:10Z</time>
      </trkpt>
      <trkpt lat="45.1394" lon="5.92459">
        <ele>1972.2</ele>
        <time>2021-02-27T06:07:11Z</time>
      </trkpt>
      <trkpt lat="45.1394" lon="5.92459">
        <ele>1972.4</ele>
        <time>2021-02-27T06:07:12Z</time>
      </trkpt>
      <trkpt lat="45.1394" lon="5.92462">
        <ele>1972.6</ele>
        <time>2021-02-27T06:07:13Z</time>
      </trkpt>
      <trkpt lat="45.1394" lon="5.92462">
        <ele>1972.8</ele>
        <time>2021-02-27T06:07:14Z</time>
      </trkpt>
      <trkpt lat="45.1394" lon="5.92462">
        <ele>1973</ele>
        <time>2021-02-27T06:07:15Z</time>
      </trkpt>
      <trkpt lat="45.1394" lon="5.92462">
        <ele>1973.2</ele>
        <time>2021-02-27T06:07:16Z</time>
      </trkpt>
      <trkpt lat="45.1394" lon="5.92464">
        <ele>1973.4</ele>
        <time>2021-02-27T06:07:17Z</time>
      </trkpt>
      <trkpt lat="45.1394" lon="5.92464">
        <ele>1973.4</ele>
        <time>2021-02-27T06:07:18Z</time>
      </trkpt>
      <trkpt lat="45.1394" lon="5.92464">
        <ele>1973.6</ele>
        <time>2021-02-27T06:07:19Z</time>
      </trkpt>
      <trkpt lat="45.1394" lon="5.92464">
        <ele>1973.8</ele>
        <time>2021-02-27T06:07:20Z</time>
      </trkpt>
      <trkpt lat="45.1394" lon="5.92464">
        <ele>1974.2</ele>
        <time>2021-02-27T06:07:21Z</time>
      </trkpt>
      <trkpt lat="45.1394" lon="5.92464">
        <ele>1974.2</ele>
        <time>2021-02-27T06:07:22Z</time>
      </trkpt>
      <trkpt lat="45.13943" lon="5.92464">
        <ele>1974.2</ele>
        <time>2021-02-27T06:07:23Z</time>
      </trkpt>
      <trkpt lat="45.13943" lon="5.92464">
        <ele>1974.4</ele>
        <time>2021-02-27T06:07:24Z</time>
      </trkpt>
      <trkpt lat="45.13943" lon="5.92464">
        <ele>1974.6</ele>
        <time>2021-02-27T06:07:25Z</time>
      </trkpt>
      <trkpt lat="45.13943" lon="5.92464">
        <ele>1975</ele>
        <time>2021-02-27T06:07:26Z</time>
      </trkpt>
      <trkpt lat="45.13943" lon="5.92468">
        <ele>1975</ele>
        <time>2021-02-27T06:07:27Z</time>
      </trkpt>
      <trkpt lat="45.13943" lon="5.92468">
        <ele>1975.8</ele>
        <time>2021-02-27T06:07:28Z</time>
      </trkpt>
      <trkpt lat="45.13943" lon="5.92468">
        <ele>1976.2</ele>
        <time>2021-02-27T06:07:29Z</time>
      </trkpt>
      <trkpt lat="45.13942" lon="5.9247">
        <ele>1976.8</ele>
        <time>2021-02-27T06:07:30Z</time>
      </trkpt>
      <trkpt lat="45.13942" lon="5.9247">
        <ele>1976.6</ele>
        <time>2021-02-27T06:07:31Z</time>
      </trkpt>
      <trkpt lat="45.13942" lon="5.9247">
        <ele>1976.8</ele>
        <time>2021-02-27T06:07:32Z</time>
      </trkpt>
      <trkpt lat="45.13942" lon="5.9247">
        <ele>1976.6</ele>
        <time>2021-02-27T06:07:33Z</time>
      </trkpt>
      <trkpt lat="45.13942" lon="5.9247">
        <ele>1976.6</ele>
        <time>2021-02-27T06:07:34Z</time>
      </trkpt>
      <trkpt lat="45.13942" lon="5.9247">
        <ele>1976.8</ele>
        <time>2021-02-27T06:07:35Z</time>
      </trkpt>
      <trkpt lat="45.13942" lon="5.9247">
        <ele>1977</ele>
        <time>2021-02-27T06:07:36Z</time>
      </trkpt>
      <trkpt lat="45.13942" lon="5.9247">
        <ele>1977.2</ele>
        <time>2021-02-27T06:07:37Z</time>
      </trkpt>
      <trkpt lat="45.13942" lon="5.9247">
        <ele>1977.4</ele>
        <time>2021-02-27T06:07:38Z</time>
      </trkpt>
      <trkpt lat="45.13942" lon="5.9247">
        <ele>1977.4</ele>
        <time>2021-02-27T06:07:39Z</time>
      </trkpt>
      <trkpt lat="45.13942" lon="5.9247">
        <ele>1977.4</ele>
        <time>2021-02-27T06:07:40Z</time>
      </trkpt>
      <trkpt lat="45.13942" lon="5.9247">
        <ele>1977.6</ele>
        <time>2021-02-27T06:07:41Z</time>
      </trkpt>
      <trkpt lat="45.13944" lon="5.92471">
        <ele>1977.8</ele>
        <time>2021-02-27T06:07:42Z</time>
      </trkpt>
      <trkpt lat="45.13944" lon="5.92471">
        <ele>1978.2</ele>
        <time>2021-02-27T06:07:43Z</time>
      </trkpt>
      <trkpt lat="45.13944" lon="5.92471">
        <ele>1978.2</ele>
        <time>2021-02-27T06:07:44Z</time>
      </trkpt>
      <trkpt lat="45.13944" lon="5.92471">
        <ele>1978.2</ele>
        <time>2021-02-27T06:07:45Z</time>
      </trkpt>
      <trkpt lat="45.13945" lon="5.92473">
        <ele>1978.4</ele>
        <time>2021-02-27T06:07:46Z</time>
      </trkpt>
      <trkpt lat="45.13945" lon="5.92473">
        <ele>1978.6</ele>
        <time>2021-02-27T06:07:47Z</time>
      </trkpt>
      <trkpt lat="45.13945" lon="5.92473">
        <ele>1978.8</ele>
        <time>2021-02-27T06:07:48Z</time>
      </trkpt>
      <trkpt lat="45.13945" lon="5.92473">
        <ele>1979.4</ele>
        <time>2021-02-27T06:07:49Z</time>
      </trkpt>
      <trkpt lat="45.13945" lon="5.92473">
        <ele>1979.6</ele>
        <time>2021-02-27T06:07:50Z</time>
      </trkpt>
      <trkpt lat="45.13945" lon="5.92473">
        <ele>1980</ele>
        <time>2021-02-27T06:07:51Z</time>
      </trkpt>
      <trkpt lat="45.13945" lon="5.92473">
        <ele>1980.2</ele>
        <time>2021-02-27T06:07:52Z</time>
      </trkpt>
      <trkpt lat="45.13945" lon="5.92476">
        <ele>1980.6</ele>
        <time>2021-02-27T06:07:53Z</time>
      </trkpt>
      <trkpt lat="45.13945" lon="5.92476">
        <ele>1980.4</ele>
        <time>2021-02-27T06:07:54Z</time>
      </trkpt>
      <trkpt lat="45.13945" lon="5.92476">
        <ele>1981</ele>
        <time>2021-02-27T06:07:55Z</time>
      </trkpt>
      <trkpt lat="45.13945" lon="5.92476">
        <ele>1981.2</ele>
        <time>2021-02-27T06:07:56Z</time>
      </trkpt>
      <trkpt lat="45.13945" lon="5.92476">
        <ele>1980.8</ele>
        <time>2021-02-27T06:07:57Z</time>
      </trkpt>
      <trkpt lat="45.13945" lon="5.92476">
        <ele>1981</ele>
        <time>2021-02-27T06:07:58Z</time>
      </trkpt>
      <trkpt lat="45.13948" lon="5.92477">
        <ele>1981.2</ele>
        <time>2021-02-27T06:07:59Z</time>
      </trkpt>
      <trkpt lat="45.13948" lon="5.92477">
        <ele>1981.2</ele>
        <time>2021-02-27T06:08:00Z</time>
      </trkpt>
      <trkpt lat="45.13948" lon="5.92477">
        <ele>1981.4</ele>
        <time>2021-02-27T06:08:01Z</time>
      </trkpt>
      <trkpt lat="45.13948" lon="5.92477">
        <ele>1981.6</ele>
        <time>2021-02-27T06:08:02Z</time>
      </trkpt>
      <trkpt lat="45.13948" lon="5.92477">
        <ele>1981.6</ele>
        <time>2021-02-27T06:08:03Z</time>
      </trkpt>
      <trkpt lat="45.13948" lon="5.92477">
        <ele>1982.2</ele>
        <time>2021-02-27T06:08:04Z</time>
      </trkpt>
      <trkpt lat="45.13948" lon="5.92477">
        <ele>1982.6</ele>
        <time>2021-02-27T06:08:05Z</time>
      </trkpt>
      <trkpt lat="45.13949" lon="5.92479">
        <ele>1982.8</ele>
        <time>2021-02-27T06:08:06Z</time>
      </trkpt>
      <trkpt lat="45.13949" lon="5.92479">
        <ele>1983.2</ele>
        <time>2021-02-27T06:08:07Z</time>
      </trkpt>
      <trkpt lat="45.13949" lon="5.92479">
        <ele>1983.2</ele>
        <time>2021-02-27T06:08:08Z</time>
      </trkpt>
      <trkpt lat="45.13949" lon="5.92479">
        <ele>1983</ele>
        <time>2021-02-27T06:08:09Z</time>
      </trkpt>
      <trkpt lat="45.13949" lon="5.92481">
        <ele>1983.4</ele>
        <time>2021-02-27T06:08:10Z</time>
      </trkpt>
      <trkpt lat="45.13949" lon="5.92481">
        <ele>1983.6</ele>
        <time>2021-02-27T06:08:11Z</time>
      </trkpt>
      <trkpt lat="45.13949" lon="5.92481">
        <ele>1984</ele>
        <time>2021-02-27T06:08:12Z</time>
      </trkpt>
      <trkpt lat="45.13949" lon="5.92481">
        <ele>1984.6</ele>
        <time>2021-02-27T06:08:13Z</time>
      </trkpt>
      <trkpt lat="45.13949" lon="5.92481">
        <ele>1985</ele>
        <time>2021-02-27T06:08:14Z</time>
      </trkpt>
      <trkpt lat="45.13949" lon="5.92481">
        <ele>1985.2</ele>
        <time>2021-02-27T06:08:15Z</time>
      </trkpt>
      <trkpt lat="45.13949" lon="5.92481">
        <ele>1985.4</ele>
        <time>2021-02-27T06:08:16Z</time>
      </trkpt>
      <trkpt lat="45.13949" lon="5.92484">
        <ele>1985.6</ele>
        <time>2021-02-27T06:08:17Z</time>
      </trkpt>
      <trkpt lat="45.13949" lon="5.92484">
        <ele>1985.8</ele>
        <time>2021-02-27T06:08:18Z</time>
      </trkpt>
      <trkpt lat="45.13949" lon="5.92484">
        <ele>1986</ele>
        <time>2021-02-27T06:08:19Z</time>
      </trkpt>
      <trkpt lat="45.13951" lon="5.92483">
        <ele>1985.8</ele>
        <time>2021-02-27T06:08:20Z</time>
      </trkpt>
      <trkpt lat="45.13951" lon="5.92483">
        <ele>1985.8</ele>
        <time>2021-02-27T06:08:21Z</time>
      </trkpt>
      <trkpt lat="45.13951" lon="5.92483">
        <ele>1986.2</ele>
        <time>2021-02-27T06:08:22Z</time>
      </trkpt>
      <trkpt lat="45.13951" lon="5.92483">
        <ele>1986.2</ele>
        <time>2021-02-27T06:08:23Z</time>
      </trkpt>
      <trkpt lat="45.13951" lon="5.92483">
        <ele>1986.8</ele>
        <time>2021-02-27T06:08:24Z</time>
      </trkpt>
      <trkpt lat="45.13954" lon="5.92482">
        <ele>1987.2</ele>
        <time>2021-02-27T06:08:25Z</time>
      </trkpt>
      <trkpt lat="45.13954" lon="5.92482">
        <ele>1987.2</ele>
        <time>2021-02-27T06:08:26Z</time>
      </trkpt>
      <trkpt lat="45.13954" lon="5.92482">
        <ele>1987.4</ele>
        <time>2021-02-27T06:08:27Z</time>
      </trkpt>
      <trkpt lat="45.13954" lon="5.92482">
        <ele>1988</ele>
        <time>2021-02-27T06:08:28Z</time>
      </trkpt>
      <trkpt lat="45.13956" lon="5.92483">
        <ele>1988</ele>
        <time>2021-02-27T06:08:29Z</time>
      </trkpt>
      <trkpt lat="45.13956" lon="5.92483">
        <ele>1988.2</ele>
        <time>2021-02-27T06:08:30Z</time>
      </trkpt>
      <trkpt lat="45.13956" lon="5.92483">
        <ele>1988.6</ele>
        <time>2021-02-27T06:08:31Z</time>
      </trkpt>
      <trkpt lat="45.13956" lon="5.92483">
        <ele>1988.8</ele>
        <time>2021-02-27T06:08:32Z</time>
      </trkpt>
      <trkpt lat="45.13956" lon="5.92486">
        <ele>1989.2</ele>
        <time>2021-02-27T06:08:33Z</time>
      </trkpt>
      <trkpt lat="45.13956" lon="5.92486">
        <ele>1989.6</ele>
        <time>2021-02-27T06:08:34Z</time>
      </trkpt>
      <trkpt lat="45.13956" lon="5.92486">
        <ele>1989.6</ele>
        <time>2021-02-27T06:08:35Z</time>
      </trkpt>
      <trkpt lat="45.13956" lon="5.92486">
        <ele>1989.8</ele>
        <time>2021-02-27T06:08:36Z</time>
      </trkpt>
      <trkpt lat="45.13956" lon="5.92486">
        <ele>1989.8</ele>
        <time>2021-02-27T06:08:37Z</time>
      </trkpt>
      <trkpt lat="45.13956" lon="5.92486">
        <ele>1990.2</ele>
        <time>2021-02-27T06:08:38Z</time>
      </trkpt>
      <trkpt lat="45.13956" lon="5.92486">
        <ele>1990.4</ele>
        <time>2021-02-27T06:08:39Z</time>
      </trkpt>
      <trkpt lat="45.13959" lon="5.92487">
        <ele>1990.8</ele>
        <time>2021-02-27T06:08:40Z</time>
      </trkpt>
      <trkpt lat="45.13959" lon="5.92487">
        <ele>1991</ele>
        <time>2021-02-27T06:08:41Z</time>
      </trkpt>
      <trkpt lat="45.13959" lon="5.92487">
        <ele>1991.2</ele>
        <time>2021-02-27T06:08:42Z</time>
      </trkpt>
      <trkpt lat="45.1396" lon="5.92489">
        <ele>1991.6</ele>
        <time>2021-02-27T06:08:43Z</time>
      </trkpt>
      <trkpt lat="45.1396" lon="5.92489">
        <ele>1991.8</ele>
        <time>2021-02-27T06:08:44Z</time>
      </trkpt>
      <trkpt lat="45.1396" lon="5.92489">
        <ele>1992.2</ele>
        <time>2021-02-27T06:08:45Z</time>
      </trkpt>
      <trkpt lat="45.1396" lon="5.92489">
        <ele>1992.4</ele>
        <time>2021-02-27T06:08:46Z</time>
      </trkpt>
      <trkpt lat="45.1396" lon="5.92489">
        <ele>1992.4</ele>
        <time>2021-02-27T06:08:47Z</time>
      </trkpt>
      <trkpt lat="45.1396" lon="5.92489">
        <ele>1993</ele>
        <time>2021-02-27T06:08:48Z</time>
      </trkpt>
      <trkpt lat="45.13962" lon="5.92491">
        <ele>1993.4</ele>
        <time>2021-02-27T06:08:49Z</time>
      </trkpt>
      <trkpt lat="45.13962" lon="5.92491">
        <ele>1993.4</ele>
        <time>2021-02-27T06:08:50Z</time>
      </trkpt>
      <trkpt lat="45.13962" lon="5.92491">
        <ele>1994.2</ele>
        <time>2021-02-27T06:08:51Z</time>
      </trkpt>
      <trkpt lat="45.13962" lon="5.92491">
        <ele>1994.2</ele>
        <time>2021-02-27T06:08:52Z</time>
      </trkpt>
      <trkpt lat="45.13964" lon="5.92492">
        <ele>1994.4</ele>
        <time>2021-02-27T06:08:53Z</time>
      </trkpt>
      <trkpt lat="45.13964" lon="5.92492">
        <ele>1994.4</ele>
        <time>2021-02-27T06:08:54Z</time>
      </trkpt>
      <trkpt lat="45.13964" lon="5.92492">
        <ele>1994.8</ele>
        <time>2021-02-27T06:08:55Z</time>
      </trkpt>
      <trkpt lat="45.13965" lon="5.92495">
        <ele>1995.2</ele>
        <time>2021-02-27T06:08:56Z</time>
      </trkpt>
      <trkpt lat="45.13965" lon="5.92495">
        <ele>1995.2</ele>
        <time>2021-02-27T06:08:57Z</time>
      </trkpt>
      <trkpt lat="45.13965" lon="5.92495">
        <ele>1995.6</ele>
        <time>2021-02-27T06:08:58Z</time>
      </trkpt>
      <trkpt lat="45.13965" lon="5.92495">
        <ele>1996</ele>
        <time>2021-02-27T06:08:59Z</time>
      </trkpt>
      <trkpt lat="45.13965" lon="5.92495">
        <ele>1996.2</ele>
        <time>2021-02-27T06:09:00Z</time>
      </trkpt>
      <trkpt lat="45.13965" lon="5.92495">
        <ele>1996.4</ele>
        <time>2021-02-27T06:09:01Z</time>
      </trkpt>
      <trkpt lat="45.13965" lon="5.92497">
        <ele>1996.4</ele>
        <time>2021-02-27T06:09:02Z</time>
      </trkpt>
      <trkpt lat="45.13965" lon="5.92497">
        <ele>1996.6</ele>
        <time>2021-02-27T06:09:03Z</time>
      </trkpt>
      <trkpt lat="45.13965" lon="5.92497">
        <ele>1996.8</ele>
        <time>2021-02-27T06:09:04Z</time>
      </trkpt>
      <trkpt lat="45.13965" lon="5.92497">
        <ele>1997.4</ele>
        <time>2021-02-27T06:09:05Z</time>
      </trkpt>
      <trkpt lat="45.13967" lon="5.92498">
        <ele>1997.2</ele>
        <time>2021-02-27T06:09:06Z</time>
      </trkpt>
      <trkpt lat="45.13967" lon="5.92498">
        <ele>1997.4</ele>
        <time>2021-02-27T06:09:07Z</time>
      </trkpt>
      <trkpt lat="45.13967" lon="5.92498">
        <ele>1997.8</ele>
        <time>2021-02-27T06:09:08Z</time>
      </trkpt>
      <trkpt lat="45.13967" lon="5.92498">
        <ele>1998</ele>
        <time>2021-02-27T06:09:09Z</time>
      </trkpt>
      <trkpt lat="45.13967" lon="5.92498">
        <ele>1998.2</ele>
        <time>2021-02-27T06:09:10Z</time>
      </trkpt>
      <trkpt lat="45.13967" lon="5.92498">
        <ele>1998.4</ele>
        <time>2021-02-27T06:09:11Z</time>
      </trkpt>
      <trkpt lat="45.13967" lon="5.92498">
        <ele>1998.6</ele>
        <time>2021-02-27T06:09:12Z</time>
      </trkpt>
      <trkpt lat="45.13966" lon="5.92501">
        <ele>1999</ele>
        <time>2021-02-27T06:09:13Z</time>
      </trkpt>
      <trkpt lat="45.13966" lon="5.92501">
        <ele>1998.8</ele>
        <time>2021-02-27T06:09:14Z</time>
      </trkpt>
      <trkpt lat="45.13966" lon="5.92501">
        <ele>1999</ele>
        <time>2021-02-27T06:09:15Z</time>
      </trkpt>
      <trkpt lat="45.13966" lon="5.92501">
        <ele>1999.4</ele>
        <time>2021-02-27T06:09:16Z</time>
      </trkpt>
      <trkpt lat="45.13968" lon="5.92502">
        <ele>1999.2</ele>
        <time>2021-02-27T06:09:17Z</time>
      </trkpt>
      <trkpt lat="45.13968" lon="5.92502">
        <ele>1999.6</ele>
        <time>2021-02-27T06:09:18Z</time>
      </trkpt>
      <trkpt lat="45.13968" lon="5.92502">
        <ele>1999.8</ele>
        <time>2021-02-27T06:09:19Z</time>
      </trkpt>
      <trkpt lat="45.13968" lon="5.92502">
        <ele>2000.2</ele>
        <time>2021-02-27T06:09:20Z</time>
      </trkpt>
      <trkpt lat="45.13971" lon="5.92502">
        <ele>2000.2</ele>
        <time>2021-02-27T06:09:21Z</time>
      </trkpt>
      <trkpt lat="45.13971" lon="5.92502">
        <ele>2000.6</ele>
        <time>2021-02-27T06:09:22Z</time>
      </trkpt>
      <trkpt lat="45.13971" lon="5.92502">
        <ele>2000.8</ele>
        <time>2021-02-27T06:09:23Z</time>
      </trkpt>
      <trkpt lat="45.13973" lon="5.92503">
        <ele>2000.8</ele>
        <time>2021-02-27T06:09:24Z</time>
      </trkpt>
      <trkpt lat="45.13973" lon="5.92503">
        <ele>2001</ele>
        <time>2021-02-27T06:09:25Z</time>
      </trkpt>
      <trkpt lat="45.13973" lon="5.92503">
        <ele>2001.2</ele>
        <time>2021-02-27T06:09:26Z</time>
      </trkpt>
      <trkpt lat="45.13975" lon="5.92504">
        <ele>2001.4</ele>
        <time>2021-02-27T06:09:27Z</time>
      </trkpt>
      <trkpt lat="45.13975" lon="5.92504">
        <ele>2001.8</ele>
        <time>2021-02-27T06:09:28Z</time>
      </trkpt>
      <trkpt lat="45.13975" lon="5.92504">
        <ele>2002</ele>
        <time>2021-02-27T06:09:29Z</time>
      </trkpt>
      <trkpt lat="45.13975" lon="5.92506">
        <ele>2002.2</ele>
        <time>2021-02-27T06:09:30Z</time>
      </trkpt>
      <trkpt lat="45.13975" lon="5.92506">
        <ele>2002.6</ele>
        <time>2021-02-27T06:09:31Z</time>
      </trkpt>
      <trkpt lat="45.13975" lon="5.92506">
        <ele>2003</ele>
        <time>2021-02-27T06:09:32Z</time>
      </trkpt>
      <trkpt lat="45.13975" lon="5.92506">
        <ele>2002.8</ele>
        <time>2021-02-27T06:09:33Z</time>
      </trkpt>
      <trkpt lat="45.13975" lon="5.92506">
        <ele>2003</ele>
        <time>2021-02-27T06:09:34Z</time>
      </trkpt>
      <trkpt lat="45.13975" lon="5.92506">
        <ele>2003.4</ele>
        <time>2021-02-27T06:09:35Z</time>
      </trkpt>
      <trkpt lat="45.13975" lon="5.92506">
        <ele>2003.4</ele>
        <time>2021-02-27T06:09:36Z</time>
      </trkpt>
      <trkpt lat="45.13975" lon="5.92506">
        <ele>2003.6</ele>
        <time>2021-02-27T06:09:37Z</time>
      </trkpt>
      <trkpt lat="45.13976" lon="5.92508">
        <ele>2003.8</ele>
        <time>2021-02-27T06:09:38Z</time>
      </trkpt>
      <trkpt lat="45.13976" lon="5.92508">
        <ele>2003.8</ele>
        <time>2021-02-27T06:09:39Z</time>
      </trkpt>
      <trkpt lat="45.13976" lon="5.92508">
        <ele>2004.2</ele>
        <time>2021-02-27T06:09:40Z</time>
      </trkpt>
      <trkpt lat="45.13976" lon="5.92508">
        <ele>2004.4</ele>
        <time>2021-02-27T06:09:41Z</time>
      </trkpt>
      <trkpt lat="45.13976" lon="5.92508">
        <ele>2004.4</ele>
        <time>2021-02-27T06:09:42Z</time>
      </trkpt>
      <trkpt lat="45.13976" lon="5.92508">
        <ele>2005</ele>
        <time>2021-02-27T06:09:43Z</time>
      </trkpt>
      <trkpt lat="45.13976" lon="5.92508">
        <ele>2005.4</ele>
        <time>2021-02-27T06:09:44Z</time>
      </trkpt>
      <trkpt lat="45.13976" lon="5.92508">
        <ele>2005.6</ele>
        <time>2021-02-27T06:09:45Z</time>
      </trkpt>
      <trkpt lat="45.13976" lon="5.92508">
        <ele>2005.8</ele>
        <time>2021-02-27T06:09:46Z</time>
      </trkpt>
      <trkpt lat="45.13978" lon="5.9251">
        <ele>2005.8</ele>
        <time>2021-02-27T06:09:47Z</time>
      </trkpt>
      <trkpt lat="45.13978" lon="5.9251">
        <ele>2006</ele>
        <time>2021-02-27T06:09:48Z</time>
      </trkpt>
      <trkpt lat="45.13978" lon="5.9251">
        <ele>2006.4</ele>
        <time>2021-02-27T06:09:49Z</time>
      </trkpt>
      <trkpt lat="45.13979" lon="5.92512">
        <ele>2006.4</ele>
        <time>2021-02-27T06:09:50Z</time>
      </trkpt>
      <trkpt lat="45.13979" lon="5.92512">
        <ele>2006.8</ele>
        <time>2021-02-27T06:09:51Z</time>
      </trkpt>
      <trkpt lat="45.13979" lon="5.92512">
        <ele>2007.2</ele>
        <time>2021-02-27T06:09:52Z</time>
      </trkpt>
      <trkpt lat="45.13979" lon="5.92512">
        <ele>2007.4</ele>
        <time>2021-02-27T06:09:53Z</time>
      </trkpt>
      <trkpt lat="45.13979" lon="5.92512">
        <ele>2007.6</ele>
        <time>2021-02-27T06:09:54Z</time>
      </trkpt>
      <trkpt lat="45.13979" lon="5.92512">
        <ele>2008</ele>
        <time>2021-02-27T06:09:55Z</time>
      </trkpt>
      <trkpt lat="45.13979" lon="5.92512">
        <ele>2008.2</ele>
        <time>2021-02-27T06:09:56Z</time>
      </trkpt>
      <trkpt lat="45.13979" lon="5.92512">
        <ele>2008.2</ele>
        <time>2021-02-27T06:09:57Z</time>
      </trkpt>
      <trkpt lat="45.13981" lon="5.92514">
        <ele>2008.4</ele>
        <time>2021-02-27T06:09:58Z</time>
      </trkpt>
      <trkpt lat="45.13981" lon="5.92514">
        <ele>2008.8</ele>
        <time>2021-02-27T06:09:59Z</time>
      </trkpt>
      <trkpt lat="45.13981" lon="5.92514">
        <ele>2009.2</ele>
        <time>2021-02-27T06:10:00Z</time>
      </trkpt>
      <trkpt lat="45.13981" lon="5.92514">
        <ele>2009</ele>
        <time>2021-02-27T06:10:01Z</time>
      </trkpt>
      <trkpt lat="45.13981" lon="5.92514">
        <ele>2009.2</ele>
        <time>2021-02-27T06:10:02Z</time>
      </trkpt>
      <trkpt lat="45.13981" lon="5.92514">
        <ele>2009.2</ele>
        <time>2021-02-27T06:10:03Z</time>
      </trkpt>
      <trkpt lat="45.13981" lon="5.92516">
        <ele>2009.4</ele>
        <time>2021-02-27T06:10:04Z</time>
      </trkpt>
      <trkpt lat="45.13981" lon="5.92516">
        <ele>2010</ele>
        <time>2021-02-27T06:10:05Z</time>
      </trkpt>
      <trkpt lat="45.13981" lon="5.92516">
        <ele>2010.2</ele>
        <time>2021-02-27T06:10:06Z</time>
      </trkpt>
      <trkpt lat="45.13981" lon="5.92516">
        <ele>2010.2</ele>
        <time>2021-02-27T06:10:07Z</time>
      </trkpt>
      <trkpt lat="45.13981" lon="5.92516">
        <ele>2010.6</ele>
        <time>2021-02-27T06:10:08Z</time>
      </trkpt>
      <trkpt lat="45.13983" lon="5.92517">
        <ele>2011</ele>
        <time>2021-02-27T06:10:09Z</time>
      </trkpt>
      <trkpt lat="45.13983" lon="5.92517">
        <ele>2010.8</ele>
        <time>2021-02-27T06:10:10Z</time>
      </trkpt>
      <trkpt lat="45.13983" lon="5.92517">
        <ele>2011.2</ele>
        <time>2021-02-27T06:10:11Z</time>
      </trkpt>
      <trkpt lat="45.13983" lon="5.92517">
        <ele>2011.4</ele>
        <time>2021-02-27T06:10:12Z</time>
      </trkpt>
      <trkpt lat="45.13983" lon="5.92517">
        <ele>2011.4</ele>
        <time>2021-02-27T06:10:13Z</time>
      </trkpt>
      <trkpt lat="45.13983" lon="5.9252">
        <ele>2011.6</ele>
        <time>2021-02-27T06:10:14Z</time>
      </trkpt>
      <trkpt lat="45.13983" lon="5.9252">
        <ele>2012.2</ele>
        <time>2021-02-27T06:10:15Z</time>
      </trkpt>
      <trkpt lat="45.13983" lon="5.9252">
        <ele>2012.4</ele>
        <time>2021-02-27T06:10:16Z</time>
      </trkpt>
      <trkpt lat="45.13983" lon="5.9252">
        <ele>2012.4</ele>
        <time>2021-02-27T06:10:17Z</time>
      </trkpt>
      <trkpt lat="45.13983" lon="5.9252">
        <ele>2012.8</ele>
        <time>2021-02-27T06:10:18Z</time>
      </trkpt>
      <trkpt lat="45.13981" lon="5.92523">
        <ele>2013</ele>
        <time>2021-02-27T06:10:19Z</time>
      </trkpt>
      <trkpt lat="45.13981" lon="5.92523">
        <ele>2012.8</ele>
        <time>2021-02-27T06:10:20Z</time>
      </trkpt>
      <trkpt lat="45.13981" lon="5.92523">
        <ele>2013.4</ele>
        <time>2021-02-27T06:10:21Z</time>
      </trkpt>
      <trkpt lat="45.1398" lon="5.92526">
        <ele>2013.6</ele>
        <time>2021-02-27T06:10:22Z</time>
      </trkpt>
      <trkpt lat="45.1398" lon="5.92526">
        <ele>2013.4</ele>
        <time>2021-02-27T06:10:23Z</time>
      </trkpt>
      <trkpt lat="45.1398" lon="5.92526">
        <ele>2014</ele>
        <time>2021-02-27T06:10:24Z</time>
      </trkpt>
      <trkpt lat="45.1398" lon="5.92526">
        <ele>2014.2</ele>
        <time>2021-02-27T06:10:25Z</time>
      </trkpt>
      <trkpt lat="45.1398" lon="5.92528">
        <ele>2014.2</ele>
        <time>2021-02-27T06:10:26Z</time>
      </trkpt>
      <trkpt lat="45.1398" lon="5.92528">
        <ele>2014.6</ele>
        <time>2021-02-27T06:10:27Z</time>
      </trkpt>
      <trkpt lat="45.1398" lon="5.92528">
        <ele>2014.6</ele>
        <time>2021-02-27T06:10:28Z</time>
      </trkpt>
      <trkpt lat="45.1398" lon="5.92528">
        <ele>2014.6</ele>
        <time>2021-02-27T06:10:29Z</time>
      </trkpt>
      <trkpt lat="45.13978" lon="5.9253">
        <ele>2015.2</ele>
        <time>2021-02-27T06:10:30Z</time>
      </trkpt>
      <trkpt lat="45.13978" lon="5.9253">
        <ele>2015.4</ele>
        <time>2021-02-27T06:10:31Z</time>
      </trkpt>
      <trkpt lat="45.13978" lon="5.9253">
        <ele>2015.4</ele>
        <time>2021-02-27T06:10:32Z</time>
      </trkpt>
      <trkpt lat="45.13978" lon="5.9253">
        <ele>2016</ele>
        <time>2021-02-27T06:10:33Z</time>
      </trkpt>
      <trkpt lat="45.13977" lon="5.92534">
        <ele>2016.2</ele>
        <time>2021-02-27T06:10:34Z</time>
      </trkpt>
      <trkpt lat="45.13977" lon="5.92534">
        <ele>2016.4</ele>
        <time>2021-02-27T06:10:35Z</time>
      </trkpt>
      <trkpt lat="45.13977" lon="5.92535">
        <ele>2016.8</ele>
        <time>2021-02-27T06:10:36Z</time>
      </trkpt>
      <trkpt lat="45.13977" lon="5.92536">
        <ele>2016.8</ele>
        <time>2021-02-27T06:10:37Z</time>
      </trkpt>
      <trkpt lat="45.13977" lon="5.92536">
        <ele>2017.4</ele>
        <time>2021-02-27T06:10:38Z</time>
      </trkpt>
      <trkpt lat="45.13977" lon="5.92537">
        <ele>2017.8</ele>
        <time>2021-02-27T06:10:39Z</time>
      </trkpt>
      <trkpt lat="45.13978" lon="5.92538">
        <ele>2017.6</ele>
        <time>2021-02-27T06:10:40Z</time>
      </trkpt>
      <trkpt lat="45.13978" lon="5.92539">
        <ele>2018.2</ele>
        <time>2021-02-27T06:10:41Z</time>
      </trkpt>
      <trkpt lat="45.13978" lon="5.9254">
        <ele>2018.2</ele>
        <time>2021-02-27T06:10:42Z</time>
      </trkpt>
      <trkpt lat="45.13978" lon="5.9254">
        <ele>2018.4</ele>
        <time>2021-02-27T06:10:43Z</time>
      </trkpt>
      <trkpt lat="45.13978" lon="5.92541">
        <ele>2018.8</ele>
        <time>2021-02-27T06:10:44Z</time>
      </trkpt>
      <trkpt lat="45.13978" lon="5.92542">
        <ele>2019.2</ele>
        <time>2021-02-27T06:10:45Z</time>
      </trkpt>
      <trkpt lat="45.13978" lon="5.92543">
        <ele>2019.6</ele>
        <time>2021-02-27T06:10:46Z</time>
      </trkpt>
      <trkpt lat="45.13978" lon="5.92544">
        <ele>2019.8</ele>
        <time>2021-02-27T06:10:47Z</time>
      </trkpt>
      <trkpt lat="45.13978" lon="5.92545">
        <ele>2019.8</ele>
        <time>2021-02-27T06:10:48Z</time>
      </trkpt>
      <trkpt lat="45.13978" lon="5.92545">
        <ele>2020</ele>
        <time>2021-02-27T06:10:49Z</time>
      </trkpt>
      <trkpt lat="45.13978" lon="5.92545">
        <ele>2020.4</ele>
        <time>2021-02-27T06:10:50Z</time>
      </trkpt>
      <trkpt lat="45.13978" lon="5.92545">
        <ele>2020.8</ele>
        <time>2021-02-27T06:10:51Z</time>
      </trkpt>
      <trkpt lat="45.13979" lon="5.92548">
        <ele>2020.8</ele>
        <time>2021-02-27T06:10:52Z</time>
      </trkpt>
      <trkpt lat="45.13979" lon="5.92548">
        <ele>2020.6</ele>
        <time>2021-02-27T06:10:53Z</time>
      </trkpt>
      <trkpt lat="45.13979" lon="5.92548">
        <ele>2020.6</ele>
        <time>2021-02-27T06:10:54Z</time>
      </trkpt>
      <trkpt lat="45.13979" lon="5.92549">
        <ele>2020.4</ele>
        <time>2021-02-27T06:10:55Z</time>
      </trkpt>
      <trkpt lat="45.1398" lon="5.92549">
        <ele>2020.4</ele>
        <time>2021-02-27T06:10:56Z</time>
      </trkpt>
      <trkpt lat="45.1398" lon="5.9255">
        <ele>2020.4</ele>
        <time>2021-02-27T06:10:57Z</time>
      </trkpt>
      <trkpt lat="45.1398" lon="5.9255">
        <ele>2020.6</ele>
        <time>2021-02-27T06:10:58Z</time>
      </trkpt>
      <trkpt lat="45.1398" lon="5.92551">
        <ele>2020.6</ele>
        <time>2021-02-27T06:10:59Z</time>
      </trkpt>
      <trkpt lat="45.13981" lon="5.92551">
        <ele>2020.6</ele>
        <time>2021-02-27T06:11:00Z</time>
      </trkpt>
      <trkpt lat="45.13981" lon="5.92551">
        <ele>2020.8</ele>
        <time>2021-02-27T06:11:01Z</time>
      </trkpt>
      <trkpt lat="45.13981" lon="5.92552">
        <ele>2020.8</ele>
        <time>2021-02-27T06:11:02Z</time>
      </trkpt>
      <trkpt lat="45.13981" lon="5.92552">
        <ele>2020.8</ele>
        <time>2021-02-27T06:11:03Z</time>
      </trkpt>
      <trkpt lat="45.13981" lon="5.92553">
        <ele>2020.8</ele>
        <time>2021-02-27T06:11:04Z</time>
      </trkpt>
      <trkpt lat="45.13982" lon="5.92553">
        <ele>2020.8</ele>
        <time>2021-02-27T06:11:05Z</time>
      </trkpt>
      <trkpt lat="45.13982" lon="5.92554">
        <ele>2021</ele>
        <time>2021-02-27T06:11:06Z</time>
      </trkpt>
      <trkpt lat="45.13982" lon="5.92554">
        <ele>2021</ele>
        <time>2021-02-27T06:11:07Z</time>
      </trkpt>
      <trkpt lat="45.13982" lon="5.92554">
        <ele>2020.4</ele>
        <time>2021-02-27T06:11:08Z</time>
      </trkpt>
      <trkpt lat="45.13984" lon="5.92554">
        <ele>2020.2</ele>
        <time>2021-02-27T06:11:09Z</time>
      </trkpt>
      <trkpt lat="45.13984" lon="5.92554">
        <ele>2019.8</ele>
        <time>2021-02-27T06:11:10Z</time>
      </trkpt>
      <trkpt lat="45.13984" lon="5.92557">
        <ele>2020.4</ele>
        <time>2021-02-27T06:11:11Z</time>
      </trkpt>
      <trkpt lat="45.13984" lon="5.92557">
        <ele>2020.4</ele>
        <time>2021-02-27T06:11:12Z</time>
      </trkpt>
      <trkpt lat="45.13984" lon="5.92557">
        <ele>2020.2</ele>
        <time>2021-02-27T06:11:13Z</time>
      </trkpt>
      <trkpt lat="45.13984" lon="5.92557">
        <ele>2020</ele>
        <time>2021-02-27T06:11:14Z</time>
      </trkpt>
      <trkpt lat="45.13984" lon="5.92557">
        <ele>2020</ele>
        <time>2021-02-27T06:11:15Z</time>
      </trkpt>
      <trkpt lat="45.13984" lon="5.92557">
        <ele>2019.8</ele>
        <time>2021-02-27T06:11:16Z</time>
      </trkpt>
      <trkpt lat="45.13984" lon="5.9256">
        <ele>2019.6</ele>
        <time>2021-02-27T06:11:17Z</time>
      </trkpt>
      <trkpt lat="45.13984" lon="5.9256">
        <ele>2020.2</ele>
        <time>2021-02-27T06:11:18Z</time>
      </trkpt>
      <trkpt lat="45.13984" lon="5.92561">
        <ele>2020.2</ele>
        <time>2021-02-27T06:11:19Z</time>
      </trkpt>
      <trkpt lat="45.13984" lon="5.92562">
        <ele>2020.4</ele>
        <time>2021-02-27T06:11:20Z</time>
      </trkpt>
      <trkpt lat="45.13984" lon="5.92562">
        <ele>2020.6</ele>
        <time>2021-02-27T06:11:21Z</time>
      </trkpt>
      <trkpt lat="45.13984" lon="5.92563">
        <ele>2020.8</ele>
        <time>2021-02-27T06:11:22Z</time>
      </trkpt>
      <trkpt lat="45.13984" lon="5.92564">
        <ele>2020.8</ele>
        <time>2021-02-27T06:11:23Z</time>
      </trkpt>
      <trkpt lat="45.13984" lon="5.92565">
        <ele>2021.2</ele>
        <time>2021-02-27T06:11:24Z</time>
      </trkpt>
      <trkpt lat="45.13984" lon="5.92566">
        <ele>2021.4</ele>
        <time>2021-02-27T06:11:25Z</time>
      </trkpt>
      <trkpt lat="45.13984" lon="5.92567">
        <ele>2021.4</ele>
        <time>2021-02-27T06:11:26Z</time>
      </trkpt>
      <trkpt lat="45.13984" lon="5.9257">
        <ele>2021.4</ele>
        <time>2021-02-27T06:11:27Z</time>
      </trkpt>
      <trkpt lat="45.13984" lon="5.9257">
        <ele>2021.2</ele>
        <time>2021-02-27T06:11:28Z</time>
      </trkpt>
      <trkpt lat="45.13984" lon="5.92572">
        <ele>2021.4</ele>
        <time>2021-02-27T06:11:29Z</time>
      </trkpt>
      <trkpt lat="45.13985" lon="5.92574">
        <ele>2021.6</ele>
        <time>2021-02-27T06:11:30Z</time>
      </trkpt>
      <trkpt lat="45.13985" lon="5.92576">
        <ele>2021.4</ele>
        <time>2021-02-27T06:11:31Z</time>
      </trkpt>
      <trkpt lat="45.13985" lon="5.92577">
        <ele>2021.4</ele>
        <time>2021-02-27T06:11:32Z</time>
      </trkpt>
      <trkpt lat="45.13985" lon="5.92579">
        <ele>2021.4</ele>
        <time>2021-02-27T06:11:33Z</time>
      </trkpt>
      <trkpt lat="45.13985" lon="5.92581">
        <ele>2022</ele>
        <time>2021-02-27T06:11:34Z</time>
      </trkpt>
      <trkpt lat="45.13985" lon="5.92583">
        <ele>2022</ele>
        <time>2021-02-27T06:11:35Z</time>
      </trkpt>
      <trkpt lat="45.13986" lon="5.92584">
        <ele>2022.4</ele>
        <time>2021-02-27T06:11:36Z</time>
      </trkpt>
      <trkpt lat="45.13986" lon="5.92586">
        <ele>2022.6</ele>
        <time>2021-02-27T06:11:37Z</time>
      </trkpt>
      <trkpt lat="45.13986" lon="5.92587">
        <ele>2022.6</ele>
        <time>2021-02-27T06:11:38Z</time>
      </trkpt>
      <trkpt lat="45.13987" lon="5.92589">
        <ele>2023</ele>
        <time>2021-02-27T06:11:39Z</time>
      </trkpt>
      <trkpt lat="45.13987" lon="5.92591">
        <ele>2023</ele>
        <time>2021-02-27T06:11:40Z</time>
      </trkpt>
      <trkpt lat="45.13988" lon="5.92592">
        <ele>2023.6</ele>
        <time>2021-02-27T06:11:41Z</time>
      </trkpt>
      <trkpt lat="45.13988" lon="5.92594">
        <ele>2023.8</ele>
        <time>2021-02-27T06:11:42Z</time>
      </trkpt>
      <trkpt lat="45.13988" lon="5.92595">
        <ele>2023.6</ele>
        <time>2021-02-27T06:11:43Z</time>
      </trkpt>
      <trkpt lat="45.13989" lon="5.92597">
        <ele>2023.8</ele>
        <time>2021-02-27T06:11:44Z</time>
      </trkpt>
      <trkpt lat="45.13989" lon="5.92598">
        <ele>2023.8</ele>
        <time>2021-02-27T06:11:45Z</time>
      </trkpt>
      <trkpt lat="45.13989" lon="5.926">
        <ele>2024</ele>
        <time>2021-02-27T06:11:46Z</time>
      </trkpt>
      <trkpt lat="45.13989" lon="5.92601">
        <ele>2024.2</ele>
        <time>2021-02-27T06:11:47Z</time>
      </trkpt>
      <trkpt lat="45.13989" lon="5.92603">
        <ele>2024.8</ele>
        <time>2021-02-27T06:11:48Z</time>
      </trkpt>
      <trkpt lat="45.1399" lon="5.92604">
        <ele>2025</ele>
        <time>2021-02-27T06:11:49Z</time>
      </trkpt>
      <trkpt lat="45.1399" lon="5.92606">
        <ele>2025</ele>
        <time>2021-02-27T06:11:50Z</time>
      </trkpt>
      <trkpt lat="45.1399" lon="5.92607">
        <ele>2024.8</ele>
        <time>2021-02-27T06:11:51Z</time>
      </trkpt>
      <trkpt lat="45.1399" lon="5.92609">
        <ele>2025.2</ele>
        <time>2021-02-27T06:11:52Z</time>
      </trkpt>
      <trkpt lat="45.1399" lon="5.9261">
        <ele>2025.4</ele>
        <time>2021-02-27T06:11:53Z</time>
      </trkpt>
      <trkpt lat="45.1399" lon="5.92612">
        <ele>2025.8</ele>
        <time>2021-02-27T06:11:54Z</time>
      </trkpt>
      <trkpt lat="45.1399" lon="5.92613">
        <ele>2026</ele>
        <time>2021-02-27T06:11:55Z</time>
      </trkpt>
      <trkpt lat="45.1399" lon="5.92615">
        <ele>2026.2</ele>
        <time>2021-02-27T06:11:56Z</time>
      </trkpt>
      <trkpt lat="45.13991" lon="5.92616">
        <ele>2026.8</ele>
        <time>2021-02-27T06:11:57Z</time>
      </trkpt>
      <trkpt lat="45.13991" lon="5.92618">
        <ele>2026.8</ele>
        <time>2021-02-27T06:11:58Z</time>
      </trkpt>
      <trkpt lat="45.13991" lon="5.92619">
        <ele>2027</ele>
        <time>2021-02-27T06:11:59Z</time>
      </trkpt>
      <trkpt lat="45.13991" lon="5.9262">
        <ele>2027.6</ele>
        <time>2021-02-27T06:12:00Z</time>
      </trkpt>
      <trkpt lat="45.13991" lon="5.92622">
        <ele>2027.6</ele>
        <time>2021-02-27T06:12:01Z</time>
      </trkpt>
      <trkpt lat="45.13991" lon="5.92623">
        <ele>2027.6</ele>
        <time>2021-02-27T06:12:02Z</time>
      </trkpt>
      <trkpt lat="45.13991" lon="5.92625">
        <ele>2028.4</ele>
        <time>2021-02-27T06:12:03Z</time>
      </trkpt>
      <trkpt lat="45.13992" lon="5.92626">
        <ele>2028.2</ele>
        <time>2021-02-27T06:12:04Z</time>
      </trkpt>
      <trkpt lat="45.13992" lon="5.92628">
        <ele>2028.6</ele>
        <time>2021-02-27T06:12:05Z</time>
      </trkpt>
      <trkpt lat="45.13993" lon="5.92629">
        <ele>2029</ele>
        <time>2021-02-27T06:12:06Z</time>
      </trkpt>
      <trkpt lat="45.13993" lon="5.92631">
        <ele>2029</ele>
        <time>2021-02-27T06:12:07Z</time>
      </trkpt>
      <trkpt lat="45.13994" lon="5.92632">
        <ele>2029.6</ele>
        <time>2021-02-27T06:12:08Z</time>
      </trkpt>
      <trkpt lat="45.13994" lon="5.92634">
        <ele>2030</ele>
        <time>2021-02-27T06:12:09Z</time>
      </trkpt>
      <trkpt lat="45.13994" lon="5.92635">
        <ele>2030</ele>
        <time>2021-02-27T06:12:10Z</time>
      </trkpt>
      <trkpt lat="45.13995" lon="5.92636">
        <ele>2030.4</ele>
        <time>2021-02-27T06:12:11Z</time>
      </trkpt>
      <trkpt lat="45.13995" lon="5.92638">
        <ele>2030.4</ele>
        <time>2021-02-27T06:12:12Z</time>
      </trkpt>
      <trkpt lat="45.13995" lon="5.92639">
        <ele>2030.6</ele>
        <time>2021-02-27T06:12:13Z</time>
      </trkpt>
      <trkpt lat="45.13995" lon="5.9264">
        <ele>2030.8</ele>
        <time>2021-02-27T06:12:14Z</time>
      </trkpt>
      <trkpt lat="45.13996" lon="5.92641">
        <ele>2031</ele>
        <time>2021-02-27T06:12:15Z</time>
      </trkpt>
      <trkpt lat="45.13996" lon="5.92643">
        <ele>2031.4</ele>
        <time>2021-02-27T06:12:16Z</time>
      </trkpt>
      <trkpt lat="45.13996" lon="5.92644">
        <ele>2031.4</ele>
        <time>2021-02-27T06:12:17Z</time>
      </trkpt>
      <trkpt lat="45.13996" lon="5.92645">
        <ele>2032</ele>
        <time>2021-02-27T06:12:18Z</time>
      </trkpt>
      <trkpt lat="45.13997" lon="5.92646">
        <ele>2032.2</ele>
        <time>2021-02-27T06:12:19Z</time>
      </trkpt>
      <trkpt lat="45.13997" lon="5.92648">
        <ele>2032.6</ele>
        <time>2021-02-27T06:12:20Z</time>
      </trkpt>
      <trkpt lat="45.13997" lon="5.92649">
        <ele>2032.8</ele>
        <time>2021-02-27T06:12:21Z</time>
      </trkpt>
      <trkpt lat="45.13997" lon="5.9265">
        <ele>2033.2</ele>
        <time>2021-02-27T06:12:22Z</time>
      </trkpt>
      <trkpt lat="45.13998" lon="5.92652">
        <ele>2033.6</ele>
        <time>2021-02-27T06:12:23Z</time>
      </trkpt>
      <trkpt lat="45.13998" lon="5.92653">
        <ele>2033.6</ele>
        <time>2021-02-27T06:12:24Z</time>
      </trkpt>
      <trkpt lat="45.13998" lon="5.92655">
        <ele>2033.8</ele>
        <time>2021-02-27T06:12:25Z</time>
      </trkpt>
      <trkpt lat="45.13998" lon="5.92656">
        <ele>2034</ele>
        <time>2021-02-27T06:12:26Z</time>
      </trkpt>
      <trkpt lat="45.13998" lon="5.92658">
        <ele>2034.2</ele>
        <time>2021-02-27T06:12:27Z</time>
      </trkpt>
      <trkpt lat="45.13999" lon="5.92659">
        <ele>2034.6</ele>
        <time>2021-02-27T06:12:28Z</time>
      </trkpt>
      <trkpt lat="45.13999" lon="5.92661">
        <ele>2035</ele>
        <time>2021-02-27T06:12:29Z</time>
      </trkpt>
      <trkpt lat="45.13999" lon="5.92662">
        <ele>2035.2</ele>
        <time>2021-02-27T06:12:30Z</time>
      </trkpt>
      <trkpt lat="45.13999" lon="5.92663">
        <ele>2035.4</ele>
        <time>2021-02-27T06:12:31Z</time>
      </trkpt>
      <trkpt lat="45.14" lon="5.92664">
        <ele>2035.8</ele>
        <time>2021-02-27T06:12:32Z</time>
      </trkpt>
      <trkpt lat="45.14" lon="5.92665">
        <ele>2036</ele>
        <time>2021-02-27T06:12:33Z</time>
      </trkpt>
      <trkpt lat="45.14" lon="5.92666">
        <ele>2036.2</ele>
        <time>2021-02-27T06:12:34Z</time>
      </trkpt>
      <trkpt lat="45.14001" lon="5.92667">
        <ele>2036.8</ele>
        <time>2021-02-27T06:12:35Z</time>
      </trkpt>
      <trkpt lat="45.14001" lon="5.92668">
        <ele>2037</ele>
        <time>2021-02-27T06:12:36Z</time>
      </trkpt>
      <trkpt lat="45.14001" lon="5.92669">
        <ele>2037.4</ele>
        <time>2021-02-27T06:12:37Z</time>
      </trkpt>
      <trkpt lat="45.14002" lon="5.9267">
        <ele>2037.4</ele>
        <time>2021-02-27T06:12:38Z</time>
      </trkpt>
      <trkpt lat="45.14002" lon="5.92672">
        <ele>2037.8</ele>
        <time>2021-02-27T06:12:39Z</time>
      </trkpt>
      <trkpt lat="45.14002" lon="5.92673">
        <ele>2038.2</ele>
        <time>2021-02-27T06:12:40Z</time>
      </trkpt>
      <trkpt lat="45.14003" lon="5.92674">
        <ele>2038.4</ele>
        <time>2021-02-27T06:12:41Z</time>
      </trkpt>
      <trkpt lat="45.14003" lon="5.92675">
        <ele>2038.8</ele>
        <time>2021-02-27T06:12:42Z</time>
      </trkpt>
      <trkpt lat="45.14003" lon="5.92676">
        <ele>2039</ele>
        <time>2021-02-27T06:12:43Z</time>
      </trkpt>
      <trkpt lat="45.14003" lon="5.92677">
        <ele>2039.4</ele>
        <time>2021-02-27T06:12:44Z</time>
      </trkpt>
      <trkpt lat="45.14004" lon="5.92678">
        <ele>2039.6</ele>
        <time>2021-02-27T06:12:45Z</time>
      </trkpt>
      <trkpt lat="45.14004" lon="5.92679">
        <ele>2040</ele>
        <time>2021-02-27T06:12:46Z</time>
      </trkpt>
      <trkpt lat="45.14004" lon="5.9268">
        <ele>2040.2</ele>
        <time>2021-02-27T06:12:47Z</time>
      </trkpt>
      <trkpt lat="45.14004" lon="5.92681">
        <ele>2040.4</ele>
        <time>2021-02-27T06:12:48Z</time>
      </trkpt>
      <trkpt lat="45.14004" lon="5.92682">
        <ele>2040.8</ele>
        <time>2021-02-27T06:12:49Z</time>
      </trkpt>
      <trkpt lat="45.14004" lon="5.92683">
        <ele>2041.2</ele>
        <time>2021-02-27T06:12:50Z</time>
      </trkpt>
      <trkpt lat="45.14005" lon="5.92684">
        <ele>2041.6</ele>
        <time>2021-02-27T06:12:51Z</time>
      </trkpt>
      <trkpt lat="45.14005" lon="5.92686">
        <ele>2041.8</ele>
        <time>2021-02-27T06:12:52Z</time>
      </trkpt>
      <trkpt lat="45.14005" lon="5.92687">
        <ele>2041.8</ele>
        <time>2021-02-27T06:12:53Z</time>
      </trkpt>
      <trkpt lat="45.14005" lon="5.92688">
        <ele>2042.2</ele>
        <time>2021-02-27T06:12:54Z</time>
      </trkpt>
      <trkpt lat="45.14005" lon="5.92689">
        <ele>2042.4</ele>
        <time>2021-02-27T06:12:55Z</time>
      </trkpt>
      <trkpt lat="45.14006" lon="5.9269">
        <ele>2042.8</ele>
        <time>2021-02-27T06:12:56Z</time>
      </trkpt>
      <trkpt lat="45.14006" lon="5.92691">
        <ele>2043.2</ele>
        <time>2021-02-27T06:12:57Z</time>
      </trkpt>
      <trkpt lat="45.14006" lon="5.92693">
        <ele>2043.6</ele>
        <time>2021-02-27T06:12:58Z</time>
      </trkpt>
      <trkpt lat="45.14007" lon="5.92694">
        <ele>2043.6</ele>
        <time>2021-02-27T06:12:59Z</time>
      </trkpt>
      <trkpt lat="45.14007" lon="5.92695">
        <ele>2044.2</ele>
        <time>2021-02-27T06:13:00Z</time>
      </trkpt>
      <trkpt lat="45.14007" lon="5.92696">
        <ele>2044.2</ele>
        <time>2021-02-27T06:13:01Z</time>
      </trkpt>
      <trkpt lat="45.14008" lon="5.92698">
        <ele>2044.6</ele>
        <time>2021-02-27T06:13:02Z</time>
      </trkpt>
      <trkpt lat="45.14008" lon="5.92699">
        <ele>2045</ele>
        <time>2021-02-27T06:13:03Z</time>
      </trkpt>
      <trkpt lat="45.14008" lon="5.927">
        <ele>2045.2</ele>
        <time>2021-02-27T06:13:04Z</time>
      </trkpt>
      <trkpt lat="45.14009" lon="5.92702">
        <ele>2045.6</ele>
        <time>2021-02-27T06:13:05Z</time>
      </trkpt>
      <trkpt lat="45.14009" lon="5.92703">
        <ele>2046.2</ele>
        <time>2021-02-27T06:13:06Z</time>
      </trkpt>
      <trkpt lat="45.14009" lon="5.92704">
        <ele>2046.4</ele>
        <time>2021-02-27T06:13:07Z</time>
      </trkpt>
      <trkpt lat="45.14009" lon="5.92706">
        <ele>2046.6</ele>
        <time>2021-02-27T06:13:08Z</time>
      </trkpt>
      <trkpt lat="45.1401" lon="5.92707">
        <ele>2046.8</ele>
        <time>2021-02-27T06:13:09Z</time>
      </trkpt>
      <trkpt lat="45.1401" lon="5.92708">
        <ele>2047</ele>
        <time>2021-02-27T06:13:10Z</time>
      </trkpt>
      <trkpt lat="45.1401" lon="5.9271">
        <ele>2047.4</ele>
        <time>2021-02-27T06:13:11Z</time>
      </trkpt>
      <trkpt lat="45.14011" lon="5.92711">
        <ele>2047.6</ele>
        <time>2021-02-27T06:13:12Z</time>
      </trkpt>
      <trkpt lat="45.14011" lon="5.92713">
        <ele>2047.8</ele>
        <time>2021-02-27T06:13:13Z</time>
      </trkpt>
      <trkpt lat="45.14011" lon="5.92714">
        <ele>2048</ele>
        <time>2021-02-27T06:13:14Z</time>
      </trkpt>
      <trkpt lat="45.14011" lon="5.92715">
        <ele>2048.4</ele>
        <time>2021-02-27T06:13:15Z</time>
      </trkpt>
      <trkpt lat="45.14011" lon="5.92715">
        <ele>2048.8</ele>
        <time>2021-02-27T06:13:16Z</time>
      </trkpt>
      <trkpt lat="45.14011" lon="5.92716">
        <ele>2048.8</ele>
        <time>2021-02-27T06:13:17Z</time>
      </trkpt>
      <trkpt lat="45.14011" lon="5.92717">
        <ele>2049</ele>
        <time>2021-02-27T06:13:18Z</time>
      </trkpt>
      <trkpt lat="45.14011" lon="5.92718">
        <ele>2049.2</ele>
        <time>2021-02-27T06:13:19Z</time>
      </trkpt>
      <trkpt lat="45.14012" lon="5.92719">
        <ele>2049.4</ele>
        <time>2021-02-27T06:13:20Z</time>
      </trkpt>
      <trkpt lat="45.14012" lon="5.9272">
        <ele>2049.8</ele>
        <time>2021-02-27T06:13:21Z</time>
      </trkpt>
      <trkpt lat="45.14012" lon="5.92721">
        <ele>2050.2</ele>
        <time>2021-02-27T06:13:22Z</time>
      </trkpt>
      <trkpt lat="45.14012" lon="5.92722">
        <ele>2050.4</ele>
        <time>2021-02-27T06:13:23Z</time>
      </trkpt>
      <trkpt lat="45.14012" lon="5.92723">
        <ele>2050.8</ele>
        <time>2021-02-27T06:13:24Z</time>
      </trkpt>
      <trkpt lat="45.14012" lon="5.92724">
        <ele>2051.6</ele>
        <time>2021-02-27T06:13:25Z</time>
      </trkpt>
      <trkpt lat="45.14012" lon="5.92725">
        <ele>2051.8</ele>
        <time>2021-02-27T06:13:26Z</time>
      </trkpt>
      <trkpt lat="45.14012" lon="5.92726">
        <ele>2052.2</ele>
        <time>2021-02-27T06:13:27Z</time>
      </trkpt>
      <trkpt lat="45.14013" lon="5.92727">
        <ele>2052.6</ele>
        <time>2021-02-27T06:13:28Z</time>
      </trkpt>
      <trkpt lat="45.14013" lon="5.92728">
        <ele>2052.6</ele>
        <time>2021-02-27T06:13:29Z</time>
      </trkpt>
      <trkpt lat="45.14014" lon="5.92729">
        <ele>2052.8</ele>
        <time>2021-02-27T06:13:30Z</time>
      </trkpt>
      <trkpt lat="45.14014" lon="5.9273">
        <ele>2053.6</ele>
        <time>2021-02-27T06:13:31Z</time>
      </trkpt>
      <trkpt lat="45.14015" lon="5.92731">
        <ele>2053.8</ele>
        <time>2021-02-27T06:13:32Z</time>
      </trkpt>
      <trkpt lat="45.14015" lon="5.92732">
        <ele>2054</ele>
        <time>2021-02-27T06:13:33Z</time>
      </trkpt>
      <trkpt lat="45.14016" lon="5.92733">
        <ele>2054.4</ele>
        <time>2021-02-27T06:13:34Z</time>
      </trkpt>
      <trkpt lat="45.14016" lon="5.92734">
        <ele>2054.6</ele>
        <time>2021-02-27T06:13:35Z</time>
      </trkpt>
      <trkpt lat="45.14017" lon="5.92735">
        <ele>2054.8</ele>
        <time>2021-02-27T06:13:36Z</time>
      </trkpt>
      <trkpt lat="45.14018" lon="5.92736">
        <ele>2055.4</ele>
        <time>2021-02-27T06:13:37Z</time>
      </trkpt>
      <trkpt lat="45.14018" lon="5.92736">
        <ele>2055.4</ele>
        <time>2021-02-27T06:13:38Z</time>
      </trkpt>
      <trkpt lat="45.14019" lon="5.92737">
        <ele>2055.6</ele>
        <time>2021-02-27T06:13:39Z</time>
      </trkpt>
      <trkpt lat="45.14019" lon="5.92738">
        <ele>2056</ele>
        <time>2021-02-27T06:13:40Z</time>
      </trkpt>
      <trkpt lat="45.1402" lon="5.92739">
        <ele>2056.2</ele>
        <time>2021-02-27T06:13:41Z</time>
      </trkpt>
      <trkpt lat="45.1402" lon="5.9274">
        <ele>2056.8</ele>
        <time>2021-02-27T06:13:42Z</time>
      </trkpt>
      <trkpt lat="45.14021" lon="5.92741">
        <ele>2057.2</ele>
        <time>2021-02-27T06:13:43Z</time>
      </trkpt>
      <trkpt lat="45.14021" lon="5.92742">
        <ele>2057.6</ele>
        <time>2021-02-27T06:13:44Z</time>
      </trkpt>
      <trkpt lat="45.14022" lon="5.92743">
        <ele>2057.8</ele>
        <time>2021-02-27T06:13:45Z</time>
      </trkpt>
      <trkpt lat="45.14022" lon="5.92744">
        <ele>2058</ele>
        <time>2021-02-27T06:13:46Z</time>
      </trkpt>
      <trkpt lat="45.14023" lon="5.92745">
        <ele>2058.2</ele>
        <time>2021-02-27T06:13:47Z</time>
      </trkpt>
      <trkpt lat="45.14023" lon="5.92746">
        <ele>2058.6</ele>
        <time>2021-02-27T06:13:48Z</time>
      </trkpt>
      <trkpt lat="45.14024" lon="5.92747">
        <ele>2059</ele>
        <time>2021-02-27T06:13:49Z</time>
      </trkpt>
      <trkpt lat="45.14024" lon="5.92747">
        <ele>2059.2</ele>
        <time>2021-02-27T06:13:50Z</time>
      </trkpt>
      <trkpt lat="45.14024" lon="5.92748">
        <ele>2059.4</ele>
        <time>2021-02-27T06:13:51Z</time>
      </trkpt>
      <trkpt lat="45.14024" lon="5.92749">
        <ele>2059.8</ele>
        <time>2021-02-27T06:13:52Z</time>
      </trkpt>
      <trkpt lat="45.14024" lon="5.9275">
        <ele>2060</ele>
        <time>2021-02-27T06:13:53Z</time>
      </trkpt>
      <trkpt lat="45.14024" lon="5.92751">
        <ele>2060.4</ele>
        <time>2021-02-27T06:13:54Z</time>
      </trkpt>
      <trkpt lat="45.14024" lon="5.92752">
        <ele>2060.6</ele>
        <time>2021-02-27T06:13:55Z</time>
      </trkpt>
      <trkpt lat="45.14024" lon="5.92753">
        <ele>2061</ele>
        <time>2021-02-27T06:13:56Z</time>
      </trkpt>
      <trkpt lat="45.14024" lon="5.92754">
        <ele>2061.2</ele>
        <time>2021-02-27T06:13:57Z</time>
      </trkpt>
      <trkpt lat="45.14024" lon="5.92755">
        <ele>2061.6</ele>
        <time>2021-02-27T06:13:58Z</time>
      </trkpt>
      <trkpt lat="45.14025" lon="5.92756">
        <ele>2061.4</ele>
        <time>2021-02-27T06:13:59Z</time>
      </trkpt>
      <trkpt lat="45.14025" lon="5.92757">
        <ele>2062.2</ele>
        <time>2021-02-27T06:14:00Z</time>
      </trkpt>
      <trkpt lat="45.14025" lon="5.92757">
        <ele>2062.6</ele>
        <time>2021-02-27T06:14:01Z</time>
      </trkpt>
      <trkpt lat="45.14025" lon="5.92758">
        <ele>2062.6</ele>
        <time>2021-02-27T06:14:02Z</time>
      </trkpt>
      <trkpt lat="45.14025" lon="5.92759">
        <ele>2062.8</ele>
        <time>2021-02-27T06:14:03Z</time>
      </trkpt>
      <trkpt lat="45.14025" lon="5.9276">
        <ele>2063.2</ele>
        <time>2021-02-27T06:14:04Z</time>
      </trkpt>
      <trkpt lat="45.14026" lon="5.92762">
        <ele>2063.6</ele>
        <time>2021-02-27T06:14:05Z</time>
      </trkpt>
      <trkpt lat="45.14026" lon="5.92763">
        <ele>2063.8</ele>
        <time>2021-02-27T06:14:06Z</time>
      </trkpt>
      <trkpt lat="45.14026" lon="5.92764">
        <ele>2063.8</ele>
        <time>2021-02-27T06:14:07Z</time>
      </trkpt>
      <trkpt lat="45.14027" lon="5.92765">
        <ele>2064.2</ele>
        <time>2021-02-27T06:14:08Z</time>
      </trkpt>
      <trkpt lat="45.14027" lon="5.92766">
        <ele>2064.8</ele>
        <time>2021-02-27T06:14:09Z</time>
      </trkpt>
      <trkpt lat="45.14027" lon="5.92767">
        <ele>2065.2</ele>
        <time>2021-02-27T06:14:10Z</time>
      </trkpt>
      <trkpt lat="45.14028" lon="5.92768">
        <ele>2065.6</ele>
        <time>2021-02-27T06:14:11Z</time>
      </trkpt>
      <trkpt lat="45.14028" lon="5.92769">
        <ele>2066.2</ele>
        <time>2021-02-27T06:14:12Z</time>
      </trkpt>
      <trkpt lat="45.14028" lon="5.92771">
        <ele>2066.4</ele>
        <time>2021-02-27T06:14:13Z</time>
      </trkpt>
      <trkpt lat="45.14029" lon="5.92772">
        <ele>2066.6</ele>
        <time>2021-02-27T06:14:14Z</time>
      </trkpt>
      <trkpt lat="45.14029" lon="5.92773">
        <ele>2066.8</ele>
        <time>2021-02-27T06:14:15Z</time>
      </trkpt>
      <trkpt lat="45.14029" lon="5.92774">
        <ele>2066.8</ele>
        <time>2021-02-27T06:14:16Z</time>
      </trkpt>
      <trkpt lat="45.1403" lon="5.92774">
        <ele>2067.2</ele>
        <time>2021-02-27T06:14:17Z</time>
      </trkpt>
      <trkpt lat="45.1403" lon="5.92775">
        <ele>2067.6</ele>
        <time>2021-02-27T06:14:18Z</time>
      </trkpt>
      <trkpt lat="45.1403" lon="5.92776">
        <ele>2067.8</ele>
        <time>2021-02-27T06:14:19Z</time>
      </trkpt>
      <trkpt lat="45.14031" lon="5.92777">
        <ele>2068.4</ele>
        <time>2021-02-27T06:14:20Z</time>
      </trkpt>
      <trkpt lat="45.14031" lon="5.92778">
        <ele>2068.8</ele>
        <time>2021-02-27T06:14:21Z</time>
      </trkpt>
      <trkpt lat="45.14031" lon="5.92779">
        <ele>2069</ele>
        <time>2021-02-27T06:14:22Z</time>
      </trkpt>
      <trkpt lat="45.14031" lon="5.9278">
        <ele>2069.4</ele>
        <time>2021-02-27T06:14:23Z</time>
      </trkpt>
      <trkpt lat="45.14032" lon="5.92781">
        <ele>2069.6</ele>
        <time>2021-02-27T06:14:24Z</time>
      </trkpt>
      <trkpt lat="45.14032" lon="5.92782">
        <ele>2070</ele>
        <time>2021-02-27T06:14:25Z</time>
      </trkpt>
      <trkpt lat="45.14032" lon="5.92783">
        <ele>2070.2</ele>
        <time>2021-02-27T06:14:26Z</time>
      </trkpt>
      <trkpt lat="45.14033" lon="5.92784">
        <ele>2070.2</ele>
        <time>2021-02-27T06:14:27Z</time>
      </trkpt>
      <trkpt lat="45.14033" lon="5.92785">
        <ele>2070.6</ele>
        <time>2021-02-27T06:14:28Z</time>
      </trkpt>
      <trkpt lat="45.14034" lon="5.92786">
        <ele>2070.6</ele>
        <time>2021-02-27T06:14:29Z</time>
      </trkpt>
      <trkpt lat="45.14035" lon="5.92787">
        <ele>2070.8</ele>
        <time>2021-02-27T06:14:30Z</time>
      </trkpt>
      <trkpt lat="45.14036" lon="5.92788">
        <ele>2071</ele>
        <time>2021-02-27T06:14:31Z</time>
      </trkpt>
      <trkpt lat="45.14036" lon="5.92789">
        <ele>2071.4</ele>
        <time>2021-02-27T06:14:32Z</time>
      </trkpt>
      <trkpt lat="45.14037" lon="5.9279">
        <ele>2071.4</ele>
        <time>2021-02-27T06:14:33Z</time>
      </trkpt>
      <trkpt lat="45.14038" lon="5.92792">
        <ele>2071.6</ele>
        <time>2021-02-27T06:14:34Z</time>
      </trkpt>
      <trkpt lat="45.14039" lon="5.92793">
        <ele>2072</ele>
        <time>2021-02-27T06:14:35Z</time>
      </trkpt>
      <trkpt lat="45.14039" lon="5.92794">
        <ele>2072.4</ele>
        <time>2021-02-27T06:14:36Z</time>
      </trkpt>
      <trkpt lat="45.1404" lon="5.92795">
        <ele>2072.6</ele>
        <time>2021-02-27T06:14:37Z</time>
      </trkpt>
      <trkpt lat="45.14041" lon="5.92796">
        <ele>2072.6</ele>
        <time>2021-02-27T06:14:38Z</time>
      </trkpt>
      <trkpt lat="45.14041" lon="5.92797">
        <ele>2072.8</ele>
        <time>2021-02-27T06:14:39Z</time>
      </trkpt>
      <trkpt lat="45.14042" lon="5.92798">
        <ele>2073.2</ele>
        <time>2021-02-27T06:14:40Z</time>
      </trkpt>
      <trkpt lat="45.14043" lon="5.92798">
        <ele>2073</ele>
        <time>2021-02-27T06:14:41Z</time>
      </trkpt>
      <trkpt lat="45.14044" lon="5.92799">
        <ele>2073.4</ele>
        <time>2021-02-27T06:14:42Z</time>
      </trkpt>
      <trkpt lat="45.14044" lon="5.928">
        <ele>2073.8</ele>
        <time>2021-02-27T06:14:43Z</time>
      </trkpt>
      <trkpt lat="45.14045" lon="5.92801">
        <ele>2073.8</ele>
        <time>2021-02-27T06:14:44Z</time>
      </trkpt>
      <trkpt lat="45.14046" lon="5.92802">
        <ele>2074.2</ele>
        <time>2021-02-27T06:14:45Z</time>
      </trkpt>
      <trkpt lat="45.14047" lon="5.92804">
        <ele>2074.6</ele>
        <time>2021-02-27T06:14:46Z</time>
      </trkpt>
      <trkpt lat="45.14047" lon="5.92804">
        <ele>2074.6</ele>
        <time>2021-02-27T06:14:47Z</time>
      </trkpt>
      <trkpt lat="45.14049" lon="5.92807">
        <ele>2074.8</ele>
        <time>2021-02-27T06:14:48Z</time>
      </trkpt>
      <trkpt lat="45.14049" lon="5.92807">
        <ele>2075</ele>
        <time>2021-02-27T06:14:49Z</time>
      </trkpt>
      <trkpt lat="45.1405" lon="5.92808">
        <ele>2075.4</ele>
        <time>2021-02-27T06:14:50Z</time>
      </trkpt>
      <trkpt lat="45.1405" lon="5.92809">
        <ele>2075.4</ele>
        <time>2021-02-27T06:14:51Z</time>
      </trkpt>
      <trkpt lat="45.14051" lon="5.92811">
        <ele>2075.6</ele>
        <time>2021-02-27T06:14:52Z</time>
      </trkpt>
      <trkpt lat="45.14052" lon="5.92812">
        <ele>2075</ele>
        <time>2021-02-27T06:14:53Z</time>
      </trkpt>
      <trkpt lat="45.14053" lon="5.92813">
        <ele>2075.4</ele>
        <time>2021-02-27T06:14:54Z</time>
      </trkpt>
      <trkpt lat="45.14053" lon="5.92814">
        <ele>2075.4</ele>
        <time>2021-02-27T06:14:55Z</time>
      </trkpt>
      <trkpt lat="45.14054" lon="5.92816">
        <ele>2075.4</ele>
        <time>2021-02-27T06:14:56Z</time>
      </trkpt>
      <trkpt lat="45.14055" lon="5.92817">
        <ele>2075.6</ele>
        <time>2021-02-27T06:14:57Z</time>
      </trkpt>
      <trkpt lat="45.14056" lon="5.92818">
        <ele>2075.4</ele>
        <time>2021-02-27T06:14:58Z</time>
      </trkpt>
      <trkpt lat="45.14056" lon="5.92819">
        <ele>2076</ele>
        <time>2021-02-27T06:14:59Z</time>
      </trkpt>
      <trkpt lat="45.14057" lon="5.92821">
        <ele>2076</ele>
        <time>2021-02-27T06:15:00Z</time>
      </trkpt>
      <trkpt lat="45.14057" lon="5.92822">
        <ele>2076.2</ele>
        <time>2021-02-27T06:15:01Z</time>
      </trkpt>
      <trkpt lat="45.14058" lon="5.92823">
        <ele>2076.8</ele>
        <time>2021-02-27T06:15:02Z</time>
      </trkpt>
      <trkpt lat="45.14058" lon="5.92824">
        <ele>2076.6</ele>
        <time>2021-02-27T06:15:03Z</time>
      </trkpt>
      <trkpt lat="45.14059" lon="5.92826">
        <ele>2077.2</ele>
        <time>2021-02-27T06:15:04Z</time>
      </trkpt>
      <trkpt lat="45.14059" lon="5.92827">
        <ele>2077.4</ele>
        <time>2021-02-27T06:15:05Z</time>
      </trkpt>
      <trkpt lat="45.1406" lon="5.92828">
        <ele>2077.4</ele>
        <time>2021-02-27T06:15:06Z</time>
      </trkpt>
      <trkpt lat="45.1406" lon="5.9283">
        <ele>2077.8</ele>
        <time>2021-02-27T06:15:07Z</time>
      </trkpt>
      <trkpt lat="45.14061" lon="5.92831">
        <ele>2077.8</ele>
        <time>2021-02-27T06:15:08Z</time>
      </trkpt>
      <trkpt lat="45.14061" lon="5.92832">
        <ele>2078.2</ele>
        <time>2021-02-27T06:15:09Z</time>
      </trkpt>
      <trkpt lat="45.14062" lon="5.92834">
        <ele>2078.8</ele>
        <time>2021-02-27T06:15:10Z</time>
      </trkpt>
      <trkpt lat="45.14062" lon="5.92835">
        <ele>2078.8</ele>
        <time>2021-02-27T06:15:11Z</time>
      </trkpt>
      <trkpt lat="45.14063" lon="5.92836">
        <ele>2079.4</ele>
        <time>2021-02-27T06:15:12Z</time>
      </trkpt>
      <trkpt lat="45.14063" lon="5.92838">
        <ele>2079.8</ele>
        <time>2021-02-27T06:15:13Z</time>
      </trkpt>
      <trkpt lat="45.14064" lon="5.92839">
        <ele>2080.4</ele>
        <time>2021-02-27T06:15:14Z</time>
      </trkpt>
      <trkpt lat="45.14065" lon="5.9284">
        <ele>2080.8</ele>
        <time>2021-02-27T06:15:15Z</time>
      </trkpt>
      <trkpt lat="45.14065" lon="5.92842">
        <ele>2080.8</ele>
        <time>2021-02-27T06:15:16Z</time>
      </trkpt>
      <trkpt lat="45.14066" lon="5.92843">
        <ele>2081</ele>
        <time>2021-02-27T06:15:17Z</time>
      </trkpt>
      <trkpt lat="45.14067" lon="5.92844">
        <ele>2081.4</ele>
        <time>2021-02-27T06:15:18Z</time>
      </trkpt>
      <trkpt lat="45.14067" lon="5.92845">
        <ele>2081.6</ele>
        <time>2021-02-27T06:15:19Z</time>
      </trkpt>
      <trkpt lat="45.14068" lon="5.92847">
        <ele>2081.8</ele>
        <time>2021-02-27T06:15:20Z</time>
      </trkpt>
      <trkpt lat="45.14069" lon="5.92848">
        <ele>2082</ele>
        <time>2021-02-27T06:15:21Z</time>
      </trkpt>
      <trkpt lat="45.1407" lon="5.92849">
        <ele>2082</ele>
        <time>2021-02-27T06:15:22Z</time>
      </trkpt>
      <trkpt lat="45.1407" lon="5.9285">
        <ele>2082.4</ele>
        <time>2021-02-27T06:15:23Z</time>
      </trkpt>
      <trkpt lat="45.14071" lon="5.92852">
        <ele>2082.2</ele>
        <time>2021-02-27T06:15:24Z</time>
      </trkpt>
      <trkpt lat="45.14072" lon="5.92853">
        <ele>2082.2</ele>
        <time>2021-02-27T06:15:25Z</time>
      </trkpt>
      <trkpt lat="45.14072" lon="5.92854">
        <ele>2082.6</ele>
        <time>2021-02-27T06:15:26Z</time>
      </trkpt>
      <trkpt lat="45.14073" lon="5.92855">
        <ele>2082.2</ele>
        <time>2021-02-27T06:15:27Z</time>
      </trkpt>
      <trkpt lat="45.14074" lon="5.92856">
        <ele>2082.4</ele>
        <time>2021-02-27T06:15:28Z</time>
      </trkpt>
      <trkpt lat="45.14074" lon="5.92857">
        <ele>2082.6</ele>
        <time>2021-02-27T06:15:29Z</time>
      </trkpt>
      <trkpt lat="45.14075" lon="5.92858">
        <ele>2082.6</ele>
        <time>2021-02-27T06:15:30Z</time>
      </trkpt>
      <trkpt lat="45.14076" lon="5.92859">
        <ele>2083</ele>
        <time>2021-02-27T06:15:31Z</time>
      </trkpt>
      <trkpt lat="45.14076" lon="5.9286">
        <ele>2083.4</ele>
        <time>2021-02-27T06:15:32Z</time>
      </trkpt>
      <trkpt lat="45.14077" lon="5.92861">
        <ele>2083.4</ele>
        <time>2021-02-27T06:15:33Z</time>
      </trkpt>
      <trkpt lat="45.14078" lon="5.92862">
        <ele>2084.2</ele>
        <time>2021-02-27T06:15:34Z</time>
      </trkpt>
      <trkpt lat="45.14078" lon="5.92863">
        <ele>2084.4</ele>
        <time>2021-02-27T06:15:35Z</time>
      </trkpt>
      <trkpt lat="45.14078" lon="5.92865">
        <ele>2084.6</ele>
        <time>2021-02-27T06:15:36Z</time>
      </trkpt>
      <trkpt lat="45.14079" lon="5.92866">
        <ele>2085</ele>
        <time>2021-02-27T06:15:37Z</time>
      </trkpt>
      <trkpt lat="45.14079" lon="5.92868">
        <ele>2084.8</ele>
        <time>2021-02-27T06:15:38Z</time>
      </trkpt>
      <trkpt lat="45.14079" lon="5.92869">
        <ele>2085.6</ele>
        <time>2021-02-27T06:15:39Z</time>
      </trkpt>
      <trkpt lat="45.14079" lon="5.92871">
        <ele>2085.8</ele>
        <time>2021-02-27T06:15:40Z</time>
      </trkpt>
      <trkpt lat="45.14079" lon="5.92872">
        <ele>2085.8</ele>
        <time>2021-02-27T06:15:41Z</time>
      </trkpt>
      <trkpt lat="45.14079" lon="5.92874">
        <ele>2086.2</ele>
        <time>2021-02-27T06:15:42Z</time>
      </trkpt>
      <trkpt lat="45.14079" lon="5.92875">
        <ele>2086.6</ele>
        <time>2021-02-27T06:15:43Z</time>
      </trkpt>
      <trkpt lat="45.14079" lon="5.92877">
        <ele>2086.2</ele>
        <time>2021-02-27T06:15:44Z</time>
      </trkpt>
      <trkpt lat="45.14079" lon="5.92878">
        <ele>2086.8</ele>
        <time>2021-02-27T06:15:45Z</time>
      </trkpt>
      <trkpt lat="45.1408" lon="5.92879">
        <ele>2086.8</ele>
        <time>2021-02-27T06:15:46Z</time>
      </trkpt>
      <trkpt lat="45.1408" lon="5.9288">
        <ele>2087.2</ele>
        <time>2021-02-27T06:15:47Z</time>
      </trkpt>
      <trkpt lat="45.1408" lon="5.92881">
        <ele>2087.8</ele>
        <time>2021-02-27T06:15:48Z</time>
      </trkpt>
      <trkpt lat="45.1408" lon="5.92882">
        <ele>2088.2</ele>
        <time>2021-02-27T06:15:49Z</time>
      </trkpt>
      <trkpt lat="45.14081" lon="5.92883">
        <ele>2088.4</ele>
        <time>2021-02-27T06:15:50Z</time>
      </trkpt>
      <trkpt lat="45.14081" lon="5.92884">
        <ele>2088.4</ele>
        <time>2021-02-27T06:15:51Z</time>
      </trkpt>
      <trkpt lat="45.14081" lon="5.92885">
        <ele>2088.8</ele>
        <time>2021-02-27T06:15:52Z</time>
      </trkpt>
      <trkpt lat="45.14082" lon="5.92886">
        <ele>2088.8</ele>
        <time>2021-02-27T06:15:53Z</time>
      </trkpt>
      <trkpt lat="45.14082" lon="5.92887">
        <ele>2089.2</ele>
        <time>2021-02-27T06:15:54Z</time>
      </trkpt>
      <trkpt lat="45.14082" lon="5.92888">
        <ele>2089.4</ele>
        <time>2021-02-27T06:15:55Z</time>
      </trkpt>
      <trkpt lat="45.14082" lon="5.92889">
        <ele>2089.2</ele>
        <time>2021-02-27T06:15:56Z</time>
      </trkpt>
      <trkpt lat="45.14082" lon="5.9289">
        <ele>2089.6</ele>
        <time>2021-02-27T06:15:57Z</time>
      </trkpt>
      <trkpt lat="45.14082" lon="5.92892">
        <ele>2089.6</ele>
        <time>2021-02-27T06:15:58Z</time>
      </trkpt>
      <trkpt lat="45.14082" lon="5.92893">
        <ele>2089.4</ele>
        <time>2021-02-27T06:15:59Z</time>
      </trkpt>
      <trkpt lat="45.14082" lon="5.92894">
        <ele>2090.2</ele>
        <time>2021-02-27T06:16:00Z</time>
      </trkpt>
      <trkpt lat="45.14082" lon="5.92896">
        <ele>2090.2</ele>
        <time>2021-02-27T06:16:01Z</time>
      </trkpt>
      <trkpt lat="45.14082" lon="5.92897">
        <ele>2090.6</ele>
        <time>2021-02-27T06:16:02Z</time>
      </trkpt>
      <trkpt lat="45.14081" lon="5.92898">
        <ele>2091</ele>
        <time>2021-02-27T06:16:03Z</time>
      </trkpt>
      <trkpt lat="45.14081" lon="5.92899">
        <ele>2091.4</ele>
        <time>2021-02-27T06:16:04Z</time>
      </trkpt>
      <trkpt lat="45.14081" lon="5.92901">
        <ele>2091.4</ele>
        <time>2021-02-27T06:16:05Z</time>
      </trkpt>
      <trkpt lat="45.14081" lon="5.92902">
        <ele>2091.6</ele>
        <time>2021-02-27T06:16:06Z</time>
      </trkpt>
      <trkpt lat="45.14082" lon="5.92902">
        <ele>2091.8</ele>
        <time>2021-02-27T06:16:07Z</time>
      </trkpt>
      <trkpt lat="45.14083" lon="5.92902">
        <ele>2092</ele>
        <time>2021-02-27T06:16:08Z</time>
      </trkpt>
      <trkpt lat="45.14083" lon="5.92902">
        <ele>2092.6</ele>
        <time>2021-02-27T06:16:09Z</time>
      </trkpt>
      <trkpt lat="45.14084" lon="5.92902">
        <ele>2092.6</ele>
        <time>2021-02-27T06:16:10Z</time>
      </trkpt>
      <trkpt lat="45.14085" lon="5.92902">
        <ele>2092.8</ele>
        <time>2021-02-27T06:16:11Z</time>
      </trkpt>
      <trkpt lat="45.14086" lon="5.92902">
        <ele>2093</ele>
        <time>2021-02-27T06:16:12Z</time>
      </trkpt>
      <trkpt lat="45.14086" lon="5.92902">
        <ele>2093</ele>
        <time>2021-02-27T06:16:13Z</time>
      </trkpt>
      <trkpt lat="45.14087" lon="5.92902">
        <ele>2093.2</ele>
        <time>2021-02-27T06:16:14Z</time>
      </trkpt>
      <trkpt lat="45.14088" lon="5.92903">
        <ele>2093.4</ele>
        <time>2021-02-27T06:16:15Z</time>
      </trkpt>
      <trkpt lat="45.14089" lon="5.92903">
        <ele>2093.6</ele>
        <time>2021-02-27T06:16:16Z</time>
      </trkpt>
      <trkpt lat="45.14089" lon="5.92903">
        <ele>2094</ele>
        <time>2021-02-27T06:16:17Z</time>
      </trkpt>
      <trkpt lat="45.1409" lon="5.92903">
        <ele>2094.2</ele>
        <time>2021-02-27T06:16:18Z</time>
      </trkpt>
      <trkpt lat="45.14091" lon="5.92903">
        <ele>2094.6</ele>
        <time>2021-02-27T06:16:19Z</time>
      </trkpt>
      <trkpt lat="45.14091" lon="5.92904">
        <ele>2094.4</ele>
        <time>2021-02-27T06:16:20Z</time>
      </trkpt>
      <trkpt lat="45.14091" lon="5.92904">
        <ele>2094.8</ele>
        <time>2021-02-27T06:16:21Z</time>
      </trkpt>
      <trkpt lat="45.14091" lon="5.92905">
        <ele>2095</ele>
        <time>2021-02-27T06:16:22Z</time>
      </trkpt>
      <trkpt lat="45.14092" lon="5.92905">
        <ele>2095.2</ele>
        <time>2021-02-27T06:16:23Z</time>
      </trkpt>
      <trkpt lat="45.14092" lon="5.92906">
        <ele>2095.6</ele>
        <time>2021-02-27T06:16:24Z</time>
      </trkpt>
      <trkpt lat="45.14092" lon="5.92906">
        <ele>2095.8</ele>
        <time>2021-02-27T06:16:25Z</time>
      </trkpt>
      <trkpt lat="45.14092" lon="5.92907">
        <ele>2096.2</ele>
        <time>2021-02-27T06:16:26Z</time>
      </trkpt>
      <trkpt lat="45.14093" lon="5.92907">
        <ele>2096.6</ele>
        <time>2021-02-27T06:16:27Z</time>
      </trkpt>
      <trkpt lat="45.14093" lon="5.92908">
        <ele>2096.8</ele>
        <time>2021-02-27T06:16:28Z</time>
      </trkpt>
      <trkpt lat="45.14093" lon="5.92908">
        <ele>2096.8</ele>
        <time>2021-02-27T06:16:29Z</time>
      </trkpt>
      <trkpt lat="45.14093" lon="5.92909">
        <ele>2097.2</ele>
        <time>2021-02-27T06:16:30Z</time>
      </trkpt>
      <trkpt lat="45.14094" lon="5.92909">
        <ele>2097.2</ele>
        <time>2021-02-27T06:16:31Z</time>
      </trkpt>
      <trkpt lat="45.14094" lon="5.9291">
        <ele>2098</ele>
        <time>2021-02-27T06:16:32Z</time>
      </trkpt>
      <trkpt lat="45.14094" lon="5.9291">
        <ele>2098.2</ele>
        <time>2021-02-27T06:16:33Z</time>
      </trkpt>
      <trkpt lat="45.14094" lon="5.92911">
        <ele>2098.4</ele>
        <time>2021-02-27T06:16:34Z</time>
      </trkpt>
      <trkpt lat="45.14095" lon="5.92911">
        <ele>2098.6</ele>
        <time>2021-02-27T06:16:35Z</time>
      </trkpt>
      <trkpt lat="45.14095" lon="5.92912">
        <ele>2099.2</ele>
        <time>2021-02-27T06:16:36Z</time>
      </trkpt>
      <trkpt lat="45.14095" lon="5.92912">
        <ele>2099.4</ele>
        <time>2021-02-27T06:16:37Z</time>
      </trkpt>
      <trkpt lat="45.14096" lon="5.92913">
        <ele>2099.6</ele>
        <time>2021-02-27T06:16:38Z</time>
      </trkpt>
      <trkpt lat="45.14096" lon="5.92913">
        <ele>2099.8</ele>
        <time>2021-02-27T06:16:39Z</time>
      </trkpt>
      <trkpt lat="45.14096" lon="5.92914">
        <ele>2100</ele>
        <time>2021-02-27T06:16:40Z</time>
      </trkpt>
      <trkpt lat="45.14097" lon="5.92914">
        <ele>2100.4</ele>
        <time>2021-02-27T06:16:41Z</time>
      </trkpt>
      <trkpt lat="45.14097" lon="5.92915">
        <ele>2100.6</ele>
        <time>2021-02-27T06:16:42Z</time>
      </trkpt>
      <trkpt lat="45.14098" lon="5.92916">
        <ele>2101</ele>
        <time>2021-02-27T06:16:43Z</time>
      </trkpt>
      <trkpt lat="45.14099" lon="5.92917">
        <ele>2100.8</ele>
        <time>2021-02-27T06:16:44Z</time>
      </trkpt>
      <trkpt lat="45.141" lon="5.92917">
        <ele>2100.8</ele>
        <time>2021-02-27T06:16:45Z</time>
      </trkpt>
      <trkpt lat="45.141" lon="5.92918">
        <ele>2101.6</ele>
        <time>2021-02-27T06:16:46Z</time>
      </trkpt>
      <trkpt lat="45.14101" lon="5.92919">
        <ele>2101.8</ele>
        <time>2021-02-27T06:16:47Z</time>
      </trkpt>
      <trkpt lat="45.14102" lon="5.9292">
        <ele>2102</ele>
        <time>2021-02-27T06:16:48Z</time>
      </trkpt>
      <trkpt lat="45.14102" lon="5.9292">
        <ele>2102.6</ele>
        <time>2021-02-27T06:16:49Z</time>
      </trkpt>
      <trkpt lat="45.14103" lon="5.92921">
        <ele>2103</ele>
        <time>2021-02-27T06:16:50Z</time>
      </trkpt>
      <trkpt lat="45.14104" lon="5.92922">
        <ele>2103.4</ele>
        <time>2021-02-27T06:16:51Z</time>
      </trkpt>
      <trkpt lat="45.14105" lon="5.92923">
        <ele>2103.8</ele>
        <time>2021-02-27T06:16:52Z</time>
      </trkpt>
      <trkpt lat="45.14105" lon="5.92923">
        <ele>2104.2</ele>
        <time>2021-02-27T06:16:53Z</time>
      </trkpt>
      <trkpt lat="45.14106" lon="5.92924">
        <ele>2104.2</ele>
        <time>2021-02-27T06:16:54Z</time>
      </trkpt>
      <trkpt lat="45.14107" lon="5.92925">
        <ele>2104.8</ele>
        <time>2021-02-27T06:16:55Z</time>
      </trkpt>
      <trkpt lat="45.14108" lon="5.92926">
        <ele>2105.2</ele>
        <time>2021-02-27T06:16:56Z</time>
      </trkpt>
      <trkpt lat="45.14109" lon="5.92927">
        <ele>2105.6</ele>
        <time>2021-02-27T06:16:57Z</time>
      </trkpt>
      <trkpt lat="45.1411" lon="5.92927">
        <ele>2106</ele>
        <time>2021-02-27T06:16:58Z</time>
      </trkpt>
      <trkpt lat="45.1411" lon="5.92928">
        <ele>2106</ele>
        <time>2021-02-27T06:16:59Z</time>
      </trkpt>
      <trkpt lat="45.14111" lon="5.92929">
        <ele>2106.2</ele>
        <time>2021-02-27T06:17:00Z</time>
      </trkpt>
      <trkpt lat="45.14112" lon="5.9293">
        <ele>2106.6</ele>
        <time>2021-02-27T06:17:01Z</time>
      </trkpt>
      <trkpt lat="45.14113" lon="5.92931">
        <ele>2106.8</ele>
        <time>2021-02-27T06:17:02Z</time>
      </trkpt>
      <trkpt lat="45.14114" lon="5.92932">
        <ele>2107</ele>
        <time>2021-02-27T06:17:03Z</time>
      </trkpt>
      <trkpt lat="45.14114" lon="5.92933">
        <ele>2107.2</ele>
        <time>2021-02-27T06:17:04Z</time>
      </trkpt>
      <trkpt lat="45.14115" lon="5.92935">
        <ele>2107.4</ele>
        <time>2021-02-27T06:17:05Z</time>
      </trkpt>
      <trkpt lat="45.14116" lon="5.92936">
        <ele>2107.8</ele>
        <time>2021-02-27T06:17:06Z</time>
      </trkpt>
      <trkpt lat="45.14117" lon="5.92937">
        <ele>2107.8</ele>
        <time>2021-02-27T06:17:07Z</time>
      </trkpt>
      <trkpt lat="45.14117" lon="5.92939">
        <ele>2108.2</ele>
        <time>2021-02-27T06:17:08Z</time>
      </trkpt>
      <trkpt lat="45.14118" lon="5.9294">
        <ele>2108.4</ele>
        <time>2021-02-27T06:17:09Z</time>
      </trkpt>
      <trkpt lat="45.14119" lon="5.92941">
        <ele>2108.6</ele>
        <time>2021-02-27T06:17:10Z</time>
      </trkpt>
      <trkpt lat="45.1412" lon="5.92942">
        <ele>2109.2</ele>
        <time>2021-02-27T06:17:11Z</time>
      </trkpt>
      <trkpt lat="45.1412" lon="5.92943">
        <ele>2109.4</ele>
        <time>2021-02-27T06:17:12Z</time>
      </trkpt>
      <trkpt lat="45.14121" lon="5.92944">
        <ele>2109.4</ele>
        <time>2021-02-27T06:17:13Z</time>
      </trkpt>
      <trkpt lat="45.14122" lon="5.92945">
        <ele>2109.8</ele>
        <time>2021-02-27T06:17:14Z</time>
      </trkpt>
      <trkpt lat="45.14123" lon="5.92947">
        <ele>2109.8</ele>
        <time>2021-02-27T06:17:15Z</time>
      </trkpt>
      <trkpt lat="45.14123" lon="5.92948">
        <ele>2110</ele>
        <time>2021-02-27T06:17:16Z</time>
      </trkpt>
      <trkpt lat="45.14124" lon="5.92949">
        <ele>2110</ele>
        <time>2021-02-27T06:17:17Z</time>
      </trkpt>
      <trkpt lat="45.14125" lon="5.9295">
        <ele>2110.2</ele>
        <time>2021-02-27T06:17:18Z</time>
      </trkpt>
      <trkpt lat="45.14126" lon="5.92952">
        <ele>2110.4</ele>
        <time>2021-02-27T06:17:19Z</time>
      </trkpt>
      <trkpt lat="45.14128" lon="5.92954">
        <ele>2110.4</ele>
        <time>2021-02-27T06:17:20Z</time>
      </trkpt>
      <trkpt lat="45.14129" lon="5.92956">
        <ele>2110.6</ele>
        <time>2021-02-27T06:17:21Z</time>
      </trkpt>
      <trkpt lat="45.14131" lon="5.92958">
        <ele>2110.8</ele>
        <time>2021-02-27T06:17:22Z</time>
      </trkpt>
      <trkpt lat="45.14132" lon="5.9296">
        <ele>2110.6</ele>
        <time>2021-02-27T06:17:23Z</time>
      </trkpt>
      <trkpt lat="45.14133" lon="5.92961">
        <ele>2110.6</ele>
        <time>2021-02-27T06:17:24Z</time>
      </trkpt>
      <trkpt lat="45.14134" lon="5.92963">
        <ele>2110.6</ele>
        <time>2021-02-27T06:17:25Z</time>
      </trkpt>
      <trkpt lat="45.14135" lon="5.92964">
        <ele>2110.4</ele>
        <time>2021-02-27T06:17:26Z</time>
      </trkpt>
      <trkpt lat="45.14136" lon="5.92966">
        <ele>2110.2</ele>
        <time>2021-02-27T06:17:27Z</time>
      </trkpt>
      <trkpt lat="45.14137" lon="5.92967">
        <ele>2110</ele>
        <time>2021-02-27T06:17:28Z</time>
      </trkpt>
      <trkpt lat="45.14138" lon="5.92968">
        <ele>2110.2</ele>
        <time>2021-02-27T06:17:29Z</time>
      </trkpt>
      <trkpt lat="45.14139" lon="5.9297">
        <ele>2110.2</ele>
        <time>2021-02-27T06:17:30Z</time>
      </trkpt>
      <trkpt lat="45.1414" lon="5.92971">
        <ele>2110.2</ele>
        <time>2021-02-27T06:17:31Z</time>
      </trkpt>
      <trkpt lat="45.14141" lon="5.92973">
        <ele>2110.4</ele>
        <time>2021-02-27T06:17:32Z</time>
      </trkpt>
      <trkpt lat="45.14142" lon="5.92975">
        <ele>2110.6</ele>
        <time>2021-02-27T06:17:33Z</time>
      </trkpt>
      <trkpt lat="45.14142" lon="5.92976">
        <ele>2110.6</ele>
        <time>2021-02-27T06:17:34Z</time>
      </trkpt>
      <trkpt lat="45.14143" lon="5.92978">
        <ele>2111.2</ele>
        <time>2021-02-27T06:17:35Z</time>
      </trkpt>
      <trkpt lat="45.14144" lon="5.9298">
        <ele>2111.2</ele>
        <time>2021-02-27T06:17:36Z</time>
      </trkpt>
      <trkpt lat="45.14145" lon="5.92981">
        <ele>2111.4</ele>
        <time>2021-02-27T06:17:37Z</time>
      </trkpt>
      <trkpt lat="45.14146" lon="5.92982">
        <ele>2111.6</ele>
        <time>2021-02-27T06:17:38Z</time>
      </trkpt>
      <trkpt lat="45.14147" lon="5.92983">
        <ele>2111.4</ele>
        <time>2021-02-27T06:17:39Z</time>
      </trkpt>
      <trkpt lat="45.14148" lon="5.92985">
        <ele>2111.8</ele>
        <time>2021-02-27T06:17:40Z</time>
      </trkpt>
      <trkpt lat="45.14149" lon="5.92986">
        <ele>2112</ele>
        <time>2021-02-27T06:17:41Z</time>
      </trkpt>
      <trkpt lat="45.14149" lon="5.92987">
        <ele>2112.2</ele>
        <time>2021-02-27T06:17:42Z</time>
      </trkpt>
      <trkpt lat="45.1415" lon="5.92988">
        <ele>2112.8</ele>
        <time>2021-02-27T06:17:43Z</time>
      </trkpt>
      <trkpt lat="45.14151" lon="5.92989">
        <ele>2112.8</ele>
        <time>2021-02-27T06:17:44Z</time>
      </trkpt>
      <trkpt lat="45.14152" lon="5.9299">
        <ele>2113.6</ele>
        <time>2021-02-27T06:17:45Z</time>
      </trkpt>
      <trkpt lat="45.14152" lon="5.92991">
        <ele>2113.8</ele>
        <time>2021-02-27T06:17:46Z</time>
      </trkpt>
      <trkpt lat="45.14153" lon="5.92992">
        <ele>2113.8</ele>
        <time>2021-02-27T06:17:47Z</time>
      </trkpt>
      <trkpt lat="45.14154" lon="5.92994">
        <ele>2114.4</ele>
        <time>2021-02-27T06:17:48Z</time>
      </trkpt>
      <trkpt lat="45.14155" lon="5.92995">
        <ele>2114.4</ele>
        <time>2021-02-27T06:17:49Z</time>
      </trkpt>
      <trkpt lat="45.14155" lon="5.92996">
        <ele>2114.6</ele>
        <time>2021-02-27T06:17:50Z</time>
      </trkpt>
      <trkpt lat="45.14156" lon="5.92997">
        <ele>2114.8</ele>
        <time>2021-02-27T06:17:51Z</time>
      </trkpt>
      <trkpt lat="45.14157" lon="5.92998">
        <ele>2115</ele>
        <time>2021-02-27T06:17:52Z</time>
      </trkpt>
      <trkpt lat="45.14157" lon="5.92999">
        <ele>2115</ele>
        <time>2021-02-27T06:17:53Z</time>
      </trkpt>
      <trkpt lat="45.14158" lon="5.93">
        <ele>2115.2</ele>
        <time>2021-02-27T06:17:54Z</time>
      </trkpt>
      <trkpt lat="45.14159" lon="5.93001">
        <ele>2115.6</ele>
        <time>2021-02-27T06:17:55Z</time>
      </trkpt>
      <trkpt lat="45.14159" lon="5.93002">
        <ele>2116</ele>
        <time>2021-02-27T06:17:56Z</time>
      </trkpt>
      <trkpt lat="45.1416" lon="5.93003">
        <ele>2116.4</ele>
        <time>2021-02-27T06:17:57Z</time>
      </trkpt>
      <trkpt lat="45.14161" lon="5.93004">
        <ele>2116.6</ele>
        <time>2021-02-27T06:17:58Z</time>
      </trkpt>
      <trkpt lat="45.14161" lon="5.93005">
        <ele>2117</ele>
        <time>2021-02-27T06:17:59Z</time>
      </trkpt>
      <trkpt lat="45.14162" lon="5.93006">
        <ele>2117</ele>
        <time>2021-02-27T06:18:00Z</time>
      </trkpt>
      <trkpt lat="45.14162" lon="5.93007">
        <ele>2117.2</ele>
        <time>2021-02-27T06:18:01Z</time>
      </trkpt>
      <trkpt lat="45.14163" lon="5.93008">
        <ele>2117.6</ele>
        <time>2021-02-27T06:18:02Z</time>
      </trkpt>
      <trkpt lat="45.14163" lon="5.93009">
        <ele>2117.8</ele>
        <time>2021-02-27T06:18:03Z</time>
      </trkpt>
      <trkpt lat="45.14164" lon="5.9301">
        <ele>2118</ele>
        <time>2021-02-27T06:18:04Z</time>
      </trkpt>
      <trkpt lat="45.14165" lon="5.93011">
        <ele>2118.2</ele>
        <time>2021-02-27T06:18:05Z</time>
      </trkpt>
      <trkpt lat="45.14165" lon="5.93012">
        <ele>2118.4</ele>
        <time>2021-02-27T06:18:06Z</time>
      </trkpt>
      <trkpt lat="45.14166" lon="5.93013">
        <ele>2118.8</ele>
        <time>2021-02-27T06:18:07Z</time>
      </trkpt>
      <trkpt lat="45.14167" lon="5.93014">
        <ele>2119</ele>
        <time>2021-02-27T06:18:08Z</time>
      </trkpt>
      <trkpt lat="45.14168" lon="5.93015">
        <ele>2119.8</ele>
        <time>2021-02-27T06:18:09Z</time>
      </trkpt>
      <trkpt lat="45.14168" lon="5.93016">
        <ele>2120</ele>
        <time>2021-02-27T06:18:10Z</time>
      </trkpt>
      <trkpt lat="45.14169" lon="5.93017">
        <ele>2120.4</ele>
        <time>2021-02-27T06:18:11Z</time>
      </trkpt>
      <trkpt lat="45.1417" lon="5.93018">
        <ele>2120.8</ele>
        <time>2021-02-27T06:18:12Z</time>
      </trkpt>
      <trkpt lat="45.1417" lon="5.93019">
        <ele>2121</ele>
        <time>2021-02-27T06:18:13Z</time>
      </trkpt>
      <trkpt lat="45.14171" lon="5.9302">
        <ele>2121.4</ele>
        <time>2021-02-27T06:18:14Z</time>
      </trkpt>
      <trkpt lat="45.14172" lon="5.93021">
        <ele>2121.8</ele>
        <time>2021-02-27T06:18:15Z</time>
      </trkpt>
      <trkpt lat="45.14173" lon="5.93023">
        <ele>2122.4</ele>
        <time>2021-02-27T06:18:16Z</time>
      </trkpt>
      <trkpt lat="45.14174" lon="5.93024">
        <ele>2122.6</ele>
        <time>2021-02-27T06:18:17Z</time>
      </trkpt>
      <trkpt lat="45.14174" lon="5.93025">
        <ele>2122.8</ele>
        <time>2021-02-27T06:18:18Z</time>
      </trkpt>
      <trkpt lat="45.14175" lon="5.93026">
        <ele>2123.2</ele>
        <time>2021-02-27T06:18:19Z</time>
      </trkpt>
      <trkpt lat="45.14176" lon="5.93027">
        <ele>2124</ele>
        <time>2021-02-27T06:18:20Z</time>
      </trkpt>
      <trkpt lat="45.14177" lon="5.93028">
        <ele>2123.8</ele>
        <time>2021-02-27T06:18:21Z</time>
      </trkpt>
      <trkpt lat="45.14177" lon="5.93029">
        <ele>2124</ele>
        <time>2021-02-27T06:18:22Z</time>
      </trkpt>
      <trkpt lat="45.14178" lon="5.9303">
        <ele>2124.2</ele>
        <time>2021-02-27T06:18:23Z</time>
      </trkpt>
      <trkpt lat="45.14179" lon="5.93031">
        <ele>2124.4</ele>
        <time>2021-02-27T06:18:24Z</time>
      </trkpt>
      <trkpt lat="45.14179" lon="5.93032">
        <ele>2124.4</ele>
        <time>2021-02-27T06:18:25Z</time>
      </trkpt>
      <trkpt lat="45.1418" lon="5.93033">
        <ele>2124.8</ele>
        <time>2021-02-27T06:18:26Z</time>
      </trkpt>
      <trkpt lat="45.1418" lon="5.93034">
        <ele>2125</ele>
        <time>2021-02-27T06:18:27Z</time>
      </trkpt>
      <trkpt lat="45.14181" lon="5.93035">
        <ele>2125.2</ele>
        <time>2021-02-27T06:18:28Z</time>
      </trkpt>
      <trkpt lat="45.14182" lon="5.93036">
        <ele>2125.4</ele>
        <time>2021-02-27T06:18:29Z</time>
      </trkpt>
      <trkpt lat="45.14182" lon="5.93037">
        <ele>2126.2</ele>
        <time>2021-02-27T06:18:30Z</time>
      </trkpt>
      <trkpt lat="45.14183" lon="5.93038">
        <ele>2126.4</ele>
        <time>2021-02-27T06:18:31Z</time>
      </trkpt>
      <trkpt lat="45.14184" lon="5.93039">
        <ele>2126.4</ele>
        <time>2021-02-27T06:18:32Z</time>
      </trkpt>
      <trkpt lat="45.14184" lon="5.9304">
        <ele>2127.2</ele>
        <time>2021-02-27T06:18:33Z</time>
      </trkpt>
      <trkpt lat="45.14185" lon="5.93041">
        <ele>2127.4</ele>
        <time>2021-02-27T06:18:34Z</time>
      </trkpt>
      <trkpt lat="45.14185" lon="5.93042">
        <ele>2127.4</ele>
        <time>2021-02-27T06:18:35Z</time>
      </trkpt>
      <trkpt lat="45.14186" lon="5.93043">
        <ele>2128.2</ele>
        <time>2021-02-27T06:18:36Z</time>
      </trkpt>
      <trkpt lat="45.14186" lon="5.93045">
        <ele>2128.6</ele>
        <time>2021-02-27T06:18:37Z</time>
      </trkpt>
      <trkpt lat="45.14187" lon="5.93046">
        <ele>2128.6</ele>
        <time>2021-02-27T06:18:38Z</time>
      </trkpt>
      <trkpt lat="45.14187" lon="5.93047">
        <ele>2128.6</ele>
        <time>2021-02-27T06:18:39Z</time>
      </trkpt>
      <trkpt lat="45.14188" lon="5.93048">
        <ele>2129</ele>
        <time>2021-02-27T06:18:40Z</time>
      </trkpt>
      <trkpt lat="45.14189" lon="5.93049">
        <ele>2129.2</ele>
        <time>2021-02-27T06:18:41Z</time>
      </trkpt>
      <trkpt lat="45.14189" lon="5.9305">
        <ele>2129.2</ele>
        <time>2021-02-27T06:18:42Z</time>
      </trkpt>
      <trkpt lat="45.1419" lon="5.93051">
        <ele>2129.2</ele>
        <time>2021-02-27T06:18:43Z</time>
      </trkpt>
      <trkpt lat="45.14191" lon="5.93053">
        <ele>2129.6</ele>
        <time>2021-02-27T06:18:44Z</time>
      </trkpt>
      <trkpt lat="45.14191" lon="5.93054">
        <ele>2129.8</ele>
        <time>2021-02-27T06:18:45Z</time>
      </trkpt>
      <trkpt lat="45.14192" lon="5.93055">
        <ele>2130.2</ele>
        <time>2021-02-27T06:18:46Z</time>
      </trkpt>
      <trkpt lat="45.14192" lon="5.93056">
        <ele>2130.2</ele>
        <time>2021-02-27T06:18:47Z</time>
      </trkpt>
      <trkpt lat="45.14193" lon="5.93057">
        <ele>2130.2</ele>
        <time>2021-02-27T06:18:48Z</time>
      </trkpt>
      <trkpt lat="45.14194" lon="5.93058">
        <ele>2130.4</ele>
        <time>2021-02-27T06:18:49Z</time>
      </trkpt>
      <trkpt lat="45.14195" lon="5.93059">
        <ele>2130.6</ele>
        <time>2021-02-27T06:18:50Z</time>
      </trkpt>
      <trkpt lat="45.14196" lon="5.93061">
        <ele>2130.4</ele>
        <time>2021-02-27T06:18:51Z</time>
      </trkpt>
      <trkpt lat="45.14196" lon="5.93062">
        <ele>2130.4</ele>
        <time>2021-02-27T06:18:52Z</time>
      </trkpt>
      <trkpt lat="45.14197" lon="5.93063">
        <ele>2130.8</ele>
        <time>2021-02-27T06:18:53Z</time>
      </trkpt>
      <trkpt lat="45.14198" lon="5.93064">
        <ele>2130.8</ele>
        <time>2021-02-27T06:18:54Z</time>
      </trkpt>
      <trkpt lat="45.14199" lon="5.93065">
        <ele>2131</ele>
        <time>2021-02-27T06:18:55Z</time>
      </trkpt>
      <trkpt lat="45.14199" lon="5.93067">
        <ele>2130.8</ele>
        <time>2021-02-27T06:18:56Z</time>
      </trkpt>
      <trkpt lat="45.142" lon="5.93068">
        <ele>2131.2</ele>
        <time>2021-02-27T06:18:57Z</time>
      </trkpt>
      <trkpt lat="45.14201" lon="5.93069">
        <ele>2131.6</ele>
        <time>2021-02-27T06:18:58Z</time>
      </trkpt>
      <trkpt lat="45.14202" lon="5.9307">
        <ele>2131.6</ele>
        <time>2021-02-27T06:18:59Z</time>
      </trkpt>
      <trkpt lat="45.14203" lon="5.93072">
        <ele>2131.6</ele>
        <time>2021-02-27T06:19:00Z</time>
      </trkpt>
      <trkpt lat="45.14204" lon="5.93073">
        <ele>2131.6</ele>
        <time>2021-02-27T06:19:01Z</time>
      </trkpt>
      <trkpt lat="45.14205" lon="5.93074">
        <ele>2132</ele>
        <time>2021-02-27T06:19:02Z</time>
      </trkpt>
      <trkpt lat="45.14206" lon="5.93076">
        <ele>2132.2</ele>
        <time>2021-02-27T06:19:03Z</time>
      </trkpt>
      <trkpt lat="45.14206" lon="5.93077">
        <ele>2132.2</ele>
        <time>2021-02-27T06:19:04Z</time>
      </trkpt>
      <trkpt lat="45.14207" lon="5.93078">
        <ele>2132</ele>
        <time>2021-02-27T06:19:05Z</time>
      </trkpt>
      <trkpt lat="45.14208" lon="5.9308">
        <ele>2132.2</ele>
        <time>2021-02-27T06:19:06Z</time>
      </trkpt>
      <trkpt lat="45.14208" lon="5.93081">
        <ele>2132.6</ele>
        <time>2021-02-27T06:19:07Z</time>
      </trkpt>
      <trkpt lat="45.14209" lon="5.93083">
        <ele>2132.4</ele>
        <time>2021-02-27T06:19:08Z</time>
      </trkpt>
      <trkpt lat="45.14209" lon="5.93084">
        <ele>2132.2</ele>
        <time>2021-02-27T06:19:09Z</time>
      </trkpt>
      <trkpt lat="45.1421" lon="5.93086">
        <ele>2132.4</ele>
        <time>2021-02-27T06:19:10Z</time>
      </trkpt>
      <trkpt lat="45.1421" lon="5.93087">
        <ele>2132.4</ele>
        <time>2021-02-27T06:19:11Z</time>
      </trkpt>
      <trkpt lat="45.14211" lon="5.93089">
        <ele>2132.6</ele>
        <time>2021-02-27T06:19:12Z</time>
      </trkpt>
      <trkpt lat="45.14212" lon="5.9309">
        <ele>2133</ele>
        <time>2021-02-27T06:19:13Z</time>
      </trkpt>
      <trkpt lat="45.14213" lon="5.93092">
        <ele>2133.2</ele>
        <time>2021-02-27T06:19:14Z</time>
      </trkpt>
      <trkpt lat="45.14213" lon="5.93093">
        <ele>2133.2</ele>
        <time>2021-02-27T06:19:15Z</time>
      </trkpt>
      <trkpt lat="45.14214" lon="5.93095">
        <ele>2133.2</ele>
        <time>2021-02-27T06:19:16Z</time>
      </trkpt>
      <trkpt lat="45.14215" lon="5.93096">
        <ele>2133.6</ele>
        <time>2021-02-27T06:19:17Z</time>
      </trkpt>
      <trkpt lat="45.14216" lon="5.93098">
        <ele>2133.8</ele>
        <time>2021-02-27T06:19:18Z</time>
      </trkpt>
      <trkpt lat="45.14216" lon="5.93099">
        <ele>2134.4</ele>
        <time>2021-02-27T06:19:19Z</time>
      </trkpt>
      <trkpt lat="45.14217" lon="5.93101">
        <ele>2134</ele>
        <time>2021-02-27T06:19:20Z</time>
      </trkpt>
      <trkpt lat="45.14217" lon="5.93103">
        <ele>2134.4</ele>
        <time>2021-02-27T06:19:21Z</time>
      </trkpt>
      <trkpt lat="45.14218" lon="5.93104">
        <ele>2134.2</ele>
        <time>2021-02-27T06:19:22Z</time>
      </trkpt>
      <trkpt lat="45.14218" lon="5.93106">
        <ele>2134.6</ele>
        <time>2021-02-27T06:19:23Z</time>
      </trkpt>
      <trkpt lat="45.14219" lon="5.93107">
        <ele>2134.6</ele>
        <time>2021-02-27T06:19:24Z</time>
      </trkpt>
      <trkpt lat="45.14219" lon="5.93109">
        <ele>2134.8</ele>
        <time>2021-02-27T06:19:25Z</time>
      </trkpt>
      <trkpt lat="45.1422" lon="5.9311">
        <ele>2135</ele>
        <time>2021-02-27T06:19:26Z</time>
      </trkpt>
      <trkpt lat="45.1422" lon="5.93112">
        <ele>2135</ele>
        <time>2021-02-27T06:19:27Z</time>
      </trkpt>
      <trkpt lat="45.1422" lon="5.93114">
        <ele>2134.8</ele>
        <time>2021-02-27T06:19:28Z</time>
      </trkpt>
      <trkpt lat="45.1422" lon="5.93116">
        <ele>2135</ele>
        <time>2021-02-27T06:19:29Z</time>
      </trkpt>
      <trkpt lat="45.1422" lon="5.93118">
        <ele>2135.2</ele>
        <time>2021-02-27T06:19:30Z</time>
      </trkpt>
      <trkpt lat="45.14221" lon="5.9312">
        <ele>2135.2</ele>
        <time>2021-02-27T06:19:31Z</time>
      </trkpt>
      <trkpt lat="45.14221" lon="5.93122">
        <ele>2135</ele>
        <time>2021-02-27T06:19:32Z</time>
      </trkpt>
      <trkpt lat="45.14221" lon="5.93124">
        <ele>2135.2</ele>
        <time>2021-02-27T06:19:33Z</time>
      </trkpt>
      <trkpt lat="45.14222" lon="5.93126">
        <ele>2135.2</ele>
        <time>2021-02-27T06:19:34Z</time>
      </trkpt>
      <trkpt lat="45.14223" lon="5.93128">
        <ele>2134.8</ele>
        <time>2021-02-27T06:19:35Z</time>
      </trkpt>
      <trkpt lat="45.14224" lon="5.9313">
        <ele>2135</ele>
        <time>2021-02-27T06:19:36Z</time>
      </trkpt>
      <trkpt lat="45.14225" lon="5.93132">
        <ele>2135</ele>
        <time>2021-02-27T06:19:37Z</time>
      </trkpt>
      <trkpt lat="45.14226" lon="5.93134">
        <ele>2134.6</ele>
        <time>2021-02-27T06:19:38Z</time>
      </trkpt>
      <trkpt lat="45.14227" lon="5.93136">
        <ele>2134.2</ele>
        <time>2021-02-27T06:19:39Z</time>
      </trkpt>
      <trkpt lat="45.14228" lon="5.93139">
        <ele>2133.8</ele>
        <time>2021-02-27T06:19:40Z</time>
      </trkpt>
      <trkpt lat="45.14229" lon="5.93141">
        <ele>2133.6</ele>
        <time>2021-02-27T06:19:41Z</time>
      </trkpt>
      <trkpt lat="45.1423" lon="5.93143">
        <ele>2133.8</ele>
        <time>2021-02-27T06:19:42Z</time>
      </trkpt>
      <trkpt lat="45.14231" lon="5.93145">
        <ele>2134</ele>
        <time>2021-02-27T06:19:43Z</time>
      </trkpt>
      <trkpt lat="45.14232" lon="5.93147">
        <ele>2134.2</ele>
        <time>2021-02-27T06:19:44Z</time>
      </trkpt>
      <trkpt lat="45.14233" lon="5.93148">
        <ele>2134.2</ele>
        <time>2021-02-27T06:19:45Z</time>
      </trkpt>
      <trkpt lat="45.14234" lon="5.9315">
        <ele>2134.2</ele>
        <time>2021-02-27T06:19:46Z</time>
      </trkpt>
      <trkpt lat="45.14235" lon="5.93152">
        <ele>2134</ele>
        <time>2021-02-27T06:19:47Z</time>
      </trkpt>
      <trkpt lat="45.14236" lon="5.93154">
        <ele>2134.2</ele>
        <time>2021-02-27T06:19:48Z</time>
      </trkpt>
      <trkpt lat="45.14237" lon="5.93155">
        <ele>2134.2</ele>
        <time>2021-02-27T06:19:49Z</time>
      </trkpt>
      <trkpt lat="45.14237" lon="5.93157">
        <ele>2134.4</ele>
        <time>2021-02-27T06:19:50Z</time>
      </trkpt>
      <trkpt lat="45.14238" lon="5.93159">
        <ele>2134.4</ele>
        <time>2021-02-27T06:19:51Z</time>
      </trkpt>
      <trkpt lat="45.14239" lon="5.93161">
        <ele>2134.6</ele>
        <time>2021-02-27T06:19:52Z</time>
      </trkpt>
      <trkpt lat="45.14239" lon="5.93163">
        <ele>2134.6</ele>
        <time>2021-02-27T06:19:53Z</time>
      </trkpt>
      <trkpt lat="45.1424" lon="5.93164">
        <ele>2134.8</ele>
        <time>2021-02-27T06:19:54Z</time>
      </trkpt>
      <trkpt lat="45.1424" lon="5.93166">
        <ele>2134.8</ele>
        <time>2021-02-27T06:19:55Z</time>
      </trkpt>
      <trkpt lat="45.14241" lon="5.93168">
        <ele>2135</ele>
        <time>2021-02-27T06:19:56Z</time>
      </trkpt>
      <trkpt lat="45.14241" lon="5.93169">
        <ele>2135.2</ele>
        <time>2021-02-27T06:19:57Z</time>
      </trkpt>
      <trkpt lat="45.14242" lon="5.93171">
        <ele>2135.4</ele>
        <time>2021-02-27T06:19:58Z</time>
      </trkpt>
      <trkpt lat="45.14242" lon="5.93173">
        <ele>2135.4</ele>
        <time>2021-02-27T06:19:59Z</time>
      </trkpt>
      <trkpt lat="45.14243" lon="5.93174">
        <ele>2135.4</ele>
        <time>2021-02-27T06:20:00Z</time>
      </trkpt>
      <trkpt lat="45.14243" lon="5.93176">
        <ele>2135.6</ele>
        <time>2021-02-27T06:20:01Z</time>
      </trkpt>
      <trkpt lat="45.14244" lon="5.93177">
        <ele>2135.8</ele>
        <time>2021-02-27T06:20:02Z</time>
      </trkpt>
      <trkpt lat="45.14244" lon="5.93179">
        <ele>2135.8</ele>
        <time>2021-02-27T06:20:03Z</time>
      </trkpt>
      <trkpt lat="45.14245" lon="5.93181">
        <ele>2136</ele>
        <time>2021-02-27T06:20:04Z</time>
      </trkpt>
      <trkpt lat="45.14245" lon="5.93182">
        <ele>2136.4</ele>
        <time>2021-02-27T06:20:05Z</time>
      </trkpt>
      <trkpt lat="45.14246" lon="5.93184">
        <ele>2136.2</ele>
        <time>2021-02-27T06:20:06Z</time>
      </trkpt>
      <trkpt lat="45.14246" lon="5.93186">
        <ele>2136</ele>
        <time>2021-02-27T06:20:07Z</time>
      </trkpt>
      <trkpt lat="45.14247" lon="5.93187">
        <ele>2136.4</ele>
        <time>2021-02-27T06:20:08Z</time>
      </trkpt>
      <trkpt lat="45.14248" lon="5.93189">
        <ele>2136.2</ele>
        <time>2021-02-27T06:20:09Z</time>
      </trkpt>
      <trkpt lat="45.14249" lon="5.9319">
        <ele>2136.2</ele>
        <time>2021-02-27T06:20:10Z</time>
      </trkpt>
      <trkpt lat="45.1425" lon="5.93191">
        <ele>2136.6</ele>
        <time>2021-02-27T06:20:11Z</time>
      </trkpt>
      <trkpt lat="45.14251" lon="5.93193">
        <ele>2136.6</ele>
        <time>2021-02-27T06:20:12Z</time>
      </trkpt>
      <trkpt lat="45.14252" lon="5.93194">
        <ele>2136.6</ele>
        <time>2021-02-27T06:20:13Z</time>
      </trkpt>
      <trkpt lat="45.14253" lon="5.93196">
        <ele>2137</ele>
        <time>2021-02-27T06:20:14Z</time>
      </trkpt>
      <trkpt lat="45.14254" lon="5.93199">
        <ele>2137</ele>
        <time>2021-02-27T06:20:15Z</time>
      </trkpt>
      <trkpt lat="45.14254" lon="5.93199">
        <ele>2137</ele>
        <time>2021-02-27T06:20:16Z</time>
      </trkpt>
      <trkpt lat="45.14255" lon="5.932">
        <ele>2137.2</ele>
        <time>2021-02-27T06:20:17Z</time>
      </trkpt>
      <trkpt lat="45.14256" lon="5.93201">
        <ele>2137.2</ele>
        <time>2021-02-27T06:20:18Z</time>
      </trkpt>
      <trkpt lat="45.14257" lon="5.93202">
        <ele>2137.2</ele>
        <time>2021-02-27T06:20:19Z</time>
      </trkpt>
      <trkpt lat="45.14258" lon="5.93204">
        <ele>2137.6</ele>
        <time>2021-02-27T06:20:20Z</time>
      </trkpt>
      <trkpt lat="45.1426" lon="5.93205">
        <ele>2138.2</ele>
        <time>2021-02-27T06:20:21Z</time>
      </trkpt>
      <trkpt lat="45.14261" lon="5.93206">
        <ele>2138.4</ele>
        <time>2021-02-27T06:20:22Z</time>
      </trkpt>
      <trkpt lat="45.14262" lon="5.93207">
        <ele>2138</ele>
        <time>2021-02-27T06:20:23Z</time>
      </trkpt>
      <trkpt lat="45.14262" lon="5.93209">
        <ele>2138.6</ele>
        <time>2021-02-27T06:20:24Z</time>
      </trkpt>
      <trkpt lat="45.14263" lon="5.9321">
        <ele>2138.6</ele>
        <time>2021-02-27T06:20:25Z</time>
      </trkpt>
      <trkpt lat="45.14264" lon="5.93211">
        <ele>2139</ele>
        <time>2021-02-27T06:20:26Z</time>
      </trkpt>
      <trkpt lat="45.14264" lon="5.93213">
        <ele>2138.6</ele>
        <time>2021-02-27T06:20:27Z</time>
      </trkpt>
      <trkpt lat="45.14265" lon="5.93214">
        <ele>2138.8</ele>
        <time>2021-02-27T06:20:28Z</time>
      </trkpt>
      <trkpt lat="45.14265" lon="5.93215">
        <ele>2139.2</ele>
        <time>2021-02-27T06:20:29Z</time>
      </trkpt>
      <trkpt lat="45.14266" lon="5.93217">
        <ele>2139.2</ele>
        <time>2021-02-27T06:20:30Z</time>
      </trkpt>
      <trkpt lat="45.14267" lon="5.93218">
        <ele>2139.2</ele>
        <time>2021-02-27T06:20:31Z</time>
      </trkpt>
      <trkpt lat="45.14267" lon="5.9322">
        <ele>2139.4</ele>
        <time>2021-02-27T06:20:32Z</time>
      </trkpt>
      <trkpt lat="45.14268" lon="5.93221">
        <ele>2139.6</ele>
        <time>2021-02-27T06:20:33Z</time>
      </trkpt>
      <trkpt lat="45.14268" lon="5.93223">
        <ele>2140</ele>
        <time>2021-02-27T06:20:34Z</time>
      </trkpt>
      <trkpt lat="45.14269" lon="5.93224">
        <ele>2140.2</ele>
        <time>2021-02-27T06:20:35Z</time>
      </trkpt>
      <trkpt lat="45.14269" lon="5.93226">
        <ele>2140.2</ele>
        <time>2021-02-27T06:20:36Z</time>
      </trkpt>
      <trkpt lat="45.1427" lon="5.93227">
        <ele>2140</ele>
        <time>2021-02-27T06:20:37Z</time>
      </trkpt>
      <trkpt lat="45.1427" lon="5.93229">
        <ele>2140.4</ele>
        <time>2021-02-27T06:20:38Z</time>
      </trkpt>
      <trkpt lat="45.14271" lon="5.93231">
        <ele>2140.6</ele>
        <time>2021-02-27T06:20:39Z</time>
      </trkpt>
      <trkpt lat="45.14271" lon="5.93233">
        <ele>2140.8</ele>
        <time>2021-02-27T06:20:40Z</time>
      </trkpt>
      <trkpt lat="45.14272" lon="5.93235">
        <ele>2140.8</ele>
        <time>2021-02-27T06:20:41Z</time>
      </trkpt>
      <trkpt lat="45.14273" lon="5.93237">
        <ele>2140.8</ele>
        <time>2021-02-27T06:20:42Z</time>
      </trkpt>
      <trkpt lat="45.14273" lon="5.93239">
        <ele>2140.6</ele>
        <time>2021-02-27T06:20:43Z</time>
      </trkpt>
      <trkpt lat="45.14274" lon="5.93241">
        <ele>2140.4</ele>
        <time>2021-02-27T06:20:44Z</time>
      </trkpt>
      <trkpt lat="45.14274" lon="5.93243">
        <ele>2140.6</ele>
        <time>2021-02-27T06:20:45Z</time>
      </trkpt>
      <trkpt lat="45.14275" lon="5.93244">
        <ele>2140.4</ele>
        <time>2021-02-27T06:20:46Z</time>
      </trkpt>
      <trkpt lat="45.14276" lon="5.93246">
        <ele>2140.2</ele>
        <time>2021-02-27T06:20:47Z</time>
      </trkpt>
      <trkpt lat="45.14276" lon="5.93248">
        <ele>2140.2</ele>
        <time>2021-02-27T06:20:48Z</time>
      </trkpt>
      <trkpt lat="45.14278" lon="5.93252">
        <ele>2140</ele>
        <time>2021-02-27T06:20:49Z</time>
      </trkpt>
      <trkpt lat="45.14278" lon="5.93252">
        <ele>2140</ele>
        <time>2021-02-27T06:20:50Z</time>
      </trkpt>
      <trkpt lat="45.14279" lon="5.93254">
        <ele>2139.8</ele>
        <time>2021-02-27T06:20:51Z</time>
      </trkpt>
      <trkpt lat="45.14279" lon="5.93254">
        <ele>2139.8</ele>
        <time>2021-02-27T06:20:52Z</time>
      </trkpt>
      <trkpt lat="45.14281" lon="5.93257">
        <ele>2139.6</ele>
        <time>2021-02-27T06:20:53Z</time>
      </trkpt>
      <trkpt lat="45.14281" lon="5.93257">
        <ele>2139.8</ele>
        <time>2021-02-27T06:20:54Z</time>
      </trkpt>
      <trkpt lat="45.14283" lon="5.93259">
        <ele>2140</ele>
        <time>2021-02-27T06:20:55Z</time>
      </trkpt>
      <trkpt lat="45.14283" lon="5.93259">
        <ele>2140.2</ele>
        <time>2021-02-27T06:20:56Z</time>
      </trkpt>
      <trkpt lat="45.14285" lon="5.93261">
        <ele>2140.2</ele>
        <time>2021-02-27T06:20:57Z</time>
      </trkpt>
      <trkpt lat="45.14285" lon="5.93261">
        <ele>2140.2</ele>
        <time>2021-02-27T06:20:58Z</time>
      </trkpt>
      <trkpt lat="45.14286" lon="5.93262">
        <ele>2140.4</ele>
        <time>2021-02-27T06:20:59Z</time>
      </trkpt>
      <trkpt lat="45.14287" lon="5.93263">
        <ele>2140.4</ele>
        <time>2021-02-27T06:21:00Z</time>
      </trkpt>
      <trkpt lat="45.14287" lon="5.93264">
        <ele>2140.8</ele>
        <time>2021-02-27T06:21:01Z</time>
      </trkpt>
      <trkpt lat="45.14288" lon="5.93265">
        <ele>2141</ele>
        <time>2021-02-27T06:21:02Z</time>
      </trkpt>
      <trkpt lat="45.14289" lon="5.93267">
        <ele>2141.2</ele>
        <time>2021-02-27T06:21:03Z</time>
      </trkpt>
      <trkpt lat="45.1429" lon="5.93268">
        <ele>2141.4</ele>
        <time>2021-02-27T06:21:04Z</time>
      </trkpt>
      <trkpt lat="45.14291" lon="5.93269">
        <ele>2141.8</ele>
        <time>2021-02-27T06:21:05Z</time>
      </trkpt>
      <trkpt lat="45.14291" lon="5.9327">
        <ele>2141.6</ele>
        <time>2021-02-27T06:21:06Z</time>
      </trkpt>
      <trkpt lat="45.14292" lon="5.93271">
        <ele>2141.8</ele>
        <time>2021-02-27T06:21:07Z</time>
      </trkpt>
      <trkpt lat="45.14293" lon="5.93272">
        <ele>2142</ele>
        <time>2021-02-27T06:21:08Z</time>
      </trkpt>
      <trkpt lat="45.14293" lon="5.93273">
        <ele>2142.2</ele>
        <time>2021-02-27T06:21:09Z</time>
      </trkpt>
      <trkpt lat="45.14294" lon="5.93274">
        <ele>2142.4</ele>
        <time>2021-02-27T06:21:10Z</time>
      </trkpt>
      <trkpt lat="45.14295" lon="5.93275">
        <ele>2142.8</ele>
        <time>2021-02-27T06:21:11Z</time>
      </trkpt>
      <trkpt lat="45.14295" lon="5.93276">
        <ele>2143</ele>
        <time>2021-02-27T06:21:12Z</time>
      </trkpt>
      <trkpt lat="45.14296" lon="5.93277">
        <ele>2143.4</ele>
        <time>2021-02-27T06:21:13Z</time>
      </trkpt>
      <trkpt lat="45.14297" lon="5.93278">
        <ele>2143.6</ele>
        <time>2021-02-27T06:21:14Z</time>
      </trkpt>
      <trkpt lat="45.14298" lon="5.93279">
        <ele>2143.8</ele>
        <time>2021-02-27T06:21:15Z</time>
      </trkpt>
      <trkpt lat="45.14298" lon="5.93281">
        <ele>2143.8</ele>
        <time>2021-02-27T06:21:16Z</time>
      </trkpt>
      <trkpt lat="45.14299" lon="5.93282">
        <ele>2144.2</ele>
        <time>2021-02-27T06:21:17Z</time>
      </trkpt>
      <trkpt lat="45.14299" lon="5.93283">
        <ele>2144.6</ele>
        <time>2021-02-27T06:21:18Z</time>
      </trkpt>
      <trkpt lat="45.143" lon="5.93285">
        <ele>2144.8</ele>
        <time>2021-02-27T06:21:19Z</time>
      </trkpt>
      <trkpt lat="45.14301" lon="5.93286">
        <ele>2145.2</ele>
        <time>2021-02-27T06:21:20Z</time>
      </trkpt>
      <trkpt lat="45.14301" lon="5.93288">
        <ele>2145.4</ele>
        <time>2021-02-27T06:21:21Z</time>
      </trkpt>
      <trkpt lat="45.14302" lon="5.93289">
        <ele>2145.6</ele>
        <time>2021-02-27T06:21:22Z</time>
      </trkpt>
      <trkpt lat="45.14303" lon="5.9329">
        <ele>2145.6</ele>
        <time>2021-02-27T06:21:23Z</time>
      </trkpt>
      <trkpt lat="45.14303" lon="5.93292">
        <ele>2146</ele>
        <time>2021-02-27T06:21:24Z</time>
      </trkpt>
      <trkpt lat="45.14305" lon="5.93295">
        <ele>2146.2</ele>
        <time>2021-02-27T06:21:25Z</time>
      </trkpt>
      <trkpt lat="45.14305" lon="5.93295">
        <ele>2146.6</ele>
        <time>2021-02-27T06:21:26Z</time>
      </trkpt>
      <trkpt lat="45.14306" lon="5.93296">
        <ele>2146.6</ele>
        <time>2021-02-27T06:21:27Z</time>
      </trkpt>
      <trkpt lat="45.14307" lon="5.93297">
        <ele>2146.8</ele>
        <time>2021-02-27T06:21:28Z</time>
      </trkpt>
      <trkpt lat="45.14308" lon="5.93299">
        <ele>2147.2</ele>
        <time>2021-02-27T06:21:29Z</time>
      </trkpt>
      <trkpt lat="45.14309" lon="5.933">
        <ele>2147.6</ele>
        <time>2021-02-27T06:21:30Z</time>
      </trkpt>
      <trkpt lat="45.1431" lon="5.93302">
        <ele>2147.6</ele>
        <time>2021-02-27T06:21:31Z</time>
      </trkpt>
      <trkpt lat="45.1431" lon="5.93302">
        <ele>2147.6</ele>
        <time>2021-02-27T06:21:32Z</time>
      </trkpt>
      <trkpt lat="45.14311" lon="5.93304">
        <ele>2148.2</ele>
        <time>2021-02-27T06:21:33Z</time>
      </trkpt>
      <trkpt lat="45.14312" lon="5.93306">
        <ele>2148.2</ele>
        <time>2021-02-27T06:21:34Z</time>
      </trkpt>
      <trkpt lat="45.14312" lon="5.93307">
        <ele>2148.2</ele>
        <time>2021-02-27T06:21:35Z</time>
      </trkpt>
      <trkpt lat="45.14313" lon="5.93309">
        <ele>2148.4</ele>
        <time>2021-02-27T06:21:36Z</time>
      </trkpt>
      <trkpt lat="45.14314" lon="5.9331">
        <ele>2148.8</ele>
        <time>2021-02-27T06:21:37Z</time>
      </trkpt>
      <trkpt lat="45.14315" lon="5.93312">
        <ele>2148.6</ele>
        <time>2021-02-27T06:21:38Z</time>
      </trkpt>
      <trkpt lat="45.14315" lon="5.93313">
        <ele>2148.6</ele>
        <time>2021-02-27T06:21:39Z</time>
      </trkpt>
      <trkpt lat="45.14316" lon="5.93315">
        <ele>2149</ele>
        <time>2021-02-27T06:21:40Z</time>
      </trkpt>
      <trkpt lat="45.14317" lon="5.93317">
        <ele>2148.8</ele>
        <time>2021-02-27T06:21:41Z</time>
      </trkpt>
      <trkpt lat="45.14317" lon="5.93319">
        <ele>2148.2</ele>
        <time>2021-02-27T06:21:42Z</time>
      </trkpt>
      <trkpt lat="45.14318" lon="5.93321">
        <ele>2148</ele>
        <time>2021-02-27T06:21:43Z</time>
      </trkpt>
      <trkpt lat="45.14319" lon="5.93323">
        <ele>2147.8</ele>
        <time>2021-02-27T06:21:44Z</time>
      </trkpt>
      <trkpt lat="45.14319" lon="5.93325">
        <ele>2147.6</ele>
        <time>2021-02-27T06:21:45Z</time>
      </trkpt>
      <trkpt lat="45.1432" lon="5.93326">
        <ele>2147.6</ele>
        <time>2021-02-27T06:21:46Z</time>
      </trkpt>
      <trkpt lat="45.1432" lon="5.93328">
        <ele>2147.6</ele>
        <time>2021-02-27T06:21:47Z</time>
      </trkpt>
      <trkpt lat="45.14321" lon="5.9333">
        <ele>2147.8</ele>
        <time>2021-02-27T06:21:48Z</time>
      </trkpt>
      <trkpt lat="45.14322" lon="5.93331">
        <ele>2147.6</ele>
        <time>2021-02-27T06:21:49Z</time>
      </trkpt>
      <trkpt lat="45.14322" lon="5.93333">
        <ele>2147.4</ele>
        <time>2021-02-27T06:21:50Z</time>
      </trkpt>
      <trkpt lat="45.14323" lon="5.93335">
        <ele>2147.4</ele>
        <time>2021-02-27T06:21:51Z</time>
      </trkpt>
      <trkpt lat="45.14323" lon="5.93335">
        <ele>2147.6</ele>
        <time>2021-02-27T06:21:52Z</time>
      </trkpt>
      <trkpt lat="45.14324" lon="5.93338">
        <ele>2147.6</ele>
        <time>2021-02-27T06:21:53Z</time>
      </trkpt>
      <trkpt lat="45.14324" lon="5.93338">
        <ele>2147.4</ele>
        <time>2021-02-27T06:21:54Z</time>
      </trkpt>
      <trkpt lat="45.14326" lon="5.93341">
        <ele>2147.2</ele>
        <time>2021-02-27T06:21:55Z</time>
      </trkpt>
      <trkpt lat="45.14326" lon="5.93341">
        <ele>2147.2</ele>
        <time>2021-02-27T06:21:56Z</time>
      </trkpt>
      <trkpt lat="45.14327" lon="5.93342">
        <ele>2147.4</ele>
        <time>2021-02-27T06:21:57Z</time>
      </trkpt>
      <trkpt lat="45.14328" lon="5.93344">
        <ele>2147.6</ele>
        <time>2021-02-27T06:21:58Z</time>
      </trkpt>
      <trkpt lat="45.14329" lon="5.93345">
        <ele>2147.6</ele>
        <time>2021-02-27T06:21:59Z</time>
      </trkpt>
      <trkpt lat="45.1433" lon="5.93347">
        <ele>2147.4</ele>
        <time>2021-02-27T06:22:00Z</time>
      </trkpt>
      <trkpt lat="45.14331" lon="5.93348">
        <ele>2147.4</ele>
        <time>2021-02-27T06:22:01Z</time>
      </trkpt>
      <trkpt lat="45.14332" lon="5.93349">
        <ele>2147.8</ele>
        <time>2021-02-27T06:22:02Z</time>
      </trkpt>
      <trkpt lat="45.14333" lon="5.93351">
        <ele>2148</ele>
        <time>2021-02-27T06:22:03Z</time>
      </trkpt>
      <trkpt lat="45.14334" lon="5.93352">
        <ele>2148</ele>
        <time>2021-02-27T06:22:04Z</time>
      </trkpt>
      <trkpt lat="45.14335" lon="5.93353">
        <ele>2148.2</ele>
        <time>2021-02-27T06:22:05Z</time>
      </trkpt>
      <trkpt lat="45.14336" lon="5.93355">
        <ele>2148.4</ele>
        <time>2021-02-27T06:22:06Z</time>
      </trkpt>
      <trkpt lat="45.14337" lon="5.93356">
        <ele>2148.6</ele>
        <time>2021-02-27T06:22:07Z</time>
      </trkpt>
      <trkpt lat="45.14338" lon="5.93357">
        <ele>2148.8</ele>
        <time>2021-02-27T06:22:08Z</time>
      </trkpt>
      <trkpt lat="45.14339" lon="5.93358">
        <ele>2149</ele>
        <time>2021-02-27T06:22:09Z</time>
      </trkpt>
      <trkpt lat="45.1434" lon="5.93359">
        <ele>2149</ele>
        <time>2021-02-27T06:22:10Z</time>
      </trkpt>
      <trkpt lat="45.14341" lon="5.93361">
        <ele>2149.2</ele>
        <time>2021-02-27T06:22:11Z</time>
      </trkpt>
      <trkpt lat="45.14341" lon="5.93361">
        <ele>2149.4</ele>
        <time>2021-02-27T06:22:12Z</time>
      </trkpt>
      <trkpt lat="45.14342" lon="5.93362">
        <ele>2149.2</ele>
        <time>2021-02-27T06:22:13Z</time>
      </trkpt>
      <trkpt lat="45.14342" lon="5.93363">
        <ele>2149.4</ele>
        <time>2021-02-27T06:22:14Z</time>
      </trkpt>
      <trkpt lat="45.14343" lon="5.93364">
        <ele>2149.4</ele>
        <time>2021-02-27T06:22:15Z</time>
      </trkpt>
      <trkpt lat="45.14343" lon="5.93365">
        <ele>2149.6</ele>
        <time>2021-02-27T06:22:16Z</time>
      </trkpt>
      <trkpt lat="45.14344" lon="5.93366">
        <ele>2149.8</ele>
        <time>2021-02-27T06:22:17Z</time>
      </trkpt>
      <trkpt lat="45.14344" lon="5.93366">
        <ele>2149.8</ele>
        <time>2021-02-27T06:22:18Z</time>
      </trkpt>
      <trkpt lat="45.14345" lon="5.93367">
        <ele>2150</ele>
        <time>2021-02-27T06:22:19Z</time>
      </trkpt>
      <trkpt lat="45.14345" lon="5.93368">
        <ele>2150.2</ele>
        <time>2021-02-27T06:22:20Z</time>
      </trkpt>
      <trkpt lat="45.14346" lon="5.93369">
        <ele>2150.2</ele>
        <time>2021-02-27T06:22:21Z</time>
      </trkpt>
      <trkpt lat="45.14346" lon="5.9337">
        <ele>2150.6</ele>
        <time>2021-02-27T06:22:22Z</time>
      </trkpt>
      <trkpt lat="45.14346" lon="5.93371">
        <ele>2150.6</ele>
        <time>2021-02-27T06:22:23Z</time>
      </trkpt>
      <trkpt lat="45.14348" lon="5.93371">
        <ele>2150.6</ele>
        <time>2021-02-27T06:22:24Z</time>
      </trkpt>
      <trkpt lat="45.14349" lon="5.93372">
        <ele>2150.8</ele>
        <time>2021-02-27T06:22:25Z</time>
      </trkpt>
      <trkpt lat="45.1435" lon="5.93372">
        <ele>2150.8</ele>
        <time>2021-02-27T06:22:26Z</time>
      </trkpt>
      <trkpt lat="45.14352" lon="5.93373">
        <ele>2151</ele>
        <time>2021-02-27T06:22:27Z</time>
      </trkpt>
      <trkpt lat="45.14353" lon="5.93373">
        <ele>2151</ele>
        <time>2021-02-27T06:22:28Z</time>
      </trkpt>
      <trkpt lat="45.14354" lon="5.93374">
        <ele>2151</ele>
        <time>2021-02-27T06:22:29Z</time>
      </trkpt>
      <trkpt lat="45.14356" lon="5.93374">
        <ele>2151</ele>
        <time>2021-02-27T06:22:30Z</time>
      </trkpt>
      <trkpt lat="45.14356" lon="5.93376">
        <ele>2151</ele>
        <time>2021-02-27T06:22:31Z</time>
      </trkpt>
      <trkpt lat="45.14357" lon="5.93377">
        <ele>2150.8</ele>
        <time>2021-02-27T06:22:32Z</time>
      </trkpt>
      <trkpt lat="45.14358" lon="5.93378">
        <ele>2151</ele>
        <time>2021-02-27T06:22:33Z</time>
      </trkpt>
      <trkpt lat="45.14358" lon="5.93379">
        <ele>2151.2</ele>
        <time>2021-02-27T06:22:34Z</time>
      </trkpt>
      <trkpt lat="45.14359" lon="5.9338">
        <ele>2151.6</ele>
        <time>2021-02-27T06:22:35Z</time>
      </trkpt>
      <trkpt lat="45.1436" lon="5.93381">
        <ele>2151.6</ele>
        <time>2021-02-27T06:22:36Z</time>
      </trkpt>
      <trkpt lat="45.1436" lon="5.93382">
        <ele>2151.6</ele>
        <time>2021-02-27T06:22:37Z</time>
      </trkpt>
      <trkpt lat="45.14361" lon="5.93383">
        <ele>2151.8</ele>
        <time>2021-02-27T06:22:38Z</time>
      </trkpt>
      <trkpt lat="45.14362" lon="5.93384">
        <ele>2152.2</ele>
        <time>2021-02-27T06:22:39Z</time>
      </trkpt>
      <trkpt lat="45.14362" lon="5.93384">
        <ele>2152.2</ele>
        <time>2021-02-27T06:22:40Z</time>
      </trkpt>
      <trkpt lat="45.14363" lon="5.93388">
        <ele>2152.2</ele>
        <time>2021-02-27T06:22:41Z</time>
      </trkpt>
      <trkpt lat="45.14363" lon="5.93388">
        <ele>2152.4</ele>
        <time>2021-02-27T06:22:42Z</time>
      </trkpt>
      <trkpt lat="45.14363" lon="5.93388">
        <ele>2152.8</ele>
        <time>2021-02-27T06:22:43Z</time>
      </trkpt>
      <trkpt lat="45.14365" lon="5.93392">
        <ele>2153</ele>
        <time>2021-02-27T06:22:44Z</time>
      </trkpt>
      <trkpt lat="45.14365" lon="5.93392">
        <ele>2153.2</ele>
        <time>2021-02-27T06:22:45Z</time>
      </trkpt>
      <trkpt lat="45.14366" lon="5.93394">
        <ele>2153.6</ele>
        <time>2021-02-27T06:22:46Z</time>
      </trkpt>
      <trkpt lat="45.14366" lon="5.93394">
        <ele>2153.6</ele>
        <time>2021-02-27T06:22:47Z</time>
      </trkpt>
      <trkpt lat="45.14367" lon="5.93396">
        <ele>2153.8</ele>
        <time>2021-02-27T06:22:48Z</time>
      </trkpt>
      <trkpt lat="45.14368" lon="5.93397">
        <ele>2153.8</ele>
        <time>2021-02-27T06:22:49Z</time>
      </trkpt>
      <trkpt lat="45.14369" lon="5.93399">
        <ele>2153.8</ele>
        <time>2021-02-27T06:22:50Z</time>
      </trkpt>
      <trkpt lat="45.14369" lon="5.934">
        <ele>2154</ele>
        <time>2021-02-27T06:22:51Z</time>
      </trkpt>
      <trkpt lat="45.1437" lon="5.93402">
        <ele>2154</ele>
        <time>2021-02-27T06:22:52Z</time>
      </trkpt>
      <trkpt lat="45.14371" lon="5.93403">
        <ele>2154.4</ele>
        <time>2021-02-27T06:22:53Z</time>
      </trkpt>
      <trkpt lat="45.14372" lon="5.93405">
        <ele>2154.4</ele>
        <time>2021-02-27T06:22:54Z</time>
      </trkpt>
      <trkpt lat="45.14372" lon="5.93406">
        <ele>2154.6</ele>
        <time>2021-02-27T06:22:55Z</time>
      </trkpt>
      <trkpt lat="45.14373" lon="5.93407">
        <ele>2154.6</ele>
        <time>2021-02-27T06:22:56Z</time>
      </trkpt>
      <trkpt lat="45.14373" lon="5.93409">
        <ele>2155</ele>
        <time>2021-02-27T06:22:57Z</time>
      </trkpt>
      <trkpt lat="45.14374" lon="5.9341">
        <ele>2155.2</ele>
        <time>2021-02-27T06:22:58Z</time>
      </trkpt>
      <trkpt lat="45.14374" lon="5.93412">
        <ele>2155.4</ele>
        <time>2021-02-27T06:22:59Z</time>
      </trkpt>
      <trkpt lat="45.14375" lon="5.93413">
        <ele>2155.6</ele>
        <time>2021-02-27T06:23:00Z</time>
      </trkpt>
      <trkpt lat="45.14375" lon="5.93415">
        <ele>2156</ele>
        <time>2021-02-27T06:23:01Z</time>
      </trkpt>
      <trkpt lat="45.14376" lon="5.93416">
        <ele>2156.2</ele>
        <time>2021-02-27T06:23:02Z</time>
      </trkpt>
      <trkpt lat="45.14376" lon="5.93417">
        <ele>2156.2</ele>
        <time>2021-02-27T06:23:03Z</time>
      </trkpt>
      <trkpt lat="45.14377" lon="5.93418">
        <ele>2156.4</ele>
        <time>2021-02-27T06:23:04Z</time>
      </trkpt>
      <trkpt lat="45.14378" lon="5.9342">
        <ele>2156.6</ele>
        <time>2021-02-27T06:23:05Z</time>
      </trkpt>
      <trkpt lat="45.14378" lon="5.93421">
        <ele>2156.8</ele>
        <time>2021-02-27T06:23:06Z</time>
      </trkpt>
      <trkpt lat="45.14379" lon="5.93422">
        <ele>2157</ele>
        <time>2021-02-27T06:23:07Z</time>
      </trkpt>
      <trkpt lat="45.14379" lon="5.93423">
        <ele>2157.4</ele>
        <time>2021-02-27T06:23:08Z</time>
      </trkpt>
      <trkpt lat="45.1438" lon="5.93424">
        <ele>2157.8</ele>
        <time>2021-02-27T06:23:09Z</time>
      </trkpt>
      <trkpt lat="45.14381" lon="5.93425">
        <ele>2157.8</ele>
        <time>2021-02-27T06:23:10Z</time>
      </trkpt>
      <trkpt lat="45.14381" lon="5.93427">
        <ele>2158.2</ele>
        <time>2021-02-27T06:23:11Z</time>
      </trkpt>
      <trkpt lat="45.14382" lon="5.93428">
        <ele>2158.2</ele>
        <time>2021-02-27T06:23:12Z</time>
      </trkpt>
      <trkpt lat="45.14383" lon="5.93429">
        <ele>2158.6</ele>
        <time>2021-02-27T06:23:13Z</time>
      </trkpt>
      <trkpt lat="45.14384" lon="5.93429">
        <ele>2158.6</ele>
        <time>2021-02-27T06:23:14Z</time>
      </trkpt>
      <trkpt lat="45.14385" lon="5.9343">
        <ele>2158.8</ele>
        <time>2021-02-27T06:23:15Z</time>
      </trkpt>
      <trkpt lat="45.14385" lon="5.93431">
        <ele>2159.2</ele>
        <time>2021-02-27T06:23:16Z</time>
      </trkpt>
      <trkpt lat="45.14386" lon="5.93432">
        <ele>2159.2</ele>
        <time>2021-02-27T06:23:17Z</time>
      </trkpt>
      <trkpt lat="45.14387" lon="5.93433">
        <ele>2159.6</ele>
        <time>2021-02-27T06:23:18Z</time>
      </trkpt>
      <trkpt lat="45.14388" lon="5.93434">
        <ele>2159.8</ele>
        <time>2021-02-27T06:23:19Z</time>
      </trkpt>
      <trkpt lat="45.14389" lon="5.93435">
        <ele>2160.4</ele>
        <time>2021-02-27T06:23:20Z</time>
      </trkpt>
      <trkpt lat="45.1439" lon="5.93436">
        <ele>2160.8</ele>
        <time>2021-02-27T06:23:21Z</time>
      </trkpt>
      <trkpt lat="45.14391" lon="5.93436">
        <ele>2161.2</ele>
        <time>2021-02-27T06:23:22Z</time>
      </trkpt>
      <trkpt lat="45.14393" lon="5.93437">
        <ele>2161.8</ele>
        <time>2021-02-27T06:23:23Z</time>
      </trkpt>
      <trkpt lat="45.14394" lon="5.93438">
        <ele>2161.8</ele>
        <time>2021-02-27T06:23:24Z</time>
      </trkpt>
      <trkpt lat="45.14395" lon="5.93438">
        <ele>2161.6</ele>
        <time>2021-02-27T06:23:25Z</time>
      </trkpt>
      <trkpt lat="45.14396" lon="5.93439">
        <ele>2161.8</ele>
        <time>2021-02-27T06:23:26Z</time>
      </trkpt>
      <trkpt lat="45.14398" lon="5.93439">
        <ele>2162</ele>
        <time>2021-02-27T06:23:27Z</time>
      </trkpt>
      <trkpt lat="45.14399" lon="5.93439">
        <ele>2162</ele>
        <time>2021-02-27T06:23:28Z</time>
      </trkpt>
      <trkpt lat="45.144" lon="5.93439">
        <ele>2162.2</ele>
        <time>2021-02-27T06:23:29Z</time>
      </trkpt>
      <trkpt lat="45.14401" lon="5.93439">
        <ele>2162.4</ele>
        <time>2021-02-27T06:23:30Z</time>
      </trkpt>
      <trkpt lat="45.14402" lon="5.9344">
        <ele>2162.4</ele>
        <time>2021-02-27T06:23:31Z</time>
      </trkpt>
      <trkpt lat="45.14403" lon="5.9344">
        <ele>2162.6</ele>
        <time>2021-02-27T06:23:32Z</time>
      </trkpt>
      <trkpt lat="45.14404" lon="5.9344">
        <ele>2163</ele>
        <time>2021-02-27T06:23:33Z</time>
      </trkpt>
      <trkpt lat="45.14405" lon="5.9344">
        <ele>2163.2</ele>
        <time>2021-02-27T06:23:34Z</time>
      </trkpt>
      <trkpt lat="45.14406" lon="5.9344">
        <ele>2163.4</ele>
        <time>2021-02-27T06:23:35Z</time>
      </trkpt>
      <trkpt lat="45.14407" lon="5.9344">
        <ele>2163.8</ele>
        <time>2021-02-27T06:23:36Z</time>
      </trkpt>
      <trkpt lat="45.14407" lon="5.93441">
        <ele>2164</ele>
        <time>2021-02-27T06:23:37Z</time>
      </trkpt>
      <trkpt lat="45.14408" lon="5.93442">
        <ele>2164.2</ele>
        <time>2021-02-27T06:23:38Z</time>
      </trkpt>
      <trkpt lat="45.14408" lon="5.93443">
        <ele>2164.6</ele>
        <time>2021-02-27T06:23:39Z</time>
      </trkpt>
      <trkpt lat="45.14409" lon="5.93444">
        <ele>2164.8</ele>
        <time>2021-02-27T06:23:40Z</time>
      </trkpt>
      <trkpt lat="45.14409" lon="5.93444">
        <ele>2165.2</ele>
        <time>2021-02-27T06:23:41Z</time>
      </trkpt>
      <trkpt lat="45.14409" lon="5.93445">
        <ele>2165.6</ele>
        <time>2021-02-27T06:23:42Z</time>
      </trkpt>
      <trkpt lat="45.1441" lon="5.93446">
        <ele>2166</ele>
        <time>2021-02-27T06:23:43Z</time>
      </trkpt>
      <trkpt lat="45.1441" lon="5.93447">
        <ele>2166.2</ele>
        <time>2021-02-27T06:23:44Z</time>
      </trkpt>
      <trkpt lat="45.14411" lon="5.93448">
        <ele>2166.4</ele>
        <time>2021-02-27T06:23:45Z</time>
      </trkpt>
      <trkpt lat="45.14411" lon="5.93449">
        <ele>2166.6</ele>
        <time>2021-02-27T06:23:46Z</time>
      </trkpt>
      <trkpt lat="45.14411" lon="5.9345">
        <ele>2167.2</ele>
        <time>2021-02-27T06:23:47Z</time>
      </trkpt>
      <trkpt lat="45.14412" lon="5.93451">
        <ele>2168</ele>
        <time>2021-02-27T06:23:48Z</time>
      </trkpt>
      <trkpt lat="45.14412" lon="5.93452">
        <ele>2168</ele>
        <time>2021-02-27T06:23:49Z</time>
      </trkpt>
      <trkpt lat="45.14412" lon="5.93452">
        <ele>2168</ele>
        <time>2021-02-27T06:23:50Z</time>
      </trkpt>
      <trkpt lat="45.14411" lon="5.93453">
        <ele>2168.2</ele>
        <time>2021-02-27T06:23:51Z</time>
      </trkpt>
      <trkpt lat="45.14411" lon="5.93454">
        <ele>2167.8</ele>
        <time>2021-02-27T06:23:52Z</time>
      </trkpt>
      <trkpt lat="45.1441" lon="5.93454">
        <ele>2168</ele>
        <time>2021-02-27T06:23:53Z</time>
      </trkpt>
      <trkpt lat="45.1441" lon="5.93455">
        <ele>2169</ele>
        <time>2021-02-27T06:23:54Z</time>
      </trkpt>
      <trkpt lat="45.14409" lon="5.93456">
        <ele>2168.8</ele>
        <time>2021-02-27T06:23:55Z</time>
      </trkpt>
      <trkpt lat="45.14409" lon="5.93456">
        <ele>2168.8</ele>
        <time>2021-02-27T06:23:56Z</time>
      </trkpt>
      <trkpt lat="45.14408" lon="5.93457">
        <ele>2169.2</ele>
        <time>2021-02-27T06:23:57Z</time>
      </trkpt>
      <trkpt lat="45.14408" lon="5.93458">
        <ele>2169.6</ele>
        <time>2021-02-27T06:23:58Z</time>
      </trkpt>
      <trkpt lat="45.14408" lon="5.93458">
        <ele>2169.4</ele>
        <time>2021-02-27T06:23:59Z</time>
      </trkpt>
      <trkpt lat="45.14408" lon="5.93458">
        <ele>2169.2</ele>
        <time>2021-02-27T06:24:00Z</time>
      </trkpt>
      <trkpt lat="45.14408" lon="5.93459">
        <ele>2169.2</ele>
        <time>2021-02-27T06:24:01Z</time>
      </trkpt>
      <trkpt lat="45.14408" lon="5.93459">
        <ele>2168.8</ele>
        <time>2021-02-27T06:24:02Z</time>
      </trkpt>
      <trkpt lat="45.14408" lon="5.93459">
        <ele>2169.2</ele>
        <time>2021-02-27T06:24:03Z</time>
      </trkpt>
      <trkpt lat="45.14408" lon="5.9346">
        <ele>2169.2</ele>
        <time>2021-02-27T06:24:04Z</time>
      </trkpt>
      <trkpt lat="45.14408" lon="5.9346">
        <ele>2169.6</ele>
        <time>2021-02-27T06:24:05Z</time>
      </trkpt>
      <trkpt lat="45.14408" lon="5.9346">
        <ele>2170</ele>
        <time>2021-02-27T06:24:06Z</time>
      </trkpt>
      <trkpt lat="45.14407" lon="5.93461">
        <ele>2170.2</ele>
        <time>2021-02-27T06:24:07Z</time>
      </trkpt>
      <trkpt lat="45.14407" lon="5.93461">
        <ele>2170.6</ele>
        <time>2021-02-27T06:24:08Z</time>
      </trkpt>
      <trkpt lat="45.14407" lon="5.93462">
        <ele>2170.8</ele>
        <time>2021-02-27T06:24:09Z</time>
      </trkpt>
      <trkpt lat="45.14407" lon="5.93462">
        <ele>2171</ele>
        <time>2021-02-27T06:24:10Z</time>
      </trkpt>
      <trkpt lat="45.14407" lon="5.93462">
        <ele>2171</ele>
        <time>2021-02-27T06:24:11Z</time>
      </trkpt>
      <trkpt lat="45.14407" lon="5.93463">
        <ele>2171.4</ele>
        <time>2021-02-27T06:24:12Z</time>
      </trkpt>
      <trkpt lat="45.14407" lon="5.93463">
        <ele>2171.4</ele>
        <time>2021-02-27T06:24:13Z</time>
      </trkpt>
      <trkpt lat="45.14407" lon="5.93463">
        <ele>2171.4</ele>
        <time>2021-02-27T06:24:14Z</time>
      </trkpt>
      <trkpt lat="45.14407" lon="5.93464">
        <ele>2171.2</ele>
        <time>2021-02-27T06:24:15Z</time>
      </trkpt>
      <trkpt lat="45.14406" lon="5.93464">
        <ele>2171.2</ele>
        <time>2021-02-27T06:24:16Z</time>
      </trkpt>
      <trkpt lat="45.14406" lon="5.93464">
        <ele>2171</ele>
        <time>2021-02-27T06:24:17Z</time>
      </trkpt>
      <trkpt lat="45.14405" lon="5.93467">
        <ele>2171.2</ele>
        <time>2021-02-27T06:24:18Z</time>
      </trkpt>
      <trkpt lat="45.14405" lon="5.93467">
        <ele>2170.8</ele>
        <time>2021-02-27T06:24:19Z</time>
      </trkpt>
      <trkpt lat="45.14403" lon="5.9347">
        <ele>2170.8</ele>
        <time>2021-02-27T06:24:20Z</time>
      </trkpt>
      <trkpt lat="45.14403" lon="5.9347">
        <ele>2171.2</ele>
        <time>2021-02-27T06:24:21Z</time>
      </trkpt>
      <trkpt lat="45.14402" lon="5.93471">
        <ele>2171.4</ele>
        <time>2021-02-27T06:24:22Z</time>
      </trkpt>
      <trkpt lat="45.14402" lon="5.93473">
        <ele>2171.4</ele>
        <time>2021-02-27T06:24:23Z</time>
      </trkpt>
      <trkpt lat="45.14401" lon="5.93474">
        <ele>2171.6</ele>
        <time>2021-02-27T06:24:24Z</time>
      </trkpt>
      <trkpt lat="45.14401" lon="5.93475">
        <ele>2171.8</ele>
        <time>2021-02-27T06:24:25Z</time>
      </trkpt>
      <trkpt lat="45.144" lon="5.93477">
        <ele>2172.2</ele>
        <time>2021-02-27T06:24:26Z</time>
      </trkpt>
      <trkpt lat="45.14399" lon="5.93478">
        <ele>2172.2</ele>
        <time>2021-02-27T06:24:27Z</time>
      </trkpt>
      <trkpt lat="45.14399" lon="5.93479">
        <ele>2172.4</ele>
        <time>2021-02-27T06:24:28Z</time>
      </trkpt>
      <trkpt lat="45.14398" lon="5.93481">
        <ele>2172.8</ele>
        <time>2021-02-27T06:24:29Z</time>
      </trkpt>
      <trkpt lat="45.14398" lon="5.93482">
        <ele>2173.2</ele>
        <time>2021-02-27T06:24:30Z</time>
      </trkpt>
      <trkpt lat="45.14398" lon="5.93484">
        <ele>2173.2</ele>
        <time>2021-02-27T06:24:31Z</time>
      </trkpt>
      <trkpt lat="45.14399" lon="5.93485">
        <ele>2173.4</ele>
        <time>2021-02-27T06:24:32Z</time>
      </trkpt>
      <trkpt lat="45.14399" lon="5.93486">
        <ele>2173.6</ele>
        <time>2021-02-27T06:24:33Z</time>
      </trkpt>
      <trkpt lat="45.14399" lon="5.93488">
        <ele>2173.8</ele>
        <time>2021-02-27T06:24:34Z</time>
      </trkpt>
      <trkpt lat="45.14399" lon="5.93489">
        <ele>2173.8</ele>
        <time>2021-02-27T06:24:35Z</time>
      </trkpt>
      <trkpt lat="45.144" lon="5.93491">
        <ele>2174.4</ele>
        <time>2021-02-27T06:24:36Z</time>
      </trkpt>
      <trkpt lat="45.144" lon="5.93492">
        <ele>2174.6</ele>
        <time>2021-02-27T06:24:37Z</time>
      </trkpt>
      <trkpt lat="45.144" lon="5.93494">
        <ele>2174.8</ele>
        <time>2021-02-27T06:24:38Z</time>
      </trkpt>
      <trkpt lat="45.144" lon="5.93495">
        <ele>2175.2</ele>
        <time>2021-02-27T06:24:39Z</time>
      </trkpt>
      <trkpt lat="45.144" lon="5.93497">
        <ele>2175.2</ele>
        <time>2021-02-27T06:24:40Z</time>
      </trkpt>
      <trkpt lat="45.144" lon="5.93498">
        <ele>2175.2</ele>
        <time>2021-02-27T06:24:41Z</time>
      </trkpt>
      <trkpt lat="45.144" lon="5.935">
        <ele>2175.2</ele>
        <time>2021-02-27T06:24:42Z</time>
      </trkpt>
      <trkpt lat="45.144" lon="5.93502">
        <ele>2175.6</ele>
        <time>2021-02-27T06:24:43Z</time>
      </trkpt>
      <trkpt lat="45.14399" lon="5.93503">
        <ele>2176</ele>
        <time>2021-02-27T06:24:44Z</time>
      </trkpt>
      <trkpt lat="45.14399" lon="5.93505">
        <ele>2176</ele>
        <time>2021-02-27T06:24:45Z</time>
      </trkpt>
      <trkpt lat="45.14399" lon="5.93506">
        <ele>2176.2</ele>
        <time>2021-02-27T06:24:46Z</time>
      </trkpt>
      <trkpt lat="45.14399" lon="5.93508">
        <ele>2176.4</ele>
        <time>2021-02-27T06:24:47Z</time>
      </trkpt>
      <trkpt lat="45.14399" lon="5.93509">
        <ele>2176.4</ele>
        <time>2021-02-27T06:24:48Z</time>
      </trkpt>
      <trkpt lat="45.14399" lon="5.93511">
        <ele>2176.6</ele>
        <time>2021-02-27T06:24:49Z</time>
      </trkpt>
      <trkpt lat="45.14398" lon="5.93513">
        <ele>2176.8</ele>
        <time>2021-02-27T06:24:50Z</time>
      </trkpt>
      <trkpt lat="45.14398" lon="5.93514">
        <ele>2177</ele>
        <time>2021-02-27T06:24:51Z</time>
      </trkpt>
      <trkpt lat="45.14398" lon="5.93517">
        <ele>2177</ele>
        <time>2021-02-27T06:24:52Z</time>
      </trkpt>
      <trkpt lat="45.14398" lon="5.93517">
        <ele>2177.4</ele>
        <time>2021-02-27T06:24:53Z</time>
      </trkpt>
      <trkpt lat="45.14398" lon="5.93518">
        <ele>2177.6</ele>
        <time>2021-02-27T06:24:54Z</time>
      </trkpt>
      <trkpt lat="45.14398" lon="5.93519">
        <ele>2177.6</ele>
        <time>2021-02-27T06:24:55Z</time>
      </trkpt>
      <trkpt lat="45.14399" lon="5.9352">
        <ele>2178</ele>
        <time>2021-02-27T06:24:56Z</time>
      </trkpt>
      <trkpt lat="45.14399" lon="5.93521">
        <ele>2178.2</ele>
        <time>2021-02-27T06:24:57Z</time>
      </trkpt>
      <trkpt lat="45.14399" lon="5.93522">
        <ele>2178.2</ele>
        <time>2021-02-27T06:24:58Z</time>
      </trkpt>
      <trkpt lat="45.14399" lon="5.93523">
        <ele>2178.8</ele>
        <time>2021-02-27T06:24:59Z</time>
      </trkpt>
      <trkpt lat="45.14399" lon="5.93524">
        <ele>2179</ele>
        <time>2021-02-27T06:25:00Z</time>
      </trkpt>
      <trkpt lat="45.144" lon="5.93525">
        <ele>2179.2</ele>
        <time>2021-02-27T06:25:01Z</time>
      </trkpt>
      <trkpt lat="45.144" lon="5.93527">
        <ele>2179.4</ele>
        <time>2021-02-27T06:25:02Z</time>
      </trkpt>
      <trkpt lat="45.144" lon="5.93528">
        <ele>2179.4</ele>
        <time>2021-02-27T06:25:03Z</time>
      </trkpt>
      <trkpt lat="45.14401" lon="5.93529">
        <ele>2179.4</ele>
        <time>2021-02-27T06:25:04Z</time>
      </trkpt>
      <trkpt lat="45.14401" lon="5.9353">
        <ele>2179.4</ele>
        <time>2021-02-27T06:25:05Z</time>
      </trkpt>
      <trkpt lat="45.14401" lon="5.93531">
        <ele>2179.4</ele>
        <time>2021-02-27T06:25:06Z</time>
      </trkpt>
      <trkpt lat="45.14402" lon="5.93532">
        <ele>2179.8</ele>
        <time>2021-02-27T06:25:07Z</time>
      </trkpt>
      <trkpt lat="45.14402" lon="5.93533">
        <ele>2179.8</ele>
        <time>2021-02-27T06:25:08Z</time>
      </trkpt>
      <trkpt lat="45.14402" lon="5.93535">
        <ele>2180</ele>
        <time>2021-02-27T06:25:09Z</time>
      </trkpt>
      <trkpt lat="45.14403" lon="5.93536">
        <ele>2180.2</ele>
        <time>2021-02-27T06:25:10Z</time>
      </trkpt>
      <trkpt lat="45.14403" lon="5.93537">
        <ele>2180.4</ele>
        <time>2021-02-27T06:25:11Z</time>
      </trkpt>
      <trkpt lat="45.14403" lon="5.93538">
        <ele>2180.4</ele>
        <time>2021-02-27T06:25:12Z</time>
      </trkpt>
      <trkpt lat="45.14403" lon="5.9354">
        <ele>2180.8</ele>
        <time>2021-02-27T06:25:13Z</time>
      </trkpt>
      <trkpt lat="45.14403" lon="5.93541">
        <ele>2181.4</ele>
        <time>2021-02-27T06:25:14Z</time>
      </trkpt>
      <trkpt lat="45.14403" lon="5.93542">
        <ele>2181.6</ele>
        <time>2021-02-27T06:25:15Z</time>
      </trkpt>
      <trkpt lat="45.14403" lon="5.93543">
        <ele>2181.8</ele>
        <time>2021-02-27T06:25:16Z</time>
      </trkpt>
      <trkpt lat="45.14403" lon="5.93545">
        <ele>2182.4</ele>
        <time>2021-02-27T06:25:17Z</time>
      </trkpt>
      <trkpt lat="45.14402" lon="5.93546">
        <ele>2183</ele>
        <time>2021-02-27T06:25:18Z</time>
      </trkpt>
      <trkpt lat="45.14402" lon="5.93547">
        <ele>2183.6</ele>
        <time>2021-02-27T06:25:19Z</time>
      </trkpt>
      <trkpt lat="45.14402" lon="5.93549">
        <ele>2183.6</ele>
        <time>2021-02-27T06:25:20Z</time>
      </trkpt>
      <trkpt lat="45.14402" lon="5.9355">
        <ele>2184</ele>
        <time>2021-02-27T06:25:21Z</time>
      </trkpt>
      <trkpt lat="45.14402" lon="5.93551">
        <ele>2183.8</ele>
        <time>2021-02-27T06:25:22Z</time>
      </trkpt>
      <trkpt lat="45.14402" lon="5.93553">
        <ele>2184</ele>
        <time>2021-02-27T06:25:23Z</time>
      </trkpt>
      <trkpt lat="45.14402" lon="5.93554">
        <ele>2184.2</ele>
        <time>2021-02-27T06:25:24Z</time>
      </trkpt>
      <trkpt lat="45.14402" lon="5.93556">
        <ele>2184.4</ele>
        <time>2021-02-27T06:25:25Z</time>
      </trkpt>
      <trkpt lat="45.14402" lon="5.93557">
        <ele>2184.4</ele>
        <time>2021-02-27T06:25:26Z</time>
      </trkpt>
      <trkpt lat="45.14402" lon="5.93558">
        <ele>2184.2</ele>
        <time>2021-02-27T06:25:27Z</time>
      </trkpt>
      <trkpt lat="45.14402" lon="5.9356">
        <ele>2184.6</ele>
        <time>2021-02-27T06:25:28Z</time>
      </trkpt>
      <trkpt lat="45.14402" lon="5.93561">
        <ele>2185</ele>
        <time>2021-02-27T06:25:29Z</time>
      </trkpt>
      <trkpt lat="45.14403" lon="5.93563">
        <ele>2185.4</ele>
        <time>2021-02-27T06:25:30Z</time>
      </trkpt>
      <trkpt lat="45.14403" lon="5.93564">
        <ele>2185.2</ele>
        <time>2021-02-27T06:25:31Z</time>
      </trkpt>
      <trkpt lat="45.14403" lon="5.93566">
        <ele>2185.6</ele>
        <time>2021-02-27T06:25:32Z</time>
      </trkpt>
      <trkpt lat="45.14403" lon="5.93567">
        <ele>2185.4</ele>
        <time>2021-02-27T06:25:33Z</time>
      </trkpt>
      <trkpt lat="45.14404" lon="5.93569">
        <ele>2185.2</ele>
        <time>2021-02-27T06:25:34Z</time>
      </trkpt>
      <trkpt lat="45.14404" lon="5.9357">
        <ele>2185.6</ele>
        <time>2021-02-27T06:25:35Z</time>
      </trkpt>
      <trkpt lat="45.14405" lon="5.93572">
        <ele>2185.8</ele>
        <time>2021-02-27T06:25:36Z</time>
      </trkpt>
      <trkpt lat="45.14405" lon="5.93573">
        <ele>2185.8</ele>
        <time>2021-02-27T06:25:37Z</time>
      </trkpt>
      <trkpt lat="45.14405" lon="5.93575">
        <ele>2186</ele>
        <time>2021-02-27T06:25:38Z</time>
      </trkpt>
      <trkpt lat="45.14406" lon="5.93577">
        <ele>2186</ele>
        <time>2021-02-27T06:25:39Z</time>
      </trkpt>
      <trkpt lat="45.14406" lon="5.93578">
        <ele>2185.8</ele>
        <time>2021-02-27T06:25:40Z</time>
      </trkpt>
      <trkpt lat="45.14407" lon="5.9358">
        <ele>2186.2</ele>
        <time>2021-02-27T06:25:41Z</time>
      </trkpt>
      <trkpt lat="45.14407" lon="5.93582">
        <ele>2186</ele>
        <time>2021-02-27T06:25:42Z</time>
      </trkpt>
      <trkpt lat="45.14407" lon="5.93583">
        <ele>2186</ele>
        <time>2021-02-27T06:25:43Z</time>
      </trkpt>
      <trkpt lat="45.14408" lon="5.93585">
        <ele>2186</ele>
        <time>2021-02-27T06:25:44Z</time>
      </trkpt>
      <trkpt lat="45.14408" lon="5.93587">
        <ele>2186.2</ele>
        <time>2021-02-27T06:25:45Z</time>
      </trkpt>
      <trkpt lat="45.14409" lon="5.93589">
        <ele>2186.6</ele>
        <time>2021-02-27T06:25:46Z</time>
      </trkpt>
      <trkpt lat="45.14409" lon="5.9359">
        <ele>2187</ele>
        <time>2021-02-27T06:25:47Z</time>
      </trkpt>
      <trkpt lat="45.14409" lon="5.93592">
        <ele>2187.4</ele>
        <time>2021-02-27T06:25:48Z</time>
      </trkpt>
      <trkpt lat="45.14409" lon="5.93594">
        <ele>2187.2</ele>
        <time>2021-02-27T06:25:49Z</time>
      </trkpt>
      <trkpt lat="45.14409" lon="5.93596">
        <ele>2187.2</ele>
        <time>2021-02-27T06:25:50Z</time>
      </trkpt>
      <trkpt lat="45.1441" lon="5.93597">
        <ele>2187.6</ele>
        <time>2021-02-27T06:25:51Z</time>
      </trkpt>
      <trkpt lat="45.1441" lon="5.93599">
        <ele>2187.8</ele>
        <time>2021-02-27T06:25:52Z</time>
      </trkpt>
      <trkpt lat="45.1441" lon="5.93601">
        <ele>2187.8</ele>
        <time>2021-02-27T06:25:53Z</time>
      </trkpt>
      <trkpt lat="45.1441" lon="5.93602">
        <ele>2187.8</ele>
        <time>2021-02-27T06:25:54Z</time>
      </trkpt>
      <trkpt lat="45.1441" lon="5.93604">
        <ele>2188</ele>
        <time>2021-02-27T06:25:55Z</time>
      </trkpt>
      <trkpt lat="45.1441" lon="5.93606">
        <ele>2188</ele>
        <time>2021-02-27T06:25:56Z</time>
      </trkpt>
      <trkpt lat="45.14411" lon="5.93607">
        <ele>2188.2</ele>
        <time>2021-02-27T06:25:57Z</time>
      </trkpt>
      <trkpt lat="45.14411" lon="5.93609">
        <ele>2188.2</ele>
        <time>2021-02-27T06:25:58Z</time>
      </trkpt>
      <trkpt lat="45.14412" lon="5.93611">
        <ele>2188.6</ele>
        <time>2021-02-27T06:25:59Z</time>
      </trkpt>
      <trkpt lat="45.14412" lon="5.93612">
        <ele>2188.6</ele>
        <time>2021-02-27T06:26:00Z</time>
      </trkpt>
      <trkpt lat="45.14412" lon="5.93614">
        <ele>2188.6</ele>
        <time>2021-02-27T06:26:01Z</time>
      </trkpt>
      <trkpt lat="45.14413" lon="5.93615">
        <ele>2188.8</ele>
        <time>2021-02-27T06:26:02Z</time>
      </trkpt>
      <trkpt lat="45.14413" lon="5.93617">
        <ele>2188.8</ele>
        <time>2021-02-27T06:26:03Z</time>
      </trkpt>
      <trkpt lat="45.14413" lon="5.93618">
        <ele>2188.8</ele>
        <time>2021-02-27T06:26:04Z</time>
      </trkpt>
      <trkpt lat="45.14413" lon="5.9362">
        <ele>2188.8</ele>
        <time>2021-02-27T06:26:05Z</time>
      </trkpt>
      <trkpt lat="45.14414" lon="5.93621">
        <ele>2189</ele>
        <time>2021-02-27T06:26:06Z</time>
      </trkpt>
      <trkpt lat="45.14414" lon="5.93622">
        <ele>2189</ele>
        <time>2021-02-27T06:26:07Z</time>
      </trkpt>
      <trkpt lat="45.14414" lon="5.93622">
        <ele>2189</ele>
        <time>2021-02-27T06:26:08Z</time>
      </trkpt>
      <trkpt lat="45.14414" lon="5.93622">
        <ele>2189.2</ele>
        <time>2021-02-27T06:26:09Z</time>
      </trkpt>
      <trkpt lat="45.14414" lon="5.93622">
        <ele>2189.4</ele>
        <time>2021-02-27T06:26:10Z</time>
      </trkpt>
      <trkpt lat="45.14414" lon="5.93625">
        <ele>2189.4</ele>
        <time>2021-02-27T06:26:11Z</time>
      </trkpt>
      <trkpt lat="45.14414" lon="5.93625">
        <ele>2189.4</ele>
        <time>2021-02-27T06:26:12Z</time>
      </trkpt>
      <trkpt lat="45.14414" lon="5.93625">
        <ele>2189.4</ele>
        <time>2021-02-27T06:26:13Z</time>
      </trkpt>
      <trkpt lat="45.14414" lon="5.93625">
        <ele>2189.4</ele>
        <time>2021-02-27T06:26:14Z</time>
      </trkpt>
      <trkpt lat="45.14414" lon="5.93629">
        <ele>2189.6</ele>
        <time>2021-02-27T06:26:15Z</time>
      </trkpt>
      <trkpt lat="45.14414" lon="5.93629">
        <ele>2189.6</ele>
        <time>2021-02-27T06:26:16Z</time>
      </trkpt>
      <trkpt lat="45.14414" lon="5.93629">
        <ele>2189.8</ele>
        <time>2021-02-27T06:26:17Z</time>
      </trkpt>
      <trkpt lat="45.14414" lon="5.93631">
        <ele>2189.6</ele>
        <time>2021-02-27T06:26:18Z</time>
      </trkpt>
      <trkpt lat="45.14414" lon="5.93631">
        <ele>2189.8</ele>
        <time>2021-02-27T06:26:19Z</time>
      </trkpt>
      <trkpt lat="45.14414" lon="5.93633">
        <ele>2190</ele>
        <time>2021-02-27T06:26:20Z</time>
      </trkpt>
      <trkpt lat="45.14415" lon="5.93634">
        <ele>2189.8</ele>
        <time>2021-02-27T06:26:21Z</time>
      </trkpt>
      <trkpt lat="45.14415" lon="5.93635">
        <ele>2189.6</ele>
        <time>2021-02-27T06:26:22Z</time>
      </trkpt>
      <trkpt lat="45.14415" lon="5.93637">
        <ele>2189.8</ele>
        <time>2021-02-27T06:26:23Z</time>
      </trkpt>
      <trkpt lat="45.14415" lon="5.93638">
        <ele>2189.6</ele>
        <time>2021-02-27T06:26:24Z</time>
      </trkpt>
      <trkpt lat="45.14416" lon="5.9364">
        <ele>2189.4</ele>
        <time>2021-02-27T06:26:25Z</time>
      </trkpt>
      <trkpt lat="45.14416" lon="5.93641">
        <ele>2189.6</ele>
        <time>2021-02-27T06:26:26Z</time>
      </trkpt>
      <trkpt lat="45.14416" lon="5.93642">
        <ele>2189.8</ele>
        <time>2021-02-27T06:26:27Z</time>
      </trkpt>
      <trkpt lat="45.14416" lon="5.93644">
        <ele>2190.6</ele>
        <time>2021-02-27T06:26:28Z</time>
      </trkpt>
      <trkpt lat="45.14417" lon="5.93645">
        <ele>2190.8</ele>
        <time>2021-02-27T06:26:29Z</time>
      </trkpt>
      <trkpt lat="45.14417" lon="5.93647">
        <ele>2190.8</ele>
        <time>2021-02-27T06:26:30Z</time>
      </trkpt>
      <trkpt lat="45.14417" lon="5.93648">
        <ele>2190.8</ele>
        <time>2021-02-27T06:26:31Z</time>
      </trkpt>
      <trkpt lat="45.14417" lon="5.9365">
        <ele>2191</ele>
        <time>2021-02-27T06:26:32Z</time>
      </trkpt>
      <trkpt lat="45.14418" lon="5.93651">
        <ele>2191.2</ele>
        <time>2021-02-27T06:26:33Z</time>
      </trkpt>
      <trkpt lat="45.14418" lon="5.93653">
        <ele>2191.2</ele>
        <time>2021-02-27T06:26:34Z</time>
      </trkpt>
      <trkpt lat="45.14418" lon="5.93654">
        <ele>2191.2</ele>
        <time>2021-02-27T06:26:35Z</time>
      </trkpt>
      <trkpt lat="45.14418" lon="5.93656">
        <ele>2191.8</ele>
        <time>2021-02-27T06:26:36Z</time>
      </trkpt>
      <trkpt lat="45.14418" lon="5.93657">
        <ele>2191.6</ele>
        <time>2021-02-27T06:26:37Z</time>
      </trkpt>
      <trkpt lat="45.14418" lon="5.93659">
        <ele>2191.8</ele>
        <time>2021-02-27T06:26:38Z</time>
      </trkpt>
      <trkpt lat="45.14419" lon="5.9366">
        <ele>2191.8</ele>
        <time>2021-02-27T06:26:39Z</time>
      </trkpt>
      <trkpt lat="45.14419" lon="5.93662">
        <ele>2192.6</ele>
        <time>2021-02-27T06:26:40Z</time>
      </trkpt>
      <trkpt lat="45.14419" lon="5.93663">
        <ele>2192.6</ele>
        <time>2021-02-27T06:26:41Z</time>
      </trkpt>
      <trkpt lat="45.14419" lon="5.93665">
        <ele>2192.6</ele>
        <time>2021-02-27T06:26:42Z</time>
      </trkpt>
      <trkpt lat="45.14419" lon="5.93666">
        <ele>2192.4</ele>
        <time>2021-02-27T06:26:43Z</time>
      </trkpt>
      <trkpt lat="45.14419" lon="5.93668">
        <ele>2192.4</ele>
        <time>2021-02-27T06:26:44Z</time>
      </trkpt>
      <trkpt lat="45.14419" lon="5.93669">
        <ele>2193</ele>
        <time>2021-02-27T06:26:45Z</time>
      </trkpt>
      <trkpt lat="45.14419" lon="5.93671">
        <ele>2192.6</ele>
        <time>2021-02-27T06:26:46Z</time>
      </trkpt>
      <trkpt lat="45.14419" lon="5.93672">
        <ele>2192.4</ele>
        <time>2021-02-27T06:26:47Z</time>
      </trkpt>
      <trkpt lat="45.1442" lon="5.93674">
        <ele>2192.2</ele>
        <time>2021-02-27T06:26:48Z</time>
      </trkpt>
      <trkpt lat="45.1442" lon="5.93676">
        <ele>2192</ele>
        <time>2021-02-27T06:26:49Z</time>
      </trkpt>
      <trkpt lat="45.1442" lon="5.93677">
        <ele>2192.8</ele>
        <time>2021-02-27T06:26:50Z</time>
      </trkpt>
      <trkpt lat="45.1442" lon="5.93679">
        <ele>2192.6</ele>
        <time>2021-02-27T06:26:51Z</time>
      </trkpt>
      <trkpt lat="45.14421" lon="5.93681">
        <ele>2192.8</ele>
        <time>2021-02-27T06:26:52Z</time>
      </trkpt>
      <trkpt lat="45.14421" lon="5.93682">
        <ele>2192.8</ele>
        <time>2021-02-27T06:26:53Z</time>
      </trkpt>
      <trkpt lat="45.14421" lon="5.93684">
        <ele>2193.4</ele>
        <time>2021-02-27T06:26:54Z</time>
      </trkpt>
      <trkpt lat="45.14421" lon="5.93685">
        <ele>2193.6</ele>
        <time>2021-02-27T06:26:55Z</time>
      </trkpt>
      <trkpt lat="45.14422" lon="5.93687">
        <ele>2193.4</ele>
        <time>2021-02-27T06:26:56Z</time>
      </trkpt>
      <trkpt lat="45.14422" lon="5.93688">
        <ele>2193.2</ele>
        <time>2021-02-27T06:26:57Z</time>
      </trkpt>
      <trkpt lat="45.14423" lon="5.9369">
        <ele>2193.4</ele>
        <time>2021-02-27T06:26:58Z</time>
      </trkpt>
      <trkpt lat="45.14423" lon="5.93691">
        <ele>2194</ele>
        <time>2021-02-27T06:26:59Z</time>
      </trkpt>
      <trkpt lat="45.14424" lon="5.93693">
        <ele>2194</ele>
        <time>2021-02-27T06:27:00Z</time>
      </trkpt>
      <trkpt lat="45.14424" lon="5.93694">
        <ele>2194.2</ele>
        <time>2021-02-27T06:27:01Z</time>
      </trkpt>
      <trkpt lat="45.14424" lon="5.93696">
        <ele>2194.4</ele>
        <time>2021-02-27T06:27:02Z</time>
      </trkpt>
      <trkpt lat="45.14425" lon="5.93697">
        <ele>2194.6</ele>
        <time>2021-02-27T06:27:03Z</time>
      </trkpt>
      <trkpt lat="45.14425" lon="5.93699">
        <ele>2194.8</ele>
        <time>2021-02-27T06:27:04Z</time>
      </trkpt>
      <trkpt lat="45.14425" lon="5.937">
        <ele>2195.2</ele>
        <time>2021-02-27T06:27:05Z</time>
      </trkpt>
      <trkpt lat="45.14426" lon="5.93701">
        <ele>2195.4</ele>
        <time>2021-02-27T06:27:06Z</time>
      </trkpt>
      <trkpt lat="45.14426" lon="5.93703">
        <ele>2195.4</ele>
        <time>2021-02-27T06:27:07Z</time>
      </trkpt>
      <trkpt lat="45.14427" lon="5.93704">
        <ele>2195.4</ele>
        <time>2021-02-27T06:27:08Z</time>
      </trkpt>
      <trkpt lat="45.14427" lon="5.93705">
        <ele>2195.8</ele>
        <time>2021-02-27T06:27:09Z</time>
      </trkpt>
      <trkpt lat="45.14427" lon="5.93707">
        <ele>2196</ele>
        <time>2021-02-27T06:27:10Z</time>
      </trkpt>
      <trkpt lat="45.14428" lon="5.93708">
        <ele>2196.2</ele>
        <time>2021-02-27T06:27:11Z</time>
      </trkpt>
      <trkpt lat="45.14428" lon="5.93709">
        <ele>2196.2</ele>
        <time>2021-02-27T06:27:12Z</time>
      </trkpt>
      <trkpt lat="45.14428" lon="5.93711">
        <ele>2196.2</ele>
        <time>2021-02-27T06:27:13Z</time>
      </trkpt>
      <trkpt lat="45.14428" lon="5.93712">
        <ele>2196.4</ele>
        <time>2021-02-27T06:27:14Z</time>
      </trkpt>
      <trkpt lat="45.14428" lon="5.93713">
        <ele>2196.2</ele>
        <time>2021-02-27T06:27:15Z</time>
      </trkpt>
      <trkpt lat="45.14428" lon="5.93714">
        <ele>2196.4</ele>
        <time>2021-02-27T06:27:16Z</time>
      </trkpt>
      <trkpt lat="45.14428" lon="5.93716">
        <ele>2196.6</ele>
        <time>2021-02-27T06:27:17Z</time>
      </trkpt>
      <trkpt lat="45.14428" lon="5.93717">
        <ele>2196.6</ele>
        <time>2021-02-27T06:27:18Z</time>
      </trkpt>
      <trkpt lat="45.14428" lon="5.93718">
        <ele>2196.4</ele>
        <time>2021-02-27T06:27:19Z</time>
      </trkpt>
      <trkpt lat="45.14428" lon="5.93719">
        <ele>2196.2</ele>
        <time>2021-02-27T06:27:20Z</time>
      </trkpt>
      <trkpt lat="45.14428" lon="5.93721">
        <ele>2196.4</ele>
        <time>2021-02-27T06:27:21Z</time>
      </trkpt>
      <trkpt lat="45.14428" lon="5.93722">
        <ele>2196.6</ele>
        <time>2021-02-27T06:27:22Z</time>
      </trkpt>
      <trkpt lat="45.14428" lon="5.93723">
        <ele>2196.8</ele>
        <time>2021-02-27T06:27:23Z</time>
      </trkpt>
      <trkpt lat="45.14428" lon="5.93725">
        <ele>2197</ele>
        <time>2021-02-27T06:27:24Z</time>
      </trkpt>
      <trkpt lat="45.14428" lon="5.93726">
        <ele>2197.4</ele>
        <time>2021-02-27T06:27:25Z</time>
      </trkpt>
      <trkpt lat="45.14428" lon="5.93727">
        <ele>2197.6</ele>
        <time>2021-02-27T06:27:26Z</time>
      </trkpt>
      <trkpt lat="45.14428" lon="5.93728">
        <ele>2197.8</ele>
        <time>2021-02-27T06:27:27Z</time>
      </trkpt>
      <trkpt lat="45.14428" lon="5.9373">
        <ele>2197.8</ele>
        <time>2021-02-27T06:27:28Z</time>
      </trkpt>
      <trkpt lat="45.14428" lon="5.93731">
        <ele>2198</ele>
        <time>2021-02-27T06:27:29Z</time>
      </trkpt>
      <trkpt lat="45.14428" lon="5.93732">
        <ele>2198.2</ele>
        <time>2021-02-27T06:27:30Z</time>
      </trkpt>
      <trkpt lat="45.14428" lon="5.93733">
        <ele>2198.2</ele>
        <time>2021-02-27T06:27:31Z</time>
      </trkpt>
      <trkpt lat="45.14429" lon="5.93735">
        <ele>2198</ele>
        <time>2021-02-27T06:27:32Z</time>
      </trkpt>
      <trkpt lat="45.14429" lon="5.93736">
        <ele>2198.2</ele>
        <time>2021-02-27T06:27:33Z</time>
      </trkpt>
      <trkpt lat="45.14429" lon="5.93738">
        <ele>2198.2</ele>
        <time>2021-02-27T06:27:34Z</time>
      </trkpt>
      <trkpt lat="45.14429" lon="5.93739">
        <ele>2198.2</ele>
        <time>2021-02-27T06:27:35Z</time>
      </trkpt>
      <trkpt lat="45.14429" lon="5.9374">
        <ele>2198.6</ele>
        <time>2021-02-27T06:27:36Z</time>
      </trkpt>
      <trkpt lat="45.14429" lon="5.93742">
        <ele>2198.6</ele>
        <time>2021-02-27T06:27:37Z</time>
      </trkpt>
      <trkpt lat="45.1443" lon="5.93743">
        <ele>2198.6</ele>
        <time>2021-02-27T06:27:38Z</time>
      </trkpt>
      <trkpt lat="45.1443" lon="5.93745">
        <ele>2199</ele>
        <time>2021-02-27T06:27:39Z</time>
      </trkpt>
      <trkpt lat="45.1443" lon="5.93746">
        <ele>2199.2</ele>
        <time>2021-02-27T06:27:40Z</time>
      </trkpt>
      <trkpt lat="45.1443" lon="5.93748">
        <ele>2199.6</ele>
        <time>2021-02-27T06:27:41Z</time>
      </trkpt>
      <trkpt lat="45.1443" lon="5.93748">
        <ele>2200.2</ele>
        <time>2021-02-27T06:27:42Z</time>
      </trkpt>
      <trkpt lat="45.1443" lon="5.93751">
        <ele>2200.4</ele>
        <time>2021-02-27T06:27:43Z</time>
      </trkpt>
      <trkpt lat="45.1443" lon="5.93751">
        <ele>2201</ele>
        <time>2021-02-27T06:27:44Z</time>
      </trkpt>
      <trkpt lat="45.1443" lon="5.93751">
        <ele>2201.4</ele>
        <time>2021-02-27T06:27:45Z</time>
      </trkpt>
      <trkpt lat="45.14429" lon="5.93754">
        <ele>2201.8</ele>
        <time>2021-02-27T06:27:46Z</time>
      </trkpt>
      <trkpt lat="45.14429" lon="5.93754">
        <ele>2202.4</ele>
        <time>2021-02-27T06:27:47Z</time>
      </trkpt>
      <trkpt lat="45.14429" lon="5.93755">
        <ele>2202.6</ele>
        <time>2021-02-27T06:27:48Z</time>
      </trkpt>
      <trkpt lat="45.14429" lon="5.93756">
        <ele>2202.6</ele>
        <time>2021-02-27T06:27:49Z</time>
      </trkpt>
      <trkpt lat="45.14429" lon="5.93757">
        <ele>2203.2</ele>
        <time>2021-02-27T06:27:50Z</time>
      </trkpt>
      <trkpt lat="45.14428" lon="5.93758">
        <ele>2203.4</ele>
        <time>2021-02-27T06:27:51Z</time>
      </trkpt>
      <trkpt lat="45.14428" lon="5.93759">
        <ele>2203.4</ele>
        <time>2021-02-27T06:27:52Z</time>
      </trkpt>
      <trkpt lat="45.14429" lon="5.93762">
        <ele>2203.4</ele>
        <time>2021-02-27T06:27:53Z</time>
      </trkpt>
      <trkpt lat="45.14429" lon="5.93762">
        <ele>2203.6</ele>
        <time>2021-02-27T06:27:54Z</time>
      </trkpt>
      <trkpt lat="45.14428" lon="5.93764">
        <ele>2203.6</ele>
        <time>2021-02-27T06:27:55Z</time>
      </trkpt>
      <trkpt lat="45.14428" lon="5.93765">
        <ele>2203.6</ele>
        <time>2021-02-27T06:27:56Z</time>
      </trkpt>
      <trkpt lat="45.14428" lon="5.93767">
        <ele>2204</ele>
        <time>2021-02-27T06:27:57Z</time>
      </trkpt>
      <trkpt lat="45.14427" lon="5.93768">
        <ele>2204</ele>
        <time>2021-02-27T06:27:58Z</time>
      </trkpt>
      <trkpt lat="45.14428" lon="5.9377">
        <ele>2203.8</ele>
        <time>2021-02-27T06:27:59Z</time>
      </trkpt>
      <trkpt lat="45.14428" lon="5.93771">
        <ele>2203.8</ele>
        <time>2021-02-27T06:28:00Z</time>
      </trkpt>
      <trkpt lat="45.14428" lon="5.93772">
        <ele>2204.2</ele>
        <time>2021-02-27T06:28:01Z</time>
      </trkpt>
      <trkpt lat="45.14428" lon="5.93774">
        <ele>2204.2</ele>
        <time>2021-02-27T06:28:02Z</time>
      </trkpt>
      <trkpt lat="45.14428" lon="5.93775">
        <ele>2204.2</ele>
        <time>2021-02-27T06:28:03Z</time>
      </trkpt>
      <trkpt lat="45.14429" lon="5.93776">
        <ele>2204.4</ele>
        <time>2021-02-27T06:28:04Z</time>
      </trkpt>
      <trkpt lat="45.14429" lon="5.93778">
        <ele>2204.8</ele>
        <time>2021-02-27T06:28:05Z</time>
      </trkpt>
      <trkpt lat="45.14429" lon="5.93779">
        <ele>2204.8</ele>
        <time>2021-02-27T06:28:06Z</time>
      </trkpt>
      <trkpt lat="45.14429" lon="5.93781">
        <ele>2205</ele>
        <time>2021-02-27T06:28:07Z</time>
      </trkpt>
      <trkpt lat="45.14429" lon="5.93782">
        <ele>2205.2</ele>
        <time>2021-02-27T06:28:08Z</time>
      </trkpt>
      <trkpt lat="45.14429" lon="5.93783">
        <ele>2205.2</ele>
        <time>2021-02-27T06:28:09Z</time>
      </trkpt>
      <trkpt lat="45.14429" lon="5.93785">
        <ele>2205.6</ele>
        <time>2021-02-27T06:28:10Z</time>
      </trkpt>
      <trkpt lat="45.14429" lon="5.93786">
        <ele>2205.8</ele>
        <time>2021-02-27T06:28:11Z</time>
      </trkpt>
      <trkpt lat="45.14429" lon="5.93788">
        <ele>2205.6</ele>
        <time>2021-02-27T06:28:12Z</time>
      </trkpt>
      <trkpt lat="45.14428" lon="5.9379">
        <ele>2206</ele>
        <time>2021-02-27T06:28:13Z</time>
      </trkpt>
      <trkpt lat="45.14428" lon="5.93791">
        <ele>2206</ele>
        <time>2021-02-27T06:28:14Z</time>
      </trkpt>
      <trkpt lat="45.14428" lon="5.93792">
        <ele>2206.6</ele>
        <time>2021-02-27T06:28:15Z</time>
      </trkpt>
      <trkpt lat="45.14428" lon="5.93794">
        <ele>2206.8</ele>
        <time>2021-02-27T06:28:16Z</time>
      </trkpt>
      <trkpt lat="45.14428" lon="5.93795">
        <ele>2207.2</ele>
        <time>2021-02-27T06:28:17Z</time>
      </trkpt>
      <trkpt lat="45.14428" lon="5.93797">
        <ele>2207.4</ele>
        <time>2021-02-27T06:28:18Z</time>
      </trkpt>
      <trkpt lat="45.14428" lon="5.938">
        <ele>2207.8</ele>
        <time>2021-02-27T06:28:19Z</time>
      </trkpt>
      <trkpt lat="45.14428" lon="5.938">
        <ele>2207.4</ele>
        <time>2021-02-27T06:28:20Z</time>
      </trkpt>
      <trkpt lat="45.14427" lon="5.93801">
        <ele>2207.6</ele>
        <time>2021-02-27T06:28:21Z</time>
      </trkpt>
      <trkpt lat="45.14427" lon="5.93803">
        <ele>2207.6</ele>
        <time>2021-02-27T06:28:22Z</time>
      </trkpt>
      <trkpt lat="45.14427" lon="5.93804">
        <ele>2208</ele>
        <time>2021-02-27T06:28:23Z</time>
      </trkpt>
      <trkpt lat="45.14427" lon="5.93805">
        <ele>2208</ele>
        <time>2021-02-27T06:28:24Z</time>
      </trkpt>
      <trkpt lat="45.14426" lon="5.93807">
        <ele>2208.2</ele>
        <time>2021-02-27T06:28:25Z</time>
      </trkpt>
      <trkpt lat="45.14426" lon="5.93808">
        <ele>2208.2</ele>
        <time>2021-02-27T06:28:26Z</time>
      </trkpt>
      <trkpt lat="45.14426" lon="5.9381">
        <ele>2208.4</ele>
        <time>2021-02-27T06:28:27Z</time>
      </trkpt>
      <trkpt lat="45.14425" lon="5.93811">
        <ele>2208.8</ele>
        <time>2021-02-27T06:28:28Z</time>
      </trkpt>
      <trkpt lat="45.14425" lon="5.93813">
        <ele>2208.8</ele>
        <time>2021-02-27T06:28:29Z</time>
      </trkpt>
      <trkpt lat="45.14425" lon="5.93813">
        <ele>2208.6</ele>
        <time>2021-02-27T06:28:30Z</time>
      </trkpt>
      <trkpt lat="45.14423" lon="5.93816">
        <ele>2208.8</ele>
        <time>2021-02-27T06:28:31Z</time>
      </trkpt>
      <trkpt lat="45.14423" lon="5.93816">
        <ele>2208.8</ele>
        <time>2021-02-27T06:28:32Z</time>
      </trkpt>
      <trkpt lat="45.14422" lon="5.9382">
        <ele>2209</ele>
        <time>2021-02-27T06:28:33Z</time>
      </trkpt>
      <trkpt lat="45.14422" lon="5.9382">
        <ele>2209</ele>
        <time>2021-02-27T06:28:34Z</time>
      </trkpt>
      <trkpt lat="45.14422" lon="5.93821">
        <ele>2209.2</ele>
        <time>2021-02-27T06:28:35Z</time>
      </trkpt>
      <trkpt lat="45.14421" lon="5.93823">
        <ele>2209</ele>
        <time>2021-02-27T06:28:36Z</time>
      </trkpt>
      <trkpt lat="45.14421" lon="5.93825">
        <ele>2209.4</ele>
        <time>2021-02-27T06:28:37Z</time>
      </trkpt>
      <trkpt lat="45.1442" lon="5.93826">
        <ele>2209.4</ele>
        <time>2021-02-27T06:28:38Z</time>
      </trkpt>
      <trkpt lat="45.1442" lon="5.93828">
        <ele>2209.4</ele>
        <time>2021-02-27T06:28:39Z</time>
      </trkpt>
      <trkpt lat="45.14419" lon="5.93829">
        <ele>2209.4</ele>
        <time>2021-02-27T06:28:40Z</time>
      </trkpt>
      <trkpt lat="45.14418" lon="5.93832">
        <ele>2209.6</ele>
        <time>2021-02-27T06:28:41Z</time>
      </trkpt>
      <trkpt lat="45.14418" lon="5.93832">
        <ele>2209.6</ele>
        <time>2021-02-27T06:28:42Z</time>
      </trkpt>
      <trkpt lat="45.14418" lon="5.93835">
        <ele>2210</ele>
        <time>2021-02-27T06:28:43Z</time>
      </trkpt>
      <trkpt lat="45.14418" lon="5.93835">
        <ele>2210</ele>
        <time>2021-02-27T06:28:44Z</time>
      </trkpt>
      <trkpt lat="45.14418" lon="5.93837">
        <ele>2210.2</ele>
        <time>2021-02-27T06:28:45Z</time>
      </trkpt>
      <trkpt lat="45.14418" lon="5.93838">
        <ele>2210.4</ele>
        <time>2021-02-27T06:28:46Z</time>
      </trkpt>
      <trkpt lat="45.14418" lon="5.9384">
        <ele>2210.4</ele>
        <time>2021-02-27T06:28:47Z</time>
      </trkpt>
      <trkpt lat="45.14417" lon="5.93841">
        <ele>2210.4</ele>
        <time>2021-02-27T06:28:48Z</time>
      </trkpt>
      <trkpt lat="45.14417" lon="5.93842">
        <ele>2210.8</ele>
        <time>2021-02-27T06:28:49Z</time>
      </trkpt>
      <trkpt lat="45.14417" lon="5.93844">
        <ele>2210.8</ele>
        <time>2021-02-27T06:28:50Z</time>
      </trkpt>
      <trkpt lat="45.14417" lon="5.93845">
        <ele>2211</ele>
        <time>2021-02-27T06:28:51Z</time>
      </trkpt>
      <trkpt lat="45.14417" lon="5.93846">
        <ele>2211</ele>
        <time>2021-02-27T06:28:52Z</time>
      </trkpt>
      <trkpt lat="45.14417" lon="5.93848">
        <ele>2211.2</ele>
        <time>2021-02-27T06:28:53Z</time>
      </trkpt>
      <trkpt lat="45.14417" lon="5.93849">
        <ele>2211.6</ele>
        <time>2021-02-27T06:28:54Z</time>
      </trkpt>
      <trkpt lat="45.14418" lon="5.93851">
        <ele>2211.8</ele>
        <time>2021-02-27T06:28:55Z</time>
      </trkpt>
      <trkpt lat="45.14418" lon="5.93852">
        <ele>2211.8</ele>
        <time>2021-02-27T06:28:56Z</time>
      </trkpt>
      <trkpt lat="45.14419" lon="5.93854">
        <ele>2212</ele>
        <time>2021-02-27T06:28:57Z</time>
      </trkpt>
      <trkpt lat="45.14419" lon="5.93855">
        <ele>2212</ele>
        <time>2021-02-27T06:28:58Z</time>
      </trkpt>
      <trkpt lat="45.1442" lon="5.93857">
        <ele>2212</ele>
        <time>2021-02-27T06:28:59Z</time>
      </trkpt>
      <trkpt lat="45.1442" lon="5.93858">
        <ele>2212.4</ele>
        <time>2021-02-27T06:29:00Z</time>
      </trkpt>
      <trkpt lat="45.14421" lon="5.9386">
        <ele>2212.4</ele>
        <time>2021-02-27T06:29:01Z</time>
      </trkpt>
      <trkpt lat="45.14421" lon="5.93861">
        <ele>2212.4</ele>
        <time>2021-02-27T06:29:02Z</time>
      </trkpt>
      <trkpt lat="45.14422" lon="5.93863">
        <ele>2212.8</ele>
        <time>2021-02-27T06:29:03Z</time>
      </trkpt>
      <trkpt lat="45.14422" lon="5.93864">
        <ele>2212.6</ele>
        <time>2021-02-27T06:29:04Z</time>
      </trkpt>
      <trkpt lat="45.14422" lon="5.93866">
        <ele>2212.8</ele>
        <time>2021-02-27T06:29:05Z</time>
      </trkpt>
      <trkpt lat="45.14423" lon="5.93867">
        <ele>2213</ele>
        <time>2021-02-27T06:29:06Z</time>
      </trkpt>
      <trkpt lat="45.14423" lon="5.93869">
        <ele>2213.2</ele>
        <time>2021-02-27T06:29:07Z</time>
      </trkpt>
      <trkpt lat="45.14424" lon="5.9387">
        <ele>2213.8</ele>
        <time>2021-02-27T06:29:08Z</time>
      </trkpt>
      <trkpt lat="45.14424" lon="5.93872">
        <ele>2213.8</ele>
        <time>2021-02-27T06:29:09Z</time>
      </trkpt>
      <trkpt lat="45.14424" lon="5.93874">
        <ele>2214.2</ele>
        <time>2021-02-27T06:29:10Z</time>
      </trkpt>
      <trkpt lat="45.14424" lon="5.93875">
        <ele>2214.2</ele>
        <time>2021-02-27T06:29:11Z</time>
      </trkpt>
      <trkpt lat="45.14425" lon="5.93877">
        <ele>2214</ele>
        <time>2021-02-27T06:29:12Z</time>
      </trkpt>
      <trkpt lat="45.14425" lon="5.93879">
        <ele>2214.6</ele>
        <time>2021-02-27T06:29:13Z</time>
      </trkpt>
      <trkpt lat="45.14425" lon="5.93881">
        <ele>2214.6</ele>
        <time>2021-02-27T06:29:14Z</time>
      </trkpt>
      <trkpt lat="45.14425" lon="5.93882">
        <ele>2214.8</ele>
        <time>2021-02-27T06:29:15Z</time>
      </trkpt>
      <trkpt lat="45.14424" lon="5.93883">
        <ele>2215</ele>
        <time>2021-02-27T06:29:16Z</time>
      </trkpt>
      <trkpt lat="45.14424" lon="5.93885">
        <ele>2215.4</ele>
        <time>2021-02-27T06:29:17Z</time>
      </trkpt>
      <trkpt lat="45.14424" lon="5.93886">
        <ele>2216</ele>
        <time>2021-02-27T06:29:18Z</time>
      </trkpt>
      <trkpt lat="45.14424" lon="5.93888">
        <ele>2216</ele>
        <time>2021-02-27T06:29:19Z</time>
      </trkpt>
      <trkpt lat="45.14424" lon="5.93889">
        <ele>2216.6</ele>
        <time>2021-02-27T06:29:20Z</time>
      </trkpt>
      <trkpt lat="45.14424" lon="5.93891">
        <ele>2217.2</ele>
        <time>2021-02-27T06:29:21Z</time>
      </trkpt>
      <trkpt lat="45.14423" lon="5.93894">
        <ele>2217.6</ele>
        <time>2021-02-27T06:29:22Z</time>
      </trkpt>
      <trkpt lat="45.14423" lon="5.93894">
        <ele>2217.6</ele>
        <time>2021-02-27T06:29:23Z</time>
      </trkpt>
      <trkpt lat="45.14422" lon="5.93896">
        <ele>2217.6</ele>
        <time>2021-02-27T06:29:24Z</time>
      </trkpt>
      <trkpt lat="45.14422" lon="5.93896">
        <ele>2217.8</ele>
        <time>2021-02-27T06:29:25Z</time>
      </trkpt>
      <trkpt lat="45.14423" lon="5.93899">
        <ele>2218</ele>
        <time>2021-02-27T06:29:26Z</time>
      </trkpt>
      <trkpt lat="45.14423" lon="5.93899">
        <ele>2218</ele>
        <time>2021-02-27T06:29:27Z</time>
      </trkpt>
      <trkpt lat="45.14423" lon="5.939">
        <ele>2218.2</ele>
        <time>2021-02-27T06:29:28Z</time>
      </trkpt>
      <trkpt lat="45.14423" lon="5.93901">
        <ele>2218</ele>
        <time>2021-02-27T06:29:29Z</time>
      </trkpt>
      <trkpt lat="45.14423" lon="5.93903">
        <ele>2218.2</ele>
        <time>2021-02-27T06:29:30Z</time>
      </trkpt>
      <trkpt lat="45.14423" lon="5.93904">
        <ele>2218.2</ele>
        <time>2021-02-27T06:29:31Z</time>
      </trkpt>
      <trkpt lat="45.14423" lon="5.93905">
        <ele>2218.4</ele>
        <time>2021-02-27T06:29:32Z</time>
      </trkpt>
      <trkpt lat="45.14423" lon="5.93905">
        <ele>2218.6</ele>
        <time>2021-02-27T06:29:33Z</time>
      </trkpt>
      <trkpt lat="45.14423" lon="5.93905">
        <ele>2218.4</ele>
        <time>2021-02-27T06:29:34Z</time>
      </trkpt>
      <trkpt lat="45.14423" lon="5.93909">
        <ele>2218.4</ele>
        <time>2021-02-27T06:29:35Z</time>
      </trkpt>
      <trkpt lat="45.14423" lon="5.93909">
        <ele>2218.8</ele>
        <time>2021-02-27T06:29:36Z</time>
      </trkpt>
      <trkpt lat="45.14423" lon="5.93909">
        <ele>2218.6</ele>
        <time>2021-02-27T06:29:37Z</time>
      </trkpt>
      <trkpt lat="45.14423" lon="5.93912">
        <ele>2218.6</ele>
        <time>2021-02-27T06:29:38Z</time>
      </trkpt>
      <trkpt lat="45.14423" lon="5.93912">
        <ele>2218.8</ele>
        <time>2021-02-27T06:29:39Z</time>
      </trkpt>
      <trkpt lat="45.14424" lon="5.93913">
        <ele>2218.8</ele>
        <time>2021-02-27T06:29:40Z</time>
      </trkpt>
      <trkpt lat="45.14424" lon="5.93915">
        <ele>2218.8</ele>
        <time>2021-02-27T06:29:41Z</time>
      </trkpt>
      <trkpt lat="45.14425" lon="5.93916">
        <ele>2219.2</ele>
        <time>2021-02-27T06:29:42Z</time>
      </trkpt>
      <trkpt lat="45.14425" lon="5.93917">
        <ele>2219.2</ele>
        <time>2021-02-27T06:29:43Z</time>
      </trkpt>
      <trkpt lat="45.14425" lon="5.93918">
        <ele>2219.4</ele>
        <time>2021-02-27T06:29:44Z</time>
      </trkpt>
      <trkpt lat="45.14426" lon="5.9392">
        <ele>2219.6</ele>
        <time>2021-02-27T06:29:45Z</time>
      </trkpt>
      <trkpt lat="45.14426" lon="5.93921">
        <ele>2219.6</ele>
        <time>2021-02-27T06:29:46Z</time>
      </trkpt>
      <trkpt lat="45.14426" lon="5.93922">
        <ele>2219.8</ele>
        <time>2021-02-27T06:29:47Z</time>
      </trkpt>
      <trkpt lat="45.14427" lon="5.93923">
        <ele>2220</ele>
        <time>2021-02-27T06:29:48Z</time>
      </trkpt>
      <trkpt lat="45.14427" lon="5.93925">
        <ele>2220</ele>
        <time>2021-02-27T06:29:49Z</time>
      </trkpt>
      <trkpt lat="45.14428" lon="5.93926">
        <ele>2220.4</ele>
        <time>2021-02-27T06:29:50Z</time>
      </trkpt>
      <trkpt lat="45.14428" lon="5.93926">
        <ele>2220.6</ele>
        <time>2021-02-27T06:29:51Z</time>
      </trkpt>
      <trkpt lat="45.14428" lon="5.93927">
        <ele>2220.6</ele>
        <time>2021-02-27T06:29:52Z</time>
      </trkpt>
      <trkpt lat="45.14429" lon="5.93928">
        <ele>2220.8</ele>
        <time>2021-02-27T06:29:53Z</time>
      </trkpt>
      <trkpt lat="45.14429" lon="5.93929">
        <ele>2220.8</ele>
        <time>2021-02-27T06:29:54Z</time>
      </trkpt>
      <trkpt lat="45.1443" lon="5.9393">
        <ele>2221</ele>
        <time>2021-02-27T06:29:55Z</time>
      </trkpt>
      <trkpt lat="45.1443" lon="5.93931">
        <ele>2221.4</ele>
        <time>2021-02-27T06:29:56Z</time>
      </trkpt>
      <trkpt lat="45.14431" lon="5.93932">
        <ele>2221.4</ele>
        <time>2021-02-27T06:29:57Z</time>
      </trkpt>
      <trkpt lat="45.14431" lon="5.93933">
        <ele>2221.6</ele>
        <time>2021-02-27T06:29:58Z</time>
      </trkpt>
      <trkpt lat="45.14432" lon="5.93934">
        <ele>2222</ele>
        <time>2021-02-27T06:29:59Z</time>
      </trkpt>
      <trkpt lat="45.14432" lon="5.93935">
        <ele>2222</ele>
        <time>2021-02-27T06:30:00Z</time>
      </trkpt>
      <trkpt lat="45.14433" lon="5.93936">
        <ele>2221.8</ele>
        <time>2021-02-27T06:30:01Z</time>
      </trkpt>
      <trkpt lat="45.14433" lon="5.93936">
        <ele>2222.2</ele>
        <time>2021-02-27T06:30:02Z</time>
      </trkpt>
      <trkpt lat="45.14433" lon="5.93937">
        <ele>2222.4</ele>
        <time>2021-02-27T06:30:03Z</time>
      </trkpt>
      <trkpt lat="45.14434" lon="5.93938">
        <ele>2222.4</ele>
        <time>2021-02-27T06:30:04Z</time>
      </trkpt>
      <trkpt lat="45.14434" lon="5.93939">
        <ele>2223</ele>
        <time>2021-02-27T06:30:05Z</time>
      </trkpt>
      <trkpt lat="45.14435" lon="5.9394">
        <ele>2223.2</ele>
        <time>2021-02-27T06:30:06Z</time>
      </trkpt>
      <trkpt lat="45.14435" lon="5.93941">
        <ele>2223.2</ele>
        <time>2021-02-27T06:30:07Z</time>
      </trkpt>
      <trkpt lat="45.14435" lon="5.93942">
        <ele>2223.6</ele>
        <time>2021-02-27T06:30:08Z</time>
      </trkpt>
      <trkpt lat="45.14436" lon="5.93942">
        <ele>2224</ele>
        <time>2021-02-27T06:30:09Z</time>
      </trkpt>
      <trkpt lat="45.14436" lon="5.93943">
        <ele>2224</ele>
        <time>2021-02-27T06:30:10Z</time>
      </trkpt>
      <trkpt lat="45.14436" lon="5.93944">
        <ele>2224.4</ele>
        <time>2021-02-27T06:30:11Z</time>
      </trkpt>
      <trkpt lat="45.14437" lon="5.93945">
        <ele>2224.4</ele>
        <time>2021-02-27T06:30:12Z</time>
      </trkpt>
      <trkpt lat="45.14437" lon="5.93946">
        <ele>2224.4</ele>
        <time>2021-02-27T06:30:13Z</time>
      </trkpt>
      <trkpt lat="45.14437" lon="5.93947">
        <ele>2224.8</ele>
        <time>2021-02-27T06:30:14Z</time>
      </trkpt>
      <trkpt lat="45.14438" lon="5.93948">
        <ele>2224.4</ele>
        <time>2021-02-27T06:30:15Z</time>
      </trkpt>
      <trkpt lat="45.14438" lon="5.93949">
        <ele>2224.8</ele>
        <time>2021-02-27T06:30:16Z</time>
      </trkpt>
      <trkpt lat="45.14438" lon="5.9395">
        <ele>2225</ele>
        <time>2021-02-27T06:30:17Z</time>
      </trkpt>
      <trkpt lat="45.14439" lon="5.93951">
        <ele>2225</ele>
        <time>2021-02-27T06:30:18Z</time>
      </trkpt>
      <trkpt lat="45.14439" lon="5.93952">
        <ele>2225.2</ele>
        <time>2021-02-27T06:30:19Z</time>
      </trkpt>
      <trkpt lat="45.14439" lon="5.93953">
        <ele>2225.4</ele>
        <time>2021-02-27T06:30:20Z</time>
      </trkpt>
      <trkpt lat="45.14439" lon="5.93954">
        <ele>2225.6</ele>
        <time>2021-02-27T06:30:21Z</time>
      </trkpt>
      <trkpt lat="45.14439" lon="5.93954">
        <ele>2226</ele>
        <time>2021-02-27T06:30:22Z</time>
      </trkpt>
      <trkpt lat="45.14439" lon="5.93954">
        <ele>2226.2</ele>
        <time>2021-02-27T06:30:23Z</time>
      </trkpt>
      <trkpt lat="45.14441" lon="5.93959">
        <ele>2226.2</ele>
        <time>2021-02-27T06:30:24Z</time>
      </trkpt>
      <trkpt lat="45.14441" lon="5.93959">
        <ele>2226.4</ele>
        <time>2021-02-27T06:30:25Z</time>
      </trkpt>
      <trkpt lat="45.14441" lon="5.93959">
        <ele>2226.4</ele>
        <time>2021-02-27T06:30:26Z</time>
      </trkpt>
      <trkpt lat="45.14441" lon="5.93959">
        <ele>2226.6</ele>
        <time>2021-02-27T06:30:27Z</time>
      </trkpt>
      <trkpt lat="45.14443" lon="5.93964">
        <ele>2226.8</ele>
        <time>2021-02-27T06:30:28Z</time>
      </trkpt>
      <trkpt lat="45.14443" lon="5.93964">
        <ele>2227</ele>
        <time>2021-02-27T06:30:29Z</time>
      </trkpt>
      <trkpt lat="45.14444" lon="5.93967">
        <ele>2227</ele>
        <time>2021-02-27T06:30:30Z</time>
      </trkpt>
      <trkpt lat="45.14444" lon="5.93967">
        <ele>2227</ele>
        <time>2021-02-27T06:30:31Z</time>
      </trkpt>
      <trkpt lat="45.14444" lon="5.93969">
        <ele>2227.4</ele>
        <time>2021-02-27T06:30:32Z</time>
      </trkpt>
      <trkpt lat="45.14444" lon="5.93969">
        <ele>2227.6</ele>
        <time>2021-02-27T06:30:33Z</time>
      </trkpt>
      <trkpt lat="45.14444" lon="5.93972">
        <ele>2227.6</ele>
        <time>2021-02-27T06:30:34Z</time>
      </trkpt>
      <trkpt lat="45.14444" lon="5.93972">
        <ele>2227.8</ele>
        <time>2021-02-27T06:30:35Z</time>
      </trkpt>
      <trkpt lat="45.14445" lon="5.93975">
        <ele>2228</ele>
        <time>2021-02-27T06:30:36Z</time>
      </trkpt>
      <trkpt lat="45.14445" lon="5.93975">
        <ele>2228</ele>
        <time>2021-02-27T06:30:37Z</time>
      </trkpt>
      <trkpt lat="45.14446" lon="5.93978">
        <ele>2228.4</ele>
        <time>2021-02-27T06:30:38Z</time>
      </trkpt>
      <trkpt lat="45.14446" lon="5.93978">
        <ele>2228.6</ele>
        <time>2021-02-27T06:30:39Z</time>
      </trkpt>
      <trkpt lat="45.14446" lon="5.93979">
        <ele>2228.6</ele>
        <time>2021-02-27T06:30:40Z</time>
      </trkpt>
      <trkpt lat="45.14446" lon="5.9398">
        <ele>2228.6</ele>
        <time>2021-02-27T06:30:41Z</time>
      </trkpt>
      <trkpt lat="45.14446" lon="5.93982">
        <ele>2228.8</ele>
        <time>2021-02-27T06:30:42Z</time>
      </trkpt>
      <trkpt lat="45.14447" lon="5.93983">
        <ele>2229</ele>
        <time>2021-02-27T06:30:43Z</time>
      </trkpt>
      <trkpt lat="45.14447" lon="5.93984">
        <ele>2229.4</ele>
        <time>2021-02-27T06:30:44Z</time>
      </trkpt>
      <trkpt lat="45.14447" lon="5.93985">
        <ele>2229.8</ele>
        <time>2021-02-27T06:30:45Z</time>
      </trkpt>
      <trkpt lat="45.14447" lon="5.93987">
        <ele>2230</ele>
        <time>2021-02-27T06:30:46Z</time>
      </trkpt>
      <trkpt lat="45.14447" lon="5.93988">
        <ele>2230.4</ele>
        <time>2021-02-27T06:30:47Z</time>
      </trkpt>
      <trkpt lat="45.14448" lon="5.93989">
        <ele>2230.4</ele>
        <time>2021-02-27T06:30:48Z</time>
      </trkpt>
      <trkpt lat="45.14448" lon="5.9399">
        <ele>2230.6</ele>
        <time>2021-02-27T06:30:49Z</time>
      </trkpt>
      <trkpt lat="45.14446" lon="5.93991">
        <ele>2230.8</ele>
        <time>2021-02-27T06:30:50Z</time>
      </trkpt>
      <trkpt lat="45.14446" lon="5.93991">
        <ele>2231.4</ele>
        <time>2021-02-27T06:30:51Z</time>
      </trkpt>
      <trkpt lat="45.14445" lon="5.93991">
        <ele>2231.6</ele>
        <time>2021-02-27T06:30:52Z</time>
      </trkpt>
      <trkpt lat="45.14444" lon="5.93991">
        <ele>2231.6</ele>
        <time>2021-02-27T06:30:53Z</time>
      </trkpt>
      <trkpt lat="45.14444" lon="5.93991">
        <ele>2232</ele>
        <time>2021-02-27T06:30:54Z</time>
      </trkpt>
      <trkpt lat="45.14443" lon="5.93991">
        <ele>2232.6</ele>
        <time>2021-02-27T06:30:55Z</time>
      </trkpt>
      <trkpt lat="45.14443" lon="5.93991">
        <ele>2232.4</ele>
        <time>2021-02-27T06:30:56Z</time>
      </trkpt>
      <trkpt lat="45.14442" lon="5.93991">
        <ele>2232.8</ele>
        <time>2021-02-27T06:30:57Z</time>
      </trkpt>
      <trkpt lat="45.14442" lon="5.93991">
        <ele>2233.2</ele>
        <time>2021-02-27T06:30:58Z</time>
      </trkpt>
      <trkpt lat="45.14441" lon="5.93991">
        <ele>2233.6</ele>
        <time>2021-02-27T06:30:59Z</time>
      </trkpt>
      <trkpt lat="45.14441" lon="5.93993">
        <ele>2233.8</ele>
        <time>2021-02-27T06:31:00Z</time>
      </trkpt>
      <trkpt lat="45.14441" lon="5.93994">
        <ele>2233.8</ele>
        <time>2021-02-27T06:31:01Z</time>
      </trkpt>
      <trkpt lat="45.14441" lon="5.93996">
        <ele>2234.2</ele>
        <time>2021-02-27T06:31:02Z</time>
      </trkpt>
      <trkpt lat="45.1444" lon="5.93998">
        <ele>2234.4</ele>
        <time>2021-02-27T06:31:03Z</time>
      </trkpt>
      <trkpt lat="45.1444" lon="5.93999">
        <ele>2234.4</ele>
        <time>2021-02-27T06:31:04Z</time>
      </trkpt>
      <trkpt lat="45.1444" lon="5.94001">
        <ele>2234.6</ele>
        <time>2021-02-27T06:31:05Z</time>
      </trkpt>
      <trkpt lat="45.1444" lon="5.94002">
        <ele>2234.8</ele>
        <time>2021-02-27T06:31:06Z</time>
      </trkpt>
      <trkpt lat="45.1444" lon="5.94004">
        <ele>2235.4</ele>
        <time>2021-02-27T06:31:07Z</time>
      </trkpt>
      <trkpt lat="45.1444" lon="5.94005">
        <ele>2235.4</ele>
        <time>2021-02-27T06:31:08Z</time>
      </trkpt>
      <trkpt lat="45.1444" lon="5.94007">
        <ele>2235.6</ele>
        <time>2021-02-27T06:31:09Z</time>
      </trkpt>
      <trkpt lat="45.1444" lon="5.94008">
        <ele>2236</ele>
        <time>2021-02-27T06:31:10Z</time>
      </trkpt>
      <trkpt lat="45.1444" lon="5.9401">
        <ele>2236</ele>
        <time>2021-02-27T06:31:11Z</time>
      </trkpt>
      <trkpt lat="45.14441" lon="5.94011">
        <ele>2236.2</ele>
        <time>2021-02-27T06:31:12Z</time>
      </trkpt>
      <trkpt lat="45.14441" lon="5.94013">
        <ele>2236.2</ele>
        <time>2021-02-27T06:31:13Z</time>
      </trkpt>
      <trkpt lat="45.14441" lon="5.94014">
        <ele>2236.6</ele>
        <time>2021-02-27T06:31:14Z</time>
      </trkpt>
      <trkpt lat="45.14441" lon="5.94016">
        <ele>2236.6</ele>
        <time>2021-02-27T06:31:15Z</time>
      </trkpt>
      <trkpt lat="45.14441" lon="5.94017">
        <ele>2237.2</ele>
        <time>2021-02-27T06:31:16Z</time>
      </trkpt>
      <trkpt lat="45.14441" lon="5.94018">
        <ele>2237.4</ele>
        <time>2021-02-27T06:31:17Z</time>
      </trkpt>
      <trkpt lat="45.14442" lon="5.9402">
        <ele>2237.6</ele>
        <time>2021-02-27T06:31:18Z</time>
      </trkpt>
      <trkpt lat="45.14442" lon="5.94021">
        <ele>2237.8</ele>
        <time>2021-02-27T06:31:19Z</time>
      </trkpt>
      <trkpt lat="45.14442" lon="5.94023">
        <ele>2237.8</ele>
        <time>2021-02-27T06:31:20Z</time>
      </trkpt>
      <trkpt lat="45.14443" lon="5.94024">
        <ele>2237.8</ele>
        <time>2021-02-27T06:31:21Z</time>
      </trkpt>
      <trkpt lat="45.14443" lon="5.94025">
        <ele>2238</ele>
        <time>2021-02-27T06:31:22Z</time>
      </trkpt>
      <trkpt lat="45.14443" lon="5.94027">
        <ele>2238.2</ele>
        <time>2021-02-27T06:31:23Z</time>
      </trkpt>
      <trkpt lat="45.14444" lon="5.94028">
        <ele>2238.4</ele>
        <time>2021-02-27T06:31:24Z</time>
      </trkpt>
      <trkpt lat="45.14444" lon="5.94029">
        <ele>2238.6</ele>
        <time>2021-02-27T06:31:25Z</time>
      </trkpt>
      <trkpt lat="45.14444" lon="5.94031">
        <ele>2238.6</ele>
        <time>2021-02-27T06:31:26Z</time>
      </trkpt>
      <trkpt lat="45.14444" lon="5.94032">
        <ele>2239</ele>
        <time>2021-02-27T06:31:27Z</time>
      </trkpt>
      <trkpt lat="45.14444" lon="5.94034">
        <ele>2239.4</ele>
        <time>2021-02-27T06:31:28Z</time>
      </trkpt>
      <trkpt lat="45.14444" lon="5.94035">
        <ele>2239.6</ele>
        <time>2021-02-27T06:31:29Z</time>
      </trkpt>
      <trkpt lat="45.14444" lon="5.94036">
        <ele>2240</ele>
        <time>2021-02-27T06:31:30Z</time>
      </trkpt>
      <trkpt lat="45.14444" lon="5.94038">
        <ele>2240.4</ele>
        <time>2021-02-27T06:31:31Z</time>
      </trkpt>
      <trkpt lat="45.14444" lon="5.94039">
        <ele>2240.6</ele>
        <time>2021-02-27T06:31:32Z</time>
      </trkpt>
      <trkpt lat="45.14444" lon="5.94041">
        <ele>2240.8</ele>
        <time>2021-02-27T06:31:33Z</time>
      </trkpt>
      <trkpt lat="45.14444" lon="5.94042">
        <ele>2241.2</ele>
        <time>2021-02-27T06:31:34Z</time>
      </trkpt>
      <trkpt lat="45.14443" lon="5.94044">
        <ele>2241.4</ele>
        <time>2021-02-27T06:31:35Z</time>
      </trkpt>
      <trkpt lat="45.14443" lon="5.94045">
        <ele>2241.6</ele>
        <time>2021-02-27T06:31:36Z</time>
      </trkpt>
      <trkpt lat="45.14442" lon="5.94047">
        <ele>2242</ele>
        <time>2021-02-27T06:31:37Z</time>
      </trkpt>
      <trkpt lat="45.14441" lon="5.94048">
        <ele>2242.2</ele>
        <time>2021-02-27T06:31:38Z</time>
      </trkpt>
      <trkpt lat="45.14441" lon="5.9405">
        <ele>2242.2</ele>
        <time>2021-02-27T06:31:39Z</time>
      </trkpt>
      <trkpt lat="45.1444" lon="5.94052">
        <ele>2242.4</ele>
        <time>2021-02-27T06:31:40Z</time>
      </trkpt>
      <trkpt lat="45.14439" lon="5.94053">
        <ele>2242.6</ele>
        <time>2021-02-27T06:31:41Z</time>
      </trkpt>
      <trkpt lat="45.14439" lon="5.94054">
        <ele>2243</ele>
        <time>2021-02-27T06:31:42Z</time>
      </trkpt>
      <trkpt lat="45.14439" lon="5.94056">
        <ele>2243.2</ele>
        <time>2021-02-27T06:31:43Z</time>
      </trkpt>
      <trkpt lat="45.14439" lon="5.94057">
        <ele>2243.4</ele>
        <time>2021-02-27T06:31:44Z</time>
      </trkpt>
      <trkpt lat="45.14439" lon="5.94059">
        <ele>2243.8</ele>
        <time>2021-02-27T06:31:45Z</time>
      </trkpt>
      <trkpt lat="45.14438" lon="5.9406">
        <ele>2244.2</ele>
        <time>2021-02-27T06:31:46Z</time>
      </trkpt>
      <trkpt lat="45.14438" lon="5.94061">
        <ele>2244.8</ele>
        <time>2021-02-27T06:31:47Z</time>
      </trkpt>
      <trkpt lat="45.14438" lon="5.94063">
        <ele>2245</ele>
        <time>2021-02-27T06:31:48Z</time>
      </trkpt>
      <trkpt lat="45.14438" lon="5.94064">
        <ele>2245.4</ele>
        <time>2021-02-27T06:31:49Z</time>
      </trkpt>
      <trkpt lat="45.14438" lon="5.94065">
        <ele>2245.8</ele>
        <time>2021-02-27T06:31:50Z</time>
      </trkpt>
      <trkpt lat="45.14437" lon="5.94067">
        <ele>2246</ele>
        <time>2021-02-27T06:31:51Z</time>
      </trkpt>
      <trkpt lat="45.14438" lon="5.94067">
        <ele>2246.2</ele>
        <time>2021-02-27T06:31:52Z</time>
      </trkpt>
      <trkpt lat="45.14438" lon="5.94068">
        <ele>2246.6</ele>
        <time>2021-02-27T06:31:53Z</time>
      </trkpt>
      <trkpt lat="45.14439" lon="5.94068">
        <ele>2247.2</ele>
        <time>2021-02-27T06:31:54Z</time>
      </trkpt>
      <trkpt lat="45.14439" lon="5.94069">
        <ele>2247.2</ele>
        <time>2021-02-27T06:31:55Z</time>
      </trkpt>
      <trkpt lat="45.14439" lon="5.9407">
        <ele>2247.8</ele>
        <time>2021-02-27T06:31:56Z</time>
      </trkpt>
      <trkpt lat="45.1444" lon="5.9407">
        <ele>2248.2</ele>
        <time>2021-02-27T06:31:57Z</time>
      </trkpt>
      <trkpt lat="45.1444" lon="5.94071">
        <ele>2248.4</ele>
        <time>2021-02-27T06:31:58Z</time>
      </trkpt>
      <trkpt lat="45.1444" lon="5.94071">
        <ele>2249</ele>
        <time>2021-02-27T06:31:59Z</time>
      </trkpt>
      <trkpt lat="45.14441" lon="5.94072">
        <ele>2249.6</ele>
        <time>2021-02-27T06:32:00Z</time>
      </trkpt>
      <trkpt lat="45.14441" lon="5.94073">
        <ele>2249.8</ele>
        <time>2021-02-27T06:32:01Z</time>
      </trkpt>
      <trkpt lat="45.14442" lon="5.94073">
        <ele>2250.2</ele>
        <time>2021-02-27T06:32:02Z</time>
      </trkpt>
      <trkpt lat="45.14442" lon="5.94074">
        <ele>2250.4</ele>
        <time>2021-02-27T06:32:03Z</time>
      </trkpt>
      <trkpt lat="45.14442" lon="5.94075">
        <ele>2250.6</ele>
        <time>2021-02-27T06:32:04Z</time>
      </trkpt>
      <trkpt lat="45.14443" lon="5.94075">
        <ele>2251</ele>
        <time>2021-02-27T06:32:05Z</time>
      </trkpt>
      <trkpt lat="45.14443" lon="5.94076">
        <ele>2251.4</ele>
        <time>2021-02-27T06:32:06Z</time>
      </trkpt>
      <trkpt lat="45.14443" lon="5.94076">
        <ele>2251.4</ele>
        <time>2021-02-27T06:32:07Z</time>
      </trkpt>
      <trkpt lat="45.14444" lon="5.94077">
        <ele>2251.6</ele>
        <time>2021-02-27T06:32:08Z</time>
      </trkpt>
      <trkpt lat="45.14444" lon="5.94078">
        <ele>2251.8</ele>
        <time>2021-02-27T06:32:09Z</time>
      </trkpt>
      <trkpt lat="45.14444" lon="5.94079">
        <ele>2252.2</ele>
        <time>2021-02-27T06:32:10Z</time>
      </trkpt>
      <trkpt lat="45.14444" lon="5.9408">
        <ele>2253</ele>
        <time>2021-02-27T06:32:11Z</time>
      </trkpt>
      <trkpt lat="45.14444" lon="5.94081">
        <ele>2253.2</ele>
        <time>2021-02-27T06:32:12Z</time>
      </trkpt>
      <trkpt lat="45.14444" lon="5.94082">
        <ele>2253.2</ele>
        <time>2021-02-27T06:32:13Z</time>
      </trkpt>
      <trkpt lat="45.14444" lon="5.94083">
        <ele>2253.6</ele>
        <time>2021-02-27T06:32:14Z</time>
      </trkpt>
      <trkpt lat="45.14444" lon="5.94085">
        <ele>2253.8</ele>
        <time>2021-02-27T06:32:15Z</time>
      </trkpt>
      <trkpt lat="45.14444" lon="5.94086">
        <ele>2254.2</ele>
        <time>2021-02-27T06:32:16Z</time>
      </trkpt>
      <trkpt lat="45.14444" lon="5.94087">
        <ele>2254.8</ele>
        <time>2021-02-27T06:32:17Z</time>
      </trkpt>
      <trkpt lat="45.14444" lon="5.94088">
        <ele>2255</ele>
        <time>2021-02-27T06:32:18Z</time>
      </trkpt>
      <trkpt lat="45.14444" lon="5.94089">
        <ele>2255.4</ele>
        <time>2021-02-27T06:32:19Z</time>
      </trkpt>
      <trkpt lat="45.14444" lon="5.9409">
        <ele>2256</ele>
        <time>2021-02-27T06:32:20Z</time>
      </trkpt>
      <trkpt lat="45.14444" lon="5.94091">
        <ele>2256</ele>
        <time>2021-02-27T06:32:21Z</time>
      </trkpt>
      <trkpt lat="45.14445" lon="5.94092">
        <ele>2256.2</ele>
        <time>2021-02-27T06:32:22Z</time>
      </trkpt>
      <trkpt lat="45.14445" lon="5.94092">
        <ele>2256.6</ele>
        <time>2021-02-27T06:32:23Z</time>
      </trkpt>
      <trkpt lat="45.14445" lon="5.94093">
        <ele>2256.4</ele>
        <time>2021-02-27T06:32:24Z</time>
      </trkpt>
      <trkpt lat="45.14445" lon="5.94094">
        <ele>2256.6</ele>
        <time>2021-02-27T06:32:25Z</time>
      </trkpt>
      <trkpt lat="45.14445" lon="5.94095">
        <ele>2256.8</ele>
        <time>2021-02-27T06:32:26Z</time>
      </trkpt>
      <trkpt lat="45.14445" lon="5.94095">
        <ele>2257</ele>
        <time>2021-02-27T06:32:27Z</time>
      </trkpt>
      <trkpt lat="45.14446" lon="5.94096">
        <ele>2257.2</ele>
        <time>2021-02-27T06:32:28Z</time>
      </trkpt>
      <trkpt lat="45.14446" lon="5.94097">
        <ele>2257.4</ele>
        <time>2021-02-27T06:32:29Z</time>
      </trkpt>
      <trkpt lat="45.14446" lon="5.94098">
        <ele>2257.8</ele>
        <time>2021-02-27T06:32:30Z</time>
      </trkpt>
      <trkpt lat="45.14446" lon="5.94099">
        <ele>2258</ele>
        <time>2021-02-27T06:32:31Z</time>
      </trkpt>
      <trkpt lat="45.14446" lon="5.94099">
        <ele>2258.2</ele>
        <time>2021-02-27T06:32:32Z</time>
      </trkpt>
      <trkpt lat="45.14446" lon="5.941">
        <ele>2258.4</ele>
        <time>2021-02-27T06:32:33Z</time>
      </trkpt>
      <trkpt lat="45.14447" lon="5.94101">
        <ele>2258.8</ele>
        <time>2021-02-27T06:32:34Z</time>
      </trkpt>
      <trkpt lat="45.14447" lon="5.94102">
        <ele>2259</ele>
        <time>2021-02-27T06:32:35Z</time>
      </trkpt>
      <trkpt lat="45.14447" lon="5.94102">
        <ele>2259.2</ele>
        <time>2021-02-27T06:32:36Z</time>
      </trkpt>
      <trkpt lat="45.14447" lon="5.94103">
        <ele>2259.8</ele>
        <time>2021-02-27T06:32:37Z</time>
      </trkpt>
      <trkpt lat="45.14448" lon="5.94104">
        <ele>2259.8</ele>
        <time>2021-02-27T06:32:38Z</time>
      </trkpt>
      <trkpt lat="45.14448" lon="5.94105">
        <ele>2260.2</ele>
        <time>2021-02-27T06:32:39Z</time>
      </trkpt>
      <trkpt lat="45.14448" lon="5.94105">
        <ele>2260.4</ele>
        <time>2021-02-27T06:32:40Z</time>
      </trkpt>
      <trkpt lat="45.14448" lon="5.94106">
        <ele>2260.6</ele>
        <time>2021-02-27T06:32:41Z</time>
      </trkpt>
      <trkpt lat="45.14449" lon="5.94107">
        <ele>2260.6</ele>
        <time>2021-02-27T06:32:42Z</time>
      </trkpt>
      <trkpt lat="45.14449" lon="5.94108">
        <ele>2260.8</ele>
        <time>2021-02-27T06:32:43Z</time>
      </trkpt>
      <trkpt lat="45.14449" lon="5.94109">
        <ele>2261</ele>
        <time>2021-02-27T06:32:44Z</time>
      </trkpt>
      <trkpt lat="45.1445" lon="5.94109">
        <ele>2261</ele>
        <time>2021-02-27T06:32:45Z</time>
      </trkpt>
      <trkpt lat="45.1445" lon="5.9411">
        <ele>2261.2</ele>
        <time>2021-02-27T06:32:46Z</time>
      </trkpt>
      <trkpt lat="45.1445" lon="5.94111">
        <ele>2261.4</ele>
        <time>2021-02-27T06:32:47Z</time>
      </trkpt>
      <trkpt lat="45.14451" lon="5.94112">
        <ele>2261.6</ele>
        <time>2021-02-27T06:32:48Z</time>
      </trkpt>
      <trkpt lat="45.14451" lon="5.94113">
        <ele>2261.6</ele>
        <time>2021-02-27T06:32:49Z</time>
      </trkpt>
      <trkpt lat="45.14451" lon="5.94113">
        <ele>2262</ele>
        <time>2021-02-27T06:32:50Z</time>
      </trkpt>
      <trkpt lat="45.14451" lon="5.94114">
        <ele>2262.2</ele>
        <time>2021-02-27T06:32:51Z</time>
      </trkpt>
      <trkpt lat="45.14452" lon="5.94115">
        <ele>2262.2</ele>
        <time>2021-02-27T06:32:52Z</time>
      </trkpt>
      <trkpt lat="45.14452" lon="5.94117">
        <ele>2262.4</ele>
        <time>2021-02-27T06:32:53Z</time>
      </trkpt>
      <trkpt lat="45.14453" lon="5.94118">
        <ele>2262.4</ele>
        <time>2021-02-27T06:32:54Z</time>
      </trkpt>
      <trkpt lat="45.14453" lon="5.94119">
        <ele>2262.4</ele>
        <time>2021-02-27T06:32:55Z</time>
      </trkpt>
      <trkpt lat="45.14454" lon="5.9412">
        <ele>2262.8</ele>
        <time>2021-02-27T06:32:56Z</time>
      </trkpt>
      <trkpt lat="45.14454" lon="5.94122">
        <ele>2262.8</ele>
        <time>2021-02-27T06:32:57Z</time>
      </trkpt>
      <trkpt lat="45.14455" lon="5.94123">
        <ele>2262.8</ele>
        <time>2021-02-27T06:32:58Z</time>
      </trkpt>
      <trkpt lat="45.14455" lon="5.94124">
        <ele>2263</ele>
        <time>2021-02-27T06:32:59Z</time>
      </trkpt>
      <trkpt lat="45.14456" lon="5.94125">
        <ele>2262.8</ele>
        <time>2021-02-27T06:33:00Z</time>
      </trkpt>
      <trkpt lat="45.14456" lon="5.94127">
        <ele>2262.8</ele>
        <time>2021-02-27T06:33:01Z</time>
      </trkpt>
      <trkpt lat="45.14457" lon="5.94128">
        <ele>2262.8</ele>
        <time>2021-02-27T06:33:02Z</time>
      </trkpt>
      <trkpt lat="45.14457" lon="5.94129">
        <ele>2263</ele>
        <time>2021-02-27T06:33:03Z</time>
      </trkpt>
      <trkpt lat="45.14458" lon="5.9413">
        <ele>2263.2</ele>
        <time>2021-02-27T06:33:04Z</time>
      </trkpt>
      <trkpt lat="45.14459" lon="5.94131">
        <ele>2263.2</ele>
        <time>2021-02-27T06:33:05Z</time>
      </trkpt>
      <trkpt lat="45.1446" lon="5.94132">
        <ele>2263.2</ele>
        <time>2021-02-27T06:33:06Z</time>
      </trkpt>
      <trkpt lat="45.1446" lon="5.94133">
        <ele>2263.4</ele>
        <time>2021-02-27T06:33:07Z</time>
      </trkpt>
      <trkpt lat="45.14461" lon="5.94134">
        <ele>2263.4</ele>
        <time>2021-02-27T06:33:08Z</time>
      </trkpt>
      <trkpt lat="45.14462" lon="5.94135">
        <ele>2263.6</ele>
        <time>2021-02-27T06:33:09Z</time>
      </trkpt>
      <trkpt lat="45.14463" lon="5.94136">
        <ele>2264</ele>
        <time>2021-02-27T06:33:10Z</time>
      </trkpt>
      <trkpt lat="45.14463" lon="5.94137">
        <ele>2264</ele>
        <time>2021-02-27T06:33:11Z</time>
      </trkpt>
      <trkpt lat="45.14464" lon="5.94137">
        <ele>2264.2</ele>
        <time>2021-02-27T06:33:12Z</time>
      </trkpt>
      <trkpt lat="45.14465" lon="5.94137">
        <ele>2264.2</ele>
        <time>2021-02-27T06:33:13Z</time>
      </trkpt>
      <trkpt lat="45.14466" lon="5.94138">
        <ele>2264.4</ele>
        <time>2021-02-27T06:33:14Z</time>
      </trkpt>
      <trkpt lat="45.14468" lon="5.94138">
        <ele>2264.6</ele>
        <time>2021-02-27T06:33:15Z</time>
      </trkpt>
      <trkpt lat="45.14469" lon="5.94138">
        <ele>2264.8</ele>
        <time>2021-02-27T06:33:16Z</time>
      </trkpt>
      <trkpt lat="45.1447" lon="5.94139">
        <ele>2264.8</ele>
        <time>2021-02-27T06:33:17Z</time>
      </trkpt>
      <trkpt lat="45.14471" lon="5.94139">
        <ele>2264.8</ele>
        <time>2021-02-27T06:33:18Z</time>
      </trkpt>
      <trkpt lat="45.14472" lon="5.94139">
        <ele>2265</ele>
        <time>2021-02-27T06:33:19Z</time>
      </trkpt>
      <trkpt lat="45.14473" lon="5.94139">
        <ele>2264.8</ele>
        <time>2021-02-27T06:33:20Z</time>
      </trkpt>
      <trkpt lat="45.14474" lon="5.9414">
        <ele>2264.8</ele>
        <time>2021-02-27T06:33:21Z</time>
      </trkpt>
      <trkpt lat="45.14475" lon="5.94141">
        <ele>2265</ele>
        <time>2021-02-27T06:33:22Z</time>
      </trkpt>
      <trkpt lat="45.14476" lon="5.94141">
        <ele>2265.2</ele>
        <time>2021-02-27T06:33:23Z</time>
      </trkpt>
      <trkpt lat="45.14477" lon="5.94142">
        <ele>2265.4</ele>
        <time>2021-02-27T06:33:24Z</time>
      </trkpt>
      <trkpt lat="45.14479" lon="5.94143">
        <ele>2265.2</ele>
        <time>2021-02-27T06:33:25Z</time>
      </trkpt>
      <trkpt lat="45.1448" lon="5.94143">
        <ele>2265.6</ele>
        <time>2021-02-27T06:33:26Z</time>
      </trkpt>
      <trkpt lat="45.14481" lon="5.94144">
        <ele>2266</ele>
        <time>2021-02-27T06:33:27Z</time>
      </trkpt>
      <trkpt lat="45.14482" lon="5.94145">
        <ele>2266.2</ele>
        <time>2021-02-27T06:33:28Z</time>
      </trkpt>
      <trkpt lat="45.14483" lon="5.94146">
        <ele>2266.2</ele>
        <time>2021-02-27T06:33:29Z</time>
      </trkpt>
      <trkpt lat="45.14484" lon="5.94146">
        <ele>2266.6</ele>
        <time>2021-02-27T06:33:30Z</time>
      </trkpt>
      <trkpt lat="45.14485" lon="5.94147">
        <ele>2266.8</ele>
        <time>2021-02-27T06:33:31Z</time>
      </trkpt>
      <trkpt lat="45.14486" lon="5.94148">
        <ele>2267</ele>
        <time>2021-02-27T06:33:32Z</time>
      </trkpt>
      <trkpt lat="45.14486" lon="5.94149">
        <ele>2267.2</ele>
        <time>2021-02-27T06:33:33Z</time>
      </trkpt>
      <trkpt lat="45.14487" lon="5.94149">
        <ele>2267.4</ele>
        <time>2021-02-27T06:33:34Z</time>
      </trkpt>
      <trkpt lat="45.14488" lon="5.9415">
        <ele>2267.4</ele>
        <time>2021-02-27T06:33:35Z</time>
      </trkpt>
      <trkpt lat="45.14489" lon="5.94151">
        <ele>2268.2</ele>
        <time>2021-02-27T06:33:36Z</time>
      </trkpt>
      <trkpt lat="45.1449" lon="5.94152">
        <ele>2268.6</ele>
        <time>2021-02-27T06:33:37Z</time>
      </trkpt>
      <trkpt lat="45.14491" lon="5.94153">
        <ele>2268.6</ele>
        <time>2021-02-27T06:33:38Z</time>
      </trkpt>
      <trkpt lat="45.14492" lon="5.94154">
        <ele>2269</ele>
        <time>2021-02-27T06:33:39Z</time>
      </trkpt>
      <trkpt lat="45.14493" lon="5.94155">
        <ele>2269.4</ele>
        <time>2021-02-27T06:33:40Z</time>
      </trkpt>
      <trkpt lat="45.14495" lon="5.94156">
        <ele>2269.8</ele>
        <time>2021-02-27T06:33:41Z</time>
      </trkpt>
      <trkpt lat="45.14496" lon="5.94157">
        <ele>2269.8</ele>
        <time>2021-02-27T06:33:42Z</time>
      </trkpt>
      <trkpt lat="45.14497" lon="5.94158">
        <ele>2270</ele>
        <time>2021-02-27T06:33:43Z</time>
      </trkpt>
      <trkpt lat="45.14498" lon="5.94159">
        <ele>2270.2</ele>
        <time>2021-02-27T06:33:44Z</time>
      </trkpt>
      <trkpt lat="45.14498" lon="5.94159">
        <ele>2270.2</ele>
        <time>2021-02-27T06:33:45Z</time>
      </trkpt>
      <trkpt lat="45.14501" lon="5.94161">
        <ele>2270.4</ele>
        <time>2021-02-27T06:33:46Z</time>
      </trkpt>
      <trkpt lat="45.14501" lon="5.94161">
        <ele>2270.2</ele>
        <time>2021-02-27T06:33:47Z</time>
      </trkpt>
      <trkpt lat="45.14502" lon="5.94162">
        <ele>2270.4</ele>
        <time>2021-02-27T06:33:48Z</time>
      </trkpt>
      <trkpt lat="45.14503" lon="5.94163">
        <ele>2270.4</ele>
        <time>2021-02-27T06:33:49Z</time>
      </trkpt>
      <trkpt lat="45.14505" lon="5.94164">
        <ele>2270.8</ele>
        <time>2021-02-27T06:33:50Z</time>
      </trkpt>
      <trkpt lat="45.14506" lon="5.94165">
        <ele>2271</ele>
        <time>2021-02-27T06:33:51Z</time>
      </trkpt>
      <trkpt lat="45.14507" lon="5.94166">
        <ele>2271.4</ele>
        <time>2021-02-27T06:33:52Z</time>
      </trkpt>
      <trkpt lat="45.14508" lon="5.94167">
        <ele>2271.6</ele>
        <time>2021-02-27T06:33:53Z</time>
      </trkpt>
      <trkpt lat="45.14509" lon="5.94167">
        <ele>2272</ele>
        <time>2021-02-27T06:33:54Z</time>
      </trkpt>
      <trkpt lat="45.14509" lon="5.94168">
        <ele>2272.4</ele>
        <time>2021-02-27T06:33:55Z</time>
      </trkpt>
      <trkpt lat="45.1451" lon="5.94169">
        <ele>2272.6</ele>
        <time>2021-02-27T06:33:56Z</time>
      </trkpt>
      <trkpt lat="45.14511" lon="5.94169">
        <ele>2272.4</ele>
        <time>2021-02-27T06:33:57Z</time>
      </trkpt>
      <trkpt lat="45.14512" lon="5.9417">
        <ele>2272.6</ele>
        <time>2021-02-27T06:33:58Z</time>
      </trkpt>
      <trkpt lat="45.14513" lon="5.9417">
        <ele>2272.6</ele>
        <time>2021-02-27T06:33:59Z</time>
      </trkpt>
      <trkpt lat="45.14514" lon="5.94171">
        <ele>2273</ele>
        <time>2021-02-27T06:34:00Z</time>
      </trkpt>
      <trkpt lat="45.14515" lon="5.94172">
        <ele>2273.4</ele>
        <time>2021-02-27T06:34:01Z</time>
      </trkpt>
      <trkpt lat="45.14515" lon="5.94172">
        <ele>2273.4</ele>
        <time>2021-02-27T06:34:02Z</time>
      </trkpt>
      <trkpt lat="45.14516" lon="5.94173">
        <ele>2273.8</ele>
        <time>2021-02-27T06:34:03Z</time>
      </trkpt>
      <trkpt lat="45.14517" lon="5.94174">
        <ele>2274.2</ele>
        <time>2021-02-27T06:34:04Z</time>
      </trkpt>
      <trkpt lat="45.14517" lon="5.94175">
        <ele>2274.4</ele>
        <time>2021-02-27T06:34:05Z</time>
      </trkpt>
      <trkpt lat="45.14518" lon="5.94175">
        <ele>2275</ele>
        <time>2021-02-27T06:34:06Z</time>
      </trkpt>
      <trkpt lat="45.14518" lon="5.94176">
        <ele>2275.2</ele>
        <time>2021-02-27T06:34:07Z</time>
      </trkpt>
      <trkpt lat="45.14519" lon="5.94177">
        <ele>2275.4</ele>
        <time>2021-02-27T06:34:08Z</time>
      </trkpt>
      <trkpt lat="45.14519" lon="5.94178">
        <ele>2275.8</ele>
        <time>2021-02-27T06:34:09Z</time>
      </trkpt>
      <trkpt lat="45.14519" lon="5.94178">
        <ele>2276.2</ele>
        <time>2021-02-27T06:34:10Z</time>
      </trkpt>
      <trkpt lat="45.14519" lon="5.94178">
        <ele>2276.4</ele>
        <time>2021-02-27T06:34:11Z</time>
      </trkpt>
      <trkpt lat="45.14519" lon="5.94178">
        <ele>2276.4</ele>
        <time>2021-02-27T06:34:12Z</time>
      </trkpt>
      <trkpt lat="45.14519" lon="5.94178">
        <ele>2276.6</ele>
        <time>2021-02-27T06:34:13Z</time>
      </trkpt>
      <trkpt lat="45.14519" lon="5.94178">
        <ele>2276.6</ele>
        <time>2021-02-27T06:34:14Z</time>
      </trkpt>
      <trkpt lat="45.14519" lon="5.94178">
        <ele>2276.8</ele>
        <time>2021-02-27T06:34:15Z</time>
      </trkpt>
      <trkpt lat="45.14519" lon="5.94178">
        <ele>2276.6</ele>
        <time>2021-02-27T06:34:16Z</time>
      </trkpt>
      <trkpt lat="45.14519" lon="5.94178">
        <ele>2276.8</ele>
        <time>2021-02-27T06:34:17Z</time>
      </trkpt>
      <trkpt lat="45.14519" lon="5.94178">
        <ele>2276.8</ele>
        <time>2021-02-27T06:34:18Z</time>
      </trkpt>
      <trkpt lat="45.14519" lon="5.94178">
        <ele>2276.8</ele>
        <time>2021-02-27T06:34:19Z</time>
      </trkpt>
      <trkpt lat="45.14519" lon="5.94178">
        <ele>2277</ele>
        <time>2021-02-27T06:34:20Z</time>
      </trkpt>
      <trkpt lat="45.14519" lon="5.94178">
        <ele>2277</ele>
        <time>2021-02-27T06:34:21Z</time>
      </trkpt>
      <trkpt lat="45.14519" lon="5.94178">
        <ele>2276.8</ele>
        <time>2021-02-27T06:34:22Z</time>
      </trkpt>
      <trkpt lat="45.14518" lon="5.9418">
        <ele>2276.6</ele>
        <time>2021-02-27T06:34:23Z</time>
      </trkpt>
      <trkpt lat="45.14518" lon="5.9418">
        <ele>2276.8</ele>
        <time>2021-02-27T06:34:24Z</time>
      </trkpt>
      <trkpt lat="45.14516" lon="5.94184">
        <ele>2276.4</ele>
        <time>2021-02-27T06:34:25Z</time>
      </trkpt>
      <trkpt lat="45.14514" lon="5.94187">
        <ele>2275.6</ele>
        <time>2021-02-27T06:34:26Z</time>
      </trkpt>
      <trkpt lat="45.14514" lon="5.94187">
        <ele>2275.6</ele>
        <time>2021-02-27T06:34:27Z</time>
      </trkpt>
      <trkpt lat="45.14513" lon="5.9419">
        <ele>2274.8</ele>
        <time>2021-02-27T06:34:28Z</time>
      </trkpt>
      <trkpt lat="45.14513" lon="5.9419">
        <ele>2274.8</ele>
        <time>2021-02-27T06:34:29Z</time>
      </trkpt>
      <trkpt lat="45.14512" lon="5.94193">
        <ele>2274.6</ele>
        <time>2021-02-27T06:34:30Z</time>
      </trkpt>
      <trkpt lat="45.14512" lon="5.94193">
        <ele>2274.4</ele>
        <time>2021-02-27T06:34:31Z</time>
      </trkpt>
      <trkpt lat="45.14511" lon="5.94196">
        <ele>2274.4</ele>
        <time>2021-02-27T06:34:32Z</time>
      </trkpt>
      <trkpt lat="45.14511" lon="5.94196">
        <ele>2274.6</ele>
        <time>2021-02-27T06:34:33Z</time>
      </trkpt>
      <trkpt lat="45.1451" lon="5.94196">
        <ele>2274.8</ele>
        <time>2021-02-27T06:34:34Z</time>
      </trkpt>
      <trkpt lat="45.14509" lon="5.94196">
        <ele>2275.4</ele>
        <time>2021-02-27T06:34:35Z</time>
      </trkpt>
      <trkpt lat="45.14507" lon="5.94196">
        <ele>2276</ele>
        <time>2021-02-27T06:34:36Z</time>
      </trkpt>
      <trkpt lat="45.14506" lon="5.94196">
        <ele>2276</ele>
        <time>2021-02-27T06:34:37Z</time>
      </trkpt>
      <trkpt lat="45.14505" lon="5.94196">
        <ele>2276.6</ele>
        <time>2021-02-27T06:34:38Z</time>
      </trkpt>
      <trkpt lat="45.14504" lon="5.94196">
        <ele>2277.2</ele>
        <time>2021-02-27T06:34:39Z</time>
      </trkpt>
      <trkpt lat="45.14503" lon="5.94196">
        <ele>2277.4</ele>
        <time>2021-02-27T06:34:40Z</time>
      </trkpt>
      <trkpt lat="45.14501" lon="5.94195">
        <ele>2277.8</ele>
        <time>2021-02-27T06:34:41Z</time>
      </trkpt>
      <trkpt lat="45.14501" lon="5.94195">
        <ele>2278.2</ele>
        <time>2021-02-27T06:34:42Z</time>
      </trkpt>
      <trkpt lat="45.14499" lon="5.94193">
        <ele>2278.2</ele>
        <time>2021-02-27T06:34:43Z</time>
      </trkpt>
      <trkpt lat="45.14499" lon="5.94193">
        <ele>2278.8</ele>
        <time>2021-02-27T06:34:44Z</time>
      </trkpt>
      <trkpt lat="45.14499" lon="5.94193">
        <ele>2279</ele>
        <time>2021-02-27T06:34:45Z</time>
      </trkpt>
      <trkpt lat="45.14497" lon="5.94193">
        <ele>2279.2</ele>
        <time>2021-02-27T06:34:46Z</time>
      </trkpt>
      <trkpt lat="45.14497" lon="5.94193">
        <ele>2279.8</ele>
        <time>2021-02-27T06:34:47Z</time>
      </trkpt>
      <trkpt lat="45.14494" lon="5.94192">
        <ele>2279.8</ele>
        <time>2021-02-27T06:34:48Z</time>
      </trkpt>
      <trkpt lat="45.14494" lon="5.94192">
        <ele>2280.2</ele>
        <time>2021-02-27T06:34:49Z</time>
      </trkpt>
      <trkpt lat="45.14493" lon="5.94192">
        <ele>2280.4</ele>
        <time>2021-02-27T06:34:50Z</time>
      </trkpt>
      <trkpt lat="45.14492" lon="5.94191">
        <ele>2281</ele>
        <time>2021-02-27T06:34:51Z</time>
      </trkpt>
      <trkpt lat="45.14491" lon="5.94191">
        <ele>2281.6</ele>
        <time>2021-02-27T06:34:52Z</time>
      </trkpt>
      <trkpt lat="45.1449" lon="5.94191">
        <ele>2281.8</ele>
        <time>2021-02-27T06:34:53Z</time>
      </trkpt>
      <trkpt lat="45.14489" lon="5.9419">
        <ele>2281.6</ele>
        <time>2021-02-27T06:34:54Z</time>
      </trkpt>
      <trkpt lat="45.14488" lon="5.9419">
        <ele>2282.2</ele>
        <time>2021-02-27T06:34:55Z</time>
      </trkpt>
      <trkpt lat="45.14487" lon="5.9419">
        <ele>2282.8</ele>
        <time>2021-02-27T06:34:56Z</time>
      </trkpt>
      <trkpt lat="45.14486" lon="5.94189">
        <ele>2283</ele>
        <time>2021-02-27T06:34:57Z</time>
      </trkpt>
      <trkpt lat="45.14485" lon="5.94189">
        <ele>2283.2</ele>
        <time>2021-02-27T06:34:58Z</time>
      </trkpt>
      <trkpt lat="45.14484" lon="5.94188">
        <ele>2283.4</ele>
        <time>2021-02-27T06:34:59Z</time>
      </trkpt>
      <trkpt lat="45.14482" lon="5.94188">
        <ele>2283.2</ele>
        <time>2021-02-27T06:35:00Z</time>
      </trkpt>
      <trkpt lat="45.14481" lon="5.94188">
        <ele>2283.6</ele>
        <time>2021-02-27T06:35:01Z</time>
      </trkpt>
      <trkpt lat="45.1448" lon="5.94187">
        <ele>2284</ele>
        <time>2021-02-27T06:35:02Z</time>
      </trkpt>
      <trkpt lat="45.14479" lon="5.94187">
        <ele>2284</ele>
        <time>2021-02-27T06:35:03Z</time>
      </trkpt>
      <trkpt lat="45.14478" lon="5.94186">
        <ele>2284</ele>
        <time>2021-02-27T06:35:04Z</time>
      </trkpt>
      <trkpt lat="45.14477" lon="5.94186">
        <ele>2284.2</ele>
        <time>2021-02-27T06:35:05Z</time>
      </trkpt>
      <trkpt lat="45.14476" lon="5.94185">
        <ele>2284.4</ele>
        <time>2021-02-27T06:35:06Z</time>
      </trkpt>
      <trkpt lat="45.14475" lon="5.94185">
        <ele>2284.4</ele>
        <time>2021-02-27T06:35:07Z</time>
      </trkpt>
      <trkpt lat="45.14474" lon="5.94184">
        <ele>2284.4</ele>
        <time>2021-02-27T06:35:08Z</time>
      </trkpt>
      <trkpt lat="45.14473" lon="5.94182">
        <ele>2284</ele>
        <time>2021-02-27T06:35:09Z</time>
      </trkpt>
      <trkpt lat="45.14471" lon="5.94181">
        <ele>2284</ele>
        <time>2021-02-27T06:35:10Z</time>
      </trkpt>
      <trkpt lat="45.1447" lon="5.9418">
        <ele>2284</ele>
        <time>2021-02-27T06:35:11Z</time>
      </trkpt>
      <trkpt lat="45.14469" lon="5.94179">
        <ele>2284.2</ele>
        <time>2021-02-27T06:35:12Z</time>
      </trkpt>
      <trkpt lat="45.14468" lon="5.94177">
        <ele>2284.4</ele>
        <time>2021-02-27T06:35:13Z</time>
      </trkpt>
      <trkpt lat="45.14467" lon="5.94176">
        <ele>2284.6</ele>
        <time>2021-02-27T06:35:14Z</time>
      </trkpt>
      <trkpt lat="45.14466" lon="5.94175">
        <ele>2285</ele>
        <time>2021-02-27T06:35:15Z</time>
      </trkpt>
      <trkpt lat="45.14464" lon="5.94174">
        <ele>2285</ele>
        <time>2021-02-27T06:35:16Z</time>
      </trkpt>
      <trkpt lat="45.14463" lon="5.94173">
        <ele>2285.2</ele>
        <time>2021-02-27T06:35:17Z</time>
      </trkpt>
      <trkpt lat="45.14462" lon="5.94172">
        <ele>2285.2</ele>
        <time>2021-02-27T06:35:18Z</time>
      </trkpt>
      <trkpt lat="45.1446" lon="5.94171">
        <ele>2285.2</ele>
        <time>2021-02-27T06:35:19Z</time>
      </trkpt>
      <trkpt lat="45.14459" lon="5.94169">
        <ele>2285</ele>
        <time>2021-02-27T06:35:20Z</time>
      </trkpt>
      <trkpt lat="45.14458" lon="5.94168">
        <ele>2285</ele>
        <time>2021-02-27T06:35:21Z</time>
      </trkpt>
      <trkpt lat="45.14458" lon="5.94168">
        <ele>2285</ele>
        <time>2021-02-27T06:35:22Z</time>
      </trkpt>
      <trkpt lat="45.14457" lon="5.94167">
        <ele>2284.8</ele>
        <time>2021-02-27T06:35:23Z</time>
      </trkpt>
      <trkpt lat="45.14456" lon="5.94166">
        <ele>2284.6</ele>
        <time>2021-02-27T06:35:24Z</time>
      </trkpt>
      <trkpt lat="45.14456" lon="5.94165">
        <ele>2284.6</ele>
        <time>2021-02-27T06:35:25Z</time>
      </trkpt>
      <trkpt lat="45.14455" lon="5.94164">
        <ele>2284.6</ele>
        <time>2021-02-27T06:35:26Z</time>
      </trkpt>
      <trkpt lat="45.14455" lon="5.94163">
        <ele>2284.6</ele>
        <time>2021-02-27T06:35:27Z</time>
      </trkpt>
      <trkpt lat="45.14454" lon="5.94162">
        <ele>2284.8</ele>
        <time>2021-02-27T06:35:28Z</time>
      </trkpt>
      <trkpt lat="45.14453" lon="5.94161">
        <ele>2284.8</ele>
        <time>2021-02-27T06:35:29Z</time>
      </trkpt>
      <trkpt lat="45.14453" lon="5.9416">
        <ele>2284.6</ele>
        <time>2021-02-27T06:35:30Z</time>
      </trkpt>
      <trkpt lat="45.14452" lon="5.9416">
        <ele>2284.6</ele>
        <time>2021-02-27T06:35:31Z</time>
      </trkpt>
      <trkpt lat="45.14451" lon="5.9416">
        <ele>2284.6</ele>
        <time>2021-02-27T06:35:32Z</time>
      </trkpt>
      <trkpt lat="45.14451" lon="5.94159">
        <ele>2284.4</ele>
        <time>2021-02-27T06:35:33Z</time>
      </trkpt>
      <trkpt lat="45.1445" lon="5.94159">
        <ele>2284.2</ele>
        <time>2021-02-27T06:35:34Z</time>
      </trkpt>
      <trkpt lat="45.1445" lon="5.94159">
        <ele>2284.4</ele>
        <time>2021-02-27T06:35:35Z</time>
      </trkpt>
      <trkpt lat="45.14449" lon="5.94159">
        <ele>2284.4</ele>
        <time>2021-02-27T06:35:36Z</time>
      </trkpt>
      <trkpt lat="45.14448" lon="5.94159">
        <ele>2284</ele>
        <time>2021-02-27T06:35:37Z</time>
      </trkpt>
      <trkpt lat="45.14448" lon="5.94159">
        <ele>2283.6</ele>
        <time>2021-02-27T06:35:38Z</time>
      </trkpt>
      <trkpt lat="45.14447" lon="5.94159">
        <ele>2283.2</ele>
        <time>2021-02-27T06:35:39Z</time>
      </trkpt>
      <trkpt lat="45.14446" lon="5.94159">
        <ele>2283.4</ele>
        <time>2021-02-27T06:35:40Z</time>
      </trkpt>
      <trkpt lat="45.14446" lon="5.94159">
        <ele>2283.6</ele>
        <time>2021-02-27T06:35:41Z</time>
      </trkpt>
      <trkpt lat="45.14445" lon="5.94159">
        <ele>2283.6</ele>
        <time>2021-02-27T06:35:42Z</time>
      </trkpt>
      <trkpt lat="45.14445" lon="5.94158">
        <ele>2283.6</ele>
        <time>2021-02-27T06:35:43Z</time>
      </trkpt>
      <trkpt lat="45.14444" lon="5.94158">
        <ele>2283.2</ele>
        <time>2021-02-27T06:35:44Z</time>
      </trkpt>
      <trkpt lat="45.14443" lon="5.94158">
        <ele>2283.4</ele>
        <time>2021-02-27T06:35:45Z</time>
      </trkpt>
      <trkpt lat="45.14443" lon="5.94158">
        <ele>2283.4</ele>
        <time>2021-02-27T06:35:46Z</time>
      </trkpt>
      <trkpt lat="45.14442" lon="5.94158">
        <ele>2283.8</ele>
        <time>2021-02-27T06:35:47Z</time>
      </trkpt>
      <trkpt lat="45.14441" lon="5.94157">
        <ele>2284</ele>
        <time>2021-02-27T06:35:48Z</time>
      </trkpt>
      <trkpt lat="45.1444" lon="5.94157">
        <ele>2284</ele>
        <time>2021-02-27T06:35:49Z</time>
      </trkpt>
      <trkpt lat="45.1444" lon="5.94157">
        <ele>2284.2</ele>
        <time>2021-02-27T06:35:50Z</time>
      </trkpt>
      <trkpt lat="45.14439" lon="5.94156">
        <ele>2284.6</ele>
        <time>2021-02-27T06:35:51Z</time>
      </trkpt>
      <trkpt lat="45.14438" lon="5.94156">
        <ele>2284.6</ele>
        <time>2021-02-27T06:35:52Z</time>
      </trkpt>
      <trkpt lat="45.14437" lon="5.94156">
        <ele>2284.8</ele>
        <time>2021-02-27T06:35:53Z</time>
      </trkpt>
      <trkpt lat="45.14437" lon="5.94156">
        <ele>2284.8</ele>
        <time>2021-02-27T06:35:54Z</time>
      </trkpt>
      <trkpt lat="45.14436" lon="5.94155">
        <ele>2285</ele>
        <time>2021-02-27T06:35:55Z</time>
      </trkpt>
      <trkpt lat="45.14435" lon="5.94155">
        <ele>2285</ele>
        <time>2021-02-27T06:35:56Z</time>
      </trkpt>
      <trkpt lat="45.14434" lon="5.94155">
        <ele>2284.8</ele>
        <time>2021-02-27T06:35:57Z</time>
      </trkpt>
      <trkpt lat="45.14433" lon="5.94155">
        <ele>2285.2</ele>
        <time>2021-02-27T06:35:58Z</time>
      </trkpt>
      <trkpt lat="45.14432" lon="5.94155">
        <ele>2285.4</ele>
        <time>2021-02-27T06:35:59Z</time>
      </trkpt>
      <trkpt lat="45.14431" lon="5.94155">
        <ele>2285.8</ele>
        <time>2021-02-27T06:36:00Z</time>
      </trkpt>
      <trkpt lat="45.1443" lon="5.94155">
        <ele>2285.4</ele>
        <time>2021-02-27T06:36:01Z</time>
      </trkpt>
      <trkpt lat="45.14429" lon="5.94155">
        <ele>2285.8</ele>
        <time>2021-02-27T06:36:02Z</time>
      </trkpt>
      <trkpt lat="45.14428" lon="5.94155">
        <ele>2285.8</ele>
        <time>2021-02-27T06:36:03Z</time>
      </trkpt>
      <trkpt lat="45.14427" lon="5.94155">
        <ele>2286</ele>
        <time>2021-02-27T06:36:04Z</time>
      </trkpt>
      <trkpt lat="45.14426" lon="5.94155">
        <ele>2286.4</ele>
        <time>2021-02-27T06:36:05Z</time>
      </trkpt>
      <trkpt lat="45.14424" lon="5.94156">
        <ele>2286.4</ele>
        <time>2021-02-27T06:36:06Z</time>
      </trkpt>
      <trkpt lat="45.14423" lon="5.94155">
        <ele>2286.6</ele>
        <time>2021-02-27T06:36:07Z</time>
      </trkpt>
      <trkpt lat="45.14422" lon="5.94155">
        <ele>2286.6</ele>
        <time>2021-02-27T06:36:08Z</time>
      </trkpt>
      <trkpt lat="45.14421" lon="5.94155">
        <ele>2286.6</ele>
        <time>2021-02-27T06:36:09Z</time>
      </trkpt>
      <trkpt lat="45.14419" lon="5.94155">
        <ele>2287</ele>
        <time>2021-02-27T06:36:10Z</time>
      </trkpt>
      <trkpt lat="45.14418" lon="5.94155">
        <ele>2287.4</ele>
        <time>2021-02-27T06:36:11Z</time>
      </trkpt>
      <trkpt lat="45.14417" lon="5.94155">
        <ele>2287.4</ele>
        <time>2021-02-27T06:36:12Z</time>
      </trkpt>
      <trkpt lat="45.14416" lon="5.94155">
        <ele>2287.6</ele>
        <time>2021-02-27T06:36:13Z</time>
      </trkpt>
      <trkpt lat="45.14414" lon="5.94155">
        <ele>2287.8</ele>
        <time>2021-02-27T06:36:14Z</time>
      </trkpt>
      <trkpt lat="45.14413" lon="5.94155">
        <ele>2288</ele>
        <time>2021-02-27T06:36:15Z</time>
      </trkpt>
      <trkpt lat="45.14412" lon="5.94155">
        <ele>2288.2</ele>
        <time>2021-02-27T06:36:16Z</time>
      </trkpt>
      <trkpt lat="45.1441" lon="5.94155">
        <ele>2288.6</ele>
        <time>2021-02-27T06:36:17Z</time>
      </trkpt>
      <trkpt lat="45.14409" lon="5.94155">
        <ele>2288.6</ele>
        <time>2021-02-27T06:36:18Z</time>
      </trkpt>
      <trkpt lat="45.14408" lon="5.94155">
        <ele>2289.4</ele>
        <time>2021-02-27T06:36:19Z</time>
      </trkpt>
      <trkpt lat="45.14407" lon="5.94155">
        <ele>2289.2</ele>
        <time>2021-02-27T06:36:20Z</time>
      </trkpt>
      <trkpt lat="45.14405" lon="5.94155">
        <ele>2289.6</ele>
        <time>2021-02-27T06:36:21Z</time>
      </trkpt>
      <trkpt lat="45.14404" lon="5.94155">
        <ele>2289.4</ele>
        <time>2021-02-27T06:36:22Z</time>
      </trkpt>
      <trkpt lat="45.14403" lon="5.94155">
        <ele>2289.4</ele>
        <time>2021-02-27T06:36:23Z</time>
      </trkpt>
      <trkpt lat="45.14402" lon="5.94154">
        <ele>2290</ele>
        <time>2021-02-27T06:36:24Z</time>
      </trkpt>
      <trkpt lat="45.14401" lon="5.94154">
        <ele>2290</ele>
        <time>2021-02-27T06:36:25Z</time>
      </trkpt>
      <trkpt lat="45.144" lon="5.94154">
        <ele>2290</ele>
        <time>2021-02-27T06:36:26Z</time>
      </trkpt>
      <trkpt lat="45.144" lon="5.94153">
        <ele>2290.2</ele>
        <time>2021-02-27T06:36:27Z</time>
      </trkpt>
      <trkpt lat="45.14399" lon="5.94153">
        <ele>2290.2</ele>
        <time>2021-02-27T06:36:28Z</time>
      </trkpt>
      <trkpt lat="45.14398" lon="5.94153">
        <ele>2290.4</ele>
        <time>2021-02-27T06:36:29Z</time>
      </trkpt>
      <trkpt lat="45.14397" lon="5.94153">
        <ele>2291</ele>
        <time>2021-02-27T06:36:30Z</time>
      </trkpt>
      <trkpt lat="45.14396" lon="5.94152">
        <ele>2291</ele>
        <time>2021-02-27T06:36:31Z</time>
      </trkpt>
      <trkpt lat="45.14395" lon="5.94152">
        <ele>2291</ele>
        <time>2021-02-27T06:36:32Z</time>
      </trkpt>
      <trkpt lat="45.14394" lon="5.94152">
        <ele>2291.4</ele>
        <time>2021-02-27T06:36:33Z</time>
      </trkpt>
      <trkpt lat="45.14393" lon="5.94152">
        <ele>2291.6</ele>
        <time>2021-02-27T06:36:34Z</time>
      </trkpt>
      <trkpt lat="45.14392" lon="5.94153">
        <ele>2292.2</ele>
        <time>2021-02-27T06:36:35Z</time>
      </trkpt>
      <trkpt lat="45.14391" lon="5.94153">
        <ele>2292.6</ele>
        <time>2021-02-27T06:36:36Z</time>
      </trkpt>
      <trkpt lat="45.14391" lon="5.94153">
        <ele>2292.6</ele>
        <time>2021-02-27T06:36:37Z</time>
      </trkpt>
      <trkpt lat="45.1439" lon="5.94153">
        <ele>2293</ele>
        <time>2021-02-27T06:36:38Z</time>
      </trkpt>
      <trkpt lat="45.14389" lon="5.94153">
        <ele>2292.8</ele>
        <time>2021-02-27T06:36:39Z</time>
      </trkpt>
      <trkpt lat="45.14388" lon="5.94154">
        <ele>2293</ele>
        <time>2021-02-27T06:36:40Z</time>
      </trkpt>
      <trkpt lat="45.14387" lon="5.94154">
        <ele>2293.6</ele>
        <time>2021-02-27T06:36:41Z</time>
      </trkpt>
      <trkpt lat="45.14386" lon="5.94154">
        <ele>2293.4</ele>
        <time>2021-02-27T06:36:42Z</time>
      </trkpt>
      <trkpt lat="45.14385" lon="5.94154">
        <ele>2294.2</ele>
        <time>2021-02-27T06:36:43Z</time>
      </trkpt>
      <trkpt lat="45.14385" lon="5.94154">
        <ele>2293.8</ele>
        <time>2021-02-27T06:36:44Z</time>
      </trkpt>
      <trkpt lat="45.14384" lon="5.94154">
        <ele>2293.8</ele>
        <time>2021-02-27T06:36:45Z</time>
      </trkpt>
      <trkpt lat="45.14383" lon="5.94154">
        <ele>2294</ele>
        <time>2021-02-27T06:36:46Z</time>
      </trkpt>
      <trkpt lat="45.14383" lon="5.94154">
        <ele>2293.8</ele>
        <time>2021-02-27T06:36:47Z</time>
      </trkpt>
      <trkpt lat="45.14382" lon="5.94154">
        <ele>2294.2</ele>
        <time>2021-02-27T06:36:48Z</time>
      </trkpt>
      <trkpt lat="45.14381" lon="5.94154">
        <ele>2294.4</ele>
        <time>2021-02-27T06:36:49Z</time>
      </trkpt>
      <trkpt lat="45.14381" lon="5.94154">
        <ele>2294.4</ele>
        <time>2021-02-27T06:36:50Z</time>
      </trkpt>
      <trkpt lat="45.1438" lon="5.94154">
        <ele>2294.2</ele>
        <time>2021-02-27T06:36:51Z</time>
      </trkpt>
      <trkpt lat="45.14379" lon="5.94154">
        <ele>2294.6</ele>
        <time>2021-02-27T06:36:52Z</time>
      </trkpt>
      <trkpt lat="45.14379" lon="5.94154">
        <ele>2294.8</ele>
        <time>2021-02-27T06:36:53Z</time>
      </trkpt>
      <trkpt lat="45.14378" lon="5.94154">
        <ele>2294.8</ele>
        <time>2021-02-27T06:36:54Z</time>
      </trkpt>
      <trkpt lat="45.14377" lon="5.94154">
        <ele>2295</ele>
        <time>2021-02-27T06:36:55Z</time>
      </trkpt>
      <trkpt lat="45.14377" lon="5.94154">
        <ele>2295.8</ele>
        <time>2021-02-27T06:36:56Z</time>
      </trkpt>
      <trkpt lat="45.14376" lon="5.94156">
        <ele>2296</ele>
        <time>2021-02-27T06:36:57Z</time>
      </trkpt>
      <trkpt lat="45.14375" lon="5.94157">
        <ele>2296.6</ele>
        <time>2021-02-27T06:36:58Z</time>
      </trkpt>
      <trkpt lat="45.14374" lon="5.94159">
        <ele>2297.6</ele>
        <time>2021-02-27T06:36:59Z</time>
      </trkpt>
      <trkpt lat="45.14373" lon="5.9416">
        <ele>2298</ele>
        <time>2021-02-27T06:37:00Z</time>
      </trkpt>
      <trkpt lat="45.14372" lon="5.94162">
        <ele>2298.4</ele>
        <time>2021-02-27T06:37:01Z</time>
      </trkpt>
      <trkpt lat="45.14371" lon="5.94163">
        <ele>2298.6</ele>
        <time>2021-02-27T06:37:02Z</time>
      </trkpt>
      <trkpt lat="45.1437" lon="5.94165">
        <ele>2299.8</ele>
        <time>2021-02-27T06:37:03Z</time>
      </trkpt>
      <trkpt lat="45.1437" lon="5.94166">
        <ele>2300.4</ele>
        <time>2021-02-27T06:37:04Z</time>
      </trkpt>
      <trkpt lat="45.1437" lon="5.94167">
        <ele>2300.6</ele>
        <time>2021-02-27T06:37:05Z</time>
      </trkpt>
      <trkpt lat="45.14371" lon="5.94168">
        <ele>2300.6</ele>
        <time>2021-02-27T06:37:06Z</time>
      </trkpt>
      <trkpt lat="45.14371" lon="5.94169">
        <ele>2300.8</ele>
        <time>2021-02-27T06:37:07Z</time>
      </trkpt>
      <trkpt lat="45.14371" lon="5.9417">
        <ele>2300.2</ele>
        <time>2021-02-27T06:37:08Z</time>
      </trkpt>
      <trkpt lat="45.14371" lon="5.94171">
        <ele>2300.8</ele>
        <time>2021-02-27T06:37:09Z</time>
      </trkpt>
      <trkpt lat="45.14371" lon="5.94172">
        <ele>2301</ele>
        <time>2021-02-27T06:37:10Z</time>
      </trkpt>
      <trkpt lat="45.14372" lon="5.94174">
        <ele>2301</ele>
        <time>2021-02-27T06:37:11Z</time>
      </trkpt>
      <trkpt lat="45.14372" lon="5.94175">
        <ele>2301.2</ele>
        <time>2021-02-27T06:37:12Z</time>
      </trkpt>
      <trkpt lat="45.14372" lon="5.94176">
        <ele>2301.4</ele>
        <time>2021-02-27T06:37:13Z</time>
      </trkpt>
      <trkpt lat="45.14372" lon="5.94177">
        <ele>2301.4</ele>
        <time>2021-02-27T06:37:14Z</time>
      </trkpt>
      <trkpt lat="45.14372" lon="5.94178">
        <ele>2302</ele>
        <time>2021-02-27T06:37:15Z</time>
      </trkpt>
      <trkpt lat="45.14372" lon="5.94179">
        <ele>2301.6</ele>
        <time>2021-02-27T06:37:16Z</time>
      </trkpt>
      <trkpt lat="45.14371" lon="5.94181">
        <ele>2301</ele>
        <time>2021-02-27T06:37:17Z</time>
      </trkpt>
      <trkpt lat="45.14371" lon="5.94183">
        <ele>2301</ele>
        <time>2021-02-27T06:37:18Z</time>
      </trkpt>
      <trkpt lat="45.1437" lon="5.94184">
        <ele>2300.8</ele>
        <time>2021-02-27T06:37:19Z</time>
      </trkpt>
      <trkpt lat="45.14369" lon="5.94186">
        <ele>2300.4</ele>
        <time>2021-02-27T06:37:20Z</time>
      </trkpt>
      <trkpt lat="45.14369" lon="5.94188">
        <ele>2300.2</ele>
        <time>2021-02-27T06:37:21Z</time>
      </trkpt>
      <trkpt lat="45.14368" lon="5.94189">
        <ele>2300</ele>
        <time>2021-02-27T06:37:22Z</time>
      </trkpt>
      <trkpt lat="45.14368" lon="5.94191">
        <ele>2300.6</ele>
        <time>2021-02-27T06:37:23Z</time>
      </trkpt>
      <trkpt lat="45.14367" lon="5.94193">
        <ele>2300.4</ele>
        <time>2021-02-27T06:37:24Z</time>
      </trkpt>
      <trkpt lat="45.14367" lon="5.94194">
        <ele>2300</ele>
        <time>2021-02-27T06:37:25Z</time>
      </trkpt>
      <trkpt lat="45.14367" lon="5.94196">
        <ele>2300.4</ele>
        <time>2021-02-27T06:37:26Z</time>
      </trkpt>
      <trkpt lat="45.14367" lon="5.94198">
        <ele>2300.2</ele>
        <time>2021-02-27T06:37:27Z</time>
      </trkpt>
      <trkpt lat="45.14366" lon="5.94199">
        <ele>2300.2</ele>
        <time>2021-02-27T06:37:28Z</time>
      </trkpt>
      <trkpt lat="45.14366" lon="5.94201">
        <ele>2300</ele>
        <time>2021-02-27T06:37:29Z</time>
      </trkpt>
      <trkpt lat="45.14366" lon="5.94203">
        <ele>2299.8</ele>
        <time>2021-02-27T06:37:30Z</time>
      </trkpt>
      <trkpt lat="45.14365" lon="5.94205">
        <ele>2299.8</ele>
        <time>2021-02-27T06:37:31Z</time>
      </trkpt>
      <trkpt lat="45.14365" lon="5.94207">
        <ele>2299.4</ele>
        <time>2021-02-27T06:37:32Z</time>
      </trkpt>
      <trkpt lat="45.14366" lon="5.94208">
        <ele>2299.2</ele>
        <time>2021-02-27T06:37:33Z</time>
      </trkpt>
      <trkpt lat="45.14366" lon="5.9421">
        <ele>2299.2</ele>
        <time>2021-02-27T06:37:34Z</time>
      </trkpt>
      <trkpt lat="45.14366" lon="5.94212">
        <ele>2299</ele>
        <time>2021-02-27T06:37:35Z</time>
      </trkpt>
      <trkpt lat="45.14366" lon="5.94214">
        <ele>2299.2</ele>
        <time>2021-02-27T06:37:36Z</time>
      </trkpt>
      <trkpt lat="45.14366" lon="5.94216">
        <ele>2299</ele>
        <time>2021-02-27T06:37:37Z</time>
      </trkpt>
      <trkpt lat="45.14366" lon="5.94218">
        <ele>2299.2</ele>
        <time>2021-02-27T06:37:38Z</time>
      </trkpt>
      <trkpt lat="45.14366" lon="5.94219">
        <ele>2299.6</ele>
        <time>2021-02-27T06:37:39Z</time>
      </trkpt>
      <trkpt lat="45.14366" lon="5.94221">
        <ele>2300</ele>
        <time>2021-02-27T06:37:40Z</time>
      </trkpt>
      <trkpt lat="45.14366" lon="5.94222">
        <ele>2299.8</ele>
        <time>2021-02-27T06:37:41Z</time>
      </trkpt>
      <trkpt lat="45.14365" lon="5.94223">
        <ele>2300</ele>
        <time>2021-02-27T06:37:42Z</time>
      </trkpt>
      <trkpt lat="45.14365" lon="5.94224">
        <ele>2300</ele>
        <time>2021-02-27T06:37:43Z</time>
      </trkpt>
      <trkpt lat="45.14365" lon="5.94226">
        <ele>2300</ele>
        <time>2021-02-27T06:37:44Z</time>
      </trkpt>
      <trkpt lat="45.14365" lon="5.94227">
        <ele>2300.2</ele>
        <time>2021-02-27T06:37:45Z</time>
      </trkpt>
      <trkpt lat="45.14365" lon="5.94228">
        <ele>2300.4</ele>
        <time>2021-02-27T06:37:46Z</time>
      </trkpt>
      <trkpt lat="45.14364" lon="5.9423">
        <ele>2300.4</ele>
        <time>2021-02-27T06:37:47Z</time>
      </trkpt>
      <trkpt lat="45.14364" lon="5.94231">
        <ele>2300.8</ele>
        <time>2021-02-27T06:37:48Z</time>
      </trkpt>
      <trkpt lat="45.14364" lon="5.94232">
        <ele>2300.8</ele>
        <time>2021-02-27T06:37:49Z</time>
      </trkpt>
      <trkpt lat="45.14364" lon="5.94234">
        <ele>2301</ele>
        <time>2021-02-27T06:37:50Z</time>
      </trkpt>
      <trkpt lat="45.14364" lon="5.94235">
        <ele>2301.2</ele>
        <time>2021-02-27T06:37:51Z</time>
      </trkpt>
      <trkpt lat="45.14363" lon="5.94237">
        <ele>2301.4</ele>
        <time>2021-02-27T06:37:52Z</time>
      </trkpt>
      <trkpt lat="45.14363" lon="5.94238">
        <ele>2301.6</ele>
        <time>2021-02-27T06:37:53Z</time>
      </trkpt>
      <trkpt lat="45.14363" lon="5.94239">
        <ele>2302</ele>
        <time>2021-02-27T06:37:54Z</time>
      </trkpt>
      <trkpt lat="45.14363" lon="5.94241">
        <ele>2302.2</ele>
        <time>2021-02-27T06:37:55Z</time>
      </trkpt>
      <trkpt lat="45.14363" lon="5.94242">
        <ele>2302.6</ele>
        <time>2021-02-27T06:37:56Z</time>
      </trkpt>
      <trkpt lat="45.14363" lon="5.94244">
        <ele>2302.6</ele>
        <time>2021-02-27T06:37:57Z</time>
      </trkpt>
      <trkpt lat="45.14362" lon="5.94245">
        <ele>2303.2</ele>
        <time>2021-02-27T06:37:58Z</time>
      </trkpt>
      <trkpt lat="45.14362" lon="5.94247">
        <ele>2303.4</ele>
        <time>2021-02-27T06:37:59Z</time>
      </trkpt>
      <trkpt lat="45.14361" lon="5.94248">
        <ele>2303.8</ele>
        <time>2021-02-27T06:38:00Z</time>
      </trkpt>
      <trkpt lat="45.14361" lon="5.9425">
        <ele>2304</ele>
        <time>2021-02-27T06:38:01Z</time>
      </trkpt>
      <trkpt lat="45.1436" lon="5.94251">
        <ele>2304</ele>
        <time>2021-02-27T06:38:02Z</time>
      </trkpt>
      <trkpt lat="45.1436" lon="5.94253">
        <ele>2304.2</ele>
        <time>2021-02-27T06:38:03Z</time>
      </trkpt>
      <trkpt lat="45.1436" lon="5.94255">
        <ele>2304.4</ele>
        <time>2021-02-27T06:38:04Z</time>
      </trkpt>
      <trkpt lat="45.14359" lon="5.94256">
        <ele>2304.6</ele>
        <time>2021-02-27T06:38:05Z</time>
      </trkpt>
      <trkpt lat="45.14359" lon="5.94258">
        <ele>2305.2</ele>
        <time>2021-02-27T06:38:06Z</time>
      </trkpt>
      <trkpt lat="45.14359" lon="5.94259">
        <ele>2305.4</ele>
        <time>2021-02-27T06:38:07Z</time>
      </trkpt>
      <trkpt lat="45.14359" lon="5.94261">
        <ele>2305.6</ele>
        <time>2021-02-27T06:38:08Z</time>
      </trkpt>
      <trkpt lat="45.14358" lon="5.94262">
        <ele>2305.6</ele>
        <time>2021-02-27T06:38:09Z</time>
      </trkpt>
      <trkpt lat="45.14358" lon="5.94263">
        <ele>2305.8</ele>
        <time>2021-02-27T06:38:10Z</time>
      </trkpt>
      <trkpt lat="45.14358" lon="5.94265">
        <ele>2306.2</ele>
        <time>2021-02-27T06:38:11Z</time>
      </trkpt>
      <trkpt lat="45.14358" lon="5.94266">
        <ele>2306.4</ele>
        <time>2021-02-27T06:38:12Z</time>
      </trkpt>
      <trkpt lat="45.14358" lon="5.94268">
        <ele>2306.4</ele>
        <time>2021-02-27T06:38:13Z</time>
      </trkpt>
      <trkpt lat="45.14357" lon="5.94269">
        <ele>2306.4</ele>
        <time>2021-02-27T06:38:14Z</time>
      </trkpt>
      <trkpt lat="45.14358" lon="5.94271">
        <ele>2306.6</ele>
        <time>2021-02-27T06:38:15Z</time>
      </trkpt>
      <trkpt lat="45.14359" lon="5.94272">
        <ele>2306.8</ele>
        <time>2021-02-27T06:38:16Z</time>
      </trkpt>
      <trkpt lat="45.1436" lon="5.94273">
        <ele>2307.2</ele>
        <time>2021-02-27T06:38:17Z</time>
      </trkpt>
      <trkpt lat="45.1436" lon="5.94274">
        <ele>2307.4</ele>
        <time>2021-02-27T06:38:18Z</time>
      </trkpt>
      <trkpt lat="45.14361" lon="5.94275">
        <ele>2307.4</ele>
        <time>2021-02-27T06:38:19Z</time>
      </trkpt>
      <trkpt lat="45.14362" lon="5.94277">
        <ele>2307.6</ele>
        <time>2021-02-27T06:38:20Z</time>
      </trkpt>
      <trkpt lat="45.14362" lon="5.94278">
        <ele>2307.8</ele>
        <time>2021-02-27T06:38:21Z</time>
      </trkpt>
      <trkpt lat="45.14363" lon="5.94279">
        <ele>2307.8</ele>
        <time>2021-02-27T06:38:22Z</time>
      </trkpt>
      <trkpt lat="45.14364" lon="5.9428">
        <ele>2307.8</ele>
        <time>2021-02-27T06:38:23Z</time>
      </trkpt>
      <trkpt lat="45.14364" lon="5.94281">
        <ele>2308</ele>
        <time>2021-02-27T06:38:24Z</time>
      </trkpt>
      <trkpt lat="45.14364" lon="5.94283">
        <ele>2308</ele>
        <time>2021-02-27T06:38:25Z</time>
      </trkpt>
      <trkpt lat="45.14365" lon="5.94284">
        <ele>2308</ele>
        <time>2021-02-27T06:38:26Z</time>
      </trkpt>
      <trkpt lat="45.14365" lon="5.94286">
        <ele>2308.2</ele>
        <time>2021-02-27T06:38:27Z</time>
      </trkpt>
      <trkpt lat="45.14365" lon="5.94287">
        <ele>2308.4</ele>
        <time>2021-02-27T06:38:28Z</time>
      </trkpt>
      <trkpt lat="45.14365" lon="5.94288">
        <ele>2308.8</ele>
        <time>2021-02-27T06:38:29Z</time>
      </trkpt>
      <trkpt lat="45.14365" lon="5.9429">
        <ele>2308.8</ele>
        <time>2021-02-27T06:38:30Z</time>
      </trkpt>
      <trkpt lat="45.14366" lon="5.94291">
        <ele>2309.2</ele>
        <time>2021-02-27T06:38:31Z</time>
      </trkpt>
      <trkpt lat="45.14366" lon="5.94292">
        <ele>2309.4</ele>
        <time>2021-02-27T06:38:32Z</time>
      </trkpt>
      <trkpt lat="45.14366" lon="5.94294">
        <ele>2309.4</ele>
        <time>2021-02-27T06:38:33Z</time>
      </trkpt>
      <trkpt lat="45.14366" lon="5.94295">
        <ele>2309.6</ele>
        <time>2021-02-27T06:38:34Z</time>
      </trkpt>
      <trkpt lat="45.14366" lon="5.94296">
        <ele>2309.8</ele>
        <time>2021-02-27T06:38:35Z</time>
      </trkpt>
      <trkpt lat="45.14366" lon="5.94297">
        <ele>2310</ele>
        <time>2021-02-27T06:38:36Z</time>
      </trkpt>
      <trkpt lat="45.14367" lon="5.94298">
        <ele>2310.6</ele>
        <time>2021-02-27T06:38:37Z</time>
      </trkpt>
      <trkpt lat="45.14367" lon="5.94299">
        <ele>2310.8</ele>
        <time>2021-02-27T06:38:38Z</time>
      </trkpt>
      <trkpt lat="45.14367" lon="5.94301">
        <ele>2311</ele>
        <time>2021-02-27T06:38:39Z</time>
      </trkpt>
      <trkpt lat="45.14367" lon="5.94302">
        <ele>2311.4</ele>
        <time>2021-02-27T06:38:40Z</time>
      </trkpt>
      <trkpt lat="45.14367" lon="5.94303">
        <ele>2311.8</ele>
        <time>2021-02-27T06:38:41Z</time>
      </trkpt>
      <trkpt lat="45.14367" lon="5.94304">
        <ele>2312</ele>
        <time>2021-02-27T06:38:42Z</time>
      </trkpt>
      <trkpt lat="45.14367" lon="5.94305">
        <ele>2312.4</ele>
        <time>2021-02-27T06:38:43Z</time>
      </trkpt>
      <trkpt lat="45.14367" lon="5.94306">
        <ele>2312.8</ele>
        <time>2021-02-27T06:38:44Z</time>
      </trkpt>
      <trkpt lat="45.14367" lon="5.94308">
        <ele>2313</ele>
        <time>2021-02-27T06:38:45Z</time>
      </trkpt>
      <trkpt lat="45.14367" lon="5.94309">
        <ele>2313</ele>
        <time>2021-02-27T06:38:46Z</time>
      </trkpt>
      <trkpt lat="45.14367" lon="5.9431">
        <ele>2313.2</ele>
        <time>2021-02-27T06:38:47Z</time>
      </trkpt>
      <trkpt lat="45.14367" lon="5.94311">
        <ele>2313.4</ele>
        <time>2021-02-27T06:38:48Z</time>
      </trkpt>
      <trkpt lat="45.14367" lon="5.94312">
        <ele>2313.8</ele>
        <time>2021-02-27T06:38:49Z</time>
      </trkpt>
      <trkpt lat="45.14367" lon="5.94313">
        <ele>2313.8</ele>
        <time>2021-02-27T06:38:50Z</time>
      </trkpt>
      <trkpt lat="45.14366" lon="5.94315">
        <ele>2314</ele>
        <time>2021-02-27T06:38:51Z</time>
      </trkpt>
      <trkpt lat="45.14366" lon="5.94316">
        <ele>2314.2</ele>
        <time>2021-02-27T06:38:52Z</time>
      </trkpt>
      <trkpt lat="45.14366" lon="5.94317">
        <ele>2314.4</ele>
        <time>2021-02-27T06:38:53Z</time>
      </trkpt>
      <trkpt lat="45.14366" lon="5.94318">
        <ele>2314.6</ele>
        <time>2021-02-27T06:38:54Z</time>
      </trkpt>
      <trkpt lat="45.14366" lon="5.94319">
        <ele>2315</ele>
        <time>2021-02-27T06:38:55Z</time>
      </trkpt>
      <trkpt lat="45.14367" lon="5.9432">
        <ele>2315</ele>
        <time>2021-02-27T06:38:56Z</time>
      </trkpt>
      <trkpt lat="45.14367" lon="5.94321">
        <ele>2315.2</ele>
        <time>2021-02-27T06:38:57Z</time>
      </trkpt>
      <trkpt lat="45.14368" lon="5.94322">
        <ele>2315.4</ele>
        <time>2021-02-27T06:38:58Z</time>
      </trkpt>
      <trkpt lat="45.14368" lon="5.94323">
        <ele>2315.6</ele>
        <time>2021-02-27T06:38:59Z</time>
      </trkpt>
      <trkpt lat="45.14369" lon="5.94324">
        <ele>2315.6</ele>
        <time>2021-02-27T06:39:00Z</time>
      </trkpt>
      <trkpt lat="45.1437" lon="5.94325">
        <ele>2316.2</ele>
        <time>2021-02-27T06:39:01Z</time>
      </trkpt>
      <trkpt lat="45.1437" lon="5.94326">
        <ele>2316.2</ele>
        <time>2021-02-27T06:39:02Z</time>
      </trkpt>
      <trkpt lat="45.14371" lon="5.94327">
        <ele>2316.6</ele>
        <time>2021-02-27T06:39:03Z</time>
      </trkpt>
      <trkpt lat="45.14371" lon="5.94328">
        <ele>2317</ele>
        <time>2021-02-27T06:39:04Z</time>
      </trkpt>
      <trkpt lat="45.14372" lon="5.94329">
        <ele>2317.4</ele>
        <time>2021-02-27T06:39:05Z</time>
      </trkpt>
      <trkpt lat="45.14372" lon="5.94331">
        <ele>2317.6</ele>
        <time>2021-02-27T06:39:06Z</time>
      </trkpt>
      <trkpt lat="45.14372" lon="5.94332">
        <ele>2317.8</ele>
        <time>2021-02-27T06:39:07Z</time>
      </trkpt>
      <trkpt lat="45.14373" lon="5.94333">
        <ele>2318</ele>
        <time>2021-02-27T06:39:08Z</time>
      </trkpt>
      <trkpt lat="45.14373" lon="5.94334">
        <ele>2318.2</ele>
        <time>2021-02-27T06:39:09Z</time>
      </trkpt>
      <trkpt lat="45.14373" lon="5.94336">
        <ele>2318.6</ele>
        <time>2021-02-27T06:39:10Z</time>
      </trkpt>
      <trkpt lat="45.14373" lon="5.94337">
        <ele>2319.2</ele>
        <time>2021-02-27T06:39:11Z</time>
      </trkpt>
      <trkpt lat="45.14373" lon="5.94338">
        <ele>2319.2</ele>
        <time>2021-02-27T06:39:12Z</time>
      </trkpt>
      <trkpt lat="45.14374" lon="5.94339">
        <ele>2319.4</ele>
        <time>2021-02-27T06:39:13Z</time>
      </trkpt>
      <trkpt lat="45.14374" lon="5.94341">
        <ele>2320.2</ele>
        <time>2021-02-27T06:39:14Z</time>
      </trkpt>
      <trkpt lat="45.14374" lon="5.94342">
        <ele>2320.2</ele>
        <time>2021-02-27T06:39:15Z</time>
      </trkpt>
      <trkpt lat="45.14374" lon="5.94343">
        <ele>2320.2</ele>
        <time>2021-02-27T06:39:16Z</time>
      </trkpt>
      <trkpt lat="45.14373" lon="5.94344">
        <ele>2320.6</ele>
        <time>2021-02-27T06:39:17Z</time>
      </trkpt>
      <trkpt lat="45.14373" lon="5.94346">
        <ele>2321</ele>
        <time>2021-02-27T06:39:18Z</time>
      </trkpt>
      <trkpt lat="45.14372" lon="5.94347">
        <ele>2321.2</ele>
        <time>2021-02-27T06:39:19Z</time>
      </trkpt>
      <trkpt lat="45.14372" lon="5.94348">
        <ele>2321.4</ele>
        <time>2021-02-27T06:39:20Z</time>
      </trkpt>
      <trkpt lat="45.14372" lon="5.9435">
        <ele>2322.2</ele>
        <time>2021-02-27T06:39:21Z</time>
      </trkpt>
      <trkpt lat="45.14371" lon="5.94351">
        <ele>2322.4</ele>
        <time>2021-02-27T06:39:22Z</time>
      </trkpt>
      <trkpt lat="45.14371" lon="5.94352">
        <ele>2323</ele>
        <time>2021-02-27T06:39:23Z</time>
      </trkpt>
      <trkpt lat="45.14371" lon="5.94354">
        <ele>2323.4</ele>
        <time>2021-02-27T06:39:24Z</time>
      </trkpt>
      <trkpt lat="45.14371" lon="5.94355">
        <ele>2323.4</ele>
        <time>2021-02-27T06:39:25Z</time>
      </trkpt>
      <trkpt lat="45.14371" lon="5.94356">
        <ele>2323.2</ele>
        <time>2021-02-27T06:39:26Z</time>
      </trkpt>
      <trkpt lat="45.14372" lon="5.94357">
        <ele>2323.8</ele>
        <time>2021-02-27T06:39:27Z</time>
      </trkpt>
      <trkpt lat="45.14372" lon="5.94358">
        <ele>2324.2</ele>
        <time>2021-02-27T06:39:28Z</time>
      </trkpt>
      <trkpt lat="45.14372" lon="5.94359">
        <ele>2324.2</ele>
        <time>2021-02-27T06:39:29Z</time>
      </trkpt>
      <trkpt lat="45.14373" lon="5.9436">
        <ele>2324.8</ele>
        <time>2021-02-27T06:39:30Z</time>
      </trkpt>
      <trkpt lat="45.14373" lon="5.94361">
        <ele>2325.4</ele>
        <time>2021-02-27T06:39:31Z</time>
      </trkpt>
      <trkpt lat="45.14373" lon="5.94362">
        <ele>2325.6</ele>
        <time>2021-02-27T06:39:32Z</time>
      </trkpt>
      <trkpt lat="45.14374" lon="5.94363">
        <ele>2326.2</ele>
        <time>2021-02-27T06:39:33Z</time>
      </trkpt>
      <trkpt lat="45.14374" lon="5.94364">
        <ele>2326.4</ele>
        <time>2021-02-27T06:39:34Z</time>
      </trkpt>
      <trkpt lat="45.14375" lon="5.94365">
        <ele>2326.8</ele>
        <time>2021-02-27T06:39:35Z</time>
      </trkpt>
      <trkpt lat="45.14375" lon="5.94366">
        <ele>2327</ele>
        <time>2021-02-27T06:39:36Z</time>
      </trkpt>
      <trkpt lat="45.14376" lon="5.94367">
        <ele>2327.2</ele>
        <time>2021-02-27T06:39:37Z</time>
      </trkpt>
      <trkpt lat="45.14376" lon="5.94369">
        <ele>2328</ele>
        <time>2021-02-27T06:39:38Z</time>
      </trkpt>
      <trkpt lat="45.14377" lon="5.9437">
        <ele>2328.2</ele>
        <time>2021-02-27T06:39:39Z</time>
      </trkpt>
      <trkpt lat="45.14378" lon="5.94371">
        <ele>2328</ele>
        <time>2021-02-27T06:39:40Z</time>
      </trkpt>
      <trkpt lat="45.14378" lon="5.94372">
        <ele>2328.8</ele>
        <time>2021-02-27T06:39:41Z</time>
      </trkpt>
      <trkpt lat="45.14379" lon="5.94373">
        <ele>2329.2</ele>
        <time>2021-02-27T06:39:42Z</time>
      </trkpt>
      <trkpt lat="45.1438" lon="5.94374">
        <ele>2329.4</ele>
        <time>2021-02-27T06:39:43Z</time>
      </trkpt>
      <trkpt lat="45.1438" lon="5.94375">
        <ele>2329.2</ele>
        <time>2021-02-27T06:39:44Z</time>
      </trkpt>
      <trkpt lat="45.14381" lon="5.94377">
        <ele>2329.6</ele>
        <time>2021-02-27T06:39:45Z</time>
      </trkpt>
      <trkpt lat="45.14382" lon="5.94378">
        <ele>2329.8</ele>
        <time>2021-02-27T06:39:46Z</time>
      </trkpt>
      <trkpt lat="45.14382" lon="5.94379">
        <ele>2330</ele>
        <time>2021-02-27T06:39:47Z</time>
      </trkpt>
      <trkpt lat="45.14382" lon="5.9438">
        <ele>2330.2</ele>
        <time>2021-02-27T06:39:48Z</time>
      </trkpt>
      <trkpt lat="45.14383" lon="5.94381">
        <ele>2330.4</ele>
        <time>2021-02-27T06:39:49Z</time>
      </trkpt>
      <trkpt lat="45.14383" lon="5.94382">
        <ele>2330.4</ele>
        <time>2021-02-27T06:39:50Z</time>
      </trkpt>
      <trkpt lat="45.14384" lon="5.94384">
        <ele>2330.2</ele>
        <time>2021-02-27T06:39:51Z</time>
      </trkpt>
      <trkpt lat="45.14384" lon="5.94385">
        <ele>2330.4</ele>
        <time>2021-02-27T06:39:52Z</time>
      </trkpt>
      <trkpt lat="45.14385" lon="5.94386">
        <ele>2330.6</ele>
        <time>2021-02-27T06:39:53Z</time>
      </trkpt>
      <trkpt lat="45.14385" lon="5.94387">
        <ele>2330.8</ele>
        <time>2021-02-27T06:39:54Z</time>
      </trkpt>
      <trkpt lat="45.14386" lon="5.94388">
        <ele>2330.8</ele>
        <time>2021-02-27T06:39:55Z</time>
      </trkpt>
      <trkpt lat="45.14386" lon="5.9439">
        <ele>2331.2</ele>
        <time>2021-02-27T06:39:56Z</time>
      </trkpt>
      <trkpt lat="45.14387" lon="5.94391">
        <ele>2331.4</ele>
        <time>2021-02-27T06:39:57Z</time>
      </trkpt>
      <trkpt lat="45.14387" lon="5.94393">
        <ele>2331.8</ele>
        <time>2021-02-27T06:39:58Z</time>
      </trkpt>
      <trkpt lat="45.14388" lon="5.94394">
        <ele>2331.8</ele>
        <time>2021-02-27T06:39:59Z</time>
      </trkpt>
      <trkpt lat="45.14388" lon="5.94395">
        <ele>2331.8</ele>
        <time>2021-02-27T06:40:00Z</time>
      </trkpt>
      <trkpt lat="45.14389" lon="5.94397">
        <ele>2331.8</ele>
        <time>2021-02-27T06:40:01Z</time>
      </trkpt>
      <trkpt lat="45.14389" lon="5.94398">
        <ele>2332.2</ele>
        <time>2021-02-27T06:40:02Z</time>
      </trkpt>
      <trkpt lat="45.1439" lon="5.944">
        <ele>2332.4</ele>
        <time>2021-02-27T06:40:03Z</time>
      </trkpt>
      <trkpt lat="45.14391" lon="5.94401">
        <ele>2332.4</ele>
        <time>2021-02-27T06:40:04Z</time>
      </trkpt>
      <trkpt lat="45.14391" lon="5.94403">
        <ele>2332.8</ele>
        <time>2021-02-27T06:40:05Z</time>
      </trkpt>
      <trkpt lat="45.14392" lon="5.94405">
        <ele>2333</ele>
        <time>2021-02-27T06:40:06Z</time>
      </trkpt>
      <trkpt lat="45.14393" lon="5.94406">
        <ele>2333.2</ele>
        <time>2021-02-27T06:40:07Z</time>
      </trkpt>
      <trkpt lat="45.14394" lon="5.94408">
        <ele>2333.8</ele>
        <time>2021-02-27T06:40:08Z</time>
      </trkpt>
      <trkpt lat="45.14394" lon="5.94409">
        <ele>2334.4</ele>
        <time>2021-02-27T06:40:09Z</time>
      </trkpt>
      <trkpt lat="45.14395" lon="5.94411">
        <ele>2334.6</ele>
        <time>2021-02-27T06:40:10Z</time>
      </trkpt>
      <trkpt lat="45.14396" lon="5.94412">
        <ele>2334.6</ele>
        <time>2021-02-27T06:40:11Z</time>
      </trkpt>
      <trkpt lat="45.14398" lon="5.94414">
        <ele>2335</ele>
        <time>2021-02-27T06:40:12Z</time>
      </trkpt>
      <trkpt lat="45.14399" lon="5.94415">
        <ele>2335</ele>
        <time>2021-02-27T06:40:13Z</time>
      </trkpt>
      <trkpt lat="45.144" lon="5.94416">
        <ele>2335.2</ele>
        <time>2021-02-27T06:40:14Z</time>
      </trkpt>
      <trkpt lat="45.14401" lon="5.94418">
        <ele>2335.2</ele>
        <time>2021-02-27T06:40:15Z</time>
      </trkpt>
      <trkpt lat="45.14403" lon="5.94419">
        <ele>2335.4</ele>
        <time>2021-02-27T06:40:16Z</time>
      </trkpt>
      <trkpt lat="45.14403" lon="5.94421">
        <ele>2335.8</ele>
        <time>2021-02-27T06:40:17Z</time>
      </trkpt>
      <trkpt lat="45.14404" lon="5.94422">
        <ele>2336.2</ele>
        <time>2021-02-27T06:40:18Z</time>
      </trkpt>
      <trkpt lat="45.14404" lon="5.94423">
        <ele>2336.6</ele>
        <time>2021-02-27T06:40:19Z</time>
      </trkpt>
      <trkpt lat="45.14405" lon="5.94424">
        <ele>2336.8</ele>
        <time>2021-02-27T06:40:20Z</time>
      </trkpt>
      <trkpt lat="45.14405" lon="5.94426">
        <ele>2337</ele>
        <time>2021-02-27T06:40:21Z</time>
      </trkpt>
      <trkpt lat="45.14406" lon="5.94427">
        <ele>2337.6</ele>
        <time>2021-02-27T06:40:22Z</time>
      </trkpt>
      <trkpt lat="45.14406" lon="5.94428">
        <ele>2337.8</ele>
        <time>2021-02-27T06:40:23Z</time>
      </trkpt>
      <trkpt lat="45.14407" lon="5.9443">
        <ele>2338</ele>
        <time>2021-02-27T06:40:24Z</time>
      </trkpt>
      <trkpt lat="45.14408" lon="5.94431">
        <ele>2338</ele>
        <time>2021-02-27T06:40:25Z</time>
      </trkpt>
      <trkpt lat="45.14408" lon="5.94432">
        <ele>2338.4</ele>
        <time>2021-02-27T06:40:26Z</time>
      </trkpt>
      <trkpt lat="45.14409" lon="5.94433">
        <ele>2338.6</ele>
        <time>2021-02-27T06:40:27Z</time>
      </trkpt>
      <trkpt lat="45.1441" lon="5.94435">
        <ele>2338.8</ele>
        <time>2021-02-27T06:40:28Z</time>
      </trkpt>
      <trkpt lat="45.1441" lon="5.94436">
        <ele>2339.2</ele>
        <time>2021-02-27T06:40:29Z</time>
      </trkpt>
      <trkpt lat="45.14411" lon="5.94437">
        <ele>2339</ele>
        <time>2021-02-27T06:40:30Z</time>
      </trkpt>
      <trkpt lat="45.14411" lon="5.94438">
        <ele>2339.2</ele>
        <time>2021-02-27T06:40:31Z</time>
      </trkpt>
      <trkpt lat="45.14412" lon="5.9444">
        <ele>2339.2</ele>
        <time>2021-02-27T06:40:32Z</time>
      </trkpt>
      <trkpt lat="45.14413" lon="5.94441">
        <ele>2339.2</ele>
        <time>2021-02-27T06:40:33Z</time>
      </trkpt>
      <trkpt lat="45.14413" lon="5.94442">
        <ele>2339.2</ele>
        <time>2021-02-27T06:40:34Z</time>
      </trkpt>
      <trkpt lat="45.14414" lon="5.94443">
        <ele>2339.2</ele>
        <time>2021-02-27T06:40:35Z</time>
      </trkpt>
      <trkpt lat="45.14415" lon="5.94444">
        <ele>2339.2</ele>
        <time>2021-02-27T06:40:36Z</time>
      </trkpt>
      <trkpt lat="45.14416" lon="5.94445">
        <ele>2339.4</ele>
        <time>2021-02-27T06:40:37Z</time>
      </trkpt>
      <trkpt lat="45.14416" lon="5.94446">
        <ele>2339.6</ele>
        <time>2021-02-27T06:40:38Z</time>
      </trkpt>
      <trkpt lat="45.14417" lon="5.94446">
        <ele>2339.8</ele>
        <time>2021-02-27T06:40:39Z</time>
      </trkpt>
      <trkpt lat="45.14418" lon="5.94447">
        <ele>2340.4</ele>
        <time>2021-02-27T06:40:40Z</time>
      </trkpt>
      <trkpt lat="45.14418" lon="5.94448">
        <ele>2340</ele>
        <time>2021-02-27T06:40:41Z</time>
      </trkpt>
      <trkpt lat="45.14419" lon="5.94449">
        <ele>2340.2</ele>
        <time>2021-02-27T06:40:42Z</time>
      </trkpt>
      <trkpt lat="45.1442" lon="5.9445">
        <ele>2340.2</ele>
        <time>2021-02-27T06:40:43Z</time>
      </trkpt>
      <trkpt lat="45.14421" lon="5.94451">
        <ele>2340.2</ele>
        <time>2021-02-27T06:40:44Z</time>
      </trkpt>
      <trkpt lat="45.14421" lon="5.94452">
        <ele>2340.6</ele>
        <time>2021-02-27T06:40:45Z</time>
      </trkpt>
      <trkpt lat="45.14423" lon="5.94454">
        <ele>2340.6</ele>
        <time>2021-02-27T06:40:46Z</time>
      </trkpt>
      <trkpt lat="45.14425" lon="5.94456">
        <ele>2341</ele>
        <time>2021-02-27T06:40:47Z</time>
      </trkpt>
      <trkpt lat="45.14427" lon="5.94458">
        <ele>2340.8</ele>
        <time>2021-02-27T06:40:48Z</time>
      </trkpt>
      <trkpt lat="45.14429" lon="5.9446">
        <ele>2340.8</ele>
        <time>2021-02-27T06:40:49Z</time>
      </trkpt>
      <trkpt lat="45.1443" lon="5.94461">
        <ele>2340.2</ele>
        <time>2021-02-27T06:40:50Z</time>
      </trkpt>
      <trkpt lat="45.14431" lon="5.94462">
        <ele>2340.4</ele>
        <time>2021-02-27T06:40:51Z</time>
      </trkpt>
      <trkpt lat="45.14432" lon="5.94464">
        <ele>2340.4</ele>
        <time>2021-02-27T06:40:52Z</time>
      </trkpt>
      <trkpt lat="45.14433" lon="5.94465">
        <ele>2340.6</ele>
        <time>2021-02-27T06:40:53Z</time>
      </trkpt>
      <trkpt lat="45.14434" lon="5.94467">
        <ele>2340.6</ele>
        <time>2021-02-27T06:40:54Z</time>
      </trkpt>
      <trkpt lat="45.14435" lon="5.94468">
        <ele>2340.4</ele>
        <time>2021-02-27T06:40:55Z</time>
      </trkpt>
      <trkpt lat="45.14436" lon="5.9447">
        <ele>2340.4</ele>
        <time>2021-02-27T06:40:56Z</time>
      </trkpt>
      <trkpt lat="45.14437" lon="5.94471">
        <ele>2340.4</ele>
        <time>2021-02-27T06:40:57Z</time>
      </trkpt>
      <trkpt lat="45.14438" lon="5.94472">
        <ele>2340.2</ele>
        <time>2021-02-27T06:40:58Z</time>
      </trkpt>
      <trkpt lat="45.14439" lon="5.94473">
        <ele>2340.4</ele>
        <time>2021-02-27T06:40:59Z</time>
      </trkpt>
      <trkpt lat="45.14439" lon="5.94475">
        <ele>2340.6</ele>
        <time>2021-02-27T06:41:00Z</time>
      </trkpt>
      <trkpt lat="45.1444" lon="5.94476">
        <ele>2340.8</ele>
        <time>2021-02-27T06:41:01Z</time>
      </trkpt>
      <trkpt lat="45.14441" lon="5.94477">
        <ele>2340.8</ele>
        <time>2021-02-27T06:41:02Z</time>
      </trkpt>
      <trkpt lat="45.14442" lon="5.94479">
        <ele>2340.8</ele>
        <time>2021-02-27T06:41:03Z</time>
      </trkpt>
      <trkpt lat="45.14442" lon="5.9448">
        <ele>2341</ele>
        <time>2021-02-27T06:41:04Z</time>
      </trkpt>
      <trkpt lat="45.14442" lon="5.94482">
        <ele>2341.4</ele>
        <time>2021-02-27T06:41:05Z</time>
      </trkpt>
      <trkpt lat="45.14442" lon="5.94483">
        <ele>2341.4</ele>
        <time>2021-02-27T06:41:06Z</time>
      </trkpt>
      <trkpt lat="45.14442" lon="5.94485">
        <ele>2341.4</ele>
        <time>2021-02-27T06:41:07Z</time>
      </trkpt>
      <trkpt lat="45.14442" lon="5.94486">
        <ele>2341.6</ele>
        <time>2021-02-27T06:41:08Z</time>
      </trkpt>
      <trkpt lat="45.14442" lon="5.94487">
        <ele>2341.8</ele>
        <time>2021-02-27T06:41:09Z</time>
      </trkpt>
      <trkpt lat="45.14442" lon="5.94489">
        <ele>2342.2</ele>
        <time>2021-02-27T06:41:10Z</time>
      </trkpt>
      <trkpt lat="45.14442" lon="5.9449">
        <ele>2342.4</ele>
        <time>2021-02-27T06:41:11Z</time>
      </trkpt>
      <trkpt lat="45.14442" lon="5.94492">
        <ele>2342.8</ele>
        <time>2021-02-27T06:41:12Z</time>
      </trkpt>
      <trkpt lat="45.14442" lon="5.94493">
        <ele>2343.2</ele>
        <time>2021-02-27T06:41:13Z</time>
      </trkpt>
      <trkpt lat="45.14443" lon="5.94495">
        <ele>2343.6</ele>
        <time>2021-02-27T06:41:14Z</time>
      </trkpt>
      <trkpt lat="45.14443" lon="5.94496">
        <ele>2344</ele>
        <time>2021-02-27T06:41:15Z</time>
      </trkpt>
      <trkpt lat="45.14443" lon="5.94498">
        <ele>2344</ele>
        <time>2021-02-27T06:41:16Z</time>
      </trkpt>
      <trkpt lat="45.14444" lon="5.94499">
        <ele>2344.4</ele>
        <time>2021-02-27T06:41:17Z</time>
      </trkpt>
      <trkpt lat="45.14444" lon="5.94501">
        <ele>2344.8</ele>
        <time>2021-02-27T06:41:18Z</time>
      </trkpt>
      <trkpt lat="45.14445" lon="5.94502">
        <ele>2345.6</ele>
        <time>2021-02-27T06:41:19Z</time>
      </trkpt>
      <trkpt lat="45.14445" lon="5.94504">
        <ele>2345.4</ele>
        <time>2021-02-27T06:41:20Z</time>
      </trkpt>
      <trkpt lat="45.14447" lon="5.94505">
        <ele>2345.6</ele>
        <time>2021-02-27T06:41:21Z</time>
      </trkpt>
      <trkpt lat="45.14448" lon="5.94506">
        <ele>2346</ele>
        <time>2021-02-27T06:41:22Z</time>
      </trkpt>
      <trkpt lat="45.14449" lon="5.94507">
        <ele>2346.2</ele>
        <time>2021-02-27T06:41:23Z</time>
      </trkpt>
      <trkpt lat="45.1445" lon="5.94508">
        <ele>2346.4</ele>
        <time>2021-02-27T06:41:24Z</time>
      </trkpt>
      <trkpt lat="45.14452" lon="5.94509">
        <ele>2347</ele>
        <time>2021-02-27T06:41:25Z</time>
      </trkpt>
      <trkpt lat="45.14453" lon="5.94511">
        <ele>2347</ele>
        <time>2021-02-27T06:41:26Z</time>
      </trkpt>
      <trkpt lat="45.14454" lon="5.94512">
        <ele>2347.2</ele>
        <time>2021-02-27T06:41:27Z</time>
      </trkpt>
      <trkpt lat="45.14455" lon="5.94513">
        <ele>2347.2</ele>
        <time>2021-02-27T06:41:28Z</time>
      </trkpt>
      <trkpt lat="45.14456" lon="5.94514">
        <ele>2347.4</ele>
        <time>2021-02-27T06:41:29Z</time>
      </trkpt>
      <trkpt lat="45.14457" lon="5.94516">
        <ele>2347.6</ele>
        <time>2021-02-27T06:41:30Z</time>
      </trkpt>
      <trkpt lat="45.14458" lon="5.94517">
        <ele>2347.4</ele>
        <time>2021-02-27T06:41:31Z</time>
      </trkpt>
      <trkpt lat="45.14459" lon="5.94518">
        <ele>2347.6</ele>
        <time>2021-02-27T06:41:32Z</time>
      </trkpt>
      <trkpt lat="45.1446" lon="5.9452">
        <ele>2348</ele>
        <time>2021-02-27T06:41:33Z</time>
      </trkpt>
      <trkpt lat="45.14461" lon="5.9452">
        <ele>2348.2</ele>
        <time>2021-02-27T06:41:34Z</time>
      </trkpt>
      <trkpt lat="45.14462" lon="5.94521">
        <ele>2348.2</ele>
        <time>2021-02-27T06:41:35Z</time>
      </trkpt>
      <trkpt lat="45.14463" lon="5.94521">
        <ele>2348.4</ele>
        <time>2021-02-27T06:41:36Z</time>
      </trkpt>
      <trkpt lat="45.14464" lon="5.94522">
        <ele>2348.6</ele>
        <time>2021-02-27T06:41:37Z</time>
      </trkpt>
      <trkpt lat="45.14465" lon="5.94522">
        <ele>2348.8</ele>
        <time>2021-02-27T06:41:38Z</time>
      </trkpt>
      <trkpt lat="45.14466" lon="5.94523">
        <ele>2349</ele>
        <time>2021-02-27T06:41:39Z</time>
      </trkpt>
      <trkpt lat="45.14467" lon="5.94523">
        <ele>2349.2</ele>
        <time>2021-02-27T06:41:40Z</time>
      </trkpt>
      <trkpt lat="45.14468" lon="5.94524">
        <ele>2349</ele>
        <time>2021-02-27T06:41:41Z</time>
      </trkpt>
      <trkpt lat="45.14469" lon="5.94525">
        <ele>2349.2</ele>
        <time>2021-02-27T06:41:42Z</time>
      </trkpt>
      <trkpt lat="45.1447" lon="5.94526">
        <ele>2349.2</ele>
        <time>2021-02-27T06:41:43Z</time>
      </trkpt>
      <trkpt lat="45.14471" lon="5.94527">
        <ele>2349.6</ele>
        <time>2021-02-27T06:41:44Z</time>
      </trkpt>
      <trkpt lat="45.14471" lon="5.94528">
        <ele>2349.6</ele>
        <time>2021-02-27T06:41:45Z</time>
      </trkpt>
      <trkpt lat="45.14472" lon="5.94529">
        <ele>2350</ele>
        <time>2021-02-27T06:41:46Z</time>
      </trkpt>
      <trkpt lat="45.14473" lon="5.9453">
        <ele>2350</ele>
        <time>2021-02-27T06:41:47Z</time>
      </trkpt>
      <trkpt lat="45.14473" lon="5.94531">
        <ele>2350</ele>
        <time>2021-02-27T06:41:48Z</time>
      </trkpt>
      <trkpt lat="45.14474" lon="5.94532">
        <ele>2350.2</ele>
        <time>2021-02-27T06:41:49Z</time>
      </trkpt>
      <trkpt lat="45.14475" lon="5.94533">
        <ele>2350.2</ele>
        <time>2021-02-27T06:41:50Z</time>
      </trkpt>
      <trkpt lat="45.14476" lon="5.94535">
        <ele>2350.6</ele>
        <time>2021-02-27T06:41:51Z</time>
      </trkpt>
      <trkpt lat="45.14477" lon="5.94536">
        <ele>2350.8</ele>
        <time>2021-02-27T06:41:52Z</time>
      </trkpt>
      <trkpt lat="45.14478" lon="5.94537">
        <ele>2351.2</ele>
        <time>2021-02-27T06:41:53Z</time>
      </trkpt>
      <trkpt lat="45.14479" lon="5.94538">
        <ele>2351.4</ele>
        <time>2021-02-27T06:41:54Z</time>
      </trkpt>
      <trkpt lat="45.1448" lon="5.9454">
        <ele>2351.4</ele>
        <time>2021-02-27T06:41:55Z</time>
      </trkpt>
      <trkpt lat="45.14481" lon="5.94541">
        <ele>2351.8</ele>
        <time>2021-02-27T06:41:56Z</time>
      </trkpt>
      <trkpt lat="45.14482" lon="5.94542">
        <ele>2351.8</ele>
        <time>2021-02-27T06:41:57Z</time>
      </trkpt>
      <trkpt lat="45.14483" lon="5.94543">
        <ele>2352</ele>
        <time>2021-02-27T06:41:58Z</time>
      </trkpt>
      <trkpt lat="45.14484" lon="5.94544">
        <ele>2352.4</ele>
        <time>2021-02-27T06:41:59Z</time>
      </trkpt>
      <trkpt lat="45.14484" lon="5.94545">
        <ele>2352.4</ele>
        <time>2021-02-27T06:42:00Z</time>
      </trkpt>
      <trkpt lat="45.14485" lon="5.94546">
        <ele>2352.8</ele>
        <time>2021-02-27T06:42:01Z</time>
      </trkpt>
      <trkpt lat="45.14486" lon="5.94547">
        <ele>2353.6</ele>
        <time>2021-02-27T06:42:02Z</time>
      </trkpt>
      <trkpt lat="45.14487" lon="5.94549">
        <ele>2353.6</ele>
        <time>2021-02-27T06:42:03Z</time>
      </trkpt>
      <trkpt lat="45.14488" lon="5.9455">
        <ele>2354.2</ele>
        <time>2021-02-27T06:42:04Z</time>
      </trkpt>
      <trkpt lat="45.14488" lon="5.94551">
        <ele>2354</ele>
        <time>2021-02-27T06:42:05Z</time>
      </trkpt>
      <trkpt lat="45.14489" lon="5.94552">
        <ele>2354.6</ele>
        <time>2021-02-27T06:42:06Z</time>
      </trkpt>
      <trkpt lat="45.14489" lon="5.94553">
        <ele>2354.6</ele>
        <time>2021-02-27T06:42:07Z</time>
      </trkpt>
      <trkpt lat="45.1449" lon="5.94555">
        <ele>2354.6</ele>
        <time>2021-02-27T06:42:08Z</time>
      </trkpt>
      <trkpt lat="45.1449" lon="5.94556">
        <ele>2354.8</ele>
        <time>2021-02-27T06:42:09Z</time>
      </trkpt>
      <trkpt lat="45.14491" lon="5.94557">
        <ele>2355</ele>
        <time>2021-02-27T06:42:10Z</time>
      </trkpt>
      <trkpt lat="45.14491" lon="5.94558">
        <ele>2355</ele>
        <time>2021-02-27T06:42:11Z</time>
      </trkpt>
      <trkpt lat="45.14491" lon="5.9456">
        <ele>2355.2</ele>
        <time>2021-02-27T06:42:12Z</time>
      </trkpt>
      <trkpt lat="45.14492" lon="5.94561">
        <ele>2355</ele>
        <time>2021-02-27T06:42:13Z</time>
      </trkpt>
      <trkpt lat="45.14492" lon="5.94562">
        <ele>2355.2</ele>
        <time>2021-02-27T06:42:14Z</time>
      </trkpt>
      <trkpt lat="45.14493" lon="5.94564">
        <ele>2355.2</ele>
        <time>2021-02-27T06:42:15Z</time>
      </trkpt>
      <trkpt lat="45.14493" lon="5.94565">
        <ele>2355.2</ele>
        <time>2021-02-27T06:42:16Z</time>
      </trkpt>
      <trkpt lat="45.14492" lon="5.94566">
        <ele>2355.2</ele>
        <time>2021-02-27T06:42:17Z</time>
      </trkpt>
      <trkpt lat="45.14492" lon="5.94568">
        <ele>2355.2</ele>
        <time>2021-02-27T06:42:18Z</time>
      </trkpt>
      <trkpt lat="45.14492" lon="5.94569">
        <ele>2355.4</ele>
        <time>2021-02-27T06:42:19Z</time>
      </trkpt>
      <trkpt lat="45.14492" lon="5.94571">
        <ele>2355.6</ele>
        <time>2021-02-27T06:42:20Z</time>
      </trkpt>
      <trkpt lat="45.14491" lon="5.94572">
        <ele>2355.8</ele>
        <time>2021-02-27T06:42:21Z</time>
      </trkpt>
      <trkpt lat="45.14491" lon="5.94574">
        <ele>2355.6</ele>
        <time>2021-02-27T06:42:22Z</time>
      </trkpt>
      <trkpt lat="45.14491" lon="5.94575">
        <ele>2356.2</ele>
        <time>2021-02-27T06:42:23Z</time>
      </trkpt>
      <trkpt lat="45.14491" lon="5.94576">
        <ele>2356.4</ele>
        <time>2021-02-27T06:42:24Z</time>
      </trkpt>
      <trkpt lat="45.14491" lon="5.94578">
        <ele>2356.8</ele>
        <time>2021-02-27T06:42:25Z</time>
      </trkpt>
      <trkpt lat="45.14491" lon="5.94579">
        <ele>2357</ele>
        <time>2021-02-27T06:42:26Z</time>
      </trkpt>
      <trkpt lat="45.14491" lon="5.9458">
        <ele>2356.8</ele>
        <time>2021-02-27T06:42:27Z</time>
      </trkpt>
      <trkpt lat="45.14492" lon="5.94581">
        <ele>2357.2</ele>
        <time>2021-02-27T06:42:28Z</time>
      </trkpt>
      <trkpt lat="45.14492" lon="5.94582">
        <ele>2357.6</ele>
        <time>2021-02-27T06:42:29Z</time>
      </trkpt>
      <trkpt lat="45.14492" lon="5.94583">
        <ele>2358</ele>
        <time>2021-02-27T06:42:30Z</time>
      </trkpt>
      <trkpt lat="45.14493" lon="5.94584">
        <ele>2358.2</ele>
        <time>2021-02-27T06:42:31Z</time>
      </trkpt>
      <trkpt lat="45.14493" lon="5.94585">
        <ele>2358.4</ele>
        <time>2021-02-27T06:42:32Z</time>
      </trkpt>
      <trkpt lat="45.14493" lon="5.94586">
        <ele>2358.6</ele>
        <time>2021-02-27T06:42:33Z</time>
      </trkpt>
      <trkpt lat="45.14493" lon="5.94587">
        <ele>2359.2</ele>
        <time>2021-02-27T06:42:34Z</time>
      </trkpt>
      <trkpt lat="45.14494" lon="5.94588">
        <ele>2359.4</ele>
        <time>2021-02-27T06:42:35Z</time>
      </trkpt>
      <trkpt lat="45.14494" lon="5.94589">
        <ele>2359.8</ele>
        <time>2021-02-27T06:42:36Z</time>
      </trkpt>
      <trkpt lat="45.14494" lon="5.94591">
        <ele>2360.2</ele>
        <time>2021-02-27T06:42:37Z</time>
      </trkpt>
      <trkpt lat="45.14494" lon="5.94592">
        <ele>2360.2</ele>
        <time>2021-02-27T06:42:38Z</time>
      </trkpt>
      <trkpt lat="45.14494" lon="5.94593">
        <ele>2360.6</ele>
        <time>2021-02-27T06:42:39Z</time>
      </trkpt>
      <trkpt lat="45.14494" lon="5.94594">
        <ele>2360.8</ele>
        <time>2021-02-27T06:42:40Z</time>
      </trkpt>
      <trkpt lat="45.14495" lon="5.94596">
        <ele>2361</ele>
        <time>2021-02-27T06:42:41Z</time>
      </trkpt>
      <trkpt lat="45.14495" lon="5.94597">
        <ele>2361.8</ele>
        <time>2021-02-27T06:42:42Z</time>
      </trkpt>
      <trkpt lat="45.14495" lon="5.94598">
        <ele>2361.6</ele>
        <time>2021-02-27T06:42:43Z</time>
      </trkpt>
      <trkpt lat="45.14495" lon="5.946">
        <ele>2362.2</ele>
        <time>2021-02-27T06:42:44Z</time>
      </trkpt>
      <trkpt lat="45.14495" lon="5.94601">
        <ele>2362.4</ele>
        <time>2021-02-27T06:42:45Z</time>
      </trkpt>
      <trkpt lat="45.14495" lon="5.94602">
        <ele>2362.6</ele>
        <time>2021-02-27T06:42:46Z</time>
      </trkpt>
      <trkpt lat="45.14495" lon="5.94603">
        <ele>2363</ele>
        <time>2021-02-27T06:42:47Z</time>
      </trkpt>
      <trkpt lat="45.14495" lon="5.94604">
        <ele>2363.6</ele>
        <time>2021-02-27T06:42:48Z</time>
      </trkpt>
      <trkpt lat="45.14495" lon="5.94605">
        <ele>2363.8</ele>
        <time>2021-02-27T06:42:49Z</time>
      </trkpt>
      <trkpt lat="45.14495" lon="5.94606">
        <ele>2364</ele>
        <time>2021-02-27T06:42:50Z</time>
      </trkpt>
      <trkpt lat="45.14496" lon="5.94608">
        <ele>2364.6</ele>
        <time>2021-02-27T06:42:51Z</time>
      </trkpt>
      <trkpt lat="45.14496" lon="5.94609">
        <ele>2365.4</ele>
        <time>2021-02-27T06:42:52Z</time>
      </trkpt>
      <trkpt lat="45.14496" lon="5.9461">
        <ele>2365.4</ele>
        <time>2021-02-27T06:42:53Z</time>
      </trkpt>
      <trkpt lat="45.14496" lon="5.94611">
        <ele>2365.8</ele>
        <time>2021-02-27T06:42:54Z</time>
      </trkpt>
      <trkpt lat="45.14496" lon="5.94612">
        <ele>2366.2</ele>
        <time>2021-02-27T06:42:55Z</time>
      </trkpt>
      <trkpt lat="45.14496" lon="5.94613">
        <ele>2366.6</ele>
        <time>2021-02-27T06:42:56Z</time>
      </trkpt>
      <trkpt lat="45.14496" lon="5.94614">
        <ele>2366.8</ele>
        <time>2021-02-27T06:42:57Z</time>
      </trkpt>
      <trkpt lat="45.14496" lon="5.94615">
        <ele>2367</ele>
        <time>2021-02-27T06:42:58Z</time>
      </trkpt>
      <trkpt lat="45.14497" lon="5.94616">
        <ele>2367.4</ele>
        <time>2021-02-27T06:42:59Z</time>
      </trkpt>
      <trkpt lat="45.14497" lon="5.94617">
        <ele>2368.2</ele>
        <time>2021-02-27T06:43:00Z</time>
      </trkpt>
      <trkpt lat="45.14497" lon="5.94618">
        <ele>2368.2</ele>
        <time>2021-02-27T06:43:01Z</time>
      </trkpt>
      <trkpt lat="45.14497" lon="5.9462">
        <ele>2369.6</ele>
        <time>2021-02-27T06:43:02Z</time>
      </trkpt>
      <trkpt lat="45.14497" lon="5.94621">
        <ele>2370.2</ele>
        <time>2021-02-27T06:43:03Z</time>
      </trkpt>
      <trkpt lat="45.14498" lon="5.94622">
        <ele>2369.8</ele>
        <time>2021-02-27T06:43:04Z</time>
      </trkpt>
      <trkpt lat="45.14498" lon="5.94623">
        <ele>2370.4</ele>
        <time>2021-02-27T06:43:05Z</time>
      </trkpt>
      <trkpt lat="45.14498" lon="5.94624">
        <ele>2371.6</ele>
        <time>2021-02-27T06:43:06Z</time>
      </trkpt>
      <trkpt lat="45.14498" lon="5.94626">
        <ele>2373</ele>
        <time>2021-02-27T06:43:07Z</time>
      </trkpt>
      <trkpt lat="45.14499" lon="5.94627">
        <ele>2372.2</ele>
        <time>2021-02-27T06:43:08Z</time>
      </trkpt>
      <trkpt lat="45.14499" lon="5.94628">
        <ele>2371.6</ele>
        <time>2021-02-27T06:43:09Z</time>
      </trkpt>
      <trkpt lat="45.14499" lon="5.94629">
        <ele>2373.6</ele>
        <time>2021-02-27T06:43:10Z</time>
      </trkpt>
      <trkpt lat="45.14499" lon="5.9463">
        <ele>2373.6</ele>
        <time>2021-02-27T06:43:11Z</time>
      </trkpt>
      <trkpt lat="45.14499" lon="5.94631">
        <ele>2372.8</ele>
        <time>2021-02-27T06:43:12Z</time>
      </trkpt>
      <trkpt lat="45.14499" lon="5.94633">
        <ele>2373.8</ele>
        <time>2021-02-27T06:43:13Z</time>
      </trkpt>
      <trkpt lat="45.14499" lon="5.94634">
        <ele>2373.6</ele>
        <time>2021-02-27T06:43:14Z</time>
      </trkpt>
      <trkpt lat="45.145" lon="5.94635">
        <ele>2372</ele>
        <time>2021-02-27T06:43:15Z</time>
      </trkpt>
      <trkpt lat="45.145" lon="5.94636">
        <ele>2371.6</ele>
        <time>2021-02-27T06:43:16Z</time>
      </trkpt>
      <trkpt lat="45.145" lon="5.94636">
        <ele>2371</ele>
        <time>2021-02-27T06:43:17Z</time>
      </trkpt>
      <trkpt lat="45.145" lon="5.94636">
        <ele>2370.4</ele>
        <time>2021-02-27T06:43:18Z</time>
      </trkpt>
      <trkpt lat="45.145" lon="5.94636">
        <ele>2370.4</ele>
        <time>2021-02-27T06:43:19Z</time>
      </trkpt>
      <trkpt lat="45.145" lon="5.94636">
        <ele>2370.8</ele>
        <time>2021-02-27T06:43:20Z</time>
      </trkpt>
      <trkpt lat="45.145" lon="5.94636">
        <ele>2371.6</ele>
        <time>2021-02-27T06:43:21Z</time>
      </trkpt>
      <trkpt lat="45.145" lon="5.94636">
        <ele>2371.8</ele>
        <time>2021-02-27T06:43:22Z</time>
      </trkpt>
      <trkpt lat="45.145" lon="5.94636">
        <ele>2371.8</ele>
        <time>2021-02-27T06:43:23Z</time>
      </trkpt>
      <trkpt lat="45.145" lon="5.94636">
        <ele>2371.6</ele>
        <time>2021-02-27T06:43:24Z</time>
      </trkpt>
      <trkpt lat="45.145" lon="5.94636">
        <ele>2371.4</ele>
        <time>2021-02-27T06:43:25Z</time>
      </trkpt>
      <trkpt lat="45.145" lon="5.94636">
        <ele>2371.4</ele>
        <time>2021-02-27T06:43:26Z</time>
      </trkpt>
      <trkpt lat="45.145" lon="5.94636">
        <ele>2371.4</ele>
        <time>2021-02-27T06:43:27Z</time>
      </trkpt>
      <trkpt lat="45.145" lon="5.94636">
        <ele>2371.4</ele>
        <time>2021-02-27T06:43:28Z</time>
      </trkpt>
      <trkpt lat="45.145" lon="5.94636">
        <ele>2371.2</ele>
        <time>2021-02-27T06:43:29Z</time>
      </trkpt>
      <trkpt lat="45.145" lon="5.94636">
        <ele>2371.4</ele>
        <time>2021-02-27T06:43:30Z</time>
      </trkpt>
      <trkpt lat="45.145" lon="5.94636">
        <ele>2371.6</ele>
        <time>2021-02-27T06:43:31Z</time>
      </trkpt>
      <trkpt lat="45.145" lon="5.94636">
        <ele>2372.2</ele>
        <time>2021-02-27T06:43:32Z</time>
      </trkpt>
      <trkpt lat="45.14497" lon="5.94637">
        <ele>2371.8</ele>
        <time>2021-02-27T06:43:33Z</time>
      </trkpt>
      <trkpt lat="45.14497" lon="5.94637">
        <ele>2372.8</ele>
        <time>2021-02-27T06:43:34Z</time>
      </trkpt>
      <trkpt lat="45.14497" lon="5.94637">
        <ele>2372.6</ele>
        <time>2021-02-27T06:43:35Z</time>
      </trkpt>
      <trkpt lat="45.14497" lon="5.94637">
        <ele>2372</ele>
        <time>2021-02-27T06:43:36Z</time>
      </trkpt>
      <trkpt lat="45.14497" lon="5.94638">
        <ele>2371.8</ele>
        <time>2021-02-27T06:43:37Z</time>
      </trkpt>
      <trkpt lat="45.14497" lon="5.94638">
        <ele>2371.8</ele>
        <time>2021-02-27T06:43:38Z</time>
      </trkpt>
      <trkpt lat="45.14497" lon="5.94638">
        <ele>2371.8</ele>
        <time>2021-02-27T06:43:39Z</time>
      </trkpt>
      <trkpt lat="45.14497" lon="5.94638">
        <ele>2371.6</ele>
        <time>2021-02-27T06:43:40Z</time>
      </trkpt>
      <trkpt lat="45.14497" lon="5.94638">
        <ele>2371.8</ele>
        <time>2021-02-27T06:43:41Z</time>
      </trkpt>
      <trkpt lat="45.14498" lon="5.94638">
        <ele>2371.4</ele>
        <time>2021-02-27T06:43:42Z</time>
      </trkpt>
      <trkpt lat="45.14498" lon="5.94638">
        <ele>2371.6</ele>
        <time>2021-02-27T06:43:43Z</time>
      </trkpt>
      <trkpt lat="45.14498" lon="5.94638">
        <ele>2371.4</ele>
        <time>2021-02-27T06:43:44Z</time>
      </trkpt>
      <trkpt lat="45.14498" lon="5.94638">
        <ele>2371.4</ele>
        <time>2021-02-27T06:43:45Z</time>
      </trkpt>
      <trkpt lat="45.14498" lon="5.94638">
        <ele>2371.4</ele>
        <time>2021-02-27T06:43:46Z</time>
      </trkpt>
      <trkpt lat="45.14498" lon="5.94639">
        <ele>2371.4</ele>
        <time>2021-02-27T06:43:47Z</time>
      </trkpt>
      <trkpt lat="45.14498" lon="5.94639">
        <ele>2371.2</ele>
        <time>2021-02-27T06:43:48Z</time>
      </trkpt>
      <trkpt lat="45.14498" lon="5.94639">
        <ele>2372.4</ele>
        <time>2021-02-27T06:43:49Z</time>
      </trkpt>
      <trkpt lat="45.14498" lon="5.94639">
        <ele>2372</ele>
        <time>2021-02-27T06:43:50Z</time>
      </trkpt>
      <trkpt lat="45.14498" lon="5.94639">
        <ele>2371.8</ele>
        <time>2021-02-27T06:43:51Z</time>
      </trkpt>
      <trkpt lat="45.14498" lon="5.94639">
        <ele>2372.2</ele>
        <time>2021-02-27T06:43:52Z</time>
      </trkpt>
      <trkpt lat="45.14498" lon="5.94639">
        <ele>2372.4</ele>
        <time>2021-02-27T06:43:53Z</time>
      </trkpt>
      <trkpt lat="45.14498" lon="5.94639">
        <ele>2372.2</ele>
        <time>2021-02-27T06:43:54Z</time>
      </trkpt>
      <trkpt lat="45.14498" lon="5.94639">
        <ele>2372.6</ele>
        <time>2021-02-27T06:43:55Z</time>
      </trkpt>
      <trkpt lat="45.14498" lon="5.94639">
        <ele>2372.6</ele>
        <time>2021-02-27T06:43:56Z</time>
      </trkpt>
      <trkpt lat="45.14498" lon="5.9464">
        <ele>2372.2</ele>
        <time>2021-02-27T06:43:57Z</time>
      </trkpt>
      <trkpt lat="45.14498" lon="5.9464">
        <ele>2372</ele>
        <time>2021-02-27T06:43:58Z</time>
      </trkpt>
      <trkpt lat="45.14498" lon="5.9464">
        <ele>2372.2</ele>
        <time>2021-02-27T06:43:59Z</time>
      </trkpt>
      <trkpt lat="45.14498" lon="5.9464">
        <ele>2372.4</ele>
        <time>2021-02-27T06:44:00Z</time>
      </trkpt>
      <trkpt lat="45.14498" lon="5.9464">
        <ele>2372.4</ele>
        <time>2021-02-27T06:44:01Z</time>
      </trkpt>
      <trkpt lat="45.14498" lon="5.9464">
        <ele>2372.4</ele>
        <time>2021-02-27T06:44:02Z</time>
      </trkpt>
      <trkpt lat="45.14498" lon="5.9464">
        <ele>2372.4</ele>
        <time>2021-02-27T06:44:03Z</time>
      </trkpt>
      <trkpt lat="45.14498" lon="5.9464">
        <ele>2372.4</ele>
        <time>2021-02-27T06:44:04Z</time>
      </trkpt>
      <trkpt lat="45.14498" lon="5.9464">
        <ele>2372.6</ele>
        <time>2021-02-27T06:44:05Z</time>
      </trkpt>
      <trkpt lat="45.14498" lon="5.9464">
        <ele>2372.6</ele>
        <time>2021-02-27T06:44:06Z</time>
      </trkpt>
      <trkpt lat="45.14498" lon="5.94641">
        <ele>2372.8</ele>
        <time>2021-02-27T06:44:07Z</time>
      </trkpt>
      <trkpt lat="45.14498" lon="5.94641">
        <ele>2373</ele>
        <time>2021-02-27T06:44:08Z</time>
      </trkpt>
      <trkpt lat="45.14498" lon="5.94641">
        <ele>2373.2</ele>
        <time>2021-02-27T06:44:09Z</time>
      </trkpt>
      <trkpt lat="45.14499" lon="5.94641">
        <ele>2373.2</ele>
        <time>2021-02-27T06:44:10Z</time>
      </trkpt>
      <trkpt lat="45.14499" lon="5.94641">
        <ele>2373.2</ele>
        <time>2021-02-27T06:44:11Z</time>
      </trkpt>
      <trkpt lat="45.14499" lon="5.94641">
        <ele>2373.4</ele>
        <time>2021-02-27T06:44:12Z</time>
      </trkpt>
      <trkpt lat="45.14499" lon="5.94641">
        <ele>2372.8</ele>
        <time>2021-02-27T06:44:13Z</time>
      </trkpt>
      <trkpt lat="45.14499" lon="5.94641">
        <ele>2372.6</ele>
        <time>2021-02-27T06:44:14Z</time>
      </trkpt>
      <trkpt lat="45.14499" lon="5.94641">
        <ele>2372.4</ele>
        <time>2021-02-27T06:44:15Z</time>
      </trkpt>
      <trkpt lat="45.14499" lon="5.94641">
        <ele>2373</ele>
        <time>2021-02-27T06:44:16Z</time>
      </trkpt>
      <trkpt lat="45.14499" lon="5.94642">
        <ele>2373.4</ele>
        <time>2021-02-27T06:44:17Z</time>
      </trkpt>
      <trkpt lat="45.14499" lon="5.94642">
        <ele>2373.4</ele>
        <time>2021-02-27T06:44:18Z</time>
      </trkpt>
      <trkpt lat="45.14499" lon="5.94642">
        <ele>2373</ele>
        <time>2021-02-27T06:44:19Z</time>
      </trkpt>
      <trkpt lat="45.14499" lon="5.94642">
        <ele>2373.4</ele>
        <time>2021-02-27T06:44:20Z</time>
      </trkpt>
      <trkpt lat="45.14499" lon="5.94642">
        <ele>2374.2</ele>
        <time>2021-02-27T06:44:21Z</time>
      </trkpt>
      <trkpt lat="45.14499" lon="5.94642">
        <ele>2374.6</ele>
        <time>2021-02-27T06:44:22Z</time>
      </trkpt>
      <trkpt lat="45.14499" lon="5.94642">
        <ele>2375</ele>
        <time>2021-02-27T06:44:23Z</time>
      </trkpt>
      <trkpt lat="45.14499" lon="5.94642">
        <ele>2374.8</ele>
        <time>2021-02-27T06:44:24Z</time>
      </trkpt>
      <trkpt lat="45.14499" lon="5.94642">
        <ele>2374.2</ele>
        <time>2021-02-27T06:44:25Z</time>
      </trkpt>
      <trkpt lat="45.14499" lon="5.94646">
        <ele>2373.6</ele>
        <time>2021-02-27T06:44:26Z</time>
      </trkpt>
      <trkpt lat="45.14499" lon="5.94646">
        <ele>2373.2</ele>
        <time>2021-02-27T06:44:27Z</time>
      </trkpt>
      <trkpt lat="45.145" lon="5.94652">
        <ele>2373.6</ele>
        <time>2021-02-27T06:44:28Z</time>
      </trkpt>
      <trkpt lat="45.14499" lon="5.94654">
        <ele>2372.8</ele>
        <time>2021-02-27T06:44:29Z</time>
      </trkpt>
      <trkpt lat="45.14499" lon="5.94654">
        <ele>2372.4</ele>
        <time>2021-02-27T06:44:30Z</time>
      </trkpt>
      <trkpt lat="45.14499" lon="5.94657">
        <ele>2372.4</ele>
        <time>2021-02-27T06:44:31Z</time>
      </trkpt>
      <trkpt lat="45.14499" lon="5.94659">
        <ele>2372.6</ele>
        <time>2021-02-27T06:44:32Z</time>
      </trkpt>
      <trkpt lat="45.14499" lon="5.94662">
        <ele>2372</ele>
        <time>2021-02-27T06:44:33Z</time>
      </trkpt>
      <trkpt lat="45.14498" lon="5.94665">
        <ele>2371.8</ele>
        <time>2021-02-27T06:44:34Z</time>
      </trkpt>
      <trkpt lat="45.14498" lon="5.94667">
        <ele>2371.6</ele>
        <time>2021-02-27T06:44:35Z</time>
      </trkpt>
      <trkpt lat="45.14498" lon="5.9467">
        <ele>2371</ele>
        <time>2021-02-27T06:44:36Z</time>
      </trkpt>
      <trkpt lat="45.14498" lon="5.94672">
        <ele>2371</ele>
        <time>2021-02-27T06:44:37Z</time>
      </trkpt>
      <trkpt lat="45.14498" lon="5.94674">
        <ele>2371</ele>
        <time>2021-02-27T06:44:38Z</time>
      </trkpt>
      <trkpt lat="45.14499" lon="5.94677">
        <ele>2370.8</ele>
        <time>2021-02-27T06:44:39Z</time>
      </trkpt>
      <trkpt lat="45.14499" lon="5.94679">
        <ele>2370.8</ele>
        <time>2021-02-27T06:44:40Z</time>
      </trkpt>
      <trkpt lat="45.14499" lon="5.94681">
        <ele>2370.6</ele>
        <time>2021-02-27T06:44:41Z</time>
      </trkpt>
      <trkpt lat="45.14499" lon="5.94684">
        <ele>2370.6</ele>
        <time>2021-02-27T06:44:42Z</time>
      </trkpt>
      <trkpt lat="45.14501" lon="5.94688">
        <ele>2370.4</ele>
        <time>2021-02-27T06:44:43Z</time>
      </trkpt>
      <trkpt lat="45.14502" lon="5.94692">
        <ele>2370.2</ele>
        <time>2021-02-27T06:44:44Z</time>
      </trkpt>
      <trkpt lat="45.14504" lon="5.94697">
        <ele>2370</ele>
        <time>2021-02-27T06:44:45Z</time>
      </trkpt>
      <trkpt lat="45.14505" lon="5.94701">
        <ele>2370</ele>
        <time>2021-02-27T06:44:46Z</time>
      </trkpt>
      <trkpt lat="45.14507" lon="5.94705">
        <ele>2370</ele>
        <time>2021-02-27T06:44:47Z</time>
      </trkpt>
      <trkpt lat="45.14508" lon="5.94712">
        <ele>2369.4</ele>
        <time>2021-02-27T06:44:48Z</time>
      </trkpt>
      <trkpt lat="45.14508" lon="5.94712">
        <ele>2369.6</ele>
        <time>2021-02-27T06:44:49Z</time>
      </trkpt>
      <trkpt lat="45.1451" lon="5.94717">
        <ele>2369.2</ele>
        <time>2021-02-27T06:44:50Z</time>
      </trkpt>
      <trkpt lat="45.14512" lon="5.94722">
        <ele>2369</ele>
        <time>2021-02-27T06:44:51Z</time>
      </trkpt>
      <trkpt lat="45.14514" lon="5.94727">
        <ele>2368.6</ele>
        <time>2021-02-27T06:44:52Z</time>
      </trkpt>
      <trkpt lat="45.14515" lon="5.94732">
        <ele>2368.2</ele>
        <time>2021-02-27T06:44:53Z</time>
      </trkpt>
      <trkpt lat="45.14517" lon="5.94736">
        <ele>2368</ele>
        <time>2021-02-27T06:44:54Z</time>
      </trkpt>
      <trkpt lat="45.14518" lon="5.9474">
        <ele>2367.6</ele>
        <time>2021-02-27T06:44:55Z</time>
      </trkpt>
      <trkpt lat="45.1452" lon="5.94743">
        <ele>2367.4</ele>
        <time>2021-02-27T06:44:56Z</time>
      </trkpt>
      <trkpt lat="45.14521" lon="5.94746">
        <ele>2367</ele>
        <time>2021-02-27T06:44:57Z</time>
      </trkpt>
      <trkpt lat="45.14522" lon="5.94749">
        <ele>2367</ele>
        <time>2021-02-27T06:44:58Z</time>
      </trkpt>
      <trkpt lat="45.14524" lon="5.94752">
        <ele>2366.8</ele>
        <time>2021-02-27T06:44:59Z</time>
      </trkpt>
      <trkpt lat="45.14525" lon="5.94757">
        <ele>2366.8</ele>
        <time>2021-02-27T06:45:00Z</time>
      </trkpt>
      <trkpt lat="45.14525" lon="5.94761">
        <ele>2366.6</ele>
        <time>2021-02-27T06:45:01Z</time>
      </trkpt>
      <trkpt lat="45.14526" lon="5.94766">
        <ele>2366.4</ele>
        <time>2021-02-27T06:45:02Z</time>
      </trkpt>
      <trkpt lat="45.14527" lon="5.94774">
        <ele>2366.2</ele>
        <time>2021-02-27T06:45:03Z</time>
      </trkpt>
      <trkpt lat="45.14528" lon="5.94782">
        <ele>2366</ele>
        <time>2021-02-27T06:45:04Z</time>
      </trkpt>
      <trkpt lat="45.14529" lon="5.9479">
        <ele>2365.8</ele>
        <time>2021-02-27T06:45:05Z</time>
      </trkpt>
      <trkpt lat="45.1453" lon="5.94796">
        <ele>2365.4</ele>
        <time>2021-02-27T06:45:06Z</time>
      </trkpt>
      <trkpt lat="45.1453" lon="5.94796">
        <ele>2365</ele>
        <time>2021-02-27T06:45:07Z</time>
      </trkpt>
      <trkpt lat="45.14533" lon="5.9481">
        <ele>2364.6</ele>
        <time>2021-02-27T06:45:08Z</time>
      </trkpt>
      <trkpt lat="45.14533" lon="5.9481">
        <ele>2364.2</ele>
        <time>2021-02-27T06:45:09Z</time>
      </trkpt>
      <trkpt lat="45.1453" lon="5.94825">
        <ele>2363</ele>
        <time>2021-02-27T06:45:10Z</time>
      </trkpt>
      <trkpt lat="45.14529" lon="5.94827">
        <ele>2362</ele>
        <time>2021-02-27T06:45:11Z</time>
      </trkpt>
      <trkpt lat="45.14528" lon="5.9483">
        <ele>2361</ele>
        <time>2021-02-27T06:45:12Z</time>
      </trkpt>
      <trkpt lat="45.14528" lon="5.94833">
        <ele>2360.4</ele>
        <time>2021-02-27T06:45:13Z</time>
      </trkpt>
      <trkpt lat="45.14528" lon="5.94836">
        <ele>2359.6</ele>
        <time>2021-02-27T06:45:14Z</time>
      </trkpt>
      <trkpt lat="45.14527" lon="5.94838">
        <ele>2358.4</ele>
        <time>2021-02-27T06:45:15Z</time>
      </trkpt>
      <trkpt lat="45.14526" lon="5.9484">
        <ele>2357.6</ele>
        <time>2021-02-27T06:45:16Z</time>
      </trkpt>
      <trkpt lat="45.14526" lon="5.9484">
        <ele>2356.8</ele>
        <time>2021-02-27T06:45:17Z</time>
      </trkpt>
      <trkpt lat="45.14524" lon="5.94844">
        <ele>2356</ele>
        <time>2021-02-27T06:45:18Z</time>
      </trkpt>
      <trkpt lat="45.14523" lon="5.94847">
        <ele>2355.4</ele>
        <time>2021-02-27T06:45:19Z</time>
      </trkpt>
      <trkpt lat="45.14523" lon="5.94847">
        <ele>2354.6</ele>
        <time>2021-02-27T06:45:20Z</time>
      </trkpt>
      <trkpt lat="45.14521" lon="5.9485">
        <ele>2353.6</ele>
        <time>2021-02-27T06:45:21Z</time>
      </trkpt>
      <trkpt lat="45.14518" lon="5.94853">
        <ele>2353</ele>
        <time>2021-02-27T06:45:22Z</time>
      </trkpt>
      <trkpt lat="45.14516" lon="5.94856">
        <ele>2352.2</ele>
        <time>2021-02-27T06:45:23Z</time>
      </trkpt>
      <trkpt lat="45.14505" lon="5.94868">
        <ele>2351</ele>
        <time>2021-02-27T06:45:24Z</time>
      </trkpt>
      <trkpt lat="45.14503" lon="5.94871">
        <ele>2349.6</ele>
        <time>2021-02-27T06:45:25Z</time>
      </trkpt>
      <trkpt lat="45.14496" lon="5.94881">
        <ele>2348.6</ele>
        <time>2021-02-27T06:45:26Z</time>
      </trkpt>
      <trkpt lat="45.14493" lon="5.94884">
        <ele>2348</ele>
        <time>2021-02-27T06:45:27Z</time>
      </trkpt>
      <trkpt lat="45.14489" lon="5.94889">
        <ele>2347.4</ele>
        <time>2021-02-27T06:45:28Z</time>
      </trkpt>
      <trkpt lat="45.14489" lon="5.94889">
        <ele>2346.8</ele>
        <time>2021-02-27T06:45:29Z</time>
      </trkpt>
      <trkpt lat="45.14489" lon="5.94894">
        <ele>2346.4</ele>
        <time>2021-02-27T06:45:30Z</time>
      </trkpt>
      <trkpt lat="45.1449" lon="5.94898">
        <ele>2346</ele>
        <time>2021-02-27T06:45:31Z</time>
      </trkpt>
      <trkpt lat="45.1449" lon="5.94903">
        <ele>2345.8</ele>
        <time>2021-02-27T06:45:32Z</time>
      </trkpt>
      <trkpt lat="45.14491" lon="5.94906">
        <ele>2345.6</ele>
        <time>2021-02-27T06:45:33Z</time>
      </trkpt>
      <trkpt lat="45.14492" lon="5.94909">
        <ele>2345.4</ele>
        <time>2021-02-27T06:45:34Z</time>
      </trkpt>
      <trkpt lat="45.14493" lon="5.94912">
        <ele>2345.2</ele>
        <time>2021-02-27T06:45:35Z</time>
      </trkpt>
      <trkpt lat="45.14494" lon="5.94915">
        <ele>2345.2</ele>
        <time>2021-02-27T06:45:36Z</time>
      </trkpt>
      <trkpt lat="45.14494" lon="5.94918">
        <ele>2345.2</ele>
        <time>2021-02-27T06:45:37Z</time>
      </trkpt>
      <trkpt lat="45.14495" lon="5.94922">
        <ele>2345.2</ele>
        <time>2021-02-27T06:45:38Z</time>
      </trkpt>
      <trkpt lat="45.14495" lon="5.94925">
        <ele>2345</ele>
        <time>2021-02-27T06:45:39Z</time>
      </trkpt>
      <trkpt lat="45.14496" lon="5.94928">
        <ele>2345</ele>
        <time>2021-02-27T06:45:40Z</time>
      </trkpt>
      <trkpt lat="45.14495" lon="5.94937">
        <ele>2344.4</ele>
        <time>2021-02-27T06:45:41Z</time>
      </trkpt>
      <trkpt lat="45.14494" lon="5.94947">
        <ele>2344.4</ele>
        <time>2021-02-27T06:45:42Z</time>
      </trkpt>
      <trkpt lat="45.14493" lon="5.94956">
        <ele>2343.4</ele>
        <time>2021-02-27T06:45:43Z</time>
      </trkpt>
      <trkpt lat="45.14491" lon="5.94971">
        <ele>2341.8</ele>
        <time>2021-02-27T06:45:44Z</time>
      </trkpt>
      <trkpt lat="45.1449" lon="5.94975">
        <ele>2341</ele>
        <time>2021-02-27T06:45:45Z</time>
      </trkpt>
      <trkpt lat="45.14489" lon="5.94987">
        <ele>2340.2</ele>
        <time>2021-02-27T06:45:46Z</time>
      </trkpt>
      <trkpt lat="45.14489" lon="5.9499">
        <ele>2339.6</ele>
        <time>2021-02-27T06:45:47Z</time>
      </trkpt>
      <trkpt lat="45.14488" lon="5.94997">
        <ele>2339</ele>
        <time>2021-02-27T06:45:48Z</time>
      </trkpt>
      <trkpt lat="45.14488" lon="5.94997">
        <ele>2338.6</ele>
        <time>2021-02-27T06:45:49Z</time>
      </trkpt>
      <trkpt lat="45.14488" lon="5.9501">
        <ele>2338</ele>
        <time>2021-02-27T06:45:50Z</time>
      </trkpt>
      <trkpt lat="45.14488" lon="5.9501">
        <ele>2337.4</ele>
        <time>2021-02-27T06:45:51Z</time>
      </trkpt>
      <trkpt lat="45.14493" lon="5.95017">
        <ele>2337.2</ele>
        <time>2021-02-27T06:45:52Z</time>
      </trkpt>
      <trkpt lat="45.14498" lon="5.95023">
        <ele>2337</ele>
        <time>2021-02-27T06:45:53Z</time>
      </trkpt>
      <trkpt lat="45.14502" lon="5.9503">
        <ele>2336.8</ele>
        <time>2021-02-27T06:45:54Z</time>
      </trkpt>
      <trkpt lat="45.14508" lon="5.9504">
        <ele>2336.2</ele>
        <time>2021-02-27T06:45:55Z</time>
      </trkpt>
      <trkpt lat="45.1451" lon="5.95044">
        <ele>2335.8</ele>
        <time>2021-02-27T06:45:56Z</time>
      </trkpt>
      <trkpt lat="45.14516" lon="5.95055">
        <ele>2335.2</ele>
        <time>2021-02-27T06:45:57Z</time>
      </trkpt>
      <trkpt lat="45.14518" lon="5.95059">
        <ele>2334.6</ele>
        <time>2021-02-27T06:45:58Z</time>
      </trkpt>
      <trkpt lat="45.14523" lon="5.95069">
        <ele>2333.8</ele>
        <time>2021-02-27T06:45:59Z</time>
      </trkpt>
      <trkpt lat="45.14525" lon="5.95073">
        <ele>2333.2</ele>
        <time>2021-02-27T06:46:00Z</time>
      </trkpt>
      <trkpt lat="45.14529" lon="5.95084">
        <ele>2332.6</ele>
        <time>2021-02-27T06:46:01Z</time>
      </trkpt>
      <trkpt lat="45.14531" lon="5.95088">
        <ele>2332</ele>
        <time>2021-02-27T06:46:02Z</time>
      </trkpt>
      <trkpt lat="45.14537" lon="5.95101">
        <ele>2331.4</ele>
        <time>2021-02-27T06:46:03Z</time>
      </trkpt>
      <trkpt lat="45.14539" lon="5.95107">
        <ele>2330.4</ele>
        <time>2021-02-27T06:46:04Z</time>
      </trkpt>
      <trkpt lat="45.14545" lon="5.95123">
        <ele>2330</ele>
        <time>2021-02-27T06:46:05Z</time>
      </trkpt>
      <trkpt lat="45.14548" lon="5.95129">
        <ele>2328.8</ele>
        <time>2021-02-27T06:46:06Z</time>
      </trkpt>
      <trkpt lat="45.14553" lon="5.9514">
        <ele>2328</ele>
        <time>2021-02-27T06:46:07Z</time>
      </trkpt>
      <trkpt lat="45.14553" lon="5.9514">
        <ele>2326.6</ele>
        <time>2021-02-27T06:46:08Z</time>
      </trkpt>
      <trkpt lat="45.14564" lon="5.95162">
        <ele>2325.6</ele>
        <time>2021-02-27T06:46:09Z</time>
      </trkpt>
      <trkpt lat="45.14566" lon="5.95166">
        <ele>2324.8</ele>
        <time>2021-02-27T06:46:10Z</time>
      </trkpt>
      <trkpt lat="45.14572" lon="5.95176">
        <ele>2324</ele>
        <time>2021-02-27T06:46:11Z</time>
      </trkpt>
      <trkpt lat="45.14574" lon="5.95178">
        <ele>2323.2</ele>
        <time>2021-02-27T06:46:12Z</time>
      </trkpt>
      <trkpt lat="45.14579" lon="5.95186">
        <ele>2322.6</ele>
        <time>2021-02-27T06:46:13Z</time>
      </trkpt>
      <trkpt lat="45.14581" lon="5.95188">
        <ele>2322.2</ele>
        <time>2021-02-27T06:46:14Z</time>
      </trkpt>
      <trkpt lat="45.14585" lon="5.95193">
        <ele>2322</ele>
        <time>2021-02-27T06:46:15Z</time>
      </trkpt>
      <trkpt lat="45.14585" lon="5.95193">
        <ele>2321.4</ele>
        <time>2021-02-27T06:46:16Z</time>
      </trkpt>
      <trkpt lat="45.14588" lon="5.95197">
        <ele>2321.2</ele>
        <time>2021-02-27T06:46:17Z</time>
      </trkpt>
      <trkpt lat="45.14591" lon="5.952">
        <ele>2320.8</ele>
        <time>2021-02-27T06:46:18Z</time>
      </trkpt>
      <trkpt lat="45.14594" lon="5.95204">
        <ele>2320.8</ele>
        <time>2021-02-27T06:46:19Z</time>
      </trkpt>
      <trkpt lat="45.14595" lon="5.95204">
        <ele>2320.4</ele>
        <time>2021-02-27T06:46:20Z</time>
      </trkpt>
      <trkpt lat="45.14595" lon="5.95205">
        <ele>2320.6</ele>
        <time>2021-02-27T06:46:21Z</time>
      </trkpt>
      <trkpt lat="45.14596" lon="5.95205">
        <ele>2320.6</ele>
        <time>2021-02-27T06:46:22Z</time>
      </trkpt>
      <trkpt lat="45.14596" lon="5.95205">
        <ele>2320.4</ele>
        <time>2021-02-27T06:46:23Z</time>
      </trkpt>
      <trkpt lat="45.14596" lon="5.95205">
        <ele>2320.2</ele>
        <time>2021-02-27T06:46:24Z</time>
      </trkpt>
      <trkpt lat="45.14597" lon="5.95205">
        <ele>2320.2</ele>
        <time>2021-02-27T06:46:25Z</time>
      </trkpt>
      <trkpt lat="45.14597" lon="5.95205">
        <ele>2320</ele>
        <time>2021-02-27T06:46:26Z</time>
      </trkpt>
      <trkpt lat="45.14598" lon="5.95205">
        <ele>2320</ele>
        <time>2021-02-27T06:46:27Z</time>
      </trkpt>
      <trkpt lat="45.14598" lon="5.95205">
        <ele>2319.8</ele>
        <time>2021-02-27T06:46:28Z</time>
      </trkpt>
      <trkpt lat="45.14598" lon="5.95205">
        <ele>2319.6</ele>
        <time>2021-02-27T06:46:29Z</time>
      </trkpt>
      <trkpt lat="45.14599" lon="5.95205">
        <ele>2319.6</ele>
        <time>2021-02-27T06:46:30Z</time>
      </trkpt>
      <trkpt lat="45.14599" lon="5.95205">
        <ele>2319.4</ele>
        <time>2021-02-27T06:46:31Z</time>
      </trkpt>
      <trkpt lat="45.14599" lon="5.95205">
        <ele>2319.6</ele>
        <time>2021-02-27T06:46:32Z</time>
      </trkpt>
      <trkpt lat="45.146" lon="5.95205">
        <ele>2319.6</ele>
        <time>2021-02-27T06:46:33Z</time>
      </trkpt>
      <trkpt lat="45.146" lon="5.95205">
        <ele>2320</ele>
        <time>2021-02-27T06:46:34Z</time>
      </trkpt>
      <trkpt lat="45.14601" lon="5.95205">
        <ele>2320.4</ele>
        <time>2021-02-27T06:46:35Z</time>
      </trkpt>
      <trkpt lat="45.14601" lon="5.95205">
        <ele>2321</ele>
        <time>2021-02-27T06:46:36Z</time>
      </trkpt>
      <trkpt lat="45.14601" lon="5.95205">
        <ele>2321.2</ele>
        <time>2021-02-27T06:46:37Z</time>
      </trkpt>
      <trkpt lat="45.14602" lon="5.95205">
        <ele>2321.2</ele>
        <time>2021-02-27T06:46:38Z</time>
      </trkpt>
      <trkpt lat="45.14602" lon="5.95205">
        <ele>2321.2</ele>
        <time>2021-02-27T06:46:39Z</time>
      </trkpt>
      <trkpt lat="45.14603" lon="5.95205">
        <ele>2321.2</ele>
        <time>2021-02-27T06:46:40Z</time>
      </trkpt>
      <trkpt lat="45.14603" lon="5.95205">
        <ele>2320.8</ele>
        <time>2021-02-27T06:46:41Z</time>
      </trkpt>
      <trkpt lat="45.14603" lon="5.95205">
        <ele>2320.8</ele>
        <time>2021-02-27T06:46:42Z</time>
      </trkpt>
      <trkpt lat="45.14604" lon="5.95205">
        <ele>2320.6</ele>
        <time>2021-02-27T06:46:43Z</time>
      </trkpt>
      <trkpt lat="45.14603" lon="5.95206">
        <ele>2320.8</ele>
        <time>2021-02-27T06:46:44Z</time>
      </trkpt>
      <trkpt lat="45.14602" lon="5.95206">
        <ele>2320.8</ele>
        <time>2021-02-27T06:46:45Z</time>
      </trkpt>
      <trkpt lat="45.14601" lon="5.95207">
        <ele>2320.8</ele>
        <time>2021-02-27T06:46:46Z</time>
      </trkpt>
      <trkpt lat="45.14601" lon="5.95207">
        <ele>2321</ele>
        <time>2021-02-27T06:46:47Z</time>
      </trkpt>
      <trkpt lat="45.146" lon="5.95207">
        <ele>2320.6</ele>
        <time>2021-02-27T06:46:48Z</time>
      </trkpt>
      <trkpt lat="45.14599" lon="5.95208">
        <ele>2320.8</ele>
        <time>2021-02-27T06:46:49Z</time>
      </trkpt>
      <trkpt lat="45.14598" lon="5.95208">
        <ele>2320.4</ele>
        <time>2021-02-27T06:46:50Z</time>
      </trkpt>
      <trkpt lat="45.14597" lon="5.95209">
        <ele>2320.2</ele>
        <time>2021-02-27T06:46:51Z</time>
      </trkpt>
      <trkpt lat="45.14596" lon="5.95209">
        <ele>2320.6</ele>
        <time>2021-02-27T06:46:52Z</time>
      </trkpt>
      <trkpt lat="45.14596" lon="5.95209">
        <ele>2320.8</ele>
        <time>2021-02-27T06:46:53Z</time>
      </trkpt>
      <trkpt lat="45.14595" lon="5.9521">
        <ele>2320.4</ele>
        <time>2021-02-27T06:46:54Z</time>
      </trkpt>
      <trkpt lat="45.14594" lon="5.9521">
        <ele>2320.4</ele>
        <time>2021-02-27T06:46:55Z</time>
      </trkpt>
      <trkpt lat="45.14594" lon="5.9521">
        <ele>2320.2</ele>
        <time>2021-02-27T06:46:56Z</time>
      </trkpt>
      <trkpt lat="45.14594" lon="5.9521">
        <ele>2320</ele>
        <time>2021-02-27T06:46:57Z</time>
      </trkpt>
      <trkpt lat="45.14594" lon="5.9521">
        <ele>2319.6</ele>
        <time>2021-02-27T06:46:58Z</time>
      </trkpt>
      <trkpt lat="45.14594" lon="5.9521">
        <ele>2319.4</ele>
        <time>2021-02-27T06:46:59Z</time>
      </trkpt>
      <trkpt lat="45.14595" lon="5.9521">
        <ele>2319.4</ele>
        <time>2021-02-27T06:47:00Z</time>
      </trkpt>
      <trkpt lat="45.14595" lon="5.95209">
        <ele>2319.2</ele>
        <time>2021-02-27T06:47:01Z</time>
      </trkpt>
      <trkpt lat="45.14595" lon="5.95209">
        <ele>2319.4</ele>
        <time>2021-02-27T06:47:02Z</time>
      </trkpt>
      <trkpt lat="45.14595" lon="5.95209">
        <ele>2319.8</ele>
        <time>2021-02-27T06:47:03Z</time>
      </trkpt>
      <trkpt lat="45.14595" lon="5.95209">
        <ele>2320.4</ele>
        <time>2021-02-27T06:47:04Z</time>
      </trkpt>
      <trkpt lat="45.14595" lon="5.95209">
        <ele>2320.4</ele>
        <time>2021-02-27T06:47:05Z</time>
      </trkpt>
      <trkpt lat="45.14595" lon="5.95209">
        <ele>2320.6</ele>
        <time>2021-02-27T06:47:06Z</time>
      </trkpt>
      <trkpt lat="45.14596" lon="5.95209">
        <ele>2321</ele>
        <time>2021-02-27T06:47:07Z</time>
      </trkpt>
      <trkpt lat="45.14596" lon="5.95209">
        <ele>2321.2</ele>
        <time>2021-02-27T06:47:08Z</time>
      </trkpt>
      <trkpt lat="45.14596" lon="5.95209">
        <ele>2321.4</ele>
        <time>2021-02-27T06:47:09Z</time>
      </trkpt>
      <trkpt lat="45.14596" lon="5.95208">
        <ele>2321.6</ele>
        <time>2021-02-27T06:47:10Z</time>
      </trkpt>
      <trkpt lat="45.14596" lon="5.95208">
        <ele>2321.6</ele>
        <time>2021-02-27T06:47:11Z</time>
      </trkpt>
      <trkpt lat="45.14596" lon="5.95208">
        <ele>2321.4</ele>
        <time>2021-02-27T06:47:12Z</time>
      </trkpt>
      <trkpt lat="45.14596" lon="5.95208">
        <ele>2321.4</ele>
        <time>2021-02-27T06:47:13Z</time>
      </trkpt>
      <trkpt lat="45.14596" lon="5.95208">
        <ele>2321.2</ele>
        <time>2021-02-27T06:47:14Z</time>
      </trkpt>
      <trkpt lat="45.14597" lon="5.95208">
        <ele>2321</ele>
        <time>2021-02-27T06:47:15Z</time>
      </trkpt>
      <trkpt lat="45.14597" lon="5.95208">
        <ele>2320.8</ele>
        <time>2021-02-27T06:47:16Z</time>
      </trkpt>
      <trkpt lat="45.14597" lon="5.95208">
        <ele>2321</ele>
        <time>2021-02-27T06:47:17Z</time>
      </trkpt>
      <trkpt lat="45.14597" lon="5.95208">
        <ele>2320.8</ele>
        <time>2021-02-27T06:47:18Z</time>
      </trkpt>
      <trkpt lat="45.14597" lon="5.95208">
        <ele>2320.8</ele>
        <time>2021-02-27T06:47:19Z</time>
      </trkpt>
      <trkpt lat="45.14597" lon="5.95207">
        <ele>2320.6</ele>
        <time>2021-02-27T06:47:20Z</time>
      </trkpt>
      <trkpt lat="45.14597" lon="5.95207">
        <ele>2320.8</ele>
        <time>2021-02-27T06:47:21Z</time>
      </trkpt>
      <trkpt lat="45.14597" lon="5.95207">
        <ele>2320.8</ele>
        <time>2021-02-27T06:47:22Z</time>
      </trkpt>
      <trkpt lat="45.14598" lon="5.95207">
        <ele>2320.6</ele>
        <time>2021-02-27T06:47:23Z</time>
      </trkpt>
      <trkpt lat="45.14598" lon="5.95207">
        <ele>2320.4</ele>
        <time>2021-02-27T06:47:24Z</time>
      </trkpt>
      <trkpt lat="45.14598" lon="5.95207">
        <ele>2320</ele>
        <time>2021-02-27T06:47:25Z</time>
      </trkpt>
      <trkpt lat="45.14598" lon="5.95207">
        <ele>2319.8</ele>
        <time>2021-02-27T06:47:26Z</time>
      </trkpt>
      <trkpt lat="45.14598" lon="5.95207">
        <ele>2319.8</ele>
        <time>2021-02-27T06:47:27Z</time>
      </trkpt>
      <trkpt lat="45.14598" lon="5.95207">
        <ele>2319.6</ele>
        <time>2021-02-27T06:47:28Z</time>
      </trkpt>
      <trkpt lat="45.14598" lon="5.95207">
        <ele>2319.8</ele>
        <time>2021-02-27T06:47:29Z</time>
      </trkpt>
      <trkpt lat="45.14599" lon="5.95206">
        <ele>2320</ele>
        <time>2021-02-27T06:47:30Z</time>
      </trkpt>
      <trkpt lat="45.14599" lon="5.95206">
        <ele>2320.2</ele>
        <time>2021-02-27T06:47:31Z</time>
      </trkpt>
      <trkpt lat="45.14599" lon="5.95206">
        <ele>2320.6</ele>
        <time>2021-02-27T06:47:32Z</time>
      </trkpt>
      <trkpt lat="45.14599" lon="5.95206">
        <ele>2320.8</ele>
        <time>2021-02-27T06:47:33Z</time>
      </trkpt>
      <trkpt lat="45.14599" lon="5.95206">
        <ele>2321.4</ele>
        <time>2021-02-27T06:47:34Z</time>
      </trkpt>
      <trkpt lat="45.14599" lon="5.95206">
        <ele>2321.8</ele>
        <time>2021-02-27T06:47:35Z</time>
      </trkpt>
      <trkpt lat="45.14599" lon="5.95206">
        <ele>2321.8</ele>
        <time>2021-02-27T06:47:36Z</time>
      </trkpt>
      <trkpt lat="45.14599" lon="5.95206">
        <ele>2322</ele>
        <time>2021-02-27T06:47:37Z</time>
      </trkpt>
      <trkpt lat="45.146" lon="5.95206">
        <ele>2322.2</ele>
        <time>2021-02-27T06:47:38Z</time>
      </trkpt>
      <trkpt lat="45.146" lon="5.95205">
        <ele>2322.6</ele>
        <time>2021-02-27T06:47:39Z</time>
      </trkpt>
      <trkpt lat="45.146" lon="5.95205">
        <ele>2322.6</ele>
        <time>2021-02-27T06:47:40Z</time>
      </trkpt>
      <trkpt lat="45.146" lon="5.95205">
        <ele>2322.8</ele>
        <time>2021-02-27T06:47:41Z</time>
      </trkpt>
      <trkpt lat="45.146" lon="5.95205">
        <ele>2322.6</ele>
        <time>2021-02-27T06:47:42Z</time>
      </trkpt>
      <trkpt lat="45.146" lon="5.95205">
        <ele>2322</ele>
        <time>2021-02-27T06:47:43Z</time>
      </trkpt>
      <trkpt lat="45.146" lon="5.95205">
        <ele>2321.2</ele>
        <time>2021-02-27T06:47:44Z</time>
      </trkpt>
      <trkpt lat="45.146" lon="5.95205">
        <ele>2320.6</ele>
        <time>2021-02-27T06:47:45Z</time>
      </trkpt>
      <trkpt lat="45.14601" lon="5.95205">
        <ele>2320.4</ele>
        <time>2021-02-27T06:47:46Z</time>
      </trkpt>
      <trkpt lat="45.14601" lon="5.95205">
        <ele>2319.6</ele>
        <time>2021-02-27T06:47:47Z</time>
      </trkpt>
      <trkpt lat="45.14601" lon="5.95205">
        <ele>2319.6</ele>
        <time>2021-02-27T06:47:48Z</time>
      </trkpt>
      <trkpt lat="45.14601" lon="5.95204">
        <ele>2319.4</ele>
        <time>2021-02-27T06:47:49Z</time>
      </trkpt>
      <trkpt lat="45.14601" lon="5.95204">
        <ele>2319.2</ele>
        <time>2021-02-27T06:47:50Z</time>
      </trkpt>
      <trkpt lat="45.14601" lon="5.95204">
        <ele>2319.2</ele>
        <time>2021-02-27T06:47:51Z</time>
      </trkpt>
      <trkpt lat="45.14601" lon="5.95204">
        <ele>2319.2</ele>
        <time>2021-02-27T06:47:52Z</time>
      </trkpt>
      <trkpt lat="45.14602" lon="5.95204">
        <ele>2318.8</ele>
        <time>2021-02-27T06:47:53Z</time>
      </trkpt>
      <trkpt lat="45.14602" lon="5.95204">
        <ele>2319</ele>
        <time>2021-02-27T06:47:54Z</time>
      </trkpt>
      <trkpt lat="45.14602" lon="5.95204">
        <ele>2318.8</ele>
        <time>2021-02-27T06:47:55Z</time>
      </trkpt>
      <trkpt lat="45.14602" lon="5.95204">
        <ele>2319</ele>
        <time>2021-02-27T06:47:56Z</time>
      </trkpt>
      <trkpt lat="45.14602" lon="5.95204">
        <ele>2318.8</ele>
        <time>2021-02-27T06:47:57Z</time>
      </trkpt>
      <trkpt lat="45.14602" lon="5.95203">
        <ele>2318.6</ele>
        <time>2021-02-27T06:47:58Z</time>
      </trkpt>
      <trkpt lat="45.14602" lon="5.95203">
        <ele>2318.6</ele>
        <time>2021-02-27T06:47:59Z</time>
      </trkpt>
      <trkpt lat="45.14602" lon="5.95203">
        <ele>2318.8</ele>
        <time>2021-02-27T06:48:00Z</time>
      </trkpt>
      <trkpt lat="45.14603" lon="5.95203">
        <ele>2319</ele>
        <time>2021-02-27T06:48:01Z</time>
      </trkpt>
      <trkpt lat="45.14603" lon="5.95203">
        <ele>2318.6</ele>
        <time>2021-02-27T06:48:02Z</time>
      </trkpt>
      <trkpt lat="45.14603" lon="5.95203">
        <ele>2318.6</ele>
        <time>2021-02-27T06:48:03Z</time>
      </trkpt>
      <trkpt lat="45.14603" lon="5.95203">
        <ele>2318.6</ele>
        <time>2021-02-27T06:48:04Z</time>
      </trkpt>
      <trkpt lat="45.14602" lon="5.95203">
        <ele>2318.6</ele>
        <time>2021-02-27T06:48:05Z</time>
      </trkpt>
      <trkpt lat="45.14602" lon="5.95204">
        <ele>2318.8</ele>
        <time>2021-02-27T06:48:06Z</time>
      </trkpt>
      <trkpt lat="45.14601" lon="5.95204">
        <ele>2319</ele>
        <time>2021-02-27T06:48:07Z</time>
      </trkpt>
      <trkpt lat="45.14601" lon="5.95205">
        <ele>2319.2</ele>
        <time>2021-02-27T06:48:08Z</time>
      </trkpt>
      <trkpt lat="45.146" lon="5.95205">
        <ele>2319.4</ele>
        <time>2021-02-27T06:48:09Z</time>
      </trkpt>
      <trkpt lat="45.146" lon="5.95205">
        <ele>2319.6</ele>
        <time>2021-02-27T06:48:10Z</time>
      </trkpt>
      <trkpt lat="45.14599" lon="5.95206">
        <ele>2319.8</ele>
        <time>2021-02-27T06:48:11Z</time>
      </trkpt>
      <trkpt lat="45.14599" lon="5.95206">
        <ele>2319.6</ele>
        <time>2021-02-27T06:48:12Z</time>
      </trkpt>
      <trkpt lat="45.14598" lon="5.95207">
        <ele>2319.8</ele>
        <time>2021-02-27T06:48:13Z</time>
      </trkpt>
      <trkpt lat="45.14597" lon="5.95207">
        <ele>2319.8</ele>
        <time>2021-02-27T06:48:14Z</time>
      </trkpt>
      <trkpt lat="45.14597" lon="5.95208">
        <ele>2319.8</ele>
        <time>2021-02-27T06:48:15Z</time>
      </trkpt>
      <trkpt lat="45.14596" lon="5.95208">
        <ele>2319.8</ele>
        <time>2021-02-27T06:48:16Z</time>
      </trkpt>
      <trkpt lat="45.14596" lon="5.95209">
        <ele>2320.2</ele>
        <time>2021-02-27T06:48:17Z</time>
      </trkpt>
      <trkpt lat="45.14595" lon="5.95209">
        <ele>2320.2</ele>
        <time>2021-02-27T06:48:18Z</time>
      </trkpt>
      <trkpt lat="45.14595" lon="5.95209">
        <ele>2320.4</ele>
        <time>2021-02-27T06:48:19Z</time>
      </trkpt>
      <trkpt lat="45.14596" lon="5.9521">
        <ele>2320.2</ele>
        <time>2021-02-27T06:48:20Z</time>
      </trkpt>
      <trkpt lat="45.14597" lon="5.9521">
        <ele>2320.4</ele>
        <time>2021-02-27T06:48:21Z</time>
      </trkpt>
      <trkpt lat="45.14597" lon="5.9521">
        <ele>2320.6</ele>
        <time>2021-02-27T06:48:22Z</time>
      </trkpt>
      <trkpt lat="45.14598" lon="5.9521">
        <ele>2320.4</ele>
        <time>2021-02-27T06:48:23Z</time>
      </trkpt>
      <trkpt lat="45.14599" lon="5.95211">
        <ele>2320.2</ele>
        <time>2021-02-27T06:48:24Z</time>
      </trkpt>
      <trkpt lat="45.146" lon="5.95211">
        <ele>2320</ele>
        <time>2021-02-27T06:48:25Z</time>
      </trkpt>
      <trkpt lat="45.14601" lon="5.95211">
        <ele>2320</ele>
        <time>2021-02-27T06:48:26Z</time>
      </trkpt>
      <trkpt lat="45.14602" lon="5.95211">
        <ele>2320</ele>
        <time>2021-02-27T06:48:27Z</time>
      </trkpt>
      <trkpt lat="45.14603" lon="5.95211">
        <ele>2320</ele>
        <time>2021-02-27T06:48:28Z</time>
      </trkpt>
      <trkpt lat="45.14604" lon="5.95212">
        <ele>2320.4</ele>
        <time>2021-02-27T06:48:29Z</time>
      </trkpt>
      <trkpt lat="45.14604" lon="5.95213">
        <ele>2320.8</ele>
        <time>2021-02-27T06:48:30Z</time>
      </trkpt>
      <trkpt lat="45.14603" lon="5.95215">
        <ele>2321</ele>
        <time>2021-02-27T06:48:31Z</time>
      </trkpt>
      <trkpt lat="45.14603" lon="5.95216">
        <ele>2321.2</ele>
        <time>2021-02-27T06:48:32Z</time>
      </trkpt>
      <trkpt lat="45.14603" lon="5.95218">
        <ele>2321.6</ele>
        <time>2021-02-27T06:48:33Z</time>
      </trkpt>
      <trkpt lat="45.14603" lon="5.95219">
        <ele>2321.8</ele>
        <time>2021-02-27T06:48:34Z</time>
      </trkpt>
      <trkpt lat="45.14603" lon="5.9522">
        <ele>2321.8</ele>
        <time>2021-02-27T06:48:35Z</time>
      </trkpt>
      <trkpt lat="45.14603" lon="5.95222">
        <ele>2321.6</ele>
        <time>2021-02-27T06:48:36Z</time>
      </trkpt>
      <trkpt lat="45.14603" lon="5.95223">
        <ele>2321.6</ele>
        <time>2021-02-27T06:48:37Z</time>
      </trkpt>
      <trkpt lat="45.14602" lon="5.95225">
        <ele>2321.6</ele>
        <time>2021-02-27T06:48:38Z</time>
      </trkpt>
      <trkpt lat="45.14602" lon="5.95226">
        <ele>2321.6</ele>
        <time>2021-02-27T06:48:39Z</time>
      </trkpt>
      <trkpt lat="45.14602" lon="5.95226">
        <ele>2321.4</ele>
        <time>2021-02-27T06:48:40Z</time>
      </trkpt>
      <trkpt lat="45.14601" lon="5.95227">
        <ele>2321.4</ele>
        <time>2021-02-27T06:48:41Z</time>
      </trkpt>
      <trkpt lat="45.14601" lon="5.95228">
        <ele>2321</ele>
        <time>2021-02-27T06:48:42Z</time>
      </trkpt>
      <trkpt lat="45.14601" lon="5.95228">
        <ele>2321</ele>
        <time>2021-02-27T06:48:43Z</time>
      </trkpt>
      <trkpt lat="45.146" lon="5.95229">
        <ele>2320.8</ele>
        <time>2021-02-27T06:48:44Z</time>
      </trkpt>
      <trkpt lat="45.146" lon="5.9523">
        <ele>2320.8</ele>
        <time>2021-02-27T06:48:45Z</time>
      </trkpt>
      <trkpt lat="45.146" lon="5.95231">
        <ele>2320.6</ele>
        <time>2021-02-27T06:48:46Z</time>
      </trkpt>
      <trkpt lat="45.146" lon="5.95231">
        <ele>2320.8</ele>
        <time>2021-02-27T06:48:47Z</time>
      </trkpt>
      <trkpt lat="45.14599" lon="5.95232">
        <ele>2320.6</ele>
        <time>2021-02-27T06:48:48Z</time>
      </trkpt>
      <trkpt lat="45.14599" lon="5.95233">
        <ele>2320.6</ele>
        <time>2021-02-27T06:48:49Z</time>
      </trkpt>
      <trkpt lat="45.14599" lon="5.95234">
        <ele>2320.6</ele>
        <time>2021-02-27T06:48:50Z</time>
      </trkpt>
      <trkpt lat="45.14598" lon="5.95234">
        <ele>2320.6</ele>
        <time>2021-02-27T06:48:51Z</time>
      </trkpt>
      <trkpt lat="45.14598" lon="5.95235">
        <ele>2320.8</ele>
        <time>2021-02-27T06:48:52Z</time>
      </trkpt>
      <trkpt lat="45.14598" lon="5.95236">
        <ele>2320.6</ele>
        <time>2021-02-27T06:48:53Z</time>
      </trkpt>
      <trkpt lat="45.14597" lon="5.95236">
        <ele>2320.8</ele>
        <time>2021-02-27T06:48:54Z</time>
      </trkpt>
      <trkpt lat="45.14597" lon="5.95237">
        <ele>2320.8</ele>
        <time>2021-02-27T06:48:55Z</time>
      </trkpt>
      <trkpt lat="45.14596" lon="5.95238">
        <ele>2320.8</ele>
        <time>2021-02-27T06:48:56Z</time>
      </trkpt>
      <trkpt lat="45.14596" lon="5.95239">
        <ele>2321</ele>
        <time>2021-02-27T06:48:57Z</time>
      </trkpt>
      <trkpt lat="45.14595" lon="5.9524">
        <ele>2321.2</ele>
        <time>2021-02-27T06:48:58Z</time>
      </trkpt>
      <trkpt lat="45.14594" lon="5.95241">
        <ele>2321.2</ele>
        <time>2021-02-27T06:48:59Z</time>
      </trkpt>
      <trkpt lat="45.14593" lon="5.95242">
        <ele>2321.4</ele>
        <time>2021-02-27T06:49:00Z</time>
      </trkpt>
      <trkpt lat="45.14593" lon="5.95243">
        <ele>2321.4</ele>
        <time>2021-02-27T06:49:01Z</time>
      </trkpt>
      <trkpt lat="45.14592" lon="5.95244">
        <ele>2321.4</ele>
        <time>2021-02-27T06:49:02Z</time>
      </trkpt>
      <trkpt lat="45.14591" lon="5.95246">
        <ele>2321.6</ele>
        <time>2021-02-27T06:49:03Z</time>
      </trkpt>
      <trkpt lat="45.14591" lon="5.95247">
        <ele>2321.6</ele>
        <time>2021-02-27T06:49:04Z</time>
      </trkpt>
      <trkpt lat="45.14591" lon="5.95246">
        <ele>2321.6</ele>
        <time>2021-02-27T06:49:05Z</time>
      </trkpt>
      <trkpt lat="45.14591" lon="5.95246">
        <ele>2321.4</ele>
        <time>2021-02-27T06:49:06Z</time>
      </trkpt>
      <trkpt lat="45.14591" lon="5.95245">
        <ele>2321.2</ele>
        <time>2021-02-27T06:49:07Z</time>
      </trkpt>
      <trkpt lat="45.14592" lon="5.95245">
        <ele>2321.4</ele>
        <time>2021-02-27T06:49:08Z</time>
      </trkpt>
      <trkpt lat="45.14592" lon="5.95244">
        <ele>2321.4</ele>
        <time>2021-02-27T06:49:09Z</time>
      </trkpt>
      <trkpt lat="45.14592" lon="5.95244">
        <ele>2321.2</ele>
        <time>2021-02-27T06:49:10Z</time>
      </trkpt>
      <trkpt lat="45.14592" lon="5.95243">
        <ele>2321.4</ele>
        <time>2021-02-27T06:49:11Z</time>
      </trkpt>
      <trkpt lat="45.14593" lon="5.95243">
        <ele>2321.6</ele>
        <time>2021-02-27T06:49:12Z</time>
      </trkpt>
      <trkpt lat="45.14593" lon="5.95242">
        <ele>2321.8</ele>
        <time>2021-02-27T06:49:13Z</time>
      </trkpt>
      <trkpt lat="45.14593" lon="5.95242">
        <ele>2321.8</ele>
        <time>2021-02-27T06:49:14Z</time>
      </trkpt>
      <trkpt lat="45.14593" lon="5.95241">
        <ele>2321.8</ele>
        <time>2021-02-27T06:49:15Z</time>
      </trkpt>
      <trkpt lat="45.14594" lon="5.95241">
        <ele>2321.8</ele>
        <time>2021-02-27T06:49:16Z</time>
      </trkpt>
      <trkpt lat="45.14594" lon="5.95241">
        <ele>2321.8</ele>
        <time>2021-02-27T06:49:17Z</time>
      </trkpt>
      <trkpt lat="45.14594" lon="5.9524">
        <ele>2321.6</ele>
        <time>2021-02-27T06:49:18Z</time>
      </trkpt>
      <trkpt lat="45.14594" lon="5.9524">
        <ele>2321.4</ele>
        <time>2021-02-27T06:49:19Z</time>
      </trkpt>
      <trkpt lat="45.14595" lon="5.95239">
        <ele>2321.4</ele>
        <time>2021-02-27T06:49:20Z</time>
      </trkpt>
      <trkpt lat="45.14595" lon="5.95239">
        <ele>2321.4</ele>
        <time>2021-02-27T06:49:21Z</time>
      </trkpt>
      <trkpt lat="45.14595" lon="5.95238">
        <ele>2321.4</ele>
        <time>2021-02-27T06:49:22Z</time>
      </trkpt>
      <trkpt lat="45.14595" lon="5.95238">
        <ele>2321</ele>
        <time>2021-02-27T06:49:23Z</time>
      </trkpt>
      <trkpt lat="45.14596" lon="5.95237">
        <ele>2321</ele>
        <time>2021-02-27T06:49:24Z</time>
      </trkpt>
      <trkpt lat="45.14596" lon="5.95237">
        <ele>2320.8</ele>
        <time>2021-02-27T06:49:25Z</time>
      </trkpt>
      <trkpt lat="45.14596" lon="5.95236">
        <ele>2320.6</ele>
        <time>2021-02-27T06:49:26Z</time>
      </trkpt>
      <trkpt lat="45.14596" lon="5.95236">
        <ele>2320.6</ele>
        <time>2021-02-27T06:49:27Z</time>
      </trkpt>
      <trkpt lat="45.14599" lon="5.95234">
        <ele>2320.4</ele>
        <time>2021-02-27T06:49:28Z</time>
      </trkpt>
      <trkpt lat="45.14601" lon="5.95232">
        <ele>2320.4</ele>
        <time>2021-02-27T06:49:29Z</time>
      </trkpt>
      <trkpt lat="45.14603" lon="5.95231">
        <ele>2320.4</ele>
        <time>2021-02-27T06:49:30Z</time>
      </trkpt>
      <trkpt lat="45.14605" lon="5.95229">
        <ele>2320.6</ele>
        <time>2021-02-27T06:49:31Z</time>
      </trkpt>
      <trkpt lat="45.14607" lon="5.95229">
        <ele>2320.8</ele>
        <time>2021-02-27T06:49:32Z</time>
      </trkpt>
      <trkpt lat="45.14609" lon="5.95229">
        <ele>2321</ele>
        <time>2021-02-27T06:49:33Z</time>
      </trkpt>
      <trkpt lat="45.14611" lon="5.95229">
        <ele>2321.2</ele>
        <time>2021-02-27T06:49:34Z</time>
      </trkpt>
      <trkpt lat="45.14612" lon="5.9523">
        <ele>2321.2</ele>
        <time>2021-02-27T06:49:35Z</time>
      </trkpt>
      <trkpt lat="45.14614" lon="5.9523">
        <ele>2321.4</ele>
        <time>2021-02-27T06:49:36Z</time>
      </trkpt>
      <trkpt lat="45.14616" lon="5.9523">
        <ele>2322</ele>
        <time>2021-02-27T06:49:37Z</time>
      </trkpt>
      <trkpt lat="45.14617" lon="5.95231">
        <ele>2322</ele>
        <time>2021-02-27T06:49:38Z</time>
      </trkpt>
      <trkpt lat="45.14618" lon="5.95231">
        <ele>2321.8</ele>
        <time>2021-02-27T06:49:39Z</time>
      </trkpt>
      <trkpt lat="45.14619" lon="5.95232">
        <ele>2322</ele>
        <time>2021-02-27T06:49:40Z</time>
      </trkpt>
      <trkpt lat="45.14621" lon="5.95233">
        <ele>2322.4</ele>
        <time>2021-02-27T06:49:41Z</time>
      </trkpt>
      <trkpt lat="45.14622" lon="5.95233">
        <ele>2323</ele>
        <time>2021-02-27T06:49:42Z</time>
      </trkpt>
      <trkpt lat="45.14623" lon="5.95234">
        <ele>2323.6</ele>
        <time>2021-02-27T06:49:43Z</time>
      </trkpt>
      <trkpt lat="45.14625" lon="5.95235">
        <ele>2324.4</ele>
        <time>2021-02-27T06:49:44Z</time>
      </trkpt>
      <trkpt lat="45.14625" lon="5.95236">
        <ele>2324.4</ele>
        <time>2021-02-27T06:49:45Z</time>
      </trkpt>
      <trkpt lat="45.14626" lon="5.95236">
        <ele>2324.4</ele>
        <time>2021-02-27T06:49:46Z</time>
      </trkpt>
      <trkpt lat="45.14627" lon="5.95237">
        <ele>2324.6</ele>
        <time>2021-02-27T06:49:47Z</time>
      </trkpt>
      <trkpt lat="45.14628" lon="5.95238">
        <ele>2324.8</ele>
        <time>2021-02-27T06:49:48Z</time>
      </trkpt>
      <trkpt lat="45.14629" lon="5.95238">
        <ele>2325.4</ele>
        <time>2021-02-27T06:49:49Z</time>
      </trkpt>
      <trkpt lat="45.1463" lon="5.95239">
        <ele>2325.6</ele>
        <time>2021-02-27T06:49:50Z</time>
      </trkpt>
      <trkpt lat="45.14631" lon="5.95239">
        <ele>2325.6</ele>
        <time>2021-02-27T06:49:51Z</time>
      </trkpt>
      <trkpt lat="45.14632" lon="5.9524">
        <ele>2326.2</ele>
        <time>2021-02-27T06:49:52Z</time>
      </trkpt>
      <trkpt lat="45.14632" lon="5.95241">
        <ele>2326.4</ele>
        <time>2021-02-27T06:49:53Z</time>
      </trkpt>
      <trkpt lat="45.14633" lon="5.95241">
        <ele>2327</ele>
        <time>2021-02-27T06:49:54Z</time>
      </trkpt>
      <trkpt lat="45.14634" lon="5.95242">
        <ele>2327.2</ele>
        <time>2021-02-27T06:49:55Z</time>
      </trkpt>
      <trkpt lat="45.14635" lon="5.95243">
        <ele>2327.6</ele>
        <time>2021-02-27T06:49:56Z</time>
      </trkpt>
      <trkpt lat="45.14636" lon="5.95244">
        <ele>2327.4</ele>
        <time>2021-02-27T06:49:57Z</time>
      </trkpt>
      <trkpt lat="45.14637" lon="5.95244">
        <ele>2327.6</ele>
        <time>2021-02-27T06:49:58Z</time>
      </trkpt>
      <trkpt lat="45.14638" lon="5.95245">
        <ele>2327.6</ele>
        <time>2021-02-27T06:49:59Z</time>
      </trkpt>
      <trkpt lat="45.14639" lon="5.95246">
        <ele>2327.8</ele>
        <time>2021-02-27T06:50:00Z</time>
      </trkpt>
      <trkpt lat="45.1464" lon="5.95247">
        <ele>2327.6</ele>
        <time>2021-02-27T06:50:01Z</time>
      </trkpt>
      <trkpt lat="45.1464" lon="5.95247">
        <ele>2328</ele>
        <time>2021-02-27T06:50:02Z</time>
      </trkpt>
      <trkpt lat="45.14641" lon="5.95248">
        <ele>2328.2</ele>
        <time>2021-02-27T06:50:03Z</time>
      </trkpt>
      <trkpt lat="45.14642" lon="5.95249">
        <ele>2328.2</ele>
        <time>2021-02-27T06:50:04Z</time>
      </trkpt>
      <trkpt lat="45.14642" lon="5.9525">
        <ele>2328.2</ele>
        <time>2021-02-27T06:50:05Z</time>
      </trkpt>
      <trkpt lat="45.14642" lon="5.95251">
        <ele>2328.6</ele>
        <time>2021-02-27T06:50:06Z</time>
      </trkpt>
      <trkpt lat="45.14643" lon="5.95252">
        <ele>2328.8</ele>
        <time>2021-02-27T06:50:07Z</time>
      </trkpt>
      <trkpt lat="45.14643" lon="5.95254">
        <ele>2328.8</ele>
        <time>2021-02-27T06:50:08Z</time>
      </trkpt>
      <trkpt lat="45.14643" lon="5.95255">
        <ele>2329</ele>
        <time>2021-02-27T06:50:09Z</time>
      </trkpt>
      <trkpt lat="45.14643" lon="5.95256">
        <ele>2329.4</ele>
        <time>2021-02-27T06:50:10Z</time>
      </trkpt>
      <trkpt lat="45.14643" lon="5.95257">
        <ele>2330</ele>
        <time>2021-02-27T06:50:11Z</time>
      </trkpt>
      <trkpt lat="45.14644" lon="5.95258">
        <ele>2330.2</ele>
        <time>2021-02-27T06:50:12Z</time>
      </trkpt>
      <trkpt lat="45.14644" lon="5.95259">
        <ele>2330.2</ele>
        <time>2021-02-27T06:50:13Z</time>
      </trkpt>
      <trkpt lat="45.14644" lon="5.95261">
        <ele>2330.4</ele>
        <time>2021-02-27T06:50:14Z</time>
      </trkpt>
      <trkpt lat="45.14644" lon="5.95262">
        <ele>2331</ele>
        <time>2021-02-27T06:50:15Z</time>
      </trkpt>
      <trkpt lat="45.14644" lon="5.95263">
        <ele>2331</ele>
        <time>2021-02-27T06:50:16Z</time>
      </trkpt>
      <trkpt lat="45.14644" lon="5.95263">
        <ele>2331</ele>
        <time>2021-02-27T06:50:17Z</time>
      </trkpt>
      <trkpt lat="45.14645" lon="5.95264">
        <ele>2331</ele>
        <time>2021-02-27T06:50:18Z</time>
      </trkpt>
      <trkpt lat="45.14645" lon="5.95265">
        <ele>2330.8</ele>
        <time>2021-02-27T06:50:19Z</time>
      </trkpt>
      <trkpt lat="45.14645" lon="5.95265">
        <ele>2331</ele>
        <time>2021-02-27T06:50:20Z</time>
      </trkpt>
      <trkpt lat="45.14645" lon="5.95266">
        <ele>2331</ele>
        <time>2021-02-27T06:50:21Z</time>
      </trkpt>
      <trkpt lat="45.14646" lon="5.95267">
        <ele>2331.2</ele>
        <time>2021-02-27T06:50:22Z</time>
      </trkpt>
      <trkpt lat="45.14646" lon="5.95267">
        <ele>2331</ele>
        <time>2021-02-27T06:50:23Z</time>
      </trkpt>
      <trkpt lat="45.14646" lon="5.95268">
        <ele>2331.2</ele>
        <time>2021-02-27T06:50:24Z</time>
      </trkpt>
      <trkpt lat="45.14646" lon="5.95269">
        <ele>2331.6</ele>
        <time>2021-02-27T06:50:25Z</time>
      </trkpt>
      <trkpt lat="45.14646" lon="5.95269">
        <ele>2331.8</ele>
        <time>2021-02-27T06:50:26Z</time>
      </trkpt>
      <trkpt lat="45.14647" lon="5.9527">
        <ele>2332</ele>
        <time>2021-02-27T06:50:27Z</time>
      </trkpt>
      <trkpt lat="45.14647" lon="5.95271">
        <ele>2332.6</ele>
        <time>2021-02-27T06:50:28Z</time>
      </trkpt>
      <trkpt lat="45.14647" lon="5.95271">
        <ele>2332.6</ele>
        <time>2021-02-27T06:50:29Z</time>
      </trkpt>
      <trkpt lat="45.14647" lon="5.95272">
        <ele>2332.4</ele>
        <time>2021-02-27T06:50:30Z</time>
      </trkpt>
      <trkpt lat="45.14648" lon="5.95273">
        <ele>2332.8</ele>
        <time>2021-02-27T06:50:31Z</time>
      </trkpt>
      <trkpt lat="45.14648" lon="5.95273">
        <ele>2333.2</ele>
        <time>2021-02-27T06:50:32Z</time>
      </trkpt>
      <trkpt lat="45.14648" lon="5.95274">
        <ele>2333.4</ele>
        <time>2021-02-27T06:50:33Z</time>
      </trkpt>
      <trkpt lat="45.14648" lon="5.95274">
        <ele>2333.6</ele>
        <time>2021-02-27T06:50:34Z</time>
      </trkpt>
      <trkpt lat="45.14649" lon="5.95275">
        <ele>2334</ele>
        <time>2021-02-27T06:50:35Z</time>
      </trkpt>
      <trkpt lat="45.14649" lon="5.95275">
        <ele>2334.4</ele>
        <time>2021-02-27T06:50:36Z</time>
      </trkpt>
      <trkpt lat="45.1465" lon="5.95276">
        <ele>2334.2</ele>
        <time>2021-02-27T06:50:37Z</time>
      </trkpt>
      <trkpt lat="45.1465" lon="5.95276">
        <ele>2335</ele>
        <time>2021-02-27T06:50:38Z</time>
      </trkpt>
      <trkpt lat="45.14651" lon="5.95277">
        <ele>2335.2</ele>
        <time>2021-02-27T06:50:39Z</time>
      </trkpt>
      <trkpt lat="45.14651" lon="5.95277">
        <ele>2335.4</ele>
        <time>2021-02-27T06:50:40Z</time>
      </trkpt>
      <trkpt lat="45.14652" lon="5.95278">
        <ele>2335.4</ele>
        <time>2021-02-27T06:50:41Z</time>
      </trkpt>
      <trkpt lat="45.14652" lon="5.95278">
        <ele>2336</ele>
        <time>2021-02-27T06:50:42Z</time>
      </trkpt>
      <trkpt lat="45.14653" lon="5.95279">
        <ele>2336.2</ele>
        <time>2021-02-27T06:50:43Z</time>
      </trkpt>
      <trkpt lat="45.14653" lon="5.95279">
        <ele>2336</ele>
        <time>2021-02-27T06:50:44Z</time>
      </trkpt>
      <trkpt lat="45.14654" lon="5.95279">
        <ele>2337.2</ele>
        <time>2021-02-27T06:50:45Z</time>
      </trkpt>
      <trkpt lat="45.14654" lon="5.9528">
        <ele>2337.4</ele>
        <time>2021-02-27T06:50:46Z</time>
      </trkpt>
      <trkpt lat="45.14655" lon="5.9528">
        <ele>2337.4</ele>
        <time>2021-02-27T06:50:47Z</time>
      </trkpt>
      <trkpt lat="45.14655" lon="5.95281">
        <ele>2337.6</ele>
        <time>2021-02-27T06:50:48Z</time>
      </trkpt>
      <trkpt lat="45.14655" lon="5.95281">
        <ele>2337.8</ele>
        <time>2021-02-27T06:50:49Z</time>
      </trkpt>
      <trkpt lat="45.14656" lon="5.95282">
        <ele>2337.8</ele>
        <time>2021-02-27T06:50:50Z</time>
      </trkpt>
      <trkpt lat="45.14657" lon="5.95282">
        <ele>2337.8</ele>
        <time>2021-02-27T06:50:51Z</time>
      </trkpt>
      <trkpt lat="45.14658" lon="5.95282">
        <ele>2338</ele>
        <time>2021-02-27T06:50:52Z</time>
      </trkpt>
      <trkpt lat="45.14659" lon="5.95283">
        <ele>2337.8</ele>
        <time>2021-02-27T06:50:53Z</time>
      </trkpt>
      <trkpt lat="45.14661" lon="5.95283">
        <ele>2338</ele>
        <time>2021-02-27T06:50:54Z</time>
      </trkpt>
      <trkpt lat="45.14662" lon="5.95283">
        <ele>2338</ele>
        <time>2021-02-27T06:50:55Z</time>
      </trkpt>
      <trkpt lat="45.14663" lon="5.95284">
        <ele>2338.2</ele>
        <time>2021-02-27T06:50:56Z</time>
      </trkpt>
      <trkpt lat="45.14664" lon="5.95284">
        <ele>2338.4</ele>
        <time>2021-02-27T06:50:57Z</time>
      </trkpt>
      <trkpt lat="45.14665" lon="5.95284">
        <ele>2338.6</ele>
        <time>2021-02-27T06:50:58Z</time>
      </trkpt>
      <trkpt lat="45.14665" lon="5.95285">
        <ele>2338.4</ele>
        <time>2021-02-27T06:50:59Z</time>
      </trkpt>
      <trkpt lat="45.14666" lon="5.95285">
        <ele>2339</ele>
        <time>2021-02-27T06:51:00Z</time>
      </trkpt>
      <trkpt lat="45.14667" lon="5.95285">
        <ele>2339</ele>
        <time>2021-02-27T06:51:01Z</time>
      </trkpt>
      <trkpt lat="45.14667" lon="5.95286">
        <ele>2338.6</ele>
        <time>2021-02-27T06:51:02Z</time>
      </trkpt>
      <trkpt lat="45.14668" lon="5.95286">
        <ele>2339.2</ele>
        <time>2021-02-27T06:51:03Z</time>
      </trkpt>
      <trkpt lat="45.14669" lon="5.95286">
        <ele>2339.4</ele>
        <time>2021-02-27T06:51:04Z</time>
      </trkpt>
      <trkpt lat="45.14669" lon="5.95286">
        <ele>2339.6</ele>
        <time>2021-02-27T06:51:05Z</time>
      </trkpt>
      <trkpt lat="45.1467" lon="5.95287">
        <ele>2339.6</ele>
        <time>2021-02-27T06:51:06Z</time>
      </trkpt>
      <trkpt lat="45.14671" lon="5.95287">
        <ele>2340.2</ele>
        <time>2021-02-27T06:51:07Z</time>
      </trkpt>
      <trkpt lat="45.14671" lon="5.95287">
        <ele>2340.8</ele>
        <time>2021-02-27T06:51:08Z</time>
      </trkpt>
      <trkpt lat="45.14672" lon="5.95288">
        <ele>2340.8</ele>
        <time>2021-02-27T06:51:09Z</time>
      </trkpt>
      <trkpt lat="45.14673" lon="5.95288">
        <ele>2341.2</ele>
        <time>2021-02-27T06:51:10Z</time>
      </trkpt>
      <trkpt lat="45.14673" lon="5.95288">
        <ele>2341.2</ele>
        <time>2021-02-27T06:51:11Z</time>
      </trkpt>
      <trkpt lat="45.14674" lon="5.95289">
        <ele>2341.2</ele>
        <time>2021-02-27T06:51:12Z</time>
      </trkpt>
      <trkpt lat="45.14674" lon="5.95289">
        <ele>2341</ele>
        <time>2021-02-27T06:51:13Z</time>
      </trkpt>
      <trkpt lat="45.14674" lon="5.9529">
        <ele>2341.4</ele>
        <time>2021-02-27T06:51:14Z</time>
      </trkpt>
      <trkpt lat="45.14675" lon="5.9529">
        <ele>2341.8</ele>
        <time>2021-02-27T06:51:15Z</time>
      </trkpt>
      <trkpt lat="45.14675" lon="5.95291">
        <ele>2341.8</ele>
        <time>2021-02-27T06:51:16Z</time>
      </trkpt>
      <trkpt lat="45.14676" lon="5.95291">
        <ele>2342</ele>
        <time>2021-02-27T06:51:17Z</time>
      </trkpt>
      <trkpt lat="45.14676" lon="5.95292">
        <ele>2342.2</ele>
        <time>2021-02-27T06:51:18Z</time>
      </trkpt>
      <trkpt lat="45.14676" lon="5.95292">
        <ele>2342.2</ele>
        <time>2021-02-27T06:51:19Z</time>
      </trkpt>
      <trkpt lat="45.14677" lon="5.95293">
        <ele>2343</ele>
        <time>2021-02-27T06:51:20Z</time>
      </trkpt>
      <trkpt lat="45.14677" lon="5.95293">
        <ele>2343.6</ele>
        <time>2021-02-27T06:51:21Z</time>
      </trkpt>
      <trkpt lat="45.14677" lon="5.95294">
        <ele>2344</ele>
        <time>2021-02-27T06:51:22Z</time>
      </trkpt>
      <trkpt lat="45.14678" lon="5.95294">
        <ele>2344</ele>
        <time>2021-02-27T06:51:23Z</time>
      </trkpt>
      <trkpt lat="45.14678" lon="5.95295">
        <ele>2344.2</ele>
        <time>2021-02-27T06:51:24Z</time>
      </trkpt>
      <trkpt lat="45.14678" lon="5.95295">
        <ele>2345.2</ele>
        <time>2021-02-27T06:51:25Z</time>
      </trkpt>
      <trkpt lat="45.14679" lon="5.95296">
        <ele>2345.2</ele>
        <time>2021-02-27T06:51:26Z</time>
      </trkpt>
      <trkpt lat="45.14679" lon="5.95296">
        <ele>2345.4</ele>
        <time>2021-02-27T06:51:27Z</time>
      </trkpt>
      <trkpt lat="45.1468" lon="5.95297">
        <ele>2345.8</ele>
        <time>2021-02-27T06:51:28Z</time>
      </trkpt>
      <trkpt lat="45.1468" lon="5.95297">
        <ele>2346</ele>
        <time>2021-02-27T06:51:29Z</time>
      </trkpt>
      <trkpt lat="45.14681" lon="5.95298">
        <ele>2345.8</ele>
        <time>2021-02-27T06:51:30Z</time>
      </trkpt>
      <trkpt lat="45.14681" lon="5.95298">
        <ele>2346</ele>
        <time>2021-02-27T06:51:31Z</time>
      </trkpt>
      <trkpt lat="45.14682" lon="5.95298">
        <ele>2346.4</ele>
        <time>2021-02-27T06:51:32Z</time>
      </trkpt>
      <trkpt lat="45.14682" lon="5.95299">
        <ele>2346</ele>
        <time>2021-02-27T06:51:33Z</time>
      </trkpt>
      <trkpt lat="45.14683" lon="5.95299">
        <ele>2346.4</ele>
        <time>2021-02-27T06:51:34Z</time>
      </trkpt>
      <trkpt lat="45.14683" lon="5.95299">
        <ele>2346.8</ele>
        <time>2021-02-27T06:51:35Z</time>
      </trkpt>
      <trkpt lat="45.14684" lon="5.953">
        <ele>2346.8</ele>
        <time>2021-02-27T06:51:36Z</time>
      </trkpt>
      <trkpt lat="45.14684" lon="5.953">
        <ele>2347</ele>
        <time>2021-02-27T06:51:37Z</time>
      </trkpt>
      <trkpt lat="45.14685" lon="5.953">
        <ele>2347.6</ele>
        <time>2021-02-27T06:51:38Z</time>
      </trkpt>
      <trkpt lat="45.14686" lon="5.95301">
        <ele>2348</ele>
        <time>2021-02-27T06:51:39Z</time>
      </trkpt>
      <trkpt lat="45.14686" lon="5.95301">
        <ele>2347.8</ele>
        <time>2021-02-27T06:51:40Z</time>
      </trkpt>
      <trkpt lat="45.14687" lon="5.95301">
        <ele>2348.4</ele>
        <time>2021-02-27T06:51:41Z</time>
      </trkpt>
      <trkpt lat="45.14687" lon="5.95302">
        <ele>2348.6</ele>
        <time>2021-02-27T06:51:42Z</time>
      </trkpt>
      <trkpt lat="45.14688" lon="5.95302">
        <ele>2348.4</ele>
        <time>2021-02-27T06:51:43Z</time>
      </trkpt>
      <trkpt lat="45.14688" lon="5.95303">
        <ele>2350.2</ele>
        <time>2021-02-27T06:51:44Z</time>
      </trkpt>
      <trkpt lat="45.14689" lon="5.95303">
        <ele>2350.2</ele>
        <time>2021-02-27T06:51:45Z</time>
      </trkpt>
      <trkpt lat="45.1469" lon="5.95303">
        <ele>2350.2</ele>
        <time>2021-02-27T06:51:46Z</time>
      </trkpt>
      <trkpt lat="45.14691" lon="5.95303">
        <ele>2350</ele>
        <time>2021-02-27T06:51:47Z</time>
      </trkpt>
      <trkpt lat="45.14692" lon="5.95304">
        <ele>2350.8</ele>
        <time>2021-02-27T06:51:48Z</time>
      </trkpt>
      <trkpt lat="45.14693" lon="5.95304">
        <ele>2351</ele>
        <time>2021-02-27T06:51:49Z</time>
      </trkpt>
      <trkpt lat="45.14694" lon="5.95304">
        <ele>2350.8</ele>
        <time>2021-02-27T06:51:50Z</time>
      </trkpt>
      <trkpt lat="45.14695" lon="5.95304">
        <ele>2351.2</ele>
        <time>2021-02-27T06:51:51Z</time>
      </trkpt>
      <trkpt lat="45.14696" lon="5.95305">
        <ele>2351.6</ele>
        <time>2021-02-27T06:51:52Z</time>
      </trkpt>
      <trkpt lat="45.14697" lon="5.95305">
        <ele>2351.8</ele>
        <time>2021-02-27T06:51:53Z</time>
      </trkpt>
      <trkpt lat="45.14698" lon="5.95305">
        <ele>2352</ele>
        <time>2021-02-27T06:51:54Z</time>
      </trkpt>
      <trkpt lat="45.14699" lon="5.95306">
        <ele>2352.4</ele>
        <time>2021-02-27T06:51:55Z</time>
      </trkpt>
      <trkpt lat="45.147" lon="5.95306">
        <ele>2352.8</ele>
        <time>2021-02-27T06:51:56Z</time>
      </trkpt>
      <trkpt lat="45.147" lon="5.95307">
        <ele>2353</ele>
        <time>2021-02-27T06:51:57Z</time>
      </trkpt>
      <trkpt lat="45.14701" lon="5.95308">
        <ele>2353.4</ele>
        <time>2021-02-27T06:51:58Z</time>
      </trkpt>
      <trkpt lat="45.14702" lon="5.95309">
        <ele>2354</ele>
        <time>2021-02-27T06:51:59Z</time>
      </trkpt>
      <trkpt lat="45.14703" lon="5.9531">
        <ele>2354.4</ele>
        <time>2021-02-27T06:52:00Z</time>
      </trkpt>
      <trkpt lat="45.14704" lon="5.9531">
        <ele>2354.4</ele>
        <time>2021-02-27T06:52:01Z</time>
      </trkpt>
      <trkpt lat="45.14705" lon="5.95311">
        <ele>2355.2</ele>
        <time>2021-02-27T06:52:02Z</time>
      </trkpt>
      <trkpt lat="45.14706" lon="5.95312">
        <ele>2355.6</ele>
        <time>2021-02-27T06:52:03Z</time>
      </trkpt>
      <trkpt lat="45.14707" lon="5.95313">
        <ele>2355.6</ele>
        <time>2021-02-27T06:52:04Z</time>
      </trkpt>
      <trkpt lat="45.14707" lon="5.95313">
        <ele>2356.4</ele>
        <time>2021-02-27T06:52:05Z</time>
      </trkpt>
      <trkpt lat="45.14709" lon="5.95315">
        <ele>2356.2</ele>
        <time>2021-02-27T06:52:06Z</time>
      </trkpt>
      <trkpt lat="45.14709" lon="5.95315">
        <ele>2356.6</ele>
        <time>2021-02-27T06:52:07Z</time>
      </trkpt>
      <trkpt lat="45.14709" lon="5.95315">
        <ele>2356.8</ele>
        <time>2021-02-27T06:52:08Z</time>
      </trkpt>
      <trkpt lat="45.14711" lon="5.95318">
        <ele>2357.6</ele>
        <time>2021-02-27T06:52:09Z</time>
      </trkpt>
      <trkpt lat="45.14711" lon="5.95318">
        <ele>2357.8</ele>
        <time>2021-02-27T06:52:10Z</time>
      </trkpt>
      <trkpt lat="45.14713" lon="5.95319">
        <ele>2358</ele>
        <time>2021-02-27T06:52:11Z</time>
      </trkpt>
      <trkpt lat="45.14713" lon="5.95319">
        <ele>2358.8</ele>
        <time>2021-02-27T06:52:12Z</time>
      </trkpt>
      <trkpt lat="45.14715" lon="5.9532">
        <ele>2359</ele>
        <time>2021-02-27T06:52:13Z</time>
      </trkpt>
      <trkpt lat="45.14715" lon="5.9532">
        <ele>2359.4</ele>
        <time>2021-02-27T06:52:14Z</time>
      </trkpt>
      <trkpt lat="45.14715" lon="5.9532">
        <ele>2360</ele>
        <time>2021-02-27T06:52:15Z</time>
      </trkpt>
      <trkpt lat="45.14715" lon="5.9532">
        <ele>2360.2</ele>
        <time>2021-02-27T06:52:16Z</time>
      </trkpt>
      <trkpt lat="45.14715" lon="5.9532">
        <ele>2360.6</ele>
        <time>2021-02-27T06:52:17Z</time>
      </trkpt>
      <trkpt lat="45.14717" lon="5.95323">
        <ele>2361.4</ele>
        <time>2021-02-27T06:52:18Z</time>
      </trkpt>
      <trkpt lat="45.14717" lon="5.95323">
        <ele>2361.2</ele>
        <time>2021-02-27T06:52:19Z</time>
      </trkpt>
      <trkpt lat="45.14717" lon="5.95323">
        <ele>2361.6</ele>
        <time>2021-02-27T06:52:20Z</time>
      </trkpt>
      <trkpt lat="45.1472" lon="5.95322">
        <ele>2361.8</ele>
        <time>2021-02-27T06:52:21Z</time>
      </trkpt>
      <trkpt lat="45.1472" lon="5.95322">
        <ele>2362.4</ele>
        <time>2021-02-27T06:52:22Z</time>
      </trkpt>
      <trkpt lat="45.1472" lon="5.95322">
        <ele>2362.6</ele>
        <time>2021-02-27T06:52:23Z</time>
      </trkpt>
      <trkpt lat="45.14721" lon="5.95322">
        <ele>2362.8</ele>
        <time>2021-02-27T06:52:24Z</time>
      </trkpt>
      <trkpt lat="45.14721" lon="5.95322">
        <ele>2363.6</ele>
        <time>2021-02-27T06:52:25Z</time>
      </trkpt>
      <trkpt lat="45.14721" lon="5.95322">
        <ele>2364</ele>
        <time>2021-02-27T06:52:26Z</time>
      </trkpt>
      <trkpt lat="45.14721" lon="5.95322">
        <ele>2364.2</ele>
        <time>2021-02-27T06:52:27Z</time>
      </trkpt>
      <trkpt lat="45.14721" lon="5.95322">
        <ele>2364.6</ele>
        <time>2021-02-27T06:52:28Z</time>
      </trkpt>
      <trkpt lat="45.14721" lon="5.95322">
        <ele>2364.8</ele>
        <time>2021-02-27T06:52:29Z</time>
      </trkpt>
      <trkpt lat="45.14725" lon="5.9532">
        <ele>2365.4</ele>
        <time>2021-02-27T06:52:30Z</time>
      </trkpt>
      <trkpt lat="45.14725" lon="5.9532">
        <ele>2365.8</ele>
        <time>2021-02-27T06:52:31Z</time>
      </trkpt>
      <trkpt lat="45.14725" lon="5.9532">
        <ele>2366</ele>
        <time>2021-02-27T06:52:32Z</time>
      </trkpt>
      <trkpt lat="45.14727" lon="5.95319">
        <ele>2366.2</ele>
        <time>2021-02-27T06:52:33Z</time>
      </trkpt>
      <trkpt lat="45.14727" lon="5.95319">
        <ele>2366.2</ele>
        <time>2021-02-27T06:52:34Z</time>
      </trkpt>
      <trkpt lat="45.14727" lon="5.95319">
        <ele>2366.6</ele>
        <time>2021-02-27T06:52:35Z</time>
      </trkpt>
      <trkpt lat="45.14729" lon="5.95318">
        <ele>2366.8</ele>
        <time>2021-02-27T06:52:36Z</time>
      </trkpt>
      <trkpt lat="45.14729" lon="5.95318">
        <ele>2366.8</ele>
        <time>2021-02-27T06:52:37Z</time>
      </trkpt>
      <trkpt lat="45.14729" lon="5.95318">
        <ele>2367.2</ele>
        <time>2021-02-27T06:52:38Z</time>
      </trkpt>
      <trkpt lat="45.14729" lon="5.95318">
        <ele>2367.4</ele>
        <time>2021-02-27T06:52:39Z</time>
      </trkpt>
      <trkpt lat="45.1473" lon="5.95317">
        <ele>2367.4</ele>
        <time>2021-02-27T06:52:40Z</time>
      </trkpt>
      <trkpt lat="45.1473" lon="5.95317">
        <ele>2367.4</ele>
        <time>2021-02-27T06:52:41Z</time>
      </trkpt>
      <trkpt lat="45.1473" lon="5.95317">
        <ele>2367.6</ele>
        <time>2021-02-27T06:52:42Z</time>
      </trkpt>
      <trkpt lat="45.14733" lon="5.95316">
        <ele>2367.4</ele>
        <time>2021-02-27T06:52:43Z</time>
      </trkpt>
      <trkpt lat="45.14733" lon="5.95316">
        <ele>2367.6</ele>
        <time>2021-02-27T06:52:44Z</time>
      </trkpt>
      <trkpt lat="45.14734" lon="5.95316">
        <ele>2368.2</ele>
        <time>2021-02-27T06:52:45Z</time>
      </trkpt>
      <trkpt lat="45.14735" lon="5.95316">
        <ele>2368.2</ele>
        <time>2021-02-27T06:52:46Z</time>
      </trkpt>
      <trkpt lat="45.14735" lon="5.95316">
        <ele>2368.4</ele>
        <time>2021-02-27T06:52:47Z</time>
      </trkpt>
      <trkpt lat="45.14736" lon="5.95316">
        <ele>2368.8</ele>
        <time>2021-02-27T06:52:48Z</time>
      </trkpt>
      <trkpt lat="45.14737" lon="5.95316">
        <ele>2368.8</ele>
        <time>2021-02-27T06:52:49Z</time>
      </trkpt>
      <trkpt lat="45.14738" lon="5.95316">
        <ele>2369.2</ele>
        <time>2021-02-27T06:52:50Z</time>
      </trkpt>
      <trkpt lat="45.1474" lon="5.95315">
        <ele>2369.8</ele>
        <time>2021-02-27T06:52:51Z</time>
      </trkpt>
      <trkpt lat="45.1474" lon="5.95315">
        <ele>2369.6</ele>
        <time>2021-02-27T06:52:52Z</time>
      </trkpt>
      <trkpt lat="45.1474" lon="5.95315">
        <ele>2370.4</ele>
        <time>2021-02-27T06:52:53Z</time>
      </trkpt>
      <trkpt lat="45.14742" lon="5.95314">
        <ele>2370.8</ele>
        <time>2021-02-27T06:52:54Z</time>
      </trkpt>
      <trkpt lat="45.14742" lon="5.95314">
        <ele>2371.2</ele>
        <time>2021-02-27T06:52:55Z</time>
      </trkpt>
      <trkpt lat="45.14742" lon="5.95314">
        <ele>2371.4</ele>
        <time>2021-02-27T06:52:56Z</time>
      </trkpt>
      <trkpt lat="45.14742" lon="5.95314">
        <ele>2371.8</ele>
        <time>2021-02-27T06:52:57Z</time>
      </trkpt>
      <trkpt lat="45.14744" lon="5.95314">
        <ele>2372</ele>
        <time>2021-02-27T06:52:58Z</time>
      </trkpt>
      <trkpt lat="45.14744" lon="5.95314">
        <ele>2372</ele>
        <time>2021-02-27T06:52:59Z</time>
      </trkpt>
      <trkpt lat="45.14746" lon="5.95316">
        <ele>2372.2</ele>
        <time>2021-02-27T06:53:00Z</time>
      </trkpt>
      <trkpt lat="45.14746" lon="5.95316">
        <ele>2372.8</ele>
        <time>2021-02-27T06:53:01Z</time>
      </trkpt>
      <trkpt lat="45.14748" lon="5.95316">
        <ele>2373</ele>
        <time>2021-02-27T06:53:02Z</time>
      </trkpt>
      <trkpt lat="45.14748" lon="5.95316">
        <ele>2373.2</ele>
        <time>2021-02-27T06:53:03Z</time>
      </trkpt>
      <trkpt lat="45.1475" lon="5.95316">
        <ele>2373.4</ele>
        <time>2021-02-27T06:53:04Z</time>
      </trkpt>
      <trkpt lat="45.1475" lon="5.95316">
        <ele>2373.6</ele>
        <time>2021-02-27T06:53:05Z</time>
      </trkpt>
      <trkpt lat="45.14752" lon="5.95317">
        <ele>2373.6</ele>
        <time>2021-02-27T06:53:06Z</time>
      </trkpt>
      <trkpt lat="45.14752" lon="5.95317">
        <ele>2374</ele>
        <time>2021-02-27T06:53:07Z</time>
      </trkpt>
      <trkpt lat="45.14754" lon="5.95316">
        <ele>2374</ele>
        <time>2021-02-27T06:53:08Z</time>
      </trkpt>
      <trkpt lat="45.14754" lon="5.95316">
        <ele>2374.4</ele>
        <time>2021-02-27T06:53:09Z</time>
      </trkpt>
      <trkpt lat="45.14754" lon="5.95316">
        <ele>2374.4</ele>
        <time>2021-02-27T06:53:10Z</time>
      </trkpt>
      <trkpt lat="45.14756" lon="5.95317">
        <ele>2374.8</ele>
        <time>2021-02-27T06:53:11Z</time>
      </trkpt>
      <trkpt lat="45.14756" lon="5.95317">
        <ele>2375.2</ele>
        <time>2021-02-27T06:53:12Z</time>
      </trkpt>
      <trkpt lat="45.14756" lon="5.95317">
        <ele>2375.4</ele>
        <time>2021-02-27T06:53:13Z</time>
      </trkpt>
      <trkpt lat="45.14758" lon="5.95318">
        <ele>2375.6</ele>
        <time>2021-02-27T06:53:14Z</time>
      </trkpt>
      <trkpt lat="45.14758" lon="5.95318">
        <ele>2376</ele>
        <time>2021-02-27T06:53:15Z</time>
      </trkpt>
      <trkpt lat="45.14758" lon="5.95318">
        <ele>2376.2</ele>
        <time>2021-02-27T06:53:16Z</time>
      </trkpt>
      <trkpt lat="45.14761" lon="5.95318">
        <ele>2376.6</ele>
        <time>2021-02-27T06:53:17Z</time>
      </trkpt>
      <trkpt lat="45.14761" lon="5.95318">
        <ele>2376.6</ele>
        <time>2021-02-27T06:53:18Z</time>
      </trkpt>
      <trkpt lat="45.14761" lon="5.95318">
        <ele>2376.6</ele>
        <time>2021-02-27T06:53:19Z</time>
      </trkpt>
      <trkpt lat="45.14763" lon="5.95319">
        <ele>2376.8</ele>
        <time>2021-02-27T06:53:20Z</time>
      </trkpt>
      <trkpt lat="45.14763" lon="5.95319">
        <ele>2377</ele>
        <time>2021-02-27T06:53:21Z</time>
      </trkpt>
      <trkpt lat="45.14765" lon="5.95319">
        <ele>2377.4</ele>
        <time>2021-02-27T06:53:22Z</time>
      </trkpt>
      <trkpt lat="45.14765" lon="5.95319">
        <ele>2377.6</ele>
        <time>2021-02-27T06:53:23Z</time>
      </trkpt>
      <trkpt lat="45.14765" lon="5.95319">
        <ele>2377.8</ele>
        <time>2021-02-27T06:53:24Z</time>
      </trkpt>
      <trkpt lat="45.14765" lon="5.95319">
        <ele>2378.2</ele>
        <time>2021-02-27T06:53:25Z</time>
      </trkpt>
      <trkpt lat="45.14766" lon="5.9532">
        <ele>2378.4</ele>
        <time>2021-02-27T06:53:26Z</time>
      </trkpt>
      <trkpt lat="45.14766" lon="5.9532">
        <ele>2378.8</ele>
        <time>2021-02-27T06:53:27Z</time>
      </trkpt>
      <trkpt lat="45.14766" lon="5.9532">
        <ele>2379</ele>
        <time>2021-02-27T06:53:28Z</time>
      </trkpt>
      <trkpt lat="45.14766" lon="5.9532">
        <ele>2379.4</ele>
        <time>2021-02-27T06:53:29Z</time>
      </trkpt>
      <trkpt lat="45.14769" lon="5.95321">
        <ele>2379.6</ele>
        <time>2021-02-27T06:53:30Z</time>
      </trkpt>
      <trkpt lat="45.14769" lon="5.95321">
        <ele>2380.2</ele>
        <time>2021-02-27T06:53:31Z</time>
      </trkpt>
      <trkpt lat="45.14769" lon="5.95321">
        <ele>2380</ele>
        <time>2021-02-27T06:53:32Z</time>
      </trkpt>
      <trkpt lat="45.14771" lon="5.95322">
        <ele>2380</ele>
        <time>2021-02-27T06:53:33Z</time>
      </trkpt>
      <trkpt lat="45.14771" lon="5.95322">
        <ele>2380.8</ele>
        <time>2021-02-27T06:53:34Z</time>
      </trkpt>
      <trkpt lat="45.14773" lon="5.95322">
        <ele>2381.2</ele>
        <time>2021-02-27T06:53:35Z</time>
      </trkpt>
      <trkpt lat="45.14773" lon="5.95322">
        <ele>2381.2</ele>
        <time>2021-02-27T06:53:36Z</time>
      </trkpt>
      <trkpt lat="45.14773" lon="5.95322">
        <ele>2381.2</ele>
        <time>2021-02-27T06:53:37Z</time>
      </trkpt>
      <trkpt lat="45.14775" lon="5.95321">
        <ele>2381.6</ele>
        <time>2021-02-27T06:53:38Z</time>
      </trkpt>
      <trkpt lat="45.14775" lon="5.95321">
        <ele>2381.8</ele>
        <time>2021-02-27T06:53:39Z</time>
      </trkpt>
      <trkpt lat="45.14775" lon="5.95321">
        <ele>2381.8</ele>
        <time>2021-02-27T06:53:40Z</time>
      </trkpt>
      <trkpt lat="45.14775" lon="5.95321">
        <ele>2381.8</ele>
        <time>2021-02-27T06:53:41Z</time>
      </trkpt>
      <trkpt lat="45.14777" lon="5.95321">
        <ele>2381.8</ele>
        <time>2021-02-27T06:53:42Z</time>
      </trkpt>
      <trkpt lat="45.14777" lon="5.95321">
        <ele>2382</ele>
        <time>2021-02-27T06:53:43Z</time>
      </trkpt>
      <trkpt lat="45.14777" lon="5.95321">
        <ele>2382.6</ele>
        <time>2021-02-27T06:53:44Z</time>
      </trkpt>
      <trkpt lat="45.1478" lon="5.95321">
        <ele>2382.4</ele>
        <time>2021-02-27T06:53:45Z</time>
      </trkpt>
      <trkpt lat="45.1478" lon="5.95321">
        <ele>2382.8</ele>
        <time>2021-02-27T06:53:46Z</time>
      </trkpt>
      <trkpt lat="45.1478" lon="5.95321">
        <ele>2383.4</ele>
        <time>2021-02-27T06:53:47Z</time>
      </trkpt>
      <trkpt lat="45.14782" lon="5.95322">
        <ele>2383.8</ele>
        <time>2021-02-27T06:53:48Z</time>
      </trkpt>
      <trkpt lat="45.14782" lon="5.95322">
        <ele>2383.8</ele>
        <time>2021-02-27T06:53:49Z</time>
      </trkpt>
      <trkpt lat="45.14782" lon="5.95322">
        <ele>2384</ele>
        <time>2021-02-27T06:53:50Z</time>
      </trkpt>
      <trkpt lat="45.14782" lon="5.95322">
        <ele>2384</ele>
        <time>2021-02-27T06:53:51Z</time>
      </trkpt>
      <trkpt lat="45.14782" lon="5.95322">
        <ele>2384.4</ele>
        <time>2021-02-27T06:53:52Z</time>
      </trkpt>
      <trkpt lat="45.14784" lon="5.95321">
        <ele>2384.2</ele>
        <time>2021-02-27T06:53:53Z</time>
      </trkpt>
      <trkpt lat="45.14784" lon="5.95321">
        <ele>2384.6</ele>
        <time>2021-02-27T06:53:54Z</time>
      </trkpt>
      <trkpt lat="45.14784" lon="5.95321">
        <ele>2385</ele>
        <time>2021-02-27T06:53:55Z</time>
      </trkpt>
      <trkpt lat="45.14786" lon="5.95322">
        <ele>2384.8</ele>
        <time>2021-02-27T06:53:56Z</time>
      </trkpt>
      <trkpt lat="45.14786" lon="5.95322">
        <ele>2385.2</ele>
        <time>2021-02-27T06:53:57Z</time>
      </trkpt>
      <trkpt lat="45.14786" lon="5.95322">
        <ele>2385.6</ele>
        <time>2021-02-27T06:53:58Z</time>
      </trkpt>
      <trkpt lat="45.14788" lon="5.95324">
        <ele>2385.4</ele>
        <time>2021-02-27T06:53:59Z</time>
      </trkpt>
      <trkpt lat="45.14788" lon="5.95324">
        <ele>2385.8</ele>
        <time>2021-02-27T06:54:00Z</time>
      </trkpt>
      <trkpt lat="45.14788" lon="5.95324">
        <ele>2386.2</ele>
        <time>2021-02-27T06:54:01Z</time>
      </trkpt>
      <trkpt lat="45.14788" lon="5.95326">
        <ele>2386.8</ele>
        <time>2021-02-27T06:54:02Z</time>
      </trkpt>
      <trkpt lat="45.14788" lon="5.95326">
        <ele>2387</ele>
        <time>2021-02-27T06:54:03Z</time>
      </trkpt>
      <trkpt lat="45.14788" lon="5.95326">
        <ele>2387.2</ele>
        <time>2021-02-27T06:54:04Z</time>
      </trkpt>
      <trkpt lat="45.14788" lon="5.95329">
        <ele>2387.8</ele>
        <time>2021-02-27T06:54:05Z</time>
      </trkpt>
      <trkpt lat="45.14788" lon="5.95329">
        <ele>2388</ele>
        <time>2021-02-27T06:54:06Z</time>
      </trkpt>
      <trkpt lat="45.14788" lon="5.95329">
        <ele>2388.2</ele>
        <time>2021-02-27T06:54:07Z</time>
      </trkpt>
      <trkpt lat="45.1479" lon="5.95331">
        <ele>2388.6</ele>
        <time>2021-02-27T06:54:08Z</time>
      </trkpt>
      <trkpt lat="45.1479" lon="5.95331">
        <ele>2388.4</ele>
        <time>2021-02-27T06:54:09Z</time>
      </trkpt>
      <trkpt lat="45.1479" lon="5.95331">
        <ele>2388.8</ele>
        <time>2021-02-27T06:54:10Z</time>
      </trkpt>
      <trkpt lat="45.14792" lon="5.9533">
        <ele>2389</ele>
        <time>2021-02-27T06:54:11Z</time>
      </trkpt>
      <trkpt lat="45.14792" lon="5.9533">
        <ele>2389.2</ele>
        <time>2021-02-27T06:54:12Z</time>
      </trkpt>
      <trkpt lat="45.14794" lon="5.95329">
        <ele>2389.6</ele>
        <time>2021-02-27T06:54:13Z</time>
      </trkpt>
      <trkpt lat="45.14794" lon="5.95329">
        <ele>2389.6</ele>
        <time>2021-02-27T06:54:14Z</time>
      </trkpt>
      <trkpt lat="45.14796" lon="5.95328">
        <ele>2389.8</ele>
        <time>2021-02-27T06:54:15Z</time>
      </trkpt>
      <trkpt lat="45.14796" lon="5.95328">
        <ele>2390.2</ele>
        <time>2021-02-27T06:54:16Z</time>
      </trkpt>
      <trkpt lat="45.14796" lon="5.95328">
        <ele>2390.6</ele>
        <time>2021-02-27T06:54:17Z</time>
      </trkpt>
      <trkpt lat="45.14798" lon="5.95327">
        <ele>2390.8</ele>
        <time>2021-02-27T06:54:18Z</time>
      </trkpt>
      <trkpt lat="45.14798" lon="5.95327">
        <ele>2391</ele>
        <time>2021-02-27T06:54:19Z</time>
      </trkpt>
      <trkpt lat="45.14799" lon="5.95325">
        <ele>2391.2</ele>
        <time>2021-02-27T06:54:20Z</time>
      </trkpt>
      <trkpt lat="45.14799" lon="5.95325">
        <ele>2391.4</ele>
        <time>2021-02-27T06:54:21Z</time>
      </trkpt>
      <trkpt lat="45.14799" lon="5.95325">
        <ele>2391.8</ele>
        <time>2021-02-27T06:54:22Z</time>
      </trkpt>
      <trkpt lat="45.14799" lon="5.95325">
        <ele>2391.8</ele>
        <time>2021-02-27T06:54:23Z</time>
      </trkpt>
      <trkpt lat="45.14799" lon="5.95325">
        <ele>2392.2</ele>
        <time>2021-02-27T06:54:24Z</time>
      </trkpt>
      <trkpt lat="45.14799" lon="5.95325">
        <ele>2393.2</ele>
        <time>2021-02-27T06:54:25Z</time>
      </trkpt>
      <trkpt lat="45.14799" lon="5.95325">
        <ele>2393.6</ele>
        <time>2021-02-27T06:54:26Z</time>
      </trkpt>
      <trkpt lat="45.14801" lon="5.95326">
        <ele>2394.4</ele>
        <time>2021-02-27T06:54:27Z</time>
      </trkpt>
      <trkpt lat="45.14801" lon="5.95326">
        <ele>2394.2</ele>
        <time>2021-02-27T06:54:28Z</time>
      </trkpt>
      <trkpt lat="45.14801" lon="5.95326">
        <ele>2394.4</ele>
        <time>2021-02-27T06:54:29Z</time>
      </trkpt>
      <trkpt lat="45.14801" lon="5.95326">
        <ele>2394.4</ele>
        <time>2021-02-27T06:54:30Z</time>
      </trkpt>
      <trkpt lat="45.14801" lon="5.95326">
        <ele>2394.6</ele>
        <time>2021-02-27T06:54:31Z</time>
      </trkpt>
      <trkpt lat="45.14801" lon="5.95326">
        <ele>2394.4</ele>
        <time>2021-02-27T06:54:32Z</time>
      </trkpt>
      <trkpt lat="45.14803" lon="5.95323">
        <ele>2393.8</ele>
        <time>2021-02-27T06:54:33Z</time>
      </trkpt>
      <trkpt lat="45.14803" lon="5.95323">
        <ele>2394.2</ele>
        <time>2021-02-27T06:54:34Z</time>
      </trkpt>
      <trkpt lat="45.14803" lon="5.95323">
        <ele>2394.2</ele>
        <time>2021-02-27T06:54:35Z</time>
      </trkpt>
      <trkpt lat="45.14803" lon="5.95323">
        <ele>2394.6</ele>
        <time>2021-02-27T06:54:36Z</time>
      </trkpt>
      <trkpt lat="45.14806" lon="5.9532">
        <ele>2395.2</ele>
        <time>2021-02-27T06:54:37Z</time>
      </trkpt>
      <trkpt lat="45.14806" lon="5.9532">
        <ele>2395.4</ele>
        <time>2021-02-27T06:54:38Z</time>
      </trkpt>
      <trkpt lat="45.14806" lon="5.9532">
        <ele>2395.6</ele>
        <time>2021-02-27T06:54:39Z</time>
      </trkpt>
      <trkpt lat="45.14806" lon="5.95318">
        <ele>2395.4</ele>
        <time>2021-02-27T06:54:40Z</time>
      </trkpt>
      <trkpt lat="45.14806" lon="5.95318">
        <ele>2395.6</ele>
        <time>2021-02-27T06:54:41Z</time>
      </trkpt>
      <trkpt lat="45.14806" lon="5.95318">
        <ele>2395.6</ele>
        <time>2021-02-27T06:54:42Z</time>
      </trkpt>
      <trkpt lat="45.14806" lon="5.95315">
        <ele>2396.2</ele>
        <time>2021-02-27T06:54:43Z</time>
      </trkpt>
      <trkpt lat="45.14806" lon="5.95315">
        <ele>2396.2</ele>
        <time>2021-02-27T06:54:44Z</time>
      </trkpt>
      <trkpt lat="45.14806" lon="5.95315">
        <ele>2396</ele>
        <time>2021-02-27T06:54:45Z</time>
      </trkpt>
      <trkpt lat="45.14807" lon="5.95312">
        <ele>2395.8</ele>
        <time>2021-02-27T06:54:46Z</time>
      </trkpt>
      <trkpt lat="45.14807" lon="5.95312">
        <ele>2395.8</ele>
        <time>2021-02-27T06:54:47Z</time>
      </trkpt>
      <trkpt lat="45.14807" lon="5.95312">
        <ele>2395.8</ele>
        <time>2021-02-27T06:54:48Z</time>
      </trkpt>
      <trkpt lat="45.14807" lon="5.95309">
        <ele>2396.4</ele>
        <time>2021-02-27T06:54:49Z</time>
      </trkpt>
      <trkpt lat="45.14807" lon="5.95309">
        <ele>2396.6</ele>
        <time>2021-02-27T06:54:50Z</time>
      </trkpt>
      <trkpt lat="45.14807" lon="5.95309">
        <ele>2396.2</ele>
        <time>2021-02-27T06:54:51Z</time>
      </trkpt>
      <trkpt lat="45.14807" lon="5.95306">
        <ele>2396.6</ele>
        <time>2021-02-27T06:54:52Z</time>
      </trkpt>
      <trkpt lat="45.14807" lon="5.95306">
        <ele>2396.8</ele>
        <time>2021-02-27T06:54:53Z</time>
      </trkpt>
      <trkpt lat="45.14807" lon="5.95306">
        <ele>2397</ele>
        <time>2021-02-27T06:54:54Z</time>
      </trkpt>
      <trkpt lat="45.14807" lon="5.95303">
        <ele>2397</ele>
        <time>2021-02-27T06:54:55Z</time>
      </trkpt>
      <trkpt lat="45.14807" lon="5.95303">
        <ele>2397.4</ele>
        <time>2021-02-27T06:54:56Z</time>
      </trkpt>
      <trkpt lat="45.14807" lon="5.95303">
        <ele>2397.6</ele>
        <time>2021-02-27T06:54:57Z</time>
      </trkpt>
      <trkpt lat="45.14807" lon="5.95303">
        <ele>2397.6</ele>
        <time>2021-02-27T06:54:58Z</time>
      </trkpt>
      <trkpt lat="45.14807" lon="5.95303">
        <ele>2397.8</ele>
        <time>2021-02-27T06:54:59Z</time>
      </trkpt>
      <trkpt lat="45.14807" lon="5.95303">
        <ele>2398.6</ele>
        <time>2021-02-27T06:55:00Z</time>
      </trkpt>
      <trkpt lat="45.14808" lon="5.95301">
        <ele>2398.8</ele>
        <time>2021-02-27T06:55:01Z</time>
      </trkpt>
      <trkpt lat="45.14808" lon="5.95301">
        <ele>2399</ele>
        <time>2021-02-27T06:55:02Z</time>
      </trkpt>
      <trkpt lat="45.14808" lon="5.95301">
        <ele>2399.6</ele>
        <time>2021-02-27T06:55:03Z</time>
      </trkpt>
      <trkpt lat="45.14808" lon="5.95301">
        <ele>2400</ele>
        <time>2021-02-27T06:55:04Z</time>
      </trkpt>
      <trkpt lat="45.14808" lon="5.95301">
        <ele>2399.8</ele>
        <time>2021-02-27T06:55:05Z</time>
      </trkpt>
      <trkpt lat="45.1481" lon="5.95302">
        <ele>2400.2</ele>
        <time>2021-02-27T06:55:06Z</time>
      </trkpt>
      <trkpt lat="45.1481" lon="5.95302">
        <ele>2400.4</ele>
        <time>2021-02-27T06:55:07Z</time>
      </trkpt>
      <trkpt lat="45.14811" lon="5.95304">
        <ele>2400.6</ele>
        <time>2021-02-27T06:55:08Z</time>
      </trkpt>
      <trkpt lat="45.14811" lon="5.95304">
        <ele>2401.4</ele>
        <time>2021-02-27T06:55:09Z</time>
      </trkpt>
      <trkpt lat="45.14811" lon="5.95304">
        <ele>2401.6</ele>
        <time>2021-02-27T06:55:10Z</time>
      </trkpt>
      <trkpt lat="45.14812" lon="5.95307">
        <ele>2402.2</ele>
        <time>2021-02-27T06:55:11Z</time>
      </trkpt>
      <trkpt lat="45.14812" lon="5.95307">
        <ele>2402.6</ele>
        <time>2021-02-27T06:55:12Z</time>
      </trkpt>
      <trkpt lat="45.14813" lon="5.95309">
        <ele>2403</ele>
        <time>2021-02-27T06:55:13Z</time>
      </trkpt>
      <trkpt lat="45.14813" lon="5.95309">
        <ele>2403.6</ele>
        <time>2021-02-27T06:55:14Z</time>
      </trkpt>
      <trkpt lat="45.14813" lon="5.95309">
        <ele>2404.2</ele>
        <time>2021-02-27T06:55:15Z</time>
      </trkpt>
      <trkpt lat="45.14815" lon="5.95311">
        <ele>2404.8</ele>
        <time>2021-02-27T06:55:16Z</time>
      </trkpt>
      <trkpt lat="45.14815" lon="5.95311">
        <ele>2405.2</ele>
        <time>2021-02-27T06:55:17Z</time>
      </trkpt>
      <trkpt lat="45.14817" lon="5.95311">
        <ele>2405</ele>
        <time>2021-02-27T06:55:18Z</time>
      </trkpt>
      <trkpt lat="45.14817" lon="5.95311">
        <ele>2405.2</ele>
        <time>2021-02-27T06:55:19Z</time>
      </trkpt>
      <trkpt lat="45.14819" lon="5.95312">
        <ele>2405.6</ele>
        <time>2021-02-27T06:55:20Z</time>
      </trkpt>
      <trkpt lat="45.14819" lon="5.95312">
        <ele>2406.2</ele>
        <time>2021-02-27T06:55:21Z</time>
      </trkpt>
      <trkpt lat="45.14822" lon="5.95313">
        <ele>2407.2</ele>
        <time>2021-02-27T06:55:22Z</time>
      </trkpt>
      <trkpt lat="45.14822" lon="5.95313">
        <ele>2407.8</ele>
        <time>2021-02-27T06:55:23Z</time>
      </trkpt>
      <trkpt lat="45.14824" lon="5.95313">
        <ele>2408</ele>
        <time>2021-02-27T06:55:24Z</time>
      </trkpt>
      <trkpt lat="45.14824" lon="5.95313">
        <ele>2408.4</ele>
        <time>2021-02-27T06:55:25Z</time>
      </trkpt>
      <trkpt lat="45.14826" lon="5.95315">
        <ele>2408.4</ele>
        <time>2021-02-27T06:55:26Z</time>
      </trkpt>
      <trkpt lat="45.14826" lon="5.95315">
        <ele>2409.4</ele>
        <time>2021-02-27T06:55:27Z</time>
      </trkpt>
      <trkpt lat="45.14828" lon="5.95316">
        <ele>2410</ele>
        <time>2021-02-27T06:55:28Z</time>
      </trkpt>
      <trkpt lat="45.14828" lon="5.95316">
        <ele>2410.6</ele>
        <time>2021-02-27T06:55:29Z</time>
      </trkpt>
      <trkpt lat="45.14828" lon="5.95316">
        <ele>2410.8</ele>
        <time>2021-02-27T06:55:30Z</time>
      </trkpt>
      <trkpt lat="45.14829" lon="5.95317">
        <ele>2411</ele>
        <time>2021-02-27T06:55:31Z</time>
      </trkpt>
      <trkpt lat="45.14829" lon="5.95317">
        <ele>2410.8</ele>
        <time>2021-02-27T06:55:32Z</time>
      </trkpt>
      <trkpt lat="45.14831" lon="5.95319">
        <ele>2411.4</ele>
        <time>2021-02-27T06:55:33Z</time>
      </trkpt>
      <trkpt lat="45.14831" lon="5.95319">
        <ele>2411.2</ele>
        <time>2021-02-27T06:55:34Z</time>
      </trkpt>
      <trkpt lat="45.14831" lon="5.95319">
        <ele>2411.6</ele>
        <time>2021-02-27T06:55:35Z</time>
      </trkpt>
      <trkpt lat="45.14833" lon="5.9532">
        <ele>2411.6</ele>
        <time>2021-02-27T06:55:36Z</time>
      </trkpt>
      <trkpt lat="45.14833" lon="5.9532">
        <ele>2411.8</ele>
        <time>2021-02-27T06:55:37Z</time>
      </trkpt>
      <trkpt lat="45.14833" lon="5.9532">
        <ele>2412</ele>
        <time>2021-02-27T06:55:38Z</time>
      </trkpt>
      <trkpt lat="45.14835" lon="5.95321">
        <ele>2412.4</ele>
        <time>2021-02-27T06:55:39Z</time>
      </trkpt>
      <trkpt lat="45.14835" lon="5.95321">
        <ele>2412.8</ele>
        <time>2021-02-27T06:55:40Z</time>
      </trkpt>
      <trkpt lat="45.14837" lon="5.95321">
        <ele>2413</ele>
        <time>2021-02-27T06:55:41Z</time>
      </trkpt>
      <trkpt lat="45.14837" lon="5.95321">
        <ele>2413.2</ele>
        <time>2021-02-27T06:55:42Z</time>
      </trkpt>
      <trkpt lat="45.14837" lon="5.95321">
        <ele>2413.8</ele>
        <time>2021-02-27T06:55:43Z</time>
      </trkpt>
      <trkpt lat="45.14839" lon="5.95322">
        <ele>2414.2</ele>
        <time>2021-02-27T06:55:44Z</time>
      </trkpt>
      <trkpt lat="45.14839" lon="5.95322">
        <ele>2414.4</ele>
        <time>2021-02-27T06:55:45Z</time>
      </trkpt>
      <trkpt lat="45.14839" lon="5.95322">
        <ele>2414.2</ele>
        <time>2021-02-27T06:55:46Z</time>
      </trkpt>
      <trkpt lat="45.14841" lon="5.95323">
        <ele>2415</ele>
        <time>2021-02-27T06:55:47Z</time>
      </trkpt>
      <trkpt lat="45.14841" lon="5.95323">
        <ele>2415.4</ele>
        <time>2021-02-27T06:55:48Z</time>
      </trkpt>
      <trkpt lat="45.14841" lon="5.95323">
        <ele>2416</ele>
        <time>2021-02-27T06:55:49Z</time>
      </trkpt>
      <trkpt lat="45.14841" lon="5.95323">
        <ele>2416.4</ele>
        <time>2021-02-27T06:55:50Z</time>
      </trkpt>
      <trkpt lat="45.14841" lon="5.95323">
        <ele>2417</ele>
        <time>2021-02-27T06:55:51Z</time>
      </trkpt>
      <trkpt lat="45.14841" lon="5.95323">
        <ele>2417.6</ele>
        <time>2021-02-27T06:55:52Z</time>
      </trkpt>
      <trkpt lat="45.14843" lon="5.95324">
        <ele>2417.8</ele>
        <time>2021-02-27T06:55:53Z</time>
      </trkpt>
      <trkpt lat="45.14843" lon="5.95324">
        <ele>2418</ele>
        <time>2021-02-27T06:55:54Z</time>
      </trkpt>
      <trkpt lat="45.14843" lon="5.95324">
        <ele>2418</ele>
        <time>2021-02-27T06:55:55Z</time>
      </trkpt>
      <trkpt lat="45.14846" lon="5.95325">
        <ele>2418.2</ele>
        <time>2021-02-27T06:55:56Z</time>
      </trkpt>
      <trkpt lat="45.14846" lon="5.95325">
        <ele>2418.2</ele>
        <time>2021-02-27T06:55:57Z</time>
      </trkpt>
      <trkpt lat="45.14846" lon="5.95325">
        <ele>2418.4</ele>
        <time>2021-02-27T06:55:58Z</time>
      </trkpt>
      <trkpt lat="45.14848" lon="5.95325">
        <ele>2418.4</ele>
        <time>2021-02-27T06:55:59Z</time>
      </trkpt>
      <trkpt lat="45.14848" lon="5.95325">
        <ele>2418.8</ele>
        <time>2021-02-27T06:56:00Z</time>
      </trkpt>
      <trkpt lat="45.1485" lon="5.95326">
        <ele>2419</ele>
        <time>2021-02-27T06:56:01Z</time>
      </trkpt>
      <trkpt lat="45.1485" lon="5.95326">
        <ele>2419.2</ele>
        <time>2021-02-27T06:56:02Z</time>
      </trkpt>
      <trkpt lat="45.14852" lon="5.95326">
        <ele>2419.4</ele>
        <time>2021-02-27T06:56:03Z</time>
      </trkpt>
      <trkpt lat="45.14852" lon="5.95326">
        <ele>2420</ele>
        <time>2021-02-27T06:56:04Z</time>
      </trkpt>
      <trkpt lat="45.14854" lon="5.95326">
        <ele>2420.2</ele>
        <time>2021-02-27T06:56:05Z</time>
      </trkpt>
      <trkpt lat="45.14854" lon="5.95326">
        <ele>2420.8</ele>
        <time>2021-02-27T06:56:06Z</time>
      </trkpt>
      <trkpt lat="45.14856" lon="5.95327">
        <ele>2421.4</ele>
        <time>2021-02-27T06:56:07Z</time>
      </trkpt>
      <trkpt lat="45.14856" lon="5.95327">
        <ele>2422</ele>
        <time>2021-02-27T06:56:08Z</time>
      </trkpt>
      <trkpt lat="45.14858" lon="5.95328">
        <ele>2422.2</ele>
        <time>2021-02-27T06:56:09Z</time>
      </trkpt>
      <trkpt lat="45.14858" lon="5.95328">
        <ele>2422.6</ele>
        <time>2021-02-27T06:56:10Z</time>
      </trkpt>
      <trkpt lat="45.14858" lon="5.95328">
        <ele>2423.2</ele>
        <time>2021-02-27T06:56:11Z</time>
      </trkpt>
      <trkpt lat="45.1486" lon="5.9533">
        <ele>2423.4</ele>
        <time>2021-02-27T06:56:12Z</time>
      </trkpt>
      <trkpt lat="45.1486" lon="5.9533">
        <ele>2423.8</ele>
        <time>2021-02-27T06:56:13Z</time>
      </trkpt>
      <trkpt lat="45.1486" lon="5.9533">
        <ele>2424.4</ele>
        <time>2021-02-27T06:56:14Z</time>
      </trkpt>
      <trkpt lat="45.14862" lon="5.95331">
        <ele>2424.6</ele>
        <time>2021-02-27T06:56:15Z</time>
      </trkpt>
      <trkpt lat="45.14862" lon="5.95331">
        <ele>2425.2</ele>
        <time>2021-02-27T06:56:16Z</time>
      </trkpt>
      <trkpt lat="45.14862" lon="5.95331">
        <ele>2425</ele>
        <time>2021-02-27T06:56:17Z</time>
      </trkpt>
      <trkpt lat="45.14865" lon="5.95332">
        <ele>2425</ele>
        <time>2021-02-27T06:56:18Z</time>
      </trkpt>
      <trkpt lat="45.14865" lon="5.95332">
        <ele>2425.8</ele>
        <time>2021-02-27T06:56:19Z</time>
      </trkpt>
      <trkpt lat="45.14865" lon="5.95332">
        <ele>2425.8</ele>
        <time>2021-02-27T06:56:20Z</time>
      </trkpt>
      <trkpt lat="45.14865" lon="5.95332">
        <ele>2426</ele>
        <time>2021-02-27T06:56:21Z</time>
      </trkpt>
      <trkpt lat="45.14868" lon="5.95333">
        <ele>2426</ele>
        <time>2021-02-27T06:56:22Z</time>
      </trkpt>
      <trkpt lat="45.14868" lon="5.95333">
        <ele>2426.4</ele>
        <time>2021-02-27T06:56:23Z</time>
      </trkpt>
      <trkpt lat="45.14868" lon="5.95333">
        <ele>2426.4</ele>
        <time>2021-02-27T06:56:24Z</time>
      </trkpt>
      <trkpt lat="45.14871" lon="5.95334">
        <ele>2426.2</ele>
        <time>2021-02-27T06:56:25Z</time>
      </trkpt>
      <trkpt lat="45.14871" lon="5.95334">
        <ele>2427</ele>
        <time>2021-02-27T06:56:26Z</time>
      </trkpt>
      <trkpt lat="45.14873" lon="5.95336">
        <ele>2427</ele>
        <time>2021-02-27T06:56:27Z</time>
      </trkpt>
      <trkpt lat="45.14873" lon="5.95336">
        <ele>2427.2</ele>
        <time>2021-02-27T06:56:28Z</time>
      </trkpt>
      <trkpt lat="45.14874" lon="5.95336">
        <ele>2427.2</ele>
        <time>2021-02-27T06:56:29Z</time>
      </trkpt>
      <trkpt lat="45.14874" lon="5.95336">
        <ele>2427.4</ele>
        <time>2021-02-27T06:56:30Z</time>
      </trkpt>
      <trkpt lat="45.14874" lon="5.95336">
        <ele>2427.8</ele>
        <time>2021-02-27T06:56:31Z</time>
      </trkpt>
      <trkpt lat="45.14877" lon="5.95337">
        <ele>2428</ele>
        <time>2021-02-27T06:56:32Z</time>
      </trkpt>
      <trkpt lat="45.14877" lon="5.95337">
        <ele>2428.4</ele>
        <time>2021-02-27T06:56:33Z</time>
      </trkpt>
      <trkpt lat="45.14877" lon="5.95337">
        <ele>2428.8</ele>
        <time>2021-02-27T06:56:34Z</time>
      </trkpt>
      <trkpt lat="45.14877" lon="5.95337">
        <ele>2428.8</ele>
        <time>2021-02-27T06:56:35Z</time>
      </trkpt>
      <trkpt lat="45.14879" lon="5.95337">
        <ele>2429.2</ele>
        <time>2021-02-27T06:56:36Z</time>
      </trkpt>
      <trkpt lat="45.14879" lon="5.95337">
        <ele>2429.2</ele>
        <time>2021-02-27T06:56:37Z</time>
      </trkpt>
      <trkpt lat="45.14879" lon="5.95337">
        <ele>2429.6</ele>
        <time>2021-02-27T06:56:38Z</time>
      </trkpt>
      <trkpt lat="45.14881" lon="5.95338">
        <ele>2429.4</ele>
        <time>2021-02-27T06:56:39Z</time>
      </trkpt>
      <trkpt lat="45.14881" lon="5.95338">
        <ele>2429.8</ele>
        <time>2021-02-27T06:56:40Z</time>
      </trkpt>
      <trkpt lat="45.14881" lon="5.95338">
        <ele>2430.6</ele>
        <time>2021-02-27T06:56:41Z</time>
      </trkpt>
      <trkpt lat="45.14881" lon="5.95338">
        <ele>2431</ele>
        <time>2021-02-27T06:56:42Z</time>
      </trkpt>
      <trkpt lat="45.14881" lon="5.95338">
        <ele>2431</ele>
        <time>2021-02-27T06:56:43Z</time>
      </trkpt>
      <trkpt lat="45.14881" lon="5.95338">
        <ele>2431.6</ele>
        <time>2021-02-27T06:56:44Z</time>
      </trkpt>
      <trkpt lat="45.14883" lon="5.95338">
        <ele>2432</ele>
        <time>2021-02-27T06:56:45Z</time>
      </trkpt>
      <trkpt lat="45.14883" lon="5.95338">
        <ele>2431.8</ele>
        <time>2021-02-27T06:56:46Z</time>
      </trkpt>
      <trkpt lat="45.14884" lon="5.95338">
        <ele>2432.2</ele>
        <time>2021-02-27T06:56:47Z</time>
      </trkpt>
      <trkpt lat="45.14885" lon="5.95338">
        <ele>2432.6</ele>
        <time>2021-02-27T06:56:48Z</time>
      </trkpt>
      <trkpt lat="45.14886" lon="5.95338">
        <ele>2432.6</ele>
        <time>2021-02-27T06:56:49Z</time>
      </trkpt>
      <trkpt lat="45.14886" lon="5.95338">
        <ele>2433.2</ele>
        <time>2021-02-27T06:56:50Z</time>
      </trkpt>
      <trkpt lat="45.14887" lon="5.95338">
        <ele>2433.8</ele>
        <time>2021-02-27T06:56:51Z</time>
      </trkpt>
      <trkpt lat="45.14888" lon="5.95339">
        <ele>2434.6</ele>
        <time>2021-02-27T06:56:52Z</time>
      </trkpt>
      <trkpt lat="45.14889" lon="5.95339">
        <ele>2435.2</ele>
        <time>2021-02-27T06:56:53Z</time>
      </trkpt>
      <trkpt lat="45.1489" lon="5.95339">
        <ele>2435.6</ele>
        <time>2021-02-27T06:56:54Z</time>
      </trkpt>
      <trkpt lat="45.14891" lon="5.95339">
        <ele>2436</ele>
        <time>2021-02-27T06:56:55Z</time>
      </trkpt>
      <trkpt lat="45.14892" lon="5.95339">
        <ele>2436.2</ele>
        <time>2021-02-27T06:56:56Z</time>
      </trkpt>
      <trkpt lat="45.14894" lon="5.95339">
        <ele>2436.6</ele>
        <time>2021-02-27T06:56:57Z</time>
      </trkpt>
      <trkpt lat="45.14894" lon="5.95339">
        <ele>2436.8</ele>
        <time>2021-02-27T06:56:58Z</time>
      </trkpt>
      <trkpt lat="45.14894" lon="5.95339">
        <ele>2437</ele>
        <time>2021-02-27T06:56:59Z</time>
      </trkpt>
      <trkpt lat="45.14894" lon="5.95339">
        <ele>2437.2</ele>
        <time>2021-02-27T06:57:00Z</time>
      </trkpt>
      <trkpt lat="45.14894" lon="5.95339">
        <ele>2437.6</ele>
        <time>2021-02-27T06:57:01Z</time>
      </trkpt>
      <trkpt lat="45.14894" lon="5.95339">
        <ele>2438.6</ele>
        <time>2021-02-27T06:57:02Z</time>
      </trkpt>
      <trkpt lat="45.14896" lon="5.9534">
        <ele>2438.2</ele>
        <time>2021-02-27T06:57:03Z</time>
      </trkpt>
      <trkpt lat="45.14896" lon="5.9534">
        <ele>2438.8</ele>
        <time>2021-02-27T06:57:04Z</time>
      </trkpt>
      <trkpt lat="45.14898" lon="5.95341">
        <ele>2438.8</ele>
        <time>2021-02-27T06:57:05Z</time>
      </trkpt>
      <trkpt lat="45.14898" lon="5.95341">
        <ele>2439.2</ele>
        <time>2021-02-27T06:57:06Z</time>
      </trkpt>
      <trkpt lat="45.14898" lon="5.95341">
        <ele>2439.4</ele>
        <time>2021-02-27T06:57:07Z</time>
      </trkpt>
      <trkpt lat="45.14898" lon="5.95341">
        <ele>2439.8</ele>
        <time>2021-02-27T06:57:08Z</time>
      </trkpt>
      <trkpt lat="45.14898" lon="5.95341">
        <ele>2439.8</ele>
        <time>2021-02-27T06:57:09Z</time>
      </trkpt>
      <trkpt lat="45.149" lon="5.95341">
        <ele>2440</ele>
        <time>2021-02-27T06:57:10Z</time>
      </trkpt>
      <trkpt lat="45.149" lon="5.95341">
        <ele>2440.4</ele>
        <time>2021-02-27T06:57:11Z</time>
      </trkpt>
      <trkpt lat="45.149" lon="5.95341">
        <ele>2440.8</ele>
        <time>2021-02-27T06:57:12Z</time>
      </trkpt>
      <trkpt lat="45.14902" lon="5.95341">
        <ele>2440.8</ele>
        <time>2021-02-27T06:57:13Z</time>
      </trkpt>
      <trkpt lat="45.14902" lon="5.95341">
        <ele>2441.4</ele>
        <time>2021-02-27T06:57:14Z</time>
      </trkpt>
      <trkpt lat="45.14902" lon="5.95341">
        <ele>2441.6</ele>
        <time>2021-02-27T06:57:15Z</time>
      </trkpt>
      <trkpt lat="45.14905" lon="5.95342">
        <ele>2441.6</ele>
        <time>2021-02-27T06:57:16Z</time>
      </trkpt>
      <trkpt lat="45.14905" lon="5.95342">
        <ele>2441.2</ele>
        <time>2021-02-27T06:57:17Z</time>
      </trkpt>
      <trkpt lat="45.14907" lon="5.95342">
        <ele>2442.6</ele>
        <time>2021-02-27T06:57:18Z</time>
      </trkpt>
      <trkpt lat="45.14907" lon="5.95342">
        <ele>2441.8</ele>
        <time>2021-02-27T06:57:19Z</time>
      </trkpt>
      <trkpt lat="45.14907" lon="5.95342">
        <ele>2441.4</ele>
        <time>2021-02-27T06:57:20Z</time>
      </trkpt>
      <trkpt lat="45.14908" lon="5.95342">
        <ele>2441.8</ele>
        <time>2021-02-27T06:57:21Z</time>
      </trkpt>
      <trkpt lat="45.14908" lon="5.95342">
        <ele>2442.2</ele>
        <time>2021-02-27T06:57:22Z</time>
      </trkpt>
      <trkpt lat="45.1491" lon="5.95342">
        <ele>2442.4</ele>
        <time>2021-02-27T06:57:23Z</time>
      </trkpt>
      <trkpt lat="45.1491" lon="5.95342">
        <ele>2442.4</ele>
        <time>2021-02-27T06:57:24Z</time>
      </trkpt>
      <trkpt lat="45.14912" lon="5.95343">
        <ele>2442.6</ele>
        <time>2021-02-27T06:57:25Z</time>
      </trkpt>
      <trkpt lat="45.14912" lon="5.95343">
        <ele>2442.8</ele>
        <time>2021-02-27T06:57:26Z</time>
      </trkpt>
      <trkpt lat="45.14914" lon="5.95344">
        <ele>2443</ele>
        <time>2021-02-27T06:57:27Z</time>
      </trkpt>
      <trkpt lat="45.14914" lon="5.95344">
        <ele>2443</ele>
        <time>2021-02-27T06:57:28Z</time>
      </trkpt>
      <trkpt lat="45.14916" lon="5.95345">
        <ele>2443.2</ele>
        <time>2021-02-27T06:57:29Z</time>
      </trkpt>
      <trkpt lat="45.14916" lon="5.95345">
        <ele>2444</ele>
        <time>2021-02-27T06:57:30Z</time>
      </trkpt>
      <trkpt lat="45.14916" lon="5.95345">
        <ele>2444.2</ele>
        <time>2021-02-27T06:57:31Z</time>
      </trkpt>
      <trkpt lat="45.14918" lon="5.95345">
        <ele>2444.4</ele>
        <time>2021-02-27T06:57:32Z</time>
      </trkpt>
      <trkpt lat="45.14918" lon="5.95345">
        <ele>2444.4</ele>
        <time>2021-02-27T06:57:33Z</time>
      </trkpt>
      <trkpt lat="45.1492" lon="5.95345">
        <ele>2445</ele>
        <time>2021-02-27T06:57:34Z</time>
      </trkpt>
      <trkpt lat="45.1492" lon="5.95345">
        <ele>2445.2</ele>
        <time>2021-02-27T06:57:35Z</time>
      </trkpt>
      <trkpt lat="45.1492" lon="5.95345">
        <ele>2445.6</ele>
        <time>2021-02-27T06:57:36Z</time>
      </trkpt>
      <trkpt lat="45.14922" lon="5.95345">
        <ele>2445.8</ele>
        <time>2021-02-27T06:57:37Z</time>
      </trkpt>
      <trkpt lat="45.14922" lon="5.95345">
        <ele>2446</ele>
        <time>2021-02-27T06:57:38Z</time>
      </trkpt>
      <trkpt lat="45.14924" lon="5.95345">
        <ele>2446</ele>
        <time>2021-02-27T06:57:39Z</time>
      </trkpt>
      <trkpt lat="45.14924" lon="5.95345">
        <ele>2445.8</ele>
        <time>2021-02-27T06:57:40Z</time>
      </trkpt>
      <trkpt lat="45.14926" lon="5.95345">
        <ele>2446.4</ele>
        <time>2021-02-27T06:57:41Z</time>
      </trkpt>
      <trkpt lat="45.14926" lon="5.95345">
        <ele>2447.2</ele>
        <time>2021-02-27T06:57:42Z</time>
      </trkpt>
      <trkpt lat="45.14926" lon="5.95345">
        <ele>2447.4</ele>
        <time>2021-02-27T06:57:43Z</time>
      </trkpt>
      <trkpt lat="45.14928" lon="5.95346">
        <ele>2447.6</ele>
        <time>2021-02-27T06:57:44Z</time>
      </trkpt>
      <trkpt lat="45.14928" lon="5.95346">
        <ele>2448.2</ele>
        <time>2021-02-27T06:57:45Z</time>
      </trkpt>
      <trkpt lat="45.14928" lon="5.95346">
        <ele>2448.2</ele>
        <time>2021-02-27T06:57:46Z</time>
      </trkpt>
      <trkpt lat="45.14928" lon="5.95346">
        <ele>2448.6</ele>
        <time>2021-02-27T06:57:47Z</time>
      </trkpt>
      <trkpt lat="45.1493" lon="5.95347">
        <ele>2448.6</ele>
        <time>2021-02-27T06:57:48Z</time>
      </trkpt>
      <trkpt lat="45.1493" lon="5.95347">
        <ele>2449.2</ele>
        <time>2021-02-27T06:57:49Z</time>
      </trkpt>
      <trkpt lat="45.1493" lon="5.95347">
        <ele>2449.6</ele>
        <time>2021-02-27T06:57:50Z</time>
      </trkpt>
      <trkpt lat="45.14932" lon="5.95348">
        <ele>2449.8</ele>
        <time>2021-02-27T06:57:51Z</time>
      </trkpt>
      <trkpt lat="45.14932" lon="5.95348">
        <ele>2450</ele>
        <time>2021-02-27T06:57:52Z</time>
      </trkpt>
      <trkpt lat="45.14932" lon="5.95348">
        <ele>2449.8</ele>
        <time>2021-02-27T06:57:53Z</time>
      </trkpt>
      <trkpt lat="45.14934" lon="5.95349">
        <ele>2450.2</ele>
        <time>2021-02-27T06:57:54Z</time>
      </trkpt>
      <trkpt lat="45.14934" lon="5.95349">
        <ele>2450.4</ele>
        <time>2021-02-27T06:57:55Z</time>
      </trkpt>
      <trkpt lat="45.14934" lon="5.95349">
        <ele>2450.4</ele>
        <time>2021-02-27T06:57:56Z</time>
      </trkpt>
      <trkpt lat="45.14936" lon="5.9535">
        <ele>2451.2</ele>
        <time>2021-02-27T06:57:57Z</time>
      </trkpt>
      <trkpt lat="45.14936" lon="5.9535">
        <ele>2451.4</ele>
        <time>2021-02-27T06:57:58Z</time>
      </trkpt>
      <trkpt lat="45.14936" lon="5.9535">
        <ele>2451.6</ele>
        <time>2021-02-27T06:57:59Z</time>
      </trkpt>
      <trkpt lat="45.14938" lon="5.95351">
        <ele>2452.2</ele>
        <time>2021-02-27T06:58:00Z</time>
      </trkpt>
      <trkpt lat="45.14938" lon="5.95351">
        <ele>2452.6</ele>
        <time>2021-02-27T06:58:01Z</time>
      </trkpt>
      <trkpt lat="45.14938" lon="5.95351">
        <ele>2452.8</ele>
        <time>2021-02-27T06:58:02Z</time>
      </trkpt>
      <trkpt lat="45.1494" lon="5.95353">
        <ele>2452.8</ele>
        <time>2021-02-27T06:58:03Z</time>
      </trkpt>
      <trkpt lat="45.1494" lon="5.95353">
        <ele>2453</ele>
        <time>2021-02-27T06:58:04Z</time>
      </trkpt>
      <trkpt lat="45.1494" lon="5.95353">
        <ele>2453.8</ele>
        <time>2021-02-27T06:58:05Z</time>
      </trkpt>
      <trkpt lat="45.1494" lon="5.95353">
        <ele>2453.6</ele>
        <time>2021-02-27T06:58:06Z</time>
      </trkpt>
      <trkpt lat="45.14941" lon="5.95355">
        <ele>2453.6</ele>
        <time>2021-02-27T06:58:07Z</time>
      </trkpt>
      <trkpt lat="45.14941" lon="5.95355">
        <ele>2453.8</ele>
        <time>2021-02-27T06:58:08Z</time>
      </trkpt>
      <trkpt lat="45.14941" lon="5.95355">
        <ele>2454</ele>
        <time>2021-02-27T06:58:09Z</time>
      </trkpt>
      <trkpt lat="45.14943" lon="5.95357">
        <ele>2454.2</ele>
        <time>2021-02-27T06:58:10Z</time>
      </trkpt>
      <trkpt lat="45.14943" lon="5.95357">
        <ele>2454.6</ele>
        <time>2021-02-27T06:58:11Z</time>
      </trkpt>
      <trkpt lat="45.14944" lon="5.95358">
        <ele>2454.8</ele>
        <time>2021-02-27T06:58:12Z</time>
      </trkpt>
      <trkpt lat="45.14944" lon="5.95358">
        <ele>2455</ele>
        <time>2021-02-27T06:58:13Z</time>
      </trkpt>
      <trkpt lat="45.14946" lon="5.95359">
        <ele>2455.2</ele>
        <time>2021-02-27T06:58:14Z</time>
      </trkpt>
      <trkpt lat="45.14946" lon="5.95359">
        <ele>2455.6</ele>
        <time>2021-02-27T06:58:15Z</time>
      </trkpt>
      <trkpt lat="45.14946" lon="5.95359">
        <ele>2456</ele>
        <time>2021-02-27T06:58:16Z</time>
      </trkpt>
      <trkpt lat="45.14948" lon="5.9536">
        <ele>2456.2</ele>
        <time>2021-02-27T06:58:17Z</time>
      </trkpt>
      <trkpt lat="45.14948" lon="5.9536">
        <ele>2456.6</ele>
        <time>2021-02-27T06:58:18Z</time>
      </trkpt>
      <trkpt lat="45.14948" lon="5.9536">
        <ele>2456.8</ele>
        <time>2021-02-27T06:58:19Z</time>
      </trkpt>
      <trkpt lat="45.1495" lon="5.95362">
        <ele>2457</ele>
        <time>2021-02-27T06:58:20Z</time>
      </trkpt>
      <trkpt lat="45.1495" lon="5.95362">
        <ele>2457.2</ele>
        <time>2021-02-27T06:58:21Z</time>
      </trkpt>
      <trkpt lat="45.14952" lon="5.95364">
        <ele>2457.4</ele>
        <time>2021-02-27T06:58:22Z</time>
      </trkpt>
      <trkpt lat="45.14952" lon="5.95364">
        <ele>2457.8</ele>
        <time>2021-02-27T06:58:23Z</time>
      </trkpt>
      <trkpt lat="45.14954" lon="5.95366">
        <ele>2458</ele>
        <time>2021-02-27T06:58:24Z</time>
      </trkpt>
      <trkpt lat="45.14954" lon="5.95366">
        <ele>2458</ele>
        <time>2021-02-27T06:58:25Z</time>
      </trkpt>
      <trkpt lat="45.14956" lon="5.95368">
        <ele>2458</ele>
        <time>2021-02-27T06:58:26Z</time>
      </trkpt>
      <trkpt lat="45.14956" lon="5.95368">
        <ele>2458.2</ele>
        <time>2021-02-27T06:58:27Z</time>
      </trkpt>
      <trkpt lat="45.14958" lon="5.95369">
        <ele>2458.2</ele>
        <time>2021-02-27T06:58:28Z</time>
      </trkpt>
      <trkpt lat="45.14958" lon="5.95369">
        <ele>2458.4</ele>
        <time>2021-02-27T06:58:29Z</time>
      </trkpt>
      <trkpt lat="45.14958" lon="5.95369">
        <ele>2458.6</ele>
        <time>2021-02-27T06:58:30Z</time>
      </trkpt>
      <trkpt lat="45.14958" lon="5.95369">
        <ele>2458.8</ele>
        <time>2021-02-27T06:58:31Z</time>
      </trkpt>
      <trkpt lat="45.14958" lon="5.95369">
        <ele>2458.8</ele>
        <time>2021-02-27T06:58:32Z</time>
      </trkpt>
      <trkpt lat="45.14961" lon="5.95372">
        <ele>2459</ele>
        <time>2021-02-27T06:58:33Z</time>
      </trkpt>
      <trkpt lat="45.14961" lon="5.95372">
        <ele>2459.2</ele>
        <time>2021-02-27T06:58:34Z</time>
      </trkpt>
      <trkpt lat="45.14962" lon="5.95373">
        <ele>2459.2</ele>
        <time>2021-02-27T06:58:35Z</time>
      </trkpt>
      <trkpt lat="45.14963" lon="5.95373">
        <ele>2459.6</ele>
        <time>2021-02-27T06:58:36Z</time>
      </trkpt>
      <trkpt lat="45.14964" lon="5.95374">
        <ele>2459.6</ele>
        <time>2021-02-27T06:58:37Z</time>
      </trkpt>
      <trkpt lat="45.14965" lon="5.95375">
        <ele>2460</ele>
        <time>2021-02-27T06:58:38Z</time>
      </trkpt>
      <trkpt lat="45.14966" lon="5.95375">
        <ele>2460.2</ele>
        <time>2021-02-27T06:58:39Z</time>
      </trkpt>
      <trkpt lat="45.14967" lon="5.95376">
        <ele>2460.6</ele>
        <time>2021-02-27T06:58:40Z</time>
      </trkpt>
      <trkpt lat="45.14968" lon="5.95376">
        <ele>2461</ele>
        <time>2021-02-27T06:58:41Z</time>
      </trkpt>
      <trkpt lat="45.14969" lon="5.95377">
        <ele>2460.8</ele>
        <time>2021-02-27T06:58:42Z</time>
      </trkpt>
      <trkpt lat="45.14971" lon="5.95377">
        <ele>2461</ele>
        <time>2021-02-27T06:58:43Z</time>
      </trkpt>
      <trkpt lat="45.14971" lon="5.95377">
        <ele>2461.2</ele>
        <time>2021-02-27T06:58:44Z</time>
      </trkpt>
      <trkpt lat="45.14973" lon="5.95378">
        <ele>2461.4</ele>
        <time>2021-02-27T06:58:45Z</time>
      </trkpt>
      <trkpt lat="45.14973" lon="5.95378">
        <ele>2461.4</ele>
        <time>2021-02-27T06:58:46Z</time>
      </trkpt>
      <trkpt lat="45.14975" lon="5.95378">
        <ele>2462</ele>
        <time>2021-02-27T06:58:47Z</time>
      </trkpt>
      <trkpt lat="45.14975" lon="5.95378">
        <ele>2462.4</ele>
        <time>2021-02-27T06:58:48Z</time>
      </trkpt>
      <trkpt lat="45.14978" lon="5.9538">
        <ele>2462.6</ele>
        <time>2021-02-27T06:58:49Z</time>
      </trkpt>
      <trkpt lat="45.14978" lon="5.9538">
        <ele>2462.8</ele>
        <time>2021-02-27T06:58:50Z</time>
      </trkpt>
      <trkpt lat="45.14978" lon="5.9538">
        <ele>2463.2</ele>
        <time>2021-02-27T06:58:51Z</time>
      </trkpt>
      <trkpt lat="45.1498" lon="5.95382">
        <ele>2463.2</ele>
        <time>2021-02-27T06:58:52Z</time>
      </trkpt>
      <trkpt lat="45.1498" lon="5.95382">
        <ele>2463.2</ele>
        <time>2021-02-27T06:58:53Z</time>
      </trkpt>
      <trkpt lat="45.14982" lon="5.95384">
        <ele>2462.8</ele>
        <time>2021-02-27T06:58:54Z</time>
      </trkpt>
      <trkpt lat="45.14982" lon="5.95384">
        <ele>2463.6</ele>
        <time>2021-02-27T06:58:55Z</time>
      </trkpt>
      <trkpt lat="45.14985" lon="5.95385">
        <ele>2463.6</ele>
        <time>2021-02-27T06:58:56Z</time>
      </trkpt>
      <trkpt lat="45.14985" lon="5.95385">
        <ele>2463.8</ele>
        <time>2021-02-27T06:58:57Z</time>
      </trkpt>
      <trkpt lat="45.14985" lon="5.95385">
        <ele>2463.8</ele>
        <time>2021-02-27T06:58:58Z</time>
      </trkpt>
      <trkpt lat="45.14986" lon="5.95387">
        <ele>2463.8</ele>
        <time>2021-02-27T06:58:59Z</time>
      </trkpt>
      <trkpt lat="45.14986" lon="5.95387">
        <ele>2464.2</ele>
        <time>2021-02-27T06:59:00Z</time>
      </trkpt>
      <trkpt lat="45.14987" lon="5.95388">
        <ele>2464.2</ele>
        <time>2021-02-27T06:59:01Z</time>
      </trkpt>
      <trkpt lat="45.14988" lon="5.95389">
        <ele>2464.4</ele>
        <time>2021-02-27T06:59:02Z</time>
      </trkpt>
      <trkpt lat="45.14989" lon="5.9539">
        <ele>2464.2</ele>
        <time>2021-02-27T06:59:03Z</time>
      </trkpt>
      <trkpt lat="45.1499" lon="5.95391">
        <ele>2464.4</ele>
        <time>2021-02-27T06:59:04Z</time>
      </trkpt>
      <trkpt lat="45.1499" lon="5.95393">
        <ele>2464.4</ele>
        <time>2021-02-27T06:59:05Z</time>
      </trkpt>
      <trkpt lat="45.14991" lon="5.95394">
        <ele>2464.4</ele>
        <time>2021-02-27T06:59:06Z</time>
      </trkpt>
      <trkpt lat="45.14992" lon="5.95395">
        <ele>2465.2</ele>
        <time>2021-02-27T06:59:07Z</time>
      </trkpt>
      <trkpt lat="45.14993" lon="5.95396">
        <ele>2465.2</ele>
        <time>2021-02-27T06:59:08Z</time>
      </trkpt>
      <trkpt lat="45.14994" lon="5.95399">
        <ele>2465.4</ele>
        <time>2021-02-27T06:59:09Z</time>
      </trkpt>
      <trkpt lat="45.14994" lon="5.95399">
        <ele>2465.6</ele>
        <time>2021-02-27T06:59:10Z</time>
      </trkpt>
      <trkpt lat="45.14994" lon="5.95401">
        <ele>2465.8</ele>
        <time>2021-02-27T06:59:11Z</time>
      </trkpt>
      <trkpt lat="45.14994" lon="5.95401">
        <ele>2465.8</ele>
        <time>2021-02-27T06:59:12Z</time>
      </trkpt>
      <trkpt lat="45.14995" lon="5.95404">
        <ele>2466.2</ele>
        <time>2021-02-27T06:59:13Z</time>
      </trkpt>
      <trkpt lat="45.14995" lon="5.95404">
        <ele>2466.4</ele>
        <time>2021-02-27T06:59:14Z</time>
      </trkpt>
      <trkpt lat="45.14997" lon="5.95406">
        <ele>2466.4</ele>
        <time>2021-02-27T06:59:15Z</time>
      </trkpt>
      <trkpt lat="45.14997" lon="5.95406">
        <ele>2466.8</ele>
        <time>2021-02-27T06:59:16Z</time>
      </trkpt>
      <trkpt lat="45.14999" lon="5.95408">
        <ele>2466.8</ele>
        <time>2021-02-27T06:59:17Z</time>
      </trkpt>
      <trkpt lat="45.14999" lon="5.95408">
        <ele>2467</ele>
        <time>2021-02-27T06:59:18Z</time>
      </trkpt>
      <trkpt lat="45.15001" lon="5.9541">
        <ele>2467.2</ele>
        <time>2021-02-27T06:59:19Z</time>
      </trkpt>
      <trkpt lat="45.15001" lon="5.9541">
        <ele>2467.2</ele>
        <time>2021-02-27T06:59:20Z</time>
      </trkpt>
      <trkpt lat="45.15002" lon="5.95412">
        <ele>2467.4</ele>
        <time>2021-02-27T06:59:21Z</time>
      </trkpt>
      <trkpt lat="45.15002" lon="5.95412">
        <ele>2467.4</ele>
        <time>2021-02-27T06:59:22Z</time>
      </trkpt>
      <trkpt lat="45.15004" lon="5.95413">
        <ele>2467.6</ele>
        <time>2021-02-27T06:59:23Z</time>
      </trkpt>
      <trkpt lat="45.15006" lon="5.95415">
        <ele>2468</ele>
        <time>2021-02-27T06:59:24Z</time>
      </trkpt>
      <trkpt lat="45.15006" lon="5.95415">
        <ele>2468.2</ele>
        <time>2021-02-27T06:59:25Z</time>
      </trkpt>
      <trkpt lat="45.15009" lon="5.95416">
        <ele>2468.6</ele>
        <time>2021-02-27T06:59:26Z</time>
      </trkpt>
      <trkpt lat="45.15009" lon="5.95416">
        <ele>2468.6</ele>
        <time>2021-02-27T06:59:27Z</time>
      </trkpt>
      <trkpt lat="45.15011" lon="5.95417">
        <ele>2468.6</ele>
        <time>2021-02-27T06:59:28Z</time>
      </trkpt>
      <trkpt lat="45.15011" lon="5.95417">
        <ele>2469</ele>
        <time>2021-02-27T06:59:29Z</time>
      </trkpt>
      <trkpt lat="45.15013" lon="5.95419">
        <ele>2468.8</ele>
        <time>2021-02-27T06:59:30Z</time>
      </trkpt>
      <trkpt lat="45.15013" lon="5.95419">
        <ele>2469.2</ele>
        <time>2021-02-27T06:59:31Z</time>
      </trkpt>
      <trkpt lat="45.15016" lon="5.95419">
        <ele>2469.2</ele>
        <time>2021-02-27T06:59:32Z</time>
      </trkpt>
      <trkpt lat="45.15016" lon="5.95419">
        <ele>2469.2</ele>
        <time>2021-02-27T06:59:33Z</time>
      </trkpt>
      <trkpt lat="45.15017" lon="5.95421">
        <ele>2469.8</ele>
        <time>2021-02-27T06:59:34Z</time>
      </trkpt>
      <trkpt lat="45.15017" lon="5.95421">
        <ele>2470</ele>
        <time>2021-02-27T06:59:35Z</time>
      </trkpt>
      <trkpt lat="45.15019" lon="5.95421">
        <ele>2470.2</ele>
        <time>2021-02-27T06:59:36Z</time>
      </trkpt>
      <trkpt lat="45.15019" lon="5.95421">
        <ele>2470.6</ele>
        <time>2021-02-27T06:59:37Z</time>
      </trkpt>
      <trkpt lat="45.15022" lon="5.95423">
        <ele>2470.6</ele>
        <time>2021-02-27T06:59:38Z</time>
      </trkpt>
      <trkpt lat="45.15022" lon="5.95423">
        <ele>2471.4</ele>
        <time>2021-02-27T06:59:39Z</time>
      </trkpt>
      <trkpt lat="45.15024" lon="5.95423">
        <ele>2471.4</ele>
        <time>2021-02-27T06:59:40Z</time>
      </trkpt>
      <trkpt lat="45.15024" lon="5.95423">
        <ele>2471.8</ele>
        <time>2021-02-27T06:59:41Z</time>
      </trkpt>
      <trkpt lat="45.15024" lon="5.95423">
        <ele>2472.4</ele>
        <time>2021-02-27T06:59:42Z</time>
      </trkpt>
      <trkpt lat="45.15026" lon="5.95424">
        <ele>2472.4</ele>
        <time>2021-02-27T06:59:43Z</time>
      </trkpt>
      <trkpt lat="45.15026" lon="5.95424">
        <ele>2472.6</ele>
        <time>2021-02-27T06:59:44Z</time>
      </trkpt>
      <trkpt lat="45.15028" lon="5.95424">
        <ele>2473</ele>
        <time>2021-02-27T06:59:45Z</time>
      </trkpt>
      <trkpt lat="45.15028" lon="5.95424">
        <ele>2473.2</ele>
        <time>2021-02-27T06:59:46Z</time>
      </trkpt>
      <trkpt lat="45.1503" lon="5.95425">
        <ele>2473.6</ele>
        <time>2021-02-27T06:59:47Z</time>
      </trkpt>
      <trkpt lat="45.1503" lon="5.95425">
        <ele>2474</ele>
        <time>2021-02-27T06:59:48Z</time>
      </trkpt>
      <trkpt lat="45.15031" lon="5.95425">
        <ele>2474.2</ele>
        <time>2021-02-27T06:59:49Z</time>
      </trkpt>
      <trkpt lat="45.15032" lon="5.95425">
        <ele>2474.4</ele>
        <time>2021-02-27T06:59:50Z</time>
      </trkpt>
      <trkpt lat="45.15033" lon="5.95425">
        <ele>2475</ele>
        <time>2021-02-27T06:59:51Z</time>
      </trkpt>
      <trkpt lat="45.15034" lon="5.95425">
        <ele>2475.4</ele>
        <time>2021-02-27T06:59:52Z</time>
      </trkpt>
      <trkpt lat="45.15035" lon="5.95425">
        <ele>2475.8</ele>
        <time>2021-02-27T06:59:53Z</time>
      </trkpt>
      <trkpt lat="45.15036" lon="5.95426">
        <ele>2476.4</ele>
        <time>2021-02-27T06:59:54Z</time>
      </trkpt>
      <trkpt lat="45.15038" lon="5.95426">
        <ele>2476.8</ele>
        <time>2021-02-27T06:59:55Z</time>
      </trkpt>
      <trkpt lat="45.15038" lon="5.95426">
        <ele>2477</ele>
        <time>2021-02-27T06:59:56Z</time>
      </trkpt>
      <trkpt lat="45.15038" lon="5.95426">
        <ele>2477.4</ele>
        <time>2021-02-27T06:59:57Z</time>
      </trkpt>
      <trkpt lat="45.15041" lon="5.95428">
        <ele>2477.8</ele>
        <time>2021-02-27T06:59:58Z</time>
      </trkpt>
      <trkpt lat="45.15041" lon="5.95428">
        <ele>2478.2</ele>
        <time>2021-02-27T06:59:59Z</time>
      </trkpt>
      <trkpt lat="45.15042" lon="5.95429">
        <ele>2478.4</ele>
        <time>2021-02-27T07:00:00Z</time>
      </trkpt>
      <trkpt lat="45.15042" lon="5.95429">
        <ele>2478.6</ele>
        <time>2021-02-27T07:00:01Z</time>
      </trkpt>
      <trkpt lat="45.15043" lon="5.9543">
        <ele>2478.8</ele>
        <time>2021-02-27T07:00:02Z</time>
      </trkpt>
      <trkpt lat="45.15044" lon="5.9543">
        <ele>2479.2</ele>
        <time>2021-02-27T07:00:03Z</time>
      </trkpt>
      <trkpt lat="45.15045" lon="5.95431">
        <ele>2479.4</ele>
        <time>2021-02-27T07:00:04Z</time>
      </trkpt>
      <trkpt lat="45.15046" lon="5.95432">
        <ele>2479.8</ele>
        <time>2021-02-27T07:00:05Z</time>
      </trkpt>
      <trkpt lat="45.15046" lon="5.95432">
        <ele>2480</ele>
        <time>2021-02-27T07:00:06Z</time>
      </trkpt>
      <trkpt lat="45.15047" lon="5.95433">
        <ele>2480.4</ele>
        <time>2021-02-27T07:00:07Z</time>
      </trkpt>
      <trkpt lat="45.15048" lon="5.95434">
        <ele>2480.8</ele>
        <time>2021-02-27T07:00:08Z</time>
      </trkpt>
      <trkpt lat="45.15049" lon="5.95434">
        <ele>2481.4</ele>
        <time>2021-02-27T07:00:09Z</time>
      </trkpt>
      <trkpt lat="45.1505" lon="5.95435">
        <ele>2481.2</ele>
        <time>2021-02-27T07:00:10Z</time>
      </trkpt>
      <trkpt lat="45.15051" lon="5.95436">
        <ele>2481.2</ele>
        <time>2021-02-27T07:00:11Z</time>
      </trkpt>
      <trkpt lat="45.15051" lon="5.95436">
        <ele>2481.4</ele>
        <time>2021-02-27T07:00:12Z</time>
      </trkpt>
      <trkpt lat="45.15052" lon="5.95438">
        <ele>2481.6</ele>
        <time>2021-02-27T07:00:13Z</time>
      </trkpt>
      <trkpt lat="45.15052" lon="5.95438">
        <ele>2481.6</ele>
        <time>2021-02-27T07:00:14Z</time>
      </trkpt>
      <trkpt lat="45.15052" lon="5.95438">
        <ele>2481.8</ele>
        <time>2021-02-27T07:00:15Z</time>
      </trkpt>
      <trkpt lat="45.15054" lon="5.9544">
        <ele>2481.8</ele>
        <time>2021-02-27T07:00:16Z</time>
      </trkpt>
      <trkpt lat="45.15054" lon="5.9544">
        <ele>2482</ele>
        <time>2021-02-27T07:00:17Z</time>
      </trkpt>
      <trkpt lat="45.15056" lon="5.95442">
        <ele>2482</ele>
        <time>2021-02-27T07:00:18Z</time>
      </trkpt>
      <trkpt lat="45.15056" lon="5.95442">
        <ele>2482.2</ele>
        <time>2021-02-27T07:00:19Z</time>
      </trkpt>
      <trkpt lat="45.15056" lon="5.95442">
        <ele>2482.4</ele>
        <time>2021-02-27T07:00:20Z</time>
      </trkpt>
      <trkpt lat="45.15058" lon="5.95443">
        <ele>2482.4</ele>
        <time>2021-02-27T07:00:21Z</time>
      </trkpt>
      <trkpt lat="45.15058" lon="5.95443">
        <ele>2482.8</ele>
        <time>2021-02-27T07:00:22Z</time>
      </trkpt>
      <trkpt lat="45.1506" lon="5.95444">
        <ele>2483</ele>
        <time>2021-02-27T07:00:23Z</time>
      </trkpt>
      <trkpt lat="45.1506" lon="5.95444">
        <ele>2483</ele>
        <time>2021-02-27T07:00:24Z</time>
      </trkpt>
      <trkpt lat="45.15062" lon="5.95445">
        <ele>2482.6</ele>
        <time>2021-02-27T07:00:25Z</time>
      </trkpt>
      <trkpt lat="45.15062" lon="5.95445">
        <ele>2482.8</ele>
        <time>2021-02-27T07:00:26Z</time>
      </trkpt>
      <trkpt lat="45.15065" lon="5.95446">
        <ele>2483.2</ele>
        <time>2021-02-27T07:00:27Z</time>
      </trkpt>
      <trkpt lat="45.15065" lon="5.95446">
        <ele>2483.4</ele>
        <time>2021-02-27T07:00:28Z</time>
      </trkpt>
      <trkpt lat="45.15068" lon="5.95446">
        <ele>2483.6</ele>
        <time>2021-02-27T07:00:29Z</time>
      </trkpt>
      <trkpt lat="45.15068" lon="5.95446">
        <ele>2484.2</ele>
        <time>2021-02-27T07:00:30Z</time>
      </trkpt>
      <trkpt lat="45.1507" lon="5.95447">
        <ele>2484.4</ele>
        <time>2021-02-27T07:00:31Z</time>
      </trkpt>
      <trkpt lat="45.1507" lon="5.95447">
        <ele>2484.8</ele>
        <time>2021-02-27T07:00:32Z</time>
      </trkpt>
      <trkpt lat="45.15072" lon="5.95448">
        <ele>2485</ele>
        <time>2021-02-27T07:00:33Z</time>
      </trkpt>
      <trkpt lat="45.15072" lon="5.95448">
        <ele>2485.2</ele>
        <time>2021-02-27T07:00:34Z</time>
      </trkpt>
      <trkpt lat="45.15072" lon="5.95448">
        <ele>2485.6</ele>
        <time>2021-02-27T07:00:35Z</time>
      </trkpt>
      <trkpt lat="45.15072" lon="5.95448">
        <ele>2486.2</ele>
        <time>2021-02-27T07:00:36Z</time>
      </trkpt>
      <trkpt lat="45.15072" lon="5.95448">
        <ele>2486.4</ele>
        <time>2021-02-27T07:00:37Z</time>
      </trkpt>
      <trkpt lat="45.15072" lon="5.95448">
        <ele>2486.6</ele>
        <time>2021-02-27T07:00:38Z</time>
      </trkpt>
      <trkpt lat="45.15072" lon="5.95448">
        <ele>2486.6</ele>
        <time>2021-02-27T07:00:39Z</time>
      </trkpt>
      <trkpt lat="45.15072" lon="5.95448">
        <ele>2486.6</ele>
        <time>2021-02-27T07:00:40Z</time>
      </trkpt>
      <trkpt lat="45.15072" lon="5.95448">
        <ele>2486.8</ele>
        <time>2021-02-27T07:00:41Z</time>
      </trkpt>
      <trkpt lat="45.15072" lon="5.95448">
        <ele>2486.8</ele>
        <time>2021-02-27T07:00:42Z</time>
      </trkpt>
      <trkpt lat="45.15072" lon="5.95448">
        <ele>2486.8</ele>
        <time>2021-02-27T07:00:43Z</time>
      </trkpt>
      <trkpt lat="45.15072" lon="5.95448">
        <ele>2487</ele>
        <time>2021-02-27T07:00:44Z</time>
      </trkpt>
      <trkpt lat="45.15072" lon="5.95448">
        <ele>2487</ele>
        <time>2021-02-27T07:00:45Z</time>
      </trkpt>
      <trkpt lat="45.15072" lon="5.95448">
        <ele>2487.2</ele>
        <time>2021-02-27T07:00:46Z</time>
      </trkpt>
      <trkpt lat="45.15072" lon="5.95448">
        <ele>2487.2</ele>
        <time>2021-02-27T07:00:47Z</time>
      </trkpt>
      <trkpt lat="45.15072" lon="5.95448">
        <ele>2487.2</ele>
        <time>2021-02-27T07:00:48Z</time>
      </trkpt>
      <trkpt lat="45.15072" lon="5.95448">
        <ele>2487</ele>
        <time>2021-02-27T07:00:49Z</time>
      </trkpt>
      <trkpt lat="45.15072" lon="5.95448">
        <ele>2487</ele>
        <time>2021-02-27T07:00:50Z</time>
      </trkpt>
      <trkpt lat="45.15072" lon="5.95448">
        <ele>2486.8</ele>
        <time>2021-02-27T07:00:51Z</time>
      </trkpt>
      <trkpt lat="45.15072" lon="5.95448">
        <ele>2486.8</ele>
        <time>2021-02-27T07:00:52Z</time>
      </trkpt>
      <trkpt lat="45.15072" lon="5.95448">
        <ele>2486.6</ele>
        <time>2021-02-27T07:00:53Z</time>
      </trkpt>
      <trkpt lat="45.15072" lon="5.95448">
        <ele>2486.6</ele>
        <time>2021-02-27T07:00:54Z</time>
      </trkpt>
      <trkpt lat="45.15072" lon="5.95448">
        <ele>2486.8</ele>
        <time>2021-02-27T07:00:55Z</time>
      </trkpt>
      <trkpt lat="45.15072" lon="5.95448">
        <ele>2486.6</ele>
        <time>2021-02-27T07:00:56Z</time>
      </trkpt>
      <trkpt lat="45.15072" lon="5.95448">
        <ele>2486.6</ele>
        <time>2021-02-27T07:00:57Z</time>
      </trkpt>
      <trkpt lat="45.15072" lon="5.95448">
        <ele>2486.4</ele>
        <time>2021-02-27T07:00:58Z</time>
      </trkpt>
      <trkpt lat="45.15072" lon="5.95448">
        <ele>2486.4</ele>
        <time>2021-02-27T07:00:59Z</time>
      </trkpt>
      <trkpt lat="45.15072" lon="5.95448">
        <ele>2486.4</ele>
        <time>2021-02-27T07:01:00Z</time>
      </trkpt>
      <trkpt lat="45.15072" lon="5.95448">
        <ele>2486.6</ele>
        <time>2021-02-27T07:01:01Z</time>
      </trkpt>
      <trkpt lat="45.15072" lon="5.95448">
        <ele>2486.4</ele>
        <time>2021-02-27T07:01:02Z</time>
      </trkpt>
      <trkpt lat="45.15072" lon="5.95448">
        <ele>2486.4</ele>
        <time>2021-02-27T07:01:03Z</time>
      </trkpt>
      <trkpt lat="45.15072" lon="5.95448">
        <ele>2486.2</ele>
        <time>2021-02-27T07:01:04Z</time>
      </trkpt>
      <trkpt lat="45.15072" lon="5.95448">
        <ele>2486</ele>
        <time>2021-02-27T07:01:05Z</time>
      </trkpt>
      <trkpt lat="45.15072" lon="5.95448">
        <ele>2486.2</ele>
        <time>2021-02-27T07:01:06Z</time>
      </trkpt>
      <trkpt lat="45.15072" lon="5.95448">
        <ele>2486</ele>
        <time>2021-02-27T07:01:07Z</time>
      </trkpt>
      <trkpt lat="45.15072" lon="5.95448">
        <ele>2486</ele>
        <time>2021-02-27T07:01:08Z</time>
      </trkpt>
      <trkpt lat="45.15072" lon="5.95448">
        <ele>2485.8</ele>
        <time>2021-02-27T07:01:09Z</time>
      </trkpt>
      <trkpt lat="45.15072" lon="5.95448">
        <ele>2485.8</ele>
        <time>2021-02-27T07:01:10Z</time>
      </trkpt>
      <trkpt lat="45.15072" lon="5.95448">
        <ele>2485.8</ele>
        <time>2021-02-27T07:01:11Z</time>
      </trkpt>
      <trkpt lat="45.15072" lon="5.95448">
        <ele>2486</ele>
        <time>2021-02-27T07:01:12Z</time>
      </trkpt>
      <trkpt lat="45.15072" lon="5.95448">
        <ele>2485.8</ele>
        <time>2021-02-27T07:01:13Z</time>
      </trkpt>
      <trkpt lat="45.15072" lon="5.95448">
        <ele>2486</ele>
        <time>2021-02-27T07:01:14Z</time>
      </trkpt>
      <trkpt lat="45.15072" lon="5.95448">
        <ele>2486.2</ele>
        <time>2021-02-27T07:01:15Z</time>
      </trkpt>
      <trkpt lat="45.15072" lon="5.95448">
        <ele>2486</ele>
        <time>2021-02-27T07:01:16Z</time>
      </trkpt>
      <trkpt lat="45.15072" lon="5.95448">
        <ele>2486.2</ele>
        <time>2021-02-27T07:01:17Z</time>
      </trkpt>
      <trkpt lat="45.15072" lon="5.95448">
        <ele>2486.4</ele>
        <time>2021-02-27T07:01:18Z</time>
      </trkpt>
      <trkpt lat="45.15072" lon="5.95448">
        <ele>2486.6</ele>
        <time>2021-02-27T07:01:19Z</time>
      </trkpt>
      <trkpt lat="45.15072" lon="5.95448">
        <ele>2486.2</ele>
        <time>2021-02-27T07:01:20Z</time>
      </trkpt>
      <trkpt lat="45.15071" lon="5.9545">
        <ele>2486.2</ele>
        <time>2021-02-27T07:01:21Z</time>
      </trkpt>
      <trkpt lat="45.15071" lon="5.9545">
        <ele>2486</ele>
        <time>2021-02-27T07:01:22Z</time>
      </trkpt>
      <trkpt lat="45.15071" lon="5.9545">
        <ele>2486</ele>
        <time>2021-02-27T07:01:23Z</time>
      </trkpt>
      <trkpt lat="45.15071" lon="5.9545">
        <ele>2486</ele>
        <time>2021-02-27T07:01:24Z</time>
      </trkpt>
      <trkpt lat="45.15071" lon="5.9545">
        <ele>2486</ele>
        <time>2021-02-27T07:01:25Z</time>
      </trkpt>
      <trkpt lat="45.15071" lon="5.9545">
        <ele>2485.8</ele>
        <time>2021-02-27T07:01:26Z</time>
      </trkpt>
      <trkpt lat="45.15071" lon="5.9545">
        <ele>2485.8</ele>
        <time>2021-02-27T07:01:27Z</time>
      </trkpt>
      <trkpt lat="45.15071" lon="5.9545">
        <ele>2485.8</ele>
        <time>2021-02-27T07:01:28Z</time>
      </trkpt>
      <trkpt lat="45.15071" lon="5.9545">
        <ele>2485.8</ele>
        <time>2021-02-27T07:01:29Z</time>
      </trkpt>
      <trkpt lat="45.15071" lon="5.9545">
        <ele>2486</ele>
        <time>2021-02-27T07:01:30Z</time>
      </trkpt>
      <trkpt lat="45.15071" lon="5.9545">
        <ele>2486</ele>
        <time>2021-02-27T07:01:31Z</time>
      </trkpt>
      <trkpt lat="45.15071" lon="5.9545">
        <ele>2486</ele>
        <time>2021-02-27T07:01:32Z</time>
      </trkpt>
      <trkpt lat="45.15071" lon="5.9545">
        <ele>2486</ele>
        <time>2021-02-27T07:01:33Z</time>
      </trkpt>
      <trkpt lat="45.15071" lon="5.9545">
        <ele>2486</ele>
        <time>2021-02-27T07:01:34Z</time>
      </trkpt>
      <trkpt lat="45.15071" lon="5.9545">
        <ele>2486</ele>
        <time>2021-02-27T07:01:35Z</time>
      </trkpt>
      <trkpt lat="45.15071" lon="5.9545">
        <ele>2486.2</ele>
        <time>2021-02-27T07:01:36Z</time>
      </trkpt>
      <trkpt lat="45.15071" lon="5.9545">
        <ele>2486.2</ele>
        <time>2021-02-27T07:01:37Z</time>
      </trkpt>
      <trkpt lat="45.15071" lon="5.9545">
        <ele>2486.2</ele>
        <time>2021-02-27T07:01:38Z</time>
      </trkpt>
      <trkpt lat="45.15071" lon="5.9545">
        <ele>2486.4</ele>
        <time>2021-02-27T07:01:39Z</time>
      </trkpt>
      <trkpt lat="45.15071" lon="5.9545">
        <ele>2486.6</ele>
        <time>2021-02-27T07:01:40Z</time>
      </trkpt>
      <trkpt lat="45.15071" lon="5.9545">
        <ele>2486.6</ele>
        <time>2021-02-27T07:01:41Z</time>
      </trkpt>
      <trkpt lat="45.15071" lon="5.9545">
        <ele>2486.6</ele>
        <time>2021-02-27T07:01:42Z</time>
      </trkpt>
      <trkpt lat="45.15071" lon="5.9545">
        <ele>2486.4</ele>
        <time>2021-02-27T07:01:43Z</time>
      </trkpt>
      <trkpt lat="45.15071" lon="5.9545">
        <ele>2486.2</ele>
        <time>2021-02-27T07:01:44Z</time>
      </trkpt>
      <trkpt lat="45.15071" lon="5.9545">
        <ele>2486</ele>
        <time>2021-02-27T07:01:45Z</time>
      </trkpt>
      <trkpt lat="45.15071" lon="5.9545">
        <ele>2486</ele>
        <time>2021-02-27T07:01:46Z</time>
      </trkpt>
      <trkpt lat="45.15071" lon="5.9545">
        <ele>2485.8</ele>
        <time>2021-02-27T07:01:47Z</time>
      </trkpt>
      <trkpt lat="45.15071" lon="5.9545">
        <ele>2485.4</ele>
        <time>2021-02-27T07:01:48Z</time>
      </trkpt>
      <trkpt lat="45.15071" lon="5.9545">
        <ele>2485.6</ele>
        <time>2021-02-27T07:01:49Z</time>
      </trkpt>
      <trkpt lat="45.15071" lon="5.9545">
        <ele>2485.6</ele>
        <time>2021-02-27T07:01:50Z</time>
      </trkpt>
      <trkpt lat="45.15071" lon="5.9545">
        <ele>2485.8</ele>
        <time>2021-02-27T07:01:51Z</time>
      </trkpt>
      <trkpt lat="45.15071" lon="5.9545">
        <ele>2485.8</ele>
        <time>2021-02-27T07:01:52Z</time>
      </trkpt>
      <trkpt lat="45.15071" lon="5.9545">
        <ele>2485.8</ele>
        <time>2021-02-27T07:01:53Z</time>
      </trkpt>
      <trkpt lat="45.15071" lon="5.9545">
        <ele>2485.8</ele>
        <time>2021-02-27T07:01:54Z</time>
      </trkpt>
      <trkpt lat="45.15071" lon="5.9545">
        <ele>2485.6</ele>
        <time>2021-02-27T07:01:55Z</time>
      </trkpt>
      <trkpt lat="45.15071" lon="5.9545">
        <ele>2485.6</ele>
        <time>2021-02-27T07:01:56Z</time>
      </trkpt>
      <trkpt lat="45.15071" lon="5.9545">
        <ele>2485.6</ele>
        <time>2021-02-27T07:01:57Z</time>
      </trkpt>
      <trkpt lat="45.15071" lon="5.9545">
        <ele>2485.6</ele>
        <time>2021-02-27T07:01:58Z</time>
      </trkpt>
      <trkpt lat="45.15071" lon="5.9545">
        <ele>2485.6</ele>
        <time>2021-02-27T07:01:59Z</time>
      </trkpt>
      <trkpt lat="45.15071" lon="5.9545">
        <ele>2485.2</ele>
        <time>2021-02-27T07:02:00Z</time>
      </trkpt>
      <trkpt lat="45.15071" lon="5.9545">
        <ele>2484.8</ele>
        <time>2021-02-27T07:02:01Z</time>
      </trkpt>
      <trkpt lat="45.15071" lon="5.9545">
        <ele>2484.6</ele>
        <time>2021-02-27T07:02:02Z</time>
      </trkpt>
      <trkpt lat="45.15071" lon="5.9545">
        <ele>2484.6</ele>
        <time>2021-02-27T07:02:03Z</time>
      </trkpt>
      <trkpt lat="45.15071" lon="5.9545">
        <ele>2484.6</ele>
        <time>2021-02-27T07:02:04Z</time>
      </trkpt>
      <trkpt lat="45.15071" lon="5.9545">
        <ele>2484.4</ele>
        <time>2021-02-27T07:02:05Z</time>
      </trkpt>
      <trkpt lat="45.15071" lon="5.9545">
        <ele>2484.2</ele>
        <time>2021-02-27T07:02:06Z</time>
      </trkpt>
      <trkpt lat="45.15071" lon="5.9545">
        <ele>2484</ele>
        <time>2021-02-27T07:02:07Z</time>
      </trkpt>
      <trkpt lat="45.15071" lon="5.9545">
        <ele>2483.8</ele>
        <time>2021-02-27T07:02:08Z</time>
      </trkpt>
      <trkpt lat="45.15071" lon="5.9545">
        <ele>2483.8</ele>
        <time>2021-02-27T07:02:09Z</time>
      </trkpt>
      <trkpt lat="45.15071" lon="5.9545">
        <ele>2483.8</ele>
        <time>2021-02-27T07:02:10Z</time>
      </trkpt>
      <trkpt lat="45.15071" lon="5.9545">
        <ele>2483.6</ele>
        <time>2021-02-27T07:02:11Z</time>
      </trkpt>
      <trkpt lat="45.15071" lon="5.9545">
        <ele>2483.6</ele>
        <time>2021-02-27T07:02:12Z</time>
      </trkpt>
      <trkpt lat="45.15071" lon="5.9545">
        <ele>2483.4</ele>
        <time>2021-02-27T07:02:13Z</time>
      </trkpt>
      <trkpt lat="45.15071" lon="5.9545">
        <ele>2483.2</ele>
        <time>2021-02-27T07:02:14Z</time>
      </trkpt>
      <trkpt lat="45.15071" lon="5.9545">
        <ele>2483.2</ele>
        <time>2021-02-27T07:02:15Z</time>
      </trkpt>
      <trkpt lat="45.15071" lon="5.9545">
        <ele>2483.2</ele>
        <time>2021-02-27T07:02:16Z</time>
      </trkpt>
      <trkpt lat="45.15071" lon="5.9545">
        <ele>2483</ele>
        <time>2021-02-27T07:02:17Z</time>
      </trkpt>
      <trkpt lat="45.15071" lon="5.9545">
        <ele>2483</ele>
        <time>2021-02-27T07:02:18Z</time>
      </trkpt>
      <trkpt lat="45.15071" lon="5.9545">
        <ele>2483</ele>
        <time>2021-02-27T07:02:19Z</time>
      </trkpt>
      <trkpt lat="45.15071" lon="5.9545">
        <ele>2482.8</ele>
        <time>2021-02-27T07:02:20Z</time>
      </trkpt>
      <trkpt lat="45.15071" lon="5.9545">
        <ele>2482.6</ele>
        <time>2021-02-27T07:02:21Z</time>
      </trkpt>
      <trkpt lat="45.15071" lon="5.9545">
        <ele>2482.6</ele>
        <time>2021-02-27T07:02:22Z</time>
      </trkpt>
      <trkpt lat="45.15071" lon="5.9545">
        <ele>2482.4</ele>
        <time>2021-02-27T07:02:23Z</time>
      </trkpt>
      <trkpt lat="45.15071" lon="5.9545">
        <ele>2482.2</ele>
        <time>2021-02-27T07:02:24Z</time>
      </trkpt>
      <trkpt lat="45.15071" lon="5.9545">
        <ele>2482.2</ele>
        <time>2021-02-27T07:02:25Z</time>
      </trkpt>
      <trkpt lat="45.15071" lon="5.9545">
        <ele>2482.2</ele>
        <time>2021-02-27T07:02:26Z</time>
      </trkpt>
      <trkpt lat="45.15071" lon="5.9545">
        <ele>2482.2</ele>
        <time>2021-02-27T07:02:27Z</time>
      </trkpt>
      <trkpt lat="45.15071" lon="5.9545">
        <ele>2482</ele>
        <time>2021-02-27T07:02:28Z</time>
      </trkpt>
      <trkpt lat="45.15071" lon="5.9545">
        <ele>2481.8</ele>
        <time>2021-02-27T07:02:29Z</time>
      </trkpt>
      <trkpt lat="45.15071" lon="5.9545">
        <ele>2481.8</ele>
        <time>2021-02-27T07:02:30Z</time>
      </trkpt>
      <trkpt lat="45.15071" lon="5.9545">
        <ele>2481.8</ele>
        <time>2021-02-27T07:02:31Z</time>
      </trkpt>
      <trkpt lat="45.15071" lon="5.9545">
        <ele>2481.8</ele>
        <time>2021-02-27T07:02:32Z</time>
      </trkpt>
      <trkpt lat="45.15071" lon="5.9545">
        <ele>2481.6</ele>
        <time>2021-02-27T07:02:33Z</time>
      </trkpt>
      <trkpt lat="45.15071" lon="5.9545">
        <ele>2481.6</ele>
        <time>2021-02-27T07:02:34Z</time>
      </trkpt>
      <trkpt lat="45.15071" lon="5.9545">
        <ele>2481.6</ele>
        <time>2021-02-27T07:02:35Z</time>
      </trkpt>
      <trkpt lat="45.15071" lon="5.9545">
        <ele>2481.4</ele>
        <time>2021-02-27T07:02:36Z</time>
      </trkpt>
      <trkpt lat="45.15071" lon="5.9545">
        <ele>2481.4</ele>
        <time>2021-02-27T07:02:37Z</time>
      </trkpt>
      <trkpt lat="45.15071" lon="5.9545">
        <ele>2481.4</ele>
        <time>2021-02-27T07:02:38Z</time>
      </trkpt>
      <trkpt lat="45.15071" lon="5.9545">
        <ele>2481.2</ele>
        <time>2021-02-27T07:02:39Z</time>
      </trkpt>
      <trkpt lat="45.15071" lon="5.9545">
        <ele>2481.2</ele>
        <time>2021-02-27T07:02:40Z</time>
      </trkpt>
      <trkpt lat="45.15071" lon="5.9545">
        <ele>2481</ele>
        <time>2021-02-27T07:02:41Z</time>
      </trkpt>
      <trkpt lat="45.15071" lon="5.9545">
        <ele>2481</ele>
        <time>2021-02-27T07:02:42Z</time>
      </trkpt>
      <trkpt lat="45.15071" lon="5.9545">
        <ele>2481</ele>
        <time>2021-02-27T07:02:43Z</time>
      </trkpt>
      <trkpt lat="45.15071" lon="5.9545">
        <ele>2481</ele>
        <time>2021-02-27T07:02:44Z</time>
      </trkpt>
      <trkpt lat="45.15071" lon="5.9545">
        <ele>2480.8</ele>
        <time>2021-02-27T07:02:45Z</time>
      </trkpt>
      <trkpt lat="45.15071" lon="5.9545">
        <ele>2480.8</ele>
        <time>2021-02-27T07:02:46Z</time>
      </trkpt>
      <trkpt lat="45.15071" lon="5.9545">
        <ele>2480.8</ele>
        <time>2021-02-27T07:02:47Z</time>
      </trkpt>
      <trkpt lat="45.15071" lon="5.9545">
        <ele>2480.8</ele>
        <time>2021-02-27T07:02:48Z</time>
      </trkpt>
      <trkpt lat="45.15071" lon="5.9545">
        <ele>2480.6</ele>
        <time>2021-02-27T07:02:49Z</time>
      </trkpt>
      <trkpt lat="45.15071" lon="5.9545">
        <ele>2480.8</ele>
        <time>2021-02-27T07:02:50Z</time>
      </trkpt>
      <trkpt lat="45.15071" lon="5.9545">
        <ele>2480.8</ele>
        <time>2021-02-27T07:02:51Z</time>
      </trkpt>
      <trkpt lat="45.15071" lon="5.9545">
        <ele>2480.8</ele>
        <time>2021-02-27T07:02:52Z</time>
      </trkpt>
      <trkpt lat="45.15071" lon="5.9545">
        <ele>2480.6</ele>
        <time>2021-02-27T07:02:53Z</time>
      </trkpt>
      <trkpt lat="45.15073" lon="5.9545">
        <ele>2481</ele>
        <time>2021-02-27T07:02:54Z</time>
      </trkpt>
      <trkpt lat="45.15073" lon="5.9545">
        <ele>2481.2</ele>
        <time>2021-02-27T07:02:55Z</time>
      </trkpt>
      <trkpt lat="45.15075" lon="5.95451">
        <ele>2481.4</ele>
        <time>2021-02-27T07:02:56Z</time>
      </trkpt>
      <trkpt lat="45.15075" lon="5.95451">
        <ele>2481.4</ele>
        <time>2021-02-27T07:02:57Z</time>
      </trkpt>
      <trkpt lat="45.15075" lon="5.95451">
        <ele>2481.6</ele>
        <time>2021-02-27T07:02:58Z</time>
      </trkpt>
      <trkpt lat="45.15077" lon="5.95453">
        <ele>2482</ele>
        <time>2021-02-27T07:02:59Z</time>
      </trkpt>
      <trkpt lat="45.15077" lon="5.95453">
        <ele>2482</ele>
        <time>2021-02-27T07:03:00Z</time>
      </trkpt>
      <trkpt lat="45.15079" lon="5.95456">
        <ele>2482</ele>
        <time>2021-02-27T07:03:01Z</time>
      </trkpt>
      <trkpt lat="45.15079" lon="5.95456">
        <ele>2482.2</ele>
        <time>2021-02-27T07:03:02Z</time>
      </trkpt>
      <trkpt lat="45.15081" lon="5.95458">
        <ele>2482.2</ele>
        <time>2021-02-27T07:03:03Z</time>
      </trkpt>
      <trkpt lat="45.15081" lon="5.95458">
        <ele>2481.8</ele>
        <time>2021-02-27T07:03:04Z</time>
      </trkpt>
      <trkpt lat="45.15083" lon="5.95459">
        <ele>2481.8</ele>
        <time>2021-02-27T07:03:05Z</time>
      </trkpt>
      <trkpt lat="45.15083" lon="5.95459">
        <ele>2481.8</ele>
        <time>2021-02-27T07:03:06Z</time>
      </trkpt>
      <trkpt lat="45.15085" lon="5.95462">
        <ele>2482.2</ele>
        <time>2021-02-27T07:03:07Z</time>
      </trkpt>
      <trkpt lat="45.15085" lon="5.95462">
        <ele>2482.6</ele>
        <time>2021-02-27T07:03:08Z</time>
      </trkpt>
      <trkpt lat="45.15085" lon="5.95462">
        <ele>2483.2</ele>
        <time>2021-02-27T07:03:09Z</time>
      </trkpt>
      <trkpt lat="45.15088" lon="5.95464">
        <ele>2484</ele>
        <time>2021-02-27T07:03:10Z</time>
      </trkpt>
      <trkpt lat="45.15088" lon="5.95464">
        <ele>2484</ele>
        <time>2021-02-27T07:03:11Z</time>
      </trkpt>
      <trkpt lat="45.1509" lon="5.95465">
        <ele>2484.4</ele>
        <time>2021-02-27T07:03:12Z</time>
      </trkpt>
      <trkpt lat="45.1509" lon="5.95465">
        <ele>2484.6</ele>
        <time>2021-02-27T07:03:13Z</time>
      </trkpt>
      <trkpt lat="45.1509" lon="5.95465">
        <ele>2484.6</ele>
        <time>2021-02-27T07:03:14Z</time>
      </trkpt>
      <trkpt lat="45.15092" lon="5.95469">
        <ele>2485</ele>
        <time>2021-02-27T07:03:15Z</time>
      </trkpt>
      <trkpt lat="45.15092" lon="5.95469">
        <ele>2485</ele>
        <time>2021-02-27T07:03:16Z</time>
      </trkpt>
      <trkpt lat="45.15093" lon="5.9547">
        <ele>2484.8</ele>
        <time>2021-02-27T07:03:17Z</time>
      </trkpt>
      <trkpt lat="45.15094" lon="5.95471">
        <ele>2485.2</ele>
        <time>2021-02-27T07:03:18Z</time>
      </trkpt>
      <trkpt lat="45.15095" lon="5.95472">
        <ele>2485</ele>
        <time>2021-02-27T07:03:19Z</time>
      </trkpt>
      <trkpt lat="45.15096" lon="5.95472">
        <ele>2485.6</ele>
        <time>2021-02-27T07:03:20Z</time>
      </trkpt>
      <trkpt lat="45.15096" lon="5.95473">
        <ele>2485.8</ele>
        <time>2021-02-27T07:03:21Z</time>
      </trkpt>
      <trkpt lat="45.15098" lon="5.95474">
        <ele>2486</ele>
        <time>2021-02-27T07:03:22Z</time>
      </trkpt>
      <trkpt lat="45.15098" lon="5.95474">
        <ele>2486.4</ele>
        <time>2021-02-27T07:03:23Z</time>
      </trkpt>
      <trkpt lat="45.15101" lon="5.95476">
        <ele>2486.8</ele>
        <time>2021-02-27T07:03:24Z</time>
      </trkpt>
      <trkpt lat="45.15101" lon="5.95476">
        <ele>2487.2</ele>
        <time>2021-02-27T07:03:25Z</time>
      </trkpt>
      <trkpt lat="45.15102" lon="5.95477">
        <ele>2487.4</ele>
        <time>2021-02-27T07:03:26Z</time>
      </trkpt>
      <trkpt lat="45.15102" lon="5.95477">
        <ele>2487.6</ele>
        <time>2021-02-27T07:03:27Z</time>
      </trkpt>
      <trkpt lat="45.15102" lon="5.95477">
        <ele>2488</ele>
        <time>2021-02-27T07:03:28Z</time>
      </trkpt>
      <trkpt lat="45.15105" lon="5.95478">
        <ele>2488</ele>
        <time>2021-02-27T07:03:29Z</time>
      </trkpt>
      <trkpt lat="45.15105" lon="5.95478">
        <ele>2488.4</ele>
        <time>2021-02-27T07:03:30Z</time>
      </trkpt>
      <trkpt lat="45.15105" lon="5.95478">
        <ele>2488.4</ele>
        <time>2021-02-27T07:03:31Z</time>
      </trkpt>
      <trkpt lat="45.15107" lon="5.95477">
        <ele>2488.6</ele>
        <time>2021-02-27T07:03:32Z</time>
      </trkpt>
      <trkpt lat="45.15107" lon="5.95477">
        <ele>2488.8</ele>
        <time>2021-02-27T07:03:33Z</time>
      </trkpt>
      <trkpt lat="45.15107" lon="5.95477">
        <ele>2489</ele>
        <time>2021-02-27T07:03:34Z</time>
      </trkpt>
      <trkpt lat="45.15107" lon="5.95477">
        <ele>2489.6</ele>
        <time>2021-02-27T07:03:35Z</time>
      </trkpt>
      <trkpt lat="45.1511" lon="5.95478">
        <ele>2489.6</ele>
        <time>2021-02-27T07:03:36Z</time>
      </trkpt>
      <trkpt lat="45.1511" lon="5.95478">
        <ele>2490.2</ele>
        <time>2021-02-27T07:03:37Z</time>
      </trkpt>
      <trkpt lat="45.1511" lon="5.95478">
        <ele>2490.8</ele>
        <time>2021-02-27T07:03:38Z</time>
      </trkpt>
      <trkpt lat="45.15112" lon="5.95481">
        <ele>2490.8</ele>
        <time>2021-02-27T07:03:39Z</time>
      </trkpt>
      <trkpt lat="45.15112" lon="5.95481">
        <ele>2491.2</ele>
        <time>2021-02-27T07:03:40Z</time>
      </trkpt>
      <trkpt lat="45.15114" lon="5.95482">
        <ele>2491.4</ele>
        <time>2021-02-27T07:03:41Z</time>
      </trkpt>
      <trkpt lat="45.15114" lon="5.95482">
        <ele>2491.8</ele>
        <time>2021-02-27T07:03:42Z</time>
      </trkpt>
      <trkpt lat="45.15115" lon="5.95483">
        <ele>2491.8</ele>
        <time>2021-02-27T07:03:43Z</time>
      </trkpt>
      <trkpt lat="45.15115" lon="5.95483">
        <ele>2492.4</ele>
        <time>2021-02-27T07:03:44Z</time>
      </trkpt>
      <trkpt lat="45.15118" lon="5.95483">
        <ele>2492.8</ele>
        <time>2021-02-27T07:03:45Z</time>
      </trkpt>
      <trkpt lat="45.15118" lon="5.95483">
        <ele>2493</ele>
        <time>2021-02-27T07:03:46Z</time>
      </trkpt>
      <trkpt lat="45.1512" lon="5.95483">
        <ele>2493.6</ele>
        <time>2021-02-27T07:03:47Z</time>
      </trkpt>
      <trkpt lat="45.1512" lon="5.95483">
        <ele>2493.8</ele>
        <time>2021-02-27T07:03:48Z</time>
      </trkpt>
      <trkpt lat="45.1512" lon="5.95483">
        <ele>2493.6</ele>
        <time>2021-02-27T07:03:49Z</time>
      </trkpt>
      <trkpt lat="45.15122" lon="5.95483">
        <ele>2494</ele>
        <time>2021-02-27T07:03:50Z</time>
      </trkpt>
      <trkpt lat="45.15122" lon="5.95483">
        <ele>2494.2</ele>
        <time>2021-02-27T07:03:51Z</time>
      </trkpt>
      <trkpt lat="45.15123" lon="5.95481">
        <ele>2494.4</ele>
        <time>2021-02-27T07:03:52Z</time>
      </trkpt>
      <trkpt lat="45.15123" lon="5.95481">
        <ele>2494.8</ele>
        <time>2021-02-27T07:03:53Z</time>
      </trkpt>
      <trkpt lat="45.15123" lon="5.95481">
        <ele>2495</ele>
        <time>2021-02-27T07:03:54Z</time>
      </trkpt>
      <trkpt lat="45.15124" lon="5.95478">
        <ele>2495.2</ele>
        <time>2021-02-27T07:03:55Z</time>
      </trkpt>
      <trkpt lat="45.15124" lon="5.95478">
        <ele>2495.6</ele>
        <time>2021-02-27T07:03:56Z</time>
      </trkpt>
      <trkpt lat="45.15124" lon="5.95478">
        <ele>2495.8</ele>
        <time>2021-02-27T07:03:57Z</time>
      </trkpt>
      <trkpt lat="45.15124" lon="5.95475">
        <ele>2495.8</ele>
        <time>2021-02-27T07:03:58Z</time>
      </trkpt>
      <trkpt lat="45.15124" lon="5.95475">
        <ele>2496.2</ele>
        <time>2021-02-27T07:03:59Z</time>
      </trkpt>
      <trkpt lat="45.15124" lon="5.95473">
        <ele>2496.6</ele>
        <time>2021-02-27T07:04:00Z</time>
      </trkpt>
      <trkpt lat="45.15124" lon="5.95473">
        <ele>2496.8</ele>
        <time>2021-02-27T07:04:01Z</time>
      </trkpt>
      <trkpt lat="45.15125" lon="5.9547">
        <ele>2496.8</ele>
        <time>2021-02-27T07:04:02Z</time>
      </trkpt>
      <trkpt lat="45.15125" lon="5.9547">
        <ele>2496.8</ele>
        <time>2021-02-27T07:04:03Z</time>
      </trkpt>
      <trkpt lat="45.15126" lon="5.95467">
        <ele>2497.2</ele>
        <time>2021-02-27T07:04:04Z</time>
      </trkpt>
      <trkpt lat="45.15126" lon="5.95467">
        <ele>2497.8</ele>
        <time>2021-02-27T07:04:05Z</time>
      </trkpt>
      <trkpt lat="45.15126" lon="5.95467">
        <ele>2497.8</ele>
        <time>2021-02-27T07:04:06Z</time>
      </trkpt>
      <trkpt lat="45.15126" lon="5.95464">
        <ele>2498</ele>
        <time>2021-02-27T07:04:07Z</time>
      </trkpt>
      <trkpt lat="45.15126" lon="5.95464">
        <ele>2498.4</ele>
        <time>2021-02-27T07:04:08Z</time>
      </trkpt>
      <trkpt lat="45.15126" lon="5.95464">
        <ele>2498.8</ele>
        <time>2021-02-27T07:04:09Z</time>
      </trkpt>
      <trkpt lat="45.15127" lon="5.95462">
        <ele>2498.8</ele>
        <time>2021-02-27T07:04:10Z</time>
      </trkpt>
      <trkpt lat="45.15127" lon="5.95462">
        <ele>2499.4</ele>
        <time>2021-02-27T07:04:11Z</time>
      </trkpt>
      <trkpt lat="45.15127" lon="5.95462">
        <ele>2499.8</ele>
        <time>2021-02-27T07:04:12Z</time>
      </trkpt>
      <trkpt lat="45.15127" lon="5.95462">
        <ele>2500</ele>
        <time>2021-02-27T07:04:13Z</time>
      </trkpt>
      <trkpt lat="45.15127" lon="5.95462">
        <ele>2500</ele>
        <time>2021-02-27T07:04:14Z</time>
      </trkpt>
      <trkpt lat="45.15127" lon="5.95462">
        <ele>2500.2</ele>
        <time>2021-02-27T07:04:15Z</time>
      </trkpt>
      <trkpt lat="45.15129" lon="5.95461">
        <ele>2500.6</ele>
        <time>2021-02-27T07:04:16Z</time>
      </trkpt>
      <trkpt lat="45.15129" lon="5.95461">
        <ele>2501</ele>
        <time>2021-02-27T07:04:17Z</time>
      </trkpt>
      <trkpt lat="45.15129" lon="5.95461">
        <ele>2501.4</ele>
        <time>2021-02-27T07:04:18Z</time>
      </trkpt>
      <trkpt lat="45.1513" lon="5.95458">
        <ele>2501.6</ele>
        <time>2021-02-27T07:04:19Z</time>
      </trkpt>
      <trkpt lat="45.1513" lon="5.95458">
        <ele>2502</ele>
        <time>2021-02-27T07:04:20Z</time>
      </trkpt>
      <trkpt lat="45.1513" lon="5.95458">
        <ele>2502.2</ele>
        <time>2021-02-27T07:04:21Z</time>
      </trkpt>
      <trkpt lat="45.1513" lon="5.95458">
        <ele>2502.4</ele>
        <time>2021-02-27T07:04:22Z</time>
      </trkpt>
      <trkpt lat="45.15132" lon="5.95457">
        <ele>2502.8</ele>
        <time>2021-02-27T07:04:23Z</time>
      </trkpt>
      <trkpt lat="45.15132" lon="5.95457">
        <ele>2503</ele>
        <time>2021-02-27T07:04:24Z</time>
      </trkpt>
      <trkpt lat="45.15132" lon="5.95457">
        <ele>2503.2</ele>
        <time>2021-02-27T07:04:25Z</time>
      </trkpt>
      <trkpt lat="45.15132" lon="5.95457">
        <ele>2503.4</ele>
        <time>2021-02-27T07:04:26Z</time>
      </trkpt>
      <trkpt lat="45.15132" lon="5.95457">
        <ele>2503.6</ele>
        <time>2021-02-27T07:04:27Z</time>
      </trkpt>
      <trkpt lat="45.15132" lon="5.95457">
        <ele>2503.8</ele>
        <time>2021-02-27T07:04:28Z</time>
      </trkpt>
      <trkpt lat="45.15132" lon="5.95457">
        <ele>2504.2</ele>
        <time>2021-02-27T07:04:29Z</time>
      </trkpt>
      <trkpt lat="45.15132" lon="5.95457">
        <ele>2504.6</ele>
        <time>2021-02-27T07:04:30Z</time>
      </trkpt>
      <trkpt lat="45.15132" lon="5.95457">
        <ele>2504.6</ele>
        <time>2021-02-27T07:04:31Z</time>
      </trkpt>
      <trkpt lat="45.15132" lon="5.95457">
        <ele>2504.2</ele>
        <time>2021-02-27T07:04:32Z</time>
      </trkpt>
      <trkpt lat="45.15133" lon="5.95454">
        <ele>2504.4</ele>
        <time>2021-02-27T07:04:33Z</time>
      </trkpt>
      <trkpt lat="45.15133" lon="5.95454">
        <ele>2504.6</ele>
        <time>2021-02-27T07:04:34Z</time>
      </trkpt>
      <trkpt lat="45.15133" lon="5.95454">
        <ele>2505</ele>
        <time>2021-02-27T07:04:35Z</time>
      </trkpt>
      <trkpt lat="45.15133" lon="5.95454">
        <ele>2505.2</ele>
        <time>2021-02-27T07:04:36Z</time>
      </trkpt>
      <trkpt lat="45.15132" lon="5.95451">
        <ele>2505.4</ele>
        <time>2021-02-27T07:04:37Z</time>
      </trkpt>
      <trkpt lat="45.15132" lon="5.95451">
        <ele>2505.4</ele>
        <time>2021-02-27T07:04:38Z</time>
      </trkpt>
      <trkpt lat="45.15132" lon="5.95451">
        <ele>2505.6</ele>
        <time>2021-02-27T07:04:39Z</time>
      </trkpt>
      <trkpt lat="45.15131" lon="5.95447">
        <ele>2505.8</ele>
        <time>2021-02-27T07:04:40Z</time>
      </trkpt>
      <trkpt lat="45.15131" lon="5.95447">
        <ele>2506.4</ele>
        <time>2021-02-27T07:04:41Z</time>
      </trkpt>
      <trkpt lat="45.15132" lon="5.95445">
        <ele>2506.8</ele>
        <time>2021-02-27T07:04:42Z</time>
      </trkpt>
      <trkpt lat="45.15132" lon="5.95445">
        <ele>2507.2</ele>
        <time>2021-02-27T07:04:43Z</time>
      </trkpt>
      <trkpt lat="45.15132" lon="5.95445">
        <ele>2507.8</ele>
        <time>2021-02-27T07:04:44Z</time>
      </trkpt>
      <trkpt lat="45.15134" lon="5.95446">
        <ele>2507.6</ele>
        <time>2021-02-27T07:04:45Z</time>
      </trkpt>
      <trkpt lat="45.15134" lon="5.95446">
        <ele>2507.6</ele>
        <time>2021-02-27T07:04:46Z</time>
      </trkpt>
      <trkpt lat="45.15134" lon="5.95446">
        <ele>2508.4</ele>
        <time>2021-02-27T07:04:47Z</time>
      </trkpt>
      <trkpt lat="45.15136" lon="5.95446">
        <ele>2508.8</ele>
        <time>2021-02-27T07:04:48Z</time>
      </trkpt>
      <trkpt lat="45.15136" lon="5.95446">
        <ele>2508.8</ele>
        <time>2021-02-27T07:04:49Z</time>
      </trkpt>
      <trkpt lat="45.15136" lon="5.95446">
        <ele>2509.2</ele>
        <time>2021-02-27T07:04:50Z</time>
      </trkpt>
      <trkpt lat="45.15138" lon="5.95446">
        <ele>2509.4</ele>
        <time>2021-02-27T07:04:51Z</time>
      </trkpt>
      <trkpt lat="45.15138" lon="5.95446">
        <ele>2509.2</ele>
        <time>2021-02-27T07:04:52Z</time>
      </trkpt>
      <trkpt lat="45.15138" lon="5.95446">
        <ele>2509.4</ele>
        <time>2021-02-27T07:04:53Z</time>
      </trkpt>
      <trkpt lat="45.15138" lon="5.95446">
        <ele>2509.6</ele>
        <time>2021-02-27T07:04:54Z</time>
      </trkpt>
      <trkpt lat="45.15138" lon="5.95446">
        <ele>2510</ele>
        <time>2021-02-27T07:04:55Z</time>
      </trkpt>
      <trkpt lat="45.15139" lon="5.95444">
        <ele>2510.4</ele>
        <time>2021-02-27T07:04:56Z</time>
      </trkpt>
      <trkpt lat="45.15139" lon="5.95444">
        <ele>2510.8</ele>
        <time>2021-02-27T07:04:57Z</time>
      </trkpt>
      <trkpt lat="45.15139" lon="5.95444">
        <ele>2510.8</ele>
        <time>2021-02-27T07:04:58Z</time>
      </trkpt>
      <trkpt lat="45.15138" lon="5.95441">
        <ele>2511.2</ele>
        <time>2021-02-27T07:04:59Z</time>
      </trkpt>
      <trkpt lat="45.15138" lon="5.95441">
        <ele>2511.2</ele>
        <time>2021-02-27T07:05:00Z</time>
      </trkpt>
      <trkpt lat="45.15138" lon="5.95441">
        <ele>2511.4</ele>
        <time>2021-02-27T07:05:01Z</time>
      </trkpt>
      <trkpt lat="45.15138" lon="5.95441">
        <ele>2511.6</ele>
        <time>2021-02-27T07:05:02Z</time>
      </trkpt>
      <trkpt lat="45.15139" lon="5.95437">
        <ele>2511.8</ele>
        <time>2021-02-27T07:05:03Z</time>
      </trkpt>
      <trkpt lat="45.15139" lon="5.95437">
        <ele>2512.2</ele>
        <time>2021-02-27T07:05:04Z</time>
      </trkpt>
      <trkpt lat="45.15139" lon="5.95437">
        <ele>2512.4</ele>
        <time>2021-02-27T07:05:05Z</time>
      </trkpt>
      <trkpt lat="45.15141" lon="5.95435">
        <ele>2512.8</ele>
        <time>2021-02-27T07:05:06Z</time>
      </trkpt>
      <trkpt lat="45.15141" lon="5.95435">
        <ele>2513.2</ele>
        <time>2021-02-27T07:05:07Z</time>
      </trkpt>
      <trkpt lat="45.15141" lon="5.95435">
        <ele>2513.2</ele>
        <time>2021-02-27T07:05:08Z</time>
      </trkpt>
      <trkpt lat="45.15142" lon="5.95432">
        <ele>2513.4</ele>
        <time>2021-02-27T07:05:09Z</time>
      </trkpt>
      <trkpt lat="45.15142" lon="5.95432">
        <ele>2513.6</ele>
        <time>2021-02-27T07:05:10Z</time>
      </trkpt>
      <trkpt lat="45.15142" lon="5.9543">
        <ele>2513.6</ele>
        <time>2021-02-27T07:05:11Z</time>
      </trkpt>
      <trkpt lat="45.15142" lon="5.9543">
        <ele>2513.8</ele>
        <time>2021-02-27T07:05:12Z</time>
      </trkpt>
      <trkpt lat="45.15142" lon="5.9543">
        <ele>2514</ele>
        <time>2021-02-27T07:05:13Z</time>
      </trkpt>
      <trkpt lat="45.15142" lon="5.95426">
        <ele>2514</ele>
        <time>2021-02-27T07:05:14Z</time>
      </trkpt>
      <trkpt lat="45.15142" lon="5.95426">
        <ele>2514.4</ele>
        <time>2021-02-27T07:05:15Z</time>
      </trkpt>
      <trkpt lat="45.15142" lon="5.95426">
        <ele>2514.8</ele>
        <time>2021-02-27T07:05:16Z</time>
      </trkpt>
      <trkpt lat="45.15142" lon="5.95426">
        <ele>2515</ele>
        <time>2021-02-27T07:05:17Z</time>
      </trkpt>
      <trkpt lat="45.15143" lon="5.95423">
        <ele>2515</ele>
        <time>2021-02-27T07:05:18Z</time>
      </trkpt>
      <trkpt lat="45.15143" lon="5.95423">
        <ele>2515.4</ele>
        <time>2021-02-27T07:05:19Z</time>
      </trkpt>
      <trkpt lat="45.15143" lon="5.95421">
        <ele>2515.6</ele>
        <time>2021-02-27T07:05:20Z</time>
      </trkpt>
      <trkpt lat="45.15143" lon="5.95421">
        <ele>2515.8</ele>
        <time>2021-02-27T07:05:21Z</time>
      </trkpt>
      <trkpt lat="45.15145" lon="5.95418">
        <ele>2515.8</ele>
        <time>2021-02-27T07:05:22Z</time>
      </trkpt>
      <trkpt lat="45.15145" lon="5.95418">
        <ele>2516</ele>
        <time>2021-02-27T07:05:23Z</time>
      </trkpt>
      <trkpt lat="45.15145" lon="5.95418">
        <ele>2516.2</ele>
        <time>2021-02-27T07:05:24Z</time>
      </trkpt>
      <trkpt lat="45.15146" lon="5.95415">
        <ele>2516.4</ele>
        <time>2021-02-27T07:05:25Z</time>
      </trkpt>
      <trkpt lat="45.15146" lon="5.95415">
        <ele>2516.6</ele>
        <time>2021-02-27T07:05:26Z</time>
      </trkpt>
      <trkpt lat="45.15147" lon="5.95413">
        <ele>2516.6</ele>
        <time>2021-02-27T07:05:27Z</time>
      </trkpt>
      <trkpt lat="45.15147" lon="5.95413">
        <ele>2516.8</ele>
        <time>2021-02-27T07:05:28Z</time>
      </trkpt>
      <trkpt lat="45.15148" lon="5.95411">
        <ele>2517</ele>
        <time>2021-02-27T07:05:29Z</time>
      </trkpt>
      <trkpt lat="45.15148" lon="5.95411">
        <ele>2517.2</ele>
        <time>2021-02-27T07:05:30Z</time>
      </trkpt>
      <trkpt lat="45.15149" lon="5.95408">
        <ele>2517.4</ele>
        <time>2021-02-27T07:05:31Z</time>
      </trkpt>
      <trkpt lat="45.15149" lon="5.95408">
        <ele>2517.6</ele>
        <time>2021-02-27T07:05:32Z</time>
      </trkpt>
      <trkpt lat="45.15149" lon="5.95408">
        <ele>2518.2</ele>
        <time>2021-02-27T07:05:33Z</time>
      </trkpt>
      <trkpt lat="45.1515" lon="5.95405">
        <ele>2518.4</ele>
        <time>2021-02-27T07:05:34Z</time>
      </trkpt>
      <trkpt lat="45.1515" lon="5.95405">
        <ele>2518.6</ele>
        <time>2021-02-27T07:05:35Z</time>
      </trkpt>
      <trkpt lat="45.1515" lon="5.95405">
        <ele>2519.2</ele>
        <time>2021-02-27T07:05:36Z</time>
      </trkpt>
      <trkpt lat="45.15152" lon="5.95402">
        <ele>2519.6</ele>
        <time>2021-02-27T07:05:37Z</time>
      </trkpt>
      <trkpt lat="45.15152" lon="5.95402">
        <ele>2519.6</ele>
        <time>2021-02-27T07:05:38Z</time>
      </trkpt>
      <trkpt lat="45.15152" lon="5.95402">
        <ele>2520.2</ele>
        <time>2021-02-27T07:05:39Z</time>
      </trkpt>
      <trkpt lat="45.15154" lon="5.954">
        <ele>2520.4</ele>
        <time>2021-02-27T07:05:40Z</time>
      </trkpt>
      <trkpt lat="45.15154" lon="5.954">
        <ele>2521</ele>
        <time>2021-02-27T07:05:41Z</time>
      </trkpt>
      <trkpt lat="45.15154" lon="5.954">
        <ele>2521.4</ele>
        <time>2021-02-27T07:05:42Z</time>
      </trkpt>
      <trkpt lat="45.15156" lon="5.95398">
        <ele>2521.8</ele>
        <time>2021-02-27T07:05:43Z</time>
      </trkpt>
      <trkpt lat="45.15156" lon="5.95398">
        <ele>2522.2</ele>
        <time>2021-02-27T07:05:44Z</time>
      </trkpt>
      <trkpt lat="45.15156" lon="5.95398">
        <ele>2523</ele>
        <time>2021-02-27T07:05:45Z</time>
      </trkpt>
      <trkpt lat="45.15158" lon="5.95396">
        <ele>2522.8</ele>
        <time>2021-02-27T07:05:46Z</time>
      </trkpt>
      <trkpt lat="45.15158" lon="5.95396">
        <ele>2523.4</ele>
        <time>2021-02-27T07:05:47Z</time>
      </trkpt>
      <trkpt lat="45.15158" lon="5.95396">
        <ele>2523.8</ele>
        <time>2021-02-27T07:05:48Z</time>
      </trkpt>
      <trkpt lat="45.1516" lon="5.95394">
        <ele>2523.8</ele>
        <time>2021-02-27T07:05:49Z</time>
      </trkpt>
      <trkpt lat="45.1516" lon="5.95394">
        <ele>2524.2</ele>
        <time>2021-02-27T07:05:50Z</time>
      </trkpt>
      <trkpt lat="45.1516" lon="5.95394">
        <ele>2524.2</ele>
        <time>2021-02-27T07:05:51Z</time>
      </trkpt>
      <trkpt lat="45.15162" lon="5.95392">
        <ele>2524.6</ele>
        <time>2021-02-27T07:05:52Z</time>
      </trkpt>
      <trkpt lat="45.15162" lon="5.95392">
        <ele>2525</ele>
        <time>2021-02-27T07:05:53Z</time>
      </trkpt>
      <trkpt lat="45.15162" lon="5.95392">
        <ele>2525.2</ele>
        <time>2021-02-27T07:05:54Z</time>
      </trkpt>
      <trkpt lat="45.15164" lon="5.95389">
        <ele>2525.6</ele>
        <time>2021-02-27T07:05:55Z</time>
      </trkpt>
      <trkpt lat="45.15164" lon="5.95389">
        <ele>2525.6</ele>
        <time>2021-02-27T07:05:56Z</time>
      </trkpt>
      <trkpt lat="45.15164" lon="5.95389">
        <ele>2525.8</ele>
        <time>2021-02-27T07:05:57Z</time>
      </trkpt>
      <trkpt lat="45.15165" lon="5.95387">
        <ele>2526.2</ele>
        <time>2021-02-27T07:05:58Z</time>
      </trkpt>
      <trkpt lat="45.15165" lon="5.95387">
        <ele>2526.2</ele>
        <time>2021-02-27T07:05:59Z</time>
      </trkpt>
      <trkpt lat="45.15166" lon="5.95385">
        <ele>2526.4</ele>
        <time>2021-02-27T07:06:00Z</time>
      </trkpt>
      <trkpt lat="45.15166" lon="5.95385">
        <ele>2526.6</ele>
        <time>2021-02-27T07:06:01Z</time>
      </trkpt>
      <trkpt lat="45.15166" lon="5.95385">
        <ele>2526.8</ele>
        <time>2021-02-27T07:06:02Z</time>
      </trkpt>
      <trkpt lat="45.15169" lon="5.95382">
        <ele>2527</ele>
        <time>2021-02-27T07:06:03Z</time>
      </trkpt>
      <trkpt lat="45.15169" lon="5.95382">
        <ele>2527.4</ele>
        <time>2021-02-27T07:06:04Z</time>
      </trkpt>
      <trkpt lat="45.15169" lon="5.95382">
        <ele>2527.6</ele>
        <time>2021-02-27T07:06:05Z</time>
      </trkpt>
      <trkpt lat="45.1517" lon="5.95379">
        <ele>2527.6</ele>
        <time>2021-02-27T07:06:06Z</time>
      </trkpt>
      <trkpt lat="45.1517" lon="5.95379">
        <ele>2528</ele>
        <time>2021-02-27T07:06:07Z</time>
      </trkpt>
      <trkpt lat="45.1517" lon="5.95379">
        <ele>2528.2</ele>
        <time>2021-02-27T07:06:08Z</time>
      </trkpt>
      <trkpt lat="45.15172" lon="5.95378">
        <ele>2528.2</ele>
        <time>2021-02-27T07:06:09Z</time>
      </trkpt>
      <trkpt lat="45.15172" lon="5.95378">
        <ele>2528.6</ele>
        <time>2021-02-27T07:06:10Z</time>
      </trkpt>
      <trkpt lat="45.15174" lon="5.95378">
        <ele>2529.2</ele>
        <time>2021-02-27T07:06:11Z</time>
      </trkpt>
      <trkpt lat="45.15174" lon="5.95378">
        <ele>2529.8</ele>
        <time>2021-02-27T07:06:12Z</time>
      </trkpt>
      <trkpt lat="45.15176" lon="5.9538">
        <ele>2529.8</ele>
        <time>2021-02-27T07:06:13Z</time>
      </trkpt>
      <trkpt lat="45.15176" lon="5.9538">
        <ele>2530.2</ele>
        <time>2021-02-27T07:06:14Z</time>
      </trkpt>
      <trkpt lat="45.15176" lon="5.9538">
        <ele>2530.8</ele>
        <time>2021-02-27T07:06:15Z</time>
      </trkpt>
      <trkpt lat="45.15176" lon="5.9538">
        <ele>2531</ele>
        <time>2021-02-27T07:06:16Z</time>
      </trkpt>
      <trkpt lat="45.15178" lon="5.95381">
        <ele>2531.2</ele>
        <time>2021-02-27T07:06:17Z</time>
      </trkpt>
      <trkpt lat="45.15178" lon="5.95381">
        <ele>2531.6</ele>
        <time>2021-02-27T07:06:18Z</time>
      </trkpt>
      <trkpt lat="45.15178" lon="5.95381">
        <ele>2531.8</ele>
        <time>2021-02-27T07:06:19Z</time>
      </trkpt>
      <trkpt lat="45.1518" lon="5.95382">
        <ele>2532.8</ele>
        <time>2021-02-27T07:06:20Z</time>
      </trkpt>
      <trkpt lat="45.1518" lon="5.95382">
        <ele>2532.4</ele>
        <time>2021-02-27T07:06:21Z</time>
      </trkpt>
      <trkpt lat="45.1518" lon="5.95382">
        <ele>2532.8</ele>
        <time>2021-02-27T07:06:22Z</time>
      </trkpt>
      <trkpt lat="45.1518" lon="5.95382">
        <ele>2533</ele>
        <time>2021-02-27T07:06:23Z</time>
      </trkpt>
      <trkpt lat="45.15182" lon="5.95382">
        <ele>2533</ele>
        <time>2021-02-27T07:06:24Z</time>
      </trkpt>
      <trkpt lat="45.15182" lon="5.95382">
        <ele>2533.2</ele>
        <time>2021-02-27T07:06:25Z</time>
      </trkpt>
      <trkpt lat="45.15182" lon="5.95382">
        <ele>2533.2</ele>
        <time>2021-02-27T07:06:26Z</time>
      </trkpt>
      <trkpt lat="45.15184" lon="5.95384">
        <ele>2533.6</ele>
        <time>2021-02-27T07:06:27Z</time>
      </trkpt>
      <trkpt lat="45.15184" lon="5.95384">
        <ele>2533.6</ele>
        <time>2021-02-27T07:06:28Z</time>
      </trkpt>
      <trkpt lat="45.15184" lon="5.95384">
        <ele>2533.8</ele>
        <time>2021-02-27T07:06:29Z</time>
      </trkpt>
      <trkpt lat="45.15186" lon="5.95386">
        <ele>2534.8</ele>
        <time>2021-02-27T07:06:30Z</time>
      </trkpt>
      <trkpt lat="45.15186" lon="5.95386">
        <ele>2535</ele>
        <time>2021-02-27T07:06:31Z</time>
      </trkpt>
      <trkpt lat="45.15186" lon="5.95386">
        <ele>2535.2</ele>
        <time>2021-02-27T07:06:32Z</time>
      </trkpt>
      <trkpt lat="45.15186" lon="5.95386">
        <ele>2535.6</ele>
        <time>2021-02-27T07:06:33Z</time>
      </trkpt>
      <trkpt lat="45.15188" lon="5.95389">
        <ele>2535.4</ele>
        <time>2021-02-27T07:06:34Z</time>
      </trkpt>
      <trkpt lat="45.15188" lon="5.95389">
        <ele>2535.8</ele>
        <time>2021-02-27T07:06:35Z</time>
      </trkpt>
      <trkpt lat="45.15188" lon="5.95389">
        <ele>2536.4</ele>
        <time>2021-02-27T07:06:36Z</time>
      </trkpt>
      <trkpt lat="45.15188" lon="5.95393">
        <ele>2537.2</ele>
        <time>2021-02-27T07:06:37Z</time>
      </trkpt>
      <trkpt lat="45.15188" lon="5.95393">
        <ele>2537.2</ele>
        <time>2021-02-27T07:06:38Z</time>
      </trkpt>
      <trkpt lat="45.15188" lon="5.95393">
        <ele>2537.2</ele>
        <time>2021-02-27T07:06:39Z</time>
      </trkpt>
      <trkpt lat="45.15187" lon="5.95396">
        <ele>2538</ele>
        <time>2021-02-27T07:06:40Z</time>
      </trkpt>
      <trkpt lat="45.15187" lon="5.95396">
        <ele>2538.4</ele>
        <time>2021-02-27T07:06:41Z</time>
      </trkpt>
      <trkpt lat="45.15187" lon="5.95399">
        <ele>2538.4</ele>
        <time>2021-02-27T07:06:42Z</time>
      </trkpt>
      <trkpt lat="45.15187" lon="5.95399">
        <ele>2539</ele>
        <time>2021-02-27T07:06:43Z</time>
      </trkpt>
      <trkpt lat="45.15187" lon="5.95399">
        <ele>2539.4</ele>
        <time>2021-02-27T07:06:44Z</time>
      </trkpt>
      <trkpt lat="45.15188" lon="5.95402">
        <ele>2539.4</ele>
        <time>2021-02-27T07:06:45Z</time>
      </trkpt>
      <trkpt lat="45.15188" lon="5.95402">
        <ele>2540.2</ele>
        <time>2021-02-27T07:06:46Z</time>
      </trkpt>
      <trkpt lat="45.1519" lon="5.95403">
        <ele>2540.6</ele>
        <time>2021-02-27T07:06:47Z</time>
      </trkpt>
      <trkpt lat="45.1519" lon="5.95403">
        <ele>2540.8</ele>
        <time>2021-02-27T07:06:48Z</time>
      </trkpt>
      <trkpt lat="45.1519" lon="5.95403">
        <ele>2541.4</ele>
        <time>2021-02-27T07:06:49Z</time>
      </trkpt>
      <trkpt lat="45.15192" lon="5.95406">
        <ele>2541.6</ele>
        <time>2021-02-27T07:06:50Z</time>
      </trkpt>
      <trkpt lat="45.15192" lon="5.95406">
        <ele>2542</ele>
        <time>2021-02-27T07:06:51Z</time>
      </trkpt>
      <trkpt lat="45.15192" lon="5.95406">
        <ele>2542.2</ele>
        <time>2021-02-27T07:06:52Z</time>
      </trkpt>
      <trkpt lat="45.15194" lon="5.95407">
        <ele>2542.8</ele>
        <time>2021-02-27T07:06:53Z</time>
      </trkpt>
      <trkpt lat="45.15194" lon="5.95407">
        <ele>2543</ele>
        <time>2021-02-27T07:06:54Z</time>
      </trkpt>
      <trkpt lat="45.15194" lon="5.95407">
        <ele>2543.2</ele>
        <time>2021-02-27T07:06:55Z</time>
      </trkpt>
      <trkpt lat="45.15196" lon="5.95409">
        <ele>2543.4</ele>
        <time>2021-02-27T07:06:56Z</time>
      </trkpt>
      <trkpt lat="45.15196" lon="5.95409">
        <ele>2544</ele>
        <time>2021-02-27T07:06:57Z</time>
      </trkpt>
      <trkpt lat="45.15198" lon="5.95411">
        <ele>2544.6</ele>
        <time>2021-02-27T07:06:58Z</time>
      </trkpt>
      <trkpt lat="45.15198" lon="5.95411">
        <ele>2544.8</ele>
        <time>2021-02-27T07:06:59Z</time>
      </trkpt>
      <trkpt lat="45.15198" lon="5.95413">
        <ele>2545.6</ele>
        <time>2021-02-27T07:07:00Z</time>
      </trkpt>
      <trkpt lat="45.15198" lon="5.95413">
        <ele>2546.2</ele>
        <time>2021-02-27T07:07:01Z</time>
      </trkpt>
      <trkpt lat="45.15199" lon="5.95416">
        <ele>2546.4</ele>
        <time>2021-02-27T07:07:02Z</time>
      </trkpt>
      <trkpt lat="45.15199" lon="5.95416">
        <ele>2547</ele>
        <time>2021-02-27T07:07:03Z</time>
      </trkpt>
      <trkpt lat="45.152" lon="5.95418">
        <ele>2547.2</ele>
        <time>2021-02-27T07:07:04Z</time>
      </trkpt>
      <trkpt lat="45.152" lon="5.95418">
        <ele>2547.2</ele>
        <time>2021-02-27T07:07:05Z</time>
      </trkpt>
      <trkpt lat="45.15201" lon="5.95421">
        <ele>2547.6</ele>
        <time>2021-02-27T07:07:06Z</time>
      </trkpt>
      <trkpt lat="45.15201" lon="5.95421">
        <ele>2548</ele>
        <time>2021-02-27T07:07:07Z</time>
      </trkpt>
      <trkpt lat="45.15202" lon="5.95424">
        <ele>2548.4</ele>
        <time>2021-02-27T07:07:08Z</time>
      </trkpt>
      <trkpt lat="45.15202" lon="5.95424">
        <ele>2549</ele>
        <time>2021-02-27T07:07:09Z</time>
      </trkpt>
      <trkpt lat="45.15202" lon="5.95427">
        <ele>2549</ele>
        <time>2021-02-27T07:07:10Z</time>
      </trkpt>
      <trkpt lat="45.15202" lon="5.95427">
        <ele>2549.2</ele>
        <time>2021-02-27T07:07:11Z</time>
      </trkpt>
      <trkpt lat="45.15203" lon="5.9543">
        <ele>2549.6</ele>
        <time>2021-02-27T07:07:12Z</time>
      </trkpt>
      <trkpt lat="45.15203" lon="5.9543">
        <ele>2550</ele>
        <time>2021-02-27T07:07:13Z</time>
      </trkpt>
      <trkpt lat="45.15203" lon="5.95433">
        <ele>2551</ele>
        <time>2021-02-27T07:07:14Z</time>
      </trkpt>
      <trkpt lat="45.15203" lon="5.95433">
        <ele>2551.2</ele>
        <time>2021-02-27T07:07:15Z</time>
      </trkpt>
      <trkpt lat="45.15203" lon="5.95437">
        <ele>2551.2</ele>
        <time>2021-02-27T07:07:16Z</time>
      </trkpt>
      <trkpt lat="45.15203" lon="5.95437">
        <ele>2551.8</ele>
        <time>2021-02-27T07:07:17Z</time>
      </trkpt>
      <trkpt lat="45.15203" lon="5.9544">
        <ele>2551.6</ele>
        <time>2021-02-27T07:07:18Z</time>
      </trkpt>
      <trkpt lat="45.15203" lon="5.9544">
        <ele>2551.6</ele>
        <time>2021-02-27T07:07:19Z</time>
      </trkpt>
      <trkpt lat="45.15203" lon="5.95443">
        <ele>2552.6</ele>
        <time>2021-02-27T07:07:20Z</time>
      </trkpt>
      <trkpt lat="45.15203" lon="5.95443">
        <ele>2552.8</ele>
        <time>2021-02-27T07:07:21Z</time>
      </trkpt>
      <trkpt lat="45.15203" lon="5.95445">
        <ele>2552.6</ele>
        <time>2021-02-27T07:07:22Z</time>
      </trkpt>
      <trkpt lat="45.15203" lon="5.95445">
        <ele>2553</ele>
        <time>2021-02-27T07:07:23Z</time>
      </trkpt>
      <trkpt lat="45.15203" lon="5.95449">
        <ele>2552.6</ele>
        <time>2021-02-27T07:07:24Z</time>
      </trkpt>
      <trkpt lat="45.15203" lon="5.95449">
        <ele>2552.8</ele>
        <time>2021-02-27T07:07:25Z</time>
      </trkpt>
      <trkpt lat="45.15203" lon="5.95451">
        <ele>2553</ele>
        <time>2021-02-27T07:07:26Z</time>
      </trkpt>
      <trkpt lat="45.15203" lon="5.95451">
        <ele>2553.2</ele>
        <time>2021-02-27T07:07:27Z</time>
      </trkpt>
      <trkpt lat="45.15204" lon="5.95454">
        <ele>2553.6</ele>
        <time>2021-02-27T07:07:28Z</time>
      </trkpt>
      <trkpt lat="45.15204" lon="5.95454">
        <ele>2553.8</ele>
        <time>2021-02-27T07:07:29Z</time>
      </trkpt>
      <trkpt lat="45.15205" lon="5.95456">
        <ele>2554</ele>
        <time>2021-02-27T07:07:30Z</time>
      </trkpt>
      <trkpt lat="45.15205" lon="5.95456">
        <ele>2555</ele>
        <time>2021-02-27T07:07:31Z</time>
      </trkpt>
      <trkpt lat="45.15206" lon="5.95459">
        <ele>2555.4</ele>
        <time>2021-02-27T07:07:32Z</time>
      </trkpt>
      <trkpt lat="45.15206" lon="5.95459">
        <ele>2555.2</ele>
        <time>2021-02-27T07:07:33Z</time>
      </trkpt>
      <trkpt lat="45.15207" lon="5.95461">
        <ele>2555.8</ele>
        <time>2021-02-27T07:07:34Z</time>
      </trkpt>
      <trkpt lat="45.15207" lon="5.95461">
        <ele>2555.6</ele>
        <time>2021-02-27T07:07:35Z</time>
      </trkpt>
      <trkpt lat="45.15209" lon="5.95463">
        <ele>2556</ele>
        <time>2021-02-27T07:07:36Z</time>
      </trkpt>
      <trkpt lat="45.15209" lon="5.95463">
        <ele>2556.6</ele>
        <time>2021-02-27T07:07:37Z</time>
      </trkpt>
      <trkpt lat="45.1521" lon="5.95465">
        <ele>2556.4</ele>
        <time>2021-02-27T07:07:38Z</time>
      </trkpt>
      <trkpt lat="45.1521" lon="5.95465">
        <ele>2557.4</ele>
        <time>2021-02-27T07:07:39Z</time>
      </trkpt>
      <trkpt lat="45.15212" lon="5.95466">
        <ele>2557.6</ele>
        <time>2021-02-27T07:07:40Z</time>
      </trkpt>
      <trkpt lat="45.15212" lon="5.95466">
        <ele>2557.6</ele>
        <time>2021-02-27T07:07:41Z</time>
      </trkpt>
      <trkpt lat="45.15212" lon="5.95466">
        <ele>2558.4</ele>
        <time>2021-02-27T07:07:42Z</time>
      </trkpt>
      <trkpt lat="45.15215" lon="5.95468">
        <ele>2558.8</ele>
        <time>2021-02-27T07:07:43Z</time>
      </trkpt>
      <trkpt lat="45.15215" lon="5.95468">
        <ele>2558.8</ele>
        <time>2021-02-27T07:07:44Z</time>
      </trkpt>
      <trkpt lat="45.15215" lon="5.95468">
        <ele>2559.6</ele>
        <time>2021-02-27T07:07:45Z</time>
      </trkpt>
      <trkpt lat="45.15217" lon="5.95469">
        <ele>2559.4</ele>
        <time>2021-02-27T07:07:46Z</time>
      </trkpt>
      <trkpt lat="45.15217" lon="5.95469">
        <ele>2559.8</ele>
        <time>2021-02-27T07:07:47Z</time>
      </trkpt>
      <trkpt lat="45.15217" lon="5.95469">
        <ele>2560.4</ele>
        <time>2021-02-27T07:07:48Z</time>
      </trkpt>
      <trkpt lat="45.1522" lon="5.9547">
        <ele>2560.2</ele>
        <time>2021-02-27T07:07:49Z</time>
      </trkpt>
      <trkpt lat="45.1522" lon="5.9547">
        <ele>2561</ele>
        <time>2021-02-27T07:07:50Z</time>
      </trkpt>
      <trkpt lat="45.15221" lon="5.95471">
        <ele>2560.8</ele>
        <time>2021-02-27T07:07:51Z</time>
      </trkpt>
      <trkpt lat="45.15221" lon="5.95471">
        <ele>2560.8</ele>
        <time>2021-02-27T07:07:52Z</time>
      </trkpt>
      <trkpt lat="45.15223" lon="5.95473">
        <ele>2561.6</ele>
        <time>2021-02-27T07:07:53Z</time>
      </trkpt>
      <trkpt lat="45.15223" lon="5.95473">
        <ele>2561.8</ele>
        <time>2021-02-27T07:07:54Z</time>
      </trkpt>
      <trkpt lat="45.15225" lon="5.95474">
        <ele>2561.6</ele>
        <time>2021-02-27T07:07:55Z</time>
      </trkpt>
      <trkpt lat="45.15225" lon="5.95474">
        <ele>2562</ele>
        <time>2021-02-27T07:07:56Z</time>
      </trkpt>
      <trkpt lat="45.15227" lon="5.95476">
        <ele>2562</ele>
        <time>2021-02-27T07:07:57Z</time>
      </trkpt>
      <trkpt lat="45.15227" lon="5.95476">
        <ele>2562</ele>
        <time>2021-02-27T07:07:58Z</time>
      </trkpt>
      <trkpt lat="45.15229" lon="5.95478">
        <ele>2562.6</ele>
        <time>2021-02-27T07:07:59Z</time>
      </trkpt>
      <trkpt lat="45.15229" lon="5.95478">
        <ele>2562.8</ele>
        <time>2021-02-27T07:08:00Z</time>
      </trkpt>
      <trkpt lat="45.1523" lon="5.9548">
        <ele>2563</ele>
        <time>2021-02-27T07:08:01Z</time>
      </trkpt>
      <trkpt lat="45.1523" lon="5.9548">
        <ele>2563.2</ele>
        <time>2021-02-27T07:08:02Z</time>
      </trkpt>
      <trkpt lat="45.15231" lon="5.95482">
        <ele>2563.4</ele>
        <time>2021-02-27T07:08:03Z</time>
      </trkpt>
      <trkpt lat="45.15231" lon="5.95482">
        <ele>2564.2</ele>
        <time>2021-02-27T07:08:04Z</time>
      </trkpt>
      <trkpt lat="45.15233" lon="5.95484">
        <ele>2564.2</ele>
        <time>2021-02-27T07:08:05Z</time>
      </trkpt>
      <trkpt lat="45.15233" lon="5.95484">
        <ele>2563.8</ele>
        <time>2021-02-27T07:08:06Z</time>
      </trkpt>
      <trkpt lat="45.15235" lon="5.95486">
        <ele>2564.2</ele>
        <time>2021-02-27T07:08:07Z</time>
      </trkpt>
      <trkpt lat="45.15235" lon="5.95486">
        <ele>2565.2</ele>
        <time>2021-02-27T07:08:08Z</time>
      </trkpt>
      <trkpt lat="45.15237" lon="5.95488">
        <ele>2565.2</ele>
        <time>2021-02-27T07:08:09Z</time>
      </trkpt>
      <trkpt lat="45.15237" lon="5.95488">
        <ele>2566</ele>
        <time>2021-02-27T07:08:10Z</time>
      </trkpt>
      <trkpt lat="45.15239" lon="5.95491">
        <ele>2566.2</ele>
        <time>2021-02-27T07:08:11Z</time>
      </trkpt>
      <trkpt lat="45.15239" lon="5.95491">
        <ele>2567</ele>
        <time>2021-02-27T07:08:12Z</time>
      </trkpt>
      <trkpt lat="45.1524" lon="5.95492">
        <ele>2567.4</ele>
        <time>2021-02-27T07:08:13Z</time>
      </trkpt>
      <trkpt lat="45.1524" lon="5.95492">
        <ele>2567.4</ele>
        <time>2021-02-27T07:08:14Z</time>
      </trkpt>
      <trkpt lat="45.15242" lon="5.95494">
        <ele>2568.2</ele>
        <time>2021-02-27T07:08:15Z</time>
      </trkpt>
      <trkpt lat="45.15242" lon="5.95494">
        <ele>2568.2</ele>
        <time>2021-02-27T07:08:16Z</time>
      </trkpt>
      <trkpt lat="45.15244" lon="5.95495">
        <ele>2568.8</ele>
        <time>2021-02-27T07:08:17Z</time>
      </trkpt>
      <trkpt lat="45.15244" lon="5.95495">
        <ele>2569.2</ele>
        <time>2021-02-27T07:08:18Z</time>
      </trkpt>
      <trkpt lat="45.15246" lon="5.95496">
        <ele>2569</ele>
        <time>2021-02-27T07:08:19Z</time>
      </trkpt>
      <trkpt lat="45.15246" lon="5.95496">
        <ele>2569.6</ele>
        <time>2021-02-27T07:08:20Z</time>
      </trkpt>
      <trkpt lat="45.15246" lon="5.95496">
        <ele>2570</ele>
        <time>2021-02-27T07:08:21Z</time>
      </trkpt>
      <trkpt lat="45.15249" lon="5.95496">
        <ele>2570.2</ele>
        <time>2021-02-27T07:08:22Z</time>
      </trkpt>
      <trkpt lat="45.15249" lon="5.95496">
        <ele>2571</ele>
        <time>2021-02-27T07:08:23Z</time>
      </trkpt>
      <trkpt lat="45.1525" lon="5.95496">
        <ele>2571</ele>
        <time>2021-02-27T07:08:24Z</time>
      </trkpt>
      <trkpt lat="45.1525" lon="5.95496">
        <ele>2571.2</ele>
        <time>2021-02-27T07:08:25Z</time>
      </trkpt>
      <trkpt lat="45.15252" lon="5.95497">
        <ele>2571.8</ele>
        <time>2021-02-27T07:08:26Z</time>
      </trkpt>
      <trkpt lat="45.15252" lon="5.95497">
        <ele>2571.8</ele>
        <time>2021-02-27T07:08:27Z</time>
      </trkpt>
      <trkpt lat="45.15254" lon="5.95497">
        <ele>2571.8</ele>
        <time>2021-02-27T07:08:28Z</time>
      </trkpt>
      <trkpt lat="45.15254" lon="5.95497">
        <ele>2572.2</ele>
        <time>2021-02-27T07:08:29Z</time>
      </trkpt>
      <trkpt lat="45.15254" lon="5.95497">
        <ele>2572.6</ele>
        <time>2021-02-27T07:08:30Z</time>
      </trkpt>
      <trkpt lat="45.15257" lon="5.95499">
        <ele>2572.4</ele>
        <time>2021-02-27T07:08:31Z</time>
      </trkpt>
      <trkpt lat="45.15257" lon="5.95499">
        <ele>2572.8</ele>
        <time>2021-02-27T07:08:32Z</time>
      </trkpt>
      <trkpt lat="45.15259" lon="5.95499">
        <ele>2573</ele>
        <time>2021-02-27T07:08:33Z</time>
      </trkpt>
      <trkpt lat="45.15259" lon="5.95499">
        <ele>2573.2</ele>
        <time>2021-02-27T07:08:34Z</time>
      </trkpt>
      <trkpt lat="45.15262" lon="5.95499">
        <ele>2573.2</ele>
        <time>2021-02-27T07:08:35Z</time>
      </trkpt>
      <trkpt lat="45.15262" lon="5.95499">
        <ele>2573.8</ele>
        <time>2021-02-27T07:08:36Z</time>
      </trkpt>
      <trkpt lat="45.15264" lon="5.95498">
        <ele>2574</ele>
        <time>2021-02-27T07:08:37Z</time>
      </trkpt>
      <trkpt lat="45.15264" lon="5.95498">
        <ele>2574.4</ele>
        <time>2021-02-27T07:08:38Z</time>
      </trkpt>
      <trkpt lat="45.15267" lon="5.95498">
        <ele>2574.6</ele>
        <time>2021-02-27T07:08:39Z</time>
      </trkpt>
      <trkpt lat="45.15267" lon="5.95498">
        <ele>2574.8</ele>
        <time>2021-02-27T07:08:40Z</time>
      </trkpt>
      <trkpt lat="45.15269" lon="5.95498">
        <ele>2575</ele>
        <time>2021-02-27T07:08:41Z</time>
      </trkpt>
      <trkpt lat="45.15269" lon="5.95498">
        <ele>2575.4</ele>
        <time>2021-02-27T07:08:42Z</time>
      </trkpt>
      <trkpt lat="45.15272" lon="5.95498">
        <ele>2575.6</ele>
        <time>2021-02-27T07:08:43Z</time>
      </trkpt>
      <trkpt lat="45.15272" lon="5.95498">
        <ele>2575.6</ele>
        <time>2021-02-27T07:08:44Z</time>
      </trkpt>
      <trkpt lat="45.15274" lon="5.95498">
        <ele>2575.6</ele>
        <time>2021-02-27T07:08:45Z</time>
      </trkpt>
      <trkpt lat="45.15274" lon="5.95498">
        <ele>2575.8</ele>
        <time>2021-02-27T07:08:46Z</time>
      </trkpt>
      <trkpt lat="45.15276" lon="5.95497">
        <ele>2575.8</ele>
        <time>2021-02-27T07:08:47Z</time>
      </trkpt>
      <trkpt lat="45.15276" lon="5.95497">
        <ele>2576.2</ele>
        <time>2021-02-27T07:08:48Z</time>
      </trkpt>
      <trkpt lat="45.15276" lon="5.95497">
        <ele>2576.2</ele>
        <time>2021-02-27T07:08:49Z</time>
      </trkpt>
      <trkpt lat="45.15278" lon="5.95497">
        <ele>2576.4</ele>
        <time>2021-02-27T07:08:50Z</time>
      </trkpt>
      <trkpt lat="45.15278" lon="5.95497">
        <ele>2576.6</ele>
        <time>2021-02-27T07:08:51Z</time>
      </trkpt>
      <trkpt lat="45.15278" lon="5.95497">
        <ele>2576.8</ele>
        <time>2021-02-27T07:08:52Z</time>
      </trkpt>
      <trkpt lat="45.15281" lon="5.95497">
        <ele>2577</ele>
        <time>2021-02-27T07:08:53Z</time>
      </trkpt>
      <trkpt lat="45.15281" lon="5.95497">
        <ele>2577.2</ele>
        <time>2021-02-27T07:08:54Z</time>
      </trkpt>
      <trkpt lat="45.15283" lon="5.95499">
        <ele>2577.2</ele>
        <time>2021-02-27T07:08:55Z</time>
      </trkpt>
      <trkpt lat="45.15283" lon="5.95499">
        <ele>2577.6</ele>
        <time>2021-02-27T07:08:56Z</time>
      </trkpt>
      <trkpt lat="45.15283" lon="5.95499">
        <ele>2577.8</ele>
        <time>2021-02-27T07:08:57Z</time>
      </trkpt>
      <trkpt lat="45.15283" lon="5.95499">
        <ele>2577.8</ele>
        <time>2021-02-27T07:08:58Z</time>
      </trkpt>
      <trkpt lat="45.15283" lon="5.95499">
        <ele>2578</ele>
        <time>2021-02-27T07:08:59Z</time>
      </trkpt>
      <trkpt lat="45.15284" lon="5.95501">
        <ele>2578.4</ele>
        <time>2021-02-27T07:09:00Z</time>
      </trkpt>
      <trkpt lat="45.15284" lon="5.95501">
        <ele>2578.6</ele>
        <time>2021-02-27T07:09:01Z</time>
      </trkpt>
      <trkpt lat="45.15286" lon="5.95503">
        <ele>2578.6</ele>
        <time>2021-02-27T07:09:02Z</time>
      </trkpt>
      <trkpt lat="45.15286" lon="5.95503">
        <ele>2579</ele>
        <time>2021-02-27T07:09:03Z</time>
      </trkpt>
      <trkpt lat="45.15286" lon="5.95503">
        <ele>2579.2</ele>
        <time>2021-02-27T07:09:04Z</time>
      </trkpt>
      <trkpt lat="45.15288" lon="5.95506">
        <ele>2579.2</ele>
        <time>2021-02-27T07:09:05Z</time>
      </trkpt>
      <trkpt lat="45.15288" lon="5.95506">
        <ele>2580</ele>
        <time>2021-02-27T07:09:06Z</time>
      </trkpt>
      <trkpt lat="45.15288" lon="5.95506">
        <ele>2580.4</ele>
        <time>2021-02-27T07:09:07Z</time>
      </trkpt>
      <trkpt lat="45.15289" lon="5.95508">
        <ele>2580.2</ele>
        <time>2021-02-27T07:09:08Z</time>
      </trkpt>
      <trkpt lat="45.15289" lon="5.95508">
        <ele>2580.6</ele>
        <time>2021-02-27T07:09:09Z</time>
      </trkpt>
      <trkpt lat="45.15289" lon="5.95508">
        <ele>2580.6</ele>
        <time>2021-02-27T07:09:10Z</time>
      </trkpt>
      <trkpt lat="45.1529" lon="5.95511">
        <ele>2580.6</ele>
        <time>2021-02-27T07:09:11Z</time>
      </trkpt>
      <trkpt lat="45.1529" lon="5.95511">
        <ele>2581.2</ele>
        <time>2021-02-27T07:09:12Z</time>
      </trkpt>
      <trkpt lat="45.15292" lon="5.95514">
        <ele>2581</ele>
        <time>2021-02-27T07:09:13Z</time>
      </trkpt>
      <trkpt lat="45.15292" lon="5.95514">
        <ele>2580.8</ele>
        <time>2021-02-27T07:09:14Z</time>
      </trkpt>
      <trkpt lat="45.15293" lon="5.95516">
        <ele>2581</ele>
        <time>2021-02-27T07:09:15Z</time>
      </trkpt>
      <trkpt lat="45.15293" lon="5.95516">
        <ele>2581</ele>
        <time>2021-02-27T07:09:16Z</time>
      </trkpt>
      <trkpt lat="45.15295" lon="5.95519">
        <ele>2581.4</ele>
        <time>2021-02-27T07:09:17Z</time>
      </trkpt>
      <trkpt lat="45.15295" lon="5.95519">
        <ele>2581.4</ele>
        <time>2021-02-27T07:09:18Z</time>
      </trkpt>
      <trkpt lat="45.15295" lon="5.95519">
        <ele>2581.2</ele>
        <time>2021-02-27T07:09:19Z</time>
      </trkpt>
      <trkpt lat="45.15297" lon="5.95522">
        <ele>2581.6</ele>
        <time>2021-02-27T07:09:20Z</time>
      </trkpt>
      <trkpt lat="45.15297" lon="5.95522">
        <ele>2581.8</ele>
        <time>2021-02-27T07:09:21Z</time>
      </trkpt>
      <trkpt lat="45.15297" lon="5.95522">
        <ele>2581.8</ele>
        <time>2021-02-27T07:09:22Z</time>
      </trkpt>
      <trkpt lat="45.15298" lon="5.95525">
        <ele>2582.4</ele>
        <time>2021-02-27T07:09:23Z</time>
      </trkpt>
      <trkpt lat="45.15298" lon="5.95525">
        <ele>2582.6</ele>
        <time>2021-02-27T07:09:24Z</time>
      </trkpt>
      <trkpt lat="45.15299" lon="5.95527">
        <ele>2583</ele>
        <time>2021-02-27T07:09:25Z</time>
      </trkpt>
      <trkpt lat="45.15299" lon="5.95527">
        <ele>2583.2</ele>
        <time>2021-02-27T07:09:26Z</time>
      </trkpt>
      <trkpt lat="45.15301" lon="5.95529">
        <ele>2583.4</ele>
        <time>2021-02-27T07:09:27Z</time>
      </trkpt>
      <trkpt lat="45.15301" lon="5.95529">
        <ele>2584</ele>
        <time>2021-02-27T07:09:28Z</time>
      </trkpt>
      <trkpt lat="45.15303" lon="5.95531">
        <ele>2584.6</ele>
        <time>2021-02-27T07:09:29Z</time>
      </trkpt>
      <trkpt lat="45.15303" lon="5.95531">
        <ele>2585</ele>
        <time>2021-02-27T07:09:30Z</time>
      </trkpt>
      <trkpt lat="45.15305" lon="5.95532">
        <ele>2585.4</ele>
        <time>2021-02-27T07:09:31Z</time>
      </trkpt>
      <trkpt lat="45.15305" lon="5.95532">
        <ele>2585.6</ele>
        <time>2021-02-27T07:09:32Z</time>
      </trkpt>
      <trkpt lat="45.15305" lon="5.95532">
        <ele>2586</ele>
        <time>2021-02-27T07:09:33Z</time>
      </trkpt>
      <trkpt lat="45.15305" lon="5.95532">
        <ele>2586.6</ele>
        <time>2021-02-27T07:09:34Z</time>
      </trkpt>
      <trkpt lat="45.15305" lon="5.95532">
        <ele>2586.6</ele>
        <time>2021-02-27T07:09:35Z</time>
      </trkpt>
      <trkpt lat="45.15307" lon="5.95532">
        <ele>2587.2</ele>
        <time>2021-02-27T07:09:36Z</time>
      </trkpt>
      <trkpt lat="45.15307" lon="5.95532">
        <ele>2587.4</ele>
        <time>2021-02-27T07:09:37Z</time>
      </trkpt>
      <trkpt lat="45.15309" lon="5.95531">
        <ele>2587.4</ele>
        <time>2021-02-27T07:09:38Z</time>
      </trkpt>
      <trkpt lat="45.15309" lon="5.95531">
        <ele>2587.8</ele>
        <time>2021-02-27T07:09:39Z</time>
      </trkpt>
      <trkpt lat="45.1531" lon="5.95529">
        <ele>2587.8</ele>
        <time>2021-02-27T07:09:40Z</time>
      </trkpt>
      <trkpt lat="45.1531" lon="5.95529">
        <ele>2588</ele>
        <time>2021-02-27T07:09:41Z</time>
      </trkpt>
      <trkpt lat="45.15313" lon="5.95528">
        <ele>2588</ele>
        <time>2021-02-27T07:09:42Z</time>
      </trkpt>
      <trkpt lat="45.15313" lon="5.95528">
        <ele>2588.2</ele>
        <time>2021-02-27T07:09:43Z</time>
      </trkpt>
      <trkpt lat="45.15315" lon="5.95527">
        <ele>2588.6</ele>
        <time>2021-02-27T07:09:44Z</time>
      </trkpt>
      <trkpt lat="45.15315" lon="5.95527">
        <ele>2588.8</ele>
        <time>2021-02-27T07:09:45Z</time>
      </trkpt>
      <trkpt lat="45.15317" lon="5.95526">
        <ele>2589.4</ele>
        <time>2021-02-27T07:09:46Z</time>
      </trkpt>
      <trkpt lat="45.15317" lon="5.95526">
        <ele>2589.6</ele>
        <time>2021-02-27T07:09:47Z</time>
      </trkpt>
      <trkpt lat="45.15319" lon="5.95527">
        <ele>2589.8</ele>
        <time>2021-02-27T07:09:48Z</time>
      </trkpt>
      <trkpt lat="45.15319" lon="5.95527">
        <ele>2590.6</ele>
        <time>2021-02-27T07:09:49Z</time>
      </trkpt>
      <trkpt lat="45.15321" lon="5.95528">
        <ele>2590.8</ele>
        <time>2021-02-27T07:09:50Z</time>
      </trkpt>
      <trkpt lat="45.15321" lon="5.95528">
        <ele>2591</ele>
        <time>2021-02-27T07:09:51Z</time>
      </trkpt>
      <trkpt lat="45.15323" lon="5.9553">
        <ele>2591.4</ele>
        <time>2021-02-27T07:09:52Z</time>
      </trkpt>
      <trkpt lat="45.15323" lon="5.9553">
        <ele>2591.2</ele>
        <time>2021-02-27T07:09:53Z</time>
      </trkpt>
      <trkpt lat="45.15325" lon="5.95531">
        <ele>2591.2</ele>
        <time>2021-02-27T07:09:54Z</time>
      </trkpt>
      <trkpt lat="45.15325" lon="5.95531">
        <ele>2591.8</ele>
        <time>2021-02-27T07:09:55Z</time>
      </trkpt>
      <trkpt lat="45.15327" lon="5.95532">
        <ele>2591.8</ele>
        <time>2021-02-27T07:09:56Z</time>
      </trkpt>
      <trkpt lat="45.15327" lon="5.95532">
        <ele>2592</ele>
        <time>2021-02-27T07:09:57Z</time>
      </trkpt>
      <trkpt lat="45.15327" lon="5.95532">
        <ele>2592.6</ele>
        <time>2021-02-27T07:09:58Z</time>
      </trkpt>
      <trkpt lat="45.15329" lon="5.95535">
        <ele>2592.8</ele>
        <time>2021-02-27T07:09:59Z</time>
      </trkpt>
      <trkpt lat="45.15329" lon="5.95535">
        <ele>2593.8</ele>
        <time>2021-02-27T07:10:00Z</time>
      </trkpt>
      <trkpt lat="45.15329" lon="5.95535">
        <ele>2594</ele>
        <time>2021-02-27T07:10:01Z</time>
      </trkpt>
      <trkpt lat="45.15331" lon="5.95537">
        <ele>2593.8</ele>
        <time>2021-02-27T07:10:02Z</time>
      </trkpt>
      <trkpt lat="45.15331" lon="5.95537">
        <ele>2594.6</ele>
        <time>2021-02-27T07:10:03Z</time>
      </trkpt>
      <trkpt lat="45.15333" lon="5.95539">
        <ele>2595</ele>
        <time>2021-02-27T07:10:04Z</time>
      </trkpt>
      <trkpt lat="45.15333" lon="5.95539">
        <ele>2595</ele>
        <time>2021-02-27T07:10:05Z</time>
      </trkpt>
      <trkpt lat="45.15333" lon="5.95539">
        <ele>2595.6</ele>
        <time>2021-02-27T07:10:06Z</time>
      </trkpt>
      <trkpt lat="45.15336" lon="5.95541">
        <ele>2595.8</ele>
        <time>2021-02-27T07:10:07Z</time>
      </trkpt>
      <trkpt lat="45.15336" lon="5.95541">
        <ele>2596</ele>
        <time>2021-02-27T07:10:08Z</time>
      </trkpt>
      <trkpt lat="45.15337" lon="5.95543">
        <ele>2596</ele>
        <time>2021-02-27T07:10:09Z</time>
      </trkpt>
      <trkpt lat="45.15337" lon="5.95543">
        <ele>2597</ele>
        <time>2021-02-27T07:10:10Z</time>
      </trkpt>
      <trkpt lat="45.15339" lon="5.95544">
        <ele>2597.2</ele>
        <time>2021-02-27T07:10:11Z</time>
      </trkpt>
      <trkpt lat="45.15339" lon="5.95544">
        <ele>2597.4</ele>
        <time>2021-02-27T07:10:12Z</time>
      </trkpt>
      <trkpt lat="45.15339" lon="5.95544">
        <ele>2598</ele>
        <time>2021-02-27T07:10:13Z</time>
      </trkpt>
      <trkpt lat="45.1534" lon="5.95546">
        <ele>2597.8</ele>
        <time>2021-02-27T07:10:14Z</time>
      </trkpt>
      <trkpt lat="45.1534" lon="5.95546">
        <ele>2598.2</ele>
        <time>2021-02-27T07:10:15Z</time>
      </trkpt>
      <trkpt lat="45.1534" lon="5.95546">
        <ele>2598.8</ele>
        <time>2021-02-27T07:10:16Z</time>
      </trkpt>
      <trkpt lat="45.15342" lon="5.95549">
        <ele>2598.8</ele>
        <time>2021-02-27T07:10:17Z</time>
      </trkpt>
      <trkpt lat="45.15342" lon="5.95549">
        <ele>2598.8</ele>
        <time>2021-02-27T07:10:18Z</time>
      </trkpt>
      <trkpt lat="45.15342" lon="5.95549">
        <ele>2599.4</ele>
        <time>2021-02-27T07:10:19Z</time>
      </trkpt>
      <trkpt lat="45.15344" lon="5.95551">
        <ele>2599.4</ele>
        <time>2021-02-27T07:10:20Z</time>
      </trkpt>
      <trkpt lat="45.15344" lon="5.95551">
        <ele>2599.8</ele>
        <time>2021-02-27T07:10:21Z</time>
      </trkpt>
      <trkpt lat="45.15346" lon="5.95553">
        <ele>2600.2</ele>
        <time>2021-02-27T07:10:22Z</time>
      </trkpt>
      <trkpt lat="45.15346" lon="5.95553">
        <ele>2600</ele>
        <time>2021-02-27T07:10:23Z</time>
      </trkpt>
      <trkpt lat="45.15346" lon="5.95553">
        <ele>2600.4</ele>
        <time>2021-02-27T07:10:24Z</time>
      </trkpt>
      <trkpt lat="45.15347" lon="5.95555">
        <ele>2600.8</ele>
        <time>2021-02-27T07:10:25Z</time>
      </trkpt>
      <trkpt lat="45.15347" lon="5.95555">
        <ele>2600.8</ele>
        <time>2021-02-27T07:10:26Z</time>
      </trkpt>
      <trkpt lat="45.15349" lon="5.95557">
        <ele>2601.2</ele>
        <time>2021-02-27T07:10:27Z</time>
      </trkpt>
      <trkpt lat="45.15349" lon="5.95557">
        <ele>2601.6</ele>
        <time>2021-02-27T07:10:28Z</time>
      </trkpt>
      <trkpt lat="45.1535" lon="5.95559">
        <ele>2601.8</ele>
        <time>2021-02-27T07:10:29Z</time>
      </trkpt>
      <trkpt lat="45.1535" lon="5.95559">
        <ele>2602.2</ele>
        <time>2021-02-27T07:10:30Z</time>
      </trkpt>
      <trkpt lat="45.15351" lon="5.95562">
        <ele>2602.6</ele>
        <time>2021-02-27T07:10:31Z</time>
      </trkpt>
      <trkpt lat="45.15351" lon="5.95562">
        <ele>2602.6</ele>
        <time>2021-02-27T07:10:32Z</time>
      </trkpt>
      <trkpt lat="45.15352" lon="5.95564">
        <ele>2603.2</ele>
        <time>2021-02-27T07:10:33Z</time>
      </trkpt>
      <trkpt lat="45.15352" lon="5.95564">
        <ele>2603.4</ele>
        <time>2021-02-27T07:10:34Z</time>
      </trkpt>
      <trkpt lat="45.15352" lon="5.95564">
        <ele>2603.4</ele>
        <time>2021-02-27T07:10:35Z</time>
      </trkpt>
      <trkpt lat="45.15354" lon="5.95567">
        <ele>2603.8</ele>
        <time>2021-02-27T07:10:36Z</time>
      </trkpt>
      <trkpt lat="45.15354" lon="5.95567">
        <ele>2603.8</ele>
        <time>2021-02-27T07:10:37Z</time>
      </trkpt>
      <trkpt lat="45.15354" lon="5.95567">
        <ele>2604.4</ele>
        <time>2021-02-27T07:10:38Z</time>
      </trkpt>
      <trkpt lat="45.15356" lon="5.95569">
        <ele>2604.8</ele>
        <time>2021-02-27T07:10:39Z</time>
      </trkpt>
      <trkpt lat="45.15356" lon="5.95569">
        <ele>2604.8</ele>
        <time>2021-02-27T07:10:40Z</time>
      </trkpt>
      <trkpt lat="45.15357" lon="5.95571">
        <ele>2605.6</ele>
        <time>2021-02-27T07:10:41Z</time>
      </trkpt>
      <trkpt lat="45.15357" lon="5.95571">
        <ele>2606</ele>
        <time>2021-02-27T07:10:42Z</time>
      </trkpt>
      <trkpt lat="45.15357" lon="5.95571">
        <ele>2606.2</ele>
        <time>2021-02-27T07:10:43Z</time>
      </trkpt>
      <trkpt lat="45.15358" lon="5.95574">
        <ele>2606.6</ele>
        <time>2021-02-27T07:10:44Z</time>
      </trkpt>
      <trkpt lat="45.15358" lon="5.95574">
        <ele>2606.8</ele>
        <time>2021-02-27T07:10:45Z</time>
      </trkpt>
      <trkpt lat="45.1536" lon="5.95576">
        <ele>2606.6</ele>
        <time>2021-02-27T07:10:46Z</time>
      </trkpt>
      <trkpt lat="45.1536" lon="5.95576">
        <ele>2607</ele>
        <time>2021-02-27T07:10:47Z</time>
      </trkpt>
      <trkpt lat="45.15362" lon="5.95577">
        <ele>2606.8</ele>
        <time>2021-02-27T07:10:48Z</time>
      </trkpt>
      <trkpt lat="45.15362" lon="5.95577">
        <ele>2607</ele>
        <time>2021-02-27T07:10:49Z</time>
      </trkpt>
      <trkpt lat="45.15363" lon="5.9558">
        <ele>2607.4</ele>
        <time>2021-02-27T07:10:50Z</time>
      </trkpt>
      <trkpt lat="45.15363" lon="5.9558">
        <ele>2607.2</ele>
        <time>2021-02-27T07:10:51Z</time>
      </trkpt>
      <trkpt lat="45.15365" lon="5.95581">
        <ele>2607.8</ele>
        <time>2021-02-27T07:10:52Z</time>
      </trkpt>
      <trkpt lat="45.15365" lon="5.95581">
        <ele>2608</ele>
        <time>2021-02-27T07:10:53Z</time>
      </trkpt>
      <trkpt lat="45.15366" lon="5.95583">
        <ele>2608</ele>
        <time>2021-02-27T07:10:54Z</time>
      </trkpt>
      <trkpt lat="45.15366" lon="5.95583">
        <ele>2608.6</ele>
        <time>2021-02-27T07:10:55Z</time>
      </trkpt>
      <trkpt lat="45.15367" lon="5.95585">
        <ele>2609</ele>
        <time>2021-02-27T07:10:56Z</time>
      </trkpt>
      <trkpt lat="45.15367" lon="5.95585">
        <ele>2609</ele>
        <time>2021-02-27T07:10:57Z</time>
      </trkpt>
      <trkpt lat="45.15367" lon="5.95585">
        <ele>2609.4</ele>
        <time>2021-02-27T07:10:58Z</time>
      </trkpt>
      <trkpt lat="45.15369" lon="5.95588">
        <ele>2609.6</ele>
        <time>2021-02-27T07:10:59Z</time>
      </trkpt>
      <trkpt lat="45.15369" lon="5.95588">
        <ele>2609.6</ele>
        <time>2021-02-27T07:11:00Z</time>
      </trkpt>
      <trkpt lat="45.15369" lon="5.95588">
        <ele>2610</ele>
        <time>2021-02-27T07:11:01Z</time>
      </trkpt>
      <trkpt lat="45.15372" lon="5.95589">
        <ele>2610</ele>
        <time>2021-02-27T07:11:02Z</time>
      </trkpt>
      <trkpt lat="45.15372" lon="5.95589">
        <ele>2610.2</ele>
        <time>2021-02-27T07:11:03Z</time>
      </trkpt>
      <trkpt lat="45.15374" lon="5.95591">
        <ele>2610.6</ele>
        <time>2021-02-27T07:11:04Z</time>
      </trkpt>
      <trkpt lat="45.15374" lon="5.95591">
        <ele>2610.6</ele>
        <time>2021-02-27T07:11:05Z</time>
      </trkpt>
      <trkpt lat="45.15376" lon="5.95592">
        <ele>2610.8</ele>
        <time>2021-02-27T07:11:06Z</time>
      </trkpt>
      <trkpt lat="45.15376" lon="5.95592">
        <ele>2611.4</ele>
        <time>2021-02-27T07:11:07Z</time>
      </trkpt>
      <trkpt lat="45.15378" lon="5.95592">
        <ele>2611.4</ele>
        <time>2021-02-27T07:11:08Z</time>
      </trkpt>
      <trkpt lat="45.15378" lon="5.95592">
        <ele>2611.6</ele>
        <time>2021-02-27T07:11:09Z</time>
      </trkpt>
      <trkpt lat="45.15378" lon="5.95592">
        <ele>2611.8</ele>
        <time>2021-02-27T07:11:10Z</time>
      </trkpt>
      <trkpt lat="45.1538" lon="5.95592">
        <ele>2611.8</ele>
        <time>2021-02-27T07:11:11Z</time>
      </trkpt>
      <trkpt lat="45.1538" lon="5.95592">
        <ele>2612.2</ele>
        <time>2021-02-27T07:11:12Z</time>
      </trkpt>
      <trkpt lat="45.1538" lon="5.95592">
        <ele>2612.4</ele>
        <time>2021-02-27T07:11:13Z</time>
      </trkpt>
      <trkpt lat="45.15382" lon="5.95592">
        <ele>2612.2</ele>
        <time>2021-02-27T07:11:14Z</time>
      </trkpt>
      <trkpt lat="45.15382" lon="5.95592">
        <ele>2612.6</ele>
        <time>2021-02-27T07:11:15Z</time>
      </trkpt>
      <trkpt lat="45.15384" lon="5.95592">
        <ele>2613</ele>
        <time>2021-02-27T07:11:16Z</time>
      </trkpt>
      <trkpt lat="45.15384" lon="5.95592">
        <ele>2613.2</ele>
        <time>2021-02-27T07:11:17Z</time>
      </trkpt>
      <trkpt lat="45.15386" lon="5.95592">
        <ele>2613.6</ele>
        <time>2021-02-27T07:11:18Z</time>
      </trkpt>
      <trkpt lat="45.15386" lon="5.95592">
        <ele>2613.6</ele>
        <time>2021-02-27T07:11:19Z</time>
      </trkpt>
      <trkpt lat="45.15386" lon="5.95592">
        <ele>2613.8</ele>
        <time>2021-02-27T07:11:20Z</time>
      </trkpt>
      <trkpt lat="45.15388" lon="5.95591">
        <ele>2613.8</ele>
        <time>2021-02-27T07:11:21Z</time>
      </trkpt>
      <trkpt lat="45.15388" lon="5.95591">
        <ele>2614</ele>
        <time>2021-02-27T07:11:22Z</time>
      </trkpt>
      <trkpt lat="45.1539" lon="5.95591">
        <ele>2614.4</ele>
        <time>2021-02-27T07:11:23Z</time>
      </trkpt>
      <trkpt lat="45.1539" lon="5.95591">
        <ele>2614.6</ele>
        <time>2021-02-27T07:11:24Z</time>
      </trkpt>
      <trkpt lat="45.15392" lon="5.95591">
        <ele>2614.6</ele>
        <time>2021-02-27T07:11:25Z</time>
      </trkpt>
      <trkpt lat="45.15392" lon="5.95591">
        <ele>2615</ele>
        <time>2021-02-27T07:11:26Z</time>
      </trkpt>
      <trkpt lat="45.15394" lon="5.95591">
        <ele>2615.4</ele>
        <time>2021-02-27T07:11:27Z</time>
      </trkpt>
      <trkpt lat="45.15394" lon="5.95591">
        <ele>2615.4</ele>
        <time>2021-02-27T07:11:28Z</time>
      </trkpt>
      <trkpt lat="45.15397" lon="5.95592">
        <ele>2615.4</ele>
        <time>2021-02-27T07:11:29Z</time>
      </trkpt>
      <trkpt lat="45.15397" lon="5.95592">
        <ele>2615.4</ele>
        <time>2021-02-27T07:11:30Z</time>
      </trkpt>
      <trkpt lat="45.15399" lon="5.95592">
        <ele>2615.8</ele>
        <time>2021-02-27T07:11:31Z</time>
      </trkpt>
      <trkpt lat="45.15399" lon="5.95592">
        <ele>2615.8</ele>
        <time>2021-02-27T07:11:32Z</time>
      </trkpt>
      <trkpt lat="45.15402" lon="5.95592">
        <ele>2616.2</ele>
        <time>2021-02-27T07:11:33Z</time>
      </trkpt>
      <trkpt lat="45.15402" lon="5.95592">
        <ele>2616.8</ele>
        <time>2021-02-27T07:11:34Z</time>
      </trkpt>
      <trkpt lat="45.15404" lon="5.95593">
        <ele>2616.8</ele>
        <time>2021-02-27T07:11:35Z</time>
      </trkpt>
      <trkpt lat="45.15404" lon="5.95593">
        <ele>2617.2</ele>
        <time>2021-02-27T07:11:36Z</time>
      </trkpt>
      <trkpt lat="45.15406" lon="5.95594">
        <ele>2617.6</ele>
        <time>2021-02-27T07:11:37Z</time>
      </trkpt>
      <trkpt lat="45.15406" lon="5.95594">
        <ele>2617.4</ele>
        <time>2021-02-27T07:11:38Z</time>
      </trkpt>
      <trkpt lat="45.15406" lon="5.95594">
        <ele>2617.8</ele>
        <time>2021-02-27T07:11:39Z</time>
      </trkpt>
      <trkpt lat="45.15408" lon="5.95594">
        <ele>2617.8</ele>
        <time>2021-02-27T07:11:40Z</time>
      </trkpt>
      <trkpt lat="45.15408" lon="5.95594">
        <ele>2618</ele>
        <time>2021-02-27T07:11:41Z</time>
      </trkpt>
      <trkpt lat="45.15411" lon="5.95594">
        <ele>2618</ele>
        <time>2021-02-27T07:11:42Z</time>
      </trkpt>
      <trkpt lat="45.15411" lon="5.95594">
        <ele>2617.8</ele>
        <time>2021-02-27T07:11:43Z</time>
      </trkpt>
      <trkpt lat="45.15413" lon="5.95595">
        <ele>2618.2</ele>
        <time>2021-02-27T07:11:44Z</time>
      </trkpt>
      <trkpt lat="45.15413" lon="5.95595">
        <ele>2618.4</ele>
        <time>2021-02-27T07:11:45Z</time>
      </trkpt>
      <trkpt lat="45.15415" lon="5.95596">
        <ele>2619</ele>
        <time>2021-02-27T07:11:46Z</time>
      </trkpt>
      <trkpt lat="45.15415" lon="5.95596">
        <ele>2618.6</ele>
        <time>2021-02-27T07:11:47Z</time>
      </trkpt>
      <trkpt lat="45.15417" lon="5.95597">
        <ele>2618.8</ele>
        <time>2021-02-27T07:11:48Z</time>
      </trkpt>
      <trkpt lat="45.15417" lon="5.95597">
        <ele>2619.2</ele>
        <time>2021-02-27T07:11:49Z</time>
      </trkpt>
      <trkpt lat="45.1542" lon="5.95598">
        <ele>2619</ele>
        <time>2021-02-27T07:11:50Z</time>
      </trkpt>
      <trkpt lat="45.1542" lon="5.95598">
        <ele>2619.6</ele>
        <time>2021-02-27T07:11:51Z</time>
      </trkpt>
      <trkpt lat="45.15422" lon="5.95598">
        <ele>2619.6</ele>
        <time>2021-02-27T07:11:52Z</time>
      </trkpt>
      <trkpt lat="45.15422" lon="5.95598">
        <ele>2620</ele>
        <time>2021-02-27T07:11:53Z</time>
      </trkpt>
      <trkpt lat="45.15424" lon="5.95599">
        <ele>2620.4</ele>
        <time>2021-02-27T07:11:54Z</time>
      </trkpt>
      <trkpt lat="45.15424" lon="5.95599">
        <ele>2620.4</ele>
        <time>2021-02-27T07:11:55Z</time>
      </trkpt>
      <trkpt lat="45.15426" lon="5.95599">
        <ele>2621.2</ele>
        <time>2021-02-27T07:11:56Z</time>
      </trkpt>
      <trkpt lat="45.15426" lon="5.95599">
        <ele>2621.2</ele>
        <time>2021-02-27T07:11:57Z</time>
      </trkpt>
      <trkpt lat="45.15429" lon="5.95599">
        <ele>2620.8</ele>
        <time>2021-02-27T07:11:58Z</time>
      </trkpt>
      <trkpt lat="45.15429" lon="5.95599">
        <ele>2621.2</ele>
        <time>2021-02-27T07:11:59Z</time>
      </trkpt>
      <trkpt lat="45.15431" lon="5.956">
        <ele>2621</ele>
        <time>2021-02-27T07:12:00Z</time>
      </trkpt>
      <trkpt lat="45.15431" lon="5.956">
        <ele>2621.4</ele>
        <time>2021-02-27T07:12:01Z</time>
      </trkpt>
      <trkpt lat="45.15433" lon="5.95601">
        <ele>2621.4</ele>
        <time>2021-02-27T07:12:02Z</time>
      </trkpt>
      <trkpt lat="45.15433" lon="5.95601">
        <ele>2621.6</ele>
        <time>2021-02-27T07:12:03Z</time>
      </trkpt>
      <trkpt lat="45.15435" lon="5.95602">
        <ele>2622.4</ele>
        <time>2021-02-27T07:12:04Z</time>
      </trkpt>
      <trkpt lat="45.15435" lon="5.95602">
        <ele>2622.4</ele>
        <time>2021-02-27T07:12:05Z</time>
      </trkpt>
      <trkpt lat="45.15437" lon="5.95603">
        <ele>2622.4</ele>
        <time>2021-02-27T07:12:06Z</time>
      </trkpt>
      <trkpt lat="45.15437" lon="5.95603">
        <ele>2622.4</ele>
        <time>2021-02-27T07:12:07Z</time>
      </trkpt>
      <trkpt lat="45.15439" lon="5.95603">
        <ele>2622.4</ele>
        <time>2021-02-27T07:12:08Z</time>
      </trkpt>
      <trkpt lat="45.15439" lon="5.95603">
        <ele>2622.8</ele>
        <time>2021-02-27T07:12:09Z</time>
      </trkpt>
      <trkpt lat="45.15442" lon="5.95604">
        <ele>2623</ele>
        <time>2021-02-27T07:12:10Z</time>
      </trkpt>
      <trkpt lat="45.15442" lon="5.95604">
        <ele>2622.6</ele>
        <time>2021-02-27T07:12:11Z</time>
      </trkpt>
      <trkpt lat="45.15443" lon="5.95605">
        <ele>2623.4</ele>
        <time>2021-02-27T07:12:12Z</time>
      </trkpt>
      <trkpt lat="45.15443" lon="5.95605">
        <ele>2623.8</ele>
        <time>2021-02-27T07:12:13Z</time>
      </trkpt>
      <trkpt lat="45.15445" lon="5.95606">
        <ele>2624</ele>
        <time>2021-02-27T07:12:14Z</time>
      </trkpt>
      <trkpt lat="45.15445" lon="5.95606">
        <ele>2624.2</ele>
        <time>2021-02-27T07:12:15Z</time>
      </trkpt>
      <trkpt lat="45.15447" lon="5.95606">
        <ele>2624.4</ele>
        <time>2021-02-27T07:12:16Z</time>
      </trkpt>
      <trkpt lat="45.15447" lon="5.95606">
        <ele>2624.6</ele>
        <time>2021-02-27T07:12:17Z</time>
      </trkpt>
      <trkpt lat="45.15449" lon="5.95607">
        <ele>2624.8</ele>
        <time>2021-02-27T07:12:18Z</time>
      </trkpt>
      <trkpt lat="45.15449" lon="5.95607">
        <ele>2624.8</ele>
        <time>2021-02-27T07:12:19Z</time>
      </trkpt>
      <trkpt lat="45.15452" lon="5.95608">
        <ele>2624.4</ele>
        <time>2021-02-27T07:12:20Z</time>
      </trkpt>
      <trkpt lat="45.15452" lon="5.95608">
        <ele>2625.4</ele>
        <time>2021-02-27T07:12:21Z</time>
      </trkpt>
      <trkpt lat="45.15454" lon="5.95609">
        <ele>2625.2</ele>
        <time>2021-02-27T07:12:22Z</time>
      </trkpt>
      <trkpt lat="45.15454" lon="5.95609">
        <ele>2625.8</ele>
        <time>2021-02-27T07:12:23Z</time>
      </trkpt>
      <trkpt lat="45.15456" lon="5.9561">
        <ele>2625.8</ele>
        <time>2021-02-27T07:12:24Z</time>
      </trkpt>
      <trkpt lat="45.15456" lon="5.9561">
        <ele>2625.6</ele>
        <time>2021-02-27T07:12:25Z</time>
      </trkpt>
      <trkpt lat="45.15459" lon="5.95611">
        <ele>2626.2</ele>
        <time>2021-02-27T07:12:26Z</time>
      </trkpt>
      <trkpt lat="45.15459" lon="5.95611">
        <ele>2626</ele>
        <time>2021-02-27T07:12:27Z</time>
      </trkpt>
      <trkpt lat="45.15461" lon="5.95612">
        <ele>2626.8</ele>
        <time>2021-02-27T07:12:28Z</time>
      </trkpt>
      <trkpt lat="45.15461" lon="5.95612">
        <ele>2627</ele>
        <time>2021-02-27T07:12:29Z</time>
      </trkpt>
      <trkpt lat="45.15461" lon="5.95612">
        <ele>2626.8</ele>
        <time>2021-02-27T07:12:30Z</time>
      </trkpt>
      <trkpt lat="45.15464" lon="5.95613">
        <ele>2627.6</ele>
        <time>2021-02-27T07:12:31Z</time>
      </trkpt>
      <trkpt lat="45.15464" lon="5.95613">
        <ele>2627.6</ele>
        <time>2021-02-27T07:12:32Z</time>
      </trkpt>
      <trkpt lat="45.15464" lon="5.95613">
        <ele>2628</ele>
        <time>2021-02-27T07:12:33Z</time>
      </trkpt>
      <trkpt lat="45.15466" lon="5.95613">
        <ele>2628</ele>
        <time>2021-02-27T07:12:34Z</time>
      </trkpt>
      <trkpt lat="45.15466" lon="5.95613">
        <ele>2627.8</ele>
        <time>2021-02-27T07:12:35Z</time>
      </trkpt>
      <trkpt lat="45.15466" lon="5.95613">
        <ele>2628.2</ele>
        <time>2021-02-27T07:12:36Z</time>
      </trkpt>
      <trkpt lat="45.15469" lon="5.95614">
        <ele>2628</ele>
        <time>2021-02-27T07:12:37Z</time>
      </trkpt>
      <trkpt lat="45.15469" lon="5.95614">
        <ele>2628</ele>
        <time>2021-02-27T07:12:38Z</time>
      </trkpt>
      <trkpt lat="45.15469" lon="5.95614">
        <ele>2628.2</ele>
        <time>2021-02-27T07:12:39Z</time>
      </trkpt>
      <trkpt lat="45.15471" lon="5.95615">
        <ele>2628</ele>
        <time>2021-02-27T07:12:40Z</time>
      </trkpt>
      <trkpt lat="45.15471" lon="5.95615">
        <ele>2628.4</ele>
        <time>2021-02-27T07:12:41Z</time>
      </trkpt>
      <trkpt lat="45.15471" lon="5.95615">
        <ele>2628.6</ele>
        <time>2021-02-27T07:12:42Z</time>
      </trkpt>
      <trkpt lat="45.15474" lon="5.95617">
        <ele>2628.8</ele>
        <time>2021-02-27T07:12:43Z</time>
      </trkpt>
      <trkpt lat="45.15474" lon="5.95617">
        <ele>2628.8</ele>
        <time>2021-02-27T07:12:44Z</time>
      </trkpt>
      <trkpt lat="45.15474" lon="5.95617">
        <ele>2629</ele>
        <time>2021-02-27T07:12:45Z</time>
      </trkpt>
      <trkpt lat="45.15476" lon="5.95619">
        <ele>2629.2</ele>
        <time>2021-02-27T07:12:46Z</time>
      </trkpt>
      <trkpt lat="45.15476" lon="5.95619">
        <ele>2629.4</ele>
        <time>2021-02-27T07:12:47Z</time>
      </trkpt>
      <trkpt lat="45.15478" lon="5.9562">
        <ele>2630</ele>
        <time>2021-02-27T07:12:48Z</time>
      </trkpt>
      <trkpt lat="45.15478" lon="5.9562">
        <ele>2630.2</ele>
        <time>2021-02-27T07:12:49Z</time>
      </trkpt>
      <trkpt lat="45.1548" lon="5.95621">
        <ele>2630.2</ele>
        <time>2021-02-27T07:12:50Z</time>
      </trkpt>
      <trkpt lat="45.15482" lon="5.95622">
        <ele>2630.8</ele>
        <time>2021-02-27T07:12:51Z</time>
      </trkpt>
      <trkpt lat="45.15482" lon="5.95622">
        <ele>2631</ele>
        <time>2021-02-27T07:12:52Z</time>
      </trkpt>
      <trkpt lat="45.15484" lon="5.95623">
        <ele>2631</ele>
        <time>2021-02-27T07:12:53Z</time>
      </trkpt>
      <trkpt lat="45.15484" lon="5.95623">
        <ele>2631.6</ele>
        <time>2021-02-27T07:12:54Z</time>
      </trkpt>
      <trkpt lat="45.15486" lon="5.95624">
        <ele>2631.6</ele>
        <time>2021-02-27T07:12:55Z</time>
      </trkpt>
      <trkpt lat="45.15486" lon="5.95624">
        <ele>2632.2</ele>
        <time>2021-02-27T07:12:56Z</time>
      </trkpt>
      <trkpt lat="45.15486" lon="5.95624">
        <ele>2632.4</ele>
        <time>2021-02-27T07:12:57Z</time>
      </trkpt>
      <trkpt lat="45.15488" lon="5.95626">
        <ele>2632.8</ele>
        <time>2021-02-27T07:12:58Z</time>
      </trkpt>
      <trkpt lat="45.15488" lon="5.95626">
        <ele>2633.2</ele>
        <time>2021-02-27T07:12:59Z</time>
      </trkpt>
      <trkpt lat="45.15489" lon="5.95628">
        <ele>2633.4</ele>
        <time>2021-02-27T07:13:00Z</time>
      </trkpt>
      <trkpt lat="45.15489" lon="5.95628">
        <ele>2633.4</ele>
        <time>2021-02-27T07:13:01Z</time>
      </trkpt>
      <trkpt lat="45.1549" lon="5.9563">
        <ele>2633.8</ele>
        <time>2021-02-27T07:13:02Z</time>
      </trkpt>
      <trkpt lat="45.1549" lon="5.9563">
        <ele>2634.4</ele>
        <time>2021-02-27T07:13:03Z</time>
      </trkpt>
      <trkpt lat="45.1549" lon="5.9563">
        <ele>2634.4</ele>
        <time>2021-02-27T07:13:04Z</time>
      </trkpt>
      <trkpt lat="45.15492" lon="5.95632">
        <ele>2634.8</ele>
        <time>2021-02-27T07:13:05Z</time>
      </trkpt>
      <trkpt lat="45.15492" lon="5.95632">
        <ele>2634.8</ele>
        <time>2021-02-27T07:13:06Z</time>
      </trkpt>
      <trkpt lat="45.15492" lon="5.95632">
        <ele>2635.2</ele>
        <time>2021-02-27T07:13:07Z</time>
      </trkpt>
      <trkpt lat="45.15494" lon="5.95634">
        <ele>2635.6</ele>
        <time>2021-02-27T07:13:08Z</time>
      </trkpt>
      <trkpt lat="45.15494" lon="5.95634">
        <ele>2635.4</ele>
        <time>2021-02-27T07:13:09Z</time>
      </trkpt>
      <trkpt lat="45.15494" lon="5.95634">
        <ele>2636</ele>
        <time>2021-02-27T07:13:10Z</time>
      </trkpt>
      <trkpt lat="45.15496" lon="5.95637">
        <ele>2636.4</ele>
        <time>2021-02-27T07:13:11Z</time>
      </trkpt>
      <trkpt lat="45.15496" lon="5.95637">
        <ele>2636.4</ele>
        <time>2021-02-27T07:13:12Z</time>
      </trkpt>
      <trkpt lat="45.15498" lon="5.95638">
        <ele>2636.6</ele>
        <time>2021-02-27T07:13:13Z</time>
      </trkpt>
      <trkpt lat="45.15498" lon="5.95638">
        <ele>2636.6</ele>
        <time>2021-02-27T07:13:14Z</time>
      </trkpt>
      <trkpt lat="45.155" lon="5.9564">
        <ele>2636.8</ele>
        <time>2021-02-27T07:13:15Z</time>
      </trkpt>
      <trkpt lat="45.155" lon="5.9564">
        <ele>2637.2</ele>
        <time>2021-02-27T07:13:16Z</time>
      </trkpt>
      <trkpt lat="45.155" lon="5.9564">
        <ele>2637.4</ele>
        <time>2021-02-27T07:13:17Z</time>
      </trkpt>
      <trkpt lat="45.15502" lon="5.95642">
        <ele>2637.4</ele>
        <time>2021-02-27T07:13:18Z</time>
      </trkpt>
      <trkpt lat="45.15502" lon="5.95642">
        <ele>2637.8</ele>
        <time>2021-02-27T07:13:19Z</time>
      </trkpt>
      <trkpt lat="45.15504" lon="5.95643">
        <ele>2637.8</ele>
        <time>2021-02-27T07:13:20Z</time>
      </trkpt>
      <trkpt lat="45.15504" lon="5.95643">
        <ele>2638</ele>
        <time>2021-02-27T07:13:21Z</time>
      </trkpt>
      <trkpt lat="45.15506" lon="5.95644">
        <ele>2638.4</ele>
        <time>2021-02-27T07:13:22Z</time>
      </trkpt>
      <trkpt lat="45.15506" lon="5.95644">
        <ele>2638.6</ele>
        <time>2021-02-27T07:13:23Z</time>
      </trkpt>
      <trkpt lat="45.15508" lon="5.95645">
        <ele>2638.6</ele>
        <time>2021-02-27T07:13:24Z</time>
      </trkpt>
      <trkpt lat="45.15508" lon="5.95645">
        <ele>2639.2</ele>
        <time>2021-02-27T07:13:25Z</time>
      </trkpt>
      <trkpt lat="45.1551" lon="5.95647">
        <ele>2639.8</ele>
        <time>2021-02-27T07:13:26Z</time>
      </trkpt>
      <trkpt lat="45.1551" lon="5.95647">
        <ele>2640</ele>
        <time>2021-02-27T07:13:27Z</time>
      </trkpt>
      <trkpt lat="45.15511" lon="5.95649">
        <ele>2640.8</ele>
        <time>2021-02-27T07:13:28Z</time>
      </trkpt>
      <trkpt lat="45.15511" lon="5.95649">
        <ele>2641</ele>
        <time>2021-02-27T07:13:29Z</time>
      </trkpt>
      <trkpt lat="45.15514" lon="5.9565">
        <ele>2641.2</ele>
        <time>2021-02-27T07:13:30Z</time>
      </trkpt>
      <trkpt lat="45.15514" lon="5.9565">
        <ele>2641.4</ele>
        <time>2021-02-27T07:13:31Z</time>
      </trkpt>
      <trkpt lat="45.15515" lon="5.95652">
        <ele>2641.8</ele>
        <time>2021-02-27T07:13:32Z</time>
      </trkpt>
      <trkpt lat="45.15515" lon="5.95652">
        <ele>2642.4</ele>
        <time>2021-02-27T07:13:33Z</time>
      </trkpt>
      <trkpt lat="45.15517" lon="5.95654">
        <ele>2642.6</ele>
        <time>2021-02-27T07:13:34Z</time>
      </trkpt>
      <trkpt lat="45.15517" lon="5.95654">
        <ele>2642.8</ele>
        <time>2021-02-27T07:13:35Z</time>
      </trkpt>
      <trkpt lat="45.15519" lon="5.95656">
        <ele>2644</ele>
        <time>2021-02-27T07:13:36Z</time>
      </trkpt>
      <trkpt lat="45.15519" lon="5.95656">
        <ele>2644.8</ele>
        <time>2021-02-27T07:13:37Z</time>
      </trkpt>
      <trkpt lat="45.15521" lon="5.95657">
        <ele>2644.4</ele>
        <time>2021-02-27T07:13:38Z</time>
      </trkpt>
      <trkpt lat="45.15521" lon="5.95657">
        <ele>2645</ele>
        <time>2021-02-27T07:13:39Z</time>
      </trkpt>
      <trkpt lat="45.15522" lon="5.9566">
        <ele>2645.4</ele>
        <time>2021-02-27T07:13:40Z</time>
      </trkpt>
      <trkpt lat="45.15522" lon="5.9566">
        <ele>2645.8</ele>
        <time>2021-02-27T07:13:41Z</time>
      </trkpt>
      <trkpt lat="45.15525" lon="5.95661">
        <ele>2646</ele>
        <time>2021-02-27T07:13:42Z</time>
      </trkpt>
      <trkpt lat="45.15525" lon="5.95661">
        <ele>2646</ele>
        <time>2021-02-27T07:13:43Z</time>
      </trkpt>
      <trkpt lat="45.15527" lon="5.95662">
        <ele>2646.2</ele>
        <time>2021-02-27T07:13:44Z</time>
      </trkpt>
      <trkpt lat="45.15527" lon="5.95662">
        <ele>2646.4</ele>
        <time>2021-02-27T07:13:45Z</time>
      </trkpt>
      <trkpt lat="45.15528" lon="5.95664">
        <ele>2646.4</ele>
        <time>2021-02-27T07:13:46Z</time>
      </trkpt>
      <trkpt lat="45.15528" lon="5.95664">
        <ele>2646.6</ele>
        <time>2021-02-27T07:13:47Z</time>
      </trkpt>
      <trkpt lat="45.15528" lon="5.95664">
        <ele>2646.6</ele>
        <time>2021-02-27T07:13:48Z</time>
      </trkpt>
      <trkpt lat="45.1553" lon="5.95666">
        <ele>2647</ele>
        <time>2021-02-27T07:13:49Z</time>
      </trkpt>
      <trkpt lat="45.1553" lon="5.95666">
        <ele>2647.2</ele>
        <time>2021-02-27T07:13:50Z</time>
      </trkpt>
      <trkpt lat="45.15532" lon="5.95668">
        <ele>2647.4</ele>
        <time>2021-02-27T07:13:51Z</time>
      </trkpt>
      <trkpt lat="45.15532" lon="5.95668">
        <ele>2648.6</ele>
        <time>2021-02-27T07:13:52Z</time>
      </trkpt>
      <trkpt lat="45.15532" lon="5.95668">
        <ele>2648.8</ele>
        <time>2021-02-27T07:13:53Z</time>
      </trkpt>
      <trkpt lat="45.15534" lon="5.9567">
        <ele>2649.2</ele>
        <time>2021-02-27T07:13:54Z</time>
      </trkpt>
      <trkpt lat="45.15534" lon="5.9567">
        <ele>2650</ele>
        <time>2021-02-27T07:13:55Z</time>
      </trkpt>
      <trkpt lat="45.15535" lon="5.95672">
        <ele>2650</ele>
        <time>2021-02-27T07:13:56Z</time>
      </trkpt>
      <trkpt lat="45.15535" lon="5.95672">
        <ele>2650</ele>
        <time>2021-02-27T07:13:57Z</time>
      </trkpt>
      <trkpt lat="45.15537" lon="5.95673">
        <ele>2650.2</ele>
        <time>2021-02-27T07:13:58Z</time>
      </trkpt>
      <trkpt lat="45.15537" lon="5.95673">
        <ele>2650</ele>
        <time>2021-02-27T07:13:59Z</time>
      </trkpt>
      <trkpt lat="45.15539" lon="5.95675">
        <ele>2649.8</ele>
        <time>2021-02-27T07:14:00Z</time>
      </trkpt>
      <trkpt lat="45.15539" lon="5.95675">
        <ele>2650.6</ele>
        <time>2021-02-27T07:14:01Z</time>
      </trkpt>
      <trkpt lat="45.15541" lon="5.95677">
        <ele>2650.6</ele>
        <time>2021-02-27T07:14:02Z</time>
      </trkpt>
      <trkpt lat="45.15541" lon="5.95677">
        <ele>2651.2</ele>
        <time>2021-02-27T07:14:03Z</time>
      </trkpt>
      <trkpt lat="45.15543" lon="5.95678">
        <ele>2651</ele>
        <time>2021-02-27T07:14:04Z</time>
      </trkpt>
      <trkpt lat="45.15543" lon="5.95678">
        <ele>2651.2</ele>
        <time>2021-02-27T07:14:05Z</time>
      </trkpt>
      <trkpt lat="45.15544" lon="5.95679">
        <ele>2651.6</ele>
        <time>2021-02-27T07:14:06Z</time>
      </trkpt>
      <trkpt lat="45.15544" lon="5.95679">
        <ele>2652.2</ele>
        <time>2021-02-27T07:14:07Z</time>
      </trkpt>
      <trkpt lat="45.15544" lon="5.95679">
        <ele>2652.2</ele>
        <time>2021-02-27T07:14:08Z</time>
      </trkpt>
      <trkpt lat="45.15546" lon="5.95681">
        <ele>2652.4</ele>
        <time>2021-02-27T07:14:09Z</time>
      </trkpt>
      <trkpt lat="45.15546" lon="5.95681">
        <ele>2652.4</ele>
        <time>2021-02-27T07:14:10Z</time>
      </trkpt>
      <trkpt lat="45.15549" lon="5.95682">
        <ele>2652</ele>
        <time>2021-02-27T07:14:11Z</time>
      </trkpt>
      <trkpt lat="45.15549" lon="5.95682">
        <ele>2652.8</ele>
        <time>2021-02-27T07:14:12Z</time>
      </trkpt>
      <trkpt lat="45.15549" lon="5.95683">
        <ele>2653.4</ele>
        <time>2021-02-27T07:14:13Z</time>
      </trkpt>
      <trkpt lat="45.1555" lon="5.95683">
        <ele>2653.4</ele>
        <time>2021-02-27T07:14:14Z</time>
      </trkpt>
      <trkpt lat="45.15551" lon="5.95683">
        <ele>2653.8</ele>
        <time>2021-02-27T07:14:15Z</time>
      </trkpt>
      <trkpt lat="45.15552" lon="5.95684">
        <ele>2654</ele>
        <time>2021-02-27T07:14:16Z</time>
      </trkpt>
      <trkpt lat="45.15553" lon="5.95684">
        <ele>2654.2</ele>
        <time>2021-02-27T07:14:17Z</time>
      </trkpt>
      <trkpt lat="45.15554" lon="5.95685">
        <ele>2654.6</ele>
        <time>2021-02-27T07:14:18Z</time>
      </trkpt>
      <trkpt lat="45.15555" lon="5.95686">
        <ele>2655</ele>
        <time>2021-02-27T07:14:19Z</time>
      </trkpt>
      <trkpt lat="45.15556" lon="5.95687">
        <ele>2655.6</ele>
        <time>2021-02-27T07:14:20Z</time>
      </trkpt>
      <trkpt lat="45.15557" lon="5.95687">
        <ele>2655.4</ele>
        <time>2021-02-27T07:14:21Z</time>
      </trkpt>
      <trkpt lat="45.15558" lon="5.95688">
        <ele>2655.8</ele>
        <time>2021-02-27T07:14:22Z</time>
      </trkpt>
      <trkpt lat="45.1556" lon="5.95689">
        <ele>2656.8</ele>
        <time>2021-02-27T07:14:23Z</time>
      </trkpt>
      <trkpt lat="45.1556" lon="5.95689">
        <ele>2656.4</ele>
        <time>2021-02-27T07:14:24Z</time>
      </trkpt>
      <trkpt lat="45.15562" lon="5.9569">
        <ele>2656</ele>
        <time>2021-02-27T07:14:25Z</time>
      </trkpt>
      <trkpt lat="45.15562" lon="5.9569">
        <ele>2656.6</ele>
        <time>2021-02-27T07:14:26Z</time>
      </trkpt>
      <trkpt lat="45.15562" lon="5.9569">
        <ele>2656.6</ele>
        <time>2021-02-27T07:14:27Z</time>
      </trkpt>
      <trkpt lat="45.15564" lon="5.95691">
        <ele>2656.6</ele>
        <time>2021-02-27T07:14:28Z</time>
      </trkpt>
      <trkpt lat="45.15564" lon="5.95691">
        <ele>2656.6</ele>
        <time>2021-02-27T07:14:29Z</time>
      </trkpt>
      <trkpt lat="45.15566" lon="5.95693">
        <ele>2656.6</ele>
        <time>2021-02-27T07:14:30Z</time>
      </trkpt>
      <trkpt lat="45.15566" lon="5.95693">
        <ele>2657.2</ele>
        <time>2021-02-27T07:14:31Z</time>
      </trkpt>
      <trkpt lat="45.15568" lon="5.95695">
        <ele>2656.8</ele>
        <time>2021-02-27T07:14:32Z</time>
      </trkpt>
      <trkpt lat="45.15568" lon="5.95695">
        <ele>2656.8</ele>
        <time>2021-02-27T07:14:33Z</time>
      </trkpt>
      <trkpt lat="45.15569" lon="5.95697">
        <ele>2657.6</ele>
        <time>2021-02-27T07:14:34Z</time>
      </trkpt>
      <trkpt lat="45.15569" lon="5.95697">
        <ele>2657.6</ele>
        <time>2021-02-27T07:14:35Z</time>
      </trkpt>
      <trkpt lat="45.15572" lon="5.95698">
        <ele>2657.4</ele>
        <time>2021-02-27T07:14:36Z</time>
      </trkpt>
      <trkpt lat="45.15572" lon="5.95698">
        <ele>2657.8</ele>
        <time>2021-02-27T07:14:37Z</time>
      </trkpt>
      <trkpt lat="45.15574" lon="5.95701">
        <ele>2657.6</ele>
        <time>2021-02-27T07:14:38Z</time>
      </trkpt>
      <trkpt lat="45.15574" lon="5.95701">
        <ele>2658</ele>
        <time>2021-02-27T07:14:39Z</time>
      </trkpt>
      <trkpt lat="45.15575" lon="5.95702">
        <ele>2658.4</ele>
        <time>2021-02-27T07:14:40Z</time>
      </trkpt>
      <trkpt lat="45.15575" lon="5.95702">
        <ele>2658.4</ele>
        <time>2021-02-27T07:14:41Z</time>
      </trkpt>
      <trkpt lat="45.15577" lon="5.95705">
        <ele>2659</ele>
        <time>2021-02-27T07:14:42Z</time>
      </trkpt>
      <trkpt lat="45.15577" lon="5.95705">
        <ele>2659</ele>
        <time>2021-02-27T07:14:43Z</time>
      </trkpt>
      <trkpt lat="45.15578" lon="5.95706">
        <ele>2659</ele>
        <time>2021-02-27T07:14:44Z</time>
      </trkpt>
      <trkpt lat="45.15579" lon="5.95707">
        <ele>2659.6</ele>
        <time>2021-02-27T07:14:45Z</time>
      </trkpt>
      <trkpt lat="45.1558" lon="5.95709">
        <ele>2659.6</ele>
        <time>2021-02-27T07:14:46Z</time>
      </trkpt>
      <trkpt lat="45.1558" lon="5.9571">
        <ele>2659.6</ele>
        <time>2021-02-27T07:14:47Z</time>
      </trkpt>
      <trkpt lat="45.1558" lon="5.9571">
        <ele>2660.2</ele>
        <time>2021-02-27T07:14:48Z</time>
      </trkpt>
      <trkpt lat="45.1558" lon="5.9571">
        <ele>2660.4</ele>
        <time>2021-02-27T07:14:49Z</time>
      </trkpt>
      <trkpt lat="45.15583" lon="5.95714">
        <ele>2660.8</ele>
        <time>2021-02-27T07:14:50Z</time>
      </trkpt>
      <trkpt lat="45.15583" lon="5.95714">
        <ele>2661</ele>
        <time>2021-02-27T07:14:51Z</time>
      </trkpt>
      <trkpt lat="45.15584" lon="5.95714">
        <ele>2661</ele>
        <time>2021-02-27T07:14:52Z</time>
      </trkpt>
      <trkpt lat="45.15585" lon="5.95715">
        <ele>2661.6</ele>
        <time>2021-02-27T07:14:53Z</time>
      </trkpt>
      <trkpt lat="45.15586" lon="5.95716">
        <ele>2661.6</ele>
        <time>2021-02-27T07:14:54Z</time>
      </trkpt>
      <trkpt lat="45.15587" lon="5.95717">
        <ele>2661.6</ele>
        <time>2021-02-27T07:14:55Z</time>
      </trkpt>
      <trkpt lat="45.15589" lon="5.95718">
        <ele>2662.2</ele>
        <time>2021-02-27T07:14:56Z</time>
      </trkpt>
      <trkpt lat="45.1559" lon="5.95719">
        <ele>2662.4</ele>
        <time>2021-02-27T07:14:57Z</time>
      </trkpt>
      <trkpt lat="45.15591" lon="5.95721">
        <ele>2663</ele>
        <time>2021-02-27T07:14:58Z</time>
      </trkpt>
      <trkpt lat="45.15591" lon="5.95721">
        <ele>2663.4</ele>
        <time>2021-02-27T07:14:59Z</time>
      </trkpt>
      <trkpt lat="45.15591" lon="5.95721">
        <ele>2663.8</ele>
        <time>2021-02-27T07:15:00Z</time>
      </trkpt>
      <trkpt lat="45.15591" lon="5.95721">
        <ele>2664.6</ele>
        <time>2021-02-27T07:15:01Z</time>
      </trkpt>
      <trkpt lat="45.15592" lon="5.95727">
        <ele>2664.6</ele>
        <time>2021-02-27T07:15:02Z</time>
      </trkpt>
      <trkpt lat="45.15592" lon="5.95727">
        <ele>2665</ele>
        <time>2021-02-27T07:15:03Z</time>
      </trkpt>
      <trkpt lat="45.15592" lon="5.95727">
        <ele>2665.4</ele>
        <time>2021-02-27T07:15:04Z</time>
      </trkpt>
      <trkpt lat="45.15592" lon="5.9573">
        <ele>2665.6</ele>
        <time>2021-02-27T07:15:05Z</time>
      </trkpt>
      <trkpt lat="45.15592" lon="5.9573">
        <ele>2665.8</ele>
        <time>2021-02-27T07:15:06Z</time>
      </trkpt>
      <trkpt lat="45.15592" lon="5.9573">
        <ele>2666.2</ele>
        <time>2021-02-27T07:15:07Z</time>
      </trkpt>
      <trkpt lat="45.15594" lon="5.95733">
        <ele>2666</ele>
        <time>2021-02-27T07:15:08Z</time>
      </trkpt>
      <trkpt lat="45.15594" lon="5.95733">
        <ele>2665.8</ele>
        <time>2021-02-27T07:15:09Z</time>
      </trkpt>
      <trkpt lat="45.15597" lon="5.95734">
        <ele>2666.6</ele>
        <time>2021-02-27T07:15:10Z</time>
      </trkpt>
      <trkpt lat="45.15597" lon="5.95734">
        <ele>2666.8</ele>
        <time>2021-02-27T07:15:11Z</time>
      </trkpt>
      <trkpt lat="45.15598" lon="5.95735">
        <ele>2666.6</ele>
        <time>2021-02-27T07:15:12Z</time>
      </trkpt>
      <trkpt lat="45.15598" lon="5.95735">
        <ele>2667</ele>
        <time>2021-02-27T07:15:13Z</time>
      </trkpt>
      <trkpt lat="45.15601" lon="5.95738">
        <ele>2667</ele>
        <time>2021-02-27T07:15:14Z</time>
      </trkpt>
      <trkpt lat="45.15601" lon="5.95738">
        <ele>2667.2</ele>
        <time>2021-02-27T07:15:15Z</time>
      </trkpt>
      <trkpt lat="45.15602" lon="5.9574">
        <ele>2667.6</ele>
        <time>2021-02-27T07:15:16Z</time>
      </trkpt>
      <trkpt lat="45.15602" lon="5.9574">
        <ele>2667.6</ele>
        <time>2021-02-27T07:15:17Z</time>
      </trkpt>
      <trkpt lat="45.15602" lon="5.9574">
        <ele>2667.8</ele>
        <time>2021-02-27T07:15:18Z</time>
      </trkpt>
      <trkpt lat="45.15603" lon="5.95743">
        <ele>2668.4</ele>
        <time>2021-02-27T07:15:19Z</time>
      </trkpt>
      <trkpt lat="45.15603" lon="5.95743">
        <ele>2668.2</ele>
        <time>2021-02-27T07:15:20Z</time>
      </trkpt>
      <trkpt lat="45.15605" lon="5.95745">
        <ele>2668.8</ele>
        <time>2021-02-27T07:15:21Z</time>
      </trkpt>
      <trkpt lat="45.15605" lon="5.95745">
        <ele>2669.2</ele>
        <time>2021-02-27T07:15:22Z</time>
      </trkpt>
      <trkpt lat="45.15607" lon="5.95748">
        <ele>2669.2</ele>
        <time>2021-02-27T07:15:23Z</time>
      </trkpt>
      <trkpt lat="45.15607" lon="5.95748">
        <ele>2669.4</ele>
        <time>2021-02-27T07:15:24Z</time>
      </trkpt>
      <trkpt lat="45.15607" lon="5.95748">
        <ele>2669.8</ele>
        <time>2021-02-27T07:15:25Z</time>
      </trkpt>
      <trkpt lat="45.15609" lon="5.9575">
        <ele>2669.6</ele>
        <time>2021-02-27T07:15:26Z</time>
      </trkpt>
      <trkpt lat="45.15609" lon="5.9575">
        <ele>2669.6</ele>
        <time>2021-02-27T07:15:27Z</time>
      </trkpt>
      <trkpt lat="45.15609" lon="5.9575">
        <ele>2669.8</ele>
        <time>2021-02-27T07:15:28Z</time>
      </trkpt>
      <trkpt lat="45.1561" lon="5.95753">
        <ele>2670</ele>
        <time>2021-02-27T07:15:29Z</time>
      </trkpt>
      <trkpt lat="45.1561" lon="5.95753">
        <ele>2670.4</ele>
        <time>2021-02-27T07:15:30Z</time>
      </trkpt>
      <trkpt lat="45.15612" lon="5.95756">
        <ele>2670.4</ele>
        <time>2021-02-27T07:15:31Z</time>
      </trkpt>
      <trkpt lat="45.15612" lon="5.95756">
        <ele>2671</ele>
        <time>2021-02-27T07:15:32Z</time>
      </trkpt>
      <trkpt lat="45.15613" lon="5.95758">
        <ele>2671.2</ele>
        <time>2021-02-27T07:15:33Z</time>
      </trkpt>
      <trkpt lat="45.15613" lon="5.95758">
        <ele>2671.2</ele>
        <time>2021-02-27T07:15:34Z</time>
      </trkpt>
      <trkpt lat="45.15614" lon="5.95761">
        <ele>2671.8</ele>
        <time>2021-02-27T07:15:35Z</time>
      </trkpt>
      <trkpt lat="45.15614" lon="5.95761">
        <ele>2671.8</ele>
        <time>2021-02-27T07:15:36Z</time>
      </trkpt>
      <trkpt lat="45.15616" lon="5.95763">
        <ele>2672</ele>
        <time>2021-02-27T07:15:37Z</time>
      </trkpt>
      <trkpt lat="45.15616" lon="5.95763">
        <ele>2672.4</ele>
        <time>2021-02-27T07:15:38Z</time>
      </trkpt>
      <trkpt lat="45.15616" lon="5.95766">
        <ele>2672.4</ele>
        <time>2021-02-27T07:15:39Z</time>
      </trkpt>
      <trkpt lat="45.15616" lon="5.95766">
        <ele>2672.6</ele>
        <time>2021-02-27T07:15:40Z</time>
      </trkpt>
      <trkpt lat="45.15617" lon="5.95769">
        <ele>2673.2</ele>
        <time>2021-02-27T07:15:41Z</time>
      </trkpt>
      <trkpt lat="45.15617" lon="5.95769">
        <ele>2673</ele>
        <time>2021-02-27T07:15:42Z</time>
      </trkpt>
      <trkpt lat="45.15617" lon="5.95773">
        <ele>2673.8</ele>
        <time>2021-02-27T07:15:43Z</time>
      </trkpt>
      <trkpt lat="45.15617" lon="5.95773">
        <ele>2673.8</ele>
        <time>2021-02-27T07:15:44Z</time>
      </trkpt>
      <trkpt lat="45.15618" lon="5.95776">
        <ele>2674</ele>
        <time>2021-02-27T07:15:45Z</time>
      </trkpt>
      <trkpt lat="45.15618" lon="5.95776">
        <ele>2674.4</ele>
        <time>2021-02-27T07:15:46Z</time>
      </trkpt>
      <trkpt lat="45.15618" lon="5.95779">
        <ele>2674</ele>
        <time>2021-02-27T07:15:47Z</time>
      </trkpt>
      <trkpt lat="45.15618" lon="5.95779">
        <ele>2674.2</ele>
        <time>2021-02-27T07:15:48Z</time>
      </trkpt>
      <trkpt lat="45.15618" lon="5.95782">
        <ele>2674</ele>
        <time>2021-02-27T07:15:49Z</time>
      </trkpt>
      <trkpt lat="45.15618" lon="5.95782">
        <ele>2673.8</ele>
        <time>2021-02-27T07:15:50Z</time>
      </trkpt>
      <trkpt lat="45.15618" lon="5.95785">
        <ele>2674</ele>
        <time>2021-02-27T07:15:51Z</time>
      </trkpt>
      <trkpt lat="45.15618" lon="5.95785">
        <ele>2674.2</ele>
        <time>2021-02-27T07:15:52Z</time>
      </trkpt>
      <trkpt lat="45.15618" lon="5.95789">
        <ele>2674.6</ele>
        <time>2021-02-27T07:15:53Z</time>
      </trkpt>
      <trkpt lat="45.15618" lon="5.95789">
        <ele>2674.6</ele>
        <time>2021-02-27T07:15:54Z</time>
      </trkpt>
      <trkpt lat="45.15618" lon="5.95793">
        <ele>2674.2</ele>
        <time>2021-02-27T07:15:55Z</time>
      </trkpt>
      <trkpt lat="45.15618" lon="5.95793">
        <ele>2673.8</ele>
        <time>2021-02-27T07:15:56Z</time>
      </trkpt>
      <trkpt lat="45.15618" lon="5.95797">
        <ele>2673.6</ele>
        <time>2021-02-27T07:15:57Z</time>
      </trkpt>
      <trkpt lat="45.15618" lon="5.95797">
        <ele>2673.6</ele>
        <time>2021-02-27T07:15:58Z</time>
      </trkpt>
      <trkpt lat="45.15619" lon="5.95799">
        <ele>2673.2</ele>
        <time>2021-02-27T07:15:59Z</time>
      </trkpt>
      <trkpt lat="45.15619" lon="5.95799">
        <ele>2673.2</ele>
        <time>2021-02-27T07:16:00Z</time>
      </trkpt>
      <trkpt lat="45.1562" lon="5.95803">
        <ele>2673.6</ele>
        <time>2021-02-27T07:16:01Z</time>
      </trkpt>
      <trkpt lat="45.1562" lon="5.95803">
        <ele>2673.4</ele>
        <time>2021-02-27T07:16:02Z</time>
      </trkpt>
      <trkpt lat="45.1562" lon="5.95807">
        <ele>2673.8</ele>
        <time>2021-02-27T07:16:03Z</time>
      </trkpt>
      <trkpt lat="45.1562" lon="5.95807">
        <ele>2673.6</ele>
        <time>2021-02-27T07:16:04Z</time>
      </trkpt>
      <trkpt lat="45.15621" lon="5.95811">
        <ele>2673.4</ele>
        <time>2021-02-27T07:16:05Z</time>
      </trkpt>
      <trkpt lat="45.15621" lon="5.95811">
        <ele>2673.8</ele>
        <time>2021-02-27T07:16:06Z</time>
      </trkpt>
      <trkpt lat="45.15622" lon="5.95815">
        <ele>2673.6</ele>
        <time>2021-02-27T07:16:07Z</time>
      </trkpt>
      <trkpt lat="45.15622" lon="5.95815">
        <ele>2673.8</ele>
        <time>2021-02-27T07:16:08Z</time>
      </trkpt>
      <trkpt lat="45.15623" lon="5.9582">
        <ele>2674</ele>
        <time>2021-02-27T07:16:09Z</time>
      </trkpt>
      <trkpt lat="45.15623" lon="5.9582">
        <ele>2673.8</ele>
        <time>2021-02-27T07:16:10Z</time>
      </trkpt>
      <trkpt lat="45.15624" lon="5.95824">
        <ele>2674.6</ele>
        <time>2021-02-27T07:16:11Z</time>
      </trkpt>
      <trkpt lat="45.15624" lon="5.95824">
        <ele>2674.4</ele>
        <time>2021-02-27T07:16:12Z</time>
      </trkpt>
      <trkpt lat="45.15625" lon="5.95828">
        <ele>2674.8</ele>
        <time>2021-02-27T07:16:13Z</time>
      </trkpt>
      <trkpt lat="45.15625" lon="5.95828">
        <ele>2674.8</ele>
        <time>2021-02-27T07:16:14Z</time>
      </trkpt>
      <trkpt lat="45.15624" lon="5.95833">
        <ele>2674.8</ele>
        <time>2021-02-27T07:16:15Z</time>
      </trkpt>
      <trkpt lat="45.15624" lon="5.95833">
        <ele>2675</ele>
        <time>2021-02-27T07:16:16Z</time>
      </trkpt>
      <trkpt lat="45.15623" lon="5.95835">
        <ele>2675</ele>
        <time>2021-02-27T07:16:17Z</time>
      </trkpt>
      <trkpt lat="45.15623" lon="5.95835">
        <ele>2675.4</ele>
        <time>2021-02-27T07:16:18Z</time>
      </trkpt>
      <trkpt lat="45.15623" lon="5.95838">
        <ele>2675.6</ele>
        <time>2021-02-27T07:16:19Z</time>
      </trkpt>
      <trkpt lat="45.15623" lon="5.95838">
        <ele>2675.8</ele>
        <time>2021-02-27T07:16:20Z</time>
      </trkpt>
      <trkpt lat="45.15623" lon="5.95842">
        <ele>2676.4</ele>
        <time>2021-02-27T07:16:21Z</time>
      </trkpt>
      <trkpt lat="45.15623" lon="5.95842">
        <ele>2676.2</ele>
        <time>2021-02-27T07:16:22Z</time>
      </trkpt>
      <trkpt lat="45.15623" lon="5.95845">
        <ele>2676.6</ele>
        <time>2021-02-27T07:16:23Z</time>
      </trkpt>
      <trkpt lat="45.15623" lon="5.95845">
        <ele>2677</ele>
        <time>2021-02-27T07:16:24Z</time>
      </trkpt>
      <trkpt lat="45.15623" lon="5.95849">
        <ele>2676.8</ele>
        <time>2021-02-27T07:16:25Z</time>
      </trkpt>
      <trkpt lat="45.15623" lon="5.95849">
        <ele>2677.2</ele>
        <time>2021-02-27T07:16:26Z</time>
      </trkpt>
      <trkpt lat="45.15624" lon="5.95852">
        <ele>2677.2</ele>
        <time>2021-02-27T07:16:27Z</time>
      </trkpt>
      <trkpt lat="45.15624" lon="5.95852">
        <ele>2677.2</ele>
        <time>2021-02-27T07:16:28Z</time>
      </trkpt>
      <trkpt lat="45.15623" lon="5.95856">
        <ele>2677.6</ele>
        <time>2021-02-27T07:16:29Z</time>
      </trkpt>
      <trkpt lat="45.15623" lon="5.95856">
        <ele>2677.4</ele>
        <time>2021-02-27T07:16:30Z</time>
      </trkpt>
      <trkpt lat="45.15623" lon="5.95858">
        <ele>2677.8</ele>
        <time>2021-02-27T07:16:31Z</time>
      </trkpt>
      <trkpt lat="45.15623" lon="5.95858">
        <ele>2678</ele>
        <time>2021-02-27T07:16:32Z</time>
      </trkpt>
      <trkpt lat="45.15623" lon="5.95861">
        <ele>2678</ele>
        <time>2021-02-27T07:16:33Z</time>
      </trkpt>
      <trkpt lat="45.15623" lon="5.95861">
        <ele>2678.4</ele>
        <time>2021-02-27T07:16:34Z</time>
      </trkpt>
      <trkpt lat="45.15623" lon="5.95864">
        <ele>2678.2</ele>
        <time>2021-02-27T07:16:35Z</time>
      </trkpt>
      <trkpt lat="45.15623" lon="5.95864">
        <ele>2678.2</ele>
        <time>2021-02-27T07:16:36Z</time>
      </trkpt>
      <trkpt lat="45.15623" lon="5.95867">
        <ele>2678.8</ele>
        <time>2021-02-27T07:16:37Z</time>
      </trkpt>
      <trkpt lat="45.15623" lon="5.95867">
        <ele>2678.6</ele>
        <time>2021-02-27T07:16:38Z</time>
      </trkpt>
      <trkpt lat="45.15623" lon="5.9587">
        <ele>2679.2</ele>
        <time>2021-02-27T07:16:39Z</time>
      </trkpt>
      <trkpt lat="45.15623" lon="5.9587">
        <ele>2679.8</ele>
        <time>2021-02-27T07:16:40Z</time>
      </trkpt>
      <trkpt lat="45.15623" lon="5.95873">
        <ele>2679.8</ele>
        <time>2021-02-27T07:16:41Z</time>
      </trkpt>
      <trkpt lat="45.15623" lon="5.95873">
        <ele>2680.2</ele>
        <time>2021-02-27T07:16:42Z</time>
      </trkpt>
      <trkpt lat="45.15623" lon="5.95876">
        <ele>2680.2</ele>
        <time>2021-02-27T07:16:43Z</time>
      </trkpt>
      <trkpt lat="45.15623" lon="5.95876">
        <ele>2680.4</ele>
        <time>2021-02-27T07:16:44Z</time>
      </trkpt>
      <trkpt lat="45.15624" lon="5.95879">
        <ele>2681.2</ele>
        <time>2021-02-27T07:16:45Z</time>
      </trkpt>
      <trkpt lat="45.15624" lon="5.95879">
        <ele>2680.8</ele>
        <time>2021-02-27T07:16:46Z</time>
      </trkpt>
      <trkpt lat="45.15625" lon="5.95882">
        <ele>2681.4</ele>
        <time>2021-02-27T07:16:47Z</time>
      </trkpt>
      <trkpt lat="45.15625" lon="5.95882">
        <ele>2681.2</ele>
        <time>2021-02-27T07:16:48Z</time>
      </trkpt>
      <trkpt lat="45.15625" lon="5.95882">
        <ele>2681.2</ele>
        <time>2021-02-27T07:16:49Z</time>
      </trkpt>
      <trkpt lat="45.15625" lon="5.95885">
        <ele>2681.4</ele>
        <time>2021-02-27T07:16:50Z</time>
      </trkpt>
      <trkpt lat="45.15625" lon="5.95885">
        <ele>2681.8</ele>
        <time>2021-02-27T07:16:51Z</time>
      </trkpt>
      <trkpt lat="45.15627" lon="5.95886">
        <ele>2682.2</ele>
        <time>2021-02-27T07:16:52Z</time>
      </trkpt>
      <trkpt lat="45.15627" lon="5.95886">
        <ele>2682.4</ele>
        <time>2021-02-27T07:16:53Z</time>
      </trkpt>
      <trkpt lat="45.15629" lon="5.95889">
        <ele>2682.8</ele>
        <time>2021-02-27T07:16:54Z</time>
      </trkpt>
      <trkpt lat="45.15629" lon="5.95889">
        <ele>2683.2</ele>
        <time>2021-02-27T07:16:55Z</time>
      </trkpt>
      <trkpt lat="45.15629" lon="5.95889">
        <ele>2683.2</ele>
        <time>2021-02-27T07:16:56Z</time>
      </trkpt>
      <trkpt lat="45.1563" lon="5.95892">
        <ele>2683.4</ele>
        <time>2021-02-27T07:16:57Z</time>
      </trkpt>
      <trkpt lat="45.1563" lon="5.95892">
        <ele>2684</ele>
        <time>2021-02-27T07:16:58Z</time>
      </trkpt>
      <trkpt lat="45.15631" lon="5.95894">
        <ele>2684</ele>
        <time>2021-02-27T07:16:59Z</time>
      </trkpt>
      <trkpt lat="45.15631" lon="5.95894">
        <ele>2684.2</ele>
        <time>2021-02-27T07:17:00Z</time>
      </trkpt>
      <trkpt lat="45.15634" lon="5.95895">
        <ele>2684.6</ele>
        <time>2021-02-27T07:17:01Z</time>
      </trkpt>
      <trkpt lat="45.15634" lon="5.95895">
        <ele>2685</ele>
        <time>2021-02-27T07:17:02Z</time>
      </trkpt>
      <trkpt lat="45.15634" lon="5.95895">
        <ele>2685.2</ele>
        <time>2021-02-27T07:17:03Z</time>
      </trkpt>
      <trkpt lat="45.15635" lon="5.95898">
        <ele>2685.6</ele>
        <time>2021-02-27T07:17:04Z</time>
      </trkpt>
      <trkpt lat="45.15635" lon="5.95898">
        <ele>2686.2</ele>
        <time>2021-02-27T07:17:05Z</time>
      </trkpt>
      <trkpt lat="45.15637" lon="5.959">
        <ele>2686.4</ele>
        <time>2021-02-27T07:17:06Z</time>
      </trkpt>
      <trkpt lat="45.15637" lon="5.959">
        <ele>2686.6</ele>
        <time>2021-02-27T07:17:07Z</time>
      </trkpt>
      <trkpt lat="45.15637" lon="5.95902">
        <ele>2686.8</ele>
        <time>2021-02-27T07:17:08Z</time>
      </trkpt>
      <trkpt lat="45.15637" lon="5.95902">
        <ele>2687.2</ele>
        <time>2021-02-27T07:17:09Z</time>
      </trkpt>
      <trkpt lat="45.15639" lon="5.95905">
        <ele>2687.6</ele>
        <time>2021-02-27T07:17:10Z</time>
      </trkpt>
      <trkpt lat="45.15639" lon="5.95905">
        <ele>2687.8</ele>
        <time>2021-02-27T07:17:11Z</time>
      </trkpt>
      <trkpt lat="45.1564" lon="5.95908">
        <ele>2687.8</ele>
        <time>2021-02-27T07:17:12Z</time>
      </trkpt>
      <trkpt lat="45.1564" lon="5.95908">
        <ele>2688</ele>
        <time>2021-02-27T07:17:13Z</time>
      </trkpt>
      <trkpt lat="45.15641" lon="5.9591">
        <ele>2688.4</ele>
        <time>2021-02-27T07:17:14Z</time>
      </trkpt>
      <trkpt lat="45.15641" lon="5.9591">
        <ele>2688.8</ele>
        <time>2021-02-27T07:17:15Z</time>
      </trkpt>
      <trkpt lat="45.15642" lon="5.95913">
        <ele>2689</ele>
        <time>2021-02-27T07:17:16Z</time>
      </trkpt>
      <trkpt lat="45.15642" lon="5.95913">
        <ele>2688.8</ele>
        <time>2021-02-27T07:17:17Z</time>
      </trkpt>
      <trkpt lat="45.15644" lon="5.95915">
        <ele>2689.2</ele>
        <time>2021-02-27T07:17:18Z</time>
      </trkpt>
      <trkpt lat="45.15644" lon="5.95915">
        <ele>2689.6</ele>
        <time>2021-02-27T07:17:19Z</time>
      </trkpt>
      <trkpt lat="45.15646" lon="5.95917">
        <ele>2689.8</ele>
        <time>2021-02-27T07:17:20Z</time>
      </trkpt>
      <trkpt lat="45.15646" lon="5.95917">
        <ele>2690.2</ele>
        <time>2021-02-27T07:17:21Z</time>
      </trkpt>
      <trkpt lat="45.15647" lon="5.9592">
        <ele>2690.6</ele>
        <time>2021-02-27T07:17:22Z</time>
      </trkpt>
      <trkpt lat="45.15647" lon="5.9592">
        <ele>2691</ele>
        <time>2021-02-27T07:17:23Z</time>
      </trkpt>
      <trkpt lat="45.15648" lon="5.95923">
        <ele>2691.2</ele>
        <time>2021-02-27T07:17:24Z</time>
      </trkpt>
      <trkpt lat="45.15648" lon="5.95923">
        <ele>2691.2</ele>
        <time>2021-02-27T07:17:25Z</time>
      </trkpt>
      <trkpt lat="45.15649" lon="5.95924">
        <ele>2691.2</ele>
        <time>2021-02-27T07:17:26Z</time>
      </trkpt>
      <trkpt lat="45.1565" lon="5.95925">
        <ele>2691.6</ele>
        <time>2021-02-27T07:17:27Z</time>
      </trkpt>
      <trkpt lat="45.1565" lon="5.95926">
        <ele>2691.8</ele>
        <time>2021-02-27T07:17:28Z</time>
      </trkpt>
      <trkpt lat="45.15651" lon="5.95927">
        <ele>2692</ele>
        <time>2021-02-27T07:17:29Z</time>
      </trkpt>
      <trkpt lat="45.15652" lon="5.95929">
        <ele>2692.6</ele>
        <time>2021-02-27T07:17:30Z</time>
      </trkpt>
      <trkpt lat="45.15652" lon="5.9593">
        <ele>2693.4</ele>
        <time>2021-02-27T07:17:31Z</time>
      </trkpt>
      <trkpt lat="45.15653" lon="5.95931">
        <ele>2693.4</ele>
        <time>2021-02-27T07:17:32Z</time>
      </trkpt>
      <trkpt lat="45.15654" lon="5.95932">
        <ele>2693.4</ele>
        <time>2021-02-27T07:17:33Z</time>
      </trkpt>
      <trkpt lat="45.15654" lon="5.95933">
        <ele>2693.8</ele>
        <time>2021-02-27T07:17:34Z</time>
      </trkpt>
      <trkpt lat="45.15655" lon="5.95934">
        <ele>2694.6</ele>
        <time>2021-02-27T07:17:35Z</time>
      </trkpt>
      <trkpt lat="45.15656" lon="5.95935">
        <ele>2694.6</ele>
        <time>2021-02-27T07:17:36Z</time>
      </trkpt>
      <trkpt lat="45.15657" lon="5.95936">
        <ele>2694.8</ele>
        <time>2021-02-27T07:17:37Z</time>
      </trkpt>
      <trkpt lat="45.15657" lon="5.95936">
        <ele>2695.2</ele>
        <time>2021-02-27T07:17:38Z</time>
      </trkpt>
      <trkpt lat="45.15658" lon="5.95937">
        <ele>2695.4</ele>
        <time>2021-02-27T07:17:39Z</time>
      </trkpt>
      <trkpt lat="45.15659" lon="5.95938">
        <ele>2696.2</ele>
        <time>2021-02-27T07:17:40Z</time>
      </trkpt>
      <trkpt lat="45.1566" lon="5.95939">
        <ele>2696</ele>
        <time>2021-02-27T07:17:41Z</time>
      </trkpt>
      <trkpt lat="45.1566" lon="5.9594">
        <ele>2696.4</ele>
        <time>2021-02-27T07:17:42Z</time>
      </trkpt>
      <trkpt lat="45.15661" lon="5.9594">
        <ele>2696.6</ele>
        <time>2021-02-27T07:17:43Z</time>
      </trkpt>
      <trkpt lat="45.15662" lon="5.95941">
        <ele>2696.6</ele>
        <time>2021-02-27T07:17:44Z</time>
      </trkpt>
      <trkpt lat="45.15663" lon="5.95942">
        <ele>2697</ele>
        <time>2021-02-27T07:17:45Z</time>
      </trkpt>
      <trkpt lat="45.15663" lon="5.95942">
        <ele>2697.4</ele>
        <time>2021-02-27T07:17:46Z</time>
      </trkpt>
      <trkpt lat="45.15664" lon="5.95943">
        <ele>2697.6</ele>
        <time>2021-02-27T07:17:47Z</time>
      </trkpt>
      <trkpt lat="45.15665" lon="5.95944">
        <ele>2697.8</ele>
        <time>2021-02-27T07:17:48Z</time>
      </trkpt>
      <trkpt lat="45.15665" lon="5.95944">
        <ele>2698.4</ele>
        <time>2021-02-27T07:17:49Z</time>
      </trkpt>
      <trkpt lat="45.15666" lon="5.95945">
        <ele>2698.6</ele>
        <time>2021-02-27T07:17:50Z</time>
      </trkpt>
      <trkpt lat="45.15667" lon="5.95946">
        <ele>2698.4</ele>
        <time>2021-02-27T07:17:51Z</time>
      </trkpt>
      <trkpt lat="45.15668" lon="5.95946">
        <ele>2699</ele>
        <time>2021-02-27T07:17:52Z</time>
      </trkpt>
      <trkpt lat="45.15668" lon="5.95947">
        <ele>2699.6</ele>
        <time>2021-02-27T07:17:53Z</time>
      </trkpt>
      <trkpt lat="45.15669" lon="5.95948">
        <ele>2699.4</ele>
        <time>2021-02-27T07:17:54Z</time>
      </trkpt>
      <trkpt lat="45.1567" lon="5.95948">
        <ele>2699</ele>
        <time>2021-02-27T07:17:55Z</time>
      </trkpt>
      <trkpt lat="45.15671" lon="5.95949">
        <ele>2699.2</ele>
        <time>2021-02-27T07:17:56Z</time>
      </trkpt>
      <trkpt lat="45.15672" lon="5.9595">
        <ele>2699.4</ele>
        <time>2021-02-27T07:17:57Z</time>
      </trkpt>
      <trkpt lat="45.15672" lon="5.95951">
        <ele>2699.6</ele>
        <time>2021-02-27T07:17:58Z</time>
      </trkpt>
      <trkpt lat="45.15673" lon="5.95952">
        <ele>2699.6</ele>
        <time>2021-02-27T07:17:59Z</time>
      </trkpt>
      <trkpt lat="45.15674" lon="5.95953">
        <ele>2700</ele>
        <time>2021-02-27T07:18:00Z</time>
      </trkpt>
      <trkpt lat="45.15675" lon="5.95954">
        <ele>2700.2</ele>
        <time>2021-02-27T07:18:01Z</time>
      </trkpt>
      <trkpt lat="45.15676" lon="5.95955">
        <ele>2700.2</ele>
        <time>2021-02-27T07:18:02Z</time>
      </trkpt>
      <trkpt lat="45.15677" lon="5.95956">
        <ele>2700</ele>
        <time>2021-02-27T07:18:03Z</time>
      </trkpt>
      <trkpt lat="45.15678" lon="5.95957">
        <ele>2700.2</ele>
        <time>2021-02-27T07:18:04Z</time>
      </trkpt>
      <trkpt lat="45.15679" lon="5.95957">
        <ele>2700.6</ele>
        <time>2021-02-27T07:18:05Z</time>
      </trkpt>
      <trkpt lat="45.1568" lon="5.95958">
        <ele>2700.6</ele>
        <time>2021-02-27T07:18:06Z</time>
      </trkpt>
      <trkpt lat="45.15681" lon="5.95959">
        <ele>2701</ele>
        <time>2021-02-27T07:18:07Z</time>
      </trkpt>
      <trkpt lat="45.15682" lon="5.95959">
        <ele>2701.2</ele>
        <time>2021-02-27T07:18:08Z</time>
      </trkpt>
      <trkpt lat="45.15684" lon="5.95961">
        <ele>2701.4</ele>
        <time>2021-02-27T07:18:09Z</time>
      </trkpt>
      <trkpt lat="45.15684" lon="5.95961">
        <ele>2701.4</ele>
        <time>2021-02-27T07:18:10Z</time>
      </trkpt>
      <trkpt lat="45.15685" lon="5.95962">
        <ele>2701.8</ele>
        <time>2021-02-27T07:18:11Z</time>
      </trkpt>
      <trkpt lat="45.15686" lon="5.95963">
        <ele>2702.4</ele>
        <time>2021-02-27T07:18:12Z</time>
      </trkpt>
      <trkpt lat="45.15687" lon="5.95964">
        <ele>2702</ele>
        <time>2021-02-27T07:18:13Z</time>
      </trkpt>
      <trkpt lat="45.15688" lon="5.95965">
        <ele>2702.2</ele>
        <time>2021-02-27T07:18:14Z</time>
      </trkpt>
      <trkpt lat="45.15689" lon="5.95966">
        <ele>2702.8</ele>
        <time>2021-02-27T07:18:15Z</time>
      </trkpt>
      <trkpt lat="45.15689" lon="5.95967">
        <ele>2703.2</ele>
        <time>2021-02-27T07:18:16Z</time>
      </trkpt>
      <trkpt lat="45.1569" lon="5.95968">
        <ele>2703.4</ele>
        <time>2021-02-27T07:18:17Z</time>
      </trkpt>
      <trkpt lat="45.15691" lon="5.95969">
        <ele>2703.2</ele>
        <time>2021-02-27T07:18:18Z</time>
      </trkpt>
      <trkpt lat="45.15691" lon="5.95969">
        <ele>2703.8</ele>
        <time>2021-02-27T07:18:19Z</time>
      </trkpt>
      <trkpt lat="45.15692" lon="5.9597">
        <ele>2704.2</ele>
        <time>2021-02-27T07:18:20Z</time>
      </trkpt>
      <trkpt lat="45.15694" lon="5.95972">
        <ele>2704.4</ele>
        <time>2021-02-27T07:18:21Z</time>
      </trkpt>
      <trkpt lat="45.15694" lon="5.95972">
        <ele>2704.8</ele>
        <time>2021-02-27T07:18:22Z</time>
      </trkpt>
      <trkpt lat="45.15696" lon="5.95974">
        <ele>2704.4</ele>
        <time>2021-02-27T07:18:23Z</time>
      </trkpt>
      <trkpt lat="45.15696" lon="5.95974">
        <ele>2705</ele>
        <time>2021-02-27T07:18:24Z</time>
      </trkpt>
      <trkpt lat="45.15698" lon="5.95976">
        <ele>2705.2</ele>
        <time>2021-02-27T07:18:25Z</time>
      </trkpt>
      <trkpt lat="45.15698" lon="5.95976">
        <ele>2705.4</ele>
        <time>2021-02-27T07:18:26Z</time>
      </trkpt>
      <trkpt lat="45.15699" lon="5.95977">
        <ele>2705.4</ele>
        <time>2021-02-27T07:18:27Z</time>
      </trkpt>
      <trkpt lat="45.157" lon="5.95978">
        <ele>2706.4</ele>
        <time>2021-02-27T07:18:28Z</time>
      </trkpt>
      <trkpt lat="45.157" lon="5.95979">
        <ele>2706.4</ele>
        <time>2021-02-27T07:18:29Z</time>
      </trkpt>
      <trkpt lat="45.15701" lon="5.9598">
        <ele>2707</ele>
        <time>2021-02-27T07:18:30Z</time>
      </trkpt>
      <trkpt lat="45.15702" lon="5.95981">
        <ele>2708.4</ele>
        <time>2021-02-27T07:18:31Z</time>
      </trkpt>
      <trkpt lat="45.15703" lon="5.95982">
        <ele>2708.2</ele>
        <time>2021-02-27T07:18:32Z</time>
      </trkpt>
      <trkpt lat="45.15704" lon="5.95983">
        <ele>2708</ele>
        <time>2021-02-27T07:18:33Z</time>
      </trkpt>
      <trkpt lat="45.15704" lon="5.95984">
        <ele>2707.6</ele>
        <time>2021-02-27T07:18:34Z</time>
      </trkpt>
      <trkpt lat="45.15705" lon="5.95985">
        <ele>2707.6</ele>
        <time>2021-02-27T07:18:35Z</time>
      </trkpt>
      <trkpt lat="45.15706" lon="5.95987">
        <ele>2708.2</ele>
        <time>2021-02-27T07:18:36Z</time>
      </trkpt>
      <trkpt lat="45.15707" lon="5.95988">
        <ele>2708.4</ele>
        <time>2021-02-27T07:18:37Z</time>
      </trkpt>
      <trkpt lat="45.15708" lon="5.9599">
        <ele>2707.8</ele>
        <time>2021-02-27T07:18:38Z</time>
      </trkpt>
      <trkpt lat="45.15708" lon="5.95991">
        <ele>2707.8</ele>
        <time>2021-02-27T07:18:39Z</time>
      </trkpt>
      <trkpt lat="45.15709" lon="5.95993">
        <ele>2707.6</ele>
        <time>2021-02-27T07:18:40Z</time>
      </trkpt>
      <trkpt lat="45.1571" lon="5.95994">
        <ele>2707.4</ele>
        <time>2021-02-27T07:18:41Z</time>
      </trkpt>
      <trkpt lat="45.15711" lon="5.95996">
        <ele>2707</ele>
        <time>2021-02-27T07:18:42Z</time>
      </trkpt>
      <trkpt lat="45.15712" lon="5.95997">
        <ele>2707.4</ele>
        <time>2021-02-27T07:18:43Z</time>
      </trkpt>
      <trkpt lat="45.15712" lon="5.95998">
        <ele>2707.8</ele>
        <time>2021-02-27T07:18:44Z</time>
      </trkpt>
      <trkpt lat="45.15713" lon="5.96">
        <ele>2707.8</ele>
        <time>2021-02-27T07:18:45Z</time>
      </trkpt>
      <trkpt lat="45.15713" lon="5.96001">
        <ele>2708</ele>
        <time>2021-02-27T07:18:46Z</time>
      </trkpt>
      <trkpt lat="45.15714" lon="5.96003">
        <ele>2708</ele>
        <time>2021-02-27T07:18:47Z</time>
      </trkpt>
      <trkpt lat="45.15715" lon="5.96004">
        <ele>2708.6</ele>
        <time>2021-02-27T07:18:48Z</time>
      </trkpt>
      <trkpt lat="45.15715" lon="5.96006">
        <ele>2708.8</ele>
        <time>2021-02-27T07:18:49Z</time>
      </trkpt>
      <trkpt lat="45.15716" lon="5.96008">
        <ele>2708.6</ele>
        <time>2021-02-27T07:18:50Z</time>
      </trkpt>
      <trkpt lat="45.15716" lon="5.96011">
        <ele>2708.8</ele>
        <time>2021-02-27T07:18:51Z</time>
      </trkpt>
      <trkpt lat="45.15717" lon="5.96013">
        <ele>2709.6</ele>
        <time>2021-02-27T07:18:52Z</time>
      </trkpt>
      <trkpt lat="45.15718" lon="5.96016">
        <ele>2709.6</ele>
        <time>2021-02-27T07:18:53Z</time>
      </trkpt>
      <trkpt lat="45.15719" lon="5.96018">
        <ele>2709.2</ele>
        <time>2021-02-27T07:18:54Z</time>
      </trkpt>
      <trkpt lat="45.15719" lon="5.96018">
        <ele>2708.8</ele>
        <time>2021-02-27T07:18:55Z</time>
      </trkpt>
      <trkpt lat="45.15719" lon="5.9602">
        <ele>2708.6</ele>
        <time>2021-02-27T07:18:56Z</time>
      </trkpt>
      <trkpt lat="45.15719" lon="5.96022">
        <ele>2708.8</ele>
        <time>2021-02-27T07:18:57Z</time>
      </trkpt>
      <trkpt lat="45.1572" lon="5.96025">
        <ele>2708.4</ele>
        <time>2021-02-27T07:18:58Z</time>
      </trkpt>
      <trkpt lat="45.15721" lon="5.96028">
        <ele>2708</ele>
        <time>2021-02-27T07:18:59Z</time>
      </trkpt>
      <trkpt lat="45.15721" lon="5.96028">
        <ele>2708.2</ele>
        <time>2021-02-27T07:19:00Z</time>
      </trkpt>
      <trkpt lat="45.15722" lon="5.9603">
        <ele>2708.6</ele>
        <time>2021-02-27T07:19:01Z</time>
      </trkpt>
      <trkpt lat="45.15722" lon="5.9603">
        <ele>2709.2</ele>
        <time>2021-02-27T07:19:02Z</time>
      </trkpt>
      <trkpt lat="45.15722" lon="5.9603">
        <ele>2709.4</ele>
        <time>2021-02-27T07:19:03Z</time>
      </trkpt>
      <trkpt lat="45.15725" lon="5.96031">
        <ele>2709.8</ele>
        <time>2021-02-27T07:19:04Z</time>
      </trkpt>
      <trkpt lat="45.15725" lon="5.96031">
        <ele>2710</ele>
        <time>2021-02-27T07:19:05Z</time>
      </trkpt>
      <trkpt lat="45.15727" lon="5.96033">
        <ele>2710.8</ele>
        <time>2021-02-27T07:19:06Z</time>
      </trkpt>
      <trkpt lat="45.15727" lon="5.96033">
        <ele>2710.6</ele>
        <time>2021-02-27T07:19:07Z</time>
      </trkpt>
      <trkpt lat="45.1573" lon="5.96035">
        <ele>2710.2</ele>
        <time>2021-02-27T07:19:08Z</time>
      </trkpt>
      <trkpt lat="45.1573" lon="5.96035">
        <ele>2710.4</ele>
        <time>2021-02-27T07:19:09Z</time>
      </trkpt>
      <trkpt lat="45.15733" lon="5.96038">
        <ele>2709.8</ele>
        <time>2021-02-27T07:19:10Z</time>
      </trkpt>
      <trkpt lat="45.15734" lon="5.96039">
        <ele>2709.4</ele>
        <time>2021-02-27T07:19:11Z</time>
      </trkpt>
      <trkpt lat="45.15734" lon="5.96039">
        <ele>2709</ele>
        <time>2021-02-27T07:19:12Z</time>
      </trkpt>
      <trkpt lat="45.15737" lon="5.96042">
        <ele>2709.4</ele>
        <time>2021-02-27T07:19:13Z</time>
      </trkpt>
      <trkpt lat="45.15739" lon="5.96043">
        <ele>2709.2</ele>
        <time>2021-02-27T07:19:14Z</time>
      </trkpt>
      <trkpt lat="45.15739" lon="5.96043">
        <ele>2708.4</ele>
        <time>2021-02-27T07:19:15Z</time>
      </trkpt>
      <trkpt lat="45.15741" lon="5.96046">
        <ele>2709.4</ele>
        <time>2021-02-27T07:19:16Z</time>
      </trkpt>
      <trkpt lat="45.15743" lon="5.96048">
        <ele>2709</ele>
        <time>2021-02-27T07:19:17Z</time>
      </trkpt>
      <trkpt lat="45.15745" lon="5.96049">
        <ele>2708.4</ele>
        <time>2021-02-27T07:19:18Z</time>
      </trkpt>
      <trkpt lat="45.15747" lon="5.96052">
        <ele>2708.2</ele>
        <time>2021-02-27T07:19:19Z</time>
      </trkpt>
      <trkpt lat="45.15749" lon="5.96054">
        <ele>2709.4</ele>
        <time>2021-02-27T07:19:20Z</time>
      </trkpt>
      <trkpt lat="45.15749" lon="5.96054">
        <ele>2708.6</ele>
        <time>2021-02-27T07:19:21Z</time>
      </trkpt>
      <trkpt lat="45.15756" lon="5.9606">
        <ele>2707.8</ele>
        <time>2021-02-27T07:19:22Z</time>
      </trkpt>
      <trkpt lat="45.15757" lon="5.96061">
        <ele>2707.4</ele>
        <time>2021-02-27T07:19:23Z</time>
      </trkpt>
      <trkpt lat="45.15761" lon="5.96063">
        <ele>2707</ele>
        <time>2021-02-27T07:19:24Z</time>
      </trkpt>
      <trkpt lat="45.15764" lon="5.96065">
        <ele>2706</ele>
        <time>2021-02-27T07:19:25Z</time>
      </trkpt>
      <trkpt lat="45.15766" lon="5.96066">
        <ele>2705.8</ele>
        <time>2021-02-27T07:19:26Z</time>
      </trkpt>
      <trkpt lat="45.15769" lon="5.96069">
        <ele>2705</ele>
        <time>2021-02-27T07:19:27Z</time>
      </trkpt>
      <trkpt lat="45.15772" lon="5.9607">
        <ele>2704.6</ele>
        <time>2021-02-27T07:19:28Z</time>
      </trkpt>
      <trkpt lat="45.15775" lon="5.96072">
        <ele>2704.2</ele>
        <time>2021-02-27T07:19:29Z</time>
      </trkpt>
      <trkpt lat="45.15778" lon="5.96074">
        <ele>2703.4</ele>
        <time>2021-02-27T07:19:30Z</time>
      </trkpt>
      <trkpt lat="45.1578" lon="5.96075">
        <ele>2703</ele>
        <time>2021-02-27T07:19:31Z</time>
      </trkpt>
      <trkpt lat="45.15783" lon="5.96077">
        <ele>2702.6</ele>
        <time>2021-02-27T07:19:32Z</time>
      </trkpt>
      <trkpt lat="45.15784" lon="5.96079">
        <ele>2702</ele>
        <time>2021-02-27T07:19:33Z</time>
      </trkpt>
      <trkpt lat="45.15784" lon="5.96079">
        <ele>2701.8</ele>
        <time>2021-02-27T07:19:34Z</time>
      </trkpt>
      <trkpt lat="45.15787" lon="5.96082">
        <ele>2701.4</ele>
        <time>2021-02-27T07:19:35Z</time>
      </trkpt>
      <trkpt lat="45.15788" lon="5.96084">
        <ele>2701.4</ele>
        <time>2021-02-27T07:19:36Z</time>
      </trkpt>
      <trkpt lat="45.1579" lon="5.96086">
        <ele>2701.2</ele>
        <time>2021-02-27T07:19:37Z</time>
      </trkpt>
      <trkpt lat="45.15791" lon="5.96088">
        <ele>2700.8</ele>
        <time>2021-02-27T07:19:38Z</time>
      </trkpt>
      <trkpt lat="45.15793" lon="5.9609">
        <ele>2700.6</ele>
        <time>2021-02-27T07:19:39Z</time>
      </trkpt>
      <trkpt lat="45.15793" lon="5.9609">
        <ele>2700.4</ele>
        <time>2021-02-27T07:19:40Z</time>
      </trkpt>
      <trkpt lat="45.15797" lon="5.96093">
        <ele>2700.4</ele>
        <time>2021-02-27T07:19:41Z</time>
      </trkpt>
      <trkpt lat="45.15799" lon="5.96095">
        <ele>2700.2</ele>
        <time>2021-02-27T07:19:42Z</time>
      </trkpt>
      <trkpt lat="45.15801" lon="5.96097">
        <ele>2700</ele>
        <time>2021-02-27T07:19:43Z</time>
      </trkpt>
      <trkpt lat="45.15803" lon="5.96099">
        <ele>2699.4</ele>
        <time>2021-02-27T07:19:44Z</time>
      </trkpt>
      <trkpt lat="45.15805" lon="5.96102">
        <ele>2698.8</ele>
        <time>2021-02-27T07:19:45Z</time>
      </trkpt>
      <trkpt lat="45.15807" lon="5.96104">
        <ele>2698</ele>
        <time>2021-02-27T07:19:46Z</time>
      </trkpt>
      <trkpt lat="45.15807" lon="5.96104">
        <ele>2697.8</ele>
        <time>2021-02-27T07:19:47Z</time>
      </trkpt>
      <trkpt lat="45.15809" lon="5.96108">
        <ele>2697.6</ele>
        <time>2021-02-27T07:19:48Z</time>
      </trkpt>
      <trkpt lat="45.1581" lon="5.96111">
        <ele>2697.4</ele>
        <time>2021-02-27T07:19:49Z</time>
      </trkpt>
      <trkpt lat="45.15812" lon="5.96115">
        <ele>2697.6</ele>
        <time>2021-02-27T07:19:50Z</time>
      </trkpt>
      <trkpt lat="45.15812" lon="5.96115">
        <ele>2697</ele>
        <time>2021-02-27T07:19:51Z</time>
      </trkpt>
      <trkpt lat="45.15812" lon="5.96117">
        <ele>2696.8</ele>
        <time>2021-02-27T07:19:52Z</time>
      </trkpt>
      <trkpt lat="45.15813" lon="5.96119">
        <ele>2696.6</ele>
        <time>2021-02-27T07:19:53Z</time>
      </trkpt>
      <trkpt lat="45.15814" lon="5.96121">
        <ele>2696.8</ele>
        <time>2021-02-27T07:19:54Z</time>
      </trkpt>
      <trkpt lat="45.15814" lon="5.96123">
        <ele>2696.4</ele>
        <time>2021-02-27T07:19:55Z</time>
      </trkpt>
      <trkpt lat="45.15815" lon="5.96125">
        <ele>2696.2</ele>
        <time>2021-02-27T07:19:56Z</time>
      </trkpt>
      <trkpt lat="45.15815" lon="5.96127">
        <ele>2696.2</ele>
        <time>2021-02-27T07:19:57Z</time>
      </trkpt>
      <trkpt lat="45.15815" lon="5.96127">
        <ele>2695.8</ele>
        <time>2021-02-27T07:19:58Z</time>
      </trkpt>
      <trkpt lat="45.15815" lon="5.96127">
        <ele>2696</ele>
        <time>2021-02-27T07:19:59Z</time>
      </trkpt>
      <trkpt lat="45.15815" lon="5.96127">
        <ele>2695.8</ele>
        <time>2021-02-27T07:20:00Z</time>
      </trkpt>
      <trkpt lat="45.15815" lon="5.96127">
        <ele>2695.8</ele>
        <time>2021-02-27T07:20:01Z</time>
      </trkpt>
      <trkpt lat="45.15815" lon="5.96127">
        <ele>2695.8</ele>
        <time>2021-02-27T07:20:02Z</time>
      </trkpt>
      <trkpt lat="45.15815" lon="5.96127">
        <ele>2695.6</ele>
        <time>2021-02-27T07:20:03Z</time>
      </trkpt>
      <trkpt lat="45.15815" lon="5.96127">
        <ele>2695.6</ele>
        <time>2021-02-27T07:20:04Z</time>
      </trkpt>
      <trkpt lat="45.15815" lon="5.96127">
        <ele>2695.6</ele>
        <time>2021-02-27T07:20:05Z</time>
      </trkpt>
      <trkpt lat="45.15815" lon="5.96127">
        <ele>2695.4</ele>
        <time>2021-02-27T07:20:06Z</time>
      </trkpt>
      <trkpt lat="45.15815" lon="5.96127">
        <ele>2695.8</ele>
        <time>2021-02-27T07:20:07Z</time>
      </trkpt>
      <trkpt lat="45.15816" lon="5.9613">
        <ele>2695.6</ele>
        <time>2021-02-27T07:20:08Z</time>
      </trkpt>
      <trkpt lat="45.15816" lon="5.9613">
        <ele>2695.6</ele>
        <time>2021-02-27T07:20:09Z</time>
      </trkpt>
      <trkpt lat="45.15816" lon="5.9613">
        <ele>2695.4</ele>
        <time>2021-02-27T07:20:10Z</time>
      </trkpt>
      <trkpt lat="45.15816" lon="5.9613">
        <ele>2695.4</ele>
        <time>2021-02-27T07:20:11Z</time>
      </trkpt>
      <trkpt lat="45.15816" lon="5.9613">
        <ele>2694.8</ele>
        <time>2021-02-27T07:20:12Z</time>
      </trkpt>
      <trkpt lat="45.15816" lon="5.9613">
        <ele>2694.4</ele>
        <time>2021-02-27T07:20:13Z</time>
      </trkpt>
      <trkpt lat="45.15816" lon="5.9613">
        <ele>2694.2</ele>
        <time>2021-02-27T07:20:14Z</time>
      </trkpt>
      <trkpt lat="45.15816" lon="5.9613">
        <ele>2694.2</ele>
        <time>2021-02-27T07:20:15Z</time>
      </trkpt>
      <trkpt lat="45.15815" lon="5.96132">
        <ele>2694.2</ele>
        <time>2021-02-27T07:20:16Z</time>
      </trkpt>
      <trkpt lat="45.15815" lon="5.96132">
        <ele>2694.2</ele>
        <time>2021-02-27T07:20:17Z</time>
      </trkpt>
      <trkpt lat="45.15815" lon="5.96132">
        <ele>2694</ele>
        <time>2021-02-27T07:20:18Z</time>
      </trkpt>
      <trkpt lat="45.15815" lon="5.96132">
        <ele>2694</ele>
        <time>2021-02-27T07:20:19Z</time>
      </trkpt>
      <trkpt lat="45.15815" lon="5.96132">
        <ele>2694.2</ele>
        <time>2021-02-27T07:20:20Z</time>
      </trkpt>
      <trkpt lat="45.15815" lon="5.96132">
        <ele>2694.6</ele>
        <time>2021-02-27T07:20:21Z</time>
      </trkpt>
      <trkpt lat="45.15815" lon="5.96132">
        <ele>2694.8</ele>
        <time>2021-02-27T07:20:22Z</time>
      </trkpt>
      <trkpt lat="45.15813" lon="5.96131">
        <ele>2695.4</ele>
        <time>2021-02-27T07:20:23Z</time>
      </trkpt>
      <trkpt lat="45.15813" lon="5.96131">
        <ele>2695.6</ele>
        <time>2021-02-27T07:20:24Z</time>
      </trkpt>
      <trkpt lat="45.15813" lon="5.96131">
        <ele>2695.8</ele>
        <time>2021-02-27T07:20:25Z</time>
      </trkpt>
      <trkpt lat="45.15813" lon="5.96131">
        <ele>2696</ele>
        <time>2021-02-27T07:20:26Z</time>
      </trkpt>
      <trkpt lat="45.15813" lon="5.96131">
        <ele>2696</ele>
        <time>2021-02-27T07:20:27Z</time>
      </trkpt>
      <trkpt lat="45.15813" lon="5.96131">
        <ele>2696.2</ele>
        <time>2021-02-27T07:20:28Z</time>
      </trkpt>
      <trkpt lat="45.15813" lon="5.96131">
        <ele>2696.2</ele>
        <time>2021-02-27T07:20:29Z</time>
      </trkpt>
      <trkpt lat="45.15813" lon="5.96131">
        <ele>2696.4</ele>
        <time>2021-02-27T07:20:30Z</time>
      </trkpt>
      <trkpt lat="45.15813" lon="5.96131">
        <ele>2696.6</ele>
        <time>2021-02-27T07:20:31Z</time>
      </trkpt>
      <trkpt lat="45.15813" lon="5.96131">
        <ele>2696.8</ele>
        <time>2021-02-27T07:20:32Z</time>
      </trkpt>
      <trkpt lat="45.15813" lon="5.96131">
        <ele>2696.6</ele>
        <time>2021-02-27T07:20:33Z</time>
      </trkpt>
      <trkpt lat="45.15813" lon="5.96131">
        <ele>2696.8</ele>
        <time>2021-02-27T07:20:34Z</time>
      </trkpt>
      <trkpt lat="45.15813" lon="5.96131">
        <ele>2696.8</ele>
        <time>2021-02-27T07:20:35Z</time>
      </trkpt>
      <trkpt lat="45.15813" lon="5.96131">
        <ele>2696.6</ele>
        <time>2021-02-27T07:20:36Z</time>
      </trkpt>
      <trkpt lat="45.15813" lon="5.96131">
        <ele>2696.6</ele>
        <time>2021-02-27T07:20:37Z</time>
      </trkpt>
      <trkpt lat="45.15813" lon="5.96131">
        <ele>2696.4</ele>
        <time>2021-02-27T07:20:38Z</time>
      </trkpt>
      <trkpt lat="45.15813" lon="5.96131">
        <ele>2695.8</ele>
        <time>2021-02-27T07:20:39Z</time>
      </trkpt>
      <trkpt lat="45.15813" lon="5.96131">
        <ele>2695.6</ele>
        <time>2021-02-27T07:20:40Z</time>
      </trkpt>
      <trkpt lat="45.15813" lon="5.96131">
        <ele>2695.2</ele>
        <time>2021-02-27T07:20:41Z</time>
      </trkpt>
      <trkpt lat="45.15813" lon="5.96131">
        <ele>2694.8</ele>
        <time>2021-02-27T07:20:42Z</time>
      </trkpt>
      <trkpt lat="45.15813" lon="5.96131">
        <ele>2694.6</ele>
        <time>2021-02-27T07:20:43Z</time>
      </trkpt>
      <trkpt lat="45.15813" lon="5.96131">
        <ele>2694.4</ele>
        <time>2021-02-27T07:20:44Z</time>
      </trkpt>
      <trkpt lat="45.15813" lon="5.96131">
        <ele>2694</ele>
        <time>2021-02-27T07:20:45Z</time>
      </trkpt>
      <trkpt lat="45.15813" lon="5.96131">
        <ele>2694.4</ele>
        <time>2021-02-27T07:20:46Z</time>
      </trkpt>
      <trkpt lat="45.15813" lon="5.96131">
        <ele>2695.2</ele>
        <time>2021-02-27T07:20:47Z</time>
      </trkpt>
      <trkpt lat="45.15813" lon="5.96131">
        <ele>2695.4</ele>
        <time>2021-02-27T07:20:48Z</time>
      </trkpt>
      <trkpt lat="45.15813" lon="5.96131">
        <ele>2695.8</ele>
        <time>2021-02-27T07:20:49Z</time>
      </trkpt>
      <trkpt lat="45.15813" lon="5.96131">
        <ele>2696.2</ele>
        <time>2021-02-27T07:20:50Z</time>
      </trkpt>
      <trkpt lat="45.15813" lon="5.96131">
        <ele>2696.2</ele>
        <time>2021-02-27T07:20:51Z</time>
      </trkpt>
      <trkpt lat="45.15813" lon="5.96131">
        <ele>2696</ele>
        <time>2021-02-27T07:20:52Z</time>
      </trkpt>
      <trkpt lat="45.15813" lon="5.96131">
        <ele>2696</ele>
        <time>2021-02-27T07:20:53Z</time>
      </trkpt>
      <trkpt lat="45.15813" lon="5.96131">
        <ele>2695.8</ele>
        <time>2021-02-27T07:20:54Z</time>
      </trkpt>
      <trkpt lat="45.15813" lon="5.96131">
        <ele>2695.8</ele>
        <time>2021-02-27T07:20:55Z</time>
      </trkpt>
      <trkpt lat="45.15813" lon="5.96131">
        <ele>2695.6</ele>
        <time>2021-02-27T07:20:56Z</time>
      </trkpt>
      <trkpt lat="45.15813" lon="5.96131">
        <ele>2695.4</ele>
        <time>2021-02-27T07:20:57Z</time>
      </trkpt>
      <trkpt lat="45.15813" lon="5.96131">
        <ele>2695.6</ele>
        <time>2021-02-27T07:20:58Z</time>
      </trkpt>
      <trkpt lat="45.15813" lon="5.96131">
        <ele>2695.2</ele>
        <time>2021-02-27T07:20:59Z</time>
      </trkpt>
      <trkpt lat="45.15813" lon="5.96131">
        <ele>2695</ele>
        <time>2021-02-27T07:21:00Z</time>
      </trkpt>
      <trkpt lat="45.15813" lon="5.96131">
        <ele>2695</ele>
        <time>2021-02-27T07:21:01Z</time>
      </trkpt>
      <trkpt lat="45.15813" lon="5.96131">
        <ele>2694.8</ele>
        <time>2021-02-27T07:21:02Z</time>
      </trkpt>
      <trkpt lat="45.15813" lon="5.96131">
        <ele>2695</ele>
        <time>2021-02-27T07:21:03Z</time>
      </trkpt>
      <trkpt lat="45.15813" lon="5.96131">
        <ele>2694.8</ele>
        <time>2021-02-27T07:21:04Z</time>
      </trkpt>
      <trkpt lat="45.15813" lon="5.96131">
        <ele>2695</ele>
        <time>2021-02-27T07:21:05Z</time>
      </trkpt>
      <trkpt lat="45.15813" lon="5.96131">
        <ele>2694.8</ele>
        <time>2021-02-27T07:21:06Z</time>
      </trkpt>
      <trkpt lat="45.15813" lon="5.96131">
        <ele>2694.8</ele>
        <time>2021-02-27T07:21:07Z</time>
      </trkpt>
      <trkpt lat="45.15813" lon="5.96131">
        <ele>2694.8</ele>
        <time>2021-02-27T07:21:08Z</time>
      </trkpt>
      <trkpt lat="45.15813" lon="5.96131">
        <ele>2695</ele>
        <time>2021-02-27T07:21:09Z</time>
      </trkpt>
      <trkpt lat="45.15813" lon="5.96131">
        <ele>2695</ele>
        <time>2021-02-27T07:21:10Z</time>
      </trkpt>
      <trkpt lat="45.15813" lon="5.96131">
        <ele>2694.8</ele>
        <time>2021-02-27T07:21:11Z</time>
      </trkpt>
      <trkpt lat="45.15813" lon="5.96131">
        <ele>2694.6</ele>
        <time>2021-02-27T07:21:12Z</time>
      </trkpt>
      <trkpt lat="45.15813" lon="5.96131">
        <ele>2694.4</ele>
        <time>2021-02-27T07:21:13Z</time>
      </trkpt>
      <trkpt lat="45.15813" lon="5.96131">
        <ele>2694.4</ele>
        <time>2021-02-27T07:21:14Z</time>
      </trkpt>
      <trkpt lat="45.15813" lon="5.96131">
        <ele>2695</ele>
        <time>2021-02-27T07:21:15Z</time>
      </trkpt>
      <trkpt lat="45.15813" lon="5.96131">
        <ele>2695</ele>
        <time>2021-02-27T07:21:16Z</time>
      </trkpt>
      <trkpt lat="45.15813" lon="5.96131">
        <ele>2694.8</ele>
        <time>2021-02-27T07:21:17Z</time>
      </trkpt>
      <trkpt lat="45.15813" lon="5.96131">
        <ele>2694.8</ele>
        <time>2021-02-27T07:21:18Z</time>
      </trkpt>
      <trkpt lat="45.15813" lon="5.96131">
        <ele>2694.8</ele>
        <time>2021-02-27T07:21:19Z</time>
      </trkpt>
      <trkpt lat="45.15813" lon="5.96131">
        <ele>2694.8</ele>
        <time>2021-02-27T07:21:20Z</time>
      </trkpt>
      <trkpt lat="45.15813" lon="5.96131">
        <ele>2694.8</ele>
        <time>2021-02-27T07:21:21Z</time>
      </trkpt>
      <trkpt lat="45.15813" lon="5.96131">
        <ele>2694.6</ele>
        <time>2021-02-27T07:21:22Z</time>
      </trkpt>
      <trkpt lat="45.15813" lon="5.96131">
        <ele>2694.4</ele>
        <time>2021-02-27T07:21:23Z</time>
      </trkpt>
      <trkpt lat="45.15813" lon="5.96131">
        <ele>2694.4</ele>
        <time>2021-02-27T07:21:24Z</time>
      </trkpt>
      <trkpt lat="45.15813" lon="5.96131">
        <ele>2694.6</ele>
        <time>2021-02-27T07:21:25Z</time>
      </trkpt>
      <trkpt lat="45.15813" lon="5.96131">
        <ele>2694.6</ele>
        <time>2021-02-27T07:21:26Z</time>
      </trkpt>
      <trkpt lat="45.15813" lon="5.96131">
        <ele>2694.8</ele>
        <time>2021-02-27T07:21:27Z</time>
      </trkpt>
      <trkpt lat="45.15813" lon="5.96131">
        <ele>2694.8</ele>
        <time>2021-02-27T07:21:28Z</time>
      </trkpt>
      <trkpt lat="45.15813" lon="5.96131">
        <ele>2695</ele>
        <time>2021-02-27T07:21:29Z</time>
      </trkpt>
      <trkpt lat="45.15813" lon="5.96131">
        <ele>2695.2</ele>
        <time>2021-02-27T07:21:30Z</time>
      </trkpt>
      <trkpt lat="45.15813" lon="5.96131">
        <ele>2695.4</ele>
        <time>2021-02-27T07:21:31Z</time>
      </trkpt>
      <trkpt lat="45.15813" lon="5.96131">
        <ele>2695.6</ele>
        <time>2021-02-27T07:21:32Z</time>
      </trkpt>
      <trkpt lat="45.15813" lon="5.96131">
        <ele>2695.6</ele>
        <time>2021-02-27T07:21:33Z</time>
      </trkpt>
      <trkpt lat="45.15813" lon="5.96131">
        <ele>2695.6</ele>
        <time>2021-02-27T07:21:34Z</time>
      </trkpt>
      <trkpt lat="45.15813" lon="5.96131">
        <ele>2695.6</ele>
        <time>2021-02-27T07:21:35Z</time>
      </trkpt>
      <trkpt lat="45.15813" lon="5.96131">
        <ele>2695.4</ele>
        <time>2021-02-27T07:21:36Z</time>
      </trkpt>
      <trkpt lat="45.15813" lon="5.96131">
        <ele>2695.6</ele>
        <time>2021-02-27T07:21:37Z</time>
      </trkpt>
      <trkpt lat="45.15813" lon="5.96131">
        <ele>2695.6</ele>
        <time>2021-02-27T07:21:38Z</time>
      </trkpt>
      <trkpt lat="45.15813" lon="5.96131">
        <ele>2695.6</ele>
        <time>2021-02-27T07:21:39Z</time>
      </trkpt>
      <trkpt lat="45.15813" lon="5.96131">
        <ele>2695.4</ele>
        <time>2021-02-27T07:21:40Z</time>
      </trkpt>
      <trkpt lat="45.15813" lon="5.96131">
        <ele>2695.2</ele>
        <time>2021-02-27T07:21:41Z</time>
      </trkpt>
      <trkpt lat="45.15813" lon="5.96131">
        <ele>2695.2</ele>
        <time>2021-02-27T07:21:42Z</time>
      </trkpt>
      <trkpt lat="45.15813" lon="5.96131">
        <ele>2695</ele>
        <time>2021-02-27T07:21:43Z</time>
      </trkpt>
      <trkpt lat="45.15813" lon="5.96131">
        <ele>2694.8</ele>
        <time>2021-02-27T07:21:44Z</time>
      </trkpt>
      <trkpt lat="45.15813" lon="5.96131">
        <ele>2694.8</ele>
        <time>2021-02-27T07:21:45Z</time>
      </trkpt>
      <trkpt lat="45.15813" lon="5.96131">
        <ele>2695.2</ele>
        <time>2021-02-27T07:21:46Z</time>
      </trkpt>
      <trkpt lat="45.15813" lon="5.96131">
        <ele>2695.4</ele>
        <time>2021-02-27T07:21:47Z</time>
      </trkpt>
      <trkpt lat="45.15811" lon="5.96131">
        <ele>2695.4</ele>
        <time>2021-02-27T07:21:48Z</time>
      </trkpt>
      <trkpt lat="45.15811" lon="5.96131">
        <ele>2695.6</ele>
        <time>2021-02-27T07:21:49Z</time>
      </trkpt>
      <trkpt lat="45.15811" lon="5.96131">
        <ele>2695.8</ele>
        <time>2021-02-27T07:21:50Z</time>
      </trkpt>
      <trkpt lat="45.15811" lon="5.96131">
        <ele>2695.6</ele>
        <time>2021-02-27T07:21:51Z</time>
      </trkpt>
      <trkpt lat="45.15811" lon="5.96131">
        <ele>2695.4</ele>
        <time>2021-02-27T07:21:52Z</time>
      </trkpt>
      <trkpt lat="45.15811" lon="5.96131">
        <ele>2695.2</ele>
        <time>2021-02-27T07:21:53Z</time>
      </trkpt>
      <trkpt lat="45.15811" lon="5.96131">
        <ele>2695.2</ele>
        <time>2021-02-27T07:21:54Z</time>
      </trkpt>
      <trkpt lat="45.15811" lon="5.96131">
        <ele>2695</ele>
        <time>2021-02-27T07:21:55Z</time>
      </trkpt>
      <trkpt lat="45.1581" lon="5.96133">
        <ele>2694.8</ele>
        <time>2021-02-27T07:21:56Z</time>
      </trkpt>
      <trkpt lat="45.1581" lon="5.96133">
        <ele>2694.6</ele>
        <time>2021-02-27T07:21:57Z</time>
      </trkpt>
      <trkpt lat="45.1581" lon="5.96133">
        <ele>2694.8</ele>
        <time>2021-02-27T07:21:58Z</time>
      </trkpt>
      <trkpt lat="45.1581" lon="5.96133">
        <ele>2695</ele>
        <time>2021-02-27T07:21:59Z</time>
      </trkpt>
      <trkpt lat="45.1581" lon="5.96133">
        <ele>2695.4</ele>
        <time>2021-02-27T07:22:00Z</time>
      </trkpt>
      <trkpt lat="45.1581" lon="5.96133">
        <ele>2695.6</ele>
        <time>2021-02-27T07:22:01Z</time>
      </trkpt>
      <trkpt lat="45.1581" lon="5.96133">
        <ele>2695.8</ele>
        <time>2021-02-27T07:22:02Z</time>
      </trkpt>
      <trkpt lat="45.1581" lon="5.96133">
        <ele>2696</ele>
        <time>2021-02-27T07:22:03Z</time>
      </trkpt>
      <trkpt lat="45.1581" lon="5.96133">
        <ele>2696.2</ele>
        <time>2021-02-27T07:22:04Z</time>
      </trkpt>
      <trkpt lat="45.1581" lon="5.96133">
        <ele>2696</ele>
        <time>2021-02-27T07:22:05Z</time>
      </trkpt>
      <trkpt lat="45.1581" lon="5.96133">
        <ele>2696</ele>
        <time>2021-02-27T07:22:06Z</time>
      </trkpt>
      <trkpt lat="45.1581" lon="5.96133">
        <ele>2696.4</ele>
        <time>2021-02-27T07:22:07Z</time>
      </trkpt>
      <trkpt lat="45.1581" lon="5.96133">
        <ele>2696.4</ele>
        <time>2021-02-27T07:22:08Z</time>
      </trkpt>
      <trkpt lat="45.1581" lon="5.96133">
        <ele>2696.4</ele>
        <time>2021-02-27T07:22:09Z</time>
      </trkpt>
      <trkpt lat="45.1581" lon="5.96133">
        <ele>2696.4</ele>
        <time>2021-02-27T07:22:10Z</time>
      </trkpt>
      <trkpt lat="45.1581" lon="5.96133">
        <ele>2696.2</ele>
        <time>2021-02-27T07:22:11Z</time>
      </trkpt>
      <trkpt lat="45.1581" lon="5.96133">
        <ele>2696.2</ele>
        <time>2021-02-27T07:22:12Z</time>
      </trkpt>
      <trkpt lat="45.1581" lon="5.96133">
        <ele>2696.2</ele>
        <time>2021-02-27T07:22:13Z</time>
      </trkpt>
      <trkpt lat="45.1581" lon="5.96133">
        <ele>2696.2</ele>
        <time>2021-02-27T07:22:14Z</time>
      </trkpt>
      <trkpt lat="45.1581" lon="5.96133">
        <ele>2696</ele>
        <time>2021-02-27T07:22:15Z</time>
      </trkpt>
      <trkpt lat="45.1581" lon="5.96133">
        <ele>2696</ele>
        <time>2021-02-27T07:22:16Z</time>
      </trkpt>
      <trkpt lat="45.1581" lon="5.96133">
        <ele>2696</ele>
        <time>2021-02-27T07:22:17Z</time>
      </trkpt>
      <trkpt lat="45.1581" lon="5.96133">
        <ele>2696.2</ele>
        <time>2021-02-27T07:22:18Z</time>
      </trkpt>
      <trkpt lat="45.1581" lon="5.96133">
        <ele>2696.2</ele>
        <time>2021-02-27T07:22:19Z</time>
      </trkpt>
      <trkpt lat="45.1581" lon="5.96133">
        <ele>2696.2</ele>
        <time>2021-02-27T07:22:20Z</time>
      </trkpt>
      <trkpt lat="45.1581" lon="5.96133">
        <ele>2696.2</ele>
        <time>2021-02-27T07:22:21Z</time>
      </trkpt>
      <trkpt lat="45.1581" lon="5.96133">
        <ele>2696.2</ele>
        <time>2021-02-27T07:22:22Z</time>
      </trkpt>
      <trkpt lat="45.1581" lon="5.96133">
        <ele>2696.2</ele>
        <time>2021-02-27T07:22:23Z</time>
      </trkpt>
      <trkpt lat="45.1581" lon="5.96133">
        <ele>2695.8</ele>
        <time>2021-02-27T07:22:24Z</time>
      </trkpt>
      <trkpt lat="45.1581" lon="5.96133">
        <ele>2695.8</ele>
        <time>2021-02-27T07:22:25Z</time>
      </trkpt>
      <trkpt lat="45.1581" lon="5.96133">
        <ele>2695.6</ele>
        <time>2021-02-27T07:22:26Z</time>
      </trkpt>
      <trkpt lat="45.1581" lon="5.96133">
        <ele>2695.4</ele>
        <time>2021-02-27T07:22:27Z</time>
      </trkpt>
      <trkpt lat="45.1581" lon="5.96133">
        <ele>2695.4</ele>
        <time>2021-02-27T07:22:28Z</time>
      </trkpt>
      <trkpt lat="45.1581" lon="5.96133">
        <ele>2695.4</ele>
        <time>2021-02-27T07:22:29Z</time>
      </trkpt>
      <trkpt lat="45.1581" lon="5.96133">
        <ele>2695.4</ele>
        <time>2021-02-27T07:22:30Z</time>
      </trkpt>
      <trkpt lat="45.1581" lon="5.96133">
        <ele>2695.6</ele>
        <time>2021-02-27T07:22:31Z</time>
      </trkpt>
      <trkpt lat="45.15809" lon="5.96135">
        <ele>2695.6</ele>
        <time>2021-02-27T07:22:32Z</time>
      </trkpt>
      <trkpt lat="45.15809" lon="5.96135">
        <ele>2695.2</ele>
        <time>2021-02-27T07:22:33Z</time>
      </trkpt>
      <trkpt lat="45.15809" lon="5.96135">
        <ele>2695</ele>
        <time>2021-02-27T07:22:34Z</time>
      </trkpt>
      <trkpt lat="45.15809" lon="5.96135">
        <ele>2695.2</ele>
        <time>2021-02-27T07:22:35Z</time>
      </trkpt>
      <trkpt lat="45.15809" lon="5.96135">
        <ele>2695.4</ele>
        <time>2021-02-27T07:22:36Z</time>
      </trkpt>
      <trkpt lat="45.15809" lon="5.96135">
        <ele>2695.2</ele>
        <time>2021-02-27T07:22:37Z</time>
      </trkpt>
      <trkpt lat="45.15809" lon="5.96135">
        <ele>2695</ele>
        <time>2021-02-27T07:22:38Z</time>
      </trkpt>
      <trkpt lat="45.15809" lon="5.96135">
        <ele>2695</ele>
        <time>2021-02-27T07:22:39Z</time>
      </trkpt>
      <trkpt lat="45.15809" lon="5.96135">
        <ele>2695.2</ele>
        <time>2021-02-27T07:22:40Z</time>
      </trkpt>
      <trkpt lat="45.15809" lon="5.96135">
        <ele>2694.8</ele>
        <time>2021-02-27T07:22:41Z</time>
      </trkpt>
      <trkpt lat="45.15809" lon="5.96135">
        <ele>2694.8</ele>
        <time>2021-02-27T07:22:42Z</time>
      </trkpt>
      <trkpt lat="45.15809" lon="5.96135">
        <ele>2694.8</ele>
        <time>2021-02-27T07:22:43Z</time>
      </trkpt>
      <trkpt lat="45.15809" lon="5.96135">
        <ele>2695.2</ele>
        <time>2021-02-27T07:22:44Z</time>
      </trkpt>
      <trkpt lat="45.15809" lon="5.96135">
        <ele>2695.2</ele>
        <time>2021-02-27T07:22:45Z</time>
      </trkpt>
      <trkpt lat="45.15809" lon="5.96135">
        <ele>2695.2</ele>
        <time>2021-02-27T07:22:46Z</time>
      </trkpt>
      <trkpt lat="45.15809" lon="5.96135">
        <ele>2695</ele>
        <time>2021-02-27T07:22:47Z</time>
      </trkpt>
      <trkpt lat="45.15809" lon="5.96135">
        <ele>2695</ele>
        <time>2021-02-27T07:22:48Z</time>
      </trkpt>
      <trkpt lat="45.15809" lon="5.96135">
        <ele>2695</ele>
        <time>2021-02-27T07:22:49Z</time>
      </trkpt>
      <trkpt lat="45.15809" lon="5.96135">
        <ele>2694.8</ele>
        <time>2021-02-27T07:22:50Z</time>
      </trkpt>
      <trkpt lat="45.15809" lon="5.96135">
        <ele>2694.4</ele>
        <time>2021-02-27T07:22:51Z</time>
      </trkpt>
      <trkpt lat="45.15809" lon="5.96135">
        <ele>2694.2</ele>
        <time>2021-02-27T07:22:52Z</time>
      </trkpt>
      <trkpt lat="45.15809" lon="5.96135">
        <ele>2694</ele>
        <time>2021-02-27T07:22:53Z</time>
      </trkpt>
      <trkpt lat="45.15809" lon="5.96135">
        <ele>2693.6</ele>
        <time>2021-02-27T07:22:54Z</time>
      </trkpt>
      <trkpt lat="45.15809" lon="5.96135">
        <ele>2693.4</ele>
        <time>2021-02-27T07:22:55Z</time>
      </trkpt>
      <trkpt lat="45.15809" lon="5.96135">
        <ele>2693.4</ele>
        <time>2021-02-27T07:22:56Z</time>
      </trkpt>
      <trkpt lat="45.15809" lon="5.96135">
        <ele>2693.2</ele>
        <time>2021-02-27T07:22:57Z</time>
      </trkpt>
      <trkpt lat="45.15809" lon="5.96135">
        <ele>2693</ele>
        <time>2021-02-27T07:22:58Z</time>
      </trkpt>
      <trkpt lat="45.15809" lon="5.96135">
        <ele>2693</ele>
        <time>2021-02-27T07:22:59Z</time>
      </trkpt>
      <trkpt lat="45.15809" lon="5.96135">
        <ele>2692.6</ele>
        <time>2021-02-27T07:23:00Z</time>
      </trkpt>
      <trkpt lat="45.15809" lon="5.96135">
        <ele>2692.8</ele>
        <time>2021-02-27T07:23:01Z</time>
      </trkpt>
      <trkpt lat="45.15809" lon="5.96135">
        <ele>2693</ele>
        <time>2021-02-27T07:23:02Z</time>
      </trkpt>
      <trkpt lat="45.15809" lon="5.96135">
        <ele>2693</ele>
        <time>2021-02-27T07:23:03Z</time>
      </trkpt>
      <trkpt lat="45.15809" lon="5.96135">
        <ele>2693.2</ele>
        <time>2021-02-27T07:23:04Z</time>
      </trkpt>
      <trkpt lat="45.15809" lon="5.96135">
        <ele>2692.8</ele>
        <time>2021-02-27T07:23:05Z</time>
      </trkpt>
      <trkpt lat="45.15809" lon="5.96135">
        <ele>2692.8</ele>
        <time>2021-02-27T07:23:06Z</time>
      </trkpt>
      <trkpt lat="45.15809" lon="5.96135">
        <ele>2692.8</ele>
        <time>2021-02-27T07:23:07Z</time>
      </trkpt>
      <trkpt lat="45.15809" lon="5.96135">
        <ele>2693.2</ele>
        <time>2021-02-27T07:23:08Z</time>
      </trkpt>
      <trkpt lat="45.15809" lon="5.96135">
        <ele>2693</ele>
        <time>2021-02-27T07:23:09Z</time>
      </trkpt>
      <trkpt lat="45.15809" lon="5.96135">
        <ele>2692.6</ele>
        <time>2021-02-27T07:23:10Z</time>
      </trkpt>
      <trkpt lat="45.15809" lon="5.96135">
        <ele>2692.6</ele>
        <time>2021-02-27T07:23:11Z</time>
      </trkpt>
      <trkpt lat="45.15809" lon="5.96135">
        <ele>2692.6</ele>
        <time>2021-02-27T07:23:12Z</time>
      </trkpt>
      <trkpt lat="45.15809" lon="5.96135">
        <ele>2692.4</ele>
        <time>2021-02-27T07:23:13Z</time>
      </trkpt>
      <trkpt lat="45.15809" lon="5.96135">
        <ele>2692</ele>
        <time>2021-02-27T07:23:14Z</time>
      </trkpt>
      <trkpt lat="45.15809" lon="5.96135">
        <ele>2691.8</ele>
        <time>2021-02-27T07:23:15Z</time>
      </trkpt>
      <trkpt lat="45.15809" lon="5.96135">
        <ele>2691.8</ele>
        <time>2021-02-27T07:23:16Z</time>
      </trkpt>
      <trkpt lat="45.15809" lon="5.96135">
        <ele>2692</ele>
        <time>2021-02-27T07:23:17Z</time>
      </trkpt>
      <trkpt lat="45.15809" lon="5.96133">
        <ele>2691.8</ele>
        <time>2021-02-27T07:23:18Z</time>
      </trkpt>
      <trkpt lat="45.15809" lon="5.96133">
        <ele>2691.8</ele>
        <time>2021-02-27T07:23:19Z</time>
      </trkpt>
      <trkpt lat="45.15809" lon="5.96133">
        <ele>2691.6</ele>
        <time>2021-02-27T07:23:20Z</time>
      </trkpt>
      <trkpt lat="45.15809" lon="5.96133">
        <ele>2691.8</ele>
        <time>2021-02-27T07:23:21Z</time>
      </trkpt>
      <trkpt lat="45.15809" lon="5.96133">
        <ele>2691.8</ele>
        <time>2021-02-27T07:23:22Z</time>
      </trkpt>
      <trkpt lat="45.15809" lon="5.96133">
        <ele>2691.8</ele>
        <time>2021-02-27T07:23:23Z</time>
      </trkpt>
      <trkpt lat="45.15809" lon="5.96133">
        <ele>2691.8</ele>
        <time>2021-02-27T07:23:24Z</time>
      </trkpt>
      <trkpt lat="45.15809" lon="5.96133">
        <ele>2691.8</ele>
        <time>2021-02-27T07:23:25Z</time>
      </trkpt>
      <trkpt lat="45.15809" lon="5.96133">
        <ele>2691.6</ele>
        <time>2021-02-27T07:23:26Z</time>
      </trkpt>
      <trkpt lat="45.15809" lon="5.96133">
        <ele>2691.2</ele>
        <time>2021-02-27T07:23:27Z</time>
      </trkpt>
      <trkpt lat="45.1581" lon="5.9613">
        <ele>2691.2</ele>
        <time>2021-02-27T07:23:28Z</time>
      </trkpt>
      <trkpt lat="45.1581" lon="5.9613">
        <ele>2691</ele>
        <time>2021-02-27T07:23:29Z</time>
      </trkpt>
      <trkpt lat="45.1581" lon="5.9613">
        <ele>2690.6</ele>
        <time>2021-02-27T07:23:30Z</time>
      </trkpt>
      <trkpt lat="45.1581" lon="5.9613">
        <ele>2691</ele>
        <time>2021-02-27T07:23:31Z</time>
      </trkpt>
      <trkpt lat="45.1581" lon="5.9613">
        <ele>2691</ele>
        <time>2021-02-27T07:23:32Z</time>
      </trkpt>
      <trkpt lat="45.1581" lon="5.9613">
        <ele>2691</ele>
        <time>2021-02-27T07:23:33Z</time>
      </trkpt>
      <trkpt lat="45.1581" lon="5.9613">
        <ele>2690.8</ele>
        <time>2021-02-27T07:23:34Z</time>
      </trkpt>
      <trkpt lat="45.1581" lon="5.9613">
        <ele>2690.8</ele>
        <time>2021-02-27T07:23:35Z</time>
      </trkpt>
      <trkpt lat="45.1581" lon="5.9613">
        <ele>2690.6</ele>
        <time>2021-02-27T07:23:36Z</time>
      </trkpt>
      <trkpt lat="45.1581" lon="5.9613">
        <ele>2690.8</ele>
        <time>2021-02-27T07:23:37Z</time>
      </trkpt>
      <trkpt lat="45.1581" lon="5.9613">
        <ele>2691.2</ele>
        <time>2021-02-27T07:23:38Z</time>
      </trkpt>
      <trkpt lat="45.1581" lon="5.9613">
        <ele>2691.2</ele>
        <time>2021-02-27T07:23:39Z</time>
      </trkpt>
      <trkpt lat="45.15812" lon="5.96129">
        <ele>2691.2</ele>
        <time>2021-02-27T07:23:40Z</time>
      </trkpt>
      <trkpt lat="45.15812" lon="5.96129">
        <ele>2691</ele>
        <time>2021-02-27T07:23:41Z</time>
      </trkpt>
      <trkpt lat="45.15815" lon="5.9613">
        <ele>2690.6</ele>
        <time>2021-02-27T07:23:42Z</time>
      </trkpt>
      <trkpt lat="45.15818" lon="5.96131">
        <ele>2690.8</ele>
        <time>2021-02-27T07:23:43Z</time>
      </trkpt>
      <trkpt lat="45.1582" lon="5.96133">
        <ele>2689.6</ele>
        <time>2021-02-27T07:23:44Z</time>
      </trkpt>
      <trkpt lat="45.15822" lon="5.96136">
        <ele>2690</ele>
        <time>2021-02-27T07:23:45Z</time>
      </trkpt>
      <trkpt lat="45.15825" lon="5.9614">
        <ele>2690.6</ele>
        <time>2021-02-27T07:23:46Z</time>
      </trkpt>
      <trkpt lat="45.15827" lon="5.96145">
        <ele>2689.4</ele>
        <time>2021-02-27T07:23:47Z</time>
      </trkpt>
      <trkpt lat="45.15829" lon="5.9615">
        <ele>2688.2</ele>
        <time>2021-02-27T07:23:48Z</time>
      </trkpt>
      <trkpt lat="45.1583" lon="5.96156">
        <ele>2688.2</ele>
        <time>2021-02-27T07:23:49Z</time>
      </trkpt>
      <trkpt lat="45.1583" lon="5.96162">
        <ele>2688</ele>
        <time>2021-02-27T07:23:50Z</time>
      </trkpt>
      <trkpt lat="45.15829" lon="5.96167">
        <ele>2686.6</ele>
        <time>2021-02-27T07:23:51Z</time>
      </trkpt>
      <trkpt lat="45.15829" lon="5.96172">
        <ele>2685.8</ele>
        <time>2021-02-27T07:23:52Z</time>
      </trkpt>
      <trkpt lat="45.15831" lon="5.96176">
        <ele>2684.8</ele>
        <time>2021-02-27T07:23:53Z</time>
      </trkpt>
      <trkpt lat="45.15833" lon="5.96177">
        <ele>2684</ele>
        <time>2021-02-27T07:23:54Z</time>
      </trkpt>
      <trkpt lat="45.15837" lon="5.96176">
        <ele>2684</ele>
        <time>2021-02-27T07:23:55Z</time>
      </trkpt>
      <trkpt lat="45.1584" lon="5.96178">
        <ele>2683.8</ele>
        <time>2021-02-27T07:23:56Z</time>
      </trkpt>
      <trkpt lat="45.15842" lon="5.96182">
        <ele>2682.6</ele>
        <time>2021-02-27T07:23:57Z</time>
      </trkpt>
      <trkpt lat="45.15843" lon="5.96187">
        <ele>2681.2</ele>
        <time>2021-02-27T07:23:58Z</time>
      </trkpt>
      <trkpt lat="45.15844" lon="5.96191">
        <ele>2680</ele>
        <time>2021-02-27T07:23:59Z</time>
      </trkpt>
      <trkpt lat="45.15845" lon="5.96197">
        <ele>2679.4</ele>
        <time>2021-02-27T07:24:00Z</time>
      </trkpt>
      <trkpt lat="45.15846" lon="5.96203">
        <ele>2679</ele>
        <time>2021-02-27T07:24:01Z</time>
      </trkpt>
      <trkpt lat="45.15847" lon="5.9621">
        <ele>2678.2</ele>
        <time>2021-02-27T07:24:02Z</time>
      </trkpt>
      <trkpt lat="45.15847" lon="5.96215">
        <ele>2677.2</ele>
        <time>2021-02-27T07:24:03Z</time>
      </trkpt>
      <trkpt lat="45.15847" lon="5.96218">
        <ele>2676.6</ele>
        <time>2021-02-27T07:24:04Z</time>
      </trkpt>
      <trkpt lat="45.15847" lon="5.96218">
        <ele>2676.2</ele>
        <time>2021-02-27T07:24:05Z</time>
      </trkpt>
      <trkpt lat="45.15848" lon="5.96222">
        <ele>2676.2</ele>
        <time>2021-02-27T07:24:06Z</time>
      </trkpt>
      <trkpt lat="45.15849" lon="5.96225">
        <ele>2676.4</ele>
        <time>2021-02-27T07:24:07Z</time>
      </trkpt>
      <trkpt lat="45.15849" lon="5.96225">
        <ele>2676.2</ele>
        <time>2021-02-27T07:24:08Z</time>
      </trkpt>
      <trkpt lat="45.15849" lon="5.96229">
        <ele>2676</ele>
        <time>2021-02-27T07:24:09Z</time>
      </trkpt>
      <trkpt lat="45.15849" lon="5.96229">
        <ele>2676</ele>
        <time>2021-02-27T07:24:10Z</time>
      </trkpt>
      <trkpt lat="45.15849" lon="5.96233">
        <ele>2676.2</ele>
        <time>2021-02-27T07:24:11Z</time>
      </trkpt>
      <trkpt lat="45.15849" lon="5.96233">
        <ele>2676</ele>
        <time>2021-02-27T07:24:12Z</time>
      </trkpt>
      <trkpt lat="45.15849" lon="5.96238">
        <ele>2675.8</ele>
        <time>2021-02-27T07:24:13Z</time>
      </trkpt>
      <trkpt lat="45.15848" lon="5.96243">
        <ele>2675.2</ele>
        <time>2021-02-27T07:24:14Z</time>
      </trkpt>
      <trkpt lat="45.15847" lon="5.96249">
        <ele>2674.8</ele>
        <time>2021-02-27T07:24:15Z</time>
      </trkpt>
      <trkpt lat="45.15845" lon="5.96256">
        <ele>2674.4</ele>
        <time>2021-02-27T07:24:16Z</time>
      </trkpt>
      <trkpt lat="45.15845" lon="5.96261">
        <ele>2673.4</ele>
        <time>2021-02-27T07:24:17Z</time>
      </trkpt>
      <trkpt lat="45.15845" lon="5.96261">
        <ele>2671.8</ele>
        <time>2021-02-27T07:24:18Z</time>
      </trkpt>
      <trkpt lat="45.15845" lon="5.96261">
        <ele>2671</ele>
        <time>2021-02-27T07:24:19Z</time>
      </trkpt>
      <trkpt lat="45.15845" lon="5.96261">
        <ele>2669.8</ele>
        <time>2021-02-27T07:24:20Z</time>
      </trkpt>
      <trkpt lat="45.15845" lon="5.96261">
        <ele>2669.2</ele>
        <time>2021-02-27T07:24:21Z</time>
      </trkpt>
      <trkpt lat="45.15845" lon="5.96261">
        <ele>2668.8</ele>
        <time>2021-02-27T07:24:22Z</time>
      </trkpt>
      <trkpt lat="45.15846" lon="5.96263">
        <ele>2668.8</ele>
        <time>2021-02-27T07:24:23Z</time>
      </trkpt>
      <trkpt lat="45.15846" lon="5.96263">
        <ele>2668.4</ele>
        <time>2021-02-27T07:24:24Z</time>
      </trkpt>
      <trkpt lat="45.15847" lon="5.96272">
        <ele>2667.8</ele>
        <time>2021-02-27T07:24:25Z</time>
      </trkpt>
      <trkpt lat="45.15847" lon="5.96274">
        <ele>2667.2</ele>
        <time>2021-02-27T07:24:26Z</time>
      </trkpt>
      <trkpt lat="45.15847" lon="5.9628">
        <ele>2666.8</ele>
        <time>2021-02-27T07:24:27Z</time>
      </trkpt>
      <trkpt lat="45.15847" lon="5.96284">
        <ele>2666.2</ele>
        <time>2021-02-27T07:24:28Z</time>
      </trkpt>
      <trkpt lat="45.15848" lon="5.96287">
        <ele>2665.6</ele>
        <time>2021-02-27T07:24:29Z</time>
      </trkpt>
      <trkpt lat="45.15848" lon="5.96287">
        <ele>2665</ele>
        <time>2021-02-27T07:24:30Z</time>
      </trkpt>
      <trkpt lat="45.15848" lon="5.9629">
        <ele>2664.8</ele>
        <time>2021-02-27T07:24:31Z</time>
      </trkpt>
      <trkpt lat="45.15848" lon="5.9629">
        <ele>2664.6</ele>
        <time>2021-02-27T07:24:32Z</time>
      </trkpt>
      <trkpt lat="45.15848" lon="5.9629">
        <ele>2664.4</ele>
        <time>2021-02-27T07:24:33Z</time>
      </trkpt>
      <trkpt lat="45.15848" lon="5.9629">
        <ele>2664.2</ele>
        <time>2021-02-27T07:24:34Z</time>
      </trkpt>
      <trkpt lat="45.15848" lon="5.9629">
        <ele>2664</ele>
        <time>2021-02-27T07:24:35Z</time>
      </trkpt>
      <trkpt lat="45.15848" lon="5.9629">
        <ele>2663.8</ele>
        <time>2021-02-27T07:24:36Z</time>
      </trkpt>
      <trkpt lat="45.15848" lon="5.9629">
        <ele>2663.8</ele>
        <time>2021-02-27T07:24:37Z</time>
      </trkpt>
      <trkpt lat="45.15848" lon="5.9629">
        <ele>2663.8</ele>
        <time>2021-02-27T07:24:38Z</time>
      </trkpt>
      <trkpt lat="45.15848" lon="5.9629">
        <ele>2663.6</ele>
        <time>2021-02-27T07:24:39Z</time>
      </trkpt>
      <trkpt lat="45.15848" lon="5.9629">
        <ele>2663.6</ele>
        <time>2021-02-27T07:24:40Z</time>
      </trkpt>
      <trkpt lat="45.1585" lon="5.96291">
        <ele>2663.8</ele>
        <time>2021-02-27T07:24:41Z</time>
      </trkpt>
      <trkpt lat="45.1585" lon="5.96291">
        <ele>2663.6</ele>
        <time>2021-02-27T07:24:42Z</time>
      </trkpt>
      <trkpt lat="45.15852" lon="5.96293">
        <ele>2663</ele>
        <time>2021-02-27T07:24:43Z</time>
      </trkpt>
      <trkpt lat="45.15852" lon="5.96293">
        <ele>2663</ele>
        <time>2021-02-27T07:24:44Z</time>
      </trkpt>
      <trkpt lat="45.15853" lon="5.96291">
        <ele>2662.4</ele>
        <time>2021-02-27T07:24:45Z</time>
      </trkpt>
      <trkpt lat="45.15853" lon="5.96291">
        <ele>2661.4</ele>
        <time>2021-02-27T07:24:46Z</time>
      </trkpt>
      <trkpt lat="45.15853" lon="5.96291">
        <ele>2661.2</ele>
        <time>2021-02-27T07:24:47Z</time>
      </trkpt>
      <trkpt lat="45.15853" lon="5.96291">
        <ele>2660.6</ele>
        <time>2021-02-27T07:24:48Z</time>
      </trkpt>
      <trkpt lat="45.15853" lon="5.96287">
        <ele>2660.4</ele>
        <time>2021-02-27T07:24:49Z</time>
      </trkpt>
      <trkpt lat="45.15854" lon="5.96284">
        <ele>2660</ele>
        <time>2021-02-27T07:24:50Z</time>
      </trkpt>
      <trkpt lat="45.15856" lon="5.96282">
        <ele>2659.6</ele>
        <time>2021-02-27T07:24:51Z</time>
      </trkpt>
      <trkpt lat="45.15859" lon="5.96284">
        <ele>2659</ele>
        <time>2021-02-27T07:24:52Z</time>
      </trkpt>
      <trkpt lat="45.15862" lon="5.96288">
        <ele>2657.8</ele>
        <time>2021-02-27T07:24:53Z</time>
      </trkpt>
      <trkpt lat="45.15862" lon="5.96288">
        <ele>2656.6</ele>
        <time>2021-02-27T07:24:54Z</time>
      </trkpt>
      <trkpt lat="45.15867" lon="5.96293">
        <ele>2655.4</ele>
        <time>2021-02-27T07:24:55Z</time>
      </trkpt>
      <trkpt lat="45.15868" lon="5.96293">
        <ele>2654.4</ele>
        <time>2021-02-27T07:24:56Z</time>
      </trkpt>
      <trkpt lat="45.1587" lon="5.96294">
        <ele>2653.4</ele>
        <time>2021-02-27T07:24:57Z</time>
      </trkpt>
      <trkpt lat="45.15872" lon="5.96292">
        <ele>2652.8</ele>
        <time>2021-02-27T07:24:58Z</time>
      </trkpt>
      <trkpt lat="45.15872" lon="5.96287">
        <ele>2651.8</ele>
        <time>2021-02-27T07:24:59Z</time>
      </trkpt>
      <trkpt lat="45.15873" lon="5.96282">
        <ele>2650.4</ele>
        <time>2021-02-27T07:25:00Z</time>
      </trkpt>
      <trkpt lat="45.15877" lon="5.9628">
        <ele>2649.2</ele>
        <time>2021-02-27T07:25:01Z</time>
      </trkpt>
      <trkpt lat="45.15882" lon="5.96281">
        <ele>2647.8</ele>
        <time>2021-02-27T07:25:02Z</time>
      </trkpt>
      <trkpt lat="45.15882" lon="5.96281">
        <ele>2645.8</ele>
        <time>2021-02-27T07:25:03Z</time>
      </trkpt>
      <trkpt lat="45.15884" lon="5.96284">
        <ele>2644.2</ele>
        <time>2021-02-27T07:25:04Z</time>
      </trkpt>
      <trkpt lat="45.15887" lon="5.96287">
        <ele>2642.4</ele>
        <time>2021-02-27T07:25:05Z</time>
      </trkpt>
      <trkpt lat="45.1589" lon="5.96289">
        <ele>2641.4</ele>
        <time>2021-02-27T07:25:06Z</time>
      </trkpt>
      <trkpt lat="45.15891" lon="5.96281">
        <ele>2640.6</ele>
        <time>2021-02-27T07:25:07Z</time>
      </trkpt>
      <trkpt lat="45.15891" lon="5.96278">
        <ele>2639.2</ele>
        <time>2021-02-27T07:25:08Z</time>
      </trkpt>
      <trkpt lat="45.15891" lon="5.96274">
        <ele>2637.8</ele>
        <time>2021-02-27T07:25:09Z</time>
      </trkpt>
      <trkpt lat="45.15891" lon="5.96274">
        <ele>2636.6</ele>
        <time>2021-02-27T07:25:10Z</time>
      </trkpt>
      <trkpt lat="45.15891" lon="5.96269">
        <ele>2635.6</ele>
        <time>2021-02-27T07:25:11Z</time>
      </trkpt>
      <trkpt lat="45.15891" lon="5.96264">
        <ele>2634.2</ele>
        <time>2021-02-27T07:25:12Z</time>
      </trkpt>
      <trkpt lat="45.15892" lon="5.96259">
        <ele>2633.2</ele>
        <time>2021-02-27T07:25:13Z</time>
      </trkpt>
      <trkpt lat="45.15895" lon="5.96261">
        <ele>2632.4</ele>
        <time>2021-02-27T07:25:14Z</time>
      </trkpt>
      <trkpt lat="45.15896" lon="5.96266">
        <ele>2631</ele>
        <time>2021-02-27T07:25:15Z</time>
      </trkpt>
      <trkpt lat="45.15896" lon="5.96266">
        <ele>2629</ele>
        <time>2021-02-27T07:25:16Z</time>
      </trkpt>
      <trkpt lat="45.15901" lon="5.96275">
        <ele>2627.8</ele>
        <time>2021-02-27T07:25:17Z</time>
      </trkpt>
      <trkpt lat="45.15902" lon="5.96276">
        <ele>2626.4</ele>
        <time>2021-02-27T07:25:18Z</time>
      </trkpt>
      <trkpt lat="45.15902" lon="5.96276">
        <ele>2625.6</ele>
        <time>2021-02-27T07:25:19Z</time>
      </trkpt>
      <trkpt lat="45.15904" lon="5.96276">
        <ele>2624.6</ele>
        <time>2021-02-27T07:25:20Z</time>
      </trkpt>
      <trkpt lat="45.15904" lon="5.96276">
        <ele>2623.4</ele>
        <time>2021-02-27T07:25:21Z</time>
      </trkpt>
      <trkpt lat="45.15909" lon="5.96273">
        <ele>2623</ele>
        <time>2021-02-27T07:25:22Z</time>
      </trkpt>
      <trkpt lat="45.15911" lon="5.96272">
        <ele>2622</ele>
        <time>2021-02-27T07:25:23Z</time>
      </trkpt>
      <trkpt lat="45.15914" lon="5.96271">
        <ele>2620.6</ele>
        <time>2021-02-27T07:25:24Z</time>
      </trkpt>
      <trkpt lat="45.15916" lon="5.96274">
        <ele>2618.8</ele>
        <time>2021-02-27T07:25:25Z</time>
      </trkpt>
      <trkpt lat="45.15917" lon="5.96277">
        <ele>2616.8</ele>
        <time>2021-02-27T07:25:26Z</time>
      </trkpt>
      <trkpt lat="45.15921" lon="5.96279">
        <ele>2615</ele>
        <time>2021-02-27T07:25:27Z</time>
      </trkpt>
      <trkpt lat="45.15921" lon="5.96279">
        <ele>2614.2</ele>
        <time>2021-02-27T07:25:28Z</time>
      </trkpt>
      <trkpt lat="45.15925" lon="5.96278">
        <ele>2612.8</ele>
        <time>2021-02-27T07:25:29Z</time>
      </trkpt>
      <trkpt lat="45.15929" lon="5.96277">
        <ele>2611.2</ele>
        <time>2021-02-27T07:25:30Z</time>
      </trkpt>
      <trkpt lat="45.15933" lon="5.96276">
        <ele>2609.8</ele>
        <time>2021-02-27T07:25:31Z</time>
      </trkpt>
      <trkpt lat="45.15936" lon="5.96279">
        <ele>2607.4</ele>
        <time>2021-02-27T07:25:32Z</time>
      </trkpt>
      <trkpt lat="45.15936" lon="5.96279">
        <ele>2605.2</ele>
        <time>2021-02-27T07:25:33Z</time>
      </trkpt>
      <trkpt lat="45.15939" lon="5.96281">
        <ele>2603.6</ele>
        <time>2021-02-27T07:25:34Z</time>
      </trkpt>
      <trkpt lat="45.15942" lon="5.96283">
        <ele>2602</ele>
        <time>2021-02-27T07:25:35Z</time>
      </trkpt>
      <trkpt lat="45.15945" lon="5.96285">
        <ele>2600.8</ele>
        <time>2021-02-27T07:25:36Z</time>
      </trkpt>
      <trkpt lat="45.15946" lon="5.9628">
        <ele>2599.2</ele>
        <time>2021-02-27T07:25:37Z</time>
      </trkpt>
      <trkpt lat="45.15948" lon="5.96275">
        <ele>2597.6</ele>
        <time>2021-02-27T07:25:38Z</time>
      </trkpt>
      <trkpt lat="45.1595" lon="5.9627">
        <ele>2596.2</ele>
        <time>2021-02-27T07:25:39Z</time>
      </trkpt>
      <trkpt lat="45.15951" lon="5.96271">
        <ele>2595</ele>
        <time>2021-02-27T07:25:40Z</time>
      </trkpt>
      <trkpt lat="45.15952" lon="5.96272">
        <ele>2593.6</ele>
        <time>2021-02-27T07:25:41Z</time>
      </trkpt>
      <trkpt lat="45.15953" lon="5.96273">
        <ele>2592.2</ele>
        <time>2021-02-27T07:25:42Z</time>
      </trkpt>
      <trkpt lat="45.15954" lon="5.96275">
        <ele>2590.6</ele>
        <time>2021-02-27T07:25:43Z</time>
      </trkpt>
      <trkpt lat="45.15955" lon="5.96276">
        <ele>2589</ele>
        <time>2021-02-27T07:25:44Z</time>
      </trkpt>
      <trkpt lat="45.15956" lon="5.96277">
        <ele>2587.4</ele>
        <time>2021-02-27T07:25:45Z</time>
      </trkpt>
      <trkpt lat="45.15957" lon="5.96279">
        <ele>2586.2</ele>
        <time>2021-02-27T07:25:46Z</time>
      </trkpt>
      <trkpt lat="45.1596" lon="5.96281">
        <ele>2584.8</ele>
        <time>2021-02-27T07:25:47Z</time>
      </trkpt>
      <trkpt lat="45.15963" lon="5.96282">
        <ele>2583.6</ele>
        <time>2021-02-27T07:25:48Z</time>
      </trkpt>
      <trkpt lat="45.15966" lon="5.96284">
        <ele>2582.2</ele>
        <time>2021-02-27T07:25:49Z</time>
      </trkpt>
      <trkpt lat="45.15969" lon="5.96272">
        <ele>2581</ele>
        <time>2021-02-27T07:25:50Z</time>
      </trkpt>
      <trkpt lat="45.15969" lon="5.96272">
        <ele>2579.4</ele>
        <time>2021-02-27T07:25:51Z</time>
      </trkpt>
      <trkpt lat="45.15973" lon="5.96271">
        <ele>2578</ele>
        <time>2021-02-27T07:25:52Z</time>
      </trkpt>
      <trkpt lat="45.15978" lon="5.9627">
        <ele>2576.8</ele>
        <time>2021-02-27T07:25:53Z</time>
      </trkpt>
      <trkpt lat="45.15983" lon="5.96269">
        <ele>2575.4</ele>
        <time>2021-02-27T07:25:54Z</time>
      </trkpt>
      <trkpt lat="45.15986" lon="5.96275">
        <ele>2573.8</ele>
        <time>2021-02-27T07:25:55Z</time>
      </trkpt>
      <trkpt lat="45.15986" lon="5.96275">
        <ele>2572.2</ele>
        <time>2021-02-27T07:25:56Z</time>
      </trkpt>
      <trkpt lat="45.1599" lon="5.96272">
        <ele>2571</ele>
        <time>2021-02-27T07:25:57Z</time>
      </trkpt>
      <trkpt lat="45.15994" lon="5.96269">
        <ele>2569.4</ele>
        <time>2021-02-27T07:25:58Z</time>
      </trkpt>
      <trkpt lat="45.15999" lon="5.96265">
        <ele>2567.8</ele>
        <time>2021-02-27T07:25:59Z</time>
      </trkpt>
      <trkpt lat="45.16001" lon="5.96259">
        <ele>2566.6</ele>
        <time>2021-02-27T07:26:00Z</time>
      </trkpt>
      <trkpt lat="45.16001" lon="5.96259">
        <ele>2565.4</ele>
        <time>2021-02-27T07:26:01Z</time>
      </trkpt>
      <trkpt lat="45.16001" lon="5.96255">
        <ele>2564.2</ele>
        <time>2021-02-27T07:26:02Z</time>
      </trkpt>
      <trkpt lat="45.16001" lon="5.9625">
        <ele>2563</ele>
        <time>2021-02-27T07:26:03Z</time>
      </trkpt>
      <trkpt lat="45.16001" lon="5.96245">
        <ele>2561.8</ele>
        <time>2021-02-27T07:26:04Z</time>
      </trkpt>
      <trkpt lat="45.16002" lon="5.96244">
        <ele>2561</ele>
        <time>2021-02-27T07:26:05Z</time>
      </trkpt>
      <trkpt lat="45.16002" lon="5.96243">
        <ele>2560.2</ele>
        <time>2021-02-27T07:26:06Z</time>
      </trkpt>
      <trkpt lat="45.16003" lon="5.96242">
        <ele>2558.6</ele>
        <time>2021-02-27T07:26:07Z</time>
      </trkpt>
      <trkpt lat="45.16004" lon="5.9624">
        <ele>2557.4</ele>
        <time>2021-02-27T07:26:08Z</time>
      </trkpt>
      <trkpt lat="45.16004" lon="5.96239">
        <ele>2556</ele>
        <time>2021-02-27T07:26:09Z</time>
      </trkpt>
      <trkpt lat="45.16005" lon="5.96238">
        <ele>2555</ele>
        <time>2021-02-27T07:26:10Z</time>
      </trkpt>
      <trkpt lat="45.16005" lon="5.96236">
        <ele>2554</ele>
        <time>2021-02-27T07:26:11Z</time>
      </trkpt>
      <trkpt lat="45.16006" lon="5.96235">
        <ele>2553</ele>
        <time>2021-02-27T07:26:12Z</time>
      </trkpt>
      <trkpt lat="45.16007" lon="5.96234">
        <ele>2551.6</ele>
        <time>2021-02-27T07:26:13Z</time>
      </trkpt>
      <trkpt lat="45.16007" lon="5.96233">
        <ele>2550</ele>
        <time>2021-02-27T07:26:14Z</time>
      </trkpt>
      <trkpt lat="45.16009" lon="5.96232">
        <ele>2549.2</ele>
        <time>2021-02-27T07:26:15Z</time>
      </trkpt>
      <trkpt lat="45.16011" lon="5.96231">
        <ele>2547.8</ele>
        <time>2021-02-27T07:26:16Z</time>
      </trkpt>
      <trkpt lat="45.16013" lon="5.96231">
        <ele>2546.4</ele>
        <time>2021-02-27T07:26:17Z</time>
      </trkpt>
      <trkpt lat="45.16014" lon="5.9623">
        <ele>2544.8</ele>
        <time>2021-02-27T07:26:18Z</time>
      </trkpt>
      <trkpt lat="45.16016" lon="5.9623">
        <ele>2543.4</ele>
        <time>2021-02-27T07:26:19Z</time>
      </trkpt>
      <trkpt lat="45.16018" lon="5.96229">
        <ele>2541.8</ele>
        <time>2021-02-27T07:26:20Z</time>
      </trkpt>
      <trkpt lat="45.1602" lon="5.9623">
        <ele>2540</ele>
        <time>2021-02-27T07:26:21Z</time>
      </trkpt>
      <trkpt lat="45.16021" lon="5.96231">
        <ele>2538.4</ele>
        <time>2021-02-27T07:26:22Z</time>
      </trkpt>
      <trkpt lat="45.16023" lon="5.96232">
        <ele>2536.6</ele>
        <time>2021-02-27T07:26:23Z</time>
      </trkpt>
      <trkpt lat="45.16025" lon="5.96233">
        <ele>2534.8</ele>
        <time>2021-02-27T07:26:24Z</time>
      </trkpt>
      <trkpt lat="45.16026" lon="5.96234">
        <ele>2533.2</ele>
        <time>2021-02-27T07:26:25Z</time>
      </trkpt>
      <trkpt lat="45.16029" lon="5.96234">
        <ele>2531.8</ele>
        <time>2021-02-27T07:26:26Z</time>
      </trkpt>
      <trkpt lat="45.16032" lon="5.96233">
        <ele>2530</ele>
        <time>2021-02-27T07:26:27Z</time>
      </trkpt>
      <trkpt lat="45.16035" lon="5.96232">
        <ele>2528.2</ele>
        <time>2021-02-27T07:26:28Z</time>
      </trkpt>
      <trkpt lat="45.16038" lon="5.96236">
        <ele>2526.4</ele>
        <time>2021-02-27T07:26:29Z</time>
      </trkpt>
      <trkpt lat="45.1604" lon="5.9624">
        <ele>2524</ele>
        <time>2021-02-27T07:26:30Z</time>
      </trkpt>
      <trkpt lat="45.16043" lon="5.96244">
        <ele>2521.8</ele>
        <time>2021-02-27T07:26:31Z</time>
      </trkpt>
      <trkpt lat="45.16045" lon="5.96244">
        <ele>2520.2</ele>
        <time>2021-02-27T07:26:32Z</time>
      </trkpt>
      <trkpt lat="45.16049" lon="5.9624">
        <ele>2518</ele>
        <time>2021-02-27T07:26:33Z</time>
      </trkpt>
      <trkpt lat="45.16054" lon="5.9624">
        <ele>2515.8</ele>
        <time>2021-02-27T07:26:34Z</time>
      </trkpt>
      <trkpt lat="45.16054" lon="5.9624">
        <ele>2513.8</ele>
        <time>2021-02-27T07:26:35Z</time>
      </trkpt>
      <trkpt lat="45.16062" lon="5.96247">
        <ele>2511.4</ele>
        <time>2021-02-27T07:26:36Z</time>
      </trkpt>
      <trkpt lat="45.16063" lon="5.96249">
        <ele>2509</ele>
        <time>2021-02-27T07:26:37Z</time>
      </trkpt>
      <trkpt lat="45.16067" lon="5.96249">
        <ele>2507</ele>
        <time>2021-02-27T07:26:38Z</time>
      </trkpt>
      <trkpt lat="45.1607" lon="5.96246">
        <ele>2505.2</ele>
        <time>2021-02-27T07:26:39Z</time>
      </trkpt>
      <trkpt lat="45.16074" lon="5.96241">
        <ele>2503.2</ele>
        <time>2021-02-27T07:26:40Z</time>
      </trkpt>
      <trkpt lat="45.16077" lon="5.96238">
        <ele>2501</ele>
        <time>2021-02-27T07:26:41Z</time>
      </trkpt>
      <trkpt lat="45.16082" lon="5.96238">
        <ele>2498.8</ele>
        <time>2021-02-27T07:26:42Z</time>
      </trkpt>
      <trkpt lat="45.16086" lon="5.96241">
        <ele>2496.6</ele>
        <time>2021-02-27T07:26:43Z</time>
      </trkpt>
      <trkpt lat="45.16091" lon="5.96246">
        <ele>2494.6</ele>
        <time>2021-02-27T07:26:44Z</time>
      </trkpt>
      <trkpt lat="45.16095" lon="5.9625">
        <ele>2492.2</ele>
        <time>2021-02-27T07:26:45Z</time>
      </trkpt>
      <trkpt lat="45.16098" lon="5.96253">
        <ele>2490</ele>
        <time>2021-02-27T07:26:46Z</time>
      </trkpt>
      <trkpt lat="45.16102" lon="5.96253">
        <ele>2488</ele>
        <time>2021-02-27T07:26:47Z</time>
      </trkpt>
      <trkpt lat="45.16105" lon="5.9625">
        <ele>2486</ele>
        <time>2021-02-27T07:26:48Z</time>
      </trkpt>
      <trkpt lat="45.1611" lon="5.96247">
        <ele>2484</ele>
        <time>2021-02-27T07:26:49Z</time>
      </trkpt>
      <trkpt lat="45.1611" lon="5.96247">
        <ele>2481.8</ele>
        <time>2021-02-27T07:26:50Z</time>
      </trkpt>
      <trkpt lat="45.16122" lon="5.96255">
        <ele>2479.4</ele>
        <time>2021-02-27T07:26:51Z</time>
      </trkpt>
      <trkpt lat="45.16124" lon="5.96257">
        <ele>2477</ele>
        <time>2021-02-27T07:26:52Z</time>
      </trkpt>
      <trkpt lat="45.16128" lon="5.9626">
        <ele>2474.6</ele>
        <time>2021-02-27T07:26:53Z</time>
      </trkpt>
      <trkpt lat="45.16131" lon="5.9626">
        <ele>2472.8</ele>
        <time>2021-02-27T07:26:54Z</time>
      </trkpt>
      <trkpt lat="45.16133" lon="5.96257">
        <ele>2471.2</ele>
        <time>2021-02-27T07:26:55Z</time>
      </trkpt>
      <trkpt lat="45.16137" lon="5.96255">
        <ele>2469.2</ele>
        <time>2021-02-27T07:26:56Z</time>
      </trkpt>
      <trkpt lat="45.16137" lon="5.96255">
        <ele>2467.4</ele>
        <time>2021-02-27T07:26:57Z</time>
      </trkpt>
      <trkpt lat="45.16145" lon="5.96262">
        <ele>2465</ele>
        <time>2021-02-27T07:26:58Z</time>
      </trkpt>
      <trkpt lat="45.16145" lon="5.96262">
        <ele>2462.8</ele>
        <time>2021-02-27T07:26:59Z</time>
      </trkpt>
      <trkpt lat="45.16149" lon="5.96264">
        <ele>2460.8</ele>
        <time>2021-02-27T07:27:00Z</time>
      </trkpt>
      <trkpt lat="45.16152" lon="5.96265">
        <ele>2459.6</ele>
        <time>2021-02-27T07:27:01Z</time>
      </trkpt>
      <trkpt lat="45.16156" lon="5.96267">
        <ele>2458.4</ele>
        <time>2021-02-27T07:27:02Z</time>
      </trkpt>
      <trkpt lat="45.16159" lon="5.96262">
        <ele>2456.4</ele>
        <time>2021-02-27T07:27:03Z</time>
      </trkpt>
      <trkpt lat="45.16159" lon="5.96262">
        <ele>2454.4</ele>
        <time>2021-02-27T07:27:04Z</time>
      </trkpt>
      <trkpt lat="45.16162" lon="5.9626">
        <ele>2452.8</ele>
        <time>2021-02-27T07:27:05Z</time>
      </trkpt>
      <trkpt lat="45.16165" lon="5.96259">
        <ele>2451.2</ele>
        <time>2021-02-27T07:27:06Z</time>
      </trkpt>
      <trkpt lat="45.16168" lon="5.96258">
        <ele>2449.2</ele>
        <time>2021-02-27T07:27:07Z</time>
      </trkpt>
      <trkpt lat="45.16171" lon="5.96259">
        <ele>2447.4</ele>
        <time>2021-02-27T07:27:08Z</time>
      </trkpt>
      <trkpt lat="45.16174" lon="5.9626">
        <ele>2445.4</ele>
        <time>2021-02-27T07:27:09Z</time>
      </trkpt>
      <trkpt lat="45.16177" lon="5.96261">
        <ele>2444</ele>
        <time>2021-02-27T07:27:10Z</time>
      </trkpt>
      <trkpt lat="45.1618" lon="5.96249">
        <ele>2442.2</ele>
        <time>2021-02-27T07:27:11Z</time>
      </trkpt>
      <trkpt lat="45.1618" lon="5.96249">
        <ele>2440.4</ele>
        <time>2021-02-27T07:27:12Z</time>
      </trkpt>
      <trkpt lat="45.16189" lon="5.96249">
        <ele>2439</ele>
        <time>2021-02-27T07:27:13Z</time>
      </trkpt>
      <trkpt lat="45.16189" lon="5.96249">
        <ele>2437</ele>
        <time>2021-02-27T07:27:14Z</time>
      </trkpt>
      <trkpt lat="45.16204" lon="5.96262">
        <ele>2434.6</ele>
        <time>2021-02-27T07:27:15Z</time>
      </trkpt>
      <trkpt lat="45.16206" lon="5.96264">
        <ele>2432.6</ele>
        <time>2021-02-27T07:27:16Z</time>
      </trkpt>
      <trkpt lat="45.16209" lon="5.96268">
        <ele>2430.6</ele>
        <time>2021-02-27T07:27:17Z</time>
      </trkpt>
      <trkpt lat="45.16209" lon="5.96268">
        <ele>2429.2</ele>
        <time>2021-02-27T07:27:18Z</time>
      </trkpt>
      <trkpt lat="45.16205" lon="5.96273">
        <ele>2427.6</ele>
        <time>2021-02-27T07:27:19Z</time>
      </trkpt>
      <trkpt lat="45.162" lon="5.96279">
        <ele>2426.2</ele>
        <time>2021-02-27T07:27:20Z</time>
      </trkpt>
      <trkpt lat="45.16195" lon="5.96285">
        <ele>2424.2</ele>
        <time>2021-02-27T07:27:21Z</time>
      </trkpt>
      <trkpt lat="45.1619" lon="5.9629">
        <ele>2422</ele>
        <time>2021-02-27T07:27:22Z</time>
      </trkpt>
      <trkpt lat="45.16185" lon="5.96296">
        <ele>2419.8</ele>
        <time>2021-02-27T07:27:23Z</time>
      </trkpt>
      <trkpt lat="45.1619" lon="5.96298">
        <ele>2417.8</ele>
        <time>2021-02-27T07:27:24Z</time>
      </trkpt>
      <trkpt lat="45.16195" lon="5.96299">
        <ele>2416</ele>
        <time>2021-02-27T07:27:25Z</time>
      </trkpt>
      <trkpt lat="45.16199" lon="5.96301">
        <ele>2414.8</ele>
        <time>2021-02-27T07:27:26Z</time>
      </trkpt>
      <trkpt lat="45.16204" lon="5.96303">
        <ele>2412.6</ele>
        <time>2021-02-27T07:27:27Z</time>
      </trkpt>
      <trkpt lat="45.16214" lon="5.96313">
        <ele>2410.2</ele>
        <time>2021-02-27T07:27:28Z</time>
      </trkpt>
      <trkpt lat="45.16216" lon="5.96317">
        <ele>2407.8</ele>
        <time>2021-02-27T07:27:29Z</time>
      </trkpt>
      <trkpt lat="45.16225" lon="5.96332">
        <ele>2405.6</ele>
        <time>2021-02-27T07:27:30Z</time>
      </trkpt>
      <trkpt lat="45.16228" lon="5.96337">
        <ele>2404</ele>
        <time>2021-02-27T07:27:31Z</time>
      </trkpt>
      <trkpt lat="45.16234" lon="5.96348">
        <ele>2402.4</ele>
        <time>2021-02-27T07:27:32Z</time>
      </trkpt>
      <trkpt lat="45.16234" lon="5.96348">
        <ele>2400.8</ele>
        <time>2021-02-27T07:27:33Z</time>
      </trkpt>
      <trkpt lat="45.16246" lon="5.96362">
        <ele>2399.2</ele>
        <time>2021-02-27T07:27:34Z</time>
      </trkpt>
      <trkpt lat="45.16249" lon="5.96364">
        <ele>2398</ele>
        <time>2021-02-27T07:27:35Z</time>
      </trkpt>
      <trkpt lat="45.16256" lon="5.96371">
        <ele>2397.2</ele>
        <time>2021-02-27T07:27:36Z</time>
      </trkpt>
      <trkpt lat="45.16258" lon="5.96373">
        <ele>2396.8</ele>
        <time>2021-02-27T07:27:37Z</time>
      </trkpt>
      <trkpt lat="45.16266" lon="5.96379">
        <ele>2395.4</ele>
        <time>2021-02-27T07:27:38Z</time>
      </trkpt>
      <trkpt lat="45.16269" lon="5.96381">
        <ele>2394.8</ele>
        <time>2021-02-27T07:27:39Z</time>
      </trkpt>
      <trkpt lat="45.16278" lon="5.96386">
        <ele>2393.8</ele>
        <time>2021-02-27T07:27:40Z</time>
      </trkpt>
      <trkpt lat="45.16281" lon="5.96388">
        <ele>2394</ele>
        <time>2021-02-27T07:27:41Z</time>
      </trkpt>
      <trkpt lat="45.16291" lon="5.96393">
        <ele>2393.4</ele>
        <time>2021-02-27T07:27:42Z</time>
      </trkpt>
      <trkpt lat="45.16295" lon="5.96395">
        <ele>2393</ele>
        <time>2021-02-27T07:27:43Z</time>
      </trkpt>
      <trkpt lat="45.16304" lon="5.96399">
        <ele>2391.8</ele>
        <time>2021-02-27T07:27:44Z</time>
      </trkpt>
      <trkpt lat="45.16307" lon="5.96401">
        <ele>2392.2</ele>
        <time>2021-02-27T07:27:45Z</time>
      </trkpt>
      <trkpt lat="45.16315" lon="5.96404">
        <ele>2391.4</ele>
        <time>2021-02-27T07:27:46Z</time>
      </trkpt>
      <trkpt lat="45.16318" lon="5.96405">
        <ele>2390.6</ele>
        <time>2021-02-27T07:27:47Z</time>
      </trkpt>
      <trkpt lat="45.16322" lon="5.96406">
        <ele>2390.6</ele>
        <time>2021-02-27T07:27:48Z</time>
      </trkpt>
      <trkpt lat="45.16322" lon="5.96406">
        <ele>2391.2</ele>
        <time>2021-02-27T07:27:49Z</time>
      </trkpt>
      <trkpt lat="45.16324" lon="5.96409">
        <ele>2390.6</ele>
        <time>2021-02-27T07:27:50Z</time>
      </trkpt>
      <trkpt lat="45.16325" lon="5.96411">
        <ele>2390.6</ele>
        <time>2021-02-27T07:27:51Z</time>
      </trkpt>
      <trkpt lat="45.16326" lon="5.96413">
        <ele>2390.4</ele>
        <time>2021-02-27T07:27:52Z</time>
      </trkpt>
      <trkpt lat="45.16328" lon="5.96415">
        <ele>2390</ele>
        <time>2021-02-27T07:27:53Z</time>
      </trkpt>
      <trkpt lat="45.16329" lon="5.96418">
        <ele>2390</ele>
        <time>2021-02-27T07:27:54Z</time>
      </trkpt>
      <trkpt lat="45.16332" lon="5.96421">
        <ele>2389.2</ele>
        <time>2021-02-27T07:27:55Z</time>
      </trkpt>
      <trkpt lat="45.16334" lon="5.96423">
        <ele>2389</ele>
        <time>2021-02-27T07:27:56Z</time>
      </trkpt>
      <trkpt lat="45.16337" lon="5.96426">
        <ele>2388.4</ele>
        <time>2021-02-27T07:27:57Z</time>
      </trkpt>
      <trkpt lat="45.1634" lon="5.96429">
        <ele>2388</ele>
        <time>2021-02-27T07:27:58Z</time>
      </trkpt>
      <trkpt lat="45.16343" lon="5.96432">
        <ele>2388</ele>
        <time>2021-02-27T07:27:59Z</time>
      </trkpt>
      <trkpt lat="45.16346" lon="5.96435">
        <ele>2388</ele>
        <time>2021-02-27T07:28:00Z</time>
      </trkpt>
      <trkpt lat="45.16348" lon="5.96437">
        <ele>2387.8</ele>
        <time>2021-02-27T07:28:01Z</time>
      </trkpt>
      <trkpt lat="45.16351" lon="5.9644">
        <ele>2386.8</ele>
        <time>2021-02-27T07:28:02Z</time>
      </trkpt>
      <trkpt lat="45.16353" lon="5.96443">
        <ele>2387.2</ele>
        <time>2021-02-27T07:28:03Z</time>
      </trkpt>
      <trkpt lat="45.16356" lon="5.96446">
        <ele>2387</ele>
        <time>2021-02-27T07:28:04Z</time>
      </trkpt>
      <trkpt lat="45.16359" lon="5.96448">
        <ele>2386.8</ele>
        <time>2021-02-27T07:28:05Z</time>
      </trkpt>
      <trkpt lat="45.16362" lon="5.96451">
        <ele>2387</ele>
        <time>2021-02-27T07:28:06Z</time>
      </trkpt>
      <trkpt lat="45.16364" lon="5.96454">
        <ele>2387</ele>
        <time>2021-02-27T07:28:07Z</time>
      </trkpt>
      <trkpt lat="45.16366" lon="5.96457">
        <ele>2387</ele>
        <time>2021-02-27T07:28:08Z</time>
      </trkpt>
      <trkpt lat="45.16368" lon="5.96461">
        <ele>2387</ele>
        <time>2021-02-27T07:28:09Z</time>
      </trkpt>
      <trkpt lat="45.1637" lon="5.96462">
        <ele>2386.6</ele>
        <time>2021-02-27T07:28:10Z</time>
      </trkpt>
      <trkpt lat="45.16372" lon="5.96463">
        <ele>2386.6</ele>
        <time>2021-02-27T07:28:11Z</time>
      </trkpt>
      <trkpt lat="45.16374" lon="5.96464">
        <ele>2387.2</ele>
        <time>2021-02-27T07:28:12Z</time>
      </trkpt>
      <trkpt lat="45.16376" lon="5.96465">
        <ele>2387</ele>
        <time>2021-02-27T07:28:13Z</time>
      </trkpt>
      <trkpt lat="45.16378" lon="5.96466">
        <ele>2387.2</ele>
        <time>2021-02-27T07:28:14Z</time>
      </trkpt>
      <trkpt lat="45.1638" lon="5.96467">
        <ele>2387</ele>
        <time>2021-02-27T07:28:15Z</time>
      </trkpt>
      <trkpt lat="45.16381" lon="5.96467">
        <ele>2387.4</ele>
        <time>2021-02-27T07:28:16Z</time>
      </trkpt>
      <trkpt lat="45.16383" lon="5.96467">
        <ele>2387</ele>
        <time>2021-02-27T07:28:17Z</time>
      </trkpt>
      <trkpt lat="45.16384" lon="5.96468">
        <ele>2387</ele>
        <time>2021-02-27T07:28:18Z</time>
      </trkpt>
      <trkpt lat="45.16386" lon="5.96468">
        <ele>2387.6</ele>
        <time>2021-02-27T07:28:19Z</time>
      </trkpt>
      <trkpt lat="45.16387" lon="5.96469">
        <ele>2388</ele>
        <time>2021-02-27T07:28:20Z</time>
      </trkpt>
      <trkpt lat="45.16387" lon="5.96469">
        <ele>2388.4</ele>
        <time>2021-02-27T07:28:21Z</time>
      </trkpt>
      <trkpt lat="45.16387" lon="5.96469">
        <ele>2388.4</ele>
        <time>2021-02-27T07:28:22Z</time>
      </trkpt>
      <trkpt lat="45.16387" lon="5.96469">
        <ele>2388.2</ele>
        <time>2021-02-27T07:28:23Z</time>
      </trkpt>
      <trkpt lat="45.16387" lon="5.96469">
        <ele>2388</ele>
        <time>2021-02-27T07:28:24Z</time>
      </trkpt>
      <trkpt lat="45.16387" lon="5.96469">
        <ele>2387.8</ele>
        <time>2021-02-27T07:28:25Z</time>
      </trkpt>
      <trkpt lat="45.16387" lon="5.96469">
        <ele>2387.4</ele>
        <time>2021-02-27T07:28:26Z</time>
      </trkpt>
      <trkpt lat="45.16385" lon="5.96467">
        <ele>2387.2</ele>
        <time>2021-02-27T07:28:27Z</time>
      </trkpt>
      <trkpt lat="45.16385" lon="5.96467">
        <ele>2387.6</ele>
        <time>2021-02-27T07:28:28Z</time>
      </trkpt>
      <trkpt lat="45.16385" lon="5.96467">
        <ele>2387.4</ele>
        <time>2021-02-27T07:28:29Z</time>
      </trkpt>
      <trkpt lat="45.16385" lon="5.96467">
        <ele>2387.2</ele>
        <time>2021-02-27T07:28:30Z</time>
      </trkpt>
      <trkpt lat="45.16385" lon="5.96467">
        <ele>2387.4</ele>
        <time>2021-02-27T07:28:31Z</time>
      </trkpt>
      <trkpt lat="45.16385" lon="5.96467">
        <ele>2387.8</ele>
        <time>2021-02-27T07:28:32Z</time>
      </trkpt>
      <trkpt lat="45.16385" lon="5.96467">
        <ele>2388.2</ele>
        <time>2021-02-27T07:28:33Z</time>
      </trkpt>
      <trkpt lat="45.16385" lon="5.96467">
        <ele>2388.4</ele>
        <time>2021-02-27T07:28:34Z</time>
      </trkpt>
      <trkpt lat="45.16385" lon="5.96467">
        <ele>2388.6</ele>
        <time>2021-02-27T07:28:35Z</time>
      </trkpt>
      <trkpt lat="45.16385" lon="5.96467">
        <ele>2388.8</ele>
        <time>2021-02-27T07:28:36Z</time>
      </trkpt>
      <trkpt lat="45.16385" lon="5.96467">
        <ele>2389</ele>
        <time>2021-02-27T07:28:37Z</time>
      </trkpt>
      <trkpt lat="45.16385" lon="5.96467">
        <ele>2389</ele>
        <time>2021-02-27T07:28:38Z</time>
      </trkpt>
      <trkpt lat="45.16385" lon="5.96467">
        <ele>2389.2</ele>
        <time>2021-02-27T07:28:39Z</time>
      </trkpt>
      <trkpt lat="45.16385" lon="5.96467">
        <ele>2389</ele>
        <time>2021-02-27T07:28:40Z</time>
      </trkpt>
      <trkpt lat="45.16384" lon="5.96469">
        <ele>2389.2</ele>
        <time>2021-02-27T07:28:41Z</time>
      </trkpt>
      <trkpt lat="45.16384" lon="5.96469">
        <ele>2389</ele>
        <time>2021-02-27T07:28:42Z</time>
      </trkpt>
      <trkpt lat="45.16384" lon="5.96469">
        <ele>2388.8</ele>
        <time>2021-02-27T07:28:43Z</time>
      </trkpt>
      <trkpt lat="45.16384" lon="5.96469">
        <ele>2388.6</ele>
        <time>2021-02-27T07:28:44Z</time>
      </trkpt>
      <trkpt lat="45.16384" lon="5.96469">
        <ele>2388.4</ele>
        <time>2021-02-27T07:28:45Z</time>
      </trkpt>
      <trkpt lat="45.16384" lon="5.96469">
        <ele>2388.2</ele>
        <time>2021-02-27T07:28:46Z</time>
      </trkpt>
      <trkpt lat="45.16384" lon="5.96469">
        <ele>2388.2</ele>
        <time>2021-02-27T07:28:47Z</time>
      </trkpt>
      <trkpt lat="45.16384" lon="5.96469">
        <ele>2388</ele>
        <time>2021-02-27T07:28:48Z</time>
      </trkpt>
      <trkpt lat="45.16384" lon="5.96469">
        <ele>2388</ele>
        <time>2021-02-27T07:28:49Z</time>
      </trkpt>
      <trkpt lat="45.16384" lon="5.96469">
        <ele>2388</ele>
        <time>2021-02-27T07:28:50Z</time>
      </trkpt>
      <trkpt lat="45.16384" lon="5.96469">
        <ele>2388</ele>
        <time>2021-02-27T07:28:51Z</time>
      </trkpt>
      <trkpt lat="45.16384" lon="5.96469">
        <ele>2388</ele>
        <time>2021-02-27T07:28:52Z</time>
      </trkpt>
      <trkpt lat="45.16384" lon="5.96469">
        <ele>2387.8</ele>
        <time>2021-02-27T07:28:53Z</time>
      </trkpt>
      <trkpt lat="45.16384" lon="5.96469">
        <ele>2388</ele>
        <time>2021-02-27T07:28:54Z</time>
      </trkpt>
      <trkpt lat="45.16384" lon="5.96469">
        <ele>2388.2</ele>
        <time>2021-02-27T07:28:55Z</time>
      </trkpt>
      <trkpt lat="45.16384" lon="5.96469">
        <ele>2388.4</ele>
        <time>2021-02-27T07:28:56Z</time>
      </trkpt>
      <trkpt lat="45.16384" lon="5.96469">
        <ele>2388.4</ele>
        <time>2021-02-27T07:28:57Z</time>
      </trkpt>
      <trkpt lat="45.16384" lon="5.96469">
        <ele>2388</ele>
        <time>2021-02-27T07:28:58Z</time>
      </trkpt>
      <trkpt lat="45.16384" lon="5.96469">
        <ele>2388</ele>
        <time>2021-02-27T07:28:59Z</time>
      </trkpt>
      <trkpt lat="45.16384" lon="5.96469">
        <ele>2388.2</ele>
        <time>2021-02-27T07:29:00Z</time>
      </trkpt>
      <trkpt lat="45.16384" lon="5.96469">
        <ele>2388.2</ele>
        <time>2021-02-27T07:29:01Z</time>
      </trkpt>
      <trkpt lat="45.16383" lon="5.96471">
        <ele>2388</ele>
        <time>2021-02-27T07:29:02Z</time>
      </trkpt>
      <trkpt lat="45.16383" lon="5.96471">
        <ele>2387.6</ele>
        <time>2021-02-27T07:29:03Z</time>
      </trkpt>
      <trkpt lat="45.16383" lon="5.96471">
        <ele>2387.6</ele>
        <time>2021-02-27T07:29:04Z</time>
      </trkpt>
      <trkpt lat="45.16383" lon="5.96471">
        <ele>2387.4</ele>
        <time>2021-02-27T07:29:05Z</time>
      </trkpt>
      <trkpt lat="45.16383" lon="5.96471">
        <ele>2387.8</ele>
        <time>2021-02-27T07:29:06Z</time>
      </trkpt>
      <trkpt lat="45.16383" lon="5.96471">
        <ele>2388.2</ele>
        <time>2021-02-27T07:29:07Z</time>
      </trkpt>
      <trkpt lat="45.16383" lon="5.96471">
        <ele>2388.6</ele>
        <time>2021-02-27T07:29:08Z</time>
      </trkpt>
      <trkpt lat="45.16383" lon="5.96471">
        <ele>2388.8</ele>
        <time>2021-02-27T07:29:09Z</time>
      </trkpt>
      <trkpt lat="45.16383" lon="5.96471">
        <ele>2389</ele>
        <time>2021-02-27T07:29:10Z</time>
      </trkpt>
      <trkpt lat="45.16383" lon="5.96471">
        <ele>2389.2</ele>
        <time>2021-02-27T07:29:11Z</time>
      </trkpt>
      <trkpt lat="45.16383" lon="5.96471">
        <ele>2389.2</ele>
        <time>2021-02-27T07:29:12Z</time>
      </trkpt>
      <trkpt lat="45.16383" lon="5.96471">
        <ele>2389.4</ele>
        <time>2021-02-27T07:29:13Z</time>
      </trkpt>
      <trkpt lat="45.16383" lon="5.96471">
        <ele>2389.4</ele>
        <time>2021-02-27T07:29:14Z</time>
      </trkpt>
      <trkpt lat="45.16383" lon="5.96471">
        <ele>2389.4</ele>
        <time>2021-02-27T07:29:15Z</time>
      </trkpt>
      <trkpt lat="45.16381" lon="5.9647">
        <ele>2389.6</ele>
        <time>2021-02-27T07:29:16Z</time>
      </trkpt>
      <trkpt lat="45.16381" lon="5.9647">
        <ele>2389.4</ele>
        <time>2021-02-27T07:29:17Z</time>
      </trkpt>
      <trkpt lat="45.16381" lon="5.9647">
        <ele>2389.4</ele>
        <time>2021-02-27T07:29:18Z</time>
      </trkpt>
      <trkpt lat="45.16381" lon="5.9647">
        <ele>2389</ele>
        <time>2021-02-27T07:29:19Z</time>
      </trkpt>
      <trkpt lat="45.16381" lon="5.9647">
        <ele>2389</ele>
        <time>2021-02-27T07:29:20Z</time>
      </trkpt>
      <trkpt lat="45.16381" lon="5.9647">
        <ele>2388.8</ele>
        <time>2021-02-27T07:29:21Z</time>
      </trkpt>
      <trkpt lat="45.16381" lon="5.9647">
        <ele>2388.6</ele>
        <time>2021-02-27T07:29:22Z</time>
      </trkpt>
      <trkpt lat="45.16381" lon="5.9647">
        <ele>2388.6</ele>
        <time>2021-02-27T07:29:23Z</time>
      </trkpt>
      <trkpt lat="45.16381" lon="5.9647">
        <ele>2388.6</ele>
        <time>2021-02-27T07:29:24Z</time>
      </trkpt>
      <trkpt lat="45.16381" lon="5.9647">
        <ele>2388.6</ele>
        <time>2021-02-27T07:29:25Z</time>
      </trkpt>
      <trkpt lat="45.16381" lon="5.9647">
        <ele>2388.2</ele>
        <time>2021-02-27T07:29:26Z</time>
      </trkpt>
      <trkpt lat="45.16381" lon="5.9647">
        <ele>2388.2</ele>
        <time>2021-02-27T07:29:27Z</time>
      </trkpt>
      <trkpt lat="45.16381" lon="5.9647">
        <ele>2388.4</ele>
        <time>2021-02-27T07:29:28Z</time>
      </trkpt>
      <trkpt lat="45.16381" lon="5.9647">
        <ele>2388.2</ele>
        <time>2021-02-27T07:29:29Z</time>
      </trkpt>
      <trkpt lat="45.16381" lon="5.9647">
        <ele>2388.2</ele>
        <time>2021-02-27T07:29:30Z</time>
      </trkpt>
      <trkpt lat="45.16382" lon="5.96472">
        <ele>2388</ele>
        <time>2021-02-27T07:29:31Z</time>
      </trkpt>
      <trkpt lat="45.16382" lon="5.96472">
        <ele>2388</ele>
        <time>2021-02-27T07:29:32Z</time>
      </trkpt>
      <trkpt lat="45.16382" lon="5.96472">
        <ele>2388</ele>
        <time>2021-02-27T07:29:33Z</time>
      </trkpt>
      <trkpt lat="45.16382" lon="5.96472">
        <ele>2387.6</ele>
        <time>2021-02-27T07:29:34Z</time>
      </trkpt>
      <trkpt lat="45.16382" lon="5.96472">
        <ele>2387.8</ele>
        <time>2021-02-27T07:29:35Z</time>
      </trkpt>
      <trkpt lat="45.16382" lon="5.96472">
        <ele>2387.8</ele>
        <time>2021-02-27T07:29:36Z</time>
      </trkpt>
      <trkpt lat="45.16382" lon="5.96472">
        <ele>2387.6</ele>
        <time>2021-02-27T07:29:37Z</time>
      </trkpt>
      <trkpt lat="45.16382" lon="5.96472">
        <ele>2387.6</ele>
        <time>2021-02-27T07:29:38Z</time>
      </trkpt>
      <trkpt lat="45.16382" lon="5.96472">
        <ele>2387.6</ele>
        <time>2021-02-27T07:29:39Z</time>
      </trkpt>
      <trkpt lat="45.16382" lon="5.96472">
        <ele>2387.8</ele>
        <time>2021-02-27T07:29:40Z</time>
      </trkpt>
      <trkpt lat="45.16382" lon="5.96472">
        <ele>2387.6</ele>
        <time>2021-02-27T07:29:41Z</time>
      </trkpt>
      <trkpt lat="45.16382" lon="5.96472">
        <ele>2388</ele>
        <time>2021-02-27T07:29:42Z</time>
      </trkpt>
      <trkpt lat="45.16384" lon="5.96474">
        <ele>2388.2</ele>
        <time>2021-02-27T07:29:43Z</time>
      </trkpt>
      <trkpt lat="45.16384" lon="5.96474">
        <ele>2388.4</ele>
        <time>2021-02-27T07:29:44Z</time>
      </trkpt>
      <trkpt lat="45.16386" lon="5.96475">
        <ele>2388.6</ele>
        <time>2021-02-27T07:29:45Z</time>
      </trkpt>
      <trkpt lat="45.16386" lon="5.96475">
        <ele>2388.8</ele>
        <time>2021-02-27T07:29:46Z</time>
      </trkpt>
      <trkpt lat="45.16387" lon="5.96477">
        <ele>2389.2</ele>
        <time>2021-02-27T07:29:47Z</time>
      </trkpt>
      <trkpt lat="45.16387" lon="5.96477">
        <ele>2389.2</ele>
        <time>2021-02-27T07:29:48Z</time>
      </trkpt>
      <trkpt lat="45.16389" lon="5.96478">
        <ele>2389.4</ele>
        <time>2021-02-27T07:29:49Z</time>
      </trkpt>
      <trkpt lat="45.16389" lon="5.96478">
        <ele>2389.6</ele>
        <time>2021-02-27T07:29:50Z</time>
      </trkpt>
      <trkpt lat="45.1639" lon="5.9648">
        <ele>2389.8</ele>
        <time>2021-02-27T07:29:51Z</time>
      </trkpt>
      <trkpt lat="45.1639" lon="5.9648">
        <ele>2389.8</ele>
        <time>2021-02-27T07:29:52Z</time>
      </trkpt>
      <trkpt lat="45.16392" lon="5.96482">
        <ele>2389.8</ele>
        <time>2021-02-27T07:29:53Z</time>
      </trkpt>
      <trkpt lat="45.16392" lon="5.96482">
        <ele>2390</ele>
        <time>2021-02-27T07:29:54Z</time>
      </trkpt>
      <trkpt lat="45.16394" lon="5.96483">
        <ele>2390.4</ele>
        <time>2021-02-27T07:29:55Z</time>
      </trkpt>
      <trkpt lat="45.16394" lon="5.96483">
        <ele>2390.4</ele>
        <time>2021-02-27T07:29:56Z</time>
      </trkpt>
      <trkpt lat="45.16396" lon="5.96485">
        <ele>2390.4</ele>
        <time>2021-02-27T07:29:57Z</time>
      </trkpt>
      <trkpt lat="45.16396" lon="5.96485">
        <ele>2390.6</ele>
        <time>2021-02-27T07:29:58Z</time>
      </trkpt>
      <trkpt lat="45.16397" lon="5.96487">
        <ele>2390.8</ele>
        <time>2021-02-27T07:29:59Z</time>
      </trkpt>
      <trkpt lat="45.16397" lon="5.96487">
        <ele>2390.8</ele>
        <time>2021-02-27T07:30:00Z</time>
      </trkpt>
      <trkpt lat="45.16399" lon="5.96489">
        <ele>2390.8</ele>
        <time>2021-02-27T07:30:01Z</time>
      </trkpt>
      <trkpt lat="45.16399" lon="5.96489">
        <ele>2390.8</ele>
        <time>2021-02-27T07:30:02Z</time>
      </trkpt>
      <trkpt lat="45.16401" lon="5.9649">
        <ele>2391.2</ele>
        <time>2021-02-27T07:30:03Z</time>
      </trkpt>
      <trkpt lat="45.16401" lon="5.9649">
        <ele>2391.4</ele>
        <time>2021-02-27T07:30:04Z</time>
      </trkpt>
      <trkpt lat="45.16403" lon="5.96491">
        <ele>2391.6</ele>
        <time>2021-02-27T07:30:05Z</time>
      </trkpt>
      <trkpt lat="45.16403" lon="5.96491">
        <ele>2391.4</ele>
        <time>2021-02-27T07:30:06Z</time>
      </trkpt>
      <trkpt lat="45.16405" lon="5.96493">
        <ele>2391.6</ele>
        <time>2021-02-27T07:30:07Z</time>
      </trkpt>
      <trkpt lat="45.16405" lon="5.96493">
        <ele>2391.6</ele>
        <time>2021-02-27T07:30:08Z</time>
      </trkpt>
      <trkpt lat="45.16408" lon="5.96493">
        <ele>2391.4</ele>
        <time>2021-02-27T07:30:09Z</time>
      </trkpt>
      <trkpt lat="45.1641" lon="5.96494">
        <ele>2391.2</ele>
        <time>2021-02-27T07:30:10Z</time>
      </trkpt>
      <trkpt lat="45.16411" lon="5.96495">
        <ele>2391.2</ele>
        <time>2021-02-27T07:30:11Z</time>
      </trkpt>
      <trkpt lat="45.16411" lon="5.96495">
        <ele>2391.2</ele>
        <time>2021-02-27T07:30:12Z</time>
      </trkpt>
      <trkpt lat="45.16414" lon="5.96497">
        <ele>2391.4</ele>
        <time>2021-02-27T07:30:13Z</time>
      </trkpt>
      <trkpt lat="45.16414" lon="5.96497">
        <ele>2391.2</ele>
        <time>2021-02-27T07:30:14Z</time>
      </trkpt>
      <trkpt lat="45.16416" lon="5.96499">
        <ele>2391.4</ele>
        <time>2021-02-27T07:30:15Z</time>
      </trkpt>
      <trkpt lat="45.16416" lon="5.96499">
        <ele>2391.4</ele>
        <time>2021-02-27T07:30:16Z</time>
      </trkpt>
      <trkpt lat="45.16419" lon="5.96501">
        <ele>2391.6</ele>
        <time>2021-02-27T07:30:17Z</time>
      </trkpt>
      <trkpt lat="45.16419" lon="5.96501">
        <ele>2391.4</ele>
        <time>2021-02-27T07:30:18Z</time>
      </trkpt>
      <trkpt lat="45.16421" lon="5.96503">
        <ele>2391.4</ele>
        <time>2021-02-27T07:30:19Z</time>
      </trkpt>
      <trkpt lat="45.16421" lon="5.96503">
        <ele>2391.4</ele>
        <time>2021-02-27T07:30:20Z</time>
      </trkpt>
      <trkpt lat="45.16423" lon="5.96505">
        <ele>2391.2</ele>
        <time>2021-02-27T07:30:21Z</time>
      </trkpt>
      <trkpt lat="45.16423" lon="5.96505">
        <ele>2391.2</ele>
        <time>2021-02-27T07:30:22Z</time>
      </trkpt>
      <trkpt lat="45.16424" lon="5.96507">
        <ele>2391.4</ele>
        <time>2021-02-27T07:30:23Z</time>
      </trkpt>
      <trkpt lat="45.16424" lon="5.96507">
        <ele>2391.4</ele>
        <time>2021-02-27T07:30:24Z</time>
      </trkpt>
      <trkpt lat="45.16425" lon="5.96509">
        <ele>2391.8</ele>
        <time>2021-02-27T07:30:25Z</time>
      </trkpt>
      <trkpt lat="45.16425" lon="5.96509">
        <ele>2391.8</ele>
        <time>2021-02-27T07:30:26Z</time>
      </trkpt>
      <trkpt lat="45.16426" lon="5.96511">
        <ele>2392</ele>
        <time>2021-02-27T07:30:27Z</time>
      </trkpt>
      <trkpt lat="45.16426" lon="5.96512">
        <ele>2391.8</ele>
        <time>2021-02-27T07:30:28Z</time>
      </trkpt>
      <trkpt lat="45.16427" lon="5.96513">
        <ele>2392</ele>
        <time>2021-02-27T07:30:29Z</time>
      </trkpt>
      <trkpt lat="45.16428" lon="5.96514">
        <ele>2392</ele>
        <time>2021-02-27T07:30:30Z</time>
      </trkpt>
      <trkpt lat="45.16429" lon="5.96515">
        <ele>2392.2</ele>
        <time>2021-02-27T07:30:31Z</time>
      </trkpt>
      <trkpt lat="45.1643" lon="5.96516">
        <ele>2392</ele>
        <time>2021-02-27T07:30:32Z</time>
      </trkpt>
      <trkpt lat="45.16431" lon="5.96517">
        <ele>2392.2</ele>
        <time>2021-02-27T07:30:33Z</time>
      </trkpt>
      <trkpt lat="45.16432" lon="5.96519">
        <ele>2392.2</ele>
        <time>2021-02-27T07:30:34Z</time>
      </trkpt>
      <trkpt lat="45.16433" lon="5.9652">
        <ele>2392.2</ele>
        <time>2021-02-27T07:30:35Z</time>
      </trkpt>
      <trkpt lat="45.16433" lon="5.96521">
        <ele>2392.4</ele>
        <time>2021-02-27T07:30:36Z</time>
      </trkpt>
      <trkpt lat="45.16434" lon="5.96522">
        <ele>2392.6</ele>
        <time>2021-02-27T07:30:37Z</time>
      </trkpt>
      <trkpt lat="45.16435" lon="5.96523">
        <ele>2392.8</ele>
        <time>2021-02-27T07:30:38Z</time>
      </trkpt>
      <trkpt lat="45.16436" lon="5.96524">
        <ele>2393.4</ele>
        <time>2021-02-27T07:30:39Z</time>
      </trkpt>
      <trkpt lat="45.16437" lon="5.96526">
        <ele>2393.4</ele>
        <time>2021-02-27T07:30:40Z</time>
      </trkpt>
      <trkpt lat="45.16438" lon="5.96527">
        <ele>2393.6</ele>
        <time>2021-02-27T07:30:41Z</time>
      </trkpt>
      <trkpt lat="45.16439" lon="5.96528">
        <ele>2393.8</ele>
        <time>2021-02-27T07:30:42Z</time>
      </trkpt>
      <trkpt lat="45.1644" lon="5.96531">
        <ele>2394</ele>
        <time>2021-02-27T07:30:43Z</time>
      </trkpt>
      <trkpt lat="45.1644" lon="5.96531">
        <ele>2394.2</ele>
        <time>2021-02-27T07:30:44Z</time>
      </trkpt>
      <trkpt lat="45.16442" lon="5.96533">
        <ele>2394.2</ele>
        <time>2021-02-27T07:30:45Z</time>
      </trkpt>
      <trkpt lat="45.16442" lon="5.96533">
        <ele>2394.4</ele>
        <time>2021-02-27T07:30:46Z</time>
      </trkpt>
      <trkpt lat="45.16444" lon="5.96535">
        <ele>2394.4</ele>
        <time>2021-02-27T07:30:47Z</time>
      </trkpt>
      <trkpt lat="45.16444" lon="5.96535">
        <ele>2394.4</ele>
        <time>2021-02-27T07:30:48Z</time>
      </trkpt>
      <trkpt lat="45.16445" lon="5.96538">
        <ele>2394.2</ele>
        <time>2021-02-27T07:30:49Z</time>
      </trkpt>
      <trkpt lat="45.16445" lon="5.96538">
        <ele>2394.4</ele>
        <time>2021-02-27T07:30:50Z</time>
      </trkpt>
      <trkpt lat="45.16448" lon="5.9654">
        <ele>2394.4</ele>
        <time>2021-02-27T07:30:51Z</time>
      </trkpt>
      <trkpt lat="45.16448" lon="5.9654">
        <ele>2394.6</ele>
        <time>2021-02-27T07:30:52Z</time>
      </trkpt>
      <trkpt lat="45.1645" lon="5.96542">
        <ele>2394.6</ele>
        <time>2021-02-27T07:30:53Z</time>
      </trkpt>
      <trkpt lat="45.1645" lon="5.96542">
        <ele>2394.6</ele>
        <time>2021-02-27T07:30:54Z</time>
      </trkpt>
      <trkpt lat="45.1645" lon="5.96545">
        <ele>2394.6</ele>
        <time>2021-02-27T07:30:55Z</time>
      </trkpt>
      <trkpt lat="45.1645" lon="5.96545">
        <ele>2395</ele>
        <time>2021-02-27T07:30:56Z</time>
      </trkpt>
      <trkpt lat="45.16451" lon="5.96547">
        <ele>2395.2</ele>
        <time>2021-02-27T07:30:57Z</time>
      </trkpt>
      <trkpt lat="45.16452" lon="5.96548">
        <ele>2395</ele>
        <time>2021-02-27T07:30:58Z</time>
      </trkpt>
      <trkpt lat="45.16453" lon="5.96549">
        <ele>2395.2</ele>
        <time>2021-02-27T07:30:59Z</time>
      </trkpt>
      <trkpt lat="45.16454" lon="5.9655">
        <ele>2395.4</ele>
        <time>2021-02-27T07:31:00Z</time>
      </trkpt>
      <trkpt lat="45.16455" lon="5.96551">
        <ele>2395.4</ele>
        <time>2021-02-27T07:31:01Z</time>
      </trkpt>
      <trkpt lat="45.16456" lon="5.96553">
        <ele>2395.4</ele>
        <time>2021-02-27T07:31:02Z</time>
      </trkpt>
      <trkpt lat="45.16457" lon="5.96554">
        <ele>2395.4</ele>
        <time>2021-02-27T07:31:03Z</time>
      </trkpt>
      <trkpt lat="45.16458" lon="5.96555">
        <ele>2395.6</ele>
        <time>2021-02-27T07:31:04Z</time>
      </trkpt>
      <trkpt lat="45.1646" lon="5.96556">
        <ele>2395.8</ele>
        <time>2021-02-27T07:31:05Z</time>
      </trkpt>
      <trkpt lat="45.16461" lon="5.96558">
        <ele>2396</ele>
        <time>2021-02-27T07:31:06Z</time>
      </trkpt>
      <trkpt lat="45.16462" lon="5.96559">
        <ele>2395.8</ele>
        <time>2021-02-27T07:31:07Z</time>
      </trkpt>
      <trkpt lat="45.16463" lon="5.9656">
        <ele>2396</ele>
        <time>2021-02-27T07:31:08Z</time>
      </trkpt>
      <trkpt lat="45.16465" lon="5.96561">
        <ele>2396.2</ele>
        <time>2021-02-27T07:31:09Z</time>
      </trkpt>
      <trkpt lat="45.16465" lon="5.96561">
        <ele>2396.6</ele>
        <time>2021-02-27T07:31:10Z</time>
      </trkpt>
      <trkpt lat="45.16467" lon="5.96565">
        <ele>2396.6</ele>
        <time>2021-02-27T07:31:11Z</time>
      </trkpt>
      <trkpt lat="45.16467" lon="5.96565">
        <ele>2396.4</ele>
        <time>2021-02-27T07:31:12Z</time>
      </trkpt>
      <trkpt lat="45.16469" lon="5.96568">
        <ele>2396.8</ele>
        <time>2021-02-27T07:31:13Z</time>
      </trkpt>
      <trkpt lat="45.16469" lon="5.96568">
        <ele>2397</ele>
        <time>2021-02-27T07:31:14Z</time>
      </trkpt>
      <trkpt lat="45.1647" lon="5.9657">
        <ele>2397</ele>
        <time>2021-02-27T07:31:15Z</time>
      </trkpt>
      <trkpt lat="45.1647" lon="5.9657">
        <ele>2397</ele>
        <time>2021-02-27T07:31:16Z</time>
      </trkpt>
      <trkpt lat="45.16472" lon="5.96572">
        <ele>2397.2</ele>
        <time>2021-02-27T07:31:17Z</time>
      </trkpt>
      <trkpt lat="45.16472" lon="5.96572">
        <ele>2397.4</ele>
        <time>2021-02-27T07:31:18Z</time>
      </trkpt>
      <trkpt lat="45.16474" lon="5.96575">
        <ele>2397.6</ele>
        <time>2021-02-27T07:31:19Z</time>
      </trkpt>
      <trkpt lat="45.16474" lon="5.96575">
        <ele>2397.6</ele>
        <time>2021-02-27T07:31:20Z</time>
      </trkpt>
      <trkpt lat="45.16475" lon="5.96577">
        <ele>2397.8</ele>
        <time>2021-02-27T07:31:21Z</time>
      </trkpt>
      <trkpt lat="45.16475" lon="5.96577">
        <ele>2398</ele>
        <time>2021-02-27T07:31:22Z</time>
      </trkpt>
      <trkpt lat="45.16478" lon="5.96579">
        <ele>2398</ele>
        <time>2021-02-27T07:31:23Z</time>
      </trkpt>
      <trkpt lat="45.16478" lon="5.96579">
        <ele>2398.6</ele>
        <time>2021-02-27T07:31:24Z</time>
      </trkpt>
      <trkpt lat="45.16479" lon="5.96582">
        <ele>2398.8</ele>
        <time>2021-02-27T07:31:25Z</time>
      </trkpt>
      <trkpt lat="45.16479" lon="5.96582">
        <ele>2399</ele>
        <time>2021-02-27T07:31:26Z</time>
      </trkpt>
      <trkpt lat="45.16481" lon="5.96584">
        <ele>2399.4</ele>
        <time>2021-02-27T07:31:27Z</time>
      </trkpt>
      <trkpt lat="45.16481" lon="5.96584">
        <ele>2399.2</ele>
        <time>2021-02-27T07:31:28Z</time>
      </trkpt>
      <trkpt lat="45.16483" lon="5.96586">
        <ele>2399.4</ele>
        <time>2021-02-27T07:31:29Z</time>
      </trkpt>
      <trkpt lat="45.16483" lon="5.96586">
        <ele>2399.8</ele>
        <time>2021-02-27T07:31:30Z</time>
      </trkpt>
      <trkpt lat="45.16485" lon="5.96589">
        <ele>2399.6</ele>
        <time>2021-02-27T07:31:31Z</time>
      </trkpt>
      <trkpt lat="45.16485" lon="5.96589">
        <ele>2399.6</ele>
        <time>2021-02-27T07:31:32Z</time>
      </trkpt>
      <trkpt lat="45.16487" lon="5.96592">
        <ele>2399.8</ele>
        <time>2021-02-27T07:31:33Z</time>
      </trkpt>
      <trkpt lat="45.16487" lon="5.96592">
        <ele>2400.4</ele>
        <time>2021-02-27T07:31:34Z</time>
      </trkpt>
      <trkpt lat="45.16489" lon="5.96594">
        <ele>2400.4</ele>
        <time>2021-02-27T07:31:35Z</time>
      </trkpt>
      <trkpt lat="45.16489" lon="5.96594">
        <ele>2400.8</ele>
        <time>2021-02-27T07:31:36Z</time>
      </trkpt>
      <trkpt lat="45.16491" lon="5.96596">
        <ele>2400.8</ele>
        <time>2021-02-27T07:31:37Z</time>
      </trkpt>
      <trkpt lat="45.16491" lon="5.96596">
        <ele>2401</ele>
        <time>2021-02-27T07:31:38Z</time>
      </trkpt>
      <trkpt lat="45.16493" lon="5.96599">
        <ele>2401</ele>
        <time>2021-02-27T07:31:39Z</time>
      </trkpt>
      <trkpt lat="45.16493" lon="5.96599">
        <ele>2401.2</ele>
        <time>2021-02-27T07:31:40Z</time>
      </trkpt>
      <trkpt lat="45.16495" lon="5.96601">
        <ele>2401</ele>
        <time>2021-02-27T07:31:41Z</time>
      </trkpt>
      <trkpt lat="45.16495" lon="5.96601">
        <ele>2401.2</ele>
        <time>2021-02-27T07:31:42Z</time>
      </trkpt>
      <trkpt lat="45.16496" lon="5.96604">
        <ele>2401.4</ele>
        <time>2021-02-27T07:31:43Z</time>
      </trkpt>
      <trkpt lat="45.16496" lon="5.96604">
        <ele>2401.6</ele>
        <time>2021-02-27T07:31:44Z</time>
      </trkpt>
      <trkpt lat="45.16498" lon="5.96607">
        <ele>2401.8</ele>
        <time>2021-02-27T07:31:45Z</time>
      </trkpt>
      <trkpt lat="45.16498" lon="5.96607">
        <ele>2401.8</ele>
        <time>2021-02-27T07:31:46Z</time>
      </trkpt>
      <trkpt lat="45.165" lon="5.96608">
        <ele>2402</ele>
        <time>2021-02-27T07:31:47Z</time>
      </trkpt>
      <trkpt lat="45.165" lon="5.96608">
        <ele>2402.2</ele>
        <time>2021-02-27T07:31:48Z</time>
      </trkpt>
      <trkpt lat="45.16501" lon="5.9661">
        <ele>2402.6</ele>
        <time>2021-02-27T07:31:49Z</time>
      </trkpt>
      <trkpt lat="45.16501" lon="5.9661">
        <ele>2402.8</ele>
        <time>2021-02-27T07:31:50Z</time>
      </trkpt>
      <trkpt lat="45.16502" lon="5.96612">
        <ele>2403</ele>
        <time>2021-02-27T07:31:51Z</time>
      </trkpt>
      <trkpt lat="45.16502" lon="5.96612">
        <ele>2403</ele>
        <time>2021-02-27T07:31:52Z</time>
      </trkpt>
      <trkpt lat="45.16504" lon="5.96614">
        <ele>2403.2</ele>
        <time>2021-02-27T07:31:53Z</time>
      </trkpt>
      <trkpt lat="45.16504" lon="5.96614">
        <ele>2403.4</ele>
        <time>2021-02-27T07:31:54Z</time>
      </trkpt>
      <trkpt lat="45.16504" lon="5.96614">
        <ele>2403.8</ele>
        <time>2021-02-27T07:31:55Z</time>
      </trkpt>
      <trkpt lat="45.16504" lon="5.96614">
        <ele>2403.8</ele>
        <time>2021-02-27T07:31:56Z</time>
      </trkpt>
      <trkpt lat="45.16507" lon="5.96618">
        <ele>2404.2</ele>
        <time>2021-02-27T07:31:57Z</time>
      </trkpt>
      <trkpt lat="45.16507" lon="5.96618">
        <ele>2404.6</ele>
        <time>2021-02-27T07:31:58Z</time>
      </trkpt>
      <trkpt lat="45.16507" lon="5.96618">
        <ele>2405</ele>
        <time>2021-02-27T07:31:59Z</time>
      </trkpt>
      <trkpt lat="45.16507" lon="5.96618">
        <ele>2405</ele>
        <time>2021-02-27T07:32:00Z</time>
      </trkpt>
      <trkpt lat="45.1651" lon="5.96621">
        <ele>2405.4</ele>
        <time>2021-02-27T07:32:01Z</time>
      </trkpt>
      <trkpt lat="45.1651" lon="5.96621">
        <ele>2405.8</ele>
        <time>2021-02-27T07:32:02Z</time>
      </trkpt>
      <trkpt lat="45.1651" lon="5.96621">
        <ele>2406</ele>
        <time>2021-02-27T07:32:03Z</time>
      </trkpt>
      <trkpt lat="45.16511" lon="5.96623">
        <ele>2406.2</ele>
        <time>2021-02-27T07:32:04Z</time>
      </trkpt>
      <trkpt lat="45.16511" lon="5.96623">
        <ele>2406.4</ele>
        <time>2021-02-27T07:32:05Z</time>
      </trkpt>
      <trkpt lat="45.16511" lon="5.96623">
        <ele>2406.6</ele>
        <time>2021-02-27T07:32:06Z</time>
      </trkpt>
      <trkpt lat="45.16513" lon="5.96625">
        <ele>2406.8</ele>
        <time>2021-02-27T07:32:07Z</time>
      </trkpt>
      <trkpt lat="45.16513" lon="5.96625">
        <ele>2407</ele>
        <time>2021-02-27T07:32:08Z</time>
      </trkpt>
      <trkpt lat="45.16515" lon="5.96627">
        <ele>2407.2</ele>
        <time>2021-02-27T07:32:09Z</time>
      </trkpt>
      <trkpt lat="45.16515" lon="5.96627">
        <ele>2407.6</ele>
        <time>2021-02-27T07:32:10Z</time>
      </trkpt>
      <trkpt lat="45.16516" lon="5.96629">
        <ele>2408</ele>
        <time>2021-02-27T07:32:11Z</time>
      </trkpt>
      <trkpt lat="45.16516" lon="5.96629">
        <ele>2408</ele>
        <time>2021-02-27T07:32:12Z</time>
      </trkpt>
      <trkpt lat="45.16517" lon="5.96632">
        <ele>2408.4</ele>
        <time>2021-02-27T07:32:13Z</time>
      </trkpt>
      <trkpt lat="45.16517" lon="5.96632">
        <ele>2408.6</ele>
        <time>2021-02-27T07:32:14Z</time>
      </trkpt>
      <trkpt lat="45.16518" lon="5.96634">
        <ele>2408.8</ele>
        <time>2021-02-27T07:32:15Z</time>
      </trkpt>
      <trkpt lat="45.16518" lon="5.96634">
        <ele>2408.8</ele>
        <time>2021-02-27T07:32:16Z</time>
      </trkpt>
      <trkpt lat="45.1652" lon="5.96637">
        <ele>2409.2</ele>
        <time>2021-02-27T07:32:17Z</time>
      </trkpt>
      <trkpt lat="45.1652" lon="5.96637">
        <ele>2409.6</ele>
        <time>2021-02-27T07:32:18Z</time>
      </trkpt>
      <trkpt lat="45.16521" lon="5.96638">
        <ele>2409.8</ele>
        <time>2021-02-27T07:32:19Z</time>
      </trkpt>
      <trkpt lat="45.16521" lon="5.96638">
        <ele>2410</ele>
        <time>2021-02-27T07:32:20Z</time>
      </trkpt>
      <trkpt lat="45.16523" lon="5.9664">
        <ele>2410.2</ele>
        <time>2021-02-27T07:32:21Z</time>
      </trkpt>
      <trkpt lat="45.16523" lon="5.9664">
        <ele>2410.8</ele>
        <time>2021-02-27T07:32:22Z</time>
      </trkpt>
      <trkpt lat="45.16523" lon="5.9664">
        <ele>2411.2</ele>
        <time>2021-02-27T07:32:23Z</time>
      </trkpt>
      <trkpt lat="45.16523" lon="5.9664">
        <ele>2411.2</ele>
        <time>2021-02-27T07:32:24Z</time>
      </trkpt>
      <trkpt lat="45.16526" lon="5.96643">
        <ele>2411.4</ele>
        <time>2021-02-27T07:32:25Z</time>
      </trkpt>
      <trkpt lat="45.16526" lon="5.96643">
        <ele>2411.6</ele>
        <time>2021-02-27T07:32:26Z</time>
      </trkpt>
      <trkpt lat="45.16526" lon="5.96643">
        <ele>2412</ele>
        <time>2021-02-27T07:32:27Z</time>
      </trkpt>
      <trkpt lat="45.16528" lon="5.96646">
        <ele>2412.2</ele>
        <time>2021-02-27T07:32:28Z</time>
      </trkpt>
      <trkpt lat="45.16528" lon="5.96646">
        <ele>2412.4</ele>
        <time>2021-02-27T07:32:29Z</time>
      </trkpt>
      <trkpt lat="45.16529" lon="5.96648">
        <ele>2413</ele>
        <time>2021-02-27T07:32:30Z</time>
      </trkpt>
      <trkpt lat="45.16529" lon="5.96648">
        <ele>2413.2</ele>
        <time>2021-02-27T07:32:31Z</time>
      </trkpt>
      <trkpt lat="45.16531" lon="5.9665">
        <ele>2413.6</ele>
        <time>2021-02-27T07:32:32Z</time>
      </trkpt>
      <trkpt lat="45.16531" lon="5.9665">
        <ele>2413.6</ele>
        <time>2021-02-27T07:32:33Z</time>
      </trkpt>
      <trkpt lat="45.16532" lon="5.96651">
        <ele>2413.8</ele>
        <time>2021-02-27T07:32:34Z</time>
      </trkpt>
      <trkpt lat="45.16532" lon="5.96651">
        <ele>2414</ele>
        <time>2021-02-27T07:32:35Z</time>
      </trkpt>
      <trkpt lat="45.16534" lon="5.96654">
        <ele>2414.4</ele>
        <time>2021-02-27T07:32:36Z</time>
      </trkpt>
      <trkpt lat="45.16534" lon="5.96654">
        <ele>2414.8</ele>
        <time>2021-02-27T07:32:37Z</time>
      </trkpt>
      <trkpt lat="45.16536" lon="5.96656">
        <ele>2415</ele>
        <time>2021-02-27T07:32:38Z</time>
      </trkpt>
      <trkpt lat="45.16536" lon="5.96656">
        <ele>2415</ele>
        <time>2021-02-27T07:32:39Z</time>
      </trkpt>
      <trkpt lat="45.16538" lon="5.96659">
        <ele>2415.4</ele>
        <time>2021-02-27T07:32:40Z</time>
      </trkpt>
      <trkpt lat="45.16538" lon="5.96659">
        <ele>2415.6</ele>
        <time>2021-02-27T07:32:41Z</time>
      </trkpt>
      <trkpt lat="45.16538" lon="5.9666">
        <ele>2416</ele>
        <time>2021-02-27T07:32:42Z</time>
      </trkpt>
      <trkpt lat="45.16539" lon="5.96661">
        <ele>2416.2</ele>
        <time>2021-02-27T07:32:43Z</time>
      </trkpt>
      <trkpt lat="45.1654" lon="5.96663">
        <ele>2416.8</ele>
        <time>2021-02-27T07:32:44Z</time>
      </trkpt>
      <trkpt lat="45.1654" lon="5.96664">
        <ele>2417</ele>
        <time>2021-02-27T07:32:45Z</time>
      </trkpt>
      <trkpt lat="45.16541" lon="5.96665">
        <ele>2417.2</ele>
        <time>2021-02-27T07:32:46Z</time>
      </trkpt>
      <trkpt lat="45.16543" lon="5.96669">
        <ele>2417.2</ele>
        <time>2021-02-27T07:32:47Z</time>
      </trkpt>
      <trkpt lat="45.16543" lon="5.96669">
        <ele>2417.6</ele>
        <time>2021-02-27T07:32:48Z</time>
      </trkpt>
      <trkpt lat="45.16544" lon="5.96671">
        <ele>2417.8</ele>
        <time>2021-02-27T07:32:49Z</time>
      </trkpt>
      <trkpt lat="45.16544" lon="5.96671">
        <ele>2418</ele>
        <time>2021-02-27T07:32:50Z</time>
      </trkpt>
      <trkpt lat="45.16544" lon="5.96671">
        <ele>2418.2</ele>
        <time>2021-02-27T07:32:51Z</time>
      </trkpt>
      <trkpt lat="45.16546" lon="5.96674">
        <ele>2418.6</ele>
        <time>2021-02-27T07:32:52Z</time>
      </trkpt>
      <trkpt lat="45.16546" lon="5.96674">
        <ele>2419.2</ele>
        <time>2021-02-27T07:32:53Z</time>
      </trkpt>
      <trkpt lat="45.16547" lon="5.96677">
        <ele>2419.2</ele>
        <time>2021-02-27T07:32:54Z</time>
      </trkpt>
      <trkpt lat="45.16547" lon="5.96677">
        <ele>2419.2</ele>
        <time>2021-02-27T07:32:55Z</time>
      </trkpt>
      <trkpt lat="45.16548" lon="5.96679">
        <ele>2419.8</ele>
        <time>2021-02-27T07:32:56Z</time>
      </trkpt>
      <trkpt lat="45.16548" lon="5.96679">
        <ele>2420</ele>
        <time>2021-02-27T07:32:57Z</time>
      </trkpt>
      <trkpt lat="45.1655" lon="5.96681">
        <ele>2420.2</ele>
        <time>2021-02-27T07:32:58Z</time>
      </trkpt>
      <trkpt lat="45.1655" lon="5.96681">
        <ele>2420.4</ele>
        <time>2021-02-27T07:32:59Z</time>
      </trkpt>
      <trkpt lat="45.1655" lon="5.96681">
        <ele>2421</ele>
        <time>2021-02-27T07:33:00Z</time>
      </trkpt>
      <trkpt lat="45.16552" lon="5.96686">
        <ele>2421.2</ele>
        <time>2021-02-27T07:33:01Z</time>
      </trkpt>
      <trkpt lat="45.16552" lon="5.96686">
        <ele>2421.4</ele>
        <time>2021-02-27T07:33:02Z</time>
      </trkpt>
      <trkpt lat="45.16553" lon="5.96689">
        <ele>2421.6</ele>
        <time>2021-02-27T07:33:03Z</time>
      </trkpt>
      <trkpt lat="45.16553" lon="5.96689">
        <ele>2422</ele>
        <time>2021-02-27T07:33:04Z</time>
      </trkpt>
      <trkpt lat="45.16554" lon="5.96692">
        <ele>2422.2</ele>
        <time>2021-02-27T07:33:05Z</time>
      </trkpt>
      <trkpt lat="45.16554" lon="5.96692">
        <ele>2422.2</ele>
        <time>2021-02-27T07:33:06Z</time>
      </trkpt>
      <trkpt lat="45.16554" lon="5.96692">
        <ele>2422.2</ele>
        <time>2021-02-27T07:33:07Z</time>
      </trkpt>
      <trkpt lat="45.16556" lon="5.96695">
        <ele>2422.6</ele>
        <time>2021-02-27T07:33:08Z</time>
      </trkpt>
      <trkpt lat="45.16556" lon="5.96695">
        <ele>2422.8</ele>
        <time>2021-02-27T07:33:09Z</time>
      </trkpt>
      <trkpt lat="45.16557" lon="5.96698">
        <ele>2423</ele>
        <time>2021-02-27T07:33:10Z</time>
      </trkpt>
      <trkpt lat="45.16557" lon="5.96698">
        <ele>2423.2</ele>
        <time>2021-02-27T07:33:11Z</time>
      </trkpt>
      <trkpt lat="45.16558" lon="5.96701">
        <ele>2423.6</ele>
        <time>2021-02-27T07:33:12Z</time>
      </trkpt>
      <trkpt lat="45.16558" lon="5.96701">
        <ele>2423.8</ele>
        <time>2021-02-27T07:33:13Z</time>
      </trkpt>
      <trkpt lat="45.16558" lon="5.96703">
        <ele>2424</ele>
        <time>2021-02-27T07:33:14Z</time>
      </trkpt>
      <trkpt lat="45.16558" lon="5.96703">
        <ele>2424.2</ele>
        <time>2021-02-27T07:33:15Z</time>
      </trkpt>
      <trkpt lat="45.16559" lon="5.96706">
        <ele>2424.2</ele>
        <time>2021-02-27T07:33:16Z</time>
      </trkpt>
      <trkpt lat="45.16559" lon="5.96706">
        <ele>2424.6</ele>
        <time>2021-02-27T07:33:17Z</time>
      </trkpt>
      <trkpt lat="45.16561" lon="5.96709">
        <ele>2424.8</ele>
        <time>2021-02-27T07:33:18Z</time>
      </trkpt>
      <trkpt lat="45.16561" lon="5.96709">
        <ele>2424.8</ele>
        <time>2021-02-27T07:33:19Z</time>
      </trkpt>
      <trkpt lat="45.16562" lon="5.96711">
        <ele>2424.8</ele>
        <time>2021-02-27T07:33:20Z</time>
      </trkpt>
      <trkpt lat="45.16562" lon="5.96711">
        <ele>2425.2</ele>
        <time>2021-02-27T07:33:21Z</time>
      </trkpt>
      <trkpt lat="45.16563" lon="5.96715">
        <ele>2425.2</ele>
        <time>2021-02-27T07:33:22Z</time>
      </trkpt>
      <trkpt lat="45.16563" lon="5.96715">
        <ele>2425.2</ele>
        <time>2021-02-27T07:33:23Z</time>
      </trkpt>
      <trkpt lat="45.16564" lon="5.96717">
        <ele>2425.2</ele>
        <time>2021-02-27T07:33:24Z</time>
      </trkpt>
      <trkpt lat="45.16564" lon="5.96717">
        <ele>2425.8</ele>
        <time>2021-02-27T07:33:25Z</time>
      </trkpt>
      <trkpt lat="45.16565" lon="5.96721">
        <ele>2425.8</ele>
        <time>2021-02-27T07:33:26Z</time>
      </trkpt>
      <trkpt lat="45.16565" lon="5.96721">
        <ele>2425.8</ele>
        <time>2021-02-27T07:33:27Z</time>
      </trkpt>
      <trkpt lat="45.16566" lon="5.96723">
        <ele>2426.2</ele>
        <time>2021-02-27T07:33:28Z</time>
      </trkpt>
      <trkpt lat="45.16566" lon="5.96723">
        <ele>2426.4</ele>
        <time>2021-02-27T07:33:29Z</time>
      </trkpt>
      <trkpt lat="45.16567" lon="5.96727">
        <ele>2426.4</ele>
        <time>2021-02-27T07:33:30Z</time>
      </trkpt>
      <trkpt lat="45.16567" lon="5.96727">
        <ele>2426.6</ele>
        <time>2021-02-27T07:33:31Z</time>
      </trkpt>
      <trkpt lat="45.16568" lon="5.96729">
        <ele>2426.6</ele>
        <time>2021-02-27T07:33:32Z</time>
      </trkpt>
      <trkpt lat="45.16568" lon="5.96729">
        <ele>2427</ele>
        <time>2021-02-27T07:33:33Z</time>
      </trkpt>
      <trkpt lat="45.1657" lon="5.96732">
        <ele>2427.2</ele>
        <time>2021-02-27T07:33:34Z</time>
      </trkpt>
      <trkpt lat="45.1657" lon="5.96732">
        <ele>2427.2</ele>
        <time>2021-02-27T07:33:35Z</time>
      </trkpt>
      <trkpt lat="45.16571" lon="5.96735">
        <ele>2427.2</ele>
        <time>2021-02-27T07:33:36Z</time>
      </trkpt>
      <trkpt lat="45.16571" lon="5.96735">
        <ele>2427.4</ele>
        <time>2021-02-27T07:33:37Z</time>
      </trkpt>
      <trkpt lat="45.16573" lon="5.96739">
        <ele>2428</ele>
        <time>2021-02-27T07:33:38Z</time>
      </trkpt>
      <trkpt lat="45.16573" lon="5.96739">
        <ele>2428</ele>
        <time>2021-02-27T07:33:39Z</time>
      </trkpt>
      <trkpt lat="45.16574" lon="5.96741">
        <ele>2428.2</ele>
        <time>2021-02-27T07:33:40Z</time>
      </trkpt>
      <trkpt lat="45.16574" lon="5.96741">
        <ele>2428.4</ele>
        <time>2021-02-27T07:33:41Z</time>
      </trkpt>
      <trkpt lat="45.16575" lon="5.96744">
        <ele>2428.8</ele>
        <time>2021-02-27T07:33:42Z</time>
      </trkpt>
      <trkpt lat="45.16575" lon="5.96744">
        <ele>2429.2</ele>
        <time>2021-02-27T07:33:43Z</time>
      </trkpt>
      <trkpt lat="45.16576" lon="5.96747">
        <ele>2429.6</ele>
        <time>2021-02-27T07:33:44Z</time>
      </trkpt>
      <trkpt lat="45.16576" lon="5.96747">
        <ele>2430</ele>
        <time>2021-02-27T07:33:45Z</time>
      </trkpt>
      <trkpt lat="45.16577" lon="5.96749">
        <ele>2430.4</ele>
        <time>2021-02-27T07:33:46Z</time>
      </trkpt>
      <trkpt lat="45.16577" lon="5.96749">
        <ele>2431.4</ele>
        <time>2021-02-27T07:33:47Z</time>
      </trkpt>
      <trkpt lat="45.16578" lon="5.9675">
        <ele>2431.6</ele>
        <time>2021-02-27T07:33:48Z</time>
      </trkpt>
      <trkpt lat="45.16578" lon="5.96752">
        <ele>2431.8</ele>
        <time>2021-02-27T07:33:49Z</time>
      </trkpt>
      <trkpt lat="45.16579" lon="5.96753">
        <ele>2432</ele>
        <time>2021-02-27T07:33:50Z</time>
      </trkpt>
      <trkpt lat="45.16579" lon="5.96755">
        <ele>2432.6</ele>
        <time>2021-02-27T07:33:51Z</time>
      </trkpt>
      <trkpt lat="45.1658" lon="5.96756">
        <ele>2433.4</ele>
        <time>2021-02-27T07:33:52Z</time>
      </trkpt>
      <trkpt lat="45.1658" lon="5.96758">
        <ele>2432.8</ele>
        <time>2021-02-27T07:33:53Z</time>
      </trkpt>
      <trkpt lat="45.16581" lon="5.96759">
        <ele>2433</ele>
        <time>2021-02-27T07:33:54Z</time>
      </trkpt>
      <trkpt lat="45.16581" lon="5.96759">
        <ele>2433.4</ele>
        <time>2021-02-27T07:33:55Z</time>
      </trkpt>
      <trkpt lat="45.16582" lon="5.96764">
        <ele>2434.2</ele>
        <time>2021-02-27T07:33:56Z</time>
      </trkpt>
      <trkpt lat="45.16582" lon="5.96764">
        <ele>2434</ele>
        <time>2021-02-27T07:33:57Z</time>
      </trkpt>
      <trkpt lat="45.16582" lon="5.96764">
        <ele>2433.6</ele>
        <time>2021-02-27T07:33:58Z</time>
      </trkpt>
      <trkpt lat="45.16583" lon="5.96767">
        <ele>2433.6</ele>
        <time>2021-02-27T07:33:59Z</time>
      </trkpt>
      <trkpt lat="45.16583" lon="5.96767">
        <ele>2434</ele>
        <time>2021-02-27T07:34:00Z</time>
      </trkpt>
      <trkpt lat="45.16584" lon="5.96771">
        <ele>2434.4</ele>
        <time>2021-02-27T07:34:01Z</time>
      </trkpt>
      <trkpt lat="45.16584" lon="5.96771">
        <ele>2434.2</ele>
        <time>2021-02-27T07:34:02Z</time>
      </trkpt>
      <trkpt lat="45.16585" lon="5.96774">
        <ele>2434.2</ele>
        <time>2021-02-27T07:34:03Z</time>
      </trkpt>
      <trkpt lat="45.16585" lon="5.96774">
        <ele>2434.4</ele>
        <time>2021-02-27T07:34:04Z</time>
      </trkpt>
      <trkpt lat="45.16586" lon="5.96778">
        <ele>2435</ele>
        <time>2021-02-27T07:34:05Z</time>
      </trkpt>
      <trkpt lat="45.16586" lon="5.96778">
        <ele>2435.2</ele>
        <time>2021-02-27T07:34:06Z</time>
      </trkpt>
      <trkpt lat="45.16587" lon="5.9678">
        <ele>2435.4</ele>
        <time>2021-02-27T07:34:07Z</time>
      </trkpt>
      <trkpt lat="45.16587" lon="5.9678">
        <ele>2435.4</ele>
        <time>2021-02-27T07:34:08Z</time>
      </trkpt>
      <trkpt lat="45.16587" lon="5.96782">
        <ele>2435.8</ele>
        <time>2021-02-27T07:34:09Z</time>
      </trkpt>
      <trkpt lat="45.16588" lon="5.96783">
        <ele>2435.8</ele>
        <time>2021-02-27T07:34:10Z</time>
      </trkpt>
      <trkpt lat="45.16588" lon="5.96785">
        <ele>2436.2</ele>
        <time>2021-02-27T07:34:11Z</time>
      </trkpt>
      <trkpt lat="45.16588" lon="5.96787">
        <ele>2436.2</ele>
        <time>2021-02-27T07:34:12Z</time>
      </trkpt>
      <trkpt lat="45.16588" lon="5.96788">
        <ele>2436.4</ele>
        <time>2021-02-27T07:34:13Z</time>
      </trkpt>
      <trkpt lat="45.16588" lon="5.9679">
        <ele>2436.8</ele>
        <time>2021-02-27T07:34:14Z</time>
      </trkpt>
      <trkpt lat="45.16588" lon="5.9679">
        <ele>2437.2</ele>
        <time>2021-02-27T07:34:15Z</time>
      </trkpt>
      <trkpt lat="45.1659" lon="5.96794">
        <ele>2437.4</ele>
        <time>2021-02-27T07:34:16Z</time>
      </trkpt>
      <trkpt lat="45.1659" lon="5.96794">
        <ele>2437.6</ele>
        <time>2021-02-27T07:34:17Z</time>
      </trkpt>
      <trkpt lat="45.16591" lon="5.96798">
        <ele>2437.4</ele>
        <time>2021-02-27T07:34:18Z</time>
      </trkpt>
      <trkpt lat="45.16591" lon="5.96798">
        <ele>2437.6</ele>
        <time>2021-02-27T07:34:19Z</time>
      </trkpt>
      <trkpt lat="45.16592" lon="5.96801">
        <ele>2437.6</ele>
        <time>2021-02-27T07:34:20Z</time>
      </trkpt>
      <trkpt lat="45.16592" lon="5.96801">
        <ele>2437.4</ele>
        <time>2021-02-27T07:34:21Z</time>
      </trkpt>
      <trkpt lat="45.16593" lon="5.96805">
        <ele>2437.8</ele>
        <time>2021-02-27T07:34:22Z</time>
      </trkpt>
      <trkpt lat="45.16593" lon="5.96805">
        <ele>2438</ele>
        <time>2021-02-27T07:34:23Z</time>
      </trkpt>
      <trkpt lat="45.16593" lon="5.96809">
        <ele>2438.2</ele>
        <time>2021-02-27T07:34:24Z</time>
      </trkpt>
      <trkpt lat="45.16593" lon="5.96809">
        <ele>2438.2</ele>
        <time>2021-02-27T07:34:25Z</time>
      </trkpt>
      <trkpt lat="45.16594" lon="5.96812">
        <ele>2438.2</ele>
        <time>2021-02-27T07:34:26Z</time>
      </trkpt>
      <trkpt lat="45.16594" lon="5.96812">
        <ele>2438.4</ele>
        <time>2021-02-27T07:34:27Z</time>
      </trkpt>
      <trkpt lat="45.16595" lon="5.96816">
        <ele>2438.6</ele>
        <time>2021-02-27T07:34:28Z</time>
      </trkpt>
      <trkpt lat="45.16595" lon="5.96816">
        <ele>2439</ele>
        <time>2021-02-27T07:34:29Z</time>
      </trkpt>
      <trkpt lat="45.16595" lon="5.9682">
        <ele>2439</ele>
        <time>2021-02-27T07:34:30Z</time>
      </trkpt>
      <trkpt lat="45.16595" lon="5.9682">
        <ele>2439</ele>
        <time>2021-02-27T07:34:31Z</time>
      </trkpt>
      <trkpt lat="45.16596" lon="5.96823">
        <ele>2439.4</ele>
        <time>2021-02-27T07:34:32Z</time>
      </trkpt>
      <trkpt lat="45.16596" lon="5.96823">
        <ele>2439.6</ele>
        <time>2021-02-27T07:34:33Z</time>
      </trkpt>
      <trkpt lat="45.16596" lon="5.96826">
        <ele>2439.8</ele>
        <time>2021-02-27T07:34:34Z</time>
      </trkpt>
      <trkpt lat="45.16596" lon="5.96826">
        <ele>2439.8</ele>
        <time>2021-02-27T07:34:35Z</time>
      </trkpt>
      <trkpt lat="45.16597" lon="5.9683">
        <ele>2439.8</ele>
        <time>2021-02-27T07:34:36Z</time>
      </trkpt>
      <trkpt lat="45.16597" lon="5.9683">
        <ele>2440</ele>
        <time>2021-02-27T07:34:37Z</time>
      </trkpt>
      <trkpt lat="45.16598" lon="5.96833">
        <ele>2440.2</ele>
        <time>2021-02-27T07:34:38Z</time>
      </trkpt>
      <trkpt lat="45.16598" lon="5.96833">
        <ele>2440.4</ele>
        <time>2021-02-27T07:34:39Z</time>
      </trkpt>
      <trkpt lat="45.16599" lon="5.96836">
        <ele>2440.4</ele>
        <time>2021-02-27T07:34:40Z</time>
      </trkpt>
      <trkpt lat="45.16599" lon="5.96836">
        <ele>2440.8</ele>
        <time>2021-02-27T07:34:41Z</time>
      </trkpt>
      <trkpt lat="45.166" lon="5.96839">
        <ele>2441</ele>
        <time>2021-02-27T07:34:42Z</time>
      </trkpt>
      <trkpt lat="45.16601" lon="5.96842">
        <ele>2441</ele>
        <time>2021-02-27T07:34:43Z</time>
      </trkpt>
      <trkpt lat="45.16601" lon="5.96842">
        <ele>2441.6</ele>
        <time>2021-02-27T07:34:44Z</time>
      </trkpt>
      <trkpt lat="45.16602" lon="5.96846">
        <ele>2442</ele>
        <time>2021-02-27T07:34:45Z</time>
      </trkpt>
      <trkpt lat="45.16602" lon="5.96846">
        <ele>2442</ele>
        <time>2021-02-27T07:34:46Z</time>
      </trkpt>
      <trkpt lat="45.16603" lon="5.9685">
        <ele>2442</ele>
        <time>2021-02-27T07:34:47Z</time>
      </trkpt>
      <trkpt lat="45.16603" lon="5.9685">
        <ele>2442.2</ele>
        <time>2021-02-27T07:34:48Z</time>
      </trkpt>
      <trkpt lat="45.16603" lon="5.96853">
        <ele>2442.4</ele>
        <time>2021-02-27T07:34:49Z</time>
      </trkpt>
      <trkpt lat="45.16603" lon="5.96853">
        <ele>2442.4</ele>
        <time>2021-02-27T07:34:50Z</time>
      </trkpt>
      <trkpt lat="45.16604" lon="5.96858">
        <ele>2442.6</ele>
        <time>2021-02-27T07:34:51Z</time>
      </trkpt>
      <trkpt lat="45.16604" lon="5.96858">
        <ele>2442.6</ele>
        <time>2021-02-27T07:34:52Z</time>
      </trkpt>
      <trkpt lat="45.16604" lon="5.96861">
        <ele>2442.4</ele>
        <time>2021-02-27T07:34:53Z</time>
      </trkpt>
      <trkpt lat="45.16604" lon="5.96861">
        <ele>2442.6</ele>
        <time>2021-02-27T07:34:54Z</time>
      </trkpt>
      <trkpt lat="45.16605" lon="5.96864">
        <ele>2442.8</ele>
        <time>2021-02-27T07:34:55Z</time>
      </trkpt>
      <trkpt lat="45.16605" lon="5.96864">
        <ele>2443</ele>
        <time>2021-02-27T07:34:56Z</time>
      </trkpt>
      <trkpt lat="45.16606" lon="5.96868">
        <ele>2443.2</ele>
        <time>2021-02-27T07:34:57Z</time>
      </trkpt>
      <trkpt lat="45.16606" lon="5.96868">
        <ele>2443.4</ele>
        <time>2021-02-27T07:34:58Z</time>
      </trkpt>
      <trkpt lat="45.16607" lon="5.96872">
        <ele>2443.4</ele>
        <time>2021-02-27T07:34:59Z</time>
      </trkpt>
      <trkpt lat="45.16607" lon="5.96872">
        <ele>2443.2</ele>
        <time>2021-02-27T07:35:00Z</time>
      </trkpt>
      <trkpt lat="45.16608" lon="5.96876">
        <ele>2443.4</ele>
        <time>2021-02-27T07:35:01Z</time>
      </trkpt>
      <trkpt lat="45.16608" lon="5.96876">
        <ele>2443.6</ele>
        <time>2021-02-27T07:35:02Z</time>
      </trkpt>
      <trkpt lat="45.16609" lon="5.9688">
        <ele>2443.8</ele>
        <time>2021-02-27T07:35:03Z</time>
      </trkpt>
      <trkpt lat="45.16609" lon="5.9688">
        <ele>2443.8</ele>
        <time>2021-02-27T07:35:04Z</time>
      </trkpt>
      <trkpt lat="45.16609" lon="5.96883">
        <ele>2444</ele>
        <time>2021-02-27T07:35:05Z</time>
      </trkpt>
      <trkpt lat="45.16609" lon="5.96883">
        <ele>2444.2</ele>
        <time>2021-02-27T07:35:06Z</time>
      </trkpt>
      <trkpt lat="45.1661" lon="5.96887">
        <ele>2444.4</ele>
        <time>2021-02-27T07:35:07Z</time>
      </trkpt>
      <trkpt lat="45.1661" lon="5.96887">
        <ele>2444.6</ele>
        <time>2021-02-27T07:35:08Z</time>
      </trkpt>
      <trkpt lat="45.1661" lon="5.96891">
        <ele>2445</ele>
        <time>2021-02-27T07:35:09Z</time>
      </trkpt>
      <trkpt lat="45.1661" lon="5.96891">
        <ele>2445</ele>
        <time>2021-02-27T07:35:10Z</time>
      </trkpt>
      <trkpt lat="45.16611" lon="5.96895">
        <ele>2445</ele>
        <time>2021-02-27T07:35:11Z</time>
      </trkpt>
      <trkpt lat="45.16611" lon="5.96895">
        <ele>2445.2</ele>
        <time>2021-02-27T07:35:12Z</time>
      </trkpt>
      <trkpt lat="45.16612" lon="5.96899">
        <ele>2445.4</ele>
        <time>2021-02-27T07:35:13Z</time>
      </trkpt>
      <trkpt lat="45.16612" lon="5.96899">
        <ele>2445.8</ele>
        <time>2021-02-27T07:35:14Z</time>
      </trkpt>
      <trkpt lat="45.16612" lon="5.96902">
        <ele>2446</ele>
        <time>2021-02-27T07:35:15Z</time>
      </trkpt>
      <trkpt lat="45.16612" lon="5.96902">
        <ele>2446.2</ele>
        <time>2021-02-27T07:35:16Z</time>
      </trkpt>
      <trkpt lat="45.16613" lon="5.96906">
        <ele>2446.4</ele>
        <time>2021-02-27T07:35:17Z</time>
      </trkpt>
      <trkpt lat="45.16613" lon="5.96906">
        <ele>2446.8</ele>
        <time>2021-02-27T07:35:18Z</time>
      </trkpt>
      <trkpt lat="45.16614" lon="5.96908">
        <ele>2447</ele>
        <time>2021-02-27T07:35:19Z</time>
      </trkpt>
      <trkpt lat="45.16614" lon="5.96908">
        <ele>2446.8</ele>
        <time>2021-02-27T07:35:20Z</time>
      </trkpt>
      <trkpt lat="45.16615" lon="5.96911">
        <ele>2447.2</ele>
        <time>2021-02-27T07:35:21Z</time>
      </trkpt>
      <trkpt lat="45.16615" lon="5.96911">
        <ele>2447.4</ele>
        <time>2021-02-27T07:35:22Z</time>
      </trkpt>
      <trkpt lat="45.16615" lon="5.96912">
        <ele>2447.8</ele>
        <time>2021-02-27T07:35:23Z</time>
      </trkpt>
      <trkpt lat="45.16616" lon="5.96913">
        <ele>2448</ele>
        <time>2021-02-27T07:35:24Z</time>
      </trkpt>
      <trkpt lat="45.16617" lon="5.96915">
        <ele>2448.2</ele>
        <time>2021-02-27T07:35:25Z</time>
      </trkpt>
      <trkpt lat="45.16617" lon="5.96916">
        <ele>2448.6</ele>
        <time>2021-02-27T07:35:26Z</time>
      </trkpt>
      <trkpt lat="45.16617" lon="5.96916">
        <ele>2448.6</ele>
        <time>2021-02-27T07:35:27Z</time>
      </trkpt>
      <trkpt lat="45.16618" lon="5.9692">
        <ele>2449</ele>
        <time>2021-02-27T07:35:28Z</time>
      </trkpt>
      <trkpt lat="45.16618" lon="5.9692">
        <ele>2449.2</ele>
        <time>2021-02-27T07:35:29Z</time>
      </trkpt>
      <trkpt lat="45.16619" lon="5.96923">
        <ele>2449.6</ele>
        <time>2021-02-27T07:35:30Z</time>
      </trkpt>
      <trkpt lat="45.16619" lon="5.96923">
        <ele>2450</ele>
        <time>2021-02-27T07:35:31Z</time>
      </trkpt>
      <trkpt lat="45.16619" lon="5.96923">
        <ele>2450.2</ele>
        <time>2021-02-27T07:35:32Z</time>
      </trkpt>
      <trkpt lat="45.1662" lon="5.96927">
        <ele>2450.4</ele>
        <time>2021-02-27T07:35:33Z</time>
      </trkpt>
      <trkpt lat="45.1662" lon="5.96927">
        <ele>2450.6</ele>
        <time>2021-02-27T07:35:34Z</time>
      </trkpt>
      <trkpt lat="45.1662" lon="5.96927">
        <ele>2451</ele>
        <time>2021-02-27T07:35:35Z</time>
      </trkpt>
      <trkpt lat="45.16621" lon="5.96932">
        <ele>2451.4</ele>
        <time>2021-02-27T07:35:36Z</time>
      </trkpt>
      <trkpt lat="45.16621" lon="5.96932">
        <ele>2451.6</ele>
        <time>2021-02-27T07:35:37Z</time>
      </trkpt>
      <trkpt lat="45.16622" lon="5.96934">
        <ele>2451.8</ele>
        <time>2021-02-27T07:35:38Z</time>
      </trkpt>
      <trkpt lat="45.16622" lon="5.96934">
        <ele>2452.2</ele>
        <time>2021-02-27T07:35:39Z</time>
      </trkpt>
      <trkpt lat="45.16623" lon="5.96938">
        <ele>2452.2</ele>
        <time>2021-02-27T07:35:40Z</time>
      </trkpt>
      <trkpt lat="45.16623" lon="5.96938">
        <ele>2452.6</ele>
        <time>2021-02-27T07:35:41Z</time>
      </trkpt>
      <trkpt lat="45.16623" lon="5.9694">
        <ele>2452.6</ele>
        <time>2021-02-27T07:35:42Z</time>
      </trkpt>
      <trkpt lat="45.16623" lon="5.9694">
        <ele>2453.2</ele>
        <time>2021-02-27T07:35:43Z</time>
      </trkpt>
      <trkpt lat="45.16624" lon="5.96943">
        <ele>2453.4</ele>
        <time>2021-02-27T07:35:44Z</time>
      </trkpt>
      <trkpt lat="45.16624" lon="5.96943">
        <ele>2453.8</ele>
        <time>2021-02-27T07:35:45Z</time>
      </trkpt>
      <trkpt lat="45.16625" lon="5.96945">
        <ele>2453.8</ele>
        <time>2021-02-27T07:35:46Z</time>
      </trkpt>
      <trkpt lat="45.16625" lon="5.96945">
        <ele>2454.4</ele>
        <time>2021-02-27T07:35:47Z</time>
      </trkpt>
      <trkpt lat="45.16626" lon="5.96949">
        <ele>2454.6</ele>
        <time>2021-02-27T07:35:48Z</time>
      </trkpt>
      <trkpt lat="45.16626" lon="5.96949">
        <ele>2455</ele>
        <time>2021-02-27T07:35:49Z</time>
      </trkpt>
      <trkpt lat="45.16626" lon="5.96949">
        <ele>2455.2</ele>
        <time>2021-02-27T07:35:50Z</time>
      </trkpt>
      <trkpt lat="45.16627" lon="5.96952">
        <ele>2455.8</ele>
        <time>2021-02-27T07:35:51Z</time>
      </trkpt>
      <trkpt lat="45.16627" lon="5.96952">
        <ele>2456.6</ele>
        <time>2021-02-27T07:35:52Z</time>
      </trkpt>
      <trkpt lat="45.16628" lon="5.96955">
        <ele>2456.8</ele>
        <time>2021-02-27T07:35:53Z</time>
      </trkpt>
      <trkpt lat="45.16628" lon="5.96955">
        <ele>2456.6</ele>
        <time>2021-02-27T07:35:54Z</time>
      </trkpt>
      <trkpt lat="45.16628" lon="5.96957">
        <ele>2456.6</ele>
        <time>2021-02-27T07:35:55Z</time>
      </trkpt>
      <trkpt lat="45.16628" lon="5.96957">
        <ele>2457.6</ele>
        <time>2021-02-27T07:35:56Z</time>
      </trkpt>
      <trkpt lat="45.16629" lon="5.96961">
        <ele>2458</ele>
        <time>2021-02-27T07:35:57Z</time>
      </trkpt>
      <trkpt lat="45.16629" lon="5.96961">
        <ele>2457.6</ele>
        <time>2021-02-27T07:35:58Z</time>
      </trkpt>
      <trkpt lat="45.16629" lon="5.96964">
        <ele>2458</ele>
        <time>2021-02-27T07:35:59Z</time>
      </trkpt>
      <trkpt lat="45.16629" lon="5.96964">
        <ele>2458.2</ele>
        <time>2021-02-27T07:36:00Z</time>
      </trkpt>
      <trkpt lat="45.16629" lon="5.96967">
        <ele>2458.4</ele>
        <time>2021-02-27T07:36:01Z</time>
      </trkpt>
      <trkpt lat="45.16629" lon="5.96967">
        <ele>2458.4</ele>
        <time>2021-02-27T07:36:02Z</time>
      </trkpt>
      <trkpt lat="45.16629" lon="5.9697">
        <ele>2458.6</ele>
        <time>2021-02-27T07:36:03Z</time>
      </trkpt>
      <trkpt lat="45.16629" lon="5.9697">
        <ele>2459</ele>
        <time>2021-02-27T07:36:04Z</time>
      </trkpt>
      <trkpt lat="45.1663" lon="5.96975">
        <ele>2459.2</ele>
        <time>2021-02-27T07:36:05Z</time>
      </trkpt>
      <trkpt lat="45.1663" lon="5.96975">
        <ele>2459.4</ele>
        <time>2021-02-27T07:36:06Z</time>
      </trkpt>
      <trkpt lat="45.1663" lon="5.96977">
        <ele>2459.6</ele>
        <time>2021-02-27T07:36:07Z</time>
      </trkpt>
      <trkpt lat="45.1663" lon="5.96977">
        <ele>2460</ele>
        <time>2021-02-27T07:36:08Z</time>
      </trkpt>
      <trkpt lat="45.1663" lon="5.9698">
        <ele>2460</ele>
        <time>2021-02-27T07:36:09Z</time>
      </trkpt>
      <trkpt lat="45.1663" lon="5.9698">
        <ele>2460.4</ele>
        <time>2021-02-27T07:36:10Z</time>
      </trkpt>
      <trkpt lat="45.1663" lon="5.96984">
        <ele>2460.4</ele>
        <time>2021-02-27T07:36:11Z</time>
      </trkpt>
      <trkpt lat="45.1663" lon="5.96984">
        <ele>2460.4</ele>
        <time>2021-02-27T07:36:12Z</time>
      </trkpt>
      <trkpt lat="45.1663" lon="5.96987">
        <ele>2460.6</ele>
        <time>2021-02-27T07:36:13Z</time>
      </trkpt>
      <trkpt lat="45.1663" lon="5.96987">
        <ele>2461</ele>
        <time>2021-02-27T07:36:14Z</time>
      </trkpt>
      <trkpt lat="45.16631" lon="5.96991">
        <ele>2461.2</ele>
        <time>2021-02-27T07:36:15Z</time>
      </trkpt>
      <trkpt lat="45.16631" lon="5.96991">
        <ele>2461.4</ele>
        <time>2021-02-27T07:36:16Z</time>
      </trkpt>
      <trkpt lat="45.16631" lon="5.96994">
        <ele>2461.6</ele>
        <time>2021-02-27T07:36:17Z</time>
      </trkpt>
      <trkpt lat="45.16631" lon="5.96994">
        <ele>2461.8</ele>
        <time>2021-02-27T07:36:18Z</time>
      </trkpt>
      <trkpt lat="45.1663" lon="5.96998">
        <ele>2462.2</ele>
        <time>2021-02-27T07:36:19Z</time>
      </trkpt>
      <trkpt lat="45.1663" lon="5.96998">
        <ele>2462</ele>
        <time>2021-02-27T07:36:20Z</time>
      </trkpt>
      <trkpt lat="45.1663" lon="5.97002">
        <ele>2462</ele>
        <time>2021-02-27T07:36:21Z</time>
      </trkpt>
      <trkpt lat="45.1663" lon="5.97002">
        <ele>2462</ele>
        <time>2021-02-27T07:36:22Z</time>
      </trkpt>
      <trkpt lat="45.1663" lon="5.97005">
        <ele>2462.2</ele>
        <time>2021-02-27T07:36:23Z</time>
      </trkpt>
      <trkpt lat="45.1663" lon="5.97005">
        <ele>2462.8</ele>
        <time>2021-02-27T07:36:24Z</time>
      </trkpt>
      <trkpt lat="45.1663" lon="5.9701">
        <ele>2462.6</ele>
        <time>2021-02-27T07:36:25Z</time>
      </trkpt>
      <trkpt lat="45.1663" lon="5.9701">
        <ele>2462.2</ele>
        <time>2021-02-27T07:36:26Z</time>
      </trkpt>
      <trkpt lat="45.1663" lon="5.97013">
        <ele>2462.6</ele>
        <time>2021-02-27T07:36:27Z</time>
      </trkpt>
      <trkpt lat="45.1663" lon="5.97013">
        <ele>2463.2</ele>
        <time>2021-02-27T07:36:28Z</time>
      </trkpt>
      <trkpt lat="45.16629" lon="5.97016">
        <ele>2463.4</ele>
        <time>2021-02-27T07:36:29Z</time>
      </trkpt>
      <trkpt lat="45.16629" lon="5.97016">
        <ele>2463.2</ele>
        <time>2021-02-27T07:36:30Z</time>
      </trkpt>
      <trkpt lat="45.1663" lon="5.97019">
        <ele>2463.4</ele>
        <time>2021-02-27T07:36:31Z</time>
      </trkpt>
      <trkpt lat="45.1663" lon="5.97019">
        <ele>2464.2</ele>
        <time>2021-02-27T07:36:32Z</time>
      </trkpt>
      <trkpt lat="45.16631" lon="5.97023">
        <ele>2464.6</ele>
        <time>2021-02-27T07:36:33Z</time>
      </trkpt>
      <trkpt lat="45.16631" lon="5.97023">
        <ele>2464.6</ele>
        <time>2021-02-27T07:36:34Z</time>
      </trkpt>
      <trkpt lat="45.16631" lon="5.97024">
        <ele>2464.6</ele>
        <time>2021-02-27T07:36:35Z</time>
      </trkpt>
      <trkpt lat="45.16631" lon="5.97026">
        <ele>2464.8</ele>
        <time>2021-02-27T07:36:36Z</time>
      </trkpt>
      <trkpt lat="45.16631" lon="5.97028">
        <ele>2465.2</ele>
        <time>2021-02-27T07:36:37Z</time>
      </trkpt>
      <trkpt lat="45.16631" lon="5.97029">
        <ele>2465.4</ele>
        <time>2021-02-27T07:36:38Z</time>
      </trkpt>
      <trkpt lat="45.16631" lon="5.97031">
        <ele>2465.6</ele>
        <time>2021-02-27T07:36:39Z</time>
      </trkpt>
      <trkpt lat="45.16631" lon="5.97034">
        <ele>2466.2</ele>
        <time>2021-02-27T07:36:40Z</time>
      </trkpt>
      <trkpt lat="45.16631" lon="5.97034">
        <ele>2466.4</ele>
        <time>2021-02-27T07:36:41Z</time>
      </trkpt>
      <trkpt lat="45.16631" lon="5.97034">
        <ele>2466.6</ele>
        <time>2021-02-27T07:36:42Z</time>
      </trkpt>
      <trkpt lat="45.16631" lon="5.97038">
        <ele>2467.2</ele>
        <time>2021-02-27T07:36:43Z</time>
      </trkpt>
      <trkpt lat="45.16631" lon="5.97038">
        <ele>2467.4</ele>
        <time>2021-02-27T07:36:44Z</time>
      </trkpt>
      <trkpt lat="45.16632" lon="5.97042">
        <ele>2467.8</ele>
        <time>2021-02-27T07:36:45Z</time>
      </trkpt>
      <trkpt lat="45.16632" lon="5.97042">
        <ele>2468.2</ele>
        <time>2021-02-27T07:36:46Z</time>
      </trkpt>
      <trkpt lat="45.16632" lon="5.97042">
        <ele>2468.6</ele>
        <time>2021-02-27T07:36:47Z</time>
      </trkpt>
      <trkpt lat="45.16632" lon="5.97046">
        <ele>2469</ele>
        <time>2021-02-27T07:36:48Z</time>
      </trkpt>
      <trkpt lat="45.16632" lon="5.97046">
        <ele>2469.2</ele>
        <time>2021-02-27T07:36:49Z</time>
      </trkpt>
      <trkpt lat="45.16633" lon="5.97048">
        <ele>2469.8</ele>
        <time>2021-02-27T07:36:50Z</time>
      </trkpt>
      <trkpt lat="45.16633" lon="5.97048">
        <ele>2469.8</ele>
        <time>2021-02-27T07:36:51Z</time>
      </trkpt>
      <trkpt lat="45.16634" lon="5.97052">
        <ele>2469.8</ele>
        <time>2021-02-27T07:36:52Z</time>
      </trkpt>
      <trkpt lat="45.16634" lon="5.97052">
        <ele>2470.2</ele>
        <time>2021-02-27T07:36:53Z</time>
      </trkpt>
      <trkpt lat="45.16635" lon="5.97054">
        <ele>2470.4</ele>
        <time>2021-02-27T07:36:54Z</time>
      </trkpt>
      <trkpt lat="45.16635" lon="5.97054">
        <ele>2470.8</ele>
        <time>2021-02-27T07:36:55Z</time>
      </trkpt>
      <trkpt lat="45.16636" lon="5.97057">
        <ele>2471.8</ele>
        <time>2021-02-27T07:36:56Z</time>
      </trkpt>
      <trkpt lat="45.16636" lon="5.97057">
        <ele>2472.4</ele>
        <time>2021-02-27T07:36:57Z</time>
      </trkpt>
      <trkpt lat="45.16638" lon="5.9706">
        <ele>2472.4</ele>
        <time>2021-02-27T07:36:58Z</time>
      </trkpt>
      <trkpt lat="45.16638" lon="5.9706">
        <ele>2472.4</ele>
        <time>2021-02-27T07:36:59Z</time>
      </trkpt>
      <trkpt lat="45.16639" lon="5.97063">
        <ele>2472.8</ele>
        <time>2021-02-27T07:37:00Z</time>
      </trkpt>
      <trkpt lat="45.16639" lon="5.97063">
        <ele>2473.6</ele>
        <time>2021-02-27T07:37:01Z</time>
      </trkpt>
      <trkpt lat="45.16639" lon="5.97063">
        <ele>2473.6</ele>
        <time>2021-02-27T07:37:02Z</time>
      </trkpt>
      <trkpt lat="45.1664" lon="5.97066">
        <ele>2474</ele>
        <time>2021-02-27T07:37:03Z</time>
      </trkpt>
      <trkpt lat="45.1664" lon="5.97066">
        <ele>2473.8</ele>
        <time>2021-02-27T07:37:04Z</time>
      </trkpt>
      <trkpt lat="45.16641" lon="5.97069">
        <ele>2474</ele>
        <time>2021-02-27T07:37:05Z</time>
      </trkpt>
      <trkpt lat="45.16641" lon="5.97069">
        <ele>2473.8</ele>
        <time>2021-02-27T07:37:06Z</time>
      </trkpt>
      <trkpt lat="45.16643" lon="5.9707">
        <ele>2473.8</ele>
        <time>2021-02-27T07:37:07Z</time>
      </trkpt>
      <trkpt lat="45.16643" lon="5.9707">
        <ele>2474</ele>
        <time>2021-02-27T07:37:08Z</time>
      </trkpt>
      <trkpt lat="45.16645" lon="5.97073">
        <ele>2473.8</ele>
        <time>2021-02-27T07:37:09Z</time>
      </trkpt>
      <trkpt lat="45.16645" lon="5.97073">
        <ele>2473.6</ele>
        <time>2021-02-27T07:37:10Z</time>
      </trkpt>
      <trkpt lat="45.16646" lon="5.97075">
        <ele>2473.8</ele>
        <time>2021-02-27T07:37:11Z</time>
      </trkpt>
      <trkpt lat="45.16647" lon="5.97076">
        <ele>2474</ele>
        <time>2021-02-27T07:37:12Z</time>
      </trkpt>
      <trkpt lat="45.16649" lon="5.97078">
        <ele>2474</ele>
        <time>2021-02-27T07:37:13Z</time>
      </trkpt>
      <trkpt lat="45.16651" lon="5.9708">
        <ele>2474</ele>
        <time>2021-02-27T07:37:14Z</time>
      </trkpt>
      <trkpt lat="45.16651" lon="5.9708">
        <ele>2474.2</ele>
        <time>2021-02-27T07:37:15Z</time>
      </trkpt>
      <trkpt lat="45.16653" lon="5.97082">
        <ele>2474.2</ele>
        <time>2021-02-27T07:37:16Z</time>
      </trkpt>
      <trkpt lat="45.16653" lon="5.97082">
        <ele>2474.4</ele>
        <time>2021-02-27T07:37:17Z</time>
      </trkpt>
      <trkpt lat="45.16655" lon="5.97084">
        <ele>2474</ele>
        <time>2021-02-27T07:37:18Z</time>
      </trkpt>
      <trkpt lat="45.16657" lon="5.97086">
        <ele>2474</ele>
        <time>2021-02-27T07:37:19Z</time>
      </trkpt>
      <trkpt lat="45.16659" lon="5.97088">
        <ele>2474.2</ele>
        <time>2021-02-27T07:37:20Z</time>
      </trkpt>
      <trkpt lat="45.16661" lon="5.97089">
        <ele>2473.8</ele>
        <time>2021-02-27T07:37:21Z</time>
      </trkpt>
      <trkpt lat="45.16663" lon="5.97091">
        <ele>2473.4</ele>
        <time>2021-02-27T07:37:22Z</time>
      </trkpt>
      <trkpt lat="45.16665" lon="5.97093">
        <ele>2473.2</ele>
        <time>2021-02-27T07:37:23Z</time>
      </trkpt>
      <trkpt lat="45.16667" lon="5.97095">
        <ele>2473</ele>
        <time>2021-02-27T07:37:24Z</time>
      </trkpt>
      <trkpt lat="45.16669" lon="5.97097">
        <ele>2472.6</ele>
        <time>2021-02-27T07:37:25Z</time>
      </trkpt>
      <trkpt lat="45.1667" lon="5.97099">
        <ele>2472</ele>
        <time>2021-02-27T07:37:26Z</time>
      </trkpt>
      <trkpt lat="45.16672" lon="5.971">
        <ele>2471.6</ele>
        <time>2021-02-27T07:37:27Z</time>
      </trkpt>
      <trkpt lat="45.16674" lon="5.97102">
        <ele>2471.2</ele>
        <time>2021-02-27T07:37:28Z</time>
      </trkpt>
      <trkpt lat="45.16674" lon="5.97102">
        <ele>2471.4</ele>
        <time>2021-02-27T07:37:29Z</time>
      </trkpt>
      <trkpt lat="45.16674" lon="5.97103">
        <ele>2471.4</ele>
        <time>2021-02-27T07:37:30Z</time>
      </trkpt>
      <trkpt lat="45.16675" lon="5.97105">
        <ele>2471.4</ele>
        <time>2021-02-27T07:37:31Z</time>
      </trkpt>
      <trkpt lat="45.16675" lon="5.97106">
        <ele>2471.4</ele>
        <time>2021-02-27T07:37:32Z</time>
      </trkpt>
      <trkpt lat="45.16676" lon="5.97108">
        <ele>2471.4</ele>
        <time>2021-02-27T07:37:33Z</time>
      </trkpt>
      <trkpt lat="45.16676" lon="5.97109">
        <ele>2472</ele>
        <time>2021-02-27T07:37:34Z</time>
      </trkpt>
      <trkpt lat="45.16677" lon="5.97111">
        <ele>2472</ele>
        <time>2021-02-27T07:37:35Z</time>
      </trkpt>
      <trkpt lat="45.16677" lon="5.97112">
        <ele>2472.8</ele>
        <time>2021-02-27T07:37:36Z</time>
      </trkpt>
      <trkpt lat="45.16677" lon="5.97114">
        <ele>2473.4</ele>
        <time>2021-02-27T07:37:37Z</time>
      </trkpt>
      <trkpt lat="45.16678" lon="5.97115">
        <ele>2474</ele>
        <time>2021-02-27T07:37:38Z</time>
      </trkpt>
      <trkpt lat="45.16678" lon="5.97117">
        <ele>2474.4</ele>
        <time>2021-02-27T07:37:39Z</time>
      </trkpt>
      <trkpt lat="45.16678" lon="5.97118">
        <ele>2474.4</ele>
        <time>2021-02-27T07:37:40Z</time>
      </trkpt>
      <trkpt lat="45.16679" lon="5.97121">
        <ele>2474.4</ele>
        <time>2021-02-27T07:37:41Z</time>
      </trkpt>
      <trkpt lat="45.16679" lon="5.97121">
        <ele>2474.8</ele>
        <time>2021-02-27T07:37:42Z</time>
      </trkpt>
      <trkpt lat="45.1668" lon="5.97125">
        <ele>2474.8</ele>
        <time>2021-02-27T07:37:43Z</time>
      </trkpt>
      <trkpt lat="45.1668" lon="5.97125">
        <ele>2475</ele>
        <time>2021-02-27T07:37:44Z</time>
      </trkpt>
      <trkpt lat="45.16681" lon="5.97128">
        <ele>2475</ele>
        <time>2021-02-27T07:37:45Z</time>
      </trkpt>
      <trkpt lat="45.16681" lon="5.97128">
        <ele>2475.2</ele>
        <time>2021-02-27T07:37:46Z</time>
      </trkpt>
      <trkpt lat="45.16682" lon="5.97131">
        <ele>2475.8</ele>
        <time>2021-02-27T07:37:47Z</time>
      </trkpt>
      <trkpt lat="45.16682" lon="5.97131">
        <ele>2476.4</ele>
        <time>2021-02-27T07:37:48Z</time>
      </trkpt>
      <trkpt lat="45.16683" lon="5.97133">
        <ele>2476.6</ele>
        <time>2021-02-27T07:37:49Z</time>
      </trkpt>
      <trkpt lat="45.16683" lon="5.97133">
        <ele>2476.8</ele>
        <time>2021-02-27T07:37:50Z</time>
      </trkpt>
      <trkpt lat="45.16683" lon="5.97135">
        <ele>2477.2</ele>
        <time>2021-02-27T07:37:51Z</time>
      </trkpt>
      <trkpt lat="45.16683" lon="5.97135">
        <ele>2477.4</ele>
        <time>2021-02-27T07:37:52Z</time>
      </trkpt>
      <trkpt lat="45.16684" lon="5.97138">
        <ele>2477.8</ele>
        <time>2021-02-27T07:37:53Z</time>
      </trkpt>
      <trkpt lat="45.16684" lon="5.97138">
        <ele>2477.8</ele>
        <time>2021-02-27T07:37:54Z</time>
      </trkpt>
      <trkpt lat="45.16684" lon="5.97141">
        <ele>2478.2</ele>
        <time>2021-02-27T07:37:55Z</time>
      </trkpt>
      <trkpt lat="45.16684" lon="5.97141">
        <ele>2478.2</ele>
        <time>2021-02-27T07:37:56Z</time>
      </trkpt>
      <trkpt lat="45.16685" lon="5.97145">
        <ele>2478.4</ele>
        <time>2021-02-27T07:37:57Z</time>
      </trkpt>
      <trkpt lat="45.16685" lon="5.97145">
        <ele>2478.4</ele>
        <time>2021-02-27T07:37:58Z</time>
      </trkpt>
      <trkpt lat="45.16686" lon="5.97148">
        <ele>2478.4</ele>
        <time>2021-02-27T07:37:59Z</time>
      </trkpt>
      <trkpt lat="45.16686" lon="5.97148">
        <ele>2479</ele>
        <time>2021-02-27T07:38:00Z</time>
      </trkpt>
      <trkpt lat="45.16686" lon="5.97151">
        <ele>2479</ele>
        <time>2021-02-27T07:38:01Z</time>
      </trkpt>
      <trkpt lat="45.16686" lon="5.97151">
        <ele>2479</ele>
        <time>2021-02-27T07:38:02Z</time>
      </trkpt>
      <trkpt lat="45.16687" lon="5.97154">
        <ele>2479.4</ele>
        <time>2021-02-27T07:38:03Z</time>
      </trkpt>
      <trkpt lat="45.16687" lon="5.97154">
        <ele>2479.4</ele>
        <time>2021-02-27T07:38:04Z</time>
      </trkpt>
      <trkpt lat="45.16687" lon="5.97158">
        <ele>2480.2</ele>
        <time>2021-02-27T07:38:05Z</time>
      </trkpt>
      <trkpt lat="45.16687" lon="5.97158">
        <ele>2480.2</ele>
        <time>2021-02-27T07:38:06Z</time>
      </trkpt>
      <trkpt lat="45.16688" lon="5.97161">
        <ele>2480.4</ele>
        <time>2021-02-27T07:38:07Z</time>
      </trkpt>
      <trkpt lat="45.16688" lon="5.97161">
        <ele>2481</ele>
        <time>2021-02-27T07:38:08Z</time>
      </trkpt>
      <trkpt lat="45.16689" lon="5.97164">
        <ele>2481</ele>
        <time>2021-02-27T07:38:09Z</time>
      </trkpt>
      <trkpt lat="45.16689" lon="5.97164">
        <ele>2481.2</ele>
        <time>2021-02-27T07:38:10Z</time>
      </trkpt>
      <trkpt lat="45.16689" lon="5.97166">
        <ele>2481.8</ele>
        <time>2021-02-27T07:38:11Z</time>
      </trkpt>
      <trkpt lat="45.16689" lon="5.97166">
        <ele>2481.8</ele>
        <time>2021-02-27T07:38:12Z</time>
      </trkpt>
      <trkpt lat="45.16691" lon="5.97169">
        <ele>2482.4</ele>
        <time>2021-02-27T07:38:13Z</time>
      </trkpt>
      <trkpt lat="45.16691" lon="5.97169">
        <ele>2482.8</ele>
        <time>2021-02-27T07:38:14Z</time>
      </trkpt>
      <trkpt lat="45.16691" lon="5.97172">
        <ele>2482.8</ele>
        <time>2021-02-27T07:38:15Z</time>
      </trkpt>
      <trkpt lat="45.16691" lon="5.97172">
        <ele>2483.4</ele>
        <time>2021-02-27T07:38:16Z</time>
      </trkpt>
      <trkpt lat="45.16692" lon="5.97175">
        <ele>2483.6</ele>
        <time>2021-02-27T07:38:17Z</time>
      </trkpt>
      <trkpt lat="45.16692" lon="5.97175">
        <ele>2483.8</ele>
        <time>2021-02-27T07:38:18Z</time>
      </trkpt>
      <trkpt lat="45.16693" lon="5.97178">
        <ele>2484.4</ele>
        <time>2021-02-27T07:38:19Z</time>
      </trkpt>
      <trkpt lat="45.16693" lon="5.97178">
        <ele>2484.2</ele>
        <time>2021-02-27T07:38:20Z</time>
      </trkpt>
      <trkpt lat="45.16694" lon="5.9718">
        <ele>2485</ele>
        <time>2021-02-27T07:38:21Z</time>
      </trkpt>
      <trkpt lat="45.16694" lon="5.9718">
        <ele>2485.2</ele>
        <time>2021-02-27T07:38:22Z</time>
      </trkpt>
      <trkpt lat="45.16694" lon="5.97183">
        <ele>2485.2</ele>
        <time>2021-02-27T07:38:23Z</time>
      </trkpt>
      <trkpt lat="45.16694" lon="5.97183">
        <ele>2485.6</ele>
        <time>2021-02-27T07:38:24Z</time>
      </trkpt>
      <trkpt lat="45.16695" lon="5.97186">
        <ele>2485.8</ele>
        <time>2021-02-27T07:38:25Z</time>
      </trkpt>
      <trkpt lat="45.16695" lon="5.97186">
        <ele>2486.2</ele>
        <time>2021-02-27T07:38:26Z</time>
      </trkpt>
      <trkpt lat="45.16696" lon="5.9719">
        <ele>2486.8</ele>
        <time>2021-02-27T07:38:27Z</time>
      </trkpt>
      <trkpt lat="45.16696" lon="5.9719">
        <ele>2487</ele>
        <time>2021-02-27T07:38:28Z</time>
      </trkpt>
      <trkpt lat="45.16696" lon="5.97193">
        <ele>2487.8</ele>
        <time>2021-02-27T07:38:29Z</time>
      </trkpt>
      <trkpt lat="45.16696" lon="5.97193">
        <ele>2487.8</ele>
        <time>2021-02-27T07:38:30Z</time>
      </trkpt>
      <trkpt lat="45.16696" lon="5.97193">
        <ele>2487.6</ele>
        <time>2021-02-27T07:38:31Z</time>
      </trkpt>
      <trkpt lat="45.16696" lon="5.97193">
        <ele>2488</ele>
        <time>2021-02-27T07:38:32Z</time>
      </trkpt>
      <trkpt lat="45.16697" lon="5.97197">
        <ele>2487.8</ele>
        <time>2021-02-27T07:38:33Z</time>
      </trkpt>
      <trkpt lat="45.16697" lon="5.97197">
        <ele>2487.8</ele>
        <time>2021-02-27T07:38:34Z</time>
      </trkpt>
      <trkpt lat="45.16698" lon="5.972">
        <ele>2488.4</ele>
        <time>2021-02-27T07:38:35Z</time>
      </trkpt>
      <trkpt lat="45.16698" lon="5.972">
        <ele>2488.6</ele>
        <time>2021-02-27T07:38:36Z</time>
      </trkpt>
      <trkpt lat="45.16698" lon="5.97203">
        <ele>2488.6</ele>
        <time>2021-02-27T07:38:37Z</time>
      </trkpt>
      <trkpt lat="45.16698" lon="5.97203">
        <ele>2489</ele>
        <time>2021-02-27T07:38:38Z</time>
      </trkpt>
      <trkpt lat="45.16699" lon="5.97207">
        <ele>2489.2</ele>
        <time>2021-02-27T07:38:39Z</time>
      </trkpt>
      <trkpt lat="45.16699" lon="5.97207">
        <ele>2489.4</ele>
        <time>2021-02-27T07:38:40Z</time>
      </trkpt>
      <trkpt lat="45.16699" lon="5.97209">
        <ele>2489.6</ele>
        <time>2021-02-27T07:38:41Z</time>
      </trkpt>
      <trkpt lat="45.16699" lon="5.97209">
        <ele>2489.6</ele>
        <time>2021-02-27T07:38:42Z</time>
      </trkpt>
      <trkpt lat="45.16699" lon="5.97212">
        <ele>2490</ele>
        <time>2021-02-27T07:38:43Z</time>
      </trkpt>
      <trkpt lat="45.16699" lon="5.97212">
        <ele>2490.2</ele>
        <time>2021-02-27T07:38:44Z</time>
      </trkpt>
      <trkpt lat="45.167" lon="5.97215">
        <ele>2490.2</ele>
        <time>2021-02-27T07:38:45Z</time>
      </trkpt>
      <trkpt lat="45.167" lon="5.97215">
        <ele>2490.8</ele>
        <time>2021-02-27T07:38:46Z</time>
      </trkpt>
      <trkpt lat="45.16701" lon="5.97218">
        <ele>2491</ele>
        <time>2021-02-27T07:38:47Z</time>
      </trkpt>
      <trkpt lat="45.16701" lon="5.97218">
        <ele>2491.2</ele>
        <time>2021-02-27T07:38:48Z</time>
      </trkpt>
      <trkpt lat="45.16701" lon="5.97221">
        <ele>2491.4</ele>
        <time>2021-02-27T07:38:49Z</time>
      </trkpt>
      <trkpt lat="45.16701" lon="5.97221">
        <ele>2491.6</ele>
        <time>2021-02-27T07:38:50Z</time>
      </trkpt>
      <trkpt lat="45.16701" lon="5.97224">
        <ele>2492.4</ele>
        <time>2021-02-27T07:38:51Z</time>
      </trkpt>
      <trkpt lat="45.16701" lon="5.97224">
        <ele>2492</ele>
        <time>2021-02-27T07:38:52Z</time>
      </trkpt>
      <trkpt lat="45.16701" lon="5.97227">
        <ele>2492.2</ele>
        <time>2021-02-27T07:38:53Z</time>
      </trkpt>
      <trkpt lat="45.16701" lon="5.97227">
        <ele>2492.6</ele>
        <time>2021-02-27T07:38:54Z</time>
      </trkpt>
      <trkpt lat="45.16702" lon="5.9723">
        <ele>2492.8</ele>
        <time>2021-02-27T07:38:55Z</time>
      </trkpt>
      <trkpt lat="45.16702" lon="5.9723">
        <ele>2493</ele>
        <time>2021-02-27T07:38:56Z</time>
      </trkpt>
      <trkpt lat="45.16702" lon="5.97233">
        <ele>2493.6</ele>
        <time>2021-02-27T07:38:57Z</time>
      </trkpt>
      <trkpt lat="45.16702" lon="5.97233">
        <ele>2493.6</ele>
        <time>2021-02-27T07:38:58Z</time>
      </trkpt>
      <trkpt lat="45.16702" lon="5.97236">
        <ele>2494</ele>
        <time>2021-02-27T07:38:59Z</time>
      </trkpt>
      <trkpt lat="45.16702" lon="5.97236">
        <ele>2494.4</ele>
        <time>2021-02-27T07:39:00Z</time>
      </trkpt>
      <trkpt lat="45.16702" lon="5.97239">
        <ele>2494.4</ele>
        <time>2021-02-27T07:39:01Z</time>
      </trkpt>
      <trkpt lat="45.16702" lon="5.97239">
        <ele>2495.2</ele>
        <time>2021-02-27T07:39:02Z</time>
      </trkpt>
      <trkpt lat="45.16703" lon="5.97242">
        <ele>2495.2</ele>
        <time>2021-02-27T07:39:03Z</time>
      </trkpt>
      <trkpt lat="45.16703" lon="5.97242">
        <ele>2495.4</ele>
        <time>2021-02-27T07:39:04Z</time>
      </trkpt>
      <trkpt lat="45.16704" lon="5.97245">
        <ele>2495.6</ele>
        <time>2021-02-27T07:39:05Z</time>
      </trkpt>
      <trkpt lat="45.16704" lon="5.97245">
        <ele>2495.6</ele>
        <time>2021-02-27T07:39:06Z</time>
      </trkpt>
      <trkpt lat="45.16704" lon="5.97248">
        <ele>2495.8</ele>
        <time>2021-02-27T07:39:07Z</time>
      </trkpt>
      <trkpt lat="45.16704" lon="5.97248">
        <ele>2496.2</ele>
        <time>2021-02-27T07:39:08Z</time>
      </trkpt>
      <trkpt lat="45.16704" lon="5.97252">
        <ele>2496.4</ele>
        <time>2021-02-27T07:39:09Z</time>
      </trkpt>
      <trkpt lat="45.16704" lon="5.97252">
        <ele>2497.2</ele>
        <time>2021-02-27T07:39:10Z</time>
      </trkpt>
      <trkpt lat="45.16704" lon="5.97255">
        <ele>2497.2</ele>
        <time>2021-02-27T07:39:11Z</time>
      </trkpt>
      <trkpt lat="45.16704" lon="5.97255">
        <ele>2497.4</ele>
        <time>2021-02-27T07:39:12Z</time>
      </trkpt>
      <trkpt lat="45.16704" lon="5.97259">
        <ele>2497.6</ele>
        <time>2021-02-27T07:39:13Z</time>
      </trkpt>
      <trkpt lat="45.16704" lon="5.97259">
        <ele>2497.6</ele>
        <time>2021-02-27T07:39:14Z</time>
      </trkpt>
      <trkpt lat="45.16705" lon="5.97262">
        <ele>2497.8</ele>
        <time>2021-02-27T07:39:15Z</time>
      </trkpt>
      <trkpt lat="45.16705" lon="5.97262">
        <ele>2498</ele>
        <time>2021-02-27T07:39:16Z</time>
      </trkpt>
      <trkpt lat="45.16706" lon="5.97265">
        <ele>2498</ele>
        <time>2021-02-27T07:39:17Z</time>
      </trkpt>
      <trkpt lat="45.16706" lon="5.97265">
        <ele>2498.6</ele>
        <time>2021-02-27T07:39:18Z</time>
      </trkpt>
      <trkpt lat="45.16707" lon="5.97268">
        <ele>2498.8</ele>
        <time>2021-02-27T07:39:19Z</time>
      </trkpt>
      <trkpt lat="45.16707" lon="5.97268">
        <ele>2498.8</ele>
        <time>2021-02-27T07:39:20Z</time>
      </trkpt>
      <trkpt lat="45.16708" lon="5.97271">
        <ele>2499.2</ele>
        <time>2021-02-27T07:39:21Z</time>
      </trkpt>
      <trkpt lat="45.16708" lon="5.97271">
        <ele>2498.8</ele>
        <time>2021-02-27T07:39:22Z</time>
      </trkpt>
      <trkpt lat="45.16708" lon="5.97275">
        <ele>2499.2</ele>
        <time>2021-02-27T07:39:23Z</time>
      </trkpt>
      <trkpt lat="45.16708" lon="5.97275">
        <ele>2499.4</ele>
        <time>2021-02-27T07:39:24Z</time>
      </trkpt>
      <trkpt lat="45.16709" lon="5.97279">
        <ele>2499.2</ele>
        <time>2021-02-27T07:39:25Z</time>
      </trkpt>
      <trkpt lat="45.16709" lon="5.97279">
        <ele>2499.6</ele>
        <time>2021-02-27T07:39:26Z</time>
      </trkpt>
      <trkpt lat="45.1671" lon="5.97282">
        <ele>2499.6</ele>
        <time>2021-02-27T07:39:27Z</time>
      </trkpt>
      <trkpt lat="45.1671" lon="5.97282">
        <ele>2499.6</ele>
        <time>2021-02-27T07:39:28Z</time>
      </trkpt>
      <trkpt lat="45.16711" lon="5.97285">
        <ele>2500</ele>
        <time>2021-02-27T07:39:29Z</time>
      </trkpt>
      <trkpt lat="45.16711" lon="5.97285">
        <ele>2499.8</ele>
        <time>2021-02-27T07:39:30Z</time>
      </trkpt>
      <trkpt lat="45.16712" lon="5.97289">
        <ele>2500</ele>
        <time>2021-02-27T07:39:31Z</time>
      </trkpt>
      <trkpt lat="45.16712" lon="5.97289">
        <ele>2500.2</ele>
        <time>2021-02-27T07:39:32Z</time>
      </trkpt>
      <trkpt lat="45.16713" lon="5.97293">
        <ele>2500.4</ele>
        <time>2021-02-27T07:39:33Z</time>
      </trkpt>
      <trkpt lat="45.16713" lon="5.97293">
        <ele>2500.2</ele>
        <time>2021-02-27T07:39:34Z</time>
      </trkpt>
      <trkpt lat="45.16714" lon="5.97295">
        <ele>2500</ele>
        <time>2021-02-27T07:39:35Z</time>
      </trkpt>
      <trkpt lat="45.16714" lon="5.97295">
        <ele>2500.4</ele>
        <time>2021-02-27T07:39:36Z</time>
      </trkpt>
      <trkpt lat="45.16715" lon="5.97298">
        <ele>2500.6</ele>
        <time>2021-02-27T07:39:37Z</time>
      </trkpt>
      <trkpt lat="45.16715" lon="5.97298">
        <ele>2500.6</ele>
        <time>2021-02-27T07:39:38Z</time>
      </trkpt>
      <trkpt lat="45.16715" lon="5.97298">
        <ele>2500.8</ele>
        <time>2021-02-27T07:39:39Z</time>
      </trkpt>
      <trkpt lat="45.16717" lon="5.97301">
        <ele>2501</ele>
        <time>2021-02-27T07:39:40Z</time>
      </trkpt>
      <trkpt lat="45.16717" lon="5.97301">
        <ele>2501.6</ele>
        <time>2021-02-27T07:39:41Z</time>
      </trkpt>
      <trkpt lat="45.16718" lon="5.97304">
        <ele>2501.6</ele>
        <time>2021-02-27T07:39:42Z</time>
      </trkpt>
      <trkpt lat="45.16718" lon="5.97304">
        <ele>2502.2</ele>
        <time>2021-02-27T07:39:43Z</time>
      </trkpt>
      <trkpt lat="45.16718" lon="5.97304">
        <ele>2502.6</ele>
        <time>2021-02-27T07:39:44Z</time>
      </trkpt>
      <trkpt lat="45.16719" lon="5.97307">
        <ele>2503</ele>
        <time>2021-02-27T07:39:45Z</time>
      </trkpt>
      <trkpt lat="45.16719" lon="5.97307">
        <ele>2503.2</ele>
        <time>2021-02-27T07:39:46Z</time>
      </trkpt>
      <trkpt lat="45.16719" lon="5.97307">
        <ele>2503.2</ele>
        <time>2021-02-27T07:39:47Z</time>
      </trkpt>
      <trkpt lat="45.1672" lon="5.9731">
        <ele>2503.4</ele>
        <time>2021-02-27T07:39:48Z</time>
      </trkpt>
      <trkpt lat="45.1672" lon="5.9731">
        <ele>2503.6</ele>
        <time>2021-02-27T07:39:49Z</time>
      </trkpt>
      <trkpt lat="45.1672" lon="5.9731">
        <ele>2503.6</ele>
        <time>2021-02-27T07:39:50Z</time>
      </trkpt>
      <trkpt lat="45.16722" lon="5.97313">
        <ele>2504</ele>
        <time>2021-02-27T07:39:51Z</time>
      </trkpt>
      <trkpt lat="45.16722" lon="5.97313">
        <ele>2504.2</ele>
        <time>2021-02-27T07:39:52Z</time>
      </trkpt>
      <trkpt lat="45.16723" lon="5.97316">
        <ele>2504.6</ele>
        <time>2021-02-27T07:39:53Z</time>
      </trkpt>
      <trkpt lat="45.16723" lon="5.97316">
        <ele>2504.8</ele>
        <time>2021-02-27T07:39:54Z</time>
      </trkpt>
      <trkpt lat="45.16723" lon="5.97316">
        <ele>2504.8</ele>
        <time>2021-02-27T07:39:55Z</time>
      </trkpt>
      <trkpt lat="45.16723" lon="5.9732">
        <ele>2505.4</ele>
        <time>2021-02-27T07:39:56Z</time>
      </trkpt>
      <trkpt lat="45.16723" lon="5.9732">
        <ele>2505.6</ele>
        <time>2021-02-27T07:39:57Z</time>
      </trkpt>
      <trkpt lat="45.16724" lon="5.97323">
        <ele>2505.8</ele>
        <time>2021-02-27T07:39:58Z</time>
      </trkpt>
      <trkpt lat="45.16724" lon="5.97323">
        <ele>2505.8</ele>
        <time>2021-02-27T07:39:59Z</time>
      </trkpt>
      <trkpt lat="45.16725" lon="5.97326">
        <ele>2506</ele>
        <time>2021-02-27T07:40:00Z</time>
      </trkpt>
      <trkpt lat="45.16725" lon="5.97326">
        <ele>2506.4</ele>
        <time>2021-02-27T07:40:01Z</time>
      </trkpt>
      <trkpt lat="45.16725" lon="5.97329">
        <ele>2506.6</ele>
        <time>2021-02-27T07:40:02Z</time>
      </trkpt>
      <trkpt lat="45.16725" lon="5.97329">
        <ele>2506.8</ele>
        <time>2021-02-27T07:40:03Z</time>
      </trkpt>
      <trkpt lat="45.16726" lon="5.97332">
        <ele>2507.4</ele>
        <time>2021-02-27T07:40:04Z</time>
      </trkpt>
      <trkpt lat="45.16726" lon="5.97332">
        <ele>2507.4</ele>
        <time>2021-02-27T07:40:05Z</time>
      </trkpt>
      <trkpt lat="45.16726" lon="5.97332">
        <ele>2507.6</ele>
        <time>2021-02-27T07:40:06Z</time>
      </trkpt>
      <trkpt lat="45.16727" lon="5.97335">
        <ele>2508.2</ele>
        <time>2021-02-27T07:40:07Z</time>
      </trkpt>
      <trkpt lat="45.16727" lon="5.97335">
        <ele>2508</ele>
        <time>2021-02-27T07:40:08Z</time>
      </trkpt>
      <trkpt lat="45.16727" lon="5.97338">
        <ele>2508.6</ele>
        <time>2021-02-27T07:40:09Z</time>
      </trkpt>
      <trkpt lat="45.16727" lon="5.97338">
        <ele>2508.8</ele>
        <time>2021-02-27T07:40:10Z</time>
      </trkpt>
      <trkpt lat="45.16728" lon="5.97341">
        <ele>2509</ele>
        <time>2021-02-27T07:40:11Z</time>
      </trkpt>
      <trkpt lat="45.16728" lon="5.97341">
        <ele>2509.8</ele>
        <time>2021-02-27T07:40:12Z</time>
      </trkpt>
      <trkpt lat="45.16728" lon="5.97344">
        <ele>2509.8</ele>
        <time>2021-02-27T07:40:13Z</time>
      </trkpt>
      <trkpt lat="45.16728" lon="5.97344">
        <ele>2510</ele>
        <time>2021-02-27T07:40:14Z</time>
      </trkpt>
      <trkpt lat="45.16728" lon="5.97347">
        <ele>2510.4</ele>
        <time>2021-02-27T07:40:15Z</time>
      </trkpt>
      <trkpt lat="45.16728" lon="5.97347">
        <ele>2510.4</ele>
        <time>2021-02-27T07:40:16Z</time>
      </trkpt>
      <trkpt lat="45.16729" lon="5.9735">
        <ele>2511</ele>
        <time>2021-02-27T07:40:17Z</time>
      </trkpt>
      <trkpt lat="45.16729" lon="5.9735">
        <ele>2511.2</ele>
        <time>2021-02-27T07:40:18Z</time>
      </trkpt>
      <trkpt lat="45.16729" lon="5.97353">
        <ele>2511.2</ele>
        <time>2021-02-27T07:40:19Z</time>
      </trkpt>
      <trkpt lat="45.16729" lon="5.97353">
        <ele>2511.6</ele>
        <time>2021-02-27T07:40:20Z</time>
      </trkpt>
      <trkpt lat="45.1673" lon="5.97356">
        <ele>2512</ele>
        <time>2021-02-27T07:40:21Z</time>
      </trkpt>
      <trkpt lat="45.1673" lon="5.97356">
        <ele>2512</ele>
        <time>2021-02-27T07:40:22Z</time>
      </trkpt>
      <trkpt lat="45.1673" lon="5.97356">
        <ele>2512.4</ele>
        <time>2021-02-27T07:40:23Z</time>
      </trkpt>
      <trkpt lat="45.1673" lon="5.97356">
        <ele>2513.4</ele>
        <time>2021-02-27T07:40:24Z</time>
      </trkpt>
      <trkpt lat="45.1673" lon="5.97356">
        <ele>2513.4</ele>
        <time>2021-02-27T07:40:25Z</time>
      </trkpt>
      <trkpt lat="45.16731" lon="5.97358">
        <ele>2513.4</ele>
        <time>2021-02-27T07:40:26Z</time>
      </trkpt>
      <trkpt lat="45.16731" lon="5.97358">
        <ele>2514.4</ele>
        <time>2021-02-27T07:40:27Z</time>
      </trkpt>
      <trkpt lat="45.16731" lon="5.97358">
        <ele>2515</ele>
        <time>2021-02-27T07:40:28Z</time>
      </trkpt>
      <trkpt lat="45.16733" lon="5.97359">
        <ele>2515.2</ele>
        <time>2021-02-27T07:40:29Z</time>
      </trkpt>
      <trkpt lat="45.16733" lon="5.97359">
        <ele>2515.4</ele>
        <time>2021-02-27T07:40:30Z</time>
      </trkpt>
      <trkpt lat="45.16734" lon="5.9736">
        <ele>2516</ele>
        <time>2021-02-27T07:40:31Z</time>
      </trkpt>
      <trkpt lat="45.16735" lon="5.9736">
        <ele>2516.2</ele>
        <time>2021-02-27T07:40:32Z</time>
      </trkpt>
      <trkpt lat="45.16736" lon="5.97361">
        <ele>2516.6</ele>
        <time>2021-02-27T07:40:33Z</time>
      </trkpt>
      <trkpt lat="45.16737" lon="5.97362">
        <ele>2517</ele>
        <time>2021-02-27T07:40:34Z</time>
      </trkpt>
      <trkpt lat="45.16738" lon="5.97362">
        <ele>2517.2</ele>
        <time>2021-02-27T07:40:35Z</time>
      </trkpt>
      <trkpt lat="45.16739" lon="5.97363">
        <ele>2517.2</ele>
        <time>2021-02-27T07:40:36Z</time>
      </trkpt>
      <trkpt lat="45.16739" lon="5.97364">
        <ele>2517.2</ele>
        <time>2021-02-27T07:40:37Z</time>
      </trkpt>
      <trkpt lat="45.1674" lon="5.97364">
        <ele>2517.2</ele>
        <time>2021-02-27T07:40:38Z</time>
      </trkpt>
      <trkpt lat="45.16741" lon="5.97365">
        <ele>2517.6</ele>
        <time>2021-02-27T07:40:39Z</time>
      </trkpt>
      <trkpt lat="45.16742" lon="5.97365">
        <ele>2517.6</ele>
        <time>2021-02-27T07:40:40Z</time>
      </trkpt>
      <trkpt lat="45.16742" lon="5.97365">
        <ele>2517.8</ele>
        <time>2021-02-27T07:40:41Z</time>
      </trkpt>
      <trkpt lat="45.16743" lon="5.97365">
        <ele>2517.8</ele>
        <time>2021-02-27T07:40:42Z</time>
      </trkpt>
      <trkpt lat="45.16744" lon="5.97365">
        <ele>2517.8</ele>
        <time>2021-02-27T07:40:43Z</time>
      </trkpt>
      <trkpt lat="45.16744" lon="5.97365">
        <ele>2517.8</ele>
        <time>2021-02-27T07:40:44Z</time>
      </trkpt>
      <trkpt lat="45.16745" lon="5.97365">
        <ele>2518</ele>
        <time>2021-02-27T07:40:45Z</time>
      </trkpt>
      <trkpt lat="45.16745" lon="5.97365">
        <ele>2518.2</ele>
        <time>2021-02-27T07:40:46Z</time>
      </trkpt>
      <trkpt lat="45.16745" lon="5.97365">
        <ele>2518</ele>
        <time>2021-02-27T07:40:47Z</time>
      </trkpt>
      <trkpt lat="45.16747" lon="5.97367">
        <ele>2518</ele>
        <time>2021-02-27T07:40:48Z</time>
      </trkpt>
      <trkpt lat="45.16747" lon="5.97367">
        <ele>2518.2</ele>
        <time>2021-02-27T07:40:49Z</time>
      </trkpt>
      <trkpt lat="45.16747" lon="5.97367">
        <ele>2518.2</ele>
        <time>2021-02-27T07:40:50Z</time>
      </trkpt>
      <trkpt lat="45.16747" lon="5.97367">
        <ele>2518.6</ele>
        <time>2021-02-27T07:40:51Z</time>
      </trkpt>
      <trkpt lat="45.16749" lon="5.97368">
        <ele>2519</ele>
        <time>2021-02-27T07:40:52Z</time>
      </trkpt>
      <trkpt lat="45.16749" lon="5.97368">
        <ele>2519</ele>
        <time>2021-02-27T07:40:53Z</time>
      </trkpt>
      <trkpt lat="45.16749" lon="5.97369">
        <ele>2519.4</ele>
        <time>2021-02-27T07:40:54Z</time>
      </trkpt>
      <trkpt lat="45.1675" lon="5.97369">
        <ele>2520</ele>
        <time>2021-02-27T07:40:55Z</time>
      </trkpt>
      <trkpt lat="45.1675" lon="5.9737">
        <ele>2520</ele>
        <time>2021-02-27T07:40:56Z</time>
      </trkpt>
      <trkpt lat="45.16751" lon="5.9737">
        <ele>2520.2</ele>
        <time>2021-02-27T07:40:57Z</time>
      </trkpt>
      <trkpt lat="45.16751" lon="5.97371">
        <ele>2520.4</ele>
        <time>2021-02-27T07:40:58Z</time>
      </trkpt>
      <trkpt lat="45.16752" lon="5.97371">
        <ele>2520.6</ele>
        <time>2021-02-27T07:40:59Z</time>
      </trkpt>
      <trkpt lat="45.16752" lon="5.97371">
        <ele>2520.6</ele>
        <time>2021-02-27T07:41:00Z</time>
      </trkpt>
      <trkpt lat="45.16753" lon="5.97372">
        <ele>2521</ele>
        <time>2021-02-27T07:41:01Z</time>
      </trkpt>
      <trkpt lat="45.16753" lon="5.97372">
        <ele>2521.2</ele>
        <time>2021-02-27T07:41:02Z</time>
      </trkpt>
      <trkpt lat="45.16754" lon="5.97373">
        <ele>2521.4</ele>
        <time>2021-02-27T07:41:03Z</time>
      </trkpt>
      <trkpt lat="45.16754" lon="5.97373">
        <ele>2521.6</ele>
        <time>2021-02-27T07:41:04Z</time>
      </trkpt>
      <trkpt lat="45.16756" lon="5.97376">
        <ele>2521.8</ele>
        <time>2021-02-27T07:41:05Z</time>
      </trkpt>
      <trkpt lat="45.16756" lon="5.97376">
        <ele>2522.2</ele>
        <time>2021-02-27T07:41:06Z</time>
      </trkpt>
      <trkpt lat="45.16757" lon="5.97378">
        <ele>2522</ele>
        <time>2021-02-27T07:41:07Z</time>
      </trkpt>
      <trkpt lat="45.16757" lon="5.97378">
        <ele>2521.8</ele>
        <time>2021-02-27T07:41:08Z</time>
      </trkpt>
      <trkpt lat="45.16757" lon="5.97378">
        <ele>2522</ele>
        <time>2021-02-27T07:41:09Z</time>
      </trkpt>
      <trkpt lat="45.16758" lon="5.97381">
        <ele>2522.4</ele>
        <time>2021-02-27T07:41:10Z</time>
      </trkpt>
      <trkpt lat="45.16758" lon="5.97381">
        <ele>2522.8</ele>
        <time>2021-02-27T07:41:11Z</time>
      </trkpt>
      <trkpt lat="45.16758" lon="5.97381">
        <ele>2523</ele>
        <time>2021-02-27T07:41:12Z</time>
      </trkpt>
      <trkpt lat="45.16759" lon="5.97384">
        <ele>2523.2</ele>
        <time>2021-02-27T07:41:13Z</time>
      </trkpt>
      <trkpt lat="45.16759" lon="5.97384">
        <ele>2523.4</ele>
        <time>2021-02-27T07:41:14Z</time>
      </trkpt>
      <trkpt lat="45.1676" lon="5.97386">
        <ele>2523.6</ele>
        <time>2021-02-27T07:41:15Z</time>
      </trkpt>
      <trkpt lat="45.1676" lon="5.97386">
        <ele>2523.8</ele>
        <time>2021-02-27T07:41:16Z</time>
      </trkpt>
      <trkpt lat="45.1676" lon="5.97386">
        <ele>2524</ele>
        <time>2021-02-27T07:41:17Z</time>
      </trkpt>
      <trkpt lat="45.16761" lon="5.97388">
        <ele>2524.2</ele>
        <time>2021-02-27T07:41:18Z</time>
      </trkpt>
      <trkpt lat="45.16761" lon="5.97388">
        <ele>2524.4</ele>
        <time>2021-02-27T07:41:19Z</time>
      </trkpt>
      <trkpt lat="45.16761" lon="5.97391">
        <ele>2524.6</ele>
        <time>2021-02-27T07:41:20Z</time>
      </trkpt>
      <trkpt lat="45.16761" lon="5.97391">
        <ele>2524.8</ele>
        <time>2021-02-27T07:41:21Z</time>
      </trkpt>
      <trkpt lat="45.16762" lon="5.97392">
        <ele>2525</ele>
        <time>2021-02-27T07:41:22Z</time>
      </trkpt>
      <trkpt lat="45.16763" lon="5.97394">
        <ele>2525</ele>
        <time>2021-02-27T07:41:23Z</time>
      </trkpt>
      <trkpt lat="45.16764" lon="5.97396">
        <ele>2525.2</ele>
        <time>2021-02-27T07:41:24Z</time>
      </trkpt>
      <trkpt lat="45.16765" lon="5.97397">
        <ele>2525.4</ele>
        <time>2021-02-27T07:41:25Z</time>
      </trkpt>
      <trkpt lat="45.16766" lon="5.97399">
        <ele>2525.8</ele>
        <time>2021-02-27T07:41:26Z</time>
      </trkpt>
      <trkpt lat="45.16766" lon="5.974">
        <ele>2526.2</ele>
        <time>2021-02-27T07:41:27Z</time>
      </trkpt>
      <trkpt lat="45.16767" lon="5.97402">
        <ele>2526.4</ele>
        <time>2021-02-27T07:41:28Z</time>
      </trkpt>
      <trkpt lat="45.16767" lon="5.97402">
        <ele>2526.4</ele>
        <time>2021-02-27T07:41:29Z</time>
      </trkpt>
      <trkpt lat="45.16767" lon="5.97402">
        <ele>2526.6</ele>
        <time>2021-02-27T07:41:30Z</time>
      </trkpt>
      <trkpt lat="45.1677" lon="5.97406">
        <ele>2527</ele>
        <time>2021-02-27T07:41:31Z</time>
      </trkpt>
      <trkpt lat="45.1677" lon="5.97406">
        <ele>2527.2</ele>
        <time>2021-02-27T07:41:32Z</time>
      </trkpt>
      <trkpt lat="45.16772" lon="5.97409">
        <ele>2527.4</ele>
        <time>2021-02-27T07:41:33Z</time>
      </trkpt>
      <trkpt lat="45.16772" lon="5.97409">
        <ele>2527.6</ele>
        <time>2021-02-27T07:41:34Z</time>
      </trkpt>
      <trkpt lat="45.16772" lon="5.97409">
        <ele>2528</ele>
        <time>2021-02-27T07:41:35Z</time>
      </trkpt>
      <trkpt lat="45.16772" lon="5.97412">
        <ele>2528</ele>
        <time>2021-02-27T07:41:36Z</time>
      </trkpt>
      <trkpt lat="45.16772" lon="5.97412">
        <ele>2528.4</ele>
        <time>2021-02-27T07:41:37Z</time>
      </trkpt>
      <trkpt lat="45.16772" lon="5.97412">
        <ele>2528.4</ele>
        <time>2021-02-27T07:41:38Z</time>
      </trkpt>
      <trkpt lat="45.16773" lon="5.97415">
        <ele>2528.4</ele>
        <time>2021-02-27T07:41:39Z</time>
      </trkpt>
      <trkpt lat="45.16773" lon="5.97415">
        <ele>2528.6</ele>
        <time>2021-02-27T07:41:40Z</time>
      </trkpt>
      <trkpt lat="45.16774" lon="5.97418">
        <ele>2528.6</ele>
        <time>2021-02-27T07:41:41Z</time>
      </trkpt>
      <trkpt lat="45.16774" lon="5.97418">
        <ele>2529</ele>
        <time>2021-02-27T07:41:42Z</time>
      </trkpt>
      <trkpt lat="45.16775" lon="5.9742">
        <ele>2528.8</ele>
        <time>2021-02-27T07:41:43Z</time>
      </trkpt>
      <trkpt lat="45.16775" lon="5.9742">
        <ele>2529.2</ele>
        <time>2021-02-27T07:41:44Z</time>
      </trkpt>
      <trkpt lat="45.16775" lon="5.97421">
        <ele>2529.4</ele>
        <time>2021-02-27T07:41:45Z</time>
      </trkpt>
      <trkpt lat="45.16776" lon="5.97422">
        <ele>2529.6</ele>
        <time>2021-02-27T07:41:46Z</time>
      </trkpt>
      <trkpt lat="45.16777" lon="5.97423">
        <ele>2529.6</ele>
        <time>2021-02-27T07:41:47Z</time>
      </trkpt>
      <trkpt lat="45.16777" lon="5.97424">
        <ele>2530.2</ele>
        <time>2021-02-27T07:41:48Z</time>
      </trkpt>
      <trkpt lat="45.16777" lon="5.97424">
        <ele>2530.4</ele>
        <time>2021-02-27T07:41:49Z</time>
      </trkpt>
      <trkpt lat="45.16779" lon="5.97426">
        <ele>2530.4</ele>
        <time>2021-02-27T07:41:50Z</time>
      </trkpt>
      <trkpt lat="45.16779" lon="5.97426">
        <ele>2530.6</ele>
        <time>2021-02-27T07:41:51Z</time>
      </trkpt>
      <trkpt lat="45.16779" lon="5.97426">
        <ele>2530.8</ele>
        <time>2021-02-27T07:41:52Z</time>
      </trkpt>
      <trkpt lat="45.16781" lon="5.97427">
        <ele>2531.4</ele>
        <time>2021-02-27T07:41:53Z</time>
      </trkpt>
      <trkpt lat="45.16781" lon="5.97427">
        <ele>2531.4</ele>
        <time>2021-02-27T07:41:54Z</time>
      </trkpt>
      <trkpt lat="45.16783" lon="5.97428">
        <ele>2531.2</ele>
        <time>2021-02-27T07:41:55Z</time>
      </trkpt>
      <trkpt lat="45.16783" lon="5.97428">
        <ele>2532.2</ele>
        <time>2021-02-27T07:41:56Z</time>
      </trkpt>
      <trkpt lat="45.16783" lon="5.97428">
        <ele>2532</ele>
        <time>2021-02-27T07:41:57Z</time>
      </trkpt>
      <trkpt lat="45.16785" lon="5.9743">
        <ele>2531.8</ele>
        <time>2021-02-27T07:41:58Z</time>
      </trkpt>
      <trkpt lat="45.16785" lon="5.9743">
        <ele>2532.8</ele>
        <time>2021-02-27T07:41:59Z</time>
      </trkpt>
      <trkpt lat="45.16785" lon="5.9743">
        <ele>2532.6</ele>
        <time>2021-02-27T07:42:00Z</time>
      </trkpt>
      <trkpt lat="45.16786" lon="5.97432">
        <ele>2532.8</ele>
        <time>2021-02-27T07:42:01Z</time>
      </trkpt>
      <trkpt lat="45.16786" lon="5.97432">
        <ele>2532.8</ele>
        <time>2021-02-27T07:42:02Z</time>
      </trkpt>
      <trkpt lat="45.16786" lon="5.97432">
        <ele>2533.2</ele>
        <time>2021-02-27T07:42:03Z</time>
      </trkpt>
      <trkpt lat="45.16788" lon="5.97435">
        <ele>2533.4</ele>
        <time>2021-02-27T07:42:04Z</time>
      </trkpt>
      <trkpt lat="45.16788" lon="5.97435">
        <ele>2533.6</ele>
        <time>2021-02-27T07:42:05Z</time>
      </trkpt>
      <trkpt lat="45.16788" lon="5.97435">
        <ele>2534.4</ele>
        <time>2021-02-27T07:42:06Z</time>
      </trkpt>
      <trkpt lat="45.16788" lon="5.97435">
        <ele>2534</ele>
        <time>2021-02-27T07:42:07Z</time>
      </trkpt>
      <trkpt lat="45.1679" lon="5.97439">
        <ele>2534</ele>
        <time>2021-02-27T07:42:08Z</time>
      </trkpt>
      <trkpt lat="45.1679" lon="5.97439">
        <ele>2534.8</ele>
        <time>2021-02-27T07:42:09Z</time>
      </trkpt>
      <trkpt lat="45.1679" lon="5.97439">
        <ele>2534.8</ele>
        <time>2021-02-27T07:42:10Z</time>
      </trkpt>
      <trkpt lat="45.16791" lon="5.97442">
        <ele>2535.4</ele>
        <time>2021-02-27T07:42:11Z</time>
      </trkpt>
      <trkpt lat="45.16791" lon="5.97442">
        <ele>2535.2</ele>
        <time>2021-02-27T07:42:12Z</time>
      </trkpt>
      <trkpt lat="45.16791" lon="5.97442">
        <ele>2535</ele>
        <time>2021-02-27T07:42:13Z</time>
      </trkpt>
      <trkpt lat="45.16792" lon="5.97445">
        <ele>2535.2</ele>
        <time>2021-02-27T07:42:14Z</time>
      </trkpt>
      <trkpt lat="45.16792" lon="5.97445">
        <ele>2535.4</ele>
        <time>2021-02-27T07:42:15Z</time>
      </trkpt>
      <trkpt lat="45.16794" lon="5.97448">
        <ele>2535.6</ele>
        <time>2021-02-27T07:42:16Z</time>
      </trkpt>
      <trkpt lat="45.16794" lon="5.97448">
        <ele>2536</ele>
        <time>2021-02-27T07:42:17Z</time>
      </trkpt>
      <trkpt lat="45.16794" lon="5.97448">
        <ele>2536.4</ele>
        <time>2021-02-27T07:42:18Z</time>
      </trkpt>
      <trkpt lat="45.16795" lon="5.97452">
        <ele>2536.8</ele>
        <time>2021-02-27T07:42:19Z</time>
      </trkpt>
      <trkpt lat="45.16795" lon="5.97452">
        <ele>2537</ele>
        <time>2021-02-27T07:42:20Z</time>
      </trkpt>
      <trkpt lat="45.16796" lon="5.97454">
        <ele>2537.4</ele>
        <time>2021-02-27T07:42:21Z</time>
      </trkpt>
      <trkpt lat="45.16796" lon="5.97454">
        <ele>2537.4</ele>
        <time>2021-02-27T07:42:22Z</time>
      </trkpt>
      <trkpt lat="45.16796" lon="5.97457">
        <ele>2538.2</ele>
        <time>2021-02-27T07:42:23Z</time>
      </trkpt>
      <trkpt lat="45.16796" lon="5.97457">
        <ele>2538.8</ele>
        <time>2021-02-27T07:42:24Z</time>
      </trkpt>
      <trkpt lat="45.16796" lon="5.9746">
        <ele>2538.8</ele>
        <time>2021-02-27T07:42:25Z</time>
      </trkpt>
      <trkpt lat="45.16796" lon="5.9746">
        <ele>2539</ele>
        <time>2021-02-27T07:42:26Z</time>
      </trkpt>
      <trkpt lat="45.16796" lon="5.9746">
        <ele>2539.6</ele>
        <time>2021-02-27T07:42:27Z</time>
      </trkpt>
      <trkpt lat="45.16796" lon="5.97463">
        <ele>2540.2</ele>
        <time>2021-02-27T07:42:28Z</time>
      </trkpt>
      <trkpt lat="45.16796" lon="5.97463">
        <ele>2540.4</ele>
        <time>2021-02-27T07:42:29Z</time>
      </trkpt>
      <trkpt lat="45.16796" lon="5.97463">
        <ele>2541</ele>
        <time>2021-02-27T07:42:30Z</time>
      </trkpt>
      <trkpt lat="45.16795" lon="5.97467">
        <ele>2541.4</ele>
        <time>2021-02-27T07:42:31Z</time>
      </trkpt>
      <trkpt lat="45.16795" lon="5.97467">
        <ele>2541.6</ele>
        <time>2021-02-27T07:42:32Z</time>
      </trkpt>
      <trkpt lat="45.16795" lon="5.97467">
        <ele>2542.4</ele>
        <time>2021-02-27T07:42:33Z</time>
      </trkpt>
      <trkpt lat="45.16795" lon="5.97467">
        <ele>2542.8</ele>
        <time>2021-02-27T07:42:34Z</time>
      </trkpt>
      <trkpt lat="45.16795" lon="5.97467">
        <ele>2543.2</ele>
        <time>2021-02-27T07:42:35Z</time>
      </trkpt>
      <trkpt lat="45.16797" lon="5.97469">
        <ele>2543.6</ele>
        <time>2021-02-27T07:42:36Z</time>
      </trkpt>
      <trkpt lat="45.16797" lon="5.97469">
        <ele>2543.6</ele>
        <time>2021-02-27T07:42:37Z</time>
      </trkpt>
      <trkpt lat="45.16798" lon="5.97469">
        <ele>2543.6</ele>
        <time>2021-02-27T07:42:38Z</time>
      </trkpt>
      <trkpt lat="45.16798" lon="5.97469">
        <ele>2544</ele>
        <time>2021-02-27T07:42:39Z</time>
      </trkpt>
      <trkpt lat="45.16799" lon="5.9747">
        <ele>2543.8</ele>
        <time>2021-02-27T07:42:40Z</time>
      </trkpt>
      <trkpt lat="45.168" lon="5.9747">
        <ele>2544</ele>
        <time>2021-02-27T07:42:41Z</time>
      </trkpt>
      <trkpt lat="45.168" lon="5.9747">
        <ele>2544.6</ele>
        <time>2021-02-27T07:42:42Z</time>
      </trkpt>
      <trkpt lat="45.16801" lon="5.97471">
        <ele>2544.8</ele>
        <time>2021-02-27T07:42:43Z</time>
      </trkpt>
      <trkpt lat="45.16802" lon="5.97471">
        <ele>2545.2</ele>
        <time>2021-02-27T07:42:44Z</time>
      </trkpt>
      <trkpt lat="45.16802" lon="5.97471">
        <ele>2545.2</ele>
        <time>2021-02-27T07:42:45Z</time>
      </trkpt>
      <trkpt lat="45.16803" lon="5.97471">
        <ele>2545.4</ele>
        <time>2021-02-27T07:42:46Z</time>
      </trkpt>
      <trkpt lat="45.16804" lon="5.97472">
        <ele>2545.8</ele>
        <time>2021-02-27T07:42:47Z</time>
      </trkpt>
      <trkpt lat="45.16804" lon="5.97472">
        <ele>2545.8</ele>
        <time>2021-02-27T07:42:48Z</time>
      </trkpt>
      <trkpt lat="45.16805" lon="5.97472">
        <ele>2546.2</ele>
        <time>2021-02-27T07:42:49Z</time>
      </trkpt>
      <trkpt lat="45.16806" lon="5.97473">
        <ele>2546</ele>
        <time>2021-02-27T07:42:50Z</time>
      </trkpt>
      <trkpt lat="45.16806" lon="5.97473">
        <ele>2546.4</ele>
        <time>2021-02-27T07:42:51Z</time>
      </trkpt>
      <trkpt lat="45.16807" lon="5.97474">
        <ele>2546.6</ele>
        <time>2021-02-27T07:42:52Z</time>
      </trkpt>
      <trkpt lat="45.16808" lon="5.97474">
        <ele>2546.6</ele>
        <time>2021-02-27T07:42:53Z</time>
      </trkpt>
      <trkpt lat="45.16808" lon="5.97475">
        <ele>2547</ele>
        <time>2021-02-27T07:42:54Z</time>
      </trkpt>
      <trkpt lat="45.16809" lon="5.97475">
        <ele>2547.2</ele>
        <time>2021-02-27T07:42:55Z</time>
      </trkpt>
      <trkpt lat="45.1681" lon="5.97476">
        <ele>2547.2</ele>
        <time>2021-02-27T07:42:56Z</time>
      </trkpt>
      <trkpt lat="45.1681" lon="5.97476">
        <ele>2547</ele>
        <time>2021-02-27T07:42:57Z</time>
      </trkpt>
      <trkpt lat="45.16811" lon="5.97477">
        <ele>2547.2</ele>
        <time>2021-02-27T07:42:58Z</time>
      </trkpt>
      <trkpt lat="45.16812" lon="5.97477">
        <ele>2547.2</ele>
        <time>2021-02-27T07:42:59Z</time>
      </trkpt>
      <trkpt lat="45.16812" lon="5.97478">
        <ele>2547.6</ele>
        <time>2021-02-27T07:43:00Z</time>
      </trkpt>
      <trkpt lat="45.16813" lon="5.97478">
        <ele>2548</ele>
        <time>2021-02-27T07:43:01Z</time>
      </trkpt>
      <trkpt lat="45.16813" lon="5.97478">
        <ele>2548.4</ele>
        <time>2021-02-27T07:43:02Z</time>
      </trkpt>
      <trkpt lat="45.16814" lon="5.97479">
        <ele>2548.8</ele>
        <time>2021-02-27T07:43:03Z</time>
      </trkpt>
      <trkpt lat="45.16814" lon="5.97479">
        <ele>2549.4</ele>
        <time>2021-02-27T07:43:04Z</time>
      </trkpt>
      <trkpt lat="45.16815" lon="5.97482">
        <ele>2550</ele>
        <time>2021-02-27T07:43:05Z</time>
      </trkpt>
      <trkpt lat="45.16815" lon="5.97482">
        <ele>2550.2</ele>
        <time>2021-02-27T07:43:06Z</time>
      </trkpt>
      <trkpt lat="45.16814" lon="5.97486">
        <ele>2550.4</ele>
        <time>2021-02-27T07:43:07Z</time>
      </trkpt>
      <trkpt lat="45.16814" lon="5.97486">
        <ele>2550.4</ele>
        <time>2021-02-27T07:43:08Z</time>
      </trkpt>
      <trkpt lat="45.16815" lon="5.97489">
        <ele>2551</ele>
        <time>2021-02-27T07:43:09Z</time>
      </trkpt>
      <trkpt lat="45.16815" lon="5.97489">
        <ele>2551.2</ele>
        <time>2021-02-27T07:43:10Z</time>
      </trkpt>
      <trkpt lat="45.16814" lon="5.97491">
        <ele>2551.2</ele>
        <time>2021-02-27T07:43:11Z</time>
      </trkpt>
      <trkpt lat="45.16814" lon="5.97491">
        <ele>2551.6</ele>
        <time>2021-02-27T07:43:12Z</time>
      </trkpt>
      <trkpt lat="45.16813" lon="5.97493">
        <ele>2551.6</ele>
        <time>2021-02-27T07:43:13Z</time>
      </trkpt>
      <trkpt lat="45.16813" lon="5.97493">
        <ele>2551.6</ele>
        <time>2021-02-27T07:43:14Z</time>
      </trkpt>
      <trkpt lat="45.16813" lon="5.97493">
        <ele>2552.2</ele>
        <time>2021-02-27T07:43:15Z</time>
      </trkpt>
      <trkpt lat="45.16813" lon="5.97497">
        <ele>2552.4</ele>
        <time>2021-02-27T07:43:16Z</time>
      </trkpt>
      <trkpt lat="45.16813" lon="5.97497">
        <ele>2552.4</ele>
        <time>2021-02-27T07:43:17Z</time>
      </trkpt>
      <trkpt lat="45.16813" lon="5.97497">
        <ele>2552.8</ele>
        <time>2021-02-27T07:43:18Z</time>
      </trkpt>
      <trkpt lat="45.16812" lon="5.975">
        <ele>2552.8</ele>
        <time>2021-02-27T07:43:19Z</time>
      </trkpt>
      <trkpt lat="45.16812" lon="5.975">
        <ele>2552.8</ele>
        <time>2021-02-27T07:43:20Z</time>
      </trkpt>
      <trkpt lat="45.16811" lon="5.97503">
        <ele>2553.6</ele>
        <time>2021-02-27T07:43:21Z</time>
      </trkpt>
      <trkpt lat="45.16811" lon="5.97503">
        <ele>2553.8</ele>
        <time>2021-02-27T07:43:22Z</time>
      </trkpt>
      <trkpt lat="45.16811" lon="5.97503">
        <ele>2554</ele>
        <time>2021-02-27T07:43:23Z</time>
      </trkpt>
      <trkpt lat="45.16809" lon="5.97505">
        <ele>2554.6</ele>
        <time>2021-02-27T07:43:24Z</time>
      </trkpt>
      <trkpt lat="45.16809" lon="5.97505">
        <ele>2555</ele>
        <time>2021-02-27T07:43:25Z</time>
      </trkpt>
      <trkpt lat="45.16809" lon="5.97505">
        <ele>2555</ele>
        <time>2021-02-27T07:43:26Z</time>
      </trkpt>
      <trkpt lat="45.16807" lon="5.97507">
        <ele>2555.6</ele>
        <time>2021-02-27T07:43:27Z</time>
      </trkpt>
      <trkpt lat="45.16807" lon="5.97507">
        <ele>2555.6</ele>
        <time>2021-02-27T07:43:28Z</time>
      </trkpt>
      <trkpt lat="45.16807" lon="5.97507">
        <ele>2556</ele>
        <time>2021-02-27T07:43:29Z</time>
      </trkpt>
      <trkpt lat="45.16805" lon="5.97508">
        <ele>2556.8</ele>
        <time>2021-02-27T07:43:30Z</time>
      </trkpt>
      <trkpt lat="45.16805" lon="5.97508">
        <ele>2557</ele>
        <time>2021-02-27T07:43:31Z</time>
      </trkpt>
      <trkpt lat="45.16805" lon="5.97508">
        <ele>2557.6</ele>
        <time>2021-02-27T07:43:32Z</time>
      </trkpt>
      <trkpt lat="45.16804" lon="5.97511">
        <ele>2557.6</ele>
        <time>2021-02-27T07:43:33Z</time>
      </trkpt>
      <trkpt lat="45.16804" lon="5.97511">
        <ele>2558</ele>
        <time>2021-02-27T07:43:34Z</time>
      </trkpt>
      <trkpt lat="45.16804" lon="5.97511">
        <ele>2558</ele>
        <time>2021-02-27T07:43:35Z</time>
      </trkpt>
      <trkpt lat="45.16804" lon="5.97511">
        <ele>2557.8</ele>
        <time>2021-02-27T07:43:36Z</time>
      </trkpt>
      <trkpt lat="45.16804" lon="5.97511">
        <ele>2558.4</ele>
        <time>2021-02-27T07:43:37Z</time>
      </trkpt>
      <trkpt lat="45.16804" lon="5.97511">
        <ele>2558.6</ele>
        <time>2021-02-27T07:43:38Z</time>
      </trkpt>
      <trkpt lat="45.16804" lon="5.97513">
        <ele>2558.8</ele>
        <time>2021-02-27T07:43:39Z</time>
      </trkpt>
      <trkpt lat="45.16804" lon="5.97513">
        <ele>2559</ele>
        <time>2021-02-27T07:43:40Z</time>
      </trkpt>
      <trkpt lat="45.16804" lon="5.97513">
        <ele>2559</ele>
        <time>2021-02-27T07:43:41Z</time>
      </trkpt>
      <trkpt lat="45.16804" lon="5.97513">
        <ele>2559</ele>
        <time>2021-02-27T07:43:42Z</time>
      </trkpt>
      <trkpt lat="45.16806" lon="5.97514">
        <ele>2559.2</ele>
        <time>2021-02-27T07:43:43Z</time>
      </trkpt>
      <trkpt lat="45.16806" lon="5.97514">
        <ele>2559.6</ele>
        <time>2021-02-27T07:43:44Z</time>
      </trkpt>
      <trkpt lat="45.16806" lon="5.97514">
        <ele>2560</ele>
        <time>2021-02-27T07:43:45Z</time>
      </trkpt>
      <trkpt lat="45.16808" lon="5.97516">
        <ele>2559.8</ele>
        <time>2021-02-27T07:43:46Z</time>
      </trkpt>
      <trkpt lat="45.16808" lon="5.97516">
        <ele>2560.2</ele>
        <time>2021-02-27T07:43:47Z</time>
      </trkpt>
      <trkpt lat="45.16808" lon="5.97516">
        <ele>2560.6</ele>
        <time>2021-02-27T07:43:48Z</time>
      </trkpt>
      <trkpt lat="45.16811" lon="5.97517">
        <ele>2560.8</ele>
        <time>2021-02-27T07:43:49Z</time>
      </trkpt>
      <trkpt lat="45.16811" lon="5.97517">
        <ele>2560.8</ele>
        <time>2021-02-27T07:43:50Z</time>
      </trkpt>
      <trkpt lat="45.16811" lon="5.97517">
        <ele>2561.2</ele>
        <time>2021-02-27T07:43:51Z</time>
      </trkpt>
      <trkpt lat="45.16811" lon="5.97517">
        <ele>2561</ele>
        <time>2021-02-27T07:43:52Z</time>
      </trkpt>
      <trkpt lat="45.16812" lon="5.97519">
        <ele>2561.2</ele>
        <time>2021-02-27T07:43:53Z</time>
      </trkpt>
      <trkpt lat="45.16812" lon="5.97519">
        <ele>2561.2</ele>
        <time>2021-02-27T07:43:54Z</time>
      </trkpt>
      <trkpt lat="45.16812" lon="5.97519">
        <ele>2561.2</ele>
        <time>2021-02-27T07:43:55Z</time>
      </trkpt>
      <trkpt lat="45.16814" lon="5.97522">
        <ele>2561.4</ele>
        <time>2021-02-27T07:43:56Z</time>
      </trkpt>
      <trkpt lat="45.16814" lon="5.97522">
        <ele>2561.6</ele>
        <time>2021-02-27T07:43:57Z</time>
      </trkpt>
      <trkpt lat="45.16814" lon="5.97522">
        <ele>2561.8</ele>
        <time>2021-02-27T07:43:58Z</time>
      </trkpt>
      <trkpt lat="45.16816" lon="5.97524">
        <ele>2562</ele>
        <time>2021-02-27T07:43:59Z</time>
      </trkpt>
      <trkpt lat="45.16816" lon="5.97524">
        <ele>2562.2</ele>
        <time>2021-02-27T07:44:00Z</time>
      </trkpt>
      <trkpt lat="45.16816" lon="5.97524">
        <ele>2562.4</ele>
        <time>2021-02-27T07:44:01Z</time>
      </trkpt>
      <trkpt lat="45.16818" lon="5.97525">
        <ele>2562.6</ele>
        <time>2021-02-27T07:44:02Z</time>
      </trkpt>
      <trkpt lat="45.16818" lon="5.97525">
        <ele>2563.2</ele>
        <time>2021-02-27T07:44:03Z</time>
      </trkpt>
      <trkpt lat="45.16818" lon="5.97525">
        <ele>2563.4</ele>
        <time>2021-02-27T07:44:04Z</time>
      </trkpt>
      <trkpt lat="45.1682" lon="5.97527">
        <ele>2563.8</ele>
        <time>2021-02-27T07:44:05Z</time>
      </trkpt>
      <trkpt lat="45.1682" lon="5.97527">
        <ele>2563.8</ele>
        <time>2021-02-27T07:44:06Z</time>
      </trkpt>
      <trkpt lat="45.1682" lon="5.97527">
        <ele>2564.4</ele>
        <time>2021-02-27T07:44:07Z</time>
      </trkpt>
      <trkpt lat="45.16822" lon="5.97529">
        <ele>2564.4</ele>
        <time>2021-02-27T07:44:08Z</time>
      </trkpt>
      <trkpt lat="45.16822" lon="5.97529">
        <ele>2564.6</ele>
        <time>2021-02-27T07:44:09Z</time>
      </trkpt>
      <trkpt lat="45.16824" lon="5.97531">
        <ele>2564.8</ele>
        <time>2021-02-27T07:44:10Z</time>
      </trkpt>
      <trkpt lat="45.16824" lon="5.97531">
        <ele>2565.2</ele>
        <time>2021-02-27T07:44:11Z</time>
      </trkpt>
      <trkpt lat="45.16826" lon="5.97531">
        <ele>2565.4</ele>
        <time>2021-02-27T07:44:12Z</time>
      </trkpt>
      <trkpt lat="45.16826" lon="5.97531">
        <ele>2565.8</ele>
        <time>2021-02-27T07:44:13Z</time>
      </trkpt>
      <trkpt lat="45.16827" lon="5.97532">
        <ele>2566.2</ele>
        <time>2021-02-27T07:44:14Z</time>
      </trkpt>
      <trkpt lat="45.16828" lon="5.97532">
        <ele>2566.4</ele>
        <time>2021-02-27T07:44:15Z</time>
      </trkpt>
      <trkpt lat="45.16829" lon="5.97533">
        <ele>2566.6</ele>
        <time>2021-02-27T07:44:16Z</time>
      </trkpt>
      <trkpt lat="45.1683" lon="5.97533">
        <ele>2566.8</ele>
        <time>2021-02-27T07:44:17Z</time>
      </trkpt>
      <trkpt lat="45.16832" lon="5.97534">
        <ele>2567.2</ele>
        <time>2021-02-27T07:44:18Z</time>
      </trkpt>
      <trkpt lat="45.16832" lon="5.97534">
        <ele>2568</ele>
        <time>2021-02-27T07:44:19Z</time>
      </trkpt>
      <trkpt lat="45.16832" lon="5.97535">
        <ele>2567.8</ele>
        <time>2021-02-27T07:44:20Z</time>
      </trkpt>
      <trkpt lat="45.16832" lon="5.97537">
        <ele>2568</ele>
        <time>2021-02-27T07:44:21Z</time>
      </trkpt>
      <trkpt lat="45.16832" lon="5.97538">
        <ele>2568.4</ele>
        <time>2021-02-27T07:44:22Z</time>
      </trkpt>
      <trkpt lat="45.16832" lon="5.97539">
        <ele>2568.6</ele>
        <time>2021-02-27T07:44:23Z</time>
      </trkpt>
      <trkpt lat="45.16832" lon="5.9754">
        <ele>2569.2</ele>
        <time>2021-02-27T07:44:24Z</time>
      </trkpt>
      <trkpt lat="45.16832" lon="5.97541">
        <ele>2569.6</ele>
        <time>2021-02-27T07:44:25Z</time>
      </trkpt>
      <trkpt lat="45.16832" lon="5.97542">
        <ele>2569.6</ele>
        <time>2021-02-27T07:44:26Z</time>
      </trkpt>
      <trkpt lat="45.16832" lon="5.97543">
        <ele>2569.6</ele>
        <time>2021-02-27T07:44:27Z</time>
      </trkpt>
      <trkpt lat="45.16832" lon="5.97544">
        <ele>2570</ele>
        <time>2021-02-27T07:44:28Z</time>
      </trkpt>
      <trkpt lat="45.16832" lon="5.97546">
        <ele>2570.2</ele>
        <time>2021-02-27T07:44:29Z</time>
      </trkpt>
      <trkpt lat="45.16832" lon="5.97547">
        <ele>2570.4</ele>
        <time>2021-02-27T07:44:30Z</time>
      </trkpt>
      <trkpt lat="45.16832" lon="5.97548">
        <ele>2570.8</ele>
        <time>2021-02-27T07:44:31Z</time>
      </trkpt>
      <trkpt lat="45.16832" lon="5.9755">
        <ele>2570.8</ele>
        <time>2021-02-27T07:44:32Z</time>
      </trkpt>
      <trkpt lat="45.16832" lon="5.9755">
        <ele>2571</ele>
        <time>2021-02-27T07:44:33Z</time>
      </trkpt>
      <trkpt lat="45.16832" lon="5.9755">
        <ele>2571.4</ele>
        <time>2021-02-27T07:44:34Z</time>
      </trkpt>
      <trkpt lat="45.1683" lon="5.97553">
        <ele>2571.6</ele>
        <time>2021-02-27T07:44:35Z</time>
      </trkpt>
      <trkpt lat="45.1683" lon="5.97553">
        <ele>2571.8</ele>
        <time>2021-02-27T07:44:36Z</time>
      </trkpt>
      <trkpt lat="45.1683" lon="5.97553">
        <ele>2571.6</ele>
        <time>2021-02-27T07:44:37Z</time>
      </trkpt>
      <trkpt lat="45.1683" lon="5.97553">
        <ele>2572</ele>
        <time>2021-02-27T07:44:38Z</time>
      </trkpt>
      <trkpt lat="45.1683" lon="5.97553">
        <ele>2572.6</ele>
        <time>2021-02-27T07:44:39Z</time>
      </trkpt>
      <trkpt lat="45.16829" lon="5.97556">
        <ele>2573</ele>
        <time>2021-02-27T07:44:40Z</time>
      </trkpt>
      <trkpt lat="45.16829" lon="5.97556">
        <ele>2572.8</ele>
        <time>2021-02-27T07:44:41Z</time>
      </trkpt>
      <trkpt lat="45.16829" lon="5.97556">
        <ele>2573.2</ele>
        <time>2021-02-27T07:44:42Z</time>
      </trkpt>
      <trkpt lat="45.16829" lon="5.97559">
        <ele>2573.4</ele>
        <time>2021-02-27T07:44:43Z</time>
      </trkpt>
      <trkpt lat="45.16829" lon="5.97559">
        <ele>2573.4</ele>
        <time>2021-02-27T07:44:44Z</time>
      </trkpt>
      <trkpt lat="45.16828" lon="5.97562">
        <ele>2573.6</ele>
        <time>2021-02-27T07:44:45Z</time>
      </trkpt>
      <trkpt lat="45.16828" lon="5.97562">
        <ele>2573.8</ele>
        <time>2021-02-27T07:44:46Z</time>
      </trkpt>
      <trkpt lat="45.16829" lon="5.97562">
        <ele>2574.4</ele>
        <time>2021-02-27T07:44:47Z</time>
      </trkpt>
      <trkpt lat="45.16829" lon="5.97563">
        <ele>2574.6</ele>
        <time>2021-02-27T07:44:48Z</time>
      </trkpt>
      <trkpt lat="45.16829" lon="5.97563">
        <ele>2574.8</ele>
        <time>2021-02-27T07:44:49Z</time>
      </trkpt>
      <trkpt lat="45.1683" lon="5.97564">
        <ele>2575.2</ele>
        <time>2021-02-27T07:44:50Z</time>
      </trkpt>
      <trkpt lat="45.1683" lon="5.97564">
        <ele>2575.8</ele>
        <time>2021-02-27T07:44:51Z</time>
      </trkpt>
      <trkpt lat="45.16831" lon="5.97565">
        <ele>2575.6</ele>
        <time>2021-02-27T07:44:52Z</time>
      </trkpt>
      <trkpt lat="45.16831" lon="5.97565">
        <ele>2576</ele>
        <time>2021-02-27T07:44:53Z</time>
      </trkpt>
      <trkpt lat="45.16831" lon="5.97566">
        <ele>2576</ele>
        <time>2021-02-27T07:44:54Z</time>
      </trkpt>
      <trkpt lat="45.16832" lon="5.97566">
        <ele>2576.4</ele>
        <time>2021-02-27T07:44:55Z</time>
      </trkpt>
      <trkpt lat="45.16832" lon="5.97567">
        <ele>2576.6</ele>
        <time>2021-02-27T07:44:56Z</time>
      </trkpt>
      <trkpt lat="45.16832" lon="5.97567">
        <ele>2576.6</ele>
        <time>2021-02-27T07:44:57Z</time>
      </trkpt>
      <trkpt lat="45.16833" lon="5.97568">
        <ele>2577</ele>
        <time>2021-02-27T07:44:58Z</time>
      </trkpt>
      <trkpt lat="45.16833" lon="5.97568">
        <ele>2577.4</ele>
        <time>2021-02-27T07:44:59Z</time>
      </trkpt>
      <trkpt lat="45.16834" lon="5.97569">
        <ele>2577.6</ele>
        <time>2021-02-27T07:45:00Z</time>
      </trkpt>
      <trkpt lat="45.16834" lon="5.97569">
        <ele>2577.8</ele>
        <time>2021-02-27T07:45:01Z</time>
      </trkpt>
      <trkpt lat="45.16834" lon="5.9757">
        <ele>2578</ele>
        <time>2021-02-27T07:45:02Z</time>
      </trkpt>
      <trkpt lat="45.16835" lon="5.9757">
        <ele>2578</ele>
        <time>2021-02-27T07:45:03Z</time>
      </trkpt>
      <trkpt lat="45.16835" lon="5.97571">
        <ele>2578.2</ele>
        <time>2021-02-27T07:45:04Z</time>
      </trkpt>
      <trkpt lat="45.16836" lon="5.97571">
        <ele>2578.6</ele>
        <time>2021-02-27T07:45:05Z</time>
      </trkpt>
      <trkpt lat="45.16836" lon="5.97572">
        <ele>2578.6</ele>
        <time>2021-02-27T07:45:06Z</time>
      </trkpt>
      <trkpt lat="45.16837" lon="5.97572">
        <ele>2578.6</ele>
        <time>2021-02-27T07:45:07Z</time>
      </trkpt>
      <trkpt lat="45.16837" lon="5.97573">
        <ele>2578.8</ele>
        <time>2021-02-27T07:45:08Z</time>
      </trkpt>
      <trkpt lat="45.16838" lon="5.97573">
        <ele>2579.2</ele>
        <time>2021-02-27T07:45:09Z</time>
      </trkpt>
      <trkpt lat="45.16839" lon="5.97574">
        <ele>2579.6</ele>
        <time>2021-02-27T07:45:10Z</time>
      </trkpt>
      <trkpt lat="45.16839" lon="5.97574">
        <ele>2579.8</ele>
        <time>2021-02-27T07:45:11Z</time>
      </trkpt>
      <trkpt lat="45.1684" lon="5.97575">
        <ele>2579.8</ele>
        <time>2021-02-27T07:45:12Z</time>
      </trkpt>
      <trkpt lat="45.1684" lon="5.97576">
        <ele>2580.2</ele>
        <time>2021-02-27T07:45:13Z</time>
      </trkpt>
      <trkpt lat="45.16841" lon="5.97576">
        <ele>2580.2</ele>
        <time>2021-02-27T07:45:14Z</time>
      </trkpt>
      <trkpt lat="45.16842" lon="5.97577">
        <ele>2580.8</ele>
        <time>2021-02-27T07:45:15Z</time>
      </trkpt>
      <trkpt lat="45.16842" lon="5.97577">
        <ele>2581.8</ele>
        <time>2021-02-27T07:45:16Z</time>
      </trkpt>
      <trkpt lat="45.16843" lon="5.97578">
        <ele>2582.2</ele>
        <time>2021-02-27T07:45:17Z</time>
      </trkpt>
      <trkpt lat="45.16843" lon="5.97578">
        <ele>2582.4</ele>
        <time>2021-02-27T07:45:18Z</time>
      </trkpt>
      <trkpt lat="45.16843" lon="5.97579">
        <ele>2582.6</ele>
        <time>2021-02-27T07:45:19Z</time>
      </trkpt>
      <trkpt lat="45.16843" lon="5.97581">
        <ele>2583</ele>
        <time>2021-02-27T07:45:20Z</time>
      </trkpt>
      <trkpt lat="45.16843" lon="5.97582">
        <ele>2583.2</ele>
        <time>2021-02-27T07:45:21Z</time>
      </trkpt>
      <trkpt lat="45.16843" lon="5.97583">
        <ele>2583.8</ele>
        <time>2021-02-27T07:45:22Z</time>
      </trkpt>
      <trkpt lat="45.16842" lon="5.97584">
        <ele>2584</ele>
        <time>2021-02-27T07:45:23Z</time>
      </trkpt>
      <trkpt lat="45.16842" lon="5.97586">
        <ele>2584.4</ele>
        <time>2021-02-27T07:45:24Z</time>
      </trkpt>
      <trkpt lat="45.16842" lon="5.97587">
        <ele>2584.2</ele>
        <time>2021-02-27T07:45:25Z</time>
      </trkpt>
      <trkpt lat="45.16842" lon="5.97588">
        <ele>2584.8</ele>
        <time>2021-02-27T07:45:26Z</time>
      </trkpt>
      <trkpt lat="45.16841" lon="5.97589">
        <ele>2585.2</ele>
        <time>2021-02-27T07:45:27Z</time>
      </trkpt>
      <trkpt lat="45.16841" lon="5.97591">
        <ele>2585.2</ele>
        <time>2021-02-27T07:45:28Z</time>
      </trkpt>
      <trkpt lat="45.16841" lon="5.97592">
        <ele>2585.4</ele>
        <time>2021-02-27T07:45:29Z</time>
      </trkpt>
      <trkpt lat="45.16841" lon="5.97592">
        <ele>2585.6</ele>
        <time>2021-02-27T07:45:30Z</time>
      </trkpt>
      <trkpt lat="45.1684" lon="5.97594">
        <ele>2585.8</ele>
        <time>2021-02-27T07:45:31Z</time>
      </trkpt>
      <trkpt lat="45.1684" lon="5.97594">
        <ele>2585.8</ele>
        <time>2021-02-27T07:45:32Z</time>
      </trkpt>
      <trkpt lat="45.1684" lon="5.97594">
        <ele>2586.2</ele>
        <time>2021-02-27T07:45:33Z</time>
      </trkpt>
      <trkpt lat="45.16838" lon="5.97597">
        <ele>2586.4</ele>
        <time>2021-02-27T07:45:34Z</time>
      </trkpt>
      <trkpt lat="45.16838" lon="5.97597">
        <ele>2586.4</ele>
        <time>2021-02-27T07:45:35Z</time>
      </trkpt>
      <trkpt lat="45.16837" lon="5.97598">
        <ele>2587</ele>
        <time>2021-02-27T07:45:36Z</time>
      </trkpt>
      <trkpt lat="45.16837" lon="5.97598">
        <ele>2587.6</ele>
        <time>2021-02-27T07:45:37Z</time>
      </trkpt>
      <trkpt lat="45.16837" lon="5.97598">
        <ele>2588</ele>
        <time>2021-02-27T07:45:38Z</time>
      </trkpt>
      <trkpt lat="45.16837" lon="5.97598">
        <ele>2588</ele>
        <time>2021-02-27T07:45:39Z</time>
      </trkpt>
      <trkpt lat="45.16837" lon="5.97598">
        <ele>2588.4</ele>
        <time>2021-02-27T07:45:40Z</time>
      </trkpt>
      <trkpt lat="45.16837" lon="5.97598">
        <ele>2588.8</ele>
        <time>2021-02-27T07:45:41Z</time>
      </trkpt>
      <trkpt lat="45.16837" lon="5.97598">
        <ele>2589</ele>
        <time>2021-02-27T07:45:42Z</time>
      </trkpt>
      <trkpt lat="45.16837" lon="5.97598">
        <ele>2589</ele>
        <time>2021-02-27T07:45:43Z</time>
      </trkpt>
      <trkpt lat="45.16837" lon="5.97598">
        <ele>2589</ele>
        <time>2021-02-27T07:45:44Z</time>
      </trkpt>
      <trkpt lat="45.16839" lon="5.976">
        <ele>2588.8</ele>
        <time>2021-02-27T07:45:45Z</time>
      </trkpt>
      <trkpt lat="45.16839" lon="5.976">
        <ele>2589</ele>
        <time>2021-02-27T07:45:46Z</time>
      </trkpt>
      <trkpt lat="45.16839" lon="5.976">
        <ele>2589.4</ele>
        <time>2021-02-27T07:45:47Z</time>
      </trkpt>
      <trkpt lat="45.16841" lon="5.97602">
        <ele>2590</ele>
        <time>2021-02-27T07:45:48Z</time>
      </trkpt>
      <trkpt lat="45.16841" lon="5.97602">
        <ele>2590</ele>
        <time>2021-02-27T07:45:49Z</time>
      </trkpt>
      <trkpt lat="45.16842" lon="5.97602">
        <ele>2590.4</ele>
        <time>2021-02-27T07:45:50Z</time>
      </trkpt>
      <trkpt lat="45.16843" lon="5.97602">
        <ele>2590.8</ele>
        <time>2021-02-27T07:45:51Z</time>
      </trkpt>
      <trkpt lat="45.16844" lon="5.97602">
        <ele>2591.4</ele>
        <time>2021-02-27T07:45:52Z</time>
      </trkpt>
      <trkpt lat="45.16844" lon="5.97602">
        <ele>2592.2</ele>
        <time>2021-02-27T07:45:53Z</time>
      </trkpt>
      <trkpt lat="45.16845" lon="5.97602">
        <ele>2592.6</ele>
        <time>2021-02-27T07:45:54Z</time>
      </trkpt>
      <trkpt lat="45.16846" lon="5.97602">
        <ele>2593</ele>
        <time>2021-02-27T07:45:55Z</time>
      </trkpt>
      <trkpt lat="45.16847" lon="5.97602">
        <ele>2593.4</ele>
        <time>2021-02-27T07:45:56Z</time>
      </trkpt>
      <trkpt lat="45.16848" lon="5.97602">
        <ele>2593.4</ele>
        <time>2021-02-27T07:45:57Z</time>
      </trkpt>
      <trkpt lat="45.16849" lon="5.97602">
        <ele>2593.4</ele>
        <time>2021-02-27T07:45:58Z</time>
      </trkpt>
      <trkpt lat="45.16849" lon="5.97602">
        <ele>2593.4</ele>
        <time>2021-02-27T07:45:59Z</time>
      </trkpt>
      <trkpt lat="45.1685" lon="5.97602">
        <ele>2593.4</ele>
        <time>2021-02-27T07:46:00Z</time>
      </trkpt>
      <trkpt lat="45.16851" lon="5.97602">
        <ele>2593.4</ele>
        <time>2021-02-27T07:46:01Z</time>
      </trkpt>
      <trkpt lat="45.16852" lon="5.97601">
        <ele>2593.4</ele>
        <time>2021-02-27T07:46:02Z</time>
      </trkpt>
      <trkpt lat="45.16853" lon="5.97601">
        <ele>2593.4</ele>
        <time>2021-02-27T07:46:03Z</time>
      </trkpt>
      <trkpt lat="45.16854" lon="5.97601">
        <ele>2593.4</ele>
        <time>2021-02-27T07:46:04Z</time>
      </trkpt>
      <trkpt lat="45.16854" lon="5.97601">
        <ele>2593.6</ele>
        <time>2021-02-27T07:46:05Z</time>
      </trkpt>
      <trkpt lat="45.16855" lon="5.976">
        <ele>2593.4</ele>
        <time>2021-02-27T07:46:06Z</time>
      </trkpt>
      <trkpt lat="45.16856" lon="5.976">
        <ele>2593.6</ele>
        <time>2021-02-27T07:46:07Z</time>
      </trkpt>
      <trkpt lat="45.16857" lon="5.976">
        <ele>2593.6</ele>
        <time>2021-02-27T07:46:08Z</time>
      </trkpt>
      <trkpt lat="45.16858" lon="5.976">
        <ele>2593.6</ele>
        <time>2021-02-27T07:46:09Z</time>
      </trkpt>
      <trkpt lat="45.16859" lon="5.97599">
        <ele>2593.8</ele>
        <time>2021-02-27T07:46:10Z</time>
      </trkpt>
      <trkpt lat="45.16859" lon="5.97599">
        <ele>2594.2</ele>
        <time>2021-02-27T07:46:11Z</time>
      </trkpt>
      <trkpt lat="45.1686" lon="5.97599">
        <ele>2594.6</ele>
        <time>2021-02-27T07:46:12Z</time>
      </trkpt>
      <trkpt lat="45.1686" lon="5.97599">
        <ele>2594.8</ele>
        <time>2021-02-27T07:46:13Z</time>
      </trkpt>
      <trkpt lat="45.16861" lon="5.97599">
        <ele>2595</ele>
        <time>2021-02-27T07:46:14Z</time>
      </trkpt>
      <trkpt lat="45.16861" lon="5.97598">
        <ele>2595.2</ele>
        <time>2021-02-27T07:46:15Z</time>
      </trkpt>
      <trkpt lat="45.16862" lon="5.97598">
        <ele>2595.6</ele>
        <time>2021-02-27T07:46:16Z</time>
      </trkpt>
      <trkpt lat="45.16862" lon="5.97598">
        <ele>2595.8</ele>
        <time>2021-02-27T07:46:17Z</time>
      </trkpt>
      <trkpt lat="45.16863" lon="5.97598">
        <ele>2595.8</ele>
        <time>2021-02-27T07:46:18Z</time>
      </trkpt>
      <trkpt lat="45.16863" lon="5.97598">
        <ele>2596.6</ele>
        <time>2021-02-27T07:46:19Z</time>
      </trkpt>
      <trkpt lat="45.16863" lon="5.97598">
        <ele>2596.8</ele>
        <time>2021-02-27T07:46:20Z</time>
      </trkpt>
      <trkpt lat="45.16864" lon="5.97597">
        <ele>2596.4</ele>
        <time>2021-02-27T07:46:21Z</time>
      </trkpt>
      <trkpt lat="45.16864" lon="5.97599">
        <ele>2597</ele>
        <time>2021-02-27T07:46:22Z</time>
      </trkpt>
      <trkpt lat="45.16864" lon="5.976">
        <ele>2597.4</ele>
        <time>2021-02-27T07:46:23Z</time>
      </trkpt>
      <trkpt lat="45.16864" lon="5.97602">
        <ele>2597.4</ele>
        <time>2021-02-27T07:46:24Z</time>
      </trkpt>
      <trkpt lat="45.16863" lon="5.97603">
        <ele>2597.8</ele>
        <time>2021-02-27T07:46:25Z</time>
      </trkpt>
      <trkpt lat="45.16863" lon="5.97604">
        <ele>2597.8</ele>
        <time>2021-02-27T07:46:26Z</time>
      </trkpt>
      <trkpt lat="45.16863" lon="5.97606">
        <ele>2597.6</ele>
        <time>2021-02-27T07:46:27Z</time>
      </trkpt>
      <trkpt lat="45.16863" lon="5.97607">
        <ele>2598</ele>
        <time>2021-02-27T07:46:28Z</time>
      </trkpt>
      <trkpt lat="45.16863" lon="5.97608">
        <ele>2598</ele>
        <time>2021-02-27T07:46:29Z</time>
      </trkpt>
      <trkpt lat="45.16863" lon="5.9761">
        <ele>2598</ele>
        <time>2021-02-27T07:46:30Z</time>
      </trkpt>
      <trkpt lat="45.16863" lon="5.9761">
        <ele>2598.4</ele>
        <time>2021-02-27T07:46:31Z</time>
      </trkpt>
      <trkpt lat="45.16862" lon="5.97614">
        <ele>2598.4</ele>
        <time>2021-02-27T07:46:32Z</time>
      </trkpt>
      <trkpt lat="45.16862" lon="5.97614">
        <ele>2598.4</ele>
        <time>2021-02-27T07:46:33Z</time>
      </trkpt>
      <trkpt lat="45.16862" lon="5.97614">
        <ele>2598.6</ele>
        <time>2021-02-27T07:46:34Z</time>
      </trkpt>
      <trkpt lat="45.16862" lon="5.97618">
        <ele>2598.6</ele>
        <time>2021-02-27T07:46:35Z</time>
      </trkpt>
      <trkpt lat="45.16862" lon="5.97618">
        <ele>2598.8</ele>
        <time>2021-02-27T07:46:36Z</time>
      </trkpt>
      <trkpt lat="45.16861" lon="5.97619">
        <ele>2599.4</ele>
        <time>2021-02-27T07:46:37Z</time>
      </trkpt>
      <trkpt lat="45.16861" lon="5.9762">
        <ele>2599.2</ele>
        <time>2021-02-27T07:46:38Z</time>
      </trkpt>
      <trkpt lat="45.1686" lon="5.97621">
        <ele>2599.8</ele>
        <time>2021-02-27T07:46:39Z</time>
      </trkpt>
      <trkpt lat="45.1686" lon="5.97623">
        <ele>2600</ele>
        <time>2021-02-27T07:46:40Z</time>
      </trkpt>
      <trkpt lat="45.1686" lon="5.97624">
        <ele>2600</ele>
        <time>2021-02-27T07:46:41Z</time>
      </trkpt>
      <trkpt lat="45.16859" lon="5.97625">
        <ele>2601</ele>
        <time>2021-02-27T07:46:42Z</time>
      </trkpt>
      <trkpt lat="45.16859" lon="5.97626">
        <ele>2600.8</ele>
        <time>2021-02-27T07:46:43Z</time>
      </trkpt>
      <trkpt lat="45.16858" lon="5.97629">
        <ele>2600.8</ele>
        <time>2021-02-27T07:46:44Z</time>
      </trkpt>
      <trkpt lat="45.16858" lon="5.97629">
        <ele>2601.2</ele>
        <time>2021-02-27T07:46:45Z</time>
      </trkpt>
      <trkpt lat="45.16857" lon="5.97631">
        <ele>2600.8</ele>
        <time>2021-02-27T07:46:46Z</time>
      </trkpt>
      <trkpt lat="45.16857" lon="5.97631">
        <ele>2601</ele>
        <time>2021-02-27T07:46:47Z</time>
      </trkpt>
      <trkpt lat="45.16856" lon="5.97632">
        <ele>2601.2</ele>
        <time>2021-02-27T07:46:48Z</time>
      </trkpt>
      <trkpt lat="45.16855" lon="5.97634">
        <ele>2601.8</ele>
        <time>2021-02-27T07:46:49Z</time>
      </trkpt>
      <trkpt lat="45.16855" lon="5.97635">
        <ele>2602</ele>
        <time>2021-02-27T07:46:50Z</time>
      </trkpt>
      <trkpt lat="45.16854" lon="5.97636">
        <ele>2602</ele>
        <time>2021-02-27T07:46:51Z</time>
      </trkpt>
      <trkpt lat="45.16853" lon="5.97637">
        <ele>2602.8</ele>
        <time>2021-02-27T07:46:52Z</time>
      </trkpt>
      <trkpt lat="45.16853" lon="5.97638">
        <ele>2603</ele>
        <time>2021-02-27T07:46:53Z</time>
      </trkpt>
      <trkpt lat="45.16852" lon="5.97638">
        <ele>2603.2</ele>
        <time>2021-02-27T07:46:54Z</time>
      </trkpt>
      <trkpt lat="45.16851" lon="5.97639">
        <ele>2604</ele>
        <time>2021-02-27T07:46:55Z</time>
      </trkpt>
      <trkpt lat="45.16851" lon="5.97639">
        <ele>2604.2</ele>
        <time>2021-02-27T07:46:56Z</time>
      </trkpt>
      <trkpt lat="45.1685" lon="5.97639">
        <ele>2604.8</ele>
        <time>2021-02-27T07:46:57Z</time>
      </trkpt>
      <trkpt lat="45.16849" lon="5.9764">
        <ele>2605</ele>
        <time>2021-02-27T07:46:58Z</time>
      </trkpt>
      <trkpt lat="45.16849" lon="5.9764">
        <ele>2605</ele>
        <time>2021-02-27T07:46:59Z</time>
      </trkpt>
      <trkpt lat="45.16849" lon="5.9764">
        <ele>2605</ele>
        <time>2021-02-27T07:47:00Z</time>
      </trkpt>
      <trkpt lat="45.16849" lon="5.9764">
        <ele>2605.2</ele>
        <time>2021-02-27T07:47:01Z</time>
      </trkpt>
      <trkpt lat="45.16852" lon="5.9764">
        <ele>2605.6</ele>
        <time>2021-02-27T07:47:02Z</time>
      </trkpt>
      <trkpt lat="45.16852" lon="5.9764">
        <ele>2605.6</ele>
        <time>2021-02-27T07:47:03Z</time>
      </trkpt>
      <trkpt lat="45.16852" lon="5.9764">
        <ele>2605.8</ele>
        <time>2021-02-27T07:47:04Z</time>
      </trkpt>
      <trkpt lat="45.16854" lon="5.9764">
        <ele>2606.2</ele>
        <time>2021-02-27T07:47:05Z</time>
      </trkpt>
      <trkpt lat="45.16854" lon="5.9764">
        <ele>2606.2</ele>
        <time>2021-02-27T07:47:06Z</time>
      </trkpt>
      <trkpt lat="45.16854" lon="5.9764">
        <ele>2606.6</ele>
        <time>2021-02-27T07:47:07Z</time>
      </trkpt>
      <trkpt lat="45.16856" lon="5.97638">
        <ele>2607</ele>
        <time>2021-02-27T07:47:08Z</time>
      </trkpt>
      <trkpt lat="45.16856" lon="5.97638">
        <ele>2607</ele>
        <time>2021-02-27T07:47:09Z</time>
      </trkpt>
      <trkpt lat="45.16856" lon="5.97638">
        <ele>2607.4</ele>
        <time>2021-02-27T07:47:10Z</time>
      </trkpt>
      <trkpt lat="45.16858" lon="5.97637">
        <ele>2607.6</ele>
        <time>2021-02-27T07:47:11Z</time>
      </trkpt>
      <trkpt lat="45.16858" lon="5.97637">
        <ele>2607.8</ele>
        <time>2021-02-27T07:47:12Z</time>
      </trkpt>
      <trkpt lat="45.16859" lon="5.97636">
        <ele>2608</ele>
        <time>2021-02-27T07:47:13Z</time>
      </trkpt>
      <trkpt lat="45.1686" lon="5.97635">
        <ele>2608</ele>
        <time>2021-02-27T07:47:14Z</time>
      </trkpt>
      <trkpt lat="45.16861" lon="5.97635">
        <ele>2608.4</ele>
        <time>2021-02-27T07:47:15Z</time>
      </trkpt>
      <trkpt lat="45.16862" lon="5.97634">
        <ele>2608.4</ele>
        <time>2021-02-27T07:47:16Z</time>
      </trkpt>
      <trkpt lat="45.16863" lon="5.97633">
        <ele>2608.6</ele>
        <time>2021-02-27T07:47:17Z</time>
      </trkpt>
      <trkpt lat="45.16865" lon="5.97632">
        <ele>2608.6</ele>
        <time>2021-02-27T07:47:18Z</time>
      </trkpt>
      <trkpt lat="45.16865" lon="5.97632">
        <ele>2608.8</ele>
        <time>2021-02-27T07:47:19Z</time>
      </trkpt>
      <trkpt lat="45.16866" lon="5.97631">
        <ele>2608.8</ele>
        <time>2021-02-27T07:47:20Z</time>
      </trkpt>
      <trkpt lat="45.16866" lon="5.97631">
        <ele>2609</ele>
        <time>2021-02-27T07:47:21Z</time>
      </trkpt>
      <trkpt lat="45.16866" lon="5.97631">
        <ele>2609</ele>
        <time>2021-02-27T07:47:22Z</time>
      </trkpt>
      <trkpt lat="45.16868" lon="5.97628">
        <ele>2609.2</ele>
        <time>2021-02-27T07:47:23Z</time>
      </trkpt>
      <trkpt lat="45.16868" lon="5.97628">
        <ele>2609.6</ele>
        <time>2021-02-27T07:47:24Z</time>
      </trkpt>
      <trkpt lat="45.16869" lon="5.97627">
        <ele>2609.8</ele>
        <time>2021-02-27T07:47:25Z</time>
      </trkpt>
      <trkpt lat="45.1687" lon="5.97627">
        <ele>2610</ele>
        <time>2021-02-27T07:47:26Z</time>
      </trkpt>
      <trkpt lat="45.16871" lon="5.97626">
        <ele>2610.2</ele>
        <time>2021-02-27T07:47:27Z</time>
      </trkpt>
      <trkpt lat="45.16872" lon="5.97625">
        <ele>2610.4</ele>
        <time>2021-02-27T07:47:28Z</time>
      </trkpt>
      <trkpt lat="45.16873" lon="5.97624">
        <ele>2610.4</ele>
        <time>2021-02-27T07:47:29Z</time>
      </trkpt>
      <trkpt lat="45.16874" lon="5.97624">
        <ele>2611</ele>
        <time>2021-02-27T07:47:30Z</time>
      </trkpt>
      <trkpt lat="45.16875" lon="5.97623">
        <ele>2611.2</ele>
        <time>2021-02-27T07:47:31Z</time>
      </trkpt>
      <trkpt lat="45.16876" lon="5.97622">
        <ele>2611.2</ele>
        <time>2021-02-27T07:47:32Z</time>
      </trkpt>
      <trkpt lat="45.16877" lon="5.97622">
        <ele>2610.8</ele>
        <time>2021-02-27T07:47:33Z</time>
      </trkpt>
      <trkpt lat="45.16878" lon="5.97619">
        <ele>2611</ele>
        <time>2021-02-27T07:47:34Z</time>
      </trkpt>
      <trkpt lat="45.16878" lon="5.97619">
        <ele>2611.2</ele>
        <time>2021-02-27T07:47:35Z</time>
      </trkpt>
      <trkpt lat="45.16878" lon="5.97619">
        <ele>2611.6</ele>
        <time>2021-02-27T07:47:36Z</time>
      </trkpt>
      <trkpt lat="45.16878" lon="5.97619">
        <ele>2612</ele>
        <time>2021-02-27T07:47:37Z</time>
      </trkpt>
      <trkpt lat="45.16882" lon="5.97617">
        <ele>2612.4</ele>
        <time>2021-02-27T07:47:38Z</time>
      </trkpt>
      <trkpt lat="45.16882" lon="5.97617">
        <ele>2613</ele>
        <time>2021-02-27T07:47:39Z</time>
      </trkpt>
      <trkpt lat="45.16882" lon="5.97616">
        <ele>2613.6</ele>
        <time>2021-02-27T07:47:40Z</time>
      </trkpt>
      <trkpt lat="45.16883" lon="5.97616">
        <ele>2614.2</ele>
        <time>2021-02-27T07:47:41Z</time>
      </trkpt>
      <trkpt lat="45.16884" lon="5.97615">
        <ele>2614.6</ele>
        <time>2021-02-27T07:47:42Z</time>
      </trkpt>
      <trkpt lat="45.16885" lon="5.97614">
        <ele>2615</ele>
        <time>2021-02-27T07:47:43Z</time>
      </trkpt>
      <trkpt lat="45.16886" lon="5.97613">
        <ele>2615.4</ele>
        <time>2021-02-27T07:47:44Z</time>
      </trkpt>
      <trkpt lat="45.16886" lon="5.97612">
        <ele>2615.8</ele>
        <time>2021-02-27T07:47:45Z</time>
      </trkpt>
      <trkpt lat="45.16887" lon="5.97612">
        <ele>2616.6</ele>
        <time>2021-02-27T07:47:46Z</time>
      </trkpt>
      <trkpt lat="45.16888" lon="5.97611">
        <ele>2617.6</ele>
        <time>2021-02-27T07:47:47Z</time>
      </trkpt>
      <trkpt lat="45.16889" lon="5.9761">
        <ele>2618.6</ele>
        <time>2021-02-27T07:47:48Z</time>
      </trkpt>
      <trkpt lat="45.1689" lon="5.97609">
        <ele>2619.8</ele>
        <time>2021-02-27T07:47:49Z</time>
      </trkpt>
      <trkpt lat="45.16891" lon="5.97607">
        <ele>2620.6</ele>
        <time>2021-02-27T07:47:50Z</time>
      </trkpt>
      <trkpt lat="45.16891" lon="5.97607">
        <ele>2620.4</ele>
        <time>2021-02-27T07:47:51Z</time>
      </trkpt>
      <trkpt lat="45.16892" lon="5.97606">
        <ele>2619.8</ele>
        <time>2021-02-27T07:47:52Z</time>
      </trkpt>
      <trkpt lat="45.16893" lon="5.97605">
        <ele>2620</ele>
        <time>2021-02-27T07:47:53Z</time>
      </trkpt>
      <trkpt lat="45.16894" lon="5.97604">
        <ele>2619.4</ele>
        <time>2021-02-27T07:47:54Z</time>
      </trkpt>
      <trkpt lat="45.16894" lon="5.97603">
        <ele>2618.8</ele>
        <time>2021-02-27T07:47:55Z</time>
      </trkpt>
      <trkpt lat="45.16895" lon="5.97602">
        <ele>2618.2</ele>
        <time>2021-02-27T07:47:56Z</time>
      </trkpt>
      <trkpt lat="45.16896" lon="5.97601">
        <ele>2617.6</ele>
        <time>2021-02-27T07:47:57Z</time>
      </trkpt>
      <trkpt lat="45.16897" lon="5.976">
        <ele>2617.6</ele>
        <time>2021-02-27T07:47:58Z</time>
      </trkpt>
      <trkpt lat="45.16897" lon="5.97599">
        <ele>2617.2</ele>
        <time>2021-02-27T07:47:59Z</time>
      </trkpt>
      <trkpt lat="45.16898" lon="5.97597">
        <ele>2617.2</ele>
        <time>2021-02-27T07:48:00Z</time>
      </trkpt>
      <trkpt lat="45.16899" lon="5.97597">
        <ele>2617</ele>
        <time>2021-02-27T07:48:01Z</time>
      </trkpt>
      <trkpt lat="45.16899" lon="5.97596">
        <ele>2617.2</ele>
        <time>2021-02-27T07:48:02Z</time>
      </trkpt>
      <trkpt lat="45.169" lon="5.97596">
        <ele>2617.4</ele>
        <time>2021-02-27T07:48:03Z</time>
      </trkpt>
      <trkpt lat="45.16901" lon="5.97595">
        <ele>2617.6</ele>
        <time>2021-02-27T07:48:04Z</time>
      </trkpt>
      <trkpt lat="45.16901" lon="5.97595">
        <ele>2617.4</ele>
        <time>2021-02-27T07:48:05Z</time>
      </trkpt>
      <trkpt lat="45.16902" lon="5.97594">
        <ele>2617.6</ele>
        <time>2021-02-27T07:48:06Z</time>
      </trkpt>
      <trkpt lat="45.16902" lon="5.97594">
        <ele>2617.6</ele>
        <time>2021-02-27T07:48:07Z</time>
      </trkpt>
      <trkpt lat="45.16903" lon="5.97593">
        <ele>2617.8</ele>
        <time>2021-02-27T07:48:08Z</time>
      </trkpt>
      <trkpt lat="45.16904" lon="5.97593">
        <ele>2617.8</ele>
        <time>2021-02-27T07:48:09Z</time>
      </trkpt>
      <trkpt lat="45.16904" lon="5.97596">
        <ele>2618.8</ele>
        <time>2021-02-27T07:48:10Z</time>
      </trkpt>
      <trkpt lat="45.16904" lon="5.97596">
        <ele>2619.4</ele>
        <time>2021-02-27T07:48:11Z</time>
      </trkpt>
      <trkpt lat="45.16905" lon="5.97599">
        <ele>2619.2</ele>
        <time>2021-02-27T07:48:12Z</time>
      </trkpt>
      <trkpt lat="45.16905" lon="5.97599">
        <ele>2620</ele>
        <time>2021-02-27T07:48:13Z</time>
      </trkpt>
      <trkpt lat="45.16906" lon="5.97601">
        <ele>2620</ele>
        <time>2021-02-27T07:48:14Z</time>
      </trkpt>
      <trkpt lat="45.16906" lon="5.97601">
        <ele>2620</ele>
        <time>2021-02-27T07:48:15Z</time>
      </trkpt>
      <trkpt lat="45.16907" lon="5.97602">
        <ele>2620.8</ele>
        <time>2021-02-27T07:48:16Z</time>
      </trkpt>
      <trkpt lat="45.16907" lon="5.97603">
        <ele>2620.8</ele>
        <time>2021-02-27T07:48:17Z</time>
      </trkpt>
      <trkpt lat="45.16907" lon="5.97604">
        <ele>2621</ele>
        <time>2021-02-27T07:48:18Z</time>
      </trkpt>
      <trkpt lat="45.16908" lon="5.97604">
        <ele>2622.2</ele>
        <time>2021-02-27T07:48:19Z</time>
      </trkpt>
      <trkpt lat="45.16908" lon="5.97605">
        <ele>2622.4</ele>
        <time>2021-02-27T07:48:20Z</time>
      </trkpt>
      <trkpt lat="45.16908" lon="5.97606">
        <ele>2622.6</ele>
        <time>2021-02-27T07:48:21Z</time>
      </trkpt>
      <trkpt lat="45.16908" lon="5.97608">
        <ele>2623.6</ele>
        <time>2021-02-27T07:48:22Z</time>
      </trkpt>
      <trkpt lat="45.16908" lon="5.9761">
        <ele>2623.6</ele>
        <time>2021-02-27T07:48:23Z</time>
      </trkpt>
      <trkpt lat="45.16908" lon="5.97611">
        <ele>2623.4</ele>
        <time>2021-02-27T07:48:24Z</time>
      </trkpt>
      <trkpt lat="45.16908" lon="5.97613">
        <ele>2623.8</ele>
        <time>2021-02-27T07:48:25Z</time>
      </trkpt>
      <trkpt lat="45.16908" lon="5.97615">
        <ele>2624</ele>
        <time>2021-02-27T07:48:26Z</time>
      </trkpt>
      <trkpt lat="45.16908" lon="5.97616">
        <ele>2623.8</ele>
        <time>2021-02-27T07:48:27Z</time>
      </trkpt>
      <trkpt lat="45.16908" lon="5.97618">
        <ele>2624.4</ele>
        <time>2021-02-27T07:48:28Z</time>
      </trkpt>
      <trkpt lat="45.16908" lon="5.9762">
        <ele>2624.4</ele>
        <time>2021-02-27T07:48:29Z</time>
      </trkpt>
      <trkpt lat="45.16908" lon="5.9762">
        <ele>2624.4</ele>
        <time>2021-02-27T07:48:30Z</time>
      </trkpt>
      <trkpt lat="45.16908" lon="5.97624">
        <ele>2625.4</ele>
        <time>2021-02-27T07:48:31Z</time>
      </trkpt>
      <trkpt lat="45.16908" lon="5.97624">
        <ele>2625.6</ele>
        <time>2021-02-27T07:48:32Z</time>
      </trkpt>
      <trkpt lat="45.16908" lon="5.97625">
        <ele>2626.2</ele>
        <time>2021-02-27T07:48:33Z</time>
      </trkpt>
      <trkpt lat="45.16907" lon="5.97626">
        <ele>2626.4</ele>
        <time>2021-02-27T07:48:34Z</time>
      </trkpt>
      <trkpt lat="45.16907" lon="5.97627">
        <ele>2626.8</ele>
        <time>2021-02-27T07:48:35Z</time>
      </trkpt>
      <trkpt lat="45.16907" lon="5.97628">
        <ele>2627.2</ele>
        <time>2021-02-27T07:48:36Z</time>
      </trkpt>
      <trkpt lat="45.16907" lon="5.97629">
        <ele>2627.4</ele>
        <time>2021-02-27T07:48:37Z</time>
      </trkpt>
      <trkpt lat="45.16906" lon="5.9763">
        <ele>2627.6</ele>
        <time>2021-02-27T07:48:38Z</time>
      </trkpt>
      <trkpt lat="45.16906" lon="5.97631">
        <ele>2627.4</ele>
        <time>2021-02-27T07:48:39Z</time>
      </trkpt>
      <trkpt lat="45.16906" lon="5.97632">
        <ele>2628.2</ele>
        <time>2021-02-27T07:48:40Z</time>
      </trkpt>
      <trkpt lat="45.16906" lon="5.97633">
        <ele>2628.4</ele>
        <time>2021-02-27T07:48:41Z</time>
      </trkpt>
      <trkpt lat="45.16905" lon="5.97634">
        <ele>2628.6</ele>
        <time>2021-02-27T07:48:42Z</time>
      </trkpt>
      <trkpt lat="45.16905" lon="5.97634">
        <ele>2629</ele>
        <time>2021-02-27T07:48:43Z</time>
      </trkpt>
      <trkpt lat="45.16905" lon="5.97634">
        <ele>2629.6</ele>
        <time>2021-02-27T07:48:44Z</time>
      </trkpt>
      <trkpt lat="45.16905" lon="5.97634">
        <ele>2629.8</ele>
        <time>2021-02-27T07:48:45Z</time>
      </trkpt>
      <trkpt lat="45.16903" lon="5.97639">
        <ele>2630.2</ele>
        <time>2021-02-27T07:48:46Z</time>
      </trkpt>
      <trkpt lat="45.16903" lon="5.97639">
        <ele>2630.8</ele>
        <time>2021-02-27T07:48:47Z</time>
      </trkpt>
      <trkpt lat="45.16904" lon="5.97638">
        <ele>2631.2</ele>
        <time>2021-02-27T07:48:48Z</time>
      </trkpt>
      <trkpt lat="45.16905" lon="5.97638">
        <ele>2631.8</ele>
        <time>2021-02-27T07:48:49Z</time>
      </trkpt>
      <trkpt lat="45.16905" lon="5.97638">
        <ele>2632.2</ele>
        <time>2021-02-27T07:48:50Z</time>
      </trkpt>
      <trkpt lat="45.16906" lon="5.97638">
        <ele>2632.6</ele>
        <time>2021-02-27T07:48:51Z</time>
      </trkpt>
      <trkpt lat="45.16906" lon="5.97638">
        <ele>2633.4</ele>
        <time>2021-02-27T07:48:52Z</time>
      </trkpt>
      <trkpt lat="45.16907" lon="5.97638">
        <ele>2633.4</ele>
        <time>2021-02-27T07:48:53Z</time>
      </trkpt>
      <trkpt lat="45.16907" lon="5.97637">
        <ele>2633.8</ele>
        <time>2021-02-27T07:48:54Z</time>
      </trkpt>
      <trkpt lat="45.16908" lon="5.97637">
        <ele>2634.4</ele>
        <time>2021-02-27T07:48:55Z</time>
      </trkpt>
      <trkpt lat="45.16909" lon="5.97637">
        <ele>2634.6</ele>
        <time>2021-02-27T07:48:56Z</time>
      </trkpt>
      <trkpt lat="45.16909" lon="5.97637">
        <ele>2635</ele>
        <time>2021-02-27T07:48:57Z</time>
      </trkpt>
      <trkpt lat="45.1691" lon="5.97637">
        <ele>2635.4</ele>
        <time>2021-02-27T07:48:58Z</time>
      </trkpt>
      <trkpt lat="45.1691" lon="5.97637">
        <ele>2635</ele>
        <time>2021-02-27T07:48:59Z</time>
      </trkpt>
      <trkpt lat="45.16911" lon="5.97636">
        <ele>2635.4</ele>
        <time>2021-02-27T07:49:00Z</time>
      </trkpt>
      <trkpt lat="45.16911" lon="5.97636">
        <ele>2635.8</ele>
        <time>2021-02-27T07:49:01Z</time>
      </trkpt>
      <trkpt lat="45.16912" lon="5.97636">
        <ele>2635.8</ele>
        <time>2021-02-27T07:49:02Z</time>
      </trkpt>
      <trkpt lat="45.16913" lon="5.97636">
        <ele>2636</ele>
        <time>2021-02-27T07:49:03Z</time>
      </trkpt>
      <trkpt lat="45.16913" lon="5.97635">
        <ele>2636.4</ele>
        <time>2021-02-27T07:49:04Z</time>
      </trkpt>
      <trkpt lat="45.16914" lon="5.97635">
        <ele>2636</ele>
        <time>2021-02-27T07:49:05Z</time>
      </trkpt>
      <trkpt lat="45.16914" lon="5.97634">
        <ele>2636</ele>
        <time>2021-02-27T07:49:06Z</time>
      </trkpt>
      <trkpt lat="45.16915" lon="5.97633">
        <ele>2636.8</ele>
        <time>2021-02-27T07:49:07Z</time>
      </trkpt>
      <trkpt lat="45.16916" lon="5.97633">
        <ele>2636.8</ele>
        <time>2021-02-27T07:49:08Z</time>
      </trkpt>
      <trkpt lat="45.16916" lon="5.97632">
        <ele>2637</ele>
        <time>2021-02-27T07:49:09Z</time>
      </trkpt>
      <trkpt lat="45.16917" lon="5.97632">
        <ele>2636.8</ele>
        <time>2021-02-27T07:49:10Z</time>
      </trkpt>
      <trkpt lat="45.16917" lon="5.97631">
        <ele>2636.8</ele>
        <time>2021-02-27T07:49:11Z</time>
      </trkpt>
      <trkpt lat="45.16918" lon="5.97631">
        <ele>2636.8</ele>
        <time>2021-02-27T07:49:12Z</time>
      </trkpt>
      <trkpt lat="45.16918" lon="5.97631">
        <ele>2637</ele>
        <time>2021-02-27T07:49:13Z</time>
      </trkpt>
      <trkpt lat="45.16918" lon="5.97631">
        <ele>2637.2</ele>
        <time>2021-02-27T07:49:14Z</time>
      </trkpt>
      <trkpt lat="45.1692" lon="5.97631">
        <ele>2636.8</ele>
        <time>2021-02-27T07:49:15Z</time>
      </trkpt>
      <trkpt lat="45.1692" lon="5.97631">
        <ele>2637.2</ele>
        <time>2021-02-27T07:49:16Z</time>
      </trkpt>
      <trkpt lat="45.1692" lon="5.97634">
        <ele>2637.4</ele>
        <time>2021-02-27T07:49:17Z</time>
      </trkpt>
      <trkpt lat="45.1692" lon="5.97634">
        <ele>2637.8</ele>
        <time>2021-02-27T07:49:18Z</time>
      </trkpt>
      <trkpt lat="45.1692" lon="5.97637">
        <ele>2637.8</ele>
        <time>2021-02-27T07:49:19Z</time>
      </trkpt>
      <trkpt lat="45.1692" lon="5.97637">
        <ele>2637.8</ele>
        <time>2021-02-27T07:49:20Z</time>
      </trkpt>
      <trkpt lat="45.16921" lon="5.97639">
        <ele>2638.4</ele>
        <time>2021-02-27T07:49:21Z</time>
      </trkpt>
      <trkpt lat="45.16921" lon="5.97639">
        <ele>2638.6</ele>
        <time>2021-02-27T07:49:22Z</time>
      </trkpt>
      <trkpt lat="45.16922" lon="5.97642">
        <ele>2638.8</ele>
        <time>2021-02-27T07:49:23Z</time>
      </trkpt>
      <trkpt lat="45.16922" lon="5.97642">
        <ele>2639.4</ele>
        <time>2021-02-27T07:49:24Z</time>
      </trkpt>
      <trkpt lat="45.16922" lon="5.97642">
        <ele>2639.4</ele>
        <time>2021-02-27T07:49:25Z</time>
      </trkpt>
      <trkpt lat="45.16922" lon="5.97645">
        <ele>2639.8</ele>
        <time>2021-02-27T07:49:26Z</time>
      </trkpt>
      <trkpt lat="45.16922" lon="5.97645">
        <ele>2640.8</ele>
        <time>2021-02-27T07:49:27Z</time>
      </trkpt>
      <trkpt lat="45.16922" lon="5.97645">
        <ele>2641.2</ele>
        <time>2021-02-27T07:49:28Z</time>
      </trkpt>
      <trkpt lat="45.16922" lon="5.97645">
        <ele>2641.4</ele>
        <time>2021-02-27T07:49:29Z</time>
      </trkpt>
      <trkpt lat="45.16922" lon="5.97645">
        <ele>2642.2</ele>
        <time>2021-02-27T07:49:30Z</time>
      </trkpt>
      <trkpt lat="45.16922" lon="5.97645">
        <ele>2642.8</ele>
        <time>2021-02-27T07:49:31Z</time>
      </trkpt>
      <trkpt lat="45.16922" lon="5.97645">
        <ele>2643.4</ele>
        <time>2021-02-27T07:49:32Z</time>
      </trkpt>
      <trkpt lat="45.16922" lon="5.97645">
        <ele>2643.2</ele>
        <time>2021-02-27T07:49:33Z</time>
      </trkpt>
      <trkpt lat="45.16922" lon="5.97645">
        <ele>2643.4</ele>
        <time>2021-02-27T07:49:34Z</time>
      </trkpt>
      <trkpt lat="45.16924" lon="5.97644">
        <ele>2643.8</ele>
        <time>2021-02-27T07:49:35Z</time>
      </trkpt>
      <trkpt lat="45.16924" lon="5.97644">
        <ele>2644.2</ele>
        <time>2021-02-27T07:49:36Z</time>
      </trkpt>
      <trkpt lat="45.16924" lon="5.97644">
        <ele>2644.6</ele>
        <time>2021-02-27T07:49:37Z</time>
      </trkpt>
      <trkpt lat="45.16926" lon="5.97641">
        <ele>2644.8</ele>
        <time>2021-02-27T07:49:38Z</time>
      </trkpt>
      <trkpt lat="45.16926" lon="5.97641">
        <ele>2645.4</ele>
        <time>2021-02-27T07:49:39Z</time>
      </trkpt>
      <trkpt lat="45.16926" lon="5.97641">
        <ele>2645.6</ele>
        <time>2021-02-27T07:49:40Z</time>
      </trkpt>
      <trkpt lat="45.16928" lon="5.97639">
        <ele>2645.6</ele>
        <time>2021-02-27T07:49:41Z</time>
      </trkpt>
      <trkpt lat="45.16928" lon="5.97639">
        <ele>2646</ele>
        <time>2021-02-27T07:49:42Z</time>
      </trkpt>
      <trkpt lat="45.16928" lon="5.97639">
        <ele>2645.8</ele>
        <time>2021-02-27T07:49:43Z</time>
      </trkpt>
      <trkpt lat="45.16928" lon="5.97639">
        <ele>2646.4</ele>
        <time>2021-02-27T07:49:44Z</time>
      </trkpt>
      <trkpt lat="45.16929" lon="5.9764">
        <ele>2646.8</ele>
        <time>2021-02-27T07:49:45Z</time>
      </trkpt>
      <trkpt lat="45.16929" lon="5.9764">
        <ele>2647.6</ele>
        <time>2021-02-27T07:49:46Z</time>
      </trkpt>
      <trkpt lat="45.16929" lon="5.9764">
        <ele>2647.6</ele>
        <time>2021-02-27T07:49:47Z</time>
      </trkpt>
      <trkpt lat="45.1693" lon="5.97643">
        <ele>2646.8</ele>
        <time>2021-02-27T07:49:48Z</time>
      </trkpt>
      <trkpt lat="45.1693" lon="5.97643">
        <ele>2647</ele>
        <time>2021-02-27T07:49:49Z</time>
      </trkpt>
      <trkpt lat="45.1693" lon="5.97643">
        <ele>2647</ele>
        <time>2021-02-27T07:49:50Z</time>
      </trkpt>
      <trkpt lat="45.1693" lon="5.97647">
        <ele>2647</ele>
        <time>2021-02-27T07:49:51Z</time>
      </trkpt>
      <trkpt lat="45.1693" lon="5.97647">
        <ele>2647.2</ele>
        <time>2021-02-27T07:49:52Z</time>
      </trkpt>
      <trkpt lat="45.1693" lon="5.97647">
        <ele>2647</ele>
        <time>2021-02-27T07:49:53Z</time>
      </trkpt>
      <trkpt lat="45.1693" lon="5.97651">
        <ele>2647</ele>
        <time>2021-02-27T07:49:54Z</time>
      </trkpt>
      <trkpt lat="45.1693" lon="5.97651">
        <ele>2648.2</ele>
        <time>2021-02-27T07:49:55Z</time>
      </trkpt>
      <trkpt lat="45.1693" lon="5.97654">
        <ele>2648.4</ele>
        <time>2021-02-27T07:49:56Z</time>
      </trkpt>
      <trkpt lat="45.1693" lon="5.97654">
        <ele>2648.4</ele>
        <time>2021-02-27T07:49:57Z</time>
      </trkpt>
      <trkpt lat="45.1693" lon="5.97657">
        <ele>2648.2</ele>
        <time>2021-02-27T07:49:58Z</time>
      </trkpt>
      <trkpt lat="45.1693" lon="5.97657">
        <ele>2648.8</ele>
        <time>2021-02-27T07:49:59Z</time>
      </trkpt>
      <trkpt lat="45.1693" lon="5.97657">
        <ele>2649.4</ele>
        <time>2021-02-27T07:50:00Z</time>
      </trkpt>
      <trkpt lat="45.16931" lon="5.9766">
        <ele>2649.6</ele>
        <time>2021-02-27T07:50:01Z</time>
      </trkpt>
      <trkpt lat="45.16931" lon="5.9766">
        <ele>2651.2</ele>
        <time>2021-02-27T07:50:02Z</time>
      </trkpt>
      <trkpt lat="45.16931" lon="5.9766">
        <ele>2651</ele>
        <time>2021-02-27T07:50:03Z</time>
      </trkpt>
      <trkpt lat="45.16931" lon="5.97663">
        <ele>2651</ele>
        <time>2021-02-27T07:50:04Z</time>
      </trkpt>
      <trkpt lat="45.16931" lon="5.97663">
        <ele>2651.6</ele>
        <time>2021-02-27T07:50:05Z</time>
      </trkpt>
      <trkpt lat="45.16931" lon="5.97666">
        <ele>2651.4</ele>
        <time>2021-02-27T07:50:06Z</time>
      </trkpt>
      <trkpt lat="45.16931" lon="5.97666">
        <ele>2651</ele>
        <time>2021-02-27T07:50:07Z</time>
      </trkpt>
      <trkpt lat="45.16931" lon="5.97666">
        <ele>2651.8</ele>
        <time>2021-02-27T07:50:08Z</time>
      </trkpt>
      <trkpt lat="45.16931" lon="5.97666">
        <ele>2652.2</ele>
        <time>2021-02-27T07:50:09Z</time>
      </trkpt>
      <trkpt lat="45.16931" lon="5.97669">
        <ele>2652.2</ele>
        <time>2021-02-27T07:50:10Z</time>
      </trkpt>
      <trkpt lat="45.16931" lon="5.97669">
        <ele>2653</ele>
        <time>2021-02-27T07:50:11Z</time>
      </trkpt>
      <trkpt lat="45.16931" lon="5.97669">
        <ele>2652.6</ele>
        <time>2021-02-27T07:50:12Z</time>
      </trkpt>
      <trkpt lat="45.16931" lon="5.97669">
        <ele>2652.4</ele>
        <time>2021-02-27T07:50:13Z</time>
      </trkpt>
      <trkpt lat="45.16932" lon="5.97671">
        <ele>2652.2</ele>
        <time>2021-02-27T07:50:14Z</time>
      </trkpt>
      <trkpt lat="45.16932" lon="5.97671">
        <ele>2652.6</ele>
        <time>2021-02-27T07:50:15Z</time>
      </trkpt>
      <trkpt lat="45.16932" lon="5.97671">
        <ele>2652.8</ele>
        <time>2021-02-27T07:50:16Z</time>
      </trkpt>
      <trkpt lat="45.16933" lon="5.97673">
        <ele>2653.6</ele>
        <time>2021-02-27T07:50:17Z</time>
      </trkpt>
      <trkpt lat="45.16933" lon="5.97673">
        <ele>2653.6</ele>
        <time>2021-02-27T07:50:18Z</time>
      </trkpt>
      <trkpt lat="45.16933" lon="5.97673">
        <ele>2654.4</ele>
        <time>2021-02-27T07:50:19Z</time>
      </trkpt>
      <trkpt lat="45.16934" lon="5.97675">
        <ele>2655.2</ele>
        <time>2021-02-27T07:50:20Z</time>
      </trkpt>
      <trkpt lat="45.16934" lon="5.97675">
        <ele>2655.6</ele>
        <time>2021-02-27T07:50:21Z</time>
      </trkpt>
      <trkpt lat="45.16934" lon="5.97675">
        <ele>2656.4</ele>
        <time>2021-02-27T07:50:22Z</time>
      </trkpt>
      <trkpt lat="45.16935" lon="5.97678">
        <ele>2656.8</ele>
        <time>2021-02-27T07:50:23Z</time>
      </trkpt>
      <trkpt lat="45.16935" lon="5.97678">
        <ele>2656.8</ele>
        <time>2021-02-27T07:50:24Z</time>
      </trkpt>
      <trkpt lat="45.16936" lon="5.97681">
        <ele>2658</ele>
        <time>2021-02-27T07:50:25Z</time>
      </trkpt>
      <trkpt lat="45.16936" lon="5.97681">
        <ele>2657</ele>
        <time>2021-02-27T07:50:26Z</time>
      </trkpt>
      <trkpt lat="45.16936" lon="5.97684">
        <ele>2657.2</ele>
        <time>2021-02-27T07:50:27Z</time>
      </trkpt>
      <trkpt lat="45.16936" lon="5.97684">
        <ele>2658.4</ele>
        <time>2021-02-27T07:50:28Z</time>
      </trkpt>
      <trkpt lat="45.16937" lon="5.97687">
        <ele>2658.8</ele>
        <time>2021-02-27T07:50:29Z</time>
      </trkpt>
      <trkpt lat="45.16937" lon="5.97687">
        <ele>2658</ele>
        <time>2021-02-27T07:50:30Z</time>
      </trkpt>
      <trkpt lat="45.16938" lon="5.97691">
        <ele>2658.6</ele>
        <time>2021-02-27T07:50:31Z</time>
      </trkpt>
      <trkpt lat="45.16938" lon="5.97691">
        <ele>2658</ele>
        <time>2021-02-27T07:50:32Z</time>
      </trkpt>
      <trkpt lat="45.16938" lon="5.97695">
        <ele>2658.2</ele>
        <time>2021-02-27T07:50:33Z</time>
      </trkpt>
      <trkpt lat="45.16938" lon="5.97695">
        <ele>2658.4</ele>
        <time>2021-02-27T07:50:34Z</time>
      </trkpt>
      <trkpt lat="45.16939" lon="5.97699">
        <ele>2659.2</ele>
        <time>2021-02-27T07:50:35Z</time>
      </trkpt>
      <trkpt lat="45.16939" lon="5.97699">
        <ele>2659.6</ele>
        <time>2021-02-27T07:50:36Z</time>
      </trkpt>
      <trkpt lat="45.16941" lon="5.97701">
        <ele>2658.8</ele>
        <time>2021-02-27T07:50:37Z</time>
      </trkpt>
      <trkpt lat="45.16941" lon="5.97701">
        <ele>2657.6</ele>
        <time>2021-02-27T07:50:38Z</time>
      </trkpt>
      <trkpt lat="45.16941" lon="5.97701">
        <ele>2657.2</ele>
        <time>2021-02-27T07:50:39Z</time>
      </trkpt>
      <trkpt lat="45.16943" lon="5.97703">
        <ele>2656.6</ele>
        <time>2021-02-27T07:50:40Z</time>
      </trkpt>
      <trkpt lat="45.16943" lon="5.97703">
        <ele>2656.4</ele>
        <time>2021-02-27T07:50:41Z</time>
      </trkpt>
      <trkpt lat="45.16943" lon="5.97703">
        <ele>2656.4</ele>
        <time>2021-02-27T07:50:42Z</time>
      </trkpt>
      <trkpt lat="45.16943" lon="5.97703">
        <ele>2655.4</ele>
        <time>2021-02-27T07:50:43Z</time>
      </trkpt>
      <trkpt lat="45.16943" lon="5.97703">
        <ele>2655</ele>
        <time>2021-02-27T07:50:44Z</time>
      </trkpt>
      <trkpt lat="45.16943" lon="5.97703">
        <ele>2655</ele>
        <time>2021-02-27T07:50:45Z</time>
      </trkpt>
      <trkpt lat="45.16943" lon="5.97703">
        <ele>2654.4</ele>
        <time>2021-02-27T07:50:46Z</time>
      </trkpt>
      <trkpt lat="45.16943" lon="5.97703">
        <ele>2653.6</ele>
        <time>2021-02-27T07:50:47Z</time>
      </trkpt>
      <trkpt lat="45.16943" lon="5.97703">
        <ele>2653.4</ele>
        <time>2021-02-27T07:50:48Z</time>
      </trkpt>
      <trkpt lat="45.16943" lon="5.97703">
        <ele>2653.2</ele>
        <time>2021-02-27T07:50:49Z</time>
      </trkpt>
      <trkpt lat="45.16943" lon="5.97703">
        <ele>2653.2</ele>
        <time>2021-02-27T07:50:50Z</time>
      </trkpt>
      <trkpt lat="45.16943" lon="5.97703">
        <ele>2653</ele>
        <time>2021-02-27T07:50:51Z</time>
      </trkpt>
      <trkpt lat="45.16944" lon="5.97702">
        <ele>2653.4</ele>
        <time>2021-02-27T07:50:52Z</time>
      </trkpt>
      <trkpt lat="45.16944" lon="5.97702">
        <ele>2653.8</ele>
        <time>2021-02-27T07:50:53Z</time>
      </trkpt>
      <trkpt lat="45.16944" lon="5.97702">
        <ele>2654.2</ele>
        <time>2021-02-27T07:50:54Z</time>
      </trkpt>
      <trkpt lat="45.16944" lon="5.97702">
        <ele>2655.2</ele>
        <time>2021-02-27T07:50:55Z</time>
      </trkpt>
      <trkpt lat="45.16944" lon="5.97702">
        <ele>2655.4</ele>
        <time>2021-02-27T07:50:56Z</time>
      </trkpt>
      <trkpt lat="45.16944" lon="5.97702">
        <ele>2655.4</ele>
        <time>2021-02-27T07:50:57Z</time>
      </trkpt>
      <trkpt lat="45.16944" lon="5.97702">
        <ele>2655.8</ele>
        <time>2021-02-27T07:50:58Z</time>
      </trkpt>
      <trkpt lat="45.16944" lon="5.97702">
        <ele>2656</ele>
        <time>2021-02-27T07:50:59Z</time>
      </trkpt>
      <trkpt lat="45.16944" lon="5.97702">
        <ele>2655.8</ele>
        <time>2021-02-27T07:51:00Z</time>
      </trkpt>
      <trkpt lat="45.16944" lon="5.97702">
        <ele>2656</ele>
        <time>2021-02-27T07:51:01Z</time>
      </trkpt>
      <trkpt lat="45.16944" lon="5.97702">
        <ele>2656</ele>
        <time>2021-02-27T07:51:02Z</time>
      </trkpt>
      <trkpt lat="45.16944" lon="5.97702">
        <ele>2656</ele>
        <time>2021-02-27T07:51:03Z</time>
      </trkpt>
      <trkpt lat="45.16944" lon="5.97702">
        <ele>2656</ele>
        <time>2021-02-27T07:51:04Z</time>
      </trkpt>
      <trkpt lat="45.16944" lon="5.97702">
        <ele>2655.8</ele>
        <time>2021-02-27T07:51:05Z</time>
      </trkpt>
      <trkpt lat="45.16944" lon="5.97702">
        <ele>2655.4</ele>
        <time>2021-02-27T07:51:06Z</time>
      </trkpt>
      <trkpt lat="45.16944" lon="5.97702">
        <ele>2655.2</ele>
        <time>2021-02-27T07:51:07Z</time>
      </trkpt>
      <trkpt lat="45.16944" lon="5.97702">
        <ele>2654.6</ele>
        <time>2021-02-27T07:51:08Z</time>
      </trkpt>
      <trkpt lat="45.16944" lon="5.97702">
        <ele>2655.4</ele>
        <time>2021-02-27T07:51:09Z</time>
      </trkpt>
      <trkpt lat="45.16944" lon="5.97702">
        <ele>2656</ele>
        <time>2021-02-27T07:51:10Z</time>
      </trkpt>
      <trkpt lat="45.16944" lon="5.97702">
        <ele>2656</ele>
        <time>2021-02-27T07:51:11Z</time>
      </trkpt>
      <trkpt lat="45.16944" lon="5.97702">
        <ele>2656.4</ele>
        <time>2021-02-27T07:51:12Z</time>
      </trkpt>
      <trkpt lat="45.16944" lon="5.97702">
        <ele>2656.6</ele>
        <time>2021-02-27T07:51:13Z</time>
      </trkpt>
      <trkpt lat="45.16946" lon="5.97703">
        <ele>2656.8</ele>
        <time>2021-02-27T07:51:14Z</time>
      </trkpt>
      <trkpt lat="45.16946" lon="5.97703">
        <ele>2656.6</ele>
        <time>2021-02-27T07:51:15Z</time>
      </trkpt>
      <trkpt lat="45.16946" lon="5.97703">
        <ele>2656.4</ele>
        <time>2021-02-27T07:51:16Z</time>
      </trkpt>
      <trkpt lat="45.16946" lon="5.97703">
        <ele>2656.4</ele>
        <time>2021-02-27T07:51:17Z</time>
      </trkpt>
      <trkpt lat="45.16946" lon="5.97703">
        <ele>2656.6</ele>
        <time>2021-02-27T07:51:18Z</time>
      </trkpt>
      <trkpt lat="45.16946" lon="5.97703">
        <ele>2656.4</ele>
        <time>2021-02-27T07:51:19Z</time>
      </trkpt>
      <trkpt lat="45.16946" lon="5.97703">
        <ele>2656.6</ele>
        <time>2021-02-27T07:51:20Z</time>
      </trkpt>
      <trkpt lat="45.16946" lon="5.97703">
        <ele>2656.8</ele>
        <time>2021-02-27T07:51:21Z</time>
      </trkpt>
      <trkpt lat="45.16946" lon="5.97703">
        <ele>2656.8</ele>
        <time>2021-02-27T07:51:22Z</time>
      </trkpt>
      <trkpt lat="45.16946" lon="5.97703">
        <ele>2656.8</ele>
        <time>2021-02-27T07:51:23Z</time>
      </trkpt>
      <trkpt lat="45.16946" lon="5.97703">
        <ele>2656.4</ele>
        <time>2021-02-27T07:51:24Z</time>
      </trkpt>
      <trkpt lat="45.16946" lon="5.97703">
        <ele>2656.4</ele>
        <time>2021-02-27T07:51:25Z</time>
      </trkpt>
      <trkpt lat="45.16948" lon="5.97702">
        <ele>2656.2</ele>
        <time>2021-02-27T07:51:26Z</time>
      </trkpt>
      <trkpt lat="45.16948" lon="5.97702">
        <ele>2656</ele>
        <time>2021-02-27T07:51:27Z</time>
      </trkpt>
      <trkpt lat="45.16948" lon="5.97702">
        <ele>2656</ele>
        <time>2021-02-27T07:51:28Z</time>
      </trkpt>
      <trkpt lat="45.16948" lon="5.97702">
        <ele>2655.8</ele>
        <time>2021-02-27T07:51:29Z</time>
      </trkpt>
      <trkpt lat="45.16948" lon="5.97702">
        <ele>2655.2</ele>
        <time>2021-02-27T07:51:30Z</time>
      </trkpt>
      <trkpt lat="45.16948" lon="5.97706">
        <ele>2654.4</ele>
        <time>2021-02-27T07:51:31Z</time>
      </trkpt>
      <trkpt lat="45.16948" lon="5.97706">
        <ele>2654.2</ele>
        <time>2021-02-27T07:51:32Z</time>
      </trkpt>
      <trkpt lat="45.16949" lon="5.9771">
        <ele>2653.8</ele>
        <time>2021-02-27T07:51:33Z</time>
      </trkpt>
      <trkpt lat="45.1695" lon="5.97713">
        <ele>2653.6</ele>
        <time>2021-02-27T07:51:34Z</time>
      </trkpt>
      <trkpt lat="45.16952" lon="5.97717">
        <ele>2653</ele>
        <time>2021-02-27T07:51:35Z</time>
      </trkpt>
      <trkpt lat="45.16954" lon="5.97721">
        <ele>2653.2</ele>
        <time>2021-02-27T07:51:36Z</time>
      </trkpt>
      <trkpt lat="45.16955" lon="5.97726">
        <ele>2653.8</ele>
        <time>2021-02-27T07:51:37Z</time>
      </trkpt>
      <trkpt lat="45.16957" lon="5.97731">
        <ele>2653.4</ele>
        <time>2021-02-27T07:51:38Z</time>
      </trkpt>
      <trkpt lat="45.16958" lon="5.97737">
        <ele>2652.6</ele>
        <time>2021-02-27T07:51:39Z</time>
      </trkpt>
      <trkpt lat="45.16959" lon="5.97743">
        <ele>2651.6</ele>
        <time>2021-02-27T07:51:40Z</time>
      </trkpt>
      <trkpt lat="45.1696" lon="5.97748">
        <ele>2651</ele>
        <time>2021-02-27T07:51:41Z</time>
      </trkpt>
      <trkpt lat="45.16962" lon="5.97753">
        <ele>2651</ele>
        <time>2021-02-27T07:51:42Z</time>
      </trkpt>
      <trkpt lat="45.16963" lon="5.97757">
        <ele>2651</ele>
        <time>2021-02-27T07:51:43Z</time>
      </trkpt>
      <trkpt lat="45.16963" lon="5.97757">
        <ele>2651</ele>
        <time>2021-02-27T07:51:44Z</time>
      </trkpt>
      <trkpt lat="45.16966" lon="5.97764">
        <ele>2650.2</ele>
        <time>2021-02-27T07:51:45Z</time>
      </trkpt>
      <trkpt lat="45.16966" lon="5.97764">
        <ele>2651.4</ele>
        <time>2021-02-27T07:51:46Z</time>
      </trkpt>
      <trkpt lat="45.16968" lon="5.97767">
        <ele>2651.2</ele>
        <time>2021-02-27T07:51:47Z</time>
      </trkpt>
      <trkpt lat="45.16969" lon="5.97771">
        <ele>2651.2</ele>
        <time>2021-02-27T07:51:48Z</time>
      </trkpt>
      <trkpt lat="45.1697" lon="5.97774">
        <ele>2650.6</ele>
        <time>2021-02-27T07:51:49Z</time>
      </trkpt>
      <trkpt lat="45.16972" lon="5.97777">
        <ele>2651.2</ele>
        <time>2021-02-27T07:51:50Z</time>
      </trkpt>
      <trkpt lat="45.16973" lon="5.9778">
        <ele>2651.8</ele>
        <time>2021-02-27T07:51:51Z</time>
      </trkpt>
      <trkpt lat="45.16974" lon="5.97784">
        <ele>2651.2</ele>
        <time>2021-02-27T07:51:52Z</time>
      </trkpt>
      <trkpt lat="45.16975" lon="5.97787">
        <ele>2651.6</ele>
        <time>2021-02-27T07:51:53Z</time>
      </trkpt>
      <trkpt lat="45.16976" lon="5.9779">
        <ele>2652.4</ele>
        <time>2021-02-27T07:51:54Z</time>
      </trkpt>
      <trkpt lat="45.16977" lon="5.97792">
        <ele>2652.2</ele>
        <time>2021-02-27T07:51:55Z</time>
      </trkpt>
      <trkpt lat="45.16978" lon="5.97795">
        <ele>2652</ele>
        <time>2021-02-27T07:51:56Z</time>
      </trkpt>
      <trkpt lat="45.16979" lon="5.97798">
        <ele>2652.2</ele>
        <time>2021-02-27T07:51:57Z</time>
      </trkpt>
      <trkpt lat="45.16979" lon="5.978">
        <ele>2652.6</ele>
        <time>2021-02-27T07:51:58Z</time>
      </trkpt>
      <trkpt lat="45.1698" lon="5.97803">
        <ele>2652.8</ele>
        <time>2021-02-27T07:51:59Z</time>
      </trkpt>
      <trkpt lat="45.16981" lon="5.97806">
        <ele>2652.6</ele>
        <time>2021-02-27T07:52:00Z</time>
      </trkpt>
      <trkpt lat="45.16982" lon="5.97809">
        <ele>2652.6</ele>
        <time>2021-02-27T07:52:01Z</time>
      </trkpt>
      <trkpt lat="45.16983" lon="5.97813">
        <ele>2653.2</ele>
        <time>2021-02-27T07:52:02Z</time>
      </trkpt>
      <trkpt lat="45.16984" lon="5.97816">
        <ele>2652.8</ele>
        <time>2021-02-27T07:52:03Z</time>
      </trkpt>
      <trkpt lat="45.16984" lon="5.97819">
        <ele>2653.2</ele>
        <time>2021-02-27T07:52:04Z</time>
      </trkpt>
      <trkpt lat="45.16985" lon="5.97823">
        <ele>2652.8</ele>
        <time>2021-02-27T07:52:05Z</time>
      </trkpt>
      <trkpt lat="45.16985" lon="5.97823">
        <ele>2652.8</ele>
        <time>2021-02-27T07:52:06Z</time>
      </trkpt>
      <trkpt lat="45.16985" lon="5.97832">
        <ele>2652.2</ele>
        <time>2021-02-27T07:52:07Z</time>
      </trkpt>
      <trkpt lat="45.16984" lon="5.97834">
        <ele>2652.4</ele>
        <time>2021-02-27T07:52:08Z</time>
      </trkpt>
      <trkpt lat="45.16983" lon="5.97837">
        <ele>2652.2</ele>
        <time>2021-02-27T07:52:09Z</time>
      </trkpt>
      <trkpt lat="45.16982" lon="5.97839">
        <ele>2651.6</ele>
        <time>2021-02-27T07:52:10Z</time>
      </trkpt>
      <trkpt lat="45.16981" lon="5.97843">
        <ele>2651</ele>
        <time>2021-02-27T07:52:11Z</time>
      </trkpt>
      <trkpt lat="45.16981" lon="5.97843">
        <ele>2650.4</ele>
        <time>2021-02-27T07:52:12Z</time>
      </trkpt>
      <trkpt lat="45.16977" lon="5.97851">
        <ele>2649.8</ele>
        <time>2021-02-27T07:52:13Z</time>
      </trkpt>
      <trkpt lat="45.16977" lon="5.97851">
        <ele>2649.2</ele>
        <time>2021-02-27T07:52:14Z</time>
      </trkpt>
      <trkpt lat="45.1697" lon="5.97867">
        <ele>2648.8</ele>
        <time>2021-02-27T07:52:15Z</time>
      </trkpt>
      <trkpt lat="45.16968" lon="5.97869">
        <ele>2647.6</ele>
        <time>2021-02-27T07:52:16Z</time>
      </trkpt>
      <trkpt lat="45.16964" lon="5.97875">
        <ele>2646</ele>
        <time>2021-02-27T07:52:17Z</time>
      </trkpt>
      <trkpt lat="45.16964" lon="5.97875">
        <ele>2644.8</ele>
        <time>2021-02-27T07:52:18Z</time>
      </trkpt>
      <trkpt lat="45.16963" lon="5.97887">
        <ele>2644.4</ele>
        <time>2021-02-27T07:52:19Z</time>
      </trkpt>
      <trkpt lat="45.16964" lon="5.97889">
        <ele>2643.6</ele>
        <time>2021-02-27T07:52:20Z</time>
      </trkpt>
      <trkpt lat="45.16964" lon="5.97889">
        <ele>2643.6</ele>
        <time>2021-02-27T07:52:21Z</time>
      </trkpt>
      <trkpt lat="45.16977" lon="5.97895">
        <ele>2642.4</ele>
        <time>2021-02-27T07:52:22Z</time>
      </trkpt>
      <trkpt lat="45.16978" lon="5.97899">
        <ele>2641.2</ele>
        <time>2021-02-27T07:52:23Z</time>
      </trkpt>
      <trkpt lat="45.1698" lon="5.9791">
        <ele>2639.6</ele>
        <time>2021-02-27T07:52:24Z</time>
      </trkpt>
      <trkpt lat="45.1698" lon="5.97914">
        <ele>2637.6</ele>
        <time>2021-02-27T07:52:25Z</time>
      </trkpt>
      <trkpt lat="45.16981" lon="5.97921">
        <ele>2635.4</ele>
        <time>2021-02-27T07:52:26Z</time>
      </trkpt>
      <trkpt lat="45.16981" lon="5.97921">
        <ele>2634.6</ele>
        <time>2021-02-27T07:52:27Z</time>
      </trkpt>
      <trkpt lat="45.16989" lon="5.97931">
        <ele>2633</ele>
        <time>2021-02-27T07:52:28Z</time>
      </trkpt>
      <trkpt lat="45.16988" lon="5.97949">
        <ele>2629.4</ele>
        <time>2021-02-27T07:52:30Z</time>
      </trkpt>
      <trkpt lat="45.16988" lon="5.97949">
        <ele>2627</ele>
        <time>2021-02-27T07:52:31Z</time>
      </trkpt>
      <trkpt lat="45.16986" lon="5.97966">
        <ele>2624.4</ele>
        <time>2021-02-27T07:52:32Z</time>
      </trkpt>
      <trkpt lat="45.16986" lon="5.97969">
        <ele>2622.4</ele>
        <time>2021-02-27T07:52:33Z</time>
      </trkpt>
      <trkpt lat="45.16986" lon="5.97969">
        <ele>2620.8</ele>
        <time>2021-02-27T07:52:34Z</time>
      </trkpt>
      <trkpt lat="45.16994" lon="5.97986">
        <ele>2618.6</ele>
        <time>2021-02-27T07:52:35Z</time>
      </trkpt>
      <trkpt lat="45.16994" lon="5.97989">
        <ele>2616.8</ele>
        <time>2021-02-27T07:52:36Z</time>
      </trkpt>
      <trkpt lat="45.16995" lon="5.97996">
        <ele>2614.6</ele>
        <time>2021-02-27T07:52:37Z</time>
      </trkpt>
      <trkpt lat="45.16995" lon="5.97996">
        <ele>2612</ele>
        <time>2021-02-27T07:52:38Z</time>
      </trkpt>
      <trkpt lat="45.16996" lon="5.98001">
        <ele>2609.8</ele>
        <time>2021-02-27T07:52:39Z</time>
      </trkpt>
      <trkpt lat="45.16997" lon="5.98005">
        <ele>2609.4</ele>
        <time>2021-02-27T07:52:40Z</time>
      </trkpt>
      <trkpt lat="45.16998" lon="5.9801">
        <ele>2608</ele>
        <time>2021-02-27T07:52:41Z</time>
      </trkpt>
      <trkpt lat="45.17008" lon="5.98023">
        <ele>2606</ele>
        <time>2021-02-27T07:52:42Z</time>
      </trkpt>
      <trkpt lat="45.17007" lon="5.98028">
        <ele>2604</ele>
        <time>2021-02-27T07:52:43Z</time>
      </trkpt>
      <trkpt lat="45.17006" lon="5.98037">
        <ele>2601</ele>
        <time>2021-02-27T07:52:44Z</time>
      </trkpt>
      <trkpt lat="45.17004" lon="5.98044">
        <ele>2597.8</ele>
        <time>2021-02-27T07:52:45Z</time>
      </trkpt>
      <trkpt lat="45.17003" lon="5.98049">
        <ele>2595</ele>
        <time>2021-02-27T07:52:46Z</time>
      </trkpt>
      <trkpt lat="45.17003" lon="5.98049">
        <ele>2593.6</ele>
        <time>2021-02-27T07:52:47Z</time>
      </trkpt>
      <trkpt lat="45.17012" lon="5.98054">
        <ele>2592</ele>
        <time>2021-02-27T07:52:48Z</time>
      </trkpt>
      <trkpt lat="45.17012" lon="5.98054">
        <ele>2590.2</ele>
        <time>2021-02-27T07:52:49Z</time>
      </trkpt>
      <trkpt lat="45.17019" lon="5.9807">
        <ele>2588.4</ele>
        <time>2021-02-27T07:52:50Z</time>
      </trkpt>
      <trkpt lat="45.17019" lon="5.98073">
        <ele>2585.6</ele>
        <time>2021-02-27T07:52:51Z</time>
      </trkpt>
      <trkpt lat="45.17018" lon="5.9808">
        <ele>2582.6</ele>
        <time>2021-02-27T07:52:52Z</time>
      </trkpt>
      <trkpt lat="45.17018" lon="5.9808">
        <ele>2580</ele>
        <time>2021-02-27T07:52:53Z</time>
      </trkpt>
      <trkpt lat="45.17028" lon="5.98094">
        <ele>2578</ele>
        <time>2021-02-27T07:52:55Z</time>
      </trkpt>
      <trkpt lat="45.17027" lon="5.98098">
        <ele>2575.8</ele>
        <time>2021-02-27T07:52:56Z</time>
      </trkpt>
      <trkpt lat="45.17026" lon="5.98104">
        <ele>2573.2</ele>
        <time>2021-02-27T07:52:57Z</time>
      </trkpt>
      <trkpt lat="45.17026" lon="5.98104">
        <ele>2570.6</ele>
        <time>2021-02-27T07:52:58Z</time>
      </trkpt>
      <trkpt lat="45.17028" lon="5.98108">
        <ele>2568.8</ele>
        <time>2021-02-27T07:52:59Z</time>
      </trkpt>
      <trkpt lat="45.17029" lon="5.98111">
        <ele>2568</ele>
        <time>2021-02-27T07:53:00Z</time>
      </trkpt>
      <trkpt lat="45.17031" lon="5.98115">
        <ele>2566.4</ele>
        <time>2021-02-27T07:53:01Z</time>
      </trkpt>
      <trkpt lat="45.17038" lon="5.9813">
        <ele>2564.4</ele>
        <time>2021-02-27T07:53:02Z</time>
      </trkpt>
      <trkpt lat="45.17039" lon="5.98134">
        <ele>2562.2</ele>
        <time>2021-02-27T07:53:03Z</time>
      </trkpt>
      <trkpt lat="45.17043" lon="5.98144">
        <ele>2560.6</ele>
        <time>2021-02-27T07:53:04Z</time>
      </trkpt>
      <trkpt lat="45.17045" lon="5.98146">
        <ele>2558.8</ele>
        <time>2021-02-27T07:53:05Z</time>
      </trkpt>
      <trkpt lat="45.17049" lon="5.98155">
        <ele>2556.6</ele>
        <time>2021-02-27T07:53:06Z</time>
      </trkpt>
      <trkpt lat="45.17049" lon="5.9816">
        <ele>2554.4</ele>
        <time>2021-02-27T07:53:07Z</time>
      </trkpt>
      <trkpt lat="45.17047" lon="5.98175">
        <ele>2551.8</ele>
        <time>2021-02-27T07:53:08Z</time>
      </trkpt>
      <trkpt lat="45.17045" lon="5.9818">
        <ele>2549.4</ele>
        <time>2021-02-27T07:53:09Z</time>
      </trkpt>
      <trkpt lat="45.1704" lon="5.98196">
        <ele>2547.6</ele>
        <time>2021-02-27T07:53:10Z</time>
      </trkpt>
      <trkpt lat="45.17039" lon="5.98201">
        <ele>2545.6</ele>
        <time>2021-02-27T07:53:11Z</time>
      </trkpt>
      <trkpt lat="45.17036" lon="5.9821">
        <ele>2544.4</ele>
        <time>2021-02-27T07:53:12Z</time>
      </trkpt>
      <trkpt lat="45.17036" lon="5.9821">
        <ele>2542.6</ele>
        <time>2021-02-27T07:53:13Z</time>
      </trkpt>
      <trkpt lat="45.17036" lon="5.98214">
        <ele>2541.8</ele>
        <time>2021-02-27T07:53:14Z</time>
      </trkpt>
      <trkpt lat="45.17037" lon="5.98218">
        <ele>2541.2</ele>
        <time>2021-02-27T07:53:15Z</time>
      </trkpt>
      <trkpt lat="45.17037" lon="5.98223">
        <ele>2540.6</ele>
        <time>2021-02-27T07:53:16Z</time>
      </trkpt>
      <trkpt lat="45.17037" lon="5.98227">
        <ele>2539.4</ele>
        <time>2021-02-27T07:53:17Z</time>
      </trkpt>
      <trkpt lat="45.17037" lon="5.98227">
        <ele>2538.2</ele>
        <time>2021-02-27T07:53:18Z</time>
      </trkpt>
      <trkpt lat="45.17037" lon="5.9824">
        <ele>2537.4</ele>
        <time>2021-02-27T07:53:19Z</time>
      </trkpt>
      <trkpt lat="45.17037" lon="5.98243">
        <ele>2536.6</ele>
        <time>2021-02-27T07:53:20Z</time>
      </trkpt>
      <trkpt lat="45.17037" lon="5.98249">
        <ele>2536</ele>
        <time>2021-02-27T07:53:21Z</time>
      </trkpt>
      <trkpt lat="45.17038" lon="5.98253">
        <ele>2535</ele>
        <time>2021-02-27T07:53:22Z</time>
      </trkpt>
      <trkpt lat="45.17039" lon="5.98259">
        <ele>2534.2</ele>
        <time>2021-02-27T07:53:23Z</time>
      </trkpt>
      <trkpt lat="45.17042" lon="5.98266">
        <ele>2533.2</ele>
        <time>2021-02-27T07:53:24Z</time>
      </trkpt>
      <trkpt lat="45.17045" lon="5.98275">
        <ele>2532</ele>
        <time>2021-02-27T07:53:25Z</time>
      </trkpt>
      <trkpt lat="45.17046" lon="5.98284">
        <ele>2530.8</ele>
        <time>2021-02-27T07:53:26Z</time>
      </trkpt>
      <trkpt lat="45.17047" lon="5.98295">
        <ele>2529.6</ele>
        <time>2021-02-27T07:53:27Z</time>
      </trkpt>
      <trkpt lat="45.17047" lon="5.98305">
        <ele>2528.2</ele>
        <time>2021-02-27T07:53:28Z</time>
      </trkpt>
      <trkpt lat="45.17046" lon="5.98312">
        <ele>2527.2</ele>
        <time>2021-02-27T07:53:29Z</time>
      </trkpt>
      <trkpt lat="45.17045" lon="5.98317">
        <ele>2525.8</ele>
        <time>2021-02-27T07:53:30Z</time>
      </trkpt>
      <trkpt lat="45.17045" lon="5.98322">
        <ele>2524.8</ele>
        <time>2021-02-27T07:53:31Z</time>
      </trkpt>
      <trkpt lat="45.17046" lon="5.98327">
        <ele>2524</ele>
        <time>2021-02-27T07:53:32Z</time>
      </trkpt>
      <trkpt lat="45.17048" lon="5.98329">
        <ele>2523.4</ele>
        <time>2021-02-27T07:53:33Z</time>
      </trkpt>
      <trkpt lat="45.17048" lon="5.98329">
        <ele>2522.6</ele>
        <time>2021-02-27T07:53:34Z</time>
      </trkpt>
      <trkpt lat="45.17058" lon="5.98314">
        <ele>2521.4</ele>
        <time>2021-02-27T07:53:35Z</time>
      </trkpt>
      <trkpt lat="45.1706" lon="5.98311">
        <ele>2520.6</ele>
        <time>2021-02-27T07:53:36Z</time>
      </trkpt>
      <trkpt lat="45.17066" lon="5.98301">
        <ele>2519.8</ele>
        <time>2021-02-27T07:53:37Z</time>
      </trkpt>
      <trkpt lat="45.17068" lon="5.98297">
        <ele>2518.8</ele>
        <time>2021-02-27T07:53:38Z</time>
      </trkpt>
      <trkpt lat="45.17074" lon="5.98291">
        <ele>2517.8</ele>
        <time>2021-02-27T07:53:39Z</time>
      </trkpt>
      <trkpt lat="45.17076" lon="5.9829">
        <ele>2516.8</ele>
        <time>2021-02-27T07:53:40Z</time>
      </trkpt>
      <trkpt lat="45.1708" lon="5.98289">
        <ele>2515.6</ele>
        <time>2021-02-27T07:53:41Z</time>
      </trkpt>
      <trkpt lat="45.1708" lon="5.98289">
        <ele>2514.4</ele>
        <time>2021-02-27T07:53:42Z</time>
      </trkpt>
      <trkpt lat="45.17086" lon="5.98308">
        <ele>2513.2</ele>
        <time>2021-02-27T07:53:43Z</time>
      </trkpt>
      <trkpt lat="45.17087" lon="5.98311">
        <ele>2512</ele>
        <time>2021-02-27T07:53:44Z</time>
      </trkpt>
      <trkpt lat="45.17092" lon="5.98318">
        <ele>2511</ele>
        <time>2021-02-27T07:53:45Z</time>
      </trkpt>
      <trkpt lat="45.17095" lon="5.98317">
        <ele>2510</ele>
        <time>2021-02-27T07:53:46Z</time>
      </trkpt>
      <trkpt lat="45.17103" lon="5.98312">
        <ele>2508.2</ele>
        <time>2021-02-27T07:53:47Z</time>
      </trkpt>
      <trkpt lat="45.17106" lon="5.98309">
        <ele>2506.6</ele>
        <time>2021-02-27T07:53:48Z</time>
      </trkpt>
      <trkpt lat="45.17116" lon="5.98303">
        <ele>2505.6</ele>
        <time>2021-02-27T07:53:49Z</time>
      </trkpt>
      <trkpt lat="45.17119" lon="5.98303">
        <ele>2504.6</ele>
        <time>2021-02-27T07:53:50Z</time>
      </trkpt>
      <trkpt lat="45.1713" lon="5.98308">
        <ele>2503.4</ele>
        <time>2021-02-27T07:53:51Z</time>
      </trkpt>
      <trkpt lat="45.17133" lon="5.98313">
        <ele>2502.8</ele>
        <time>2021-02-27T07:53:52Z</time>
      </trkpt>
      <trkpt lat="45.17139" lon="5.98326">
        <ele>2501.8</ele>
        <time>2021-02-27T07:53:53Z</time>
      </trkpt>
      <trkpt lat="45.1714" lon="5.98332">
        <ele>2500.4</ele>
        <time>2021-02-27T07:53:54Z</time>
      </trkpt>
      <trkpt lat="45.17142" lon="5.98347">
        <ele>2499</ele>
        <time>2021-02-27T07:53:55Z</time>
      </trkpt>
      <trkpt lat="45.17143" lon="5.98351">
        <ele>2498.4</ele>
        <time>2021-02-27T07:53:56Z</time>
      </trkpt>
      <trkpt lat="45.17145" lon="5.98365">
        <ele>2497.6</ele>
        <time>2021-02-27T07:53:57Z</time>
      </trkpt>
      <trkpt lat="45.17147" lon="5.98369">
        <ele>2496.6</ele>
        <time>2021-02-27T07:53:58Z</time>
      </trkpt>
      <trkpt lat="45.17151" lon="5.9838">
        <ele>2496</ele>
        <time>2021-02-27T07:53:59Z</time>
      </trkpt>
      <trkpt lat="45.17154" lon="5.98384">
        <ele>2495.2</ele>
        <time>2021-02-27T07:54:00Z</time>
      </trkpt>
      <trkpt lat="45.1716" lon="5.98393">
        <ele>2494.4</ele>
        <time>2021-02-27T07:54:01Z</time>
      </trkpt>
      <trkpt lat="45.17161" lon="5.98394">
        <ele>2493.6</ele>
        <time>2021-02-27T07:54:02Z</time>
      </trkpt>
      <trkpt lat="45.17165" lon="5.98397">
        <ele>2493</ele>
        <time>2021-02-27T07:54:03Z</time>
      </trkpt>
      <trkpt lat="45.17182" lon="5.98394">
        <ele>2492</ele>
        <time>2021-02-27T07:54:04Z</time>
      </trkpt>
      <trkpt lat="45.17184" lon="5.98392">
        <ele>2490.4</ele>
        <time>2021-02-27T07:54:05Z</time>
      </trkpt>
      <trkpt lat="45.17188" lon="5.98389">
        <ele>2489.4</ele>
        <time>2021-02-27T07:54:06Z</time>
      </trkpt>
      <trkpt lat="45.17199" lon="5.98391">
        <ele>2488.2</ele>
        <time>2021-02-27T07:54:07Z</time>
      </trkpt>
      <trkpt lat="45.172" lon="5.98394">
        <ele>2486.6</ele>
        <time>2021-02-27T07:54:08Z</time>
      </trkpt>
      <trkpt lat="45.17203" lon="5.98403">
        <ele>2485</ele>
        <time>2021-02-27T07:54:09Z</time>
      </trkpt>
      <trkpt lat="45.17204" lon="5.98406">
        <ele>2483.8</ele>
        <time>2021-02-27T07:54:10Z</time>
      </trkpt>
      <trkpt lat="45.17208" lon="5.98411">
        <ele>2482.8</ele>
        <time>2021-02-27T07:54:11Z</time>
      </trkpt>
      <trkpt lat="45.17213" lon="5.98413">
        <ele>2482</ele>
        <time>2021-02-27T07:54:12Z</time>
      </trkpt>
      <trkpt lat="45.1722" lon="5.98412">
        <ele>2481.2</ele>
        <time>2021-02-27T07:54:13Z</time>
      </trkpt>
      <trkpt lat="45.1722" lon="5.98412">
        <ele>2480</ele>
        <time>2021-02-27T07:54:14Z</time>
      </trkpt>
      <trkpt lat="45.17229" lon="5.98415">
        <ele>2478.8</ele>
        <time>2021-02-27T07:54:15Z</time>
      </trkpt>
      <trkpt lat="45.17229" lon="5.98415">
        <ele>2477.8</ele>
        <time>2021-02-27T07:54:16Z</time>
      </trkpt>
      <trkpt lat="45.17245" lon="5.98405">
        <ele>2476.4</ele>
        <time>2021-02-27T07:54:17Z</time>
      </trkpt>
      <trkpt lat="45.17247" lon="5.984">
        <ele>2474.8</ele>
        <time>2021-02-27T07:54:18Z</time>
      </trkpt>
      <trkpt lat="45.17252" lon="5.98387">
        <ele>2473</ele>
        <time>2021-02-27T07:54:19Z</time>
      </trkpt>
      <trkpt lat="45.17253" lon="5.98384">
        <ele>2471.8</ele>
        <time>2021-02-27T07:54:20Z</time>
      </trkpt>
      <trkpt lat="45.17255" lon="5.98377">
        <ele>2470</ele>
        <time>2021-02-27T07:54:21Z</time>
      </trkpt>
      <trkpt lat="45.17255" lon="5.98377">
        <ele>2468.8</ele>
        <time>2021-02-27T07:54:22Z</time>
      </trkpt>
      <trkpt lat="45.1726" lon="5.98379">
        <ele>2467.8</ele>
        <time>2021-02-27T07:54:23Z</time>
      </trkpt>
      <trkpt lat="45.17265" lon="5.98381">
        <ele>2467</ele>
        <time>2021-02-27T07:54:24Z</time>
      </trkpt>
      <trkpt lat="45.1727" lon="5.98383">
        <ele>2466.2</ele>
        <time>2021-02-27T07:54:25Z</time>
      </trkpt>
      <trkpt lat="45.17273" lon="5.98383">
        <ele>2465</ele>
        <time>2021-02-27T07:54:26Z</time>
      </trkpt>
      <trkpt lat="45.17284" lon="5.98371">
        <ele>2463.6</ele>
        <time>2021-02-27T07:54:27Z</time>
      </trkpt>
      <trkpt lat="45.17285" lon="5.9837">
        <ele>2462.4</ele>
        <time>2021-02-27T07:54:28Z</time>
      </trkpt>
      <trkpt lat="45.17287" lon="5.98367">
        <ele>2461</ele>
        <time>2021-02-27T07:54:29Z</time>
      </trkpt>
      <trkpt lat="45.17289" lon="5.98364">
        <ele>2460.4</ele>
        <time>2021-02-27T07:54:30Z</time>
      </trkpt>
      <trkpt lat="45.17291" lon="5.98361">
        <ele>2459.6</ele>
        <time>2021-02-27T07:54:31Z</time>
      </trkpt>
      <trkpt lat="45.17293" lon="5.98358">
        <ele>2459.2</ele>
        <time>2021-02-27T07:54:32Z</time>
      </trkpt>
      <trkpt lat="45.17293" lon="5.98358">
        <ele>2459.4</ele>
        <time>2021-02-27T07:54:33Z</time>
      </trkpt>
      <trkpt lat="45.17293" lon="5.98358">
        <ele>2459.6</ele>
        <time>2021-02-27T07:54:34Z</time>
      </trkpt>
      <trkpt lat="45.17293" lon="5.98358">
        <ele>2459.6</ele>
        <time>2021-02-27T07:54:35Z</time>
      </trkpt>
      <trkpt lat="45.17293" lon="5.98358">
        <ele>2459.6</ele>
        <time>2021-02-27T07:54:36Z</time>
      </trkpt>
      <trkpt lat="45.17293" lon="5.98358">
        <ele>2459.6</ele>
        <time>2021-02-27T07:54:37Z</time>
      </trkpt>
      <trkpt lat="45.17293" lon="5.98358">
        <ele>2459.6</ele>
        <time>2021-02-27T07:54:38Z</time>
      </trkpt>
      <trkpt lat="45.17293" lon="5.98358">
        <ele>2459.6</ele>
        <time>2021-02-27T07:54:39Z</time>
      </trkpt>
      <trkpt lat="45.17293" lon="5.98358">
        <ele>2459.8</ele>
        <time>2021-02-27T07:54:40Z</time>
      </trkpt>
      <trkpt lat="45.17293" lon="5.98358">
        <ele>2459.6</ele>
        <time>2021-02-27T07:54:41Z</time>
      </trkpt>
      <trkpt lat="45.17293" lon="5.98358">
        <ele>2459.6</ele>
        <time>2021-02-27T07:54:42Z</time>
      </trkpt>
      <trkpt lat="45.17293" lon="5.98358">
        <ele>2459.6</ele>
        <time>2021-02-27T07:54:43Z</time>
      </trkpt>
      <trkpt lat="45.17296" lon="5.98362">
        <ele>2459.2</ele>
        <time>2021-02-27T07:54:44Z</time>
      </trkpt>
      <trkpt lat="45.17296" lon="5.98362">
        <ele>2458.8</ele>
        <time>2021-02-27T07:54:45Z</time>
      </trkpt>
      <trkpt lat="45.17302" lon="5.98381">
        <ele>2458</ele>
        <time>2021-02-27T07:54:46Z</time>
      </trkpt>
      <trkpt lat="45.17302" lon="5.98385">
        <ele>2456.6</ele>
        <time>2021-02-27T07:54:47Z</time>
      </trkpt>
      <trkpt lat="45.17302" lon="5.98394">
        <ele>2455.6</ele>
        <time>2021-02-27T07:54:48Z</time>
      </trkpt>
      <trkpt lat="45.17301" lon="5.98401">
        <ele>2454.4</ele>
        <time>2021-02-27T07:54:49Z</time>
      </trkpt>
      <trkpt lat="45.173" lon="5.98408">
        <ele>2453</ele>
        <time>2021-02-27T07:54:50Z</time>
      </trkpt>
      <trkpt lat="45.173" lon="5.98415">
        <ele>2451.8</ele>
        <time>2021-02-27T07:54:51Z</time>
      </trkpt>
      <trkpt lat="45.17301" lon="5.9842">
        <ele>2450.6</ele>
        <time>2021-02-27T07:54:52Z</time>
      </trkpt>
      <trkpt lat="45.17308" lon="5.98424">
        <ele>2450</ele>
        <time>2021-02-27T07:54:53Z</time>
      </trkpt>
      <trkpt lat="45.17318" lon="5.98427">
        <ele>2448.4</ele>
        <time>2021-02-27T07:54:54Z</time>
      </trkpt>
      <trkpt lat="45.17328" lon="5.98431">
        <ele>2446.6</ele>
        <time>2021-02-27T07:54:55Z</time>
      </trkpt>
      <trkpt lat="45.17339" lon="5.98436">
        <ele>2444.6</ele>
        <time>2021-02-27T07:54:56Z</time>
      </trkpt>
      <trkpt lat="45.17349" lon="5.9844">
        <ele>2442.4</ele>
        <time>2021-02-27T07:54:57Z</time>
      </trkpt>
      <trkpt lat="45.17358" lon="5.98444">
        <ele>2441</ele>
        <time>2021-02-27T07:54:58Z</time>
      </trkpt>
      <trkpt lat="45.17367" lon="5.98448">
        <ele>2439.8</ele>
        <time>2021-02-27T07:54:59Z</time>
      </trkpt>
      <trkpt lat="45.17375" lon="5.98452">
        <ele>2438.8</ele>
        <time>2021-02-27T07:55:00Z</time>
      </trkpt>
      <trkpt lat="45.17382" lon="5.98457">
        <ele>2438</ele>
        <time>2021-02-27T07:55:01Z</time>
      </trkpt>
      <trkpt lat="45.17387" lon="5.98462">
        <ele>2437</ele>
        <time>2021-02-27T07:55:02Z</time>
      </trkpt>
      <trkpt lat="45.17393" lon="5.98466">
        <ele>2436.6</ele>
        <time>2021-02-27T07:55:03Z</time>
      </trkpt>
      <trkpt lat="45.17401" lon="5.98468">
        <ele>2435.8</ele>
        <time>2021-02-27T07:55:04Z</time>
      </trkpt>
      <trkpt lat="45.17408" lon="5.98469">
        <ele>2435</ele>
        <time>2021-02-27T07:55:05Z</time>
      </trkpt>
      <trkpt lat="45.17415" lon="5.98471">
        <ele>2433.8</ele>
        <time>2021-02-27T07:55:06Z</time>
      </trkpt>
      <trkpt lat="45.17425" lon="5.98473">
        <ele>2432.4</ele>
        <time>2021-02-27T07:55:07Z</time>
      </trkpt>
      <trkpt lat="45.17435" lon="5.98472">
        <ele>2431.4</ele>
        <time>2021-02-27T07:55:08Z</time>
      </trkpt>
      <trkpt lat="45.17445" lon="5.9847">
        <ele>2429.4</ele>
        <time>2021-02-27T07:55:09Z</time>
      </trkpt>
      <trkpt lat="45.17456" lon="5.98466">
        <ele>2428</ele>
        <time>2021-02-27T07:55:10Z</time>
      </trkpt>
      <trkpt lat="45.17465" lon="5.98458">
        <ele>2426.2</ele>
        <time>2021-02-27T07:55:11Z</time>
      </trkpt>
      <trkpt lat="45.17473" lon="5.9845">
        <ele>2424</ele>
        <time>2021-02-27T07:55:12Z</time>
      </trkpt>
      <trkpt lat="45.17479" lon="5.9844">
        <ele>2422</ele>
        <time>2021-02-27T07:55:13Z</time>
      </trkpt>
      <trkpt lat="45.17479" lon="5.9844">
        <ele>2420.6</ele>
        <time>2021-02-27T07:55:14Z</time>
      </trkpt>
      <trkpt lat="45.17495" lon="5.98422">
        <ele>2419.4</ele>
        <time>2021-02-27T07:55:15Z</time>
      </trkpt>
      <trkpt lat="45.17498" lon="5.98419">
        <ele>2418.2</ele>
        <time>2021-02-27T07:55:16Z</time>
      </trkpt>
      <trkpt lat="45.17504" lon="5.98413">
        <ele>2417</ele>
        <time>2021-02-27T07:55:17Z</time>
      </trkpt>
      <trkpt lat="45.17509" lon="5.98407">
        <ele>2416.2</ele>
        <time>2021-02-27T07:55:18Z</time>
      </trkpt>
      <trkpt lat="45.17514" lon="5.984">
        <ele>2415.4</ele>
        <time>2021-02-27T07:55:19Z</time>
      </trkpt>
      <trkpt lat="45.1752" lon="5.98394">
        <ele>2414.4</ele>
        <time>2021-02-27T07:55:20Z</time>
      </trkpt>
      <trkpt lat="45.17525" lon="5.98388">
        <ele>2413.6</ele>
        <time>2021-02-27T07:55:21Z</time>
      </trkpt>
      <trkpt lat="45.17531" lon="5.98382">
        <ele>2413.2</ele>
        <time>2021-02-27T07:55:22Z</time>
      </trkpt>
      <trkpt lat="45.17536" lon="5.98377">
        <ele>2412.6</ele>
        <time>2021-02-27T07:55:23Z</time>
      </trkpt>
      <trkpt lat="45.17542" lon="5.98371">
        <ele>2411.8</ele>
        <time>2021-02-27T07:55:24Z</time>
      </trkpt>
      <trkpt lat="45.17546" lon="5.98366">
        <ele>2411.4</ele>
        <time>2021-02-27T07:55:25Z</time>
      </trkpt>
      <trkpt lat="45.17551" lon="5.98361">
        <ele>2411</ele>
        <time>2021-02-27T07:55:26Z</time>
      </trkpt>
      <trkpt lat="45.17555" lon="5.98356">
        <ele>2410.4</ele>
        <time>2021-02-27T07:55:27Z</time>
      </trkpt>
      <trkpt lat="45.17559" lon="5.9835">
        <ele>2410.2</ele>
        <time>2021-02-27T07:55:28Z</time>
      </trkpt>
      <trkpt lat="45.17564" lon="5.98345">
        <ele>2410</ele>
        <time>2021-02-27T07:55:29Z</time>
      </trkpt>
      <trkpt lat="45.17569" lon="5.9834">
        <ele>2409.4</ele>
        <time>2021-02-27T07:55:30Z</time>
      </trkpt>
      <trkpt lat="45.17573" lon="5.98336">
        <ele>2408.6</ele>
        <time>2021-02-27T07:55:31Z</time>
      </trkpt>
      <trkpt lat="45.17576" lon="5.98331">
        <ele>2407.6</ele>
        <time>2021-02-27T07:55:32Z</time>
      </trkpt>
      <trkpt lat="45.17579" lon="5.98327">
        <ele>2407</ele>
        <time>2021-02-27T07:55:33Z</time>
      </trkpt>
      <trkpt lat="45.17582" lon="5.98325">
        <ele>2406</ele>
        <time>2021-02-27T07:55:34Z</time>
      </trkpt>
      <trkpt lat="45.17584" lon="5.98324">
        <ele>2405.2</ele>
        <time>2021-02-27T07:55:35Z</time>
      </trkpt>
      <trkpt lat="45.17584" lon="5.98324">
        <ele>2405</ele>
        <time>2021-02-27T07:55:36Z</time>
      </trkpt>
      <trkpt lat="45.17584" lon="5.98324">
        <ele>2404.8</ele>
        <time>2021-02-27T07:55:37Z</time>
      </trkpt>
      <trkpt lat="45.17584" lon="5.98324">
        <ele>2404.6</ele>
        <time>2021-02-27T07:55:38Z</time>
      </trkpt>
      <trkpt lat="45.17584" lon="5.98324">
        <ele>2404</ele>
        <time>2021-02-27T07:55:39Z</time>
      </trkpt>
      <trkpt lat="45.17586" lon="5.98327">
        <ele>2403.8</ele>
        <time>2021-02-27T07:55:40Z</time>
      </trkpt>
      <trkpt lat="45.17589" lon="5.98331">
        <ele>2403.6</ele>
        <time>2021-02-27T07:55:41Z</time>
      </trkpt>
      <trkpt lat="45.17593" lon="5.98336">
        <ele>2403.4</ele>
        <time>2021-02-27T07:55:42Z</time>
      </trkpt>
      <trkpt lat="45.17593" lon="5.98336">
        <ele>2402.2</ele>
        <time>2021-02-27T07:55:43Z</time>
      </trkpt>
      <trkpt lat="45.17603" lon="5.9835">
        <ele>2401.6</ele>
        <time>2021-02-27T07:55:44Z</time>
      </trkpt>
      <trkpt lat="45.17605" lon="5.98352">
        <ele>2400.4</ele>
        <time>2021-02-27T07:55:45Z</time>
      </trkpt>
      <trkpt lat="45.17612" lon="5.98357">
        <ele>2399.6</ele>
        <time>2021-02-27T07:55:46Z</time>
      </trkpt>
      <trkpt lat="45.17614" lon="5.98358">
        <ele>2398.8</ele>
        <time>2021-02-27T07:55:47Z</time>
      </trkpt>
      <trkpt lat="45.17621" lon="5.98358">
        <ele>2398</ele>
        <time>2021-02-27T07:55:48Z</time>
      </trkpt>
      <trkpt lat="45.17627" lon="5.98357">
        <ele>2397</ele>
        <time>2021-02-27T07:55:49Z</time>
      </trkpt>
      <trkpt lat="45.17634" lon="5.98355">
        <ele>2395.8</ele>
        <time>2021-02-27T07:55:50Z</time>
      </trkpt>
      <trkpt lat="45.17639" lon="5.98352">
        <ele>2394.6</ele>
        <time>2021-02-27T07:55:51Z</time>
      </trkpt>
      <trkpt lat="45.17643" lon="5.98348">
        <ele>2393.6</ele>
        <time>2021-02-27T07:55:52Z</time>
      </trkpt>
      <trkpt lat="45.17647" lon="5.98345">
        <ele>2393.2</ele>
        <time>2021-02-27T07:55:53Z</time>
      </trkpt>
      <trkpt lat="45.17651" lon="5.98342">
        <ele>2392.6</ele>
        <time>2021-02-27T07:55:54Z</time>
      </trkpt>
      <trkpt lat="45.17654" lon="5.9834">
        <ele>2392.4</ele>
        <time>2021-02-27T07:55:55Z</time>
      </trkpt>
      <trkpt lat="45.17657" lon="5.98338">
        <ele>2392</ele>
        <time>2021-02-27T07:55:56Z</time>
      </trkpt>
      <trkpt lat="45.17661" lon="5.98336">
        <ele>2391.4</ele>
        <time>2021-02-27T07:55:57Z</time>
      </trkpt>
      <trkpt lat="45.17665" lon="5.98334">
        <ele>2391.2</ele>
        <time>2021-02-27T07:55:58Z</time>
      </trkpt>
      <trkpt lat="45.17669" lon="5.98332">
        <ele>2391</ele>
        <time>2021-02-27T07:55:59Z</time>
      </trkpt>
      <trkpt lat="45.17673" lon="5.9833">
        <ele>2390.6</ele>
        <time>2021-02-27T07:56:00Z</time>
      </trkpt>
      <trkpt lat="45.17677" lon="5.98328">
        <ele>2389.8</ele>
        <time>2021-02-27T07:56:01Z</time>
      </trkpt>
      <trkpt lat="45.1768" lon="5.98327">
        <ele>2389.6</ele>
        <time>2021-02-27T07:56:02Z</time>
      </trkpt>
      <trkpt lat="45.17684" lon="5.98326">
        <ele>2389.2</ele>
        <time>2021-02-27T07:56:03Z</time>
      </trkpt>
      <trkpt lat="45.17688" lon="5.98326">
        <ele>2389</ele>
        <time>2021-02-27T07:56:04Z</time>
      </trkpt>
      <trkpt lat="45.17693" lon="5.98325">
        <ele>2388.6</ele>
        <time>2021-02-27T07:56:05Z</time>
      </trkpt>
      <trkpt lat="45.17697" lon="5.98325">
        <ele>2388</ele>
        <time>2021-02-27T07:56:06Z</time>
      </trkpt>
      <trkpt lat="45.17702" lon="5.98324">
        <ele>2387.4</ele>
        <time>2021-02-27T07:56:07Z</time>
      </trkpt>
      <trkpt lat="45.17705" lon="5.98324">
        <ele>2386.8</ele>
        <time>2021-02-27T07:56:08Z</time>
      </trkpt>
      <trkpt lat="45.17708" lon="5.98324">
        <ele>2386.2</ele>
        <time>2021-02-27T07:56:09Z</time>
      </trkpt>
      <trkpt lat="45.1771" lon="5.98324">
        <ele>2385.6</ele>
        <time>2021-02-27T07:56:10Z</time>
      </trkpt>
      <trkpt lat="45.17711" lon="5.98325">
        <ele>2385.2</ele>
        <time>2021-02-27T07:56:11Z</time>
      </trkpt>
      <trkpt lat="45.17713" lon="5.98325">
        <ele>2384.8</ele>
        <time>2021-02-27T07:56:12Z</time>
      </trkpt>
      <trkpt lat="45.17713" lon="5.98325">
        <ele>2384.6</ele>
        <time>2021-02-27T07:56:13Z</time>
      </trkpt>
      <trkpt lat="45.17716" lon="5.98326">
        <ele>2384.4</ele>
        <time>2021-02-27T07:56:14Z</time>
      </trkpt>
      <trkpt lat="45.17718" lon="5.98326">
        <ele>2384.2</ele>
        <time>2021-02-27T07:56:15Z</time>
      </trkpt>
      <trkpt lat="45.1772" lon="5.98326">
        <ele>2383.8</ele>
        <time>2021-02-27T07:56:16Z</time>
      </trkpt>
      <trkpt lat="45.17723" lon="5.98326">
        <ele>2383.8</ele>
        <time>2021-02-27T07:56:17Z</time>
      </trkpt>
      <trkpt lat="45.17725" lon="5.98326">
        <ele>2383.6</ele>
        <time>2021-02-27T07:56:18Z</time>
      </trkpt>
      <trkpt lat="45.17725" lon="5.98326">
        <ele>2383.4</ele>
        <time>2021-02-27T07:56:19Z</time>
      </trkpt>
      <trkpt lat="45.17728" lon="5.98326">
        <ele>2382.8</ele>
        <time>2021-02-27T07:56:20Z</time>
      </trkpt>
      <trkpt lat="45.17728" lon="5.98326">
        <ele>2382.6</ele>
        <time>2021-02-27T07:56:21Z</time>
      </trkpt>
      <trkpt lat="45.17731" lon="5.98325">
        <ele>2382.4</ele>
        <time>2021-02-27T07:56:22Z</time>
      </trkpt>
      <trkpt lat="45.17733" lon="5.98325">
        <ele>2381.8</ele>
        <time>2021-02-27T07:56:23Z</time>
      </trkpt>
      <trkpt lat="45.17735" lon="5.98325">
        <ele>2381.6</ele>
        <time>2021-02-27T07:56:24Z</time>
      </trkpt>
      <trkpt lat="45.17737" lon="5.98324">
        <ele>2381.4</ele>
        <time>2021-02-27T07:56:25Z</time>
      </trkpt>
      <trkpt lat="45.1774" lon="5.98323">
        <ele>2381</ele>
        <time>2021-02-27T07:56:26Z</time>
      </trkpt>
      <trkpt lat="45.17743" lon="5.98323">
        <ele>2380.6</ele>
        <time>2021-02-27T07:56:27Z</time>
      </trkpt>
      <trkpt lat="45.17746" lon="5.98322">
        <ele>2380.2</ele>
        <time>2021-02-27T07:56:28Z</time>
      </trkpt>
      <trkpt lat="45.17749" lon="5.9832">
        <ele>2379.6</ele>
        <time>2021-02-27T07:56:29Z</time>
      </trkpt>
      <trkpt lat="45.17751" lon="5.98318">
        <ele>2379.4</ele>
        <time>2021-02-27T07:56:30Z</time>
      </trkpt>
      <trkpt lat="45.17755" lon="5.98316">
        <ele>2379.2</ele>
        <time>2021-02-27T07:56:31Z</time>
      </trkpt>
      <trkpt lat="45.17759" lon="5.98312">
        <ele>2378.8</ele>
        <time>2021-02-27T07:56:32Z</time>
      </trkpt>
      <trkpt lat="45.17762" lon="5.98309">
        <ele>2378.4</ele>
        <time>2021-02-27T07:56:33Z</time>
      </trkpt>
      <trkpt lat="45.17765" lon="5.98305">
        <ele>2377.8</ele>
        <time>2021-02-27T07:56:34Z</time>
      </trkpt>
      <trkpt lat="45.17767" lon="5.98301">
        <ele>2377.4</ele>
        <time>2021-02-27T07:56:35Z</time>
      </trkpt>
      <trkpt lat="45.17769" lon="5.98297">
        <ele>2377.2</ele>
        <time>2021-02-27T07:56:36Z</time>
      </trkpt>
      <trkpt lat="45.17772" lon="5.98293">
        <ele>2377</ele>
        <time>2021-02-27T07:56:37Z</time>
      </trkpt>
      <trkpt lat="45.17774" lon="5.98288">
        <ele>2376.6</ele>
        <time>2021-02-27T07:56:38Z</time>
      </trkpt>
      <trkpt lat="45.17777" lon="5.98284">
        <ele>2376.2</ele>
        <time>2021-02-27T07:56:39Z</time>
      </trkpt>
      <trkpt lat="45.1778" lon="5.9828">
        <ele>2375.6</ele>
        <time>2021-02-27T07:56:40Z</time>
      </trkpt>
      <trkpt lat="45.17783" lon="5.98277">
        <ele>2375</ele>
        <time>2021-02-27T07:56:41Z</time>
      </trkpt>
      <trkpt lat="45.17786" lon="5.98274">
        <ele>2374.4</ele>
        <time>2021-02-27T07:56:42Z</time>
      </trkpt>
      <trkpt lat="45.17788" lon="5.98271">
        <ele>2374</ele>
        <time>2021-02-27T07:56:43Z</time>
      </trkpt>
      <trkpt lat="45.17791" lon="5.98269">
        <ele>2373.6</ele>
        <time>2021-02-27T07:56:44Z</time>
      </trkpt>
      <trkpt lat="45.17794" lon="5.98266">
        <ele>2373.2</ele>
        <time>2021-02-27T07:56:45Z</time>
      </trkpt>
      <trkpt lat="45.17798" lon="5.98263">
        <ele>2372.8</ele>
        <time>2021-02-27T07:56:46Z</time>
      </trkpt>
      <trkpt lat="45.17802" lon="5.9826">
        <ele>2372.4</ele>
        <time>2021-02-27T07:56:47Z</time>
      </trkpt>
      <trkpt lat="45.17806" lon="5.98256">
        <ele>2371.8</ele>
        <time>2021-02-27T07:56:48Z</time>
      </trkpt>
      <trkpt lat="45.17812" lon="5.98251">
        <ele>2371.2</ele>
        <time>2021-02-27T07:56:49Z</time>
      </trkpt>
      <trkpt lat="45.17818" lon="5.98245">
        <ele>2370.4</ele>
        <time>2021-02-27T07:56:50Z</time>
      </trkpt>
      <trkpt lat="45.17824" lon="5.98238">
        <ele>2369.4</ele>
        <time>2021-02-27T07:56:51Z</time>
      </trkpt>
      <trkpt lat="45.1783" lon="5.98231">
        <ele>2367.8</ele>
        <time>2021-02-27T07:56:52Z</time>
      </trkpt>
      <trkpt lat="45.17836" lon="5.98225">
        <ele>2366.4</ele>
        <time>2021-02-27T07:56:53Z</time>
      </trkpt>
      <trkpt lat="45.17841" lon="5.98219">
        <ele>2365</ele>
        <time>2021-02-27T07:56:54Z</time>
      </trkpt>
      <trkpt lat="45.17846" lon="5.98214">
        <ele>2363.8</ele>
        <time>2021-02-27T07:56:55Z</time>
      </trkpt>
      <trkpt lat="45.17852" lon="5.98209">
        <ele>2362.2</ele>
        <time>2021-02-27T07:56:56Z</time>
      </trkpt>
      <trkpt lat="45.17857" lon="5.98204">
        <ele>2361</ele>
        <time>2021-02-27T07:56:57Z</time>
      </trkpt>
      <trkpt lat="45.17861" lon="5.98199">
        <ele>2359.8</ele>
        <time>2021-02-27T07:56:58Z</time>
      </trkpt>
      <trkpt lat="45.17866" lon="5.98194">
        <ele>2358.6</ele>
        <time>2021-02-27T07:56:59Z</time>
      </trkpt>
      <trkpt lat="45.1787" lon="5.98191">
        <ele>2357.8</ele>
        <time>2021-02-27T07:57:00Z</time>
      </trkpt>
      <trkpt lat="45.17874" lon="5.98188">
        <ele>2357</ele>
        <time>2021-02-27T07:57:01Z</time>
      </trkpt>
      <trkpt lat="45.17878" lon="5.98185">
        <ele>2356.2</ele>
        <time>2021-02-27T07:57:02Z</time>
      </trkpt>
      <trkpt lat="45.17882" lon="5.98181">
        <ele>2355.4</ele>
        <time>2021-02-27T07:57:03Z</time>
      </trkpt>
      <trkpt lat="45.17887" lon="5.98178">
        <ele>2354.6</ele>
        <time>2021-02-27T07:57:04Z</time>
      </trkpt>
      <trkpt lat="45.17891" lon="5.98174">
        <ele>2353.8</ele>
        <time>2021-02-27T07:57:05Z</time>
      </trkpt>
      <trkpt lat="45.17895" lon="5.9817">
        <ele>2353.2</ele>
        <time>2021-02-27T07:57:06Z</time>
      </trkpt>
      <trkpt lat="45.17899" lon="5.98165">
        <ele>2352.8</ele>
        <time>2021-02-27T07:57:07Z</time>
      </trkpt>
      <trkpt lat="45.17903" lon="5.98162">
        <ele>2352.4</ele>
        <time>2021-02-27T07:57:08Z</time>
      </trkpt>
      <trkpt lat="45.17907" lon="5.98158">
        <ele>2351.8</ele>
        <time>2021-02-27T07:57:09Z</time>
      </trkpt>
      <trkpt lat="45.1791" lon="5.98156">
        <ele>2351.4</ele>
        <time>2021-02-27T07:57:10Z</time>
      </trkpt>
      <trkpt lat="45.17913" lon="5.98153">
        <ele>2350.6</ele>
        <time>2021-02-27T07:57:11Z</time>
      </trkpt>
      <trkpt lat="45.17915" lon="5.9815">
        <ele>2349.8</ele>
        <time>2021-02-27T07:57:12Z</time>
      </trkpt>
      <trkpt lat="45.17918" lon="5.98147">
        <ele>2349.4</ele>
        <time>2021-02-27T07:57:13Z</time>
      </trkpt>
      <trkpt lat="45.1792" lon="5.98142">
        <ele>2348.8</ele>
        <time>2021-02-27T07:57:14Z</time>
      </trkpt>
      <trkpt lat="45.17923" lon="5.98137">
        <ele>2348</ele>
        <time>2021-02-27T07:57:15Z</time>
      </trkpt>
      <trkpt lat="45.17925" lon="5.98131">
        <ele>2347.6</ele>
        <time>2021-02-27T07:57:16Z</time>
      </trkpt>
      <trkpt lat="45.17926" lon="5.98126">
        <ele>2347</ele>
        <time>2021-02-27T07:57:17Z</time>
      </trkpt>
      <trkpt lat="45.17928" lon="5.9812">
        <ele>2346.6</ele>
        <time>2021-02-27T07:57:18Z</time>
      </trkpt>
      <trkpt lat="45.17929" lon="5.98114">
        <ele>2345.8</ele>
        <time>2021-02-27T07:57:19Z</time>
      </trkpt>
      <trkpt lat="45.17931" lon="5.98107">
        <ele>2345.4</ele>
        <time>2021-02-27T07:57:20Z</time>
      </trkpt>
      <trkpt lat="45.17931" lon="5.98101">
        <ele>2344.8</ele>
        <time>2021-02-27T07:57:21Z</time>
      </trkpt>
      <trkpt lat="45.17932" lon="5.98095">
        <ele>2344.2</ele>
        <time>2021-02-27T07:57:22Z</time>
      </trkpt>
      <trkpt lat="45.17931" lon="5.9809">
        <ele>2343.8</ele>
        <time>2021-02-27T07:57:23Z</time>
      </trkpt>
      <trkpt lat="45.17931" lon="5.98085">
        <ele>2343.6</ele>
        <time>2021-02-27T07:57:24Z</time>
      </trkpt>
      <trkpt lat="45.1793" lon="5.98079">
        <ele>2343.4</ele>
        <time>2021-02-27T07:57:25Z</time>
      </trkpt>
      <trkpt lat="45.17929" lon="5.98074">
        <ele>2343</ele>
        <time>2021-02-27T07:57:26Z</time>
      </trkpt>
      <trkpt lat="45.17928" lon="5.98069">
        <ele>2342.6</ele>
        <time>2021-02-27T07:57:27Z</time>
      </trkpt>
      <trkpt lat="45.17926" lon="5.98065">
        <ele>2342.4</ele>
        <time>2021-02-27T07:57:28Z</time>
      </trkpt>
      <trkpt lat="45.17925" lon="5.98061">
        <ele>2342.2</ele>
        <time>2021-02-27T07:57:29Z</time>
      </trkpt>
      <trkpt lat="45.17923" lon="5.98057">
        <ele>2342</ele>
        <time>2021-02-27T07:57:30Z</time>
      </trkpt>
      <trkpt lat="45.17921" lon="5.98053">
        <ele>2341.8</ele>
        <time>2021-02-27T07:57:31Z</time>
      </trkpt>
      <trkpt lat="45.17919" lon="5.98049">
        <ele>2341.6</ele>
        <time>2021-02-27T07:57:32Z</time>
      </trkpt>
      <trkpt lat="45.17917" lon="5.98044">
        <ele>2341</ele>
        <time>2021-02-27T07:57:33Z</time>
      </trkpt>
      <trkpt lat="45.17915" lon="5.9804">
        <ele>2340.6</ele>
        <time>2021-02-27T07:57:34Z</time>
      </trkpt>
      <trkpt lat="45.17913" lon="5.98037">
        <ele>2340.2</ele>
        <time>2021-02-27T07:57:35Z</time>
      </trkpt>
      <trkpt lat="45.17912" lon="5.98035">
        <ele>2339.8</ele>
        <time>2021-02-27T07:57:36Z</time>
      </trkpt>
      <trkpt lat="45.17912" lon="5.98035">
        <ele>2339.8</ele>
        <time>2021-02-27T07:57:37Z</time>
      </trkpt>
      <trkpt lat="45.17912" lon="5.98035">
        <ele>2339.8</ele>
        <time>2021-02-27T07:57:38Z</time>
      </trkpt>
      <trkpt lat="45.1791" lon="5.98032">
        <ele>2339.2</ele>
        <time>2021-02-27T07:57:39Z</time>
      </trkpt>
      <trkpt lat="45.1791" lon="5.98032">
        <ele>2339.4</ele>
        <time>2021-02-27T07:57:40Z</time>
      </trkpt>
      <trkpt lat="45.1791" lon="5.98029">
        <ele>2339.2</ele>
        <time>2021-02-27T07:57:41Z</time>
      </trkpt>
      <trkpt lat="45.1791" lon="5.98029">
        <ele>2339</ele>
        <time>2021-02-27T07:57:42Z</time>
      </trkpt>
      <trkpt lat="45.17909" lon="5.98028">
        <ele>2339</ele>
        <time>2021-02-27T07:57:43Z</time>
      </trkpt>
      <trkpt lat="45.17909" lon="5.98027">
        <ele>2338.8</ele>
        <time>2021-02-27T07:57:44Z</time>
      </trkpt>
      <trkpt lat="45.17908" lon="5.98025">
        <ele>2339</ele>
        <time>2021-02-27T07:57:45Z</time>
      </trkpt>
      <trkpt lat="45.17908" lon="5.98024">
        <ele>2339</ele>
        <time>2021-02-27T07:57:46Z</time>
      </trkpt>
      <trkpt lat="45.17908" lon="5.98023">
        <ele>2339</ele>
        <time>2021-02-27T07:57:47Z</time>
      </trkpt>
      <trkpt lat="45.17907" lon="5.98022">
        <ele>2338.8</ele>
        <time>2021-02-27T07:57:48Z</time>
      </trkpt>
      <trkpt lat="45.17907" lon="5.9802">
        <ele>2338.8</ele>
        <time>2021-02-27T07:57:49Z</time>
      </trkpt>
      <trkpt lat="45.17906" lon="5.98019">
        <ele>2338.6</ele>
        <time>2021-02-27T07:57:50Z</time>
      </trkpt>
      <trkpt lat="45.17906" lon="5.98018">
        <ele>2338.4</ele>
        <time>2021-02-27T07:57:51Z</time>
      </trkpt>
      <trkpt lat="45.17905" lon="5.98016">
        <ele>2338.6</ele>
        <time>2021-02-27T07:57:52Z</time>
      </trkpt>
      <trkpt lat="45.17905" lon="5.98014">
        <ele>2338.4</ele>
        <time>2021-02-27T07:57:53Z</time>
      </trkpt>
      <trkpt lat="45.17905" lon="5.98011">
        <ele>2338.8</ele>
        <time>2021-02-27T07:57:54Z</time>
      </trkpt>
      <trkpt lat="45.17905" lon="5.98009">
        <ele>2338.8</ele>
        <time>2021-02-27T07:57:55Z</time>
      </trkpt>
      <trkpt lat="45.17904" lon="5.98007">
        <ele>2338.8</ele>
        <time>2021-02-27T07:57:56Z</time>
      </trkpt>
      <trkpt lat="45.17904" lon="5.98005">
        <ele>2338.8</ele>
        <time>2021-02-27T07:57:57Z</time>
      </trkpt>
      <trkpt lat="45.17904" lon="5.98003">
        <ele>2338.6</ele>
        <time>2021-02-27T07:57:58Z</time>
      </trkpt>
      <trkpt lat="45.17904" lon="5.97999">
        <ele>2338.6</ele>
        <time>2021-02-27T07:57:59Z</time>
      </trkpt>
      <trkpt lat="45.17905" lon="5.97994">
        <ele>2338.6</ele>
        <time>2021-02-27T07:58:00Z</time>
      </trkpt>
      <trkpt lat="45.17905" lon="5.9799">
        <ele>2338.2</ele>
        <time>2021-02-27T07:58:01Z</time>
      </trkpt>
      <trkpt lat="45.17906" lon="5.97985">
        <ele>2338.4</ele>
        <time>2021-02-27T07:58:02Z</time>
      </trkpt>
      <trkpt lat="45.17907" lon="5.97981">
        <ele>2338.2</ele>
        <time>2021-02-27T07:58:03Z</time>
      </trkpt>
      <trkpt lat="45.17908" lon="5.97976">
        <ele>2337.8</ele>
        <time>2021-02-27T07:58:04Z</time>
      </trkpt>
      <trkpt lat="45.17909" lon="5.97972">
        <ele>2337.8</ele>
        <time>2021-02-27T07:58:05Z</time>
      </trkpt>
      <trkpt lat="45.17911" lon="5.97969">
        <ele>2337.6</ele>
        <time>2021-02-27T07:58:06Z</time>
      </trkpt>
      <trkpt lat="45.17912" lon="5.97965">
        <ele>2337.6</ele>
        <time>2021-02-27T07:58:07Z</time>
      </trkpt>
      <trkpt lat="45.17914" lon="5.97963">
        <ele>2337.6</ele>
        <time>2021-02-27T07:58:08Z</time>
      </trkpt>
      <trkpt lat="45.17915" lon="5.97962">
        <ele>2337.2</ele>
        <time>2021-02-27T07:58:09Z</time>
      </trkpt>
      <trkpt lat="45.17916" lon="5.9796">
        <ele>2337.4</ele>
        <time>2021-02-27T07:58:10Z</time>
      </trkpt>
      <trkpt lat="45.17917" lon="5.97958">
        <ele>2337.2</ele>
        <time>2021-02-27T07:58:11Z</time>
      </trkpt>
      <trkpt lat="45.17917" lon="5.97958">
        <ele>2337.2</ele>
        <time>2021-02-27T07:58:12Z</time>
      </trkpt>
      <trkpt lat="45.17917" lon="5.97958">
        <ele>2337.4</ele>
        <time>2021-02-27T07:58:13Z</time>
      </trkpt>
      <trkpt lat="45.17917" lon="5.97958">
        <ele>2337.6</ele>
        <time>2021-02-27T07:58:14Z</time>
      </trkpt>
      <trkpt lat="45.17917" lon="5.97958">
        <ele>2337.8</ele>
        <time>2021-02-27T07:58:15Z</time>
      </trkpt>
      <trkpt lat="45.17917" lon="5.97958">
        <ele>2337.6</ele>
        <time>2021-02-27T07:58:16Z</time>
      </trkpt>
      <trkpt lat="45.17917" lon="5.97958">
        <ele>2337.4</ele>
        <time>2021-02-27T07:58:17Z</time>
      </trkpt>
      <trkpt lat="45.17917" lon="5.97958">
        <ele>2337.2</ele>
        <time>2021-02-27T07:58:18Z</time>
      </trkpt>
      <trkpt lat="45.17917" lon="5.97958">
        <ele>2337.2</ele>
        <time>2021-02-27T07:58:19Z</time>
      </trkpt>
      <trkpt lat="45.17917" lon="5.97958">
        <ele>2337</ele>
        <time>2021-02-27T07:58:20Z</time>
      </trkpt>
      <trkpt lat="45.17917" lon="5.97958">
        <ele>2337</ele>
        <time>2021-02-27T07:58:21Z</time>
      </trkpt>
      <trkpt lat="45.17917" lon="5.97958">
        <ele>2336.8</ele>
        <time>2021-02-27T07:58:22Z</time>
      </trkpt>
      <trkpt lat="45.17917" lon="5.97958">
        <ele>2337</ele>
        <time>2021-02-27T07:58:23Z</time>
      </trkpt>
      <trkpt lat="45.17917" lon="5.97958">
        <ele>2337.2</ele>
        <time>2021-02-27T07:58:24Z</time>
      </trkpt>
      <trkpt lat="45.17917" lon="5.97958">
        <ele>2337.4</ele>
        <time>2021-02-27T07:58:25Z</time>
      </trkpt>
      <trkpt lat="45.17917" lon="5.97958">
        <ele>2337.4</ele>
        <time>2021-02-27T07:58:26Z</time>
      </trkpt>
      <trkpt lat="45.17917" lon="5.97958">
        <ele>2337.2</ele>
        <time>2021-02-27T07:58:27Z</time>
      </trkpt>
      <trkpt lat="45.17917" lon="5.97958">
        <ele>2337.2</ele>
        <time>2021-02-27T07:58:28Z</time>
      </trkpt>
      <trkpt lat="45.17917" lon="5.97958">
        <ele>2337.4</ele>
        <time>2021-02-27T07:58:29Z</time>
      </trkpt>
      <trkpt lat="45.17917" lon="5.97958">
        <ele>2337.2</ele>
        <time>2021-02-27T07:58:30Z</time>
      </trkpt>
      <trkpt lat="45.17917" lon="5.97958">
        <ele>2337.4</ele>
        <time>2021-02-27T07:58:31Z</time>
      </trkpt>
      <trkpt lat="45.17917" lon="5.97958">
        <ele>2337.2</ele>
        <time>2021-02-27T07:58:32Z</time>
      </trkpt>
      <trkpt lat="45.17917" lon="5.97958">
        <ele>2337.2</ele>
        <time>2021-02-27T07:58:33Z</time>
      </trkpt>
      <trkpt lat="45.17917" lon="5.97958">
        <ele>2337</ele>
        <time>2021-02-27T07:58:34Z</time>
      </trkpt>
      <trkpt lat="45.17917" lon="5.97958">
        <ele>2336.6</ele>
        <time>2021-02-27T07:58:35Z</time>
      </trkpt>
      <trkpt lat="45.17917" lon="5.97961">
        <ele>2336.4</ele>
        <time>2021-02-27T07:58:36Z</time>
      </trkpt>
      <trkpt lat="45.17917" lon="5.97961">
        <ele>2336.2</ele>
        <time>2021-02-27T07:58:37Z</time>
      </trkpt>
      <trkpt lat="45.17917" lon="5.97961">
        <ele>2336</ele>
        <time>2021-02-27T07:58:38Z</time>
      </trkpt>
      <trkpt lat="45.17917" lon="5.97961">
        <ele>2336.2</ele>
        <time>2021-02-27T07:58:39Z</time>
      </trkpt>
      <trkpt lat="45.17917" lon="5.97961">
        <ele>2336</ele>
        <time>2021-02-27T07:58:40Z</time>
      </trkpt>
      <trkpt lat="45.17917" lon="5.97961">
        <ele>2335.8</ele>
        <time>2021-02-27T07:58:41Z</time>
      </trkpt>
      <trkpt lat="45.17917" lon="5.97961">
        <ele>2335.8</ele>
        <time>2021-02-27T07:58:42Z</time>
      </trkpt>
      <trkpt lat="45.17917" lon="5.97961">
        <ele>2335.8</ele>
        <time>2021-02-27T07:58:43Z</time>
      </trkpt>
      <trkpt lat="45.17917" lon="5.97961">
        <ele>2335.8</ele>
        <time>2021-02-27T07:58:44Z</time>
      </trkpt>
      <trkpt lat="45.17917" lon="5.97961">
        <ele>2335.8</ele>
        <time>2021-02-27T07:58:45Z</time>
      </trkpt>
      <trkpt lat="45.17917" lon="5.97961">
        <ele>2335.8</ele>
        <time>2021-02-27T07:58:46Z</time>
      </trkpt>
      <trkpt lat="45.17917" lon="5.97961">
        <ele>2335.8</ele>
        <time>2021-02-27T07:58:47Z</time>
      </trkpt>
      <trkpt lat="45.17917" lon="5.97961">
        <ele>2336</ele>
        <time>2021-02-27T07:58:48Z</time>
      </trkpt>
      <trkpt lat="45.17917" lon="5.97961">
        <ele>2336.6</ele>
        <time>2021-02-27T07:58:49Z</time>
      </trkpt>
      <trkpt lat="45.17917" lon="5.97961">
        <ele>2336.8</ele>
        <time>2021-02-27T07:58:50Z</time>
      </trkpt>
      <trkpt lat="45.17917" lon="5.97961">
        <ele>2337.2</ele>
        <time>2021-02-27T07:58:51Z</time>
      </trkpt>
      <trkpt lat="45.17917" lon="5.97961">
        <ele>2337.4</ele>
        <time>2021-02-27T07:58:52Z</time>
      </trkpt>
      <trkpt lat="45.17917" lon="5.97961">
        <ele>2337.4</ele>
        <time>2021-02-27T07:58:53Z</time>
      </trkpt>
      <trkpt lat="45.17917" lon="5.97961">
        <ele>2337.2</ele>
        <time>2021-02-27T07:58:54Z</time>
      </trkpt>
      <trkpt lat="45.17917" lon="5.97961">
        <ele>2337.4</ele>
        <time>2021-02-27T07:58:55Z</time>
      </trkpt>
      <trkpt lat="45.17917" lon="5.97961">
        <ele>2337.4</ele>
        <time>2021-02-27T07:58:56Z</time>
      </trkpt>
      <trkpt lat="45.17916" lon="5.97963">
        <ele>2337.4</ele>
        <time>2021-02-27T07:58:57Z</time>
      </trkpt>
      <trkpt lat="45.17916" lon="5.97963">
        <ele>2337.2</ele>
        <time>2021-02-27T07:58:58Z</time>
      </trkpt>
      <trkpt lat="45.17916" lon="5.97963">
        <ele>2337.2</ele>
        <time>2021-02-27T07:58:59Z</time>
      </trkpt>
      <trkpt lat="45.17916" lon="5.97963">
        <ele>2337</ele>
        <time>2021-02-27T07:59:00Z</time>
      </trkpt>
      <trkpt lat="45.17916" lon="5.97963">
        <ele>2337</ele>
        <time>2021-02-27T07:59:01Z</time>
      </trkpt>
      <trkpt lat="45.17916" lon="5.97963">
        <ele>2336.6</ele>
        <time>2021-02-27T07:59:02Z</time>
      </trkpt>
      <trkpt lat="45.17916" lon="5.97963">
        <ele>2336.2</ele>
        <time>2021-02-27T07:59:03Z</time>
      </trkpt>
      <trkpt lat="45.17916" lon="5.97963">
        <ele>2336</ele>
        <time>2021-02-27T07:59:04Z</time>
      </trkpt>
      <trkpt lat="45.17916" lon="5.97963">
        <ele>2336</ele>
        <time>2021-02-27T07:59:05Z</time>
      </trkpt>
      <trkpt lat="45.17916" lon="5.97963">
        <ele>2336</ele>
        <time>2021-02-27T07:59:06Z</time>
      </trkpt>
      <trkpt lat="45.17916" lon="5.97963">
        <ele>2336</ele>
        <time>2021-02-27T07:59:07Z</time>
      </trkpt>
      <trkpt lat="45.17916" lon="5.97963">
        <ele>2335.8</ele>
        <time>2021-02-27T07:59:08Z</time>
      </trkpt>
      <trkpt lat="45.17916" lon="5.97963">
        <ele>2335.8</ele>
        <time>2021-02-27T07:59:09Z</time>
      </trkpt>
      <trkpt lat="45.17916" lon="5.97963">
        <ele>2335.8</ele>
        <time>2021-02-27T07:59:10Z</time>
      </trkpt>
      <trkpt lat="45.17916" lon="5.97963">
        <ele>2335.6</ele>
        <time>2021-02-27T07:59:11Z</time>
      </trkpt>
      <trkpt lat="45.17916" lon="5.97963">
        <ele>2335.6</ele>
        <time>2021-02-27T07:59:12Z</time>
      </trkpt>
      <trkpt lat="45.17916" lon="5.97963">
        <ele>2335.4</ele>
        <time>2021-02-27T07:59:13Z</time>
      </trkpt>
      <trkpt lat="45.17916" lon="5.97963">
        <ele>2335.6</ele>
        <time>2021-02-27T07:59:14Z</time>
      </trkpt>
      <trkpt lat="45.17916" lon="5.97963">
        <ele>2335.4</ele>
        <time>2021-02-27T07:59:15Z</time>
      </trkpt>
      <trkpt lat="45.17916" lon="5.97963">
        <ele>2335.2</ele>
        <time>2021-02-27T07:59:16Z</time>
      </trkpt>
      <trkpt lat="45.17916" lon="5.97963">
        <ele>2335.4</ele>
        <time>2021-02-27T07:59:17Z</time>
      </trkpt>
      <trkpt lat="45.17916" lon="5.97963">
        <ele>2335.2</ele>
        <time>2021-02-27T07:59:18Z</time>
      </trkpt>
      <trkpt lat="45.17916" lon="5.97963">
        <ele>2335</ele>
        <time>2021-02-27T07:59:19Z</time>
      </trkpt>
      <trkpt lat="45.17916" lon="5.97963">
        <ele>2335</ele>
        <time>2021-02-27T07:59:20Z</time>
      </trkpt>
      <trkpt lat="45.17916" lon="5.97963">
        <ele>2335.2</ele>
        <time>2021-02-27T07:59:21Z</time>
      </trkpt>
      <trkpt lat="45.17916" lon="5.97963">
        <ele>2335.2</ele>
        <time>2021-02-27T07:59:22Z</time>
      </trkpt>
      <trkpt lat="45.17916" lon="5.97963">
        <ele>2335.6</ele>
        <time>2021-02-27T07:59:23Z</time>
      </trkpt>
      <trkpt lat="45.17916" lon="5.97963">
        <ele>2335.8</ele>
        <time>2021-02-27T07:59:24Z</time>
      </trkpt>
      <trkpt lat="45.17916" lon="5.97963">
        <ele>2336.2</ele>
        <time>2021-02-27T07:59:25Z</time>
      </trkpt>
      <trkpt lat="45.17916" lon="5.97963">
        <ele>2336.4</ele>
        <time>2021-02-27T07:59:26Z</time>
      </trkpt>
      <trkpt lat="45.17916" lon="5.97963">
        <ele>2336.8</ele>
        <time>2021-02-27T07:59:27Z</time>
      </trkpt>
      <trkpt lat="45.17916" lon="5.97963">
        <ele>2336.8</ele>
        <time>2021-02-27T07:59:28Z</time>
      </trkpt>
      <trkpt lat="45.17916" lon="5.97963">
        <ele>2336.8</ele>
        <time>2021-02-27T07:59:29Z</time>
      </trkpt>
      <trkpt lat="45.17916" lon="5.97963">
        <ele>2336.8</ele>
        <time>2021-02-27T07:59:30Z</time>
      </trkpt>
      <trkpt lat="45.17916" lon="5.97963">
        <ele>2336.8</ele>
        <time>2021-02-27T07:59:31Z</time>
      </trkpt>
      <trkpt lat="45.17916" lon="5.97963">
        <ele>2336.8</ele>
        <time>2021-02-27T07:59:32Z</time>
      </trkpt>
      <trkpt lat="45.17916" lon="5.97963">
        <ele>2336.4</ele>
        <time>2021-02-27T07:59:33Z</time>
      </trkpt>
      <trkpt lat="45.17916" lon="5.97963">
        <ele>2336</ele>
        <time>2021-02-27T07:59:34Z</time>
      </trkpt>
      <trkpt lat="45.17916" lon="5.97963">
        <ele>2335.8</ele>
        <time>2021-02-27T07:59:35Z</time>
      </trkpt>
      <trkpt lat="45.17914" lon="5.97963">
        <ele>2335.4</ele>
        <time>2021-02-27T07:59:36Z</time>
      </trkpt>
      <trkpt lat="45.17914" lon="5.97963">
        <ele>2335.4</ele>
        <time>2021-02-27T07:59:37Z</time>
      </trkpt>
      <trkpt lat="45.17914" lon="5.97963">
        <ele>2335.4</ele>
        <time>2021-02-27T07:59:38Z</time>
      </trkpt>
      <trkpt lat="45.17914" lon="5.97963">
        <ele>2335</ele>
        <time>2021-02-27T07:59:39Z</time>
      </trkpt>
      <trkpt lat="45.17914" lon="5.97963">
        <ele>2334.8</ele>
        <time>2021-02-27T07:59:40Z</time>
      </trkpt>
      <trkpt lat="45.17914" lon="5.97963">
        <ele>2335</ele>
        <time>2021-02-27T07:59:41Z</time>
      </trkpt>
      <trkpt lat="45.17914" lon="5.97963">
        <ele>2335.2</ele>
        <time>2021-02-27T07:59:42Z</time>
      </trkpt>
      <trkpt lat="45.17914" lon="5.97963">
        <ele>2335</ele>
        <time>2021-02-27T07:59:43Z</time>
      </trkpt>
      <trkpt lat="45.17914" lon="5.97963">
        <ele>2334.8</ele>
        <time>2021-02-27T07:59:44Z</time>
      </trkpt>
      <trkpt lat="45.17914" lon="5.97963">
        <ele>2334.6</ele>
        <time>2021-02-27T07:59:45Z</time>
      </trkpt>
      <trkpt lat="45.17914" lon="5.97963">
        <ele>2334.4</ele>
        <time>2021-02-27T07:59:46Z</time>
      </trkpt>
      <trkpt lat="45.17914" lon="5.97963">
        <ele>2334.4</ele>
        <time>2021-02-27T07:59:47Z</time>
      </trkpt>
      <trkpt lat="45.17914" lon="5.97963">
        <ele>2334.4</ele>
        <time>2021-02-27T07:59:48Z</time>
      </trkpt>
      <trkpt lat="45.17914" lon="5.97963">
        <ele>2334.2</ele>
        <time>2021-02-27T07:59:49Z</time>
      </trkpt>
      <trkpt lat="45.17914" lon="5.97963">
        <ele>2334.8</ele>
        <time>2021-02-27T07:59:50Z</time>
      </trkpt>
      <trkpt lat="45.17914" lon="5.97963">
        <ele>2334.8</ele>
        <time>2021-02-27T07:59:51Z</time>
      </trkpt>
      <trkpt lat="45.17914" lon="5.97963">
        <ele>2335</ele>
        <time>2021-02-27T07:59:52Z</time>
      </trkpt>
      <trkpt lat="45.17914" lon="5.97963">
        <ele>2335.2</ele>
        <time>2021-02-27T07:59:53Z</time>
      </trkpt>
      <trkpt lat="45.17914" lon="5.97963">
        <ele>2335.6</ele>
        <time>2021-02-27T07:59:54Z</time>
      </trkpt>
      <trkpt lat="45.17914" lon="5.97963">
        <ele>2335.6</ele>
        <time>2021-02-27T07:59:55Z</time>
      </trkpt>
      <trkpt lat="45.17914" lon="5.97963">
        <ele>2335.6</ele>
        <time>2021-02-27T07:59:56Z</time>
      </trkpt>
      <trkpt lat="45.17914" lon="5.97963">
        <ele>2335.8</ele>
        <time>2021-02-27T07:59:57Z</time>
      </trkpt>
      <trkpt lat="45.17914" lon="5.97963">
        <ele>2335.6</ele>
        <time>2021-02-27T07:59:58Z</time>
      </trkpt>
      <trkpt lat="45.17914" lon="5.97963">
        <ele>2335.4</ele>
        <time>2021-02-27T07:59:59Z</time>
      </trkpt>
      <trkpt lat="45.17914" lon="5.97963">
        <ele>2335.4</ele>
        <time>2021-02-27T08:00:00Z</time>
      </trkpt>
      <trkpt lat="45.17914" lon="5.97963">
        <ele>2335</ele>
        <time>2021-02-27T08:00:01Z</time>
      </trkpt>
      <trkpt lat="45.17914" lon="5.97963">
        <ele>2335</ele>
        <time>2021-02-27T08:00:02Z</time>
      </trkpt>
      <trkpt lat="45.17914" lon="5.97963">
        <ele>2334.8</ele>
        <time>2021-02-27T08:00:03Z</time>
      </trkpt>
      <trkpt lat="45.17914" lon="5.97963">
        <ele>2334.6</ele>
        <time>2021-02-27T08:00:04Z</time>
      </trkpt>
      <trkpt lat="45.17914" lon="5.97963">
        <ele>2334.6</ele>
        <time>2021-02-27T08:00:05Z</time>
      </trkpt>
      <trkpt lat="45.17914" lon="5.97963">
        <ele>2334.8</ele>
        <time>2021-02-27T08:00:06Z</time>
      </trkpt>
      <trkpt lat="45.17914" lon="5.97963">
        <ele>2335</ele>
        <time>2021-02-27T08:00:07Z</time>
      </trkpt>
      <trkpt lat="45.17914" lon="5.97963">
        <ele>2334.8</ele>
        <time>2021-02-27T08:00:08Z</time>
      </trkpt>
      <trkpt lat="45.17914" lon="5.97963">
        <ele>2334.6</ele>
        <time>2021-02-27T08:00:09Z</time>
      </trkpt>
      <trkpt lat="45.17916" lon="5.97963">
        <ele>2334.6</ele>
        <time>2021-02-27T08:00:10Z</time>
      </trkpt>
      <trkpt lat="45.17916" lon="5.97963">
        <ele>2334.6</ele>
        <time>2021-02-27T08:00:11Z</time>
      </trkpt>
      <trkpt lat="45.17916" lon="5.97963">
        <ele>2334.4</ele>
        <time>2021-02-27T08:00:12Z</time>
      </trkpt>
      <trkpt lat="45.17918" lon="5.97962">
        <ele>2334.4</ele>
        <time>2021-02-27T08:00:13Z</time>
      </trkpt>
      <trkpt lat="45.17918" lon="5.97962">
        <ele>2334.2</ele>
        <time>2021-02-27T08:00:14Z</time>
      </trkpt>
      <trkpt lat="45.17918" lon="5.97962">
        <ele>2334.6</ele>
        <time>2021-02-27T08:00:15Z</time>
      </trkpt>
      <trkpt lat="45.17918" lon="5.97962">
        <ele>2334.8</ele>
        <time>2021-02-27T08:00:16Z</time>
      </trkpt>
      <trkpt lat="45.17918" lon="5.97962">
        <ele>2335</ele>
        <time>2021-02-27T08:00:17Z</time>
      </trkpt>
      <trkpt lat="45.1792" lon="5.97959">
        <ele>2335</ele>
        <time>2021-02-27T08:00:18Z</time>
      </trkpt>
      <trkpt lat="45.1792" lon="5.97959">
        <ele>2335.2</ele>
        <time>2021-02-27T08:00:19Z</time>
      </trkpt>
      <trkpt lat="45.1792" lon="5.97959">
        <ele>2335.4</ele>
        <time>2021-02-27T08:00:20Z</time>
      </trkpt>
      <trkpt lat="45.1792" lon="5.97959">
        <ele>2335.8</ele>
        <time>2021-02-27T08:00:21Z</time>
      </trkpt>
      <trkpt lat="45.1792" lon="5.97959">
        <ele>2335.8</ele>
        <time>2021-02-27T08:00:22Z</time>
      </trkpt>
      <trkpt lat="45.1792" lon="5.97959">
        <ele>2335.8</ele>
        <time>2021-02-27T08:00:23Z</time>
      </trkpt>
      <trkpt lat="45.1792" lon="5.97959">
        <ele>2336</ele>
        <time>2021-02-27T08:00:24Z</time>
      </trkpt>
      <trkpt lat="45.1792" lon="5.97959">
        <ele>2335.8</ele>
        <time>2021-02-27T08:00:25Z</time>
      </trkpt>
      <trkpt lat="45.1792" lon="5.97959">
        <ele>2336</ele>
        <time>2021-02-27T08:00:26Z</time>
      </trkpt>
      <trkpt lat="45.1792" lon="5.97959">
        <ele>2335.8</ele>
        <time>2021-02-27T08:00:27Z</time>
      </trkpt>
      <trkpt lat="45.1792" lon="5.97959">
        <ele>2335.8</ele>
        <time>2021-02-27T08:00:28Z</time>
      </trkpt>
      <trkpt lat="45.1792" lon="5.97959">
        <ele>2335.6</ele>
        <time>2021-02-27T08:00:29Z</time>
      </trkpt>
      <trkpt lat="45.1792" lon="5.97959">
        <ele>2335.6</ele>
        <time>2021-02-27T08:00:30Z</time>
      </trkpt>
      <trkpt lat="45.1792" lon="5.97959">
        <ele>2335.4</ele>
        <time>2021-02-27T08:00:31Z</time>
      </trkpt>
      <trkpt lat="45.1792" lon="5.97959">
        <ele>2335.4</ele>
        <time>2021-02-27T08:00:32Z</time>
      </trkpt>
      <trkpt lat="45.1792" lon="5.97959">
        <ele>2335.2</ele>
        <time>2021-02-27T08:00:33Z</time>
      </trkpt>
      <trkpt lat="45.1792" lon="5.97959">
        <ele>2335</ele>
        <time>2021-02-27T08:00:34Z</time>
      </trkpt>
      <trkpt lat="45.1792" lon="5.97959">
        <ele>2335</ele>
        <time>2021-02-27T08:00:35Z</time>
      </trkpt>
      <trkpt lat="45.1792" lon="5.97959">
        <ele>2334.8</ele>
        <time>2021-02-27T08:00:36Z</time>
      </trkpt>
      <trkpt lat="45.1792" lon="5.97959">
        <ele>2334.8</ele>
        <time>2021-02-27T08:00:37Z</time>
      </trkpt>
      <trkpt lat="45.17918" lon="5.9796">
        <ele>2334.8</ele>
        <time>2021-02-27T08:00:38Z</time>
      </trkpt>
      <trkpt lat="45.17918" lon="5.9796">
        <ele>2334.6</ele>
        <time>2021-02-27T08:00:39Z</time>
      </trkpt>
      <trkpt lat="45.17918" lon="5.9796">
        <ele>2334.6</ele>
        <time>2021-02-27T08:00:40Z</time>
      </trkpt>
      <trkpt lat="45.17918" lon="5.9796">
        <ele>2334.4</ele>
        <time>2021-02-27T08:00:41Z</time>
      </trkpt>
      <trkpt lat="45.17918" lon="5.9796">
        <ele>2334.4</ele>
        <time>2021-02-27T08:00:42Z</time>
      </trkpt>
      <trkpt lat="45.17918" lon="5.9796">
        <ele>2334.4</ele>
        <time>2021-02-27T08:00:43Z</time>
      </trkpt>
      <trkpt lat="45.17918" lon="5.9796">
        <ele>2334.4</ele>
        <time>2021-02-27T08:00:44Z</time>
      </trkpt>
      <trkpt lat="45.17918" lon="5.9796">
        <ele>2334.6</ele>
        <time>2021-02-27T08:00:45Z</time>
      </trkpt>
      <trkpt lat="45.17918" lon="5.9796">
        <ele>2334.4</ele>
        <time>2021-02-27T08:00:46Z</time>
      </trkpt>
      <trkpt lat="45.17918" lon="5.9796">
        <ele>2334.2</ele>
        <time>2021-02-27T08:00:47Z</time>
      </trkpt>
      <trkpt lat="45.17918" lon="5.9796">
        <ele>2334</ele>
        <time>2021-02-27T08:00:48Z</time>
      </trkpt>
      <trkpt lat="45.17918" lon="5.9796">
        <ele>2333.8</ele>
        <time>2021-02-27T08:00:49Z</time>
      </trkpt>
      <trkpt lat="45.17918" lon="5.9796">
        <ele>2333.6</ele>
        <time>2021-02-27T08:00:50Z</time>
      </trkpt>
      <trkpt lat="45.17918" lon="5.9796">
        <ele>2333.4</ele>
        <time>2021-02-27T08:00:51Z</time>
      </trkpt>
      <trkpt lat="45.17918" lon="5.9796">
        <ele>2333.4</ele>
        <time>2021-02-27T08:00:52Z</time>
      </trkpt>
      <trkpt lat="45.17918" lon="5.9796">
        <ele>2333.4</ele>
        <time>2021-02-27T08:00:53Z</time>
      </trkpt>
      <trkpt lat="45.17918" lon="5.9796">
        <ele>2333.6</ele>
        <time>2021-02-27T08:00:54Z</time>
      </trkpt>
      <trkpt lat="45.17918" lon="5.9796">
        <ele>2333.4</ele>
        <time>2021-02-27T08:00:55Z</time>
      </trkpt>
      <trkpt lat="45.17918" lon="5.9796">
        <ele>2333.4</ele>
        <time>2021-02-27T08:00:56Z</time>
      </trkpt>
      <trkpt lat="45.17918" lon="5.9796">
        <ele>2333.4</ele>
        <time>2021-02-27T08:00:57Z</time>
      </trkpt>
      <trkpt lat="45.17918" lon="5.9796">
        <ele>2333.6</ele>
        <time>2021-02-27T08:00:58Z</time>
      </trkpt>
      <trkpt lat="45.17919" lon="5.97964">
        <ele>2333.8</ele>
        <time>2021-02-27T08:00:59Z</time>
      </trkpt>
      <trkpt lat="45.17919" lon="5.97964">
        <ele>2334</ele>
        <time>2021-02-27T08:01:00Z</time>
      </trkpt>
      <trkpt lat="45.17921" lon="5.97966">
        <ele>2334</ele>
        <time>2021-02-27T08:01:01Z</time>
      </trkpt>
      <trkpt lat="45.17921" lon="5.97966">
        <ele>2334</ele>
        <time>2021-02-27T08:01:02Z</time>
      </trkpt>
      <trkpt lat="45.17922" lon="5.97968">
        <ele>2334</ele>
        <time>2021-02-27T08:01:03Z</time>
      </trkpt>
      <trkpt lat="45.17922" lon="5.97968">
        <ele>2334.2</ele>
        <time>2021-02-27T08:01:04Z</time>
      </trkpt>
      <trkpt lat="45.17922" lon="5.97968">
        <ele>2334.4</ele>
        <time>2021-02-27T08:01:05Z</time>
      </trkpt>
      <trkpt lat="45.17923" lon="5.97971">
        <ele>2334.6</ele>
        <time>2021-02-27T08:01:06Z</time>
      </trkpt>
      <trkpt lat="45.17923" lon="5.97971">
        <ele>2335</ele>
        <time>2021-02-27T08:01:07Z</time>
      </trkpt>
      <trkpt lat="45.17923" lon="5.97971">
        <ele>2335.2</ele>
        <time>2021-02-27T08:01:08Z</time>
      </trkpt>
      <trkpt lat="45.17923" lon="5.97971">
        <ele>2335.6</ele>
        <time>2021-02-27T08:01:09Z</time>
      </trkpt>
      <trkpt lat="45.17922" lon="5.97976">
        <ele>2335.6</ele>
        <time>2021-02-27T08:01:10Z</time>
      </trkpt>
      <trkpt lat="45.17922" lon="5.97976">
        <ele>2335.6</ele>
        <time>2021-02-27T08:01:11Z</time>
      </trkpt>
      <trkpt lat="45.17922" lon="5.97976">
        <ele>2336</ele>
        <time>2021-02-27T08:01:12Z</time>
      </trkpt>
      <trkpt lat="45.17922" lon="5.97976">
        <ele>2335.8</ele>
        <time>2021-02-27T08:01:13Z</time>
      </trkpt>
      <trkpt lat="45.17921" lon="5.9798">
        <ele>2336</ele>
        <time>2021-02-27T08:01:14Z</time>
      </trkpt>
      <trkpt lat="45.17921" lon="5.9798">
        <ele>2336.4</ele>
        <time>2021-02-27T08:01:15Z</time>
      </trkpt>
      <trkpt lat="45.17921" lon="5.97983">
        <ele>2336.6</ele>
        <time>2021-02-27T08:01:16Z</time>
      </trkpt>
      <trkpt lat="45.17921" lon="5.97983">
        <ele>2336.6</ele>
        <time>2021-02-27T08:01:17Z</time>
      </trkpt>
      <trkpt lat="45.17921" lon="5.97983">
        <ele>2337</ele>
        <time>2021-02-27T08:01:18Z</time>
      </trkpt>
      <trkpt lat="45.17921" lon="5.97983">
        <ele>2337</ele>
        <time>2021-02-27T08:01:19Z</time>
      </trkpt>
      <trkpt lat="45.17921" lon="5.97983">
        <ele>2337.2</ele>
        <time>2021-02-27T08:01:20Z</time>
      </trkpt>
      <trkpt lat="45.17921" lon="5.97983">
        <ele>2337.6</ele>
        <time>2021-02-27T08:01:21Z</time>
      </trkpt>
      <trkpt lat="45.17923" lon="5.97984">
        <ele>2337.8</ele>
        <time>2021-02-27T08:01:22Z</time>
      </trkpt>
      <trkpt lat="45.17923" lon="5.97984">
        <ele>2338</ele>
        <time>2021-02-27T08:01:23Z</time>
      </trkpt>
      <trkpt lat="45.17923" lon="5.97984">
        <ele>2338</ele>
        <time>2021-02-27T08:01:24Z</time>
      </trkpt>
      <trkpt lat="45.17926" lon="5.97984">
        <ele>2338.4</ele>
        <time>2021-02-27T08:01:25Z</time>
      </trkpt>
      <trkpt lat="45.17926" lon="5.97984">
        <ele>2338.8</ele>
        <time>2021-02-27T08:01:26Z</time>
      </trkpt>
      <trkpt lat="45.17927" lon="5.97985">
        <ele>2338.6</ele>
        <time>2021-02-27T08:01:27Z</time>
      </trkpt>
      <trkpt lat="45.17927" lon="5.97985">
        <ele>2339</ele>
        <time>2021-02-27T08:01:28Z</time>
      </trkpt>
      <trkpt lat="45.17928" lon="5.97986">
        <ele>2339.2</ele>
        <time>2021-02-27T08:01:29Z</time>
      </trkpt>
      <trkpt lat="45.17929" lon="5.97986">
        <ele>2339.4</ele>
        <time>2021-02-27T08:01:30Z</time>
      </trkpt>
      <trkpt lat="45.1793" lon="5.97986">
        <ele>2339.6</ele>
        <time>2021-02-27T08:01:31Z</time>
      </trkpt>
      <trkpt lat="45.17931" lon="5.97987">
        <ele>2339.6</ele>
        <time>2021-02-27T08:01:32Z</time>
      </trkpt>
      <trkpt lat="45.17932" lon="5.97987">
        <ele>2340</ele>
        <time>2021-02-27T08:01:33Z</time>
      </trkpt>
      <trkpt lat="45.17932" lon="5.97988">
        <ele>2340</ele>
        <time>2021-02-27T08:01:34Z</time>
      </trkpt>
      <trkpt lat="45.17933" lon="5.97988">
        <ele>2340.4</ele>
        <time>2021-02-27T08:01:35Z</time>
      </trkpt>
      <trkpt lat="45.17933" lon="5.97989">
        <ele>2340.6</ele>
        <time>2021-02-27T08:01:36Z</time>
      </trkpt>
      <trkpt lat="45.17933" lon="5.9799">
        <ele>2340.8</ele>
        <time>2021-02-27T08:01:37Z</time>
      </trkpt>
      <trkpt lat="45.17933" lon="5.97992">
        <ele>2341</ele>
        <time>2021-02-27T08:01:38Z</time>
      </trkpt>
      <trkpt lat="45.17933" lon="5.97993">
        <ele>2341.2</ele>
        <time>2021-02-27T08:01:39Z</time>
      </trkpt>
      <trkpt lat="45.17933" lon="5.97994">
        <ele>2341.2</ele>
        <time>2021-02-27T08:01:40Z</time>
      </trkpt>
      <trkpt lat="45.17934" lon="5.97995">
        <ele>2341.6</ele>
        <time>2021-02-27T08:01:41Z</time>
      </trkpt>
      <trkpt lat="45.17934" lon="5.97996">
        <ele>2342.2</ele>
        <time>2021-02-27T08:01:42Z</time>
      </trkpt>
      <trkpt lat="45.17934" lon="5.97998">
        <ele>2342.6</ele>
        <time>2021-02-27T08:01:43Z</time>
      </trkpt>
      <trkpt lat="45.17934" lon="5.97999">
        <ele>2342.8</ele>
        <time>2021-02-27T08:01:44Z</time>
      </trkpt>
      <trkpt lat="45.17934" lon="5.98">
        <ele>2343</ele>
        <time>2021-02-27T08:01:45Z</time>
      </trkpt>
      <trkpt lat="45.17934" lon="5.98001">
        <ele>2343</ele>
        <time>2021-02-27T08:01:46Z</time>
      </trkpt>
      <trkpt lat="45.17934" lon="5.98002">
        <ele>2343.4</ele>
        <time>2021-02-27T08:01:47Z</time>
      </trkpt>
      <trkpt lat="45.17933" lon="5.98003">
        <ele>2343.6</ele>
        <time>2021-02-27T08:01:48Z</time>
      </trkpt>
      <trkpt lat="45.17933" lon="5.98005">
        <ele>2343.6</ele>
        <time>2021-02-27T08:01:49Z</time>
      </trkpt>
      <trkpt lat="45.17933" lon="5.98006">
        <ele>2344.2</ele>
        <time>2021-02-27T08:01:50Z</time>
      </trkpt>
      <trkpt lat="45.17932" lon="5.98007">
        <ele>2344.2</ele>
        <time>2021-02-27T08:01:51Z</time>
      </trkpt>
      <trkpt lat="45.17932" lon="5.98008">
        <ele>2344</ele>
        <time>2021-02-27T08:01:52Z</time>
      </trkpt>
      <trkpt lat="45.17932" lon="5.98009">
        <ele>2344.6</ele>
        <time>2021-02-27T08:01:53Z</time>
      </trkpt>
      <trkpt lat="45.17932" lon="5.9801">
        <ele>2345</ele>
        <time>2021-02-27T08:01:54Z</time>
      </trkpt>
      <trkpt lat="45.17931" lon="5.98011">
        <ele>2345.2</ele>
        <time>2021-02-27T08:01:55Z</time>
      </trkpt>
      <trkpt lat="45.17931" lon="5.98012">
        <ele>2345.6</ele>
        <time>2021-02-27T08:01:56Z</time>
      </trkpt>
      <trkpt lat="45.17931" lon="5.98013">
        <ele>2345.8</ele>
        <time>2021-02-27T08:01:57Z</time>
      </trkpt>
      <trkpt lat="45.17931" lon="5.98013">
        <ele>2345.8</ele>
        <time>2021-02-27T08:01:58Z</time>
      </trkpt>
      <trkpt lat="45.17931" lon="5.98017">
        <ele>2346.6</ele>
        <time>2021-02-27T08:01:59Z</time>
      </trkpt>
      <trkpt lat="45.17931" lon="5.98017">
        <ele>2346.4</ele>
        <time>2021-02-27T08:02:00Z</time>
      </trkpt>
      <trkpt lat="45.17931" lon="5.98019">
        <ele>2346.6</ele>
        <time>2021-02-27T08:02:01Z</time>
      </trkpt>
      <trkpt lat="45.17931" lon="5.9802">
        <ele>2347.4</ele>
        <time>2021-02-27T08:02:02Z</time>
      </trkpt>
      <trkpt lat="45.17931" lon="5.98021">
        <ele>2347.4</ele>
        <time>2021-02-27T08:02:03Z</time>
      </trkpt>
      <trkpt lat="45.17931" lon="5.98022">
        <ele>2347.8</ele>
        <time>2021-02-27T08:02:04Z</time>
      </trkpt>
      <trkpt lat="45.17931" lon="5.98024">
        <ele>2347.8</ele>
        <time>2021-02-27T08:02:05Z</time>
      </trkpt>
      <trkpt lat="45.17931" lon="5.98025">
        <ele>2348.4</ele>
        <time>2021-02-27T08:02:06Z</time>
      </trkpt>
      <trkpt lat="45.17932" lon="5.98026">
        <ele>2348.8</ele>
        <time>2021-02-27T08:02:07Z</time>
      </trkpt>
      <trkpt lat="45.17932" lon="5.98026">
        <ele>2349</ele>
        <time>2021-02-27T08:02:08Z</time>
      </trkpt>
      <trkpt lat="45.17932" lon="5.98026">
        <ele>2349.4</ele>
        <time>2021-02-27T08:02:09Z</time>
      </trkpt>
      <trkpt lat="45.17932" lon="5.98026">
        <ele>2349.8</ele>
        <time>2021-02-27T08:02:10Z</time>
      </trkpt>
      <trkpt lat="45.17932" lon="5.98026">
        <ele>2350.2</ele>
        <time>2021-02-27T08:02:11Z</time>
      </trkpt>
      <trkpt lat="45.17932" lon="5.98026">
        <ele>2350.2</ele>
        <time>2021-02-27T08:02:12Z</time>
      </trkpt>
      <trkpt lat="45.17934" lon="5.98027">
        <ele>2350.4</ele>
        <time>2021-02-27T08:02:13Z</time>
      </trkpt>
      <trkpt lat="45.17934" lon="5.98027">
        <ele>2350.6</ele>
        <time>2021-02-27T08:02:14Z</time>
      </trkpt>
      <trkpt lat="45.17936" lon="5.98027">
        <ele>2350.4</ele>
        <time>2021-02-27T08:02:15Z</time>
      </trkpt>
      <trkpt lat="45.17936" lon="5.98027">
        <ele>2351</ele>
        <time>2021-02-27T08:02:16Z</time>
      </trkpt>
      <trkpt lat="45.17937" lon="5.98027">
        <ele>2351.2</ele>
        <time>2021-02-27T08:02:17Z</time>
      </trkpt>
      <trkpt lat="45.17938" lon="5.98027">
        <ele>2351.4</ele>
        <time>2021-02-27T08:02:18Z</time>
      </trkpt>
      <trkpt lat="45.17938" lon="5.98027">
        <ele>2351.6</ele>
        <time>2021-02-27T08:02:19Z</time>
      </trkpt>
      <trkpt lat="45.17939" lon="5.98026">
        <ele>2352</ele>
        <time>2021-02-27T08:02:20Z</time>
      </trkpt>
      <trkpt lat="45.1794" lon="5.98026">
        <ele>2352.4</ele>
        <time>2021-02-27T08:02:21Z</time>
      </trkpt>
      <trkpt lat="45.1794" lon="5.98026">
        <ele>2352.6</ele>
        <time>2021-02-27T08:02:22Z</time>
      </trkpt>
      <trkpt lat="45.17941" lon="5.98026">
        <ele>2352.8</ele>
        <time>2021-02-27T08:02:23Z</time>
      </trkpt>
      <trkpt lat="45.17942" lon="5.98025">
        <ele>2353</ele>
        <time>2021-02-27T08:02:24Z</time>
      </trkpt>
      <trkpt lat="45.17942" lon="5.98025">
        <ele>2353</ele>
        <time>2021-02-27T08:02:25Z</time>
      </trkpt>
      <trkpt lat="45.17943" lon="5.98025">
        <ele>2353.4</ele>
        <time>2021-02-27T08:02:26Z</time>
      </trkpt>
      <trkpt lat="45.17944" lon="5.98025">
        <ele>2353.6</ele>
        <time>2021-02-27T08:02:27Z</time>
      </trkpt>
      <trkpt lat="45.17944" lon="5.98025">
        <ele>2353.8</ele>
        <time>2021-02-27T08:02:28Z</time>
      </trkpt>
      <trkpt lat="45.17946" lon="5.98024">
        <ele>2354</ele>
        <time>2021-02-27T08:02:29Z</time>
      </trkpt>
      <trkpt lat="45.17946" lon="5.98024">
        <ele>2354.4</ele>
        <time>2021-02-27T08:02:30Z</time>
      </trkpt>
      <trkpt lat="45.17948" lon="5.98024">
        <ele>2354.6</ele>
        <time>2021-02-27T08:02:31Z</time>
      </trkpt>
      <trkpt lat="45.17948" lon="5.98024">
        <ele>2355</ele>
        <time>2021-02-27T08:02:32Z</time>
      </trkpt>
      <trkpt lat="45.1795" lon="5.98023">
        <ele>2355.4</ele>
        <time>2021-02-27T08:02:33Z</time>
      </trkpt>
      <trkpt lat="45.1795" lon="5.98023">
        <ele>2355.6</ele>
        <time>2021-02-27T08:02:34Z</time>
      </trkpt>
      <trkpt lat="45.17952" lon="5.98023">
        <ele>2356</ele>
        <time>2021-02-27T08:02:35Z</time>
      </trkpt>
      <trkpt lat="45.17952" lon="5.98023">
        <ele>2356.2</ele>
        <time>2021-02-27T08:02:36Z</time>
      </trkpt>
      <trkpt lat="45.17954" lon="5.98025">
        <ele>2356.4</ele>
        <time>2021-02-27T08:02:37Z</time>
      </trkpt>
      <trkpt lat="45.17954" lon="5.98025">
        <ele>2356.6</ele>
        <time>2021-02-27T08:02:38Z</time>
      </trkpt>
      <trkpt lat="45.17954" lon="5.98025">
        <ele>2356.8</ele>
        <time>2021-02-27T08:02:39Z</time>
      </trkpt>
      <trkpt lat="45.17957" lon="5.98027">
        <ele>2357.2</ele>
        <time>2021-02-27T08:02:40Z</time>
      </trkpt>
      <trkpt lat="45.17957" lon="5.98027">
        <ele>2357</ele>
        <time>2021-02-27T08:02:41Z</time>
      </trkpt>
      <trkpt lat="45.17959" lon="5.9803">
        <ele>2357.4</ele>
        <time>2021-02-27T08:02:42Z</time>
      </trkpt>
      <trkpt lat="45.17959" lon="5.9803">
        <ele>2357.6</ele>
        <time>2021-02-27T08:02:43Z</time>
      </trkpt>
      <trkpt lat="45.1796" lon="5.98033">
        <ele>2358</ele>
        <time>2021-02-27T08:02:44Z</time>
      </trkpt>
      <trkpt lat="45.1796" lon="5.98033">
        <ele>2358</ele>
        <time>2021-02-27T08:02:45Z</time>
      </trkpt>
      <trkpt lat="45.17961" lon="5.98035">
        <ele>2358.6</ele>
        <time>2021-02-27T08:02:46Z</time>
      </trkpt>
      <trkpt lat="45.17961" lon="5.98035">
        <ele>2358.6</ele>
        <time>2021-02-27T08:02:47Z</time>
      </trkpt>
      <trkpt lat="45.17961" lon="5.98035">
        <ele>2359</ele>
        <time>2021-02-27T08:02:48Z</time>
      </trkpt>
      <trkpt lat="45.17962" lon="5.98039">
        <ele>2359.2</ele>
        <time>2021-02-27T08:02:49Z</time>
      </trkpt>
      <trkpt lat="45.17962" lon="5.98039">
        <ele>2359.4</ele>
        <time>2021-02-27T08:02:50Z</time>
      </trkpt>
      <trkpt lat="45.17962" lon="5.98039">
        <ele>2360</ele>
        <time>2021-02-27T08:02:51Z</time>
      </trkpt>
      <trkpt lat="45.17962" lon="5.98042">
        <ele>2360.2</ele>
        <time>2021-02-27T08:02:52Z</time>
      </trkpt>
      <trkpt lat="45.17962" lon="5.98042">
        <ele>2360.4</ele>
        <time>2021-02-27T08:02:53Z</time>
      </trkpt>
      <trkpt lat="45.17961" lon="5.98045">
        <ele>2360.6</ele>
        <time>2021-02-27T08:02:54Z</time>
      </trkpt>
      <trkpt lat="45.17961" lon="5.98045">
        <ele>2361</ele>
        <time>2021-02-27T08:02:55Z</time>
      </trkpt>
      <trkpt lat="45.17961" lon="5.98048">
        <ele>2361.2</ele>
        <time>2021-02-27T08:02:56Z</time>
      </trkpt>
      <trkpt lat="45.17961" lon="5.98048">
        <ele>2361.4</ele>
        <time>2021-02-27T08:02:57Z</time>
      </trkpt>
      <trkpt lat="45.17961" lon="5.98051">
        <ele>2361.8</ele>
        <time>2021-02-27T08:02:58Z</time>
      </trkpt>
      <trkpt lat="45.17961" lon="5.98051">
        <ele>2361.8</ele>
        <time>2021-02-27T08:02:59Z</time>
      </trkpt>
      <trkpt lat="45.17961" lon="5.98054">
        <ele>2362.2</ele>
        <time>2021-02-27T08:03:00Z</time>
      </trkpt>
      <trkpt lat="45.17961" lon="5.98054">
        <ele>2362.4</ele>
        <time>2021-02-27T08:03:01Z</time>
      </trkpt>
      <trkpt lat="45.17961" lon="5.98057">
        <ele>2362.6</ele>
        <time>2021-02-27T08:03:02Z</time>
      </trkpt>
      <trkpt lat="45.17961" lon="5.98057">
        <ele>2363</ele>
        <time>2021-02-27T08:03:03Z</time>
      </trkpt>
      <trkpt lat="45.17961" lon="5.98057">
        <ele>2363.2</ele>
        <time>2021-02-27T08:03:04Z</time>
      </trkpt>
      <trkpt lat="45.17961" lon="5.9806">
        <ele>2363.2</ele>
        <time>2021-02-27T08:03:05Z</time>
      </trkpt>
      <trkpt lat="45.17961" lon="5.9806">
        <ele>2363.8</ele>
        <time>2021-02-27T08:03:06Z</time>
      </trkpt>
      <trkpt lat="45.17961" lon="5.9806">
        <ele>2364</ele>
        <time>2021-02-27T08:03:07Z</time>
      </trkpt>
      <trkpt lat="45.17961" lon="5.9806">
        <ele>2364.2</ele>
        <time>2021-02-27T08:03:08Z</time>
      </trkpt>
      <trkpt lat="45.17962" lon="5.98063">
        <ele>2364.2</ele>
        <time>2021-02-27T08:03:09Z</time>
      </trkpt>
      <trkpt lat="45.17962" lon="5.98063">
        <ele>2364.8</ele>
        <time>2021-02-27T08:03:10Z</time>
      </trkpt>
      <trkpt lat="45.17963" lon="5.98063">
        <ele>2365</ele>
        <time>2021-02-27T08:03:11Z</time>
      </trkpt>
      <trkpt lat="45.17963" lon="5.98064">
        <ele>2365.4</ele>
        <time>2021-02-27T08:03:12Z</time>
      </trkpt>
      <trkpt lat="45.17964" lon="5.98064">
        <ele>2365.4</ele>
        <time>2021-02-27T08:03:13Z</time>
      </trkpt>
      <trkpt lat="45.17965" lon="5.98065">
        <ele>2365.4</ele>
        <time>2021-02-27T08:03:14Z</time>
      </trkpt>
      <trkpt lat="45.17965" lon="5.98065">
        <ele>2365.8</ele>
        <time>2021-02-27T08:03:15Z</time>
      </trkpt>
      <trkpt lat="45.17966" lon="5.98066">
        <ele>2365.8</ele>
        <time>2021-02-27T08:03:16Z</time>
      </trkpt>
      <trkpt lat="45.17967" lon="5.98066">
        <ele>2366.2</ele>
        <time>2021-02-27T08:03:17Z</time>
      </trkpt>
      <trkpt lat="45.17967" lon="5.98067">
        <ele>2366.6</ele>
        <time>2021-02-27T08:03:18Z</time>
      </trkpt>
      <trkpt lat="45.17968" lon="5.98067">
        <ele>2367</ele>
        <time>2021-02-27T08:03:19Z</time>
      </trkpt>
      <trkpt lat="45.17969" lon="5.98068">
        <ele>2367</ele>
        <time>2021-02-27T08:03:20Z</time>
      </trkpt>
      <trkpt lat="45.17969" lon="5.98068">
        <ele>2367.6</ele>
        <time>2021-02-27T08:03:21Z</time>
      </trkpt>
      <trkpt lat="45.1797" lon="5.98069">
        <ele>2367.8</ele>
        <time>2021-02-27T08:03:22Z</time>
      </trkpt>
      <trkpt lat="45.1797" lon="5.98069">
        <ele>2368.4</ele>
        <time>2021-02-27T08:03:23Z</time>
      </trkpt>
      <trkpt lat="45.17971" lon="5.98069">
        <ele>2368.4</ele>
        <time>2021-02-27T08:03:24Z</time>
      </trkpt>
      <trkpt lat="45.17972" lon="5.98069">
        <ele>2368.8</ele>
        <time>2021-02-27T08:03:25Z</time>
      </trkpt>
      <trkpt lat="45.17972" lon="5.9807">
        <ele>2369.6</ele>
        <time>2021-02-27T08:03:26Z</time>
      </trkpt>
      <trkpt lat="45.17973" lon="5.9807">
        <ele>2370</ele>
        <time>2021-02-27T08:03:27Z</time>
      </trkpt>
      <trkpt lat="45.17974" lon="5.9807">
        <ele>2370.2</ele>
        <time>2021-02-27T08:03:28Z</time>
      </trkpt>
      <trkpt lat="45.17974" lon="5.9807">
        <ele>2370.6</ele>
        <time>2021-02-27T08:03:29Z</time>
      </trkpt>
      <trkpt lat="45.17975" lon="5.9807">
        <ele>2371</ele>
        <time>2021-02-27T08:03:30Z</time>
      </trkpt>
      <trkpt lat="45.17976" lon="5.9807">
        <ele>2370.8</ele>
        <time>2021-02-27T08:03:31Z</time>
      </trkpt>
      <trkpt lat="45.17976" lon="5.9807">
        <ele>2371.2</ele>
        <time>2021-02-27T08:03:32Z</time>
      </trkpt>
      <trkpt lat="45.17976" lon="5.9807">
        <ele>2371.6</ele>
        <time>2021-02-27T08:03:33Z</time>
      </trkpt>
      <trkpt lat="45.17979" lon="5.9807">
        <ele>2372</ele>
        <time>2021-02-27T08:03:34Z</time>
      </trkpt>
      <trkpt lat="45.17979" lon="5.9807">
        <ele>2372</ele>
        <time>2021-02-27T08:03:35Z</time>
      </trkpt>
      <trkpt lat="45.17979" lon="5.9807">
        <ele>2372.2</ele>
        <time>2021-02-27T08:03:36Z</time>
      </trkpt>
      <trkpt lat="45.17983" lon="5.9807">
        <ele>2372.4</ele>
        <time>2021-02-27T08:03:37Z</time>
      </trkpt>
      <trkpt lat="45.17983" lon="5.9807">
        <ele>2372.6</ele>
        <time>2021-02-27T08:03:38Z</time>
      </trkpt>
      <trkpt lat="45.17986" lon="5.98069">
        <ele>2372.6</ele>
        <time>2021-02-27T08:03:39Z</time>
      </trkpt>
      <trkpt lat="45.17986" lon="5.98069">
        <ele>2372.8</ele>
        <time>2021-02-27T08:03:40Z</time>
      </trkpt>
      <trkpt lat="45.17988" lon="5.98068">
        <ele>2372.8</ele>
        <time>2021-02-27T08:03:41Z</time>
      </trkpt>
      <trkpt lat="45.17988" lon="5.98068">
        <ele>2372.6</ele>
        <time>2021-02-27T08:03:42Z</time>
      </trkpt>
      <trkpt lat="45.17991" lon="5.98067">
        <ele>2372.8</ele>
        <time>2021-02-27T08:03:43Z</time>
      </trkpt>
      <trkpt lat="45.17991" lon="5.98067">
        <ele>2372.8</ele>
        <time>2021-02-27T08:03:44Z</time>
      </trkpt>
      <trkpt lat="45.17994" lon="5.98065">
        <ele>2373</ele>
        <time>2021-02-27T08:03:45Z</time>
      </trkpt>
      <trkpt lat="45.17994" lon="5.98065">
        <ele>2372.6</ele>
        <time>2021-02-27T08:03:46Z</time>
      </trkpt>
      <trkpt lat="45.17997" lon="5.98063">
        <ele>2372.4</ele>
        <time>2021-02-27T08:03:47Z</time>
      </trkpt>
      <trkpt lat="45.17999" lon="5.98062">
        <ele>2372.6</ele>
        <time>2021-02-27T08:03:48Z</time>
      </trkpt>
      <trkpt lat="45.17999" lon="5.98062">
        <ele>2372.8</ele>
        <time>2021-02-27T08:03:49Z</time>
      </trkpt>
      <trkpt lat="45.18002" lon="5.9806">
        <ele>2372.6</ele>
        <time>2021-02-27T08:03:50Z</time>
      </trkpt>
      <trkpt lat="45.18002" lon="5.9806">
        <ele>2372.6</ele>
        <time>2021-02-27T08:03:51Z</time>
      </trkpt>
      <trkpt lat="45.18005" lon="5.98058">
        <ele>2372.6</ele>
        <time>2021-02-27T08:03:52Z</time>
      </trkpt>
      <trkpt lat="45.18005" lon="5.98058">
        <ele>2372.8</ele>
        <time>2021-02-27T08:03:53Z</time>
      </trkpt>
      <trkpt lat="45.18007" lon="5.98056">
        <ele>2372.8</ele>
        <time>2021-02-27T08:03:54Z</time>
      </trkpt>
      <trkpt lat="45.18007" lon="5.98056">
        <ele>2373</ele>
        <time>2021-02-27T08:03:55Z</time>
      </trkpt>
      <trkpt lat="45.18009" lon="5.98053">
        <ele>2373</ele>
        <time>2021-02-27T08:03:56Z</time>
      </trkpt>
      <trkpt lat="45.18011" lon="5.98052">
        <ele>2372.8</ele>
        <time>2021-02-27T08:03:57Z</time>
      </trkpt>
      <trkpt lat="45.18013" lon="5.98051">
        <ele>2372.8</ele>
        <time>2021-02-27T08:03:58Z</time>
      </trkpt>
      <trkpt lat="45.18015" lon="5.9805">
        <ele>2373</ele>
        <time>2021-02-27T08:03:59Z</time>
      </trkpt>
      <trkpt lat="45.18017" lon="5.9805">
        <ele>2372.8</ele>
        <time>2021-02-27T08:04:00Z</time>
      </trkpt>
      <trkpt lat="45.18017" lon="5.9805">
        <ele>2372.6</ele>
        <time>2021-02-27T08:04:01Z</time>
      </trkpt>
      <trkpt lat="45.1802" lon="5.98049">
        <ele>2373</ele>
        <time>2021-02-27T08:04:02Z</time>
      </trkpt>
      <trkpt lat="45.1802" lon="5.98049">
        <ele>2373</ele>
        <time>2021-02-27T08:04:03Z</time>
      </trkpt>
      <trkpt lat="45.18023" lon="5.98047">
        <ele>2372.8</ele>
        <time>2021-02-27T08:04:04Z</time>
      </trkpt>
      <trkpt lat="45.18023" lon="5.98047">
        <ele>2373.2</ele>
        <time>2021-02-27T08:04:05Z</time>
      </trkpt>
      <trkpt lat="45.18026" lon="5.98047">
        <ele>2373</ele>
        <time>2021-02-27T08:04:06Z</time>
      </trkpt>
      <trkpt lat="45.18026" lon="5.98047">
        <ele>2373.6</ele>
        <time>2021-02-27T08:04:07Z</time>
      </trkpt>
      <trkpt lat="45.18028" lon="5.98045">
        <ele>2373.6</ele>
        <time>2021-02-27T08:04:08Z</time>
      </trkpt>
      <trkpt lat="45.18028" lon="5.98045">
        <ele>2373.8</ele>
        <time>2021-02-27T08:04:09Z</time>
      </trkpt>
      <trkpt lat="45.18031" lon="5.98045">
        <ele>2373.4</ele>
        <time>2021-02-27T08:04:10Z</time>
      </trkpt>
      <trkpt lat="45.18031" lon="5.98045">
        <ele>2374</ele>
        <time>2021-02-27T08:04:11Z</time>
      </trkpt>
      <trkpt lat="45.18034" lon="5.98044">
        <ele>2373.8</ele>
        <time>2021-02-27T08:04:12Z</time>
      </trkpt>
      <trkpt lat="45.18034" lon="5.98044">
        <ele>2374</ele>
        <time>2021-02-27T08:04:13Z</time>
      </trkpt>
      <trkpt lat="45.18037" lon="5.98043">
        <ele>2374.2</ele>
        <time>2021-02-27T08:04:14Z</time>
      </trkpt>
      <trkpt lat="45.18039" lon="5.98042">
        <ele>2374</ele>
        <time>2021-02-27T08:04:15Z</time>
      </trkpt>
      <trkpt lat="45.18039" lon="5.98042">
        <ele>2373.8</ele>
        <time>2021-02-27T08:04:16Z</time>
      </trkpt>
      <trkpt lat="45.18042" lon="5.98043">
        <ele>2374</ele>
        <time>2021-02-27T08:04:17Z</time>
      </trkpt>
      <trkpt lat="45.18042" lon="5.98043">
        <ele>2373.8</ele>
        <time>2021-02-27T08:04:18Z</time>
      </trkpt>
      <trkpt lat="45.18045" lon="5.98043">
        <ele>2374</ele>
        <time>2021-02-27T08:04:19Z</time>
      </trkpt>
      <trkpt lat="45.18045" lon="5.98043">
        <ele>2374.2</ele>
        <time>2021-02-27T08:04:20Z</time>
      </trkpt>
      <trkpt lat="45.18047" lon="5.98043">
        <ele>2374.2</ele>
        <time>2021-02-27T08:04:21Z</time>
      </trkpt>
      <trkpt lat="45.18047" lon="5.98043">
        <ele>2374.2</ele>
        <time>2021-02-27T08:04:22Z</time>
      </trkpt>
      <trkpt lat="45.1805" lon="5.98045">
        <ele>2374.4</ele>
        <time>2021-02-27T08:04:23Z</time>
      </trkpt>
      <trkpt lat="45.18052" lon="5.98046">
        <ele>2374.6</ele>
        <time>2021-02-27T08:04:24Z</time>
      </trkpt>
      <trkpt lat="45.18052" lon="5.98046">
        <ele>2374.4</ele>
        <time>2021-02-27T08:04:25Z</time>
      </trkpt>
      <trkpt lat="45.18054" lon="5.98046">
        <ele>2374.2</ele>
        <time>2021-02-27T08:04:26Z</time>
      </trkpt>
      <trkpt lat="45.18054" lon="5.98046">
        <ele>2374.2</ele>
        <time>2021-02-27T08:04:27Z</time>
      </trkpt>
      <trkpt lat="45.18056" lon="5.98047">
        <ele>2374</ele>
        <time>2021-02-27T08:04:28Z</time>
      </trkpt>
      <trkpt lat="45.18056" lon="5.98047">
        <ele>2374.6</ele>
        <time>2021-02-27T08:04:29Z</time>
      </trkpt>
      <trkpt lat="45.18059" lon="5.98047">
        <ele>2374.6</ele>
        <time>2021-02-27T08:04:30Z</time>
      </trkpt>
      <trkpt lat="45.18059" lon="5.98047">
        <ele>2374.8</ele>
        <time>2021-02-27T08:04:31Z</time>
      </trkpt>
      <trkpt lat="45.18061" lon="5.98047">
        <ele>2375</ele>
        <time>2021-02-27T08:04:32Z</time>
      </trkpt>
      <trkpt lat="45.18061" lon="5.98047">
        <ele>2375</ele>
        <time>2021-02-27T08:04:33Z</time>
      </trkpt>
      <trkpt lat="45.18063" lon="5.98047">
        <ele>2375.2</ele>
        <time>2021-02-27T08:04:34Z</time>
      </trkpt>
      <trkpt lat="45.18063" lon="5.98047">
        <ele>2375.6</ele>
        <time>2021-02-27T08:04:35Z</time>
      </trkpt>
      <trkpt lat="45.18065" lon="5.98048">
        <ele>2376</ele>
        <time>2021-02-27T08:04:36Z</time>
      </trkpt>
      <trkpt lat="45.18065" lon="5.98048">
        <ele>2376.4</ele>
        <time>2021-02-27T08:04:37Z</time>
      </trkpt>
      <trkpt lat="45.18067" lon="5.98048">
        <ele>2376.8</ele>
        <time>2021-02-27T08:04:38Z</time>
      </trkpt>
      <trkpt lat="45.18067" lon="5.98048">
        <ele>2376.8</ele>
        <time>2021-02-27T08:04:39Z</time>
      </trkpt>
      <trkpt lat="45.18067" lon="5.98048">
        <ele>2377</ele>
        <time>2021-02-27T08:04:40Z</time>
      </trkpt>
      <trkpt lat="45.18069" lon="5.98049">
        <ele>2377.6</ele>
        <time>2021-02-27T08:04:41Z</time>
      </trkpt>
      <trkpt lat="45.18069" lon="5.98049">
        <ele>2377.8</ele>
        <time>2021-02-27T08:04:42Z</time>
      </trkpt>
      <trkpt lat="45.18071" lon="5.9805">
        <ele>2378.2</ele>
        <time>2021-02-27T08:04:43Z</time>
      </trkpt>
      <trkpt lat="45.18071" lon="5.9805">
        <ele>2378.4</ele>
        <time>2021-02-27T08:04:44Z</time>
      </trkpt>
      <trkpt lat="45.18071" lon="5.9805">
        <ele>2378.4</ele>
        <time>2021-02-27T08:04:45Z</time>
      </trkpt>
      <trkpt lat="45.18074" lon="5.98051">
        <ele>2379</ele>
        <time>2021-02-27T08:04:46Z</time>
      </trkpt>
      <trkpt lat="45.18074" lon="5.98051">
        <ele>2379.2</ele>
        <time>2021-02-27T08:04:47Z</time>
      </trkpt>
      <trkpt lat="45.18076" lon="5.98052">
        <ele>2379.4</ele>
        <time>2021-02-27T08:04:48Z</time>
      </trkpt>
      <trkpt lat="45.18076" lon="5.98052">
        <ele>2379.6</ele>
        <time>2021-02-27T08:04:49Z</time>
      </trkpt>
      <trkpt lat="45.18078" lon="5.98053">
        <ele>2380.2</ele>
        <time>2021-02-27T08:04:50Z</time>
      </trkpt>
      <trkpt lat="45.18078" lon="5.98053">
        <ele>2380.6</ele>
        <time>2021-02-27T08:04:51Z</time>
      </trkpt>
      <trkpt lat="45.1808" lon="5.98054">
        <ele>2380.6</ele>
        <time>2021-02-27T08:04:52Z</time>
      </trkpt>
      <trkpt lat="45.1808" lon="5.98054">
        <ele>2381</ele>
        <time>2021-02-27T08:04:53Z</time>
      </trkpt>
      <trkpt lat="45.18082" lon="5.98054">
        <ele>2381</ele>
        <time>2021-02-27T08:04:54Z</time>
      </trkpt>
      <trkpt lat="45.18082" lon="5.98054">
        <ele>2381.6</ele>
        <time>2021-02-27T08:04:55Z</time>
      </trkpt>
      <trkpt lat="45.18084" lon="5.98056">
        <ele>2382</ele>
        <time>2021-02-27T08:04:56Z</time>
      </trkpt>
      <trkpt lat="45.18084" lon="5.98056">
        <ele>2382.2</ele>
        <time>2021-02-27T08:04:57Z</time>
      </trkpt>
      <trkpt lat="45.18084" lon="5.98057">
        <ele>2382.2</ele>
        <time>2021-02-27T08:04:58Z</time>
      </trkpt>
      <trkpt lat="45.18085" lon="5.98058">
        <ele>2382.8</ele>
        <time>2021-02-27T08:04:59Z</time>
      </trkpt>
      <trkpt lat="45.18085" lon="5.9806">
        <ele>2383.2</ele>
        <time>2021-02-27T08:05:00Z</time>
      </trkpt>
      <trkpt lat="45.18086" lon="5.98061">
        <ele>2383.6</ele>
        <time>2021-02-27T08:05:01Z</time>
      </trkpt>
      <trkpt lat="45.18087" lon="5.98062">
        <ele>2383.6</ele>
        <time>2021-02-27T08:05:02Z</time>
      </trkpt>
      <trkpt lat="45.18087" lon="5.98063">
        <ele>2383.6</ele>
        <time>2021-02-27T08:05:03Z</time>
      </trkpt>
      <trkpt lat="45.18088" lon="5.98064">
        <ele>2384.2</ele>
        <time>2021-02-27T08:05:04Z</time>
      </trkpt>
      <trkpt lat="45.18088" lon="5.98065">
        <ele>2384.2</ele>
        <time>2021-02-27T08:05:05Z</time>
      </trkpt>
      <trkpt lat="45.18089" lon="5.98066">
        <ele>2384.4</ele>
        <time>2021-02-27T08:05:06Z</time>
      </trkpt>
      <trkpt lat="45.18089" lon="5.98068">
        <ele>2384.8</ele>
        <time>2021-02-27T08:05:07Z</time>
      </trkpt>
      <trkpt lat="45.18089" lon="5.98068">
        <ele>2385.2</ele>
        <time>2021-02-27T08:05:08Z</time>
      </trkpt>
      <trkpt lat="45.18089" lon="5.98072">
        <ele>2385.2</ele>
        <time>2021-02-27T08:05:09Z</time>
      </trkpt>
      <trkpt lat="45.18089" lon="5.98072">
        <ele>2385.6</ele>
        <time>2021-02-27T08:05:10Z</time>
      </trkpt>
      <trkpt lat="45.18089" lon="5.98074">
        <ele>2385.8</ele>
        <time>2021-02-27T08:05:11Z</time>
      </trkpt>
      <trkpt lat="45.18089" lon="5.98074">
        <ele>2386</ele>
        <time>2021-02-27T08:05:12Z</time>
      </trkpt>
      <trkpt lat="45.18089" lon="5.98078">
        <ele>2386.6</ele>
        <time>2021-02-27T08:05:13Z</time>
      </trkpt>
      <trkpt lat="45.18089" lon="5.98078">
        <ele>2387</ele>
        <time>2021-02-27T08:05:14Z</time>
      </trkpt>
      <trkpt lat="45.1809" lon="5.9808">
        <ele>2387.4</ele>
        <time>2021-02-27T08:05:15Z</time>
      </trkpt>
      <trkpt lat="45.18091" lon="5.98082">
        <ele>2387.8</ele>
        <time>2021-02-27T08:05:16Z</time>
      </trkpt>
      <trkpt lat="45.18092" lon="5.98084">
        <ele>2388</ele>
        <time>2021-02-27T08:05:17Z</time>
      </trkpt>
      <trkpt lat="45.18092" lon="5.98086">
        <ele>2388</ele>
        <time>2021-02-27T08:05:18Z</time>
      </trkpt>
      <trkpt lat="45.18092" lon="5.98086">
        <ele>2388</ele>
        <time>2021-02-27T08:05:19Z</time>
      </trkpt>
      <trkpt lat="45.18094" lon="5.98089">
        <ele>2387.6</ele>
        <time>2021-02-27T08:05:20Z</time>
      </trkpt>
      <trkpt lat="45.18094" lon="5.98089">
        <ele>2387.6</ele>
        <time>2021-02-27T08:05:21Z</time>
      </trkpt>
      <trkpt lat="45.18095" lon="5.98093">
        <ele>2387.6</ele>
        <time>2021-02-27T08:05:22Z</time>
      </trkpt>
      <trkpt lat="45.18095" lon="5.98093">
        <ele>2387.8</ele>
        <time>2021-02-27T08:05:23Z</time>
      </trkpt>
      <trkpt lat="45.18095" lon="5.98096">
        <ele>2388</ele>
        <time>2021-02-27T08:05:24Z</time>
      </trkpt>
      <trkpt lat="45.18095" lon="5.98096">
        <ele>2388.2</ele>
        <time>2021-02-27T08:05:25Z</time>
      </trkpt>
      <trkpt lat="45.18094" lon="5.98099">
        <ele>2388.6</ele>
        <time>2021-02-27T08:05:26Z</time>
      </trkpt>
      <trkpt lat="45.18094" lon="5.98099">
        <ele>2389.2</ele>
        <time>2021-02-27T08:05:27Z</time>
      </trkpt>
      <trkpt lat="45.18092" lon="5.98101">
        <ele>2389.2</ele>
        <time>2021-02-27T08:05:28Z</time>
      </trkpt>
      <trkpt lat="45.18092" lon="5.98101">
        <ele>2389.8</ele>
        <time>2021-02-27T08:05:29Z</time>
      </trkpt>
      <trkpt lat="45.18091" lon="5.98103">
        <ele>2390.4</ele>
        <time>2021-02-27T08:05:30Z</time>
      </trkpt>
      <trkpt lat="45.18091" lon="5.98103">
        <ele>2390.4</ele>
        <time>2021-02-27T08:05:31Z</time>
      </trkpt>
      <trkpt lat="45.18091" lon="5.98103">
        <ele>2391</ele>
        <time>2021-02-27T08:05:32Z</time>
      </trkpt>
      <trkpt lat="45.18089" lon="5.98105">
        <ele>2391</ele>
        <time>2021-02-27T08:05:33Z</time>
      </trkpt>
      <trkpt lat="45.18089" lon="5.98105">
        <ele>2391.2</ele>
        <time>2021-02-27T08:05:34Z</time>
      </trkpt>
      <trkpt lat="45.1809" lon="5.98106">
        <ele>2391.8</ele>
        <time>2021-02-27T08:05:35Z</time>
      </trkpt>
      <trkpt lat="45.1809" lon="5.98107">
        <ele>2392</ele>
        <time>2021-02-27T08:05:36Z</time>
      </trkpt>
      <trkpt lat="45.1809" lon="5.98108">
        <ele>2392.2</ele>
        <time>2021-02-27T08:05:37Z</time>
      </trkpt>
      <trkpt lat="45.1809" lon="5.98109">
        <ele>2392.4</ele>
        <time>2021-02-27T08:05:38Z</time>
      </trkpt>
      <trkpt lat="45.1809" lon="5.9811">
        <ele>2392.6</ele>
        <time>2021-02-27T08:05:39Z</time>
      </trkpt>
      <trkpt lat="45.1809" lon="5.98111">
        <ele>2393</ele>
        <time>2021-02-27T08:05:40Z</time>
      </trkpt>
      <trkpt lat="45.1809" lon="5.98112">
        <ele>2393.4</ele>
        <time>2021-02-27T08:05:41Z</time>
      </trkpt>
      <trkpt lat="45.1809" lon="5.98112">
        <ele>2393.6</ele>
        <time>2021-02-27T08:05:42Z</time>
      </trkpt>
      <trkpt lat="45.1809" lon="5.98113">
        <ele>2393.8</ele>
        <time>2021-02-27T08:05:43Z</time>
      </trkpt>
      <trkpt lat="45.18089" lon="5.98116">
        <ele>2394.4</ele>
        <time>2021-02-27T08:05:44Z</time>
      </trkpt>
      <trkpt lat="45.18089" lon="5.98116">
        <ele>2394.4</ele>
        <time>2021-02-27T08:05:45Z</time>
      </trkpt>
      <trkpt lat="45.18089" lon="5.98116">
        <ele>2394.6</ele>
        <time>2021-02-27T08:05:46Z</time>
      </trkpt>
      <trkpt lat="45.18089" lon="5.98119">
        <ele>2395.2</ele>
        <time>2021-02-27T08:05:47Z</time>
      </trkpt>
      <trkpt lat="45.18089" lon="5.98119">
        <ele>2395.6</ele>
        <time>2021-02-27T08:05:48Z</time>
      </trkpt>
      <trkpt lat="45.18089" lon="5.98119">
        <ele>2396</ele>
        <time>2021-02-27T08:05:49Z</time>
      </trkpt>
      <trkpt lat="45.18088" lon="5.98122">
        <ele>2396.2</ele>
        <time>2021-02-27T08:05:50Z</time>
      </trkpt>
      <trkpt lat="45.18088" lon="5.98122">
        <ele>2396.6</ele>
        <time>2021-02-27T08:05:51Z</time>
      </trkpt>
      <trkpt lat="45.18088" lon="5.98122">
        <ele>2396.8</ele>
        <time>2021-02-27T08:05:52Z</time>
      </trkpt>
      <trkpt lat="45.18088" lon="5.98125">
        <ele>2397.4</ele>
        <time>2021-02-27T08:05:53Z</time>
      </trkpt>
      <trkpt lat="45.18088" lon="5.98125">
        <ele>2397.6</ele>
        <time>2021-02-27T08:05:54Z</time>
      </trkpt>
      <trkpt lat="45.18088" lon="5.98125">
        <ele>2397.8</ele>
        <time>2021-02-27T08:05:55Z</time>
      </trkpt>
      <trkpt lat="45.18086" lon="5.98129">
        <ele>2398.2</ele>
        <time>2021-02-27T08:05:56Z</time>
      </trkpt>
      <trkpt lat="45.18086" lon="5.98129">
        <ele>2398.4</ele>
        <time>2021-02-27T08:05:57Z</time>
      </trkpt>
      <trkpt lat="45.18085" lon="5.98131">
        <ele>2398.8</ele>
        <time>2021-02-27T08:05:58Z</time>
      </trkpt>
      <trkpt lat="45.18085" lon="5.98131">
        <ele>2399.2</ele>
        <time>2021-02-27T08:05:59Z</time>
      </trkpt>
      <trkpt lat="45.18084" lon="5.98134">
        <ele>2399.4</ele>
        <time>2021-02-27T08:06:00Z</time>
      </trkpt>
      <trkpt lat="45.18084" lon="5.98134">
        <ele>2400</ele>
        <time>2021-02-27T08:06:01Z</time>
      </trkpt>
      <trkpt lat="45.18083" lon="5.98136">
        <ele>2400.2</ele>
        <time>2021-02-27T08:06:02Z</time>
      </trkpt>
      <trkpt lat="45.18083" lon="5.98136">
        <ele>2400.2</ele>
        <time>2021-02-27T08:06:03Z</time>
      </trkpt>
      <trkpt lat="45.18083" lon="5.98139">
        <ele>2400.6</ele>
        <time>2021-02-27T08:06:04Z</time>
      </trkpt>
      <trkpt lat="45.18083" lon="5.98139">
        <ele>2400.6</ele>
        <time>2021-02-27T08:06:05Z</time>
      </trkpt>
      <trkpt lat="45.18082" lon="5.98142">
        <ele>2401</ele>
        <time>2021-02-27T08:06:06Z</time>
      </trkpt>
      <trkpt lat="45.18082" lon="5.98142">
        <ele>2401.6</ele>
        <time>2021-02-27T08:06:07Z</time>
      </trkpt>
      <trkpt lat="45.18082" lon="5.98145">
        <ele>2401.4</ele>
        <time>2021-02-27T08:06:08Z</time>
      </trkpt>
      <trkpt lat="45.18082" lon="5.98145">
        <ele>2401.6</ele>
        <time>2021-02-27T08:06:09Z</time>
      </trkpt>
      <trkpt lat="45.18082" lon="5.98145">
        <ele>2402.4</ele>
        <time>2021-02-27T08:06:10Z</time>
      </trkpt>
      <trkpt lat="45.1808" lon="5.98148">
        <ele>2402.2</ele>
        <time>2021-02-27T08:06:11Z</time>
      </trkpt>
      <trkpt lat="45.1808" lon="5.98148">
        <ele>2403</ele>
        <time>2021-02-27T08:06:12Z</time>
      </trkpt>
      <trkpt lat="45.1808" lon="5.98148">
        <ele>2403</ele>
        <time>2021-02-27T08:06:13Z</time>
      </trkpt>
      <trkpt lat="45.18079" lon="5.98151">
        <ele>2403</ele>
        <time>2021-02-27T08:06:14Z</time>
      </trkpt>
      <trkpt lat="45.18079" lon="5.98151">
        <ele>2404</ele>
        <time>2021-02-27T08:06:15Z</time>
      </trkpt>
      <trkpt lat="45.18079" lon="5.98151">
        <ele>2404.2</ele>
        <time>2021-02-27T08:06:16Z</time>
      </trkpt>
      <trkpt lat="45.18078" lon="5.98154">
        <ele>2404.2</ele>
        <time>2021-02-27T08:06:17Z</time>
      </trkpt>
      <trkpt lat="45.18078" lon="5.98154">
        <ele>2405</ele>
        <time>2021-02-27T08:06:18Z</time>
      </trkpt>
      <trkpt lat="45.18078" lon="5.98154">
        <ele>2405</ele>
        <time>2021-02-27T08:06:19Z</time>
      </trkpt>
      <trkpt lat="45.18077" lon="5.98156">
        <ele>2405.2</ele>
        <time>2021-02-27T08:06:20Z</time>
      </trkpt>
      <trkpt lat="45.18077" lon="5.98156">
        <ele>2405.8</ele>
        <time>2021-02-27T08:06:21Z</time>
      </trkpt>
      <trkpt lat="45.18076" lon="5.98159">
        <ele>2405.8</ele>
        <time>2021-02-27T08:06:22Z</time>
      </trkpt>
      <trkpt lat="45.18076" lon="5.98159">
        <ele>2406</ele>
        <time>2021-02-27T08:06:23Z</time>
      </trkpt>
      <trkpt lat="45.18076" lon="5.98159">
        <ele>2406.4</ele>
        <time>2021-02-27T08:06:24Z</time>
      </trkpt>
      <trkpt lat="45.18075" lon="5.98161">
        <ele>2406.8</ele>
        <time>2021-02-27T08:06:25Z</time>
      </trkpt>
      <trkpt lat="45.18075" lon="5.98161">
        <ele>2407.2</ele>
        <time>2021-02-27T08:06:26Z</time>
      </trkpt>
      <trkpt lat="45.18073" lon="5.98164">
        <ele>2407.2</ele>
        <time>2021-02-27T08:06:27Z</time>
      </trkpt>
      <trkpt lat="45.18073" lon="5.98164">
        <ele>2407.8</ele>
        <time>2021-02-27T08:06:28Z</time>
      </trkpt>
      <trkpt lat="45.18073" lon="5.98164">
        <ele>2407.8</ele>
        <time>2021-02-27T08:06:29Z</time>
      </trkpt>
      <trkpt lat="45.18073" lon="5.98164">
        <ele>2407.6</ele>
        <time>2021-02-27T08:06:30Z</time>
      </trkpt>
      <trkpt lat="45.18073" lon="5.98164">
        <ele>2408.2</ele>
        <time>2021-02-27T08:06:31Z</time>
      </trkpt>
      <trkpt lat="45.18073" lon="5.98164">
        <ele>2408.4</ele>
        <time>2021-02-27T08:06:32Z</time>
      </trkpt>
      <trkpt lat="45.18073" lon="5.98164">
        <ele>2408.6</ele>
        <time>2021-02-27T08:06:33Z</time>
      </trkpt>
      <trkpt lat="45.18075" lon="5.98164">
        <ele>2408.8</ele>
        <time>2021-02-27T08:06:34Z</time>
      </trkpt>
      <trkpt lat="45.18075" lon="5.98164">
        <ele>2408.6</ele>
        <time>2021-02-27T08:06:35Z</time>
      </trkpt>
      <trkpt lat="45.18077" lon="5.98164">
        <ele>2409</ele>
        <time>2021-02-27T08:06:36Z</time>
      </trkpt>
      <trkpt lat="45.18077" lon="5.98164">
        <ele>2409.2</ele>
        <time>2021-02-27T08:06:37Z</time>
      </trkpt>
      <trkpt lat="45.18079" lon="5.98163">
        <ele>2409.4</ele>
        <time>2021-02-27T08:06:38Z</time>
      </trkpt>
      <trkpt lat="45.18079" lon="5.98163">
        <ele>2409.4</ele>
        <time>2021-02-27T08:06:39Z</time>
      </trkpt>
      <trkpt lat="45.18081" lon="5.98162">
        <ele>2409.4</ele>
        <time>2021-02-27T08:06:40Z</time>
      </trkpt>
      <trkpt lat="45.18081" lon="5.98162">
        <ele>2409.8</ele>
        <time>2021-02-27T08:06:41Z</time>
      </trkpt>
      <trkpt lat="45.18081" lon="5.98162">
        <ele>2410</ele>
        <time>2021-02-27T08:06:42Z</time>
      </trkpt>
      <trkpt lat="45.18083" lon="5.98161">
        <ele>2410.4</ele>
        <time>2021-02-27T08:06:43Z</time>
      </trkpt>
      <trkpt lat="45.18083" lon="5.98161">
        <ele>2410.6</ele>
        <time>2021-02-27T08:06:44Z</time>
      </trkpt>
      <trkpt lat="45.18085" lon="5.9816">
        <ele>2411</ele>
        <time>2021-02-27T08:06:45Z</time>
      </trkpt>
      <trkpt lat="45.18085" lon="5.9816">
        <ele>2411</ele>
        <time>2021-02-27T08:06:46Z</time>
      </trkpt>
      <trkpt lat="45.18087" lon="5.98159">
        <ele>2411.2</ele>
        <time>2021-02-27T08:06:47Z</time>
      </trkpt>
      <trkpt lat="45.18087" lon="5.98159">
        <ele>2411.2</ele>
        <time>2021-02-27T08:06:48Z</time>
      </trkpt>
      <trkpt lat="45.18089" lon="5.98159">
        <ele>2411.6</ele>
        <time>2021-02-27T08:06:49Z</time>
      </trkpt>
      <trkpt lat="45.18089" lon="5.98159">
        <ele>2411.4</ele>
        <time>2021-02-27T08:06:50Z</time>
      </trkpt>
      <trkpt lat="45.18091" lon="5.98159">
        <ele>2411.8</ele>
        <time>2021-02-27T08:06:51Z</time>
      </trkpt>
      <trkpt lat="45.18091" lon="5.98159">
        <ele>2411.8</ele>
        <time>2021-02-27T08:06:52Z</time>
      </trkpt>
      <trkpt lat="45.18093" lon="5.98158">
        <ele>2412</ele>
        <time>2021-02-27T08:06:53Z</time>
      </trkpt>
      <trkpt lat="45.18093" lon="5.98158">
        <ele>2412.4</ele>
        <time>2021-02-27T08:06:54Z</time>
      </trkpt>
      <trkpt lat="45.18095" lon="5.98158">
        <ele>2412.4</ele>
        <time>2021-02-27T08:06:55Z</time>
      </trkpt>
      <trkpt lat="45.18095" lon="5.98158">
        <ele>2412.6</ele>
        <time>2021-02-27T08:06:56Z</time>
      </trkpt>
      <trkpt lat="45.18097" lon="5.98157">
        <ele>2412.6</ele>
        <time>2021-02-27T08:06:57Z</time>
      </trkpt>
      <trkpt lat="45.18097" lon="5.98157">
        <ele>2412.4</ele>
        <time>2021-02-27T08:06:58Z</time>
      </trkpt>
      <trkpt lat="45.18099" lon="5.98156">
        <ele>2412.8</ele>
        <time>2021-02-27T08:06:59Z</time>
      </trkpt>
      <trkpt lat="45.18099" lon="5.98156">
        <ele>2413.2</ele>
        <time>2021-02-27T08:07:00Z</time>
      </trkpt>
      <trkpt lat="45.18101" lon="5.98155">
        <ele>2413.6</ele>
        <time>2021-02-27T08:07:01Z</time>
      </trkpt>
      <trkpt lat="45.18101" lon="5.98155">
        <ele>2413.6</ele>
        <time>2021-02-27T08:07:02Z</time>
      </trkpt>
      <trkpt lat="45.18103" lon="5.98154">
        <ele>2413.8</ele>
        <time>2021-02-27T08:07:03Z</time>
      </trkpt>
      <trkpt lat="45.18103" lon="5.98154">
        <ele>2414</ele>
        <time>2021-02-27T08:07:04Z</time>
      </trkpt>
      <trkpt lat="45.18103" lon="5.98154">
        <ele>2413.8</ele>
        <time>2021-02-27T08:07:05Z</time>
      </trkpt>
      <trkpt lat="45.18105" lon="5.98154">
        <ele>2414.2</ele>
        <time>2021-02-27T08:07:06Z</time>
      </trkpt>
      <trkpt lat="45.18105" lon="5.98154">
        <ele>2414.6</ele>
        <time>2021-02-27T08:07:07Z</time>
      </trkpt>
      <trkpt lat="45.18105" lon="5.98154">
        <ele>2414.8</ele>
        <time>2021-02-27T08:07:08Z</time>
      </trkpt>
      <trkpt lat="45.18107" lon="5.98156">
        <ele>2415.2</ele>
        <time>2021-02-27T08:07:09Z</time>
      </trkpt>
      <trkpt lat="45.18107" lon="5.98156">
        <ele>2415.6</ele>
        <time>2021-02-27T08:07:10Z</time>
      </trkpt>
      <trkpt lat="45.18107" lon="5.98156">
        <ele>2415.8</ele>
        <time>2021-02-27T08:07:11Z</time>
      </trkpt>
      <trkpt lat="45.18107" lon="5.98156">
        <ele>2415.4</ele>
        <time>2021-02-27T08:07:12Z</time>
      </trkpt>
      <trkpt lat="45.18107" lon="5.98161">
        <ele>2415.8</ele>
        <time>2021-02-27T08:07:13Z</time>
      </trkpt>
      <trkpt lat="45.18107" lon="5.98161">
        <ele>2416.2</ele>
        <time>2021-02-27T08:07:14Z</time>
      </trkpt>
      <trkpt lat="45.18107" lon="5.98161">
        <ele>2416.6</ele>
        <time>2021-02-27T08:07:15Z</time>
      </trkpt>
      <trkpt lat="45.18107" lon="5.98164">
        <ele>2416.8</ele>
        <time>2021-02-27T08:07:16Z</time>
      </trkpt>
      <trkpt lat="45.18107" lon="5.98164">
        <ele>2417.2</ele>
        <time>2021-02-27T08:07:17Z</time>
      </trkpt>
      <trkpt lat="45.18107" lon="5.98164">
        <ele>2417.6</ele>
        <time>2021-02-27T08:07:18Z</time>
      </trkpt>
      <trkpt lat="45.18106" lon="5.98168">
        <ele>2417.6</ele>
        <time>2021-02-27T08:07:19Z</time>
      </trkpt>
      <trkpt lat="45.18106" lon="5.98168">
        <ele>2418.2</ele>
        <time>2021-02-27T08:07:20Z</time>
      </trkpt>
      <trkpt lat="45.18105" lon="5.98171">
        <ele>2418.4</ele>
        <time>2021-02-27T08:07:21Z</time>
      </trkpt>
      <trkpt lat="45.18105" lon="5.98171">
        <ele>2418.2</ele>
        <time>2021-02-27T08:07:22Z</time>
      </trkpt>
      <trkpt lat="45.18104" lon="5.98173">
        <ele>2418.6</ele>
        <time>2021-02-27T08:07:23Z</time>
      </trkpt>
      <trkpt lat="45.18104" lon="5.98173">
        <ele>2419.2</ele>
        <time>2021-02-27T08:07:24Z</time>
      </trkpt>
      <trkpt lat="45.18103" lon="5.98176">
        <ele>2419.2</ele>
        <time>2021-02-27T08:07:25Z</time>
      </trkpt>
      <trkpt lat="45.18103" lon="5.98176">
        <ele>2419.6</ele>
        <time>2021-02-27T08:07:26Z</time>
      </trkpt>
      <trkpt lat="45.18102" lon="5.98178">
        <ele>2419.8</ele>
        <time>2021-02-27T08:07:27Z</time>
      </trkpt>
      <trkpt lat="45.18102" lon="5.98178">
        <ele>2420.2</ele>
        <time>2021-02-27T08:07:28Z</time>
      </trkpt>
      <trkpt lat="45.18102" lon="5.98178">
        <ele>2420.4</ele>
        <time>2021-02-27T08:07:29Z</time>
      </trkpt>
      <trkpt lat="45.18101" lon="5.98181">
        <ele>2420.2</ele>
        <time>2021-02-27T08:07:30Z</time>
      </trkpt>
      <trkpt lat="45.18101" lon="5.98181">
        <ele>2420.8</ele>
        <time>2021-02-27T08:07:31Z</time>
      </trkpt>
      <trkpt lat="45.18101" lon="5.98181">
        <ele>2421.2</ele>
        <time>2021-02-27T08:07:32Z</time>
      </trkpt>
      <trkpt lat="45.18099" lon="5.98183">
        <ele>2421</ele>
        <time>2021-02-27T08:07:33Z</time>
      </trkpt>
      <trkpt lat="45.18099" lon="5.98183">
        <ele>2421.4</ele>
        <time>2021-02-27T08:07:34Z</time>
      </trkpt>
      <trkpt lat="45.18099" lon="5.98183">
        <ele>2421.6</ele>
        <time>2021-02-27T08:07:35Z</time>
      </trkpt>
      <trkpt lat="45.18099" lon="5.98183">
        <ele>2422</ele>
        <time>2021-02-27T08:07:36Z</time>
      </trkpt>
      <trkpt lat="45.18099" lon="5.98183">
        <ele>2422.4</ele>
        <time>2021-02-27T08:07:37Z</time>
      </trkpt>
      <trkpt lat="45.18099" lon="5.98183">
        <ele>2422.4</ele>
        <time>2021-02-27T08:07:38Z</time>
      </trkpt>
      <trkpt lat="45.18101" lon="5.98181">
        <ele>2422.8</ele>
        <time>2021-02-27T08:07:39Z</time>
      </trkpt>
      <trkpt lat="45.18101" lon="5.98181">
        <ele>2422.8</ele>
        <time>2021-02-27T08:07:40Z</time>
      </trkpt>
      <trkpt lat="45.18104" lon="5.98182">
        <ele>2422.6</ele>
        <time>2021-02-27T08:07:41Z</time>
      </trkpt>
      <trkpt lat="45.18104" lon="5.98182">
        <ele>2422.8</ele>
        <time>2021-02-27T08:07:42Z</time>
      </trkpt>
      <trkpt lat="45.18105" lon="5.98182">
        <ele>2423.2</ele>
        <time>2021-02-27T08:07:43Z</time>
      </trkpt>
      <trkpt lat="45.18105" lon="5.98182">
        <ele>2423.4</ele>
        <time>2021-02-27T08:07:44Z</time>
      </trkpt>
      <trkpt lat="45.18107" lon="5.98181">
        <ele>2423.2</ele>
        <time>2021-02-27T08:07:45Z</time>
      </trkpt>
      <trkpt lat="45.18107" lon="5.98181">
        <ele>2423.4</ele>
        <time>2021-02-27T08:07:46Z</time>
      </trkpt>
      <trkpt lat="45.1811" lon="5.98181">
        <ele>2424</ele>
        <time>2021-02-27T08:07:47Z</time>
      </trkpt>
      <trkpt lat="45.1811" lon="5.98181">
        <ele>2424.4</ele>
        <time>2021-02-27T08:07:48Z</time>
      </trkpt>
      <trkpt lat="45.18112" lon="5.98181">
        <ele>2424.4</ele>
        <time>2021-02-27T08:07:49Z</time>
      </trkpt>
      <trkpt lat="45.18112" lon="5.98181">
        <ele>2424.4</ele>
        <time>2021-02-27T08:07:50Z</time>
      </trkpt>
      <trkpt lat="45.18114" lon="5.98181">
        <ele>2424.6</ele>
        <time>2021-02-27T08:07:51Z</time>
      </trkpt>
      <trkpt lat="45.18114" lon="5.98181">
        <ele>2424.8</ele>
        <time>2021-02-27T08:07:52Z</time>
      </trkpt>
      <trkpt lat="45.18114" lon="5.98181">
        <ele>2424.8</ele>
        <time>2021-02-27T08:07:53Z</time>
      </trkpt>
      <trkpt lat="45.18117" lon="5.9818">
        <ele>2425</ele>
        <time>2021-02-27T08:07:54Z</time>
      </trkpt>
      <trkpt lat="45.18117" lon="5.9818">
        <ele>2425.4</ele>
        <time>2021-02-27T08:07:55Z</time>
      </trkpt>
      <trkpt lat="45.18117" lon="5.9818">
        <ele>2425.4</ele>
        <time>2021-02-27T08:07:56Z</time>
      </trkpt>
      <trkpt lat="45.18117" lon="5.98183">
        <ele>2425.8</ele>
        <time>2021-02-27T08:07:57Z</time>
      </trkpt>
      <trkpt lat="45.18117" lon="5.98183">
        <ele>2426.4</ele>
        <time>2021-02-27T08:07:58Z</time>
      </trkpt>
      <trkpt lat="45.18116" lon="5.98185">
        <ele>2426.4</ele>
        <time>2021-02-27T08:07:59Z</time>
      </trkpt>
      <trkpt lat="45.18116" lon="5.98185">
        <ele>2426.6</ele>
        <time>2021-02-27T08:08:00Z</time>
      </trkpt>
      <trkpt lat="45.18114" lon="5.98188">
        <ele>2426.4</ele>
        <time>2021-02-27T08:08:01Z</time>
      </trkpt>
      <trkpt lat="45.18114" lon="5.98188">
        <ele>2426.8</ele>
        <time>2021-02-27T08:08:02Z</time>
      </trkpt>
      <trkpt lat="45.18113" lon="5.9819">
        <ele>2427</ele>
        <time>2021-02-27T08:08:03Z</time>
      </trkpt>
      <trkpt lat="45.18113" lon="5.9819">
        <ele>2427</ele>
        <time>2021-02-27T08:08:04Z</time>
      </trkpt>
      <trkpt lat="45.18111" lon="5.98192">
        <ele>2427.6</ele>
        <time>2021-02-27T08:08:05Z</time>
      </trkpt>
      <trkpt lat="45.18111" lon="5.98192">
        <ele>2427.6</ele>
        <time>2021-02-27T08:08:06Z</time>
      </trkpt>
      <trkpt lat="45.1811" lon="5.98195">
        <ele>2427.8</ele>
        <time>2021-02-27T08:08:07Z</time>
      </trkpt>
      <trkpt lat="45.1811" lon="5.98195">
        <ele>2428.2</ele>
        <time>2021-02-27T08:08:08Z</time>
      </trkpt>
      <trkpt lat="45.18109" lon="5.98197">
        <ele>2428.2</ele>
        <time>2021-02-27T08:08:09Z</time>
      </trkpt>
      <trkpt lat="45.18109" lon="5.98197">
        <ele>2428.4</ele>
        <time>2021-02-27T08:08:10Z</time>
      </trkpt>
      <trkpt lat="45.18108" lon="5.982">
        <ele>2428.6</ele>
        <time>2021-02-27T08:08:11Z</time>
      </trkpt>
      <trkpt lat="45.18108" lon="5.982">
        <ele>2428.6</ele>
        <time>2021-02-27T08:08:12Z</time>
      </trkpt>
      <trkpt lat="45.18106" lon="5.98202">
        <ele>2429.2</ele>
        <time>2021-02-27T08:08:13Z</time>
      </trkpt>
      <trkpt lat="45.18106" lon="5.98202">
        <ele>2429.4</ele>
        <time>2021-02-27T08:08:14Z</time>
      </trkpt>
      <trkpt lat="45.18104" lon="5.98203">
        <ele>2429.6</ele>
        <time>2021-02-27T08:08:15Z</time>
      </trkpt>
      <trkpt lat="45.18104" lon="5.98203">
        <ele>2430</ele>
        <time>2021-02-27T08:08:16Z</time>
      </trkpt>
      <trkpt lat="45.18103" lon="5.98205">
        <ele>2430.6</ele>
        <time>2021-02-27T08:08:17Z</time>
      </trkpt>
      <trkpt lat="45.18103" lon="5.98205">
        <ele>2430.8</ele>
        <time>2021-02-27T08:08:18Z</time>
      </trkpt>
      <trkpt lat="45.18101" lon="5.98207">
        <ele>2430.8</ele>
        <time>2021-02-27T08:08:19Z</time>
      </trkpt>
      <trkpt lat="45.18101" lon="5.98207">
        <ele>2431.2</ele>
        <time>2021-02-27T08:08:20Z</time>
      </trkpt>
      <trkpt lat="45.181" lon="5.9821">
        <ele>2431.4</ele>
        <time>2021-02-27T08:08:21Z</time>
      </trkpt>
      <trkpt lat="45.181" lon="5.9821">
        <ele>2431.4</ele>
        <time>2021-02-27T08:08:22Z</time>
      </trkpt>
      <trkpt lat="45.18099" lon="5.98212">
        <ele>2431.6</ele>
        <time>2021-02-27T08:08:23Z</time>
      </trkpt>
      <trkpt lat="45.18099" lon="5.98212">
        <ele>2431.8</ele>
        <time>2021-02-27T08:08:24Z</time>
      </trkpt>
      <trkpt lat="45.18097" lon="5.98215">
        <ele>2432</ele>
        <time>2021-02-27T08:08:25Z</time>
      </trkpt>
      <trkpt lat="45.18097" lon="5.98215">
        <ele>2432.4</ele>
        <time>2021-02-27T08:08:26Z</time>
      </trkpt>
      <trkpt lat="45.18096" lon="5.98217">
        <ele>2432.6</ele>
        <time>2021-02-27T08:08:27Z</time>
      </trkpt>
      <trkpt lat="45.18096" lon="5.98217">
        <ele>2432.8</ele>
        <time>2021-02-27T08:08:28Z</time>
      </trkpt>
      <trkpt lat="45.18095" lon="5.9822">
        <ele>2433</ele>
        <time>2021-02-27T08:08:29Z</time>
      </trkpt>
      <trkpt lat="45.18095" lon="5.9822">
        <ele>2433.2</ele>
        <time>2021-02-27T08:08:30Z</time>
      </trkpt>
      <trkpt lat="45.18095" lon="5.9822">
        <ele>2433.8</ele>
        <time>2021-02-27T08:08:31Z</time>
      </trkpt>
      <trkpt lat="45.18093" lon="5.98222">
        <ele>2434</ele>
        <time>2021-02-27T08:08:32Z</time>
      </trkpt>
      <trkpt lat="45.18093" lon="5.98222">
        <ele>2434.4</ele>
        <time>2021-02-27T08:08:33Z</time>
      </trkpt>
      <trkpt lat="45.18093" lon="5.98222">
        <ele>2434.6</ele>
        <time>2021-02-27T08:08:34Z</time>
      </trkpt>
      <trkpt lat="45.18093" lon="5.98222">
        <ele>2434.6</ele>
        <time>2021-02-27T08:08:35Z</time>
      </trkpt>
      <trkpt lat="45.18093" lon="5.98222">
        <ele>2435</ele>
        <time>2021-02-27T08:08:36Z</time>
      </trkpt>
      <trkpt lat="45.18093" lon="5.98222">
        <ele>2435.2</ele>
        <time>2021-02-27T08:08:37Z</time>
      </trkpt>
      <trkpt lat="45.18096" lon="5.98224">
        <ele>2435.2</ele>
        <time>2021-02-27T08:08:38Z</time>
      </trkpt>
      <trkpt lat="45.18096" lon="5.98224">
        <ele>2435.4</ele>
        <time>2021-02-27T08:08:39Z</time>
      </trkpt>
      <trkpt lat="45.18096" lon="5.98224">
        <ele>2435.4</ele>
        <time>2021-02-27T08:08:40Z</time>
      </trkpt>
      <trkpt lat="45.18098" lon="5.98224">
        <ele>2435.4</ele>
        <time>2021-02-27T08:08:41Z</time>
      </trkpt>
      <trkpt lat="45.18098" lon="5.98224">
        <ele>2435.4</ele>
        <time>2021-02-27T08:08:42Z</time>
      </trkpt>
      <trkpt lat="45.18098" lon="5.98224">
        <ele>2435.6</ele>
        <time>2021-02-27T08:08:43Z</time>
      </trkpt>
      <trkpt lat="45.18098" lon="5.98224">
        <ele>2435.6</ele>
        <time>2021-02-27T08:08:44Z</time>
      </trkpt>
      <trkpt lat="45.18098" lon="5.98224">
        <ele>2435.8</ele>
        <time>2021-02-27T08:08:45Z</time>
      </trkpt>
      <trkpt lat="45.18098" lon="5.98224">
        <ele>2436</ele>
        <time>2021-02-27T08:08:46Z</time>
      </trkpt>
      <trkpt lat="45.18098" lon="5.98224">
        <ele>2435.8</ele>
        <time>2021-02-27T08:08:47Z</time>
      </trkpt>
      <trkpt lat="45.18098" lon="5.98224">
        <ele>2436</ele>
        <time>2021-02-27T08:08:48Z</time>
      </trkpt>
      <trkpt lat="45.18098" lon="5.98224">
        <ele>2436</ele>
        <time>2021-02-27T08:08:49Z</time>
      </trkpt>
      <trkpt lat="45.18098" lon="5.98224">
        <ele>2436</ele>
        <time>2021-02-27T08:08:50Z</time>
      </trkpt>
      <trkpt lat="45.18098" lon="5.98224">
        <ele>2436</ele>
        <time>2021-02-27T08:08:51Z</time>
      </trkpt>
      <trkpt lat="45.18098" lon="5.98224">
        <ele>2435.8</ele>
        <time>2021-02-27T08:08:52Z</time>
      </trkpt>
      <trkpt lat="45.18098" lon="5.98224">
        <ele>2435.8</ele>
        <time>2021-02-27T08:08:53Z</time>
      </trkpt>
      <trkpt lat="45.18098" lon="5.98224">
        <ele>2435.8</ele>
        <time>2021-02-27T08:08:54Z</time>
      </trkpt>
      <trkpt lat="45.18098" lon="5.98224">
        <ele>2435.6</ele>
        <time>2021-02-27T08:08:55Z</time>
      </trkpt>
      <trkpt lat="45.18098" lon="5.98224">
        <ele>2435.4</ele>
        <time>2021-02-27T08:08:56Z</time>
      </trkpt>
      <trkpt lat="45.18098" lon="5.98224">
        <ele>2435.4</ele>
        <time>2021-02-27T08:08:57Z</time>
      </trkpt>
      <trkpt lat="45.18098" lon="5.98224">
        <ele>2435.4</ele>
        <time>2021-02-27T08:08:58Z</time>
      </trkpt>
      <trkpt lat="45.18098" lon="5.98224">
        <ele>2435.2</ele>
        <time>2021-02-27T08:08:59Z</time>
      </trkpt>
      <trkpt lat="45.18098" lon="5.98224">
        <ele>2435</ele>
        <time>2021-02-27T08:09:00Z</time>
      </trkpt>
      <trkpt lat="45.18098" lon="5.98224">
        <ele>2434.8</ele>
        <time>2021-02-27T08:09:01Z</time>
      </trkpt>
      <trkpt lat="45.18098" lon="5.98224">
        <ele>2434.8</ele>
        <time>2021-02-27T08:09:02Z</time>
      </trkpt>
      <trkpt lat="45.18098" lon="5.98224">
        <ele>2434.8</ele>
        <time>2021-02-27T08:09:03Z</time>
      </trkpt>
      <trkpt lat="45.18098" lon="5.98224">
        <ele>2434.6</ele>
        <time>2021-02-27T08:09:04Z</time>
      </trkpt>
      <trkpt lat="45.18098" lon="5.98224">
        <ele>2434.4</ele>
        <time>2021-02-27T08:09:05Z</time>
      </trkpt>
      <trkpt lat="45.18098" lon="5.98224">
        <ele>2434.4</ele>
        <time>2021-02-27T08:09:06Z</time>
      </trkpt>
      <trkpt lat="45.18098" lon="5.98224">
        <ele>2434.2</ele>
        <time>2021-02-27T08:09:07Z</time>
      </trkpt>
      <trkpt lat="45.18098" lon="5.98224">
        <ele>2434.4</ele>
        <time>2021-02-27T08:09:08Z</time>
      </trkpt>
      <trkpt lat="45.18098" lon="5.98224">
        <ele>2434.4</ele>
        <time>2021-02-27T08:09:09Z</time>
      </trkpt>
      <trkpt lat="45.18098" lon="5.98224">
        <ele>2434.2</ele>
        <time>2021-02-27T08:09:10Z</time>
      </trkpt>
      <trkpt lat="45.18098" lon="5.98224">
        <ele>2434</ele>
        <time>2021-02-27T08:09:11Z</time>
      </trkpt>
      <trkpt lat="45.18098" lon="5.98224">
        <ele>2434</ele>
        <time>2021-02-27T08:09:12Z</time>
      </trkpt>
      <trkpt lat="45.18098" lon="5.98224">
        <ele>2433.8</ele>
        <time>2021-02-27T08:09:13Z</time>
      </trkpt>
      <trkpt lat="45.18098" lon="5.98224">
        <ele>2433.8</ele>
        <time>2021-02-27T08:09:14Z</time>
      </trkpt>
      <trkpt lat="45.18098" lon="5.98224">
        <ele>2433.8</ele>
        <time>2021-02-27T08:09:15Z</time>
      </trkpt>
      <trkpt lat="45.18098" lon="5.98224">
        <ele>2433.8</ele>
        <time>2021-02-27T08:09:16Z</time>
      </trkpt>
      <trkpt lat="45.181" lon="5.98223">
        <ele>2433.6</ele>
        <time>2021-02-27T08:09:17Z</time>
      </trkpt>
      <trkpt lat="45.181" lon="5.98223">
        <ele>2433.6</ele>
        <time>2021-02-27T08:09:18Z</time>
      </trkpt>
      <trkpt lat="45.181" lon="5.98223">
        <ele>2433.6</ele>
        <time>2021-02-27T08:09:19Z</time>
      </trkpt>
      <trkpt lat="45.181" lon="5.98223">
        <ele>2433.4</ele>
        <time>2021-02-27T08:09:20Z</time>
      </trkpt>
      <trkpt lat="45.181" lon="5.98223">
        <ele>2433.4</ele>
        <time>2021-02-27T08:09:21Z</time>
      </trkpt>
      <trkpt lat="45.181" lon="5.98223">
        <ele>2433.2</ele>
        <time>2021-02-27T08:09:22Z</time>
      </trkpt>
      <trkpt lat="45.181" lon="5.98223">
        <ele>2433.2</ele>
        <time>2021-02-27T08:09:23Z</time>
      </trkpt>
      <trkpt lat="45.181" lon="5.98223">
        <ele>2433</ele>
        <time>2021-02-27T08:09:24Z</time>
      </trkpt>
      <trkpt lat="45.181" lon="5.98223">
        <ele>2433.2</ele>
        <time>2021-02-27T08:09:25Z</time>
      </trkpt>
      <trkpt lat="45.181" lon="5.98223">
        <ele>2433.4</ele>
        <time>2021-02-27T08:09:26Z</time>
      </trkpt>
      <trkpt lat="45.181" lon="5.98223">
        <ele>2433.4</ele>
        <time>2021-02-27T08:09:27Z</time>
      </trkpt>
      <trkpt lat="45.181" lon="5.98223">
        <ele>2433.4</ele>
        <time>2021-02-27T08:09:28Z</time>
      </trkpt>
      <trkpt lat="45.181" lon="5.98223">
        <ele>2433.4</ele>
        <time>2021-02-27T08:09:29Z</time>
      </trkpt>
      <trkpt lat="45.181" lon="5.98223">
        <ele>2433.2</ele>
        <time>2021-02-27T08:09:30Z</time>
      </trkpt>
      <trkpt lat="45.181" lon="5.98223">
        <ele>2433</ele>
        <time>2021-02-27T08:09:31Z</time>
      </trkpt>
      <trkpt lat="45.18102" lon="5.98222">
        <ele>2433</ele>
        <time>2021-02-27T08:09:32Z</time>
      </trkpt>
      <trkpt lat="45.18102" lon="5.98222">
        <ele>2433</ele>
        <time>2021-02-27T08:09:33Z</time>
      </trkpt>
      <trkpt lat="45.18102" lon="5.98222">
        <ele>2433.2</ele>
        <time>2021-02-27T08:09:34Z</time>
      </trkpt>
      <trkpt lat="45.18104" lon="5.98221">
        <ele>2433</ele>
        <time>2021-02-27T08:09:35Z</time>
      </trkpt>
      <trkpt lat="45.18104" lon="5.98221">
        <ele>2433.4</ele>
        <time>2021-02-27T08:09:36Z</time>
      </trkpt>
      <trkpt lat="45.18104" lon="5.98221">
        <ele>2433.4</ele>
        <time>2021-02-27T08:09:37Z</time>
      </trkpt>
      <trkpt lat="45.18104" lon="5.98221">
        <ele>2433.2</ele>
        <time>2021-02-27T08:09:38Z</time>
      </trkpt>
      <trkpt lat="45.18104" lon="5.98221">
        <ele>2433.4</ele>
        <time>2021-02-27T08:09:39Z</time>
      </trkpt>
      <trkpt lat="45.18106" lon="5.9822">
        <ele>2433.6</ele>
        <time>2021-02-27T08:09:40Z</time>
      </trkpt>
      <trkpt lat="45.18106" lon="5.9822">
        <ele>2433.6</ele>
        <time>2021-02-27T08:09:41Z</time>
      </trkpt>
      <trkpt lat="45.18106" lon="5.9822">
        <ele>2433.8</ele>
        <time>2021-02-27T08:09:42Z</time>
      </trkpt>
      <trkpt lat="45.18109" lon="5.98219">
        <ele>2434</ele>
        <time>2021-02-27T08:09:43Z</time>
      </trkpt>
      <trkpt lat="45.18109" lon="5.98219">
        <ele>2434.2</ele>
        <time>2021-02-27T08:09:44Z</time>
      </trkpt>
      <trkpt lat="45.18109" lon="5.98219">
        <ele>2434.2</ele>
        <time>2021-02-27T08:09:45Z</time>
      </trkpt>
      <trkpt lat="45.1811" lon="5.98221">
        <ele>2434.4</ele>
        <time>2021-02-27T08:09:46Z</time>
      </trkpt>
      <trkpt lat="45.1811" lon="5.98221">
        <ele>2434.6</ele>
        <time>2021-02-27T08:09:47Z</time>
      </trkpt>
      <trkpt lat="45.18109" lon="5.98224">
        <ele>2435.2</ele>
        <time>2021-02-27T08:09:48Z</time>
      </trkpt>
      <trkpt lat="45.18109" lon="5.98224">
        <ele>2435.4</ele>
        <time>2021-02-27T08:09:49Z</time>
      </trkpt>
      <trkpt lat="45.18108" lon="5.98226">
        <ele>2435.6</ele>
        <time>2021-02-27T08:09:50Z</time>
      </trkpt>
      <trkpt lat="45.18108" lon="5.98226">
        <ele>2435.2</ele>
        <time>2021-02-27T08:09:51Z</time>
      </trkpt>
      <trkpt lat="45.18107" lon="5.98229">
        <ele>2435.6</ele>
        <time>2021-02-27T08:09:52Z</time>
      </trkpt>
      <trkpt lat="45.18107" lon="5.98229">
        <ele>2435.6</ele>
        <time>2021-02-27T08:09:53Z</time>
      </trkpt>
      <trkpt lat="45.18105" lon="5.98231">
        <ele>2436</ele>
        <time>2021-02-27T08:09:54Z</time>
      </trkpt>
      <trkpt lat="45.18105" lon="5.98231">
        <ele>2436.4</ele>
        <time>2021-02-27T08:09:55Z</time>
      </trkpt>
      <trkpt lat="45.18104" lon="5.98234">
        <ele>2436.4</ele>
        <time>2021-02-27T08:09:56Z</time>
      </trkpt>
      <trkpt lat="45.18104" lon="5.98234">
        <ele>2437.4</ele>
        <time>2021-02-27T08:09:57Z</time>
      </trkpt>
      <trkpt lat="45.18102" lon="5.98236">
        <ele>2437.4</ele>
        <time>2021-02-27T08:09:58Z</time>
      </trkpt>
      <trkpt lat="45.18102" lon="5.98236">
        <ele>2437.6</ele>
        <time>2021-02-27T08:09:59Z</time>
      </trkpt>
      <trkpt lat="45.18101" lon="5.98237">
        <ele>2437.8</ele>
        <time>2021-02-27T08:10:00Z</time>
      </trkpt>
      <trkpt lat="45.18101" lon="5.98237">
        <ele>2438</ele>
        <time>2021-02-27T08:10:01Z</time>
      </trkpt>
      <trkpt lat="45.18099" lon="5.98239">
        <ele>2438.4</ele>
        <time>2021-02-27T08:10:02Z</time>
      </trkpt>
      <trkpt lat="45.18099" lon="5.98239">
        <ele>2438.8</ele>
        <time>2021-02-27T08:10:03Z</time>
      </trkpt>
      <trkpt lat="45.18099" lon="5.98239">
        <ele>2438.8</ele>
        <time>2021-02-27T08:10:04Z</time>
      </trkpt>
      <trkpt lat="45.18097" lon="5.9824">
        <ele>2439.2</ele>
        <time>2021-02-27T08:10:05Z</time>
      </trkpt>
      <trkpt lat="45.18097" lon="5.9824">
        <ele>2439.6</ele>
        <time>2021-02-27T08:10:06Z</time>
      </trkpt>
      <trkpt lat="45.18097" lon="5.9824">
        <ele>2439.8</ele>
        <time>2021-02-27T08:10:07Z</time>
      </trkpt>
      <trkpt lat="45.18097" lon="5.9824">
        <ele>2440.2</ele>
        <time>2021-02-27T08:10:08Z</time>
      </trkpt>
      <trkpt lat="45.18097" lon="5.9824">
        <ele>2440.2</ele>
        <time>2021-02-27T08:10:09Z</time>
      </trkpt>
      <trkpt lat="45.18097" lon="5.9824">
        <ele>2440.4</ele>
        <time>2021-02-27T08:10:10Z</time>
      </trkpt>
      <trkpt lat="45.18097" lon="5.9824">
        <ele>2440.4</ele>
        <time>2021-02-27T08:10:11Z</time>
      </trkpt>
      <trkpt lat="45.18097" lon="5.9824">
        <ele>2440.6</ele>
        <time>2021-02-27T08:10:12Z</time>
      </trkpt>
      <trkpt lat="45.18099" lon="5.98242">
        <ele>2440.8</ele>
        <time>2021-02-27T08:10:13Z</time>
      </trkpt>
      <trkpt lat="45.18099" lon="5.98242">
        <ele>2441</ele>
        <time>2021-02-27T08:10:14Z</time>
      </trkpt>
      <trkpt lat="45.18099" lon="5.98242">
        <ele>2441.2</ele>
        <time>2021-02-27T08:10:15Z</time>
      </trkpt>
      <trkpt lat="45.18099" lon="5.98242">
        <ele>2441.6</ele>
        <time>2021-02-27T08:10:16Z</time>
      </trkpt>
      <trkpt lat="45.18099" lon="5.98242">
        <ele>2441.8</ele>
        <time>2021-02-27T08:10:17Z</time>
      </trkpt>
      <trkpt lat="45.18102" lon="5.98244">
        <ele>2441.8</ele>
        <time>2021-02-27T08:10:18Z</time>
      </trkpt>
      <trkpt lat="45.18102" lon="5.98244">
        <ele>2442</ele>
        <time>2021-02-27T08:10:19Z</time>
      </trkpt>
      <trkpt lat="45.18102" lon="5.98244">
        <ele>2442.2</ele>
        <time>2021-02-27T08:10:20Z</time>
      </trkpt>
      <trkpt lat="45.18102" lon="5.98244">
        <ele>2442.4</ele>
        <time>2021-02-27T08:10:21Z</time>
      </trkpt>
      <trkpt lat="45.18102" lon="5.98244">
        <ele>2442.8</ele>
        <time>2021-02-27T08:10:22Z</time>
      </trkpt>
      <trkpt lat="45.18104" lon="5.98246">
        <ele>2443</ele>
        <time>2021-02-27T08:10:23Z</time>
      </trkpt>
      <trkpt lat="45.18104" lon="5.98246">
        <ele>2443.2</ele>
        <time>2021-02-27T08:10:24Z</time>
      </trkpt>
      <trkpt lat="45.18104" lon="5.98246">
        <ele>2443.6</ele>
        <time>2021-02-27T08:10:25Z</time>
      </trkpt>
      <trkpt lat="45.18106" lon="5.98247">
        <ele>2443.6</ele>
        <time>2021-02-27T08:10:26Z</time>
      </trkpt>
      <trkpt lat="45.18106" lon="5.98247">
        <ele>2443.8</ele>
        <time>2021-02-27T08:10:27Z</time>
      </trkpt>
      <trkpt lat="45.18106" lon="5.98247">
        <ele>2444.4</ele>
        <time>2021-02-27T08:10:28Z</time>
      </trkpt>
      <trkpt lat="45.18106" lon="5.98247">
        <ele>2444.2</ele>
        <time>2021-02-27T08:10:29Z</time>
      </trkpt>
      <trkpt lat="45.18106" lon="5.98247">
        <ele>2444.6</ele>
        <time>2021-02-27T08:10:30Z</time>
      </trkpt>
      <trkpt lat="45.18109" lon="5.98248">
        <ele>2444.8</ele>
        <time>2021-02-27T08:10:31Z</time>
      </trkpt>
      <trkpt lat="45.18109" lon="5.98248">
        <ele>2445.4</ele>
        <time>2021-02-27T08:10:32Z</time>
      </trkpt>
      <trkpt lat="45.18108" lon="5.9825">
        <ele>2445.6</ele>
        <time>2021-02-27T08:10:33Z</time>
      </trkpt>
      <trkpt lat="45.18108" lon="5.9825">
        <ele>2446.2</ele>
        <time>2021-02-27T08:10:34Z</time>
      </trkpt>
      <trkpt lat="45.18108" lon="5.9825">
        <ele>2446.4</ele>
        <time>2021-02-27T08:10:35Z</time>
      </trkpt>
      <trkpt lat="45.18107" lon="5.98252">
        <ele>2446.6</ele>
        <time>2021-02-27T08:10:36Z</time>
      </trkpt>
      <trkpt lat="45.18107" lon="5.98252">
        <ele>2447</ele>
        <time>2021-02-27T08:10:37Z</time>
      </trkpt>
      <trkpt lat="45.18107" lon="5.98252">
        <ele>2447.4</ele>
        <time>2021-02-27T08:10:38Z</time>
      </trkpt>
      <trkpt lat="45.18105" lon="5.98256">
        <ele>2447.2</ele>
        <time>2021-02-27T08:10:39Z</time>
      </trkpt>
      <trkpt lat="45.18105" lon="5.98256">
        <ele>2447.8</ele>
        <time>2021-02-27T08:10:40Z</time>
      </trkpt>
      <trkpt lat="45.18104" lon="5.98258">
        <ele>2447.8</ele>
        <time>2021-02-27T08:10:41Z</time>
      </trkpt>
      <trkpt lat="45.18104" lon="5.98258">
        <ele>2448</ele>
        <time>2021-02-27T08:10:42Z</time>
      </trkpt>
      <trkpt lat="45.18104" lon="5.98258">
        <ele>2448.4</ele>
        <time>2021-02-27T08:10:43Z</time>
      </trkpt>
      <trkpt lat="45.18102" lon="5.9826">
        <ele>2448.4</ele>
        <time>2021-02-27T08:10:44Z</time>
      </trkpt>
      <trkpt lat="45.18102" lon="5.9826">
        <ele>2448.6</ele>
        <time>2021-02-27T08:10:45Z</time>
      </trkpt>
      <trkpt lat="45.18102" lon="5.9826">
        <ele>2449</ele>
        <time>2021-02-27T08:10:46Z</time>
      </trkpt>
      <trkpt lat="45.18101" lon="5.98262">
        <ele>2449.4</ele>
        <time>2021-02-27T08:10:47Z</time>
      </trkpt>
      <trkpt lat="45.18101" lon="5.98262">
        <ele>2449.6</ele>
        <time>2021-02-27T08:10:48Z</time>
      </trkpt>
      <trkpt lat="45.18101" lon="5.98262">
        <ele>2450</ele>
        <time>2021-02-27T08:10:49Z</time>
      </trkpt>
      <trkpt lat="45.18101" lon="5.98262">
        <ele>2450</ele>
        <time>2021-02-27T08:10:50Z</time>
      </trkpt>
      <trkpt lat="45.18104" lon="5.98263">
        <ele>2450</ele>
        <time>2021-02-27T08:10:51Z</time>
      </trkpt>
      <trkpt lat="45.18104" lon="5.98263">
        <ele>2450.2</ele>
        <time>2021-02-27T08:10:52Z</time>
      </trkpt>
      <trkpt lat="45.18104" lon="5.98263">
        <ele>2450.4</ele>
        <time>2021-02-27T08:10:53Z</time>
      </trkpt>
      <trkpt lat="45.18104" lon="5.98263">
        <ele>2450.6</ele>
        <time>2021-02-27T08:10:54Z</time>
      </trkpt>
      <trkpt lat="45.18105" lon="5.98264">
        <ele>2451.2</ele>
        <time>2021-02-27T08:10:55Z</time>
      </trkpt>
      <trkpt lat="45.18105" lon="5.98264">
        <ele>2451.2</ele>
        <time>2021-02-27T08:10:56Z</time>
      </trkpt>
      <trkpt lat="45.18107" lon="5.98264">
        <ele>2451.4</ele>
        <time>2021-02-27T08:10:57Z</time>
      </trkpt>
      <trkpt lat="45.18107" lon="5.98264">
        <ele>2451.4</ele>
        <time>2021-02-27T08:10:58Z</time>
      </trkpt>
      <trkpt lat="45.18109" lon="5.98265">
        <ele>2451.6</ele>
        <time>2021-02-27T08:10:59Z</time>
      </trkpt>
      <trkpt lat="45.18109" lon="5.98265">
        <ele>2452</ele>
        <time>2021-02-27T08:11:00Z</time>
      </trkpt>
      <trkpt lat="45.18109" lon="5.98265">
        <ele>2452.4</ele>
        <time>2021-02-27T08:11:01Z</time>
      </trkpt>
      <trkpt lat="45.18112" lon="5.98265">
        <ele>2452.6</ele>
        <time>2021-02-27T08:11:02Z</time>
      </trkpt>
      <trkpt lat="45.18112" lon="5.98265">
        <ele>2452.8</ele>
        <time>2021-02-27T08:11:03Z</time>
      </trkpt>
      <trkpt lat="45.18112" lon="5.98265">
        <ele>2453</ele>
        <time>2021-02-27T08:11:04Z</time>
      </trkpt>
      <trkpt lat="45.18114" lon="5.98266">
        <ele>2453</ele>
        <time>2021-02-27T08:11:05Z</time>
      </trkpt>
      <trkpt lat="45.18114" lon="5.98266">
        <ele>2453.4</ele>
        <time>2021-02-27T08:11:06Z</time>
      </trkpt>
      <trkpt lat="45.18114" lon="5.98266">
        <ele>2454</ele>
        <time>2021-02-27T08:11:07Z</time>
      </trkpt>
      <trkpt lat="45.18117" lon="5.98266">
        <ele>2454.2</ele>
        <time>2021-02-27T08:11:08Z</time>
      </trkpt>
      <trkpt lat="45.18117" lon="5.98266">
        <ele>2454.6</ele>
        <time>2021-02-27T08:11:09Z</time>
      </trkpt>
      <trkpt lat="45.18119" lon="5.98266">
        <ele>2454.8</ele>
        <time>2021-02-27T08:11:10Z</time>
      </trkpt>
      <trkpt lat="45.18119" lon="5.98266">
        <ele>2455.2</ele>
        <time>2021-02-27T08:11:11Z</time>
      </trkpt>
      <trkpt lat="45.1812" lon="5.98266">
        <ele>2455.2</ele>
        <time>2021-02-27T08:11:12Z</time>
      </trkpt>
      <trkpt lat="45.1812" lon="5.98266">
        <ele>2455.4</ele>
        <time>2021-02-27T08:11:13Z</time>
      </trkpt>
      <trkpt lat="45.18121" lon="5.98266">
        <ele>2455.8</ele>
        <time>2021-02-27T08:11:14Z</time>
      </trkpt>
      <trkpt lat="45.18121" lon="5.98267">
        <ele>2455.8</ele>
        <time>2021-02-27T08:11:15Z</time>
      </trkpt>
      <trkpt lat="45.18122" lon="5.98267">
        <ele>2456</ele>
        <time>2021-02-27T08:11:16Z</time>
      </trkpt>
      <trkpt lat="45.18122" lon="5.98268">
        <ele>2456.6</ele>
        <time>2021-02-27T08:11:17Z</time>
      </trkpt>
      <trkpt lat="45.18122" lon="5.98268">
        <ele>2456.8</ele>
        <time>2021-02-27T08:11:18Z</time>
      </trkpt>
      <trkpt lat="45.18123" lon="5.98269">
        <ele>2457.2</ele>
        <time>2021-02-27T08:11:19Z</time>
      </trkpt>
      <trkpt lat="45.18123" lon="5.98269">
        <ele>2457.4</ele>
        <time>2021-02-27T08:11:20Z</time>
      </trkpt>
      <trkpt lat="45.18123" lon="5.9827">
        <ele>2457.8</ele>
        <time>2021-02-27T08:11:21Z</time>
      </trkpt>
      <trkpt lat="45.18124" lon="5.9827">
        <ele>2458</ele>
        <time>2021-02-27T08:11:22Z</time>
      </trkpt>
      <trkpt lat="45.18124" lon="5.9827">
        <ele>2458.2</ele>
        <time>2021-02-27T08:11:23Z</time>
      </trkpt>
      <trkpt lat="45.18125" lon="5.98271">
        <ele>2458.6</ele>
        <time>2021-02-27T08:11:24Z</time>
      </trkpt>
      <trkpt lat="45.18125" lon="5.98271">
        <ele>2459.2</ele>
        <time>2021-02-27T08:11:25Z</time>
      </trkpt>
      <trkpt lat="45.18125" lon="5.98272">
        <ele>2459.4</ele>
        <time>2021-02-27T08:11:26Z</time>
      </trkpt>
      <trkpt lat="45.18126" lon="5.98272">
        <ele>2460</ele>
        <time>2021-02-27T08:11:27Z</time>
      </trkpt>
      <trkpt lat="45.18126" lon="5.98273">
        <ele>2460</ele>
        <time>2021-02-27T08:11:28Z</time>
      </trkpt>
      <trkpt lat="45.18126" lon="5.98273">
        <ele>2460.2</ele>
        <time>2021-02-27T08:11:29Z</time>
      </trkpt>
      <trkpt lat="45.18127" lon="5.98274">
        <ele>2460.8</ele>
        <time>2021-02-27T08:11:30Z</time>
      </trkpt>
      <trkpt lat="45.18127" lon="5.98274">
        <ele>2461</ele>
        <time>2021-02-27T08:11:31Z</time>
      </trkpt>
      <trkpt lat="45.18127" lon="5.98274">
        <ele>2461.4</ele>
        <time>2021-02-27T08:11:32Z</time>
      </trkpt>
      <trkpt lat="45.18127" lon="5.98274">
        <ele>2461.8</ele>
        <time>2021-02-27T08:11:33Z</time>
      </trkpt>
      <trkpt lat="45.18127" lon="5.98274">
        <ele>2462.2</ele>
        <time>2021-02-27T08:11:34Z</time>
      </trkpt>
      <trkpt lat="45.18127" lon="5.98274">
        <ele>2462.4</ele>
        <time>2021-02-27T08:11:35Z</time>
      </trkpt>
      <trkpt lat="45.18129" lon="5.98276">
        <ele>2462.4</ele>
        <time>2021-02-27T08:11:36Z</time>
      </trkpt>
      <trkpt lat="45.18129" lon="5.98276">
        <ele>2462.4</ele>
        <time>2021-02-27T08:11:37Z</time>
      </trkpt>
      <trkpt lat="45.18129" lon="5.98276">
        <ele>2462.6</ele>
        <time>2021-02-27T08:11:38Z</time>
      </trkpt>
      <trkpt lat="45.18131" lon="5.98276">
        <ele>2462.6</ele>
        <time>2021-02-27T08:11:39Z</time>
      </trkpt>
      <trkpt lat="45.18131" lon="5.98276">
        <ele>2463</ele>
        <time>2021-02-27T08:11:40Z</time>
      </trkpt>
      <trkpt lat="45.18131" lon="5.98276">
        <ele>2463.2</ele>
        <time>2021-02-27T08:11:41Z</time>
      </trkpt>
      <trkpt lat="45.18133" lon="5.98278">
        <ele>2463.6</ele>
        <time>2021-02-27T08:11:42Z</time>
      </trkpt>
      <trkpt lat="45.18133" lon="5.98278">
        <ele>2464</ele>
        <time>2021-02-27T08:11:43Z</time>
      </trkpt>
      <trkpt lat="45.18134" lon="5.9828">
        <ele>2464</ele>
        <time>2021-02-27T08:11:44Z</time>
      </trkpt>
      <trkpt lat="45.18134" lon="5.9828">
        <ele>2464.4</ele>
        <time>2021-02-27T08:11:45Z</time>
      </trkpt>
      <trkpt lat="45.18134" lon="5.9828">
        <ele>2464.6</ele>
        <time>2021-02-27T08:11:46Z</time>
      </trkpt>
      <trkpt lat="45.18134" lon="5.9828">
        <ele>2465.2</ele>
        <time>2021-02-27T08:11:47Z</time>
      </trkpt>
      <trkpt lat="45.18134" lon="5.98283">
        <ele>2465.6</ele>
        <time>2021-02-27T08:11:48Z</time>
      </trkpt>
      <trkpt lat="45.18134" lon="5.98283">
        <ele>2465.8</ele>
        <time>2021-02-27T08:11:49Z</time>
      </trkpt>
      <trkpt lat="45.18135" lon="5.98284">
        <ele>2466.2</ele>
        <time>2021-02-27T08:11:50Z</time>
      </trkpt>
      <trkpt lat="45.18136" lon="5.98285">
        <ele>2466.8</ele>
        <time>2021-02-27T08:11:51Z</time>
      </trkpt>
      <trkpt lat="45.18136" lon="5.98286">
        <ele>2466.8</ele>
        <time>2021-02-27T08:11:52Z</time>
      </trkpt>
      <trkpt lat="45.18137" lon="5.98287">
        <ele>2467</ele>
        <time>2021-02-27T08:11:53Z</time>
      </trkpt>
      <trkpt lat="45.18138" lon="5.98288">
        <ele>2467.2</ele>
        <time>2021-02-27T08:11:54Z</time>
      </trkpt>
      <trkpt lat="45.18138" lon="5.98289">
        <ele>2467.4</ele>
        <time>2021-02-27T08:11:55Z</time>
      </trkpt>
      <trkpt lat="45.18139" lon="5.9829">
        <ele>2467.8</ele>
        <time>2021-02-27T08:11:56Z</time>
      </trkpt>
      <trkpt lat="45.1814" lon="5.98291">
        <ele>2468</ele>
        <time>2021-02-27T08:11:57Z</time>
      </trkpt>
      <trkpt lat="45.1814" lon="5.98291">
        <ele>2467.8</ele>
        <time>2021-02-27T08:11:58Z</time>
      </trkpt>
      <trkpt lat="45.18141" lon="5.98292">
        <ele>2468.2</ele>
        <time>2021-02-27T08:11:59Z</time>
      </trkpt>
      <trkpt lat="45.18142" lon="5.98293">
        <ele>2468.4</ele>
        <time>2021-02-27T08:12:00Z</time>
      </trkpt>
      <trkpt lat="45.18142" lon="5.98293">
        <ele>2468.8</ele>
        <time>2021-02-27T08:12:01Z</time>
      </trkpt>
      <trkpt lat="45.18143" lon="5.98294">
        <ele>2469</ele>
        <time>2021-02-27T08:12:02Z</time>
      </trkpt>
      <trkpt lat="45.18143" lon="5.98295">
        <ele>2469.4</ele>
        <time>2021-02-27T08:12:03Z</time>
      </trkpt>
      <trkpt lat="45.18144" lon="5.98295">
        <ele>2469.8</ele>
        <time>2021-02-27T08:12:04Z</time>
      </trkpt>
      <trkpt lat="45.18145" lon="5.98296">
        <ele>2470</ele>
        <time>2021-02-27T08:12:05Z</time>
      </trkpt>
      <trkpt lat="45.18145" lon="5.98296">
        <ele>2470.4</ele>
        <time>2021-02-27T08:12:06Z</time>
      </trkpt>
      <trkpt lat="45.18146" lon="5.98297">
        <ele>2470.8</ele>
        <time>2021-02-27T08:12:07Z</time>
      </trkpt>
      <trkpt lat="45.18146" lon="5.98297">
        <ele>2471</ele>
        <time>2021-02-27T08:12:08Z</time>
      </trkpt>
      <trkpt lat="45.18147" lon="5.98298">
        <ele>2471.4</ele>
        <time>2021-02-27T08:12:09Z</time>
      </trkpt>
      <trkpt lat="45.18148" lon="5.98298">
        <ele>2471.6</ele>
        <time>2021-02-27T08:12:10Z</time>
      </trkpt>
      <trkpt lat="45.18148" lon="5.98299">
        <ele>2472.2</ele>
        <time>2021-02-27T08:12:11Z</time>
      </trkpt>
      <trkpt lat="45.18149" lon="5.983">
        <ele>2472.4</ele>
        <time>2021-02-27T08:12:12Z</time>
      </trkpt>
      <trkpt lat="45.18149" lon="5.983">
        <ele>2472.6</ele>
        <time>2021-02-27T08:12:13Z</time>
      </trkpt>
      <trkpt lat="45.18149" lon="5.983">
        <ele>2472.8</ele>
        <time>2021-02-27T08:12:14Z</time>
      </trkpt>
      <trkpt lat="45.18149" lon="5.983">
        <ele>2472.8</ele>
        <time>2021-02-27T08:12:15Z</time>
      </trkpt>
      <trkpt lat="45.18152" lon="5.98301">
        <ele>2473.2</ele>
        <time>2021-02-27T08:12:16Z</time>
      </trkpt>
      <trkpt lat="45.18152" lon="5.98301">
        <ele>2473.2</ele>
        <time>2021-02-27T08:12:17Z</time>
      </trkpt>
      <trkpt lat="45.18153" lon="5.98301">
        <ele>2473.2</ele>
        <time>2021-02-27T08:12:18Z</time>
      </trkpt>
      <trkpt lat="45.18154" lon="5.98302">
        <ele>2473.8</ele>
        <time>2021-02-27T08:12:19Z</time>
      </trkpt>
      <trkpt lat="45.18154" lon="5.98303">
        <ele>2473.8</ele>
        <time>2021-02-27T08:12:20Z</time>
      </trkpt>
      <trkpt lat="45.18155" lon="5.98303">
        <ele>2474</ele>
        <time>2021-02-27T08:12:21Z</time>
      </trkpt>
      <trkpt lat="45.18155" lon="5.98304">
        <ele>2474</ele>
        <time>2021-02-27T08:12:22Z</time>
      </trkpt>
      <trkpt lat="45.18156" lon="5.98305">
        <ele>2474.2</ele>
        <time>2021-02-27T08:12:23Z</time>
      </trkpt>
      <trkpt lat="45.18156" lon="5.98305">
        <ele>2474.6</ele>
        <time>2021-02-27T08:12:24Z</time>
      </trkpt>
      <trkpt lat="45.18158" lon="5.98307">
        <ele>2474.6</ele>
        <time>2021-02-27T08:12:25Z</time>
      </trkpt>
      <trkpt lat="45.18161" lon="5.98309">
        <ele>2474.6</ele>
        <time>2021-02-27T08:12:26Z</time>
      </trkpt>
      <trkpt lat="45.18163" lon="5.98311">
        <ele>2474.4</ele>
        <time>2021-02-27T08:12:27Z</time>
      </trkpt>
      <trkpt lat="45.18165" lon="5.98313">
        <ele>2474.6</ele>
        <time>2021-02-27T08:12:28Z</time>
      </trkpt>
      <trkpt lat="45.18167" lon="5.98315">
        <ele>2474.4</ele>
        <time>2021-02-27T08:12:29Z</time>
      </trkpt>
      <trkpt lat="45.1817" lon="5.98317">
        <ele>2474.2</ele>
        <time>2021-02-27T08:12:30Z</time>
      </trkpt>
      <trkpt lat="45.18177" lon="5.98321">
        <ele>2473.4</ele>
        <time>2021-02-27T08:12:31Z</time>
      </trkpt>
      <trkpt lat="45.18179" lon="5.98323">
        <ele>2472.6</ele>
        <time>2021-02-27T08:12:32Z</time>
      </trkpt>
      <trkpt lat="45.18179" lon="5.98323">
        <ele>2472.2</ele>
        <time>2021-02-27T08:12:33Z</time>
      </trkpt>
      <trkpt lat="45.1818" lon="5.98324">
        <ele>2471.6</ele>
        <time>2021-02-27T08:12:34Z</time>
      </trkpt>
      <trkpt lat="45.18181" lon="5.98325">
        <ele>2471.6</ele>
        <time>2021-02-27T08:12:35Z</time>
      </trkpt>
      <trkpt lat="45.18183" lon="5.98326">
        <ele>2471.8</ele>
        <time>2021-02-27T08:12:36Z</time>
      </trkpt>
      <trkpt lat="45.18184" lon="5.98327">
        <ele>2471.6</ele>
        <time>2021-02-27T08:12:37Z</time>
      </trkpt>
      <trkpt lat="45.18185" lon="5.98328">
        <ele>2472.2</ele>
        <time>2021-02-27T08:12:38Z</time>
      </trkpt>
      <trkpt lat="45.18186" lon="5.98329">
        <ele>2472.2</ele>
        <time>2021-02-27T08:12:39Z</time>
      </trkpt>
      <trkpt lat="45.18186" lon="5.98329">
        <ele>2472</ele>
        <time>2021-02-27T08:12:40Z</time>
      </trkpt>
      <trkpt lat="45.18186" lon="5.98329">
        <ele>2472.8</ele>
        <time>2021-02-27T08:12:41Z</time>
      </trkpt>
      <trkpt lat="45.18188" lon="5.98332">
        <ele>2472.8</ele>
        <time>2021-02-27T08:12:42Z</time>
      </trkpt>
      <trkpt lat="45.18188" lon="5.98332">
        <ele>2473</ele>
        <time>2021-02-27T08:12:43Z</time>
      </trkpt>
      <trkpt lat="45.18189" lon="5.98333">
        <ele>2473.6</ele>
        <time>2021-02-27T08:12:44Z</time>
      </trkpt>
      <trkpt lat="45.18189" lon="5.98333">
        <ele>2474</ele>
        <time>2021-02-27T08:12:45Z</time>
      </trkpt>
      <trkpt lat="45.1819" lon="5.98334">
        <ele>2474.4</ele>
        <time>2021-02-27T08:12:46Z</time>
      </trkpt>
      <trkpt lat="45.1819" lon="5.98335">
        <ele>2474.6</ele>
        <time>2021-02-27T08:12:47Z</time>
      </trkpt>
      <trkpt lat="45.18191" lon="5.98336">
        <ele>2475</ele>
        <time>2021-02-27T08:12:48Z</time>
      </trkpt>
      <trkpt lat="45.18191" lon="5.98336">
        <ele>2475</ele>
        <time>2021-02-27T08:12:49Z</time>
      </trkpt>
      <trkpt lat="45.18192" lon="5.98337">
        <ele>2475.2</ele>
        <time>2021-02-27T08:12:50Z</time>
      </trkpt>
      <trkpt lat="45.18192" lon="5.98338">
        <ele>2475.4</ele>
        <time>2021-02-27T08:12:51Z</time>
      </trkpt>
      <trkpt lat="45.18192" lon="5.98338">
        <ele>2475.6</ele>
        <time>2021-02-27T08:12:52Z</time>
      </trkpt>
      <trkpt lat="45.18193" lon="5.98339">
        <ele>2476.2</ele>
        <time>2021-02-27T08:12:53Z</time>
      </trkpt>
      <trkpt lat="45.18193" lon="5.9834">
        <ele>2476.4</ele>
        <time>2021-02-27T08:12:54Z</time>
      </trkpt>
      <trkpt lat="45.18194" lon="5.98341">
        <ele>2476.8</ele>
        <time>2021-02-27T08:12:55Z</time>
      </trkpt>
      <trkpt lat="45.18194" lon="5.98341">
        <ele>2477</ele>
        <time>2021-02-27T08:12:56Z</time>
      </trkpt>
      <trkpt lat="45.18195" lon="5.98342">
        <ele>2477.6</ele>
        <time>2021-02-27T08:12:57Z</time>
      </trkpt>
      <trkpt lat="45.18195" lon="5.98343">
        <ele>2477.6</ele>
        <time>2021-02-27T08:12:58Z</time>
      </trkpt>
      <trkpt lat="45.18196" lon="5.98343">
        <ele>2478.2</ele>
        <time>2021-02-27T08:12:59Z</time>
      </trkpt>
      <trkpt lat="45.18197" lon="5.98343">
        <ele>2478.6</ele>
        <time>2021-02-27T08:13:00Z</time>
      </trkpt>
      <trkpt lat="45.18197" lon="5.98344">
        <ele>2479</ele>
        <time>2021-02-27T08:13:01Z</time>
      </trkpt>
      <trkpt lat="45.18198" lon="5.98344">
        <ele>2479.2</ele>
        <time>2021-02-27T08:13:02Z</time>
      </trkpt>
      <trkpt lat="45.18199" lon="5.98345">
        <ele>2479.6</ele>
        <time>2021-02-27T08:13:03Z</time>
      </trkpt>
      <trkpt lat="45.18199" lon="5.98345">
        <ele>2480.2</ele>
        <time>2021-02-27T08:13:04Z</time>
      </trkpt>
      <trkpt lat="45.182" lon="5.98346">
        <ele>2480.2</ele>
        <time>2021-02-27T08:13:05Z</time>
      </trkpt>
      <trkpt lat="45.18201" lon="5.98346">
        <ele>2480.2</ele>
        <time>2021-02-27T08:13:06Z</time>
      </trkpt>
      <trkpt lat="45.18201" lon="5.98347">
        <ele>2480.6</ele>
        <time>2021-02-27T08:13:07Z</time>
      </trkpt>
      <trkpt lat="45.18202" lon="5.98347">
        <ele>2480.8</ele>
        <time>2021-02-27T08:13:08Z</time>
      </trkpt>
      <trkpt lat="45.18203" lon="5.98348">
        <ele>2481.2</ele>
        <time>2021-02-27T08:13:09Z</time>
      </trkpt>
      <trkpt lat="45.18204" lon="5.98348">
        <ele>2481.4</ele>
        <time>2021-02-27T08:13:10Z</time>
      </trkpt>
      <trkpt lat="45.18205" lon="5.98349">
        <ele>2481.8</ele>
        <time>2021-02-27T08:13:11Z</time>
      </trkpt>
      <trkpt lat="45.18205" lon="5.9835">
        <ele>2482</ele>
        <time>2021-02-27T08:13:12Z</time>
      </trkpt>
      <trkpt lat="45.18206" lon="5.9835">
        <ele>2482.2</ele>
        <time>2021-02-27T08:13:13Z</time>
      </trkpt>
      <trkpt lat="45.18207" lon="5.98351">
        <ele>2482.6</ele>
        <time>2021-02-27T08:13:14Z</time>
      </trkpt>
      <trkpt lat="45.18208" lon="5.98352">
        <ele>2482.8</ele>
        <time>2021-02-27T08:13:15Z</time>
      </trkpt>
      <trkpt lat="45.18209" lon="5.98352">
        <ele>2483</ele>
        <time>2021-02-27T08:13:16Z</time>
      </trkpt>
      <trkpt lat="45.1821" lon="5.98353">
        <ele>2483.2</ele>
        <time>2021-02-27T08:13:17Z</time>
      </trkpt>
      <trkpt lat="45.18211" lon="5.98354">
        <ele>2483.6</ele>
        <time>2021-02-27T08:13:18Z</time>
      </trkpt>
      <trkpt lat="45.18212" lon="5.98355">
        <ele>2483.6</ele>
        <time>2021-02-27T08:13:19Z</time>
      </trkpt>
      <trkpt lat="45.18213" lon="5.98356">
        <ele>2484</ele>
        <time>2021-02-27T08:13:20Z</time>
      </trkpt>
      <trkpt lat="45.18214" lon="5.98357">
        <ele>2484</ele>
        <time>2021-02-27T08:13:21Z</time>
      </trkpt>
      <trkpt lat="45.18216" lon="5.98358">
        <ele>2484.6</ele>
        <time>2021-02-27T08:13:22Z</time>
      </trkpt>
      <trkpt lat="45.18217" lon="5.98359">
        <ele>2484.4</ele>
        <time>2021-02-27T08:13:23Z</time>
      </trkpt>
      <trkpt lat="45.18218" lon="5.9836">
        <ele>2484.8</ele>
        <time>2021-02-27T08:13:24Z</time>
      </trkpt>
      <trkpt lat="45.18219" lon="5.98361">
        <ele>2485.2</ele>
        <time>2021-02-27T08:13:25Z</time>
      </trkpt>
      <trkpt lat="45.1822" lon="5.98363">
        <ele>2485.4</ele>
        <time>2021-02-27T08:13:26Z</time>
      </trkpt>
      <trkpt lat="45.18221" lon="5.98363">
        <ele>2485.6</ele>
        <time>2021-02-27T08:13:27Z</time>
      </trkpt>
      <trkpt lat="45.18221" lon="5.98363">
        <ele>2485.8</ele>
        <time>2021-02-27T08:13:28Z</time>
      </trkpt>
      <trkpt lat="45.18222" lon="5.98364">
        <ele>2486.6</ele>
        <time>2021-02-27T08:13:29Z</time>
      </trkpt>
      <trkpt lat="45.18223" lon="5.98365">
        <ele>2486.8</ele>
        <time>2021-02-27T08:13:30Z</time>
      </trkpt>
      <trkpt lat="45.18223" lon="5.98366">
        <ele>2487</ele>
        <time>2021-02-27T08:13:31Z</time>
      </trkpt>
      <trkpt lat="45.18224" lon="5.98367">
        <ele>2487.2</ele>
        <time>2021-02-27T08:13:32Z</time>
      </trkpt>
      <trkpt lat="45.18225" lon="5.98368">
        <ele>2487.4</ele>
        <time>2021-02-27T08:13:33Z</time>
      </trkpt>
      <trkpt lat="45.18226" lon="5.98369">
        <ele>2487.6</ele>
        <time>2021-02-27T08:13:34Z</time>
      </trkpt>
      <trkpt lat="45.18227" lon="5.9837">
        <ele>2487.6</ele>
        <time>2021-02-27T08:13:35Z</time>
      </trkpt>
      <trkpt lat="45.18227" lon="5.98371">
        <ele>2487.8</ele>
        <time>2021-02-27T08:13:36Z</time>
      </trkpt>
      <trkpt lat="45.18228" lon="5.98372">
        <ele>2488.4</ele>
        <time>2021-02-27T08:13:37Z</time>
      </trkpt>
      <trkpt lat="45.18229" lon="5.98373">
        <ele>2488.2</ele>
        <time>2021-02-27T08:13:38Z</time>
      </trkpt>
      <trkpt lat="45.1823" lon="5.98374">
        <ele>2488.4</ele>
        <time>2021-02-27T08:13:39Z</time>
      </trkpt>
      <trkpt lat="45.18231" lon="5.98375">
        <ele>2488.6</ele>
        <time>2021-02-27T08:13:40Z</time>
      </trkpt>
      <trkpt lat="45.18231" lon="5.98376">
        <ele>2489.2</ele>
        <time>2021-02-27T08:13:41Z</time>
      </trkpt>
      <trkpt lat="45.18232" lon="5.98377">
        <ele>2489.2</ele>
        <time>2021-02-27T08:13:42Z</time>
      </trkpt>
      <trkpt lat="45.18233" lon="5.98378">
        <ele>2489.4</ele>
        <time>2021-02-27T08:13:43Z</time>
      </trkpt>
      <trkpt lat="45.18234" lon="5.98379">
        <ele>2489.6</ele>
        <time>2021-02-27T08:13:44Z</time>
      </trkpt>
      <trkpt lat="45.18235" lon="5.9838">
        <ele>2489.8</ele>
        <time>2021-02-27T08:13:45Z</time>
      </trkpt>
      <trkpt lat="45.18236" lon="5.98381">
        <ele>2489.8</ele>
        <time>2021-02-27T08:13:46Z</time>
      </trkpt>
      <trkpt lat="45.18236" lon="5.98381">
        <ele>2490</ele>
        <time>2021-02-27T08:13:47Z</time>
      </trkpt>
      <trkpt lat="45.18237" lon="5.98382">
        <ele>2490.2</ele>
        <time>2021-02-27T08:13:48Z</time>
      </trkpt>
      <trkpt lat="45.18238" lon="5.98383">
        <ele>2490.4</ele>
        <time>2021-02-27T08:13:49Z</time>
      </trkpt>
      <trkpt lat="45.18239" lon="5.98384">
        <ele>2490.4</ele>
        <time>2021-02-27T08:13:50Z</time>
      </trkpt>
      <trkpt lat="45.1824" lon="5.98384">
        <ele>2490.6</ele>
        <time>2021-02-27T08:13:51Z</time>
      </trkpt>
      <trkpt lat="45.1824" lon="5.98385">
        <ele>2491</ele>
        <time>2021-02-27T08:13:52Z</time>
      </trkpt>
      <trkpt lat="45.18241" lon="5.98386">
        <ele>2490.6</ele>
        <time>2021-02-27T08:13:53Z</time>
      </trkpt>
      <trkpt lat="45.18242" lon="5.98386">
        <ele>2490.8</ele>
        <time>2021-02-27T08:13:54Z</time>
      </trkpt>
      <trkpt lat="45.18243" lon="5.98387">
        <ele>2491.2</ele>
        <time>2021-02-27T08:13:55Z</time>
      </trkpt>
      <trkpt lat="45.18243" lon="5.98388">
        <ele>2491.2</ele>
        <time>2021-02-27T08:13:56Z</time>
      </trkpt>
      <trkpt lat="45.18243" lon="5.98388">
        <ele>2491.2</ele>
        <time>2021-02-27T08:13:57Z</time>
      </trkpt>
      <trkpt lat="45.18243" lon="5.98388">
        <ele>2491.4</ele>
        <time>2021-02-27T08:13:58Z</time>
      </trkpt>
      <trkpt lat="45.18243" lon="5.98388">
        <ele>2491.8</ele>
        <time>2021-02-27T08:13:59Z</time>
      </trkpt>
      <trkpt lat="45.18243" lon="5.98388">
        <ele>2491.6</ele>
        <time>2021-02-27T08:14:00Z</time>
      </trkpt>
      <trkpt lat="45.18243" lon="5.98388">
        <ele>2491.6</ele>
        <time>2021-02-27T08:14:01Z</time>
      </trkpt>
      <trkpt lat="45.18243" lon="5.98388">
        <ele>2491.6</ele>
        <time>2021-02-27T08:14:02Z</time>
      </trkpt>
      <trkpt lat="45.18243" lon="5.98388">
        <ele>2491.6</ele>
        <time>2021-02-27T08:14:03Z</time>
      </trkpt>
      <trkpt lat="45.18243" lon="5.98388">
        <ele>2491.8</ele>
        <time>2021-02-27T08:14:04Z</time>
      </trkpt>
      <trkpt lat="45.18243" lon="5.98388">
        <ele>2491.8</ele>
        <time>2021-02-27T08:14:05Z</time>
      </trkpt>
      <trkpt lat="45.18243" lon="5.98388">
        <ele>2491.8</ele>
        <time>2021-02-27T08:14:06Z</time>
      </trkpt>
      <trkpt lat="45.18243" lon="5.98388">
        <ele>2491.6</ele>
        <time>2021-02-27T08:14:07Z</time>
      </trkpt>
      <trkpt lat="45.18243" lon="5.98388">
        <ele>2491.4</ele>
        <time>2021-02-27T08:14:08Z</time>
      </trkpt>
      <trkpt lat="45.18243" lon="5.98388">
        <ele>2491.6</ele>
        <time>2021-02-27T08:14:09Z</time>
      </trkpt>
      <trkpt lat="45.18243" lon="5.98388">
        <ele>2491.6</ele>
        <time>2021-02-27T08:14:10Z</time>
      </trkpt>
      <trkpt lat="45.18243" lon="5.98388">
        <ele>2491.6</ele>
        <time>2021-02-27T08:14:11Z</time>
      </trkpt>
      <trkpt lat="45.18243" lon="5.98388">
        <ele>2491.4</ele>
        <time>2021-02-27T08:14:12Z</time>
      </trkpt>
      <trkpt lat="45.18243" lon="5.98388">
        <ele>2491.4</ele>
        <time>2021-02-27T08:14:13Z</time>
      </trkpt>
      <trkpt lat="45.18243" lon="5.98388">
        <ele>2491.2</ele>
        <time>2021-02-27T08:14:14Z</time>
      </trkpt>
      <trkpt lat="45.18245" lon="5.9839">
        <ele>2491</ele>
        <time>2021-02-27T08:14:15Z</time>
      </trkpt>
      <trkpt lat="45.18245" lon="5.9839">
        <ele>2491</ele>
        <time>2021-02-27T08:14:16Z</time>
      </trkpt>
      <trkpt lat="45.18247" lon="5.98393">
        <ele>2491</ele>
        <time>2021-02-27T08:14:17Z</time>
      </trkpt>
      <trkpt lat="45.18247" lon="5.98393">
        <ele>2491</ele>
        <time>2021-02-27T08:14:18Z</time>
      </trkpt>
      <trkpt lat="45.18249" lon="5.98395">
        <ele>2491</ele>
        <time>2021-02-27T08:14:19Z</time>
      </trkpt>
      <trkpt lat="45.18249" lon="5.98395">
        <ele>2490.8</ele>
        <time>2021-02-27T08:14:20Z</time>
      </trkpt>
      <trkpt lat="45.18251" lon="5.98397">
        <ele>2490.8</ele>
        <time>2021-02-27T08:14:21Z</time>
      </trkpt>
      <trkpt lat="45.18251" lon="5.98397">
        <ele>2490.8</ele>
        <time>2021-02-27T08:14:22Z</time>
      </trkpt>
      <trkpt lat="45.18252" lon="5.98398">
        <ele>2490.8</ele>
        <time>2021-02-27T08:14:23Z</time>
      </trkpt>
      <trkpt lat="45.18253" lon="5.984">
        <ele>2490.8</ele>
        <time>2021-02-27T08:14:24Z</time>
      </trkpt>
      <trkpt lat="45.18253" lon="5.98401">
        <ele>2490.8</ele>
        <time>2021-02-27T08:14:25Z</time>
      </trkpt>
      <trkpt lat="45.18254" lon="5.98402">
        <ele>2490.8</ele>
        <time>2021-02-27T08:14:26Z</time>
      </trkpt>
      <trkpt lat="45.18255" lon="5.98405">
        <ele>2491</ele>
        <time>2021-02-27T08:14:27Z</time>
      </trkpt>
      <trkpt lat="45.18255" lon="5.98405">
        <ele>2491</ele>
        <time>2021-02-27T08:14:28Z</time>
      </trkpt>
      <trkpt lat="45.18257" lon="5.98408">
        <ele>2491</ele>
        <time>2021-02-27T08:14:29Z</time>
      </trkpt>
      <trkpt lat="45.18257" lon="5.98408">
        <ele>2491</ele>
        <time>2021-02-27T08:14:30Z</time>
      </trkpt>
      <trkpt lat="45.18258" lon="5.98412">
        <ele>2491.4</ele>
        <time>2021-02-27T08:14:31Z</time>
      </trkpt>
      <trkpt lat="45.18258" lon="5.98412">
        <ele>2491.6</ele>
        <time>2021-02-27T08:14:32Z</time>
      </trkpt>
      <trkpt lat="45.1826" lon="5.98414">
        <ele>2491.8</ele>
        <time>2021-02-27T08:14:33Z</time>
      </trkpt>
      <trkpt lat="45.1826" lon="5.98414">
        <ele>2491.6</ele>
        <time>2021-02-27T08:14:34Z</time>
      </trkpt>
      <trkpt lat="45.18262" lon="5.98417">
        <ele>2491.6</ele>
        <time>2021-02-27T08:14:35Z</time>
      </trkpt>
      <trkpt lat="45.18262" lon="5.98417">
        <ele>2491.6</ele>
        <time>2021-02-27T08:14:36Z</time>
      </trkpt>
      <trkpt lat="45.18262" lon="5.98417">
        <ele>2491.8</ele>
        <time>2021-02-27T08:14:37Z</time>
      </trkpt>
      <trkpt lat="45.18262" lon="5.98417">
        <ele>2492</ele>
        <time>2021-02-27T08:14:38Z</time>
      </trkpt>
      <trkpt lat="45.18262" lon="5.98417">
        <ele>2492</ele>
        <time>2021-02-27T08:14:39Z</time>
      </trkpt>
      <trkpt lat="45.18265" lon="5.98421">
        <ele>2492.2</ele>
        <time>2021-02-27T08:14:40Z</time>
      </trkpt>
      <trkpt lat="45.18265" lon="5.98421">
        <ele>2492.2</ele>
        <time>2021-02-27T08:14:41Z</time>
      </trkpt>
      <trkpt lat="45.18267" lon="5.98424">
        <ele>2492.2</ele>
        <time>2021-02-27T08:14:42Z</time>
      </trkpt>
      <trkpt lat="45.18267" lon="5.98424">
        <ele>2492.4</ele>
        <time>2021-02-27T08:14:43Z</time>
      </trkpt>
      <trkpt lat="45.18268" lon="5.98425">
        <ele>2492</ele>
        <time>2021-02-27T08:14:44Z</time>
      </trkpt>
      <trkpt lat="45.18269" lon="5.98426">
        <ele>2492.2</ele>
        <time>2021-02-27T08:14:45Z</time>
      </trkpt>
      <trkpt lat="45.1827" lon="5.98427">
        <ele>2492.4</ele>
        <time>2021-02-27T08:14:46Z</time>
      </trkpt>
      <trkpt lat="45.18271" lon="5.98428">
        <ele>2492.4</ele>
        <time>2021-02-27T08:14:47Z</time>
      </trkpt>
      <trkpt lat="45.18272" lon="5.98429">
        <ele>2492.4</ele>
        <time>2021-02-27T08:14:48Z</time>
      </trkpt>
      <trkpt lat="45.18273" lon="5.9843">
        <ele>2492.4</ele>
        <time>2021-02-27T08:14:49Z</time>
      </trkpt>
      <trkpt lat="45.18274" lon="5.98432">
        <ele>2492.4</ele>
        <time>2021-02-27T08:14:50Z</time>
      </trkpt>
      <trkpt lat="45.18275" lon="5.98433">
        <ele>2492.6</ele>
        <time>2021-02-27T08:14:51Z</time>
      </trkpt>
      <trkpt lat="45.18277" lon="5.98434">
        <ele>2492.8</ele>
        <time>2021-02-27T08:14:52Z</time>
      </trkpt>
      <trkpt lat="45.18278" lon="5.98435">
        <ele>2493</ele>
        <time>2021-02-27T08:14:53Z</time>
      </trkpt>
      <trkpt lat="45.18279" lon="5.98437">
        <ele>2493.4</ele>
        <time>2021-02-27T08:14:54Z</time>
      </trkpt>
      <trkpt lat="45.1828" lon="5.98438">
        <ele>2493.6</ele>
        <time>2021-02-27T08:14:55Z</time>
      </trkpt>
      <trkpt lat="45.18282" lon="5.9844">
        <ele>2493.6</ele>
        <time>2021-02-27T08:14:56Z</time>
      </trkpt>
      <trkpt lat="45.18282" lon="5.9844">
        <ele>2493.4</ele>
        <time>2021-02-27T08:14:57Z</time>
      </trkpt>
      <trkpt lat="45.18283" lon="5.98441">
        <ele>2493.6</ele>
        <time>2021-02-27T08:14:58Z</time>
      </trkpt>
      <trkpt lat="45.18284" lon="5.98443">
        <ele>2493.8</ele>
        <time>2021-02-27T08:14:59Z</time>
      </trkpt>
      <trkpt lat="45.18285" lon="5.98444">
        <ele>2494</ele>
        <time>2021-02-27T08:15:00Z</time>
      </trkpt>
      <trkpt lat="45.18286" lon="5.98446">
        <ele>2493.8</ele>
        <time>2021-02-27T08:15:01Z</time>
      </trkpt>
      <trkpt lat="45.18287" lon="5.98447">
        <ele>2494</ele>
        <time>2021-02-27T08:15:02Z</time>
      </trkpt>
      <trkpt lat="45.18288" lon="5.98448">
        <ele>2494.2</ele>
        <time>2021-02-27T08:15:03Z</time>
      </trkpt>
      <trkpt lat="45.18289" lon="5.9845">
        <ele>2494</ele>
        <time>2021-02-27T08:15:04Z</time>
      </trkpt>
      <trkpt lat="45.1829" lon="5.98451">
        <ele>2494</ele>
        <time>2021-02-27T08:15:05Z</time>
      </trkpt>
      <trkpt lat="45.18291" lon="5.98452">
        <ele>2494.2</ele>
        <time>2021-02-27T08:15:06Z</time>
      </trkpt>
      <trkpt lat="45.18292" lon="5.98453">
        <ele>2494.4</ele>
        <time>2021-02-27T08:15:07Z</time>
      </trkpt>
      <trkpt lat="45.18293" lon="5.98455">
        <ele>2494.6</ele>
        <time>2021-02-27T08:15:08Z</time>
      </trkpt>
      <trkpt lat="45.18294" lon="5.98456">
        <ele>2494.4</ele>
        <time>2021-02-27T08:15:09Z</time>
      </trkpt>
      <trkpt lat="45.18297" lon="5.98458">
        <ele>2494.4</ele>
        <time>2021-02-27T08:15:10Z</time>
      </trkpt>
      <trkpt lat="45.18297" lon="5.98458">
        <ele>2494.6</ele>
        <time>2021-02-27T08:15:11Z</time>
      </trkpt>
      <trkpt lat="45.18297" lon="5.9846">
        <ele>2494.8</ele>
        <time>2021-02-27T08:15:12Z</time>
      </trkpt>
      <trkpt lat="45.18298" lon="5.98461">
        <ele>2495</ele>
        <time>2021-02-27T08:15:13Z</time>
      </trkpt>
      <trkpt lat="45.18299" lon="5.98462">
        <ele>2495</ele>
        <time>2021-02-27T08:15:14Z</time>
      </trkpt>
      <trkpt lat="45.183" lon="5.98463">
        <ele>2495</ele>
        <time>2021-02-27T08:15:15Z</time>
      </trkpt>
      <trkpt lat="45.18302" lon="5.98466">
        <ele>2495</ele>
        <time>2021-02-27T08:15:16Z</time>
      </trkpt>
      <trkpt lat="45.18302" lon="5.98466">
        <ele>2494.8</ele>
        <time>2021-02-27T08:15:17Z</time>
      </trkpt>
      <trkpt lat="45.18304" lon="5.98468">
        <ele>2495.2</ele>
        <time>2021-02-27T08:15:18Z</time>
      </trkpt>
      <trkpt lat="45.18304" lon="5.98468">
        <ele>2495</ele>
        <time>2021-02-27T08:15:19Z</time>
      </trkpt>
      <trkpt lat="45.18306" lon="5.98471">
        <ele>2494.8</ele>
        <time>2021-02-27T08:15:20Z</time>
      </trkpt>
      <trkpt lat="45.18306" lon="5.98471">
        <ele>2494.6</ele>
        <time>2021-02-27T08:15:21Z</time>
      </trkpt>
      <trkpt lat="45.18308" lon="5.98474">
        <ele>2494.6</ele>
        <time>2021-02-27T08:15:22Z</time>
      </trkpt>
      <trkpt lat="45.18308" lon="5.98474">
        <ele>2494.8</ele>
        <time>2021-02-27T08:15:23Z</time>
      </trkpt>
      <trkpt lat="45.1831" lon="5.98475">
        <ele>2494.6</ele>
        <time>2021-02-27T08:15:24Z</time>
      </trkpt>
      <trkpt lat="45.1831" lon="5.98475">
        <ele>2494.6</ele>
        <time>2021-02-27T08:15:25Z</time>
      </trkpt>
      <trkpt lat="45.1831" lon="5.98475">
        <ele>2495</ele>
        <time>2021-02-27T08:15:26Z</time>
      </trkpt>
      <trkpt lat="45.18312" lon="5.98478">
        <ele>2495</ele>
        <time>2021-02-27T08:15:27Z</time>
      </trkpt>
      <trkpt lat="45.18312" lon="5.98478">
        <ele>2495.2</ele>
        <time>2021-02-27T08:15:28Z</time>
      </trkpt>
      <trkpt lat="45.18314" lon="5.98479">
        <ele>2495.2</ele>
        <time>2021-02-27T08:15:29Z</time>
      </trkpt>
      <trkpt lat="45.18314" lon="5.98479">
        <ele>2495</ele>
        <time>2021-02-27T08:15:30Z</time>
      </trkpt>
      <trkpt lat="45.18316" lon="5.98481">
        <ele>2495</ele>
        <time>2021-02-27T08:15:31Z</time>
      </trkpt>
      <trkpt lat="45.18316" lon="5.98481">
        <ele>2494.8</ele>
        <time>2021-02-27T08:15:32Z</time>
      </trkpt>
      <trkpt lat="45.18318" lon="5.98482">
        <ele>2494.6</ele>
        <time>2021-02-27T08:15:33Z</time>
      </trkpt>
      <trkpt lat="45.18318" lon="5.98482">
        <ele>2495</ele>
        <time>2021-02-27T08:15:34Z</time>
      </trkpt>
      <trkpt lat="45.1832" lon="5.98484">
        <ele>2494.6</ele>
        <time>2021-02-27T08:15:35Z</time>
      </trkpt>
      <trkpt lat="45.1832" lon="5.98484">
        <ele>2494.8</ele>
        <time>2021-02-27T08:15:36Z</time>
      </trkpt>
      <trkpt lat="45.1832" lon="5.98484">
        <ele>2495.2</ele>
        <time>2021-02-27T08:15:37Z</time>
      </trkpt>
      <trkpt lat="45.18321" lon="5.98486">
        <ele>2494.8</ele>
        <time>2021-02-27T08:15:38Z</time>
      </trkpt>
      <trkpt lat="45.18321" lon="5.98486">
        <ele>2494.6</ele>
        <time>2021-02-27T08:15:39Z</time>
      </trkpt>
      <trkpt lat="45.18323" lon="5.98488">
        <ele>2494.8</ele>
        <time>2021-02-27T08:15:40Z</time>
      </trkpt>
      <trkpt lat="45.18323" lon="5.98488">
        <ele>2495</ele>
        <time>2021-02-27T08:15:41Z</time>
      </trkpt>
      <trkpt lat="45.18326" lon="5.98489">
        <ele>2494.8</ele>
        <time>2021-02-27T08:15:42Z</time>
      </trkpt>
      <trkpt lat="45.18326" lon="5.98489">
        <ele>2494.6</ele>
        <time>2021-02-27T08:15:43Z</time>
      </trkpt>
      <trkpt lat="45.18328" lon="5.98491">
        <ele>2494.8</ele>
        <time>2021-02-27T08:15:44Z</time>
      </trkpt>
      <trkpt lat="45.18328" lon="5.98491">
        <ele>2494.4</ele>
        <time>2021-02-27T08:15:45Z</time>
      </trkpt>
      <trkpt lat="45.1833" lon="5.98493">
        <ele>2494.8</ele>
        <time>2021-02-27T08:15:46Z</time>
      </trkpt>
      <trkpt lat="45.1833" lon="5.98493">
        <ele>2494.6</ele>
        <time>2021-02-27T08:15:47Z</time>
      </trkpt>
      <trkpt lat="45.18332" lon="5.98495">
        <ele>2494.6</ele>
        <time>2021-02-27T08:15:48Z</time>
      </trkpt>
      <trkpt lat="45.18334" lon="5.98496">
        <ele>2494.2</ele>
        <time>2021-02-27T08:15:49Z</time>
      </trkpt>
      <trkpt lat="45.18336" lon="5.98497">
        <ele>2494.2</ele>
        <time>2021-02-27T08:15:50Z</time>
      </trkpt>
      <trkpt lat="45.18339" lon="5.98499">
        <ele>2494</ele>
        <time>2021-02-27T08:15:51Z</time>
      </trkpt>
      <trkpt lat="45.18342" lon="5.98501">
        <ele>2493.4</ele>
        <time>2021-02-27T08:15:52Z</time>
      </trkpt>
      <trkpt lat="45.18345" lon="5.98503">
        <ele>2492.8</ele>
        <time>2021-02-27T08:15:53Z</time>
      </trkpt>
      <trkpt lat="45.18349" lon="5.98505">
        <ele>2492.4</ele>
        <time>2021-02-27T08:15:54Z</time>
      </trkpt>
      <trkpt lat="45.18351" lon="5.98506">
        <ele>2492</ele>
        <time>2021-02-27T08:15:55Z</time>
      </trkpt>
      <trkpt lat="45.18351" lon="5.98506">
        <ele>2491.8</ele>
        <time>2021-02-27T08:15:56Z</time>
      </trkpt>
      <trkpt lat="45.18353" lon="5.98508">
        <ele>2491.4</ele>
        <time>2021-02-27T08:15:57Z</time>
      </trkpt>
      <trkpt lat="45.18353" lon="5.98508">
        <ele>2491.2</ele>
        <time>2021-02-27T08:15:58Z</time>
      </trkpt>
      <trkpt lat="45.18355" lon="5.9851">
        <ele>2491.2</ele>
        <time>2021-02-27T08:15:59Z</time>
      </trkpt>
      <trkpt lat="45.18355" lon="5.9851">
        <ele>2491.4</ele>
        <time>2021-02-27T08:16:00Z</time>
      </trkpt>
      <trkpt lat="45.18357" lon="5.98512">
        <ele>2491.2</ele>
        <time>2021-02-27T08:16:01Z</time>
      </trkpt>
      <trkpt lat="45.18357" lon="5.98512">
        <ele>2491.4</ele>
        <time>2021-02-27T08:16:02Z</time>
      </trkpt>
      <trkpt lat="45.18357" lon="5.98512">
        <ele>2491.6</ele>
        <time>2021-02-27T08:16:03Z</time>
      </trkpt>
      <trkpt lat="45.18359" lon="5.98514">
        <ele>2491.6</ele>
        <time>2021-02-27T08:16:04Z</time>
      </trkpt>
      <trkpt lat="45.18359" lon="5.98514">
        <ele>2491.6</ele>
        <time>2021-02-27T08:16:05Z</time>
      </trkpt>
      <trkpt lat="45.18361" lon="5.98516">
        <ele>2491.6</ele>
        <time>2021-02-27T08:16:06Z</time>
      </trkpt>
      <trkpt lat="45.18361" lon="5.98516">
        <ele>2491.8</ele>
        <time>2021-02-27T08:16:07Z</time>
      </trkpt>
      <trkpt lat="45.18363" lon="5.98518">
        <ele>2492</ele>
        <time>2021-02-27T08:16:08Z</time>
      </trkpt>
      <trkpt lat="45.18363" lon="5.98518">
        <ele>2492.2</ele>
        <time>2021-02-27T08:16:09Z</time>
      </trkpt>
      <trkpt lat="45.18365" lon="5.98519">
        <ele>2492.6</ele>
        <time>2021-02-27T08:16:10Z</time>
      </trkpt>
      <trkpt lat="45.18365" lon="5.98519">
        <ele>2493</ele>
        <time>2021-02-27T08:16:11Z</time>
      </trkpt>
      <trkpt lat="45.18365" lon="5.98519">
        <ele>2493</ele>
        <time>2021-02-27T08:16:12Z</time>
      </trkpt>
      <trkpt lat="45.18366" lon="5.98522">
        <ele>2493</ele>
        <time>2021-02-27T08:16:13Z</time>
      </trkpt>
      <trkpt lat="45.18366" lon="5.98522">
        <ele>2493.4</ele>
        <time>2021-02-27T08:16:14Z</time>
      </trkpt>
      <trkpt lat="45.18366" lon="5.98522">
        <ele>2493.2</ele>
        <time>2021-02-27T08:16:15Z</time>
      </trkpt>
      <trkpt lat="45.18369" lon="5.98524">
        <ele>2493.4</ele>
        <time>2021-02-27T08:16:16Z</time>
      </trkpt>
      <trkpt lat="45.18369" lon="5.98524">
        <ele>2493.6</ele>
        <time>2021-02-27T08:16:17Z</time>
      </trkpt>
      <trkpt lat="45.1837" lon="5.98527">
        <ele>2493.6</ele>
        <time>2021-02-27T08:16:18Z</time>
      </trkpt>
      <trkpt lat="45.1837" lon="5.98527">
        <ele>2493.8</ele>
        <time>2021-02-27T08:16:19Z</time>
      </trkpt>
      <trkpt lat="45.1837" lon="5.98527">
        <ele>2494</ele>
        <time>2021-02-27T08:16:20Z</time>
      </trkpt>
      <trkpt lat="45.18371" lon="5.9853">
        <ele>2494.2</ele>
        <time>2021-02-27T08:16:21Z</time>
      </trkpt>
      <trkpt lat="45.18371" lon="5.9853">
        <ele>2494.2</ele>
        <time>2021-02-27T08:16:22Z</time>
      </trkpt>
      <trkpt lat="45.18372" lon="5.98531">
        <ele>2494.8</ele>
        <time>2021-02-27T08:16:23Z</time>
      </trkpt>
      <trkpt lat="45.18372" lon="5.98532">
        <ele>2494.8</ele>
        <time>2021-02-27T08:16:24Z</time>
      </trkpt>
      <trkpt lat="45.18373" lon="5.98533">
        <ele>2495</ele>
        <time>2021-02-27T08:16:25Z</time>
      </trkpt>
      <trkpt lat="45.18373" lon="5.98534">
        <ele>2495.4</ele>
        <time>2021-02-27T08:16:26Z</time>
      </trkpt>
      <trkpt lat="45.18374" lon="5.98535">
        <ele>2495.6</ele>
        <time>2021-02-27T08:16:27Z</time>
      </trkpt>
      <trkpt lat="45.18375" lon="5.98536">
        <ele>2495.8</ele>
        <time>2021-02-27T08:16:28Z</time>
      </trkpt>
      <trkpt lat="45.18375" lon="5.98537">
        <ele>2496</ele>
        <time>2021-02-27T08:16:29Z</time>
      </trkpt>
      <trkpt lat="45.18376" lon="5.98538">
        <ele>2496.4</ele>
        <time>2021-02-27T08:16:30Z</time>
      </trkpt>
      <trkpt lat="45.18376" lon="5.98539">
        <ele>2496.6</ele>
        <time>2021-02-27T08:16:31Z</time>
      </trkpt>
      <trkpt lat="45.18377" lon="5.9854">
        <ele>2497</ele>
        <time>2021-02-27T08:16:32Z</time>
      </trkpt>
      <trkpt lat="45.18377" lon="5.98541">
        <ele>2497.4</ele>
        <time>2021-02-27T08:16:33Z</time>
      </trkpt>
      <trkpt lat="45.18378" lon="5.98542">
        <ele>2497.4</ele>
        <time>2021-02-27T08:16:34Z</time>
      </trkpt>
      <trkpt lat="45.18379" lon="5.98543">
        <ele>2497.6</ele>
        <time>2021-02-27T08:16:35Z</time>
      </trkpt>
      <trkpt lat="45.1838" lon="5.98544">
        <ele>2497.8</ele>
        <time>2021-02-27T08:16:36Z</time>
      </trkpt>
      <trkpt lat="45.1838" lon="5.98545">
        <ele>2498</ele>
        <time>2021-02-27T08:16:37Z</time>
      </trkpt>
      <trkpt lat="45.18381" lon="5.98546">
        <ele>2498.2</ele>
        <time>2021-02-27T08:16:38Z</time>
      </trkpt>
      <trkpt lat="45.18383" lon="5.98549">
        <ele>2498.4</ele>
        <time>2021-02-27T08:16:39Z</time>
      </trkpt>
      <trkpt lat="45.18383" lon="5.98549">
        <ele>2498.2</ele>
        <time>2021-02-27T08:16:40Z</time>
      </trkpt>
      <trkpt lat="45.18385" lon="5.98551">
        <ele>2498</ele>
        <time>2021-02-27T08:16:41Z</time>
      </trkpt>
      <trkpt lat="45.18385" lon="5.98551">
        <ele>2498.4</ele>
        <time>2021-02-27T08:16:42Z</time>
      </trkpt>
      <trkpt lat="45.18386" lon="5.98553">
        <ele>2498.4</ele>
        <time>2021-02-27T08:16:43Z</time>
      </trkpt>
      <trkpt lat="45.18386" lon="5.98553">
        <ele>2498.6</ele>
        <time>2021-02-27T08:16:44Z</time>
      </trkpt>
      <trkpt lat="45.18388" lon="5.98554">
        <ele>2498.8</ele>
        <time>2021-02-27T08:16:45Z</time>
      </trkpt>
      <trkpt lat="45.18389" lon="5.98555">
        <ele>2499</ele>
        <time>2021-02-27T08:16:46Z</time>
      </trkpt>
      <trkpt lat="45.1839" lon="5.98556">
        <ele>2499</ele>
        <time>2021-02-27T08:16:47Z</time>
      </trkpt>
      <trkpt lat="45.18391" lon="5.98558">
        <ele>2498.8</ele>
        <time>2021-02-27T08:16:48Z</time>
      </trkpt>
      <trkpt lat="45.18392" lon="5.98559">
        <ele>2499.2</ele>
        <time>2021-02-27T08:16:49Z</time>
      </trkpt>
      <trkpt lat="45.18393" lon="5.9856">
        <ele>2499.4</ele>
        <time>2021-02-27T08:16:50Z</time>
      </trkpt>
      <trkpt lat="45.18394" lon="5.98561">
        <ele>2499.8</ele>
        <time>2021-02-27T08:16:51Z</time>
      </trkpt>
      <trkpt lat="45.18395" lon="5.98562">
        <ele>2499.6</ele>
        <time>2021-02-27T08:16:52Z</time>
      </trkpt>
      <trkpt lat="45.18395" lon="5.98563">
        <ele>2499.8</ele>
        <time>2021-02-27T08:16:53Z</time>
      </trkpt>
      <trkpt lat="45.18396" lon="5.98564">
        <ele>2500</ele>
        <time>2021-02-27T08:16:54Z</time>
      </trkpt>
      <trkpt lat="45.18397" lon="5.98565">
        <ele>2500.2</ele>
        <time>2021-02-27T08:16:55Z</time>
      </trkpt>
      <trkpt lat="45.18398" lon="5.98566">
        <ele>2500.6</ele>
        <time>2021-02-27T08:16:56Z</time>
      </trkpt>
      <trkpt lat="45.18398" lon="5.98567">
        <ele>2500.8</ele>
        <time>2021-02-27T08:16:57Z</time>
      </trkpt>
      <trkpt lat="45.18399" lon="5.98568">
        <ele>2500.6</ele>
        <time>2021-02-27T08:16:58Z</time>
      </trkpt>
      <trkpt lat="45.184" lon="5.98569">
        <ele>2500.6</ele>
        <time>2021-02-27T08:16:59Z</time>
      </trkpt>
      <trkpt lat="45.184" lon="5.9857">
        <ele>2500.8</ele>
        <time>2021-02-27T08:17:00Z</time>
      </trkpt>
      <trkpt lat="45.18401" lon="5.98571">
        <ele>2500.8</ele>
        <time>2021-02-27T08:17:01Z</time>
      </trkpt>
      <trkpt lat="45.18403" lon="5.98573">
        <ele>2501</ele>
        <time>2021-02-27T08:17:02Z</time>
      </trkpt>
      <trkpt lat="45.18404" lon="5.98574">
        <ele>2501</ele>
        <time>2021-02-27T08:17:03Z</time>
      </trkpt>
      <trkpt lat="45.18405" lon="5.98575">
        <ele>2501</ele>
        <time>2021-02-27T08:17:04Z</time>
      </trkpt>
      <trkpt lat="45.18406" lon="5.98576">
        <ele>2501</ele>
        <time>2021-02-27T08:17:05Z</time>
      </trkpt>
      <trkpt lat="45.18407" lon="5.98577">
        <ele>2501.2</ele>
        <time>2021-02-27T08:17:06Z</time>
      </trkpt>
      <trkpt lat="45.18408" lon="5.98579">
        <ele>2501.4</ele>
        <time>2021-02-27T08:17:07Z</time>
      </trkpt>
      <trkpt lat="45.1841" lon="5.98581">
        <ele>2501.4</ele>
        <time>2021-02-27T08:17:08Z</time>
      </trkpt>
      <trkpt lat="45.1841" lon="5.98581">
        <ele>2501.4</ele>
        <time>2021-02-27T08:17:09Z</time>
      </trkpt>
      <trkpt lat="45.1841" lon="5.98584">
        <ele>2501.6</ele>
        <time>2021-02-27T08:17:10Z</time>
      </trkpt>
      <trkpt lat="45.1841" lon="5.98584">
        <ele>2502</ele>
        <time>2021-02-27T08:17:11Z</time>
      </trkpt>
      <trkpt lat="45.18411" lon="5.98586">
        <ele>2501.8</ele>
        <time>2021-02-27T08:17:12Z</time>
      </trkpt>
      <trkpt lat="45.18411" lon="5.98586">
        <ele>2502</ele>
        <time>2021-02-27T08:17:13Z</time>
      </trkpt>
      <trkpt lat="45.18413" lon="5.98589">
        <ele>2502.2</ele>
        <time>2021-02-27T08:17:14Z</time>
      </trkpt>
      <trkpt lat="45.18413" lon="5.98589">
        <ele>2502.4</ele>
        <time>2021-02-27T08:17:15Z</time>
      </trkpt>
      <trkpt lat="45.18414" lon="5.98591">
        <ele>2502.4</ele>
        <time>2021-02-27T08:17:16Z</time>
      </trkpt>
      <trkpt lat="45.18414" lon="5.98591">
        <ele>2502.4</ele>
        <time>2021-02-27T08:17:17Z</time>
      </trkpt>
      <trkpt lat="45.18416" lon="5.98593">
        <ele>2502.6</ele>
        <time>2021-02-27T08:17:18Z</time>
      </trkpt>
      <trkpt lat="45.18416" lon="5.98593">
        <ele>2503</ele>
        <time>2021-02-27T08:17:19Z</time>
      </trkpt>
      <trkpt lat="45.18417" lon="5.98594">
        <ele>2503</ele>
        <time>2021-02-27T08:17:20Z</time>
      </trkpt>
      <trkpt lat="45.18418" lon="5.98595">
        <ele>2503</ele>
        <time>2021-02-27T08:17:21Z</time>
      </trkpt>
      <trkpt lat="45.18419" lon="5.98596">
        <ele>2502.6</ele>
        <time>2021-02-27T08:17:22Z</time>
      </trkpt>
      <trkpt lat="45.1842" lon="5.98596">
        <ele>2502.8</ele>
        <time>2021-02-27T08:17:23Z</time>
      </trkpt>
      <trkpt lat="45.18422" lon="5.98597">
        <ele>2503</ele>
        <time>2021-02-27T08:17:24Z</time>
      </trkpt>
      <trkpt lat="45.18423" lon="5.98598">
        <ele>2503.2</ele>
        <time>2021-02-27T08:17:25Z</time>
      </trkpt>
      <trkpt lat="45.18424" lon="5.98599">
        <ele>2503.2</ele>
        <time>2021-02-27T08:17:26Z</time>
      </trkpt>
      <trkpt lat="45.18425" lon="5.986">
        <ele>2503.4</ele>
        <time>2021-02-27T08:17:27Z</time>
      </trkpt>
      <trkpt lat="45.18426" lon="5.98601">
        <ele>2503.4</ele>
        <time>2021-02-27T08:17:28Z</time>
      </trkpt>
      <trkpt lat="45.18427" lon="5.98602">
        <ele>2503.4</ele>
        <time>2021-02-27T08:17:29Z</time>
      </trkpt>
      <trkpt lat="45.18428" lon="5.98603">
        <ele>2503.4</ele>
        <time>2021-02-27T08:17:30Z</time>
      </trkpt>
      <trkpt lat="45.18428" lon="5.98604">
        <ele>2503.6</ele>
        <time>2021-02-27T08:17:31Z</time>
      </trkpt>
      <trkpt lat="45.18429" lon="5.98604">
        <ele>2503.8</ele>
        <time>2021-02-27T08:17:32Z</time>
      </trkpt>
      <trkpt lat="45.1843" lon="5.98605">
        <ele>2504</ele>
        <time>2021-02-27T08:17:33Z</time>
      </trkpt>
      <trkpt lat="45.18431" lon="5.98606">
        <ele>2504.4</ele>
        <time>2021-02-27T08:17:34Z</time>
      </trkpt>
      <trkpt lat="45.18432" lon="5.98607">
        <ele>2504.2</ele>
        <time>2021-02-27T08:17:35Z</time>
      </trkpt>
      <trkpt lat="45.18433" lon="5.98608">
        <ele>2504.4</ele>
        <time>2021-02-27T08:17:36Z</time>
      </trkpt>
      <trkpt lat="45.18434" lon="5.98609">
        <ele>2504.6</ele>
        <time>2021-02-27T08:17:37Z</time>
      </trkpt>
      <trkpt lat="45.18435" lon="5.98609">
        <ele>2504.8</ele>
        <time>2021-02-27T08:17:38Z</time>
      </trkpt>
      <trkpt lat="45.18436" lon="5.9861">
        <ele>2504.8</ele>
        <time>2021-02-27T08:17:39Z</time>
      </trkpt>
      <trkpt lat="45.18437" lon="5.98611">
        <ele>2504.8</ele>
        <time>2021-02-27T08:17:40Z</time>
      </trkpt>
      <trkpt lat="45.18438" lon="5.98612">
        <ele>2505.2</ele>
        <time>2021-02-27T08:17:41Z</time>
      </trkpt>
      <trkpt lat="45.18439" lon="5.98613">
        <ele>2505.4</ele>
        <time>2021-02-27T08:17:42Z</time>
      </trkpt>
      <trkpt lat="45.1844" lon="5.98613">
        <ele>2505.4</ele>
        <time>2021-02-27T08:17:43Z</time>
      </trkpt>
      <trkpt lat="45.18441" lon="5.98614">
        <ele>2505.6</ele>
        <time>2021-02-27T08:17:44Z</time>
      </trkpt>
      <trkpt lat="45.18442" lon="5.98615">
        <ele>2505.8</ele>
        <time>2021-02-27T08:17:45Z</time>
      </trkpt>
      <trkpt lat="45.18443" lon="5.98615">
        <ele>2505.8</ele>
        <time>2021-02-27T08:17:46Z</time>
      </trkpt>
      <trkpt lat="45.18444" lon="5.98616">
        <ele>2506</ele>
        <time>2021-02-27T08:17:47Z</time>
      </trkpt>
      <trkpt lat="45.18445" lon="5.98616">
        <ele>2506.4</ele>
        <time>2021-02-27T08:17:48Z</time>
      </trkpt>
      <trkpt lat="45.18446" lon="5.98617">
        <ele>2506.4</ele>
        <time>2021-02-27T08:17:49Z</time>
      </trkpt>
      <trkpt lat="45.18446" lon="5.98618">
        <ele>2506.4</ele>
        <time>2021-02-27T08:17:50Z</time>
      </trkpt>
      <trkpt lat="45.18447" lon="5.98618">
        <ele>2506.6</ele>
        <time>2021-02-27T08:17:51Z</time>
      </trkpt>
      <trkpt lat="45.18448" lon="5.98619">
        <ele>2506.8</ele>
        <time>2021-02-27T08:17:52Z</time>
      </trkpt>
      <trkpt lat="45.18449" lon="5.98619">
        <ele>2506.8</ele>
        <time>2021-02-27T08:17:53Z</time>
      </trkpt>
      <trkpt lat="45.1845" lon="5.9862">
        <ele>2507.2</ele>
        <time>2021-02-27T08:17:54Z</time>
      </trkpt>
      <trkpt lat="45.18451" lon="5.98621">
        <ele>2507.6</ele>
        <time>2021-02-27T08:17:55Z</time>
      </trkpt>
      <trkpt lat="45.18452" lon="5.98621">
        <ele>2507.8</ele>
        <time>2021-02-27T08:17:56Z</time>
      </trkpt>
      <trkpt lat="45.18453" lon="5.98622">
        <ele>2508</ele>
        <time>2021-02-27T08:17:57Z</time>
      </trkpt>
      <trkpt lat="45.18454" lon="5.98623">
        <ele>2508.4</ele>
        <time>2021-02-27T08:17:58Z</time>
      </trkpt>
      <trkpt lat="45.18455" lon="5.98623">
        <ele>2508.6</ele>
        <time>2021-02-27T08:17:59Z</time>
      </trkpt>
      <trkpt lat="45.18456" lon="5.98623">
        <ele>2508.6</ele>
        <time>2021-02-27T08:18:00Z</time>
      </trkpt>
      <trkpt lat="45.18457" lon="5.98624">
        <ele>2508.8</ele>
        <time>2021-02-27T08:18:01Z</time>
      </trkpt>
      <trkpt lat="45.18458" lon="5.98624">
        <ele>2509</ele>
        <time>2021-02-27T08:18:02Z</time>
      </trkpt>
      <trkpt lat="45.18459" lon="5.98625">
        <ele>2509.2</ele>
        <time>2021-02-27T08:18:03Z</time>
      </trkpt>
      <trkpt lat="45.18461" lon="5.98626">
        <ele>2509.2</ele>
        <time>2021-02-27T08:18:04Z</time>
      </trkpt>
      <trkpt lat="45.18462" lon="5.98627">
        <ele>2509.4</ele>
        <time>2021-02-27T08:18:05Z</time>
      </trkpt>
      <trkpt lat="45.18463" lon="5.98627">
        <ele>2510.2</ele>
        <time>2021-02-27T08:18:06Z</time>
      </trkpt>
      <trkpt lat="45.18464" lon="5.98628">
        <ele>2510.2</ele>
        <time>2021-02-27T08:18:07Z</time>
      </trkpt>
      <trkpt lat="45.18465" lon="5.98629">
        <ele>2510.4</ele>
        <time>2021-02-27T08:18:08Z</time>
      </trkpt>
      <trkpt lat="45.18466" lon="5.9863">
        <ele>2510.6</ele>
        <time>2021-02-27T08:18:09Z</time>
      </trkpt>
      <trkpt lat="45.18467" lon="5.98631">
        <ele>2510.8</ele>
        <time>2021-02-27T08:18:10Z</time>
      </trkpt>
      <trkpt lat="45.18468" lon="5.98632">
        <ele>2511</ele>
        <time>2021-02-27T08:18:11Z</time>
      </trkpt>
      <trkpt lat="45.18468" lon="5.98633">
        <ele>2511.2</ele>
        <time>2021-02-27T08:18:12Z</time>
      </trkpt>
      <trkpt lat="45.18469" lon="5.98633">
        <ele>2511.8</ele>
        <time>2021-02-27T08:18:13Z</time>
      </trkpt>
      <trkpt lat="45.1847" lon="5.98634">
        <ele>2511.8</ele>
        <time>2021-02-27T08:18:14Z</time>
      </trkpt>
      <trkpt lat="45.1847" lon="5.98635">
        <ele>2512.6</ele>
        <time>2021-02-27T08:18:15Z</time>
      </trkpt>
      <trkpt lat="45.18471" lon="5.98636">
        <ele>2512.6</ele>
        <time>2021-02-27T08:18:16Z</time>
      </trkpt>
      <trkpt lat="45.18472" lon="5.98637">
        <ele>2512.8</ele>
        <time>2021-02-27T08:18:17Z</time>
      </trkpt>
      <trkpt lat="45.18472" lon="5.98638">
        <ele>2513.4</ele>
        <time>2021-02-27T08:18:18Z</time>
      </trkpt>
      <trkpt lat="45.18473" lon="5.98639">
        <ele>2513.8</ele>
        <time>2021-02-27T08:18:19Z</time>
      </trkpt>
      <trkpt lat="45.18473" lon="5.98639">
        <ele>2514.2</ele>
        <time>2021-02-27T08:18:20Z</time>
      </trkpt>
      <trkpt lat="45.18474" lon="5.98641">
        <ele>2514.2</ele>
        <time>2021-02-27T08:18:21Z</time>
      </trkpt>
      <trkpt lat="45.18474" lon="5.98641">
        <ele>2514.6</ele>
        <time>2021-02-27T08:18:22Z</time>
      </trkpt>
      <trkpt lat="45.18475" lon="5.98643">
        <ele>2515</ele>
        <time>2021-02-27T08:18:23Z</time>
      </trkpt>
      <trkpt lat="45.18475" lon="5.98644">
        <ele>2515.2</ele>
        <time>2021-02-27T08:18:24Z</time>
      </trkpt>
      <trkpt lat="45.18475" lon="5.98645">
        <ele>2515.2</ele>
        <time>2021-02-27T08:18:25Z</time>
      </trkpt>
      <trkpt lat="45.18476" lon="5.98647">
        <ele>2515.6</ele>
        <time>2021-02-27T08:18:26Z</time>
      </trkpt>
      <trkpt lat="45.18476" lon="5.98648">
        <ele>2515.8</ele>
        <time>2021-02-27T08:18:27Z</time>
      </trkpt>
      <trkpt lat="45.18476" lon="5.98649">
        <ele>2516</ele>
        <time>2021-02-27T08:18:28Z</time>
      </trkpt>
      <trkpt lat="45.18477" lon="5.98651">
        <ele>2516.2</ele>
        <time>2021-02-27T08:18:29Z</time>
      </trkpt>
      <trkpt lat="45.18477" lon="5.98652">
        <ele>2517</ele>
        <time>2021-02-27T08:18:30Z</time>
      </trkpt>
      <trkpt lat="45.18477" lon="5.98652">
        <ele>2517.2</ele>
        <time>2021-02-27T08:18:31Z</time>
      </trkpt>
      <trkpt lat="45.18477" lon="5.98652">
        <ele>2517.4</ele>
        <time>2021-02-27T08:18:32Z</time>
      </trkpt>
      <trkpt lat="45.18477" lon="5.98652">
        <ele>2517.6</ele>
        <time>2021-02-27T08:18:33Z</time>
      </trkpt>
      <trkpt lat="45.18476" lon="5.98657">
        <ele>2518</ele>
        <time>2021-02-27T08:18:34Z</time>
      </trkpt>
      <trkpt lat="45.18476" lon="5.98657">
        <ele>2518</ele>
        <time>2021-02-27T08:18:35Z</time>
      </trkpt>
      <trkpt lat="45.18476" lon="5.98657">
        <ele>2518.4</ele>
        <time>2021-02-27T08:18:36Z</time>
      </trkpt>
      <trkpt lat="45.18478" lon="5.9866">
        <ele>2519</ele>
        <time>2021-02-27T08:18:37Z</time>
      </trkpt>
      <trkpt lat="45.18478" lon="5.9866">
        <ele>2519</ele>
        <time>2021-02-27T08:18:38Z</time>
      </trkpt>
      <trkpt lat="45.18478" lon="5.9866">
        <ele>2519.4</ele>
        <time>2021-02-27T08:18:39Z</time>
      </trkpt>
      <trkpt lat="45.18478" lon="5.9866">
        <ele>2519.8</ele>
        <time>2021-02-27T08:18:40Z</time>
      </trkpt>
      <trkpt lat="45.1848" lon="5.98665">
        <ele>2520</ele>
        <time>2021-02-27T08:18:41Z</time>
      </trkpt>
      <trkpt lat="45.1848" lon="5.98665">
        <ele>2520.2</ele>
        <time>2021-02-27T08:18:42Z</time>
      </trkpt>
      <trkpt lat="45.1848" lon="5.98665">
        <ele>2520.8</ele>
        <time>2021-02-27T08:18:43Z</time>
      </trkpt>
      <trkpt lat="45.18481" lon="5.98668">
        <ele>2520.8</ele>
        <time>2021-02-27T08:18:44Z</time>
      </trkpt>
      <trkpt lat="45.18481" lon="5.98668">
        <ele>2521.2</ele>
        <time>2021-02-27T08:18:45Z</time>
      </trkpt>
      <trkpt lat="45.18481" lon="5.98668">
        <ele>2521.4</ele>
        <time>2021-02-27T08:18:46Z</time>
      </trkpt>
      <trkpt lat="45.18481" lon="5.98672">
        <ele>2521</ele>
        <time>2021-02-27T08:18:47Z</time>
      </trkpt>
      <trkpt lat="45.18481" lon="5.98672">
        <ele>2521.4</ele>
        <time>2021-02-27T08:18:48Z</time>
      </trkpt>
      <trkpt lat="45.18481" lon="5.98672">
        <ele>2521.8</ele>
        <time>2021-02-27T08:18:49Z</time>
      </trkpt>
      <trkpt lat="45.18482" lon="5.98675">
        <ele>2522</ele>
        <time>2021-02-27T08:18:50Z</time>
      </trkpt>
      <trkpt lat="45.18482" lon="5.98675">
        <ele>2522.2</ele>
        <time>2021-02-27T08:18:51Z</time>
      </trkpt>
      <trkpt lat="45.18482" lon="5.98675">
        <ele>2522.4</ele>
        <time>2021-02-27T08:18:52Z</time>
      </trkpt>
      <trkpt lat="45.18482" lon="5.98679">
        <ele>2522.6</ele>
        <time>2021-02-27T08:18:53Z</time>
      </trkpt>
      <trkpt lat="45.18482" lon="5.98679">
        <ele>2523.2</ele>
        <time>2021-02-27T08:18:54Z</time>
      </trkpt>
      <trkpt lat="45.18482" lon="5.98679">
        <ele>2523.4</ele>
        <time>2021-02-27T08:18:55Z</time>
      </trkpt>
      <trkpt lat="45.18483" lon="5.98683">
        <ele>2523.4</ele>
        <time>2021-02-27T08:18:56Z</time>
      </trkpt>
      <trkpt lat="45.18483" lon="5.98683">
        <ele>2524.2</ele>
        <time>2021-02-27T08:18:57Z</time>
      </trkpt>
      <trkpt lat="45.18483" lon="5.98683">
        <ele>2524.6</ele>
        <time>2021-02-27T08:18:58Z</time>
      </trkpt>
      <trkpt lat="45.18483" lon="5.98687">
        <ele>2524.6</ele>
        <time>2021-02-27T08:18:59Z</time>
      </trkpt>
      <trkpt lat="45.18483" lon="5.98687">
        <ele>2525.4</ele>
        <time>2021-02-27T08:19:00Z</time>
      </trkpt>
      <trkpt lat="45.18483" lon="5.98687">
        <ele>2525.6</ele>
        <time>2021-02-27T08:19:01Z</time>
      </trkpt>
      <trkpt lat="45.18483" lon="5.9869">
        <ele>2525.4</ele>
        <time>2021-02-27T08:19:02Z</time>
      </trkpt>
      <trkpt lat="45.18483" lon="5.9869">
        <ele>2525.6</ele>
        <time>2021-02-27T08:19:03Z</time>
      </trkpt>
      <trkpt lat="45.18483" lon="5.9869">
        <ele>2526.2</ele>
        <time>2021-02-27T08:19:04Z</time>
      </trkpt>
      <trkpt lat="45.18484" lon="5.98693">
        <ele>2526.6</ele>
        <time>2021-02-27T08:19:05Z</time>
      </trkpt>
      <trkpt lat="45.18484" lon="5.98693">
        <ele>2526.8</ele>
        <time>2021-02-27T08:19:06Z</time>
      </trkpt>
      <trkpt lat="45.18485" lon="5.98694">
        <ele>2527.2</ele>
        <time>2021-02-27T08:19:07Z</time>
      </trkpt>
      <trkpt lat="45.18485" lon="5.98695">
        <ele>2527</ele>
        <time>2021-02-27T08:19:08Z</time>
      </trkpt>
      <trkpt lat="45.18485" lon="5.98696">
        <ele>2527</ele>
        <time>2021-02-27T08:19:09Z</time>
      </trkpt>
      <trkpt lat="45.18486" lon="5.98697">
        <ele>2527.8</ele>
        <time>2021-02-27T08:19:10Z</time>
      </trkpt>
      <trkpt lat="45.18486" lon="5.98698">
        <ele>2527.8</ele>
        <time>2021-02-27T08:19:11Z</time>
      </trkpt>
      <trkpt lat="45.18486" lon="5.98699">
        <ele>2528</ele>
        <time>2021-02-27T08:19:12Z</time>
      </trkpt>
      <trkpt lat="45.18486" lon="5.987">
        <ele>2528.8</ele>
        <time>2021-02-27T08:19:13Z</time>
      </trkpt>
      <trkpt lat="45.18487" lon="5.98702">
        <ele>2529</ele>
        <time>2021-02-27T08:19:14Z</time>
      </trkpt>
      <trkpt lat="45.18487" lon="5.98703">
        <ele>2529.2</ele>
        <time>2021-02-27T08:19:15Z</time>
      </trkpt>
      <trkpt lat="45.18487" lon="5.98704">
        <ele>2529.4</ele>
        <time>2021-02-27T08:19:16Z</time>
      </trkpt>
      <trkpt lat="45.18488" lon="5.98705">
        <ele>2529.8</ele>
        <time>2021-02-27T08:19:17Z</time>
      </trkpt>
      <trkpt lat="45.18488" lon="5.98705">
        <ele>2529.8</ele>
        <time>2021-02-27T08:19:18Z</time>
      </trkpt>
      <trkpt lat="45.18488" lon="5.98708">
        <ele>2530.2</ele>
        <time>2021-02-27T08:19:19Z</time>
      </trkpt>
      <trkpt lat="45.18488" lon="5.98708">
        <ele>2530.4</ele>
        <time>2021-02-27T08:19:20Z</time>
      </trkpt>
      <trkpt lat="45.18488" lon="5.98708">
        <ele>2530.4</ele>
        <time>2021-02-27T08:19:21Z</time>
      </trkpt>
      <trkpt lat="45.18488" lon="5.98708">
        <ele>2531</ele>
        <time>2021-02-27T08:19:22Z</time>
      </trkpt>
      <trkpt lat="45.18489" lon="5.98712">
        <ele>2531.2</ele>
        <time>2021-02-27T08:19:23Z</time>
      </trkpt>
      <trkpt lat="45.18489" lon="5.98712">
        <ele>2531.4</ele>
        <time>2021-02-27T08:19:24Z</time>
      </trkpt>
      <trkpt lat="45.18489" lon="5.98712">
        <ele>2531.6</ele>
        <time>2021-02-27T08:19:25Z</time>
      </trkpt>
      <trkpt lat="45.18489" lon="5.98712">
        <ele>2531.8</ele>
        <time>2021-02-27T08:19:26Z</time>
      </trkpt>
      <trkpt lat="45.18491" lon="5.98714">
        <ele>2531.8</ele>
        <time>2021-02-27T08:19:27Z</time>
      </trkpt>
      <trkpt lat="45.18491" lon="5.98714">
        <ele>2532.2</ele>
        <time>2021-02-27T08:19:28Z</time>
      </trkpt>
      <trkpt lat="45.18491" lon="5.98714">
        <ele>2532.4</ele>
        <time>2021-02-27T08:19:29Z</time>
      </trkpt>
      <trkpt lat="45.18491" lon="5.98714">
        <ele>2532.6</ele>
        <time>2021-02-27T08:19:30Z</time>
      </trkpt>
      <trkpt lat="45.18494" lon="5.98714">
        <ele>2532.8</ele>
        <time>2021-02-27T08:19:31Z</time>
      </trkpt>
      <trkpt lat="45.18494" lon="5.98714">
        <ele>2533</ele>
        <time>2021-02-27T08:19:32Z</time>
      </trkpt>
      <trkpt lat="45.18494" lon="5.98714">
        <ele>2533.2</ele>
        <time>2021-02-27T08:19:33Z</time>
      </trkpt>
      <trkpt lat="45.18497" lon="5.98714">
        <ele>2533.6</ele>
        <time>2021-02-27T08:19:34Z</time>
      </trkpt>
      <trkpt lat="45.18497" lon="5.98714">
        <ele>2533.4</ele>
        <time>2021-02-27T08:19:35Z</time>
      </trkpt>
      <trkpt lat="45.18499" lon="5.98712">
        <ele>2533.6</ele>
        <time>2021-02-27T08:19:36Z</time>
      </trkpt>
      <trkpt lat="45.18499" lon="5.98712">
        <ele>2534</ele>
        <time>2021-02-27T08:19:37Z</time>
      </trkpt>
      <trkpt lat="45.18499" lon="5.98712">
        <ele>2534.4</ele>
        <time>2021-02-27T08:19:38Z</time>
      </trkpt>
      <trkpt lat="45.18501" lon="5.98709">
        <ele>2534.2</ele>
        <time>2021-02-27T08:19:39Z</time>
      </trkpt>
      <trkpt lat="45.18501" lon="5.98709">
        <ele>2534.6</ele>
        <time>2021-02-27T08:19:40Z</time>
      </trkpt>
      <trkpt lat="45.18501" lon="5.98709">
        <ele>2534.8</ele>
        <time>2021-02-27T08:19:41Z</time>
      </trkpt>
      <trkpt lat="45.18502" lon="5.98707">
        <ele>2535</ele>
        <time>2021-02-27T08:19:42Z</time>
      </trkpt>
      <trkpt lat="45.18502" lon="5.98707">
        <ele>2535</ele>
        <time>2021-02-27T08:19:43Z</time>
      </trkpt>
      <trkpt lat="45.18502" lon="5.98707">
        <ele>2535.6</ele>
        <time>2021-02-27T08:19:44Z</time>
      </trkpt>
      <trkpt lat="45.18502" lon="5.98707">
        <ele>2535.8</ele>
        <time>2021-02-27T08:19:45Z</time>
      </trkpt>
      <trkpt lat="45.18502" lon="5.98707">
        <ele>2535.8</ele>
        <time>2021-02-27T08:19:46Z</time>
      </trkpt>
      <trkpt lat="45.18502" lon="5.98707">
        <ele>2536</ele>
        <time>2021-02-27T08:19:47Z</time>
      </trkpt>
      <trkpt lat="45.18502" lon="5.98707">
        <ele>2536.4</ele>
        <time>2021-02-27T08:19:48Z</time>
      </trkpt>
      <trkpt lat="45.18502" lon="5.98707">
        <ele>2537</ele>
        <time>2021-02-27T08:19:49Z</time>
      </trkpt>
      <trkpt lat="45.18503" lon="5.9871">
        <ele>2537.4</ele>
        <time>2021-02-27T08:19:50Z</time>
      </trkpt>
      <trkpt lat="45.18503" lon="5.9871">
        <ele>2538</ele>
        <time>2021-02-27T08:19:51Z</time>
      </trkpt>
      <trkpt lat="45.18503" lon="5.98713">
        <ele>2537.6</ele>
        <time>2021-02-27T08:19:52Z</time>
      </trkpt>
      <trkpt lat="45.18503" lon="5.98713">
        <ele>2538</ele>
        <time>2021-02-27T08:19:53Z</time>
      </trkpt>
      <trkpt lat="45.18503" lon="5.98713">
        <ele>2538.2</ele>
        <time>2021-02-27T08:19:54Z</time>
      </trkpt>
      <trkpt lat="45.18503" lon="5.98713">
        <ele>2538</ele>
        <time>2021-02-27T08:19:55Z</time>
      </trkpt>
      <trkpt lat="45.18503" lon="5.98719">
        <ele>2538.6</ele>
        <time>2021-02-27T08:19:56Z</time>
      </trkpt>
      <trkpt lat="45.18503" lon="5.98719">
        <ele>2538.6</ele>
        <time>2021-02-27T08:19:57Z</time>
      </trkpt>
      <trkpt lat="45.18503" lon="5.98719">
        <ele>2538.8</ele>
        <time>2021-02-27T08:19:58Z</time>
      </trkpt>
      <trkpt lat="45.18503" lon="5.98723">
        <ele>2539</ele>
        <time>2021-02-27T08:19:59Z</time>
      </trkpt>
      <trkpt lat="45.18503" lon="5.98723">
        <ele>2539.2</ele>
        <time>2021-02-27T08:20:00Z</time>
      </trkpt>
      <trkpt lat="45.18503" lon="5.98725">
        <ele>2539.4</ele>
        <time>2021-02-27T08:20:01Z</time>
      </trkpt>
      <trkpt lat="45.18503" lon="5.98725">
        <ele>2539.4</ele>
        <time>2021-02-27T08:20:02Z</time>
      </trkpt>
      <trkpt lat="45.18503" lon="5.98725">
        <ele>2540</ele>
        <time>2021-02-27T08:20:03Z</time>
      </trkpt>
      <trkpt lat="45.18503" lon="5.98729">
        <ele>2540.6</ele>
        <time>2021-02-27T08:20:04Z</time>
      </trkpt>
      <trkpt lat="45.18503" lon="5.98729">
        <ele>2540.6</ele>
        <time>2021-02-27T08:20:05Z</time>
      </trkpt>
      <trkpt lat="45.18502" lon="5.98731">
        <ele>2541</ele>
        <time>2021-02-27T08:20:06Z</time>
      </trkpt>
      <trkpt lat="45.18502" lon="5.98731">
        <ele>2541.2</ele>
        <time>2021-02-27T08:20:07Z</time>
      </trkpt>
      <trkpt lat="45.18502" lon="5.98734">
        <ele>2541.4</ele>
        <time>2021-02-27T08:20:08Z</time>
      </trkpt>
      <trkpt lat="45.18502" lon="5.98734">
        <ele>2542</ele>
        <time>2021-02-27T08:20:09Z</time>
      </trkpt>
      <trkpt lat="45.18502" lon="5.98734">
        <ele>2542.4</ele>
        <time>2021-02-27T08:20:10Z</time>
      </trkpt>
      <trkpt lat="45.18502" lon="5.98734">
        <ele>2542.6</ele>
        <time>2021-02-27T08:20:11Z</time>
      </trkpt>
      <trkpt lat="45.18502" lon="5.98734">
        <ele>2542.6</ele>
        <time>2021-02-27T08:20:12Z</time>
      </trkpt>
      <trkpt lat="45.18502" lon="5.98734">
        <ele>2542.6</ele>
        <time>2021-02-27T08:20:13Z</time>
      </trkpt>
      <trkpt lat="45.18504" lon="5.98732">
        <ele>2543.2</ele>
        <time>2021-02-27T08:20:14Z</time>
      </trkpt>
      <trkpt lat="45.18504" lon="5.98732">
        <ele>2543.2</ele>
        <time>2021-02-27T08:20:15Z</time>
      </trkpt>
      <trkpt lat="45.18504" lon="5.98732">
        <ele>2543.2</ele>
        <time>2021-02-27T08:20:16Z</time>
      </trkpt>
      <trkpt lat="45.18506" lon="5.9873">
        <ele>2543.2</ele>
        <time>2021-02-27T08:20:17Z</time>
      </trkpt>
      <trkpt lat="45.18506" lon="5.9873">
        <ele>2543.2</ele>
        <time>2021-02-27T08:20:18Z</time>
      </trkpt>
      <trkpt lat="45.18506" lon="5.9873">
        <ele>2543.4</ele>
        <time>2021-02-27T08:20:19Z</time>
      </trkpt>
      <trkpt lat="45.18509" lon="5.98729">
        <ele>2543.6</ele>
        <time>2021-02-27T08:20:20Z</time>
      </trkpt>
      <trkpt lat="45.18509" lon="5.98729">
        <ele>2543.8</ele>
        <time>2021-02-27T08:20:21Z</time>
      </trkpt>
      <trkpt lat="45.1851" lon="5.98727">
        <ele>2544</ele>
        <time>2021-02-27T08:20:22Z</time>
      </trkpt>
      <trkpt lat="45.1851" lon="5.98727">
        <ele>2543.8</ele>
        <time>2021-02-27T08:20:23Z</time>
      </trkpt>
      <trkpt lat="45.18512" lon="5.98725">
        <ele>2544</ele>
        <time>2021-02-27T08:20:24Z</time>
      </trkpt>
      <trkpt lat="45.18512" lon="5.98725">
        <ele>2544.4</ele>
        <time>2021-02-27T08:20:25Z</time>
      </trkpt>
      <trkpt lat="45.18514" lon="5.98723">
        <ele>2544.6</ele>
        <time>2021-02-27T08:20:26Z</time>
      </trkpt>
      <trkpt lat="45.18514" lon="5.98723">
        <ele>2544.8</ele>
        <time>2021-02-27T08:20:27Z</time>
      </trkpt>
      <trkpt lat="45.18514" lon="5.98723">
        <ele>2545</ele>
        <time>2021-02-27T08:20:28Z</time>
      </trkpt>
      <trkpt lat="45.18515" lon="5.98719">
        <ele>2545.2</ele>
        <time>2021-02-27T08:20:29Z</time>
      </trkpt>
      <trkpt lat="45.18515" lon="5.98719">
        <ele>2545.2</ele>
        <time>2021-02-27T08:20:30Z</time>
      </trkpt>
      <trkpt lat="45.18515" lon="5.98719">
        <ele>2545.2</ele>
        <time>2021-02-27T08:20:31Z</time>
      </trkpt>
      <trkpt lat="45.18517" lon="5.98716">
        <ele>2545.4</ele>
        <time>2021-02-27T08:20:32Z</time>
      </trkpt>
      <trkpt lat="45.18517" lon="5.98716">
        <ele>2545.6</ele>
        <time>2021-02-27T08:20:33Z</time>
      </trkpt>
      <trkpt lat="45.18517" lon="5.98716">
        <ele>2545.8</ele>
        <time>2021-02-27T08:20:34Z</time>
      </trkpt>
      <trkpt lat="45.18517" lon="5.98716">
        <ele>2546</ele>
        <time>2021-02-27T08:20:35Z</time>
      </trkpt>
      <trkpt lat="45.18517" lon="5.98716">
        <ele>2546.2</ele>
        <time>2021-02-27T08:20:36Z</time>
      </trkpt>
      <trkpt lat="45.18517" lon="5.98716">
        <ele>2547</ele>
        <time>2021-02-27T08:20:37Z</time>
      </trkpt>
      <trkpt lat="45.18518" lon="5.98717">
        <ele>2547</ele>
        <time>2021-02-27T08:20:38Z</time>
      </trkpt>
      <trkpt lat="45.18518" lon="5.98717">
        <ele>2547.4</ele>
        <time>2021-02-27T08:20:39Z</time>
      </trkpt>
      <trkpt lat="45.18518" lon="5.9872">
        <ele>2547.4</ele>
        <time>2021-02-27T08:20:40Z</time>
      </trkpt>
      <trkpt lat="45.18518" lon="5.9872">
        <ele>2547.6</ele>
        <time>2021-02-27T08:20:41Z</time>
      </trkpt>
      <trkpt lat="45.18518" lon="5.9872">
        <ele>2548.2</ele>
        <time>2021-02-27T08:20:42Z</time>
      </trkpt>
      <trkpt lat="45.18519" lon="5.98724">
        <ele>2548.2</ele>
        <time>2021-02-27T08:20:43Z</time>
      </trkpt>
      <trkpt lat="45.18519" lon="5.98724">
        <ele>2548.4</ele>
        <time>2021-02-27T08:20:44Z</time>
      </trkpt>
      <trkpt lat="45.18519" lon="5.98724">
        <ele>2548.8</ele>
        <time>2021-02-27T08:20:45Z</time>
      </trkpt>
      <trkpt lat="45.18519" lon="5.98728">
        <ele>2548.8</ele>
        <time>2021-02-27T08:20:46Z</time>
      </trkpt>
      <trkpt lat="45.18519" lon="5.98728">
        <ele>2549.6</ele>
        <time>2021-02-27T08:20:47Z</time>
      </trkpt>
      <trkpt lat="45.18519" lon="5.98728">
        <ele>2549.8</ele>
        <time>2021-02-27T08:20:48Z</time>
      </trkpt>
      <trkpt lat="45.18519" lon="5.98732">
        <ele>2549.6</ele>
        <time>2021-02-27T08:20:49Z</time>
      </trkpt>
      <trkpt lat="45.18519" lon="5.98732">
        <ele>2550.2</ele>
        <time>2021-02-27T08:20:50Z</time>
      </trkpt>
      <trkpt lat="45.18519" lon="5.98732">
        <ele>2550.4</ele>
        <time>2021-02-27T08:20:51Z</time>
      </trkpt>
      <trkpt lat="45.18519" lon="5.98732">
        <ele>2550.2</ele>
        <time>2021-02-27T08:20:52Z</time>
      </trkpt>
      <trkpt lat="45.18519" lon="5.98735">
        <ele>2550.6</ele>
        <time>2021-02-27T08:20:53Z</time>
      </trkpt>
      <trkpt lat="45.18519" lon="5.98735">
        <ele>2550.8</ele>
        <time>2021-02-27T08:20:54Z</time>
      </trkpt>
      <trkpt lat="45.18518" lon="5.98738">
        <ele>2550.8</ele>
        <time>2021-02-27T08:20:55Z</time>
      </trkpt>
      <trkpt lat="45.18518" lon="5.98738">
        <ele>2551.6</ele>
        <time>2021-02-27T08:20:56Z</time>
      </trkpt>
      <trkpt lat="45.18517" lon="5.98741">
        <ele>2551.8</ele>
        <time>2021-02-27T08:20:57Z</time>
      </trkpt>
      <trkpt lat="45.18517" lon="5.98741">
        <ele>2552</ele>
        <time>2021-02-27T08:20:58Z</time>
      </trkpt>
      <trkpt lat="45.18517" lon="5.98744">
        <ele>2552.4</ele>
        <time>2021-02-27T08:20:59Z</time>
      </trkpt>
      <trkpt lat="45.18517" lon="5.98744">
        <ele>2552.4</ele>
        <time>2021-02-27T08:21:00Z</time>
      </trkpt>
      <trkpt lat="45.18516" lon="5.98747">
        <ele>2552.8</ele>
        <time>2021-02-27T08:21:01Z</time>
      </trkpt>
      <trkpt lat="45.18516" lon="5.98747">
        <ele>2553.2</ele>
        <time>2021-02-27T08:21:02Z</time>
      </trkpt>
      <trkpt lat="45.18516" lon="5.98747">
        <ele>2553.4</ele>
        <time>2021-02-27T08:21:03Z</time>
      </trkpt>
      <trkpt lat="45.18515" lon="5.98751">
        <ele>2553.6</ele>
        <time>2021-02-27T08:21:04Z</time>
      </trkpt>
      <trkpt lat="45.18515" lon="5.98751">
        <ele>2553.4</ele>
        <time>2021-02-27T08:21:05Z</time>
      </trkpt>
      <trkpt lat="45.18515" lon="5.98751">
        <ele>2553.6</ele>
        <time>2021-02-27T08:21:06Z</time>
      </trkpt>
      <trkpt lat="45.18515" lon="5.98751">
        <ele>2553.8</ele>
        <time>2021-02-27T08:21:07Z</time>
      </trkpt>
      <trkpt lat="45.18515" lon="5.98751">
        <ele>2554</ele>
        <time>2021-02-27T08:21:08Z</time>
      </trkpt>
      <trkpt lat="45.18517" lon="5.98752">
        <ele>2554.4</ele>
        <time>2021-02-27T08:21:09Z</time>
      </trkpt>
      <trkpt lat="45.18517" lon="5.98752">
        <ele>2554.4</ele>
        <time>2021-02-27T08:21:10Z</time>
      </trkpt>
      <trkpt lat="45.18519" lon="5.98752">
        <ele>2554.6</ele>
        <time>2021-02-27T08:21:11Z</time>
      </trkpt>
      <trkpt lat="45.18519" lon="5.98752">
        <ele>2554.6</ele>
        <time>2021-02-27T08:21:12Z</time>
      </trkpt>
      <trkpt lat="45.18521" lon="5.9875">
        <ele>2554.6</ele>
        <time>2021-02-27T08:21:13Z</time>
      </trkpt>
      <trkpt lat="45.18521" lon="5.9875">
        <ele>2554.8</ele>
        <time>2021-02-27T08:21:14Z</time>
      </trkpt>
      <trkpt lat="45.18521" lon="5.9875">
        <ele>2555</ele>
        <time>2021-02-27T08:21:15Z</time>
      </trkpt>
      <trkpt lat="45.18523" lon="5.98748">
        <ele>2555</ele>
        <time>2021-02-27T08:21:16Z</time>
      </trkpt>
      <trkpt lat="45.18523" lon="5.98748">
        <ele>2555.2</ele>
        <time>2021-02-27T08:21:17Z</time>
      </trkpt>
      <trkpt lat="45.18525" lon="5.98747">
        <ele>2555.2</ele>
        <time>2021-02-27T08:21:18Z</time>
      </trkpt>
      <trkpt lat="45.18525" lon="5.98747">
        <ele>2555.4</ele>
        <time>2021-02-27T08:21:19Z</time>
      </trkpt>
      <trkpt lat="45.18527" lon="5.98745">
        <ele>2555.6</ele>
        <time>2021-02-27T08:21:20Z</time>
      </trkpt>
      <trkpt lat="45.18527" lon="5.98745">
        <ele>2555.6</ele>
        <time>2021-02-27T08:21:21Z</time>
      </trkpt>
      <trkpt lat="45.18528" lon="5.98743">
        <ele>2556</ele>
        <time>2021-02-27T08:21:22Z</time>
      </trkpt>
      <trkpt lat="45.18528" lon="5.98743">
        <ele>2556.2</ele>
        <time>2021-02-27T08:21:23Z</time>
      </trkpt>
      <trkpt lat="45.1853" lon="5.98742">
        <ele>2556.4</ele>
        <time>2021-02-27T08:21:24Z</time>
      </trkpt>
      <trkpt lat="45.1853" lon="5.98742">
        <ele>2556.4</ele>
        <time>2021-02-27T08:21:25Z</time>
      </trkpt>
      <trkpt lat="45.18532" lon="5.9874">
        <ele>2556.4</ele>
        <time>2021-02-27T08:21:26Z</time>
      </trkpt>
      <trkpt lat="45.18532" lon="5.9874">
        <ele>2556.4</ele>
        <time>2021-02-27T08:21:27Z</time>
      </trkpt>
      <trkpt lat="45.18534" lon="5.98738">
        <ele>2556.8</ele>
        <time>2021-02-27T08:21:28Z</time>
      </trkpt>
      <trkpt lat="45.18534" lon="5.98738">
        <ele>2556.6</ele>
        <time>2021-02-27T08:21:29Z</time>
      </trkpt>
      <trkpt lat="45.18534" lon="5.98738">
        <ele>2557</ele>
        <time>2021-02-27T08:21:30Z</time>
      </trkpt>
      <trkpt lat="45.18535" lon="5.98735">
        <ele>2557.4</ele>
        <time>2021-02-27T08:21:31Z</time>
      </trkpt>
      <trkpt lat="45.18535" lon="5.98735">
        <ele>2557.4</ele>
        <time>2021-02-27T08:21:32Z</time>
      </trkpt>
      <trkpt lat="45.18537" lon="5.98732">
        <ele>2557.6</ele>
        <time>2021-02-27T08:21:33Z</time>
      </trkpt>
      <trkpt lat="45.18537" lon="5.98732">
        <ele>2557.8</ele>
        <time>2021-02-27T08:21:34Z</time>
      </trkpt>
      <trkpt lat="45.18538" lon="5.9873">
        <ele>2558</ele>
        <time>2021-02-27T08:21:35Z</time>
      </trkpt>
      <trkpt lat="45.18538" lon="5.9873">
        <ele>2558.2</ele>
        <time>2021-02-27T08:21:36Z</time>
      </trkpt>
      <trkpt lat="45.18538" lon="5.98727">
        <ele>2558.2</ele>
        <time>2021-02-27T08:21:37Z</time>
      </trkpt>
      <trkpt lat="45.18538" lon="5.98727">
        <ele>2558.8</ele>
        <time>2021-02-27T08:21:38Z</time>
      </trkpt>
      <trkpt lat="45.18539" lon="5.98724">
        <ele>2558.8</ele>
        <time>2021-02-27T08:21:39Z</time>
      </trkpt>
      <trkpt lat="45.18539" lon="5.98724">
        <ele>2558.8</ele>
        <time>2021-02-27T08:21:40Z</time>
      </trkpt>
      <trkpt lat="45.18539" lon="5.98721">
        <ele>2559.2</ele>
        <time>2021-02-27T08:21:41Z</time>
      </trkpt>
      <trkpt lat="45.18539" lon="5.98721">
        <ele>2559.2</ele>
        <time>2021-02-27T08:21:42Z</time>
      </trkpt>
      <trkpt lat="45.1854" lon="5.98718">
        <ele>2559.2</ele>
        <time>2021-02-27T08:21:43Z</time>
      </trkpt>
      <trkpt lat="45.1854" lon="5.98718">
        <ele>2559.4</ele>
        <time>2021-02-27T08:21:44Z</time>
      </trkpt>
      <trkpt lat="45.1854" lon="5.98718">
        <ele>2559.8</ele>
        <time>2021-02-27T08:21:45Z</time>
      </trkpt>
      <trkpt lat="45.18541" lon="5.98715">
        <ele>2560</ele>
        <time>2021-02-27T08:21:46Z</time>
      </trkpt>
      <trkpt lat="45.18541" lon="5.98715">
        <ele>2560.4</ele>
        <time>2021-02-27T08:21:47Z</time>
      </trkpt>
      <trkpt lat="45.18541" lon="5.98715">
        <ele>2560.6</ele>
        <time>2021-02-27T08:21:48Z</time>
      </trkpt>
      <trkpt lat="45.18542" lon="5.98712">
        <ele>2560.8</ele>
        <time>2021-02-27T08:21:49Z</time>
      </trkpt>
      <trkpt lat="45.18542" lon="5.98712">
        <ele>2561.2</ele>
        <time>2021-02-27T08:21:50Z</time>
      </trkpt>
      <trkpt lat="45.18542" lon="5.98712">
        <ele>2561.6</ele>
        <time>2021-02-27T08:21:51Z</time>
      </trkpt>
      <trkpt lat="45.18542" lon="5.98712">
        <ele>2561.6</ele>
        <time>2021-02-27T08:21:52Z</time>
      </trkpt>
      <trkpt lat="45.18544" lon="5.98712">
        <ele>2562.2</ele>
        <time>2021-02-27T08:21:53Z</time>
      </trkpt>
      <trkpt lat="45.18544" lon="5.98712">
        <ele>2562.6</ele>
        <time>2021-02-27T08:21:54Z</time>
      </trkpt>
      <trkpt lat="45.18544" lon="5.98712">
        <ele>2562.6</ele>
        <time>2021-02-27T08:21:55Z</time>
      </trkpt>
      <trkpt lat="45.18545" lon="5.98716">
        <ele>2563.2</ele>
        <time>2021-02-27T08:21:56Z</time>
      </trkpt>
      <trkpt lat="45.18545" lon="5.98716">
        <ele>2563.2</ele>
        <time>2021-02-27T08:21:57Z</time>
      </trkpt>
      <trkpt lat="45.18545" lon="5.98716">
        <ele>2563.2</ele>
        <time>2021-02-27T08:21:58Z</time>
      </trkpt>
      <trkpt lat="45.18546" lon="5.98719">
        <ele>2563.8</ele>
        <time>2021-02-27T08:21:59Z</time>
      </trkpt>
      <trkpt lat="45.18546" lon="5.98719">
        <ele>2563.6</ele>
        <time>2021-02-27T08:22:00Z</time>
      </trkpt>
      <trkpt lat="45.18546" lon="5.9872">
        <ele>2563.8</ele>
        <time>2021-02-27T08:22:01Z</time>
      </trkpt>
      <trkpt lat="45.18547" lon="5.98721">
        <ele>2564.4</ele>
        <time>2021-02-27T08:22:02Z</time>
      </trkpt>
      <trkpt lat="45.18548" lon="5.98722">
        <ele>2564.2</ele>
        <time>2021-02-27T08:22:03Z</time>
      </trkpt>
      <trkpt lat="45.18548" lon="5.98723">
        <ele>2564.6</ele>
        <time>2021-02-27T08:22:04Z</time>
      </trkpt>
      <trkpt lat="45.18549" lon="5.98724">
        <ele>2565</ele>
        <time>2021-02-27T08:22:05Z</time>
      </trkpt>
      <trkpt lat="45.18549" lon="5.98725">
        <ele>2564.8</ele>
        <time>2021-02-27T08:22:06Z</time>
      </trkpt>
      <trkpt lat="45.18549" lon="5.98725">
        <ele>2565.2</ele>
        <time>2021-02-27T08:22:07Z</time>
      </trkpt>
      <trkpt lat="45.1855" lon="5.98729">
        <ele>2565.2</ele>
        <time>2021-02-27T08:22:08Z</time>
      </trkpt>
      <trkpt lat="45.1855" lon="5.98729">
        <ele>2565.2</ele>
        <time>2021-02-27T08:22:09Z</time>
      </trkpt>
      <trkpt lat="45.1855" lon="5.98732">
        <ele>2566</ele>
        <time>2021-02-27T08:22:10Z</time>
      </trkpt>
      <trkpt lat="45.1855" lon="5.98732">
        <ele>2566</ele>
        <time>2021-02-27T08:22:11Z</time>
      </trkpt>
      <trkpt lat="45.1855" lon="5.98732">
        <ele>2566</ele>
        <time>2021-02-27T08:22:12Z</time>
      </trkpt>
      <trkpt lat="45.18551" lon="5.98735">
        <ele>2566.6</ele>
        <time>2021-02-27T08:22:13Z</time>
      </trkpt>
      <trkpt lat="45.18551" lon="5.98735">
        <ele>2566.6</ele>
        <time>2021-02-27T08:22:14Z</time>
      </trkpt>
      <trkpt lat="45.18551" lon="5.98735">
        <ele>2566.8</ele>
        <time>2021-02-27T08:22:15Z</time>
      </trkpt>
      <trkpt lat="45.18552" lon="5.98739">
        <ele>2567.2</ele>
        <time>2021-02-27T08:22:16Z</time>
      </trkpt>
      <trkpt lat="45.18552" lon="5.98739">
        <ele>2567.2</ele>
        <time>2021-02-27T08:22:17Z</time>
      </trkpt>
      <trkpt lat="45.18552" lon="5.98739">
        <ele>2567.6</ele>
        <time>2021-02-27T08:22:18Z</time>
      </trkpt>
      <trkpt lat="45.18553" lon="5.98742">
        <ele>2568</ele>
        <time>2021-02-27T08:22:19Z</time>
      </trkpt>
      <trkpt lat="45.18553" lon="5.98742">
        <ele>2567.8</ele>
        <time>2021-02-27T08:22:20Z</time>
      </trkpt>
      <trkpt lat="45.18554" lon="5.98745">
        <ele>2568.4</ele>
        <time>2021-02-27T08:22:21Z</time>
      </trkpt>
      <trkpt lat="45.18554" lon="5.98745">
        <ele>2568.8</ele>
        <time>2021-02-27T08:22:22Z</time>
      </trkpt>
      <trkpt lat="45.18555" lon="5.98747">
        <ele>2568.8</ele>
        <time>2021-02-27T08:22:23Z</time>
      </trkpt>
      <trkpt lat="45.18555" lon="5.98747">
        <ele>2569.2</ele>
        <time>2021-02-27T08:22:24Z</time>
      </trkpt>
      <trkpt lat="45.18555" lon="5.98747">
        <ele>2569.4</ele>
        <time>2021-02-27T08:22:25Z</time>
      </trkpt>
      <trkpt lat="45.18555" lon="5.9875">
        <ele>2569.4</ele>
        <time>2021-02-27T08:22:26Z</time>
      </trkpt>
      <trkpt lat="45.18555" lon="5.9875">
        <ele>2570.2</ele>
        <time>2021-02-27T08:22:27Z</time>
      </trkpt>
      <trkpt lat="45.18555" lon="5.9875">
        <ele>2570.2</ele>
        <time>2021-02-27T08:22:28Z</time>
      </trkpt>
      <trkpt lat="45.18554" lon="5.98754">
        <ele>2570.4</ele>
        <time>2021-02-27T08:22:29Z</time>
      </trkpt>
      <trkpt lat="45.18554" lon="5.98754">
        <ele>2570.8</ele>
        <time>2021-02-27T08:22:30Z</time>
      </trkpt>
      <trkpt lat="45.18555" lon="5.98757">
        <ele>2571.2</ele>
        <time>2021-02-27T08:22:31Z</time>
      </trkpt>
      <trkpt lat="45.18555" lon="5.98757">
        <ele>2571.2</ele>
        <time>2021-02-27T08:22:32Z</time>
      </trkpt>
      <trkpt lat="45.18555" lon="5.9876">
        <ele>2571.6</ele>
        <time>2021-02-27T08:22:33Z</time>
      </trkpt>
      <trkpt lat="45.18555" lon="5.9876">
        <ele>2571.8</ele>
        <time>2021-02-27T08:22:34Z</time>
      </trkpt>
      <trkpt lat="45.18555" lon="5.9876">
        <ele>2571.8</ele>
        <time>2021-02-27T08:22:35Z</time>
      </trkpt>
      <trkpt lat="45.18555" lon="5.9876">
        <ele>2572.2</ele>
        <time>2021-02-27T08:22:36Z</time>
      </trkpt>
      <trkpt lat="45.18555" lon="5.98763">
        <ele>2572.2</ele>
        <time>2021-02-27T08:22:37Z</time>
      </trkpt>
      <trkpt lat="45.18555" lon="5.98763">
        <ele>2572.6</ele>
        <time>2021-02-27T08:22:38Z</time>
      </trkpt>
      <trkpt lat="45.18555" lon="5.98763">
        <ele>2573.2</ele>
        <time>2021-02-27T08:22:39Z</time>
      </trkpt>
      <trkpt lat="45.18555" lon="5.98763">
        <ele>2573.6</ele>
        <time>2021-02-27T08:22:40Z</time>
      </trkpt>
      <trkpt lat="45.18556" lon="5.98767">
        <ele>2574</ele>
        <time>2021-02-27T08:22:41Z</time>
      </trkpt>
      <trkpt lat="45.18556" lon="5.98767">
        <ele>2573.8</ele>
        <time>2021-02-27T08:22:42Z</time>
      </trkpt>
      <trkpt lat="45.18557" lon="5.9877">
        <ele>2574.4</ele>
        <time>2021-02-27T08:22:43Z</time>
      </trkpt>
      <trkpt lat="45.18557" lon="5.9877">
        <ele>2574.8</ele>
        <time>2021-02-27T08:22:44Z</time>
      </trkpt>
      <trkpt lat="45.18557" lon="5.9877">
        <ele>2575</ele>
        <time>2021-02-27T08:22:45Z</time>
      </trkpt>
      <trkpt lat="45.18556" lon="5.98773">
        <ele>2575.2</ele>
        <time>2021-02-27T08:22:46Z</time>
      </trkpt>
      <trkpt lat="45.18556" lon="5.98773">
        <ele>2575</ele>
        <time>2021-02-27T08:22:47Z</time>
      </trkpt>
      <trkpt lat="45.18557" lon="5.98776">
        <ele>2575.8</ele>
        <time>2021-02-27T08:22:48Z</time>
      </trkpt>
      <trkpt lat="45.18557" lon="5.98776">
        <ele>2575.8</ele>
        <time>2021-02-27T08:22:49Z</time>
      </trkpt>
      <trkpt lat="45.18557" lon="5.98776">
        <ele>2576.2</ele>
        <time>2021-02-27T08:22:50Z</time>
      </trkpt>
      <trkpt lat="45.18557" lon="5.98781">
        <ele>2576.8</ele>
        <time>2021-02-27T08:22:51Z</time>
      </trkpt>
      <trkpt lat="45.18557" lon="5.98781">
        <ele>2577</ele>
        <time>2021-02-27T08:22:52Z</time>
      </trkpt>
      <trkpt lat="45.18557" lon="5.98781">
        <ele>2577</ele>
        <time>2021-02-27T08:22:53Z</time>
      </trkpt>
      <trkpt lat="45.18557" lon="5.98781">
        <ele>2577.6</ele>
        <time>2021-02-27T08:22:54Z</time>
      </trkpt>
      <trkpt lat="45.18557" lon="5.98781">
        <ele>2578.2</ele>
        <time>2021-02-27T08:22:55Z</time>
      </trkpt>
      <trkpt lat="45.18557" lon="5.98784">
        <ele>2578.6</ele>
        <time>2021-02-27T08:22:56Z</time>
      </trkpt>
      <trkpt lat="45.18557" lon="5.98784">
        <ele>2578.4</ele>
        <time>2021-02-27T08:22:57Z</time>
      </trkpt>
      <trkpt lat="45.18557" lon="5.98784">
        <ele>2579</ele>
        <time>2021-02-27T08:22:58Z</time>
      </trkpt>
      <trkpt lat="45.18556" lon="5.98787">
        <ele>2579.2</ele>
        <time>2021-02-27T08:22:59Z</time>
      </trkpt>
      <trkpt lat="45.18556" lon="5.98787">
        <ele>2579.8</ele>
        <time>2021-02-27T08:23:00Z</time>
      </trkpt>
      <trkpt lat="45.18556" lon="5.98787">
        <ele>2579.6</ele>
        <time>2021-02-27T08:23:01Z</time>
      </trkpt>
      <trkpt lat="45.18555" lon="5.9879">
        <ele>2579.8</ele>
        <time>2021-02-27T08:23:02Z</time>
      </trkpt>
      <trkpt lat="45.18555" lon="5.9879">
        <ele>2580.4</ele>
        <time>2021-02-27T08:23:03Z</time>
      </trkpt>
      <trkpt lat="45.18555" lon="5.9879">
        <ele>2580.8</ele>
        <time>2021-02-27T08:23:04Z</time>
      </trkpt>
      <trkpt lat="45.18554" lon="5.98793">
        <ele>2580.6</ele>
        <time>2021-02-27T08:23:05Z</time>
      </trkpt>
      <trkpt lat="45.18554" lon="5.98793">
        <ele>2581.2</ele>
        <time>2021-02-27T08:23:06Z</time>
      </trkpt>
      <trkpt lat="45.18554" lon="5.98793">
        <ele>2581.6</ele>
        <time>2021-02-27T08:23:07Z</time>
      </trkpt>
      <trkpt lat="45.18554" lon="5.98793">
        <ele>2581.8</ele>
        <time>2021-02-27T08:23:08Z</time>
      </trkpt>
      <trkpt lat="45.18554" lon="5.98793">
        <ele>2582</ele>
        <time>2021-02-27T08:23:09Z</time>
      </trkpt>
      <trkpt lat="45.18554" lon="5.98793">
        <ele>2582</ele>
        <time>2021-02-27T08:23:10Z</time>
      </trkpt>
      <trkpt lat="45.18556" lon="5.98796">
        <ele>2582.2</ele>
        <time>2021-02-27T08:23:11Z</time>
      </trkpt>
      <trkpt lat="45.18556" lon="5.98796">
        <ele>2582.2</ele>
        <time>2021-02-27T08:23:12Z</time>
      </trkpt>
      <trkpt lat="45.18558" lon="5.98796">
        <ele>2582.4</ele>
        <time>2021-02-27T08:23:13Z</time>
      </trkpt>
      <trkpt lat="45.18558" lon="5.98796">
        <ele>2582.6</ele>
        <time>2021-02-27T08:23:14Z</time>
      </trkpt>
      <trkpt lat="45.1856" lon="5.98795">
        <ele>2582.6</ele>
        <time>2021-02-27T08:23:15Z</time>
      </trkpt>
      <trkpt lat="45.1856" lon="5.98795">
        <ele>2582.6</ele>
        <time>2021-02-27T08:23:16Z</time>
      </trkpt>
      <trkpt lat="45.1856" lon="5.98795">
        <ele>2582.8</ele>
        <time>2021-02-27T08:23:17Z</time>
      </trkpt>
      <trkpt lat="45.18562" lon="5.98794">
        <ele>2583</ele>
        <time>2021-02-27T08:23:18Z</time>
      </trkpt>
      <trkpt lat="45.18562" lon="5.98794">
        <ele>2583.2</ele>
        <time>2021-02-27T08:23:19Z</time>
      </trkpt>
      <trkpt lat="45.18564" lon="5.98794">
        <ele>2583.6</ele>
        <time>2021-02-27T08:23:20Z</time>
      </trkpt>
      <trkpt lat="45.18564" lon="5.98794">
        <ele>2583.6</ele>
        <time>2021-02-27T08:23:21Z</time>
      </trkpt>
      <trkpt lat="45.18566" lon="5.98793">
        <ele>2583.8</ele>
        <time>2021-02-27T08:23:22Z</time>
      </trkpt>
      <trkpt lat="45.18566" lon="5.98793">
        <ele>2584.2</ele>
        <time>2021-02-27T08:23:23Z</time>
      </trkpt>
      <trkpt lat="45.18566" lon="5.98793">
        <ele>2584.2</ele>
        <time>2021-02-27T08:23:24Z</time>
      </trkpt>
      <trkpt lat="45.18568" lon="5.98791">
        <ele>2584.4</ele>
        <time>2021-02-27T08:23:25Z</time>
      </trkpt>
      <trkpt lat="45.18568" lon="5.98791">
        <ele>2584.8</ele>
        <time>2021-02-27T08:23:26Z</time>
      </trkpt>
      <trkpt lat="45.1857" lon="5.98791">
        <ele>2584.8</ele>
        <time>2021-02-27T08:23:27Z</time>
      </trkpt>
      <trkpt lat="45.1857" lon="5.98791">
        <ele>2585.2</ele>
        <time>2021-02-27T08:23:28Z</time>
      </trkpt>
      <trkpt lat="45.1857" lon="5.98791">
        <ele>2585.4</ele>
        <time>2021-02-27T08:23:29Z</time>
      </trkpt>
      <trkpt lat="45.1857" lon="5.98794">
        <ele>2585.8</ele>
        <time>2021-02-27T08:23:30Z</time>
      </trkpt>
      <trkpt lat="45.1857" lon="5.98794">
        <ele>2586</ele>
        <time>2021-02-27T08:23:31Z</time>
      </trkpt>
      <trkpt lat="45.1857" lon="5.98794">
        <ele>2586.4</ele>
        <time>2021-02-27T08:23:32Z</time>
      </trkpt>
      <trkpt lat="45.1857" lon="5.98794">
        <ele>2586.2</ele>
        <time>2021-02-27T08:23:33Z</time>
      </trkpt>
      <trkpt lat="45.1857" lon="5.98794">
        <ele>2586.6</ele>
        <time>2021-02-27T08:23:34Z</time>
      </trkpt>
      <trkpt lat="45.1857" lon="5.98797">
        <ele>2587.4</ele>
        <time>2021-02-27T08:23:35Z</time>
      </trkpt>
      <trkpt lat="45.1857" lon="5.98797">
        <ele>2587.4</ele>
        <time>2021-02-27T08:23:36Z</time>
      </trkpt>
      <trkpt lat="45.1857" lon="5.988">
        <ele>2587.6</ele>
        <time>2021-02-27T08:23:37Z</time>
      </trkpt>
      <trkpt lat="45.1857" lon="5.988">
        <ele>2588</ele>
        <time>2021-02-27T08:23:38Z</time>
      </trkpt>
      <trkpt lat="45.1857" lon="5.988">
        <ele>2588.4</ele>
        <time>2021-02-27T08:23:39Z</time>
      </trkpt>
      <trkpt lat="45.18569" lon="5.98803">
        <ele>2588.8</ele>
        <time>2021-02-27T08:23:40Z</time>
      </trkpt>
      <trkpt lat="45.18569" lon="5.98803">
        <ele>2588.8</ele>
        <time>2021-02-27T08:23:41Z</time>
      </trkpt>
      <trkpt lat="45.18568" lon="5.98806">
        <ele>2589.2</ele>
        <time>2021-02-27T08:23:42Z</time>
      </trkpt>
      <trkpt lat="45.18568" lon="5.98806">
        <ele>2589.4</ele>
        <time>2021-02-27T08:23:43Z</time>
      </trkpt>
      <trkpt lat="45.18568" lon="5.98806">
        <ele>2589.6</ele>
        <time>2021-02-27T08:23:44Z</time>
      </trkpt>
      <trkpt lat="45.18566" lon="5.98809">
        <ele>2590</ele>
        <time>2021-02-27T08:23:45Z</time>
      </trkpt>
      <trkpt lat="45.18566" lon="5.98809">
        <ele>2589.8</ele>
        <time>2021-02-27T08:23:46Z</time>
      </trkpt>
      <trkpt lat="45.18565" lon="5.98812">
        <ele>2589.8</ele>
        <time>2021-02-27T08:23:47Z</time>
      </trkpt>
      <trkpt lat="45.18565" lon="5.98812">
        <ele>2590.4</ele>
        <time>2021-02-27T08:23:48Z</time>
      </trkpt>
      <trkpt lat="45.18564" lon="5.98814">
        <ele>2590.8</ele>
        <time>2021-02-27T08:23:49Z</time>
      </trkpt>
      <trkpt lat="45.18564" lon="5.98814">
        <ele>2590.8</ele>
        <time>2021-02-27T08:23:50Z</time>
      </trkpt>
      <trkpt lat="45.18564" lon="5.98814">
        <ele>2591.4</ele>
        <time>2021-02-27T08:23:51Z</time>
      </trkpt>
      <trkpt lat="45.18564" lon="5.98817">
        <ele>2591.4</ele>
        <time>2021-02-27T08:23:52Z</time>
      </trkpt>
      <trkpt lat="45.18564" lon="5.98817">
        <ele>2591.6</ele>
        <time>2021-02-27T08:23:53Z</time>
      </trkpt>
      <trkpt lat="45.18563" lon="5.9882">
        <ele>2592.2</ele>
        <time>2021-02-27T08:23:54Z</time>
      </trkpt>
      <trkpt lat="45.18563" lon="5.9882">
        <ele>2592.4</ele>
        <time>2021-02-27T08:23:55Z</time>
      </trkpt>
      <trkpt lat="45.18563" lon="5.9882">
        <ele>2592.8</ele>
        <time>2021-02-27T08:23:56Z</time>
      </trkpt>
      <trkpt lat="45.18562" lon="5.98823">
        <ele>2592.6</ele>
        <time>2021-02-27T08:23:57Z</time>
      </trkpt>
      <trkpt lat="45.18562" lon="5.98823">
        <ele>2592.6</ele>
        <time>2021-02-27T08:23:58Z</time>
      </trkpt>
      <trkpt lat="45.18561" lon="5.98825">
        <ele>2593</ele>
        <time>2021-02-27T08:23:59Z</time>
      </trkpt>
      <trkpt lat="45.18561" lon="5.98825">
        <ele>2593.4</ele>
        <time>2021-02-27T08:24:00Z</time>
      </trkpt>
      <trkpt lat="45.18561" lon="5.98825">
        <ele>2593.6</ele>
        <time>2021-02-27T08:24:01Z</time>
      </trkpt>
      <trkpt lat="45.18559" lon="5.98827">
        <ele>2594</ele>
        <time>2021-02-27T08:24:02Z</time>
      </trkpt>
      <trkpt lat="45.18559" lon="5.98827">
        <ele>2594.2</ele>
        <time>2021-02-27T08:24:03Z</time>
      </trkpt>
      <trkpt lat="45.18559" lon="5.98827">
        <ele>2594.4</ele>
        <time>2021-02-27T08:24:04Z</time>
      </trkpt>
      <trkpt lat="45.18558" lon="5.98829">
        <ele>2595</ele>
        <time>2021-02-27T08:24:05Z</time>
      </trkpt>
      <trkpt lat="45.18558" lon="5.98829">
        <ele>2595.2</ele>
        <time>2021-02-27T08:24:06Z</time>
      </trkpt>
      <trkpt lat="45.18558" lon="5.98829">
        <ele>2595.6</ele>
        <time>2021-02-27T08:24:07Z</time>
      </trkpt>
      <trkpt lat="45.18558" lon="5.98829">
        <ele>2595.8</ele>
        <time>2021-02-27T08:24:08Z</time>
      </trkpt>
      <trkpt lat="45.18558" lon="5.98829">
        <ele>2595.8</ele>
        <time>2021-02-27T08:24:09Z</time>
      </trkpt>
      <trkpt lat="45.18558" lon="5.98829">
        <ele>2596</ele>
        <time>2021-02-27T08:24:10Z</time>
      </trkpt>
      <trkpt lat="45.18561" lon="5.98829">
        <ele>2596</ele>
        <time>2021-02-27T08:24:11Z</time>
      </trkpt>
      <trkpt lat="45.18561" lon="5.98829">
        <ele>2596.2</ele>
        <time>2021-02-27T08:24:12Z</time>
      </trkpt>
      <trkpt lat="45.18563" lon="5.98829">
        <ele>2596.2</ele>
        <time>2021-02-27T08:24:13Z</time>
      </trkpt>
      <trkpt lat="45.18563" lon="5.98829">
        <ele>2596.6</ele>
        <time>2021-02-27T08:24:14Z</time>
      </trkpt>
      <trkpt lat="45.18565" lon="5.98829">
        <ele>2596.6</ele>
        <time>2021-02-27T08:24:15Z</time>
      </trkpt>
      <trkpt lat="45.18565" lon="5.98829">
        <ele>2596.8</ele>
        <time>2021-02-27T08:24:16Z</time>
      </trkpt>
      <trkpt lat="45.18565" lon="5.98829">
        <ele>2596.8</ele>
        <time>2021-02-27T08:24:17Z</time>
      </trkpt>
      <trkpt lat="45.18567" lon="5.98829">
        <ele>2596.6</ele>
        <time>2021-02-27T08:24:18Z</time>
      </trkpt>
      <trkpt lat="45.18567" lon="5.98829">
        <ele>2597</ele>
        <time>2021-02-27T08:24:19Z</time>
      </trkpt>
      <trkpt lat="45.18569" lon="5.98828">
        <ele>2597</ele>
        <time>2021-02-27T08:24:20Z</time>
      </trkpt>
      <trkpt lat="45.18569" lon="5.98828">
        <ele>2597.2</ele>
        <time>2021-02-27T08:24:21Z</time>
      </trkpt>
      <trkpt lat="45.18571" lon="5.98827">
        <ele>2597.6</ele>
        <time>2021-02-27T08:24:22Z</time>
      </trkpt>
      <trkpt lat="45.18571" lon="5.98827">
        <ele>2597.6</ele>
        <time>2021-02-27T08:24:23Z</time>
      </trkpt>
      <trkpt lat="45.18573" lon="5.98826">
        <ele>2597.8</ele>
        <time>2021-02-27T08:24:24Z</time>
      </trkpt>
      <trkpt lat="45.18573" lon="5.98826">
        <ele>2597.8</ele>
        <time>2021-02-27T08:24:25Z</time>
      </trkpt>
      <trkpt lat="45.18575" lon="5.98825">
        <ele>2598</ele>
        <time>2021-02-27T08:24:26Z</time>
      </trkpt>
      <trkpt lat="45.18575" lon="5.98825">
        <ele>2598.2</ele>
        <time>2021-02-27T08:24:27Z</time>
      </trkpt>
      <trkpt lat="45.18577" lon="5.98824">
        <ele>2598.2</ele>
        <time>2021-02-27T08:24:28Z</time>
      </trkpt>
      <trkpt lat="45.18577" lon="5.98824">
        <ele>2598.4</ele>
        <time>2021-02-27T08:24:29Z</time>
      </trkpt>
      <trkpt lat="45.18579" lon="5.98823">
        <ele>2598.4</ele>
        <time>2021-02-27T08:24:30Z</time>
      </trkpt>
      <trkpt lat="45.18579" lon="5.98823">
        <ele>2598.6</ele>
        <time>2021-02-27T08:24:31Z</time>
      </trkpt>
      <trkpt lat="45.1858" lon="5.98821">
        <ele>2598.8</ele>
        <time>2021-02-27T08:24:32Z</time>
      </trkpt>
      <trkpt lat="45.1858" lon="5.98821">
        <ele>2599</ele>
        <time>2021-02-27T08:24:33Z</time>
      </trkpt>
      <trkpt lat="45.18582" lon="5.98819">
        <ele>2599.2</ele>
        <time>2021-02-27T08:24:34Z</time>
      </trkpt>
      <trkpt lat="45.18582" lon="5.98819">
        <ele>2599.4</ele>
        <time>2021-02-27T08:24:35Z</time>
      </trkpt>
      <trkpt lat="45.18584" lon="5.98817">
        <ele>2599.6</ele>
        <time>2021-02-27T08:24:36Z</time>
      </trkpt>
      <trkpt lat="45.18584" lon="5.98817">
        <ele>2600.2</ele>
        <time>2021-02-27T08:24:37Z</time>
      </trkpt>
      <trkpt lat="45.18585" lon="5.98816">
        <ele>2600.2</ele>
        <time>2021-02-27T08:24:38Z</time>
      </trkpt>
      <trkpt lat="45.18585" lon="5.98816">
        <ele>2600.4</ele>
        <time>2021-02-27T08:24:39Z</time>
      </trkpt>
      <trkpt lat="45.18587" lon="5.98815">
        <ele>2600.8</ele>
        <time>2021-02-27T08:24:40Z</time>
      </trkpt>
      <trkpt lat="45.18587" lon="5.98815">
        <ele>2601</ele>
        <time>2021-02-27T08:24:41Z</time>
      </trkpt>
      <trkpt lat="45.18589" lon="5.98814">
        <ele>2601.2</ele>
        <time>2021-02-27T08:24:42Z</time>
      </trkpt>
      <trkpt lat="45.18589" lon="5.98814">
        <ele>2601.6</ele>
        <time>2021-02-27T08:24:43Z</time>
      </trkpt>
      <trkpt lat="45.1859" lon="5.98812">
        <ele>2601.6</ele>
        <time>2021-02-27T08:24:44Z</time>
      </trkpt>
      <trkpt lat="45.1859" lon="5.98812">
        <ele>2602</ele>
        <time>2021-02-27T08:24:45Z</time>
      </trkpt>
      <trkpt lat="45.1859" lon="5.98812">
        <ele>2602.2</ele>
        <time>2021-02-27T08:24:46Z</time>
      </trkpt>
      <trkpt lat="45.18593" lon="5.9881">
        <ele>2602</ele>
        <time>2021-02-27T08:24:47Z</time>
      </trkpt>
      <trkpt lat="45.18593" lon="5.9881">
        <ele>2602.2</ele>
        <time>2021-02-27T08:24:48Z</time>
      </trkpt>
      <trkpt lat="45.18595" lon="5.98809">
        <ele>2602.4</ele>
        <time>2021-02-27T08:24:49Z</time>
      </trkpt>
      <trkpt lat="45.18595" lon="5.98809">
        <ele>2602.6</ele>
        <time>2021-02-27T08:24:50Z</time>
      </trkpt>
      <trkpt lat="45.18597" lon="5.98806">
        <ele>2602.6</ele>
        <time>2021-02-27T08:24:51Z</time>
      </trkpt>
      <trkpt lat="45.18597" lon="5.98806">
        <ele>2603</ele>
        <time>2021-02-27T08:24:52Z</time>
      </trkpt>
      <trkpt lat="45.18598" lon="5.98804">
        <ele>2603.2</ele>
        <time>2021-02-27T08:24:53Z</time>
      </trkpt>
      <trkpt lat="45.18598" lon="5.98804">
        <ele>2603.4</ele>
        <time>2021-02-27T08:24:54Z</time>
      </trkpt>
      <trkpt lat="45.186" lon="5.98802">
        <ele>2603.8</ele>
        <time>2021-02-27T08:24:55Z</time>
      </trkpt>
      <trkpt lat="45.186" lon="5.98802">
        <ele>2604.4</ele>
        <time>2021-02-27T08:24:56Z</time>
      </trkpt>
      <trkpt lat="45.18601" lon="5.988">
        <ele>2604.2</ele>
        <time>2021-02-27T08:24:57Z</time>
      </trkpt>
      <trkpt lat="45.18601" lon="5.988">
        <ele>2604.6</ele>
        <time>2021-02-27T08:24:58Z</time>
      </trkpt>
      <trkpt lat="45.18603" lon="5.98798">
        <ele>2605</ele>
        <time>2021-02-27T08:24:59Z</time>
      </trkpt>
      <trkpt lat="45.18603" lon="5.98798">
        <ele>2605.2</ele>
        <time>2021-02-27T08:25:00Z</time>
      </trkpt>
      <trkpt lat="45.18604" lon="5.98797">
        <ele>2605.8</ele>
        <time>2021-02-27T08:25:01Z</time>
      </trkpt>
      <trkpt lat="45.18604" lon="5.98797">
        <ele>2606.2</ele>
        <time>2021-02-27T08:25:02Z</time>
      </trkpt>
      <trkpt lat="45.18604" lon="5.98797">
        <ele>2606.2</ele>
        <time>2021-02-27T08:25:03Z</time>
      </trkpt>
      <trkpt lat="45.18606" lon="5.98795">
        <ele>2606.8</ele>
        <time>2021-02-27T08:25:04Z</time>
      </trkpt>
      <trkpt lat="45.18606" lon="5.98795">
        <ele>2606.8</ele>
        <time>2021-02-27T08:25:05Z</time>
      </trkpt>
      <trkpt lat="45.18608" lon="5.98794">
        <ele>2607</ele>
        <time>2021-02-27T08:25:06Z</time>
      </trkpt>
      <trkpt lat="45.18608" lon="5.98794">
        <ele>2606.8</ele>
        <time>2021-02-27T08:25:07Z</time>
      </trkpt>
      <trkpt lat="45.1861" lon="5.98791">
        <ele>2607</ele>
        <time>2021-02-27T08:25:08Z</time>
      </trkpt>
      <trkpt lat="45.1861" lon="5.98791">
        <ele>2607.2</ele>
        <time>2021-02-27T08:25:09Z</time>
      </trkpt>
      <trkpt lat="45.1861" lon="5.98791">
        <ele>2607.4</ele>
        <time>2021-02-27T08:25:10Z</time>
      </trkpt>
      <trkpt lat="45.18612" lon="5.98789">
        <ele>2607.6</ele>
        <time>2021-02-27T08:25:11Z</time>
      </trkpt>
      <trkpt lat="45.18612" lon="5.98789">
        <ele>2607.8</ele>
        <time>2021-02-27T08:25:12Z</time>
      </trkpt>
      <trkpt lat="45.18612" lon="5.98789">
        <ele>2607.6</ele>
        <time>2021-02-27T08:25:13Z</time>
      </trkpt>
      <trkpt lat="45.18613" lon="5.98787">
        <ele>2607.8</ele>
        <time>2021-02-27T08:25:14Z</time>
      </trkpt>
      <trkpt lat="45.18613" lon="5.98787">
        <ele>2608.2</ele>
        <time>2021-02-27T08:25:15Z</time>
      </trkpt>
      <trkpt lat="45.18613" lon="5.98787">
        <ele>2608.6</ele>
        <time>2021-02-27T08:25:16Z</time>
      </trkpt>
      <trkpt lat="45.18615" lon="5.98785">
        <ele>2608.6</ele>
        <time>2021-02-27T08:25:17Z</time>
      </trkpt>
      <trkpt lat="45.18615" lon="5.98785">
        <ele>2608.8</ele>
        <time>2021-02-27T08:25:18Z</time>
      </trkpt>
      <trkpt lat="45.18615" lon="5.98785">
        <ele>2609.4</ele>
        <time>2021-02-27T08:25:19Z</time>
      </trkpt>
      <trkpt lat="45.18616" lon="5.98783">
        <ele>2609.4</ele>
        <time>2021-02-27T08:25:20Z</time>
      </trkpt>
      <trkpt lat="45.18616" lon="5.98783">
        <ele>2609.6</ele>
        <time>2021-02-27T08:25:21Z</time>
      </trkpt>
      <trkpt lat="45.18617" lon="5.9878">
        <ele>2609.8</ele>
        <time>2021-02-27T08:25:22Z</time>
      </trkpt>
      <trkpt lat="45.18617" lon="5.9878">
        <ele>2609.8</ele>
        <time>2021-02-27T08:25:23Z</time>
      </trkpt>
      <trkpt lat="45.18618" lon="5.98776">
        <ele>2609.8</ele>
        <time>2021-02-27T08:25:24Z</time>
      </trkpt>
      <trkpt lat="45.18618" lon="5.98776">
        <ele>2609.8</ele>
        <time>2021-02-27T08:25:25Z</time>
      </trkpt>
      <trkpt lat="45.18618" lon="5.98773">
        <ele>2609.8</ele>
        <time>2021-02-27T08:25:26Z</time>
      </trkpt>
      <trkpt lat="45.18618" lon="5.98773">
        <ele>2609.6</ele>
        <time>2021-02-27T08:25:27Z</time>
      </trkpt>
      <trkpt lat="45.18619" lon="5.9877">
        <ele>2609.8</ele>
        <time>2021-02-27T08:25:28Z</time>
      </trkpt>
      <trkpt lat="45.18619" lon="5.9877">
        <ele>2610</ele>
        <time>2021-02-27T08:25:29Z</time>
      </trkpt>
      <trkpt lat="45.18619" lon="5.9877">
        <ele>2610</ele>
        <time>2021-02-27T08:25:30Z</time>
      </trkpt>
      <trkpt lat="45.1862" lon="5.98767">
        <ele>2610.4</ele>
        <time>2021-02-27T08:25:31Z</time>
      </trkpt>
      <trkpt lat="45.1862" lon="5.98767">
        <ele>2611</ele>
        <time>2021-02-27T08:25:32Z</time>
      </trkpt>
      <trkpt lat="45.18621" lon="5.98763">
        <ele>2611</ele>
        <time>2021-02-27T08:25:33Z</time>
      </trkpt>
      <trkpt lat="45.18621" lon="5.98763">
        <ele>2610.8</ele>
        <time>2021-02-27T08:25:34Z</time>
      </trkpt>
      <trkpt lat="45.18622" lon="5.98759">
        <ele>2611.4</ele>
        <time>2021-02-27T08:25:35Z</time>
      </trkpt>
      <trkpt lat="45.18622" lon="5.98759">
        <ele>2611.2</ele>
        <time>2021-02-27T08:25:36Z</time>
      </trkpt>
      <trkpt lat="45.18622" lon="5.98756">
        <ele>2611.2</ele>
        <time>2021-02-27T08:25:37Z</time>
      </trkpt>
      <trkpt lat="45.18622" lon="5.98756">
        <ele>2611.8</ele>
        <time>2021-02-27T08:25:38Z</time>
      </trkpt>
      <trkpt lat="45.18623" lon="5.98752">
        <ele>2611.6</ele>
        <time>2021-02-27T08:25:39Z</time>
      </trkpt>
      <trkpt lat="45.18623" lon="5.98752">
        <ele>2611.4</ele>
        <time>2021-02-27T08:25:40Z</time>
      </trkpt>
      <trkpt lat="45.18624" lon="5.98749">
        <ele>2611.6</ele>
        <time>2021-02-27T08:25:41Z</time>
      </trkpt>
      <trkpt lat="45.18624" lon="5.98749">
        <ele>2611.4</ele>
        <time>2021-02-27T08:25:42Z</time>
      </trkpt>
      <trkpt lat="45.18625" lon="5.98745">
        <ele>2612</ele>
        <time>2021-02-27T08:25:43Z</time>
      </trkpt>
      <trkpt lat="45.18625" lon="5.98745">
        <ele>2612</ele>
        <time>2021-02-27T08:25:44Z</time>
      </trkpt>
      <trkpt lat="45.18625" lon="5.98742">
        <ele>2611.8</ele>
        <time>2021-02-27T08:25:45Z</time>
      </trkpt>
      <trkpt lat="45.18625" lon="5.98742">
        <ele>2612.2</ele>
        <time>2021-02-27T08:25:46Z</time>
      </trkpt>
      <trkpt lat="45.18625" lon="5.98739">
        <ele>2612.2</ele>
        <time>2021-02-27T08:25:47Z</time>
      </trkpt>
      <trkpt lat="45.18625" lon="5.98739">
        <ele>2612.4</ele>
        <time>2021-02-27T08:25:48Z</time>
      </trkpt>
      <trkpt lat="45.18625" lon="5.98739">
        <ele>2612.6</ele>
        <time>2021-02-27T08:25:49Z</time>
      </trkpt>
      <trkpt lat="45.18625" lon="5.98739">
        <ele>2613</ele>
        <time>2021-02-27T08:25:50Z</time>
      </trkpt>
      <trkpt lat="45.18625" lon="5.98739">
        <ele>2613</ele>
        <time>2021-02-27T08:25:51Z</time>
      </trkpt>
      <trkpt lat="45.18625" lon="5.98739">
        <ele>2613</ele>
        <time>2021-02-27T08:25:52Z</time>
      </trkpt>
      <trkpt lat="45.18625" lon="5.98739">
        <ele>2613.4</ele>
        <time>2021-02-27T08:25:53Z</time>
      </trkpt>
      <trkpt lat="45.18625" lon="5.98739">
        <ele>2613.8</ele>
        <time>2021-02-27T08:25:54Z</time>
      </trkpt>
      <trkpt lat="45.18625" lon="5.98739">
        <ele>2614.2</ele>
        <time>2021-02-27T08:25:55Z</time>
      </trkpt>
      <trkpt lat="45.18625" lon="5.98739">
        <ele>2614</ele>
        <time>2021-02-27T08:25:56Z</time>
      </trkpt>
      <trkpt lat="45.18625" lon="5.98739">
        <ele>2613.8</ele>
        <time>2021-02-27T08:25:57Z</time>
      </trkpt>
      <trkpt lat="45.18625" lon="5.98739">
        <ele>2613.6</ele>
        <time>2021-02-27T08:25:58Z</time>
      </trkpt>
      <trkpt lat="45.18627" lon="5.98743">
        <ele>2614</ele>
        <time>2021-02-27T08:25:59Z</time>
      </trkpt>
      <trkpt lat="45.18627" lon="5.98743">
        <ele>2613.8</ele>
        <time>2021-02-27T08:26:00Z</time>
      </trkpt>
      <trkpt lat="45.18627" lon="5.98743">
        <ele>2613.8</ele>
        <time>2021-02-27T08:26:01Z</time>
      </trkpt>
      <trkpt lat="45.18627" lon="5.98746">
        <ele>2614.2</ele>
        <time>2021-02-27T08:26:02Z</time>
      </trkpt>
      <trkpt lat="45.18627" lon="5.98746">
        <ele>2614.4</ele>
        <time>2021-02-27T08:26:03Z</time>
      </trkpt>
      <trkpt lat="45.18627" lon="5.98746">
        <ele>2614.6</ele>
        <time>2021-02-27T08:26:04Z</time>
      </trkpt>
      <trkpt lat="45.18628" lon="5.98749">
        <ele>2615.2</ele>
        <time>2021-02-27T08:26:05Z</time>
      </trkpt>
      <trkpt lat="45.18628" lon="5.98749">
        <ele>2615.4</ele>
        <time>2021-02-27T08:26:06Z</time>
      </trkpt>
      <trkpt lat="45.18628" lon="5.98749">
        <ele>2615.6</ele>
        <time>2021-02-27T08:26:07Z</time>
      </trkpt>
      <trkpt lat="45.18628" lon="5.98749">
        <ele>2616</ele>
        <time>2021-02-27T08:26:08Z</time>
      </trkpt>
      <trkpt lat="45.18628" lon="5.98749">
        <ele>2616.4</ele>
        <time>2021-02-27T08:26:09Z</time>
      </trkpt>
      <trkpt lat="45.18628" lon="5.98749">
        <ele>2616.4</ele>
        <time>2021-02-27T08:26:10Z</time>
      </trkpt>
      <trkpt lat="45.18628" lon="5.98749">
        <ele>2616.4</ele>
        <time>2021-02-27T08:26:11Z</time>
      </trkpt>
      <trkpt lat="45.18628" lon="5.98749">
        <ele>2616.6</ele>
        <time>2021-02-27T08:26:12Z</time>
      </trkpt>
      <trkpt lat="45.18629" lon="5.98746">
        <ele>2616.6</ele>
        <time>2021-02-27T08:26:13Z</time>
      </trkpt>
      <trkpt lat="45.18629" lon="5.98746">
        <ele>2616.8</ele>
        <time>2021-02-27T08:26:14Z</time>
      </trkpt>
      <trkpt lat="45.18629" lon="5.98746">
        <ele>2616.8</ele>
        <time>2021-02-27T08:26:15Z</time>
      </trkpt>
      <trkpt lat="45.18631" lon="5.98743">
        <ele>2617.2</ele>
        <time>2021-02-27T08:26:16Z</time>
      </trkpt>
      <trkpt lat="45.18631" lon="5.98743">
        <ele>2617.2</ele>
        <time>2021-02-27T08:26:17Z</time>
      </trkpt>
      <trkpt lat="45.18631" lon="5.9874">
        <ele>2617.2</ele>
        <time>2021-02-27T08:26:18Z</time>
      </trkpt>
      <trkpt lat="45.18631" lon="5.9874">
        <ele>2617.2</ele>
        <time>2021-02-27T08:26:19Z</time>
      </trkpt>
      <trkpt lat="45.18631" lon="5.9874">
        <ele>2617.4</ele>
        <time>2021-02-27T08:26:20Z</time>
      </trkpt>
      <trkpt lat="45.18631" lon="5.98736">
        <ele>2617.4</ele>
        <time>2021-02-27T08:26:21Z</time>
      </trkpt>
      <trkpt lat="45.18631" lon="5.98736">
        <ele>2617.8</ele>
        <time>2021-02-27T08:26:22Z</time>
      </trkpt>
      <trkpt lat="45.18631" lon="5.98736">
        <ele>2618.4</ele>
        <time>2021-02-27T08:26:23Z</time>
      </trkpt>
      <trkpt lat="45.18632" lon="5.98732">
        <ele>2618.4</ele>
        <time>2021-02-27T08:26:24Z</time>
      </trkpt>
      <trkpt lat="45.18632" lon="5.98732">
        <ele>2618.8</ele>
        <time>2021-02-27T08:26:25Z</time>
      </trkpt>
      <trkpt lat="45.18631" lon="5.98729">
        <ele>2619</ele>
        <time>2021-02-27T08:26:26Z</time>
      </trkpt>
      <trkpt lat="45.18631" lon="5.98729">
        <ele>2618.8</ele>
        <time>2021-02-27T08:26:27Z</time>
      </trkpt>
      <trkpt lat="45.1863" lon="5.98725">
        <ele>2618.8</ele>
        <time>2021-02-27T08:26:28Z</time>
      </trkpt>
      <trkpt lat="45.1863" lon="5.98725">
        <ele>2618.8</ele>
        <time>2021-02-27T08:26:29Z</time>
      </trkpt>
      <trkpt lat="45.1863" lon="5.98722">
        <ele>2618.8</ele>
        <time>2021-02-27T08:26:30Z</time>
      </trkpt>
      <trkpt lat="45.1863" lon="5.98722">
        <ele>2618.6</ele>
        <time>2021-02-27T08:26:31Z</time>
      </trkpt>
      <trkpt lat="45.1863" lon="5.98718">
        <ele>2618.6</ele>
        <time>2021-02-27T08:26:32Z</time>
      </trkpt>
      <trkpt lat="45.1863" lon="5.98718">
        <ele>2619</ele>
        <time>2021-02-27T08:26:33Z</time>
      </trkpt>
      <trkpt lat="45.18631" lon="5.98715">
        <ele>2619.2</ele>
        <time>2021-02-27T08:26:34Z</time>
      </trkpt>
      <trkpt lat="45.18631" lon="5.98715">
        <ele>2619.4</ele>
        <time>2021-02-27T08:26:35Z</time>
      </trkpt>
      <trkpt lat="45.18632" lon="5.98713">
        <ele>2619.4</ele>
        <time>2021-02-27T08:26:36Z</time>
      </trkpt>
      <trkpt lat="45.18632" lon="5.98713">
        <ele>2619.4</ele>
        <time>2021-02-27T08:26:37Z</time>
      </trkpt>
      <trkpt lat="45.18632" lon="5.98713">
        <ele>2619.4</ele>
        <time>2021-02-27T08:26:38Z</time>
      </trkpt>
      <trkpt lat="45.18634" lon="5.98709">
        <ele>2619.4</ele>
        <time>2021-02-27T08:26:39Z</time>
      </trkpt>
      <trkpt lat="45.18634" lon="5.98709">
        <ele>2619.6</ele>
        <time>2021-02-27T08:26:40Z</time>
      </trkpt>
      <trkpt lat="45.18634" lon="5.98706">
        <ele>2619.6</ele>
        <time>2021-02-27T08:26:41Z</time>
      </trkpt>
      <trkpt lat="45.18634" lon="5.98706">
        <ele>2619.2</ele>
        <time>2021-02-27T08:26:42Z</time>
      </trkpt>
      <trkpt lat="45.18636" lon="5.98703">
        <ele>2619.4</ele>
        <time>2021-02-27T08:26:43Z</time>
      </trkpt>
      <trkpt lat="45.18636" lon="5.98703">
        <ele>2619.2</ele>
        <time>2021-02-27T08:26:44Z</time>
      </trkpt>
      <trkpt lat="45.18636" lon="5.987">
        <ele>2619.4</ele>
        <time>2021-02-27T08:26:45Z</time>
      </trkpt>
      <trkpt lat="45.18636" lon="5.987">
        <ele>2619.6</ele>
        <time>2021-02-27T08:26:46Z</time>
      </trkpt>
      <trkpt lat="45.18638" lon="5.98697">
        <ele>2619.6</ele>
        <time>2021-02-27T08:26:47Z</time>
      </trkpt>
      <trkpt lat="45.18638" lon="5.98697">
        <ele>2619.6</ele>
        <time>2021-02-27T08:26:48Z</time>
      </trkpt>
      <trkpt lat="45.18639" lon="5.98694">
        <ele>2619.6</ele>
        <time>2021-02-27T08:26:49Z</time>
      </trkpt>
      <trkpt lat="45.18639" lon="5.98694">
        <ele>2619.8</ele>
        <time>2021-02-27T08:26:50Z</time>
      </trkpt>
      <trkpt lat="45.1864" lon="5.98691">
        <ele>2619.8</ele>
        <time>2021-02-27T08:26:51Z</time>
      </trkpt>
      <trkpt lat="45.1864" lon="5.98691">
        <ele>2620</ele>
        <time>2021-02-27T08:26:52Z</time>
      </trkpt>
      <trkpt lat="45.18641" lon="5.98688">
        <ele>2620</ele>
        <time>2021-02-27T08:26:53Z</time>
      </trkpt>
      <trkpt lat="45.18641" lon="5.98688">
        <ele>2620.2</ele>
        <time>2021-02-27T08:26:54Z</time>
      </trkpt>
      <trkpt lat="45.18644" lon="5.98686">
        <ele>2620.2</ele>
        <time>2021-02-27T08:26:55Z</time>
      </trkpt>
      <trkpt lat="45.18644" lon="5.98686">
        <ele>2620.2</ele>
        <time>2021-02-27T08:26:56Z</time>
      </trkpt>
      <trkpt lat="45.18645" lon="5.98684">
        <ele>2620.4</ele>
        <time>2021-02-27T08:26:57Z</time>
      </trkpt>
      <trkpt lat="45.18645" lon="5.98684">
        <ele>2620.6</ele>
        <time>2021-02-27T08:26:58Z</time>
      </trkpt>
      <trkpt lat="45.18648" lon="5.98683">
        <ele>2621.2</ele>
        <time>2021-02-27T08:26:59Z</time>
      </trkpt>
      <trkpt lat="45.18648" lon="5.98683">
        <ele>2621.2</ele>
        <time>2021-02-27T08:27:00Z</time>
      </trkpt>
      <trkpt lat="45.18648" lon="5.98683">
        <ele>2621.2</ele>
        <time>2021-02-27T08:27:01Z</time>
      </trkpt>
      <trkpt lat="45.1865" lon="5.98682">
        <ele>2621.4</ele>
        <time>2021-02-27T08:27:02Z</time>
      </trkpt>
      <trkpt lat="45.1865" lon="5.98682">
        <ele>2621.4</ele>
        <time>2021-02-27T08:27:03Z</time>
      </trkpt>
      <trkpt lat="45.1865" lon="5.98682">
        <ele>2621.4</ele>
        <time>2021-02-27T08:27:04Z</time>
      </trkpt>
      <trkpt lat="45.18653" lon="5.9868">
        <ele>2621.4</ele>
        <time>2021-02-27T08:27:05Z</time>
      </trkpt>
      <trkpt lat="45.18653" lon="5.9868">
        <ele>2621.4</ele>
        <time>2021-02-27T08:27:06Z</time>
      </trkpt>
      <trkpt lat="45.18655" lon="5.98681">
        <ele>2621.4</ele>
        <time>2021-02-27T08:27:07Z</time>
      </trkpt>
      <trkpt lat="45.18655" lon="5.98681">
        <ele>2621.4</ele>
        <time>2021-02-27T08:27:08Z</time>
      </trkpt>
      <trkpt lat="45.18655" lon="5.98681">
        <ele>2621.4</ele>
        <time>2021-02-27T08:27:09Z</time>
      </trkpt>
      <trkpt lat="45.18657" lon="5.9868">
        <ele>2621</ele>
        <time>2021-02-27T08:27:10Z</time>
      </trkpt>
      <trkpt lat="45.18657" lon="5.9868">
        <ele>2621</ele>
        <time>2021-02-27T08:27:11Z</time>
      </trkpt>
      <trkpt lat="45.18657" lon="5.9868">
        <ele>2620.8</ele>
        <time>2021-02-27T08:27:12Z</time>
      </trkpt>
      <trkpt lat="45.18659" lon="5.9868">
        <ele>2620.8</ele>
        <time>2021-02-27T08:27:13Z</time>
      </trkpt>
      <trkpt lat="45.18661" lon="5.98681">
        <ele>2620.6</ele>
        <time>2021-02-27T08:27:14Z</time>
      </trkpt>
      <trkpt lat="45.18665" lon="5.98681">
        <ele>2620.4</ele>
        <time>2021-02-27T08:27:15Z</time>
      </trkpt>
      <trkpt lat="45.18669" lon="5.98681">
        <ele>2620.4</ele>
        <time>2021-02-27T08:27:16Z</time>
      </trkpt>
      <trkpt lat="45.18671" lon="5.98682">
        <ele>2619.8</ele>
        <time>2021-02-27T08:27:17Z</time>
      </trkpt>
      <trkpt lat="45.18671" lon="5.98682">
        <ele>2619.4</ele>
        <time>2021-02-27T08:27:18Z</time>
      </trkpt>
      <trkpt lat="45.18673" lon="5.98681">
        <ele>2619.2</ele>
        <time>2021-02-27T08:27:19Z</time>
      </trkpt>
      <trkpt lat="45.18673" lon="5.98681">
        <ele>2619.2</ele>
        <time>2021-02-27T08:27:20Z</time>
      </trkpt>
      <trkpt lat="45.18675" lon="5.98681">
        <ele>2619.4</ele>
        <time>2021-02-27T08:27:21Z</time>
      </trkpt>
      <trkpt lat="45.18675" lon="5.98681">
        <ele>2619</ele>
        <time>2021-02-27T08:27:22Z</time>
      </trkpt>
      <trkpt lat="45.18678" lon="5.98681">
        <ele>2619.2</ele>
        <time>2021-02-27T08:27:23Z</time>
      </trkpt>
      <trkpt lat="45.18678" lon="5.98681">
        <ele>2619.2</ele>
        <time>2021-02-27T08:27:24Z</time>
      </trkpt>
      <trkpt lat="45.1868" lon="5.98681">
        <ele>2619.2</ele>
        <time>2021-02-27T08:27:25Z</time>
      </trkpt>
      <trkpt lat="45.1868" lon="5.98681">
        <ele>2619.4</ele>
        <time>2021-02-27T08:27:26Z</time>
      </trkpt>
      <trkpt lat="45.18682" lon="5.98681">
        <ele>2619.6</ele>
        <time>2021-02-27T08:27:27Z</time>
      </trkpt>
      <trkpt lat="45.18682" lon="5.98681">
        <ele>2619.6</ele>
        <time>2021-02-27T08:27:28Z</time>
      </trkpt>
      <trkpt lat="45.18682" lon="5.98681">
        <ele>2619.8</ele>
        <time>2021-02-27T08:27:29Z</time>
      </trkpt>
      <trkpt lat="45.18685" lon="5.9868">
        <ele>2620</ele>
        <time>2021-02-27T08:27:30Z</time>
      </trkpt>
      <trkpt lat="45.18685" lon="5.9868">
        <ele>2620.4</ele>
        <time>2021-02-27T08:27:31Z</time>
      </trkpt>
      <trkpt lat="45.18685" lon="5.9868">
        <ele>2620.4</ele>
        <time>2021-02-27T08:27:32Z</time>
      </trkpt>
      <trkpt lat="45.18687" lon="5.98679">
        <ele>2620.4</ele>
        <time>2021-02-27T08:27:33Z</time>
      </trkpt>
      <trkpt lat="45.18687" lon="5.98679">
        <ele>2620.4</ele>
        <time>2021-02-27T08:27:34Z</time>
      </trkpt>
      <trkpt lat="45.18687" lon="5.98679">
        <ele>2620.4</ele>
        <time>2021-02-27T08:27:35Z</time>
      </trkpt>
      <trkpt lat="45.1869" lon="5.98678">
        <ele>2620.6</ele>
        <time>2021-02-27T08:27:36Z</time>
      </trkpt>
      <trkpt lat="45.1869" lon="5.98678">
        <ele>2620.6</ele>
        <time>2021-02-27T08:27:37Z</time>
      </trkpt>
      <trkpt lat="45.1869" lon="5.98678">
        <ele>2621</ele>
        <time>2021-02-27T08:27:38Z</time>
      </trkpt>
      <trkpt lat="45.18692" lon="5.98677">
        <ele>2621</ele>
        <time>2021-02-27T08:27:39Z</time>
      </trkpt>
      <trkpt lat="45.18692" lon="5.98677">
        <ele>2621</ele>
        <time>2021-02-27T08:27:40Z</time>
      </trkpt>
      <trkpt lat="45.18692" lon="5.98677">
        <ele>2621.2</ele>
        <time>2021-02-27T08:27:41Z</time>
      </trkpt>
      <trkpt lat="45.18692" lon="5.98677">
        <ele>2621.2</ele>
        <time>2021-02-27T08:27:42Z</time>
      </trkpt>
      <trkpt lat="45.18694" lon="5.98675">
        <ele>2621.4</ele>
        <time>2021-02-27T08:27:43Z</time>
      </trkpt>
      <trkpt lat="45.18694" lon="5.98675">
        <ele>2621.8</ele>
        <time>2021-02-27T08:27:44Z</time>
      </trkpt>
      <trkpt lat="45.18694" lon="5.98675">
        <ele>2622</ele>
        <time>2021-02-27T08:27:45Z</time>
      </trkpt>
      <trkpt lat="45.18694" lon="5.98675">
        <ele>2621.8</ele>
        <time>2021-02-27T08:27:46Z</time>
      </trkpt>
      <trkpt lat="45.18696" lon="5.98674">
        <ele>2621.6</ele>
        <time>2021-02-27T08:27:47Z</time>
      </trkpt>
      <trkpt lat="45.18696" lon="5.98674">
        <ele>2621.6</ele>
        <time>2021-02-27T08:27:48Z</time>
      </trkpt>
      <trkpt lat="45.18696" lon="5.98674">
        <ele>2621.4</ele>
        <time>2021-02-27T08:27:49Z</time>
      </trkpt>
      <trkpt lat="45.18699" lon="5.98672">
        <ele>2621.6</ele>
        <time>2021-02-27T08:27:50Z</time>
      </trkpt>
      <trkpt lat="45.18699" lon="5.98672">
        <ele>2621.8</ele>
        <time>2021-02-27T08:27:51Z</time>
      </trkpt>
      <trkpt lat="45.18699" lon="5.98672">
        <ele>2621.8</ele>
        <time>2021-02-27T08:27:52Z</time>
      </trkpt>
      <trkpt lat="45.18701" lon="5.98671">
        <ele>2621.8</ele>
        <time>2021-02-27T08:27:53Z</time>
      </trkpt>
      <trkpt lat="45.18701" lon="5.98671">
        <ele>2621.8</ele>
        <time>2021-02-27T08:27:54Z</time>
      </trkpt>
      <trkpt lat="45.18701" lon="5.98671">
        <ele>2622.6</ele>
        <time>2021-02-27T08:27:55Z</time>
      </trkpt>
      <trkpt lat="45.18702" lon="5.9867">
        <ele>2623</ele>
        <time>2021-02-27T08:27:56Z</time>
      </trkpt>
      <trkpt lat="45.18702" lon="5.9867">
        <ele>2623.2</ele>
        <time>2021-02-27T08:27:57Z</time>
      </trkpt>
      <trkpt lat="45.18704" lon="5.98668">
        <ele>2623</ele>
        <time>2021-02-27T08:27:58Z</time>
      </trkpt>
      <trkpt lat="45.18704" lon="5.98668">
        <ele>2623.2</ele>
        <time>2021-02-27T08:27:59Z</time>
      </trkpt>
      <trkpt lat="45.18705" lon="5.98666">
        <ele>2623.4</ele>
        <time>2021-02-27T08:28:00Z</time>
      </trkpt>
      <trkpt lat="45.18705" lon="5.98666">
        <ele>2623.4</ele>
        <time>2021-02-27T08:28:01Z</time>
      </trkpt>
      <trkpt lat="45.18707" lon="5.98665">
        <ele>2623.4</ele>
        <time>2021-02-27T08:28:02Z</time>
      </trkpt>
      <trkpt lat="45.18707" lon="5.98665">
        <ele>2623.8</ele>
        <time>2021-02-27T08:28:03Z</time>
      </trkpt>
      <trkpt lat="45.18709" lon="5.98664">
        <ele>2624</ele>
        <time>2021-02-27T08:28:04Z</time>
      </trkpt>
      <trkpt lat="45.18709" lon="5.98664">
        <ele>2624</ele>
        <time>2021-02-27T08:28:05Z</time>
      </trkpt>
      <trkpt lat="45.18709" lon="5.98664">
        <ele>2624</ele>
        <time>2021-02-27T08:28:06Z</time>
      </trkpt>
      <trkpt lat="45.18711" lon="5.98662">
        <ele>2624.4</ele>
        <time>2021-02-27T08:28:07Z</time>
      </trkpt>
      <trkpt lat="45.18711" lon="5.98662">
        <ele>2624.6</ele>
        <time>2021-02-27T08:28:08Z</time>
      </trkpt>
      <trkpt lat="45.18711" lon="5.98662">
        <ele>2625</ele>
        <time>2021-02-27T08:28:09Z</time>
      </trkpt>
      <trkpt lat="45.18714" lon="5.9866">
        <ele>2624.8</ele>
        <time>2021-02-27T08:28:10Z</time>
      </trkpt>
      <trkpt lat="45.18714" lon="5.9866">
        <ele>2624.8</ele>
        <time>2021-02-27T08:28:11Z</time>
      </trkpt>
      <trkpt lat="45.18715" lon="5.98659">
        <ele>2624.6</ele>
        <time>2021-02-27T08:28:12Z</time>
      </trkpt>
      <trkpt lat="45.18715" lon="5.98659">
        <ele>2624.8</ele>
        <time>2021-02-27T08:28:13Z</time>
      </trkpt>
      <trkpt lat="45.18715" lon="5.98659">
        <ele>2625</ele>
        <time>2021-02-27T08:28:14Z</time>
      </trkpt>
      <trkpt lat="45.18717" lon="5.98658">
        <ele>2625.6</ele>
        <time>2021-02-27T08:28:15Z</time>
      </trkpt>
      <trkpt lat="45.18717" lon="5.98658">
        <ele>2626</ele>
        <time>2021-02-27T08:28:16Z</time>
      </trkpt>
      <trkpt lat="45.18719" lon="5.98656">
        <ele>2626</ele>
        <time>2021-02-27T08:28:17Z</time>
      </trkpt>
      <trkpt lat="45.18719" lon="5.98656">
        <ele>2626.2</ele>
        <time>2021-02-27T08:28:18Z</time>
      </trkpt>
      <trkpt lat="45.18721" lon="5.98654">
        <ele>2626.8</ele>
        <time>2021-02-27T08:28:19Z</time>
      </trkpt>
      <trkpt lat="45.18721" lon="5.98654">
        <ele>2626.8</ele>
        <time>2021-02-27T08:28:20Z</time>
      </trkpt>
      <trkpt lat="45.18722" lon="5.98653">
        <ele>2627</ele>
        <time>2021-02-27T08:28:21Z</time>
      </trkpt>
      <trkpt lat="45.18722" lon="5.98653">
        <ele>2626.8</ele>
        <time>2021-02-27T08:28:22Z</time>
      </trkpt>
      <trkpt lat="45.18724" lon="5.98652">
        <ele>2627.2</ele>
        <time>2021-02-27T08:28:23Z</time>
      </trkpt>
      <trkpt lat="45.18724" lon="5.98652">
        <ele>2627</ele>
        <time>2021-02-27T08:28:24Z</time>
      </trkpt>
      <trkpt lat="45.18724" lon="5.98652">
        <ele>2627</ele>
        <time>2021-02-27T08:28:25Z</time>
      </trkpt>
      <trkpt lat="45.18726" lon="5.98649">
        <ele>2627.2</ele>
        <time>2021-02-27T08:28:26Z</time>
      </trkpt>
      <trkpt lat="45.18726" lon="5.98649">
        <ele>2627.4</ele>
        <time>2021-02-27T08:28:27Z</time>
      </trkpt>
      <trkpt lat="45.18726" lon="5.98649">
        <ele>2627.4</ele>
        <time>2021-02-27T08:28:28Z</time>
      </trkpt>
      <trkpt lat="45.18727" lon="5.98647">
        <ele>2627.4</ele>
        <time>2021-02-27T08:28:29Z</time>
      </trkpt>
      <trkpt lat="45.18727" lon="5.98647">
        <ele>2627.4</ele>
        <time>2021-02-27T08:28:30Z</time>
      </trkpt>
      <trkpt lat="45.18727" lon="5.98647">
        <ele>2627.4</ele>
        <time>2021-02-27T08:28:31Z</time>
      </trkpt>
      <trkpt lat="45.18729" lon="5.98646">
        <ele>2627.8</ele>
        <time>2021-02-27T08:28:32Z</time>
      </trkpt>
      <trkpt lat="45.18729" lon="5.98646">
        <ele>2628</ele>
        <time>2021-02-27T08:28:33Z</time>
      </trkpt>
      <trkpt lat="45.18729" lon="5.98646">
        <ele>2628.2</ele>
        <time>2021-02-27T08:28:34Z</time>
      </trkpt>
      <trkpt lat="45.18731" lon="5.98643">
        <ele>2628.4</ele>
        <time>2021-02-27T08:28:35Z</time>
      </trkpt>
      <trkpt lat="45.18731" lon="5.98643">
        <ele>2628.4</ele>
        <time>2021-02-27T08:28:36Z</time>
      </trkpt>
      <trkpt lat="45.18732" lon="5.98641">
        <ele>2628.2</ele>
        <time>2021-02-27T08:28:37Z</time>
      </trkpt>
      <trkpt lat="45.18732" lon="5.98641">
        <ele>2628.6</ele>
        <time>2021-02-27T08:28:38Z</time>
      </trkpt>
      <trkpt lat="45.18734" lon="5.98639">
        <ele>2628.2</ele>
        <time>2021-02-27T08:28:39Z</time>
      </trkpt>
      <trkpt lat="45.18734" lon="5.98639">
        <ele>2628.4</ele>
        <time>2021-02-27T08:28:40Z</time>
      </trkpt>
      <trkpt lat="45.18736" lon="5.98636">
        <ele>2628.6</ele>
        <time>2021-02-27T08:28:41Z</time>
      </trkpt>
      <trkpt lat="45.18736" lon="5.98636">
        <ele>2628.6</ele>
        <time>2021-02-27T08:28:42Z</time>
      </trkpt>
      <trkpt lat="45.18737" lon="5.98635">
        <ele>2628.8</ele>
        <time>2021-02-27T08:28:43Z</time>
      </trkpt>
      <trkpt lat="45.18737" lon="5.98635">
        <ele>2629</ele>
        <time>2021-02-27T08:28:44Z</time>
      </trkpt>
      <trkpt lat="45.18739" lon="5.98633">
        <ele>2629</ele>
        <time>2021-02-27T08:28:45Z</time>
      </trkpt>
      <trkpt lat="45.18739" lon="5.98633">
        <ele>2629</ele>
        <time>2021-02-27T08:28:46Z</time>
      </trkpt>
      <trkpt lat="45.18739" lon="5.98633">
        <ele>2629</ele>
        <time>2021-02-27T08:28:47Z</time>
      </trkpt>
      <trkpt lat="45.18741" lon="5.9863">
        <ele>2629.2</ele>
        <time>2021-02-27T08:28:48Z</time>
      </trkpt>
      <trkpt lat="45.18741" lon="5.9863">
        <ele>2629.4</ele>
        <time>2021-02-27T08:28:49Z</time>
      </trkpt>
      <trkpt lat="45.18741" lon="5.9863">
        <ele>2629.8</ele>
        <time>2021-02-27T08:28:50Z</time>
      </trkpt>
      <trkpt lat="45.18743" lon="5.98628">
        <ele>2629.8</ele>
        <time>2021-02-27T08:28:51Z</time>
      </trkpt>
      <trkpt lat="45.18743" lon="5.98628">
        <ele>2629.8</ele>
        <time>2021-02-27T08:28:52Z</time>
      </trkpt>
      <trkpt lat="45.18744" lon="5.98627">
        <ele>2629.6</ele>
        <time>2021-02-27T08:28:53Z</time>
      </trkpt>
      <trkpt lat="45.18744" lon="5.98627">
        <ele>2629.6</ele>
        <time>2021-02-27T08:28:54Z</time>
      </trkpt>
      <trkpt lat="45.18746" lon="5.98625">
        <ele>2629.6</ele>
        <time>2021-02-27T08:28:55Z</time>
      </trkpt>
      <trkpt lat="45.18746" lon="5.98625">
        <ele>2629.6</ele>
        <time>2021-02-27T08:28:56Z</time>
      </trkpt>
      <trkpt lat="45.18746" lon="5.98625">
        <ele>2630</ele>
        <time>2021-02-27T08:28:57Z</time>
      </trkpt>
      <trkpt lat="45.18746" lon="5.98625">
        <ele>2630.2</ele>
        <time>2021-02-27T08:28:58Z</time>
      </trkpt>
      <trkpt lat="45.18748" lon="5.98622">
        <ele>2630.6</ele>
        <time>2021-02-27T08:28:59Z</time>
      </trkpt>
      <trkpt lat="45.18748" lon="5.98622">
        <ele>2630.8</ele>
        <time>2021-02-27T08:29:00Z</time>
      </trkpt>
      <trkpt lat="45.1875" lon="5.9862">
        <ele>2630.6</ele>
        <time>2021-02-27T08:29:01Z</time>
      </trkpt>
      <trkpt lat="45.1875" lon="5.9862">
        <ele>2630.8</ele>
        <time>2021-02-27T08:29:02Z</time>
      </trkpt>
      <trkpt lat="45.18752" lon="5.98619">
        <ele>2631.4</ele>
        <time>2021-02-27T08:29:03Z</time>
      </trkpt>
      <trkpt lat="45.18752" lon="5.98619">
        <ele>2631.2</ele>
        <time>2021-02-27T08:29:04Z</time>
      </trkpt>
      <trkpt lat="45.18752" lon="5.98619">
        <ele>2631.6</ele>
        <time>2021-02-27T08:29:05Z</time>
      </trkpt>
      <trkpt lat="45.18753" lon="5.98616">
        <ele>2631.8</ele>
        <time>2021-02-27T08:29:06Z</time>
      </trkpt>
      <trkpt lat="45.18753" lon="5.98616">
        <ele>2632.2</ele>
        <time>2021-02-27T08:29:07Z</time>
      </trkpt>
      <trkpt lat="45.18753" lon="5.98616">
        <ele>2632.2</ele>
        <time>2021-02-27T08:29:08Z</time>
      </trkpt>
      <trkpt lat="45.18753" lon="5.98616">
        <ele>2632.2</ele>
        <time>2021-02-27T08:29:09Z</time>
      </trkpt>
      <trkpt lat="45.18755" lon="5.98614">
        <ele>2632.4</ele>
        <time>2021-02-27T08:29:10Z</time>
      </trkpt>
      <trkpt lat="45.18755" lon="5.98614">
        <ele>2632.6</ele>
        <time>2021-02-27T08:29:11Z</time>
      </trkpt>
      <trkpt lat="45.18755" lon="5.98614">
        <ele>2632.8</ele>
        <time>2021-02-27T08:29:12Z</time>
      </trkpt>
      <trkpt lat="45.18757" lon="5.98613">
        <ele>2632.6</ele>
        <time>2021-02-27T08:29:13Z</time>
      </trkpt>
      <trkpt lat="45.18757" lon="5.98613">
        <ele>2632.8</ele>
        <time>2021-02-27T08:29:14Z</time>
      </trkpt>
      <trkpt lat="45.18757" lon="5.98613">
        <ele>2632.8</ele>
        <time>2021-02-27T08:29:15Z</time>
      </trkpt>
      <trkpt lat="45.18759" lon="5.98612">
        <ele>2632.6</ele>
        <time>2021-02-27T08:29:16Z</time>
      </trkpt>
      <trkpt lat="45.18759" lon="5.98612">
        <ele>2633</ele>
        <time>2021-02-27T08:29:17Z</time>
      </trkpt>
      <trkpt lat="45.18759" lon="5.98612">
        <ele>2633</ele>
        <time>2021-02-27T08:29:18Z</time>
      </trkpt>
      <trkpt lat="45.1876" lon="5.9861">
        <ele>2633</ele>
        <time>2021-02-27T08:29:19Z</time>
      </trkpt>
      <trkpt lat="45.1876" lon="5.9861">
        <ele>2633.2</ele>
        <time>2021-02-27T08:29:20Z</time>
      </trkpt>
      <trkpt lat="45.1876" lon="5.9861">
        <ele>2633.2</ele>
        <time>2021-02-27T08:29:21Z</time>
      </trkpt>
      <trkpt lat="45.18761" lon="5.98607">
        <ele>2633.6</ele>
        <time>2021-02-27T08:29:22Z</time>
      </trkpt>
      <trkpt lat="45.18761" lon="5.98607">
        <ele>2634</ele>
        <time>2021-02-27T08:29:23Z</time>
      </trkpt>
      <trkpt lat="45.18761" lon="5.98607">
        <ele>2634</ele>
        <time>2021-02-27T08:29:24Z</time>
      </trkpt>
      <trkpt lat="45.18763" lon="5.98604">
        <ele>2634</ele>
        <time>2021-02-27T08:29:25Z</time>
      </trkpt>
      <trkpt lat="45.18763" lon="5.98604">
        <ele>2634</ele>
        <time>2021-02-27T08:29:26Z</time>
      </trkpt>
      <trkpt lat="45.18764" lon="5.98602">
        <ele>2634</ele>
        <time>2021-02-27T08:29:27Z</time>
      </trkpt>
      <trkpt lat="45.18764" lon="5.98602">
        <ele>2634.4</ele>
        <time>2021-02-27T08:29:28Z</time>
      </trkpt>
      <trkpt lat="45.18764" lon="5.98602">
        <ele>2634.6</ele>
        <time>2021-02-27T08:29:29Z</time>
      </trkpt>
      <trkpt lat="45.18766" lon="5.986">
        <ele>2634.8</ele>
        <time>2021-02-27T08:29:30Z</time>
      </trkpt>
      <trkpt lat="45.18766" lon="5.986">
        <ele>2634.8</ele>
        <time>2021-02-27T08:29:31Z</time>
      </trkpt>
      <trkpt lat="45.18766" lon="5.986">
        <ele>2635</ele>
        <time>2021-02-27T08:29:32Z</time>
      </trkpt>
      <trkpt lat="45.18768" lon="5.98598">
        <ele>2635.2</ele>
        <time>2021-02-27T08:29:33Z</time>
      </trkpt>
      <trkpt lat="45.18768" lon="5.98598">
        <ele>2635</ele>
        <time>2021-02-27T08:29:34Z</time>
      </trkpt>
      <trkpt lat="45.18768" lon="5.98598">
        <ele>2634.6</ele>
        <time>2021-02-27T08:29:35Z</time>
      </trkpt>
      <trkpt lat="45.1877" lon="5.98595">
        <ele>2635</ele>
        <time>2021-02-27T08:29:36Z</time>
      </trkpt>
      <trkpt lat="45.1877" lon="5.98595">
        <ele>2635</ele>
        <time>2021-02-27T08:29:37Z</time>
      </trkpt>
      <trkpt lat="45.18772" lon="5.98593">
        <ele>2634.8</ele>
        <time>2021-02-27T08:29:38Z</time>
      </trkpt>
      <trkpt lat="45.18772" lon="5.98593">
        <ele>2635</ele>
        <time>2021-02-27T08:29:39Z</time>
      </trkpt>
      <trkpt lat="45.18773" lon="5.98591">
        <ele>2635</ele>
        <time>2021-02-27T08:29:40Z</time>
      </trkpt>
      <trkpt lat="45.18773" lon="5.98591">
        <ele>2635.4</ele>
        <time>2021-02-27T08:29:41Z</time>
      </trkpt>
      <trkpt lat="45.18775" lon="5.9859">
        <ele>2635.2</ele>
        <time>2021-02-27T08:29:42Z</time>
      </trkpt>
      <trkpt lat="45.18775" lon="5.9859">
        <ele>2635.4</ele>
        <time>2021-02-27T08:29:43Z</time>
      </trkpt>
      <trkpt lat="45.18776" lon="5.98588">
        <ele>2635.4</ele>
        <time>2021-02-27T08:29:44Z</time>
      </trkpt>
      <trkpt lat="45.18776" lon="5.98588">
        <ele>2635.6</ele>
        <time>2021-02-27T08:29:45Z</time>
      </trkpt>
      <trkpt lat="45.18778" lon="5.98586">
        <ele>2635.6</ele>
        <time>2021-02-27T08:29:46Z</time>
      </trkpt>
      <trkpt lat="45.18778" lon="5.98586">
        <ele>2635.8</ele>
        <time>2021-02-27T08:29:47Z</time>
      </trkpt>
      <trkpt lat="45.1878" lon="5.98584">
        <ele>2636.2</ele>
        <time>2021-02-27T08:29:48Z</time>
      </trkpt>
      <trkpt lat="45.1878" lon="5.98584">
        <ele>2636.2</ele>
        <time>2021-02-27T08:29:49Z</time>
      </trkpt>
      <trkpt lat="45.18781" lon="5.98582">
        <ele>2636.2</ele>
        <time>2021-02-27T08:29:50Z</time>
      </trkpt>
      <trkpt lat="45.18781" lon="5.98582">
        <ele>2636.2</ele>
        <time>2021-02-27T08:29:51Z</time>
      </trkpt>
      <trkpt lat="45.18783" lon="5.9858">
        <ele>2636.6</ele>
        <time>2021-02-27T08:29:52Z</time>
      </trkpt>
      <trkpt lat="45.18783" lon="5.9858">
        <ele>2636.8</ele>
        <time>2021-02-27T08:29:53Z</time>
      </trkpt>
      <trkpt lat="45.18784" lon="5.98578">
        <ele>2636.8</ele>
        <time>2021-02-27T08:29:54Z</time>
      </trkpt>
      <trkpt lat="45.18784" lon="5.98578">
        <ele>2637.2</ele>
        <time>2021-02-27T08:29:55Z</time>
      </trkpt>
      <trkpt lat="45.18784" lon="5.98578">
        <ele>2637.4</ele>
        <time>2021-02-27T08:29:56Z</time>
      </trkpt>
      <trkpt lat="45.18785" lon="5.98575">
        <ele>2637</ele>
        <time>2021-02-27T08:29:57Z</time>
      </trkpt>
      <trkpt lat="45.18785" lon="5.98575">
        <ele>2637.6</ele>
        <time>2021-02-27T08:29:58Z</time>
      </trkpt>
      <trkpt lat="45.18787" lon="5.98572">
        <ele>2637.8</ele>
        <time>2021-02-27T08:29:59Z</time>
      </trkpt>
      <trkpt lat="45.18787" lon="5.98572">
        <ele>2638.2</ele>
        <time>2021-02-27T08:30:00Z</time>
      </trkpt>
      <trkpt lat="45.18787" lon="5.9857">
        <ele>2638.4</ele>
        <time>2021-02-27T08:30:01Z</time>
      </trkpt>
      <trkpt lat="45.18787" lon="5.9857">
        <ele>2638.8</ele>
        <time>2021-02-27T08:30:02Z</time>
      </trkpt>
      <trkpt lat="45.18787" lon="5.9857">
        <ele>2639</ele>
        <time>2021-02-27T08:30:03Z</time>
      </trkpt>
      <trkpt lat="45.18787" lon="5.9857">
        <ele>2639</ele>
        <time>2021-02-27T08:30:04Z</time>
      </trkpt>
      <trkpt lat="45.18787" lon="5.9857">
        <ele>2639.2</ele>
        <time>2021-02-27T08:30:05Z</time>
      </trkpt>
      <trkpt lat="45.18789" lon="5.98567">
        <ele>2639.4</ele>
        <time>2021-02-27T08:30:06Z</time>
      </trkpt>
      <trkpt lat="45.18789" lon="5.98567">
        <ele>2639.4</ele>
        <time>2021-02-27T08:30:07Z</time>
      </trkpt>
      <trkpt lat="45.18789" lon="5.98567">
        <ele>2639.6</ele>
        <time>2021-02-27T08:30:08Z</time>
      </trkpt>
      <trkpt lat="45.18791" lon="5.98564">
        <ele>2639.8</ele>
        <time>2021-02-27T08:30:09Z</time>
      </trkpt>
      <trkpt lat="45.18791" lon="5.98564">
        <ele>2639.4</ele>
        <time>2021-02-27T08:30:10Z</time>
      </trkpt>
      <trkpt lat="45.18792" lon="5.98562">
        <ele>2639.8</ele>
        <time>2021-02-27T08:30:11Z</time>
      </trkpt>
      <trkpt lat="45.18792" lon="5.98562">
        <ele>2640</ele>
        <time>2021-02-27T08:30:12Z</time>
      </trkpt>
      <trkpt lat="45.18793" lon="5.98559">
        <ele>2640</ele>
        <time>2021-02-27T08:30:13Z</time>
      </trkpt>
      <trkpt lat="45.18793" lon="5.98559">
        <ele>2640.4</ele>
        <time>2021-02-27T08:30:14Z</time>
      </trkpt>
      <trkpt lat="45.18794" lon="5.98556">
        <ele>2640.6</ele>
        <time>2021-02-27T08:30:15Z</time>
      </trkpt>
      <trkpt lat="45.18794" lon="5.98556">
        <ele>2640.6</ele>
        <time>2021-02-27T08:30:16Z</time>
      </trkpt>
      <trkpt lat="45.18795" lon="5.98554">
        <ele>2640.6</ele>
        <time>2021-02-27T08:30:17Z</time>
      </trkpt>
      <trkpt lat="45.18795" lon="5.98554">
        <ele>2640.8</ele>
        <time>2021-02-27T08:30:18Z</time>
      </trkpt>
      <trkpt lat="45.18795" lon="5.98554">
        <ele>2641.2</ele>
        <time>2021-02-27T08:30:19Z</time>
      </trkpt>
      <trkpt lat="45.18796" lon="5.98551">
        <ele>2641.2</ele>
        <time>2021-02-27T08:30:20Z</time>
      </trkpt>
      <trkpt lat="45.18796" lon="5.98551">
        <ele>2641.2</ele>
        <time>2021-02-27T08:30:21Z</time>
      </trkpt>
      <trkpt lat="45.18796" lon="5.98551">
        <ele>2641.4</ele>
        <time>2021-02-27T08:30:22Z</time>
      </trkpt>
      <trkpt lat="45.18797" lon="5.98547">
        <ele>2641.4</ele>
        <time>2021-02-27T08:30:23Z</time>
      </trkpt>
      <trkpt lat="45.18797" lon="5.98547">
        <ele>2641.6</ele>
        <time>2021-02-27T08:30:24Z</time>
      </trkpt>
      <trkpt lat="45.18799" lon="5.98545">
        <ele>2641.6</ele>
        <time>2021-02-27T08:30:25Z</time>
      </trkpt>
      <trkpt lat="45.18799" lon="5.98545">
        <ele>2641.8</ele>
        <time>2021-02-27T08:30:26Z</time>
      </trkpt>
      <trkpt lat="45.188" lon="5.98542">
        <ele>2641.8</ele>
        <time>2021-02-27T08:30:27Z</time>
      </trkpt>
      <trkpt lat="45.188" lon="5.98542">
        <ele>2642</ele>
        <time>2021-02-27T08:30:28Z</time>
      </trkpt>
      <trkpt lat="45.18801" lon="5.98539">
        <ele>2642</ele>
        <time>2021-02-27T08:30:29Z</time>
      </trkpt>
      <trkpt lat="45.18801" lon="5.98539">
        <ele>2642.2</ele>
        <time>2021-02-27T08:30:30Z</time>
      </trkpt>
      <trkpt lat="45.18802" lon="5.98536">
        <ele>2642.4</ele>
        <time>2021-02-27T08:30:31Z</time>
      </trkpt>
      <trkpt lat="45.18802" lon="5.98536">
        <ele>2642.6</ele>
        <time>2021-02-27T08:30:32Z</time>
      </trkpt>
      <trkpt lat="45.18803" lon="5.98533">
        <ele>2642.6</ele>
        <time>2021-02-27T08:30:33Z</time>
      </trkpt>
      <trkpt lat="45.18803" lon="5.98533">
        <ele>2642.8</ele>
        <time>2021-02-27T08:30:34Z</time>
      </trkpt>
      <trkpt lat="45.18804" lon="5.98531">
        <ele>2642.8</ele>
        <time>2021-02-27T08:30:35Z</time>
      </trkpt>
      <trkpt lat="45.18804" lon="5.98531">
        <ele>2643.4</ele>
        <time>2021-02-27T08:30:36Z</time>
      </trkpt>
      <trkpt lat="45.18804" lon="5.98531">
        <ele>2643.6</ele>
        <time>2021-02-27T08:30:37Z</time>
      </trkpt>
      <trkpt lat="45.18805" lon="5.98528">
        <ele>2643.6</ele>
        <time>2021-02-27T08:30:38Z</time>
      </trkpt>
      <trkpt lat="45.18805" lon="5.98528">
        <ele>2643.8</ele>
        <time>2021-02-27T08:30:39Z</time>
      </trkpt>
      <trkpt lat="45.18807" lon="5.98525">
        <ele>2644</ele>
        <time>2021-02-27T08:30:40Z</time>
      </trkpt>
      <trkpt lat="45.18807" lon="5.98525">
        <ele>2644.2</ele>
        <time>2021-02-27T08:30:41Z</time>
      </trkpt>
      <trkpt lat="45.18808" lon="5.98522">
        <ele>2644.2</ele>
        <time>2021-02-27T08:30:42Z</time>
      </trkpt>
      <trkpt lat="45.18808" lon="5.98522">
        <ele>2644</ele>
        <time>2021-02-27T08:30:43Z</time>
      </trkpt>
      <trkpt lat="45.1881" lon="5.98519">
        <ele>2644.2</ele>
        <time>2021-02-27T08:30:44Z</time>
      </trkpt>
      <trkpt lat="45.1881" lon="5.98519">
        <ele>2644.4</ele>
        <time>2021-02-27T08:30:45Z</time>
      </trkpt>
      <trkpt lat="45.18812" lon="5.98518">
        <ele>2644.6</ele>
        <time>2021-02-27T08:30:46Z</time>
      </trkpt>
      <trkpt lat="45.18812" lon="5.98518">
        <ele>2644.8</ele>
        <time>2021-02-27T08:30:47Z</time>
      </trkpt>
      <trkpt lat="45.18812" lon="5.98518">
        <ele>2644.8</ele>
        <time>2021-02-27T08:30:48Z</time>
      </trkpt>
      <trkpt lat="45.18815" lon="5.98519">
        <ele>2645</ele>
        <time>2021-02-27T08:30:49Z</time>
      </trkpt>
      <trkpt lat="45.18815" lon="5.98519">
        <ele>2645.4</ele>
        <time>2021-02-27T08:30:50Z</time>
      </trkpt>
      <trkpt lat="45.18815" lon="5.98519">
        <ele>2645.4</ele>
        <time>2021-02-27T08:30:51Z</time>
      </trkpt>
      <trkpt lat="45.18815" lon="5.98519">
        <ele>2645.4</ele>
        <time>2021-02-27T08:30:52Z</time>
      </trkpt>
      <trkpt lat="45.18815" lon="5.98519">
        <ele>2645.2</ele>
        <time>2021-02-27T08:30:53Z</time>
      </trkpt>
      <trkpt lat="45.18815" lon="5.98519">
        <ele>2645.4</ele>
        <time>2021-02-27T08:30:54Z</time>
      </trkpt>
      <trkpt lat="45.18815" lon="5.98519">
        <ele>2645.6</ele>
        <time>2021-02-27T08:30:55Z</time>
      </trkpt>
      <trkpt lat="45.18815" lon="5.98519">
        <ele>2645.4</ele>
        <time>2021-02-27T08:30:56Z</time>
      </trkpt>
      <trkpt lat="45.18815" lon="5.98519">
        <ele>2645.4</ele>
        <time>2021-02-27T08:30:57Z</time>
      </trkpt>
      <trkpt lat="45.18815" lon="5.98519">
        <ele>2645.6</ele>
        <time>2021-02-27T08:30:58Z</time>
      </trkpt>
      <trkpt lat="45.18815" lon="5.98519">
        <ele>2645.4</ele>
        <time>2021-02-27T08:30:59Z</time>
      </trkpt>
      <trkpt lat="45.18815" lon="5.98519">
        <ele>2645.6</ele>
        <time>2021-02-27T08:31:00Z</time>
      </trkpt>
      <trkpt lat="45.18815" lon="5.98519">
        <ele>2645.6</ele>
        <time>2021-02-27T08:31:01Z</time>
      </trkpt>
      <trkpt lat="45.18815" lon="5.98519">
        <ele>2645.8</ele>
        <time>2021-02-27T08:31:02Z</time>
      </trkpt>
      <trkpt lat="45.18815" lon="5.98519">
        <ele>2646</ele>
        <time>2021-02-27T08:31:03Z</time>
      </trkpt>
      <trkpt lat="45.18815" lon="5.98519">
        <ele>2645.8</ele>
        <time>2021-02-27T08:31:04Z</time>
      </trkpt>
      <trkpt lat="45.18815" lon="5.98519">
        <ele>2645.6</ele>
        <time>2021-02-27T08:31:05Z</time>
      </trkpt>
      <trkpt lat="45.18815" lon="5.98519">
        <ele>2645.6</ele>
        <time>2021-02-27T08:31:06Z</time>
      </trkpt>
      <trkpt lat="45.18815" lon="5.98519">
        <ele>2645.6</ele>
        <time>2021-02-27T08:31:07Z</time>
      </trkpt>
      <trkpt lat="45.18815" lon="5.98519">
        <ele>2645.6</ele>
        <time>2021-02-27T08:31:08Z</time>
      </trkpt>
      <trkpt lat="45.18815" lon="5.98519">
        <ele>2645.6</ele>
        <time>2021-02-27T08:31:09Z</time>
      </trkpt>
      <trkpt lat="45.18815" lon="5.98519">
        <ele>2645.4</ele>
        <time>2021-02-27T08:31:10Z</time>
      </trkpt>
      <trkpt lat="45.18816" lon="5.98518">
        <ele>2645.2</ele>
        <time>2021-02-27T08:31:11Z</time>
      </trkpt>
      <trkpt lat="45.18816" lon="5.98518">
        <ele>2645.2</ele>
        <time>2021-02-27T08:31:12Z</time>
      </trkpt>
      <trkpt lat="45.18816" lon="5.98518">
        <ele>2645.2</ele>
        <time>2021-02-27T08:31:13Z</time>
      </trkpt>
      <trkpt lat="45.18816" lon="5.98518">
        <ele>2645.2</ele>
        <time>2021-02-27T08:31:14Z</time>
      </trkpt>
      <trkpt lat="45.18816" lon="5.98518">
        <ele>2645</ele>
        <time>2021-02-27T08:31:15Z</time>
      </trkpt>
      <trkpt lat="45.18816" lon="5.98518">
        <ele>2645.2</ele>
        <time>2021-02-27T08:31:16Z</time>
      </trkpt>
      <trkpt lat="45.18816" lon="5.98518">
        <ele>2645.4</ele>
        <time>2021-02-27T08:31:17Z</time>
      </trkpt>
      <trkpt lat="45.18816" lon="5.98518">
        <ele>2645.6</ele>
        <time>2021-02-27T08:31:18Z</time>
      </trkpt>
      <trkpt lat="45.18816" lon="5.98518">
        <ele>2645.4</ele>
        <time>2021-02-27T08:31:19Z</time>
      </trkpt>
      <trkpt lat="45.18816" lon="5.98518">
        <ele>2645.6</ele>
        <time>2021-02-27T08:31:20Z</time>
      </trkpt>
      <trkpt lat="45.18816" lon="5.98518">
        <ele>2645.6</ele>
        <time>2021-02-27T08:31:21Z</time>
      </trkpt>
      <trkpt lat="45.18816" lon="5.98518">
        <ele>2645.4</ele>
        <time>2021-02-27T08:31:22Z</time>
      </trkpt>
      <trkpt lat="45.18816" lon="5.98518">
        <ele>2645.4</ele>
        <time>2021-02-27T08:31:23Z</time>
      </trkpt>
      <trkpt lat="45.18816" lon="5.98518">
        <ele>2645.6</ele>
        <time>2021-02-27T08:31:24Z</time>
      </trkpt>
      <trkpt lat="45.18816" lon="5.98518">
        <ele>2646</ele>
        <time>2021-02-27T08:31:25Z</time>
      </trkpt>
      <trkpt lat="45.18816" lon="5.98518">
        <ele>2646</ele>
        <time>2021-02-27T08:31:26Z</time>
      </trkpt>
      <trkpt lat="45.18816" lon="5.98518">
        <ele>2645.8</ele>
        <time>2021-02-27T08:31:27Z</time>
      </trkpt>
      <trkpt lat="45.18816" lon="5.98518">
        <ele>2645.8</ele>
        <time>2021-02-27T08:31:28Z</time>
      </trkpt>
      <trkpt lat="45.18816" lon="5.98518">
        <ele>2645.6</ele>
        <time>2021-02-27T08:31:29Z</time>
      </trkpt>
      <trkpt lat="45.18816" lon="5.98518">
        <ele>2645.6</ele>
        <time>2021-02-27T08:31:30Z</time>
      </trkpt>
      <trkpt lat="45.18816" lon="5.98518">
        <ele>2645.6</ele>
        <time>2021-02-27T08:31:31Z</time>
      </trkpt>
      <trkpt lat="45.18816" lon="5.98518">
        <ele>2645.6</ele>
        <time>2021-02-27T08:31:32Z</time>
      </trkpt>
      <trkpt lat="45.18816" lon="5.98518">
        <ele>2645.6</ele>
        <time>2021-02-27T08:31:33Z</time>
      </trkpt>
      <trkpt lat="45.18816" lon="5.98518">
        <ele>2645.6</ele>
        <time>2021-02-27T08:31:34Z</time>
      </trkpt>
      <trkpt lat="45.18816" lon="5.98518">
        <ele>2645.8</ele>
        <time>2021-02-27T08:31:35Z</time>
      </trkpt>
      <trkpt lat="45.18816" lon="5.98518">
        <ele>2646</ele>
        <time>2021-02-27T08:31:36Z</time>
      </trkpt>
      <trkpt lat="45.18816" lon="5.98518">
        <ele>2645.6</ele>
        <time>2021-02-27T08:31:37Z</time>
      </trkpt>
      <trkpt lat="45.18816" lon="5.98518">
        <ele>2645.8</ele>
        <time>2021-02-27T08:31:38Z</time>
      </trkpt>
      <trkpt lat="45.18816" lon="5.98518">
        <ele>2645.8</ele>
        <time>2021-02-27T08:31:39Z</time>
      </trkpt>
      <trkpt lat="45.18816" lon="5.98518">
        <ele>2645.6</ele>
        <time>2021-02-27T08:31:40Z</time>
      </trkpt>
      <trkpt lat="45.18816" lon="5.98518">
        <ele>2645.8</ele>
        <time>2021-02-27T08:31:41Z</time>
      </trkpt>
      <trkpt lat="45.18816" lon="5.98518">
        <ele>2646</ele>
        <time>2021-02-27T08:31:42Z</time>
      </trkpt>
      <trkpt lat="45.18816" lon="5.98518">
        <ele>2646.4</ele>
        <time>2021-02-27T08:31:43Z</time>
      </trkpt>
      <trkpt lat="45.18816" lon="5.98518">
        <ele>2646.6</ele>
        <time>2021-02-27T08:31:44Z</time>
      </trkpt>
      <trkpt lat="45.18816" lon="5.98518">
        <ele>2646.6</ele>
        <time>2021-02-27T08:31:45Z</time>
      </trkpt>
      <trkpt lat="45.18816" lon="5.98518">
        <ele>2646.8</ele>
        <time>2021-02-27T08:31:46Z</time>
      </trkpt>
      <trkpt lat="45.18816" lon="5.98518">
        <ele>2646.8</ele>
        <time>2021-02-27T08:31:47Z</time>
      </trkpt>
      <trkpt lat="45.18816" lon="5.98518">
        <ele>2646.8</ele>
        <time>2021-02-27T08:31:48Z</time>
      </trkpt>
      <trkpt lat="45.18816" lon="5.98518">
        <ele>2646.6</ele>
        <time>2021-02-27T08:31:49Z</time>
      </trkpt>
      <trkpt lat="45.18816" lon="5.98518">
        <ele>2646.6</ele>
        <time>2021-02-27T08:31:50Z</time>
      </trkpt>
      <trkpt lat="45.18816" lon="5.98518">
        <ele>2646.6</ele>
        <time>2021-02-27T08:31:51Z</time>
      </trkpt>
      <trkpt lat="45.18816" lon="5.98518">
        <ele>2646.6</ele>
        <time>2021-02-27T08:31:52Z</time>
      </trkpt>
      <trkpt lat="45.18816" lon="5.98518">
        <ele>2646.6</ele>
        <time>2021-02-27T08:31:53Z</time>
      </trkpt>
      <trkpt lat="45.18816" lon="5.98518">
        <ele>2646.4</ele>
        <time>2021-02-27T08:31:54Z</time>
      </trkpt>
      <trkpt lat="45.18816" lon="5.98518">
        <ele>2646.4</ele>
        <time>2021-02-27T08:31:55Z</time>
      </trkpt>
      <trkpt lat="45.18816" lon="5.98518">
        <ele>2646.2</ele>
        <time>2021-02-27T08:31:56Z</time>
      </trkpt>
      <trkpt lat="45.18816" lon="5.98518">
        <ele>2646.4</ele>
        <time>2021-02-27T08:31:57Z</time>
      </trkpt>
      <trkpt lat="45.18816" lon="5.98518">
        <ele>2646.4</ele>
        <time>2021-02-27T08:31:58Z</time>
      </trkpt>
      <trkpt lat="45.18816" lon="5.98518">
        <ele>2646.8</ele>
        <time>2021-02-27T08:31:59Z</time>
      </trkpt>
      <trkpt lat="45.18816" lon="5.98518">
        <ele>2646.8</ele>
        <time>2021-02-27T08:32:00Z</time>
      </trkpt>
      <trkpt lat="45.18816" lon="5.98518">
        <ele>2647</ele>
        <time>2021-02-27T08:32:01Z</time>
      </trkpt>
      <trkpt lat="45.18816" lon="5.98518">
        <ele>2647.4</ele>
        <time>2021-02-27T08:32:02Z</time>
      </trkpt>
      <trkpt lat="45.18816" lon="5.98518">
        <ele>2647.6</ele>
        <time>2021-02-27T08:32:03Z</time>
      </trkpt>
      <trkpt lat="45.18815" lon="5.98515">
        <ele>2648.2</ele>
        <time>2021-02-27T08:32:04Z</time>
      </trkpt>
      <trkpt lat="45.18815" lon="5.98515">
        <ele>2648.2</ele>
        <time>2021-02-27T08:32:05Z</time>
      </trkpt>
      <trkpt lat="45.18814" lon="5.98512">
        <ele>2648.4</ele>
        <time>2021-02-27T08:32:06Z</time>
      </trkpt>
      <trkpt lat="45.18814" lon="5.98512">
        <ele>2648.4</ele>
        <time>2021-02-27T08:32:07Z</time>
      </trkpt>
      <trkpt lat="45.18813" lon="5.98509">
        <ele>2648.2</ele>
        <time>2021-02-27T08:32:08Z</time>
      </trkpt>
      <trkpt lat="45.18813" lon="5.98509">
        <ele>2648</ele>
        <time>2021-02-27T08:32:09Z</time>
      </trkpt>
      <trkpt lat="45.18812" lon="5.98505">
        <ele>2648.4</ele>
        <time>2021-02-27T08:32:10Z</time>
      </trkpt>
      <trkpt lat="45.18812" lon="5.98505">
        <ele>2648.4</ele>
        <time>2021-02-27T08:32:11Z</time>
      </trkpt>
      <trkpt lat="45.18811" lon="5.98502">
        <ele>2648.2</ele>
        <time>2021-02-27T08:32:12Z</time>
      </trkpt>
      <trkpt lat="45.18811" lon="5.98502">
        <ele>2648.4</ele>
        <time>2021-02-27T08:32:13Z</time>
      </trkpt>
      <trkpt lat="45.18811" lon="5.98502">
        <ele>2648.4</ele>
        <time>2021-02-27T08:32:14Z</time>
      </trkpt>
      <trkpt lat="45.18811" lon="5.98502">
        <ele>2648.4</ele>
        <time>2021-02-27T08:32:15Z</time>
      </trkpt>
      <trkpt lat="45.18811" lon="5.98502">
        <ele>2648.4</ele>
        <time>2021-02-27T08:32:16Z</time>
      </trkpt>
      <trkpt lat="45.18811" lon="5.98502">
        <ele>2648.6</ele>
        <time>2021-02-27T08:32:17Z</time>
      </trkpt>
      <trkpt lat="45.18811" lon="5.98502">
        <ele>2648.6</ele>
        <time>2021-02-27T08:32:18Z</time>
      </trkpt>
      <trkpt lat="45.18811" lon="5.98502">
        <ele>2648.6</ele>
        <time>2021-02-27T08:32:19Z</time>
      </trkpt>
      <trkpt lat="45.18811" lon="5.98502">
        <ele>2648.8</ele>
        <time>2021-02-27T08:32:20Z</time>
      </trkpt>
      <trkpt lat="45.18811" lon="5.98502">
        <ele>2648.6</ele>
        <time>2021-02-27T08:32:21Z</time>
      </trkpt>
      <trkpt lat="45.18813" lon="5.98505">
        <ele>2648.8</ele>
        <time>2021-02-27T08:32:22Z</time>
      </trkpt>
      <trkpt lat="45.18813" lon="5.98505">
        <ele>2649</ele>
        <time>2021-02-27T08:32:23Z</time>
      </trkpt>
      <trkpt lat="45.18813" lon="5.98505">
        <ele>2649</ele>
        <time>2021-02-27T08:32:24Z</time>
      </trkpt>
      <trkpt lat="45.18814" lon="5.9851">
        <ele>2649.2</ele>
        <time>2021-02-27T08:32:25Z</time>
      </trkpt>
      <trkpt lat="45.18814" lon="5.9851">
        <ele>2649</ele>
        <time>2021-02-27T08:32:26Z</time>
      </trkpt>
      <trkpt lat="45.18814" lon="5.9851">
        <ele>2649</ele>
        <time>2021-02-27T08:32:27Z</time>
      </trkpt>
      <trkpt lat="45.18814" lon="5.9851">
        <ele>2649.2</ele>
        <time>2021-02-27T08:32:28Z</time>
      </trkpt>
      <trkpt lat="45.18815" lon="5.98513">
        <ele>2649.4</ele>
        <time>2021-02-27T08:32:29Z</time>
      </trkpt>
      <trkpt lat="45.18815" lon="5.98513">
        <ele>2649.4</ele>
        <time>2021-02-27T08:32:30Z</time>
      </trkpt>
      <trkpt lat="45.18815" lon="5.98513">
        <ele>2649.6</ele>
        <time>2021-02-27T08:32:31Z</time>
      </trkpt>
      <trkpt lat="45.18815" lon="5.98513">
        <ele>2649.6</ele>
        <time>2021-02-27T08:32:32Z</time>
      </trkpt>
      <trkpt lat="45.18815" lon="5.98513">
        <ele>2649.6</ele>
        <time>2021-02-27T08:32:33Z</time>
      </trkpt>
      <trkpt lat="45.18815" lon="5.98513">
        <ele>2649.6</ele>
        <time>2021-02-27T08:32:34Z</time>
      </trkpt>
      <trkpt lat="45.18815" lon="5.98513">
        <ele>2649.8</ele>
        <time>2021-02-27T08:32:35Z</time>
      </trkpt>
      <trkpt lat="45.18815" lon="5.98513">
        <ele>2649.8</ele>
        <time>2021-02-27T08:32:36Z</time>
      </trkpt>
      <trkpt lat="45.18815" lon="5.98513">
        <ele>2649.6</ele>
        <time>2021-02-27T08:32:37Z</time>
      </trkpt>
      <trkpt lat="45.18815" lon="5.98513">
        <ele>2649.6</ele>
        <time>2021-02-27T08:32:38Z</time>
      </trkpt>
      <trkpt lat="45.18815" lon="5.98513">
        <ele>2649.4</ele>
        <time>2021-02-27T08:32:39Z</time>
      </trkpt>
      <trkpt lat="45.18815" lon="5.98513">
        <ele>2649.6</ele>
        <time>2021-02-27T08:32:40Z</time>
      </trkpt>
      <trkpt lat="45.18815" lon="5.98513">
        <ele>2649.4</ele>
        <time>2021-02-27T08:32:41Z</time>
      </trkpt>
      <trkpt lat="45.18815" lon="5.98513">
        <ele>2649.4</ele>
        <time>2021-02-27T08:32:42Z</time>
      </trkpt>
      <trkpt lat="45.18815" lon="5.98513">
        <ele>2649.4</ele>
        <time>2021-02-27T08:32:43Z</time>
      </trkpt>
      <trkpt lat="45.18815" lon="5.98513">
        <ele>2649.4</ele>
        <time>2021-02-27T08:32:44Z</time>
      </trkpt>
      <trkpt lat="45.18815" lon="5.98513">
        <ele>2649.6</ele>
        <time>2021-02-27T08:32:45Z</time>
      </trkpt>
      <trkpt lat="45.18815" lon="5.98513">
        <ele>2649.8</ele>
        <time>2021-02-27T08:32:46Z</time>
      </trkpt>
      <trkpt lat="45.18815" lon="5.98513">
        <ele>2650.2</ele>
        <time>2021-02-27T08:32:47Z</time>
      </trkpt>
      <trkpt lat="45.18815" lon="5.98513">
        <ele>2650.2</ele>
        <time>2021-02-27T08:32:48Z</time>
      </trkpt>
      <trkpt lat="45.18815" lon="5.98513">
        <ele>2650.2</ele>
        <time>2021-02-27T08:32:49Z</time>
      </trkpt>
      <trkpt lat="45.18815" lon="5.98513">
        <ele>2650.4</ele>
        <time>2021-02-27T08:32:50Z</time>
      </trkpt>
      <trkpt lat="45.18815" lon="5.98513">
        <ele>2650.6</ele>
        <time>2021-02-27T08:32:51Z</time>
      </trkpt>
      <trkpt lat="45.18815" lon="5.98513">
        <ele>2650.4</ele>
        <time>2021-02-27T08:32:52Z</time>
      </trkpt>
      <trkpt lat="45.18815" lon="5.98513">
        <ele>2650.6</ele>
        <time>2021-02-27T08:32:53Z</time>
      </trkpt>
      <trkpt lat="45.18815" lon="5.98513">
        <ele>2650.8</ele>
        <time>2021-02-27T08:32:54Z</time>
      </trkpt>
      <trkpt lat="45.18815" lon="5.98513">
        <ele>2651</ele>
        <time>2021-02-27T08:32:55Z</time>
      </trkpt>
      <trkpt lat="45.18815" lon="5.98513">
        <ele>2651</ele>
        <time>2021-02-27T08:32:56Z</time>
      </trkpt>
      <trkpt lat="45.18815" lon="5.98513">
        <ele>2650.8</ele>
        <time>2021-02-27T08:32:57Z</time>
      </trkpt>
      <trkpt lat="45.18815" lon="5.98513">
        <ele>2651</ele>
        <time>2021-02-27T08:32:58Z</time>
      </trkpt>
      <trkpt lat="45.18815" lon="5.98513">
        <ele>2651.2</ele>
        <time>2021-02-27T08:32:59Z</time>
      </trkpt>
      <trkpt lat="45.18815" lon="5.98513">
        <ele>2651.2</ele>
        <time>2021-02-27T08:33:00Z</time>
      </trkpt>
      <trkpt lat="45.18815" lon="5.98513">
        <ele>2651.4</ele>
        <time>2021-02-27T08:33:01Z</time>
      </trkpt>
      <trkpt lat="45.18815" lon="5.98513">
        <ele>2651.2</ele>
        <time>2021-02-27T08:33:02Z</time>
      </trkpt>
      <trkpt lat="45.18815" lon="5.98513">
        <ele>2651.2</ele>
        <time>2021-02-27T08:33:03Z</time>
      </trkpt>
      <trkpt lat="45.18815" lon="5.98513">
        <ele>2651.4</ele>
        <time>2021-02-27T08:33:04Z</time>
      </trkpt>
      <trkpt lat="45.18815" lon="5.98513">
        <ele>2651.6</ele>
        <time>2021-02-27T08:33:05Z</time>
      </trkpt>
      <trkpt lat="45.18815" lon="5.98513">
        <ele>2652.2</ele>
        <time>2021-02-27T08:33:06Z</time>
      </trkpt>
      <trkpt lat="45.18815" lon="5.98513">
        <ele>2652</ele>
        <time>2021-02-27T08:33:07Z</time>
      </trkpt>
      <trkpt lat="45.18815" lon="5.98513">
        <ele>2651.8</ele>
        <time>2021-02-27T08:33:08Z</time>
      </trkpt>
      <trkpt lat="45.18815" lon="5.98513">
        <ele>2651.6</ele>
        <time>2021-02-27T08:33:09Z</time>
      </trkpt>
      <trkpt lat="45.18815" lon="5.98513">
        <ele>2651.2</ele>
        <time>2021-02-27T08:33:10Z</time>
      </trkpt>
      <trkpt lat="45.18815" lon="5.98513">
        <ele>2651.2</ele>
        <time>2021-02-27T08:33:11Z</time>
      </trkpt>
      <trkpt lat="45.18815" lon="5.98513">
        <ele>2651.2</ele>
        <time>2021-02-27T08:33:12Z</time>
      </trkpt>
      <trkpt lat="45.18815" lon="5.98513">
        <ele>2651.2</ele>
        <time>2021-02-27T08:33:13Z</time>
      </trkpt>
      <trkpt lat="45.18815" lon="5.98513">
        <ele>2650.8</ele>
        <time>2021-02-27T08:33:14Z</time>
      </trkpt>
      <trkpt lat="45.18815" lon="5.98513">
        <ele>2651.2</ele>
        <time>2021-02-27T08:33:15Z</time>
      </trkpt>
      <trkpt lat="45.18815" lon="5.98513">
        <ele>2651.8</ele>
        <time>2021-02-27T08:33:16Z</time>
      </trkpt>
      <trkpt lat="45.18815" lon="5.98513">
        <ele>2651.8</ele>
        <time>2021-02-27T08:33:17Z</time>
      </trkpt>
      <trkpt lat="45.18815" lon="5.98513">
        <ele>2651.8</ele>
        <time>2021-02-27T08:33:18Z</time>
      </trkpt>
      <trkpt lat="45.18815" lon="5.98513">
        <ele>2652</ele>
        <time>2021-02-27T08:33:19Z</time>
      </trkpt>
      <trkpt lat="45.18815" lon="5.98513">
        <ele>2652.2</ele>
        <time>2021-02-27T08:33:20Z</time>
      </trkpt>
      <trkpt lat="45.18815" lon="5.98513">
        <ele>2652.4</ele>
        <time>2021-02-27T08:33:21Z</time>
      </trkpt>
      <trkpt lat="45.18815" lon="5.98513">
        <ele>2652.2</ele>
        <time>2021-02-27T08:33:22Z</time>
      </trkpt>
      <trkpt lat="45.18815" lon="5.98513">
        <ele>2652.4</ele>
        <time>2021-02-27T08:33:23Z</time>
      </trkpt>
      <trkpt lat="45.18815" lon="5.98513">
        <ele>2652.4</ele>
        <time>2021-02-27T08:33:24Z</time>
      </trkpt>
      <trkpt lat="45.18815" lon="5.98513">
        <ele>2652.8</ele>
        <time>2021-02-27T08:33:25Z</time>
      </trkpt>
      <trkpt lat="45.18815" lon="5.98513">
        <ele>2652.8</ele>
        <time>2021-02-27T08:33:26Z</time>
      </trkpt>
      <trkpt lat="45.18815" lon="5.98513">
        <ele>2652.6</ele>
        <time>2021-02-27T08:33:27Z</time>
      </trkpt>
      <trkpt lat="45.18815" lon="5.98513">
        <ele>2652.2</ele>
        <time>2021-02-27T08:33:28Z</time>
      </trkpt>
      <trkpt lat="45.18815" lon="5.98513">
        <ele>2652</ele>
        <time>2021-02-27T08:33:29Z</time>
      </trkpt>
      <trkpt lat="45.18815" lon="5.98513">
        <ele>2651.8</ele>
        <time>2021-02-27T08:33:30Z</time>
      </trkpt>
      <trkpt lat="45.18815" lon="5.98513">
        <ele>2651.6</ele>
        <time>2021-02-27T08:33:31Z</time>
      </trkpt>
      <trkpt lat="45.18815" lon="5.98513">
        <ele>2651.8</ele>
        <time>2021-02-27T08:33:32Z</time>
      </trkpt>
      <trkpt lat="45.18815" lon="5.98513">
        <ele>2652</ele>
        <time>2021-02-27T08:33:33Z</time>
      </trkpt>
      <trkpt lat="45.18815" lon="5.98513">
        <ele>2651.8</ele>
        <time>2021-02-27T08:33:34Z</time>
      </trkpt>
      <trkpt lat="45.18815" lon="5.98513">
        <ele>2651.6</ele>
        <time>2021-02-27T08:33:35Z</time>
      </trkpt>
      <trkpt lat="45.18815" lon="5.98513">
        <ele>2651.8</ele>
        <time>2021-02-27T08:33:36Z</time>
      </trkpt>
      <trkpt lat="45.18815" lon="5.98513">
        <ele>2652.2</ele>
        <time>2021-02-27T08:33:37Z</time>
      </trkpt>
      <trkpt lat="45.18815" lon="5.98513">
        <ele>2652.2</ele>
        <time>2021-02-27T08:33:38Z</time>
      </trkpt>
      <trkpt lat="45.18815" lon="5.98513">
        <ele>2652.6</ele>
        <time>2021-02-27T08:33:39Z</time>
      </trkpt>
      <trkpt lat="45.18815" lon="5.98513">
        <ele>2652.6</ele>
        <time>2021-02-27T08:33:40Z</time>
      </trkpt>
      <trkpt lat="45.18815" lon="5.98513">
        <ele>2652.8</ele>
        <time>2021-02-27T08:33:41Z</time>
      </trkpt>
      <trkpt lat="45.18815" lon="5.98513">
        <ele>2652.8</ele>
        <time>2021-02-27T08:33:42Z</time>
      </trkpt>
      <trkpt lat="45.18815" lon="5.98513">
        <ele>2652.4</ele>
        <time>2021-02-27T08:33:43Z</time>
      </trkpt>
      <trkpt lat="45.18815" lon="5.98513">
        <ele>2652.6</ele>
        <time>2021-02-27T08:33:44Z</time>
      </trkpt>
      <trkpt lat="45.18815" lon="5.98513">
        <ele>2652.4</ele>
        <time>2021-02-27T08:33:45Z</time>
      </trkpt>
      <trkpt lat="45.18815" lon="5.98513">
        <ele>2652.6</ele>
        <time>2021-02-27T08:33:46Z</time>
      </trkpt>
      <trkpt lat="45.18815" lon="5.98513">
        <ele>2652.8</ele>
        <time>2021-02-27T08:33:47Z</time>
      </trkpt>
      <trkpt lat="45.18815" lon="5.98513">
        <ele>2652.6</ele>
        <time>2021-02-27T08:33:48Z</time>
      </trkpt>
      <trkpt lat="45.18815" lon="5.98513">
        <ele>2652.4</ele>
        <time>2021-02-27T08:33:49Z</time>
      </trkpt>
      <trkpt lat="45.18815" lon="5.98513">
        <ele>2652</ele>
        <time>2021-02-27T08:33:50Z</time>
      </trkpt>
      <trkpt lat="45.18815" lon="5.98513">
        <ele>2651.8</ele>
        <time>2021-02-27T08:33:51Z</time>
      </trkpt>
      <trkpt lat="45.18815" lon="5.98513">
        <ele>2651.6</ele>
        <time>2021-02-27T08:33:52Z</time>
      </trkpt>
      <trkpt lat="45.18815" lon="5.98513">
        <ele>2651.6</ele>
        <time>2021-02-27T08:33:53Z</time>
      </trkpt>
      <trkpt lat="45.18815" lon="5.98513">
        <ele>2651.4</ele>
        <time>2021-02-27T08:33:54Z</time>
      </trkpt>
      <trkpt lat="45.18815" lon="5.98513">
        <ele>2651.4</ele>
        <time>2021-02-27T08:33:55Z</time>
      </trkpt>
      <trkpt lat="45.18815" lon="5.98513">
        <ele>2651.2</ele>
        <time>2021-02-27T08:33:56Z</time>
      </trkpt>
      <trkpt lat="45.18815" lon="5.98513">
        <ele>2651.2</ele>
        <time>2021-02-27T08:33:57Z</time>
      </trkpt>
      <trkpt lat="45.18815" lon="5.98513">
        <ele>2651.4</ele>
        <time>2021-02-27T08:33:58Z</time>
      </trkpt>
      <trkpt lat="45.18815" lon="5.98513">
        <ele>2651.6</ele>
        <time>2021-02-27T08:33:59Z</time>
      </trkpt>
      <trkpt lat="45.18815" lon="5.98513">
        <ele>2651.6</ele>
        <time>2021-02-27T08:34:00Z</time>
      </trkpt>
      <trkpt lat="45.18815" lon="5.98513">
        <ele>2651.8</ele>
        <time>2021-02-27T08:34:01Z</time>
      </trkpt>
      <trkpt lat="45.18815" lon="5.98513">
        <ele>2652</ele>
        <time>2021-02-27T08:34:02Z</time>
      </trkpt>
      <trkpt lat="45.18815" lon="5.98513">
        <ele>2652.2</ele>
        <time>2021-02-27T08:34:03Z</time>
      </trkpt>
      <trkpt lat="45.18815" lon="5.98513">
        <ele>2652.2</ele>
        <time>2021-02-27T08:34:04Z</time>
      </trkpt>
      <trkpt lat="45.18815" lon="5.98513">
        <ele>2652</ele>
        <time>2021-02-27T08:34:05Z</time>
      </trkpt>
      <trkpt lat="45.18815" lon="5.98513">
        <ele>2652</ele>
        <time>2021-02-27T08:34:06Z</time>
      </trkpt>
      <trkpt lat="45.18815" lon="5.98513">
        <ele>2652.2</ele>
        <time>2021-02-27T08:34:07Z</time>
      </trkpt>
      <trkpt lat="45.18815" lon="5.98513">
        <ele>2652.2</ele>
        <time>2021-02-27T08:34:08Z</time>
      </trkpt>
      <trkpt lat="45.18815" lon="5.98513">
        <ele>2652.4</ele>
        <time>2021-02-27T08:34:09Z</time>
      </trkpt>
      <trkpt lat="45.18815" lon="5.98513">
        <ele>2652.6</ele>
        <time>2021-02-27T08:34:10Z</time>
      </trkpt>
      <trkpt lat="45.18815" lon="5.98513">
        <ele>2652.8</ele>
        <time>2021-02-27T08:34:11Z</time>
      </trkpt>
      <trkpt lat="45.18815" lon="5.98513">
        <ele>2652.8</ele>
        <time>2021-02-27T08:34:12Z</time>
      </trkpt>
      <trkpt lat="45.18815" lon="5.98513">
        <ele>2652.8</ele>
        <time>2021-02-27T08:34:13Z</time>
      </trkpt>
      <trkpt lat="45.18815" lon="5.98513">
        <ele>2652.8</ele>
        <time>2021-02-27T08:34:14Z</time>
      </trkpt>
      <trkpt lat="45.18815" lon="5.98513">
        <ele>2652.6</ele>
        <time>2021-02-27T08:34:15Z</time>
      </trkpt>
      <trkpt lat="45.18815" lon="5.98513">
        <ele>2652.6</ele>
        <time>2021-02-27T08:34:16Z</time>
      </trkpt>
      <trkpt lat="45.18815" lon="5.98513">
        <ele>2652.4</ele>
        <time>2021-02-27T08:34:17Z</time>
      </trkpt>
      <trkpt lat="45.18815" lon="5.98513">
        <ele>2652.2</ele>
        <time>2021-02-27T08:34:18Z</time>
      </trkpt>
      <trkpt lat="45.18817" lon="5.98514">
        <ele>2652</ele>
        <time>2021-02-27T08:34:19Z</time>
      </trkpt>
      <trkpt lat="45.18819" lon="5.98515">
        <ele>2651.6</ele>
        <time>2021-02-27T08:34:20Z</time>
      </trkpt>
      <trkpt lat="45.18819" lon="5.98515">
        <ele>2650.4</ele>
        <time>2021-02-27T08:34:21Z</time>
      </trkpt>
      <trkpt lat="45.18823" lon="5.98515">
        <ele>2649.6</ele>
        <time>2021-02-27T08:34:22Z</time>
      </trkpt>
      <trkpt lat="45.18823" lon="5.98512">
        <ele>2649.6</ele>
        <time>2021-02-27T08:34:23Z</time>
      </trkpt>
      <trkpt lat="45.18823" lon="5.98508">
        <ele>2648.8</ele>
        <time>2021-02-27T08:34:24Z</time>
      </trkpt>
      <trkpt lat="45.18822" lon="5.98504">
        <ele>2648</ele>
        <time>2021-02-27T08:34:25Z</time>
      </trkpt>
      <trkpt lat="45.18822" lon="5.98499">
        <ele>2647</ele>
        <time>2021-02-27T08:34:26Z</time>
      </trkpt>
      <trkpt lat="45.18824" lon="5.98495">
        <ele>2646.2</ele>
        <time>2021-02-27T08:34:27Z</time>
      </trkpt>
      <trkpt lat="45.18826" lon="5.98495">
        <ele>2645.6</ele>
        <time>2021-02-27T08:34:28Z</time>
      </trkpt>
      <trkpt lat="45.18828" lon="5.98498">
        <ele>2644</ele>
        <time>2021-02-27T08:34:29Z</time>
      </trkpt>
      <trkpt lat="45.1883" lon="5.98501">
        <ele>2642.6</ele>
        <time>2021-02-27T08:34:30Z</time>
      </trkpt>
      <trkpt lat="45.18832" lon="5.98502">
        <ele>2641.2</ele>
        <time>2021-02-27T08:34:31Z</time>
      </trkpt>
      <trkpt lat="45.18836" lon="5.98502">
        <ele>2640</ele>
        <time>2021-02-27T08:34:32Z</time>
      </trkpt>
      <trkpt lat="45.18838" lon="5.985">
        <ele>2638.8</ele>
        <time>2021-02-27T08:34:33Z</time>
      </trkpt>
      <trkpt lat="45.18839" lon="5.98496">
        <ele>2638</ele>
        <time>2021-02-27T08:34:34Z</time>
      </trkpt>
      <trkpt lat="45.18839" lon="5.98493">
        <ele>2636</ele>
        <time>2021-02-27T08:34:35Z</time>
      </trkpt>
      <trkpt lat="45.18841" lon="5.9849">
        <ele>2634.6</ele>
        <time>2021-02-27T08:34:36Z</time>
      </trkpt>
      <trkpt lat="45.18843" lon="5.98491">
        <ele>2634</ele>
        <time>2021-02-27T08:34:37Z</time>
      </trkpt>
      <trkpt lat="45.18845" lon="5.98494">
        <ele>2632.6</ele>
        <time>2021-02-27T08:34:38Z</time>
      </trkpt>
      <trkpt lat="45.18845" lon="5.98494">
        <ele>2631.2</ele>
        <time>2021-02-27T08:34:39Z</time>
      </trkpt>
      <trkpt lat="45.18848" lon="5.98494">
        <ele>2630.2</ele>
        <time>2021-02-27T08:34:40Z</time>
      </trkpt>
      <trkpt lat="45.1885" lon="5.98491">
        <ele>2629.2</ele>
        <time>2021-02-27T08:34:41Z</time>
      </trkpt>
      <trkpt lat="45.18853" lon="5.98489">
        <ele>2628.2</ele>
        <time>2021-02-27T08:34:42Z</time>
      </trkpt>
      <trkpt lat="45.18856" lon="5.98491">
        <ele>2626.6</ele>
        <time>2021-02-27T08:34:43Z</time>
      </trkpt>
      <trkpt lat="45.18858" lon="5.98492">
        <ele>2624.6</ele>
        <time>2021-02-27T08:34:44Z</time>
      </trkpt>
      <trkpt lat="45.1886" lon="5.9849">
        <ele>2623.2</ele>
        <time>2021-02-27T08:34:45Z</time>
      </trkpt>
      <trkpt lat="45.1886" lon="5.98485">
        <ele>2622.4</ele>
        <time>2021-02-27T08:34:46Z</time>
      </trkpt>
      <trkpt lat="45.1886" lon="5.98479">
        <ele>2620.6</ele>
        <time>2021-02-27T08:34:47Z</time>
      </trkpt>
      <trkpt lat="45.18862" lon="5.98476">
        <ele>2618.8</ele>
        <time>2021-02-27T08:34:48Z</time>
      </trkpt>
      <trkpt lat="45.18865" lon="5.98478">
        <ele>2617</ele>
        <time>2021-02-27T08:34:49Z</time>
      </trkpt>
      <trkpt lat="45.18868" lon="5.98482">
        <ele>2615</ele>
        <time>2021-02-27T08:34:50Z</time>
      </trkpt>
      <trkpt lat="45.1887" lon="5.98485">
        <ele>2612.6</ele>
        <time>2021-02-27T08:34:51Z</time>
      </trkpt>
      <trkpt lat="45.18874" lon="5.98486">
        <ele>2610.8</ele>
        <time>2021-02-27T08:34:52Z</time>
      </trkpt>
      <trkpt lat="45.18877" lon="5.98481">
        <ele>2609.8</ele>
        <time>2021-02-27T08:34:53Z</time>
      </trkpt>
      <trkpt lat="45.18878" lon="5.98472">
        <ele>2608.6</ele>
        <time>2021-02-27T08:34:54Z</time>
      </trkpt>
      <trkpt lat="45.18877" lon="5.98465">
        <ele>2606</ele>
        <time>2021-02-27T08:34:55Z</time>
      </trkpt>
      <trkpt lat="45.18879" lon="5.98461">
        <ele>2603.8</ele>
        <time>2021-02-27T08:34:56Z</time>
      </trkpt>
      <trkpt lat="45.18882" lon="5.98461">
        <ele>2602.2</ele>
        <time>2021-02-27T08:34:57Z</time>
      </trkpt>
      <trkpt lat="45.18885" lon="5.98463">
        <ele>2600.4</ele>
        <time>2021-02-27T08:34:58Z</time>
      </trkpt>
      <trkpt lat="45.18888" lon="5.98466">
        <ele>2598.4</ele>
        <time>2021-02-27T08:34:59Z</time>
      </trkpt>
      <trkpt lat="45.18889" lon="5.98467">
        <ele>2596.4</ele>
        <time>2021-02-27T08:35:00Z</time>
      </trkpt>
      <trkpt lat="45.18892" lon="5.98466">
        <ele>2594.6</ele>
        <time>2021-02-27T08:35:01Z</time>
      </trkpt>
      <trkpt lat="45.18894" lon="5.98464">
        <ele>2593.2</ele>
        <time>2021-02-27T08:35:02Z</time>
      </trkpt>
      <trkpt lat="45.18897" lon="5.98462">
        <ele>2591.6</ele>
        <time>2021-02-27T08:35:03Z</time>
      </trkpt>
      <trkpt lat="45.189" lon="5.98464">
        <ele>2590</ele>
        <time>2021-02-27T08:35:04Z</time>
      </trkpt>
      <trkpt lat="45.18902" lon="5.98466">
        <ele>2588</ele>
        <time>2021-02-27T08:35:05Z</time>
      </trkpt>
      <trkpt lat="45.18904" lon="5.98468">
        <ele>2586.2</ele>
        <time>2021-02-27T08:35:06Z</time>
      </trkpt>
      <trkpt lat="45.18906" lon="5.9847">
        <ele>2584.4</ele>
        <time>2021-02-27T08:35:07Z</time>
      </trkpt>
      <trkpt lat="45.18906" lon="5.9847">
        <ele>2583</ele>
        <time>2021-02-27T08:35:08Z</time>
      </trkpt>
      <trkpt lat="45.18909" lon="5.98467">
        <ele>2581.6</ele>
        <time>2021-02-27T08:35:09Z</time>
      </trkpt>
      <trkpt lat="45.1891" lon="5.98463">
        <ele>2580</ele>
        <time>2021-02-27T08:35:10Z</time>
      </trkpt>
      <trkpt lat="45.18912" lon="5.9846">
        <ele>2578.4</ele>
        <time>2021-02-27T08:35:11Z</time>
      </trkpt>
      <trkpt lat="45.18915" lon="5.98463">
        <ele>2576.8</ele>
        <time>2021-02-27T08:35:12Z</time>
      </trkpt>
      <trkpt lat="45.18915" lon="5.98463">
        <ele>2574.8</ele>
        <time>2021-02-27T08:35:13Z</time>
      </trkpt>
      <trkpt lat="45.18917" lon="5.98463">
        <ele>2573</ele>
        <time>2021-02-27T08:35:14Z</time>
      </trkpt>
      <trkpt lat="45.18919" lon="5.98464">
        <ele>2571.2</ele>
        <time>2021-02-27T08:35:15Z</time>
      </trkpt>
      <trkpt lat="45.18921" lon="5.98464">
        <ele>2570.2</ele>
        <time>2021-02-27T08:35:16Z</time>
      </trkpt>
      <trkpt lat="45.18922" lon="5.9846">
        <ele>2569</ele>
        <time>2021-02-27T08:35:17Z</time>
      </trkpt>
      <trkpt lat="45.18923" lon="5.98456">
        <ele>2567.4</ele>
        <time>2021-02-27T08:35:18Z</time>
      </trkpt>
      <trkpt lat="45.18926" lon="5.98456">
        <ele>2565.6</ele>
        <time>2021-02-27T08:35:19Z</time>
      </trkpt>
      <trkpt lat="45.1893" lon="5.98458">
        <ele>2563.6</ele>
        <time>2021-02-27T08:35:20Z</time>
      </trkpt>
      <trkpt lat="45.1893" lon="5.98458">
        <ele>2561.6</ele>
        <time>2021-02-27T08:35:21Z</time>
      </trkpt>
      <trkpt lat="45.18935" lon="5.9845">
        <ele>2559.8</ele>
        <time>2021-02-27T08:35:22Z</time>
      </trkpt>
      <trkpt lat="45.18935" lon="5.98448">
        <ele>2558</ele>
        <time>2021-02-27T08:35:23Z</time>
      </trkpt>
      <trkpt lat="45.18937" lon="5.98442">
        <ele>2556</ele>
        <time>2021-02-27T08:35:24Z</time>
      </trkpt>
      <trkpt lat="45.18942" lon="5.98444">
        <ele>2554.2</ele>
        <time>2021-02-27T08:35:25Z</time>
      </trkpt>
      <trkpt lat="45.18945" lon="5.98448">
        <ele>2551.8</ele>
        <time>2021-02-27T08:35:26Z</time>
      </trkpt>
      <trkpt lat="45.18947" lon="5.9845">
        <ele>2549.2</ele>
        <time>2021-02-27T08:35:27Z</time>
      </trkpt>
      <trkpt lat="45.18949" lon="5.9845">
        <ele>2547</ele>
        <time>2021-02-27T08:35:28Z</time>
      </trkpt>
      <trkpt lat="45.18951" lon="5.98446">
        <ele>2545.4</ele>
        <time>2021-02-27T08:35:29Z</time>
      </trkpt>
      <trkpt lat="45.1895" lon="5.98441">
        <ele>2542.8</ele>
        <time>2021-02-27T08:35:30Z</time>
      </trkpt>
      <trkpt lat="45.18951" lon="5.98437">
        <ele>2540.6</ele>
        <time>2021-02-27T08:35:31Z</time>
      </trkpt>
      <trkpt lat="45.18955" lon="5.98434">
        <ele>2538.6</ele>
        <time>2021-02-27T08:35:32Z</time>
      </trkpt>
      <trkpt lat="45.18959" lon="5.98436">
        <ele>2536.6</ele>
        <time>2021-02-27T08:35:33Z</time>
      </trkpt>
      <trkpt lat="45.18963" lon="5.98441">
        <ele>2534.4</ele>
        <time>2021-02-27T08:35:34Z</time>
      </trkpt>
      <trkpt lat="45.18965" lon="5.98445">
        <ele>2532</ele>
        <time>2021-02-27T08:35:35Z</time>
      </trkpt>
      <trkpt lat="45.18968" lon="5.98446">
        <ele>2529.8</ele>
        <time>2021-02-27T08:35:36Z</time>
      </trkpt>
      <trkpt lat="45.1897" lon="5.98443">
        <ele>2527.6</ele>
        <time>2021-02-27T08:35:37Z</time>
      </trkpt>
      <trkpt lat="45.18971" lon="5.98437">
        <ele>2525.8</ele>
        <time>2021-02-27T08:35:38Z</time>
      </trkpt>
      <trkpt lat="45.1897" lon="5.98428">
        <ele>2523.2</ele>
        <time>2021-02-27T08:35:39Z</time>
      </trkpt>
      <trkpt lat="45.18969" lon="5.9842">
        <ele>2520.6</ele>
        <time>2021-02-27T08:35:40Z</time>
      </trkpt>
      <trkpt lat="45.18969" lon="5.98415">
        <ele>2518</ele>
        <time>2021-02-27T08:35:41Z</time>
      </trkpt>
      <trkpt lat="45.1897" lon="5.98412">
        <ele>2515.8</ele>
        <time>2021-02-27T08:35:42Z</time>
      </trkpt>
      <trkpt lat="45.1897" lon="5.98412">
        <ele>2514</ele>
        <time>2021-02-27T08:35:43Z</time>
      </trkpt>
      <trkpt lat="45.18981" lon="5.98416">
        <ele>2511.6</ele>
        <time>2021-02-27T08:35:44Z</time>
      </trkpt>
      <trkpt lat="45.18983" lon="5.98417">
        <ele>2509.6</ele>
        <time>2021-02-27T08:35:45Z</time>
      </trkpt>
      <trkpt lat="45.18987" lon="5.98415">
        <ele>2507.6</ele>
        <time>2021-02-27T08:35:46Z</time>
      </trkpt>
      <trkpt lat="45.18989" lon="5.98408">
        <ele>2505.6</ele>
        <time>2021-02-27T08:35:47Z</time>
      </trkpt>
      <trkpt lat="45.18989" lon="5.98401">
        <ele>2503.2</ele>
        <time>2021-02-27T08:35:48Z</time>
      </trkpt>
      <trkpt lat="45.18992" lon="5.98394">
        <ele>2500.8</ele>
        <time>2021-02-27T08:35:49Z</time>
      </trkpt>
      <trkpt lat="45.18997" lon="5.98391">
        <ele>2498.2</ele>
        <time>2021-02-27T08:35:50Z</time>
      </trkpt>
      <trkpt lat="45.19002" lon="5.98395">
        <ele>2495.4</ele>
        <time>2021-02-27T08:35:51Z</time>
      </trkpt>
      <trkpt lat="45.19006" lon="5.98401">
        <ele>2492.6</ele>
        <time>2021-02-27T08:35:52Z</time>
      </trkpt>
      <trkpt lat="45.19009" lon="5.98405">
        <ele>2489.6</ele>
        <time>2021-02-27T08:35:53Z</time>
      </trkpt>
      <trkpt lat="45.19012" lon="5.98404">
        <ele>2487</ele>
        <time>2021-02-27T08:35:54Z</time>
      </trkpt>
      <trkpt lat="45.19012" lon="5.98404">
        <ele>2485.2</ele>
        <time>2021-02-27T08:35:55Z</time>
      </trkpt>
      <trkpt lat="45.19018" lon="5.98388">
        <ele>2482.8</ele>
        <time>2021-02-27T08:35:56Z</time>
      </trkpt>
      <trkpt lat="45.1902" lon="5.98386">
        <ele>2480.2</ele>
        <time>2021-02-27T08:35:57Z</time>
      </trkpt>
      <trkpt lat="45.19024" lon="5.98386">
        <ele>2477.4</ele>
        <time>2021-02-27T08:35:58Z</time>
      </trkpt>
      <trkpt lat="45.19024" lon="5.98386">
        <ele>2474</ele>
        <time>2021-02-27T08:35:59Z</time>
      </trkpt>
      <trkpt lat="45.19033" lon="5.98395">
        <ele>2471.2</ele>
        <time>2021-02-27T08:36:00Z</time>
      </trkpt>
      <trkpt lat="45.19034" lon="5.98396">
        <ele>2467.8</ele>
        <time>2021-02-27T08:36:01Z</time>
      </trkpt>
      <trkpt lat="45.19037" lon="5.98397">
        <ele>2465</ele>
        <time>2021-02-27T08:36:02Z</time>
      </trkpt>
      <trkpt lat="45.1904" lon="5.98392">
        <ele>2463.4</ele>
        <time>2021-02-27T08:36:03Z</time>
      </trkpt>
      <trkpt lat="45.19042" lon="5.98384">
        <ele>2462.8</ele>
        <time>2021-02-27T08:36:04Z</time>
      </trkpt>
      <trkpt lat="45.19042" lon="5.98375">
        <ele>2460.4</ele>
        <time>2021-02-27T08:36:05Z</time>
      </trkpt>
      <trkpt lat="45.19043" lon="5.98368">
        <ele>2458</ele>
        <time>2021-02-27T08:36:06Z</time>
      </trkpt>
      <trkpt lat="45.19046" lon="5.98365">
        <ele>2455.4</ele>
        <time>2021-02-27T08:36:07Z</time>
      </trkpt>
      <trkpt lat="45.19051" lon="5.98367">
        <ele>2452.8</ele>
        <time>2021-02-27T08:36:08Z</time>
      </trkpt>
      <trkpt lat="45.19055" lon="5.98371">
        <ele>2449.4</ele>
        <time>2021-02-27T08:36:09Z</time>
      </trkpt>
      <trkpt lat="45.19059" lon="5.98377">
        <ele>2446</ele>
        <time>2021-02-27T08:36:10Z</time>
      </trkpt>
      <trkpt lat="45.19063" lon="5.98382">
        <ele>2443.2</ele>
        <time>2021-02-27T08:36:11Z</time>
      </trkpt>
      <trkpt lat="45.19067" lon="5.98383">
        <ele>2440</ele>
        <time>2021-02-27T08:36:12Z</time>
      </trkpt>
      <trkpt lat="45.19071" lon="5.98379">
        <ele>2438.4</ele>
        <time>2021-02-27T08:36:13Z</time>
      </trkpt>
      <trkpt lat="45.19074" lon="5.98371">
        <ele>2436.4</ele>
        <time>2021-02-27T08:36:14Z</time>
      </trkpt>
      <trkpt lat="45.19078" lon="5.98363">
        <ele>2434</ele>
        <time>2021-02-27T08:36:15Z</time>
      </trkpt>
      <trkpt lat="45.19084" lon="5.98363">
        <ele>2431.2</ele>
        <time>2021-02-27T08:36:16Z</time>
      </trkpt>
      <trkpt lat="45.1909" lon="5.98369">
        <ele>2428.2</ele>
        <time>2021-02-27T08:36:17Z</time>
      </trkpt>
      <trkpt lat="45.19095" lon="5.98377">
        <ele>2425</ele>
        <time>2021-02-27T08:36:18Z</time>
      </trkpt>
      <trkpt lat="45.19098" lon="5.98388">
        <ele>2421.6</ele>
        <time>2021-02-27T08:36:19Z</time>
      </trkpt>
      <trkpt lat="45.19099" lon="5.98398">
        <ele>2418.2</ele>
        <time>2021-02-27T08:36:20Z</time>
      </trkpt>
      <trkpt lat="45.19099" lon="5.98398">
        <ele>2415.2</ele>
        <time>2021-02-27T08:36:21Z</time>
      </trkpt>
      <trkpt lat="45.19104" lon="5.98408">
        <ele>2413</ele>
        <time>2021-02-27T08:36:22Z</time>
      </trkpt>
      <trkpt lat="45.19106" lon="5.98409">
        <ele>2411.2</ele>
        <time>2021-02-27T08:36:23Z</time>
      </trkpt>
      <trkpt lat="45.19112" lon="5.98409">
        <ele>2410</ele>
        <time>2021-02-27T08:36:24Z</time>
      </trkpt>
      <trkpt lat="45.19119" lon="5.98404">
        <ele>2408.2</ele>
        <time>2021-02-27T08:36:25Z</time>
      </trkpt>
      <trkpt lat="45.19119" lon="5.98404">
        <ele>2406.6</ele>
        <time>2021-02-27T08:36:26Z</time>
      </trkpt>
      <trkpt lat="45.19131" lon="5.98409">
        <ele>2403.6</ele>
        <time>2021-02-27T08:36:27Z</time>
      </trkpt>
      <trkpt lat="45.19133" lon="5.98413">
        <ele>2400</ele>
        <time>2021-02-27T08:36:28Z</time>
      </trkpt>
      <trkpt lat="45.19139" lon="5.98426">
        <ele>2396.8</ele>
        <time>2021-02-27T08:36:29Z</time>
      </trkpt>
      <trkpt lat="45.19143" lon="5.98431">
        <ele>2394.2</ele>
        <time>2021-02-27T08:36:30Z</time>
      </trkpt>
      <trkpt lat="45.19152" lon="5.9844">
        <ele>2392.2</ele>
        <time>2021-02-27T08:36:31Z</time>
      </trkpt>
      <trkpt lat="45.19161" lon="5.9845">
        <ele>2388.4</ele>
        <time>2021-02-27T08:36:32Z</time>
      </trkpt>
      <trkpt lat="45.19169" lon="5.98459">
        <ele>2385</ele>
        <time>2021-02-27T08:36:33Z</time>
      </trkpt>
      <trkpt lat="45.19177" lon="5.98466">
        <ele>2383.2</ele>
        <time>2021-02-27T08:36:34Z</time>
      </trkpt>
      <trkpt lat="45.19184" lon="5.98472">
        <ele>2381.2</ele>
        <time>2021-02-27T08:36:35Z</time>
      </trkpt>
      <trkpt lat="45.19191" lon="5.98477">
        <ele>2379.8</ele>
        <time>2021-02-27T08:36:36Z</time>
      </trkpt>
      <trkpt lat="45.19197" lon="5.98482">
        <ele>2378.2</ele>
        <time>2021-02-27T08:36:37Z</time>
      </trkpt>
      <trkpt lat="45.19203" lon="5.98487">
        <ele>2377.2</ele>
        <time>2021-02-27T08:36:38Z</time>
      </trkpt>
      <trkpt lat="45.19207" lon="5.98493">
        <ele>2376.2</ele>
        <time>2021-02-27T08:36:39Z</time>
      </trkpt>
      <trkpt lat="45.19212" lon="5.98498">
        <ele>2374.6</ele>
        <time>2021-02-27T08:36:40Z</time>
      </trkpt>
      <trkpt lat="45.19217" lon="5.98504">
        <ele>2374</ele>
        <time>2021-02-27T08:36:41Z</time>
      </trkpt>
      <trkpt lat="45.19222" lon="5.9851">
        <ele>2373.6</ele>
        <time>2021-02-27T08:36:42Z</time>
      </trkpt>
      <trkpt lat="45.19228" lon="5.98517">
        <ele>2372.2</ele>
        <time>2021-02-27T08:36:43Z</time>
      </trkpt>
      <trkpt lat="45.19234" lon="5.98524">
        <ele>2371.6</ele>
        <time>2021-02-27T08:36:44Z</time>
      </trkpt>
      <trkpt lat="45.19241" lon="5.98532">
        <ele>2370.6</ele>
        <time>2021-02-27T08:36:45Z</time>
      </trkpt>
      <trkpt lat="45.19248" lon="5.98541">
        <ele>2369.2</ele>
        <time>2021-02-27T08:36:46Z</time>
      </trkpt>
      <trkpt lat="45.19254" lon="5.98551">
        <ele>2368</ele>
        <time>2021-02-27T08:36:47Z</time>
      </trkpt>
      <trkpt lat="45.19259" lon="5.9856">
        <ele>2365.4</ele>
        <time>2021-02-27T08:36:48Z</time>
      </trkpt>
      <trkpt lat="45.19263" lon="5.9857">
        <ele>2363.6</ele>
        <time>2021-02-27T08:36:49Z</time>
      </trkpt>
      <trkpt lat="45.19268" lon="5.98578">
        <ele>2361.6</ele>
        <time>2021-02-27T08:36:50Z</time>
      </trkpt>
      <trkpt lat="45.19274" lon="5.98587">
        <ele>2359.8</ele>
        <time>2021-02-27T08:36:51Z</time>
      </trkpt>
      <trkpt lat="45.1928" lon="5.98595">
        <ele>2358.4</ele>
        <time>2021-02-27T08:36:52Z</time>
      </trkpt>
      <trkpt lat="45.19285" lon="5.98605">
        <ele>2357</ele>
        <time>2021-02-27T08:36:53Z</time>
      </trkpt>
      <trkpt lat="45.19287" lon="5.98614">
        <ele>2355.8</ele>
        <time>2021-02-27T08:36:54Z</time>
      </trkpt>
      <trkpt lat="45.1929" lon="5.9862">
        <ele>2353.6</ele>
        <time>2021-02-27T08:36:55Z</time>
      </trkpt>
      <trkpt lat="45.19292" lon="5.98626">
        <ele>2352</ele>
        <time>2021-02-27T08:36:56Z</time>
      </trkpt>
      <trkpt lat="45.19295" lon="5.98632">
        <ele>2350.2</ele>
        <time>2021-02-27T08:36:57Z</time>
      </trkpt>
      <trkpt lat="45.193" lon="5.98638">
        <ele>2349.4</ele>
        <time>2021-02-27T08:36:58Z</time>
      </trkpt>
      <trkpt lat="45.19306" lon="5.98644">
        <ele>2348.2</ele>
        <time>2021-02-27T08:36:59Z</time>
      </trkpt>
      <trkpt lat="45.1931" lon="5.9865">
        <ele>2346.8</ele>
        <time>2021-02-27T08:37:00Z</time>
      </trkpt>
      <trkpt lat="45.19313" lon="5.98655">
        <ele>2345.6</ele>
        <time>2021-02-27T08:37:01Z</time>
      </trkpt>
      <trkpt lat="45.19317" lon="5.98659">
        <ele>2345</ele>
        <time>2021-02-27T08:37:02Z</time>
      </trkpt>
      <trkpt lat="45.19321" lon="5.98661">
        <ele>2344.4</ele>
        <time>2021-02-27T08:37:03Z</time>
      </trkpt>
      <trkpt lat="45.19325" lon="5.98659">
        <ele>2344</ele>
        <time>2021-02-27T08:37:04Z</time>
      </trkpt>
      <trkpt lat="45.19327" lon="5.98651">
        <ele>2343.8</ele>
        <time>2021-02-27T08:37:05Z</time>
      </trkpt>
      <trkpt lat="45.19332" lon="5.98643">
        <ele>2342.8</ele>
        <time>2021-02-27T08:37:06Z</time>
      </trkpt>
      <trkpt lat="45.19332" lon="5.98643">
        <ele>2340.4</ele>
        <time>2021-02-27T08:37:07Z</time>
      </trkpt>
      <trkpt lat="45.19353" lon="5.98645">
        <ele>2338.8</ele>
        <time>2021-02-27T08:37:08Z</time>
      </trkpt>
      <trkpt lat="45.19358" lon="5.98648">
        <ele>2335.6</ele>
        <time>2021-02-27T08:37:09Z</time>
      </trkpt>
      <trkpt lat="45.19367" lon="5.98653">
        <ele>2332.6</ele>
        <time>2021-02-27T08:37:10Z</time>
      </trkpt>
      <trkpt lat="45.19375" lon="5.98657">
        <ele>2330.4</ele>
        <time>2021-02-27T08:37:11Z</time>
      </trkpt>
      <trkpt lat="45.19384" lon="5.98661">
        <ele>2328.2</ele>
        <time>2021-02-27T08:37:12Z</time>
      </trkpt>
      <trkpt lat="45.19392" lon="5.98664">
        <ele>2325.8</ele>
        <time>2021-02-27T08:37:13Z</time>
      </trkpt>
      <trkpt lat="45.194" lon="5.98666">
        <ele>2324.6</ele>
        <time>2021-02-27T08:37:14Z</time>
      </trkpt>
      <trkpt lat="45.19407" lon="5.98668">
        <ele>2323</ele>
        <time>2021-02-27T08:37:15Z</time>
      </trkpt>
      <trkpt lat="45.19414" lon="5.98671">
        <ele>2321.8</ele>
        <time>2021-02-27T08:37:16Z</time>
      </trkpt>
      <trkpt lat="45.19421" lon="5.98673">
        <ele>2320.8</ele>
        <time>2021-02-27T08:37:17Z</time>
      </trkpt>
      <trkpt lat="45.19427" lon="5.98675">
        <ele>2319.6</ele>
        <time>2021-02-27T08:37:18Z</time>
      </trkpt>
      <trkpt lat="45.19433" lon="5.98678">
        <ele>2318.4</ele>
        <time>2021-02-27T08:37:19Z</time>
      </trkpt>
      <trkpt lat="45.19439" lon="5.9868">
        <ele>2317</ele>
        <time>2021-02-27T08:37:20Z</time>
      </trkpt>
      <trkpt lat="45.19444" lon="5.98681">
        <ele>2316.2</ele>
        <time>2021-02-27T08:37:21Z</time>
      </trkpt>
      <trkpt lat="45.19449" lon="5.98682">
        <ele>2315.8</ele>
        <time>2021-02-27T08:37:22Z</time>
      </trkpt>
      <trkpt lat="45.19454" lon="5.98682">
        <ele>2315.2</ele>
        <time>2021-02-27T08:37:23Z</time>
      </trkpt>
      <trkpt lat="45.19459" lon="5.98682">
        <ele>2314.4</ele>
        <time>2021-02-27T08:37:24Z</time>
      </trkpt>
      <trkpt lat="45.19465" lon="5.98681">
        <ele>2314.2</ele>
        <time>2021-02-27T08:37:25Z</time>
      </trkpt>
      <trkpt lat="45.1947" lon="5.9868">
        <ele>2314.2</ele>
        <time>2021-02-27T08:37:26Z</time>
      </trkpt>
      <trkpt lat="45.19477" lon="5.98679">
        <ele>2314.8</ele>
        <time>2021-02-27T08:37:27Z</time>
      </trkpt>
      <trkpt lat="45.19484" lon="5.98678">
        <ele>2314.6</ele>
        <time>2021-02-27T08:37:28Z</time>
      </trkpt>
      <trkpt lat="45.19491" lon="5.98676">
        <ele>2313.8</ele>
        <time>2021-02-27T08:37:29Z</time>
      </trkpt>
      <trkpt lat="45.19498" lon="5.98673">
        <ele>2313.4</ele>
        <time>2021-02-27T08:37:30Z</time>
      </trkpt>
      <trkpt lat="45.19505" lon="5.98669">
        <ele>2312.6</ele>
        <time>2021-02-27T08:37:31Z</time>
      </trkpt>
      <trkpt lat="45.19512" lon="5.98664">
        <ele>2312.2</ele>
        <time>2021-02-27T08:37:32Z</time>
      </trkpt>
      <trkpt lat="45.19518" lon="5.98662">
        <ele>2310.8</ele>
        <time>2021-02-27T08:37:33Z</time>
      </trkpt>
      <trkpt lat="45.19522" lon="5.9866">
        <ele>2310</ele>
        <time>2021-02-27T08:37:34Z</time>
      </trkpt>
      <trkpt lat="45.19526" lon="5.98659">
        <ele>2309.6</ele>
        <time>2021-02-27T08:37:35Z</time>
      </trkpt>
      <trkpt lat="45.19528" lon="5.9866">
        <ele>2309.2</ele>
        <time>2021-02-27T08:37:36Z</time>
      </trkpt>
      <trkpt lat="45.19528" lon="5.9866">
        <ele>2308.8</ele>
        <time>2021-02-27T08:37:37Z</time>
      </trkpt>
      <trkpt lat="45.19529" lon="5.98662">
        <ele>2308.8</ele>
        <time>2021-02-27T08:37:38Z</time>
      </trkpt>
      <trkpt lat="45.19529" lon="5.98662">
        <ele>2309</ele>
        <time>2021-02-27T08:37:39Z</time>
      </trkpt>
      <trkpt lat="45.19529" lon="5.98662">
        <ele>2308.6</ele>
        <time>2021-02-27T08:37:40Z</time>
      </trkpt>
      <trkpt lat="45.19529" lon="5.98662">
        <ele>2308.4</ele>
        <time>2021-02-27T08:37:41Z</time>
      </trkpt>
      <trkpt lat="45.19529" lon="5.98662">
        <ele>2308.4</ele>
        <time>2021-02-27T08:37:42Z</time>
      </trkpt>
      <trkpt lat="45.19529" lon="5.98662">
        <ele>2308.2</ele>
        <time>2021-02-27T08:37:43Z</time>
      </trkpt>
      <trkpt lat="45.19529" lon="5.98662">
        <ele>2308.4</ele>
        <time>2021-02-27T08:37:44Z</time>
      </trkpt>
      <trkpt lat="45.19529" lon="5.98662">
        <ele>2308.6</ele>
        <time>2021-02-27T08:37:45Z</time>
      </trkpt>
      <trkpt lat="45.19529" lon="5.98662">
        <ele>2308.6</ele>
        <time>2021-02-27T08:37:46Z</time>
      </trkpt>
      <trkpt lat="45.19529" lon="5.98662">
        <ele>2308.8</ele>
        <time>2021-02-27T08:37:47Z</time>
      </trkpt>
      <trkpt lat="45.19529" lon="5.98662">
        <ele>2309.2</ele>
        <time>2021-02-27T08:37:48Z</time>
      </trkpt>
      <trkpt lat="45.19529" lon="5.98662">
        <ele>2309.4</ele>
        <time>2021-02-27T08:37:49Z</time>
      </trkpt>
      <trkpt lat="45.19529" lon="5.98662">
        <ele>2309.4</ele>
        <time>2021-02-27T08:37:50Z</time>
      </trkpt>
      <trkpt lat="45.19529" lon="5.98662">
        <ele>2309.6</ele>
        <time>2021-02-27T08:37:51Z</time>
      </trkpt>
      <trkpt lat="45.19529" lon="5.98662">
        <ele>2309.4</ele>
        <time>2021-02-27T08:37:52Z</time>
      </trkpt>
      <trkpt lat="45.19529" lon="5.98662">
        <ele>2309.2</ele>
        <time>2021-02-27T08:37:53Z</time>
      </trkpt>
      <trkpt lat="45.19529" lon="5.98662">
        <ele>2308.8</ele>
        <time>2021-02-27T08:37:54Z</time>
      </trkpt>
      <trkpt lat="45.19529" lon="5.98662">
        <ele>2308.8</ele>
        <time>2021-02-27T08:37:55Z</time>
      </trkpt>
      <trkpt lat="45.19529" lon="5.98662">
        <ele>2308.4</ele>
        <time>2021-02-27T08:37:56Z</time>
      </trkpt>
      <trkpt lat="45.19529" lon="5.98662">
        <ele>2308.4</ele>
        <time>2021-02-27T08:37:57Z</time>
      </trkpt>
      <trkpt lat="45.19529" lon="5.98662">
        <ele>2308.4</ele>
        <time>2021-02-27T08:37:58Z</time>
      </trkpt>
      <trkpt lat="45.19529" lon="5.98662">
        <ele>2308.4</ele>
        <time>2021-02-27T08:37:59Z</time>
      </trkpt>
      <trkpt lat="45.19529" lon="5.98662">
        <ele>2308.8</ele>
        <time>2021-02-27T08:38:00Z</time>
      </trkpt>
      <trkpt lat="45.19529" lon="5.98662">
        <ele>2308.4</ele>
        <time>2021-02-27T08:38:01Z</time>
      </trkpt>
      <trkpt lat="45.19529" lon="5.98662">
        <ele>2308</ele>
        <time>2021-02-27T08:38:02Z</time>
      </trkpt>
      <trkpt lat="45.19529" lon="5.98662">
        <ele>2307.8</ele>
        <time>2021-02-27T08:38:03Z</time>
      </trkpt>
      <trkpt lat="45.19529" lon="5.98662">
        <ele>2308</ele>
        <time>2021-02-27T08:38:04Z</time>
      </trkpt>
      <trkpt lat="45.19529" lon="5.98662">
        <ele>2308</ele>
        <time>2021-02-27T08:38:05Z</time>
      </trkpt>
      <trkpt lat="45.19529" lon="5.98662">
        <ele>2308.2</ele>
        <time>2021-02-27T08:38:06Z</time>
      </trkpt>
      <trkpt lat="45.19529" lon="5.98662">
        <ele>2308</ele>
        <time>2021-02-27T08:38:07Z</time>
      </trkpt>
      <trkpt lat="45.19529" lon="5.98662">
        <ele>2307.8</ele>
        <time>2021-02-27T08:38:08Z</time>
      </trkpt>
      <trkpt lat="45.19529" lon="5.98662">
        <ele>2307.6</ele>
        <time>2021-02-27T08:38:09Z</time>
      </trkpt>
      <trkpt lat="45.19529" lon="5.98662">
        <ele>2307.8</ele>
        <time>2021-02-27T08:38:10Z</time>
      </trkpt>
      <trkpt lat="45.19529" lon="5.98662">
        <ele>2307.8</ele>
        <time>2021-02-27T08:38:11Z</time>
      </trkpt>
      <trkpt lat="45.19529" lon="5.98662">
        <ele>2308</ele>
        <time>2021-02-27T08:38:12Z</time>
      </trkpt>
      <trkpt lat="45.19529" lon="5.98662">
        <ele>2308.2</ele>
        <time>2021-02-27T08:38:13Z</time>
      </trkpt>
      <trkpt lat="45.19529" lon="5.98662">
        <ele>2308.4</ele>
        <time>2021-02-27T08:38:14Z</time>
      </trkpt>
      <trkpt lat="45.19529" lon="5.98662">
        <ele>2308.4</ele>
        <time>2021-02-27T08:38:15Z</time>
      </trkpt>
      <trkpt lat="45.19529" lon="5.98662">
        <ele>2308.8</ele>
        <time>2021-02-27T08:38:16Z</time>
      </trkpt>
      <trkpt lat="45.19529" lon="5.98662">
        <ele>2308.8</ele>
        <time>2021-02-27T08:38:17Z</time>
      </trkpt>
      <trkpt lat="45.19529" lon="5.98662">
        <ele>2309</ele>
        <time>2021-02-27T08:38:18Z</time>
      </trkpt>
      <trkpt lat="45.19529" lon="5.98662">
        <ele>2309</ele>
        <time>2021-02-27T08:38:19Z</time>
      </trkpt>
      <trkpt lat="45.19529" lon="5.98662">
        <ele>2308.8</ele>
        <time>2021-02-27T08:38:20Z</time>
      </trkpt>
      <trkpt lat="45.19529" lon="5.98662">
        <ele>2308.6</ele>
        <time>2021-02-27T08:38:21Z</time>
      </trkpt>
      <trkpt lat="45.19529" lon="5.98662">
        <ele>2308.4</ele>
        <time>2021-02-27T08:38:22Z</time>
      </trkpt>
      <trkpt lat="45.19529" lon="5.98662">
        <ele>2308</ele>
        <time>2021-02-27T08:38:23Z</time>
      </trkpt>
      <trkpt lat="45.19529" lon="5.98662">
        <ele>2308</ele>
        <time>2021-02-27T08:38:24Z</time>
      </trkpt>
      <trkpt lat="45.19529" lon="5.98662">
        <ele>2308</ele>
        <time>2021-02-27T08:38:25Z</time>
      </trkpt>
      <trkpt lat="45.19529" lon="5.98662">
        <ele>2307.6</ele>
        <time>2021-02-27T08:38:26Z</time>
      </trkpt>
      <trkpt lat="45.19529" lon="5.98662">
        <ele>2307.4</ele>
        <time>2021-02-27T08:38:27Z</time>
      </trkpt>
      <trkpt lat="45.19529" lon="5.98662">
        <ele>2307.2</ele>
        <time>2021-02-27T08:38:28Z</time>
      </trkpt>
      <trkpt lat="45.19529" lon="5.98662">
        <ele>2307.2</ele>
        <time>2021-02-27T08:38:29Z</time>
      </trkpt>
      <trkpt lat="45.19529" lon="5.98662">
        <ele>2307</ele>
        <time>2021-02-27T08:38:30Z</time>
      </trkpt>
      <trkpt lat="45.19529" lon="5.98662">
        <ele>2307</ele>
        <time>2021-02-27T08:38:31Z</time>
      </trkpt>
      <trkpt lat="45.19529" lon="5.98662">
        <ele>2306.8</ele>
        <time>2021-02-27T08:38:32Z</time>
      </trkpt>
      <trkpt lat="45.19529" lon="5.98662">
        <ele>2306.8</ele>
        <time>2021-02-27T08:38:33Z</time>
      </trkpt>
      <trkpt lat="45.19529" lon="5.98662">
        <ele>2306.8</ele>
        <time>2021-02-27T08:38:34Z</time>
      </trkpt>
      <trkpt lat="45.19528" lon="5.98664">
        <ele>2307</ele>
        <time>2021-02-27T08:38:35Z</time>
      </trkpt>
      <trkpt lat="45.19528" lon="5.98664">
        <ele>2307.4</ele>
        <time>2021-02-27T08:38:36Z</time>
      </trkpt>
      <trkpt lat="45.19528" lon="5.98664">
        <ele>2307.6</ele>
        <time>2021-02-27T08:38:37Z</time>
      </trkpt>
      <trkpt lat="45.19528" lon="5.98664">
        <ele>2307.6</ele>
        <time>2021-02-27T08:38:38Z</time>
      </trkpt>
      <trkpt lat="45.19528" lon="5.98664">
        <ele>2307.8</ele>
        <time>2021-02-27T08:38:39Z</time>
      </trkpt>
      <trkpt lat="45.19528" lon="5.98664">
        <ele>2307.6</ele>
        <time>2021-02-27T08:38:40Z</time>
      </trkpt>
      <trkpt lat="45.19528" lon="5.98664">
        <ele>2307.6</ele>
        <time>2021-02-27T08:38:41Z</time>
      </trkpt>
      <trkpt lat="45.19528" lon="5.98664">
        <ele>2307.8</ele>
        <time>2021-02-27T08:38:42Z</time>
      </trkpt>
      <trkpt lat="45.19528" lon="5.98664">
        <ele>2307.8</ele>
        <time>2021-02-27T08:38:43Z</time>
      </trkpt>
      <trkpt lat="45.19528" lon="5.98664">
        <ele>2307.6</ele>
        <time>2021-02-27T08:38:44Z</time>
      </trkpt>
      <trkpt lat="45.19528" lon="5.98664">
        <ele>2307.4</ele>
        <time>2021-02-27T08:38:45Z</time>
      </trkpt>
      <trkpt lat="45.19528" lon="5.98664">
        <ele>2307.6</ele>
        <time>2021-02-27T08:38:46Z</time>
      </trkpt>
      <trkpt lat="45.1953" lon="5.98666">
        <ele>2308</ele>
        <time>2021-02-27T08:38:47Z</time>
      </trkpt>
      <trkpt lat="45.1953" lon="5.98666">
        <ele>2308.2</ele>
        <time>2021-02-27T08:38:48Z</time>
      </trkpt>
      <trkpt lat="45.1953" lon="5.98666">
        <ele>2308.4</ele>
        <time>2021-02-27T08:38:49Z</time>
      </trkpt>
      <trkpt lat="45.19534" lon="5.98668">
        <ele>2308.6</ele>
        <time>2021-02-27T08:38:50Z</time>
      </trkpt>
      <trkpt lat="45.19534" lon="5.98668">
        <ele>2309</ele>
        <time>2021-02-27T08:38:51Z</time>
      </trkpt>
      <trkpt lat="45.19536" lon="5.98669">
        <ele>2308.8</ele>
        <time>2021-02-27T08:38:52Z</time>
      </trkpt>
      <trkpt lat="45.19536" lon="5.98669">
        <ele>2308.8</ele>
        <time>2021-02-27T08:38:53Z</time>
      </trkpt>
      <trkpt lat="45.19538" lon="5.98671">
        <ele>2309.2</ele>
        <time>2021-02-27T08:38:54Z</time>
      </trkpt>
      <trkpt lat="45.19538" lon="5.98671">
        <ele>2309.4</ele>
        <time>2021-02-27T08:38:55Z</time>
      </trkpt>
      <trkpt lat="45.19538" lon="5.98671">
        <ele>2309.6</ele>
        <time>2021-02-27T08:38:56Z</time>
      </trkpt>
      <trkpt lat="45.1954" lon="5.98673">
        <ele>2310</ele>
        <time>2021-02-27T08:38:57Z</time>
      </trkpt>
      <trkpt lat="45.1954" lon="5.98673">
        <ele>2310.2</ele>
        <time>2021-02-27T08:38:58Z</time>
      </trkpt>
      <trkpt lat="45.1954" lon="5.98673">
        <ele>2310.4</ele>
        <time>2021-02-27T08:38:59Z</time>
      </trkpt>
      <trkpt lat="45.19542" lon="5.98675">
        <ele>2310.8</ele>
        <time>2021-02-27T08:39:00Z</time>
      </trkpt>
      <trkpt lat="45.19542" lon="5.98675">
        <ele>2310.8</ele>
        <time>2021-02-27T08:39:01Z</time>
      </trkpt>
      <trkpt lat="45.19545" lon="5.98676">
        <ele>2311</ele>
        <time>2021-02-27T08:39:02Z</time>
      </trkpt>
      <trkpt lat="45.19545" lon="5.98676">
        <ele>2310.8</ele>
        <time>2021-02-27T08:39:03Z</time>
      </trkpt>
      <trkpt lat="45.19547" lon="5.98678">
        <ele>2310.4</ele>
        <time>2021-02-27T08:39:04Z</time>
      </trkpt>
      <trkpt lat="45.19547" lon="5.98678">
        <ele>2310.6</ele>
        <time>2021-02-27T08:39:05Z</time>
      </trkpt>
      <trkpt lat="45.19549" lon="5.98679">
        <ele>2310.6</ele>
        <time>2021-02-27T08:39:06Z</time>
      </trkpt>
      <trkpt lat="45.19549" lon="5.98679">
        <ele>2310.4</ele>
        <time>2021-02-27T08:39:07Z</time>
      </trkpt>
      <trkpt lat="45.19549" lon="5.98679">
        <ele>2310.8</ele>
        <time>2021-02-27T08:39:08Z</time>
      </trkpt>
      <trkpt lat="45.19549" lon="5.98679">
        <ele>2310.8</ele>
        <time>2021-02-27T08:39:09Z</time>
      </trkpt>
      <trkpt lat="45.19549" lon="5.98679">
        <ele>2310.6</ele>
        <time>2021-02-27T08:39:10Z</time>
      </trkpt>
      <trkpt lat="45.1955" lon="5.98681">
        <ele>2310.2</ele>
        <time>2021-02-27T08:39:11Z</time>
      </trkpt>
      <trkpt lat="45.1955" lon="5.98681">
        <ele>2310.8</ele>
        <time>2021-02-27T08:39:12Z</time>
      </trkpt>
      <trkpt lat="45.1955" lon="5.98681">
        <ele>2310.8</ele>
        <time>2021-02-27T08:39:13Z</time>
      </trkpt>
      <trkpt lat="45.1955" lon="5.98681">
        <ele>2311.2</ele>
        <time>2021-02-27T08:39:14Z</time>
      </trkpt>
      <trkpt lat="45.1955" lon="5.98681">
        <ele>2311.4</ele>
        <time>2021-02-27T08:39:15Z</time>
      </trkpt>
      <trkpt lat="45.19552" lon="5.98683">
        <ele>2311.6</ele>
        <time>2021-02-27T08:39:16Z</time>
      </trkpt>
      <trkpt lat="45.19552" lon="5.98683">
        <ele>2312.2</ele>
        <time>2021-02-27T08:39:17Z</time>
      </trkpt>
      <trkpt lat="45.19554" lon="5.98685">
        <ele>2312.6</ele>
        <time>2021-02-27T08:39:18Z</time>
      </trkpt>
      <trkpt lat="45.19554" lon="5.98685">
        <ele>2313.2</ele>
        <time>2021-02-27T08:39:19Z</time>
      </trkpt>
      <trkpt lat="45.19554" lon="5.98685">
        <ele>2314</ele>
        <time>2021-02-27T08:39:20Z</time>
      </trkpt>
      <trkpt lat="45.19556" lon="5.98687">
        <ele>2314.4</ele>
        <time>2021-02-27T08:39:21Z</time>
      </trkpt>
      <trkpt lat="45.19556" lon="5.98687">
        <ele>2314</ele>
        <time>2021-02-27T08:39:22Z</time>
      </trkpt>
      <trkpt lat="45.19556" lon="5.98687">
        <ele>2314.4</ele>
        <time>2021-02-27T08:39:23Z</time>
      </trkpt>
      <trkpt lat="45.19558" lon="5.98689">
        <ele>2314.4</ele>
        <time>2021-02-27T08:39:24Z</time>
      </trkpt>
      <trkpt lat="45.19558" lon="5.98689">
        <ele>2314.2</ele>
        <time>2021-02-27T08:39:25Z</time>
      </trkpt>
      <trkpt lat="45.19558" lon="5.98689">
        <ele>2313.4</ele>
        <time>2021-02-27T08:39:26Z</time>
      </trkpt>
      <trkpt lat="45.1956" lon="5.98691">
        <ele>2313.6</ele>
        <time>2021-02-27T08:39:27Z</time>
      </trkpt>
      <trkpt lat="45.1956" lon="5.98691">
        <ele>2313.6</ele>
        <time>2021-02-27T08:39:28Z</time>
      </trkpt>
      <trkpt lat="45.19562" lon="5.98693">
        <ele>2313.4</ele>
        <time>2021-02-27T08:39:29Z</time>
      </trkpt>
      <trkpt lat="45.19562" lon="5.98693">
        <ele>2313.8</ele>
        <time>2021-02-27T08:39:30Z</time>
      </trkpt>
      <trkpt lat="45.19562" lon="5.98693">
        <ele>2313.8</ele>
        <time>2021-02-27T08:39:31Z</time>
      </trkpt>
      <trkpt lat="45.19563" lon="5.98695">
        <ele>2313.8</ele>
        <time>2021-02-27T08:39:32Z</time>
      </trkpt>
      <trkpt lat="45.19563" lon="5.98695">
        <ele>2314.2</ele>
        <time>2021-02-27T08:39:33Z</time>
      </trkpt>
      <trkpt lat="45.19565" lon="5.98696">
        <ele>2314.2</ele>
        <time>2021-02-27T08:39:34Z</time>
      </trkpt>
      <trkpt lat="45.19565" lon="5.98696">
        <ele>2314.4</ele>
        <time>2021-02-27T08:39:35Z</time>
      </trkpt>
      <trkpt lat="45.19567" lon="5.98697">
        <ele>2315</ele>
        <time>2021-02-27T08:39:36Z</time>
      </trkpt>
      <trkpt lat="45.19567" lon="5.98697">
        <ele>2315</ele>
        <time>2021-02-27T08:39:37Z</time>
      </trkpt>
      <trkpt lat="45.1957" lon="5.98698">
        <ele>2315.4</ele>
        <time>2021-02-27T08:39:38Z</time>
      </trkpt>
      <trkpt lat="45.19572" lon="5.98698">
        <ele>2315.6</ele>
        <time>2021-02-27T08:39:39Z</time>
      </trkpt>
      <trkpt lat="45.19573" lon="5.98698">
        <ele>2315.8</ele>
        <time>2021-02-27T08:39:40Z</time>
      </trkpt>
      <trkpt lat="45.19573" lon="5.98699">
        <ele>2316.2</ele>
        <time>2021-02-27T08:39:41Z</time>
      </trkpt>
      <trkpt lat="45.19574" lon="5.98699">
        <ele>2316.6</ele>
        <time>2021-02-27T08:39:42Z</time>
      </trkpt>
      <trkpt lat="45.19575" lon="5.98699">
        <ele>2316.6</ele>
        <time>2021-02-27T08:39:43Z</time>
      </trkpt>
      <trkpt lat="45.19577" lon="5.98701">
        <ele>2317</ele>
        <time>2021-02-27T08:39:44Z</time>
      </trkpt>
      <trkpt lat="45.19577" lon="5.98701">
        <ele>2317.2</ele>
        <time>2021-02-27T08:39:45Z</time>
      </trkpt>
      <trkpt lat="45.19577" lon="5.98701">
        <ele>2317</ele>
        <time>2021-02-27T08:39:46Z</time>
      </trkpt>
      <trkpt lat="45.19579" lon="5.98702">
        <ele>2317.2</ele>
        <time>2021-02-27T08:39:47Z</time>
      </trkpt>
      <trkpt lat="45.19579" lon="5.98702">
        <ele>2317.6</ele>
        <time>2021-02-27T08:39:48Z</time>
      </trkpt>
      <trkpt lat="45.19579" lon="5.98702">
        <ele>2317.6</ele>
        <time>2021-02-27T08:39:49Z</time>
      </trkpt>
      <trkpt lat="45.19581" lon="5.98703">
        <ele>2317.8</ele>
        <time>2021-02-27T08:39:50Z</time>
      </trkpt>
      <trkpt lat="45.19581" lon="5.98703">
        <ele>2318.2</ele>
        <time>2021-02-27T08:39:51Z</time>
      </trkpt>
      <trkpt lat="45.19581" lon="5.98703">
        <ele>2318</ele>
        <time>2021-02-27T08:39:52Z</time>
      </trkpt>
      <trkpt lat="45.19583" lon="5.98703">
        <ele>2318.2</ele>
        <time>2021-02-27T08:39:53Z</time>
      </trkpt>
      <trkpt lat="45.19583" lon="5.98703">
        <ele>2318.6</ele>
        <time>2021-02-27T08:39:54Z</time>
      </trkpt>
      <trkpt lat="45.19586" lon="5.98702">
        <ele>2318.6</ele>
        <time>2021-02-27T08:39:55Z</time>
      </trkpt>
      <trkpt lat="45.19586" lon="5.98702">
        <ele>2318.8</ele>
        <time>2021-02-27T08:39:56Z</time>
      </trkpt>
      <trkpt lat="45.19586" lon="5.98702">
        <ele>2319.2</ele>
        <time>2021-02-27T08:39:57Z</time>
      </trkpt>
      <trkpt lat="45.19588" lon="5.98701">
        <ele>2319.4</ele>
        <time>2021-02-27T08:39:58Z</time>
      </trkpt>
      <trkpt lat="45.19588" lon="5.98701">
        <ele>2319.6</ele>
        <time>2021-02-27T08:39:59Z</time>
      </trkpt>
      <trkpt lat="45.19588" lon="5.98701">
        <ele>2320</ele>
        <time>2021-02-27T08:40:00Z</time>
      </trkpt>
      <trkpt lat="45.19589" lon="5.98698">
        <ele>2320</ele>
        <time>2021-02-27T08:40:01Z</time>
      </trkpt>
      <trkpt lat="45.19589" lon="5.98698">
        <ele>2320.4</ele>
        <time>2021-02-27T08:40:02Z</time>
      </trkpt>
      <trkpt lat="45.19589" lon="5.98698">
        <ele>2320.4</ele>
        <time>2021-02-27T08:40:03Z</time>
      </trkpt>
      <trkpt lat="45.19591" lon="5.98696">
        <ele>2320.6</ele>
        <time>2021-02-27T08:40:04Z</time>
      </trkpt>
      <trkpt lat="45.19591" lon="5.98696">
        <ele>2320.8</ele>
        <time>2021-02-27T08:40:05Z</time>
      </trkpt>
      <trkpt lat="45.19591" lon="5.98696">
        <ele>2321.2</ele>
        <time>2021-02-27T08:40:06Z</time>
      </trkpt>
      <trkpt lat="45.19591" lon="5.98696">
        <ele>2321.4</ele>
        <time>2021-02-27T08:40:07Z</time>
      </trkpt>
      <trkpt lat="45.19592" lon="5.98693">
        <ele>2321.4</ele>
        <time>2021-02-27T08:40:08Z</time>
      </trkpt>
      <trkpt lat="45.19592" lon="5.98693">
        <ele>2322</ele>
        <time>2021-02-27T08:40:09Z</time>
      </trkpt>
      <trkpt lat="45.19592" lon="5.98693">
        <ele>2322.2</ele>
        <time>2021-02-27T08:40:10Z</time>
      </trkpt>
      <trkpt lat="45.19595" lon="5.98691">
        <ele>2322.6</ele>
        <time>2021-02-27T08:40:11Z</time>
      </trkpt>
      <trkpt lat="45.19595" lon="5.98691">
        <ele>2323</ele>
        <time>2021-02-27T08:40:12Z</time>
      </trkpt>
      <trkpt lat="45.19595" lon="5.98691">
        <ele>2323.4</ele>
        <time>2021-02-27T08:40:13Z</time>
      </trkpt>
      <trkpt lat="45.19597" lon="5.98693">
        <ele>2324</ele>
        <time>2021-02-27T08:40:14Z</time>
      </trkpt>
      <trkpt lat="45.19597" lon="5.98693">
        <ele>2324.4</ele>
        <time>2021-02-27T08:40:15Z</time>
      </trkpt>
      <trkpt lat="45.19597" lon="5.98693">
        <ele>2325.4</ele>
        <time>2021-02-27T08:40:16Z</time>
      </trkpt>
      <trkpt lat="45.19597" lon="5.98693">
        <ele>2326</ele>
        <time>2021-02-27T08:40:17Z</time>
      </trkpt>
      <trkpt lat="45.19598" lon="5.98696">
        <ele>2326</ele>
        <time>2021-02-27T08:40:18Z</time>
      </trkpt>
      <trkpt lat="45.19598" lon="5.98696">
        <ele>2326.8</ele>
        <time>2021-02-27T08:40:19Z</time>
      </trkpt>
      <trkpt lat="45.19598" lon="5.98696">
        <ele>2326.8</ele>
        <time>2021-02-27T08:40:20Z</time>
      </trkpt>
      <trkpt lat="45.19598" lon="5.98696">
        <ele>2326.6</ele>
        <time>2021-02-27T08:40:21Z</time>
      </trkpt>
      <trkpt lat="45.19599" lon="5.98698">
        <ele>2327</ele>
        <time>2021-02-27T08:40:22Z</time>
      </trkpt>
      <trkpt lat="45.19599" lon="5.98698">
        <ele>2327</ele>
        <time>2021-02-27T08:40:23Z</time>
      </trkpt>
      <trkpt lat="45.19599" lon="5.98698">
        <ele>2326.6</ele>
        <time>2021-02-27T08:40:24Z</time>
      </trkpt>
      <trkpt lat="45.19599" lon="5.98698">
        <ele>2327</ele>
        <time>2021-02-27T08:40:25Z</time>
      </trkpt>
      <trkpt lat="45.19599" lon="5.98698">
        <ele>2327.2</ele>
        <time>2021-02-27T08:40:26Z</time>
      </trkpt>
      <trkpt lat="45.196" lon="5.98701">
        <ele>2327</ele>
        <time>2021-02-27T08:40:27Z</time>
      </trkpt>
      <trkpt lat="45.196" lon="5.98701">
        <ele>2327.4</ele>
        <time>2021-02-27T08:40:28Z</time>
      </trkpt>
      <trkpt lat="45.19601" lon="5.98702">
        <ele>2328</ele>
        <time>2021-02-27T08:40:29Z</time>
      </trkpt>
      <trkpt lat="45.19601" lon="5.98703">
        <ele>2327.8</ele>
        <time>2021-02-27T08:40:30Z</time>
      </trkpt>
      <trkpt lat="45.19602" lon="5.98703">
        <ele>2328</ele>
        <time>2021-02-27T08:40:31Z</time>
      </trkpt>
      <trkpt lat="45.19602" lon="5.98704">
        <ele>2328.6</ele>
        <time>2021-02-27T08:40:32Z</time>
      </trkpt>
      <trkpt lat="45.19603" lon="5.98705">
        <ele>2328.2</ele>
        <time>2021-02-27T08:40:33Z</time>
      </trkpt>
      <trkpt lat="45.19604" lon="5.98706">
        <ele>2328.6</ele>
        <time>2021-02-27T08:40:34Z</time>
      </trkpt>
      <trkpt lat="45.19604" lon="5.98707">
        <ele>2329</ele>
        <time>2021-02-27T08:40:35Z</time>
      </trkpt>
      <trkpt lat="45.19605" lon="5.98707">
        <ele>2329.2</ele>
        <time>2021-02-27T08:40:36Z</time>
      </trkpt>
      <trkpt lat="45.19605" lon="5.98708">
        <ele>2329.6</ele>
        <time>2021-02-27T08:40:37Z</time>
      </trkpt>
      <trkpt lat="45.19606" lon="5.98709">
        <ele>2329.6</ele>
        <time>2021-02-27T08:40:38Z</time>
      </trkpt>
      <trkpt lat="45.19606" lon="5.9871">
        <ele>2330</ele>
        <time>2021-02-27T08:40:39Z</time>
      </trkpt>
      <trkpt lat="45.19607" lon="5.9871">
        <ele>2330.2</ele>
        <time>2021-02-27T08:40:40Z</time>
      </trkpt>
      <trkpt lat="45.19608" lon="5.98712">
        <ele>2330.2</ele>
        <time>2021-02-27T08:40:41Z</time>
      </trkpt>
      <trkpt lat="45.19608" lon="5.98712">
        <ele>2330.6</ele>
        <time>2021-02-27T08:40:42Z</time>
      </trkpt>
      <trkpt lat="45.19608" lon="5.98712">
        <ele>2331</ele>
        <time>2021-02-27T08:40:43Z</time>
      </trkpt>
      <trkpt lat="45.1961" lon="5.98714">
        <ele>2331.4</ele>
        <time>2021-02-27T08:40:44Z</time>
      </trkpt>
      <trkpt lat="45.1961" lon="5.98714">
        <ele>2331.6</ele>
        <time>2021-02-27T08:40:45Z</time>
      </trkpt>
      <trkpt lat="45.1961" lon="5.98714">
        <ele>2331.8</ele>
        <time>2021-02-27T08:40:46Z</time>
      </trkpt>
      <trkpt lat="45.1961" lon="5.98714">
        <ele>2331.8</ele>
        <time>2021-02-27T08:40:47Z</time>
      </trkpt>
      <trkpt lat="45.1961" lon="5.98714">
        <ele>2332.4</ele>
        <time>2021-02-27T08:40:48Z</time>
      </trkpt>
      <trkpt lat="45.1961" lon="5.98718">
        <ele>2332.2</ele>
        <time>2021-02-27T08:40:49Z</time>
      </trkpt>
      <trkpt lat="45.1961" lon="5.98718">
        <ele>2332</ele>
        <time>2021-02-27T08:40:50Z</time>
      </trkpt>
      <trkpt lat="45.1961" lon="5.98718">
        <ele>2332.8</ele>
        <time>2021-02-27T08:40:51Z</time>
      </trkpt>
      <trkpt lat="45.19609" lon="5.98721">
        <ele>2332.8</ele>
        <time>2021-02-27T08:40:52Z</time>
      </trkpt>
      <trkpt lat="45.19609" lon="5.98721">
        <ele>2332.6</ele>
        <time>2021-02-27T08:40:53Z</time>
      </trkpt>
      <trkpt lat="45.19609" lon="5.98721">
        <ele>2333.2</ele>
        <time>2021-02-27T08:40:54Z</time>
      </trkpt>
      <trkpt lat="45.19609" lon="5.98724">
        <ele>2333.4</ele>
        <time>2021-02-27T08:40:55Z</time>
      </trkpt>
      <trkpt lat="45.19609" lon="5.98724">
        <ele>2333.6</ele>
        <time>2021-02-27T08:40:56Z</time>
      </trkpt>
      <trkpt lat="45.19609" lon="5.98724">
        <ele>2334</ele>
        <time>2021-02-27T08:40:57Z</time>
      </trkpt>
      <trkpt lat="45.1961" lon="5.98727">
        <ele>2334.4</ele>
        <time>2021-02-27T08:40:58Z</time>
      </trkpt>
      <trkpt lat="45.1961" lon="5.98727">
        <ele>2334.4</ele>
        <time>2021-02-27T08:40:59Z</time>
      </trkpt>
      <trkpt lat="45.1961" lon="5.98728">
        <ele>2334.6</ele>
        <time>2021-02-27T08:41:00Z</time>
      </trkpt>
      <trkpt lat="45.1961" lon="5.98729">
        <ele>2334.8</ele>
        <time>2021-02-27T08:41:01Z</time>
      </trkpt>
      <trkpt lat="45.1961" lon="5.9873">
        <ele>2335.2</ele>
        <time>2021-02-27T08:41:02Z</time>
      </trkpt>
      <trkpt lat="45.19611" lon="5.98731">
        <ele>2335.2</ele>
        <time>2021-02-27T08:41:03Z</time>
      </trkpt>
      <trkpt lat="45.19611" lon="5.98733">
        <ele>2335.4</ele>
        <time>2021-02-27T08:41:04Z</time>
      </trkpt>
      <trkpt lat="45.19611" lon="5.98734">
        <ele>2335.6</ele>
        <time>2021-02-27T08:41:05Z</time>
      </trkpt>
      <trkpt lat="45.19611" lon="5.98735">
        <ele>2335.6</ele>
        <time>2021-02-27T08:41:06Z</time>
      </trkpt>
      <trkpt lat="45.19612" lon="5.98736">
        <ele>2336.2</ele>
        <time>2021-02-27T08:41:07Z</time>
      </trkpt>
      <trkpt lat="45.19612" lon="5.98737">
        <ele>2335.8</ele>
        <time>2021-02-27T08:41:08Z</time>
      </trkpt>
      <trkpt lat="45.19612" lon="5.98738">
        <ele>2336</ele>
        <time>2021-02-27T08:41:09Z</time>
      </trkpt>
      <trkpt lat="45.19612" lon="5.9874">
        <ele>2336.4</ele>
        <time>2021-02-27T08:41:10Z</time>
      </trkpt>
      <trkpt lat="45.19612" lon="5.98741">
        <ele>2336.4</ele>
        <time>2021-02-27T08:41:11Z</time>
      </trkpt>
      <trkpt lat="45.19612" lon="5.98742">
        <ele>2336.8</ele>
        <time>2021-02-27T08:41:12Z</time>
      </trkpt>
      <trkpt lat="45.19612" lon="5.98743">
        <ele>2337.2</ele>
        <time>2021-02-27T08:41:13Z</time>
      </trkpt>
      <trkpt lat="45.19612" lon="5.98744">
        <ele>2337.6</ele>
        <time>2021-02-27T08:41:14Z</time>
      </trkpt>
      <trkpt lat="45.19612" lon="5.98745">
        <ele>2337.8</ele>
        <time>2021-02-27T08:41:15Z</time>
      </trkpt>
      <trkpt lat="45.19611" lon="5.98746">
        <ele>2338.2</ele>
        <time>2021-02-27T08:41:16Z</time>
      </trkpt>
      <trkpt lat="45.19611" lon="5.98747">
        <ele>2338</ele>
        <time>2021-02-27T08:41:17Z</time>
      </trkpt>
      <trkpt lat="45.19611" lon="5.98748">
        <ele>2338.6</ele>
        <time>2021-02-27T08:41:18Z</time>
      </trkpt>
      <trkpt lat="45.19611" lon="5.98749">
        <ele>2339</ele>
        <time>2021-02-27T08:41:19Z</time>
      </trkpt>
      <trkpt lat="45.19611" lon="5.9875">
        <ele>2339</ele>
        <time>2021-02-27T08:41:20Z</time>
      </trkpt>
      <trkpt lat="45.19611" lon="5.98751">
        <ele>2339.4</ele>
        <time>2021-02-27T08:41:21Z</time>
      </trkpt>
      <trkpt lat="45.1961" lon="5.98753">
        <ele>2339.8</ele>
        <time>2021-02-27T08:41:22Z</time>
      </trkpt>
      <trkpt lat="45.1961" lon="5.98754">
        <ele>2340</ele>
        <time>2021-02-27T08:41:23Z</time>
      </trkpt>
      <trkpt lat="45.19611" lon="5.98755">
        <ele>2340.6</ele>
        <time>2021-02-27T08:41:24Z</time>
      </trkpt>
      <trkpt lat="45.19611" lon="5.98756">
        <ele>2341</ele>
        <time>2021-02-27T08:41:25Z</time>
      </trkpt>
      <trkpt lat="45.19611" lon="5.98757">
        <ele>2340.8</ele>
        <time>2021-02-27T08:41:26Z</time>
      </trkpt>
      <trkpt lat="45.19611" lon="5.98759">
        <ele>2341</ele>
        <time>2021-02-27T08:41:27Z</time>
      </trkpt>
      <trkpt lat="45.19611" lon="5.9876">
        <ele>2341.4</ele>
        <time>2021-02-27T08:41:28Z</time>
      </trkpt>
      <trkpt lat="45.19611" lon="5.98761">
        <ele>2341.6</ele>
        <time>2021-02-27T08:41:29Z</time>
      </trkpt>
      <trkpt lat="45.19612" lon="5.98762">
        <ele>2342</ele>
        <time>2021-02-27T08:41:30Z</time>
      </trkpt>
      <trkpt lat="45.19612" lon="5.98763">
        <ele>2342.6</ele>
        <time>2021-02-27T08:41:31Z</time>
      </trkpt>
      <trkpt lat="45.19612" lon="5.98764">
        <ele>2342.4</ele>
        <time>2021-02-27T08:41:32Z</time>
      </trkpt>
      <trkpt lat="45.19612" lon="5.98766">
        <ele>2342.8</ele>
        <time>2021-02-27T08:41:33Z</time>
      </trkpt>
      <trkpt lat="45.19612" lon="5.98766">
        <ele>2343.2</ele>
        <time>2021-02-27T08:41:34Z</time>
      </trkpt>
      <trkpt lat="45.19612" lon="5.98766">
        <ele>2343.2</ele>
        <time>2021-02-27T08:41:35Z</time>
      </trkpt>
      <trkpt lat="45.19615" lon="5.98765">
        <ele>2343.4</ele>
        <time>2021-02-27T08:41:36Z</time>
      </trkpt>
      <trkpt lat="45.19615" lon="5.98765">
        <ele>2343.2</ele>
        <time>2021-02-27T08:41:37Z</time>
      </trkpt>
      <trkpt lat="45.19619" lon="5.98764">
        <ele>2343.6</ele>
        <time>2021-02-27T08:41:38Z</time>
      </trkpt>
      <trkpt lat="45.19619" lon="5.98764">
        <ele>2343.8</ele>
        <time>2021-02-27T08:41:39Z</time>
      </trkpt>
      <trkpt lat="45.19621" lon="5.98764">
        <ele>2343.8</ele>
        <time>2021-02-27T08:41:40Z</time>
      </trkpt>
      <trkpt lat="45.19621" lon="5.98764">
        <ele>2343.8</ele>
        <time>2021-02-27T08:41:41Z</time>
      </trkpt>
      <trkpt lat="45.19621" lon="5.98764">
        <ele>2344</ele>
        <time>2021-02-27T08:41:42Z</time>
      </trkpt>
      <trkpt lat="45.19623" lon="5.98763">
        <ele>2344.4</ele>
        <time>2021-02-27T08:41:43Z</time>
      </trkpt>
      <trkpt lat="45.19623" lon="5.98763">
        <ele>2344.6</ele>
        <time>2021-02-27T08:41:44Z</time>
      </trkpt>
      <trkpt lat="45.19626" lon="5.98762">
        <ele>2345</ele>
        <time>2021-02-27T08:41:45Z</time>
      </trkpt>
      <trkpt lat="45.19626" lon="5.98762">
        <ele>2345.2</ele>
        <time>2021-02-27T08:41:46Z</time>
      </trkpt>
      <trkpt lat="45.19628" lon="5.98762">
        <ele>2345.4</ele>
        <time>2021-02-27T08:41:47Z</time>
      </trkpt>
      <trkpt lat="45.19628" lon="5.98762">
        <ele>2346</ele>
        <time>2021-02-27T08:41:48Z</time>
      </trkpt>
      <trkpt lat="45.19628" lon="5.98762">
        <ele>2346.2</ele>
        <time>2021-02-27T08:41:49Z</time>
      </trkpt>
      <trkpt lat="45.1963" lon="5.9876">
        <ele>2346.2</ele>
        <time>2021-02-27T08:41:50Z</time>
      </trkpt>
      <trkpt lat="45.1963" lon="5.9876">
        <ele>2346.6</ele>
        <time>2021-02-27T08:41:51Z</time>
      </trkpt>
      <trkpt lat="45.19632" lon="5.98759">
        <ele>2347</ele>
        <time>2021-02-27T08:41:52Z</time>
      </trkpt>
      <trkpt lat="45.19632" lon="5.98759">
        <ele>2347.2</ele>
        <time>2021-02-27T08:41:53Z</time>
      </trkpt>
      <trkpt lat="45.19633" lon="5.98758">
        <ele>2347.4</ele>
        <time>2021-02-27T08:41:54Z</time>
      </trkpt>
      <trkpt lat="45.19633" lon="5.98758">
        <ele>2347.8</ele>
        <time>2021-02-27T08:41:55Z</time>
      </trkpt>
      <trkpt lat="45.19636" lon="5.98757">
        <ele>2348</ele>
        <time>2021-02-27T08:41:56Z</time>
      </trkpt>
      <trkpt lat="45.19636" lon="5.98757">
        <ele>2348.4</ele>
        <time>2021-02-27T08:41:57Z</time>
      </trkpt>
      <trkpt lat="45.19639" lon="5.98756">
        <ele>2348.8</ele>
        <time>2021-02-27T08:41:58Z</time>
      </trkpt>
      <trkpt lat="45.19639" lon="5.98756">
        <ele>2348.6</ele>
        <time>2021-02-27T08:41:59Z</time>
      </trkpt>
      <trkpt lat="45.19641" lon="5.98755">
        <ele>2349.2</ele>
        <time>2021-02-27T08:42:00Z</time>
      </trkpt>
      <trkpt lat="45.19641" lon="5.98755">
        <ele>2349.6</ele>
        <time>2021-02-27T08:42:01Z</time>
      </trkpt>
      <trkpt lat="45.19641" lon="5.98755">
        <ele>2350</ele>
        <time>2021-02-27T08:42:02Z</time>
      </trkpt>
      <trkpt lat="45.19643" lon="5.98753">
        <ele>2350.2</ele>
        <time>2021-02-27T08:42:03Z</time>
      </trkpt>
      <trkpt lat="45.19643" lon="5.98753">
        <ele>2350.2</ele>
        <time>2021-02-27T08:42:04Z</time>
      </trkpt>
      <trkpt lat="45.19643" lon="5.98753">
        <ele>2350.6</ele>
        <time>2021-02-27T08:42:05Z</time>
      </trkpt>
      <trkpt lat="45.19643" lon="5.98753">
        <ele>2350.4</ele>
        <time>2021-02-27T08:42:06Z</time>
      </trkpt>
      <trkpt lat="45.19643" lon="5.98753">
        <ele>2350.4</ele>
        <time>2021-02-27T08:42:07Z</time>
      </trkpt>
      <trkpt lat="45.19644" lon="5.98751">
        <ele>2350.8</ele>
        <time>2021-02-27T08:42:08Z</time>
      </trkpt>
      <trkpt lat="45.19644" lon="5.98751">
        <ele>2350.6</ele>
        <time>2021-02-27T08:42:09Z</time>
      </trkpt>
      <trkpt lat="45.19646" lon="5.98749">
        <ele>2350.8</ele>
        <time>2021-02-27T08:42:10Z</time>
      </trkpt>
      <trkpt lat="45.19646" lon="5.98749">
        <ele>2351.2</ele>
        <time>2021-02-27T08:42:11Z</time>
      </trkpt>
      <trkpt lat="45.19646" lon="5.98749">
        <ele>2351.2</ele>
        <time>2021-02-27T08:42:12Z</time>
      </trkpt>
      <trkpt lat="45.19646" lon="5.98749">
        <ele>2351.4</ele>
        <time>2021-02-27T08:42:13Z</time>
      </trkpt>
      <trkpt lat="45.19646" lon="5.98749">
        <ele>2351.6</ele>
        <time>2021-02-27T08:42:14Z</time>
      </trkpt>
      <trkpt lat="45.19646" lon="5.98749">
        <ele>2351.4</ele>
        <time>2021-02-27T08:42:15Z</time>
      </trkpt>
      <trkpt lat="45.19649" lon="5.98747">
        <ele>2352</ele>
        <time>2021-02-27T08:42:16Z</time>
      </trkpt>
      <trkpt lat="45.19649" lon="5.98747">
        <ele>2351.8</ele>
        <time>2021-02-27T08:42:17Z</time>
      </trkpt>
      <trkpt lat="45.19649" lon="5.98749">
        <ele>2352</ele>
        <time>2021-02-27T08:42:18Z</time>
      </trkpt>
      <trkpt lat="45.19649" lon="5.9875">
        <ele>2352.4</ele>
        <time>2021-02-27T08:42:19Z</time>
      </trkpt>
      <trkpt lat="45.19648" lon="5.98751">
        <ele>2352.4</ele>
        <time>2021-02-27T08:42:20Z</time>
      </trkpt>
      <trkpt lat="45.19648" lon="5.98753">
        <ele>2353</ele>
        <time>2021-02-27T08:42:21Z</time>
      </trkpt>
      <trkpt lat="45.19648" lon="5.98754">
        <ele>2353.2</ele>
        <time>2021-02-27T08:42:22Z</time>
      </trkpt>
      <trkpt lat="45.19648" lon="5.98755">
        <ele>2353</ele>
        <time>2021-02-27T08:42:23Z</time>
      </trkpt>
      <trkpt lat="45.19648" lon="5.98756">
        <ele>2353.8</ele>
        <time>2021-02-27T08:42:24Z</time>
      </trkpt>
      <trkpt lat="45.19648" lon="5.98758">
        <ele>2354</ele>
        <time>2021-02-27T08:42:25Z</time>
      </trkpt>
      <trkpt lat="45.19648" lon="5.98759">
        <ele>2354</ele>
        <time>2021-02-27T08:42:26Z</time>
      </trkpt>
      <trkpt lat="45.19649" lon="5.98762">
        <ele>2354.2</ele>
        <time>2021-02-27T08:42:27Z</time>
      </trkpt>
      <trkpt lat="45.19649" lon="5.98762">
        <ele>2354.6</ele>
        <time>2021-02-27T08:42:28Z</time>
      </trkpt>
      <trkpt lat="45.1965" lon="5.98764">
        <ele>2355.2</ele>
        <time>2021-02-27T08:42:29Z</time>
      </trkpt>
      <trkpt lat="45.1965" lon="5.98764">
        <ele>2355</ele>
        <time>2021-02-27T08:42:30Z</time>
      </trkpt>
      <trkpt lat="45.1965" lon="5.98766">
        <ele>2355.4</ele>
        <time>2021-02-27T08:42:31Z</time>
      </trkpt>
      <trkpt lat="45.19651" lon="5.98767">
        <ele>2355.6</ele>
        <time>2021-02-27T08:42:32Z</time>
      </trkpt>
      <trkpt lat="45.19651" lon="5.98769">
        <ele>2355.4</ele>
        <time>2021-02-27T08:42:33Z</time>
      </trkpt>
      <trkpt lat="45.19651" lon="5.98771">
        <ele>2355.8</ele>
        <time>2021-02-27T08:42:34Z</time>
      </trkpt>
      <trkpt lat="45.19651" lon="5.98772">
        <ele>2356.2</ele>
        <time>2021-02-27T08:42:35Z</time>
      </trkpt>
      <trkpt lat="45.19652" lon="5.98774">
        <ele>2356.4</ele>
        <time>2021-02-27T08:42:36Z</time>
      </trkpt>
      <trkpt lat="45.19652" lon="5.98773">
        <ele>2356.8</ele>
        <time>2021-02-27T08:42:37Z</time>
      </trkpt>
      <trkpt lat="45.19653" lon="5.98773">
        <ele>2357</ele>
        <time>2021-02-27T08:42:38Z</time>
      </trkpt>
      <trkpt lat="45.19653" lon="5.98773">
        <ele>2357.6</ele>
        <time>2021-02-27T08:42:39Z</time>
      </trkpt>
      <trkpt lat="45.19654" lon="5.98773">
        <ele>2358.2</ele>
        <time>2021-02-27T08:42:40Z</time>
      </trkpt>
      <trkpt lat="45.19655" lon="5.98772">
        <ele>2358.4</ele>
        <time>2021-02-27T08:42:41Z</time>
      </trkpt>
      <trkpt lat="45.19655" lon="5.98772">
        <ele>2358.8</ele>
        <time>2021-02-27T08:42:42Z</time>
      </trkpt>
      <trkpt lat="45.19656" lon="5.98772">
        <ele>2358.8</ele>
        <time>2021-02-27T08:42:43Z</time>
      </trkpt>
      <trkpt lat="45.19656" lon="5.98771">
        <ele>2359.2</ele>
        <time>2021-02-27T08:42:44Z</time>
      </trkpt>
      <trkpt lat="45.19657" lon="5.98771">
        <ele>2359.8</ele>
        <time>2021-02-27T08:42:45Z</time>
      </trkpt>
      <trkpt lat="45.19658" lon="5.98771">
        <ele>2360</ele>
        <time>2021-02-27T08:42:46Z</time>
      </trkpt>
      <trkpt lat="45.19658" lon="5.98771">
        <ele>2360.6</ele>
        <time>2021-02-27T08:42:47Z</time>
      </trkpt>
      <trkpt lat="45.19659" lon="5.9877">
        <ele>2360.8</ele>
        <time>2021-02-27T08:42:48Z</time>
      </trkpt>
      <trkpt lat="45.19659" lon="5.9877">
        <ele>2361.2</ele>
        <time>2021-02-27T08:42:49Z</time>
      </trkpt>
      <trkpt lat="45.1966" lon="5.9877">
        <ele>2361.4</ele>
        <time>2021-02-27T08:42:50Z</time>
      </trkpt>
      <trkpt lat="45.1966" lon="5.9877">
        <ele>2361.8</ele>
        <time>2021-02-27T08:42:51Z</time>
      </trkpt>
      <trkpt lat="45.19662" lon="5.98768">
        <ele>2362.4</ele>
        <time>2021-02-27T08:42:52Z</time>
      </trkpt>
      <trkpt lat="45.19662" lon="5.98768">
        <ele>2362.4</ele>
        <time>2021-02-27T08:42:53Z</time>
      </trkpt>
      <trkpt lat="45.19663" lon="5.98767">
        <ele>2362.8</ele>
        <time>2021-02-27T08:42:54Z</time>
      </trkpt>
      <trkpt lat="45.19663" lon="5.98767">
        <ele>2363</ele>
        <time>2021-02-27T08:42:55Z</time>
      </trkpt>
      <trkpt lat="45.19665" lon="5.98765">
        <ele>2363.4</ele>
        <time>2021-02-27T08:42:56Z</time>
      </trkpt>
      <trkpt lat="45.19665" lon="5.98765">
        <ele>2363.6</ele>
        <time>2021-02-27T08:42:57Z</time>
      </trkpt>
      <trkpt lat="45.19665" lon="5.98765">
        <ele>2364.2</ele>
        <time>2021-02-27T08:42:58Z</time>
      </trkpt>
      <trkpt lat="45.19666" lon="5.98762">
        <ele>2364.2</ele>
        <time>2021-02-27T08:42:59Z</time>
      </trkpt>
      <trkpt lat="45.19666" lon="5.98762">
        <ele>2364.4</ele>
        <time>2021-02-27T08:43:00Z</time>
      </trkpt>
      <trkpt lat="45.19668" lon="5.9876">
        <ele>2364.8</ele>
        <time>2021-02-27T08:43:01Z</time>
      </trkpt>
      <trkpt lat="45.19668" lon="5.9876">
        <ele>2364.8</ele>
        <time>2021-02-27T08:43:02Z</time>
      </trkpt>
      <trkpt lat="45.19669" lon="5.98758">
        <ele>2365.2</ele>
        <time>2021-02-27T08:43:03Z</time>
      </trkpt>
      <trkpt lat="45.19669" lon="5.98758">
        <ele>2365.6</ele>
        <time>2021-02-27T08:43:04Z</time>
      </trkpt>
      <trkpt lat="45.19669" lon="5.98759">
        <ele>2366.4</ele>
        <time>2021-02-27T08:43:05Z</time>
      </trkpt>
      <trkpt lat="45.1967" lon="5.9876">
        <ele>2366</ele>
        <time>2021-02-27T08:43:06Z</time>
      </trkpt>
      <trkpt lat="45.1967" lon="5.98761">
        <ele>2366.8</ele>
        <time>2021-02-27T08:43:07Z</time>
      </trkpt>
      <trkpt lat="45.1967" lon="5.98762">
        <ele>2367</ele>
        <time>2021-02-27T08:43:08Z</time>
      </trkpt>
      <trkpt lat="45.1967" lon="5.98763">
        <ele>2367</ele>
        <time>2021-02-27T08:43:09Z</time>
      </trkpt>
      <trkpt lat="45.1967" lon="5.98764">
        <ele>2367.6</ele>
        <time>2021-02-27T08:43:10Z</time>
      </trkpt>
      <trkpt lat="45.19671" lon="5.98764">
        <ele>2367.6</ele>
        <time>2021-02-27T08:43:11Z</time>
      </trkpt>
      <trkpt lat="45.19671" lon="5.98765">
        <ele>2367.6</ele>
        <time>2021-02-27T08:43:12Z</time>
      </trkpt>
      <trkpt lat="45.19671" lon="5.98766">
        <ele>2368.6</ele>
        <time>2021-02-27T08:43:13Z</time>
      </trkpt>
      <trkpt lat="45.19671" lon="5.98767">
        <ele>2368.8</ele>
        <time>2021-02-27T08:43:14Z</time>
      </trkpt>
      <trkpt lat="45.19671" lon="5.98768">
        <ele>2368.8</ele>
        <time>2021-02-27T08:43:15Z</time>
      </trkpt>
      <trkpt lat="45.19671" lon="5.98769">
        <ele>2370</ele>
        <time>2021-02-27T08:43:16Z</time>
      </trkpt>
      <trkpt lat="45.19672" lon="5.9877">
        <ele>2370.4</ele>
        <time>2021-02-27T08:43:17Z</time>
      </trkpt>
      <trkpt lat="45.19672" lon="5.98771">
        <ele>2371</ele>
        <time>2021-02-27T08:43:18Z</time>
      </trkpt>
      <trkpt lat="45.19672" lon="5.98772">
        <ele>2372.2</ele>
        <time>2021-02-27T08:43:19Z</time>
      </trkpt>
      <trkpt lat="45.19672" lon="5.98773">
        <ele>2372.4</ele>
        <time>2021-02-27T08:43:20Z</time>
      </trkpt>
      <trkpt lat="45.19672" lon="5.98775">
        <ele>2372.4</ele>
        <time>2021-02-27T08:43:21Z</time>
      </trkpt>
      <trkpt lat="45.19672" lon="5.98776">
        <ele>2373.4</ele>
        <time>2021-02-27T08:43:22Z</time>
      </trkpt>
      <trkpt lat="45.19673" lon="5.98778">
        <ele>2373.6</ele>
        <time>2021-02-27T08:43:23Z</time>
      </trkpt>
      <trkpt lat="45.19673" lon="5.98779">
        <ele>2373.4</ele>
        <time>2021-02-27T08:43:24Z</time>
      </trkpt>
      <trkpt lat="45.19673" lon="5.9878">
        <ele>2373.8</ele>
        <time>2021-02-27T08:43:25Z</time>
      </trkpt>
      <trkpt lat="45.19673" lon="5.98782">
        <ele>2374</ele>
        <time>2021-02-27T08:43:26Z</time>
      </trkpt>
      <trkpt lat="45.19673" lon="5.98783">
        <ele>2374</ele>
        <time>2021-02-27T08:43:27Z</time>
      </trkpt>
      <trkpt lat="45.19673" lon="5.98783">
        <ele>2374</ele>
        <time>2021-02-27T08:43:28Z</time>
      </trkpt>
      <trkpt lat="45.19673" lon="5.98783">
        <ele>2374.2</ele>
        <time>2021-02-27T08:43:29Z</time>
      </trkpt>
      <trkpt lat="45.19676" lon="5.98782">
        <ele>2374.4</ele>
        <time>2021-02-27T08:43:30Z</time>
      </trkpt>
      <trkpt lat="45.19676" lon="5.98782">
        <ele>2374.4</ele>
        <time>2021-02-27T08:43:31Z</time>
      </trkpt>
      <trkpt lat="45.19678" lon="5.98781">
        <ele>2375</ele>
        <time>2021-02-27T08:43:32Z</time>
      </trkpt>
      <trkpt lat="45.19678" lon="5.98781">
        <ele>2374.6</ele>
        <time>2021-02-27T08:43:33Z</time>
      </trkpt>
      <trkpt lat="45.19679" lon="5.9878">
        <ele>2374.8</ele>
        <time>2021-02-27T08:43:34Z</time>
      </trkpt>
      <trkpt lat="45.19679" lon="5.9878">
        <ele>2375</ele>
        <time>2021-02-27T08:43:35Z</time>
      </trkpt>
      <trkpt lat="45.19679" lon="5.9878">
        <ele>2374.8</ele>
        <time>2021-02-27T08:43:36Z</time>
      </trkpt>
      <trkpt lat="45.19682" lon="5.98778">
        <ele>2374.8</ele>
        <time>2021-02-27T08:43:37Z</time>
      </trkpt>
      <trkpt lat="45.19682" lon="5.98778">
        <ele>2374.8</ele>
        <time>2021-02-27T08:43:38Z</time>
      </trkpt>
      <trkpt lat="45.19683" lon="5.98776">
        <ele>2375</ele>
        <time>2021-02-27T08:43:39Z</time>
      </trkpt>
      <trkpt lat="45.19683" lon="5.98776">
        <ele>2374.8</ele>
        <time>2021-02-27T08:43:40Z</time>
      </trkpt>
      <trkpt lat="45.19683" lon="5.98776">
        <ele>2375</ele>
        <time>2021-02-27T08:43:41Z</time>
      </trkpt>
      <trkpt lat="45.19685" lon="5.98774">
        <ele>2375.2</ele>
        <time>2021-02-27T08:43:42Z</time>
      </trkpt>
      <trkpt lat="45.19685" lon="5.98774">
        <ele>2375.4</ele>
        <time>2021-02-27T08:43:43Z</time>
      </trkpt>
      <trkpt lat="45.19685" lon="5.98774">
        <ele>2375.8</ele>
        <time>2021-02-27T08:43:44Z</time>
      </trkpt>
      <trkpt lat="45.19685" lon="5.98771">
        <ele>2376.2</ele>
        <time>2021-02-27T08:43:45Z</time>
      </trkpt>
      <trkpt lat="45.19685" lon="5.98771">
        <ele>2376.4</ele>
        <time>2021-02-27T08:43:46Z</time>
      </trkpt>
      <trkpt lat="45.19687" lon="5.9877">
        <ele>2376.6</ele>
        <time>2021-02-27T08:43:47Z</time>
      </trkpt>
      <trkpt lat="45.19687" lon="5.9877">
        <ele>2377</ele>
        <time>2021-02-27T08:43:48Z</time>
      </trkpt>
      <trkpt lat="45.19687" lon="5.9877">
        <ele>2377.6</ele>
        <time>2021-02-27T08:43:49Z</time>
      </trkpt>
      <trkpt lat="45.19687" lon="5.9877">
        <ele>2377.8</ele>
        <time>2021-02-27T08:43:50Z</time>
      </trkpt>
      <trkpt lat="45.19687" lon="5.9877">
        <ele>2377.4</ele>
        <time>2021-02-27T08:43:51Z</time>
      </trkpt>
      <trkpt lat="45.19687" lon="5.98773">
        <ele>2378</ele>
        <time>2021-02-27T08:43:52Z</time>
      </trkpt>
      <trkpt lat="45.19687" lon="5.98773">
        <ele>2378.4</ele>
        <time>2021-02-27T08:43:53Z</time>
      </trkpt>
      <trkpt lat="45.19687" lon="5.98775">
        <ele>2378.6</ele>
        <time>2021-02-27T08:43:54Z</time>
      </trkpt>
      <trkpt lat="45.19688" lon="5.98776">
        <ele>2378.8</ele>
        <time>2021-02-27T08:43:55Z</time>
      </trkpt>
      <trkpt lat="45.19688" lon="5.98777">
        <ele>2378.8</ele>
        <time>2021-02-27T08:43:56Z</time>
      </trkpt>
      <trkpt lat="45.19688" lon="5.98779">
        <ele>2379</ele>
        <time>2021-02-27T08:43:57Z</time>
      </trkpt>
      <trkpt lat="45.19688" lon="5.9878">
        <ele>2379.4</ele>
        <time>2021-02-27T08:43:58Z</time>
      </trkpt>
      <trkpt lat="45.19689" lon="5.98781">
        <ele>2379.6</ele>
        <time>2021-02-27T08:43:59Z</time>
      </trkpt>
      <trkpt lat="45.19689" lon="5.98781">
        <ele>2379.8</ele>
        <time>2021-02-27T08:44:00Z</time>
      </trkpt>
      <trkpt lat="45.1969" lon="5.98785">
        <ele>2380.4</ele>
        <time>2021-02-27T08:44:01Z</time>
      </trkpt>
      <trkpt lat="45.1969" lon="5.98785">
        <ele>2380.8</ele>
        <time>2021-02-27T08:44:02Z</time>
      </trkpt>
      <trkpt lat="45.1969" lon="5.98785">
        <ele>2381.2</ele>
        <time>2021-02-27T08:44:03Z</time>
      </trkpt>
      <trkpt lat="45.19691" lon="5.98787">
        <ele>2381.8</ele>
        <time>2021-02-27T08:44:04Z</time>
      </trkpt>
      <trkpt lat="45.19691" lon="5.98787">
        <ele>2382</ele>
        <time>2021-02-27T08:44:05Z</time>
      </trkpt>
      <trkpt lat="45.19691" lon="5.98787">
        <ele>2382.4</ele>
        <time>2021-02-27T08:44:06Z</time>
      </trkpt>
      <trkpt lat="45.19693" lon="5.98787">
        <ele>2382.6</ele>
        <time>2021-02-27T08:44:07Z</time>
      </trkpt>
      <trkpt lat="45.19693" lon="5.98787">
        <ele>2383</ele>
        <time>2021-02-27T08:44:08Z</time>
      </trkpt>
      <trkpt lat="45.19693" lon="5.98787">
        <ele>2383</ele>
        <time>2021-02-27T08:44:09Z</time>
      </trkpt>
      <trkpt lat="45.19695" lon="5.98785">
        <ele>2383.6</ele>
        <time>2021-02-27T08:44:10Z</time>
      </trkpt>
      <trkpt lat="45.19695" lon="5.98785">
        <ele>2383.6</ele>
        <time>2021-02-27T08:44:11Z</time>
      </trkpt>
      <trkpt lat="45.19695" lon="5.98785">
        <ele>2384</ele>
        <time>2021-02-27T08:44:12Z</time>
      </trkpt>
      <trkpt lat="45.19697" lon="5.98783">
        <ele>2384.4</ele>
        <time>2021-02-27T08:44:13Z</time>
      </trkpt>
      <trkpt lat="45.19697" lon="5.98783">
        <ele>2384.6</ele>
        <time>2021-02-27T08:44:14Z</time>
      </trkpt>
      <trkpt lat="45.19699" lon="5.98781">
        <ele>2385</ele>
        <time>2021-02-27T08:44:15Z</time>
      </trkpt>
      <trkpt lat="45.19699" lon="5.98781">
        <ele>2385.4</ele>
        <time>2021-02-27T08:44:16Z</time>
      </trkpt>
      <trkpt lat="45.19699" lon="5.98781">
        <ele>2385.8</ele>
        <time>2021-02-27T08:44:17Z</time>
      </trkpt>
      <trkpt lat="45.197" lon="5.98777">
        <ele>2386.2</ele>
        <time>2021-02-27T08:44:18Z</time>
      </trkpt>
      <trkpt lat="45.197" lon="5.98777">
        <ele>2386.8</ele>
        <time>2021-02-27T08:44:19Z</time>
      </trkpt>
      <trkpt lat="45.197" lon="5.98778">
        <ele>2387.2</ele>
        <time>2021-02-27T08:44:20Z</time>
      </trkpt>
      <trkpt lat="45.197" lon="5.98778">
        <ele>2387.4</ele>
        <time>2021-02-27T08:44:21Z</time>
      </trkpt>
      <trkpt lat="45.19701" lon="5.98779">
        <ele>2388.2</ele>
        <time>2021-02-27T08:44:22Z</time>
      </trkpt>
      <trkpt lat="45.19701" lon="5.98779">
        <ele>2388.2</ele>
        <time>2021-02-27T08:44:23Z</time>
      </trkpt>
      <trkpt lat="45.19701" lon="5.9878">
        <ele>2387.8</ele>
        <time>2021-02-27T08:44:24Z</time>
      </trkpt>
      <trkpt lat="45.19701" lon="5.9878">
        <ele>2387.8</ele>
        <time>2021-02-27T08:44:25Z</time>
      </trkpt>
      <trkpt lat="45.19701" lon="5.98781">
        <ele>2387.6</ele>
        <time>2021-02-27T08:44:26Z</time>
      </trkpt>
      <trkpt lat="45.19701" lon="5.98782">
        <ele>2387.4</ele>
        <time>2021-02-27T08:44:27Z</time>
      </trkpt>
      <trkpt lat="45.19701" lon="5.98782">
        <ele>2387.8</ele>
        <time>2021-02-27T08:44:28Z</time>
      </trkpt>
      <trkpt lat="45.19701" lon="5.98783">
        <ele>2387.8</ele>
        <time>2021-02-27T08:44:29Z</time>
      </trkpt>
      <trkpt lat="45.19701" lon="5.98783">
        <ele>2388.2</ele>
        <time>2021-02-27T08:44:30Z</time>
      </trkpt>
      <trkpt lat="45.19701" lon="5.98784">
        <ele>2389.2</ele>
        <time>2021-02-27T08:44:31Z</time>
      </trkpt>
      <trkpt lat="45.19702" lon="5.98787">
        <ele>2389.8</ele>
        <time>2021-02-27T08:44:32Z</time>
      </trkpt>
      <trkpt lat="45.19702" lon="5.98787">
        <ele>2390.6</ele>
        <time>2021-02-27T08:44:33Z</time>
      </trkpt>
      <trkpt lat="45.19703" lon="5.98787">
        <ele>2391.4</ele>
        <time>2021-02-27T08:44:34Z</time>
      </trkpt>
      <trkpt lat="45.19704" lon="5.98788">
        <ele>2392</ele>
        <time>2021-02-27T08:44:35Z</time>
      </trkpt>
      <trkpt lat="45.19704" lon="5.98788">
        <ele>2393</ele>
        <time>2021-02-27T08:44:36Z</time>
      </trkpt>
      <trkpt lat="45.19705" lon="5.98789">
        <ele>2393.2</ele>
        <time>2021-02-27T08:44:37Z</time>
      </trkpt>
      <trkpt lat="45.19706" lon="5.98789">
        <ele>2392.8</ele>
        <time>2021-02-27T08:44:38Z</time>
      </trkpt>
      <trkpt lat="45.19707" lon="5.9879">
        <ele>2393</ele>
        <time>2021-02-27T08:44:39Z</time>
      </trkpt>
      <trkpt lat="45.19707" lon="5.98791">
        <ele>2393.2</ele>
        <time>2021-02-27T08:44:40Z</time>
      </trkpt>
      <trkpt lat="45.19708" lon="5.98791">
        <ele>2393</ele>
        <time>2021-02-27T08:44:41Z</time>
      </trkpt>
      <trkpt lat="45.19709" lon="5.98792">
        <ele>2392.6</ele>
        <time>2021-02-27T08:44:42Z</time>
      </trkpt>
      <trkpt lat="45.19709" lon="5.98792">
        <ele>2392.8</ele>
        <time>2021-02-27T08:44:43Z</time>
      </trkpt>
      <trkpt lat="45.1971" lon="5.98793">
        <ele>2393</ele>
        <time>2021-02-27T08:44:44Z</time>
      </trkpt>
      <trkpt lat="45.1971" lon="5.98793">
        <ele>2393.2</ele>
        <time>2021-02-27T08:44:45Z</time>
      </trkpt>
      <trkpt lat="45.1971" lon="5.98793">
        <ele>2393.2</ele>
        <time>2021-02-27T08:44:46Z</time>
      </trkpt>
      <trkpt lat="45.1971" lon="5.98793">
        <ele>2393.4</ele>
        <time>2021-02-27T08:44:47Z</time>
      </trkpt>
      <trkpt lat="45.19712" lon="5.9879">
        <ele>2394.4</ele>
        <time>2021-02-27T08:44:48Z</time>
      </trkpt>
      <trkpt lat="45.19712" lon="5.9879">
        <ele>2394.8</ele>
        <time>2021-02-27T08:44:49Z</time>
      </trkpt>
      <trkpt lat="45.19712" lon="5.9879">
        <ele>2395.2</ele>
        <time>2021-02-27T08:44:50Z</time>
      </trkpt>
      <trkpt lat="45.19713" lon="5.98788">
        <ele>2395.4</ele>
        <time>2021-02-27T08:44:51Z</time>
      </trkpt>
      <trkpt lat="45.19713" lon="5.98788">
        <ele>2396</ele>
        <time>2021-02-27T08:44:52Z</time>
      </trkpt>
      <trkpt lat="45.19714" lon="5.98786">
        <ele>2397</ele>
        <time>2021-02-27T08:44:53Z</time>
      </trkpt>
      <trkpt lat="45.19714" lon="5.98786">
        <ele>2397.2</ele>
        <time>2021-02-27T08:44:54Z</time>
      </trkpt>
      <trkpt lat="45.19714" lon="5.98786">
        <ele>2397.4</ele>
        <time>2021-02-27T08:44:55Z</time>
      </trkpt>
      <trkpt lat="45.19715" lon="5.98783">
        <ele>2397.6</ele>
        <time>2021-02-27T08:44:56Z</time>
      </trkpt>
      <trkpt lat="45.19715" lon="5.98783">
        <ele>2398.2</ele>
        <time>2021-02-27T08:44:57Z</time>
      </trkpt>
      <trkpt lat="45.19715" lon="5.98783">
        <ele>2398.2</ele>
        <time>2021-02-27T08:44:58Z</time>
      </trkpt>
      <trkpt lat="45.19715" lon="5.98783">
        <ele>2398.2</ele>
        <time>2021-02-27T08:44:59Z</time>
      </trkpt>
      <trkpt lat="45.19717" lon="5.98782">
        <ele>2398.6</ele>
        <time>2021-02-27T08:45:00Z</time>
      </trkpt>
      <trkpt lat="45.19717" lon="5.98782">
        <ele>2398.8</ele>
        <time>2021-02-27T08:45:01Z</time>
      </trkpt>
      <trkpt lat="45.19717" lon="5.98782">
        <ele>2399.2</ele>
        <time>2021-02-27T08:45:02Z</time>
      </trkpt>
      <trkpt lat="45.19717" lon="5.98782">
        <ele>2399.2</ele>
        <time>2021-02-27T08:45:03Z</time>
      </trkpt>
      <trkpt lat="45.19717" lon="5.98782">
        <ele>2399</ele>
        <time>2021-02-27T08:45:04Z</time>
      </trkpt>
      <trkpt lat="45.19717" lon="5.98785">
        <ele>2399</ele>
        <time>2021-02-27T08:45:05Z</time>
      </trkpt>
      <trkpt lat="45.19717" lon="5.98785">
        <ele>2399</ele>
        <time>2021-02-27T08:45:06Z</time>
      </trkpt>
      <trkpt lat="45.19717" lon="5.98785">
        <ele>2399.2</ele>
        <time>2021-02-27T08:45:07Z</time>
      </trkpt>
      <trkpt lat="45.19718" lon="5.98788">
        <ele>2399.2</ele>
        <time>2021-02-27T08:45:08Z</time>
      </trkpt>
      <trkpt lat="45.19718" lon="5.98788">
        <ele>2399.4</ele>
        <time>2021-02-27T08:45:09Z</time>
      </trkpt>
      <trkpt lat="45.19718" lon="5.98789">
        <ele>2399.4</ele>
        <time>2021-02-27T08:45:10Z</time>
      </trkpt>
      <trkpt lat="45.19719" lon="5.9879">
        <ele>2399.6</ele>
        <time>2021-02-27T08:45:11Z</time>
      </trkpt>
      <trkpt lat="45.19719" lon="5.98791">
        <ele>2400</ele>
        <time>2021-02-27T08:45:12Z</time>
      </trkpt>
      <trkpt lat="45.1972" lon="5.98792">
        <ele>2400</ele>
        <time>2021-02-27T08:45:13Z</time>
      </trkpt>
      <trkpt lat="45.1972" lon="5.98793">
        <ele>2400.2</ele>
        <time>2021-02-27T08:45:14Z</time>
      </trkpt>
      <trkpt lat="45.19721" lon="5.98794">
        <ele>2401.4</ele>
        <time>2021-02-27T08:45:15Z</time>
      </trkpt>
      <trkpt lat="45.19722" lon="5.98794">
        <ele>2401.4</ele>
        <time>2021-02-27T08:45:16Z</time>
      </trkpt>
      <trkpt lat="45.19722" lon="5.98795">
        <ele>2401.8</ele>
        <time>2021-02-27T08:45:17Z</time>
      </trkpt>
      <trkpt lat="45.19723" lon="5.98796">
        <ele>2402.6</ele>
        <time>2021-02-27T08:45:18Z</time>
      </trkpt>
      <trkpt lat="45.19723" lon="5.98797">
        <ele>2403</ele>
        <time>2021-02-27T08:45:19Z</time>
      </trkpt>
      <trkpt lat="45.19724" lon="5.98798">
        <ele>2402.8</ele>
        <time>2021-02-27T08:45:20Z</time>
      </trkpt>
      <trkpt lat="45.19724" lon="5.98798">
        <ele>2404.2</ele>
        <time>2021-02-27T08:45:21Z</time>
      </trkpt>
      <trkpt lat="45.19724" lon="5.98798">
        <ele>2403.6</ele>
        <time>2021-02-27T08:45:22Z</time>
      </trkpt>
      <trkpt lat="45.19724" lon="5.98798">
        <ele>2403.8</ele>
        <time>2021-02-27T08:45:23Z</time>
      </trkpt>
      <trkpt lat="45.19724" lon="5.98798">
        <ele>2404.4</ele>
        <time>2021-02-27T08:45:24Z</time>
      </trkpt>
      <trkpt lat="45.19727" lon="5.988">
        <ele>2405</ele>
        <time>2021-02-27T08:45:25Z</time>
      </trkpt>
      <trkpt lat="45.19727" lon="5.988">
        <ele>2404.4</ele>
        <time>2021-02-27T08:45:26Z</time>
      </trkpt>
      <trkpt lat="45.19727" lon="5.988">
        <ele>2404.2</ele>
        <time>2021-02-27T08:45:27Z</time>
      </trkpt>
      <trkpt lat="45.19729" lon="5.98801">
        <ele>2404</ele>
        <time>2021-02-27T08:45:28Z</time>
      </trkpt>
      <trkpt lat="45.19729" lon="5.98801">
        <ele>2404.2</ele>
        <time>2021-02-27T08:45:29Z</time>
      </trkpt>
      <trkpt lat="45.1973" lon="5.98804">
        <ele>2404.8</ele>
        <time>2021-02-27T08:45:30Z</time>
      </trkpt>
      <trkpt lat="45.1973" lon="5.98804">
        <ele>2404.6</ele>
        <time>2021-02-27T08:45:31Z</time>
      </trkpt>
      <trkpt lat="45.19731" lon="5.98807">
        <ele>2404</ele>
        <time>2021-02-27T08:45:32Z</time>
      </trkpt>
      <trkpt lat="45.19732" lon="5.98809">
        <ele>2403.4</ele>
        <time>2021-02-27T08:45:33Z</time>
      </trkpt>
      <trkpt lat="45.19732" lon="5.98812">
        <ele>2404</ele>
        <time>2021-02-27T08:45:34Z</time>
      </trkpt>
      <trkpt lat="45.19733" lon="5.98814">
        <ele>2403.8</ele>
        <time>2021-02-27T08:45:35Z</time>
      </trkpt>
      <trkpt lat="45.19734" lon="5.98817">
        <ele>2403.4</ele>
        <time>2021-02-27T08:45:36Z</time>
      </trkpt>
      <trkpt lat="45.19735" lon="5.98819">
        <ele>2403.2</ele>
        <time>2021-02-27T08:45:37Z</time>
      </trkpt>
      <trkpt lat="45.19736" lon="5.98821">
        <ele>2403</ele>
        <time>2021-02-27T08:45:38Z</time>
      </trkpt>
      <trkpt lat="45.19736" lon="5.98823">
        <ele>2402.4</ele>
        <time>2021-02-27T08:45:39Z</time>
      </trkpt>
      <trkpt lat="45.19737" lon="5.98825">
        <ele>2402.2</ele>
        <time>2021-02-27T08:45:40Z</time>
      </trkpt>
      <trkpt lat="45.19738" lon="5.98827">
        <ele>2402.2</ele>
        <time>2021-02-27T08:45:41Z</time>
      </trkpt>
      <trkpt lat="45.19739" lon="5.9883">
        <ele>2401.8</ele>
        <time>2021-02-27T08:45:42Z</time>
      </trkpt>
      <trkpt lat="45.19739" lon="5.98833">
        <ele>2401.6</ele>
        <time>2021-02-27T08:45:43Z</time>
      </trkpt>
      <trkpt lat="45.19739" lon="5.98836">
        <ele>2401.4</ele>
        <time>2021-02-27T08:45:44Z</time>
      </trkpt>
      <trkpt lat="45.19739" lon="5.98839">
        <ele>2401.6</ele>
        <time>2021-02-27T08:45:45Z</time>
      </trkpt>
      <trkpt lat="45.19739" lon="5.98843">
        <ele>2401.4</ele>
        <time>2021-02-27T08:45:46Z</time>
      </trkpt>
      <trkpt lat="45.1974" lon="5.98846">
        <ele>2401.2</ele>
        <time>2021-02-27T08:45:47Z</time>
      </trkpt>
      <trkpt lat="45.19741" lon="5.9885">
        <ele>2401</ele>
        <time>2021-02-27T08:45:48Z</time>
      </trkpt>
      <trkpt lat="45.19742" lon="5.98855">
        <ele>2401</ele>
        <time>2021-02-27T08:45:49Z</time>
      </trkpt>
      <trkpt lat="45.19743" lon="5.98859">
        <ele>2401.4</ele>
        <time>2021-02-27T08:45:50Z</time>
      </trkpt>
      <trkpt lat="45.19744" lon="5.98863">
        <ele>2401.4</ele>
        <time>2021-02-27T08:45:51Z</time>
      </trkpt>
      <trkpt lat="45.19745" lon="5.98867">
        <ele>2401.2</ele>
        <time>2021-02-27T08:45:52Z</time>
      </trkpt>
      <trkpt lat="45.19746" lon="5.98871">
        <ele>2400.6</ele>
        <time>2021-02-27T08:45:53Z</time>
      </trkpt>
      <trkpt lat="45.19746" lon="5.98874">
        <ele>2400</ele>
        <time>2021-02-27T08:45:54Z</time>
      </trkpt>
      <trkpt lat="45.19746" lon="5.98874">
        <ele>2399.6</ele>
        <time>2021-02-27T08:45:55Z</time>
      </trkpt>
      <trkpt lat="45.19747" lon="5.98878">
        <ele>2398.8</ele>
        <time>2021-02-27T08:45:56Z</time>
      </trkpt>
      <trkpt lat="45.19747" lon="5.98878">
        <ele>2398.8</ele>
        <time>2021-02-27T08:45:57Z</time>
      </trkpt>
      <trkpt lat="45.19746" lon="5.98882">
        <ele>2399.2</ele>
        <time>2021-02-27T08:45:58Z</time>
      </trkpt>
      <trkpt lat="45.19746" lon="5.98882">
        <ele>2399.6</ele>
        <time>2021-02-27T08:45:59Z</time>
      </trkpt>
      <trkpt lat="45.19747" lon="5.98886">
        <ele>2399.4</ele>
        <time>2021-02-27T08:46:00Z</time>
      </trkpt>
      <trkpt lat="45.19747" lon="5.98886">
        <ele>2399.4</ele>
        <time>2021-02-27T08:46:01Z</time>
      </trkpt>
      <trkpt lat="45.19748" lon="5.98889">
        <ele>2399.2</ele>
        <time>2021-02-27T08:46:02Z</time>
      </trkpt>
      <trkpt lat="45.19748" lon="5.98889">
        <ele>2399.6</ele>
        <time>2021-02-27T08:46:03Z</time>
      </trkpt>
      <trkpt lat="45.19749" lon="5.98893">
        <ele>2399.8</ele>
        <time>2021-02-27T08:46:04Z</time>
      </trkpt>
      <trkpt lat="45.19749" lon="5.98893">
        <ele>2399.8</ele>
        <time>2021-02-27T08:46:05Z</time>
      </trkpt>
      <trkpt lat="45.19749" lon="5.98895">
        <ele>2399.4</ele>
        <time>2021-02-27T08:46:06Z</time>
      </trkpt>
      <trkpt lat="45.19749" lon="5.98895">
        <ele>2399.4</ele>
        <time>2021-02-27T08:46:07Z</time>
      </trkpt>
      <trkpt lat="45.19749" lon="5.98895">
        <ele>2399.6</ele>
        <time>2021-02-27T08:46:08Z</time>
      </trkpt>
      <trkpt lat="45.19749" lon="5.98895">
        <ele>2399.6</ele>
        <time>2021-02-27T08:46:09Z</time>
      </trkpt>
      <trkpt lat="45.19749" lon="5.98898">
        <ele>2399.6</ele>
        <time>2021-02-27T08:46:10Z</time>
      </trkpt>
      <trkpt lat="45.19749" lon="5.98898">
        <ele>2399.6</ele>
        <time>2021-02-27T08:46:11Z</time>
      </trkpt>
      <trkpt lat="45.19749" lon="5.98902">
        <ele>2399.8</ele>
        <time>2021-02-27T08:46:12Z</time>
      </trkpt>
      <trkpt lat="45.19749" lon="5.98902">
        <ele>2400</ele>
        <time>2021-02-27T08:46:13Z</time>
      </trkpt>
      <trkpt lat="45.19749" lon="5.98902">
        <ele>2400</ele>
        <time>2021-02-27T08:46:14Z</time>
      </trkpt>
      <trkpt lat="45.19749" lon="5.98902">
        <ele>2399.8</ele>
        <time>2021-02-27T08:46:15Z</time>
      </trkpt>
      <trkpt lat="45.19749" lon="5.98902">
        <ele>2400</ele>
        <time>2021-02-27T08:46:16Z</time>
      </trkpt>
      <trkpt lat="45.19749" lon="5.98902">
        <ele>2400</ele>
        <time>2021-02-27T08:46:17Z</time>
      </trkpt>
      <trkpt lat="45.19749" lon="5.98902">
        <ele>2400</ele>
        <time>2021-02-27T08:46:18Z</time>
      </trkpt>
      <trkpt lat="45.19749" lon="5.98902">
        <ele>2400</ele>
        <time>2021-02-27T08:46:19Z</time>
      </trkpt>
      <trkpt lat="45.19749" lon="5.98902">
        <ele>2400.2</ele>
        <time>2021-02-27T08:46:20Z</time>
      </trkpt>
      <trkpt lat="45.19749" lon="5.98902">
        <ele>2400</ele>
        <time>2021-02-27T08:46:21Z</time>
      </trkpt>
      <trkpt lat="45.19749" lon="5.98902">
        <ele>2400.6</ele>
        <time>2021-02-27T08:46:22Z</time>
      </trkpt>
      <trkpt lat="45.19749" lon="5.98902">
        <ele>2400.6</ele>
        <time>2021-02-27T08:46:23Z</time>
      </trkpt>
      <trkpt lat="45.19749" lon="5.98902">
        <ele>2400.4</ele>
        <time>2021-02-27T08:46:24Z</time>
      </trkpt>
      <trkpt lat="45.19747" lon="5.98904">
        <ele>2400.2</ele>
        <time>2021-02-27T08:46:25Z</time>
      </trkpt>
      <trkpt lat="45.19747" lon="5.98904">
        <ele>2400.2</ele>
        <time>2021-02-27T08:46:26Z</time>
      </trkpt>
      <trkpt lat="45.19747" lon="5.98904">
        <ele>2400.2</ele>
        <time>2021-02-27T08:46:27Z</time>
      </trkpt>
      <trkpt lat="45.19747" lon="5.98904">
        <ele>2399.6</ele>
        <time>2021-02-27T08:46:28Z</time>
      </trkpt>
      <trkpt lat="45.19747" lon="5.98904">
        <ele>2399.4</ele>
        <time>2021-02-27T08:46:29Z</time>
      </trkpt>
      <trkpt lat="45.19747" lon="5.98904">
        <ele>2399</ele>
        <time>2021-02-27T08:46:30Z</time>
      </trkpt>
      <trkpt lat="45.19747" lon="5.98904">
        <ele>2398.8</ele>
        <time>2021-02-27T08:46:31Z</time>
      </trkpt>
      <trkpt lat="45.19747" lon="5.98904">
        <ele>2398.6</ele>
        <time>2021-02-27T08:46:32Z</time>
      </trkpt>
      <trkpt lat="45.19747" lon="5.98904">
        <ele>2398.6</ele>
        <time>2021-02-27T08:46:33Z</time>
      </trkpt>
      <trkpt lat="45.19747" lon="5.98904">
        <ele>2398.6</ele>
        <time>2021-02-27T08:46:34Z</time>
      </trkpt>
      <trkpt lat="45.19747" lon="5.98904">
        <ele>2398.4</ele>
        <time>2021-02-27T08:46:35Z</time>
      </trkpt>
      <trkpt lat="45.19749" lon="5.98902">
        <ele>2398.6</ele>
        <time>2021-02-27T08:46:36Z</time>
      </trkpt>
      <trkpt lat="45.19749" lon="5.98902">
        <ele>2398.8</ele>
        <time>2021-02-27T08:46:37Z</time>
      </trkpt>
      <trkpt lat="45.19749" lon="5.98902">
        <ele>2399.2</ele>
        <time>2021-02-27T08:46:38Z</time>
      </trkpt>
      <trkpt lat="45.19749" lon="5.98902">
        <ele>2399.6</ele>
        <time>2021-02-27T08:46:39Z</time>
      </trkpt>
      <trkpt lat="45.19749" lon="5.98902">
        <ele>2400</ele>
        <time>2021-02-27T08:46:40Z</time>
      </trkpt>
      <trkpt lat="45.19749" lon="5.98902">
        <ele>2400.2</ele>
        <time>2021-02-27T08:46:41Z</time>
      </trkpt>
      <trkpt lat="45.19749" lon="5.98902">
        <ele>2400.2</ele>
        <time>2021-02-27T08:46:42Z</time>
      </trkpt>
      <trkpt lat="45.19749" lon="5.98902">
        <ele>2400.4</ele>
        <time>2021-02-27T08:46:43Z</time>
      </trkpt>
      <trkpt lat="45.19749" lon="5.98902">
        <ele>2400.4</ele>
        <time>2021-02-27T08:46:44Z</time>
      </trkpt>
      <trkpt lat="45.19749" lon="5.98902">
        <ele>2400.2</ele>
        <time>2021-02-27T08:46:45Z</time>
      </trkpt>
      <trkpt lat="45.19749" lon="5.98902">
        <ele>2399.8</ele>
        <time>2021-02-27T08:46:46Z</time>
      </trkpt>
      <trkpt lat="45.19749" lon="5.98902">
        <ele>2399.4</ele>
        <time>2021-02-27T08:46:47Z</time>
      </trkpt>
      <trkpt lat="45.19749" lon="5.98902">
        <ele>2399.4</ele>
        <time>2021-02-27T08:46:48Z</time>
      </trkpt>
      <trkpt lat="45.19749" lon="5.98902">
        <ele>2399.6</ele>
        <time>2021-02-27T08:46:49Z</time>
      </trkpt>
      <trkpt lat="45.19749" lon="5.98902">
        <ele>2400</ele>
        <time>2021-02-27T08:46:50Z</time>
      </trkpt>
      <trkpt lat="45.19749" lon="5.98902">
        <ele>2400.2</ele>
        <time>2021-02-27T08:46:51Z</time>
      </trkpt>
      <trkpt lat="45.19749" lon="5.98902">
        <ele>2400.8</ele>
        <time>2021-02-27T08:46:52Z</time>
      </trkpt>
      <trkpt lat="45.19749" lon="5.98902">
        <ele>2401</ele>
        <time>2021-02-27T08:46:53Z</time>
      </trkpt>
      <trkpt lat="45.19749" lon="5.98902">
        <ele>2401.2</ele>
        <time>2021-02-27T08:46:54Z</time>
      </trkpt>
      <trkpt lat="45.19749" lon="5.98902">
        <ele>2401.4</ele>
        <time>2021-02-27T08:46:55Z</time>
      </trkpt>
      <trkpt lat="45.19748" lon="5.98904">
        <ele>2401.4</ele>
        <time>2021-02-27T08:46:56Z</time>
      </trkpt>
      <trkpt lat="45.19748" lon="5.98904">
        <ele>2401.4</ele>
        <time>2021-02-27T08:46:57Z</time>
      </trkpt>
      <trkpt lat="45.19748" lon="5.98904">
        <ele>2401.4</ele>
        <time>2021-02-27T08:46:58Z</time>
      </trkpt>
      <trkpt lat="45.19748" lon="5.98904">
        <ele>2401.6</ele>
        <time>2021-02-27T08:46:59Z</time>
      </trkpt>
      <trkpt lat="45.19748" lon="5.98904">
        <ele>2401.6</ele>
        <time>2021-02-27T08:47:00Z</time>
      </trkpt>
      <trkpt lat="45.19748" lon="5.98904">
        <ele>2401.8</ele>
        <time>2021-02-27T08:47:01Z</time>
      </trkpt>
      <trkpt lat="45.19748" lon="5.98904">
        <ele>2401.2</ele>
        <time>2021-02-27T08:47:02Z</time>
      </trkpt>
      <trkpt lat="45.19748" lon="5.98904">
        <ele>2401</ele>
        <time>2021-02-27T08:47:03Z</time>
      </trkpt>
      <trkpt lat="45.19748" lon="5.98904">
        <ele>2400.6</ele>
        <time>2021-02-27T08:47:04Z</time>
      </trkpt>
      <trkpt lat="45.19748" lon="5.98904">
        <ele>2401</ele>
        <time>2021-02-27T08:47:05Z</time>
      </trkpt>
      <trkpt lat="45.19748" lon="5.98904">
        <ele>2401</ele>
        <time>2021-02-27T08:47:06Z</time>
      </trkpt>
      <trkpt lat="45.19747" lon="5.98907">
        <ele>2401.6</ele>
        <time>2021-02-27T08:47:07Z</time>
      </trkpt>
      <trkpt lat="45.19747" lon="5.98907">
        <ele>2401.6</ele>
        <time>2021-02-27T08:47:08Z</time>
      </trkpt>
      <trkpt lat="45.19748" lon="5.98911">
        <ele>2401.6</ele>
        <time>2021-02-27T08:47:09Z</time>
      </trkpt>
      <trkpt lat="45.19749" lon="5.98914">
        <ele>2401.2</ele>
        <time>2021-02-27T08:47:10Z</time>
      </trkpt>
      <trkpt lat="45.1975" lon="5.98919">
        <ele>2400.6</ele>
        <time>2021-02-27T08:47:11Z</time>
      </trkpt>
      <trkpt lat="45.1975" lon="5.98924">
        <ele>2400.6</ele>
        <time>2021-02-27T08:47:12Z</time>
      </trkpt>
      <trkpt lat="45.1975" lon="5.98931">
        <ele>2399.6</ele>
        <time>2021-02-27T08:47:13Z</time>
      </trkpt>
      <trkpt lat="45.1975" lon="5.98937">
        <ele>2399.2</ele>
        <time>2021-02-27T08:47:14Z</time>
      </trkpt>
      <trkpt lat="45.1975" lon="5.98937">
        <ele>2398.8</ele>
        <time>2021-02-27T08:47:15Z</time>
      </trkpt>
      <trkpt lat="45.19752" lon="5.98956">
        <ele>2397.6</ele>
        <time>2021-02-27T08:47:16Z</time>
      </trkpt>
      <trkpt lat="45.19752" lon="5.9896">
        <ele>2396.6</ele>
        <time>2021-02-27T08:47:17Z</time>
      </trkpt>
      <trkpt lat="45.19753" lon="5.98967">
        <ele>2396.4</ele>
        <time>2021-02-27T08:47:18Z</time>
      </trkpt>
      <trkpt lat="45.19753" lon="5.98973">
        <ele>2396</ele>
        <time>2021-02-27T08:47:19Z</time>
      </trkpt>
      <trkpt lat="45.19753" lon="5.98973">
        <ele>2396.2</ele>
        <time>2021-02-27T08:47:20Z</time>
      </trkpt>
      <trkpt lat="45.19753" lon="5.98978">
        <ele>2396.2</ele>
        <time>2021-02-27T08:47:21Z</time>
      </trkpt>
      <trkpt lat="45.19754" lon="5.98983">
        <ele>2396</ele>
        <time>2021-02-27T08:47:22Z</time>
      </trkpt>
      <trkpt lat="45.19754" lon="5.98988">
        <ele>2395.8</ele>
        <time>2021-02-27T08:47:23Z</time>
      </trkpt>
      <trkpt lat="45.19755" lon="5.98997">
        <ele>2396</ele>
        <time>2021-02-27T08:47:24Z</time>
      </trkpt>
      <trkpt lat="45.19756" lon="5.99005">
        <ele>2396</ele>
        <time>2021-02-27T08:47:25Z</time>
      </trkpt>
      <trkpt lat="45.19757" lon="5.99013">
        <ele>2395.8</ele>
        <time>2021-02-27T08:47:26Z</time>
      </trkpt>
      <trkpt lat="45.19758" lon="5.99017">
        <ele>2395.2</ele>
        <time>2021-02-27T08:47:27Z</time>
      </trkpt>
      <trkpt lat="45.19764" lon="5.99044">
        <ele>2394.4</ele>
        <time>2021-02-27T08:47:28Z</time>
      </trkpt>
      <trkpt lat="45.19764" lon="5.99047">
        <ele>2393.2</ele>
        <time>2021-02-27T08:47:29Z</time>
      </trkpt>
      <trkpt lat="45.19766" lon="5.99053">
        <ele>2391.4</ele>
        <time>2021-02-27T08:47:30Z</time>
      </trkpt>
      <trkpt lat="45.19776" lon="5.99075">
        <ele>2389.2</ele>
        <time>2021-02-27T08:47:31Z</time>
      </trkpt>
      <trkpt lat="45.19778" lon="5.99077">
        <ele>2389</ele>
        <time>2021-02-27T08:47:32Z</time>
      </trkpt>
      <trkpt lat="45.19782" lon="5.99083">
        <ele>2388</ele>
        <time>2021-02-27T08:47:33Z</time>
      </trkpt>
      <trkpt lat="45.19782" lon="5.99083">
        <ele>2388.6</ele>
        <time>2021-02-27T08:47:34Z</time>
      </trkpt>
      <trkpt lat="45.19784" lon="5.99086">
        <ele>2388</ele>
        <time>2021-02-27T08:47:35Z</time>
      </trkpt>
      <trkpt lat="45.19787" lon="5.99089">
        <ele>2387.6</ele>
        <time>2021-02-27T08:47:36Z</time>
      </trkpt>
      <trkpt lat="45.1979" lon="5.99092">
        <ele>2387.6</ele>
        <time>2021-02-27T08:47:37Z</time>
      </trkpt>
      <trkpt lat="45.19794" lon="5.99097">
        <ele>2387.4</ele>
        <time>2021-02-27T08:47:38Z</time>
      </trkpt>
      <trkpt lat="45.19799" lon="5.99102">
        <ele>2387.6</ele>
        <time>2021-02-27T08:47:39Z</time>
      </trkpt>
      <trkpt lat="45.19803" lon="5.99106">
        <ele>2387.6</ele>
        <time>2021-02-27T08:47:40Z</time>
      </trkpt>
      <trkpt lat="45.19808" lon="5.99114">
        <ele>2387.2</ele>
        <time>2021-02-27T08:47:41Z</time>
      </trkpt>
      <trkpt lat="45.19809" lon="5.99116">
        <ele>2387.2</ele>
        <time>2021-02-27T08:47:42Z</time>
      </trkpt>
      <trkpt lat="45.19809" lon="5.99116">
        <ele>2387.2</ele>
        <time>2021-02-27T08:47:43Z</time>
      </trkpt>
      <trkpt lat="45.19815" lon="5.99127">
        <ele>2387</ele>
        <time>2021-02-27T08:47:44Z</time>
      </trkpt>
      <trkpt lat="45.19815" lon="5.99127">
        <ele>2387.2</ele>
        <time>2021-02-27T08:47:45Z</time>
      </trkpt>
      <trkpt lat="45.19816" lon="5.9913">
        <ele>2387.2</ele>
        <time>2021-02-27T08:47:46Z</time>
      </trkpt>
      <trkpt lat="45.19818" lon="5.99134">
        <ele>2387.4</ele>
        <time>2021-02-27T08:47:47Z</time>
      </trkpt>
      <trkpt lat="45.1982" lon="5.99137">
        <ele>2387</ele>
        <time>2021-02-27T08:47:48Z</time>
      </trkpt>
      <trkpt lat="45.19821" lon="5.99143">
        <ele>2386.4</ele>
        <time>2021-02-27T08:47:49Z</time>
      </trkpt>
      <trkpt lat="45.19823" lon="5.99149">
        <ele>2386.8</ele>
        <time>2021-02-27T08:47:50Z</time>
      </trkpt>
      <trkpt lat="45.19825" lon="5.99155">
        <ele>2386.4</ele>
        <time>2021-02-27T08:47:51Z</time>
      </trkpt>
      <trkpt lat="45.19825" lon="5.99161">
        <ele>2386.2</ele>
        <time>2021-02-27T08:47:52Z</time>
      </trkpt>
      <trkpt lat="45.19826" lon="5.99169">
        <ele>2386.6</ele>
        <time>2021-02-27T08:47:53Z</time>
      </trkpt>
      <trkpt lat="45.19826" lon="5.99176">
        <ele>2386.8</ele>
        <time>2021-02-27T08:47:54Z</time>
      </trkpt>
      <trkpt lat="45.19827" lon="5.99183">
        <ele>2386.6</ele>
        <time>2021-02-27T08:47:55Z</time>
      </trkpt>
      <trkpt lat="45.19827" lon="5.99189">
        <ele>2386</ele>
        <time>2021-02-27T08:47:56Z</time>
      </trkpt>
      <trkpt lat="45.19827" lon="5.99196">
        <ele>2385.6</ele>
        <time>2021-02-27T08:47:57Z</time>
      </trkpt>
      <trkpt lat="45.19826" lon="5.99202">
        <ele>2385</ele>
        <time>2021-02-27T08:47:58Z</time>
      </trkpt>
      <trkpt lat="45.19826" lon="5.99208">
        <ele>2384.2</ele>
        <time>2021-02-27T08:47:59Z</time>
      </trkpt>
      <trkpt lat="45.19826" lon="5.99214">
        <ele>2384</ele>
        <time>2021-02-27T08:48:00Z</time>
      </trkpt>
      <trkpt lat="45.19827" lon="5.99221">
        <ele>2384</ele>
        <time>2021-02-27T08:48:01Z</time>
      </trkpt>
      <trkpt lat="45.19827" lon="5.99228">
        <ele>2383.2</ele>
        <time>2021-02-27T08:48:02Z</time>
      </trkpt>
      <trkpt lat="45.19827" lon="5.99236">
        <ele>2382.2</ele>
        <time>2021-02-27T08:48:03Z</time>
      </trkpt>
      <trkpt lat="45.19828" lon="5.99244">
        <ele>2381.6</ele>
        <time>2021-02-27T08:48:04Z</time>
      </trkpt>
      <trkpt lat="45.19828" lon="5.99252">
        <ele>2381</ele>
        <time>2021-02-27T08:48:05Z</time>
      </trkpt>
      <trkpt lat="45.19828" lon="5.99252">
        <ele>2380</ele>
        <time>2021-02-27T08:48:06Z</time>
      </trkpt>
      <trkpt lat="45.19828" lon="5.99273">
        <ele>2380</ele>
        <time>2021-02-27T08:48:07Z</time>
      </trkpt>
      <trkpt lat="45.19828" lon="5.99277">
        <ele>2379.2</ele>
        <time>2021-02-27T08:48:08Z</time>
      </trkpt>
      <trkpt lat="45.19827" lon="5.99288">
        <ele>2378</ele>
        <time>2021-02-27T08:48:09Z</time>
      </trkpt>
      <trkpt lat="45.19827" lon="5.99291">
        <ele>2376.4</ele>
        <time>2021-02-27T08:48:10Z</time>
      </trkpt>
      <trkpt lat="45.19827" lon="5.99295">
        <ele>2375.4</ele>
        <time>2021-02-27T08:48:11Z</time>
      </trkpt>
      <trkpt lat="45.19822" lon="5.99316">
        <ele>2374.4</ele>
        <time>2021-02-27T08:48:12Z</time>
      </trkpt>
      <trkpt lat="45.1982" lon="5.99319">
        <ele>2373.4</ele>
        <time>2021-02-27T08:48:13Z</time>
      </trkpt>
      <trkpt lat="45.19816" lon="5.99331">
        <ele>2372</ele>
        <time>2021-02-27T08:48:14Z</time>
      </trkpt>
      <trkpt lat="45.19815" lon="5.99335">
        <ele>2371</ele>
        <time>2021-02-27T08:48:15Z</time>
      </trkpt>
      <trkpt lat="45.19813" lon="5.99343">
        <ele>2370</ele>
        <time>2021-02-27T08:48:16Z</time>
      </trkpt>
      <trkpt lat="45.1981" lon="5.9935">
        <ele>2369</ele>
        <time>2021-02-27T08:48:17Z</time>
      </trkpt>
      <trkpt lat="45.19808" lon="5.99357">
        <ele>2368</ele>
        <time>2021-02-27T08:48:18Z</time>
      </trkpt>
      <trkpt lat="45.19806" lon="5.99364">
        <ele>2367.6</ele>
        <time>2021-02-27T08:48:19Z</time>
      </trkpt>
      <trkpt lat="45.19805" lon="5.99375">
        <ele>2366.8</ele>
        <time>2021-02-27T08:48:20Z</time>
      </trkpt>
      <trkpt lat="45.19805" lon="5.99375">
        <ele>2365.8</ele>
        <time>2021-02-27T08:48:21Z</time>
      </trkpt>
      <trkpt lat="45.19807" lon="5.99402">
        <ele>2364.6</ele>
        <time>2021-02-27T08:48:22Z</time>
      </trkpt>
      <trkpt lat="45.19808" lon="5.99406">
        <ele>2363.4</ele>
        <time>2021-02-27T08:48:23Z</time>
      </trkpt>
      <trkpt lat="45.19813" lon="5.99418">
        <ele>2363</ele>
        <time>2021-02-27T08:48:24Z</time>
      </trkpt>
      <trkpt lat="45.19814" lon="5.99422">
        <ele>2361.8</ele>
        <time>2021-02-27T08:48:25Z</time>
      </trkpt>
      <trkpt lat="45.19817" lon="5.9943">
        <ele>2360.8</ele>
        <time>2021-02-27T08:48:26Z</time>
      </trkpt>
      <trkpt lat="45.19821" lon="5.99438">
        <ele>2360</ele>
        <time>2021-02-27T08:48:27Z</time>
      </trkpt>
      <trkpt lat="45.19824" lon="5.99447">
        <ele>2359</ele>
        <time>2021-02-27T08:48:28Z</time>
      </trkpt>
      <trkpt lat="45.19824" lon="5.99447">
        <ele>2358.2</ele>
        <time>2021-02-27T08:48:29Z</time>
      </trkpt>
      <trkpt lat="45.19838" lon="5.99468">
        <ele>2356.2</ele>
        <time>2021-02-27T08:48:30Z</time>
      </trkpt>
      <trkpt lat="45.19842" lon="5.99471">
        <ele>2355.2</ele>
        <time>2021-02-27T08:48:31Z</time>
      </trkpt>
      <trkpt lat="45.19851" lon="5.99476">
        <ele>2353.4</ele>
        <time>2021-02-27T08:48:32Z</time>
      </trkpt>
      <trkpt lat="45.19851" lon="5.99476">
        <ele>2352.2</ele>
        <time>2021-02-27T08:48:33Z</time>
      </trkpt>
      <trkpt lat="45.19867" lon="5.9948">
        <ele>2350.8</ele>
        <time>2021-02-27T08:48:34Z</time>
      </trkpt>
      <trkpt lat="45.1987" lon="5.9948">
        <ele>2349.8</ele>
        <time>2021-02-27T08:48:35Z</time>
      </trkpt>
      <trkpt lat="45.19876" lon="5.99477">
        <ele>2349.4</ele>
        <time>2021-02-27T08:48:36Z</time>
      </trkpt>
      <trkpt lat="45.19876" lon="5.99476">
        <ele>2348.4</ele>
        <time>2021-02-27T08:48:37Z</time>
      </trkpt>
      <trkpt lat="45.19878" lon="5.99473">
        <ele>2348.2</ele>
        <time>2021-02-27T08:48:38Z</time>
      </trkpt>
      <trkpt lat="45.1988" lon="5.99472">
        <ele>2348.2</ele>
        <time>2021-02-27T08:48:39Z</time>
      </trkpt>
      <trkpt lat="45.19884" lon="5.99471">
        <ele>2348</ele>
        <time>2021-02-27T08:48:40Z</time>
      </trkpt>
      <trkpt lat="45.19888" lon="5.99471">
        <ele>2348</ele>
        <time>2021-02-27T08:48:41Z</time>
      </trkpt>
      <trkpt lat="45.19892" lon="5.99472">
        <ele>2348</ele>
        <time>2021-02-27T08:48:42Z</time>
      </trkpt>
      <trkpt lat="45.19897" lon="5.99472">
        <ele>2347.2</ele>
        <time>2021-02-27T08:48:43Z</time>
      </trkpt>
      <trkpt lat="45.19902" lon="5.99472">
        <ele>2347</ele>
        <time>2021-02-27T08:48:44Z</time>
      </trkpt>
      <trkpt lat="45.19905" lon="5.99471">
        <ele>2346.8</ele>
        <time>2021-02-27T08:48:45Z</time>
      </trkpt>
      <trkpt lat="45.19908" lon="5.9947">
        <ele>2346.4</ele>
        <time>2021-02-27T08:48:46Z</time>
      </trkpt>
      <trkpt lat="45.19908" lon="5.9947">
        <ele>2345.8</ele>
        <time>2021-02-27T08:48:47Z</time>
      </trkpt>
      <trkpt lat="45.19908" lon="5.9947">
        <ele>2346</ele>
        <time>2021-02-27T08:48:48Z</time>
      </trkpt>
      <trkpt lat="45.19908" lon="5.9947">
        <ele>2345.6</ele>
        <time>2021-02-27T08:48:49Z</time>
      </trkpt>
      <trkpt lat="45.19909" lon="5.99468">
        <ele>2345.8</ele>
        <time>2021-02-27T08:48:50Z</time>
      </trkpt>
      <trkpt lat="45.19909" lon="5.99468">
        <ele>2346</ele>
        <time>2021-02-27T08:48:51Z</time>
      </trkpt>
      <trkpt lat="45.19909" lon="5.99468">
        <ele>2345.6</ele>
        <time>2021-02-27T08:48:52Z</time>
      </trkpt>
      <trkpt lat="45.19909" lon="5.99468">
        <ele>2345.2</ele>
        <time>2021-02-27T08:48:53Z</time>
      </trkpt>
      <trkpt lat="45.19909" lon="5.99468">
        <ele>2344.8</ele>
        <time>2021-02-27T08:48:54Z</time>
      </trkpt>
      <trkpt lat="45.19909" lon="5.99468">
        <ele>2344.6</ele>
        <time>2021-02-27T08:48:55Z</time>
      </trkpt>
      <trkpt lat="45.19909" lon="5.99468">
        <ele>2344.4</ele>
        <time>2021-02-27T08:48:56Z</time>
      </trkpt>
      <trkpt lat="45.19909" lon="5.99468">
        <ele>2344.6</ele>
        <time>2021-02-27T08:48:57Z</time>
      </trkpt>
      <trkpt lat="45.19909" lon="5.99468">
        <ele>2344.6</ele>
        <time>2021-02-27T08:48:58Z</time>
      </trkpt>
      <trkpt lat="45.19909" lon="5.99468">
        <ele>2344.4</ele>
        <time>2021-02-27T08:48:59Z</time>
      </trkpt>
      <trkpt lat="45.19909" lon="5.99468">
        <ele>2344.6</ele>
        <time>2021-02-27T08:49:00Z</time>
      </trkpt>
      <trkpt lat="45.19909" lon="5.99468">
        <ele>2344.8</ele>
        <time>2021-02-27T08:49:01Z</time>
      </trkpt>
      <trkpt lat="45.19907" lon="5.99469">
        <ele>2345.2</ele>
        <time>2021-02-27T08:49:02Z</time>
      </trkpt>
      <trkpt lat="45.19907" lon="5.99469">
        <ele>2345.2</ele>
        <time>2021-02-27T08:49:03Z</time>
      </trkpt>
      <trkpt lat="45.19907" lon="5.99469">
        <ele>2345.2</ele>
        <time>2021-02-27T08:49:04Z</time>
      </trkpt>
      <trkpt lat="45.19907" lon="5.99469">
        <ele>2345.2</ele>
        <time>2021-02-27T08:49:05Z</time>
      </trkpt>
      <trkpt lat="45.19907" lon="5.99469">
        <ele>2345.2</ele>
        <time>2021-02-27T08:49:06Z</time>
      </trkpt>
      <trkpt lat="45.19907" lon="5.99469">
        <ele>2345.4</ele>
        <time>2021-02-27T08:49:07Z</time>
      </trkpt>
      <trkpt lat="45.19907" lon="5.99469">
        <ele>2345.4</ele>
        <time>2021-02-27T08:49:08Z</time>
      </trkpt>
      <trkpt lat="45.19907" lon="5.99469">
        <ele>2345.4</ele>
        <time>2021-02-27T08:49:09Z</time>
      </trkpt>
      <trkpt lat="45.19907" lon="5.99469">
        <ele>2345.6</ele>
        <time>2021-02-27T08:49:10Z</time>
      </trkpt>
      <trkpt lat="45.19907" lon="5.99469">
        <ele>2345.4</ele>
        <time>2021-02-27T08:49:11Z</time>
      </trkpt>
      <trkpt lat="45.19907" lon="5.99469">
        <ele>2345</ele>
        <time>2021-02-27T08:49:12Z</time>
      </trkpt>
      <trkpt lat="45.19907" lon="5.99469">
        <ele>2344.8</ele>
        <time>2021-02-27T08:49:13Z</time>
      </trkpt>
      <trkpt lat="45.19907" lon="5.99469">
        <ele>2344.6</ele>
        <time>2021-02-27T08:49:14Z</time>
      </trkpt>
      <trkpt lat="45.19907" lon="5.99469">
        <ele>2344.4</ele>
        <time>2021-02-27T08:49:15Z</time>
      </trkpt>
      <trkpt lat="45.19907" lon="5.99469">
        <ele>2344.4</ele>
        <time>2021-02-27T08:49:16Z</time>
      </trkpt>
      <trkpt lat="45.19907" lon="5.99469">
        <ele>2344.4</ele>
        <time>2021-02-27T08:49:17Z</time>
      </trkpt>
      <trkpt lat="45.19907" lon="5.99469">
        <ele>2344.4</ele>
        <time>2021-02-27T08:49:18Z</time>
      </trkpt>
      <trkpt lat="45.19907" lon="5.99469">
        <ele>2344.2</ele>
        <time>2021-02-27T08:49:19Z</time>
      </trkpt>
      <trkpt lat="45.19907" lon="5.99469">
        <ele>2344.2</ele>
        <time>2021-02-27T08:49:20Z</time>
      </trkpt>
      <trkpt lat="45.19907" lon="5.99469">
        <ele>2344.2</ele>
        <time>2021-02-27T08:49:21Z</time>
      </trkpt>
      <trkpt lat="45.19907" lon="5.99469">
        <ele>2344.2</ele>
        <time>2021-02-27T08:49:22Z</time>
      </trkpt>
      <trkpt lat="45.19907" lon="5.99469">
        <ele>2344.4</ele>
        <time>2021-02-27T08:49:23Z</time>
      </trkpt>
      <trkpt lat="45.19907" lon="5.99469">
        <ele>2344.8</ele>
        <time>2021-02-27T08:49:24Z</time>
      </trkpt>
      <trkpt lat="45.19907" lon="5.99469">
        <ele>2345</ele>
        <time>2021-02-27T08:49:25Z</time>
      </trkpt>
      <trkpt lat="45.19907" lon="5.99469">
        <ele>2345</ele>
        <time>2021-02-27T08:49:26Z</time>
      </trkpt>
      <trkpt lat="45.19907" lon="5.99469">
        <ele>2344.8</ele>
        <time>2021-02-27T08:49:27Z</time>
      </trkpt>
      <trkpt lat="45.19907" lon="5.99469">
        <ele>2344.8</ele>
        <time>2021-02-27T08:49:28Z</time>
      </trkpt>
      <trkpt lat="45.19907" lon="5.99469">
        <ele>2345</ele>
        <time>2021-02-27T08:49:29Z</time>
      </trkpt>
      <trkpt lat="45.19907" lon="5.99469">
        <ele>2344.6</ele>
        <time>2021-02-27T08:49:30Z</time>
      </trkpt>
      <trkpt lat="45.19907" lon="5.99469">
        <ele>2344.4</ele>
        <time>2021-02-27T08:49:31Z</time>
      </trkpt>
      <trkpt lat="45.19907" lon="5.99469">
        <ele>2343.8</ele>
        <time>2021-02-27T08:49:32Z</time>
      </trkpt>
      <trkpt lat="45.19907" lon="5.99469">
        <ele>2343.8</ele>
        <time>2021-02-27T08:49:33Z</time>
      </trkpt>
      <trkpt lat="45.19907" lon="5.99469">
        <ele>2343.8</ele>
        <time>2021-02-27T08:49:34Z</time>
      </trkpt>
      <trkpt lat="45.19907" lon="5.99469">
        <ele>2343.6</ele>
        <time>2021-02-27T08:49:35Z</time>
      </trkpt>
      <trkpt lat="45.19907" lon="5.99469">
        <ele>2343.8</ele>
        <time>2021-02-27T08:49:36Z</time>
      </trkpt>
      <trkpt lat="45.19907" lon="5.99469">
        <ele>2343.8</ele>
        <time>2021-02-27T08:49:37Z</time>
      </trkpt>
      <trkpt lat="45.19907" lon="5.99469">
        <ele>2343.6</ele>
        <time>2021-02-27T08:49:38Z</time>
      </trkpt>
      <trkpt lat="45.19907" lon="5.99469">
        <ele>2343.4</ele>
        <time>2021-02-27T08:49:39Z</time>
      </trkpt>
      <trkpt lat="45.19907" lon="5.99469">
        <ele>2343.2</ele>
        <time>2021-02-27T08:49:40Z</time>
      </trkpt>
      <trkpt lat="45.19907" lon="5.99469">
        <ele>2343</ele>
        <time>2021-02-27T08:49:41Z</time>
      </trkpt>
      <trkpt lat="45.19907" lon="5.99469">
        <ele>2343</ele>
        <time>2021-02-27T08:49:42Z</time>
      </trkpt>
      <trkpt lat="45.19907" lon="5.99469">
        <ele>2343</ele>
        <time>2021-02-27T08:49:43Z</time>
      </trkpt>
      <trkpt lat="45.19907" lon="5.99469">
        <ele>2343.4</ele>
        <time>2021-02-27T08:49:44Z</time>
      </trkpt>
      <trkpt lat="45.19907" lon="5.99469">
        <ele>2343.6</ele>
        <time>2021-02-27T08:49:45Z</time>
      </trkpt>
      <trkpt lat="45.19907" lon="5.99469">
        <ele>2343.6</ele>
        <time>2021-02-27T08:49:46Z</time>
      </trkpt>
      <trkpt lat="45.19907" lon="5.99469">
        <ele>2344</ele>
        <time>2021-02-27T08:49:47Z</time>
      </trkpt>
      <trkpt lat="45.19907" lon="5.99469">
        <ele>2343.8</ele>
        <time>2021-02-27T08:49:48Z</time>
      </trkpt>
      <trkpt lat="45.19907" lon="5.99469">
        <ele>2344</ele>
        <time>2021-02-27T08:49:49Z</time>
      </trkpt>
      <trkpt lat="45.19907" lon="5.99469">
        <ele>2344.2</ele>
        <time>2021-02-27T08:49:50Z</time>
      </trkpt>
      <trkpt lat="45.19907" lon="5.99469">
        <ele>2344.4</ele>
        <time>2021-02-27T08:49:51Z</time>
      </trkpt>
      <trkpt lat="45.19907" lon="5.99469">
        <ele>2344.4</ele>
        <time>2021-02-27T08:49:52Z</time>
      </trkpt>
      <trkpt lat="45.19907" lon="5.99469">
        <ele>2344.4</ele>
        <time>2021-02-27T08:49:53Z</time>
      </trkpt>
      <trkpt lat="45.19907" lon="5.99469">
        <ele>2344.4</ele>
        <time>2021-02-27T08:49:54Z</time>
      </trkpt>
      <trkpt lat="45.19907" lon="5.99469">
        <ele>2344</ele>
        <time>2021-02-27T08:49:55Z</time>
      </trkpt>
      <trkpt lat="45.19907" lon="5.99469">
        <ele>2343.6</ele>
        <time>2021-02-27T08:49:56Z</time>
      </trkpt>
      <trkpt lat="45.19907" lon="5.99469">
        <ele>2343.4</ele>
        <time>2021-02-27T08:49:57Z</time>
      </trkpt>
      <trkpt lat="45.19907" lon="5.99469">
        <ele>2343.2</ele>
        <time>2021-02-27T08:49:58Z</time>
      </trkpt>
      <trkpt lat="45.19907" lon="5.99469">
        <ele>2343</ele>
        <time>2021-02-27T08:49:59Z</time>
      </trkpt>
      <trkpt lat="45.19907" lon="5.99469">
        <ele>2342.8</ele>
        <time>2021-02-27T08:50:00Z</time>
      </trkpt>
      <trkpt lat="45.19907" lon="5.99469">
        <ele>2342.8</ele>
        <time>2021-02-27T08:50:01Z</time>
      </trkpt>
      <trkpt lat="45.19907" lon="5.99469">
        <ele>2342.6</ele>
        <time>2021-02-27T08:50:02Z</time>
      </trkpt>
      <trkpt lat="45.19907" lon="5.99469">
        <ele>2342.6</ele>
        <time>2021-02-27T08:50:03Z</time>
      </trkpt>
      <trkpt lat="45.19906" lon="5.9947">
        <ele>2342.8</ele>
        <time>2021-02-27T08:50:04Z</time>
      </trkpt>
      <trkpt lat="45.19906" lon="5.9947">
        <ele>2343</ele>
        <time>2021-02-27T08:50:05Z</time>
      </trkpt>
      <trkpt lat="45.19906" lon="5.9947">
        <ele>2343</ele>
        <time>2021-02-27T08:50:06Z</time>
      </trkpt>
      <trkpt lat="45.19906" lon="5.9947">
        <ele>2343</ele>
        <time>2021-02-27T08:50:07Z</time>
      </trkpt>
      <trkpt lat="45.19906" lon="5.9947">
        <ele>2342.8</ele>
        <time>2021-02-27T08:50:08Z</time>
      </trkpt>
      <trkpt lat="45.19906" lon="5.9947">
        <ele>2342.6</ele>
        <time>2021-02-27T08:50:09Z</time>
      </trkpt>
      <trkpt lat="45.19906" lon="5.9947">
        <ele>2342.4</ele>
        <time>2021-02-27T08:50:10Z</time>
      </trkpt>
      <trkpt lat="45.19906" lon="5.9947">
        <ele>2342</ele>
        <time>2021-02-27T08:50:11Z</time>
      </trkpt>
      <trkpt lat="45.19906" lon="5.9947">
        <ele>2341.8</ele>
        <time>2021-02-27T08:50:12Z</time>
      </trkpt>
      <trkpt lat="45.19906" lon="5.9947">
        <ele>2341.6</ele>
        <time>2021-02-27T08:50:13Z</time>
      </trkpt>
      <trkpt lat="45.19906" lon="5.9947">
        <ele>2341.6</ele>
        <time>2021-02-27T08:50:14Z</time>
      </trkpt>
      <trkpt lat="45.19906" lon="5.9947">
        <ele>2342.2</ele>
        <time>2021-02-27T08:50:15Z</time>
      </trkpt>
      <trkpt lat="45.19906" lon="5.9947">
        <ele>2342.4</ele>
        <time>2021-02-27T08:50:16Z</time>
      </trkpt>
      <trkpt lat="45.19906" lon="5.9947">
        <ele>2342.6</ele>
        <time>2021-02-27T08:50:17Z</time>
      </trkpt>
      <trkpt lat="45.19906" lon="5.9947">
        <ele>2342.6</ele>
        <time>2021-02-27T08:50:18Z</time>
      </trkpt>
      <trkpt lat="45.19906" lon="5.9947">
        <ele>2342.8</ele>
        <time>2021-02-27T08:50:19Z</time>
      </trkpt>
      <trkpt lat="45.19906" lon="5.9947">
        <ele>2342.8</ele>
        <time>2021-02-27T08:50:20Z</time>
      </trkpt>
      <trkpt lat="45.19906" lon="5.9947">
        <ele>2342.8</ele>
        <time>2021-02-27T08:50:21Z</time>
      </trkpt>
      <trkpt lat="45.19906" lon="5.9947">
        <ele>2342.8</ele>
        <time>2021-02-27T08:50:22Z</time>
      </trkpt>
      <trkpt lat="45.19906" lon="5.9947">
        <ele>2342.8</ele>
        <time>2021-02-27T08:50:23Z</time>
      </trkpt>
      <trkpt lat="45.19906" lon="5.9947">
        <ele>2342.8</ele>
        <time>2021-02-27T08:50:24Z</time>
      </trkpt>
      <trkpt lat="45.19906" lon="5.9947">
        <ele>2342.8</ele>
        <time>2021-02-27T08:50:25Z</time>
      </trkpt>
      <trkpt lat="45.19906" lon="5.9947">
        <ele>2342.8</ele>
        <time>2021-02-27T08:50:26Z</time>
      </trkpt>
      <trkpt lat="45.19906" lon="5.9947">
        <ele>2342.8</ele>
        <time>2021-02-27T08:50:27Z</time>
      </trkpt>
      <trkpt lat="45.19906" lon="5.9947">
        <ele>2342.8</ele>
        <time>2021-02-27T08:50:28Z</time>
      </trkpt>
      <trkpt lat="45.19906" lon="5.9947">
        <ele>2343</ele>
        <time>2021-02-27T08:50:29Z</time>
      </trkpt>
      <trkpt lat="45.19906" lon="5.9947">
        <ele>2343</ele>
        <time>2021-02-27T08:50:30Z</time>
      </trkpt>
      <trkpt lat="45.19906" lon="5.9947">
        <ele>2343.2</ele>
        <time>2021-02-27T08:50:31Z</time>
      </trkpt>
      <trkpt lat="45.19906" lon="5.9947">
        <ele>2343.2</ele>
        <time>2021-02-27T08:50:32Z</time>
      </trkpt>
      <trkpt lat="45.19906" lon="5.9947">
        <ele>2343.2</ele>
        <time>2021-02-27T08:50:33Z</time>
      </trkpt>
      <trkpt lat="45.19906" lon="5.9947">
        <ele>2343.2</ele>
        <time>2021-02-27T08:50:34Z</time>
      </trkpt>
      <trkpt lat="45.19906" lon="5.9947">
        <ele>2343.2</ele>
        <time>2021-02-27T08:50:35Z</time>
      </trkpt>
      <trkpt lat="45.19906" lon="5.9947">
        <ele>2343.2</ele>
        <time>2021-02-27T08:50:36Z</time>
      </trkpt>
      <trkpt lat="45.19906" lon="5.9947">
        <ele>2343</ele>
        <time>2021-02-27T08:50:37Z</time>
      </trkpt>
      <trkpt lat="45.19906" lon="5.9947">
        <ele>2343.2</ele>
        <time>2021-02-27T08:50:38Z</time>
      </trkpt>
      <trkpt lat="45.19906" lon="5.9947">
        <ele>2343</ele>
        <time>2021-02-27T08:50:39Z</time>
      </trkpt>
      <trkpt lat="45.19906" lon="5.9947">
        <ele>2343</ele>
        <time>2021-02-27T08:50:40Z</time>
      </trkpt>
      <trkpt lat="45.19906" lon="5.9947">
        <ele>2343</ele>
        <time>2021-02-27T08:50:41Z</time>
      </trkpt>
      <trkpt lat="45.19906" lon="5.9947">
        <ele>2342.8</ele>
        <time>2021-02-27T08:50:42Z</time>
      </trkpt>
      <trkpt lat="45.19906" lon="5.9947">
        <ele>2342.6</ele>
        <time>2021-02-27T08:50:43Z</time>
      </trkpt>
      <trkpt lat="45.19906" lon="5.9947">
        <ele>2342.6</ele>
        <time>2021-02-27T08:50:44Z</time>
      </trkpt>
      <trkpt lat="45.19906" lon="5.9947">
        <ele>2342.4</ele>
        <time>2021-02-27T08:50:45Z</time>
      </trkpt>
      <trkpt lat="45.19906" lon="5.9947">
        <ele>2342.6</ele>
        <time>2021-02-27T08:50:46Z</time>
      </trkpt>
      <trkpt lat="45.19906" lon="5.9947">
        <ele>2342.8</ele>
        <time>2021-02-27T08:50:47Z</time>
      </trkpt>
      <trkpt lat="45.19906" lon="5.9947">
        <ele>2343</ele>
        <time>2021-02-27T08:50:48Z</time>
      </trkpt>
      <trkpt lat="45.19906" lon="5.9947">
        <ele>2343</ele>
        <time>2021-02-27T08:50:49Z</time>
      </trkpt>
      <trkpt lat="45.19906" lon="5.9947">
        <ele>2343.2</ele>
        <time>2021-02-27T08:50:50Z</time>
      </trkpt>
      <trkpt lat="45.19906" lon="5.9947">
        <ele>2343.2</ele>
        <time>2021-02-27T08:50:51Z</time>
      </trkpt>
      <trkpt lat="45.19906" lon="5.9947">
        <ele>2343.2</ele>
        <time>2021-02-27T08:50:52Z</time>
      </trkpt>
      <trkpt lat="45.19906" lon="5.9947">
        <ele>2342.8</ele>
        <time>2021-02-27T08:50:53Z</time>
      </trkpt>
      <trkpt lat="45.19906" lon="5.9947">
        <ele>2342.6</ele>
        <time>2021-02-27T08:50:54Z</time>
      </trkpt>
      <trkpt lat="45.19907" lon="5.99473">
        <ele>2342.6</ele>
        <time>2021-02-27T08:50:55Z</time>
      </trkpt>
      <trkpt lat="45.19907" lon="5.99473">
        <ele>2342.4</ele>
        <time>2021-02-27T08:50:56Z</time>
      </trkpt>
      <trkpt lat="45.19907" lon="5.99473">
        <ele>2342.4</ele>
        <time>2021-02-27T08:50:57Z</time>
      </trkpt>
      <trkpt lat="45.19908" lon="5.99476">
        <ele>2342</ele>
        <time>2021-02-27T08:50:58Z</time>
      </trkpt>
      <trkpt lat="45.19908" lon="5.99476">
        <ele>2341.8</ele>
        <time>2021-02-27T08:50:59Z</time>
      </trkpt>
      <trkpt lat="45.19908" lon="5.99476">
        <ele>2341.8</ele>
        <time>2021-02-27T08:51:00Z</time>
      </trkpt>
      <trkpt lat="45.19909" lon="5.99478">
        <ele>2341.6</ele>
        <time>2021-02-27T08:51:01Z</time>
      </trkpt>
      <trkpt lat="45.19909" lon="5.99478">
        <ele>2341.6</ele>
        <time>2021-02-27T08:51:02Z</time>
      </trkpt>
      <trkpt lat="45.19909" lon="5.99478">
        <ele>2342</ele>
        <time>2021-02-27T08:51:03Z</time>
      </trkpt>
      <trkpt lat="45.1991" lon="5.9948">
        <ele>2342</ele>
        <time>2021-02-27T08:51:04Z</time>
      </trkpt>
      <trkpt lat="45.1991" lon="5.9948">
        <ele>2342.2</ele>
        <time>2021-02-27T08:51:05Z</time>
      </trkpt>
      <trkpt lat="45.1991" lon="5.9948">
        <ele>2342.4</ele>
        <time>2021-02-27T08:51:06Z</time>
      </trkpt>
      <trkpt lat="45.19911" lon="5.99483">
        <ele>2342.6</ele>
        <time>2021-02-27T08:51:07Z</time>
      </trkpt>
      <trkpt lat="45.19911" lon="5.99483">
        <ele>2342.6</ele>
        <time>2021-02-27T08:51:08Z</time>
      </trkpt>
      <trkpt lat="45.19911" lon="5.99483">
        <ele>2342.6</ele>
        <time>2021-02-27T08:51:09Z</time>
      </trkpt>
      <trkpt lat="45.19912" lon="5.99484">
        <ele>2342.8</ele>
        <time>2021-02-27T08:51:10Z</time>
      </trkpt>
      <trkpt lat="45.19912" lon="5.99484">
        <ele>2343</ele>
        <time>2021-02-27T08:51:11Z</time>
      </trkpt>
      <trkpt lat="45.19913" lon="5.99485">
        <ele>2342.8</ele>
        <time>2021-02-27T08:51:12Z</time>
      </trkpt>
      <trkpt lat="45.19914" lon="5.99485">
        <ele>2343</ele>
        <time>2021-02-27T08:51:13Z</time>
      </trkpt>
      <trkpt lat="45.19915" lon="5.99485">
        <ele>2342.8</ele>
        <time>2021-02-27T08:51:14Z</time>
      </trkpt>
      <trkpt lat="45.19916" lon="5.99485">
        <ele>2343</ele>
        <time>2021-02-27T08:51:15Z</time>
      </trkpt>
      <trkpt lat="45.19916" lon="5.99486">
        <ele>2343.4</ele>
        <time>2021-02-27T08:51:16Z</time>
      </trkpt>
      <trkpt lat="45.19917" lon="5.99486">
        <ele>2343</ele>
        <time>2021-02-27T08:51:17Z</time>
      </trkpt>
      <trkpt lat="45.19918" lon="5.99486">
        <ele>2343.2</ele>
        <time>2021-02-27T08:51:18Z</time>
      </trkpt>
      <trkpt lat="45.19919" lon="5.99486">
        <ele>2343.2</ele>
        <time>2021-02-27T08:51:19Z</time>
      </trkpt>
      <trkpt lat="45.19919" lon="5.99487">
        <ele>2343.6</ele>
        <time>2021-02-27T08:51:20Z</time>
      </trkpt>
      <trkpt lat="45.1992" lon="5.99487">
        <ele>2343.4</ele>
        <time>2021-02-27T08:51:21Z</time>
      </trkpt>
      <trkpt lat="45.19921" lon="5.99488">
        <ele>2343.6</ele>
        <time>2021-02-27T08:51:22Z</time>
      </trkpt>
      <trkpt lat="45.19922" lon="5.99488">
        <ele>2343.8</ele>
        <time>2021-02-27T08:51:23Z</time>
      </trkpt>
      <trkpt lat="45.19923" lon="5.99489">
        <ele>2343.8</ele>
        <time>2021-02-27T08:51:24Z</time>
      </trkpt>
      <trkpt lat="45.19923" lon="5.99489">
        <ele>2344</ele>
        <time>2021-02-27T08:51:25Z</time>
      </trkpt>
      <trkpt lat="45.19923" lon="5.99489">
        <ele>2344.2</ele>
        <time>2021-02-27T08:51:26Z</time>
      </trkpt>
      <trkpt lat="45.19926" lon="5.99491">
        <ele>2344.2</ele>
        <time>2021-02-27T08:51:27Z</time>
      </trkpt>
      <trkpt lat="45.19926" lon="5.99491">
        <ele>2344.4</ele>
        <time>2021-02-27T08:51:28Z</time>
      </trkpt>
      <trkpt lat="45.19926" lon="5.99491">
        <ele>2344.6</ele>
        <time>2021-02-27T08:51:29Z</time>
      </trkpt>
      <trkpt lat="45.19928" lon="5.99493">
        <ele>2344.6</ele>
        <time>2021-02-27T08:51:30Z</time>
      </trkpt>
      <trkpt lat="45.19928" lon="5.99493">
        <ele>2345</ele>
        <time>2021-02-27T08:51:31Z</time>
      </trkpt>
      <trkpt lat="45.19928" lon="5.99493">
        <ele>2344.8</ele>
        <time>2021-02-27T08:51:32Z</time>
      </trkpt>
      <trkpt lat="45.1993" lon="5.99495">
        <ele>2344.8</ele>
        <time>2021-02-27T08:51:33Z</time>
      </trkpt>
      <trkpt lat="45.1993" lon="5.99495">
        <ele>2344.8</ele>
        <time>2021-02-27T08:51:34Z</time>
      </trkpt>
      <trkpt lat="45.19931" lon="5.99496">
        <ele>2345</ele>
        <time>2021-02-27T08:51:35Z</time>
      </trkpt>
      <trkpt lat="45.19931" lon="5.99496">
        <ele>2345.4</ele>
        <time>2021-02-27T08:51:36Z</time>
      </trkpt>
      <trkpt lat="45.19932" lon="5.99497">
        <ele>2345.6</ele>
        <time>2021-02-27T08:51:37Z</time>
      </trkpt>
      <trkpt lat="45.19932" lon="5.99498">
        <ele>2345.8</ele>
        <time>2021-02-27T08:51:38Z</time>
      </trkpt>
      <trkpt lat="45.19933" lon="5.99499">
        <ele>2346</ele>
        <time>2021-02-27T08:51:39Z</time>
      </trkpt>
      <trkpt lat="45.19933" lon="5.995">
        <ele>2346.2</ele>
        <time>2021-02-27T08:51:40Z</time>
      </trkpt>
      <trkpt lat="45.19933" lon="5.99501">
        <ele>2346.2</ele>
        <time>2021-02-27T08:51:41Z</time>
      </trkpt>
      <trkpt lat="45.19934" lon="5.99502">
        <ele>2346.4</ele>
        <time>2021-02-27T08:51:42Z</time>
      </trkpt>
      <trkpt lat="45.19934" lon="5.99503">
        <ele>2347</ele>
        <time>2021-02-27T08:51:43Z</time>
      </trkpt>
      <trkpt lat="45.19935" lon="5.99504">
        <ele>2347</ele>
        <time>2021-02-27T08:51:44Z</time>
      </trkpt>
      <trkpt lat="45.19935" lon="5.99505">
        <ele>2347.2</ele>
        <time>2021-02-27T08:51:45Z</time>
      </trkpt>
      <trkpt lat="45.19936" lon="5.99506">
        <ele>2347.4</ele>
        <time>2021-02-27T08:51:46Z</time>
      </trkpt>
      <trkpt lat="45.19936" lon="5.99506">
        <ele>2347.8</ele>
        <time>2021-02-27T08:51:47Z</time>
      </trkpt>
      <trkpt lat="45.19937" lon="5.99507">
        <ele>2348</ele>
        <time>2021-02-27T08:51:48Z</time>
      </trkpt>
      <trkpt lat="45.19937" lon="5.99508">
        <ele>2348.2</ele>
        <time>2021-02-27T08:51:49Z</time>
      </trkpt>
      <trkpt lat="45.19937" lon="5.99509">
        <ele>2348.8</ele>
        <time>2021-02-27T08:51:50Z</time>
      </trkpt>
      <trkpt lat="45.19936" lon="5.9951">
        <ele>2349.2</ele>
        <time>2021-02-27T08:51:51Z</time>
      </trkpt>
      <trkpt lat="45.19936" lon="5.99511">
        <ele>2349.2</ele>
        <time>2021-02-27T08:51:52Z</time>
      </trkpt>
      <trkpt lat="45.19936" lon="5.99512">
        <ele>2349.6</ele>
        <time>2021-02-27T08:51:53Z</time>
      </trkpt>
      <trkpt lat="45.19936" lon="5.99513">
        <ele>2349.8</ele>
        <time>2021-02-27T08:51:54Z</time>
      </trkpt>
      <trkpt lat="45.19936" lon="5.99515">
        <ele>2350</ele>
        <time>2021-02-27T08:51:55Z</time>
      </trkpt>
      <trkpt lat="45.19936" lon="5.99516">
        <ele>2350.4</ele>
        <time>2021-02-27T08:51:56Z</time>
      </trkpt>
      <trkpt lat="45.19936" lon="5.99517">
        <ele>2350.6</ele>
        <time>2021-02-27T08:51:57Z</time>
      </trkpt>
      <trkpt lat="45.19935" lon="5.99518">
        <ele>2350.6</ele>
        <time>2021-02-27T08:51:58Z</time>
      </trkpt>
      <trkpt lat="45.19935" lon="5.99519">
        <ele>2351</ele>
        <time>2021-02-27T08:51:59Z</time>
      </trkpt>
      <trkpt lat="45.19935" lon="5.9952">
        <ele>2351.2</ele>
        <time>2021-02-27T08:52:00Z</time>
      </trkpt>
      <trkpt lat="45.19935" lon="5.99521">
        <ele>2351.4</ele>
        <time>2021-02-27T08:52:01Z</time>
      </trkpt>
      <trkpt lat="45.19935" lon="5.99521">
        <ele>2351.4</ele>
        <time>2021-02-27T08:52:02Z</time>
      </trkpt>
      <trkpt lat="45.19935" lon="5.99522">
        <ele>2351.6</ele>
        <time>2021-02-27T08:52:03Z</time>
      </trkpt>
      <trkpt lat="45.19936" lon="5.99523">
        <ele>2351.8</ele>
        <time>2021-02-27T08:52:04Z</time>
      </trkpt>
      <trkpt lat="45.19936" lon="5.99524">
        <ele>2352.2</ele>
        <time>2021-02-27T08:52:05Z</time>
      </trkpt>
      <trkpt lat="45.19936" lon="5.99525">
        <ele>2352.4</ele>
        <time>2021-02-27T08:52:06Z</time>
      </trkpt>
      <trkpt lat="45.19936" lon="5.99525">
        <ele>2352.2</ele>
        <time>2021-02-27T08:52:07Z</time>
      </trkpt>
      <trkpt lat="45.19936" lon="5.99526">
        <ele>2352.4</ele>
        <time>2021-02-27T08:52:08Z</time>
      </trkpt>
      <trkpt lat="45.19936" lon="5.99527">
        <ele>2352.8</ele>
        <time>2021-02-27T08:52:09Z</time>
      </trkpt>
      <trkpt lat="45.19936" lon="5.99528">
        <ele>2353.2</ele>
        <time>2021-02-27T08:52:10Z</time>
      </trkpt>
      <trkpt lat="45.19937" lon="5.99529">
        <ele>2353.8</ele>
        <time>2021-02-27T08:52:11Z</time>
      </trkpt>
      <trkpt lat="45.19937" lon="5.99529">
        <ele>2354.2</ele>
        <time>2021-02-27T08:52:12Z</time>
      </trkpt>
      <trkpt lat="45.19937" lon="5.9953">
        <ele>2354.2</ele>
        <time>2021-02-27T08:52:13Z</time>
      </trkpt>
      <trkpt lat="45.19937" lon="5.99531">
        <ele>2354.4</ele>
        <time>2021-02-27T08:52:14Z</time>
      </trkpt>
      <trkpt lat="45.19937" lon="5.99532">
        <ele>2355</ele>
        <time>2021-02-27T08:52:15Z</time>
      </trkpt>
      <trkpt lat="45.19937" lon="5.99533">
        <ele>2355</ele>
        <time>2021-02-27T08:52:16Z</time>
      </trkpt>
      <trkpt lat="45.19938" lon="5.99533">
        <ele>2355.4</ele>
        <time>2021-02-27T08:52:17Z</time>
      </trkpt>
      <trkpt lat="45.19938" lon="5.99533">
        <ele>2355.6</ele>
        <time>2021-02-27T08:52:18Z</time>
      </trkpt>
      <trkpt lat="45.19938" lon="5.99533">
        <ele>2355.8</ele>
        <time>2021-02-27T08:52:19Z</time>
      </trkpt>
      <trkpt lat="45.19938" lon="5.99533">
        <ele>2356.4</ele>
        <time>2021-02-27T08:52:20Z</time>
      </trkpt>
      <trkpt lat="45.19939" lon="5.99537">
        <ele>2356.8</ele>
        <time>2021-02-27T08:52:21Z</time>
      </trkpt>
      <trkpt lat="45.19939" lon="5.99537">
        <ele>2356.8</ele>
        <time>2021-02-27T08:52:22Z</time>
      </trkpt>
      <trkpt lat="45.19939" lon="5.99538">
        <ele>2356.8</ele>
        <time>2021-02-27T08:52:23Z</time>
      </trkpt>
      <trkpt lat="45.1994" lon="5.99538">
        <ele>2357.4</ele>
        <time>2021-02-27T08:52:24Z</time>
      </trkpt>
      <trkpt lat="45.19941" lon="5.99539">
        <ele>2357.4</ele>
        <time>2021-02-27T08:52:25Z</time>
      </trkpt>
      <trkpt lat="45.19942" lon="5.99539">
        <ele>2357.8</ele>
        <time>2021-02-27T08:52:26Z</time>
      </trkpt>
      <trkpt lat="45.19942" lon="5.9954">
        <ele>2358.2</ele>
        <time>2021-02-27T08:52:27Z</time>
      </trkpt>
      <trkpt lat="45.19943" lon="5.9954">
        <ele>2358.4</ele>
        <time>2021-02-27T08:52:28Z</time>
      </trkpt>
      <trkpt lat="45.19944" lon="5.99541">
        <ele>2358.8</ele>
        <time>2021-02-27T08:52:29Z</time>
      </trkpt>
      <trkpt lat="45.19944" lon="5.99542">
        <ele>2359</ele>
        <time>2021-02-27T08:52:30Z</time>
      </trkpt>
      <trkpt lat="45.19945" lon="5.99542">
        <ele>2359.2</ele>
        <time>2021-02-27T08:52:31Z</time>
      </trkpt>
      <trkpt lat="45.19945" lon="5.99543">
        <ele>2359.6</ele>
        <time>2021-02-27T08:52:32Z</time>
      </trkpt>
      <trkpt lat="45.19946" lon="5.99544">
        <ele>2359.8</ele>
        <time>2021-02-27T08:52:33Z</time>
      </trkpt>
      <trkpt lat="45.19946" lon="5.99544">
        <ele>2360</ele>
        <time>2021-02-27T08:52:34Z</time>
      </trkpt>
      <trkpt lat="45.19947" lon="5.99545">
        <ele>2360.4</ele>
        <time>2021-02-27T08:52:35Z</time>
      </trkpt>
      <trkpt lat="45.19947" lon="5.99546">
        <ele>2361</ele>
        <time>2021-02-27T08:52:36Z</time>
      </trkpt>
      <trkpt lat="45.19948" lon="5.99547">
        <ele>2361.2</ele>
        <time>2021-02-27T08:52:37Z</time>
      </trkpt>
      <trkpt lat="45.19948" lon="5.99547">
        <ele>2361.8</ele>
        <time>2021-02-27T08:52:38Z</time>
      </trkpt>
      <trkpt lat="45.19949" lon="5.99548">
        <ele>2361.8</ele>
        <time>2021-02-27T08:52:39Z</time>
      </trkpt>
      <trkpt lat="45.19949" lon="5.99548">
        <ele>2362.2</ele>
        <time>2021-02-27T08:52:40Z</time>
      </trkpt>
      <trkpt lat="45.19949" lon="5.99548">
        <ele>2362.6</ele>
        <time>2021-02-27T08:52:41Z</time>
      </trkpt>
      <trkpt lat="45.1995" lon="5.9955">
        <ele>2363</ele>
        <time>2021-02-27T08:52:42Z</time>
      </trkpt>
      <trkpt lat="45.1995" lon="5.9955">
        <ele>2363.2</ele>
        <time>2021-02-27T08:52:43Z</time>
      </trkpt>
      <trkpt lat="45.1995" lon="5.9955">
        <ele>2363.4</ele>
        <time>2021-02-27T08:52:44Z</time>
      </trkpt>
      <trkpt lat="45.19952" lon="5.99551">
        <ele>2363.6</ele>
        <time>2021-02-27T08:52:45Z</time>
      </trkpt>
      <trkpt lat="45.19952" lon="5.99551">
        <ele>2364</ele>
        <time>2021-02-27T08:52:46Z</time>
      </trkpt>
      <trkpt lat="45.19952" lon="5.99551">
        <ele>2364.2</ele>
        <time>2021-02-27T08:52:47Z</time>
      </trkpt>
      <trkpt lat="45.19952" lon="5.99551">
        <ele>2364.4</ele>
        <time>2021-02-27T08:52:48Z</time>
      </trkpt>
      <trkpt lat="45.19954" lon="5.99553">
        <ele>2364.6</ele>
        <time>2021-02-27T08:52:49Z</time>
      </trkpt>
      <trkpt lat="45.19954" lon="5.99553">
        <ele>2364.6</ele>
        <time>2021-02-27T08:52:50Z</time>
      </trkpt>
      <trkpt lat="45.19955" lon="5.99554">
        <ele>2365</ele>
        <time>2021-02-27T08:52:51Z</time>
      </trkpt>
      <trkpt lat="45.19955" lon="5.99555">
        <ele>2365.4</ele>
        <time>2021-02-27T08:52:52Z</time>
      </trkpt>
      <trkpt lat="45.19956" lon="5.99556">
        <ele>2365</ele>
        <time>2021-02-27T08:52:53Z</time>
      </trkpt>
      <trkpt lat="45.19956" lon="5.99557">
        <ele>2365.6</ele>
        <time>2021-02-27T08:52:54Z</time>
      </trkpt>
      <trkpt lat="45.19957" lon="5.99557">
        <ele>2365.8</ele>
        <time>2021-02-27T08:52:55Z</time>
      </trkpt>
      <trkpt lat="45.19958" lon="5.9956">
        <ele>2365.8</ele>
        <time>2021-02-27T08:52:56Z</time>
      </trkpt>
      <trkpt lat="45.19958" lon="5.9956">
        <ele>2366.6</ele>
        <time>2021-02-27T08:52:57Z</time>
      </trkpt>
      <trkpt lat="45.19958" lon="5.9956">
        <ele>2366.6</ele>
        <time>2021-02-27T08:52:58Z</time>
      </trkpt>
      <trkpt lat="45.19959" lon="5.99562">
        <ele>2366.8</ele>
        <time>2021-02-27T08:52:59Z</time>
      </trkpt>
      <trkpt lat="45.19959" lon="5.99562">
        <ele>2367.6</ele>
        <time>2021-02-27T08:53:00Z</time>
      </trkpt>
      <trkpt lat="45.19959" lon="5.99562">
        <ele>2367.6</ele>
        <time>2021-02-27T08:53:01Z</time>
      </trkpt>
      <trkpt lat="45.19961" lon="5.99565">
        <ele>2367.6</ele>
        <time>2021-02-27T08:53:02Z</time>
      </trkpt>
      <trkpt lat="45.19961" lon="5.99565">
        <ele>2368.2</ele>
        <time>2021-02-27T08:53:03Z</time>
      </trkpt>
      <trkpt lat="45.19963" lon="5.99567">
        <ele>2368</ele>
        <time>2021-02-27T08:53:04Z</time>
      </trkpt>
      <trkpt lat="45.19963" lon="5.99567">
        <ele>2368</ele>
        <time>2021-02-27T08:53:05Z</time>
      </trkpt>
      <trkpt lat="45.19965" lon="5.9957">
        <ele>2368.6</ele>
        <time>2021-02-27T08:53:06Z</time>
      </trkpt>
      <trkpt lat="45.19965" lon="5.9957">
        <ele>2368.8</ele>
        <time>2021-02-27T08:53:07Z</time>
      </trkpt>
      <trkpt lat="45.19967" lon="5.99572">
        <ele>2368.4</ele>
        <time>2021-02-27T08:53:08Z</time>
      </trkpt>
      <trkpt lat="45.19967" lon="5.99572">
        <ele>2368.8</ele>
        <time>2021-02-27T08:53:09Z</time>
      </trkpt>
      <trkpt lat="45.19968" lon="5.99573">
        <ele>2369</ele>
        <time>2021-02-27T08:53:10Z</time>
      </trkpt>
      <trkpt lat="45.19968" lon="5.99573">
        <ele>2369</ele>
        <time>2021-02-27T08:53:11Z</time>
      </trkpt>
      <trkpt lat="45.1997" lon="5.99575">
        <ele>2369.4</ele>
        <time>2021-02-27T08:53:12Z</time>
      </trkpt>
      <trkpt lat="45.1997" lon="5.99575">
        <ele>2369.6</ele>
        <time>2021-02-27T08:53:13Z</time>
      </trkpt>
      <trkpt lat="45.19973" lon="5.99576">
        <ele>2369.6</ele>
        <time>2021-02-27T08:53:14Z</time>
      </trkpt>
      <trkpt lat="45.19973" lon="5.99576">
        <ele>2369.8</ele>
        <time>2021-02-27T08:53:15Z</time>
      </trkpt>
      <trkpt lat="45.19974" lon="5.99578">
        <ele>2369.8</ele>
        <time>2021-02-27T08:53:16Z</time>
      </trkpt>
      <trkpt lat="45.19974" lon="5.99579">
        <ele>2370.2</ele>
        <time>2021-02-27T08:53:17Z</time>
      </trkpt>
      <trkpt lat="45.19975" lon="5.9958">
        <ele>2370.6</ele>
        <time>2021-02-27T08:53:18Z</time>
      </trkpt>
      <trkpt lat="45.19975" lon="5.99581">
        <ele>2370.8</ele>
        <time>2021-02-27T08:53:19Z</time>
      </trkpt>
      <trkpt lat="45.19976" lon="5.99582">
        <ele>2371.2</ele>
        <time>2021-02-27T08:53:20Z</time>
      </trkpt>
      <trkpt lat="45.19976" lon="5.99583">
        <ele>2371.2</ele>
        <time>2021-02-27T08:53:21Z</time>
      </trkpt>
      <trkpt lat="45.19977" lon="5.99585">
        <ele>2371.4</ele>
        <time>2021-02-27T08:53:22Z</time>
      </trkpt>
      <trkpt lat="45.19977" lon="5.99586">
        <ele>2372.4</ele>
        <time>2021-02-27T08:53:23Z</time>
      </trkpt>
      <trkpt lat="45.19978" lon="5.99587">
        <ele>2372.6</ele>
        <time>2021-02-27T08:53:24Z</time>
      </trkpt>
      <trkpt lat="45.19979" lon="5.99589">
        <ele>2372.6</ele>
        <time>2021-02-27T08:53:25Z</time>
      </trkpt>
      <trkpt lat="45.19979" lon="5.99589">
        <ele>2373</ele>
        <time>2021-02-27T08:53:26Z</time>
      </trkpt>
      <trkpt lat="45.19981" lon="5.9959">
        <ele>2373.2</ele>
        <time>2021-02-27T08:53:27Z</time>
      </trkpt>
      <trkpt lat="45.19981" lon="5.9959">
        <ele>2373.4</ele>
        <time>2021-02-27T08:53:28Z</time>
      </trkpt>
      <trkpt lat="45.19983" lon="5.99593">
        <ele>2373.8</ele>
        <time>2021-02-27T08:53:29Z</time>
      </trkpt>
      <trkpt lat="45.19983" lon="5.99593">
        <ele>2374</ele>
        <time>2021-02-27T08:53:30Z</time>
      </trkpt>
      <trkpt lat="45.19983" lon="5.99593">
        <ele>2374.2</ele>
        <time>2021-02-27T08:53:31Z</time>
      </trkpt>
      <trkpt lat="45.19984" lon="5.99596">
        <ele>2374.4</ele>
        <time>2021-02-27T08:53:32Z</time>
      </trkpt>
      <trkpt lat="45.19984" lon="5.99596">
        <ele>2374.8</ele>
        <time>2021-02-27T08:53:33Z</time>
      </trkpt>
      <trkpt lat="45.19986" lon="5.99597">
        <ele>2375.4</ele>
        <time>2021-02-27T08:53:34Z</time>
      </trkpt>
      <trkpt lat="45.19986" lon="5.99597">
        <ele>2375.8</ele>
        <time>2021-02-27T08:53:35Z</time>
      </trkpt>
      <trkpt lat="45.19987" lon="5.99598">
        <ele>2376</ele>
        <time>2021-02-27T08:53:36Z</time>
      </trkpt>
      <trkpt lat="45.19988" lon="5.99599">
        <ele>2376.2</ele>
        <time>2021-02-27T08:53:37Z</time>
      </trkpt>
      <trkpt lat="45.19989" lon="5.99599">
        <ele>2376.8</ele>
        <time>2021-02-27T08:53:38Z</time>
      </trkpt>
      <trkpt lat="45.1999" lon="5.996">
        <ele>2376.8</ele>
        <time>2021-02-27T08:53:39Z</time>
      </trkpt>
      <trkpt lat="45.19991" lon="5.99601">
        <ele>2377</ele>
        <time>2021-02-27T08:53:40Z</time>
      </trkpt>
      <trkpt lat="45.19992" lon="5.99601">
        <ele>2377.4</ele>
        <time>2021-02-27T08:53:41Z</time>
      </trkpt>
      <trkpt lat="45.19993" lon="5.99602">
        <ele>2377.8</ele>
        <time>2021-02-27T08:53:42Z</time>
      </trkpt>
      <trkpt lat="45.19994" lon="5.99603">
        <ele>2378</ele>
        <time>2021-02-27T08:53:43Z</time>
      </trkpt>
      <trkpt lat="45.19995" lon="5.99603">
        <ele>2378.2</ele>
        <time>2021-02-27T08:53:44Z</time>
      </trkpt>
      <trkpt lat="45.19995" lon="5.99605">
        <ele>2378.4</ele>
        <time>2021-02-27T08:53:45Z</time>
      </trkpt>
      <trkpt lat="45.19996" lon="5.99606">
        <ele>2378.6</ele>
        <time>2021-02-27T08:53:46Z</time>
      </trkpt>
      <trkpt lat="45.19996" lon="5.99607">
        <ele>2379</ele>
        <time>2021-02-27T08:53:47Z</time>
      </trkpt>
      <trkpt lat="45.19997" lon="5.99608">
        <ele>2379.2</ele>
        <time>2021-02-27T08:53:48Z</time>
      </trkpt>
      <trkpt lat="45.19997" lon="5.99609">
        <ele>2379.6</ele>
        <time>2021-02-27T08:53:49Z</time>
      </trkpt>
      <trkpt lat="45.19998" lon="5.9961">
        <ele>2379.6</ele>
        <time>2021-02-27T08:53:50Z</time>
      </trkpt>
      <trkpt lat="45.19999" lon="5.99612">
        <ele>2380</ele>
        <time>2021-02-27T08:53:51Z</time>
      </trkpt>
      <trkpt lat="45.19999" lon="5.99613">
        <ele>2380</ele>
        <time>2021-02-27T08:53:52Z</time>
      </trkpt>
      <trkpt lat="45.2" lon="5.99614">
        <ele>2380.2</ele>
        <time>2021-02-27T08:53:53Z</time>
      </trkpt>
      <trkpt lat="45.2" lon="5.99615">
        <ele>2380.8</ele>
        <time>2021-02-27T08:53:54Z</time>
      </trkpt>
      <trkpt lat="45.19999" lon="5.99617">
        <ele>2380.8</ele>
        <time>2021-02-27T08:53:55Z</time>
      </trkpt>
      <trkpt lat="45.19999" lon="5.99618">
        <ele>2381.4</ele>
        <time>2021-02-27T08:53:56Z</time>
      </trkpt>
      <trkpt lat="45.19999" lon="5.99619">
        <ele>2382</ele>
        <time>2021-02-27T08:53:57Z</time>
      </trkpt>
      <trkpt lat="45.19999" lon="5.99621">
        <ele>2382</ele>
        <time>2021-02-27T08:53:58Z</time>
      </trkpt>
      <trkpt lat="45.19998" lon="5.99622">
        <ele>2382.8</ele>
        <time>2021-02-27T08:53:59Z</time>
      </trkpt>
      <trkpt lat="45.19998" lon="5.99623">
        <ele>2382.8</ele>
        <time>2021-02-27T08:54:00Z</time>
      </trkpt>
      <trkpt lat="45.19998" lon="5.99625">
        <ele>2383</ele>
        <time>2021-02-27T08:54:01Z</time>
      </trkpt>
      <trkpt lat="45.19998" lon="5.99626">
        <ele>2383.6</ele>
        <time>2021-02-27T08:54:02Z</time>
      </trkpt>
      <trkpt lat="45.19997" lon="5.99627">
        <ele>2383.8</ele>
        <time>2021-02-27T08:54:03Z</time>
      </trkpt>
      <trkpt lat="45.19997" lon="5.99628">
        <ele>2384</ele>
        <time>2021-02-27T08:54:04Z</time>
      </trkpt>
      <trkpt lat="45.19996" lon="5.9963">
        <ele>2384.6</ele>
        <time>2021-02-27T08:54:05Z</time>
      </trkpt>
      <trkpt lat="45.19996" lon="5.99631">
        <ele>2385.2</ele>
        <time>2021-02-27T08:54:06Z</time>
      </trkpt>
      <trkpt lat="45.19995" lon="5.99632">
        <ele>2385.4</ele>
        <time>2021-02-27T08:54:07Z</time>
      </trkpt>
      <trkpt lat="45.19995" lon="5.99633">
        <ele>2385.8</ele>
        <time>2021-02-27T08:54:08Z</time>
      </trkpt>
      <trkpt lat="45.19994" lon="5.99634">
        <ele>2386</ele>
        <time>2021-02-27T08:54:09Z</time>
      </trkpt>
      <trkpt lat="45.19994" lon="5.99634">
        <ele>2386.2</ele>
        <time>2021-02-27T08:54:10Z</time>
      </trkpt>
      <trkpt lat="45.19994" lon="5.99634">
        <ele>2386.4</ele>
        <time>2021-02-27T08:54:11Z</time>
      </trkpt>
      <trkpt lat="45.19993" lon="5.99637">
        <ele>2386.6</ele>
        <time>2021-02-27T08:54:12Z</time>
      </trkpt>
      <trkpt lat="45.19993" lon="5.99637">
        <ele>2386.4</ele>
        <time>2021-02-27T08:54:13Z</time>
      </trkpt>
      <trkpt lat="45.19993" lon="5.99637">
        <ele>2387.2</ele>
        <time>2021-02-27T08:54:14Z</time>
      </trkpt>
      <trkpt lat="45.19993" lon="5.99638">
        <ele>2387</ele>
        <time>2021-02-27T08:54:15Z</time>
      </trkpt>
      <trkpt lat="45.19993" lon="5.99638">
        <ele>2387</ele>
        <time>2021-02-27T08:54:16Z</time>
      </trkpt>
      <trkpt lat="45.19993" lon="5.99639">
        <ele>2387.6</ele>
        <time>2021-02-27T08:54:17Z</time>
      </trkpt>
      <trkpt lat="45.19993" lon="5.9964">
        <ele>2387.8</ele>
        <time>2021-02-27T08:54:18Z</time>
      </trkpt>
      <trkpt lat="45.19993" lon="5.9964">
        <ele>2387.6</ele>
        <time>2021-02-27T08:54:19Z</time>
      </trkpt>
      <trkpt lat="45.19993" lon="5.99641">
        <ele>2388</ele>
        <time>2021-02-27T08:54:20Z</time>
      </trkpt>
      <trkpt lat="45.19994" lon="5.99641">
        <ele>2388.6</ele>
        <time>2021-02-27T08:54:21Z</time>
      </trkpt>
      <trkpt lat="45.19994" lon="5.99642">
        <ele>2388.8</ele>
        <time>2021-02-27T08:54:22Z</time>
      </trkpt>
      <trkpt lat="45.19994" lon="5.99642">
        <ele>2389</ele>
        <time>2021-02-27T08:54:23Z</time>
      </trkpt>
      <trkpt lat="45.19994" lon="5.99643">
        <ele>2388.8</ele>
        <time>2021-02-27T08:54:24Z</time>
      </trkpt>
      <trkpt lat="45.19994" lon="5.99643">
        <ele>2388.6</ele>
        <time>2021-02-27T08:54:25Z</time>
      </trkpt>
      <trkpt lat="45.19996" lon="5.99644">
        <ele>2388.8</ele>
        <time>2021-02-27T08:54:26Z</time>
      </trkpt>
      <trkpt lat="45.19996" lon="5.99644">
        <ele>2388.6</ele>
        <time>2021-02-27T08:54:27Z</time>
      </trkpt>
      <trkpt lat="45.19998" lon="5.99644">
        <ele>2389</ele>
        <time>2021-02-27T08:54:28Z</time>
      </trkpt>
      <trkpt lat="45.19998" lon="5.99644">
        <ele>2389.2</ele>
        <time>2021-02-27T08:54:29Z</time>
      </trkpt>
      <trkpt lat="45.2" lon="5.99643">
        <ele>2389.4</ele>
        <time>2021-02-27T08:54:30Z</time>
      </trkpt>
      <trkpt lat="45.2" lon="5.99643">
        <ele>2389.8</ele>
        <time>2021-02-27T08:54:31Z</time>
      </trkpt>
      <trkpt lat="45.20002" lon="5.99643">
        <ele>2390.4</ele>
        <time>2021-02-27T08:54:32Z</time>
      </trkpt>
      <trkpt lat="45.20002" lon="5.99643">
        <ele>2390.8</ele>
        <time>2021-02-27T08:54:33Z</time>
      </trkpt>
      <trkpt lat="45.20002" lon="5.99643">
        <ele>2390.8</ele>
        <time>2021-02-27T08:54:34Z</time>
      </trkpt>
      <trkpt lat="45.20005" lon="5.99643">
        <ele>2391</ele>
        <time>2021-02-27T08:54:35Z</time>
      </trkpt>
      <trkpt lat="45.20005" lon="5.99643">
        <ele>2391.4</ele>
        <time>2021-02-27T08:54:36Z</time>
      </trkpt>
      <trkpt lat="45.20005" lon="5.99643">
        <ele>2391.4</ele>
        <time>2021-02-27T08:54:37Z</time>
      </trkpt>
      <trkpt lat="45.20007" lon="5.99643">
        <ele>2391.8</ele>
        <time>2021-02-27T08:54:38Z</time>
      </trkpt>
      <trkpt lat="45.20007" lon="5.99643">
        <ele>2392.2</ele>
        <time>2021-02-27T08:54:39Z</time>
      </trkpt>
      <trkpt lat="45.20007" lon="5.99643">
        <ele>2392.2</ele>
        <time>2021-02-27T08:54:40Z</time>
      </trkpt>
      <trkpt lat="45.20009" lon="5.99643">
        <ele>2392.4</ele>
        <time>2021-02-27T08:54:41Z</time>
      </trkpt>
      <trkpt lat="45.20009" lon="5.99643">
        <ele>2392.6</ele>
        <time>2021-02-27T08:54:42Z</time>
      </trkpt>
      <trkpt lat="45.20009" lon="5.99643">
        <ele>2392.6</ele>
        <time>2021-02-27T08:54:43Z</time>
      </trkpt>
      <trkpt lat="45.20012" lon="5.99642">
        <ele>2393</ele>
        <time>2021-02-27T08:54:44Z</time>
      </trkpt>
      <trkpt lat="45.20012" lon="5.99642">
        <ele>2393</ele>
        <time>2021-02-27T08:54:45Z</time>
      </trkpt>
      <trkpt lat="45.20014" lon="5.99641">
        <ele>2393</ele>
        <time>2021-02-27T08:54:46Z</time>
      </trkpt>
      <trkpt lat="45.20014" lon="5.99641">
        <ele>2393.2</ele>
        <time>2021-02-27T08:54:47Z</time>
      </trkpt>
      <trkpt lat="45.20014" lon="5.99641">
        <ele>2393.4</ele>
        <time>2021-02-27T08:54:48Z</time>
      </trkpt>
      <trkpt lat="45.20016" lon="5.9964">
        <ele>2393.8</ele>
        <time>2021-02-27T08:54:49Z</time>
      </trkpt>
      <trkpt lat="45.20016" lon="5.9964">
        <ele>2394</ele>
        <time>2021-02-27T08:54:50Z</time>
      </trkpt>
      <trkpt lat="45.20018" lon="5.99639">
        <ele>2394.2</ele>
        <time>2021-02-27T08:54:51Z</time>
      </trkpt>
      <trkpt lat="45.20018" lon="5.99639">
        <ele>2394.4</ele>
        <time>2021-02-27T08:54:52Z</time>
      </trkpt>
      <trkpt lat="45.2002" lon="5.99638">
        <ele>2394.6</ele>
        <time>2021-02-27T08:54:53Z</time>
      </trkpt>
      <trkpt lat="45.2002" lon="5.99638">
        <ele>2394.8</ele>
        <time>2021-02-27T08:54:54Z</time>
      </trkpt>
      <trkpt lat="45.2002" lon="5.99638">
        <ele>2395.2</ele>
        <time>2021-02-27T08:54:55Z</time>
      </trkpt>
      <trkpt lat="45.20022" lon="5.99637">
        <ele>2395.2</ele>
        <time>2021-02-27T08:54:56Z</time>
      </trkpt>
      <trkpt lat="45.20022" lon="5.99637">
        <ele>2395.4</ele>
        <time>2021-02-27T08:54:57Z</time>
      </trkpt>
      <trkpt lat="45.20022" lon="5.99637">
        <ele>2395.4</ele>
        <time>2021-02-27T08:54:58Z</time>
      </trkpt>
      <trkpt lat="45.20022" lon="5.99637">
        <ele>2395.4</ele>
        <time>2021-02-27T08:54:59Z</time>
      </trkpt>
      <trkpt lat="45.20022" lon="5.99637">
        <ele>2395.2</ele>
        <time>2021-02-27T08:55:00Z</time>
      </trkpt>
      <trkpt lat="45.20022" lon="5.99637">
        <ele>2395.4</ele>
        <time>2021-02-27T08:55:01Z</time>
      </trkpt>
      <trkpt lat="45.20023" lon="5.99638">
        <ele>2396</ele>
        <time>2021-02-27T08:55:02Z</time>
      </trkpt>
      <trkpt lat="45.20023" lon="5.99638">
        <ele>2396</ele>
        <time>2021-02-27T08:55:03Z</time>
      </trkpt>
      <trkpt lat="45.20023" lon="5.99638">
        <ele>2396.2</ele>
        <time>2021-02-27T08:55:04Z</time>
      </trkpt>
      <trkpt lat="45.20023" lon="5.99641">
        <ele>2396.6</ele>
        <time>2021-02-27T08:55:05Z</time>
      </trkpt>
      <trkpt lat="45.20023" lon="5.99641">
        <ele>2396.4</ele>
        <time>2021-02-27T08:55:06Z</time>
      </trkpt>
      <trkpt lat="45.20022" lon="5.99644">
        <ele>2396.8</ele>
        <time>2021-02-27T08:55:07Z</time>
      </trkpt>
      <trkpt lat="45.20022" lon="5.99644">
        <ele>2397.2</ele>
        <time>2021-02-27T08:55:08Z</time>
      </trkpt>
      <trkpt lat="45.20022" lon="5.99647">
        <ele>2396.8</ele>
        <time>2021-02-27T08:55:09Z</time>
      </trkpt>
      <trkpt lat="45.20022" lon="5.99647">
        <ele>2397.4</ele>
        <time>2021-02-27T08:55:10Z</time>
      </trkpt>
      <trkpt lat="45.20021" lon="5.99648">
        <ele>2397.8</ele>
        <time>2021-02-27T08:55:11Z</time>
      </trkpt>
      <trkpt lat="45.20021" lon="5.99649">
        <ele>2398</ele>
        <time>2021-02-27T08:55:12Z</time>
      </trkpt>
      <trkpt lat="45.20021" lon="5.9965">
        <ele>2398.6</ele>
        <time>2021-02-27T08:55:13Z</time>
      </trkpt>
      <trkpt lat="45.20021" lon="5.99651">
        <ele>2399</ele>
        <time>2021-02-27T08:55:14Z</time>
      </trkpt>
      <trkpt lat="45.2002" lon="5.99652">
        <ele>2398.8</ele>
        <time>2021-02-27T08:55:15Z</time>
      </trkpt>
      <trkpt lat="45.2002" lon="5.99653">
        <ele>2399.4</ele>
        <time>2021-02-27T08:55:16Z</time>
      </trkpt>
      <trkpt lat="45.2002" lon="5.99654">
        <ele>2399.6</ele>
        <time>2021-02-27T08:55:17Z</time>
      </trkpt>
      <trkpt lat="45.20019" lon="5.99656">
        <ele>2400.2</ele>
        <time>2021-02-27T08:55:18Z</time>
      </trkpt>
      <trkpt lat="45.20019" lon="5.99657">
        <ele>2401</ele>
        <time>2021-02-27T08:55:19Z</time>
      </trkpt>
      <trkpt lat="45.20019" lon="5.99658">
        <ele>2401</ele>
        <time>2021-02-27T08:55:20Z</time>
      </trkpt>
      <trkpt lat="45.20019" lon="5.99658">
        <ele>2400.8</ele>
        <time>2021-02-27T08:55:21Z</time>
      </trkpt>
      <trkpt lat="45.20019" lon="5.99658">
        <ele>2401.4</ele>
        <time>2021-02-27T08:55:22Z</time>
      </trkpt>
      <trkpt lat="45.20019" lon="5.99658">
        <ele>2401.2</ele>
        <time>2021-02-27T08:55:23Z</time>
      </trkpt>
      <trkpt lat="45.20019" lon="5.99658">
        <ele>2401.8</ele>
        <time>2021-02-27T08:55:24Z</time>
      </trkpt>
      <trkpt lat="45.20019" lon="5.99658">
        <ele>2402.2</ele>
        <time>2021-02-27T08:55:25Z</time>
      </trkpt>
      <trkpt lat="45.20019" lon="5.99658">
        <ele>2402.4</ele>
        <time>2021-02-27T08:55:26Z</time>
      </trkpt>
      <trkpt lat="45.2002" lon="5.99659">
        <ele>2402.8</ele>
        <time>2021-02-27T08:55:27Z</time>
      </trkpt>
      <trkpt lat="45.2002" lon="5.99659">
        <ele>2402.8</ele>
        <time>2021-02-27T08:55:28Z</time>
      </trkpt>
      <trkpt lat="45.20022" lon="5.99659">
        <ele>2403</ele>
        <time>2021-02-27T08:55:29Z</time>
      </trkpt>
      <trkpt lat="45.20022" lon="5.99659">
        <ele>2403.6</ele>
        <time>2021-02-27T08:55:30Z</time>
      </trkpt>
      <trkpt lat="45.20023" lon="5.99659">
        <ele>2403.6</ele>
        <time>2021-02-27T08:55:31Z</time>
      </trkpt>
      <trkpt lat="45.20024" lon="5.99659">
        <ele>2403.8</ele>
        <time>2021-02-27T08:55:32Z</time>
      </trkpt>
      <trkpt lat="45.20024" lon="5.9966">
        <ele>2404</ele>
        <time>2021-02-27T08:55:33Z</time>
      </trkpt>
      <trkpt lat="45.20025" lon="5.9966">
        <ele>2404.4</ele>
        <time>2021-02-27T08:55:34Z</time>
      </trkpt>
      <trkpt lat="45.20026" lon="5.9966">
        <ele>2404.4</ele>
        <time>2021-02-27T08:55:35Z</time>
      </trkpt>
      <trkpt lat="45.20026" lon="5.9966">
        <ele>2404.6</ele>
        <time>2021-02-27T08:55:36Z</time>
      </trkpt>
      <trkpt lat="45.20027" lon="5.99661">
        <ele>2405</ele>
        <time>2021-02-27T08:55:37Z</time>
      </trkpt>
      <trkpt lat="45.20028" lon="5.99661">
        <ele>2405.6</ele>
        <time>2021-02-27T08:55:38Z</time>
      </trkpt>
      <trkpt lat="45.20028" lon="5.99661">
        <ele>2405.8</ele>
        <time>2021-02-27T08:55:39Z</time>
      </trkpt>
      <trkpt lat="45.20028" lon="5.99664">
        <ele>2406.4</ele>
        <time>2021-02-27T08:55:40Z</time>
      </trkpt>
      <trkpt lat="45.20028" lon="5.99664">
        <ele>2406.4</ele>
        <time>2021-02-27T08:55:41Z</time>
      </trkpt>
      <trkpt lat="45.20028" lon="5.99664">
        <ele>2406.6</ele>
        <time>2021-02-27T08:55:42Z</time>
      </trkpt>
      <trkpt lat="45.20028" lon="5.99664">
        <ele>2407.2</ele>
        <time>2021-02-27T08:55:43Z</time>
      </trkpt>
      <trkpt lat="45.20028" lon="5.99664">
        <ele>2407.2</ele>
        <time>2021-02-27T08:55:44Z</time>
      </trkpt>
      <trkpt lat="45.20028" lon="5.99664">
        <ele>2407.4</ele>
        <time>2021-02-27T08:55:45Z</time>
      </trkpt>
      <trkpt lat="45.20028" lon="5.99666">
        <ele>2407.8</ele>
        <time>2021-02-27T08:55:46Z</time>
      </trkpt>
      <trkpt lat="45.20028" lon="5.99666">
        <ele>2408.2</ele>
        <time>2021-02-27T08:55:47Z</time>
      </trkpt>
      <trkpt lat="45.2003" lon="5.99668">
        <ele>2408.4</ele>
        <time>2021-02-27T08:55:48Z</time>
      </trkpt>
      <trkpt lat="45.2003" lon="5.99668">
        <ele>2408.6</ele>
        <time>2021-02-27T08:55:49Z</time>
      </trkpt>
      <trkpt lat="45.2003" lon="5.99668">
        <ele>2409</ele>
        <time>2021-02-27T08:55:50Z</time>
      </trkpt>
      <trkpt lat="45.20032" lon="5.9967">
        <ele>2409</ele>
        <time>2021-02-27T08:55:51Z</time>
      </trkpt>
      <trkpt lat="45.20032" lon="5.9967">
        <ele>2409.2</ele>
        <time>2021-02-27T08:55:52Z</time>
      </trkpt>
      <trkpt lat="45.20034" lon="5.99673">
        <ele>2409.2</ele>
        <time>2021-02-27T08:55:53Z</time>
      </trkpt>
      <trkpt lat="45.20034" lon="5.99673">
        <ele>2409.6</ele>
        <time>2021-02-27T08:55:54Z</time>
      </trkpt>
      <trkpt lat="45.20034" lon="5.99675">
        <ele>2410</ele>
        <time>2021-02-27T08:55:55Z</time>
      </trkpt>
      <trkpt lat="45.20034" lon="5.99675">
        <ele>2410</ele>
        <time>2021-02-27T08:55:56Z</time>
      </trkpt>
      <trkpt lat="45.20035" lon="5.99676">
        <ele>2410.2</ele>
        <time>2021-02-27T08:55:57Z</time>
      </trkpt>
      <trkpt lat="45.20035" lon="5.99678">
        <ele>2410.8</ele>
        <time>2021-02-27T08:55:58Z</time>
      </trkpt>
      <trkpt lat="45.20036" lon="5.99679">
        <ele>2411.6</ele>
        <time>2021-02-27T08:55:59Z</time>
      </trkpt>
      <trkpt lat="45.20036" lon="5.9968">
        <ele>2411.6</ele>
        <time>2021-02-27T08:56:00Z</time>
      </trkpt>
      <trkpt lat="45.20037" lon="5.99681">
        <ele>2411.8</ele>
        <time>2021-02-27T08:56:01Z</time>
      </trkpt>
      <trkpt lat="45.20037" lon="5.99682">
        <ele>2411.8</ele>
        <time>2021-02-27T08:56:02Z</time>
      </trkpt>
      <trkpt lat="45.20038" lon="5.99684">
        <ele>2412</ele>
        <time>2021-02-27T08:56:03Z</time>
      </trkpt>
      <trkpt lat="45.20038" lon="5.99685">
        <ele>2412.4</ele>
        <time>2021-02-27T08:56:04Z</time>
      </trkpt>
      <trkpt lat="45.20039" lon="5.99686">
        <ele>2412.6</ele>
        <time>2021-02-27T08:56:05Z</time>
      </trkpt>
      <trkpt lat="45.20039" lon="5.99687">
        <ele>2412.8</ele>
        <time>2021-02-27T08:56:06Z</time>
      </trkpt>
      <trkpt lat="45.2004" lon="5.99688">
        <ele>2412.6</ele>
        <time>2021-02-27T08:56:07Z</time>
      </trkpt>
      <trkpt lat="45.20041" lon="5.9969">
        <ele>2412.8</ele>
        <time>2021-02-27T08:56:08Z</time>
      </trkpt>
      <trkpt lat="45.20042" lon="5.99691">
        <ele>2413.4</ele>
        <time>2021-02-27T08:56:09Z</time>
      </trkpt>
      <trkpt lat="45.20043" lon="5.99692">
        <ele>2413.6</ele>
        <time>2021-02-27T08:56:10Z</time>
      </trkpt>
      <trkpt lat="45.20044" lon="5.99694">
        <ele>2413.8</ele>
        <time>2021-02-27T08:56:11Z</time>
      </trkpt>
      <trkpt lat="45.20045" lon="5.99695">
        <ele>2413.8</ele>
        <time>2021-02-27T08:56:12Z</time>
      </trkpt>
      <trkpt lat="45.20046" lon="5.99696">
        <ele>2413.8</ele>
        <time>2021-02-27T08:56:13Z</time>
      </trkpt>
      <trkpt lat="45.20047" lon="5.99698">
        <ele>2413.8</ele>
        <time>2021-02-27T08:56:14Z</time>
      </trkpt>
      <trkpt lat="45.20048" lon="5.99699">
        <ele>2414.6</ele>
        <time>2021-02-27T08:56:15Z</time>
      </trkpt>
      <trkpt lat="45.20049" lon="5.997">
        <ele>2414.8</ele>
        <time>2021-02-27T08:56:16Z</time>
      </trkpt>
      <trkpt lat="45.2005" lon="5.99702">
        <ele>2415</ele>
        <time>2021-02-27T08:56:17Z</time>
      </trkpt>
      <trkpt lat="45.20051" lon="5.99703">
        <ele>2415.2</ele>
        <time>2021-02-27T08:56:18Z</time>
      </trkpt>
      <trkpt lat="45.20052" lon="5.99704">
        <ele>2415.2</ele>
        <time>2021-02-27T08:56:19Z</time>
      </trkpt>
      <trkpt lat="45.20053" lon="5.99706">
        <ele>2415.4</ele>
        <time>2021-02-27T08:56:20Z</time>
      </trkpt>
      <trkpt lat="45.20054" lon="5.99706">
        <ele>2415.6</ele>
        <time>2021-02-27T08:56:21Z</time>
      </trkpt>
      <trkpt lat="45.20055" lon="5.99707">
        <ele>2415.4</ele>
        <time>2021-02-27T08:56:22Z</time>
      </trkpt>
      <trkpt lat="45.20056" lon="5.99708">
        <ele>2415.4</ele>
        <time>2021-02-27T08:56:23Z</time>
      </trkpt>
      <trkpt lat="45.20057" lon="5.99709">
        <ele>2415.6</ele>
        <time>2021-02-27T08:56:24Z</time>
      </trkpt>
      <trkpt lat="45.20059" lon="5.9971">
        <ele>2415.8</ele>
        <time>2021-02-27T08:56:25Z</time>
      </trkpt>
      <trkpt lat="45.2006" lon="5.99711">
        <ele>2416</ele>
        <time>2021-02-27T08:56:26Z</time>
      </trkpt>
      <trkpt lat="45.20061" lon="5.99712">
        <ele>2416.2</ele>
        <time>2021-02-27T08:56:27Z</time>
      </trkpt>
      <trkpt lat="45.20061" lon="5.99713">
        <ele>2416.4</ele>
        <time>2021-02-27T08:56:28Z</time>
      </trkpt>
      <trkpt lat="45.20062" lon="5.99715">
        <ele>2417</ele>
        <time>2021-02-27T08:56:29Z</time>
      </trkpt>
      <trkpt lat="45.20062" lon="5.99716">
        <ele>2417.6</ele>
        <time>2021-02-27T08:56:30Z</time>
      </trkpt>
      <trkpt lat="45.20063" lon="5.99717">
        <ele>2418.2</ele>
        <time>2021-02-27T08:56:31Z</time>
      </trkpt>
      <trkpt lat="45.20063" lon="5.99718">
        <ele>2418</ele>
        <time>2021-02-27T08:56:32Z</time>
      </trkpt>
      <trkpt lat="45.20064" lon="5.9972">
        <ele>2418</ele>
        <time>2021-02-27T08:56:33Z</time>
      </trkpt>
      <trkpt lat="45.20064" lon="5.99721">
        <ele>2418.2</ele>
        <time>2021-02-27T08:56:34Z</time>
      </trkpt>
      <trkpt lat="45.20065" lon="5.99722">
        <ele>2418</ele>
        <time>2021-02-27T08:56:35Z</time>
      </trkpt>
      <trkpt lat="45.20065" lon="5.99724">
        <ele>2418.2</ele>
        <time>2021-02-27T08:56:36Z</time>
      </trkpt>
      <trkpt lat="45.20066" lon="5.99725">
        <ele>2418.4</ele>
        <time>2021-02-27T08:56:37Z</time>
      </trkpt>
      <trkpt lat="45.20067" lon="5.99726">
        <ele>2418.4</ele>
        <time>2021-02-27T08:56:38Z</time>
      </trkpt>
      <trkpt lat="45.20067" lon="5.99727">
        <ele>2418.2</ele>
        <time>2021-02-27T08:56:39Z</time>
      </trkpt>
      <trkpt lat="45.20068" lon="5.99728">
        <ele>2418.6</ele>
        <time>2021-02-27T08:56:40Z</time>
      </trkpt>
      <trkpt lat="45.20069" lon="5.99729">
        <ele>2419.4</ele>
        <time>2021-02-27T08:56:41Z</time>
      </trkpt>
      <trkpt lat="45.20069" lon="5.9973">
        <ele>2419.2</ele>
        <time>2021-02-27T08:56:42Z</time>
      </trkpt>
      <trkpt lat="45.2007" lon="5.9973">
        <ele>2419</ele>
        <time>2021-02-27T08:56:43Z</time>
      </trkpt>
      <trkpt lat="45.2007" lon="5.99731">
        <ele>2419.6</ele>
        <time>2021-02-27T08:56:44Z</time>
      </trkpt>
      <trkpt lat="45.20071" lon="5.99732">
        <ele>2420</ele>
        <time>2021-02-27T08:56:45Z</time>
      </trkpt>
      <trkpt lat="45.20072" lon="5.99733">
        <ele>2420</ele>
        <time>2021-02-27T08:56:46Z</time>
      </trkpt>
      <trkpt lat="45.20072" lon="5.99734">
        <ele>2420.6</ele>
        <time>2021-02-27T08:56:47Z</time>
      </trkpt>
      <trkpt lat="45.20073" lon="5.99735">
        <ele>2420.8</ele>
        <time>2021-02-27T08:56:48Z</time>
      </trkpt>
      <trkpt lat="45.20074" lon="5.99736">
        <ele>2421</ele>
        <time>2021-02-27T08:56:49Z</time>
      </trkpt>
      <trkpt lat="45.20075" lon="5.99737">
        <ele>2421.2</ele>
        <time>2021-02-27T08:56:50Z</time>
      </trkpt>
      <trkpt lat="45.20077" lon="5.99738">
        <ele>2421.4</ele>
        <time>2021-02-27T08:56:51Z</time>
      </trkpt>
      <trkpt lat="45.20078" lon="5.99739">
        <ele>2421.8</ele>
        <time>2021-02-27T08:56:52Z</time>
      </trkpt>
      <trkpt lat="45.20079" lon="5.99739">
        <ele>2421.8</ele>
        <time>2021-02-27T08:56:53Z</time>
      </trkpt>
      <trkpt lat="45.2008" lon="5.9974">
        <ele>2422.2</ele>
        <time>2021-02-27T08:56:54Z</time>
      </trkpt>
      <trkpt lat="45.20081" lon="5.99741">
        <ele>2422.6</ele>
        <time>2021-02-27T08:56:55Z</time>
      </trkpt>
      <trkpt lat="45.20081" lon="5.99742">
        <ele>2422.6</ele>
        <time>2021-02-27T08:56:56Z</time>
      </trkpt>
      <trkpt lat="45.20082" lon="5.99743">
        <ele>2423.4</ele>
        <time>2021-02-27T08:56:57Z</time>
      </trkpt>
      <trkpt lat="45.20082" lon="5.99744">
        <ele>2423.6</ele>
        <time>2021-02-27T08:56:58Z</time>
      </trkpt>
      <trkpt lat="45.20082" lon="5.99745">
        <ele>2423.6</ele>
        <time>2021-02-27T08:56:59Z</time>
      </trkpt>
      <trkpt lat="45.20083" lon="5.99746">
        <ele>2423.6</ele>
        <time>2021-02-27T08:57:00Z</time>
      </trkpt>
      <trkpt lat="45.20083" lon="5.99747">
        <ele>2424</ele>
        <time>2021-02-27T08:57:01Z</time>
      </trkpt>
      <trkpt lat="45.20084" lon="5.99747">
        <ele>2424.2</ele>
        <time>2021-02-27T08:57:02Z</time>
      </trkpt>
      <trkpt lat="45.20084" lon="5.99748">
        <ele>2424.8</ele>
        <time>2021-02-27T08:57:03Z</time>
      </trkpt>
      <trkpt lat="45.20084" lon="5.99749">
        <ele>2424.8</ele>
        <time>2021-02-27T08:57:04Z</time>
      </trkpt>
      <trkpt lat="45.20085" lon="5.9975">
        <ele>2425</ele>
        <time>2021-02-27T08:57:05Z</time>
      </trkpt>
      <trkpt lat="45.20085" lon="5.99751">
        <ele>2425</ele>
        <time>2021-02-27T08:57:06Z</time>
      </trkpt>
      <trkpt lat="45.20086" lon="5.99752">
        <ele>2425.6</ele>
        <time>2021-02-27T08:57:07Z</time>
      </trkpt>
      <trkpt lat="45.20087" lon="5.99753">
        <ele>2425.8</ele>
        <time>2021-02-27T08:57:08Z</time>
      </trkpt>
      <trkpt lat="45.20087" lon="5.99754">
        <ele>2425.6</ele>
        <time>2021-02-27T08:57:09Z</time>
      </trkpt>
      <trkpt lat="45.20088" lon="5.99755">
        <ele>2426</ele>
        <time>2021-02-27T08:57:10Z</time>
      </trkpt>
      <trkpt lat="45.20089" lon="5.99755">
        <ele>2426</ele>
        <time>2021-02-27T08:57:11Z</time>
      </trkpt>
      <trkpt lat="45.2009" lon="5.99756">
        <ele>2426.4</ele>
        <time>2021-02-27T08:57:12Z</time>
      </trkpt>
      <trkpt lat="45.20091" lon="5.99757">
        <ele>2426.8</ele>
        <time>2021-02-27T08:57:13Z</time>
      </trkpt>
      <trkpt lat="45.20092" lon="5.99758">
        <ele>2427.2</ele>
        <time>2021-02-27T08:57:14Z</time>
      </trkpt>
      <trkpt lat="45.20092" lon="5.99759">
        <ele>2427.2</ele>
        <time>2021-02-27T08:57:15Z</time>
      </trkpt>
      <trkpt lat="45.20093" lon="5.9976">
        <ele>2427.4</ele>
        <time>2021-02-27T08:57:16Z</time>
      </trkpt>
      <trkpt lat="45.20093" lon="5.99761">
        <ele>2428.2</ele>
        <time>2021-02-27T08:57:17Z</time>
      </trkpt>
      <trkpt lat="45.20094" lon="5.99762">
        <ele>2428.6</ele>
        <time>2021-02-27T08:57:18Z</time>
      </trkpt>
      <trkpt lat="45.20094" lon="5.99763">
        <ele>2428.6</ele>
        <time>2021-02-27T08:57:19Z</time>
      </trkpt>
      <trkpt lat="45.20094" lon="5.99764">
        <ele>2430</ele>
        <time>2021-02-27T08:57:20Z</time>
      </trkpt>
      <trkpt lat="45.20095" lon="5.99765">
        <ele>2429.8</ele>
        <time>2021-02-27T08:57:21Z</time>
      </trkpt>
      <trkpt lat="45.20095" lon="5.99766">
        <ele>2430</ele>
        <time>2021-02-27T08:57:22Z</time>
      </trkpt>
      <trkpt lat="45.20095" lon="5.99768">
        <ele>2430.4</ele>
        <time>2021-02-27T08:57:23Z</time>
      </trkpt>
      <trkpt lat="45.20096" lon="5.99769">
        <ele>2430.2</ele>
        <time>2021-02-27T08:57:24Z</time>
      </trkpt>
      <trkpt lat="45.20096" lon="5.9977">
        <ele>2430.6</ele>
        <time>2021-02-27T08:57:25Z</time>
      </trkpt>
      <trkpt lat="45.20096" lon="5.99771">
        <ele>2431.2</ele>
        <time>2021-02-27T08:57:26Z</time>
      </trkpt>
      <trkpt lat="45.20097" lon="5.99772">
        <ele>2431.4</ele>
        <time>2021-02-27T08:57:27Z</time>
      </trkpt>
      <trkpt lat="45.20097" lon="5.99773">
        <ele>2431.8</ele>
        <time>2021-02-27T08:57:28Z</time>
      </trkpt>
      <trkpt lat="45.20097" lon="5.99774">
        <ele>2432.6</ele>
        <time>2021-02-27T08:57:29Z</time>
      </trkpt>
      <trkpt lat="45.20098" lon="5.99776">
        <ele>2432.4</ele>
        <time>2021-02-27T08:57:30Z</time>
      </trkpt>
      <trkpt lat="45.20098" lon="5.99777">
        <ele>2433.2</ele>
        <time>2021-02-27T08:57:31Z</time>
      </trkpt>
      <trkpt lat="45.20098" lon="5.99778">
        <ele>2433.4</ele>
        <time>2021-02-27T08:57:32Z</time>
      </trkpt>
      <trkpt lat="45.20098" lon="5.99779">
        <ele>2433.2</ele>
        <time>2021-02-27T08:57:33Z</time>
      </trkpt>
      <trkpt lat="45.20099" lon="5.9978">
        <ele>2434</ele>
        <time>2021-02-27T08:57:34Z</time>
      </trkpt>
      <trkpt lat="45.20099" lon="5.99782">
        <ele>2434</ele>
        <time>2021-02-27T08:57:35Z</time>
      </trkpt>
      <trkpt lat="45.20099" lon="5.99783">
        <ele>2434.4</ele>
        <time>2021-02-27T08:57:36Z</time>
      </trkpt>
      <trkpt lat="45.20099" lon="5.99784">
        <ele>2434.4</ele>
        <time>2021-02-27T08:57:37Z</time>
      </trkpt>
      <trkpt lat="45.201" lon="5.99785">
        <ele>2434.6</ele>
        <time>2021-02-27T08:57:38Z</time>
      </trkpt>
      <trkpt lat="45.201" lon="5.99786">
        <ele>2435</ele>
        <time>2021-02-27T08:57:39Z</time>
      </trkpt>
      <trkpt lat="45.201" lon="5.99787">
        <ele>2434.8</ele>
        <time>2021-02-27T08:57:40Z</time>
      </trkpt>
      <trkpt lat="45.20101" lon="5.99788">
        <ele>2434.8</ele>
        <time>2021-02-27T08:57:41Z</time>
      </trkpt>
      <trkpt lat="45.20102" lon="5.99789">
        <ele>2435.2</ele>
        <time>2021-02-27T08:57:42Z</time>
      </trkpt>
      <trkpt lat="45.20102" lon="5.9979">
        <ele>2435.4</ele>
        <time>2021-02-27T08:57:43Z</time>
      </trkpt>
      <trkpt lat="45.20103" lon="5.99791">
        <ele>2435.8</ele>
        <time>2021-02-27T08:57:44Z</time>
      </trkpt>
      <trkpt lat="45.20104" lon="5.99792">
        <ele>2436.2</ele>
        <time>2021-02-27T08:57:45Z</time>
      </trkpt>
      <trkpt lat="45.20104" lon="5.99793">
        <ele>2436.4</ele>
        <time>2021-02-27T08:57:46Z</time>
      </trkpt>
      <trkpt lat="45.20105" lon="5.99795">
        <ele>2436.8</ele>
        <time>2021-02-27T08:57:47Z</time>
      </trkpt>
      <trkpt lat="45.20105" lon="5.99796">
        <ele>2437.6</ele>
        <time>2021-02-27T08:57:48Z</time>
      </trkpt>
      <trkpt lat="45.20106" lon="5.99797">
        <ele>2438</ele>
        <time>2021-02-27T08:57:49Z</time>
      </trkpt>
      <trkpt lat="45.20107" lon="5.99797">
        <ele>2438</ele>
        <time>2021-02-27T08:57:50Z</time>
      </trkpt>
      <trkpt lat="45.20107" lon="5.99798">
        <ele>2438.4</ele>
        <time>2021-02-27T08:57:51Z</time>
      </trkpt>
      <trkpt lat="45.20108" lon="5.99799">
        <ele>2438.6</ele>
        <time>2021-02-27T08:57:52Z</time>
      </trkpt>
      <trkpt lat="45.20109" lon="5.998">
        <ele>2439</ele>
        <time>2021-02-27T08:57:53Z</time>
      </trkpt>
      <trkpt lat="45.20109" lon="5.99801">
        <ele>2439.4</ele>
        <time>2021-02-27T08:57:54Z</time>
      </trkpt>
      <trkpt lat="45.2011" lon="5.99802">
        <ele>2439.8</ele>
        <time>2021-02-27T08:57:55Z</time>
      </trkpt>
      <trkpt lat="45.20111" lon="5.99803">
        <ele>2440.2</ele>
        <time>2021-02-27T08:57:56Z</time>
      </trkpt>
      <trkpt lat="45.20111" lon="5.99804">
        <ele>2440</ele>
        <time>2021-02-27T08:57:57Z</time>
      </trkpt>
      <trkpt lat="45.20112" lon="5.99805">
        <ele>2440.4</ele>
        <time>2021-02-27T08:57:58Z</time>
      </trkpt>
      <trkpt lat="45.20112" lon="5.99806">
        <ele>2440.6</ele>
        <time>2021-02-27T08:57:59Z</time>
      </trkpt>
      <trkpt lat="45.20113" lon="5.99807">
        <ele>2440.6</ele>
        <time>2021-02-27T08:58:00Z</time>
      </trkpt>
      <trkpt lat="45.20113" lon="5.99808">
        <ele>2441.2</ele>
        <time>2021-02-27T08:58:01Z</time>
      </trkpt>
      <trkpt lat="45.20114" lon="5.99809">
        <ele>2441.8</ele>
        <time>2021-02-27T08:58:02Z</time>
      </trkpt>
      <trkpt lat="45.20114" lon="5.9981">
        <ele>2442</ele>
        <time>2021-02-27T08:58:03Z</time>
      </trkpt>
      <trkpt lat="45.20115" lon="5.99811">
        <ele>2442.2</ele>
        <time>2021-02-27T08:58:04Z</time>
      </trkpt>
      <trkpt lat="45.20115" lon="5.99812">
        <ele>2442.4</ele>
        <time>2021-02-27T08:58:05Z</time>
      </trkpt>
      <trkpt lat="45.20116" lon="5.99813">
        <ele>2442.6</ele>
        <time>2021-02-27T08:58:06Z</time>
      </trkpt>
      <trkpt lat="45.20116" lon="5.99814">
        <ele>2442.8</ele>
        <time>2021-02-27T08:58:07Z</time>
      </trkpt>
      <trkpt lat="45.20117" lon="5.99815">
        <ele>2443.4</ele>
        <time>2021-02-27T08:58:08Z</time>
      </trkpt>
      <trkpt lat="45.20117" lon="5.99816">
        <ele>2443.6</ele>
        <time>2021-02-27T08:58:09Z</time>
      </trkpt>
      <trkpt lat="45.20117" lon="5.99817">
        <ele>2443.6</ele>
        <time>2021-02-27T08:58:10Z</time>
      </trkpt>
      <trkpt lat="45.20118" lon="5.99818">
        <ele>2444.2</ele>
        <time>2021-02-27T08:58:11Z</time>
      </trkpt>
      <trkpt lat="45.20118" lon="5.99819">
        <ele>2444.6</ele>
        <time>2021-02-27T08:58:12Z</time>
      </trkpt>
      <trkpt lat="45.20118" lon="5.9982">
        <ele>2444.6</ele>
        <time>2021-02-27T08:58:13Z</time>
      </trkpt>
      <trkpt lat="45.20118" lon="5.99821">
        <ele>2445</ele>
        <time>2021-02-27T08:58:14Z</time>
      </trkpt>
      <trkpt lat="45.20118" lon="5.99822">
        <ele>2445.4</ele>
        <time>2021-02-27T08:58:15Z</time>
      </trkpt>
      <trkpt lat="45.20118" lon="5.99823">
        <ele>2445.4</ele>
        <time>2021-02-27T08:58:16Z</time>
      </trkpt>
      <trkpt lat="45.20118" lon="5.99825">
        <ele>2446</ele>
        <time>2021-02-27T08:58:17Z</time>
      </trkpt>
      <trkpt lat="45.20118" lon="5.99826">
        <ele>2446</ele>
        <time>2021-02-27T08:58:18Z</time>
      </trkpt>
      <trkpt lat="45.20118" lon="5.99827">
        <ele>2446.2</ele>
        <time>2021-02-27T08:58:19Z</time>
      </trkpt>
      <trkpt lat="45.20118" lon="5.99828">
        <ele>2446.6</ele>
        <time>2021-02-27T08:58:20Z</time>
      </trkpt>
      <trkpt lat="45.20118" lon="5.99829">
        <ele>2447.2</ele>
        <time>2021-02-27T08:58:21Z</time>
      </trkpt>
      <trkpt lat="45.20118" lon="5.9983">
        <ele>2447.8</ele>
        <time>2021-02-27T08:58:22Z</time>
      </trkpt>
      <trkpt lat="45.20119" lon="5.99831">
        <ele>2447.8</ele>
        <time>2021-02-27T08:58:23Z</time>
      </trkpt>
      <trkpt lat="45.20119" lon="5.99832">
        <ele>2448.2</ele>
        <time>2021-02-27T08:58:24Z</time>
      </trkpt>
      <trkpt lat="45.20119" lon="5.99834">
        <ele>2448.4</ele>
        <time>2021-02-27T08:58:25Z</time>
      </trkpt>
      <trkpt lat="45.2012" lon="5.99835">
        <ele>2448.6</ele>
        <time>2021-02-27T08:58:26Z</time>
      </trkpt>
      <trkpt lat="45.2012" lon="5.99836">
        <ele>2448.6</ele>
        <time>2021-02-27T08:58:27Z</time>
      </trkpt>
      <trkpt lat="45.20121" lon="5.99837">
        <ele>2449.2</ele>
        <time>2021-02-27T08:58:28Z</time>
      </trkpt>
      <trkpt lat="45.20121" lon="5.99839">
        <ele>2449.6</ele>
        <time>2021-02-27T08:58:29Z</time>
      </trkpt>
      <trkpt lat="45.20121" lon="5.9984">
        <ele>2449.8</ele>
        <time>2021-02-27T08:58:30Z</time>
      </trkpt>
      <trkpt lat="45.20122" lon="5.99841">
        <ele>2450.2</ele>
        <time>2021-02-27T08:58:31Z</time>
      </trkpt>
      <trkpt lat="45.20122" lon="5.99842">
        <ele>2450.8</ele>
        <time>2021-02-27T08:58:32Z</time>
      </trkpt>
      <trkpt lat="45.20123" lon="5.99844">
        <ele>2451.2</ele>
        <time>2021-02-27T08:58:33Z</time>
      </trkpt>
      <trkpt lat="45.20123" lon="5.99845">
        <ele>2451.2</ele>
        <time>2021-02-27T08:58:34Z</time>
      </trkpt>
      <trkpt lat="45.20124" lon="5.99846">
        <ele>2451.4</ele>
        <time>2021-02-27T08:58:35Z</time>
      </trkpt>
      <trkpt lat="45.20124" lon="5.99847">
        <ele>2451.4</ele>
        <time>2021-02-27T08:58:36Z</time>
      </trkpt>
      <trkpt lat="45.20124" lon="5.99848">
        <ele>2451.6</ele>
        <time>2021-02-27T08:58:37Z</time>
      </trkpt>
      <trkpt lat="45.20125" lon="5.99849">
        <ele>2452.2</ele>
        <time>2021-02-27T08:58:38Z</time>
      </trkpt>
      <trkpt lat="45.20125" lon="5.9985">
        <ele>2452.6</ele>
        <time>2021-02-27T08:58:39Z</time>
      </trkpt>
      <trkpt lat="45.20126" lon="5.99851">
        <ele>2452.6</ele>
        <time>2021-02-27T08:58:40Z</time>
      </trkpt>
      <trkpt lat="45.20126" lon="5.99852">
        <ele>2453.2</ele>
        <time>2021-02-27T08:58:41Z</time>
      </trkpt>
      <trkpt lat="45.20127" lon="5.99853">
        <ele>2453.4</ele>
        <time>2021-02-27T08:58:42Z</time>
      </trkpt>
      <trkpt lat="45.20127" lon="5.99855">
        <ele>2453.6</ele>
        <time>2021-02-27T08:58:43Z</time>
      </trkpt>
      <trkpt lat="45.20127" lon="5.99856">
        <ele>2453.6</ele>
        <time>2021-02-27T08:58:44Z</time>
      </trkpt>
      <trkpt lat="45.20128" lon="5.99857">
        <ele>2454</ele>
        <time>2021-02-27T08:58:45Z</time>
      </trkpt>
      <trkpt lat="45.20128" lon="5.99858">
        <ele>2453.8</ele>
        <time>2021-02-27T08:58:46Z</time>
      </trkpt>
      <trkpt lat="45.20128" lon="5.99859">
        <ele>2454.4</ele>
        <time>2021-02-27T08:58:47Z</time>
      </trkpt>
      <trkpt lat="45.20128" lon="5.9986">
        <ele>2454.4</ele>
        <time>2021-02-27T08:58:48Z</time>
      </trkpt>
      <trkpt lat="45.20129" lon="5.99861">
        <ele>2454.8</ele>
        <time>2021-02-27T08:58:49Z</time>
      </trkpt>
      <trkpt lat="45.20129" lon="5.99862">
        <ele>2455.2</ele>
        <time>2021-02-27T08:58:50Z</time>
      </trkpt>
      <trkpt lat="45.20129" lon="5.99863">
        <ele>2455.2</ele>
        <time>2021-02-27T08:58:51Z</time>
      </trkpt>
      <trkpt lat="45.2013" lon="5.99864">
        <ele>2455.8</ele>
        <time>2021-02-27T08:58:52Z</time>
      </trkpt>
      <trkpt lat="45.2013" lon="5.99865">
        <ele>2455.8</ele>
        <time>2021-02-27T08:58:53Z</time>
      </trkpt>
      <trkpt lat="45.2013" lon="5.99866">
        <ele>2456.4</ele>
        <time>2021-02-27T08:58:54Z</time>
      </trkpt>
      <trkpt lat="45.2013" lon="5.99868">
        <ele>2456.4</ele>
        <time>2021-02-27T08:58:55Z</time>
      </trkpt>
      <trkpt lat="45.20131" lon="5.99869">
        <ele>2456.6</ele>
        <time>2021-02-27T08:58:56Z</time>
      </trkpt>
      <trkpt lat="45.20131" lon="5.99871">
        <ele>2456.8</ele>
        <time>2021-02-27T08:58:57Z</time>
      </trkpt>
      <trkpt lat="45.20131" lon="5.99872">
        <ele>2457</ele>
        <time>2021-02-27T08:58:58Z</time>
      </trkpt>
      <trkpt lat="45.20132" lon="5.99874">
        <ele>2457.4</ele>
        <time>2021-02-27T08:58:59Z</time>
      </trkpt>
      <trkpt lat="45.20132" lon="5.99875">
        <ele>2458</ele>
        <time>2021-02-27T08:59:00Z</time>
      </trkpt>
      <trkpt lat="45.20133" lon="5.99877">
        <ele>2458.4</ele>
        <time>2021-02-27T08:59:01Z</time>
      </trkpt>
      <trkpt lat="45.20133" lon="5.99878">
        <ele>2458.4</ele>
        <time>2021-02-27T08:59:02Z</time>
      </trkpt>
      <trkpt lat="45.20133" lon="5.9988">
        <ele>2458.6</ele>
        <time>2021-02-27T08:59:03Z</time>
      </trkpt>
      <trkpt lat="45.20133" lon="5.99881">
        <ele>2458.8</ele>
        <time>2021-02-27T08:59:04Z</time>
      </trkpt>
      <trkpt lat="45.20133" lon="5.99883">
        <ele>2459.2</ele>
        <time>2021-02-27T08:59:05Z</time>
      </trkpt>
      <trkpt lat="45.20133" lon="5.99884">
        <ele>2459.4</ele>
        <time>2021-02-27T08:59:06Z</time>
      </trkpt>
      <trkpt lat="45.20133" lon="5.99885">
        <ele>2460.2</ele>
        <time>2021-02-27T08:59:07Z</time>
      </trkpt>
      <trkpt lat="45.20133" lon="5.99887">
        <ele>2460.4</ele>
        <time>2021-02-27T08:59:08Z</time>
      </trkpt>
      <trkpt lat="45.20133" lon="5.99888">
        <ele>2460.6</ele>
        <time>2021-02-27T08:59:09Z</time>
      </trkpt>
      <trkpt lat="45.20133" lon="5.99889">
        <ele>2460.8</ele>
        <time>2021-02-27T08:59:10Z</time>
      </trkpt>
      <trkpt lat="45.20134" lon="5.99891">
        <ele>2461.4</ele>
        <time>2021-02-27T08:59:11Z</time>
      </trkpt>
      <trkpt lat="45.20134" lon="5.99892">
        <ele>2461.4</ele>
        <time>2021-02-27T08:59:12Z</time>
      </trkpt>
      <trkpt lat="45.20134" lon="5.99893">
        <ele>2461.8</ele>
        <time>2021-02-27T08:59:13Z</time>
      </trkpt>
      <trkpt lat="45.20134" lon="5.99895">
        <ele>2462.2</ele>
        <time>2021-02-27T08:59:14Z</time>
      </trkpt>
      <trkpt lat="45.20134" lon="5.99896">
        <ele>2462.4</ele>
        <time>2021-02-27T08:59:15Z</time>
      </trkpt>
      <trkpt lat="45.20135" lon="5.99897">
        <ele>2462.6</ele>
        <time>2021-02-27T08:59:16Z</time>
      </trkpt>
      <trkpt lat="45.20135" lon="5.99899">
        <ele>2463</ele>
        <time>2021-02-27T08:59:17Z</time>
      </trkpt>
      <trkpt lat="45.20135" lon="5.999">
        <ele>2463.6</ele>
        <time>2021-02-27T08:59:18Z</time>
      </trkpt>
      <trkpt lat="45.20136" lon="5.99901">
        <ele>2463.4</ele>
        <time>2021-02-27T08:59:19Z</time>
      </trkpt>
      <trkpt lat="45.20136" lon="5.99903">
        <ele>2464.2</ele>
        <time>2021-02-27T08:59:20Z</time>
      </trkpt>
      <trkpt lat="45.20137" lon="5.99904">
        <ele>2464.2</ele>
        <time>2021-02-27T08:59:21Z</time>
      </trkpt>
      <trkpt lat="45.20137" lon="5.99905">
        <ele>2464.6</ele>
        <time>2021-02-27T08:59:22Z</time>
      </trkpt>
      <trkpt lat="45.20137" lon="5.99906">
        <ele>2464.4</ele>
        <time>2021-02-27T08:59:23Z</time>
      </trkpt>
      <trkpt lat="45.20137" lon="5.99908">
        <ele>2464.8</ele>
        <time>2021-02-27T08:59:24Z</time>
      </trkpt>
      <trkpt lat="45.20137" lon="5.99909">
        <ele>2465.4</ele>
        <time>2021-02-27T08:59:25Z</time>
      </trkpt>
      <trkpt lat="45.20137" lon="5.9991">
        <ele>2465.4</ele>
        <time>2021-02-27T08:59:26Z</time>
      </trkpt>
      <trkpt lat="45.20136" lon="5.99911">
        <ele>2466</ele>
        <time>2021-02-27T08:59:27Z</time>
      </trkpt>
      <trkpt lat="45.20136" lon="5.99913">
        <ele>2466.4</ele>
        <time>2021-02-27T08:59:28Z</time>
      </trkpt>
      <trkpt lat="45.20136" lon="5.99914">
        <ele>2466.4</ele>
        <time>2021-02-27T08:59:29Z</time>
      </trkpt>
      <trkpt lat="45.20136" lon="5.99915">
        <ele>2466.6</ele>
        <time>2021-02-27T08:59:30Z</time>
      </trkpt>
      <trkpt lat="45.20136" lon="5.99916">
        <ele>2466.8</ele>
        <time>2021-02-27T08:59:31Z</time>
      </trkpt>
      <trkpt lat="45.20136" lon="5.99918">
        <ele>2467.2</ele>
        <time>2021-02-27T08:59:32Z</time>
      </trkpt>
      <trkpt lat="45.20135" lon="5.99919">
        <ele>2467.6</ele>
        <time>2021-02-27T08:59:33Z</time>
      </trkpt>
      <trkpt lat="45.20135" lon="5.9992">
        <ele>2467.4</ele>
        <time>2021-02-27T08:59:34Z</time>
      </trkpt>
      <trkpt lat="45.20135" lon="5.9992">
        <ele>2468</ele>
        <time>2021-02-27T08:59:35Z</time>
      </trkpt>
      <trkpt lat="45.20135" lon="5.9992">
        <ele>2468.2</ele>
        <time>2021-02-27T08:59:36Z</time>
      </trkpt>
      <trkpt lat="45.20135" lon="5.9992">
        <ele>2468.4</ele>
        <time>2021-02-27T08:59:37Z</time>
      </trkpt>
      <trkpt lat="45.20135" lon="5.9992">
        <ele>2469</ele>
        <time>2021-02-27T08:59:38Z</time>
      </trkpt>
      <trkpt lat="45.20134" lon="5.99923">
        <ele>2469.2</ele>
        <time>2021-02-27T08:59:39Z</time>
      </trkpt>
      <trkpt lat="45.20134" lon="5.99923">
        <ele>2469.4</ele>
        <time>2021-02-27T08:59:40Z</time>
      </trkpt>
      <trkpt lat="45.20135" lon="5.99924">
        <ele>2469.2</ele>
        <time>2021-02-27T08:59:41Z</time>
      </trkpt>
      <trkpt lat="45.20135" lon="5.99924">
        <ele>2469.4</ele>
        <time>2021-02-27T08:59:42Z</time>
      </trkpt>
      <trkpt lat="45.20135" lon="5.99925">
        <ele>2470</ele>
        <time>2021-02-27T08:59:43Z</time>
      </trkpt>
      <trkpt lat="45.20136" lon="5.99925">
        <ele>2470.4</ele>
        <time>2021-02-27T08:59:44Z</time>
      </trkpt>
      <trkpt lat="45.20136" lon="5.99926">
        <ele>2471</ele>
        <time>2021-02-27T08:59:45Z</time>
      </trkpt>
      <trkpt lat="45.20136" lon="5.99926">
        <ele>2471.6</ele>
        <time>2021-02-27T08:59:46Z</time>
      </trkpt>
      <trkpt lat="45.20137" lon="5.99926">
        <ele>2472</ele>
        <time>2021-02-27T08:59:47Z</time>
      </trkpt>
      <trkpt lat="45.20137" lon="5.99927">
        <ele>2472.4</ele>
        <time>2021-02-27T08:59:48Z</time>
      </trkpt>
      <trkpt lat="45.20138" lon="5.99927">
        <ele>2472.6</ele>
        <time>2021-02-27T08:59:49Z</time>
      </trkpt>
      <trkpt lat="45.20138" lon="5.99928">
        <ele>2472.8</ele>
        <time>2021-02-27T08:59:50Z</time>
      </trkpt>
      <trkpt lat="45.20138" lon="5.99928">
        <ele>2473.2</ele>
        <time>2021-02-27T08:59:51Z</time>
      </trkpt>
      <trkpt lat="45.20139" lon="5.99929">
        <ele>2473.4</ele>
        <time>2021-02-27T08:59:52Z</time>
      </trkpt>
      <trkpt lat="45.20139" lon="5.99929">
        <ele>2473.4</ele>
        <time>2021-02-27T08:59:53Z</time>
      </trkpt>
      <trkpt lat="45.2014" lon="5.9993">
        <ele>2473.2</ele>
        <time>2021-02-27T08:59:54Z</time>
      </trkpt>
      <trkpt lat="45.2014" lon="5.9993">
        <ele>2473.8</ele>
        <time>2021-02-27T08:59:55Z</time>
      </trkpt>
      <trkpt lat="45.2014" lon="5.99931">
        <ele>2474</ele>
        <time>2021-02-27T08:59:56Z</time>
      </trkpt>
      <trkpt lat="45.20141" lon="5.99931">
        <ele>2474.8</ele>
        <time>2021-02-27T08:59:57Z</time>
      </trkpt>
      <trkpt lat="45.20141" lon="5.99931">
        <ele>2475.2</ele>
        <time>2021-02-27T08:59:58Z</time>
      </trkpt>
      <trkpt lat="45.20141" lon="5.99931">
        <ele>2475.4</ele>
        <time>2021-02-27T08:59:59Z</time>
      </trkpt>
      <trkpt lat="45.20141" lon="5.99931">
        <ele>2475.4</ele>
        <time>2021-02-27T09:00:00Z</time>
      </trkpt>
      <trkpt lat="45.20141" lon="5.99931">
        <ele>2475</ele>
        <time>2021-02-27T09:00:01Z</time>
      </trkpt>
      <trkpt lat="45.20141" lon="5.99931">
        <ele>2475.4</ele>
        <time>2021-02-27T09:00:02Z</time>
      </trkpt>
      <trkpt lat="45.20142" lon="5.99936">
        <ele>2475</ele>
        <time>2021-02-27T09:00:03Z</time>
      </trkpt>
      <trkpt lat="45.20142" lon="5.99936">
        <ele>2475</ele>
        <time>2021-02-27T09:00:04Z</time>
      </trkpt>
      <trkpt lat="45.20142" lon="5.99936">
        <ele>2474.6</ele>
        <time>2021-02-27T09:00:05Z</time>
      </trkpt>
      <trkpt lat="45.20142" lon="5.99936">
        <ele>2474.4</ele>
        <time>2021-02-27T09:00:06Z</time>
      </trkpt>
      <trkpt lat="45.20142" lon="5.99936">
        <ele>2474.2</ele>
        <time>2021-02-27T09:00:07Z</time>
      </trkpt>
      <trkpt lat="45.20142" lon="5.99936">
        <ele>2474.2</ele>
        <time>2021-02-27T09:00:08Z</time>
      </trkpt>
      <trkpt lat="45.20142" lon="5.99936">
        <ele>2473.8</ele>
        <time>2021-02-27T09:00:09Z</time>
      </trkpt>
      <trkpt lat="45.20142" lon="5.99936">
        <ele>2473.8</ele>
        <time>2021-02-27T09:00:10Z</time>
      </trkpt>
      <trkpt lat="45.20142" lon="5.99936">
        <ele>2473.4</ele>
        <time>2021-02-27T09:00:11Z</time>
      </trkpt>
      <trkpt lat="45.20142" lon="5.99936">
        <ele>2473.4</ele>
        <time>2021-02-27T09:00:12Z</time>
      </trkpt>
      <trkpt lat="45.20142" lon="5.99936">
        <ele>2473.6</ele>
        <time>2021-02-27T09:00:13Z</time>
      </trkpt>
      <trkpt lat="45.20142" lon="5.99936">
        <ele>2473.8</ele>
        <time>2021-02-27T09:00:14Z</time>
      </trkpt>
      <trkpt lat="45.20142" lon="5.99936">
        <ele>2473.4</ele>
        <time>2021-02-27T09:00:15Z</time>
      </trkpt>
      <trkpt lat="45.20142" lon="5.99936">
        <ele>2473.6</ele>
        <time>2021-02-27T09:00:16Z</time>
      </trkpt>
      <trkpt lat="45.20142" lon="5.99936">
        <ele>2473.4</ele>
        <time>2021-02-27T09:00:17Z</time>
      </trkpt>
      <trkpt lat="45.20142" lon="5.99936">
        <ele>2473.2</ele>
        <time>2021-02-27T09:00:18Z</time>
      </trkpt>
      <trkpt lat="45.20142" lon="5.99936">
        <ele>2473.2</ele>
        <time>2021-02-27T09:00:19Z</time>
      </trkpt>
      <trkpt lat="45.20142" lon="5.99936">
        <ele>2473.4</ele>
        <time>2021-02-27T09:00:20Z</time>
      </trkpt>
      <trkpt lat="45.20142" lon="5.99936">
        <ele>2473.2</ele>
        <time>2021-02-27T09:00:21Z</time>
      </trkpt>
      <trkpt lat="45.20142" lon="5.99936">
        <ele>2473.4</ele>
        <time>2021-02-27T09:00:22Z</time>
      </trkpt>
      <trkpt lat="45.20142" lon="5.99936">
        <ele>2473.6</ele>
        <time>2021-02-27T09:00:23Z</time>
      </trkpt>
      <trkpt lat="45.20142" lon="5.99936">
        <ele>2473.4</ele>
        <time>2021-02-27T09:00:24Z</time>
      </trkpt>
      <trkpt lat="45.20142" lon="5.99936">
        <ele>2473.4</ele>
        <time>2021-02-27T09:00:25Z</time>
      </trkpt>
      <trkpt lat="45.20142" lon="5.99936">
        <ele>2473.2</ele>
        <time>2021-02-27T09:00:26Z</time>
      </trkpt>
      <trkpt lat="45.20142" lon="5.99936">
        <ele>2473.2</ele>
        <time>2021-02-27T09:00:27Z</time>
      </trkpt>
      <trkpt lat="45.20142" lon="5.99936">
        <ele>2473.2</ele>
        <time>2021-02-27T09:00:28Z</time>
      </trkpt>
      <trkpt lat="45.20142" lon="5.99936">
        <ele>2473</ele>
        <time>2021-02-27T09:00:29Z</time>
      </trkpt>
      <trkpt lat="45.20142" lon="5.99936">
        <ele>2473</ele>
        <time>2021-02-27T09:00:30Z</time>
      </trkpt>
      <trkpt lat="45.20142" lon="5.99936">
        <ele>2473.2</ele>
        <time>2021-02-27T09:00:31Z</time>
      </trkpt>
      <trkpt lat="45.20142" lon="5.99936">
        <ele>2473.2</ele>
        <time>2021-02-27T09:00:32Z</time>
      </trkpt>
      <trkpt lat="45.20142" lon="5.99936">
        <ele>2473.2</ele>
        <time>2021-02-27T09:00:33Z</time>
      </trkpt>
      <trkpt lat="45.20142" lon="5.9994">
        <ele>2474</ele>
        <time>2021-02-27T09:00:34Z</time>
      </trkpt>
      <trkpt lat="45.20142" lon="5.9994">
        <ele>2474.4</ele>
        <time>2021-02-27T09:00:35Z</time>
      </trkpt>
      <trkpt lat="45.20143" lon="5.99944">
        <ele>2474.4</ele>
        <time>2021-02-27T09:00:36Z</time>
      </trkpt>
      <trkpt lat="45.20144" lon="5.99946">
        <ele>2475.2</ele>
        <time>2021-02-27T09:00:37Z</time>
      </trkpt>
      <trkpt lat="45.20144" lon="5.99948">
        <ele>2474.4</ele>
        <time>2021-02-27T09:00:38Z</time>
      </trkpt>
      <trkpt lat="45.20144" lon="5.99948">
        <ele>2474.8</ele>
        <time>2021-02-27T09:00:39Z</time>
      </trkpt>
      <trkpt lat="45.20146" lon="5.99953">
        <ele>2474.2</ele>
        <time>2021-02-27T09:00:40Z</time>
      </trkpt>
      <trkpt lat="45.20146" lon="5.99956">
        <ele>2474.2</ele>
        <time>2021-02-27T09:00:41Z</time>
      </trkpt>
      <trkpt lat="45.20147" lon="5.99958">
        <ele>2474.2</ele>
        <time>2021-02-27T09:00:42Z</time>
      </trkpt>
      <trkpt lat="45.20148" lon="5.99961">
        <ele>2474.4</ele>
        <time>2021-02-27T09:00:43Z</time>
      </trkpt>
      <trkpt lat="45.20148" lon="5.99961">
        <ele>2474.6</ele>
        <time>2021-02-27T09:00:44Z</time>
      </trkpt>
      <trkpt lat="45.20149" lon="5.99965">
        <ele>2474.4</ele>
        <time>2021-02-27T09:00:45Z</time>
      </trkpt>
      <trkpt lat="45.20149" lon="5.99965">
        <ele>2473.8</ele>
        <time>2021-02-27T09:00:46Z</time>
      </trkpt>
      <trkpt lat="45.2015" lon="5.99968">
        <ele>2473.6</ele>
        <time>2021-02-27T09:00:47Z</time>
      </trkpt>
      <trkpt lat="45.2015" lon="5.99968">
        <ele>2473.2</ele>
        <time>2021-02-27T09:00:48Z</time>
      </trkpt>
      <trkpt lat="45.2015" lon="5.99968">
        <ele>2472.8</ele>
        <time>2021-02-27T09:00:49Z</time>
      </trkpt>
      <trkpt lat="45.2015" lon="5.99968">
        <ele>2472.6</ele>
        <time>2021-02-27T09:00:50Z</time>
      </trkpt>
      <trkpt lat="45.2015" lon="5.99968">
        <ele>2472.8</ele>
        <time>2021-02-27T09:00:51Z</time>
      </trkpt>
      <trkpt lat="45.2015" lon="5.99968">
        <ele>2472.8</ele>
        <time>2021-02-27T09:00:52Z</time>
      </trkpt>
      <trkpt lat="45.2015" lon="5.99968">
        <ele>2473</ele>
        <time>2021-02-27T09:00:53Z</time>
      </trkpt>
      <trkpt lat="45.2015" lon="5.99968">
        <ele>2473.4</ele>
        <time>2021-02-27T09:00:54Z</time>
      </trkpt>
      <trkpt lat="45.20152" lon="5.99968">
        <ele>2473.4</ele>
        <time>2021-02-27T09:00:55Z</time>
      </trkpt>
      <trkpt lat="45.20152" lon="5.99968">
        <ele>2473.6</ele>
        <time>2021-02-27T09:00:56Z</time>
      </trkpt>
      <trkpt lat="45.20152" lon="5.99968">
        <ele>2473.6</ele>
        <time>2021-02-27T09:00:57Z</time>
      </trkpt>
      <trkpt lat="45.20152" lon="5.99968">
        <ele>2473.8</ele>
        <time>2021-02-27T09:00:58Z</time>
      </trkpt>
      <trkpt lat="45.20152" lon="5.99968">
        <ele>2473.8</ele>
        <time>2021-02-27T09:00:59Z</time>
      </trkpt>
      <trkpt lat="45.20152" lon="5.99968">
        <ele>2473.8</ele>
        <time>2021-02-27T09:01:00Z</time>
      </trkpt>
      <trkpt lat="45.20152" lon="5.99968">
        <ele>2473.4</ele>
        <time>2021-02-27T09:01:01Z</time>
      </trkpt>
      <trkpt lat="45.20152" lon="5.99968">
        <ele>2473.4</ele>
        <time>2021-02-27T09:01:02Z</time>
      </trkpt>
      <trkpt lat="45.20152" lon="5.99968">
        <ele>2473.2</ele>
        <time>2021-02-27T09:01:03Z</time>
      </trkpt>
      <trkpt lat="45.20152" lon="5.99968">
        <ele>2473.4</ele>
        <time>2021-02-27T09:01:04Z</time>
      </trkpt>
      <trkpt lat="45.20152" lon="5.99968">
        <ele>2473</ele>
        <time>2021-02-27T09:01:05Z</time>
      </trkpt>
      <trkpt lat="45.20151" lon="5.99966">
        <ele>2473.4</ele>
        <time>2021-02-27T09:01:06Z</time>
      </trkpt>
      <trkpt lat="45.20151" lon="5.99966">
        <ele>2473.6</ele>
        <time>2021-02-27T09:01:07Z</time>
      </trkpt>
      <trkpt lat="45.20151" lon="5.99966">
        <ele>2474</ele>
        <time>2021-02-27T09:01:08Z</time>
      </trkpt>
      <trkpt lat="45.20151" lon="5.99966">
        <ele>2474.4</ele>
        <time>2021-02-27T09:01:09Z</time>
      </trkpt>
      <trkpt lat="45.20151" lon="5.99966">
        <ele>2474.4</ele>
        <time>2021-02-27T09:01:10Z</time>
      </trkpt>
      <trkpt lat="45.20151" lon="5.99966">
        <ele>2474.2</ele>
        <time>2021-02-27T09:01:11Z</time>
      </trkpt>
      <trkpt lat="45.20151" lon="5.99966">
        <ele>2474.2</ele>
        <time>2021-02-27T09:01:12Z</time>
      </trkpt>
      <trkpt lat="45.20151" lon="5.99966">
        <ele>2474.8</ele>
        <time>2021-02-27T09:01:13Z</time>
      </trkpt>
      <trkpt lat="45.20151" lon="5.99966">
        <ele>2475.4</ele>
        <time>2021-02-27T09:01:14Z</time>
      </trkpt>
      <trkpt lat="45.20151" lon="5.99966">
        <ele>2475.4</ele>
        <time>2021-02-27T09:01:15Z</time>
      </trkpt>
      <trkpt lat="45.20151" lon="5.99966">
        <ele>2475</ele>
        <time>2021-02-27T09:01:16Z</time>
      </trkpt>
      <trkpt lat="45.20151" lon="5.99966">
        <ele>2475</ele>
        <time>2021-02-27T09:01:17Z</time>
      </trkpt>
      <trkpt lat="45.20151" lon="5.99966">
        <ele>2474.8</ele>
        <time>2021-02-27T09:01:18Z</time>
      </trkpt>
      <trkpt lat="45.20151" lon="5.99966">
        <ele>2474.4</ele>
        <time>2021-02-27T09:01:19Z</time>
      </trkpt>
      <trkpt lat="45.20151" lon="5.99966">
        <ele>2474.4</ele>
        <time>2021-02-27T09:01:20Z</time>
      </trkpt>
      <trkpt lat="45.20151" lon="5.99966">
        <ele>2474</ele>
        <time>2021-02-27T09:01:21Z</time>
      </trkpt>
      <trkpt lat="45.20151" lon="5.99966">
        <ele>2474.2</ele>
        <time>2021-02-27T09:01:22Z</time>
      </trkpt>
      <trkpt lat="45.20151" lon="5.99966">
        <ele>2474.2</ele>
        <time>2021-02-27T09:01:23Z</time>
      </trkpt>
      <trkpt lat="45.20151" lon="5.99966">
        <ele>2474.2</ele>
        <time>2021-02-27T09:01:24Z</time>
      </trkpt>
      <trkpt lat="45.20151" lon="5.99966">
        <ele>2474.4</ele>
        <time>2021-02-27T09:01:25Z</time>
      </trkpt>
      <trkpt lat="45.20151" lon="5.99966">
        <ele>2474.4</ele>
        <time>2021-02-27T09:01:26Z</time>
      </trkpt>
      <trkpt lat="45.20151" lon="5.99966">
        <ele>2474.6</ele>
        <time>2021-02-27T09:01:27Z</time>
      </trkpt>
      <trkpt lat="45.20151" lon="5.99966">
        <ele>2474.4</ele>
        <time>2021-02-27T09:01:28Z</time>
      </trkpt>
      <trkpt lat="45.20151" lon="5.99966">
        <ele>2474.4</ele>
        <time>2021-02-27T09:01:29Z</time>
      </trkpt>
      <trkpt lat="45.20151" lon="5.99966">
        <ele>2474.6</ele>
        <time>2021-02-27T09:01:30Z</time>
      </trkpt>
      <trkpt lat="45.20151" lon="5.99966">
        <ele>2474.4</ele>
        <time>2021-02-27T09:01:31Z</time>
      </trkpt>
      <trkpt lat="45.20151" lon="5.99966">
        <ele>2475.2</ele>
        <time>2021-02-27T09:01:32Z</time>
      </trkpt>
      <trkpt lat="45.20151" lon="5.99966">
        <ele>2475.6</ele>
        <time>2021-02-27T09:01:33Z</time>
      </trkpt>
      <trkpt lat="45.20151" lon="5.99966">
        <ele>2475.6</ele>
        <time>2021-02-27T09:01:34Z</time>
      </trkpt>
      <trkpt lat="45.20151" lon="5.99966">
        <ele>2476</ele>
        <time>2021-02-27T09:01:35Z</time>
      </trkpt>
      <trkpt lat="45.20151" lon="5.99966">
        <ele>2476</ele>
        <time>2021-02-27T09:01:36Z</time>
      </trkpt>
      <trkpt lat="45.20151" lon="5.99966">
        <ele>2476</ele>
        <time>2021-02-27T09:01:37Z</time>
      </trkpt>
      <trkpt lat="45.20151" lon="5.99966">
        <ele>2476</ele>
        <time>2021-02-27T09:01:38Z</time>
      </trkpt>
      <trkpt lat="45.20151" lon="5.99966">
        <ele>2475.8</ele>
        <time>2021-02-27T09:01:39Z</time>
      </trkpt>
      <trkpt lat="45.20151" lon="5.99966">
        <ele>2476</ele>
        <time>2021-02-27T09:01:40Z</time>
      </trkpt>
      <trkpt lat="45.20151" lon="5.99966">
        <ele>2475.8</ele>
        <time>2021-02-27T09:01:41Z</time>
      </trkpt>
      <trkpt lat="45.20151" lon="5.99966">
        <ele>2476</ele>
        <time>2021-02-27T09:01:42Z</time>
      </trkpt>
      <trkpt lat="45.20151" lon="5.99966">
        <ele>2476.4</ele>
        <time>2021-02-27T09:01:43Z</time>
      </trkpt>
      <trkpt lat="45.20151" lon="5.99966">
        <ele>2476.2</ele>
        <time>2021-02-27T09:01:44Z</time>
      </trkpt>
      <trkpt lat="45.20151" lon="5.99966">
        <ele>2475.8</ele>
        <time>2021-02-27T09:01:45Z</time>
      </trkpt>
      <trkpt lat="45.20151" lon="5.99966">
        <ele>2475.2</ele>
        <time>2021-02-27T09:01:46Z</time>
      </trkpt>
      <trkpt lat="45.20151" lon="5.99966">
        <ele>2474.6</ele>
        <time>2021-02-27T09:01:47Z</time>
      </trkpt>
      <trkpt lat="45.20151" lon="5.99966">
        <ele>2474.2</ele>
        <time>2021-02-27T09:01:48Z</time>
      </trkpt>
      <trkpt lat="45.20151" lon="5.99966">
        <ele>2474</ele>
        <time>2021-02-27T09:01:49Z</time>
      </trkpt>
      <trkpt lat="45.20151" lon="5.99966">
        <ele>2473.8</ele>
        <time>2021-02-27T09:01:50Z</time>
      </trkpt>
      <trkpt lat="45.20151" lon="5.99966">
        <ele>2474</ele>
        <time>2021-02-27T09:01:51Z</time>
      </trkpt>
      <trkpt lat="45.20151" lon="5.99966">
        <ele>2474.8</ele>
        <time>2021-02-27T09:01:52Z</time>
      </trkpt>
      <trkpt lat="45.20151" lon="5.99966">
        <ele>2475.4</ele>
        <time>2021-02-27T09:01:53Z</time>
      </trkpt>
      <trkpt lat="45.20151" lon="5.99966">
        <ele>2476</ele>
        <time>2021-02-27T09:01:54Z</time>
      </trkpt>
      <trkpt lat="45.20151" lon="5.99966">
        <ele>2476</ele>
        <time>2021-02-27T09:01:55Z</time>
      </trkpt>
      <trkpt lat="45.20151" lon="5.99966">
        <ele>2476</ele>
        <time>2021-02-27T09:01:56Z</time>
      </trkpt>
      <trkpt lat="45.20151" lon="5.99966">
        <ele>2476</ele>
        <time>2021-02-27T09:01:57Z</time>
      </trkpt>
      <trkpt lat="45.20151" lon="5.99966">
        <ele>2475.8</ele>
        <time>2021-02-27T09:01:58Z</time>
      </trkpt>
      <trkpt lat="45.20151" lon="5.99966">
        <ele>2475.8</ele>
        <time>2021-02-27T09:01:59Z</time>
      </trkpt>
      <trkpt lat="45.20151" lon="5.99966">
        <ele>2475.6</ele>
        <time>2021-02-27T09:02:00Z</time>
      </trkpt>
      <trkpt lat="45.20151" lon="5.99966">
        <ele>2475.6</ele>
        <time>2021-02-27T09:02:01Z</time>
      </trkpt>
      <trkpt lat="45.20151" lon="5.99966">
        <ele>2476</ele>
        <time>2021-02-27T09:02:02Z</time>
      </trkpt>
      <trkpt lat="45.20151" lon="5.99966">
        <ele>2475.8</ele>
        <time>2021-02-27T09:02:03Z</time>
      </trkpt>
      <trkpt lat="45.20151" lon="5.99966">
        <ele>2475.8</ele>
        <time>2021-02-27T09:02:04Z</time>
      </trkpt>
      <trkpt lat="45.20151" lon="5.99966">
        <ele>2475.4</ele>
        <time>2021-02-27T09:02:05Z</time>
      </trkpt>
      <trkpt lat="45.20151" lon="5.99966">
        <ele>2475.2</ele>
        <time>2021-02-27T09:02:06Z</time>
      </trkpt>
      <trkpt lat="45.20151" lon="5.99966">
        <ele>2475.2</ele>
        <time>2021-02-27T09:02:07Z</time>
      </trkpt>
      <trkpt lat="45.20151" lon="5.99966">
        <ele>2475</ele>
        <time>2021-02-27T09:02:08Z</time>
      </trkpt>
      <trkpt lat="45.20152" lon="5.99964">
        <ele>2474.8</ele>
        <time>2021-02-27T09:02:09Z</time>
      </trkpt>
      <trkpt lat="45.20152" lon="5.99964">
        <ele>2474.8</ele>
        <time>2021-02-27T09:02:10Z</time>
      </trkpt>
      <trkpt lat="45.20152" lon="5.99964">
        <ele>2474.4</ele>
        <time>2021-02-27T09:02:11Z</time>
      </trkpt>
      <trkpt lat="45.20152" lon="5.99964">
        <ele>2474</ele>
        <time>2021-02-27T09:02:12Z</time>
      </trkpt>
      <trkpt lat="45.20152" lon="5.99964">
        <ele>2473.6</ele>
        <time>2021-02-27T09:02:13Z</time>
      </trkpt>
      <trkpt lat="45.20152" lon="5.99964">
        <ele>2473.8</ele>
        <time>2021-02-27T09:02:14Z</time>
      </trkpt>
      <trkpt lat="45.20152" lon="5.99964">
        <ele>2473.8</ele>
        <time>2021-02-27T09:02:15Z</time>
      </trkpt>
      <trkpt lat="45.20152" lon="5.99964">
        <ele>2474</ele>
        <time>2021-02-27T09:02:16Z</time>
      </trkpt>
      <trkpt lat="45.20152" lon="5.99964">
        <ele>2474</ele>
        <time>2021-02-27T09:02:17Z</time>
      </trkpt>
      <trkpt lat="45.20152" lon="5.99964">
        <ele>2474</ele>
        <time>2021-02-27T09:02:18Z</time>
      </trkpt>
      <trkpt lat="45.20152" lon="5.99964">
        <ele>2474</ele>
        <time>2021-02-27T09:02:19Z</time>
      </trkpt>
      <trkpt lat="45.20152" lon="5.99964">
        <ele>2473.8</ele>
        <time>2021-02-27T09:02:20Z</time>
      </trkpt>
      <trkpt lat="45.20152" lon="5.99964">
        <ele>2473.8</ele>
        <time>2021-02-27T09:02:21Z</time>
      </trkpt>
      <trkpt lat="45.20152" lon="5.99964">
        <ele>2473.8</ele>
        <time>2021-02-27T09:02:22Z</time>
      </trkpt>
      <trkpt lat="45.20152" lon="5.99964">
        <ele>2473.8</ele>
        <time>2021-02-27T09:02:23Z</time>
      </trkpt>
      <trkpt lat="45.20152" lon="5.99964">
        <ele>2474.2</ele>
        <time>2021-02-27T09:02:24Z</time>
      </trkpt>
      <trkpt lat="45.20152" lon="5.99964">
        <ele>2474.2</ele>
        <time>2021-02-27T09:02:25Z</time>
      </trkpt>
      <trkpt lat="45.20152" lon="5.99964">
        <ele>2474.2</ele>
        <time>2021-02-27T09:02:26Z</time>
      </trkpt>
      <trkpt lat="45.20152" lon="5.99964">
        <ele>2474.2</ele>
        <time>2021-02-27T09:02:27Z</time>
      </trkpt>
      <trkpt lat="45.20152" lon="5.99964">
        <ele>2474</ele>
        <time>2021-02-27T09:02:28Z</time>
      </trkpt>
      <trkpt lat="45.20152" lon="5.99964">
        <ele>2473.8</ele>
        <time>2021-02-27T09:02:29Z</time>
      </trkpt>
      <trkpt lat="45.20152" lon="5.99964">
        <ele>2473.8</ele>
        <time>2021-02-27T09:02:30Z</time>
      </trkpt>
      <trkpt lat="45.20152" lon="5.99964">
        <ele>2474.2</ele>
        <time>2021-02-27T09:02:31Z</time>
      </trkpt>
      <trkpt lat="45.20152" lon="5.99964">
        <ele>2474.4</ele>
        <time>2021-02-27T09:02:32Z</time>
      </trkpt>
      <trkpt lat="45.20152" lon="5.99964">
        <ele>2474.4</ele>
        <time>2021-02-27T09:02:33Z</time>
      </trkpt>
      <trkpt lat="45.20152" lon="5.99964">
        <ele>2474.4</ele>
        <time>2021-02-27T09:02:34Z</time>
      </trkpt>
      <trkpt lat="45.2015" lon="5.99964">
        <ele>2474.2</ele>
        <time>2021-02-27T09:02:35Z</time>
      </trkpt>
      <trkpt lat="45.2015" lon="5.99964">
        <ele>2474.4</ele>
        <time>2021-02-27T09:02:36Z</time>
      </trkpt>
      <trkpt lat="45.2015" lon="5.99964">
        <ele>2474.2</ele>
        <time>2021-02-27T09:02:37Z</time>
      </trkpt>
      <trkpt lat="45.2015" lon="5.99964">
        <ele>2474.2</ele>
        <time>2021-02-27T09:02:38Z</time>
      </trkpt>
      <trkpt lat="45.2015" lon="5.99964">
        <ele>2473.8</ele>
        <time>2021-02-27T09:02:39Z</time>
      </trkpt>
      <trkpt lat="45.2015" lon="5.99964">
        <ele>2473.8</ele>
        <time>2021-02-27T09:02:40Z</time>
      </trkpt>
      <trkpt lat="45.2015" lon="5.99964">
        <ele>2473.8</ele>
        <time>2021-02-27T09:02:41Z</time>
      </trkpt>
      <trkpt lat="45.2015" lon="5.99964">
        <ele>2473.8</ele>
        <time>2021-02-27T09:02:42Z</time>
      </trkpt>
      <trkpt lat="45.2015" lon="5.99964">
        <ele>2473.8</ele>
        <time>2021-02-27T09:02:43Z</time>
      </trkpt>
      <trkpt lat="45.2015" lon="5.99964">
        <ele>2474</ele>
        <time>2021-02-27T09:02:44Z</time>
      </trkpt>
      <trkpt lat="45.2015" lon="5.99964">
        <ele>2473.6</ele>
        <time>2021-02-27T09:02:45Z</time>
      </trkpt>
      <trkpt lat="45.2015" lon="5.99964">
        <ele>2473.8</ele>
        <time>2021-02-27T09:02:46Z</time>
      </trkpt>
      <trkpt lat="45.2015" lon="5.99964">
        <ele>2473.6</ele>
        <time>2021-02-27T09:02:47Z</time>
      </trkpt>
      <trkpt lat="45.2015" lon="5.99964">
        <ele>2473.8</ele>
        <time>2021-02-27T09:02:48Z</time>
      </trkpt>
      <trkpt lat="45.2015" lon="5.99964">
        <ele>2473.8</ele>
        <time>2021-02-27T09:02:49Z</time>
      </trkpt>
      <trkpt lat="45.2015" lon="5.99964">
        <ele>2473.6</ele>
        <time>2021-02-27T09:02:50Z</time>
      </trkpt>
      <trkpt lat="45.2015" lon="5.99964">
        <ele>2473.2</ele>
        <time>2021-02-27T09:02:51Z</time>
      </trkpt>
      <trkpt lat="45.2015" lon="5.99964">
        <ele>2472.8</ele>
        <time>2021-02-27T09:02:52Z</time>
      </trkpt>
      <trkpt lat="45.2015" lon="5.99964">
        <ele>2472.6</ele>
        <time>2021-02-27T09:02:53Z</time>
      </trkpt>
      <trkpt lat="45.2015" lon="5.99964">
        <ele>2472.6</ele>
        <time>2021-02-27T09:02:54Z</time>
      </trkpt>
      <trkpt lat="45.2015" lon="5.99964">
        <ele>2472.2</ele>
        <time>2021-02-27T09:02:55Z</time>
      </trkpt>
      <trkpt lat="45.20151" lon="5.99967">
        <ele>2471.8</ele>
        <time>2021-02-27T09:02:56Z</time>
      </trkpt>
      <trkpt lat="45.20151" lon="5.99967">
        <ele>2471.2</ele>
        <time>2021-02-27T09:02:57Z</time>
      </trkpt>
      <trkpt lat="45.20152" lon="5.9997">
        <ele>2471</ele>
        <time>2021-02-27T09:02:58Z</time>
      </trkpt>
      <trkpt lat="45.20152" lon="5.9997">
        <ele>2470.8</ele>
        <time>2021-02-27T09:02:59Z</time>
      </trkpt>
      <trkpt lat="45.20152" lon="5.9997">
        <ele>2470.2</ele>
        <time>2021-02-27T09:03:00Z</time>
      </trkpt>
      <trkpt lat="45.20152" lon="5.9997">
        <ele>2470</ele>
        <time>2021-02-27T09:03:01Z</time>
      </trkpt>
      <trkpt lat="45.20152" lon="5.9997">
        <ele>2469.8</ele>
        <time>2021-02-27T09:03:02Z</time>
      </trkpt>
      <trkpt lat="45.20152" lon="5.9997">
        <ele>2469.8</ele>
        <time>2021-02-27T09:03:03Z</time>
      </trkpt>
      <trkpt lat="45.20152" lon="5.9997">
        <ele>2469.8</ele>
        <time>2021-02-27T09:03:04Z</time>
      </trkpt>
      <trkpt lat="45.20152" lon="5.9997">
        <ele>2470.2</ele>
        <time>2021-02-27T09:03:05Z</time>
      </trkpt>
      <trkpt lat="45.20152" lon="5.9997">
        <ele>2471</ele>
        <time>2021-02-27T09:03:06Z</time>
      </trkpt>
      <trkpt lat="45.20152" lon="5.9997">
        <ele>2471</ele>
        <time>2021-02-27T09:03:07Z</time>
      </trkpt>
      <trkpt lat="45.20153" lon="5.99972">
        <ele>2470.6</ele>
        <time>2021-02-27T09:03:08Z</time>
      </trkpt>
      <trkpt lat="45.20154" lon="5.99975">
        <ele>2469.8</ele>
        <time>2021-02-27T09:03:09Z</time>
      </trkpt>
      <trkpt lat="45.20152" lon="5.99979">
        <ele>2468.8</ele>
        <time>2021-02-27T09:03:10Z</time>
      </trkpt>
      <trkpt lat="45.2015" lon="5.99983">
        <ele>2467.4</ele>
        <time>2021-02-27T09:03:11Z</time>
      </trkpt>
      <trkpt lat="45.20149" lon="5.99988">
        <ele>2466.4</ele>
        <time>2021-02-27T09:03:12Z</time>
      </trkpt>
      <trkpt lat="45.20148" lon="5.99992">
        <ele>2465.4</ele>
        <time>2021-02-27T09:03:13Z</time>
      </trkpt>
      <trkpt lat="45.20148" lon="5.99992">
        <ele>2464.4</ele>
        <time>2021-02-27T09:03:14Z</time>
      </trkpt>
      <trkpt lat="45.20148" lon="5.99992">
        <ele>2464.6</ele>
        <time>2021-02-27T09:03:15Z</time>
      </trkpt>
      <trkpt lat="45.2015" lon="5.99994">
        <ele>2464.4</ele>
        <time>2021-02-27T09:03:16Z</time>
      </trkpt>
      <trkpt lat="45.2015" lon="5.99994">
        <ele>2464.6</ele>
        <time>2021-02-27T09:03:17Z</time>
      </trkpt>
      <trkpt lat="45.20153" lon="5.99998">
        <ele>2463.6</ele>
        <time>2021-02-27T09:03:18Z</time>
      </trkpt>
      <trkpt lat="45.20153" lon="6.00004">
        <ele>2462.6</ele>
        <time>2021-02-27T09:03:19Z</time>
      </trkpt>
      <trkpt lat="45.20152" lon="6.0001">
        <ele>2461</ele>
        <time>2021-02-27T09:03:20Z</time>
      </trkpt>
      <trkpt lat="45.20152" lon="6.00016">
        <ele>2460</ele>
        <time>2021-02-27T09:03:21Z</time>
      </trkpt>
      <trkpt lat="45.20152" lon="6.00016">
        <ele>2458.8</ele>
        <time>2021-02-27T09:03:22Z</time>
      </trkpt>
      <trkpt lat="45.20153" lon="6.00024">
        <ele>2457.8</ele>
        <time>2021-02-27T09:03:23Z</time>
      </trkpt>
      <trkpt lat="45.20154" lon="6.00032">
        <ele>2455.8</ele>
        <time>2021-02-27T09:03:24Z</time>
      </trkpt>
      <trkpt lat="45.20155" lon="6.0004">
        <ele>2454</ele>
        <time>2021-02-27T09:03:25Z</time>
      </trkpt>
      <trkpt lat="45.20152" lon="6.00054">
        <ele>2451.6</ele>
        <time>2021-02-27T09:03:26Z</time>
      </trkpt>
      <trkpt lat="45.2015" lon="6.00058">
        <ele>2450</ele>
        <time>2021-02-27T09:03:27Z</time>
      </trkpt>
      <trkpt lat="45.20147" lon="6.00066">
        <ele>2447.4</ele>
        <time>2021-02-27T09:03:28Z</time>
      </trkpt>
      <trkpt lat="45.20147" lon="6.00066">
        <ele>2445.4</ele>
        <time>2021-02-27T09:03:29Z</time>
      </trkpt>
      <trkpt lat="45.20148" lon="6.00066">
        <ele>2443.6</ele>
        <time>2021-02-27T09:03:30Z</time>
      </trkpt>
      <trkpt lat="45.20148" lon="6.00066">
        <ele>2440.6</ele>
        <time>2021-02-27T09:03:31Z</time>
      </trkpt>
      <trkpt lat="45.20149" lon="6.00066">
        <ele>2438.6</ele>
        <time>2021-02-27T09:03:32Z</time>
      </trkpt>
      <trkpt lat="45.20149" lon="6.00067">
        <ele>2437</ele>
        <time>2021-02-27T09:03:33Z</time>
      </trkpt>
      <trkpt lat="45.2015" lon="6.00067">
        <ele>2436.2</ele>
        <time>2021-02-27T09:03:34Z</time>
      </trkpt>
      <trkpt lat="45.2015" lon="6.00067">
        <ele>2435.4</ele>
        <time>2021-02-27T09:03:35Z</time>
      </trkpt>
      <trkpt lat="45.20151" lon="6.00067">
        <ele>2435.2</ele>
        <time>2021-02-27T09:03:36Z</time>
      </trkpt>
      <trkpt lat="45.20151" lon="6.00068">
        <ele>2434.8</ele>
        <time>2021-02-27T09:03:37Z</time>
      </trkpt>
      <trkpt lat="45.20152" lon="6.00068">
        <ele>2434.4</ele>
        <time>2021-02-27T09:03:38Z</time>
      </trkpt>
      <trkpt lat="45.20152" lon="6.00068">
        <ele>2434</ele>
        <time>2021-02-27T09:03:39Z</time>
      </trkpt>
      <trkpt lat="45.20153" lon="6.00068">
        <ele>2434</ele>
        <time>2021-02-27T09:03:40Z</time>
      </trkpt>
      <trkpt lat="45.20154" lon="6.00069">
        <ele>2433.8</ele>
        <time>2021-02-27T09:03:41Z</time>
      </trkpt>
      <trkpt lat="45.20154" lon="6.00069">
        <ele>2433.8</ele>
        <time>2021-02-27T09:03:42Z</time>
      </trkpt>
      <trkpt lat="45.20155" lon="6.00069">
        <ele>2433.8</ele>
        <time>2021-02-27T09:03:43Z</time>
      </trkpt>
      <trkpt lat="45.20155" lon="6.00069">
        <ele>2434</ele>
        <time>2021-02-27T09:03:44Z</time>
      </trkpt>
      <trkpt lat="45.20156" lon="6.0007">
        <ele>2434</ele>
        <time>2021-02-27T09:03:45Z</time>
      </trkpt>
      <trkpt lat="45.20156" lon="6.0007">
        <ele>2433.8</ele>
        <time>2021-02-27T09:03:46Z</time>
      </trkpt>
      <trkpt lat="45.20157" lon="6.0007">
        <ele>2434</ele>
        <time>2021-02-27T09:03:47Z</time>
      </trkpt>
      <trkpt lat="45.20157" lon="6.0007">
        <ele>2433.8</ele>
        <time>2021-02-27T09:03:48Z</time>
      </trkpt>
      <trkpt lat="45.20158" lon="6.00071">
        <ele>2433.6</ele>
        <time>2021-02-27T09:03:49Z</time>
      </trkpt>
      <trkpt lat="45.20158" lon="6.00071">
        <ele>2432.6</ele>
        <time>2021-02-27T09:03:50Z</time>
      </trkpt>
      <trkpt lat="45.20162" lon="6.00077">
        <ele>2431.6</ele>
        <time>2021-02-27T09:03:51Z</time>
      </trkpt>
      <trkpt lat="45.20166" lon="6.00083">
        <ele>2430.2</ele>
        <time>2021-02-27T09:03:52Z</time>
      </trkpt>
      <trkpt lat="45.2017" lon="6.00089">
        <ele>2428.4</ele>
        <time>2021-02-27T09:03:53Z</time>
      </trkpt>
      <trkpt lat="45.2017" lon="6.00097">
        <ele>2426.8</ele>
        <time>2021-02-27T09:03:54Z</time>
      </trkpt>
      <trkpt lat="45.2017" lon="6.00097">
        <ele>2425.4</ele>
        <time>2021-02-27T09:03:55Z</time>
      </trkpt>
      <trkpt lat="45.20177" lon="6.00103">
        <ele>2423.8</ele>
        <time>2021-02-27T09:03:56Z</time>
      </trkpt>
      <trkpt lat="45.20184" lon="6.00109">
        <ele>2421.6</ele>
        <time>2021-02-27T09:03:57Z</time>
      </trkpt>
      <trkpt lat="45.20191" lon="6.00115">
        <ele>2419.6</ele>
        <time>2021-02-27T09:03:58Z</time>
      </trkpt>
      <trkpt lat="45.20202" lon="6.00113">
        <ele>2417</ele>
        <time>2021-02-27T09:03:59Z</time>
      </trkpt>
      <trkpt lat="45.20205" lon="6.00112">
        <ele>2414.8</ele>
        <time>2021-02-27T09:04:00Z</time>
      </trkpt>
      <trkpt lat="45.20217" lon="6.0011">
        <ele>2413</ele>
        <time>2021-02-27T09:04:01Z</time>
      </trkpt>
      <trkpt lat="45.20223" lon="6.0011">
        <ele>2411.6</ele>
        <time>2021-02-27T09:04:02Z</time>
      </trkpt>
      <trkpt lat="45.20233" lon="6.00109">
        <ele>2410.2</ele>
        <time>2021-02-27T09:04:03Z</time>
      </trkpt>
      <trkpt lat="45.20243" lon="6.00111">
        <ele>2408.2</ele>
        <time>2021-02-27T09:04:04Z</time>
      </trkpt>
      <trkpt lat="45.20253" lon="6.00114">
        <ele>2406.6</ele>
        <time>2021-02-27T09:04:05Z</time>
      </trkpt>
      <trkpt lat="45.20253" lon="6.00114">
        <ele>2405</ele>
        <time>2021-02-27T09:04:06Z</time>
      </trkpt>
      <trkpt lat="45.20271" lon="6.00114">
        <ele>2403.4</ele>
        <time>2021-02-27T09:04:07Z</time>
      </trkpt>
      <trkpt lat="45.20275" lon="6.00113">
        <ele>2401.8</ele>
        <time>2021-02-27T09:04:08Z</time>
      </trkpt>
      <trkpt lat="45.20286" lon="6.00111">
        <ele>2400.6</ele>
        <time>2021-02-27T09:04:09Z</time>
      </trkpt>
      <trkpt lat="45.20289" lon="6.0011">
        <ele>2399.6</ele>
        <time>2021-02-27T09:04:10Z</time>
      </trkpt>
      <trkpt lat="45.20297" lon="6.00106">
        <ele>2398</ele>
        <time>2021-02-27T09:04:11Z</time>
      </trkpt>
      <trkpt lat="45.203" lon="6.00105">
        <ele>2396.6</ele>
        <time>2021-02-27T09:04:12Z</time>
      </trkpt>
      <trkpt lat="45.20306" lon="6.00106">
        <ele>2394.8</ele>
        <time>2021-02-27T09:04:13Z</time>
      </trkpt>
      <trkpt lat="45.20307" lon="6.00109">
        <ele>2393.6</ele>
        <time>2021-02-27T09:04:14Z</time>
      </trkpt>
      <trkpt lat="45.20308" lon="6.00115">
        <ele>2392.6</ele>
        <time>2021-02-27T09:04:15Z</time>
      </trkpt>
      <trkpt lat="45.20308" lon="6.00115">
        <ele>2391.4</ele>
        <time>2021-02-27T09:04:16Z</time>
      </trkpt>
      <trkpt lat="45.20305" lon="6.00133">
        <ele>2390.2</ele>
        <time>2021-02-27T09:04:17Z</time>
      </trkpt>
      <trkpt lat="45.20306" lon="6.00136">
        <ele>2389.2</ele>
        <time>2021-02-27T09:04:18Z</time>
      </trkpt>
      <trkpt lat="45.20308" lon="6.00142">
        <ele>2388</ele>
        <time>2021-02-27T09:04:19Z</time>
      </trkpt>
      <trkpt lat="45.20308" lon="6.00142">
        <ele>2385.8</ele>
        <time>2021-02-27T09:04:20Z</time>
      </trkpt>
      <trkpt lat="45.20327" lon="6.00141">
        <ele>2383.6</ele>
        <time>2021-02-27T09:04:21Z</time>
      </trkpt>
      <trkpt lat="45.20331" lon="6.00139">
        <ele>2381.2</ele>
        <time>2021-02-27T09:04:22Z</time>
      </trkpt>
      <trkpt lat="45.20341" lon="6.00132">
        <ele>2379.6</ele>
        <time>2021-02-27T09:04:23Z</time>
      </trkpt>
      <trkpt lat="45.20345" lon="6.00129">
        <ele>2378.2</ele>
        <time>2021-02-27T09:04:24Z</time>
      </trkpt>
      <trkpt lat="45.20354" lon="6.00121">
        <ele>2377</ele>
        <time>2021-02-27T09:04:25Z</time>
      </trkpt>
      <trkpt lat="45.20357" lon="6.00119">
        <ele>2376</ele>
        <time>2021-02-27T09:04:26Z</time>
      </trkpt>
      <trkpt lat="45.20367" lon="6.00115">
        <ele>2375.2</ele>
        <time>2021-02-27T09:04:27Z</time>
      </trkpt>
      <trkpt lat="45.2037" lon="6.00114">
        <ele>2374.2</ele>
        <time>2021-02-27T09:04:28Z</time>
      </trkpt>
      <trkpt lat="45.2038" lon="6.00111">
        <ele>2373.2</ele>
        <time>2021-02-27T09:04:29Z</time>
      </trkpt>
      <trkpt lat="45.20382" lon="6.00111">
        <ele>2372.2</ele>
        <time>2021-02-27T09:04:30Z</time>
      </trkpt>
      <trkpt lat="45.2039" lon="6.00109">
        <ele>2371</ele>
        <time>2021-02-27T09:04:31Z</time>
      </trkpt>
      <trkpt lat="45.20393" lon="6.0011">
        <ele>2370.2</ele>
        <time>2021-02-27T09:04:32Z</time>
      </trkpt>
      <trkpt lat="45.20402" lon="6.00111">
        <ele>2369.4</ele>
        <time>2021-02-27T09:04:33Z</time>
      </trkpt>
      <trkpt lat="45.20405" lon="6.00112">
        <ele>2368.2</ele>
        <time>2021-02-27T09:04:34Z</time>
      </trkpt>
      <trkpt lat="45.20414" lon="6.00115">
        <ele>2367</ele>
        <time>2021-02-27T09:04:35Z</time>
      </trkpt>
      <trkpt lat="45.20417" lon="6.00115">
        <ele>2365.2</ele>
        <time>2021-02-27T09:04:36Z</time>
      </trkpt>
      <trkpt lat="45.20421" lon="6.00116">
        <ele>2363.2</ele>
        <time>2021-02-27T09:04:37Z</time>
      </trkpt>
      <trkpt lat="45.20435" lon="6.00121">
        <ele>2361.8</ele>
        <time>2021-02-27T09:04:38Z</time>
      </trkpt>
      <trkpt lat="45.20435" lon="6.00121">
        <ele>2360.4</ele>
        <time>2021-02-27T09:04:39Z</time>
      </trkpt>
      <trkpt lat="45.20439" lon="6.00121">
        <ele>2359.4</ele>
        <time>2021-02-27T09:04:40Z</time>
      </trkpt>
      <trkpt lat="45.20443" lon="6.00121">
        <ele>2358.6</ele>
        <time>2021-02-27T09:04:41Z</time>
      </trkpt>
      <trkpt lat="45.20446" lon="6.00122">
        <ele>2358</ele>
        <time>2021-02-27T09:04:42Z</time>
      </trkpt>
      <trkpt lat="45.20446" lon="6.00122">
        <ele>2358.2</ele>
        <time>2021-02-27T09:04:43Z</time>
      </trkpt>
      <trkpt lat="45.20446" lon="6.00122">
        <ele>2358.6</ele>
        <time>2021-02-27T09:04:44Z</time>
      </trkpt>
      <trkpt lat="45.20446" lon="6.00122">
        <ele>2359</ele>
        <time>2021-02-27T09:04:45Z</time>
      </trkpt>
      <trkpt lat="45.20446" lon="6.00122">
        <ele>2359.4</ele>
        <time>2021-02-27T09:04:46Z</time>
      </trkpt>
      <trkpt lat="45.20446" lon="6.00122">
        <ele>2359.2</ele>
        <time>2021-02-27T09:04:47Z</time>
      </trkpt>
      <trkpt lat="45.20446" lon="6.00122">
        <ele>2359.4</ele>
        <time>2021-02-27T09:04:48Z</time>
      </trkpt>
      <trkpt lat="45.20446" lon="6.00122">
        <ele>2359.6</ele>
        <time>2021-02-27T09:04:49Z</time>
      </trkpt>
      <trkpt lat="45.20446" lon="6.00122">
        <ele>2359.4</ele>
        <time>2021-02-27T09:04:50Z</time>
      </trkpt>
      <trkpt lat="45.20446" lon="6.00122">
        <ele>2359.4</ele>
        <time>2021-02-27T09:04:51Z</time>
      </trkpt>
      <trkpt lat="45.20446" lon="6.00122">
        <ele>2359.4</ele>
        <time>2021-02-27T09:04:52Z</time>
      </trkpt>
      <trkpt lat="45.20446" lon="6.00122">
        <ele>2359.4</ele>
        <time>2021-02-27T09:04:53Z</time>
      </trkpt>
      <trkpt lat="45.20446" lon="6.00122">
        <ele>2359.4</ele>
        <time>2021-02-27T09:04:54Z</time>
      </trkpt>
      <trkpt lat="45.20446" lon="6.00122">
        <ele>2359.4</ele>
        <time>2021-02-27T09:04:55Z</time>
      </trkpt>
      <trkpt lat="45.20446" lon="6.00122">
        <ele>2359.4</ele>
        <time>2021-02-27T09:04:56Z</time>
      </trkpt>
      <trkpt lat="45.20446" lon="6.00122">
        <ele>2359</ele>
        <time>2021-02-27T09:04:57Z</time>
      </trkpt>
      <trkpt lat="45.20446" lon="6.00122">
        <ele>2358.8</ele>
        <time>2021-02-27T09:04:58Z</time>
      </trkpt>
      <trkpt lat="45.20448" lon="6.0012">
        <ele>2358.8</ele>
        <time>2021-02-27T09:04:59Z</time>
      </trkpt>
      <trkpt lat="45.20448" lon="6.0012">
        <ele>2358.6</ele>
        <time>2021-02-27T09:05:00Z</time>
      </trkpt>
      <trkpt lat="45.20449" lon="6.0012">
        <ele>2358.6</ele>
        <time>2021-02-27T09:05:01Z</time>
      </trkpt>
      <trkpt lat="45.20451" lon="6.00121">
        <ele>2358.4</ele>
        <time>2021-02-27T09:05:02Z</time>
      </trkpt>
      <trkpt lat="45.20452" lon="6.00121">
        <ele>2358.2</ele>
        <time>2021-02-27T09:05:03Z</time>
      </trkpt>
      <trkpt lat="45.20453" lon="6.00121">
        <ele>2358</ele>
        <time>2021-02-27T09:05:04Z</time>
      </trkpt>
      <trkpt lat="45.20455" lon="6.00121">
        <ele>2358</ele>
        <time>2021-02-27T09:05:05Z</time>
      </trkpt>
      <trkpt lat="45.20456" lon="6.00122">
        <ele>2357.4</ele>
        <time>2021-02-27T09:05:06Z</time>
      </trkpt>
      <trkpt lat="45.20457" lon="6.00122">
        <ele>2357</ele>
        <time>2021-02-27T09:05:07Z</time>
      </trkpt>
      <trkpt lat="45.20467" lon="6.00134">
        <ele>2356.2</ele>
        <time>2021-02-27T09:05:08Z</time>
      </trkpt>
      <trkpt lat="45.20467" lon="6.00139">
        <ele>2355.2</ele>
        <time>2021-02-27T09:05:09Z</time>
      </trkpt>
      <trkpt lat="45.20468" lon="6.00153">
        <ele>2354</ele>
        <time>2021-02-27T09:05:10Z</time>
      </trkpt>
      <trkpt lat="45.20468" lon="6.00158">
        <ele>2352.4</ele>
        <time>2021-02-27T09:05:11Z</time>
      </trkpt>
      <trkpt lat="45.2047" lon="6.00174">
        <ele>2350.4</ele>
        <time>2021-02-27T09:05:12Z</time>
      </trkpt>
      <trkpt lat="45.2047" lon="6.00181">
        <ele>2347.8</ele>
        <time>2021-02-27T09:05:13Z</time>
      </trkpt>
      <trkpt lat="45.20471" lon="6.00194">
        <ele>2345</ele>
        <time>2021-02-27T09:05:14Z</time>
      </trkpt>
      <trkpt lat="45.20471" lon="6.00209">
        <ele>2342.2</ele>
        <time>2021-02-27T09:05:15Z</time>
      </trkpt>
      <trkpt lat="45.20477" lon="6.00222">
        <ele>2338.8</ele>
        <time>2021-02-27T09:05:16Z</time>
      </trkpt>
      <trkpt lat="45.20487" lon="6.00237">
        <ele>2336.2</ele>
        <time>2021-02-27T09:05:17Z</time>
      </trkpt>
      <trkpt lat="45.20497" lon="6.00248">
        <ele>2332.6</ele>
        <time>2021-02-27T09:05:18Z</time>
      </trkpt>
      <trkpt lat="45.20506" lon="6.00256">
        <ele>2330.2</ele>
        <time>2021-02-27T09:05:19Z</time>
      </trkpt>
      <trkpt lat="45.20506" lon="6.00256">
        <ele>2327.6</ele>
        <time>2021-02-27T09:05:20Z</time>
      </trkpt>
      <trkpt lat="45.20513" lon="6.00276">
        <ele>2326</ele>
        <time>2021-02-27T09:05:21Z</time>
      </trkpt>
      <trkpt lat="45.20513" lon="6.00276">
        <ele>2324.4</ele>
        <time>2021-02-27T09:05:22Z</time>
      </trkpt>
      <trkpt lat="45.20515" lon="6.00274">
        <ele>2322.6</ele>
        <time>2021-02-27T09:05:23Z</time>
      </trkpt>
      <trkpt lat="45.20516" lon="6.00273">
        <ele>2321.8</ele>
        <time>2021-02-27T09:05:24Z</time>
      </trkpt>
      <trkpt lat="45.20518" lon="6.00272">
        <ele>2320.8</ele>
        <time>2021-02-27T09:05:25Z</time>
      </trkpt>
      <trkpt lat="45.20519" lon="6.0027">
        <ele>2320.4</ele>
        <time>2021-02-27T09:05:26Z</time>
      </trkpt>
      <trkpt lat="45.2052" lon="6.00269">
        <ele>2320</ele>
        <time>2021-02-27T09:05:27Z</time>
      </trkpt>
      <trkpt lat="45.20522" lon="6.00267">
        <ele>2320</ele>
        <time>2021-02-27T09:05:28Z</time>
      </trkpt>
      <trkpt lat="45.20523" lon="6.00266">
        <ele>2320</ele>
        <time>2021-02-27T09:05:29Z</time>
      </trkpt>
      <trkpt lat="45.20523" lon="6.00264">
        <ele>2320</ele>
        <time>2021-02-27T09:05:30Z</time>
      </trkpt>
      <trkpt lat="45.20524" lon="6.00263">
        <ele>2320.2</ele>
        <time>2021-02-27T09:05:31Z</time>
      </trkpt>
      <trkpt lat="45.20525" lon="6.00261">
        <ele>2320</ele>
        <time>2021-02-27T09:05:32Z</time>
      </trkpt>
      <trkpt lat="45.20528" lon="6.0026">
        <ele>2319.6</ele>
        <time>2021-02-27T09:05:33Z</time>
      </trkpt>
      <trkpt lat="45.20528" lon="6.0026">
        <ele>2319.4</ele>
        <time>2021-02-27T09:05:34Z</time>
      </trkpt>
      <trkpt lat="45.20539" lon="6.00257">
        <ele>2318</ele>
        <time>2021-02-27T09:05:35Z</time>
      </trkpt>
      <trkpt lat="45.20539" lon="6.00257">
        <ele>2316.6</ele>
        <time>2021-02-27T09:05:36Z</time>
      </trkpt>
      <trkpt lat="45.20539" lon="6.00264">
        <ele>2315.6</ele>
        <time>2021-02-27T09:05:37Z</time>
      </trkpt>
      <trkpt lat="45.20539" lon="6.00272">
        <ele>2314.4</ele>
        <time>2021-02-27T09:05:38Z</time>
      </trkpt>
      <trkpt lat="45.2054" lon="6.00279">
        <ele>2312.8</ele>
        <time>2021-02-27T09:05:39Z</time>
      </trkpt>
      <trkpt lat="45.2054" lon="6.00286">
        <ele>2311.8</ele>
        <time>2021-02-27T09:05:40Z</time>
      </trkpt>
      <trkpt lat="45.20539" lon="6.00299">
        <ele>2309.8</ele>
        <time>2021-02-27T09:05:41Z</time>
      </trkpt>
      <trkpt lat="45.20536" lon="6.00304">
        <ele>2308</ele>
        <time>2021-02-27T09:05:42Z</time>
      </trkpt>
      <trkpt lat="45.20528" lon="6.00316">
        <ele>2305.2</ele>
        <time>2021-02-27T09:05:43Z</time>
      </trkpt>
      <trkpt lat="45.20525" lon="6.0032">
        <ele>2302.4</ele>
        <time>2021-02-27T09:05:44Z</time>
      </trkpt>
      <trkpt lat="45.20518" lon="6.00333">
        <ele>2300</ele>
        <time>2021-02-27T09:05:45Z</time>
      </trkpt>
      <trkpt lat="45.20518" lon="6.00339">
        <ele>2298.4</ele>
        <time>2021-02-27T09:05:46Z</time>
      </trkpt>
      <trkpt lat="45.20521" lon="6.0036">
        <ele>2295.4</ele>
        <time>2021-02-27T09:05:47Z</time>
      </trkpt>
      <trkpt lat="45.20523" lon="6.00369">
        <ele>2292.6</ele>
        <time>2021-02-27T09:05:48Z</time>
      </trkpt>
      <trkpt lat="45.20528" lon="6.00385">
        <ele>2288.8</ele>
        <time>2021-02-27T09:05:49Z</time>
      </trkpt>
      <trkpt lat="45.20532" lon="6.004">
        <ele>2285.4</ele>
        <time>2021-02-27T09:05:50Z</time>
      </trkpt>
      <trkpt lat="45.20532" lon="6.004">
        <ele>2283.6</ele>
        <time>2021-02-27T09:05:51Z</time>
      </trkpt>
      <trkpt lat="45.20538" lon="6.00421">
        <ele>2282.6</ele>
        <time>2021-02-27T09:05:52Z</time>
      </trkpt>
      <trkpt lat="45.20539" lon="6.00424">
        <ele>2282</ele>
        <time>2021-02-27T09:05:53Z</time>
      </trkpt>
      <trkpt lat="45.20541" lon="6.00431">
        <ele>2282</ele>
        <time>2021-02-27T09:05:54Z</time>
      </trkpt>
      <trkpt lat="45.20541" lon="6.00431">
        <ele>2281.8</ele>
        <time>2021-02-27T09:05:55Z</time>
      </trkpt>
      <trkpt lat="45.2054" lon="6.0045">
        <ele>2281</ele>
        <time>2021-02-27T09:05:56Z</time>
      </trkpt>
      <trkpt lat="45.2054" lon="6.00453">
        <ele>2280.4</ele>
        <time>2021-02-27T09:05:57Z</time>
      </trkpt>
      <trkpt lat="45.2054" lon="6.00459">
        <ele>2280.2</ele>
        <time>2021-02-27T09:05:58Z</time>
      </trkpt>
      <trkpt lat="45.20541" lon="6.00464">
        <ele>2280.2</ele>
        <time>2021-02-27T09:05:59Z</time>
      </trkpt>
      <trkpt lat="45.20542" lon="6.0047">
        <ele>2280</ele>
        <time>2021-02-27T09:06:00Z</time>
      </trkpt>
      <trkpt lat="45.20543" lon="6.00476">
        <ele>2279.4</ele>
        <time>2021-02-27T09:06:01Z</time>
      </trkpt>
      <trkpt lat="45.20545" lon="6.00481">
        <ele>2279</ele>
        <time>2021-02-27T09:06:02Z</time>
      </trkpt>
      <trkpt lat="45.20547" lon="6.00486">
        <ele>2278.8</ele>
        <time>2021-02-27T09:06:03Z</time>
      </trkpt>
      <trkpt lat="45.20548" lon="6.00493">
        <ele>2278.4</ele>
        <time>2021-02-27T09:06:04Z</time>
      </trkpt>
      <trkpt lat="45.20548" lon="6.00502">
        <ele>2278.2</ele>
        <time>2021-02-27T09:06:05Z</time>
      </trkpt>
      <trkpt lat="45.20547" lon="6.0051">
        <ele>2277.2</ele>
        <time>2021-02-27T09:06:06Z</time>
      </trkpt>
      <trkpt lat="45.20546" lon="6.00518">
        <ele>2276.2</ele>
        <time>2021-02-27T09:06:07Z</time>
      </trkpt>
      <trkpt lat="45.20544" lon="6.00526">
        <ele>2275.8</ele>
        <time>2021-02-27T09:06:08Z</time>
      </trkpt>
      <trkpt lat="45.20541" lon="6.00534">
        <ele>2275.4</ele>
        <time>2021-02-27T09:06:09Z</time>
      </trkpt>
      <trkpt lat="45.20538" lon="6.00541">
        <ele>2274.6</ele>
        <time>2021-02-27T09:06:10Z</time>
      </trkpt>
      <trkpt lat="45.20535" lon="6.00548">
        <ele>2274.4</ele>
        <time>2021-02-27T09:06:11Z</time>
      </trkpt>
      <trkpt lat="45.20531" lon="6.00555">
        <ele>2274</ele>
        <time>2021-02-27T09:06:12Z</time>
      </trkpt>
      <trkpt lat="45.20528" lon="6.00562">
        <ele>2273.8</ele>
        <time>2021-02-27T09:06:13Z</time>
      </trkpt>
      <trkpt lat="45.20524" lon="6.00569">
        <ele>2273.4</ele>
        <time>2021-02-27T09:06:14Z</time>
      </trkpt>
      <trkpt lat="45.20519" lon="6.00575">
        <ele>2273</ele>
        <time>2021-02-27T09:06:15Z</time>
      </trkpt>
      <trkpt lat="45.20515" lon="6.0058">
        <ele>2273.2</ele>
        <time>2021-02-27T09:06:16Z</time>
      </trkpt>
      <trkpt lat="45.2051" lon="6.00586">
        <ele>2272.8</ele>
        <time>2021-02-27T09:06:17Z</time>
      </trkpt>
      <trkpt lat="45.20506" lon="6.00592">
        <ele>2272</ele>
        <time>2021-02-27T09:06:18Z</time>
      </trkpt>
      <trkpt lat="45.20506" lon="6.00592">
        <ele>2271.8</ele>
        <time>2021-02-27T09:06:19Z</time>
      </trkpt>
      <trkpt lat="45.20506" lon="6.00593">
        <ele>2272</ele>
        <time>2021-02-27T09:06:20Z</time>
      </trkpt>
      <trkpt lat="45.20505" lon="6.00595">
        <ele>2271.4</ele>
        <time>2021-02-27T09:06:21Z</time>
      </trkpt>
      <trkpt lat="45.20504" lon="6.00596">
        <ele>2271.4</ele>
        <time>2021-02-27T09:06:22Z</time>
      </trkpt>
      <trkpt lat="45.20503" lon="6.00598">
        <ele>2272</ele>
        <time>2021-02-27T09:06:23Z</time>
      </trkpt>
      <trkpt lat="45.20502" lon="6.00599">
        <ele>2271.8</ele>
        <time>2021-02-27T09:06:24Z</time>
      </trkpt>
      <trkpt lat="45.20502" lon="6.00601">
        <ele>2272.2</ele>
        <time>2021-02-27T09:06:25Z</time>
      </trkpt>
      <trkpt lat="45.20501" lon="6.00602">
        <ele>2272.6</ele>
        <time>2021-02-27T09:06:26Z</time>
      </trkpt>
      <trkpt lat="45.20499" lon="6.00605">
        <ele>2272.6</ele>
        <time>2021-02-27T09:06:27Z</time>
      </trkpt>
      <trkpt lat="45.20498" lon="6.00608">
        <ele>2272.4</ele>
        <time>2021-02-27T09:06:28Z</time>
      </trkpt>
      <trkpt lat="45.20496" lon="6.0061">
        <ele>2272.4</ele>
        <time>2021-02-27T09:06:29Z</time>
      </trkpt>
      <trkpt lat="45.20494" lon="6.00613">
        <ele>2272.8</ele>
        <time>2021-02-27T09:06:30Z</time>
      </trkpt>
      <trkpt lat="45.20493" lon="6.00616">
        <ele>2273</ele>
        <time>2021-02-27T09:06:31Z</time>
      </trkpt>
      <trkpt lat="45.20491" lon="6.00619">
        <ele>2273</ele>
        <time>2021-02-27T09:06:32Z</time>
      </trkpt>
      <trkpt lat="45.2049" lon="6.00624">
        <ele>2273.2</ele>
        <time>2021-02-27T09:06:33Z</time>
      </trkpt>
      <trkpt lat="45.20488" lon="6.00629">
        <ele>2273.2</ele>
        <time>2021-02-27T09:06:34Z</time>
      </trkpt>
      <trkpt lat="45.20487" lon="6.00635">
        <ele>2272.8</ele>
        <time>2021-02-27T09:06:35Z</time>
      </trkpt>
      <trkpt lat="45.20484" lon="6.00642">
        <ele>2272.6</ele>
        <time>2021-02-27T09:06:36Z</time>
      </trkpt>
      <trkpt lat="45.20484" lon="6.00642">
        <ele>2271.6</ele>
        <time>2021-02-27T09:06:37Z</time>
      </trkpt>
      <trkpt lat="45.20479" lon="6.0066">
        <ele>2271.2</ele>
        <time>2021-02-27T09:06:38Z</time>
      </trkpt>
      <trkpt lat="45.20477" lon="6.00663">
        <ele>2270.2</ele>
        <time>2021-02-27T09:06:39Z</time>
      </trkpt>
      <trkpt lat="45.20474" lon="6.0067">
        <ele>2268.8</ele>
        <time>2021-02-27T09:06:40Z</time>
      </trkpt>
      <trkpt lat="45.20474" lon="6.0067">
        <ele>2268</ele>
        <time>2021-02-27T09:06:41Z</time>
      </trkpt>
      <trkpt lat="45.20471" lon="6.00693">
        <ele>2266.6</ele>
        <time>2021-02-27T09:06:42Z</time>
      </trkpt>
      <trkpt lat="45.2047" lon="6.00698">
        <ele>2265</ele>
        <time>2021-02-27T09:06:43Z</time>
      </trkpt>
      <trkpt lat="45.20468" lon="6.00707">
        <ele>2263.6</ele>
        <time>2021-02-27T09:06:44Z</time>
      </trkpt>
      <trkpt lat="45.20464" lon="6.00716">
        <ele>2261.4</ele>
        <time>2021-02-27T09:06:45Z</time>
      </trkpt>
      <trkpt lat="45.20461" lon="6.00724">
        <ele>2258.8</ele>
        <time>2021-02-27T09:06:46Z</time>
      </trkpt>
      <trkpt lat="45.20455" lon="6.0073">
        <ele>2256.2</ele>
        <time>2021-02-27T09:06:47Z</time>
      </trkpt>
      <trkpt lat="45.20455" lon="6.0073">
        <ele>2253.4</ele>
        <time>2021-02-27T09:06:48Z</time>
      </trkpt>
      <trkpt lat="45.20449" lon="6.00752">
        <ele>2251.4</ele>
        <time>2021-02-27T09:06:49Z</time>
      </trkpt>
      <trkpt lat="45.20447" lon="6.00757">
        <ele>2248.2</ele>
        <time>2021-02-27T09:06:50Z</time>
      </trkpt>
      <trkpt lat="45.20445" lon="6.00767">
        <ele>2246</ele>
        <time>2021-02-27T09:06:51Z</time>
      </trkpt>
      <trkpt lat="45.20443" lon="6.00775">
        <ele>2243</ele>
        <time>2021-02-27T09:06:52Z</time>
      </trkpt>
      <trkpt lat="45.20443" lon="6.00775">
        <ele>2239.8</ele>
        <time>2021-02-27T09:06:53Z</time>
      </trkpt>
      <trkpt lat="45.20432" lon="6.00796">
        <ele>2237</ele>
        <time>2021-02-27T09:06:54Z</time>
      </trkpt>
      <trkpt lat="45.2043" lon="6.008">
        <ele>2233.6</ele>
        <time>2021-02-27T09:06:55Z</time>
      </trkpt>
      <trkpt lat="45.20422" lon="6.00812">
        <ele>2230.6</ele>
        <time>2021-02-27T09:06:56Z</time>
      </trkpt>
      <trkpt lat="45.2042" lon="6.00816">
        <ele>2227.4</ele>
        <time>2021-02-27T09:06:57Z</time>
      </trkpt>
      <trkpt lat="45.20414" lon="6.00826">
        <ele>2223.6</ele>
        <time>2021-02-27T09:06:58Z</time>
      </trkpt>
      <trkpt lat="45.20413" lon="6.00829">
        <ele>2220.8</ele>
        <time>2021-02-27T09:06:59Z</time>
      </trkpt>
      <trkpt lat="45.20411" lon="6.00835">
        <ele>2217.6</ele>
        <time>2021-02-27T09:07:00Z</time>
      </trkpt>
      <trkpt lat="45.20411" lon="6.00835">
        <ele>2214.4</ele>
        <time>2021-02-27T09:07:01Z</time>
      </trkpt>
      <trkpt lat="45.20412" lon="6.00834">
        <ele>2211.8</ele>
        <time>2021-02-27T09:07:02Z</time>
      </trkpt>
      <trkpt lat="45.20413" lon="6.00832">
        <ele>2210.6</ele>
        <time>2021-02-27T09:07:03Z</time>
      </trkpt>
      <trkpt lat="45.20415" lon="6.00831">
        <ele>2209.4</ele>
        <time>2021-02-27T09:07:04Z</time>
      </trkpt>
      <trkpt lat="45.20416" lon="6.00829">
        <ele>2208.4</ele>
        <time>2021-02-27T09:07:05Z</time>
      </trkpt>
      <trkpt lat="45.20417" lon="6.00828">
        <ele>2207.8</ele>
        <time>2021-02-27T09:07:06Z</time>
      </trkpt>
      <trkpt lat="45.20418" lon="6.00826">
        <ele>2207.2</ele>
        <time>2021-02-27T09:07:07Z</time>
      </trkpt>
      <trkpt lat="45.20418" lon="6.00826">
        <ele>2206.8</ele>
        <time>2021-02-27T09:07:08Z</time>
      </trkpt>
      <trkpt lat="45.20419" lon="6.00826">
        <ele>2206.4</ele>
        <time>2021-02-27T09:07:09Z</time>
      </trkpt>
      <trkpt lat="45.20419" lon="6.00826">
        <ele>2206.4</ele>
        <time>2021-02-27T09:07:10Z</time>
      </trkpt>
      <trkpt lat="45.20419" lon="6.00825">
        <ele>2206.4</ele>
        <time>2021-02-27T09:07:11Z</time>
      </trkpt>
      <trkpt lat="45.20419" lon="6.00825">
        <ele>2206.2</ele>
        <time>2021-02-27T09:07:12Z</time>
      </trkpt>
      <trkpt lat="45.2042" lon="6.00825">
        <ele>2206.2</ele>
        <time>2021-02-27T09:07:13Z</time>
      </trkpt>
      <trkpt lat="45.2042" lon="6.00824">
        <ele>2206</ele>
        <time>2021-02-27T09:07:14Z</time>
      </trkpt>
      <trkpt lat="45.2042" lon="6.00824">
        <ele>2205.8</ele>
        <time>2021-02-27T09:07:15Z</time>
      </trkpt>
      <trkpt lat="45.2042" lon="6.00824">
        <ele>2205.6</ele>
        <time>2021-02-27T09:07:16Z</time>
      </trkpt>
      <trkpt lat="45.20421" lon="6.00824">
        <ele>2205.6</ele>
        <time>2021-02-27T09:07:17Z</time>
      </trkpt>
      <trkpt lat="45.20421" lon="6.00823">
        <ele>2205.6</ele>
        <time>2021-02-27T09:07:18Z</time>
      </trkpt>
      <trkpt lat="45.20421" lon="6.00823">
        <ele>2205.6</ele>
        <time>2021-02-27T09:07:19Z</time>
      </trkpt>
      <trkpt lat="45.20421" lon="6.00823">
        <ele>2205.8</ele>
        <time>2021-02-27T09:07:20Z</time>
      </trkpt>
      <trkpt lat="45.20421" lon="6.00823">
        <ele>2205.8</ele>
        <time>2021-02-27T09:07:21Z</time>
      </trkpt>
      <trkpt lat="45.20421" lon="6.00823">
        <ele>2205.6</ele>
        <time>2021-02-27T09:07:22Z</time>
      </trkpt>
      <trkpt lat="45.20421" lon="6.00823">
        <ele>2205.6</ele>
        <time>2021-02-27T09:07:23Z</time>
      </trkpt>
      <trkpt lat="45.20421" lon="6.00823">
        <ele>2206</ele>
        <time>2021-02-27T09:07:24Z</time>
      </trkpt>
      <trkpt lat="45.20421" lon="6.00823">
        <ele>2205.6</ele>
        <time>2021-02-27T09:07:25Z</time>
      </trkpt>
      <trkpt lat="45.20421" lon="6.00823">
        <ele>2205.4</ele>
        <time>2021-02-27T09:07:26Z</time>
      </trkpt>
      <trkpt lat="45.20421" lon="6.00823">
        <ele>2205.6</ele>
        <time>2021-02-27T09:07:27Z</time>
      </trkpt>
      <trkpt lat="45.20421" lon="6.00823">
        <ele>2205.6</ele>
        <time>2021-02-27T09:07:28Z</time>
      </trkpt>
      <trkpt lat="45.20421" lon="6.00823">
        <ele>2205.8</ele>
        <time>2021-02-27T09:07:29Z</time>
      </trkpt>
      <trkpt lat="45.20421" lon="6.00823">
        <ele>2205.8</ele>
        <time>2021-02-27T09:07:30Z</time>
      </trkpt>
      <trkpt lat="45.20421" lon="6.00823">
        <ele>2205.6</ele>
        <time>2021-02-27T09:07:31Z</time>
      </trkpt>
      <trkpt lat="45.20421" lon="6.00823">
        <ele>2205.6</ele>
        <time>2021-02-27T09:07:32Z</time>
      </trkpt>
      <trkpt lat="45.20421" lon="6.00823">
        <ele>2205.8</ele>
        <time>2021-02-27T09:07:33Z</time>
      </trkpt>
      <trkpt lat="45.20423" lon="6.00823">
        <ele>2205.8</ele>
        <time>2021-02-27T09:07:34Z</time>
      </trkpt>
      <trkpt lat="45.20423" lon="6.00823">
        <ele>2205.6</ele>
        <time>2021-02-27T09:07:35Z</time>
      </trkpt>
      <trkpt lat="45.20424" lon="6.00825">
        <ele>2205.4</ele>
        <time>2021-02-27T09:07:36Z</time>
      </trkpt>
      <trkpt lat="45.20425" lon="6.00827">
        <ele>2205</ele>
        <time>2021-02-27T09:07:37Z</time>
      </trkpt>
      <trkpt lat="45.20424" lon="6.00831">
        <ele>2204.6</ele>
        <time>2021-02-27T09:07:38Z</time>
      </trkpt>
      <trkpt lat="45.20422" lon="6.00835">
        <ele>2204</ele>
        <time>2021-02-27T09:07:39Z</time>
      </trkpt>
      <trkpt lat="45.20418" lon="6.0084">
        <ele>2203.6</ele>
        <time>2021-02-27T09:07:40Z</time>
      </trkpt>
      <trkpt lat="45.20418" lon="6.0084">
        <ele>2202.4</ele>
        <time>2021-02-27T09:07:41Z</time>
      </trkpt>
      <trkpt lat="45.20419" lon="6.0086">
        <ele>2201.4</ele>
        <time>2021-02-27T09:07:42Z</time>
      </trkpt>
      <trkpt lat="45.20419" lon="6.00864">
        <ele>2199.6</ele>
        <time>2021-02-27T09:07:43Z</time>
      </trkpt>
      <trkpt lat="45.2042" lon="6.00878">
        <ele>2198</ele>
        <time>2021-02-27T09:07:44Z</time>
      </trkpt>
      <trkpt lat="45.2042" lon="6.00883">
        <ele>2196.6</ele>
        <time>2021-02-27T09:07:45Z</time>
      </trkpt>
      <trkpt lat="45.20423" lon="6.00899">
        <ele>2195</ele>
        <time>2021-02-27T09:07:46Z</time>
      </trkpt>
      <trkpt lat="45.20425" lon="6.00904">
        <ele>2192.6</ele>
        <time>2021-02-27T09:07:47Z</time>
      </trkpt>
      <trkpt lat="45.20429" lon="6.00919">
        <ele>2190.2</ele>
        <time>2021-02-27T09:07:48Z</time>
      </trkpt>
      <trkpt lat="45.20431" lon="6.00922">
        <ele>2188.4</ele>
        <time>2021-02-27T09:07:49Z</time>
      </trkpt>
      <trkpt lat="45.20435" lon="6.00934">
        <ele>2186.8</ele>
        <time>2021-02-27T09:07:50Z</time>
      </trkpt>
      <trkpt lat="45.20437" lon="6.00938">
        <ele>2185.4</ele>
        <time>2021-02-27T09:07:51Z</time>
      </trkpt>
      <trkpt lat="45.20442" lon="6.00952">
        <ele>2183.8</ele>
        <time>2021-02-27T09:07:52Z</time>
      </trkpt>
      <trkpt lat="45.20443" lon="6.00957">
        <ele>2182</ele>
        <time>2021-02-27T09:07:53Z</time>
      </trkpt>
      <trkpt lat="45.20448" lon="6.00973">
        <ele>2180.4</ele>
        <time>2021-02-27T09:07:54Z</time>
      </trkpt>
      <trkpt lat="45.20449" lon="6.00978">
        <ele>2179.4</ele>
        <time>2021-02-27T09:07:55Z</time>
      </trkpt>
      <trkpt lat="45.20452" lon="6.00989">
        <ele>2177.4</ele>
        <time>2021-02-27T09:07:56Z</time>
      </trkpt>
      <trkpt lat="45.20456" lon="6.01">
        <ele>2176</ele>
        <time>2021-02-27T09:07:57Z</time>
      </trkpt>
      <trkpt lat="45.20459" lon="6.01012">
        <ele>2174.2</ele>
        <time>2021-02-27T09:07:58Z</time>
      </trkpt>
      <trkpt lat="45.20463" lon="6.01024">
        <ele>2172.8</ele>
        <time>2021-02-27T09:07:59Z</time>
      </trkpt>
      <trkpt lat="45.20467" lon="6.01037">
        <ele>2171</ele>
        <time>2021-02-27T09:08:00Z</time>
      </trkpt>
      <trkpt lat="45.2047" lon="6.0105">
        <ele>2168.8</ele>
        <time>2021-02-27T09:08:01Z</time>
      </trkpt>
      <trkpt lat="45.2047" lon="6.01063">
        <ele>2166.6</ele>
        <time>2021-02-27T09:08:02Z</time>
      </trkpt>
      <trkpt lat="45.2047" lon="6.01063">
        <ele>2164.6</ele>
        <time>2021-02-27T09:08:03Z</time>
      </trkpt>
      <trkpt lat="45.20467" lon="6.01091">
        <ele>2162.4</ele>
        <time>2021-02-27T09:08:04Z</time>
      </trkpt>
      <trkpt lat="45.20466" lon="6.01095">
        <ele>2161.2</ele>
        <time>2021-02-27T09:08:05Z</time>
      </trkpt>
      <trkpt lat="45.20464" lon="6.01104">
        <ele>2160.2</ele>
        <time>2021-02-27T09:08:06Z</time>
      </trkpt>
      <trkpt lat="45.2046" lon="6.01112">
        <ele>2159.8</ele>
        <time>2021-02-27T09:08:07Z</time>
      </trkpt>
      <trkpt lat="45.20458" lon="6.0112">
        <ele>2159</ele>
        <time>2021-02-27T09:08:08Z</time>
      </trkpt>
      <trkpt lat="45.20457" lon="6.01128">
        <ele>2158.2</ele>
        <time>2021-02-27T09:08:09Z</time>
      </trkpt>
      <trkpt lat="45.20457" lon="6.01137">
        <ele>2157.4</ele>
        <time>2021-02-27T09:08:10Z</time>
      </trkpt>
      <trkpt lat="45.20458" lon="6.01146">
        <ele>2156.4</ele>
        <time>2021-02-27T09:08:11Z</time>
      </trkpt>
      <trkpt lat="45.20459" lon="6.01155">
        <ele>2155.4</ele>
        <time>2021-02-27T09:08:12Z</time>
      </trkpt>
      <trkpt lat="45.20462" lon="6.01162">
        <ele>2154</ele>
        <time>2021-02-27T09:08:13Z</time>
      </trkpt>
      <trkpt lat="45.20465" lon="6.01169">
        <ele>2152.6</ele>
        <time>2021-02-27T09:08:14Z</time>
      </trkpt>
      <trkpt lat="45.20469" lon="6.01174">
        <ele>2151.8</ele>
        <time>2021-02-27T09:08:15Z</time>
      </trkpt>
      <trkpt lat="45.20473" lon="6.01178">
        <ele>2150.8</ele>
        <time>2021-02-27T09:08:16Z</time>
      </trkpt>
      <trkpt lat="45.20475" lon="6.01181">
        <ele>2150.2</ele>
        <time>2021-02-27T09:08:17Z</time>
      </trkpt>
      <trkpt lat="45.20478" lon="6.01184">
        <ele>2149.4</ele>
        <time>2021-02-27T09:08:18Z</time>
      </trkpt>
      <trkpt lat="45.20479" lon="6.01185">
        <ele>2148.8</ele>
        <time>2021-02-27T09:08:19Z</time>
      </trkpt>
      <trkpt lat="45.20481" lon="6.01187">
        <ele>2148.4</ele>
        <time>2021-02-27T09:08:20Z</time>
      </trkpt>
      <trkpt lat="45.20483" lon="6.01189">
        <ele>2148.2</ele>
        <time>2021-02-27T09:08:21Z</time>
      </trkpt>
      <trkpt lat="45.20482" lon="6.01192">
        <ele>2147.8</ele>
        <time>2021-02-27T09:08:22Z</time>
      </trkpt>
      <trkpt lat="45.20478" lon="6.01194">
        <ele>2147.2</ele>
        <time>2021-02-27T09:08:23Z</time>
      </trkpt>
      <trkpt lat="45.20474" lon="6.01197">
        <ele>2146</ele>
        <time>2021-02-27T09:08:24Z</time>
      </trkpt>
      <trkpt lat="45.20474" lon="6.01202">
        <ele>2145.2</ele>
        <time>2021-02-27T09:08:25Z</time>
      </trkpt>
      <trkpt lat="45.20476" lon="6.01208">
        <ele>2143.8</ele>
        <time>2021-02-27T09:08:26Z</time>
      </trkpt>
      <trkpt lat="45.20476" lon="6.01208">
        <ele>2142.4</ele>
        <time>2021-02-27T09:08:27Z</time>
      </trkpt>
      <trkpt lat="45.20489" lon="6.01232">
        <ele>2140.6</ele>
        <time>2021-02-27T09:08:28Z</time>
      </trkpt>
      <trkpt lat="45.20492" lon="6.01238">
        <ele>2139.2</ele>
        <time>2021-02-27T09:08:29Z</time>
      </trkpt>
      <trkpt lat="45.20497" lon="6.01248">
        <ele>2136.8</ele>
        <time>2021-02-27T09:08:30Z</time>
      </trkpt>
      <trkpt lat="45.20497" lon="6.01248">
        <ele>2135.2</ele>
        <time>2021-02-27T09:08:31Z</time>
      </trkpt>
      <trkpt lat="45.20507" lon="6.01271">
        <ele>2133.6</ele>
        <time>2021-02-27T09:08:32Z</time>
      </trkpt>
      <trkpt lat="45.20508" lon="6.01274">
        <ele>2132.4</ele>
        <time>2021-02-27T09:08:33Z</time>
      </trkpt>
      <trkpt lat="45.20512" lon="6.01285">
        <ele>2131.2</ele>
        <time>2021-02-27T09:08:34Z</time>
      </trkpt>
      <trkpt lat="45.20513" lon="6.01288">
        <ele>2130.6</ele>
        <time>2021-02-27T09:08:35Z</time>
      </trkpt>
      <trkpt lat="45.20516" lon="6.01296">
        <ele>2130</ele>
        <time>2021-02-27T09:08:36Z</time>
      </trkpt>
      <trkpt lat="45.20517" lon="6.01298">
        <ele>2129.8</ele>
        <time>2021-02-27T09:08:37Z</time>
      </trkpt>
      <trkpt lat="45.20518" lon="6.01303">
        <ele>2129.6</ele>
        <time>2021-02-27T09:08:38Z</time>
      </trkpt>
      <trkpt lat="45.2052" lon="6.01308">
        <ele>2129.2</ele>
        <time>2021-02-27T09:08:39Z</time>
      </trkpt>
      <trkpt lat="45.20522" lon="6.01312">
        <ele>2128.8</ele>
        <time>2021-02-27T09:08:40Z</time>
      </trkpt>
      <trkpt lat="45.20525" lon="6.01314">
        <ele>2128.6</ele>
        <time>2021-02-27T09:08:41Z</time>
      </trkpt>
      <trkpt lat="45.20525" lon="6.01314">
        <ele>2128.4</ele>
        <time>2021-02-27T09:08:42Z</time>
      </trkpt>
      <trkpt lat="45.20525" lon="6.01314">
        <ele>2128</ele>
        <time>2021-02-27T09:08:43Z</time>
      </trkpt>
      <trkpt lat="45.20525" lon="6.01314">
        <ele>2128.2</ele>
        <time>2021-02-27T09:08:44Z</time>
      </trkpt>
      <trkpt lat="45.20525" lon="6.01314">
        <ele>2128.2</ele>
        <time>2021-02-27T09:08:45Z</time>
      </trkpt>
      <trkpt lat="45.20525" lon="6.01314">
        <ele>2128.4</ele>
        <time>2021-02-27T09:08:46Z</time>
      </trkpt>
      <trkpt lat="45.20525" lon="6.01314">
        <ele>2128.4</ele>
        <time>2021-02-27T09:08:47Z</time>
      </trkpt>
      <trkpt lat="45.20525" lon="6.01314">
        <ele>2128.2</ele>
        <time>2021-02-27T09:08:48Z</time>
      </trkpt>
      <trkpt lat="45.20525" lon="6.01314">
        <ele>2128.4</ele>
        <time>2021-02-27T09:08:49Z</time>
      </trkpt>
      <trkpt lat="45.20526" lon="6.01313">
        <ele>2128.4</ele>
        <time>2021-02-27T09:08:50Z</time>
      </trkpt>
      <trkpt lat="45.20526" lon="6.01313">
        <ele>2128.2</ele>
        <time>2021-02-27T09:08:51Z</time>
      </trkpt>
      <trkpt lat="45.20526" lon="6.01313">
        <ele>2128.2</ele>
        <time>2021-02-27T09:08:52Z</time>
      </trkpt>
      <trkpt lat="45.20526" lon="6.01313">
        <ele>2128.4</ele>
        <time>2021-02-27T09:08:53Z</time>
      </trkpt>
      <trkpt lat="45.20526" lon="6.01313">
        <ele>2128.6</ele>
        <time>2021-02-27T09:08:54Z</time>
      </trkpt>
      <trkpt lat="45.20526" lon="6.01313">
        <ele>2128.4</ele>
        <time>2021-02-27T09:08:55Z</time>
      </trkpt>
      <trkpt lat="45.20526" lon="6.01313">
        <ele>2128.6</ele>
        <time>2021-02-27T09:08:56Z</time>
      </trkpt>
      <trkpt lat="45.20526" lon="6.01313">
        <ele>2128.6</ele>
        <time>2021-02-27T09:08:57Z</time>
      </trkpt>
      <trkpt lat="45.20526" lon="6.01313">
        <ele>2128.6</ele>
        <time>2021-02-27T09:08:58Z</time>
      </trkpt>
      <trkpt lat="45.20526" lon="6.01313">
        <ele>2128.6</ele>
        <time>2021-02-27T09:08:59Z</time>
      </trkpt>
      <trkpt lat="45.20526" lon="6.01313">
        <ele>2128.4</ele>
        <time>2021-02-27T09:09:00Z</time>
      </trkpt>
      <trkpt lat="45.20526" lon="6.01313">
        <ele>2128.4</ele>
        <time>2021-02-27T09:09:01Z</time>
      </trkpt>
      <trkpt lat="45.20526" lon="6.01313">
        <ele>2128.4</ele>
        <time>2021-02-27T09:09:02Z</time>
      </trkpt>
      <trkpt lat="45.20526" lon="6.01313">
        <ele>2128.4</ele>
        <time>2021-02-27T09:09:03Z</time>
      </trkpt>
      <trkpt lat="45.20526" lon="6.01313">
        <ele>2128.4</ele>
        <time>2021-02-27T09:09:04Z</time>
      </trkpt>
      <trkpt lat="45.20529" lon="6.01314">
        <ele>2127.8</ele>
        <time>2021-02-27T09:09:05Z</time>
      </trkpt>
      <trkpt lat="45.20529" lon="6.01319">
        <ele>2127</ele>
        <time>2021-02-27T09:09:06Z</time>
      </trkpt>
      <trkpt lat="45.20529" lon="6.01319">
        <ele>2126.8</ele>
        <time>2021-02-27T09:09:07Z</time>
      </trkpt>
      <trkpt lat="45.20523" lon="6.01329">
        <ele>2125.4</ele>
        <time>2021-02-27T09:09:08Z</time>
      </trkpt>
      <trkpt lat="45.20523" lon="6.01331">
        <ele>2124</ele>
        <time>2021-02-27T09:09:09Z</time>
      </trkpt>
      <trkpt lat="45.20523" lon="6.01331">
        <ele>2122.8</ele>
        <time>2021-02-27T09:09:10Z</time>
      </trkpt>
      <trkpt lat="45.20525" lon="6.0133">
        <ele>2121.2</ele>
        <time>2021-02-27T09:09:11Z</time>
      </trkpt>
      <trkpt lat="45.20528" lon="6.0133">
        <ele>2119.2</ele>
        <time>2021-02-27T09:09:12Z</time>
      </trkpt>
      <trkpt lat="45.20531" lon="6.01329">
        <ele>2117.4</ele>
        <time>2021-02-27T09:09:13Z</time>
      </trkpt>
      <trkpt lat="45.20534" lon="6.01329">
        <ele>2116</ele>
        <time>2021-02-27T09:09:14Z</time>
      </trkpt>
      <trkpt lat="45.20532" lon="6.01333">
        <ele>2114.6</ele>
        <time>2021-02-27T09:09:15Z</time>
      </trkpt>
      <trkpt lat="45.20531" lon="6.01338">
        <ele>2112.4</ele>
        <time>2021-02-27T09:09:16Z</time>
      </trkpt>
      <trkpt lat="45.20529" lon="6.01342">
        <ele>2111.2</ele>
        <time>2021-02-27T09:09:17Z</time>
      </trkpt>
      <trkpt lat="45.20529" lon="6.01345">
        <ele>2109.8</ele>
        <time>2021-02-27T09:09:18Z</time>
      </trkpt>
      <trkpt lat="45.20529" lon="6.01347">
        <ele>2109</ele>
        <time>2021-02-27T09:09:19Z</time>
      </trkpt>
      <trkpt lat="45.2053" lon="6.0135">
        <ele>2107</ele>
        <time>2021-02-27T09:09:20Z</time>
      </trkpt>
      <trkpt lat="45.2053" lon="6.01353">
        <ele>2105.4</ele>
        <time>2021-02-27T09:09:21Z</time>
      </trkpt>
      <trkpt lat="45.2053" lon="6.01355">
        <ele>2104.4</ele>
        <time>2021-02-27T09:09:22Z</time>
      </trkpt>
      <trkpt lat="45.2053" lon="6.01355">
        <ele>2103.6</ele>
        <time>2021-02-27T09:09:23Z</time>
      </trkpt>
      <trkpt lat="45.2053" lon="6.01355">
        <ele>2103.2</ele>
        <time>2021-02-27T09:09:24Z</time>
      </trkpt>
      <trkpt lat="45.2053" lon="6.01355">
        <ele>2103</ele>
        <time>2021-02-27T09:09:25Z</time>
      </trkpt>
      <trkpt lat="45.2053" lon="6.01355">
        <ele>2103</ele>
        <time>2021-02-27T09:09:26Z</time>
      </trkpt>
      <trkpt lat="45.2053" lon="6.01355">
        <ele>2102.6</ele>
        <time>2021-02-27T09:09:27Z</time>
      </trkpt>
      <trkpt lat="45.2053" lon="6.01355">
        <ele>2102.6</ele>
        <time>2021-02-27T09:09:28Z</time>
      </trkpt>
      <trkpt lat="45.2053" lon="6.01355">
        <ele>2102.6</ele>
        <time>2021-02-27T09:09:29Z</time>
      </trkpt>
      <trkpt lat="45.2053" lon="6.01355">
        <ele>2102.6</ele>
        <time>2021-02-27T09:09:30Z</time>
      </trkpt>
      <trkpt lat="45.2053" lon="6.01355">
        <ele>2102.8</ele>
        <time>2021-02-27T09:09:31Z</time>
      </trkpt>
      <trkpt lat="45.2053" lon="6.01355">
        <ele>2103.2</ele>
        <time>2021-02-27T09:09:32Z</time>
      </trkpt>
      <trkpt lat="45.2053" lon="6.01355">
        <ele>2103.6</ele>
        <time>2021-02-27T09:09:33Z</time>
      </trkpt>
      <trkpt lat="45.20532" lon="6.01358">
        <ele>2103.4</ele>
        <time>2021-02-27T09:09:34Z</time>
      </trkpt>
      <trkpt lat="45.20532" lon="6.01358">
        <ele>2103.8</ele>
        <time>2021-02-27T09:09:35Z</time>
      </trkpt>
      <trkpt lat="45.20532" lon="6.01358">
        <ele>2103.6</ele>
        <time>2021-02-27T09:09:36Z</time>
      </trkpt>
      <trkpt lat="45.20533" lon="6.01361">
        <ele>2103.6</ele>
        <time>2021-02-27T09:09:37Z</time>
      </trkpt>
      <trkpt lat="45.20533" lon="6.01361">
        <ele>2104</ele>
        <time>2021-02-27T09:09:38Z</time>
      </trkpt>
      <trkpt lat="45.20533" lon="6.01361">
        <ele>2104</ele>
        <time>2021-02-27T09:09:39Z</time>
      </trkpt>
      <trkpt lat="45.20533" lon="6.01361">
        <ele>2104.2</ele>
        <time>2021-02-27T09:09:40Z</time>
      </trkpt>
      <trkpt lat="45.20533" lon="6.01361">
        <ele>2104.4</ele>
        <time>2021-02-27T09:09:41Z</time>
      </trkpt>
      <trkpt lat="45.20533" lon="6.01361">
        <ele>2104.6</ele>
        <time>2021-02-27T09:09:42Z</time>
      </trkpt>
      <trkpt lat="45.20533" lon="6.01361">
        <ele>2104.8</ele>
        <time>2021-02-27T09:09:43Z</time>
      </trkpt>
      <trkpt lat="45.20533" lon="6.01361">
        <ele>2104.6</ele>
        <time>2021-02-27T09:09:44Z</time>
      </trkpt>
      <trkpt lat="45.20533" lon="6.01361">
        <ele>2105</ele>
        <time>2021-02-27T09:09:45Z</time>
      </trkpt>
      <trkpt lat="45.20533" lon="6.01361">
        <ele>2105</ele>
        <time>2021-02-27T09:09:46Z</time>
      </trkpt>
      <trkpt lat="45.20533" lon="6.01361">
        <ele>2105.2</ele>
        <time>2021-02-27T09:09:47Z</time>
      </trkpt>
      <trkpt lat="45.20533" lon="6.01361">
        <ele>2105.6</ele>
        <time>2021-02-27T09:09:48Z</time>
      </trkpt>
      <trkpt lat="45.20533" lon="6.01361">
        <ele>2105.6</ele>
        <time>2021-02-27T09:09:49Z</time>
      </trkpt>
      <trkpt lat="45.20533" lon="6.01361">
        <ele>2105.4</ele>
        <time>2021-02-27T09:09:50Z</time>
      </trkpt>
      <trkpt lat="45.20533" lon="6.01361">
        <ele>2105.4</ele>
        <time>2021-02-27T09:09:51Z</time>
      </trkpt>
      <trkpt lat="45.20533" lon="6.01361">
        <ele>2105.4</ele>
        <time>2021-02-27T09:09:52Z</time>
      </trkpt>
      <trkpt lat="45.20533" lon="6.01361">
        <ele>2105.8</ele>
        <time>2021-02-27T09:09:53Z</time>
      </trkpt>
      <trkpt lat="45.20535" lon="6.01362">
        <ele>2106</ele>
        <time>2021-02-27T09:09:54Z</time>
      </trkpt>
      <trkpt lat="45.20535" lon="6.01362">
        <ele>2106</ele>
        <time>2021-02-27T09:09:55Z</time>
      </trkpt>
      <trkpt lat="45.20535" lon="6.01362">
        <ele>2105.8</ele>
        <time>2021-02-27T09:09:56Z</time>
      </trkpt>
      <trkpt lat="45.20534" lon="6.01359">
        <ele>2106</ele>
        <time>2021-02-27T09:09:57Z</time>
      </trkpt>
      <trkpt lat="45.20534" lon="6.01359">
        <ele>2106</ele>
        <time>2021-02-27T09:09:58Z</time>
      </trkpt>
      <trkpt lat="45.20534" lon="6.01359">
        <ele>2106</ele>
        <time>2021-02-27T09:09:59Z</time>
      </trkpt>
      <trkpt lat="45.20534" lon="6.01359">
        <ele>2106.2</ele>
        <time>2021-02-27T09:10:00Z</time>
      </trkpt>
      <trkpt lat="45.20534" lon="6.01359">
        <ele>2106.4</ele>
        <time>2021-02-27T09:10:01Z</time>
      </trkpt>
      <trkpt lat="45.20534" lon="6.01356">
        <ele>2106.4</ele>
        <time>2021-02-27T09:10:02Z</time>
      </trkpt>
      <trkpt lat="45.20534" lon="6.01356">
        <ele>2106.4</ele>
        <time>2021-02-27T09:10:03Z</time>
      </trkpt>
      <trkpt lat="45.20534" lon="6.01356">
        <ele>2106.4</ele>
        <time>2021-02-27T09:10:04Z</time>
      </trkpt>
      <trkpt lat="45.20534" lon="6.01356">
        <ele>2106.4</ele>
        <time>2021-02-27T09:10:05Z</time>
      </trkpt>
      <trkpt lat="45.20534" lon="6.01356">
        <ele>2106.2</ele>
        <time>2021-02-27T09:10:06Z</time>
      </trkpt>
      <trkpt lat="45.20534" lon="6.01356">
        <ele>2106</ele>
        <time>2021-02-27T09:10:07Z</time>
      </trkpt>
      <trkpt lat="45.20534" lon="6.01356">
        <ele>2105.8</ele>
        <time>2021-02-27T09:10:08Z</time>
      </trkpt>
      <trkpt lat="45.20534" lon="6.01356">
        <ele>2105.8</ele>
        <time>2021-02-27T09:10:09Z</time>
      </trkpt>
      <trkpt lat="45.20534" lon="6.01356">
        <ele>2105.6</ele>
        <time>2021-02-27T09:10:10Z</time>
      </trkpt>
      <trkpt lat="45.20534" lon="6.01356">
        <ele>2105.8</ele>
        <time>2021-02-27T09:10:11Z</time>
      </trkpt>
      <trkpt lat="45.20533" lon="6.01353">
        <ele>2105.8</ele>
        <time>2021-02-27T09:10:12Z</time>
      </trkpt>
      <trkpt lat="45.20533" lon="6.01353">
        <ele>2105.8</ele>
        <time>2021-02-27T09:10:13Z</time>
      </trkpt>
      <trkpt lat="45.20533" lon="6.01353">
        <ele>2106</ele>
        <time>2021-02-27T09:10:14Z</time>
      </trkpt>
      <trkpt lat="45.20533" lon="6.01353">
        <ele>2105.6</ele>
        <time>2021-02-27T09:10:15Z</time>
      </trkpt>
      <trkpt lat="45.20533" lon="6.01353">
        <ele>2105.6</ele>
        <time>2021-02-27T09:10:16Z</time>
      </trkpt>
      <trkpt lat="45.20533" lon="6.01353">
        <ele>2105.4</ele>
        <time>2021-02-27T09:10:17Z</time>
      </trkpt>
      <trkpt lat="45.20533" lon="6.01353">
        <ele>2105</ele>
        <time>2021-02-27T09:10:18Z</time>
      </trkpt>
      <trkpt lat="45.20533" lon="6.01353">
        <ele>2104.8</ele>
        <time>2021-02-27T09:10:19Z</time>
      </trkpt>
      <trkpt lat="45.20533" lon="6.01353">
        <ele>2105</ele>
        <time>2021-02-27T09:10:20Z</time>
      </trkpt>
      <trkpt lat="45.20533" lon="6.01353">
        <ele>2104.8</ele>
        <time>2021-02-27T09:10:21Z</time>
      </trkpt>
      <trkpt lat="45.20533" lon="6.01353">
        <ele>2104.8</ele>
        <time>2021-02-27T09:10:22Z</time>
      </trkpt>
      <trkpt lat="45.20533" lon="6.01353">
        <ele>2104.8</ele>
        <time>2021-02-27T09:10:23Z</time>
      </trkpt>
      <trkpt lat="45.20533" lon="6.01353">
        <ele>2104.8</ele>
        <time>2021-02-27T09:10:24Z</time>
      </trkpt>
      <trkpt lat="45.20533" lon="6.01353">
        <ele>2105</ele>
        <time>2021-02-27T09:10:25Z</time>
      </trkpt>
      <trkpt lat="45.20535" lon="6.01351">
        <ele>2105</ele>
        <time>2021-02-27T09:10:26Z</time>
      </trkpt>
      <trkpt lat="45.20535" lon="6.01351">
        <ele>2105</ele>
        <time>2021-02-27T09:10:27Z</time>
      </trkpt>
      <trkpt lat="45.20535" lon="6.01351">
        <ele>2105.4</ele>
        <time>2021-02-27T09:10:28Z</time>
      </trkpt>
      <trkpt lat="45.20535" lon="6.01351">
        <ele>2105.4</ele>
        <time>2021-02-27T09:10:29Z</time>
      </trkpt>
      <trkpt lat="45.20535" lon="6.01351">
        <ele>2105.4</ele>
        <time>2021-02-27T09:10:30Z</time>
      </trkpt>
      <trkpt lat="45.20535" lon="6.01351">
        <ele>2105.4</ele>
        <time>2021-02-27T09:10:31Z</time>
      </trkpt>
      <trkpt lat="45.20535" lon="6.01351">
        <ele>2105.2</ele>
        <time>2021-02-27T09:10:32Z</time>
      </trkpt>
      <trkpt lat="45.20535" lon="6.01351">
        <ele>2105.2</ele>
        <time>2021-02-27T09:10:33Z</time>
      </trkpt>
      <trkpt lat="45.20535" lon="6.01351">
        <ele>2105</ele>
        <time>2021-02-27T09:10:34Z</time>
      </trkpt>
      <trkpt lat="45.20535" lon="6.01351">
        <ele>2105</ele>
        <time>2021-02-27T09:10:35Z</time>
      </trkpt>
      <trkpt lat="45.20535" lon="6.01351">
        <ele>2105.2</ele>
        <time>2021-02-27T09:10:36Z</time>
      </trkpt>
      <trkpt lat="45.20535" lon="6.01351">
        <ele>2105</ele>
        <time>2021-02-27T09:10:37Z</time>
      </trkpt>
      <trkpt lat="45.20535" lon="6.01351">
        <ele>2105</ele>
        <time>2021-02-27T09:10:38Z</time>
      </trkpt>
      <trkpt lat="45.20535" lon="6.01351">
        <ele>2105</ele>
        <time>2021-02-27T09:10:39Z</time>
      </trkpt>
      <trkpt lat="45.20535" lon="6.01351">
        <ele>2105</ele>
        <time>2021-02-27T09:10:40Z</time>
      </trkpt>
      <trkpt lat="45.20535" lon="6.01351">
        <ele>2105</ele>
        <time>2021-02-27T09:10:41Z</time>
      </trkpt>
      <trkpt lat="45.20535" lon="6.01351">
        <ele>2105</ele>
        <time>2021-02-27T09:10:42Z</time>
      </trkpt>
      <trkpt lat="45.20535" lon="6.01351">
        <ele>2105.2</ele>
        <time>2021-02-27T09:10:43Z</time>
      </trkpt>
      <trkpt lat="45.20535" lon="6.01351">
        <ele>2105.2</ele>
        <time>2021-02-27T09:10:44Z</time>
      </trkpt>
      <trkpt lat="45.20535" lon="6.01351">
        <ele>2105.2</ele>
        <time>2021-02-27T09:10:45Z</time>
      </trkpt>
      <trkpt lat="45.20535" lon="6.01351">
        <ele>2105.4</ele>
        <time>2021-02-27T09:10:46Z</time>
      </trkpt>
      <trkpt lat="45.20536" lon="6.01348">
        <ele>2105.6</ele>
        <time>2021-02-27T09:10:47Z</time>
      </trkpt>
      <trkpt lat="45.20536" lon="6.01348">
        <ele>2105.4</ele>
        <time>2021-02-27T09:10:48Z</time>
      </trkpt>
      <trkpt lat="45.20536" lon="6.01348">
        <ele>2105</ele>
        <time>2021-02-27T09:10:49Z</time>
      </trkpt>
      <trkpt lat="45.20536" lon="6.01348">
        <ele>2104.8</ele>
        <time>2021-02-27T09:10:50Z</time>
      </trkpt>
      <trkpt lat="45.20536" lon="6.01348">
        <ele>2105</ele>
        <time>2021-02-27T09:10:51Z</time>
      </trkpt>
      <trkpt lat="45.20536" lon="6.01348">
        <ele>2105.2</ele>
        <time>2021-02-27T09:10:52Z</time>
      </trkpt>
      <trkpt lat="45.20536" lon="6.01348">
        <ele>2105.4</ele>
        <time>2021-02-27T09:10:53Z</time>
      </trkpt>
      <trkpt lat="45.20536" lon="6.01348">
        <ele>2105.2</ele>
        <time>2021-02-27T09:10:54Z</time>
      </trkpt>
      <trkpt lat="45.20536" lon="6.01348">
        <ele>2105.2</ele>
        <time>2021-02-27T09:10:55Z</time>
      </trkpt>
      <trkpt lat="45.20536" lon="6.01348">
        <ele>2105</ele>
        <time>2021-02-27T09:10:56Z</time>
      </trkpt>
      <trkpt lat="45.20536" lon="6.01348">
        <ele>2105.4</ele>
        <time>2021-02-27T09:10:57Z</time>
      </trkpt>
      <trkpt lat="45.20536" lon="6.01348">
        <ele>2105.4</ele>
        <time>2021-02-27T09:10:58Z</time>
      </trkpt>
      <trkpt lat="45.20536" lon="6.01348">
        <ele>2105.4</ele>
        <time>2021-02-27T09:10:59Z</time>
      </trkpt>
      <trkpt lat="45.20536" lon="6.01348">
        <ele>2105.4</ele>
        <time>2021-02-27T09:11:00Z</time>
      </trkpt>
      <trkpt lat="45.20536" lon="6.01348">
        <ele>2105.4</ele>
        <time>2021-02-27T09:11:01Z</time>
      </trkpt>
      <trkpt lat="45.20536" lon="6.01348">
        <ele>2105.4</ele>
        <time>2021-02-27T09:11:02Z</time>
      </trkpt>
      <trkpt lat="45.20538" lon="6.01348">
        <ele>2105.2</ele>
        <time>2021-02-27T09:11:03Z</time>
      </trkpt>
      <trkpt lat="45.20538" lon="6.01348">
        <ele>2105.2</ele>
        <time>2021-02-27T09:11:04Z</time>
      </trkpt>
      <trkpt lat="45.20539" lon="6.0135">
        <ele>2104.6</ele>
        <time>2021-02-27T09:11:05Z</time>
      </trkpt>
      <trkpt lat="45.20539" lon="6.0135">
        <ele>2103.8</ele>
        <time>2021-02-27T09:11:06Z</time>
      </trkpt>
      <trkpt lat="45.20543" lon="6.01351">
        <ele>2102.8</ele>
        <time>2021-02-27T09:11:07Z</time>
      </trkpt>
      <trkpt lat="45.20543" lon="6.01351">
        <ele>2101.6</ele>
        <time>2021-02-27T09:11:08Z</time>
      </trkpt>
      <trkpt lat="45.20548" lon="6.01355">
        <ele>2100.8</ele>
        <time>2021-02-27T09:11:09Z</time>
      </trkpt>
      <trkpt lat="45.20554" lon="6.01358">
        <ele>2099.4</ele>
        <time>2021-02-27T09:11:10Z</time>
      </trkpt>
      <trkpt lat="45.20559" lon="6.01361">
        <ele>2098.4</ele>
        <time>2021-02-27T09:11:11Z</time>
      </trkpt>
      <trkpt lat="45.2057" lon="6.01367">
        <ele>2097</ele>
        <time>2021-02-27T09:11:12Z</time>
      </trkpt>
      <trkpt lat="45.20574" lon="6.01369">
        <ele>2095.4</ele>
        <time>2021-02-27T09:11:13Z</time>
      </trkpt>
      <trkpt lat="45.20584" lon="6.01376">
        <ele>2094.2</ele>
        <time>2021-02-27T09:11:14Z</time>
      </trkpt>
      <trkpt lat="45.20587" lon="6.01377">
        <ele>2092.8</ele>
        <time>2021-02-27T09:11:15Z</time>
      </trkpt>
      <trkpt lat="45.20591" lon="6.01381">
        <ele>2091.6</ele>
        <time>2021-02-27T09:11:16Z</time>
      </trkpt>
      <trkpt lat="45.20607" lon="6.01397">
        <ele>2090.4</ele>
        <time>2021-02-27T09:11:17Z</time>
      </trkpt>
      <trkpt lat="45.2061" lon="6.014">
        <ele>2089</ele>
        <time>2021-02-27T09:11:18Z</time>
      </trkpt>
      <trkpt lat="45.20617" lon="6.01408">
        <ele>2088.4</ele>
        <time>2021-02-27T09:11:19Z</time>
      </trkpt>
      <trkpt lat="45.20619" lon="6.0141">
        <ele>2087.6</ele>
        <time>2021-02-27T09:11:20Z</time>
      </trkpt>
      <trkpt lat="45.20623" lon="6.01416">
        <ele>2087</ele>
        <time>2021-02-27T09:11:21Z</time>
      </trkpt>
      <trkpt lat="45.20628" lon="6.01421">
        <ele>2086.8</ele>
        <time>2021-02-27T09:11:22Z</time>
      </trkpt>
      <trkpt lat="45.20633" lon="6.01426">
        <ele>2086</ele>
        <time>2021-02-27T09:11:23Z</time>
      </trkpt>
      <trkpt lat="45.20633" lon="6.01426">
        <ele>2085.6</ele>
        <time>2021-02-27T09:11:24Z</time>
      </trkpt>
      <trkpt lat="45.20646" lon="6.01438">
        <ele>2084.8</ele>
        <time>2021-02-27T09:11:25Z</time>
      </trkpt>
      <trkpt lat="45.20648" lon="6.0144">
        <ele>2084.2</ele>
        <time>2021-02-27T09:11:26Z</time>
      </trkpt>
      <trkpt lat="45.20652" lon="6.01444">
        <ele>2083.6</ele>
        <time>2021-02-27T09:11:27Z</time>
      </trkpt>
      <trkpt lat="45.20656" lon="6.01448">
        <ele>2083.2</ele>
        <time>2021-02-27T09:11:28Z</time>
      </trkpt>
      <trkpt lat="45.20659" lon="6.01451">
        <ele>2082.6</ele>
        <time>2021-02-27T09:11:29Z</time>
      </trkpt>
      <trkpt lat="45.20663" lon="6.01455">
        <ele>2082.2</ele>
        <time>2021-02-27T09:11:30Z</time>
      </trkpt>
      <trkpt lat="45.20667" lon="6.01458">
        <ele>2081.6</ele>
        <time>2021-02-27T09:11:31Z</time>
      </trkpt>
      <trkpt lat="45.20672" lon="6.01462">
        <ele>2081.2</ele>
        <time>2021-02-27T09:11:32Z</time>
      </trkpt>
      <trkpt lat="45.20677" lon="6.01466">
        <ele>2080.8</ele>
        <time>2021-02-27T09:11:33Z</time>
      </trkpt>
      <trkpt lat="45.20682" lon="6.0147">
        <ele>2080.2</ele>
        <time>2021-02-27T09:11:34Z</time>
      </trkpt>
      <trkpt lat="45.20688" lon="6.01473">
        <ele>2079.6</ele>
        <time>2021-02-27T09:11:35Z</time>
      </trkpt>
      <trkpt lat="45.20693" lon="6.01475">
        <ele>2078.8</ele>
        <time>2021-02-27T09:11:36Z</time>
      </trkpt>
      <trkpt lat="45.20699" lon="6.01473">
        <ele>2078</ele>
        <time>2021-02-27T09:11:37Z</time>
      </trkpt>
      <trkpt lat="45.20704" lon="6.01471">
        <ele>2078.2</ele>
        <time>2021-02-27T09:11:38Z</time>
      </trkpt>
      <trkpt lat="45.20708" lon="6.01468">
        <ele>2077.8</ele>
        <time>2021-02-27T09:11:39Z</time>
      </trkpt>
      <trkpt lat="45.20711" lon="6.01468">
        <ele>2078.2</ele>
        <time>2021-02-27T09:11:40Z</time>
      </trkpt>
      <trkpt lat="45.20711" lon="6.01468">
        <ele>2077.8</ele>
        <time>2021-02-27T09:11:41Z</time>
      </trkpt>
      <trkpt lat="45.20711" lon="6.01468">
        <ele>2078.2</ele>
        <time>2021-02-27T09:11:42Z</time>
      </trkpt>
      <trkpt lat="45.20711" lon="6.01468">
        <ele>2078.2</ele>
        <time>2021-02-27T09:11:43Z</time>
      </trkpt>
      <trkpt lat="45.20711" lon="6.01468">
        <ele>2078.2</ele>
        <time>2021-02-27T09:11:44Z</time>
      </trkpt>
      <trkpt lat="45.20711" lon="6.01468">
        <ele>2078</ele>
        <time>2021-02-27T09:11:45Z</time>
      </trkpt>
      <trkpt lat="45.20711" lon="6.01468">
        <ele>2077.8</ele>
        <time>2021-02-27T09:11:46Z</time>
      </trkpt>
      <trkpt lat="45.20711" lon="6.01468">
        <ele>2078</ele>
        <time>2021-02-27T09:11:47Z</time>
      </trkpt>
      <trkpt lat="45.20711" lon="6.01468">
        <ele>2077.8</ele>
        <time>2021-02-27T09:11:48Z</time>
      </trkpt>
      <trkpt lat="45.20711" lon="6.01468">
        <ele>2077.6</ele>
        <time>2021-02-27T09:11:49Z</time>
      </trkpt>
      <trkpt lat="45.20711" lon="6.01468">
        <ele>2077.2</ele>
        <time>2021-02-27T09:11:50Z</time>
      </trkpt>
      <trkpt lat="45.20711" lon="6.01468">
        <ele>2077.4</ele>
        <time>2021-02-27T09:11:51Z</time>
      </trkpt>
      <trkpt lat="45.20711" lon="6.01468">
        <ele>2077.8</ele>
        <time>2021-02-27T09:11:52Z</time>
      </trkpt>
      <trkpt lat="45.20711" lon="6.01468">
        <ele>2078</ele>
        <time>2021-02-27T09:11:53Z</time>
      </trkpt>
      <trkpt lat="45.20711" lon="6.01468">
        <ele>2078.2</ele>
        <time>2021-02-27T09:11:54Z</time>
      </trkpt>
      <trkpt lat="45.20711" lon="6.01468">
        <ele>2078.4</ele>
        <time>2021-02-27T09:11:55Z</time>
      </trkpt>
      <trkpt lat="45.20711" lon="6.01468">
        <ele>2078.4</ele>
        <time>2021-02-27T09:11:56Z</time>
      </trkpt>
      <trkpt lat="45.20711" lon="6.01468">
        <ele>2078.4</ele>
        <time>2021-02-27T09:11:57Z</time>
      </trkpt>
      <trkpt lat="45.20713" lon="6.01468">
        <ele>2078.2</ele>
        <time>2021-02-27T09:11:58Z</time>
      </trkpt>
      <trkpt lat="45.20713" lon="6.01468">
        <ele>2078.4</ele>
        <time>2021-02-27T09:11:59Z</time>
      </trkpt>
      <trkpt lat="45.20713" lon="6.01468">
        <ele>2078.4</ele>
        <time>2021-02-27T09:12:00Z</time>
      </trkpt>
      <trkpt lat="45.20713" lon="6.01468">
        <ele>2078.6</ele>
        <time>2021-02-27T09:12:01Z</time>
      </trkpt>
      <trkpt lat="45.20713" lon="6.01468">
        <ele>2078.4</ele>
        <time>2021-02-27T09:12:02Z</time>
      </trkpt>
      <trkpt lat="45.20713" lon="6.01468">
        <ele>2078.4</ele>
        <time>2021-02-27T09:12:03Z</time>
      </trkpt>
      <trkpt lat="45.20713" lon="6.01468">
        <ele>2078.2</ele>
        <time>2021-02-27T09:12:04Z</time>
      </trkpt>
      <trkpt lat="45.20713" lon="6.01468">
        <ele>2077.4</ele>
        <time>2021-02-27T09:12:05Z</time>
      </trkpt>
      <trkpt lat="45.20713" lon="6.01468">
        <ele>2077.4</ele>
        <time>2021-02-27T09:12:06Z</time>
      </trkpt>
      <trkpt lat="45.20713" lon="6.01468">
        <ele>2077.4</ele>
        <time>2021-02-27T09:12:07Z</time>
      </trkpt>
      <trkpt lat="45.20713" lon="6.01468">
        <ele>2077</ele>
        <time>2021-02-27T09:12:08Z</time>
      </trkpt>
      <trkpt lat="45.20713" lon="6.01468">
        <ele>2076.8</ele>
        <time>2021-02-27T09:12:09Z</time>
      </trkpt>
      <trkpt lat="45.20713" lon="6.01468">
        <ele>2076.6</ele>
        <time>2021-02-27T09:12:10Z</time>
      </trkpt>
      <trkpt lat="45.20713" lon="6.01468">
        <ele>2076.4</ele>
        <time>2021-02-27T09:12:11Z</time>
      </trkpt>
      <trkpt lat="45.20713" lon="6.01468">
        <ele>2076.2</ele>
        <time>2021-02-27T09:12:12Z</time>
      </trkpt>
      <trkpt lat="45.20713" lon="6.01468">
        <ele>2076.4</ele>
        <time>2021-02-27T09:12:13Z</time>
      </trkpt>
      <trkpt lat="45.20713" lon="6.01468">
        <ele>2076.2</ele>
        <time>2021-02-27T09:12:14Z</time>
      </trkpt>
      <trkpt lat="45.20713" lon="6.01468">
        <ele>2075.8</ele>
        <time>2021-02-27T09:12:15Z</time>
      </trkpt>
      <trkpt lat="45.20713" lon="6.01468">
        <ele>2075.6</ele>
        <time>2021-02-27T09:12:16Z</time>
      </trkpt>
      <trkpt lat="45.20713" lon="6.01468">
        <ele>2075.6</ele>
        <time>2021-02-27T09:12:17Z</time>
      </trkpt>
      <trkpt lat="45.20713" lon="6.01468">
        <ele>2075.4</ele>
        <time>2021-02-27T09:12:18Z</time>
      </trkpt>
      <trkpt lat="45.20713" lon="6.01468">
        <ele>2075.2</ele>
        <time>2021-02-27T09:12:19Z</time>
      </trkpt>
      <trkpt lat="45.20713" lon="6.01468">
        <ele>2075.2</ele>
        <time>2021-02-27T09:12:20Z</time>
      </trkpt>
      <trkpt lat="45.20713" lon="6.01468">
        <ele>2075</ele>
        <time>2021-02-27T09:12:21Z</time>
      </trkpt>
      <trkpt lat="45.20713" lon="6.01468">
        <ele>2075.4</ele>
        <time>2021-02-27T09:12:22Z</time>
      </trkpt>
      <trkpt lat="45.20713" lon="6.01468">
        <ele>2075</ele>
        <time>2021-02-27T09:12:23Z</time>
      </trkpt>
      <trkpt lat="45.20713" lon="6.01468">
        <ele>2075.4</ele>
        <time>2021-02-27T09:12:24Z</time>
      </trkpt>
      <trkpt lat="45.20713" lon="6.01468">
        <ele>2075.6</ele>
        <time>2021-02-27T09:12:25Z</time>
      </trkpt>
      <trkpt lat="45.20713" lon="6.01468">
        <ele>2075.8</ele>
        <time>2021-02-27T09:12:26Z</time>
      </trkpt>
      <trkpt lat="45.20713" lon="6.01468">
        <ele>2075.8</ele>
        <time>2021-02-27T09:12:27Z</time>
      </trkpt>
      <trkpt lat="45.20713" lon="6.01468">
        <ele>2076.2</ele>
        <time>2021-02-27T09:12:28Z</time>
      </trkpt>
      <trkpt lat="45.20713" lon="6.01468">
        <ele>2076.4</ele>
        <time>2021-02-27T09:12:29Z</time>
      </trkpt>
      <trkpt lat="45.20713" lon="6.01468">
        <ele>2076.4</ele>
        <time>2021-02-27T09:12:30Z</time>
      </trkpt>
      <trkpt lat="45.20713" lon="6.01468">
        <ele>2076.6</ele>
        <time>2021-02-27T09:12:31Z</time>
      </trkpt>
      <trkpt lat="45.20713" lon="6.01468">
        <ele>2076.6</ele>
        <time>2021-02-27T09:12:32Z</time>
      </trkpt>
      <trkpt lat="45.20713" lon="6.01468">
        <ele>2076.6</ele>
        <time>2021-02-27T09:12:33Z</time>
      </trkpt>
      <trkpt lat="45.20713" lon="6.01468">
        <ele>2076</ele>
        <time>2021-02-27T09:12:34Z</time>
      </trkpt>
      <trkpt lat="45.20713" lon="6.01468">
        <ele>2076</ele>
        <time>2021-02-27T09:12:35Z</time>
      </trkpt>
      <trkpt lat="45.20713" lon="6.01468">
        <ele>2075.8</ele>
        <time>2021-02-27T09:12:36Z</time>
      </trkpt>
      <trkpt lat="45.20713" lon="6.01468">
        <ele>2075.6</ele>
        <time>2021-02-27T09:12:37Z</time>
      </trkpt>
      <trkpt lat="45.20713" lon="6.01468">
        <ele>2075.4</ele>
        <time>2021-02-27T09:12:38Z</time>
      </trkpt>
      <trkpt lat="45.20713" lon="6.01468">
        <ele>2075.2</ele>
        <time>2021-02-27T09:12:39Z</time>
      </trkpt>
      <trkpt lat="45.20713" lon="6.01468">
        <ele>2075</ele>
        <time>2021-02-27T09:12:40Z</time>
      </trkpt>
      <trkpt lat="45.20713" lon="6.01468">
        <ele>2074.8</ele>
        <time>2021-02-27T09:12:41Z</time>
      </trkpt>
      <trkpt lat="45.20713" lon="6.01468">
        <ele>2074.8</ele>
        <time>2021-02-27T09:12:42Z</time>
      </trkpt>
      <trkpt lat="45.20713" lon="6.01468">
        <ele>2074.6</ele>
        <time>2021-02-27T09:12:43Z</time>
      </trkpt>
      <trkpt lat="45.20713" lon="6.01468">
        <ele>2074.2</ele>
        <time>2021-02-27T09:12:44Z</time>
      </trkpt>
      <trkpt lat="45.20713" lon="6.01468">
        <ele>2074</ele>
        <time>2021-02-27T09:12:45Z</time>
      </trkpt>
      <trkpt lat="45.20713" lon="6.01468">
        <ele>2073.8</ele>
        <time>2021-02-27T09:12:46Z</time>
      </trkpt>
      <trkpt lat="45.20713" lon="6.01468">
        <ele>2073.8</ele>
        <time>2021-02-27T09:12:47Z</time>
      </trkpt>
      <trkpt lat="45.20713" lon="6.01468">
        <ele>2073.8</ele>
        <time>2021-02-27T09:12:48Z</time>
      </trkpt>
      <trkpt lat="45.20713" lon="6.01468">
        <ele>2074.2</ele>
        <time>2021-02-27T09:12:49Z</time>
      </trkpt>
      <trkpt lat="45.20713" lon="6.01468">
        <ele>2074.4</ele>
        <time>2021-02-27T09:12:50Z</time>
      </trkpt>
      <trkpt lat="45.20713" lon="6.01468">
        <ele>2074.6</ele>
        <time>2021-02-27T09:12:51Z</time>
      </trkpt>
      <trkpt lat="45.20713" lon="6.01468">
        <ele>2074.8</ele>
        <time>2021-02-27T09:12:52Z</time>
      </trkpt>
      <trkpt lat="45.20713" lon="6.01468">
        <ele>2074.8</ele>
        <time>2021-02-27T09:12:53Z</time>
      </trkpt>
      <trkpt lat="45.20713" lon="6.01468">
        <ele>2075</ele>
        <time>2021-02-27T09:12:54Z</time>
      </trkpt>
      <trkpt lat="45.20713" lon="6.01468">
        <ele>2074.6</ele>
        <time>2021-02-27T09:12:55Z</time>
      </trkpt>
      <trkpt lat="45.20713" lon="6.01468">
        <ele>2074.6</ele>
        <time>2021-02-27T09:12:56Z</time>
      </trkpt>
      <trkpt lat="45.20713" lon="6.01468">
        <ele>2074.6</ele>
        <time>2021-02-27T09:12:57Z</time>
      </trkpt>
      <trkpt lat="45.20713" lon="6.01468">
        <ele>2074.8</ele>
        <time>2021-02-27T09:12:58Z</time>
      </trkpt>
      <trkpt lat="45.20713" lon="6.01468">
        <ele>2074.4</ele>
        <time>2021-02-27T09:12:59Z</time>
      </trkpt>
      <trkpt lat="45.20713" lon="6.01468">
        <ele>2074.4</ele>
        <time>2021-02-27T09:13:00Z</time>
      </trkpt>
      <trkpt lat="45.20713" lon="6.01468">
        <ele>2074.2</ele>
        <time>2021-02-27T09:13:01Z</time>
      </trkpt>
      <trkpt lat="45.20713" lon="6.01468">
        <ele>2074.2</ele>
        <time>2021-02-27T09:13:02Z</time>
      </trkpt>
      <trkpt lat="45.20713" lon="6.01468">
        <ele>2074.4</ele>
        <time>2021-02-27T09:13:03Z</time>
      </trkpt>
      <trkpt lat="45.20713" lon="6.01468">
        <ele>2074.2</ele>
        <time>2021-02-27T09:13:04Z</time>
      </trkpt>
      <trkpt lat="45.20713" lon="6.01468">
        <ele>2074.4</ele>
        <time>2021-02-27T09:13:05Z</time>
      </trkpt>
      <trkpt lat="45.20713" lon="6.01468">
        <ele>2074.6</ele>
        <time>2021-02-27T09:13:06Z</time>
      </trkpt>
      <trkpt lat="45.20713" lon="6.01468">
        <ele>2074.6</ele>
        <time>2021-02-27T09:13:07Z</time>
      </trkpt>
      <trkpt lat="45.20713" lon="6.01468">
        <ele>2074.4</ele>
        <time>2021-02-27T09:13:08Z</time>
      </trkpt>
      <trkpt lat="45.20713" lon="6.01468">
        <ele>2074.4</ele>
        <time>2021-02-27T09:13:09Z</time>
      </trkpt>
      <trkpt lat="45.20714" lon="6.01467">
        <ele>2074.4</ele>
        <time>2021-02-27T09:13:10Z</time>
      </trkpt>
      <trkpt lat="45.20714" lon="6.01467">
        <ele>2074.2</ele>
        <time>2021-02-27T09:13:11Z</time>
      </trkpt>
      <trkpt lat="45.20714" lon="6.01467">
        <ele>2073.6</ele>
        <time>2021-02-27T09:13:12Z</time>
      </trkpt>
      <trkpt lat="45.20714" lon="6.01467">
        <ele>2073.8</ele>
        <time>2021-02-27T09:13:13Z</time>
      </trkpt>
      <trkpt lat="45.20714" lon="6.01467">
        <ele>2073.8</ele>
        <time>2021-02-27T09:13:14Z</time>
      </trkpt>
      <trkpt lat="45.20714" lon="6.01467">
        <ele>2073.8</ele>
        <time>2021-02-27T09:13:15Z</time>
      </trkpt>
      <trkpt lat="45.20714" lon="6.01467">
        <ele>2074</ele>
        <time>2021-02-27T09:13:16Z</time>
      </trkpt>
      <trkpt lat="45.20714" lon="6.01467">
        <ele>2074.2</ele>
        <time>2021-02-27T09:13:17Z</time>
      </trkpt>
      <trkpt lat="45.20714" lon="6.01467">
        <ele>2074.4</ele>
        <time>2021-02-27T09:13:18Z</time>
      </trkpt>
      <trkpt lat="45.20714" lon="6.01467">
        <ele>2074.4</ele>
        <time>2021-02-27T09:13:19Z</time>
      </trkpt>
      <trkpt lat="45.20714" lon="6.01467">
        <ele>2074.4</ele>
        <time>2021-02-27T09:13:20Z</time>
      </trkpt>
      <trkpt lat="45.20714" lon="6.01467">
        <ele>2074.4</ele>
        <time>2021-02-27T09:13:21Z</time>
      </trkpt>
      <trkpt lat="45.20714" lon="6.01467">
        <ele>2074.2</ele>
        <time>2021-02-27T09:13:22Z</time>
      </trkpt>
      <trkpt lat="45.20714" lon="6.01467">
        <ele>2074.2</ele>
        <time>2021-02-27T09:13:23Z</time>
      </trkpt>
      <trkpt lat="45.20714" lon="6.01467">
        <ele>2074</ele>
        <time>2021-02-27T09:13:24Z</time>
      </trkpt>
      <trkpt lat="45.20714" lon="6.01467">
        <ele>2073.8</ele>
        <time>2021-02-27T09:13:25Z</time>
      </trkpt>
      <trkpt lat="45.20714" lon="6.01467">
        <ele>2073.6</ele>
        <time>2021-02-27T09:13:26Z</time>
      </trkpt>
      <trkpt lat="45.20714" lon="6.01467">
        <ele>2073</ele>
        <time>2021-02-27T09:13:27Z</time>
      </trkpt>
      <trkpt lat="45.20714" lon="6.01467">
        <ele>2073</ele>
        <time>2021-02-27T09:13:28Z</time>
      </trkpt>
      <trkpt lat="45.20714" lon="6.01467">
        <ele>2073</ele>
        <time>2021-02-27T09:13:29Z</time>
      </trkpt>
      <trkpt lat="45.20714" lon="6.01467">
        <ele>2073</ele>
        <time>2021-02-27T09:13:30Z</time>
      </trkpt>
      <trkpt lat="45.20714" lon="6.01467">
        <ele>2072.6</ele>
        <time>2021-02-27T09:13:31Z</time>
      </trkpt>
      <trkpt lat="45.20714" lon="6.01467">
        <ele>2072.6</ele>
        <time>2021-02-27T09:13:32Z</time>
      </trkpt>
      <trkpt lat="45.20714" lon="6.01467">
        <ele>2072.6</ele>
        <time>2021-02-27T09:13:33Z</time>
      </trkpt>
      <trkpt lat="45.20714" lon="6.01467">
        <ele>2072.4</ele>
        <time>2021-02-27T09:13:34Z</time>
      </trkpt>
      <trkpt lat="45.20714" lon="6.01467">
        <ele>2072.6</ele>
        <time>2021-02-27T09:13:35Z</time>
      </trkpt>
      <trkpt lat="45.20714" lon="6.01467">
        <ele>2072.6</ele>
        <time>2021-02-27T09:13:36Z</time>
      </trkpt>
      <trkpt lat="45.20714" lon="6.01467">
        <ele>2072.6</ele>
        <time>2021-02-27T09:13:37Z</time>
      </trkpt>
      <trkpt lat="45.20714" lon="6.01467">
        <ele>2072.6</ele>
        <time>2021-02-27T09:13:38Z</time>
      </trkpt>
      <trkpt lat="45.20714" lon="6.01467">
        <ele>2072.4</ele>
        <time>2021-02-27T09:13:39Z</time>
      </trkpt>
      <trkpt lat="45.20714" lon="6.01467">
        <ele>2072.6</ele>
        <time>2021-02-27T09:13:40Z</time>
      </trkpt>
      <trkpt lat="45.20714" lon="6.01467">
        <ele>2072.6</ele>
        <time>2021-02-27T09:13:41Z</time>
      </trkpt>
      <trkpt lat="45.20714" lon="6.01467">
        <ele>2072.6</ele>
        <time>2021-02-27T09:13:42Z</time>
      </trkpt>
      <trkpt lat="45.20714" lon="6.01467">
        <ele>2072.6</ele>
        <time>2021-02-27T09:13:43Z</time>
      </trkpt>
      <trkpt lat="45.20714" lon="6.01467">
        <ele>2072.6</ele>
        <time>2021-02-27T09:13:44Z</time>
      </trkpt>
      <trkpt lat="45.20714" lon="6.01467">
        <ele>2072.8</ele>
        <time>2021-02-27T09:13:45Z</time>
      </trkpt>
      <trkpt lat="45.20714" lon="6.01467">
        <ele>2072.8</ele>
        <time>2021-02-27T09:13:46Z</time>
      </trkpt>
      <trkpt lat="45.20714" lon="6.01467">
        <ele>2072.6</ele>
        <time>2021-02-27T09:13:47Z</time>
      </trkpt>
      <trkpt lat="45.20714" lon="6.01467">
        <ele>2072.6</ele>
        <time>2021-02-27T09:13:48Z</time>
      </trkpt>
      <trkpt lat="45.20714" lon="6.01467">
        <ele>2072.4</ele>
        <time>2021-02-27T09:13:49Z</time>
      </trkpt>
      <trkpt lat="45.20714" lon="6.01467">
        <ele>2072.8</ele>
        <time>2021-02-27T09:13:50Z</time>
      </trkpt>
      <trkpt lat="45.20714" lon="6.01467">
        <ele>2072.8</ele>
        <time>2021-02-27T09:13:51Z</time>
      </trkpt>
      <trkpt lat="45.20714" lon="6.01467">
        <ele>2072.6</ele>
        <time>2021-02-27T09:13:52Z</time>
      </trkpt>
      <trkpt lat="45.20714" lon="6.01467">
        <ele>2072.6</ele>
        <time>2021-02-27T09:13:53Z</time>
      </trkpt>
      <trkpt lat="45.20714" lon="6.01467">
        <ele>2072.4</ele>
        <time>2021-02-27T09:13:54Z</time>
      </trkpt>
      <trkpt lat="45.20714" lon="6.01467">
        <ele>2072.6</ele>
        <time>2021-02-27T09:13:55Z</time>
      </trkpt>
      <trkpt lat="45.20714" lon="6.01467">
        <ele>2072.6</ele>
        <time>2021-02-27T09:13:56Z</time>
      </trkpt>
      <trkpt lat="45.20714" lon="6.01467">
        <ele>2072.6</ele>
        <time>2021-02-27T09:13:57Z</time>
      </trkpt>
      <trkpt lat="45.20714" lon="6.01467">
        <ele>2072.4</ele>
        <time>2021-02-27T09:13:58Z</time>
      </trkpt>
      <trkpt lat="45.20714" lon="6.01467">
        <ele>2072.6</ele>
        <time>2021-02-27T09:13:59Z</time>
      </trkpt>
      <trkpt lat="45.20714" lon="6.01467">
        <ele>2072.8</ele>
        <time>2021-02-27T09:14:00Z</time>
      </trkpt>
      <trkpt lat="45.20714" lon="6.01467">
        <ele>2072.6</ele>
        <time>2021-02-27T09:14:01Z</time>
      </trkpt>
      <trkpt lat="45.20714" lon="6.01467">
        <ele>2072.6</ele>
        <time>2021-02-27T09:14:02Z</time>
      </trkpt>
      <trkpt lat="45.20714" lon="6.01467">
        <ele>2072.8</ele>
        <time>2021-02-27T09:14:03Z</time>
      </trkpt>
      <trkpt lat="45.20714" lon="6.01467">
        <ele>2072.6</ele>
        <time>2021-02-27T09:14:04Z</time>
      </trkpt>
      <trkpt lat="45.20714" lon="6.01467">
        <ele>2072.8</ele>
        <time>2021-02-27T09:14:05Z</time>
      </trkpt>
      <trkpt lat="45.20714" lon="6.01467">
        <ele>2072.8</ele>
        <time>2021-02-27T09:14:06Z</time>
      </trkpt>
      <trkpt lat="45.20714" lon="6.01467">
        <ele>2073</ele>
        <time>2021-02-27T09:14:07Z</time>
      </trkpt>
      <trkpt lat="45.20714" lon="6.01467">
        <ele>2073.2</ele>
        <time>2021-02-27T09:14:08Z</time>
      </trkpt>
      <trkpt lat="45.20714" lon="6.01467">
        <ele>2073.2</ele>
        <time>2021-02-27T09:14:09Z</time>
      </trkpt>
      <trkpt lat="45.20714" lon="6.01467">
        <ele>2073.6</ele>
        <time>2021-02-27T09:14:10Z</time>
      </trkpt>
      <trkpt lat="45.20714" lon="6.01467">
        <ele>2073.6</ele>
        <time>2021-02-27T09:14:11Z</time>
      </trkpt>
      <trkpt lat="45.20714" lon="6.01467">
        <ele>2073.2</ele>
        <time>2021-02-27T09:14:12Z</time>
      </trkpt>
      <trkpt lat="45.20714" lon="6.01467">
        <ele>2072.8</ele>
        <time>2021-02-27T09:14:13Z</time>
      </trkpt>
      <trkpt lat="45.20714" lon="6.01467">
        <ele>2072.8</ele>
        <time>2021-02-27T09:14:14Z</time>
      </trkpt>
      <trkpt lat="45.20714" lon="6.01467">
        <ele>2072.6</ele>
        <time>2021-02-27T09:14:15Z</time>
      </trkpt>
      <trkpt lat="45.20714" lon="6.01467">
        <ele>2073</ele>
        <time>2021-02-27T09:14:16Z</time>
      </trkpt>
      <trkpt lat="45.20714" lon="6.01467">
        <ele>2072.8</ele>
        <time>2021-02-27T09:14:17Z</time>
      </trkpt>
      <trkpt lat="45.20714" lon="6.01467">
        <ele>2072.8</ele>
        <time>2021-02-27T09:14:18Z</time>
      </trkpt>
      <trkpt lat="45.20714" lon="6.01467">
        <ele>2072.6</ele>
        <time>2021-02-27T09:14:19Z</time>
      </trkpt>
      <trkpt lat="45.20714" lon="6.01467">
        <ele>2072.8</ele>
        <time>2021-02-27T09:14:20Z</time>
      </trkpt>
      <trkpt lat="45.20714" lon="6.01467">
        <ele>2073</ele>
        <time>2021-02-27T09:14:21Z</time>
      </trkpt>
      <trkpt lat="45.20714" lon="6.01467">
        <ele>2073.4</ele>
        <time>2021-02-27T09:14:22Z</time>
      </trkpt>
      <trkpt lat="45.20714" lon="6.01467">
        <ele>2073.4</ele>
        <time>2021-02-27T09:14:23Z</time>
      </trkpt>
      <trkpt lat="45.20714" lon="6.01467">
        <ele>2073.2</ele>
        <time>2021-02-27T09:14:24Z</time>
      </trkpt>
      <trkpt lat="45.20714" lon="6.01467">
        <ele>2073.4</ele>
        <time>2021-02-27T09:14:25Z</time>
      </trkpt>
      <trkpt lat="45.20714" lon="6.01467">
        <ele>2073.8</ele>
        <time>2021-02-27T09:14:26Z</time>
      </trkpt>
      <trkpt lat="45.20714" lon="6.01467">
        <ele>2074</ele>
        <time>2021-02-27T09:14:27Z</time>
      </trkpt>
      <trkpt lat="45.20714" lon="6.01467">
        <ele>2074</ele>
        <time>2021-02-27T09:14:28Z</time>
      </trkpt>
      <trkpt lat="45.20714" lon="6.01467">
        <ele>2074</ele>
        <time>2021-02-27T09:14:29Z</time>
      </trkpt>
      <trkpt lat="45.20714" lon="6.01467">
        <ele>2074</ele>
        <time>2021-02-27T09:14:30Z</time>
      </trkpt>
      <trkpt lat="45.20714" lon="6.01467">
        <ele>2074</ele>
        <time>2021-02-27T09:14:31Z</time>
      </trkpt>
      <trkpt lat="45.20714" lon="6.01467">
        <ele>2074.2</ele>
        <time>2021-02-27T09:14:32Z</time>
      </trkpt>
      <trkpt lat="45.20714" lon="6.01467">
        <ele>2074.2</ele>
        <time>2021-02-27T09:14:33Z</time>
      </trkpt>
      <trkpt lat="45.20714" lon="6.01467">
        <ele>2074.4</ele>
        <time>2021-02-27T09:14:34Z</time>
      </trkpt>
      <trkpt lat="45.20714" lon="6.01467">
        <ele>2074.4</ele>
        <time>2021-02-27T09:14:35Z</time>
      </trkpt>
      <trkpt lat="45.20714" lon="6.01467">
        <ele>2074.2</ele>
        <time>2021-02-27T09:14:36Z</time>
      </trkpt>
      <trkpt lat="45.20714" lon="6.01467">
        <ele>2074.2</ele>
        <time>2021-02-27T09:14:37Z</time>
      </trkpt>
      <trkpt lat="45.20714" lon="6.01467">
        <ele>2074.2</ele>
        <time>2021-02-27T09:14:38Z</time>
      </trkpt>
      <trkpt lat="45.20714" lon="6.01467">
        <ele>2074</ele>
        <time>2021-02-27T09:14:39Z</time>
      </trkpt>
      <trkpt lat="45.20714" lon="6.01467">
        <ele>2073.8</ele>
        <time>2021-02-27T09:14:40Z</time>
      </trkpt>
      <trkpt lat="45.20714" lon="6.01467">
        <ele>2074</ele>
        <time>2021-02-27T09:14:41Z</time>
      </trkpt>
      <trkpt lat="45.20714" lon="6.01467">
        <ele>2074.2</ele>
        <time>2021-02-27T09:14:42Z</time>
      </trkpt>
      <trkpt lat="45.20714" lon="6.01467">
        <ele>2074</ele>
        <time>2021-02-27T09:14:43Z</time>
      </trkpt>
      <trkpt lat="45.20714" lon="6.01467">
        <ele>2074.2</ele>
        <time>2021-02-27T09:14:44Z</time>
      </trkpt>
      <trkpt lat="45.20716" lon="6.01467">
        <ele>2074</ele>
        <time>2021-02-27T09:14:45Z</time>
      </trkpt>
      <trkpt lat="45.20716" lon="6.01467">
        <ele>2074.2</ele>
        <time>2021-02-27T09:14:46Z</time>
      </trkpt>
      <trkpt lat="45.20716" lon="6.01467">
        <ele>2074.4</ele>
        <time>2021-02-27T09:14:47Z</time>
      </trkpt>
      <trkpt lat="45.20716" lon="6.01467">
        <ele>2074.4</ele>
        <time>2021-02-27T09:14:48Z</time>
      </trkpt>
      <trkpt lat="45.20716" lon="6.01467">
        <ele>2074.4</ele>
        <time>2021-02-27T09:14:49Z</time>
      </trkpt>
      <trkpt lat="45.20716" lon="6.01467">
        <ele>2074.6</ele>
        <time>2021-02-27T09:14:50Z</time>
      </trkpt>
      <trkpt lat="45.20716" lon="6.01467">
        <ele>2074.8</ele>
        <time>2021-02-27T09:14:51Z</time>
      </trkpt>
      <trkpt lat="45.20716" lon="6.01467">
        <ele>2075</ele>
        <time>2021-02-27T09:14:52Z</time>
      </trkpt>
      <trkpt lat="45.20716" lon="6.01467">
        <ele>2074.8</ele>
        <time>2021-02-27T09:14:53Z</time>
      </trkpt>
      <trkpt lat="45.20716" lon="6.01467">
        <ele>2074.8</ele>
        <time>2021-02-27T09:14:54Z</time>
      </trkpt>
      <trkpt lat="45.20716" lon="6.01467">
        <ele>2075</ele>
        <time>2021-02-27T09:14:55Z</time>
      </trkpt>
      <trkpt lat="45.20716" lon="6.01467">
        <ele>2075.2</ele>
        <time>2021-02-27T09:14:56Z</time>
      </trkpt>
      <trkpt lat="45.20716" lon="6.01467">
        <ele>2075.2</ele>
        <time>2021-02-27T09:14:57Z</time>
      </trkpt>
      <trkpt lat="45.20716" lon="6.01467">
        <ele>2075.4</ele>
        <time>2021-02-27T09:14:58Z</time>
      </trkpt>
      <trkpt lat="45.20716" lon="6.01467">
        <ele>2075.2</ele>
        <time>2021-02-27T09:14:59Z</time>
      </trkpt>
      <trkpt lat="45.20716" lon="6.01467">
        <ele>2075.2</ele>
        <time>2021-02-27T09:15:00Z</time>
      </trkpt>
      <trkpt lat="45.20716" lon="6.01467">
        <ele>2075.2</ele>
        <time>2021-02-27T09:15:01Z</time>
      </trkpt>
      <trkpt lat="45.20716" lon="6.01467">
        <ele>2075.2</ele>
        <time>2021-02-27T09:15:02Z</time>
      </trkpt>
      <trkpt lat="45.20716" lon="6.01467">
        <ele>2075.4</ele>
        <time>2021-02-27T09:15:03Z</time>
      </trkpt>
      <trkpt lat="45.20716" lon="6.01467">
        <ele>2075.4</ele>
        <time>2021-02-27T09:15:04Z</time>
      </trkpt>
      <trkpt lat="45.20716" lon="6.01467">
        <ele>2075.2</ele>
        <time>2021-02-27T09:15:05Z</time>
      </trkpt>
      <trkpt lat="45.20716" lon="6.01467">
        <ele>2075.2</ele>
        <time>2021-02-27T09:15:06Z</time>
      </trkpt>
      <trkpt lat="45.20716" lon="6.01467">
        <ele>2075.2</ele>
        <time>2021-02-27T09:15:07Z</time>
      </trkpt>
      <trkpt lat="45.20716" lon="6.01467">
        <ele>2075.4</ele>
        <time>2021-02-27T09:15:08Z</time>
      </trkpt>
      <trkpt lat="45.20716" lon="6.01467">
        <ele>2075.4</ele>
        <time>2021-02-27T09:15:09Z</time>
      </trkpt>
      <trkpt lat="45.20716" lon="6.01467">
        <ele>2075.2</ele>
        <time>2021-02-27T09:15:10Z</time>
      </trkpt>
      <trkpt lat="45.20716" lon="6.01467">
        <ele>2075.2</ele>
        <time>2021-02-27T09:15:11Z</time>
      </trkpt>
      <trkpt lat="45.20716" lon="6.01467">
        <ele>2075.2</ele>
        <time>2021-02-27T09:15:12Z</time>
      </trkpt>
      <trkpt lat="45.20716" lon="6.01467">
        <ele>2075.2</ele>
        <time>2021-02-27T09:15:13Z</time>
      </trkpt>
      <trkpt lat="45.20716" lon="6.01467">
        <ele>2075.2</ele>
        <time>2021-02-27T09:15:14Z</time>
      </trkpt>
      <trkpt lat="45.20716" lon="6.01467">
        <ele>2075.2</ele>
        <time>2021-02-27T09:15:15Z</time>
      </trkpt>
      <trkpt lat="45.20716" lon="6.01467">
        <ele>2075.2</ele>
        <time>2021-02-27T09:15:16Z</time>
      </trkpt>
      <trkpt lat="45.20716" lon="6.01467">
        <ele>2075.4</ele>
        <time>2021-02-27T09:15:17Z</time>
      </trkpt>
      <trkpt lat="45.20716" lon="6.01467">
        <ele>2075.4</ele>
        <time>2021-02-27T09:15:18Z</time>
      </trkpt>
      <trkpt lat="45.20716" lon="6.01467">
        <ele>2075.6</ele>
        <time>2021-02-27T09:15:19Z</time>
      </trkpt>
      <trkpt lat="45.20716" lon="6.01467">
        <ele>2075.4</ele>
        <time>2021-02-27T09:15:20Z</time>
      </trkpt>
      <trkpt lat="45.20716" lon="6.01467">
        <ele>2075.4</ele>
        <time>2021-02-27T09:15:21Z</time>
      </trkpt>
      <trkpt lat="45.20716" lon="6.01467">
        <ele>2075.4</ele>
        <time>2021-02-27T09:15:22Z</time>
      </trkpt>
      <trkpt lat="45.20716" lon="6.01467">
        <ele>2075.4</ele>
        <time>2021-02-27T09:15:23Z</time>
      </trkpt>
      <trkpt lat="45.20716" lon="6.01467">
        <ele>2075.6</ele>
        <time>2021-02-27T09:15:24Z</time>
      </trkpt>
      <trkpt lat="45.20716" lon="6.01467">
        <ele>2075.8</ele>
        <time>2021-02-27T09:15:25Z</time>
      </trkpt>
      <trkpt lat="45.20716" lon="6.01467">
        <ele>2075.6</ele>
        <time>2021-02-27T09:15:26Z</time>
      </trkpt>
      <trkpt lat="45.20716" lon="6.01467">
        <ele>2075.6</ele>
        <time>2021-02-27T09:15:27Z</time>
      </trkpt>
      <trkpt lat="45.20716" lon="6.01467">
        <ele>2075.8</ele>
        <time>2021-02-27T09:15:28Z</time>
      </trkpt>
      <trkpt lat="45.20716" lon="6.01467">
        <ele>2075.8</ele>
        <time>2021-02-27T09:15:29Z</time>
      </trkpt>
      <trkpt lat="45.20716" lon="6.01467">
        <ele>2075.8</ele>
        <time>2021-02-27T09:15:30Z</time>
      </trkpt>
      <trkpt lat="45.20716" lon="6.01467">
        <ele>2075.8</ele>
        <time>2021-02-27T09:15:31Z</time>
      </trkpt>
      <trkpt lat="45.20716" lon="6.01467">
        <ele>2075.8</ele>
        <time>2021-02-27T09:15:32Z</time>
      </trkpt>
      <trkpt lat="45.20716" lon="6.01467">
        <ele>2076</ele>
        <time>2021-02-27T09:15:33Z</time>
      </trkpt>
      <trkpt lat="45.20716" lon="6.01467">
        <ele>2075.8</ele>
        <time>2021-02-27T09:15:34Z</time>
      </trkpt>
      <trkpt lat="45.20716" lon="6.01467">
        <ele>2075.8</ele>
        <time>2021-02-27T09:15:35Z</time>
      </trkpt>
      <trkpt lat="45.20716" lon="6.01467">
        <ele>2076</ele>
        <time>2021-02-27T09:15:36Z</time>
      </trkpt>
      <trkpt lat="45.20716" lon="6.01467">
        <ele>2076</ele>
        <time>2021-02-27T09:15:37Z</time>
      </trkpt>
      <trkpt lat="45.20716" lon="6.01467">
        <ele>2076</ele>
        <time>2021-02-27T09:15:38Z</time>
      </trkpt>
      <trkpt lat="45.20716" lon="6.01467">
        <ele>2076</ele>
        <time>2021-02-27T09:15:39Z</time>
      </trkpt>
      <trkpt lat="45.20716" lon="6.01467">
        <ele>2076.2</ele>
        <time>2021-02-27T09:15:40Z</time>
      </trkpt>
      <trkpt lat="45.20716" lon="6.01467">
        <ele>2076</ele>
        <time>2021-02-27T09:15:41Z</time>
      </trkpt>
      <trkpt lat="45.20716" lon="6.01467">
        <ele>2076</ele>
        <time>2021-02-27T09:15:42Z</time>
      </trkpt>
      <trkpt lat="45.20716" lon="6.01467">
        <ele>2076</ele>
        <time>2021-02-27T09:15:43Z</time>
      </trkpt>
      <trkpt lat="45.20716" lon="6.01467">
        <ele>2076.2</ele>
        <time>2021-02-27T09:15:44Z</time>
      </trkpt>
      <trkpt lat="45.20716" lon="6.01467">
        <ele>2076</ele>
        <time>2021-02-27T09:15:45Z</time>
      </trkpt>
      <trkpt lat="45.20716" lon="6.01467">
        <ele>2076.2</ele>
        <time>2021-02-27T09:15:46Z</time>
      </trkpt>
      <trkpt lat="45.20716" lon="6.01467">
        <ele>2076.4</ele>
        <time>2021-02-27T09:15:47Z</time>
      </trkpt>
      <trkpt lat="45.20716" lon="6.01467">
        <ele>2076.2</ele>
        <time>2021-02-27T09:15:48Z</time>
      </trkpt>
      <trkpt lat="45.20716" lon="6.01467">
        <ele>2076.4</ele>
        <time>2021-02-27T09:15:49Z</time>
      </trkpt>
      <trkpt lat="45.20716" lon="6.01467">
        <ele>2076.2</ele>
        <time>2021-02-27T09:15:50Z</time>
      </trkpt>
      <trkpt lat="45.20716" lon="6.01467">
        <ele>2076</ele>
        <time>2021-02-27T09:15:51Z</time>
      </trkpt>
      <trkpt lat="45.20716" lon="6.01467">
        <ele>2075.8</ele>
        <time>2021-02-27T09:15:52Z</time>
      </trkpt>
      <trkpt lat="45.20716" lon="6.01467">
        <ele>2076</ele>
        <time>2021-02-27T09:15:53Z</time>
      </trkpt>
      <trkpt lat="45.20716" lon="6.01467">
        <ele>2076.4</ele>
        <time>2021-02-27T09:15:54Z</time>
      </trkpt>
      <trkpt lat="45.20716" lon="6.01467">
        <ele>2076.4</ele>
        <time>2021-02-27T09:15:55Z</time>
      </trkpt>
      <trkpt lat="45.20716" lon="6.01467">
        <ele>2076.4</ele>
        <time>2021-02-27T09:15:56Z</time>
      </trkpt>
      <trkpt lat="45.20716" lon="6.01467">
        <ele>2076.4</ele>
        <time>2021-02-27T09:15:57Z</time>
      </trkpt>
      <trkpt lat="45.20716" lon="6.01467">
        <ele>2076.4</ele>
        <time>2021-02-27T09:15:58Z</time>
      </trkpt>
      <trkpt lat="45.20716" lon="6.01467">
        <ele>2076.4</ele>
        <time>2021-02-27T09:15:59Z</time>
      </trkpt>
      <trkpt lat="45.20716" lon="6.01467">
        <ele>2076.4</ele>
        <time>2021-02-27T09:16:00Z</time>
      </trkpt>
      <trkpt lat="45.20716" lon="6.01467">
        <ele>2076.6</ele>
        <time>2021-02-27T09:16:01Z</time>
      </trkpt>
      <trkpt lat="45.20716" lon="6.01467">
        <ele>2076.6</ele>
        <time>2021-02-27T09:16:02Z</time>
      </trkpt>
      <trkpt lat="45.20716" lon="6.01467">
        <ele>2076.6</ele>
        <time>2021-02-27T09:16:03Z</time>
      </trkpt>
      <trkpt lat="45.20716" lon="6.01467">
        <ele>2076.6</ele>
        <time>2021-02-27T09:16:04Z</time>
      </trkpt>
      <trkpt lat="45.20716" lon="6.01467">
        <ele>2076.8</ele>
        <time>2021-02-27T09:16:05Z</time>
      </trkpt>
      <trkpt lat="45.20716" lon="6.01467">
        <ele>2076.8</ele>
        <time>2021-02-27T09:16:06Z</time>
      </trkpt>
      <trkpt lat="45.20716" lon="6.01467">
        <ele>2076.8</ele>
        <time>2021-02-27T09:16:07Z</time>
      </trkpt>
      <trkpt lat="45.20716" lon="6.01467">
        <ele>2076.8</ele>
        <time>2021-02-27T09:16:08Z</time>
      </trkpt>
      <trkpt lat="45.20716" lon="6.01467">
        <ele>2076.8</ele>
        <time>2021-02-27T09:16:09Z</time>
      </trkpt>
      <trkpt lat="45.20716" lon="6.01467">
        <ele>2076.6</ele>
        <time>2021-02-27T09:16:10Z</time>
      </trkpt>
      <trkpt lat="45.20716" lon="6.01467">
        <ele>2076.6</ele>
        <time>2021-02-27T09:16:11Z</time>
      </trkpt>
      <trkpt lat="45.20716" lon="6.01467">
        <ele>2076.6</ele>
        <time>2021-02-27T09:16:12Z</time>
      </trkpt>
      <trkpt lat="45.20716" lon="6.01467">
        <ele>2076.4</ele>
        <time>2021-02-27T09:16:13Z</time>
      </trkpt>
      <trkpt lat="45.20716" lon="6.01467">
        <ele>2076.4</ele>
        <time>2021-02-27T09:16:14Z</time>
      </trkpt>
      <trkpt lat="45.20716" lon="6.01467">
        <ele>2076.6</ele>
        <time>2021-02-27T09:16:15Z</time>
      </trkpt>
      <trkpt lat="45.20716" lon="6.01467">
        <ele>2076.6</ele>
        <time>2021-02-27T09:16:16Z</time>
      </trkpt>
      <trkpt lat="45.20716" lon="6.01467">
        <ele>2076.8</ele>
        <time>2021-02-27T09:16:17Z</time>
      </trkpt>
      <trkpt lat="45.20716" lon="6.01467">
        <ele>2076.8</ele>
        <time>2021-02-27T09:16:18Z</time>
      </trkpt>
      <trkpt lat="45.20716" lon="6.01467">
        <ele>2076.8</ele>
        <time>2021-02-27T09:16:19Z</time>
      </trkpt>
      <trkpt lat="45.20716" lon="6.01467">
        <ele>2076.8</ele>
        <time>2021-02-27T09:16:20Z</time>
      </trkpt>
      <trkpt lat="45.20716" lon="6.01467">
        <ele>2076.8</ele>
        <time>2021-02-27T09:16:21Z</time>
      </trkpt>
      <trkpt lat="45.20716" lon="6.01467">
        <ele>2077</ele>
        <time>2021-02-27T09:16:22Z</time>
      </trkpt>
      <trkpt lat="45.20716" lon="6.01467">
        <ele>2077.2</ele>
        <time>2021-02-27T09:16:23Z</time>
      </trkpt>
      <trkpt lat="45.20716" lon="6.01467">
        <ele>2076.8</ele>
        <time>2021-02-27T09:16:24Z</time>
      </trkpt>
      <trkpt lat="45.20716" lon="6.01467">
        <ele>2076.8</ele>
        <time>2021-02-27T09:16:25Z</time>
      </trkpt>
      <trkpt lat="45.20716" lon="6.01467">
        <ele>2076.8</ele>
        <time>2021-02-27T09:16:26Z</time>
      </trkpt>
      <trkpt lat="45.20716" lon="6.01467">
        <ele>2076.8</ele>
        <time>2021-02-27T09:16:27Z</time>
      </trkpt>
      <trkpt lat="45.20716" lon="6.01467">
        <ele>2077</ele>
        <time>2021-02-27T09:16:28Z</time>
      </trkpt>
      <trkpt lat="45.20716" lon="6.01467">
        <ele>2077</ele>
        <time>2021-02-27T09:16:29Z</time>
      </trkpt>
      <trkpt lat="45.20716" lon="6.01467">
        <ele>2076.8</ele>
        <time>2021-02-27T09:16:30Z</time>
      </trkpt>
      <trkpt lat="45.20716" lon="6.01467">
        <ele>2076.8</ele>
        <time>2021-02-27T09:16:31Z</time>
      </trkpt>
      <trkpt lat="45.20716" lon="6.01467">
        <ele>2076.8</ele>
        <time>2021-02-27T09:16:32Z</time>
      </trkpt>
      <trkpt lat="45.20716" lon="6.01467">
        <ele>2076.8</ele>
        <time>2021-02-27T09:16:33Z</time>
      </trkpt>
      <trkpt lat="45.20716" lon="6.01467">
        <ele>2077</ele>
        <time>2021-02-27T09:16:34Z</time>
      </trkpt>
      <trkpt lat="45.20716" lon="6.01467">
        <ele>2077.2</ele>
        <time>2021-02-27T09:16:35Z</time>
      </trkpt>
      <trkpt lat="45.20716" lon="6.01467">
        <ele>2077.2</ele>
        <time>2021-02-27T09:16:36Z</time>
      </trkpt>
      <trkpt lat="45.20716" lon="6.01467">
        <ele>2077.4</ele>
        <time>2021-02-27T09:16:37Z</time>
      </trkpt>
      <trkpt lat="45.20716" lon="6.01467">
        <ele>2077.4</ele>
        <time>2021-02-27T09:16:38Z</time>
      </trkpt>
      <trkpt lat="45.20716" lon="6.01467">
        <ele>2077.6</ele>
        <time>2021-02-27T09:16:39Z</time>
      </trkpt>
      <trkpt lat="45.20716" lon="6.01467">
        <ele>2077.6</ele>
        <time>2021-02-27T09:16:40Z</time>
      </trkpt>
      <trkpt lat="45.20716" lon="6.01467">
        <ele>2077.6</ele>
        <time>2021-02-27T09:16:41Z</time>
      </trkpt>
      <trkpt lat="45.20716" lon="6.01467">
        <ele>2077.6</ele>
        <time>2021-02-27T09:16:42Z</time>
      </trkpt>
      <trkpt lat="45.20716" lon="6.01467">
        <ele>2077.6</ele>
        <time>2021-02-27T09:16:43Z</time>
      </trkpt>
      <trkpt lat="45.20716" lon="6.01467">
        <ele>2077.8</ele>
        <time>2021-02-27T09:16:44Z</time>
      </trkpt>
      <trkpt lat="45.20716" lon="6.01467">
        <ele>2078</ele>
        <time>2021-02-27T09:16:45Z</time>
      </trkpt>
      <trkpt lat="45.20716" lon="6.01467">
        <ele>2078</ele>
        <time>2021-02-27T09:16:46Z</time>
      </trkpt>
      <trkpt lat="45.20716" lon="6.01467">
        <ele>2078</ele>
        <time>2021-02-27T09:16:47Z</time>
      </trkpt>
      <trkpt lat="45.20716" lon="6.01467">
        <ele>2078.2</ele>
        <time>2021-02-27T09:16:48Z</time>
      </trkpt>
      <trkpt lat="45.20716" lon="6.01467">
        <ele>2078</ele>
        <time>2021-02-27T09:16:49Z</time>
      </trkpt>
      <trkpt lat="45.20716" lon="6.01467">
        <ele>2077.8</ele>
        <time>2021-02-27T09:16:50Z</time>
      </trkpt>
      <trkpt lat="45.20716" lon="6.01467">
        <ele>2078</ele>
        <time>2021-02-27T09:16:51Z</time>
      </trkpt>
      <trkpt lat="45.20716" lon="6.01467">
        <ele>2078.2</ele>
        <time>2021-02-27T09:16:52Z</time>
      </trkpt>
      <trkpt lat="45.20716" lon="6.01467">
        <ele>2078.2</ele>
        <time>2021-02-27T09:16:53Z</time>
      </trkpt>
      <trkpt lat="45.20716" lon="6.01467">
        <ele>2078.4</ele>
        <time>2021-02-27T09:16:54Z</time>
      </trkpt>
      <trkpt lat="45.20716" lon="6.01467">
        <ele>2078.4</ele>
        <time>2021-02-27T09:16:55Z</time>
      </trkpt>
      <trkpt lat="45.20716" lon="6.01467">
        <ele>2078.2</ele>
        <time>2021-02-27T09:16:56Z</time>
      </trkpt>
      <trkpt lat="45.20716" lon="6.01467">
        <ele>2078.2</ele>
        <time>2021-02-27T09:16:57Z</time>
      </trkpt>
      <trkpt lat="45.20716" lon="6.01467">
        <ele>2078.4</ele>
        <time>2021-02-27T09:16:58Z</time>
      </trkpt>
      <trkpt lat="45.20716" lon="6.01467">
        <ele>2078.4</ele>
        <time>2021-02-27T09:16:59Z</time>
      </trkpt>
      <trkpt lat="45.20716" lon="6.01467">
        <ele>2078.2</ele>
        <time>2021-02-27T09:17:00Z</time>
      </trkpt>
      <trkpt lat="45.20716" lon="6.01467">
        <ele>2078.2</ele>
        <time>2021-02-27T09:17:01Z</time>
      </trkpt>
      <trkpt lat="45.20716" lon="6.01467">
        <ele>2078.2</ele>
        <time>2021-02-27T09:17:02Z</time>
      </trkpt>
      <trkpt lat="45.20716" lon="6.01467">
        <ele>2078.2</ele>
        <time>2021-02-27T09:17:03Z</time>
      </trkpt>
      <trkpt lat="45.20716" lon="6.01467">
        <ele>2078.4</ele>
        <time>2021-02-27T09:17:04Z</time>
      </trkpt>
      <trkpt lat="45.20716" lon="6.01467">
        <ele>2078.4</ele>
        <time>2021-02-27T09:17:05Z</time>
      </trkpt>
      <trkpt lat="45.20716" lon="6.01467">
        <ele>2078.6</ele>
        <time>2021-02-27T09:17:06Z</time>
      </trkpt>
      <trkpt lat="45.20716" lon="6.01467">
        <ele>2078.6</ele>
        <time>2021-02-27T09:17:07Z</time>
      </trkpt>
      <trkpt lat="45.20716" lon="6.01467">
        <ele>2078.8</ele>
        <time>2021-02-27T09:17:08Z</time>
      </trkpt>
      <trkpt lat="45.20716" lon="6.01467">
        <ele>2078.8</ele>
        <time>2021-02-27T09:17:09Z</time>
      </trkpt>
      <trkpt lat="45.20716" lon="6.01467">
        <ele>2078.8</ele>
        <time>2021-02-27T09:17:10Z</time>
      </trkpt>
      <trkpt lat="45.20716" lon="6.01467">
        <ele>2078.6</ele>
        <time>2021-02-27T09:17:11Z</time>
      </trkpt>
      <trkpt lat="45.20716" lon="6.01467">
        <ele>2079</ele>
        <time>2021-02-27T09:17:12Z</time>
      </trkpt>
      <trkpt lat="45.20716" lon="6.01467">
        <ele>2078.8</ele>
        <time>2021-02-27T09:17:13Z</time>
      </trkpt>
      <trkpt lat="45.20716" lon="6.01467">
        <ele>2078.6</ele>
        <time>2021-02-27T09:17:14Z</time>
      </trkpt>
      <trkpt lat="45.20716" lon="6.01467">
        <ele>2078.6</ele>
        <time>2021-02-27T09:17:15Z</time>
      </trkpt>
      <trkpt lat="45.20716" lon="6.01467">
        <ele>2078.6</ele>
        <time>2021-02-27T09:17:16Z</time>
      </trkpt>
      <trkpt lat="45.20716" lon="6.01467">
        <ele>2079.2</ele>
        <time>2021-02-27T09:17:17Z</time>
      </trkpt>
      <trkpt lat="45.20716" lon="6.01467">
        <ele>2079.2</ele>
        <time>2021-02-27T09:17:18Z</time>
      </trkpt>
      <trkpt lat="45.20716" lon="6.01467">
        <ele>2079.2</ele>
        <time>2021-02-27T09:17:19Z</time>
      </trkpt>
      <trkpt lat="45.20716" lon="6.01467">
        <ele>2079.2</ele>
        <time>2021-02-27T09:17:20Z</time>
      </trkpt>
      <trkpt lat="45.20716" lon="6.01467">
        <ele>2079.2</ele>
        <time>2021-02-27T09:17:21Z</time>
      </trkpt>
      <trkpt lat="45.20716" lon="6.01467">
        <ele>2079.2</ele>
        <time>2021-02-27T09:17:22Z</time>
      </trkpt>
      <trkpt lat="45.20716" lon="6.01467">
        <ele>2079.2</ele>
        <time>2021-02-27T09:17:23Z</time>
      </trkpt>
      <trkpt lat="45.20716" lon="6.01467">
        <ele>2079.4</ele>
        <time>2021-02-27T09:17:24Z</time>
      </trkpt>
      <trkpt lat="45.20716" lon="6.01467">
        <ele>2079.4</ele>
        <time>2021-02-27T09:17:25Z</time>
      </trkpt>
      <trkpt lat="45.20716" lon="6.01467">
        <ele>2079.4</ele>
        <time>2021-02-27T09:17:26Z</time>
      </trkpt>
      <trkpt lat="45.20716" lon="6.01467">
        <ele>2079.4</ele>
        <time>2021-02-27T09:17:27Z</time>
      </trkpt>
      <trkpt lat="45.20716" lon="6.01467">
        <ele>2079.4</ele>
        <time>2021-02-27T09:17:28Z</time>
      </trkpt>
      <trkpt lat="45.20716" lon="6.01467">
        <ele>2079.2</ele>
        <time>2021-02-27T09:17:29Z</time>
      </trkpt>
      <trkpt lat="45.20716" lon="6.01467">
        <ele>2079.4</ele>
        <time>2021-02-27T09:17:30Z</time>
      </trkpt>
      <trkpt lat="45.20716" lon="6.01467">
        <ele>2079.4</ele>
        <time>2021-02-27T09:17:31Z</time>
      </trkpt>
      <trkpt lat="45.20716" lon="6.01467">
        <ele>2079.4</ele>
        <time>2021-02-27T09:17:32Z</time>
      </trkpt>
      <trkpt lat="45.20716" lon="6.01467">
        <ele>2079.4</ele>
        <time>2021-02-27T09:17:33Z</time>
      </trkpt>
      <trkpt lat="45.20716" lon="6.01467">
        <ele>2079.4</ele>
        <time>2021-02-27T09:17:34Z</time>
      </trkpt>
      <trkpt lat="45.20716" lon="6.01467">
        <ele>2079.6</ele>
        <time>2021-02-27T09:17:35Z</time>
      </trkpt>
      <trkpt lat="45.20716" lon="6.01467">
        <ele>2079.4</ele>
        <time>2021-02-27T09:17:36Z</time>
      </trkpt>
      <trkpt lat="45.20716" lon="6.01467">
        <ele>2079.6</ele>
        <time>2021-02-27T09:17:37Z</time>
      </trkpt>
      <trkpt lat="45.20716" lon="6.01467">
        <ele>2079.8</ele>
        <time>2021-02-27T09:17:38Z</time>
      </trkpt>
      <trkpt lat="45.20716" lon="6.01467">
        <ele>2079.8</ele>
        <time>2021-02-27T09:17:39Z</time>
      </trkpt>
      <trkpt lat="45.20716" lon="6.01467">
        <ele>2079.8</ele>
        <time>2021-02-27T09:17:40Z</time>
      </trkpt>
      <trkpt lat="45.20716" lon="6.01467">
        <ele>2079.8</ele>
        <time>2021-02-27T09:17:41Z</time>
      </trkpt>
      <trkpt lat="45.20716" lon="6.01467">
        <ele>2079.8</ele>
        <time>2021-02-27T09:17:42Z</time>
      </trkpt>
      <trkpt lat="45.20716" lon="6.01467">
        <ele>2079.8</ele>
        <time>2021-02-27T09:17:43Z</time>
      </trkpt>
      <trkpt lat="45.20716" lon="6.01467">
        <ele>2079.6</ele>
        <time>2021-02-27T09:17:44Z</time>
      </trkpt>
      <trkpt lat="45.20716" lon="6.01467">
        <ele>2079.6</ele>
        <time>2021-02-27T09:17:45Z</time>
      </trkpt>
      <trkpt lat="45.20716" lon="6.01467">
        <ele>2079.6</ele>
        <time>2021-02-27T09:17:46Z</time>
      </trkpt>
      <trkpt lat="45.20716" lon="6.01467">
        <ele>2079.8</ele>
        <time>2021-02-27T09:17:47Z</time>
      </trkpt>
      <trkpt lat="45.20716" lon="6.01467">
        <ele>2079.6</ele>
        <time>2021-02-27T09:17:48Z</time>
      </trkpt>
      <trkpt lat="45.20716" lon="6.01467">
        <ele>2079.6</ele>
        <time>2021-02-27T09:17:49Z</time>
      </trkpt>
      <trkpt lat="45.20716" lon="6.01467">
        <ele>2079.8</ele>
        <time>2021-02-27T09:17:50Z</time>
      </trkpt>
      <trkpt lat="45.20716" lon="6.01467">
        <ele>2079.8</ele>
        <time>2021-02-27T09:17:51Z</time>
      </trkpt>
      <trkpt lat="45.20716" lon="6.01467">
        <ele>2080.2</ele>
        <time>2021-02-27T09:17:52Z</time>
      </trkpt>
      <trkpt lat="45.20716" lon="6.01467">
        <ele>2080.2</ele>
        <time>2021-02-27T09:17:53Z</time>
      </trkpt>
      <trkpt lat="45.20716" lon="6.01467">
        <ele>2080</ele>
        <time>2021-02-27T09:17:54Z</time>
      </trkpt>
      <trkpt lat="45.20716" lon="6.01467">
        <ele>2080.2</ele>
        <time>2021-02-27T09:17:55Z</time>
      </trkpt>
      <trkpt lat="45.20716" lon="6.01467">
        <ele>2080</ele>
        <time>2021-02-27T09:17:56Z</time>
      </trkpt>
      <trkpt lat="45.20716" lon="6.01467">
        <ele>2079.8</ele>
        <time>2021-02-27T09:17:57Z</time>
      </trkpt>
      <trkpt lat="45.20716" lon="6.01467">
        <ele>2079.8</ele>
        <time>2021-02-27T09:17:58Z</time>
      </trkpt>
      <trkpt lat="45.20716" lon="6.01467">
        <ele>2079.8</ele>
        <time>2021-02-27T09:17:59Z</time>
      </trkpt>
      <trkpt lat="45.20716" lon="6.01467">
        <ele>2079.8</ele>
        <time>2021-02-27T09:18:00Z</time>
      </trkpt>
      <trkpt lat="45.20716" lon="6.01467">
        <ele>2079.8</ele>
        <time>2021-02-27T09:18:01Z</time>
      </trkpt>
      <trkpt lat="45.20716" lon="6.01467">
        <ele>2079.8</ele>
        <time>2021-02-27T09:18:02Z</time>
      </trkpt>
      <trkpt lat="45.20716" lon="6.01467">
        <ele>2080</ele>
        <time>2021-02-27T09:18:03Z</time>
      </trkpt>
      <trkpt lat="45.20716" lon="6.01467">
        <ele>2080</ele>
        <time>2021-02-27T09:18:04Z</time>
      </trkpt>
      <trkpt lat="45.20716" lon="6.01467">
        <ele>2080</ele>
        <time>2021-02-27T09:18:05Z</time>
      </trkpt>
      <trkpt lat="45.20716" lon="6.01467">
        <ele>2080</ele>
        <time>2021-02-27T09:18:06Z</time>
      </trkpt>
      <trkpt lat="45.20716" lon="6.01467">
        <ele>2080.2</ele>
        <time>2021-02-27T09:18:07Z</time>
      </trkpt>
      <trkpt lat="45.20716" lon="6.01467">
        <ele>2080.4</ele>
        <time>2021-02-27T09:18:08Z</time>
      </trkpt>
      <trkpt lat="45.20716" lon="6.01467">
        <ele>2080.6</ele>
        <time>2021-02-27T09:18:09Z</time>
      </trkpt>
      <trkpt lat="45.20716" lon="6.01467">
        <ele>2080.4</ele>
        <time>2021-02-27T09:18:10Z</time>
      </trkpt>
      <trkpt lat="45.20716" lon="6.01467">
        <ele>2080.4</ele>
        <time>2021-02-27T09:18:11Z</time>
      </trkpt>
      <trkpt lat="45.20716" lon="6.01467">
        <ele>2080.4</ele>
        <time>2021-02-27T09:18:12Z</time>
      </trkpt>
      <trkpt lat="45.20716" lon="6.01467">
        <ele>2080.4</ele>
        <time>2021-02-27T09:18:13Z</time>
      </trkpt>
      <trkpt lat="45.20716" lon="6.01467">
        <ele>2080.4</ele>
        <time>2021-02-27T09:18:14Z</time>
      </trkpt>
      <trkpt lat="45.20716" lon="6.01467">
        <ele>2080.6</ele>
        <time>2021-02-27T09:18:15Z</time>
      </trkpt>
      <trkpt lat="45.20716" lon="6.01467">
        <ele>2080.8</ele>
        <time>2021-02-27T09:18:16Z</time>
      </trkpt>
      <trkpt lat="45.20716" lon="6.01467">
        <ele>2080.8</ele>
        <time>2021-02-27T09:18:17Z</time>
      </trkpt>
      <trkpt lat="45.20716" lon="6.01467">
        <ele>2080.8</ele>
        <time>2021-02-27T09:18:18Z</time>
      </trkpt>
      <trkpt lat="45.20716" lon="6.01467">
        <ele>2081</ele>
        <time>2021-02-27T09:18:19Z</time>
      </trkpt>
      <trkpt lat="45.20716" lon="6.01467">
        <ele>2080.8</ele>
        <time>2021-02-27T09:18:20Z</time>
      </trkpt>
      <trkpt lat="45.20716" lon="6.01467">
        <ele>2081</ele>
        <time>2021-02-27T09:18:21Z</time>
      </trkpt>
      <trkpt lat="45.20716" lon="6.01467">
        <ele>2081</ele>
        <time>2021-02-27T09:18:22Z</time>
      </trkpt>
      <trkpt lat="45.20716" lon="6.01467">
        <ele>2081.2</ele>
        <time>2021-02-27T09:18:23Z</time>
      </trkpt>
      <trkpt lat="45.20716" lon="6.01467">
        <ele>2081</ele>
        <time>2021-02-27T09:18:24Z</time>
      </trkpt>
      <trkpt lat="45.20716" lon="6.01467">
        <ele>2081.2</ele>
        <time>2021-02-27T09:18:25Z</time>
      </trkpt>
      <trkpt lat="45.20716" lon="6.01467">
        <ele>2081.2</ele>
        <time>2021-02-27T09:18:26Z</time>
      </trkpt>
      <trkpt lat="45.20716" lon="6.01467">
        <ele>2081</ele>
        <time>2021-02-27T09:18:27Z</time>
      </trkpt>
      <trkpt lat="45.20716" lon="6.01467">
        <ele>2081.2</ele>
        <time>2021-02-27T09:18:28Z</time>
      </trkpt>
      <trkpt lat="45.20716" lon="6.01467">
        <ele>2081.2</ele>
        <time>2021-02-27T09:18:29Z</time>
      </trkpt>
      <trkpt lat="45.20716" lon="6.01467">
        <ele>2081.2</ele>
        <time>2021-02-27T09:18:30Z</time>
      </trkpt>
      <trkpt lat="45.20716" lon="6.01467">
        <ele>2081.2</ele>
        <time>2021-02-27T09:18:31Z</time>
      </trkpt>
      <trkpt lat="45.20716" lon="6.01467">
        <ele>2081.2</ele>
        <time>2021-02-27T09:18:32Z</time>
      </trkpt>
      <trkpt lat="45.20716" lon="6.01467">
        <ele>2081.2</ele>
        <time>2021-02-27T09:18:33Z</time>
      </trkpt>
      <trkpt lat="45.20716" lon="6.01467">
        <ele>2081.4</ele>
        <time>2021-02-27T09:18:34Z</time>
      </trkpt>
      <trkpt lat="45.20716" lon="6.01467">
        <ele>2081.6</ele>
        <time>2021-02-27T09:18:35Z</time>
      </trkpt>
      <trkpt lat="45.20716" lon="6.01467">
        <ele>2081.8</ele>
        <time>2021-02-27T09:18:36Z</time>
      </trkpt>
      <trkpt lat="45.20716" lon="6.01467">
        <ele>2082</ele>
        <time>2021-02-27T09:18:37Z</time>
      </trkpt>
      <trkpt lat="45.20716" lon="6.01467">
        <ele>2082.4</ele>
        <time>2021-02-27T09:18:38Z</time>
      </trkpt>
      <trkpt lat="45.20716" lon="6.01467">
        <ele>2082.2</ele>
        <time>2021-02-27T09:18:39Z</time>
      </trkpt>
      <trkpt lat="45.20716" lon="6.01467">
        <ele>2082</ele>
        <time>2021-02-27T09:18:40Z</time>
      </trkpt>
      <trkpt lat="45.20716" lon="6.01467">
        <ele>2082</ele>
        <time>2021-02-27T09:18:41Z</time>
      </trkpt>
      <trkpt lat="45.20716" lon="6.01467">
        <ele>2081.8</ele>
        <time>2021-02-27T09:18:42Z</time>
      </trkpt>
      <trkpt lat="45.20716" lon="6.01467">
        <ele>2082</ele>
        <time>2021-02-27T09:18:43Z</time>
      </trkpt>
      <trkpt lat="45.20716" lon="6.01467">
        <ele>2082</ele>
        <time>2021-02-27T09:18:44Z</time>
      </trkpt>
      <trkpt lat="45.20716" lon="6.01467">
        <ele>2081.8</ele>
        <time>2021-02-27T09:18:45Z</time>
      </trkpt>
      <trkpt lat="45.20716" lon="6.01467">
        <ele>2081.4</ele>
        <time>2021-02-27T09:18:46Z</time>
      </trkpt>
      <trkpt lat="45.20716" lon="6.01467">
        <ele>2081.6</ele>
        <time>2021-02-27T09:18:47Z</time>
      </trkpt>
      <trkpt lat="45.20716" lon="6.01467">
        <ele>2081.6</ele>
        <time>2021-02-27T09:18:48Z</time>
      </trkpt>
      <trkpt lat="45.20716" lon="6.01467">
        <ele>2081.6</ele>
        <time>2021-02-27T09:18:49Z</time>
      </trkpt>
      <trkpt lat="45.20716" lon="6.01467">
        <ele>2081.6</ele>
        <time>2021-02-27T09:18:50Z</time>
      </trkpt>
      <trkpt lat="45.20716" lon="6.01467">
        <ele>2081.6</ele>
        <time>2021-02-27T09:18:51Z</time>
      </trkpt>
      <trkpt lat="45.20716" lon="6.01467">
        <ele>2081.8</ele>
        <time>2021-02-27T09:18:52Z</time>
      </trkpt>
      <trkpt lat="45.20716" lon="6.01467">
        <ele>2081.4</ele>
        <time>2021-02-27T09:18:53Z</time>
      </trkpt>
      <trkpt lat="45.20716" lon="6.01467">
        <ele>2081.4</ele>
        <time>2021-02-27T09:18:54Z</time>
      </trkpt>
      <trkpt lat="45.20716" lon="6.01467">
        <ele>2081.6</ele>
        <time>2021-02-27T09:18:55Z</time>
      </trkpt>
      <trkpt lat="45.20716" lon="6.01467">
        <ele>2081.2</ele>
        <time>2021-02-27T09:18:56Z</time>
      </trkpt>
      <trkpt lat="45.20716" lon="6.01467">
        <ele>2081.2</ele>
        <time>2021-02-27T09:18:57Z</time>
      </trkpt>
      <trkpt lat="45.20716" lon="6.01467">
        <ele>2081.4</ele>
        <time>2021-02-27T09:18:58Z</time>
      </trkpt>
      <trkpt lat="45.20716" lon="6.01467">
        <ele>2081.6</ele>
        <time>2021-02-27T09:18:59Z</time>
      </trkpt>
      <trkpt lat="45.20716" lon="6.01467">
        <ele>2081.6</ele>
        <time>2021-02-27T09:19:00Z</time>
      </trkpt>
      <trkpt lat="45.20716" lon="6.01467">
        <ele>2081.4</ele>
        <time>2021-02-27T09:19:01Z</time>
      </trkpt>
      <trkpt lat="45.20716" lon="6.01467">
        <ele>2081.6</ele>
        <time>2021-02-27T09:19:02Z</time>
      </trkpt>
      <trkpt lat="45.20716" lon="6.01467">
        <ele>2081.6</ele>
        <time>2021-02-27T09:19:03Z</time>
      </trkpt>
      <trkpt lat="45.20716" lon="6.01467">
        <ele>2081.6</ele>
        <time>2021-02-27T09:19:04Z</time>
      </trkpt>
      <trkpt lat="45.20716" lon="6.01467">
        <ele>2081.6</ele>
        <time>2021-02-27T09:19:05Z</time>
      </trkpt>
      <trkpt lat="45.20716" lon="6.01467">
        <ele>2081.6</ele>
        <time>2021-02-27T09:19:06Z</time>
      </trkpt>
      <trkpt lat="45.20716" lon="6.01467">
        <ele>2081.8</ele>
        <time>2021-02-27T09:19:07Z</time>
      </trkpt>
      <trkpt lat="45.20716" lon="6.01467">
        <ele>2081.6</ele>
        <time>2021-02-27T09:19:08Z</time>
      </trkpt>
      <trkpt lat="45.20716" lon="6.01467">
        <ele>2081.4</ele>
        <time>2021-02-27T09:19:09Z</time>
      </trkpt>
      <trkpt lat="45.20716" lon="6.01467">
        <ele>2081.2</ele>
        <time>2021-02-27T09:19:10Z</time>
      </trkpt>
      <trkpt lat="45.20716" lon="6.01467">
        <ele>2081.2</ele>
        <time>2021-02-27T09:19:11Z</time>
      </trkpt>
      <trkpt lat="45.20716" lon="6.01467">
        <ele>2081.4</ele>
        <time>2021-02-27T09:19:12Z</time>
      </trkpt>
      <trkpt lat="45.20716" lon="6.01467">
        <ele>2081.4</ele>
        <time>2021-02-27T09:19:13Z</time>
      </trkpt>
      <trkpt lat="45.20716" lon="6.01467">
        <ele>2081.2</ele>
        <time>2021-02-27T09:19:14Z</time>
      </trkpt>
      <trkpt lat="45.20716" lon="6.01467">
        <ele>2081.2</ele>
        <time>2021-02-27T09:19:15Z</time>
      </trkpt>
      <trkpt lat="45.20716" lon="6.01467">
        <ele>2081.2</ele>
        <time>2021-02-27T09:19:16Z</time>
      </trkpt>
      <trkpt lat="45.20716" lon="6.01467">
        <ele>2081.4</ele>
        <time>2021-02-27T09:19:17Z</time>
      </trkpt>
      <trkpt lat="45.20716" lon="6.01467">
        <ele>2081.4</ele>
        <time>2021-02-27T09:19:18Z</time>
      </trkpt>
      <trkpt lat="45.20716" lon="6.01467">
        <ele>2081.6</ele>
        <time>2021-02-27T09:19:19Z</time>
      </trkpt>
      <trkpt lat="45.20716" lon="6.01467">
        <ele>2081.6</ele>
        <time>2021-02-27T09:19:20Z</time>
      </trkpt>
      <trkpt lat="45.20716" lon="6.01467">
        <ele>2081.4</ele>
        <time>2021-02-27T09:19:21Z</time>
      </trkpt>
      <trkpt lat="45.20716" lon="6.01467">
        <ele>2081.6</ele>
        <time>2021-02-27T09:19:22Z</time>
      </trkpt>
      <trkpt lat="45.20716" lon="6.01467">
        <ele>2081.6</ele>
        <time>2021-02-27T09:19:23Z</time>
      </trkpt>
      <trkpt lat="45.20716" lon="6.01467">
        <ele>2081.4</ele>
        <time>2021-02-27T09:19:24Z</time>
      </trkpt>
      <trkpt lat="45.20716" lon="6.01467">
        <ele>2081.2</ele>
        <time>2021-02-27T09:19:25Z</time>
      </trkpt>
      <trkpt lat="45.20716" lon="6.01467">
        <ele>2081.4</ele>
        <time>2021-02-27T09:19:26Z</time>
      </trkpt>
      <trkpt lat="45.20716" lon="6.01467">
        <ele>2081.6</ele>
        <time>2021-02-27T09:19:27Z</time>
      </trkpt>
      <trkpt lat="45.20716" lon="6.01467">
        <ele>2081.4</ele>
        <time>2021-02-27T09:19:28Z</time>
      </trkpt>
      <trkpt lat="45.20716" lon="6.01467">
        <ele>2081.8</ele>
        <time>2021-02-27T09:19:29Z</time>
      </trkpt>
      <trkpt lat="45.20716" lon="6.01467">
        <ele>2082</ele>
        <time>2021-02-27T09:19:30Z</time>
      </trkpt>
      <trkpt lat="45.20714" lon="6.01466">
        <ele>2082.2</ele>
        <time>2021-02-27T09:19:31Z</time>
      </trkpt>
      <trkpt lat="45.20714" lon="6.01466">
        <ele>2082.2</ele>
        <time>2021-02-27T09:19:32Z</time>
      </trkpt>
      <trkpt lat="45.20714" lon="6.01466">
        <ele>2082.4</ele>
        <time>2021-02-27T09:19:33Z</time>
      </trkpt>
      <trkpt lat="45.20714" lon="6.01466">
        <ele>2082.4</ele>
        <time>2021-02-27T09:19:34Z</time>
      </trkpt>
      <trkpt lat="45.20714" lon="6.01466">
        <ele>2082.4</ele>
        <time>2021-02-27T09:19:35Z</time>
      </trkpt>
      <trkpt lat="45.20714" lon="6.01466">
        <ele>2082.4</ele>
        <time>2021-02-27T09:19:36Z</time>
      </trkpt>
      <trkpt lat="45.20714" lon="6.01466">
        <ele>2082.4</ele>
        <time>2021-02-27T09:19:37Z</time>
      </trkpt>
      <trkpt lat="45.20714" lon="6.01466">
        <ele>2082.2</ele>
        <time>2021-02-27T09:19:38Z</time>
      </trkpt>
      <trkpt lat="45.20714" lon="6.01466">
        <ele>2082.2</ele>
        <time>2021-02-27T09:19:39Z</time>
      </trkpt>
      <trkpt lat="45.20714" lon="6.01466">
        <ele>2082.4</ele>
        <time>2021-02-27T09:19:40Z</time>
      </trkpt>
      <trkpt lat="45.20714" lon="6.01466">
        <ele>2082.6</ele>
        <time>2021-02-27T09:19:41Z</time>
      </trkpt>
      <trkpt lat="45.20714" lon="6.01466">
        <ele>2082.4</ele>
        <time>2021-02-27T09:19:42Z</time>
      </trkpt>
      <trkpt lat="45.20714" lon="6.01466">
        <ele>2082.4</ele>
        <time>2021-02-27T09:19:43Z</time>
      </trkpt>
      <trkpt lat="45.20714" lon="6.01466">
        <ele>2082.4</ele>
        <time>2021-02-27T09:19:44Z</time>
      </trkpt>
      <trkpt lat="45.20714" lon="6.01466">
        <ele>2082.6</ele>
        <time>2021-02-27T09:19:45Z</time>
      </trkpt>
      <trkpt lat="45.20714" lon="6.01466">
        <ele>2082.6</ele>
        <time>2021-02-27T09:19:46Z</time>
      </trkpt>
      <trkpt lat="45.20714" lon="6.01466">
        <ele>2083</ele>
        <time>2021-02-27T09:19:47Z</time>
      </trkpt>
      <trkpt lat="45.20714" lon="6.01466">
        <ele>2083</ele>
        <time>2021-02-27T09:19:48Z</time>
      </trkpt>
      <trkpt lat="45.20714" lon="6.01466">
        <ele>2083</ele>
        <time>2021-02-27T09:19:49Z</time>
      </trkpt>
      <trkpt lat="45.20714" lon="6.01466">
        <ele>2082.8</ele>
        <time>2021-02-27T09:19:50Z</time>
      </trkpt>
      <trkpt lat="45.20714" lon="6.01466">
        <ele>2082.8</ele>
        <time>2021-02-27T09:19:51Z</time>
      </trkpt>
      <trkpt lat="45.20714" lon="6.01466">
        <ele>2082.8</ele>
        <time>2021-02-27T09:19:52Z</time>
      </trkpt>
      <trkpt lat="45.20714" lon="6.01466">
        <ele>2083</ele>
        <time>2021-02-27T09:19:53Z</time>
      </trkpt>
      <trkpt lat="45.20714" lon="6.01466">
        <ele>2083</ele>
        <time>2021-02-27T09:19:54Z</time>
      </trkpt>
      <trkpt lat="45.20714" lon="6.01466">
        <ele>2082.8</ele>
        <time>2021-02-27T09:19:55Z</time>
      </trkpt>
      <trkpt lat="45.20714" lon="6.01466">
        <ele>2082.8</ele>
        <time>2021-02-27T09:19:56Z</time>
      </trkpt>
      <trkpt lat="45.20714" lon="6.01466">
        <ele>2082.8</ele>
        <time>2021-02-27T09:19:57Z</time>
      </trkpt>
      <trkpt lat="45.20714" lon="6.01466">
        <ele>2083</ele>
        <time>2021-02-27T09:19:58Z</time>
      </trkpt>
      <trkpt lat="45.20714" lon="6.01466">
        <ele>2082.8</ele>
        <time>2021-02-27T09:19:59Z</time>
      </trkpt>
      <trkpt lat="45.20714" lon="6.01466">
        <ele>2082.8</ele>
        <time>2021-02-27T09:20:00Z</time>
      </trkpt>
      <trkpt lat="45.20714" lon="6.01466">
        <ele>2083</ele>
        <time>2021-02-27T09:20:01Z</time>
      </trkpt>
      <trkpt lat="45.20714" lon="6.01466">
        <ele>2083</ele>
        <time>2021-02-27T09:20:02Z</time>
      </trkpt>
      <trkpt lat="45.20714" lon="6.01466">
        <ele>2083.2</ele>
        <time>2021-02-27T09:20:03Z</time>
      </trkpt>
      <trkpt lat="45.20714" lon="6.01466">
        <ele>2083.2</ele>
        <time>2021-02-27T09:20:04Z</time>
      </trkpt>
      <trkpt lat="45.20714" lon="6.01466">
        <ele>2083.2</ele>
        <time>2021-02-27T09:20:05Z</time>
      </trkpt>
      <trkpt lat="45.20714" lon="6.01466">
        <ele>2083.2</ele>
        <time>2021-02-27T09:20:06Z</time>
      </trkpt>
      <trkpt lat="45.20714" lon="6.01466">
        <ele>2083.2</ele>
        <time>2021-02-27T09:20:07Z</time>
      </trkpt>
      <trkpt lat="45.20714" lon="6.01466">
        <ele>2083.4</ele>
        <time>2021-02-27T09:20:08Z</time>
      </trkpt>
      <trkpt lat="45.20714" lon="6.01466">
        <ele>2083.2</ele>
        <time>2021-02-27T09:20:09Z</time>
      </trkpt>
      <trkpt lat="45.20714" lon="6.01466">
        <ele>2083.4</ele>
        <time>2021-02-27T09:20:10Z</time>
      </trkpt>
      <trkpt lat="45.20714" lon="6.01466">
        <ele>2083.4</ele>
        <time>2021-02-27T09:20:11Z</time>
      </trkpt>
      <trkpt lat="45.20714" lon="6.01466">
        <ele>2083.4</ele>
        <time>2021-02-27T09:20:12Z</time>
      </trkpt>
      <trkpt lat="45.20714" lon="6.01466">
        <ele>2083.6</ele>
        <time>2021-02-27T09:20:13Z</time>
      </trkpt>
      <trkpt lat="45.20714" lon="6.01466">
        <ele>2083.2</ele>
        <time>2021-02-27T09:20:14Z</time>
      </trkpt>
      <trkpt lat="45.20714" lon="6.01466">
        <ele>2083.2</ele>
        <time>2021-02-27T09:20:15Z</time>
      </trkpt>
      <trkpt lat="45.20714" lon="6.01466">
        <ele>2082.8</ele>
        <time>2021-02-27T09:20:16Z</time>
      </trkpt>
      <trkpt lat="45.20714" lon="6.01466">
        <ele>2082.6</ele>
        <time>2021-02-27T09:20:17Z</time>
      </trkpt>
      <trkpt lat="45.20714" lon="6.01466">
        <ele>2082.6</ele>
        <time>2021-02-27T09:20:18Z</time>
      </trkpt>
      <trkpt lat="45.20714" lon="6.01466">
        <ele>2082.6</ele>
        <time>2021-02-27T09:20:19Z</time>
      </trkpt>
      <trkpt lat="45.20714" lon="6.01466">
        <ele>2082.4</ele>
        <time>2021-02-27T09:20:20Z</time>
      </trkpt>
      <trkpt lat="45.20714" lon="6.01466">
        <ele>2082</ele>
        <time>2021-02-27T09:20:21Z</time>
      </trkpt>
      <trkpt lat="45.20714" lon="6.01466">
        <ele>2081.8</ele>
        <time>2021-02-27T09:20:22Z</time>
      </trkpt>
      <trkpt lat="45.20714" lon="6.01466">
        <ele>2082</ele>
        <time>2021-02-27T09:20:23Z</time>
      </trkpt>
      <trkpt lat="45.20714" lon="6.01466">
        <ele>2082.2</ele>
        <time>2021-02-27T09:20:24Z</time>
      </trkpt>
      <trkpt lat="45.20714" lon="6.01466">
        <ele>2082.6</ele>
        <time>2021-02-27T09:20:25Z</time>
      </trkpt>
      <trkpt lat="45.20714" lon="6.01466">
        <ele>2083</ele>
        <time>2021-02-27T09:20:26Z</time>
      </trkpt>
      <trkpt lat="45.20714" lon="6.01466">
        <ele>2083.4</ele>
        <time>2021-02-27T09:20:27Z</time>
      </trkpt>
      <trkpt lat="45.20714" lon="6.01466">
        <ele>2083.4</ele>
        <time>2021-02-27T09:20:28Z</time>
      </trkpt>
      <trkpt lat="45.20714" lon="6.01466">
        <ele>2083</ele>
        <time>2021-02-27T09:20:29Z</time>
      </trkpt>
      <trkpt lat="45.20714" lon="6.01466">
        <ele>2082.8</ele>
        <time>2021-02-27T09:20:30Z</time>
      </trkpt>
      <trkpt lat="45.20714" lon="6.01466">
        <ele>2082.6</ele>
        <time>2021-02-27T09:20:31Z</time>
      </trkpt>
      <trkpt lat="45.20714" lon="6.01466">
        <ele>2082.6</ele>
        <time>2021-02-27T09:20:32Z</time>
      </trkpt>
      <trkpt lat="45.20714" lon="6.01466">
        <ele>2082.4</ele>
        <time>2021-02-27T09:20:33Z</time>
      </trkpt>
      <trkpt lat="45.20714" lon="6.01466">
        <ele>2082.4</ele>
        <time>2021-02-27T09:20:34Z</time>
      </trkpt>
      <trkpt lat="45.20714" lon="6.01466">
        <ele>2082.4</ele>
        <time>2021-02-27T09:20:35Z</time>
      </trkpt>
      <trkpt lat="45.20714" lon="6.01466">
        <ele>2082.4</ele>
        <time>2021-02-27T09:20:36Z</time>
      </trkpt>
      <trkpt lat="45.20714" lon="6.01466">
        <ele>2082.4</ele>
        <time>2021-02-27T09:20:37Z</time>
      </trkpt>
      <trkpt lat="45.20714" lon="6.01466">
        <ele>2082.2</ele>
        <time>2021-02-27T09:20:38Z</time>
      </trkpt>
      <trkpt lat="45.20714" lon="6.01466">
        <ele>2082.2</ele>
        <time>2021-02-27T09:20:39Z</time>
      </trkpt>
      <trkpt lat="45.20714" lon="6.01466">
        <ele>2082.2</ele>
        <time>2021-02-27T09:20:40Z</time>
      </trkpt>
      <trkpt lat="45.20714" lon="6.01466">
        <ele>2082.2</ele>
        <time>2021-02-27T09:20:41Z</time>
      </trkpt>
      <trkpt lat="45.20714" lon="6.01466">
        <ele>2082.2</ele>
        <time>2021-02-27T09:20:42Z</time>
      </trkpt>
      <trkpt lat="45.20714" lon="6.01466">
        <ele>2082.4</ele>
        <time>2021-02-27T09:20:43Z</time>
      </trkpt>
      <trkpt lat="45.20714" lon="6.01466">
        <ele>2082.4</ele>
        <time>2021-02-27T09:20:44Z</time>
      </trkpt>
      <trkpt lat="45.20713" lon="6.01464">
        <ele>2082.2</ele>
        <time>2021-02-27T09:20:45Z</time>
      </trkpt>
      <trkpt lat="45.20713" lon="6.01464">
        <ele>2082.2</ele>
        <time>2021-02-27T09:20:46Z</time>
      </trkpt>
      <trkpt lat="45.20713" lon="6.01464">
        <ele>2082.4</ele>
        <time>2021-02-27T09:20:47Z</time>
      </trkpt>
      <trkpt lat="45.20713" lon="6.01464">
        <ele>2082.4</ele>
        <time>2021-02-27T09:20:48Z</time>
      </trkpt>
      <trkpt lat="45.20713" lon="6.01464">
        <ele>2082.2</ele>
        <time>2021-02-27T09:20:49Z</time>
      </trkpt>
      <trkpt lat="45.20713" lon="6.01464">
        <ele>2082.2</ele>
        <time>2021-02-27T09:20:50Z</time>
      </trkpt>
      <trkpt lat="45.20713" lon="6.01464">
        <ele>2082</ele>
        <time>2021-02-27T09:20:51Z</time>
      </trkpt>
      <trkpt lat="45.20713" lon="6.01464">
        <ele>2082.2</ele>
        <time>2021-02-27T09:20:52Z</time>
      </trkpt>
      <trkpt lat="45.20713" lon="6.01464">
        <ele>2082.2</ele>
        <time>2021-02-27T09:20:53Z</time>
      </trkpt>
      <trkpt lat="45.20713" lon="6.01464">
        <ele>2082.2</ele>
        <time>2021-02-27T09:20:54Z</time>
      </trkpt>
      <trkpt lat="45.20713" lon="6.01464">
        <ele>2082.2</ele>
        <time>2021-02-27T09:20:55Z</time>
      </trkpt>
      <trkpt lat="45.20713" lon="6.01464">
        <ele>2082</ele>
        <time>2021-02-27T09:20:56Z</time>
      </trkpt>
      <trkpt lat="45.20713" lon="6.01464">
        <ele>2082</ele>
        <time>2021-02-27T09:20:57Z</time>
      </trkpt>
      <trkpt lat="45.20713" lon="6.01464">
        <ele>2082.4</ele>
        <time>2021-02-27T09:20:58Z</time>
      </trkpt>
      <trkpt lat="45.20713" lon="6.01464">
        <ele>2082.8</ele>
        <time>2021-02-27T09:20:59Z</time>
      </trkpt>
      <trkpt lat="45.20713" lon="6.01464">
        <ele>2082.6</ele>
        <time>2021-02-27T09:21:00Z</time>
      </trkpt>
      <trkpt lat="45.20713" lon="6.01464">
        <ele>2082.6</ele>
        <time>2021-02-27T09:21:01Z</time>
      </trkpt>
      <trkpt lat="45.20713" lon="6.01464">
        <ele>2083</ele>
        <time>2021-02-27T09:21:02Z</time>
      </trkpt>
      <trkpt lat="45.20713" lon="6.01464">
        <ele>2083.6</ele>
        <time>2021-02-27T09:21:03Z</time>
      </trkpt>
      <trkpt lat="45.20713" lon="6.01464">
        <ele>2083.8</ele>
        <time>2021-02-27T09:21:04Z</time>
      </trkpt>
      <trkpt lat="45.20713" lon="6.01464">
        <ele>2084.2</ele>
        <time>2021-02-27T09:21:05Z</time>
      </trkpt>
      <trkpt lat="45.20713" lon="6.01464">
        <ele>2084.2</ele>
        <time>2021-02-27T09:21:06Z</time>
      </trkpt>
      <trkpt lat="45.20713" lon="6.01464">
        <ele>2084.2</ele>
        <time>2021-02-27T09:21:07Z</time>
      </trkpt>
      <trkpt lat="45.20713" lon="6.01464">
        <ele>2084</ele>
        <time>2021-02-27T09:21:08Z</time>
      </trkpt>
      <trkpt lat="45.20713" lon="6.01464">
        <ele>2083.8</ele>
        <time>2021-02-27T09:21:09Z</time>
      </trkpt>
      <trkpt lat="45.20713" lon="6.01464">
        <ele>2083.8</ele>
        <time>2021-02-27T09:21:10Z</time>
      </trkpt>
      <trkpt lat="45.20713" lon="6.01464">
        <ele>2083.6</ele>
        <time>2021-02-27T09:21:11Z</time>
      </trkpt>
      <trkpt lat="45.20713" lon="6.01464">
        <ele>2083.6</ele>
        <time>2021-02-27T09:21:12Z</time>
      </trkpt>
      <trkpt lat="45.20713" lon="6.01464">
        <ele>2083.6</ele>
        <time>2021-02-27T09:21:13Z</time>
      </trkpt>
      <trkpt lat="45.20713" lon="6.01464">
        <ele>2083.4</ele>
        <time>2021-02-27T09:21:14Z</time>
      </trkpt>
      <trkpt lat="45.20713" lon="6.01464">
        <ele>2083.6</ele>
        <time>2021-02-27T09:21:15Z</time>
      </trkpt>
      <trkpt lat="45.20713" lon="6.01464">
        <ele>2083.8</ele>
        <time>2021-02-27T09:21:16Z</time>
      </trkpt>
      <trkpt lat="45.20713" lon="6.01464">
        <ele>2083.8</ele>
        <time>2021-02-27T09:21:17Z</time>
      </trkpt>
      <trkpt lat="45.20713" lon="6.01464">
        <ele>2083.8</ele>
        <time>2021-02-27T09:21:18Z</time>
      </trkpt>
      <trkpt lat="45.20713" lon="6.01464">
        <ele>2083.8</ele>
        <time>2021-02-27T09:21:19Z</time>
      </trkpt>
      <trkpt lat="45.20713" lon="6.01464">
        <ele>2083.6</ele>
        <time>2021-02-27T09:21:20Z</time>
      </trkpt>
      <trkpt lat="45.20713" lon="6.01464">
        <ele>2083.8</ele>
        <time>2021-02-27T09:21:21Z</time>
      </trkpt>
      <trkpt lat="45.20713" lon="6.01464">
        <ele>2083.8</ele>
        <time>2021-02-27T09:21:22Z</time>
      </trkpt>
      <trkpt lat="45.20713" lon="6.01464">
        <ele>2083.8</ele>
        <time>2021-02-27T09:21:23Z</time>
      </trkpt>
      <trkpt lat="45.20713" lon="6.01464">
        <ele>2083.8</ele>
        <time>2021-02-27T09:21:24Z</time>
      </trkpt>
      <trkpt lat="45.20713" lon="6.01464">
        <ele>2083.4</ele>
        <time>2021-02-27T09:21:25Z</time>
      </trkpt>
      <trkpt lat="45.20713" lon="6.01464">
        <ele>2082.8</ele>
        <time>2021-02-27T09:21:26Z</time>
      </trkpt>
      <trkpt lat="45.20716" lon="6.01465">
        <ele>2083</ele>
        <time>2021-02-27T09:21:27Z</time>
      </trkpt>
      <trkpt lat="45.20716" lon="6.01465">
        <ele>2083.2</ele>
        <time>2021-02-27T09:21:28Z</time>
      </trkpt>
      <trkpt lat="45.20718" lon="6.01466">
        <ele>2083.2</ele>
        <time>2021-02-27T09:21:29Z</time>
      </trkpt>
      <trkpt lat="45.20718" lon="6.01466">
        <ele>2083.6</ele>
        <time>2021-02-27T09:21:30Z</time>
      </trkpt>
      <trkpt lat="45.20719" lon="6.01468">
        <ele>2084</ele>
        <time>2021-02-27T09:21:31Z</time>
      </trkpt>
      <trkpt lat="45.20719" lon="6.01468">
        <ele>2084.2</ele>
        <time>2021-02-27T09:21:32Z</time>
      </trkpt>
      <trkpt lat="45.20721" lon="6.0147">
        <ele>2084.4</ele>
        <time>2021-02-27T09:21:33Z</time>
      </trkpt>
      <trkpt lat="45.20721" lon="6.0147">
        <ele>2084.4</ele>
        <time>2021-02-27T09:21:34Z</time>
      </trkpt>
      <trkpt lat="45.20723" lon="6.01473">
        <ele>2084.8</ele>
        <time>2021-02-27T09:21:35Z</time>
      </trkpt>
      <trkpt lat="45.20723" lon="6.01473">
        <ele>2085</ele>
        <time>2021-02-27T09:21:36Z</time>
      </trkpt>
      <trkpt lat="45.20724" lon="6.01475">
        <ele>2085.2</ele>
        <time>2021-02-27T09:21:37Z</time>
      </trkpt>
      <trkpt lat="45.20724" lon="6.01475">
        <ele>2085.2</ele>
        <time>2021-02-27T09:21:38Z</time>
      </trkpt>
      <trkpt lat="45.20724" lon="6.01475">
        <ele>2085.4</ele>
        <time>2021-02-27T09:21:39Z</time>
      </trkpt>
      <trkpt lat="45.20725" lon="6.01477">
        <ele>2085.8</ele>
        <time>2021-02-27T09:21:40Z</time>
      </trkpt>
      <trkpt lat="45.20725" lon="6.01477">
        <ele>2086.2</ele>
        <time>2021-02-27T09:21:41Z</time>
      </trkpt>
      <trkpt lat="45.20725" lon="6.01477">
        <ele>2086.4</ele>
        <time>2021-02-27T09:21:42Z</time>
      </trkpt>
      <trkpt lat="45.20727" lon="6.0148">
        <ele>2086.4</ele>
        <time>2021-02-27T09:21:43Z</time>
      </trkpt>
      <trkpt lat="45.20727" lon="6.0148">
        <ele>2086.6</ele>
        <time>2021-02-27T09:21:44Z</time>
      </trkpt>
      <trkpt lat="45.20729" lon="6.01482">
        <ele>2087</ele>
        <time>2021-02-27T09:21:45Z</time>
      </trkpt>
      <trkpt lat="45.20729" lon="6.01482">
        <ele>2087.2</ele>
        <time>2021-02-27T09:21:46Z</time>
      </trkpt>
      <trkpt lat="45.20729" lon="6.01482">
        <ele>2087.4</ele>
        <time>2021-02-27T09:21:47Z</time>
      </trkpt>
      <trkpt lat="45.2073" lon="6.01484">
        <ele>2087.6</ele>
        <time>2021-02-27T09:21:48Z</time>
      </trkpt>
      <trkpt lat="45.2073" lon="6.01484">
        <ele>2087.8</ele>
        <time>2021-02-27T09:21:49Z</time>
      </trkpt>
      <trkpt lat="45.2073" lon="6.01484">
        <ele>2088</ele>
        <time>2021-02-27T09:21:50Z</time>
      </trkpt>
      <trkpt lat="45.20732" lon="6.01487">
        <ele>2088.2</ele>
        <time>2021-02-27T09:21:51Z</time>
      </trkpt>
      <trkpt lat="45.20732" lon="6.01487">
        <ele>2088.4</ele>
        <time>2021-02-27T09:21:52Z</time>
      </trkpt>
      <trkpt lat="45.20734" lon="6.01489">
        <ele>2088.6</ele>
        <time>2021-02-27T09:21:53Z</time>
      </trkpt>
      <trkpt lat="45.20734" lon="6.01489">
        <ele>2088.6</ele>
        <time>2021-02-27T09:21:54Z</time>
      </trkpt>
      <trkpt lat="45.20736" lon="6.01491">
        <ele>2088.6</ele>
        <time>2021-02-27T09:21:55Z</time>
      </trkpt>
      <trkpt lat="45.20736" lon="6.01491">
        <ele>2089</ele>
        <time>2021-02-27T09:21:56Z</time>
      </trkpt>
      <trkpt lat="45.20736" lon="6.01491">
        <ele>2089</ele>
        <time>2021-02-27T09:21:57Z</time>
      </trkpt>
      <trkpt lat="45.20737" lon="6.01494">
        <ele>2089.2</ele>
        <time>2021-02-27T09:21:58Z</time>
      </trkpt>
      <trkpt lat="45.20737" lon="6.01494">
        <ele>2089</ele>
        <time>2021-02-27T09:21:59Z</time>
      </trkpt>
      <trkpt lat="45.20737" lon="6.01494">
        <ele>2089.4</ele>
        <time>2021-02-27T09:22:00Z</time>
      </trkpt>
      <trkpt lat="45.20739" lon="6.01497">
        <ele>2089.8</ele>
        <time>2021-02-27T09:22:01Z</time>
      </trkpt>
      <trkpt lat="45.20739" lon="6.01497">
        <ele>2089.8</ele>
        <time>2021-02-27T09:22:02Z</time>
      </trkpt>
      <trkpt lat="45.20739" lon="6.01497">
        <ele>2090.2</ele>
        <time>2021-02-27T09:22:03Z</time>
      </trkpt>
      <trkpt lat="45.2074" lon="6.01501">
        <ele>2090.6</ele>
        <time>2021-02-27T09:22:04Z</time>
      </trkpt>
      <trkpt lat="45.2074" lon="6.01501">
        <ele>2090.8</ele>
        <time>2021-02-27T09:22:05Z</time>
      </trkpt>
      <trkpt lat="45.2074" lon="6.01501">
        <ele>2091</ele>
        <time>2021-02-27T09:22:06Z</time>
      </trkpt>
      <trkpt lat="45.2074" lon="6.01501">
        <ele>2091.2</ele>
        <time>2021-02-27T09:22:07Z</time>
      </trkpt>
      <trkpt lat="45.2074" lon="6.01501">
        <ele>2091.2</ele>
        <time>2021-02-27T09:22:08Z</time>
      </trkpt>
      <trkpt lat="45.20741" lon="6.01504">
        <ele>2091</ele>
        <time>2021-02-27T09:22:09Z</time>
      </trkpt>
      <trkpt lat="45.20741" lon="6.01504">
        <ele>2091</ele>
        <time>2021-02-27T09:22:10Z</time>
      </trkpt>
      <trkpt lat="45.20741" lon="6.01504">
        <ele>2091.2</ele>
        <time>2021-02-27T09:22:11Z</time>
      </trkpt>
      <trkpt lat="45.20741" lon="6.01507">
        <ele>2091.4</ele>
        <time>2021-02-27T09:22:12Z</time>
      </trkpt>
      <trkpt lat="45.20741" lon="6.01507">
        <ele>2091.2</ele>
        <time>2021-02-27T09:22:13Z</time>
      </trkpt>
      <trkpt lat="45.20741" lon="6.01507">
        <ele>2091.8</ele>
        <time>2021-02-27T09:22:14Z</time>
      </trkpt>
      <trkpt lat="45.20742" lon="6.0151">
        <ele>2092.2</ele>
        <time>2021-02-27T09:22:15Z</time>
      </trkpt>
      <trkpt lat="45.20742" lon="6.0151">
        <ele>2092</ele>
        <time>2021-02-27T09:22:16Z</time>
      </trkpt>
      <trkpt lat="45.20742" lon="6.0151">
        <ele>2092.2</ele>
        <time>2021-02-27T09:22:17Z</time>
      </trkpt>
      <trkpt lat="45.20743" lon="6.01513">
        <ele>2092.6</ele>
        <time>2021-02-27T09:22:18Z</time>
      </trkpt>
      <trkpt lat="45.20743" lon="6.01513">
        <ele>2093</ele>
        <time>2021-02-27T09:22:19Z</time>
      </trkpt>
      <trkpt lat="45.20743" lon="6.01513">
        <ele>2093.4</ele>
        <time>2021-02-27T09:22:20Z</time>
      </trkpt>
      <trkpt lat="45.20744" lon="6.01517">
        <ele>2093.8</ele>
        <time>2021-02-27T09:22:21Z</time>
      </trkpt>
      <trkpt lat="45.20744" lon="6.01517">
        <ele>2093.8</ele>
        <time>2021-02-27T09:22:22Z</time>
      </trkpt>
      <trkpt lat="45.20744" lon="6.01517">
        <ele>2093.8</ele>
        <time>2021-02-27T09:22:23Z</time>
      </trkpt>
      <trkpt lat="45.20744" lon="6.01519">
        <ele>2094</ele>
        <time>2021-02-27T09:22:24Z</time>
      </trkpt>
      <trkpt lat="45.20744" lon="6.01519">
        <ele>2094</ele>
        <time>2021-02-27T09:22:25Z</time>
      </trkpt>
      <trkpt lat="45.20744" lon="6.01519">
        <ele>2094.4</ele>
        <time>2021-02-27T09:22:26Z</time>
      </trkpt>
      <trkpt lat="45.20745" lon="6.01522">
        <ele>2094.6</ele>
        <time>2021-02-27T09:22:27Z</time>
      </trkpt>
      <trkpt lat="45.20745" lon="6.01522">
        <ele>2095</ele>
        <time>2021-02-27T09:22:28Z</time>
      </trkpt>
      <trkpt lat="45.20745" lon="6.01522">
        <ele>2095</ele>
        <time>2021-02-27T09:22:29Z</time>
      </trkpt>
      <trkpt lat="45.20746" lon="6.01525">
        <ele>2095.2</ele>
        <time>2021-02-27T09:22:30Z</time>
      </trkpt>
      <trkpt lat="45.20746" lon="6.01525">
        <ele>2095.6</ele>
        <time>2021-02-27T09:22:31Z</time>
      </trkpt>
      <trkpt lat="45.20748" lon="6.01527">
        <ele>2095.8</ele>
        <time>2021-02-27T09:22:32Z</time>
      </trkpt>
      <trkpt lat="45.20748" lon="6.01527">
        <ele>2096</ele>
        <time>2021-02-27T09:22:33Z</time>
      </trkpt>
      <trkpt lat="45.20748" lon="6.01527">
        <ele>2096.2</ele>
        <time>2021-02-27T09:22:34Z</time>
      </trkpt>
      <trkpt lat="45.20749" lon="6.0153">
        <ele>2096.6</ele>
        <time>2021-02-27T09:22:35Z</time>
      </trkpt>
      <trkpt lat="45.20749" lon="6.0153">
        <ele>2096.8</ele>
        <time>2021-02-27T09:22:36Z</time>
      </trkpt>
      <trkpt lat="45.20749" lon="6.0153">
        <ele>2097</ele>
        <time>2021-02-27T09:22:37Z</time>
      </trkpt>
      <trkpt lat="45.20749" lon="6.0153">
        <ele>2097</ele>
        <time>2021-02-27T09:22:38Z</time>
      </trkpt>
      <trkpt lat="45.20749" lon="6.0153">
        <ele>2097</ele>
        <time>2021-02-27T09:22:39Z</time>
      </trkpt>
      <trkpt lat="45.20749" lon="6.0153">
        <ele>2097</ele>
        <time>2021-02-27T09:22:40Z</time>
      </trkpt>
      <trkpt lat="45.2075" lon="6.01532">
        <ele>2097.2</ele>
        <time>2021-02-27T09:22:41Z</time>
      </trkpt>
      <trkpt lat="45.2075" lon="6.01532">
        <ele>2097.4</ele>
        <time>2021-02-27T09:22:42Z</time>
      </trkpt>
      <trkpt lat="45.2075" lon="6.01532">
        <ele>2097.4</ele>
        <time>2021-02-27T09:22:43Z</time>
      </trkpt>
      <trkpt lat="45.20752" lon="6.01534">
        <ele>2097.8</ele>
        <time>2021-02-27T09:22:44Z</time>
      </trkpt>
      <trkpt lat="45.20752" lon="6.01534">
        <ele>2098.2</ele>
        <time>2021-02-27T09:22:45Z</time>
      </trkpt>
      <trkpt lat="45.20754" lon="6.01536">
        <ele>2098.2</ele>
        <time>2021-02-27T09:22:46Z</time>
      </trkpt>
      <trkpt lat="45.20754" lon="6.01536">
        <ele>2098.8</ele>
        <time>2021-02-27T09:22:47Z</time>
      </trkpt>
      <trkpt lat="45.20755" lon="6.01538">
        <ele>2099.2</ele>
        <time>2021-02-27T09:22:48Z</time>
      </trkpt>
      <trkpt lat="45.20755" lon="6.01538">
        <ele>2099</ele>
        <time>2021-02-27T09:22:49Z</time>
      </trkpt>
      <trkpt lat="45.20758" lon="6.0154">
        <ele>2099.2</ele>
        <time>2021-02-27T09:22:50Z</time>
      </trkpt>
      <trkpt lat="45.20758" lon="6.0154">
        <ele>2099.4</ele>
        <time>2021-02-27T09:22:51Z</time>
      </trkpt>
      <trkpt lat="45.20759" lon="6.01542">
        <ele>2099.2</ele>
        <time>2021-02-27T09:22:52Z</time>
      </trkpt>
      <trkpt lat="45.20759" lon="6.01542">
        <ele>2099</ele>
        <time>2021-02-27T09:22:53Z</time>
      </trkpt>
      <trkpt lat="45.20761" lon="6.01544">
        <ele>2099.4</ele>
        <time>2021-02-27T09:22:54Z</time>
      </trkpt>
      <trkpt lat="45.20761" lon="6.01544">
        <ele>2099.6</ele>
        <time>2021-02-27T09:22:55Z</time>
      </trkpt>
      <trkpt lat="45.20761" lon="6.01544">
        <ele>2099.4</ele>
        <time>2021-02-27T09:22:56Z</time>
      </trkpt>
      <trkpt lat="45.20763" lon="6.01546">
        <ele>2099.6</ele>
        <time>2021-02-27T09:22:57Z</time>
      </trkpt>
      <trkpt lat="45.20763" lon="6.01546">
        <ele>2099.6</ele>
        <time>2021-02-27T09:22:58Z</time>
      </trkpt>
      <trkpt lat="45.20764" lon="6.01548">
        <ele>2100.2</ele>
        <time>2021-02-27T09:22:59Z</time>
      </trkpt>
      <trkpt lat="45.20764" lon="6.01548">
        <ele>2100.2</ele>
        <time>2021-02-27T09:23:00Z</time>
      </trkpt>
      <trkpt lat="45.20765" lon="6.0155">
        <ele>2100.4</ele>
        <time>2021-02-27T09:23:01Z</time>
      </trkpt>
      <trkpt lat="45.20765" lon="6.0155">
        <ele>2100.8</ele>
        <time>2021-02-27T09:23:02Z</time>
      </trkpt>
      <trkpt lat="45.20765" lon="6.0155">
        <ele>2101</ele>
        <time>2021-02-27T09:23:03Z</time>
      </trkpt>
      <trkpt lat="45.20766" lon="6.01552">
        <ele>2101</ele>
        <time>2021-02-27T09:23:04Z</time>
      </trkpt>
      <trkpt lat="45.20766" lon="6.01552">
        <ele>2101.8</ele>
        <time>2021-02-27T09:23:05Z</time>
      </trkpt>
      <trkpt lat="45.20768" lon="6.01555">
        <ele>2102</ele>
        <time>2021-02-27T09:23:06Z</time>
      </trkpt>
      <trkpt lat="45.20768" lon="6.01555">
        <ele>2102</ele>
        <time>2021-02-27T09:23:07Z</time>
      </trkpt>
      <trkpt lat="45.20769" lon="6.01557">
        <ele>2102.4</ele>
        <time>2021-02-27T09:23:08Z</time>
      </trkpt>
      <trkpt lat="45.20769" lon="6.01557">
        <ele>2102.6</ele>
        <time>2021-02-27T09:23:09Z</time>
      </trkpt>
      <trkpt lat="45.20769" lon="6.01557">
        <ele>2102.6</ele>
        <time>2021-02-27T09:23:10Z</time>
      </trkpt>
      <trkpt lat="45.2077" lon="6.01561">
        <ele>2103</ele>
        <time>2021-02-27T09:23:11Z</time>
      </trkpt>
      <trkpt lat="45.2077" lon="6.01561">
        <ele>2102.8</ele>
        <time>2021-02-27T09:23:12Z</time>
      </trkpt>
      <trkpt lat="45.2077" lon="6.01561">
        <ele>2103.2</ele>
        <time>2021-02-27T09:23:13Z</time>
      </trkpt>
      <trkpt lat="45.20771" lon="6.01564">
        <ele>2103.6</ele>
        <time>2021-02-27T09:23:14Z</time>
      </trkpt>
      <trkpt lat="45.20771" lon="6.01564">
        <ele>2103.6</ele>
        <time>2021-02-27T09:23:15Z</time>
      </trkpt>
      <trkpt lat="45.20772" lon="6.01566">
        <ele>2104</ele>
        <time>2021-02-27T09:23:16Z</time>
      </trkpt>
      <trkpt lat="45.20772" lon="6.01566">
        <ele>2104.6</ele>
        <time>2021-02-27T09:23:17Z</time>
      </trkpt>
      <trkpt lat="45.20772" lon="6.01566">
        <ele>2104.8</ele>
        <time>2021-02-27T09:23:18Z</time>
      </trkpt>
      <trkpt lat="45.20772" lon="6.01566">
        <ele>2105.2</ele>
        <time>2021-02-27T09:23:19Z</time>
      </trkpt>
      <trkpt lat="45.20773" lon="6.01569">
        <ele>2105.2</ele>
        <time>2021-02-27T09:23:20Z</time>
      </trkpt>
      <trkpt lat="45.20773" lon="6.01569">
        <ele>2105.4</ele>
        <time>2021-02-27T09:23:21Z</time>
      </trkpt>
      <trkpt lat="45.20773" lon="6.01569">
        <ele>2105.2</ele>
        <time>2021-02-27T09:23:22Z</time>
      </trkpt>
      <trkpt lat="45.20774" lon="6.01571">
        <ele>2105.2</ele>
        <time>2021-02-27T09:23:23Z</time>
      </trkpt>
      <trkpt lat="45.20774" lon="6.01571">
        <ele>2105.4</ele>
        <time>2021-02-27T09:23:24Z</time>
      </trkpt>
      <trkpt lat="45.20774" lon="6.01571">
        <ele>2105.6</ele>
        <time>2021-02-27T09:23:25Z</time>
      </trkpt>
      <trkpt lat="45.20775" lon="6.01574">
        <ele>2105.6</ele>
        <time>2021-02-27T09:23:26Z</time>
      </trkpt>
      <trkpt lat="45.20775" lon="6.01574">
        <ele>2105.8</ele>
        <time>2021-02-27T09:23:27Z</time>
      </trkpt>
      <trkpt lat="45.20775" lon="6.01574">
        <ele>2105.8</ele>
        <time>2021-02-27T09:23:28Z</time>
      </trkpt>
      <trkpt lat="45.20776" lon="6.01577">
        <ele>2106.4</ele>
        <time>2021-02-27T09:23:29Z</time>
      </trkpt>
      <trkpt lat="45.20776" lon="6.01577">
        <ele>2106.4</ele>
        <time>2021-02-27T09:23:30Z</time>
      </trkpt>
      <trkpt lat="45.20776" lon="6.01577">
        <ele>2106.6</ele>
        <time>2021-02-27T09:23:31Z</time>
      </trkpt>
      <trkpt lat="45.20777" lon="6.0158">
        <ele>2106.8</ele>
        <time>2021-02-27T09:23:32Z</time>
      </trkpt>
      <trkpt lat="45.20777" lon="6.0158">
        <ele>2106.8</ele>
        <time>2021-02-27T09:23:33Z</time>
      </trkpt>
      <trkpt lat="45.20778" lon="6.01582">
        <ele>2107.2</ele>
        <time>2021-02-27T09:23:34Z</time>
      </trkpt>
      <trkpt lat="45.20778" lon="6.01582">
        <ele>2107.2</ele>
        <time>2021-02-27T09:23:35Z</time>
      </trkpt>
      <trkpt lat="45.20778" lon="6.01582">
        <ele>2107.6</ele>
        <time>2021-02-27T09:23:36Z</time>
      </trkpt>
      <trkpt lat="45.20779" lon="6.01585">
        <ele>2108</ele>
        <time>2021-02-27T09:23:37Z</time>
      </trkpt>
      <trkpt lat="45.20779" lon="6.01585">
        <ele>2108</ele>
        <time>2021-02-27T09:23:38Z</time>
      </trkpt>
      <trkpt lat="45.20779" lon="6.01585">
        <ele>2108.4</ele>
        <time>2021-02-27T09:23:39Z</time>
      </trkpt>
      <trkpt lat="45.2078" lon="6.01588">
        <ele>2108.4</ele>
        <time>2021-02-27T09:23:40Z</time>
      </trkpt>
      <trkpt lat="45.2078" lon="6.01588">
        <ele>2108.6</ele>
        <time>2021-02-27T09:23:41Z</time>
      </trkpt>
      <trkpt lat="45.2078" lon="6.01588">
        <ele>2109</ele>
        <time>2021-02-27T09:23:42Z</time>
      </trkpt>
      <trkpt lat="45.20781" lon="6.01592">
        <ele>2109.2</ele>
        <time>2021-02-27T09:23:43Z</time>
      </trkpt>
      <trkpt lat="45.20781" lon="6.01592">
        <ele>2109.4</ele>
        <time>2021-02-27T09:23:44Z</time>
      </trkpt>
      <trkpt lat="45.20781" lon="6.01592">
        <ele>2109.8</ele>
        <time>2021-02-27T09:23:45Z</time>
      </trkpt>
      <trkpt lat="45.20782" lon="6.01596">
        <ele>2109.8</ele>
        <time>2021-02-27T09:23:46Z</time>
      </trkpt>
      <trkpt lat="45.20782" lon="6.01596">
        <ele>2110</ele>
        <time>2021-02-27T09:23:47Z</time>
      </trkpt>
      <trkpt lat="45.20782" lon="6.01596">
        <ele>2110.4</ele>
        <time>2021-02-27T09:23:48Z</time>
      </trkpt>
      <trkpt lat="45.20783" lon="6.016">
        <ele>2110.6</ele>
        <time>2021-02-27T09:23:49Z</time>
      </trkpt>
      <trkpt lat="45.20783" lon="6.016">
        <ele>2110.8</ele>
        <time>2021-02-27T09:23:50Z</time>
      </trkpt>
      <trkpt lat="45.20783" lon="6.016">
        <ele>2111.2</ele>
        <time>2021-02-27T09:23:51Z</time>
      </trkpt>
      <trkpt lat="45.20785" lon="6.01603">
        <ele>2111.2</ele>
        <time>2021-02-27T09:23:52Z</time>
      </trkpt>
      <trkpt lat="45.20785" lon="6.01603">
        <ele>2111.4</ele>
        <time>2021-02-27T09:23:53Z</time>
      </trkpt>
      <trkpt lat="45.20786" lon="6.01606">
        <ele>2111.6</ele>
        <time>2021-02-27T09:23:54Z</time>
      </trkpt>
      <trkpt lat="45.20786" lon="6.01606">
        <ele>2111.8</ele>
        <time>2021-02-27T09:23:55Z</time>
      </trkpt>
      <trkpt lat="45.20786" lon="6.0161">
        <ele>2111.8</ele>
        <time>2021-02-27T09:23:56Z</time>
      </trkpt>
      <trkpt lat="45.20786" lon="6.0161">
        <ele>2112.2</ele>
        <time>2021-02-27T09:23:57Z</time>
      </trkpt>
      <trkpt lat="45.20787" lon="6.01613">
        <ele>2112.2</ele>
        <time>2021-02-27T09:23:58Z</time>
      </trkpt>
      <trkpt lat="45.20787" lon="6.01613">
        <ele>2112</ele>
        <time>2021-02-27T09:23:59Z</time>
      </trkpt>
      <trkpt lat="45.20787" lon="6.01616">
        <ele>2112</ele>
        <time>2021-02-27T09:24:00Z</time>
      </trkpt>
      <trkpt lat="45.20787" lon="6.01616">
        <ele>2112</ele>
        <time>2021-02-27T09:24:01Z</time>
      </trkpt>
      <trkpt lat="45.20787" lon="6.01619">
        <ele>2112</ele>
        <time>2021-02-27T09:24:02Z</time>
      </trkpt>
      <trkpt lat="45.20787" lon="6.01619">
        <ele>2112.4</ele>
        <time>2021-02-27T09:24:03Z</time>
      </trkpt>
      <trkpt lat="45.20787" lon="6.01623">
        <ele>2112.4</ele>
        <time>2021-02-27T09:24:04Z</time>
      </trkpt>
      <trkpt lat="45.20787" lon="6.01623">
        <ele>2112.4</ele>
        <time>2021-02-27T09:24:05Z</time>
      </trkpt>
      <trkpt lat="45.20787" lon="6.01623">
        <ele>2112.8</ele>
        <time>2021-02-27T09:24:06Z</time>
      </trkpt>
      <trkpt lat="45.20787" lon="6.01627">
        <ele>2112.8</ele>
        <time>2021-02-27T09:24:07Z</time>
      </trkpt>
      <trkpt lat="45.20787" lon="6.01627">
        <ele>2113</ele>
        <time>2021-02-27T09:24:08Z</time>
      </trkpt>
      <trkpt lat="45.20787" lon="6.0163">
        <ele>2113.2</ele>
        <time>2021-02-27T09:24:09Z</time>
      </trkpt>
      <trkpt lat="45.20787" lon="6.0163">
        <ele>2113.4</ele>
        <time>2021-02-27T09:24:10Z</time>
      </trkpt>
      <trkpt lat="45.20787" lon="6.01633">
        <ele>2114</ele>
        <time>2021-02-27T09:24:11Z</time>
      </trkpt>
      <trkpt lat="45.20787" lon="6.01633">
        <ele>2114.2</ele>
        <time>2021-02-27T09:24:12Z</time>
      </trkpt>
      <trkpt lat="45.20786" lon="6.01635">
        <ele>2114.6</ele>
        <time>2021-02-27T09:24:13Z</time>
      </trkpt>
      <trkpt lat="45.20786" lon="6.01635">
        <ele>2114.6</ele>
        <time>2021-02-27T09:24:14Z</time>
      </trkpt>
      <trkpt lat="45.20786" lon="6.01638">
        <ele>2114.8</ele>
        <time>2021-02-27T09:24:15Z</time>
      </trkpt>
      <trkpt lat="45.20786" lon="6.01638">
        <ele>2115</ele>
        <time>2021-02-27T09:24:16Z</time>
      </trkpt>
      <trkpt lat="45.20787" lon="6.01641">
        <ele>2115</ele>
        <time>2021-02-27T09:24:17Z</time>
      </trkpt>
      <trkpt lat="45.20787" lon="6.01641">
        <ele>2115.4</ele>
        <time>2021-02-27T09:24:18Z</time>
      </trkpt>
      <trkpt lat="45.20787" lon="6.01644">
        <ele>2115.6</ele>
        <time>2021-02-27T09:24:19Z</time>
      </trkpt>
      <trkpt lat="45.20787" lon="6.01644">
        <ele>2115.8</ele>
        <time>2021-02-27T09:24:20Z</time>
      </trkpt>
      <trkpt lat="45.20787" lon="6.01644">
        <ele>2116</ele>
        <time>2021-02-27T09:24:21Z</time>
      </trkpt>
      <trkpt lat="45.20787" lon="6.01648">
        <ele>2116.2</ele>
        <time>2021-02-27T09:24:22Z</time>
      </trkpt>
      <trkpt lat="45.20787" lon="6.01648">
        <ele>2116.4</ele>
        <time>2021-02-27T09:24:23Z</time>
      </trkpt>
      <trkpt lat="45.20786" lon="6.01651">
        <ele>2116.4</ele>
        <time>2021-02-27T09:24:24Z</time>
      </trkpt>
      <trkpt lat="45.20786" lon="6.01651">
        <ele>2116.6</ele>
        <time>2021-02-27T09:24:25Z</time>
      </trkpt>
      <trkpt lat="45.20786" lon="6.01654">
        <ele>2116.6</ele>
        <time>2021-02-27T09:24:26Z</time>
      </trkpt>
      <trkpt lat="45.20786" lon="6.01654">
        <ele>2117.2</ele>
        <time>2021-02-27T09:24:27Z</time>
      </trkpt>
      <trkpt lat="45.20785" lon="6.01657">
        <ele>2117.6</ele>
        <time>2021-02-27T09:24:28Z</time>
      </trkpt>
      <trkpt lat="45.20785" lon="6.01657">
        <ele>2117.6</ele>
        <time>2021-02-27T09:24:29Z</time>
      </trkpt>
      <trkpt lat="45.20785" lon="6.0166">
        <ele>2118</ele>
        <time>2021-02-27T09:24:30Z</time>
      </trkpt>
      <trkpt lat="45.20785" lon="6.0166">
        <ele>2118.2</ele>
        <time>2021-02-27T09:24:31Z</time>
      </trkpt>
      <trkpt lat="45.20785" lon="6.0166">
        <ele>2118.6</ele>
        <time>2021-02-27T09:24:32Z</time>
      </trkpt>
      <trkpt lat="45.20785" lon="6.01664">
        <ele>2119</ele>
        <time>2021-02-27T09:24:33Z</time>
      </trkpt>
      <trkpt lat="45.20785" lon="6.01664">
        <ele>2119.4</ele>
        <time>2021-02-27T09:24:34Z</time>
      </trkpt>
      <trkpt lat="45.20785" lon="6.01667">
        <ele>2119.8</ele>
        <time>2021-02-27T09:24:35Z</time>
      </trkpt>
      <trkpt lat="45.20785" lon="6.01667">
        <ele>2120.2</ele>
        <time>2021-02-27T09:24:36Z</time>
      </trkpt>
      <trkpt lat="45.20786" lon="6.0167">
        <ele>2120.8</ele>
        <time>2021-02-27T09:24:37Z</time>
      </trkpt>
      <trkpt lat="45.20786" lon="6.0167">
        <ele>2121.2</ele>
        <time>2021-02-27T09:24:38Z</time>
      </trkpt>
      <trkpt lat="45.20786" lon="6.0167">
        <ele>2121.2</ele>
        <time>2021-02-27T09:24:39Z</time>
      </trkpt>
      <trkpt lat="45.20786" lon="6.01673">
        <ele>2121.4</ele>
        <time>2021-02-27T09:24:40Z</time>
      </trkpt>
      <trkpt lat="45.20786" lon="6.01673">
        <ele>2121.8</ele>
        <time>2021-02-27T09:24:41Z</time>
      </trkpt>
      <trkpt lat="45.20786" lon="6.01676">
        <ele>2122</ele>
        <time>2021-02-27T09:24:42Z</time>
      </trkpt>
      <trkpt lat="45.20786" lon="6.01676">
        <ele>2122.4</ele>
        <time>2021-02-27T09:24:43Z</time>
      </trkpt>
      <trkpt lat="45.20787" lon="6.01678">
        <ele>2122.6</ele>
        <time>2021-02-27T09:24:44Z</time>
      </trkpt>
      <trkpt lat="45.20787" lon="6.01678">
        <ele>2122.6</ele>
        <time>2021-02-27T09:24:45Z</time>
      </trkpt>
      <trkpt lat="45.20788" lon="6.01681">
        <ele>2123</ele>
        <time>2021-02-27T09:24:46Z</time>
      </trkpt>
      <trkpt lat="45.20788" lon="6.01681">
        <ele>2123.2</ele>
        <time>2021-02-27T09:24:47Z</time>
      </trkpt>
      <trkpt lat="45.2079" lon="6.01683">
        <ele>2123.4</ele>
        <time>2021-02-27T09:24:48Z</time>
      </trkpt>
      <trkpt lat="45.2079" lon="6.01683">
        <ele>2123.8</ele>
        <time>2021-02-27T09:24:49Z</time>
      </trkpt>
      <trkpt lat="45.2079" lon="6.01683">
        <ele>2124.2</ele>
        <time>2021-02-27T09:24:50Z</time>
      </trkpt>
      <trkpt lat="45.2079" lon="6.01683">
        <ele>2124.4</ele>
        <time>2021-02-27T09:24:51Z</time>
      </trkpt>
      <trkpt lat="45.20792" lon="6.01684">
        <ele>2124.8</ele>
        <time>2021-02-27T09:24:52Z</time>
      </trkpt>
      <trkpt lat="45.20792" lon="6.01684">
        <ele>2125</ele>
        <time>2021-02-27T09:24:53Z</time>
      </trkpt>
      <trkpt lat="45.20792" lon="6.01684">
        <ele>2125.2</ele>
        <time>2021-02-27T09:24:54Z</time>
      </trkpt>
      <trkpt lat="45.20793" lon="6.01683">
        <ele>2125.8</ele>
        <time>2021-02-27T09:24:55Z</time>
      </trkpt>
      <trkpt lat="45.20793" lon="6.01683">
        <ele>2125.8</ele>
        <time>2021-02-27T09:24:56Z</time>
      </trkpt>
      <trkpt lat="45.20793" lon="6.01683">
        <ele>2126.2</ele>
        <time>2021-02-27T09:24:57Z</time>
      </trkpt>
      <trkpt lat="45.20795" lon="6.01681">
        <ele>2126.4</ele>
        <time>2021-02-27T09:24:58Z</time>
      </trkpt>
      <trkpt lat="45.20795" lon="6.01681">
        <ele>2126.8</ele>
        <time>2021-02-27T09:24:59Z</time>
      </trkpt>
      <trkpt lat="45.20795" lon="6.01681">
        <ele>2126.6</ele>
        <time>2021-02-27T09:25:00Z</time>
      </trkpt>
      <trkpt lat="45.20797" lon="6.01679">
        <ele>2127</ele>
        <time>2021-02-27T09:25:01Z</time>
      </trkpt>
      <trkpt lat="45.20797" lon="6.01679">
        <ele>2127.2</ele>
        <time>2021-02-27T09:25:02Z</time>
      </trkpt>
      <trkpt lat="45.20797" lon="6.01679">
        <ele>2127.8</ele>
        <time>2021-02-27T09:25:03Z</time>
      </trkpt>
      <trkpt lat="45.20799" lon="6.01678">
        <ele>2127.8</ele>
        <time>2021-02-27T09:25:04Z</time>
      </trkpt>
      <trkpt lat="45.20799" lon="6.01678">
        <ele>2128</ele>
        <time>2021-02-27T09:25:05Z</time>
      </trkpt>
      <trkpt lat="45.20799" lon="6.01678">
        <ele>2128.4</ele>
        <time>2021-02-27T09:25:06Z</time>
      </trkpt>
      <trkpt lat="45.20801" lon="6.01678">
        <ele>2128.4</ele>
        <time>2021-02-27T09:25:07Z</time>
      </trkpt>
      <trkpt lat="45.20801" lon="6.01678">
        <ele>2128.6</ele>
        <time>2021-02-27T09:25:08Z</time>
      </trkpt>
      <trkpt lat="45.20801" lon="6.01678">
        <ele>2128.8</ele>
        <time>2021-02-27T09:25:09Z</time>
      </trkpt>
      <trkpt lat="45.20801" lon="6.01678">
        <ele>2129</ele>
        <time>2021-02-27T09:25:10Z</time>
      </trkpt>
      <trkpt lat="45.20804" lon="6.01677">
        <ele>2129.2</ele>
        <time>2021-02-27T09:25:11Z</time>
      </trkpt>
      <trkpt lat="45.20804" lon="6.01677">
        <ele>2129.6</ele>
        <time>2021-02-27T09:25:12Z</time>
      </trkpt>
      <trkpt lat="45.20804" lon="6.01677">
        <ele>2129.8</ele>
        <time>2021-02-27T09:25:13Z</time>
      </trkpt>
      <trkpt lat="45.20806" lon="6.01677">
        <ele>2130.2</ele>
        <time>2021-02-27T09:25:14Z</time>
      </trkpt>
      <trkpt lat="45.20806" lon="6.01677">
        <ele>2130.4</ele>
        <time>2021-02-27T09:25:15Z</time>
      </trkpt>
      <trkpt lat="45.20806" lon="6.01677">
        <ele>2130.8</ele>
        <time>2021-02-27T09:25:16Z</time>
      </trkpt>
      <trkpt lat="45.20808" lon="6.01677">
        <ele>2131</ele>
        <time>2021-02-27T09:25:17Z</time>
      </trkpt>
      <trkpt lat="45.20808" lon="6.01677">
        <ele>2131.2</ele>
        <time>2021-02-27T09:25:18Z</time>
      </trkpt>
      <trkpt lat="45.20808" lon="6.01677">
        <ele>2131.6</ele>
        <time>2021-02-27T09:25:19Z</time>
      </trkpt>
      <trkpt lat="45.20811" lon="6.01677">
        <ele>2131.6</ele>
        <time>2021-02-27T09:25:20Z</time>
      </trkpt>
      <trkpt lat="45.20811" lon="6.01677">
        <ele>2131.8</ele>
        <time>2021-02-27T09:25:21Z</time>
      </trkpt>
      <trkpt lat="45.20811" lon="6.01677">
        <ele>2132</ele>
        <time>2021-02-27T09:25:22Z</time>
      </trkpt>
      <trkpt lat="45.20814" lon="6.01677">
        <ele>2132.2</ele>
        <time>2021-02-27T09:25:23Z</time>
      </trkpt>
      <trkpt lat="45.20814" lon="6.01677">
        <ele>2132.4</ele>
        <time>2021-02-27T09:25:24Z</time>
      </trkpt>
      <trkpt lat="45.20816" lon="6.01676">
        <ele>2132.6</ele>
        <time>2021-02-27T09:25:25Z</time>
      </trkpt>
      <trkpt lat="45.20816" lon="6.01676">
        <ele>2132.6</ele>
        <time>2021-02-27T09:25:26Z</time>
      </trkpt>
      <trkpt lat="45.20818" lon="6.01675">
        <ele>2132.8</ele>
        <time>2021-02-27T09:25:27Z</time>
      </trkpt>
      <trkpt lat="45.20818" lon="6.01675">
        <ele>2132.6</ele>
        <time>2021-02-27T09:25:28Z</time>
      </trkpt>
      <trkpt lat="45.20819" lon="6.01673">
        <ele>2132.6</ele>
        <time>2021-02-27T09:25:29Z</time>
      </trkpt>
      <trkpt lat="45.20819" lon="6.01673">
        <ele>2132.8</ele>
        <time>2021-02-27T09:25:30Z</time>
      </trkpt>
      <trkpt lat="45.20821" lon="6.01671">
        <ele>2133</ele>
        <time>2021-02-27T09:25:31Z</time>
      </trkpt>
      <trkpt lat="45.20821" lon="6.01671">
        <ele>2133.4</ele>
        <time>2021-02-27T09:25:32Z</time>
      </trkpt>
      <trkpt lat="45.20822" lon="6.01668">
        <ele>2133.4</ele>
        <time>2021-02-27T09:25:33Z</time>
      </trkpt>
      <trkpt lat="45.20822" lon="6.01668">
        <ele>2133.6</ele>
        <time>2021-02-27T09:25:34Z</time>
      </trkpt>
      <trkpt lat="45.20822" lon="6.01668">
        <ele>2133.8</ele>
        <time>2021-02-27T09:25:35Z</time>
      </trkpt>
      <trkpt lat="45.20825" lon="6.01666">
        <ele>2134</ele>
        <time>2021-02-27T09:25:36Z</time>
      </trkpt>
      <trkpt lat="45.20825" lon="6.01666">
        <ele>2134.2</ele>
        <time>2021-02-27T09:25:37Z</time>
      </trkpt>
      <trkpt lat="45.20826" lon="6.01664">
        <ele>2134.4</ele>
        <time>2021-02-27T09:25:38Z</time>
      </trkpt>
      <trkpt lat="45.20826" lon="6.01664">
        <ele>2134.6</ele>
        <time>2021-02-27T09:25:39Z</time>
      </trkpt>
      <trkpt lat="45.20828" lon="6.01663">
        <ele>2135</ele>
        <time>2021-02-27T09:25:40Z</time>
      </trkpt>
      <trkpt lat="45.20828" lon="6.01663">
        <ele>2135.2</ele>
        <time>2021-02-27T09:25:41Z</time>
      </trkpt>
      <trkpt lat="45.20828" lon="6.01663">
        <ele>2135.6</ele>
        <time>2021-02-27T09:25:42Z</time>
      </trkpt>
      <trkpt lat="45.20828" lon="6.01663">
        <ele>2135.8</ele>
        <time>2021-02-27T09:25:43Z</time>
      </trkpt>
      <trkpt lat="45.20831" lon="6.01663">
        <ele>2136.2</ele>
        <time>2021-02-27T09:25:44Z</time>
      </trkpt>
      <trkpt lat="45.20831" lon="6.01663">
        <ele>2136.6</ele>
        <time>2021-02-27T09:25:45Z</time>
      </trkpt>
      <trkpt lat="45.20831" lon="6.01663">
        <ele>2136.8</ele>
        <time>2021-02-27T09:25:46Z</time>
      </trkpt>
      <trkpt lat="45.20834" lon="6.01663">
        <ele>2137</ele>
        <time>2021-02-27T09:25:47Z</time>
      </trkpt>
      <trkpt lat="45.20834" lon="6.01663">
        <ele>2137.2</ele>
        <time>2021-02-27T09:25:48Z</time>
      </trkpt>
      <trkpt lat="45.20834" lon="6.01663">
        <ele>2137.6</ele>
        <time>2021-02-27T09:25:49Z</time>
      </trkpt>
      <trkpt lat="45.20835" lon="6.01665">
        <ele>2137.8</ele>
        <time>2021-02-27T09:25:50Z</time>
      </trkpt>
      <trkpt lat="45.20835" lon="6.01665">
        <ele>2138.4</ele>
        <time>2021-02-27T09:25:51Z</time>
      </trkpt>
      <trkpt lat="45.20835" lon="6.01665">
        <ele>2138.4</ele>
        <time>2021-02-27T09:25:52Z</time>
      </trkpt>
      <trkpt lat="45.20836" lon="6.01668">
        <ele>2138.8</ele>
        <time>2021-02-27T09:25:53Z</time>
      </trkpt>
      <trkpt lat="45.20836" lon="6.01668">
        <ele>2139.4</ele>
        <time>2021-02-27T09:25:54Z</time>
      </trkpt>
      <trkpt lat="45.20836" lon="6.01671">
        <ele>2139.4</ele>
        <time>2021-02-27T09:25:55Z</time>
      </trkpt>
      <trkpt lat="45.20836" lon="6.01671">
        <ele>2139.8</ele>
        <time>2021-02-27T09:25:56Z</time>
      </trkpt>
      <trkpt lat="45.20836" lon="6.01671">
        <ele>2140.4</ele>
        <time>2021-02-27T09:25:57Z</time>
      </trkpt>
      <trkpt lat="45.20837" lon="6.01675">
        <ele>2140.2</ele>
        <time>2021-02-27T09:25:58Z</time>
      </trkpt>
      <trkpt lat="45.20837" lon="6.01675">
        <ele>2140.6</ele>
        <time>2021-02-27T09:25:59Z</time>
      </trkpt>
      <trkpt lat="45.20837" lon="6.01675">
        <ele>2141</ele>
        <time>2021-02-27T09:26:00Z</time>
      </trkpt>
      <trkpt lat="45.20837" lon="6.01679">
        <ele>2141</ele>
        <time>2021-02-27T09:26:01Z</time>
      </trkpt>
      <trkpt lat="45.20837" lon="6.01679">
        <ele>2141.2</ele>
        <time>2021-02-27T09:26:02Z</time>
      </trkpt>
      <trkpt lat="45.20837" lon="6.01681">
        <ele>2141.8</ele>
        <time>2021-02-27T09:26:03Z</time>
      </trkpt>
      <trkpt lat="45.20837" lon="6.01681">
        <ele>2141.6</ele>
        <time>2021-02-27T09:26:04Z</time>
      </trkpt>
      <trkpt lat="45.20837" lon="6.01681">
        <ele>2142.2</ele>
        <time>2021-02-27T09:26:05Z</time>
      </trkpt>
      <trkpt lat="45.20838" lon="6.01685">
        <ele>2142.6</ele>
        <time>2021-02-27T09:26:06Z</time>
      </trkpt>
      <trkpt lat="45.20838" lon="6.01685">
        <ele>2142.6</ele>
        <time>2021-02-27T09:26:07Z</time>
      </trkpt>
      <trkpt lat="45.20838" lon="6.01688">
        <ele>2143.2</ele>
        <time>2021-02-27T09:26:08Z</time>
      </trkpt>
      <trkpt lat="45.20838" lon="6.01688">
        <ele>2143.4</ele>
        <time>2021-02-27T09:26:09Z</time>
      </trkpt>
      <trkpt lat="45.20839" lon="6.0169">
        <ele>2143.4</ele>
        <time>2021-02-27T09:26:10Z</time>
      </trkpt>
      <trkpt lat="45.20839" lon="6.0169">
        <ele>2144</ele>
        <time>2021-02-27T09:26:11Z</time>
      </trkpt>
      <trkpt lat="45.20841" lon="6.01692">
        <ele>2144</ele>
        <time>2021-02-27T09:26:12Z</time>
      </trkpt>
      <trkpt lat="45.20841" lon="6.01692">
        <ele>2144.2</ele>
        <time>2021-02-27T09:26:13Z</time>
      </trkpt>
      <trkpt lat="45.20842" lon="6.01695">
        <ele>2144.6</ele>
        <time>2021-02-27T09:26:14Z</time>
      </trkpt>
      <trkpt lat="45.20842" lon="6.01695">
        <ele>2144.8</ele>
        <time>2021-02-27T09:26:15Z</time>
      </trkpt>
      <trkpt lat="45.20842" lon="6.01695">
        <ele>2145</ele>
        <time>2021-02-27T09:26:16Z</time>
      </trkpt>
      <trkpt lat="45.20844" lon="6.01697">
        <ele>2145.4</ele>
        <time>2021-02-27T09:26:17Z</time>
      </trkpt>
      <trkpt lat="45.20844" lon="6.01697">
        <ele>2145.6</ele>
        <time>2021-02-27T09:26:18Z</time>
      </trkpt>
      <trkpt lat="45.20846" lon="6.01699">
        <ele>2145.8</ele>
        <time>2021-02-27T09:26:19Z</time>
      </trkpt>
      <trkpt lat="45.20846" lon="6.01699">
        <ele>2146.4</ele>
        <time>2021-02-27T09:26:20Z</time>
      </trkpt>
      <trkpt lat="45.20846" lon="6.01699">
        <ele>2146.6</ele>
        <time>2021-02-27T09:26:21Z</time>
      </trkpt>
      <trkpt lat="45.20848" lon="6.01701">
        <ele>2146.6</ele>
        <time>2021-02-27T09:26:22Z</time>
      </trkpt>
      <trkpt lat="45.20848" lon="6.01701">
        <ele>2146.8</ele>
        <time>2021-02-27T09:26:23Z</time>
      </trkpt>
      <trkpt lat="45.20848" lon="6.01701">
        <ele>2147</ele>
        <time>2021-02-27T09:26:24Z</time>
      </trkpt>
      <trkpt lat="45.2085" lon="6.01703">
        <ele>2147.4</ele>
        <time>2021-02-27T09:26:25Z</time>
      </trkpt>
      <trkpt lat="45.2085" lon="6.01703">
        <ele>2147.6</ele>
        <time>2021-02-27T09:26:26Z</time>
      </trkpt>
      <trkpt lat="45.20852" lon="6.01705">
        <ele>2147.8</ele>
        <time>2021-02-27T09:26:27Z</time>
      </trkpt>
      <trkpt lat="45.20852" lon="6.01705">
        <ele>2148</ele>
        <time>2021-02-27T09:26:28Z</time>
      </trkpt>
      <trkpt lat="45.20853" lon="6.01707">
        <ele>2148.2</ele>
        <time>2021-02-27T09:26:29Z</time>
      </trkpt>
      <trkpt lat="45.20853" lon="6.01707">
        <ele>2148.2</ele>
        <time>2021-02-27T09:26:30Z</time>
      </trkpt>
      <trkpt lat="45.20854" lon="6.0171">
        <ele>2148.6</ele>
        <time>2021-02-27T09:26:31Z</time>
      </trkpt>
      <trkpt lat="45.20854" lon="6.0171">
        <ele>2148.6</ele>
        <time>2021-02-27T09:26:32Z</time>
      </trkpt>
      <trkpt lat="45.20856" lon="6.01712">
        <ele>2148.8</ele>
        <time>2021-02-27T09:26:33Z</time>
      </trkpt>
      <trkpt lat="45.20856" lon="6.01712">
        <ele>2149.2</ele>
        <time>2021-02-27T09:26:34Z</time>
      </trkpt>
      <trkpt lat="45.20858" lon="6.01715">
        <ele>2149.6</ele>
        <time>2021-02-27T09:26:35Z</time>
      </trkpt>
      <trkpt lat="45.20858" lon="6.01715">
        <ele>2149.6</ele>
        <time>2021-02-27T09:26:36Z</time>
      </trkpt>
      <trkpt lat="45.2086" lon="6.01717">
        <ele>2149.8</ele>
        <time>2021-02-27T09:26:37Z</time>
      </trkpt>
      <trkpt lat="45.2086" lon="6.01717">
        <ele>2150.2</ele>
        <time>2021-02-27T09:26:38Z</time>
      </trkpt>
      <trkpt lat="45.20861" lon="6.0172">
        <ele>2150</ele>
        <time>2021-02-27T09:26:39Z</time>
      </trkpt>
      <trkpt lat="45.20861" lon="6.0172">
        <ele>2149.6</ele>
        <time>2021-02-27T09:26:40Z</time>
      </trkpt>
      <trkpt lat="45.20862" lon="6.01723">
        <ele>2149.8</ele>
        <time>2021-02-27T09:26:41Z</time>
      </trkpt>
      <trkpt lat="45.20862" lon="6.01723">
        <ele>2150</ele>
        <time>2021-02-27T09:26:42Z</time>
      </trkpt>
      <trkpt lat="45.20864" lon="6.01727">
        <ele>2150.2</ele>
        <time>2021-02-27T09:26:43Z</time>
      </trkpt>
      <trkpt lat="45.20864" lon="6.01727">
        <ele>2150.4</ele>
        <time>2021-02-27T09:26:44Z</time>
      </trkpt>
      <trkpt lat="45.20866" lon="6.0173">
        <ele>2150.4</ele>
        <time>2021-02-27T09:26:45Z</time>
      </trkpt>
      <trkpt lat="45.20866" lon="6.0173">
        <ele>2150.4</ele>
        <time>2021-02-27T09:26:46Z</time>
      </trkpt>
      <trkpt lat="45.20868" lon="6.01734">
        <ele>2150.4</ele>
        <time>2021-02-27T09:26:47Z</time>
      </trkpt>
      <trkpt lat="45.20868" lon="6.01734">
        <ele>2150.4</ele>
        <time>2021-02-27T09:26:48Z</time>
      </trkpt>
      <trkpt lat="45.2087" lon="6.01736">
        <ele>2150.4</ele>
        <time>2021-02-27T09:26:49Z</time>
      </trkpt>
      <trkpt lat="45.2087" lon="6.01736">
        <ele>2151</ele>
        <time>2021-02-27T09:26:50Z</time>
      </trkpt>
      <trkpt lat="45.20872" lon="6.01738">
        <ele>2151</ele>
        <time>2021-02-27T09:26:51Z</time>
      </trkpt>
      <trkpt lat="45.20872" lon="6.01738">
        <ele>2151.2</ele>
        <time>2021-02-27T09:26:52Z</time>
      </trkpt>
      <trkpt lat="45.20875" lon="6.01738">
        <ele>2151.4</ele>
        <time>2021-02-27T09:26:53Z</time>
      </trkpt>
      <trkpt lat="45.20875" lon="6.01738">
        <ele>2151.2</ele>
        <time>2021-02-27T09:26:54Z</time>
      </trkpt>
      <trkpt lat="45.20877" lon="6.01738">
        <ele>2151.6</ele>
        <time>2021-02-27T09:26:55Z</time>
      </trkpt>
      <trkpt lat="45.20877" lon="6.01738">
        <ele>2151.4</ele>
        <time>2021-02-27T09:26:56Z</time>
      </trkpt>
      <trkpt lat="45.20879" lon="6.01737">
        <ele>2151.4</ele>
        <time>2021-02-27T09:26:57Z</time>
      </trkpt>
      <trkpt lat="45.20879" lon="6.01737">
        <ele>2151.6</ele>
        <time>2021-02-27T09:26:58Z</time>
      </trkpt>
      <trkpt lat="45.20882" lon="6.01736">
        <ele>2151.4</ele>
        <time>2021-02-27T09:26:59Z</time>
      </trkpt>
      <trkpt lat="45.20882" lon="6.01736">
        <ele>2151.4</ele>
        <time>2021-02-27T09:27:00Z</time>
      </trkpt>
      <trkpt lat="45.20884" lon="6.01736">
        <ele>2151.6</ele>
        <time>2021-02-27T09:27:01Z</time>
      </trkpt>
      <trkpt lat="45.20884" lon="6.01736">
        <ele>2151.6</ele>
        <time>2021-02-27T09:27:02Z</time>
      </trkpt>
      <trkpt lat="45.20884" lon="6.01736">
        <ele>2151.8</ele>
        <time>2021-02-27T09:27:03Z</time>
      </trkpt>
      <trkpt lat="45.20885" lon="6.01733">
        <ele>2152</ele>
        <time>2021-02-27T09:27:04Z</time>
      </trkpt>
      <trkpt lat="45.20885" lon="6.01733">
        <ele>2151.8</ele>
        <time>2021-02-27T09:27:05Z</time>
      </trkpt>
      <trkpt lat="45.20885" lon="6.01733">
        <ele>2152</ele>
        <time>2021-02-27T09:27:06Z</time>
      </trkpt>
      <trkpt lat="45.20887" lon="6.01731">
        <ele>2152.2</ele>
        <time>2021-02-27T09:27:07Z</time>
      </trkpt>
      <trkpt lat="45.20887" lon="6.01731">
        <ele>2152.2</ele>
        <time>2021-02-27T09:27:08Z</time>
      </trkpt>
      <trkpt lat="45.20887" lon="6.01731">
        <ele>2153.2</ele>
        <time>2021-02-27T09:27:09Z</time>
      </trkpt>
      <trkpt lat="45.2089" lon="6.01731">
        <ele>2153.4</ele>
        <time>2021-02-27T09:27:10Z</time>
      </trkpt>
      <trkpt lat="45.2089" lon="6.01731">
        <ele>2153.6</ele>
        <time>2021-02-27T09:27:11Z</time>
      </trkpt>
      <trkpt lat="45.20892" lon="6.01732">
        <ele>2154</ele>
        <time>2021-02-27T09:27:12Z</time>
      </trkpt>
      <trkpt lat="45.20892" lon="6.01732">
        <ele>2154.4</ele>
        <time>2021-02-27T09:27:13Z</time>
      </trkpt>
      <trkpt lat="45.20892" lon="6.01732">
        <ele>2154.8</ele>
        <time>2021-02-27T09:27:14Z</time>
      </trkpt>
      <trkpt lat="45.20894" lon="6.01734">
        <ele>2155</ele>
        <time>2021-02-27T09:27:15Z</time>
      </trkpt>
      <trkpt lat="45.20894" lon="6.01734">
        <ele>2155.8</ele>
        <time>2021-02-27T09:27:16Z</time>
      </trkpt>
      <trkpt lat="45.20896" lon="6.01735">
        <ele>2156.2</ele>
        <time>2021-02-27T09:27:17Z</time>
      </trkpt>
      <trkpt lat="45.20896" lon="6.01735">
        <ele>2156.2</ele>
        <time>2021-02-27T09:27:18Z</time>
      </trkpt>
      <trkpt lat="45.20898" lon="6.01737">
        <ele>2157</ele>
        <time>2021-02-27T09:27:19Z</time>
      </trkpt>
      <trkpt lat="45.20898" lon="6.01737">
        <ele>2157.2</ele>
        <time>2021-02-27T09:27:20Z</time>
      </trkpt>
      <trkpt lat="45.20899" lon="6.01739">
        <ele>2157.6</ele>
        <time>2021-02-27T09:27:21Z</time>
      </trkpt>
      <trkpt lat="45.20899" lon="6.01739">
        <ele>2158.4</ele>
        <time>2021-02-27T09:27:22Z</time>
      </trkpt>
      <trkpt lat="45.20901" lon="6.0174">
        <ele>2158.8</ele>
        <time>2021-02-27T09:27:23Z</time>
      </trkpt>
      <trkpt lat="45.20901" lon="6.0174">
        <ele>2159</ele>
        <time>2021-02-27T09:27:24Z</time>
      </trkpt>
      <trkpt lat="45.20903" lon="6.01742">
        <ele>2159.6</ele>
        <time>2021-02-27T09:27:25Z</time>
      </trkpt>
      <trkpt lat="45.20903" lon="6.01742">
        <ele>2159.8</ele>
        <time>2021-02-27T09:27:26Z</time>
      </trkpt>
      <trkpt lat="45.20905" lon="6.01742">
        <ele>2160</ele>
        <time>2021-02-27T09:27:27Z</time>
      </trkpt>
      <trkpt lat="45.20905" lon="6.01742">
        <ele>2160.6</ele>
        <time>2021-02-27T09:27:28Z</time>
      </trkpt>
      <trkpt lat="45.20907" lon="6.01743">
        <ele>2160.8</ele>
        <time>2021-02-27T09:27:29Z</time>
      </trkpt>
      <trkpt lat="45.20907" lon="6.01743">
        <ele>2161</ele>
        <time>2021-02-27T09:27:30Z</time>
      </trkpt>
      <trkpt lat="45.20909" lon="6.01744">
        <ele>2161.8</ele>
        <time>2021-02-27T09:27:31Z</time>
      </trkpt>
      <trkpt lat="45.20909" lon="6.01744">
        <ele>2162</ele>
        <time>2021-02-27T09:27:32Z</time>
      </trkpt>
      <trkpt lat="45.20911" lon="6.01745">
        <ele>2162</ele>
        <time>2021-02-27T09:27:33Z</time>
      </trkpt>
      <trkpt lat="45.20911" lon="6.01745">
        <ele>2162.8</ele>
        <time>2021-02-27T09:27:34Z</time>
      </trkpt>
      <trkpt lat="45.20913" lon="6.01746">
        <ele>2163</ele>
        <time>2021-02-27T09:27:35Z</time>
      </trkpt>
      <trkpt lat="45.20913" lon="6.01746">
        <ele>2163</ele>
        <time>2021-02-27T09:27:36Z</time>
      </trkpt>
      <trkpt lat="45.20913" lon="6.01746">
        <ele>2163.8</ele>
        <time>2021-02-27T09:27:37Z</time>
      </trkpt>
      <trkpt lat="45.20915" lon="6.01748">
        <ele>2164.2</ele>
        <time>2021-02-27T09:27:38Z</time>
      </trkpt>
      <trkpt lat="45.20915" lon="6.01748">
        <ele>2164.4</ele>
        <time>2021-02-27T09:27:39Z</time>
      </trkpt>
      <trkpt lat="45.20915" lon="6.01748">
        <ele>2165</ele>
        <time>2021-02-27T09:27:40Z</time>
      </trkpt>
      <trkpt lat="45.20916" lon="6.0175">
        <ele>2165.2</ele>
        <time>2021-02-27T09:27:41Z</time>
      </trkpt>
      <trkpt lat="45.20916" lon="6.0175">
        <ele>2165.4</ele>
        <time>2021-02-27T09:27:42Z</time>
      </trkpt>
      <trkpt lat="45.20916" lon="6.0175">
        <ele>2166</ele>
        <time>2021-02-27T09:27:43Z</time>
      </trkpt>
      <trkpt lat="45.20916" lon="6.0175">
        <ele>2166.2</ele>
        <time>2021-02-27T09:27:44Z</time>
      </trkpt>
      <trkpt lat="45.20918" lon="6.01752">
        <ele>2166.6</ele>
        <time>2021-02-27T09:27:45Z</time>
      </trkpt>
      <trkpt lat="45.20918" lon="6.01752">
        <ele>2167</ele>
        <time>2021-02-27T09:27:46Z</time>
      </trkpt>
      <trkpt lat="45.20918" lon="6.01752">
        <ele>2167.2</ele>
        <time>2021-02-27T09:27:47Z</time>
      </trkpt>
      <trkpt lat="45.2092" lon="6.01752">
        <ele>2167.8</ele>
        <time>2021-02-27T09:27:48Z</time>
      </trkpt>
      <trkpt lat="45.2092" lon="6.01752">
        <ele>2168.2</ele>
        <time>2021-02-27T09:27:49Z</time>
      </trkpt>
      <trkpt lat="45.2092" lon="6.01752">
        <ele>2168.4</ele>
        <time>2021-02-27T09:27:50Z</time>
      </trkpt>
      <trkpt lat="45.20922" lon="6.01751">
        <ele>2168.8</ele>
        <time>2021-02-27T09:27:51Z</time>
      </trkpt>
      <trkpt lat="45.20922" lon="6.01751">
        <ele>2169</ele>
        <time>2021-02-27T09:27:52Z</time>
      </trkpt>
      <trkpt lat="45.20922" lon="6.01751">
        <ele>2169.2</ele>
        <time>2021-02-27T09:27:53Z</time>
      </trkpt>
      <trkpt lat="45.20924" lon="6.0175">
        <ele>2169.8</ele>
        <time>2021-02-27T09:27:54Z</time>
      </trkpt>
      <trkpt lat="45.20924" lon="6.0175">
        <ele>2169.8</ele>
        <time>2021-02-27T09:27:55Z</time>
      </trkpt>
      <trkpt lat="45.20924" lon="6.0175">
        <ele>2170</ele>
        <time>2021-02-27T09:27:56Z</time>
      </trkpt>
      <trkpt lat="45.20925" lon="6.01748">
        <ele>2170.6</ele>
        <time>2021-02-27T09:27:57Z</time>
      </trkpt>
      <trkpt lat="45.20925" lon="6.01748">
        <ele>2170.8</ele>
        <time>2021-02-27T09:27:58Z</time>
      </trkpt>
      <trkpt lat="45.20925" lon="6.01748">
        <ele>2171</ele>
        <time>2021-02-27T09:27:59Z</time>
      </trkpt>
      <trkpt lat="45.20927" lon="6.01746">
        <ele>2171.6</ele>
        <time>2021-02-27T09:28:00Z</time>
      </trkpt>
      <trkpt lat="45.20927" lon="6.01746">
        <ele>2171.8</ele>
        <time>2021-02-27T09:28:01Z</time>
      </trkpt>
      <trkpt lat="45.20929" lon="6.01744">
        <ele>2172.2</ele>
        <time>2021-02-27T09:28:02Z</time>
      </trkpt>
      <trkpt lat="45.20929" lon="6.01744">
        <ele>2172.6</ele>
        <time>2021-02-27T09:28:03Z</time>
      </trkpt>
      <trkpt lat="45.20929" lon="6.01744">
        <ele>2172.6</ele>
        <time>2021-02-27T09:28:04Z</time>
      </trkpt>
      <trkpt lat="45.20931" lon="6.01742">
        <ele>2173</ele>
        <time>2021-02-27T09:28:05Z</time>
      </trkpt>
      <trkpt lat="45.20931" lon="6.01742">
        <ele>2173.6</ele>
        <time>2021-02-27T09:28:06Z</time>
      </trkpt>
      <trkpt lat="45.20933" lon="6.0174">
        <ele>2174</ele>
        <time>2021-02-27T09:28:07Z</time>
      </trkpt>
      <trkpt lat="45.20933" lon="6.0174">
        <ele>2174.4</ele>
        <time>2021-02-27T09:28:08Z</time>
      </trkpt>
      <trkpt lat="45.20935" lon="6.01738">
        <ele>2174.4</ele>
        <time>2021-02-27T09:28:09Z</time>
      </trkpt>
      <trkpt lat="45.20935" lon="6.01738">
        <ele>2174.8</ele>
        <time>2021-02-27T09:28:10Z</time>
      </trkpt>
      <trkpt lat="45.20937" lon="6.01737">
        <ele>2174.8</ele>
        <time>2021-02-27T09:28:11Z</time>
      </trkpt>
      <trkpt lat="45.20937" lon="6.01737">
        <ele>2175.2</ele>
        <time>2021-02-27T09:28:12Z</time>
      </trkpt>
      <trkpt lat="45.20937" lon="6.01737">
        <ele>2175.8</ele>
        <time>2021-02-27T09:28:13Z</time>
      </trkpt>
      <trkpt lat="45.20937" lon="6.01737">
        <ele>2175.8</ele>
        <time>2021-02-27T09:28:14Z</time>
      </trkpt>
      <trkpt lat="45.20937" lon="6.01737">
        <ele>2176</ele>
        <time>2021-02-27T09:28:15Z</time>
      </trkpt>
      <trkpt lat="45.20937" lon="6.01737">
        <ele>2176.2</ele>
        <time>2021-02-27T09:28:16Z</time>
      </trkpt>
      <trkpt lat="45.20938" lon="6.01735">
        <ele>2176.4</ele>
        <time>2021-02-27T09:28:17Z</time>
      </trkpt>
      <trkpt lat="45.20938" lon="6.01735">
        <ele>2176.4</ele>
        <time>2021-02-27T09:28:18Z</time>
      </trkpt>
      <trkpt lat="45.20938" lon="6.01735">
        <ele>2176.8</ele>
        <time>2021-02-27T09:28:19Z</time>
      </trkpt>
      <trkpt lat="45.20938" lon="6.01735">
        <ele>2176.6</ele>
        <time>2021-02-27T09:28:20Z</time>
      </trkpt>
      <trkpt lat="45.2094" lon="6.01732">
        <ele>2176.6</ele>
        <time>2021-02-27T09:28:21Z</time>
      </trkpt>
      <trkpt lat="45.2094" lon="6.01732">
        <ele>2176.6</ele>
        <time>2021-02-27T09:28:22Z</time>
      </trkpt>
      <trkpt lat="45.20942" lon="6.0173">
        <ele>2176.2</ele>
        <time>2021-02-27T09:28:23Z</time>
      </trkpt>
      <trkpt lat="45.20942" lon="6.0173">
        <ele>2176.2</ele>
        <time>2021-02-27T09:28:24Z</time>
      </trkpt>
      <trkpt lat="45.20944" lon="6.01727">
        <ele>2176.2</ele>
        <time>2021-02-27T09:28:25Z</time>
      </trkpt>
      <trkpt lat="45.20946" lon="6.01725">
        <ele>2176</ele>
        <time>2021-02-27T09:28:26Z</time>
      </trkpt>
      <trkpt lat="45.20948" lon="6.01723">
        <ele>2175.4</ele>
        <time>2021-02-27T09:28:27Z</time>
      </trkpt>
      <trkpt lat="45.20949" lon="6.01721">
        <ele>2174.8</ele>
        <time>2021-02-27T09:28:28Z</time>
      </trkpt>
      <trkpt lat="45.20949" lon="6.01721">
        <ele>2174.6</ele>
        <time>2021-02-27T09:28:29Z</time>
      </trkpt>
      <trkpt lat="45.20951" lon="6.01718">
        <ele>2174.4</ele>
        <time>2021-02-27T09:28:30Z</time>
      </trkpt>
      <trkpt lat="45.20951" lon="6.01718">
        <ele>2174.2</ele>
        <time>2021-02-27T09:28:31Z</time>
      </trkpt>
      <trkpt lat="45.20951" lon="6.01718">
        <ele>2173.8</ele>
        <time>2021-02-27T09:28:32Z</time>
      </trkpt>
      <trkpt lat="45.20951" lon="6.01718">
        <ele>2173.6</ele>
        <time>2021-02-27T09:28:33Z</time>
      </trkpt>
      <trkpt lat="45.20951" lon="6.01718">
        <ele>2173.4</ele>
        <time>2021-02-27T09:28:34Z</time>
      </trkpt>
      <trkpt lat="45.20951" lon="6.01718">
        <ele>2173.2</ele>
        <time>2021-02-27T09:28:35Z</time>
      </trkpt>
      <trkpt lat="45.20951" lon="6.01718">
        <ele>2173.4</ele>
        <time>2021-02-27T09:28:36Z</time>
      </trkpt>
      <trkpt lat="45.20952" lon="6.01716">
        <ele>2173.8</ele>
        <time>2021-02-27T09:28:37Z</time>
      </trkpt>
      <trkpt lat="45.20952" lon="6.01716">
        <ele>2173.8</ele>
        <time>2021-02-27T09:28:38Z</time>
      </trkpt>
      <trkpt lat="45.20954" lon="6.01714">
        <ele>2173.8</ele>
        <time>2021-02-27T09:28:39Z</time>
      </trkpt>
      <trkpt lat="45.20956" lon="6.01713">
        <ele>2173.6</ele>
        <time>2021-02-27T09:28:40Z</time>
      </trkpt>
      <trkpt lat="45.20958" lon="6.01712">
        <ele>2172.8</ele>
        <time>2021-02-27T09:28:41Z</time>
      </trkpt>
      <trkpt lat="45.20961" lon="6.0171">
        <ele>2172.6</ele>
        <time>2021-02-27T09:28:42Z</time>
      </trkpt>
      <trkpt lat="45.20963" lon="6.01708">
        <ele>2172.2</ele>
        <time>2021-02-27T09:28:43Z</time>
      </trkpt>
      <trkpt lat="45.20966" lon="6.01705">
        <ele>2172</ele>
        <time>2021-02-27T09:28:44Z</time>
      </trkpt>
      <trkpt lat="45.20968" lon="6.01703">
        <ele>2171.4</ele>
        <time>2021-02-27T09:28:45Z</time>
      </trkpt>
      <trkpt lat="45.2097" lon="6.01701">
        <ele>2171</ele>
        <time>2021-02-27T09:28:46Z</time>
      </trkpt>
      <trkpt lat="45.2097" lon="6.01701">
        <ele>2170.4</ele>
        <time>2021-02-27T09:28:47Z</time>
      </trkpt>
      <trkpt lat="45.20973" lon="6.01698">
        <ele>2170</ele>
        <time>2021-02-27T09:28:48Z</time>
      </trkpt>
      <trkpt lat="45.20975" lon="6.01695">
        <ele>2169.6</ele>
        <time>2021-02-27T09:28:49Z</time>
      </trkpt>
      <trkpt lat="45.2098" lon="6.01692">
        <ele>2169.4</ele>
        <time>2021-02-27T09:28:50Z</time>
      </trkpt>
      <trkpt lat="45.20984" lon="6.01689">
        <ele>2168.6</ele>
        <time>2021-02-27T09:28:51Z</time>
      </trkpt>
      <trkpt lat="45.20988" lon="6.01686">
        <ele>2168</ele>
        <time>2021-02-27T09:28:52Z</time>
      </trkpt>
      <trkpt lat="45.20991" lon="6.01685">
        <ele>2167.4</ele>
        <time>2021-02-27T09:28:53Z</time>
      </trkpt>
      <trkpt lat="45.20991" lon="6.01685">
        <ele>2166.8</ele>
        <time>2021-02-27T09:28:54Z</time>
      </trkpt>
      <trkpt lat="45.20993" lon="6.01684">
        <ele>2166.8</ele>
        <time>2021-02-27T09:28:55Z</time>
      </trkpt>
      <trkpt lat="45.20993" lon="6.01684">
        <ele>2166.8</ele>
        <time>2021-02-27T09:28:56Z</time>
      </trkpt>
      <trkpt lat="45.20995" lon="6.01681">
        <ele>2166.4</ele>
        <time>2021-02-27T09:28:57Z</time>
      </trkpt>
      <trkpt lat="45.20995" lon="6.01681">
        <ele>2166.6</ele>
        <time>2021-02-27T09:28:58Z</time>
      </trkpt>
      <trkpt lat="45.20997" lon="6.01679">
        <ele>2166.4</ele>
        <time>2021-02-27T09:28:59Z</time>
      </trkpt>
      <trkpt lat="45.20997" lon="6.01679">
        <ele>2166.2</ele>
        <time>2021-02-27T09:29:00Z</time>
      </trkpt>
      <trkpt lat="45.20998" lon="6.01677">
        <ele>2166.8</ele>
        <time>2021-02-27T09:29:01Z</time>
      </trkpt>
      <trkpt lat="45.20998" lon="6.01677">
        <ele>2166.6</ele>
        <time>2021-02-27T09:29:02Z</time>
      </trkpt>
      <trkpt lat="45.20998" lon="6.01677">
        <ele>2166.6</ele>
        <time>2021-02-27T09:29:03Z</time>
      </trkpt>
      <trkpt lat="45.20998" lon="6.01677">
        <ele>2167</ele>
        <time>2021-02-27T09:29:04Z</time>
      </trkpt>
      <trkpt lat="45.21001" lon="6.01673">
        <ele>2166.8</ele>
        <time>2021-02-27T09:29:05Z</time>
      </trkpt>
      <trkpt lat="45.21001" lon="6.01673">
        <ele>2166.8</ele>
        <time>2021-02-27T09:29:06Z</time>
      </trkpt>
      <trkpt lat="45.21002" lon="6.01671">
        <ele>2167.4</ele>
        <time>2021-02-27T09:29:07Z</time>
      </trkpt>
      <trkpt lat="45.21003" lon="6.0167">
        <ele>2167</ele>
        <time>2021-02-27T09:29:08Z</time>
      </trkpt>
      <trkpt lat="45.21004" lon="6.01669">
        <ele>2167.6</ele>
        <time>2021-02-27T09:29:09Z</time>
      </trkpt>
      <trkpt lat="45.21005" lon="6.01668">
        <ele>2167.4</ele>
        <time>2021-02-27T09:29:10Z</time>
      </trkpt>
      <trkpt lat="45.21005" lon="6.01667">
        <ele>2167.6</ele>
        <time>2021-02-27T09:29:11Z</time>
      </trkpt>
      <trkpt lat="45.21006" lon="6.01666">
        <ele>2168</ele>
        <time>2021-02-27T09:29:12Z</time>
      </trkpt>
      <trkpt lat="45.21007" lon="6.01665">
        <ele>2168</ele>
        <time>2021-02-27T09:29:13Z</time>
      </trkpt>
      <trkpt lat="45.21008" lon="6.01664">
        <ele>2168.2</ele>
        <time>2021-02-27T09:29:14Z</time>
      </trkpt>
      <trkpt lat="45.21009" lon="6.01664">
        <ele>2168.6</ele>
        <time>2021-02-27T09:29:15Z</time>
      </trkpt>
      <trkpt lat="45.2101" lon="6.01664">
        <ele>2168.4</ele>
        <time>2021-02-27T09:29:16Z</time>
      </trkpt>
      <trkpt lat="45.21011" lon="6.01663">
        <ele>2169</ele>
        <time>2021-02-27T09:29:17Z</time>
      </trkpt>
      <trkpt lat="45.21012" lon="6.01663">
        <ele>2169.2</ele>
        <time>2021-02-27T09:29:18Z</time>
      </trkpt>
      <trkpt lat="45.21013" lon="6.01663">
        <ele>2169</ele>
        <time>2021-02-27T09:29:19Z</time>
      </trkpt>
      <trkpt lat="45.21014" lon="6.01663">
        <ele>2169.6</ele>
        <time>2021-02-27T09:29:20Z</time>
      </trkpt>
      <trkpt lat="45.21015" lon="6.01662">
        <ele>2169.8</ele>
        <time>2021-02-27T09:29:21Z</time>
      </trkpt>
      <trkpt lat="45.21016" lon="6.01662">
        <ele>2170</ele>
        <time>2021-02-27T09:29:22Z</time>
      </trkpt>
      <trkpt lat="45.21017" lon="6.01662">
        <ele>2170.4</ele>
        <time>2021-02-27T09:29:23Z</time>
      </trkpt>
      <trkpt lat="45.21018" lon="6.01662">
        <ele>2170.4</ele>
        <time>2021-02-27T09:29:24Z</time>
      </trkpt>
      <trkpt lat="45.21019" lon="6.01663">
        <ele>2170.6</ele>
        <time>2021-02-27T09:29:25Z</time>
      </trkpt>
      <trkpt lat="45.21021" lon="6.01663">
        <ele>2171</ele>
        <time>2021-02-27T09:29:26Z</time>
      </trkpt>
      <trkpt lat="45.21023" lon="6.01664">
        <ele>2170.8</ele>
        <time>2021-02-27T09:29:27Z</time>
      </trkpt>
      <trkpt lat="45.21024" lon="6.01665">
        <ele>2171.2</ele>
        <time>2021-02-27T09:29:28Z</time>
      </trkpt>
      <trkpt lat="45.21026" lon="6.01666">
        <ele>2171.6</ele>
        <time>2021-02-27T09:29:29Z</time>
      </trkpt>
      <trkpt lat="45.21027" lon="6.01666">
        <ele>2171.4</ele>
        <time>2021-02-27T09:29:30Z</time>
      </trkpt>
      <trkpt lat="45.21029" lon="6.01667">
        <ele>2172</ele>
        <time>2021-02-27T09:29:31Z</time>
      </trkpt>
      <trkpt lat="45.2103" lon="6.01668">
        <ele>2172.2</ele>
        <time>2021-02-27T09:29:32Z</time>
      </trkpt>
      <trkpt lat="45.21032" lon="6.01669">
        <ele>2172.2</ele>
        <time>2021-02-27T09:29:33Z</time>
      </trkpt>
      <trkpt lat="45.21033" lon="6.0167">
        <ele>2172.6</ele>
        <time>2021-02-27T09:29:34Z</time>
      </trkpt>
      <trkpt lat="45.21035" lon="6.01671">
        <ele>2172.8</ele>
        <time>2021-02-27T09:29:35Z</time>
      </trkpt>
      <trkpt lat="45.21037" lon="6.01673">
        <ele>2173</ele>
        <time>2021-02-27T09:29:36Z</time>
      </trkpt>
      <trkpt lat="45.21037" lon="6.01673">
        <ele>2173.2</ele>
        <time>2021-02-27T09:29:37Z</time>
      </trkpt>
      <trkpt lat="45.21039" lon="6.01675">
        <ele>2173.8</ele>
        <time>2021-02-27T09:29:38Z</time>
      </trkpt>
      <trkpt lat="45.21039" lon="6.01675">
        <ele>2173.8</ele>
        <time>2021-02-27T09:29:39Z</time>
      </trkpt>
      <trkpt lat="45.21041" lon="6.01677">
        <ele>2173.8</ele>
        <time>2021-02-27T09:29:40Z</time>
      </trkpt>
      <trkpt lat="45.21041" lon="6.01677">
        <ele>2174.4</ele>
        <time>2021-02-27T09:29:41Z</time>
      </trkpt>
      <trkpt lat="45.21043" lon="6.01678">
        <ele>2174.2</ele>
        <time>2021-02-27T09:29:42Z</time>
      </trkpt>
      <trkpt lat="45.21043" lon="6.01678">
        <ele>2174.2</ele>
        <time>2021-02-27T09:29:43Z</time>
      </trkpt>
      <trkpt lat="45.21044" lon="6.01679">
        <ele>2174.6</ele>
        <time>2021-02-27T09:29:44Z</time>
      </trkpt>
      <trkpt lat="45.21044" lon="6.01679">
        <ele>2175</ele>
        <time>2021-02-27T09:29:45Z</time>
      </trkpt>
      <trkpt lat="45.21044" lon="6.01679">
        <ele>2174.8</ele>
        <time>2021-02-27T09:29:46Z</time>
      </trkpt>
      <trkpt lat="45.21047" lon="6.0168">
        <ele>2175.2</ele>
        <time>2021-02-27T09:29:47Z</time>
      </trkpt>
      <trkpt lat="45.21047" lon="6.0168">
        <ele>2175.2</ele>
        <time>2021-02-27T09:29:48Z</time>
      </trkpt>
      <trkpt lat="45.21049" lon="6.01679">
        <ele>2175.6</ele>
        <time>2021-02-27T09:29:49Z</time>
      </trkpt>
      <trkpt lat="45.21049" lon="6.01679">
        <ele>2175.8</ele>
        <time>2021-02-27T09:29:50Z</time>
      </trkpt>
      <trkpt lat="45.21052" lon="6.01678">
        <ele>2175.8</ele>
        <time>2021-02-27T09:29:51Z</time>
      </trkpt>
      <trkpt lat="45.21052" lon="6.01678">
        <ele>2176.2</ele>
        <time>2021-02-27T09:29:52Z</time>
      </trkpt>
      <trkpt lat="45.21054" lon="6.01677">
        <ele>2176.2</ele>
        <time>2021-02-27T09:29:53Z</time>
      </trkpt>
      <trkpt lat="45.21054" lon="6.01677">
        <ele>2176.2</ele>
        <time>2021-02-27T09:29:54Z</time>
      </trkpt>
      <trkpt lat="45.21054" lon="6.01677">
        <ele>2176.8</ele>
        <time>2021-02-27T09:29:55Z</time>
      </trkpt>
      <trkpt lat="45.21057" lon="6.01677">
        <ele>2177.2</ele>
        <time>2021-02-27T09:29:56Z</time>
      </trkpt>
      <trkpt lat="45.21057" lon="6.01677">
        <ele>2177</ele>
        <time>2021-02-27T09:29:57Z</time>
      </trkpt>
      <trkpt lat="45.21059" lon="6.01677">
        <ele>2177.4</ele>
        <time>2021-02-27T09:29:58Z</time>
      </trkpt>
      <trkpt lat="45.21059" lon="6.01677">
        <ele>2177.2</ele>
        <time>2021-02-27T09:29:59Z</time>
      </trkpt>
      <trkpt lat="45.21062" lon="6.01676">
        <ele>2177.6</ele>
        <time>2021-02-27T09:30:00Z</time>
      </trkpt>
      <trkpt lat="45.21062" lon="6.01676">
        <ele>2178</ele>
        <time>2021-02-27T09:30:01Z</time>
      </trkpt>
      <trkpt lat="45.21064" lon="6.01677">
        <ele>2178</ele>
        <time>2021-02-27T09:30:02Z</time>
      </trkpt>
      <trkpt lat="45.21064" lon="6.01677">
        <ele>2178.4</ele>
        <time>2021-02-27T09:30:03Z</time>
      </trkpt>
      <trkpt lat="45.21066" lon="6.01678">
        <ele>2178.8</ele>
        <time>2021-02-27T09:30:04Z</time>
      </trkpt>
      <trkpt lat="45.21066" lon="6.01678">
        <ele>2179.2</ele>
        <time>2021-02-27T09:30:05Z</time>
      </trkpt>
      <trkpt lat="45.21067" lon="6.0168">
        <ele>2179.2</ele>
        <time>2021-02-27T09:30:06Z</time>
      </trkpt>
      <trkpt lat="45.21067" lon="6.0168">
        <ele>2179.4</ele>
        <time>2021-02-27T09:30:07Z</time>
      </trkpt>
      <trkpt lat="45.21067" lon="6.0168">
        <ele>2179.8</ele>
        <time>2021-02-27T09:30:08Z</time>
      </trkpt>
      <trkpt lat="45.21068" lon="6.01683">
        <ele>2179.8</ele>
        <time>2021-02-27T09:30:09Z</time>
      </trkpt>
      <trkpt lat="45.21068" lon="6.01683">
        <ele>2180</ele>
        <time>2021-02-27T09:30:10Z</time>
      </trkpt>
      <trkpt lat="45.2107" lon="6.01685">
        <ele>2180.6</ele>
        <time>2021-02-27T09:30:11Z</time>
      </trkpt>
      <trkpt lat="45.2107" lon="6.01685">
        <ele>2180.6</ele>
        <time>2021-02-27T09:30:12Z</time>
      </trkpt>
      <trkpt lat="45.2107" lon="6.01685">
        <ele>2181</ele>
        <time>2021-02-27T09:30:13Z</time>
      </trkpt>
      <trkpt lat="45.21072" lon="6.01687">
        <ele>2181.4</ele>
        <time>2021-02-27T09:30:14Z</time>
      </trkpt>
      <trkpt lat="45.21072" lon="6.01687">
        <ele>2181.6</ele>
        <time>2021-02-27T09:30:15Z</time>
      </trkpt>
      <trkpt lat="45.21073" lon="6.0169">
        <ele>2181.6</ele>
        <time>2021-02-27T09:30:16Z</time>
      </trkpt>
      <trkpt lat="45.21073" lon="6.0169">
        <ele>2182</ele>
        <time>2021-02-27T09:30:17Z</time>
      </trkpt>
      <trkpt lat="45.21073" lon="6.0169">
        <ele>2182.6</ele>
        <time>2021-02-27T09:30:18Z</time>
      </trkpt>
      <trkpt lat="45.21074" lon="6.01693">
        <ele>2182.6</ele>
        <time>2021-02-27T09:30:19Z</time>
      </trkpt>
      <trkpt lat="45.21074" lon="6.01693">
        <ele>2183.2</ele>
        <time>2021-02-27T09:30:20Z</time>
      </trkpt>
      <trkpt lat="45.21076" lon="6.01695">
        <ele>2183.2</ele>
        <time>2021-02-27T09:30:21Z</time>
      </trkpt>
      <trkpt lat="45.21076" lon="6.01695">
        <ele>2183.2</ele>
        <time>2021-02-27T09:30:22Z</time>
      </trkpt>
      <trkpt lat="45.2108" lon="6.01696">
        <ele>2183.6</ele>
        <time>2021-02-27T09:30:23Z</time>
      </trkpt>
      <trkpt lat="45.21081" lon="6.01697">
        <ele>2183.6</ele>
        <time>2021-02-27T09:30:24Z</time>
      </trkpt>
      <trkpt lat="45.21082" lon="6.01697">
        <ele>2184</ele>
        <time>2021-02-27T09:30:25Z</time>
      </trkpt>
      <trkpt lat="45.21084" lon="6.01698">
        <ele>2183.2</ele>
        <time>2021-02-27T09:30:26Z</time>
      </trkpt>
      <trkpt lat="45.21086" lon="6.01698">
        <ele>2183.2</ele>
        <time>2021-02-27T09:30:27Z</time>
      </trkpt>
      <trkpt lat="45.21088" lon="6.01698">
        <ele>2183.2</ele>
        <time>2021-02-27T09:30:28Z</time>
      </trkpt>
      <trkpt lat="45.21088" lon="6.01698">
        <ele>2183</ele>
        <time>2021-02-27T09:30:29Z</time>
      </trkpt>
      <trkpt lat="45.21091" lon="6.01698">
        <ele>2182.6</ele>
        <time>2021-02-27T09:30:30Z</time>
      </trkpt>
      <trkpt lat="45.21091" lon="6.01698">
        <ele>2182.4</ele>
        <time>2021-02-27T09:30:31Z</time>
      </trkpt>
      <trkpt lat="45.21094" lon="6.01698">
        <ele>2182.4</ele>
        <time>2021-02-27T09:30:32Z</time>
      </trkpt>
      <trkpt lat="45.21094" lon="6.01698">
        <ele>2182</ele>
        <time>2021-02-27T09:30:33Z</time>
      </trkpt>
      <trkpt lat="45.21098" lon="6.01699">
        <ele>2182.2</ele>
        <time>2021-02-27T09:30:34Z</time>
      </trkpt>
      <trkpt lat="45.211" lon="6.01699">
        <ele>2182.2</ele>
        <time>2021-02-27T09:30:35Z</time>
      </trkpt>
      <trkpt lat="45.21102" lon="6.01699">
        <ele>2182.2</ele>
        <time>2021-02-27T09:30:36Z</time>
      </trkpt>
      <trkpt lat="45.21102" lon="6.01699">
        <ele>2182.2</ele>
        <time>2021-02-27T09:30:37Z</time>
      </trkpt>
      <trkpt lat="45.21105" lon="6.01698">
        <ele>2181.8</ele>
        <time>2021-02-27T09:30:38Z</time>
      </trkpt>
      <trkpt lat="45.21108" lon="6.01698">
        <ele>2181.4</ele>
        <time>2021-02-27T09:30:39Z</time>
      </trkpt>
      <trkpt lat="45.2111" lon="6.01698">
        <ele>2181.4</ele>
        <time>2021-02-27T09:30:40Z</time>
      </trkpt>
      <trkpt lat="45.21112" lon="6.01698">
        <ele>2181.2</ele>
        <time>2021-02-27T09:30:41Z</time>
      </trkpt>
      <trkpt lat="45.21114" lon="6.01698">
        <ele>2180.8</ele>
        <time>2021-02-27T09:30:42Z</time>
      </trkpt>
      <trkpt lat="45.21116" lon="6.01698">
        <ele>2180.2</ele>
        <time>2021-02-27T09:30:43Z</time>
      </trkpt>
      <trkpt lat="45.21118" lon="6.01697">
        <ele>2180</ele>
        <time>2021-02-27T09:30:44Z</time>
      </trkpt>
      <trkpt lat="45.21121" lon="6.01697">
        <ele>2179.6</ele>
        <time>2021-02-27T09:30:45Z</time>
      </trkpt>
      <trkpt lat="45.21125" lon="6.01696">
        <ele>2179.2</ele>
        <time>2021-02-27T09:30:46Z</time>
      </trkpt>
      <trkpt lat="45.21132" lon="6.01695">
        <ele>2178.8</ele>
        <time>2021-02-27T09:30:47Z</time>
      </trkpt>
      <trkpt lat="45.2114" lon="6.01694">
        <ele>2178.2</ele>
        <time>2021-02-27T09:30:48Z</time>
      </trkpt>
      <trkpt lat="45.21148" lon="6.01694">
        <ele>2177.4</ele>
        <time>2021-02-27T09:30:49Z</time>
      </trkpt>
      <trkpt lat="45.21155" lon="6.01694">
        <ele>2176</ele>
        <time>2021-02-27T09:30:50Z</time>
      </trkpt>
      <trkpt lat="45.21161" lon="6.01694">
        <ele>2174.6</ele>
        <time>2021-02-27T09:30:51Z</time>
      </trkpt>
      <trkpt lat="45.21168" lon="6.01694">
        <ele>2173.8</ele>
        <time>2021-02-27T09:30:52Z</time>
      </trkpt>
      <trkpt lat="45.21174" lon="6.01694">
        <ele>2172.4</ele>
        <time>2021-02-27T09:30:53Z</time>
      </trkpt>
      <trkpt lat="45.21179" lon="6.01694">
        <ele>2171.2</ele>
        <time>2021-02-27T09:30:54Z</time>
      </trkpt>
      <trkpt lat="45.21184" lon="6.01694">
        <ele>2170</ele>
        <time>2021-02-27T09:30:55Z</time>
      </trkpt>
      <trkpt lat="45.2119" lon="6.01694">
        <ele>2168.8</ele>
        <time>2021-02-27T09:30:56Z</time>
      </trkpt>
      <trkpt lat="45.21195" lon="6.01694">
        <ele>2167.4</ele>
        <time>2021-02-27T09:30:57Z</time>
      </trkpt>
      <trkpt lat="45.21201" lon="6.01694">
        <ele>2166.2</ele>
        <time>2021-02-27T09:30:58Z</time>
      </trkpt>
      <trkpt lat="45.21205" lon="6.01695">
        <ele>2165</ele>
        <time>2021-02-27T09:30:59Z</time>
      </trkpt>
      <trkpt lat="45.21209" lon="6.01695">
        <ele>2163.8</ele>
        <time>2021-02-27T09:31:00Z</time>
      </trkpt>
      <trkpt lat="45.21211" lon="6.01695">
        <ele>2162.8</ele>
        <time>2021-02-27T09:31:01Z</time>
      </trkpt>
      <trkpt lat="45.21213" lon="6.01695">
        <ele>2162.2</ele>
        <time>2021-02-27T09:31:02Z</time>
      </trkpt>
      <trkpt lat="45.21213" lon="6.01695">
        <ele>2161.8</ele>
        <time>2021-02-27T09:31:03Z</time>
      </trkpt>
      <trkpt lat="45.21216" lon="6.01696">
        <ele>2161.2</ele>
        <time>2021-02-27T09:31:04Z</time>
      </trkpt>
      <trkpt lat="45.21216" lon="6.01696">
        <ele>2161.2</ele>
        <time>2021-02-27T09:31:05Z</time>
      </trkpt>
      <trkpt lat="45.21218" lon="6.01696">
        <ele>2160.8</ele>
        <time>2021-02-27T09:31:06Z</time>
      </trkpt>
      <trkpt lat="45.21218" lon="6.01696">
        <ele>2160.8</ele>
        <time>2021-02-27T09:31:07Z</time>
      </trkpt>
      <trkpt lat="45.21218" lon="6.01696">
        <ele>2161</ele>
        <time>2021-02-27T09:31:08Z</time>
      </trkpt>
      <trkpt lat="45.2122" lon="6.01696">
        <ele>2160.6</ele>
        <time>2021-02-27T09:31:09Z</time>
      </trkpt>
      <trkpt lat="45.2122" lon="6.01696">
        <ele>2161</ele>
        <time>2021-02-27T09:31:10Z</time>
      </trkpt>
      <trkpt lat="45.2122" lon="6.01696">
        <ele>2161</ele>
        <time>2021-02-27T09:31:11Z</time>
      </trkpt>
      <trkpt lat="45.21223" lon="6.01696">
        <ele>2160.6</ele>
        <time>2021-02-27T09:31:12Z</time>
      </trkpt>
      <trkpt lat="45.21223" lon="6.01696">
        <ele>2160.8</ele>
        <time>2021-02-27T09:31:13Z</time>
      </trkpt>
      <trkpt lat="45.21225" lon="6.01695">
        <ele>2160.6</ele>
        <time>2021-02-27T09:31:14Z</time>
      </trkpt>
      <trkpt lat="45.21225" lon="6.01695">
        <ele>2160.4</ele>
        <time>2021-02-27T09:31:15Z</time>
      </trkpt>
      <trkpt lat="45.21228" lon="6.01694">
        <ele>2160.6</ele>
        <time>2021-02-27T09:31:16Z</time>
      </trkpt>
      <trkpt lat="45.21228" lon="6.01694">
        <ele>2160.6</ele>
        <time>2021-02-27T09:31:17Z</time>
      </trkpt>
      <trkpt lat="45.21231" lon="6.01693">
        <ele>2160.6</ele>
        <time>2021-02-27T09:31:18Z</time>
      </trkpt>
      <trkpt lat="45.21233" lon="6.01692">
        <ele>2160.6</ele>
        <time>2021-02-27T09:31:19Z</time>
      </trkpt>
      <trkpt lat="45.21235" lon="6.01692">
        <ele>2160.4</ele>
        <time>2021-02-27T09:31:20Z</time>
      </trkpt>
      <trkpt lat="45.21238" lon="6.01692">
        <ele>2160</ele>
        <time>2021-02-27T09:31:21Z</time>
      </trkpt>
      <trkpt lat="45.21242" lon="6.01691">
        <ele>2160</ele>
        <time>2021-02-27T09:31:22Z</time>
      </trkpt>
      <trkpt lat="45.21247" lon="6.01692">
        <ele>2159.6</ele>
        <time>2021-02-27T09:31:23Z</time>
      </trkpt>
      <trkpt lat="45.21253" lon="6.01693">
        <ele>2159.2</ele>
        <time>2021-02-27T09:31:24Z</time>
      </trkpt>
      <trkpt lat="45.21257" lon="6.01696">
        <ele>2158</ele>
        <time>2021-02-27T09:31:25Z</time>
      </trkpt>
      <trkpt lat="45.21259" lon="6.01698">
        <ele>2157.6</ele>
        <time>2021-02-27T09:31:26Z</time>
      </trkpt>
      <trkpt lat="45.21261" lon="6.01699">
        <ele>2157</ele>
        <time>2021-02-27T09:31:27Z</time>
      </trkpt>
      <trkpt lat="45.21263" lon="6.01701">
        <ele>2156.6</ele>
        <time>2021-02-27T09:31:28Z</time>
      </trkpt>
      <trkpt lat="45.21265" lon="6.01703">
        <ele>2156.2</ele>
        <time>2021-02-27T09:31:29Z</time>
      </trkpt>
      <trkpt lat="45.21267" lon="6.01704">
        <ele>2156.2</ele>
        <time>2021-02-27T09:31:30Z</time>
      </trkpt>
      <trkpt lat="45.21268" lon="6.01706">
        <ele>2156</ele>
        <time>2021-02-27T09:31:31Z</time>
      </trkpt>
      <trkpt lat="45.2127" lon="6.01708">
        <ele>2156</ele>
        <time>2021-02-27T09:31:32Z</time>
      </trkpt>
      <trkpt lat="45.21271" lon="6.0171">
        <ele>2156.2</ele>
        <time>2021-02-27T09:31:33Z</time>
      </trkpt>
      <trkpt lat="45.21272" lon="6.01711">
        <ele>2156.2</ele>
        <time>2021-02-27T09:31:34Z</time>
      </trkpt>
      <trkpt lat="45.21274" lon="6.01713">
        <ele>2156.2</ele>
        <time>2021-02-27T09:31:35Z</time>
      </trkpt>
      <trkpt lat="45.21275" lon="6.01715">
        <ele>2155.8</ele>
        <time>2021-02-27T09:31:36Z</time>
      </trkpt>
      <trkpt lat="45.21276" lon="6.01718">
        <ele>2155.8</ele>
        <time>2021-02-27T09:31:37Z</time>
      </trkpt>
      <trkpt lat="45.21278" lon="6.0172">
        <ele>2155.6</ele>
        <time>2021-02-27T09:31:38Z</time>
      </trkpt>
      <trkpt lat="45.21279" lon="6.01722">
        <ele>2155.4</ele>
        <time>2021-02-27T09:31:39Z</time>
      </trkpt>
      <trkpt lat="45.21281" lon="6.01724">
        <ele>2155.6</ele>
        <time>2021-02-27T09:31:40Z</time>
      </trkpt>
      <trkpt lat="45.21282" lon="6.01726">
        <ele>2155.8</ele>
        <time>2021-02-27T09:31:41Z</time>
      </trkpt>
      <trkpt lat="45.21284" lon="6.01729">
        <ele>2155.6</ele>
        <time>2021-02-27T09:31:42Z</time>
      </trkpt>
      <trkpt lat="45.21286" lon="6.01731">
        <ele>2155.6</ele>
        <time>2021-02-27T09:31:43Z</time>
      </trkpt>
      <trkpt lat="45.21287" lon="6.01734">
        <ele>2155.4</ele>
        <time>2021-02-27T09:31:44Z</time>
      </trkpt>
      <trkpt lat="45.21289" lon="6.01737">
        <ele>2155.4</ele>
        <time>2021-02-27T09:31:45Z</time>
      </trkpt>
      <trkpt lat="45.2129" lon="6.01739">
        <ele>2155.4</ele>
        <time>2021-02-27T09:31:46Z</time>
      </trkpt>
      <trkpt lat="45.21292" lon="6.01742">
        <ele>2154.8</ele>
        <time>2021-02-27T09:31:47Z</time>
      </trkpt>
      <trkpt lat="45.21293" lon="6.01744">
        <ele>2154.6</ele>
        <time>2021-02-27T09:31:48Z</time>
      </trkpt>
      <trkpt lat="45.21294" lon="6.01747">
        <ele>2154.4</ele>
        <time>2021-02-27T09:31:49Z</time>
      </trkpt>
      <trkpt lat="45.21295" lon="6.01749">
        <ele>2154.4</ele>
        <time>2021-02-27T09:31:50Z</time>
      </trkpt>
      <trkpt lat="45.21295" lon="6.01749">
        <ele>2154.2</ele>
        <time>2021-02-27T09:31:51Z</time>
      </trkpt>
      <trkpt lat="45.21297" lon="6.01756">
        <ele>2154</ele>
        <time>2021-02-27T09:31:52Z</time>
      </trkpt>
      <trkpt lat="45.21298" lon="6.01758">
        <ele>2154.2</ele>
        <time>2021-02-27T09:31:53Z</time>
      </trkpt>
      <trkpt lat="45.21299" lon="6.01761">
        <ele>2153.4</ele>
        <time>2021-02-27T09:31:54Z</time>
      </trkpt>
      <trkpt lat="45.213" lon="6.01764">
        <ele>2153.2</ele>
        <time>2021-02-27T09:31:55Z</time>
      </trkpt>
      <trkpt lat="45.213" lon="6.01764">
        <ele>2153.2</ele>
        <time>2021-02-27T09:31:56Z</time>
      </trkpt>
      <trkpt lat="45.21301" lon="6.01767">
        <ele>2153.2</ele>
        <time>2021-02-27T09:31:57Z</time>
      </trkpt>
      <trkpt lat="45.21301" lon="6.01767">
        <ele>2152.8</ele>
        <time>2021-02-27T09:31:58Z</time>
      </trkpt>
      <trkpt lat="45.21302" lon="6.01771">
        <ele>2152.8</ele>
        <time>2021-02-27T09:31:59Z</time>
      </trkpt>
      <trkpt lat="45.21302" lon="6.01771">
        <ele>2152.6</ele>
        <time>2021-02-27T09:32:00Z</time>
      </trkpt>
      <trkpt lat="45.21302" lon="6.01776">
        <ele>2152.6</ele>
        <time>2021-02-27T09:32:01Z</time>
      </trkpt>
      <trkpt lat="45.21302" lon="6.01776">
        <ele>2153</ele>
        <time>2021-02-27T09:32:02Z</time>
      </trkpt>
      <trkpt lat="45.21303" lon="6.0178">
        <ele>2153.2</ele>
        <time>2021-02-27T09:32:03Z</time>
      </trkpt>
      <trkpt lat="45.21303" lon="6.01783">
        <ele>2153</ele>
        <time>2021-02-27T09:32:04Z</time>
      </trkpt>
      <trkpt lat="45.21303" lon="6.01783">
        <ele>2152.6</ele>
        <time>2021-02-27T09:32:05Z</time>
      </trkpt>
      <trkpt lat="45.21304" lon="6.01788">
        <ele>2152.6</ele>
        <time>2021-02-27T09:32:06Z</time>
      </trkpt>
      <trkpt lat="45.21304" lon="6.01788">
        <ele>2152.6</ele>
        <time>2021-02-27T09:32:07Z</time>
      </trkpt>
      <trkpt lat="45.21304" lon="6.01791">
        <ele>2152.4</ele>
        <time>2021-02-27T09:32:08Z</time>
      </trkpt>
      <trkpt lat="45.21304" lon="6.01791">
        <ele>2152.8</ele>
        <time>2021-02-27T09:32:09Z</time>
      </trkpt>
      <trkpt lat="45.21304" lon="6.01791">
        <ele>2152.4</ele>
        <time>2021-02-27T09:32:10Z</time>
      </trkpt>
      <trkpt lat="45.21304" lon="6.01791">
        <ele>2152.6</ele>
        <time>2021-02-27T09:32:11Z</time>
      </trkpt>
      <trkpt lat="45.21305" lon="6.01794">
        <ele>2152.8</ele>
        <time>2021-02-27T09:32:12Z</time>
      </trkpt>
      <trkpt lat="45.21305" lon="6.01794">
        <ele>2153</ele>
        <time>2021-02-27T09:32:13Z</time>
      </trkpt>
      <trkpt lat="45.21305" lon="6.01797">
        <ele>2152.8</ele>
        <time>2021-02-27T09:32:14Z</time>
      </trkpt>
      <trkpt lat="45.21305" lon="6.01797">
        <ele>2153</ele>
        <time>2021-02-27T09:32:15Z</time>
      </trkpt>
      <trkpt lat="45.21305" lon="6.01801">
        <ele>2153.4</ele>
        <time>2021-02-27T09:32:16Z</time>
      </trkpt>
      <trkpt lat="45.21305" lon="6.01801">
        <ele>2153.2</ele>
        <time>2021-02-27T09:32:17Z</time>
      </trkpt>
      <trkpt lat="45.21306" lon="6.01805">
        <ele>2153.6</ele>
        <time>2021-02-27T09:32:18Z</time>
      </trkpt>
      <trkpt lat="45.21306" lon="6.01805">
        <ele>2153.6</ele>
        <time>2021-02-27T09:32:19Z</time>
      </trkpt>
      <trkpt lat="45.21306" lon="6.01809">
        <ele>2153.8</ele>
        <time>2021-02-27T09:32:20Z</time>
      </trkpt>
      <trkpt lat="45.21306" lon="6.01809">
        <ele>2153.4</ele>
        <time>2021-02-27T09:32:21Z</time>
      </trkpt>
      <trkpt lat="45.21306" lon="6.01813">
        <ele>2153.6</ele>
        <time>2021-02-27T09:32:22Z</time>
      </trkpt>
      <trkpt lat="45.21306" lon="6.01813">
        <ele>2154.2</ele>
        <time>2021-02-27T09:32:23Z</time>
      </trkpt>
      <trkpt lat="45.21306" lon="6.01817">
        <ele>2153.8</ele>
        <time>2021-02-27T09:32:24Z</time>
      </trkpt>
      <trkpt lat="45.21306" lon="6.01817">
        <ele>2154.4</ele>
        <time>2021-02-27T09:32:25Z</time>
      </trkpt>
      <trkpt lat="45.21306" lon="6.0182">
        <ele>2154.2</ele>
        <time>2021-02-27T09:32:26Z</time>
      </trkpt>
      <trkpt lat="45.21306" lon="6.0182">
        <ele>2154.2</ele>
        <time>2021-02-27T09:32:27Z</time>
      </trkpt>
      <trkpt lat="45.21306" lon="6.01824">
        <ele>2154.8</ele>
        <time>2021-02-27T09:32:28Z</time>
      </trkpt>
      <trkpt lat="45.21306" lon="6.01824">
        <ele>2154.4</ele>
        <time>2021-02-27T09:32:29Z</time>
      </trkpt>
      <trkpt lat="45.21306" lon="6.01828">
        <ele>2154.8</ele>
        <time>2021-02-27T09:32:30Z</time>
      </trkpt>
      <trkpt lat="45.21306" lon="6.01828">
        <ele>2154.8</ele>
        <time>2021-02-27T09:32:31Z</time>
      </trkpt>
      <trkpt lat="45.21306" lon="6.01832">
        <ele>2155</ele>
        <time>2021-02-27T09:32:32Z</time>
      </trkpt>
      <trkpt lat="45.21306" lon="6.01832">
        <ele>2155.2</ele>
        <time>2021-02-27T09:32:33Z</time>
      </trkpt>
      <trkpt lat="45.21307" lon="6.01835">
        <ele>2155.4</ele>
        <time>2021-02-27T09:32:34Z</time>
      </trkpt>
      <trkpt lat="45.21307" lon="6.01835">
        <ele>2155.6</ele>
        <time>2021-02-27T09:32:35Z</time>
      </trkpt>
      <trkpt lat="45.21308" lon="6.01839">
        <ele>2155.6</ele>
        <time>2021-02-27T09:32:36Z</time>
      </trkpt>
      <trkpt lat="45.21308" lon="6.01839">
        <ele>2155.8</ele>
        <time>2021-02-27T09:32:37Z</time>
      </trkpt>
      <trkpt lat="45.21308" lon="6.01842">
        <ele>2156</ele>
        <time>2021-02-27T09:32:38Z</time>
      </trkpt>
      <trkpt lat="45.21308" lon="6.01842">
        <ele>2155.8</ele>
        <time>2021-02-27T09:32:39Z</time>
      </trkpt>
      <trkpt lat="45.21308" lon="6.01846">
        <ele>2156.4</ele>
        <time>2021-02-27T09:32:40Z</time>
      </trkpt>
      <trkpt lat="45.21308" lon="6.01846">
        <ele>2156.6</ele>
        <time>2021-02-27T09:32:41Z</time>
      </trkpt>
      <trkpt lat="45.21308" lon="6.01849">
        <ele>2157</ele>
        <time>2021-02-27T09:32:42Z</time>
      </trkpt>
      <trkpt lat="45.21308" lon="6.01849">
        <ele>2157.2</ele>
        <time>2021-02-27T09:32:43Z</time>
      </trkpt>
      <trkpt lat="45.21308" lon="6.01853">
        <ele>2157.2</ele>
        <time>2021-02-27T09:32:44Z</time>
      </trkpt>
      <trkpt lat="45.21308" lon="6.01853">
        <ele>2157.6</ele>
        <time>2021-02-27T09:32:45Z</time>
      </trkpt>
      <trkpt lat="45.21309" lon="6.01857">
        <ele>2157.6</ele>
        <time>2021-02-27T09:32:46Z</time>
      </trkpt>
      <trkpt lat="45.21309" lon="6.01857">
        <ele>2158.4</ele>
        <time>2021-02-27T09:32:47Z</time>
      </trkpt>
      <trkpt lat="45.21309" lon="6.01861">
        <ele>2158.2</ele>
        <time>2021-02-27T09:32:48Z</time>
      </trkpt>
      <trkpt lat="45.21309" lon="6.01861">
        <ele>2158.2</ele>
        <time>2021-02-27T09:32:49Z</time>
      </trkpt>
      <trkpt lat="45.21309" lon="6.01864">
        <ele>2158.6</ele>
        <time>2021-02-27T09:32:50Z</time>
      </trkpt>
      <trkpt lat="45.21309" lon="6.01864">
        <ele>2158.6</ele>
        <time>2021-02-27T09:32:51Z</time>
      </trkpt>
      <trkpt lat="45.21309" lon="6.01868">
        <ele>2159.4</ele>
        <time>2021-02-27T09:32:52Z</time>
      </trkpt>
      <trkpt lat="45.21309" lon="6.01868">
        <ele>2159.4</ele>
        <time>2021-02-27T09:32:53Z</time>
      </trkpt>
      <trkpt lat="45.21309" lon="6.01871">
        <ele>2159.4</ele>
        <time>2021-02-27T09:32:54Z</time>
      </trkpt>
      <trkpt lat="45.21309" lon="6.01871">
        <ele>2160</ele>
        <time>2021-02-27T09:32:55Z</time>
      </trkpt>
      <trkpt lat="45.21309" lon="6.01875">
        <ele>2160</ele>
        <time>2021-02-27T09:32:56Z</time>
      </trkpt>
      <trkpt lat="45.21309" lon="6.01875">
        <ele>2160.6</ele>
        <time>2021-02-27T09:32:57Z</time>
      </trkpt>
      <trkpt lat="45.21309" lon="6.01878">
        <ele>2160.6</ele>
        <time>2021-02-27T09:32:58Z</time>
      </trkpt>
      <trkpt lat="45.21309" lon="6.01878">
        <ele>2160.6</ele>
        <time>2021-02-27T09:32:59Z</time>
      </trkpt>
      <trkpt lat="45.21309" lon="6.01881">
        <ele>2161.2</ele>
        <time>2021-02-27T09:33:00Z</time>
      </trkpt>
      <trkpt lat="45.21309" lon="6.01881">
        <ele>2161.2</ele>
        <time>2021-02-27T09:33:01Z</time>
      </trkpt>
      <trkpt lat="45.2131" lon="6.01884">
        <ele>2161.8</ele>
        <time>2021-02-27T09:33:02Z</time>
      </trkpt>
      <trkpt lat="45.2131" lon="6.01884">
        <ele>2161.8</ele>
        <time>2021-02-27T09:33:03Z</time>
      </trkpt>
      <trkpt lat="45.2131" lon="6.01886">
        <ele>2161.8</ele>
        <time>2021-02-27T09:33:04Z</time>
      </trkpt>
      <trkpt lat="45.2131" lon="6.01886">
        <ele>2162.2</ele>
        <time>2021-02-27T09:33:05Z</time>
      </trkpt>
      <trkpt lat="45.21311" lon="6.01889">
        <ele>2162.4</ele>
        <time>2021-02-27T09:33:06Z</time>
      </trkpt>
      <trkpt lat="45.21311" lon="6.01889">
        <ele>2162.8</ele>
        <time>2021-02-27T09:33:07Z</time>
      </trkpt>
      <trkpt lat="45.21312" lon="6.01892">
        <ele>2163</ele>
        <time>2021-02-27T09:33:08Z</time>
      </trkpt>
      <trkpt lat="45.21312" lon="6.01892">
        <ele>2163.2</ele>
        <time>2021-02-27T09:33:09Z</time>
      </trkpt>
      <trkpt lat="45.21312" lon="6.01892">
        <ele>2163.8</ele>
        <time>2021-02-27T09:33:10Z</time>
      </trkpt>
      <trkpt lat="45.21314" lon="6.01894">
        <ele>2164.2</ele>
        <time>2021-02-27T09:33:11Z</time>
      </trkpt>
      <trkpt lat="45.21314" lon="6.01894">
        <ele>2164.4</ele>
        <time>2021-02-27T09:33:12Z</time>
      </trkpt>
      <trkpt lat="45.21314" lon="6.01894">
        <ele>2164.8</ele>
        <time>2021-02-27T09:33:13Z</time>
      </trkpt>
      <trkpt lat="45.21315" lon="6.01898">
        <ele>2165</ele>
        <time>2021-02-27T09:33:14Z</time>
      </trkpt>
      <trkpt lat="45.21315" lon="6.01898">
        <ele>2165.4</ele>
        <time>2021-02-27T09:33:15Z</time>
      </trkpt>
      <trkpt lat="45.21315" lon="6.01898">
        <ele>2165.8</ele>
        <time>2021-02-27T09:33:16Z</time>
      </trkpt>
      <trkpt lat="45.21317" lon="6.019">
        <ele>2165.6</ele>
        <time>2021-02-27T09:33:17Z</time>
      </trkpt>
      <trkpt lat="45.21317" lon="6.019">
        <ele>2165.8</ele>
        <time>2021-02-27T09:33:18Z</time>
      </trkpt>
      <trkpt lat="45.21317" lon="6.019">
        <ele>2166.4</ele>
        <time>2021-02-27T09:33:19Z</time>
      </trkpt>
      <trkpt lat="45.21317" lon="6.019">
        <ele>2166.4</ele>
        <time>2021-02-27T09:33:20Z</time>
      </trkpt>
      <trkpt lat="45.21317" lon="6.019">
        <ele>2166.4</ele>
        <time>2021-02-27T09:33:21Z</time>
      </trkpt>
      <trkpt lat="45.21317" lon="6.019">
        <ele>2166.2</ele>
        <time>2021-02-27T09:33:22Z</time>
      </trkpt>
      <trkpt lat="45.21317" lon="6.019">
        <ele>2166</ele>
        <time>2021-02-27T09:33:23Z</time>
      </trkpt>
      <trkpt lat="45.21317" lon="6.019">
        <ele>2165.8</ele>
        <time>2021-02-27T09:33:24Z</time>
      </trkpt>
      <trkpt lat="45.21317" lon="6.019">
        <ele>2165.8</ele>
        <time>2021-02-27T09:33:25Z</time>
      </trkpt>
      <trkpt lat="45.21317" lon="6.019">
        <ele>2165.8</ele>
        <time>2021-02-27T09:33:26Z</time>
      </trkpt>
      <trkpt lat="45.21317" lon="6.019">
        <ele>2165.6</ele>
        <time>2021-02-27T09:33:27Z</time>
      </trkpt>
      <trkpt lat="45.21317" lon="6.019">
        <ele>2165.6</ele>
        <time>2021-02-27T09:33:28Z</time>
      </trkpt>
      <trkpt lat="45.21318" lon="6.01902">
        <ele>2165.4</ele>
        <time>2021-02-27T09:33:29Z</time>
      </trkpt>
      <trkpt lat="45.21318" lon="6.01902">
        <ele>2165.8</ele>
        <time>2021-02-27T09:33:30Z</time>
      </trkpt>
      <trkpt lat="45.21318" lon="6.01902">
        <ele>2166</ele>
        <time>2021-02-27T09:33:31Z</time>
      </trkpt>
      <trkpt lat="45.21318" lon="6.01902">
        <ele>2166.6</ele>
        <time>2021-02-27T09:33:32Z</time>
      </trkpt>
      <trkpt lat="45.2132" lon="6.01904">
        <ele>2166.8</ele>
        <time>2021-02-27T09:33:33Z</time>
      </trkpt>
      <trkpt lat="45.2132" lon="6.01904">
        <ele>2167.2</ele>
        <time>2021-02-27T09:33:34Z</time>
      </trkpt>
      <trkpt lat="45.2132" lon="6.01904">
        <ele>2167.8</ele>
        <time>2021-02-27T09:33:35Z</time>
      </trkpt>
      <trkpt lat="45.21322" lon="6.01907">
        <ele>2167.6</ele>
        <time>2021-02-27T09:33:36Z</time>
      </trkpt>
      <trkpt lat="45.21322" lon="6.01907">
        <ele>2168</ele>
        <time>2021-02-27T09:33:37Z</time>
      </trkpt>
      <trkpt lat="45.21322" lon="6.01907">
        <ele>2168</ele>
        <time>2021-02-27T09:33:38Z</time>
      </trkpt>
      <trkpt lat="45.21323" lon="6.0191">
        <ele>2168</ele>
        <time>2021-02-27T09:33:39Z</time>
      </trkpt>
      <trkpt lat="45.21323" lon="6.0191">
        <ele>2168.6</ele>
        <time>2021-02-27T09:33:40Z</time>
      </trkpt>
      <trkpt lat="45.21323" lon="6.0191">
        <ele>2168.6</ele>
        <time>2021-02-27T09:33:41Z</time>
      </trkpt>
      <trkpt lat="45.21324" lon="6.01913">
        <ele>2168.6</ele>
        <time>2021-02-27T09:33:42Z</time>
      </trkpt>
      <trkpt lat="45.21324" lon="6.01913">
        <ele>2169.2</ele>
        <time>2021-02-27T09:33:43Z</time>
      </trkpt>
      <trkpt lat="45.21324" lon="6.01913">
        <ele>2169.4</ele>
        <time>2021-02-27T09:33:44Z</time>
      </trkpt>
      <trkpt lat="45.21324" lon="6.01913">
        <ele>2169.4</ele>
        <time>2021-02-27T09:33:45Z</time>
      </trkpt>
      <trkpt lat="45.21324" lon="6.01913">
        <ele>2169.4</ele>
        <time>2021-02-27T09:33:46Z</time>
      </trkpt>
      <trkpt lat="45.21325" lon="6.01911">
        <ele>2169.2</ele>
        <time>2021-02-27T09:33:47Z</time>
      </trkpt>
      <trkpt lat="45.21325" lon="6.01911">
        <ele>2169.4</ele>
        <time>2021-02-27T09:33:48Z</time>
      </trkpt>
      <trkpt lat="45.21326" lon="6.01909">
        <ele>2169.4</ele>
        <time>2021-02-27T09:33:49Z</time>
      </trkpt>
      <trkpt lat="45.21326" lon="6.01909">
        <ele>2169.6</ele>
        <time>2021-02-27T09:33:50Z</time>
      </trkpt>
      <trkpt lat="45.21327" lon="6.01906">
        <ele>2169.6</ele>
        <time>2021-02-27T09:33:51Z</time>
      </trkpt>
      <trkpt lat="45.21327" lon="6.01906">
        <ele>2169.8</ele>
        <time>2021-02-27T09:33:52Z</time>
      </trkpt>
      <trkpt lat="45.21328" lon="6.01903">
        <ele>2170</ele>
        <time>2021-02-27T09:33:53Z</time>
      </trkpt>
      <trkpt lat="45.21328" lon="6.01903">
        <ele>2170.2</ele>
        <time>2021-02-27T09:33:54Z</time>
      </trkpt>
      <trkpt lat="45.21328" lon="6.01903">
        <ele>2170.4</ele>
        <time>2021-02-27T09:33:55Z</time>
      </trkpt>
      <trkpt lat="45.21329" lon="6.019">
        <ele>2170.2</ele>
        <time>2021-02-27T09:33:56Z</time>
      </trkpt>
      <trkpt lat="45.21329" lon="6.019">
        <ele>2170.4</ele>
        <time>2021-02-27T09:33:57Z</time>
      </trkpt>
      <trkpt lat="45.21329" lon="6.01897">
        <ele>2171</ele>
        <time>2021-02-27T09:33:58Z</time>
      </trkpt>
      <trkpt lat="45.21329" lon="6.01897">
        <ele>2171.2</ele>
        <time>2021-02-27T09:33:59Z</time>
      </trkpt>
      <trkpt lat="45.2133" lon="6.01894">
        <ele>2171.4</ele>
        <time>2021-02-27T09:34:00Z</time>
      </trkpt>
      <trkpt lat="45.2133" lon="6.01894">
        <ele>2171.6</ele>
        <time>2021-02-27T09:34:01Z</time>
      </trkpt>
      <trkpt lat="45.21331" lon="6.01891">
        <ele>2172.2</ele>
        <time>2021-02-27T09:34:02Z</time>
      </trkpt>
      <trkpt lat="45.21331" lon="6.01891">
        <ele>2172.4</ele>
        <time>2021-02-27T09:34:03Z</time>
      </trkpt>
      <trkpt lat="45.21331" lon="6.01891">
        <ele>2172.6</ele>
        <time>2021-02-27T09:34:04Z</time>
      </trkpt>
      <trkpt lat="45.21332" lon="6.01888">
        <ele>2172.6</ele>
        <time>2021-02-27T09:34:05Z</time>
      </trkpt>
      <trkpt lat="45.21332" lon="6.01888">
        <ele>2173</ele>
        <time>2021-02-27T09:34:06Z</time>
      </trkpt>
      <trkpt lat="45.21332" lon="6.01888">
        <ele>2173</ele>
        <time>2021-02-27T09:34:07Z</time>
      </trkpt>
      <trkpt lat="45.21332" lon="6.01888">
        <ele>2173.2</ele>
        <time>2021-02-27T09:34:08Z</time>
      </trkpt>
      <trkpt lat="45.21333" lon="6.01891">
        <ele>2173.8</ele>
        <time>2021-02-27T09:34:09Z</time>
      </trkpt>
      <trkpt lat="45.21333" lon="6.01891">
        <ele>2173.8</ele>
        <time>2021-02-27T09:34:10Z</time>
      </trkpt>
      <trkpt lat="45.21333" lon="6.01894">
        <ele>2174.4</ele>
        <time>2021-02-27T09:34:11Z</time>
      </trkpt>
      <trkpt lat="45.21333" lon="6.01894">
        <ele>2174.6</ele>
        <time>2021-02-27T09:34:12Z</time>
      </trkpt>
      <trkpt lat="45.21333" lon="6.01894">
        <ele>2174.4</ele>
        <time>2021-02-27T09:34:13Z</time>
      </trkpt>
      <trkpt lat="45.21334" lon="6.01898">
        <ele>2175.2</ele>
        <time>2021-02-27T09:34:14Z</time>
      </trkpt>
      <trkpt lat="45.21334" lon="6.01898">
        <ele>2175.2</ele>
        <time>2021-02-27T09:34:15Z</time>
      </trkpt>
      <trkpt lat="45.21335" lon="6.019">
        <ele>2175</ele>
        <time>2021-02-27T09:34:16Z</time>
      </trkpt>
      <trkpt lat="45.21335" lon="6.019">
        <ele>2175.6</ele>
        <time>2021-02-27T09:34:17Z</time>
      </trkpt>
      <trkpt lat="45.21335" lon="6.01903">
        <ele>2175.8</ele>
        <time>2021-02-27T09:34:18Z</time>
      </trkpt>
      <trkpt lat="45.21335" lon="6.01903">
        <ele>2176.2</ele>
        <time>2021-02-27T09:34:19Z</time>
      </trkpt>
      <trkpt lat="45.21335" lon="6.01906">
        <ele>2176.8</ele>
        <time>2021-02-27T09:34:20Z</time>
      </trkpt>
      <trkpt lat="45.21335" lon="6.01906">
        <ele>2176.8</ele>
        <time>2021-02-27T09:34:21Z</time>
      </trkpt>
      <trkpt lat="45.21335" lon="6.01909">
        <ele>2177.4</ele>
        <time>2021-02-27T09:34:22Z</time>
      </trkpt>
      <trkpt lat="45.21335" lon="6.01909">
        <ele>2177.8</ele>
        <time>2021-02-27T09:34:23Z</time>
      </trkpt>
      <trkpt lat="45.21335" lon="6.01909">
        <ele>2178.2</ele>
        <time>2021-02-27T09:34:24Z</time>
      </trkpt>
      <trkpt lat="45.21336" lon="6.01913">
        <ele>2178</ele>
        <time>2021-02-27T09:34:25Z</time>
      </trkpt>
      <trkpt lat="45.21336" lon="6.01913">
        <ele>2178.4</ele>
        <time>2021-02-27T09:34:26Z</time>
      </trkpt>
      <trkpt lat="45.21337" lon="6.01915">
        <ele>2178.8</ele>
        <time>2021-02-27T09:34:27Z</time>
      </trkpt>
      <trkpt lat="45.21337" lon="6.01915">
        <ele>2178.8</ele>
        <time>2021-02-27T09:34:28Z</time>
      </trkpt>
      <trkpt lat="45.21337" lon="6.01915">
        <ele>2179</ele>
        <time>2021-02-27T09:34:29Z</time>
      </trkpt>
      <trkpt lat="45.21337" lon="6.01915">
        <ele>2179.4</ele>
        <time>2021-02-27T09:34:30Z</time>
      </trkpt>
      <trkpt lat="45.21338" lon="6.01918">
        <ele>2179.8</ele>
        <time>2021-02-27T09:34:31Z</time>
      </trkpt>
      <trkpt lat="45.21338" lon="6.01918">
        <ele>2179.6</ele>
        <time>2021-02-27T09:34:32Z</time>
      </trkpt>
      <trkpt lat="45.21339" lon="6.01921">
        <ele>2180</ele>
        <time>2021-02-27T09:34:33Z</time>
      </trkpt>
      <trkpt lat="45.21339" lon="6.01921">
        <ele>2180.4</ele>
        <time>2021-02-27T09:34:34Z</time>
      </trkpt>
      <trkpt lat="45.21341" lon="6.01924">
        <ele>2180</ele>
        <time>2021-02-27T09:34:35Z</time>
      </trkpt>
      <trkpt lat="45.21341" lon="6.01924">
        <ele>2180.2</ele>
        <time>2021-02-27T09:34:36Z</time>
      </trkpt>
      <trkpt lat="45.21342" lon="6.01927">
        <ele>2180.2</ele>
        <time>2021-02-27T09:34:37Z</time>
      </trkpt>
      <trkpt lat="45.21342" lon="6.01927">
        <ele>2180.2</ele>
        <time>2021-02-27T09:34:38Z</time>
      </trkpt>
      <trkpt lat="45.21343" lon="6.0193">
        <ele>2180.6</ele>
        <time>2021-02-27T09:34:39Z</time>
      </trkpt>
      <trkpt lat="45.21343" lon="6.0193">
        <ele>2180.6</ele>
        <time>2021-02-27T09:34:40Z</time>
      </trkpt>
      <trkpt lat="45.21345" lon="6.01934">
        <ele>2180.8</ele>
        <time>2021-02-27T09:34:41Z</time>
      </trkpt>
      <trkpt lat="45.21345" lon="6.01934">
        <ele>2181.2</ele>
        <time>2021-02-27T09:34:42Z</time>
      </trkpt>
      <trkpt lat="45.21346" lon="6.01937">
        <ele>2180.8</ele>
        <time>2021-02-27T09:34:43Z</time>
      </trkpt>
      <trkpt lat="45.21346" lon="6.01937">
        <ele>2181.2</ele>
        <time>2021-02-27T09:34:44Z</time>
      </trkpt>
      <trkpt lat="45.21348" lon="6.01941">
        <ele>2181.4</ele>
        <time>2021-02-27T09:34:45Z</time>
      </trkpt>
      <trkpt lat="45.21348" lon="6.01941">
        <ele>2181</ele>
        <time>2021-02-27T09:34:46Z</time>
      </trkpt>
      <trkpt lat="45.2135" lon="6.01944">
        <ele>2181.2</ele>
        <time>2021-02-27T09:34:47Z</time>
      </trkpt>
      <trkpt lat="45.2135" lon="6.01944">
        <ele>2181.2</ele>
        <time>2021-02-27T09:34:48Z</time>
      </trkpt>
      <trkpt lat="45.21351" lon="6.01947">
        <ele>2181.4</ele>
        <time>2021-02-27T09:34:49Z</time>
      </trkpt>
      <trkpt lat="45.21351" lon="6.01947">
        <ele>2181.4</ele>
        <time>2021-02-27T09:34:50Z</time>
      </trkpt>
      <trkpt lat="45.21353" lon="6.01951">
        <ele>2181.6</ele>
        <time>2021-02-27T09:34:51Z</time>
      </trkpt>
      <trkpt lat="45.21355" lon="6.01953">
        <ele>2181.6</ele>
        <time>2021-02-27T09:34:52Z</time>
      </trkpt>
      <trkpt lat="45.21357" lon="6.01956">
        <ele>2181.6</ele>
        <time>2021-02-27T09:34:53Z</time>
      </trkpt>
      <trkpt lat="45.21358" lon="6.01959">
        <ele>2181.4</ele>
        <time>2021-02-27T09:34:54Z</time>
      </trkpt>
      <trkpt lat="45.2136" lon="6.01961">
        <ele>2181.2</ele>
        <time>2021-02-27T09:34:55Z</time>
      </trkpt>
      <trkpt lat="45.2136" lon="6.01961">
        <ele>2180.8</ele>
        <time>2021-02-27T09:34:56Z</time>
      </trkpt>
      <trkpt lat="45.21362" lon="6.01964">
        <ele>2180.6</ele>
        <time>2021-02-27T09:34:57Z</time>
      </trkpt>
      <trkpt lat="45.21362" lon="6.01964">
        <ele>2180.4</ele>
        <time>2021-02-27T09:34:58Z</time>
      </trkpt>
      <trkpt lat="45.21365" lon="6.01965">
        <ele>2180.2</ele>
        <time>2021-02-27T09:34:59Z</time>
      </trkpt>
      <trkpt lat="45.21365" lon="6.01965">
        <ele>2180.2</ele>
        <time>2021-02-27T09:35:00Z</time>
      </trkpt>
      <trkpt lat="45.21367" lon="6.01966">
        <ele>2180.6</ele>
        <time>2021-02-27T09:35:01Z</time>
      </trkpt>
      <trkpt lat="45.21367" lon="6.01966">
        <ele>2180.6</ele>
        <time>2021-02-27T09:35:02Z</time>
      </trkpt>
      <trkpt lat="45.21369" lon="6.01969">
        <ele>2180.8</ele>
        <time>2021-02-27T09:35:03Z</time>
      </trkpt>
      <trkpt lat="45.21369" lon="6.01969">
        <ele>2181</ele>
        <time>2021-02-27T09:35:04Z</time>
      </trkpt>
      <trkpt lat="45.2137" lon="6.01972">
        <ele>2181.2</ele>
        <time>2021-02-27T09:35:05Z</time>
      </trkpt>
      <trkpt lat="45.2137" lon="6.01972">
        <ele>2181</ele>
        <time>2021-02-27T09:35:06Z</time>
      </trkpt>
      <trkpt lat="45.2137" lon="6.01975">
        <ele>2181.2</ele>
        <time>2021-02-27T09:35:07Z</time>
      </trkpt>
      <trkpt lat="45.2137" lon="6.01975">
        <ele>2181.6</ele>
        <time>2021-02-27T09:35:08Z</time>
      </trkpt>
      <trkpt lat="45.2137" lon="6.0198">
        <ele>2181.2</ele>
        <time>2021-02-27T09:35:09Z</time>
      </trkpt>
      <trkpt lat="45.2137" lon="6.0198">
        <ele>2181.6</ele>
        <time>2021-02-27T09:35:10Z</time>
      </trkpt>
      <trkpt lat="45.21369" lon="6.01984">
        <ele>2181.8</ele>
        <time>2021-02-27T09:35:11Z</time>
      </trkpt>
      <trkpt lat="45.21369" lon="6.01984">
        <ele>2181.8</ele>
        <time>2021-02-27T09:35:12Z</time>
      </trkpt>
      <trkpt lat="45.21369" lon="6.01987">
        <ele>2182</ele>
        <time>2021-02-27T09:35:13Z</time>
      </trkpt>
      <trkpt lat="45.21369" lon="6.01987">
        <ele>2182</ele>
        <time>2021-02-27T09:35:14Z</time>
      </trkpt>
      <trkpt lat="45.21369" lon="6.01991">
        <ele>2182</ele>
        <time>2021-02-27T09:35:15Z</time>
      </trkpt>
      <trkpt lat="45.21369" lon="6.01991">
        <ele>2182.4</ele>
        <time>2021-02-27T09:35:16Z</time>
      </trkpt>
      <trkpt lat="45.2137" lon="6.01994">
        <ele>2182.2</ele>
        <time>2021-02-27T09:35:17Z</time>
      </trkpt>
      <trkpt lat="45.2137" lon="6.01994">
        <ele>2182.2</ele>
        <time>2021-02-27T09:35:18Z</time>
      </trkpt>
      <trkpt lat="45.21371" lon="6.01996">
        <ele>2182.8</ele>
        <time>2021-02-27T09:35:19Z</time>
      </trkpt>
      <trkpt lat="45.21371" lon="6.01996">
        <ele>2182.8</ele>
        <time>2021-02-27T09:35:20Z</time>
      </trkpt>
      <trkpt lat="45.21372" lon="6.01999">
        <ele>2183.4</ele>
        <time>2021-02-27T09:35:21Z</time>
      </trkpt>
      <trkpt lat="45.21372" lon="6.01999">
        <ele>2183.6</ele>
        <time>2021-02-27T09:35:22Z</time>
      </trkpt>
      <trkpt lat="45.21373" lon="6.02002">
        <ele>2183.6</ele>
        <time>2021-02-27T09:35:23Z</time>
      </trkpt>
      <trkpt lat="45.21373" lon="6.02002">
        <ele>2184</ele>
        <time>2021-02-27T09:35:24Z</time>
      </trkpt>
      <trkpt lat="45.21374" lon="6.02006">
        <ele>2183.8</ele>
        <time>2021-02-27T09:35:25Z</time>
      </trkpt>
      <trkpt lat="45.21374" lon="6.02006">
        <ele>2184.2</ele>
        <time>2021-02-27T09:35:26Z</time>
      </trkpt>
      <trkpt lat="45.21375" lon="6.02009">
        <ele>2184.8</ele>
        <time>2021-02-27T09:35:27Z</time>
      </trkpt>
      <trkpt lat="45.21375" lon="6.02009">
        <ele>2185</ele>
        <time>2021-02-27T09:35:28Z</time>
      </trkpt>
      <trkpt lat="45.21375" lon="6.02014">
        <ele>2185.2</ele>
        <time>2021-02-27T09:35:29Z</time>
      </trkpt>
      <trkpt lat="45.21375" lon="6.02018">
        <ele>2185</ele>
        <time>2021-02-27T09:35:30Z</time>
      </trkpt>
      <trkpt lat="45.21375" lon="6.02024">
        <ele>2184.6</ele>
        <time>2021-02-27T09:35:31Z</time>
      </trkpt>
      <trkpt lat="45.21375" lon="6.02029">
        <ele>2184.4</ele>
        <time>2021-02-27T09:35:32Z</time>
      </trkpt>
      <trkpt lat="45.21376" lon="6.02033">
        <ele>2183.8</ele>
        <time>2021-02-27T09:35:33Z</time>
      </trkpt>
      <trkpt lat="45.21376" lon="6.02036">
        <ele>2183</ele>
        <time>2021-02-27T09:35:34Z</time>
      </trkpt>
      <trkpt lat="45.21376" lon="6.02036">
        <ele>2183</ele>
        <time>2021-02-27T09:35:35Z</time>
      </trkpt>
      <trkpt lat="45.21377" lon="6.02039">
        <ele>2183</ele>
        <time>2021-02-27T09:35:36Z</time>
      </trkpt>
      <trkpt lat="45.21377" lon="6.02039">
        <ele>2182.8</ele>
        <time>2021-02-27T09:35:37Z</time>
      </trkpt>
      <trkpt lat="45.21379" lon="6.02043">
        <ele>2182.4</ele>
        <time>2021-02-27T09:35:38Z</time>
      </trkpt>
      <trkpt lat="45.21379" lon="6.02047">
        <ele>2182.6</ele>
        <time>2021-02-27T09:35:39Z</time>
      </trkpt>
      <trkpt lat="45.2138" lon="6.02052">
        <ele>2182.4</ele>
        <time>2021-02-27T09:35:40Z</time>
      </trkpt>
      <trkpt lat="45.21381" lon="6.02059">
        <ele>2182.4</ele>
        <time>2021-02-27T09:35:41Z</time>
      </trkpt>
      <trkpt lat="45.21381" lon="6.02066">
        <ele>2182</ele>
        <time>2021-02-27T09:35:42Z</time>
      </trkpt>
      <trkpt lat="45.21382" lon="6.02073">
        <ele>2180.8</ele>
        <time>2021-02-27T09:35:43Z</time>
      </trkpt>
      <trkpt lat="45.21383" lon="6.0208">
        <ele>2180.4</ele>
        <time>2021-02-27T09:35:44Z</time>
      </trkpt>
      <trkpt lat="45.21383" lon="6.02087">
        <ele>2180</ele>
        <time>2021-02-27T09:35:45Z</time>
      </trkpt>
      <trkpt lat="45.21383" lon="6.02093">
        <ele>2179.2</ele>
        <time>2021-02-27T09:35:46Z</time>
      </trkpt>
      <trkpt lat="45.21383" lon="6.021">
        <ele>2178.6</ele>
        <time>2021-02-27T09:35:47Z</time>
      </trkpt>
      <trkpt lat="45.21383" lon="6.02105">
        <ele>2177.6</ele>
        <time>2021-02-27T09:35:48Z</time>
      </trkpt>
      <trkpt lat="45.21384" lon="6.0211">
        <ele>2176.6</ele>
        <time>2021-02-27T09:35:49Z</time>
      </trkpt>
      <trkpt lat="45.21384" lon="6.02113">
        <ele>2175.8</ele>
        <time>2021-02-27T09:35:50Z</time>
      </trkpt>
      <trkpt lat="45.21385" lon="6.02117">
        <ele>2175.2</ele>
        <time>2021-02-27T09:35:51Z</time>
      </trkpt>
      <trkpt lat="45.21386" lon="6.02121">
        <ele>2175</ele>
        <time>2021-02-27T09:35:52Z</time>
      </trkpt>
      <trkpt lat="45.21386" lon="6.02125">
        <ele>2174.2</ele>
        <time>2021-02-27T09:35:53Z</time>
      </trkpt>
      <trkpt lat="45.21387" lon="6.02129">
        <ele>2173.8</ele>
        <time>2021-02-27T09:35:54Z</time>
      </trkpt>
      <trkpt lat="45.21388" lon="6.02135">
        <ele>2172.8</ele>
        <time>2021-02-27T09:35:55Z</time>
      </trkpt>
      <trkpt lat="45.2139" lon="6.02141">
        <ele>2172.4</ele>
        <time>2021-02-27T09:35:56Z</time>
      </trkpt>
      <trkpt lat="45.21391" lon="6.02147">
        <ele>2172</ele>
        <time>2021-02-27T09:35:57Z</time>
      </trkpt>
      <trkpt lat="45.21392" lon="6.02153">
        <ele>2171.4</ele>
        <time>2021-02-27T09:35:58Z</time>
      </trkpt>
      <trkpt lat="45.21392" lon="6.02158">
        <ele>2170.8</ele>
        <time>2021-02-27T09:35:59Z</time>
      </trkpt>
      <trkpt lat="45.21393" lon="6.02163">
        <ele>2170</ele>
        <time>2021-02-27T09:36:00Z</time>
      </trkpt>
      <trkpt lat="45.21393" lon="6.02167">
        <ele>2169.8</ele>
        <time>2021-02-27T09:36:01Z</time>
      </trkpt>
      <trkpt lat="45.21393" lon="6.02171">
        <ele>2169.8</ele>
        <time>2021-02-27T09:36:02Z</time>
      </trkpt>
      <trkpt lat="45.21393" lon="6.02173">
        <ele>2169.4</ele>
        <time>2021-02-27T09:36:03Z</time>
      </trkpt>
      <trkpt lat="45.21393" lon="6.02173">
        <ele>2169</ele>
        <time>2021-02-27T09:36:04Z</time>
      </trkpt>
      <trkpt lat="45.21393" lon="6.02178">
        <ele>2169</ele>
        <time>2021-02-27T09:36:05Z</time>
      </trkpt>
      <trkpt lat="45.21393" lon="6.0218">
        <ele>2169</ele>
        <time>2021-02-27T09:36:06Z</time>
      </trkpt>
      <trkpt lat="45.21393" lon="6.02183">
        <ele>2169</ele>
        <time>2021-02-27T09:36:07Z</time>
      </trkpt>
      <trkpt lat="45.21393" lon="6.02187">
        <ele>2169</ele>
        <time>2021-02-27T09:36:08Z</time>
      </trkpt>
      <trkpt lat="45.21394" lon="6.02191">
        <ele>2169</ele>
        <time>2021-02-27T09:36:09Z</time>
      </trkpt>
      <trkpt lat="45.21394" lon="6.02195">
        <ele>2169</ele>
        <time>2021-02-27T09:36:10Z</time>
      </trkpt>
      <trkpt lat="45.21395" lon="6.02198">
        <ele>2168.4</ele>
        <time>2021-02-27T09:36:11Z</time>
      </trkpt>
      <trkpt lat="45.21395" lon="6.02198">
        <ele>2167.6</ele>
        <time>2021-02-27T09:36:12Z</time>
      </trkpt>
      <trkpt lat="45.21395" lon="6.02203">
        <ele>2167.2</ele>
        <time>2021-02-27T09:36:13Z</time>
      </trkpt>
      <trkpt lat="45.21395" lon="6.02206">
        <ele>2167</ele>
        <time>2021-02-27T09:36:14Z</time>
      </trkpt>
      <trkpt lat="45.21395" lon="6.02209">
        <ele>2167</ele>
        <time>2021-02-27T09:36:15Z</time>
      </trkpt>
      <trkpt lat="45.21395" lon="6.02212">
        <ele>2167</ele>
        <time>2021-02-27T09:36:16Z</time>
      </trkpt>
      <trkpt lat="45.21395" lon="6.02212">
        <ele>2166.8</ele>
        <time>2021-02-27T09:36:17Z</time>
      </trkpt>
      <trkpt lat="45.21396" lon="6.02217">
        <ele>2166.8</ele>
        <time>2021-02-27T09:36:18Z</time>
      </trkpt>
      <trkpt lat="45.21396" lon="6.0222">
        <ele>2166.6</ele>
        <time>2021-02-27T09:36:19Z</time>
      </trkpt>
      <trkpt lat="45.21396" lon="6.02224">
        <ele>2166.6</ele>
        <time>2021-02-27T09:36:20Z</time>
      </trkpt>
      <trkpt lat="45.21396" lon="6.02228">
        <ele>2166.6</ele>
        <time>2021-02-27T09:36:21Z</time>
      </trkpt>
      <trkpt lat="45.21396" lon="6.02232">
        <ele>2166.6</ele>
        <time>2021-02-27T09:36:22Z</time>
      </trkpt>
      <trkpt lat="45.21396" lon="6.02235">
        <ele>2166.4</ele>
        <time>2021-02-27T09:36:23Z</time>
      </trkpt>
      <trkpt lat="45.21397" lon="6.02238">
        <ele>2166.2</ele>
        <time>2021-02-27T09:36:24Z</time>
      </trkpt>
      <trkpt lat="45.21397" lon="6.0224">
        <ele>2166</ele>
        <time>2021-02-27T09:36:25Z</time>
      </trkpt>
      <trkpt lat="45.21397" lon="6.02243">
        <ele>2166</ele>
        <time>2021-02-27T09:36:26Z</time>
      </trkpt>
      <trkpt lat="45.21398" lon="6.02246">
        <ele>2166</ele>
        <time>2021-02-27T09:36:27Z</time>
      </trkpt>
      <trkpt lat="45.21398" lon="6.02246">
        <ele>2166</ele>
        <time>2021-02-27T09:36:28Z</time>
      </trkpt>
      <trkpt lat="45.21399" lon="6.0225">
        <ele>2165.6</ele>
        <time>2021-02-27T09:36:29Z</time>
      </trkpt>
      <trkpt lat="45.21399" lon="6.0225">
        <ele>2165.6</ele>
        <time>2021-02-27T09:36:30Z</time>
      </trkpt>
      <trkpt lat="45.21401" lon="6.02253">
        <ele>2165.6</ele>
        <time>2021-02-27T09:36:31Z</time>
      </trkpt>
      <trkpt lat="45.21401" lon="6.02253">
        <ele>2165.4</ele>
        <time>2021-02-27T09:36:32Z</time>
      </trkpt>
      <trkpt lat="45.21401" lon="6.02253">
        <ele>2165.2</ele>
        <time>2021-02-27T09:36:33Z</time>
      </trkpt>
      <trkpt lat="45.21401" lon="6.02253">
        <ele>2165</ele>
        <time>2021-02-27T09:36:34Z</time>
      </trkpt>
      <trkpt lat="45.21401" lon="6.02253">
        <ele>2164.8</ele>
        <time>2021-02-27T09:36:35Z</time>
      </trkpt>
      <trkpt lat="45.21401" lon="6.02253">
        <ele>2164.6</ele>
        <time>2021-02-27T09:36:36Z</time>
      </trkpt>
      <trkpt lat="45.21401" lon="6.02253">
        <ele>2164.6</ele>
        <time>2021-02-27T09:36:37Z</time>
      </trkpt>
      <trkpt lat="45.21401" lon="6.02253">
        <ele>2164.4</ele>
        <time>2021-02-27T09:36:38Z</time>
      </trkpt>
      <trkpt lat="45.21401" lon="6.02253">
        <ele>2164.6</ele>
        <time>2021-02-27T09:36:39Z</time>
      </trkpt>
      <trkpt lat="45.21401" lon="6.02253">
        <ele>2164.4</ele>
        <time>2021-02-27T09:36:40Z</time>
      </trkpt>
      <trkpt lat="45.21401" lon="6.02253">
        <ele>2164.4</ele>
        <time>2021-02-27T09:36:41Z</time>
      </trkpt>
      <trkpt lat="45.21401" lon="6.02253">
        <ele>2164.4</ele>
        <time>2021-02-27T09:36:42Z</time>
      </trkpt>
      <trkpt lat="45.21401" lon="6.02253">
        <ele>2164.4</ele>
        <time>2021-02-27T09:36:43Z</time>
      </trkpt>
      <trkpt lat="45.21401" lon="6.02253">
        <ele>2164.6</ele>
        <time>2021-02-27T09:36:44Z</time>
      </trkpt>
      <trkpt lat="45.21401" lon="6.02253">
        <ele>2164.8</ele>
        <time>2021-02-27T09:36:45Z</time>
      </trkpt>
      <trkpt lat="45.21401" lon="6.02253">
        <ele>2165.4</ele>
        <time>2021-02-27T09:36:46Z</time>
      </trkpt>
      <trkpt lat="45.21401" lon="6.02253">
        <ele>2166</ele>
        <time>2021-02-27T09:36:47Z</time>
      </trkpt>
      <trkpt lat="45.21401" lon="6.02253">
        <ele>2166</ele>
        <time>2021-02-27T09:36:48Z</time>
      </trkpt>
      <trkpt lat="45.21401" lon="6.02253">
        <ele>2166</ele>
        <time>2021-02-27T09:36:49Z</time>
      </trkpt>
      <trkpt lat="45.21401" lon="6.02253">
        <ele>2166.2</ele>
        <time>2021-02-27T09:36:50Z</time>
      </trkpt>
      <trkpt lat="45.21401" lon="6.02253">
        <ele>2166</ele>
        <time>2021-02-27T09:36:51Z</time>
      </trkpt>
      <trkpt lat="45.21401" lon="6.02253">
        <ele>2166</ele>
        <time>2021-02-27T09:36:52Z</time>
      </trkpt>
      <trkpt lat="45.21401" lon="6.02253">
        <ele>2166</ele>
        <time>2021-02-27T09:36:53Z</time>
      </trkpt>
      <trkpt lat="45.21401" lon="6.02253">
        <ele>2165.8</ele>
        <time>2021-02-27T09:36:54Z</time>
      </trkpt>
      <trkpt lat="45.21401" lon="6.02253">
        <ele>2165.6</ele>
        <time>2021-02-27T09:36:55Z</time>
      </trkpt>
      <trkpt lat="45.21401" lon="6.02253">
        <ele>2165.4</ele>
        <time>2021-02-27T09:36:56Z</time>
      </trkpt>
      <trkpt lat="45.21401" lon="6.02253">
        <ele>2165.4</ele>
        <time>2021-02-27T09:36:57Z</time>
      </trkpt>
      <trkpt lat="45.21401" lon="6.02253">
        <ele>2165.2</ele>
        <time>2021-02-27T09:36:58Z</time>
      </trkpt>
      <trkpt lat="45.21401" lon="6.02253">
        <ele>2165.6</ele>
        <time>2021-02-27T09:36:59Z</time>
      </trkpt>
      <trkpt lat="45.21401" lon="6.02253">
        <ele>2166</ele>
        <time>2021-02-27T09:37:00Z</time>
      </trkpt>
      <trkpt lat="45.21401" lon="6.02253">
        <ele>2166.4</ele>
        <time>2021-02-27T09:37:01Z</time>
      </trkpt>
      <trkpt lat="45.21401" lon="6.02253">
        <ele>2166.6</ele>
        <time>2021-02-27T09:37:02Z</time>
      </trkpt>
      <trkpt lat="45.21401" lon="6.02253">
        <ele>2166.8</ele>
        <time>2021-02-27T09:37:03Z</time>
      </trkpt>
      <trkpt lat="45.21401" lon="6.02253">
        <ele>2166.6</ele>
        <time>2021-02-27T09:37:04Z</time>
      </trkpt>
      <trkpt lat="45.21401" lon="6.02253">
        <ele>2166.4</ele>
        <time>2021-02-27T09:37:05Z</time>
      </trkpt>
      <trkpt lat="45.21401" lon="6.02253">
        <ele>2166.4</ele>
        <time>2021-02-27T09:37:06Z</time>
      </trkpt>
      <trkpt lat="45.21401" lon="6.02253">
        <ele>2166.6</ele>
        <time>2021-02-27T09:37:07Z</time>
      </trkpt>
      <trkpt lat="45.21401" lon="6.02253">
        <ele>2166.6</ele>
        <time>2021-02-27T09:37:08Z</time>
      </trkpt>
      <trkpt lat="45.21401" lon="6.02253">
        <ele>2166.4</ele>
        <time>2021-02-27T09:37:09Z</time>
      </trkpt>
      <trkpt lat="45.21401" lon="6.02253">
        <ele>2166.4</ele>
        <time>2021-02-27T09:37:10Z</time>
      </trkpt>
      <trkpt lat="45.21401" lon="6.02253">
        <ele>2166.2</ele>
        <time>2021-02-27T09:37:11Z</time>
      </trkpt>
      <trkpt lat="45.21401" lon="6.02253">
        <ele>2166.2</ele>
        <time>2021-02-27T09:37:12Z</time>
      </trkpt>
      <trkpt lat="45.21401" lon="6.02253">
        <ele>2166.2</ele>
        <time>2021-02-27T09:37:13Z</time>
      </trkpt>
      <trkpt lat="45.21401" lon="6.02253">
        <ele>2166</ele>
        <time>2021-02-27T09:37:14Z</time>
      </trkpt>
      <trkpt lat="45.21401" lon="6.02253">
        <ele>2166.4</ele>
        <time>2021-02-27T09:37:15Z</time>
      </trkpt>
      <trkpt lat="45.21401" lon="6.02253">
        <ele>2166.6</ele>
        <time>2021-02-27T09:37:16Z</time>
      </trkpt>
      <trkpt lat="45.21401" lon="6.02253">
        <ele>2166.4</ele>
        <time>2021-02-27T09:37:17Z</time>
      </trkpt>
      <trkpt lat="45.21401" lon="6.02253">
        <ele>2166.6</ele>
        <time>2021-02-27T09:37:18Z</time>
      </trkpt>
      <trkpt lat="45.21401" lon="6.02253">
        <ele>2166.6</ele>
        <time>2021-02-27T09:37:19Z</time>
      </trkpt>
      <trkpt lat="45.21401" lon="6.02253">
        <ele>2166.8</ele>
        <time>2021-02-27T09:37:20Z</time>
      </trkpt>
      <trkpt lat="45.21401" lon="6.02253">
        <ele>2167</ele>
        <time>2021-02-27T09:37:21Z</time>
      </trkpt>
      <trkpt lat="45.21401" lon="6.02253">
        <ele>2166.6</ele>
        <time>2021-02-27T09:37:22Z</time>
      </trkpt>
      <trkpt lat="45.21401" lon="6.02253">
        <ele>2165.8</ele>
        <time>2021-02-27T09:37:23Z</time>
      </trkpt>
      <trkpt lat="45.21401" lon="6.02253">
        <ele>2165.8</ele>
        <time>2021-02-27T09:37:24Z</time>
      </trkpt>
      <trkpt lat="45.21402" lon="6.02255">
        <ele>2165.6</ele>
        <time>2021-02-27T09:37:25Z</time>
      </trkpt>
      <trkpt lat="45.21402" lon="6.02255">
        <ele>2165.6</ele>
        <time>2021-02-27T09:37:26Z</time>
      </trkpt>
      <trkpt lat="45.21402" lon="6.02255">
        <ele>2165.8</ele>
        <time>2021-02-27T09:37:27Z</time>
      </trkpt>
      <trkpt lat="45.21402" lon="6.02255">
        <ele>2166</ele>
        <time>2021-02-27T09:37:28Z</time>
      </trkpt>
      <trkpt lat="45.21402" lon="6.02259">
        <ele>2166.2</ele>
        <time>2021-02-27T09:37:29Z</time>
      </trkpt>
      <trkpt lat="45.21402" lon="6.02259">
        <ele>2166</ele>
        <time>2021-02-27T09:37:30Z</time>
      </trkpt>
      <trkpt lat="45.21403" lon="6.02262">
        <ele>2166</ele>
        <time>2021-02-27T09:37:31Z</time>
      </trkpt>
      <trkpt lat="45.21404" lon="6.02264">
        <ele>2165.6</ele>
        <time>2021-02-27T09:37:32Z</time>
      </trkpt>
      <trkpt lat="45.21405" lon="6.02267">
        <ele>2165.8</ele>
        <time>2021-02-27T09:37:33Z</time>
      </trkpt>
      <trkpt lat="45.21406" lon="6.02269">
        <ele>2165.8</ele>
        <time>2021-02-27T09:37:34Z</time>
      </trkpt>
      <trkpt lat="45.21408" lon="6.02271">
        <ele>2165.4</ele>
        <time>2021-02-27T09:37:35Z</time>
      </trkpt>
      <trkpt lat="45.2141" lon="6.02275">
        <ele>2165</ele>
        <time>2021-02-27T09:37:36Z</time>
      </trkpt>
      <trkpt lat="45.21412" lon="6.02279">
        <ele>2164.8</ele>
        <time>2021-02-27T09:37:37Z</time>
      </trkpt>
      <trkpt lat="45.21416" lon="6.02285">
        <ele>2164.6</ele>
        <time>2021-02-27T09:37:38Z</time>
      </trkpt>
      <trkpt lat="45.21419" lon="6.0229">
        <ele>2164</ele>
        <time>2021-02-27T09:37:39Z</time>
      </trkpt>
      <trkpt lat="45.21423" lon="6.02296">
        <ele>2163.8</ele>
        <time>2021-02-27T09:37:40Z</time>
      </trkpt>
      <trkpt lat="45.21428" lon="6.02302">
        <ele>2163.6</ele>
        <time>2021-02-27T09:37:41Z</time>
      </trkpt>
      <trkpt lat="45.21432" lon="6.02308">
        <ele>2163.4</ele>
        <time>2021-02-27T09:37:42Z</time>
      </trkpt>
      <trkpt lat="45.21437" lon="6.02312">
        <ele>2163</ele>
        <time>2021-02-27T09:37:43Z</time>
      </trkpt>
      <trkpt lat="45.21443" lon="6.02315">
        <ele>2162.4</ele>
        <time>2021-02-27T09:37:44Z</time>
      </trkpt>
      <trkpt lat="45.21447" lon="6.02321">
        <ele>2161.4</ele>
        <time>2021-02-27T09:37:45Z</time>
      </trkpt>
      <trkpt lat="45.21452" lon="6.02329">
        <ele>2160.4</ele>
        <time>2021-02-27T09:37:46Z</time>
      </trkpt>
      <trkpt lat="45.21458" lon="6.02338">
        <ele>2159.6</ele>
        <time>2021-02-27T09:37:47Z</time>
      </trkpt>
      <trkpt lat="45.21464" lon="6.02349">
        <ele>2157.8</ele>
        <time>2021-02-27T09:37:48Z</time>
      </trkpt>
      <trkpt lat="45.21467" lon="6.0236">
        <ele>2156.4</ele>
        <time>2021-02-27T09:37:49Z</time>
      </trkpt>
      <trkpt lat="45.21469" lon="6.02369">
        <ele>2155.8</ele>
        <time>2021-02-27T09:37:50Z</time>
      </trkpt>
      <trkpt lat="45.21471" lon="6.02376">
        <ele>2154.4</ele>
        <time>2021-02-27T09:37:51Z</time>
      </trkpt>
      <trkpt lat="45.21475" lon="6.02382">
        <ele>2153.6</ele>
        <time>2021-02-27T09:37:52Z</time>
      </trkpt>
      <trkpt lat="45.21478" lon="6.02387">
        <ele>2152.2</ele>
        <time>2021-02-27T09:37:53Z</time>
      </trkpt>
      <trkpt lat="45.21478" lon="6.02393">
        <ele>2150.8</ele>
        <time>2021-02-27T09:37:54Z</time>
      </trkpt>
      <trkpt lat="45.21477" lon="6.02399">
        <ele>2148.6</ele>
        <time>2021-02-27T09:37:55Z</time>
      </trkpt>
      <trkpt lat="45.21479" lon="6.02405">
        <ele>2147.4</ele>
        <time>2021-02-27T09:37:56Z</time>
      </trkpt>
      <trkpt lat="45.21481" lon="6.0241">
        <ele>2145.6</ele>
        <time>2021-02-27T09:37:57Z</time>
      </trkpt>
      <trkpt lat="45.21482" lon="6.02417">
        <ele>2144</ele>
        <time>2021-02-27T09:37:58Z</time>
      </trkpt>
      <trkpt lat="45.21484" lon="6.02422">
        <ele>2142</ele>
        <time>2021-02-27T09:37:59Z</time>
      </trkpt>
      <trkpt lat="45.21485" lon="6.0243">
        <ele>2139.8</ele>
        <time>2021-02-27T09:38:00Z</time>
      </trkpt>
      <trkpt lat="45.21482" lon="6.02435">
        <ele>2138</ele>
        <time>2021-02-27T09:38:01Z</time>
      </trkpt>
      <trkpt lat="45.21476" lon="6.02439">
        <ele>2135.6</ele>
        <time>2021-02-27T09:38:02Z</time>
      </trkpt>
      <trkpt lat="45.21471" lon="6.02442">
        <ele>2134</ele>
        <time>2021-02-27T09:38:03Z</time>
      </trkpt>
      <trkpt lat="45.21467" lon="6.02446">
        <ele>2132.8</ele>
        <time>2021-02-27T09:38:04Z</time>
      </trkpt>
      <trkpt lat="45.21462" lon="6.0245">
        <ele>2131.2</ele>
        <time>2021-02-27T09:38:05Z</time>
      </trkpt>
      <trkpt lat="45.21459" lon="6.02452">
        <ele>2129.6</ele>
        <time>2021-02-27T09:38:06Z</time>
      </trkpt>
      <trkpt lat="45.21456" lon="6.02452">
        <ele>2127.8</ele>
        <time>2021-02-27T09:38:07Z</time>
      </trkpt>
      <trkpt lat="45.21453" lon="6.02452">
        <ele>2126</ele>
        <time>2021-02-27T09:38:08Z</time>
      </trkpt>
      <trkpt lat="45.21448" lon="6.02454">
        <ele>2124.8</ele>
        <time>2021-02-27T09:38:09Z</time>
      </trkpt>
      <trkpt lat="45.21443" lon="6.02459">
        <ele>2123.8</ele>
        <time>2021-02-27T09:38:10Z</time>
      </trkpt>
      <trkpt lat="45.2144" lon="6.02466">
        <ele>2122</ele>
        <time>2021-02-27T09:38:11Z</time>
      </trkpt>
      <trkpt lat="45.21441" lon="6.02474">
        <ele>2120.8</ele>
        <time>2021-02-27T09:38:12Z</time>
      </trkpt>
      <trkpt lat="45.21444" lon="6.0248">
        <ele>2119.4</ele>
        <time>2021-02-27T09:38:13Z</time>
      </trkpt>
      <trkpt lat="45.21452" lon="6.02485">
        <ele>2118.2</ele>
        <time>2021-02-27T09:38:14Z</time>
      </trkpt>
      <trkpt lat="45.21458" lon="6.02491">
        <ele>2117</ele>
        <time>2021-02-27T09:38:15Z</time>
      </trkpt>
      <trkpt lat="45.21462" lon="6.02502">
        <ele>2115.2</ele>
        <time>2021-02-27T09:38:16Z</time>
      </trkpt>
      <trkpt lat="45.21462" lon="6.02502">
        <ele>2114</ele>
        <time>2021-02-27T09:38:17Z</time>
      </trkpt>
      <trkpt lat="45.21465" lon="6.02528">
        <ele>2113</ele>
        <time>2021-02-27T09:38:18Z</time>
      </trkpt>
      <trkpt lat="45.21465" lon="6.0253">
        <ele>2112</ele>
        <time>2021-02-27T09:38:19Z</time>
      </trkpt>
      <trkpt lat="45.21465" lon="6.02536">
        <ele>2110.2</ele>
        <time>2021-02-27T09:38:20Z</time>
      </trkpt>
      <trkpt lat="45.21466" lon="6.0254">
        <ele>2108.6</ele>
        <time>2021-02-27T09:38:21Z</time>
      </trkpt>
      <trkpt lat="45.21467" lon="6.02545">
        <ele>2108</ele>
        <time>2021-02-27T09:38:22Z</time>
      </trkpt>
      <trkpt lat="45.2147" lon="6.02553">
        <ele>2107.6</ele>
        <time>2021-02-27T09:38:23Z</time>
      </trkpt>
      <trkpt lat="45.21473" lon="6.02561">
        <ele>2106.6</ele>
        <time>2021-02-27T09:38:24Z</time>
      </trkpt>
      <trkpt lat="45.21478" lon="6.0257">
        <ele>2105.6</ele>
        <time>2021-02-27T09:38:25Z</time>
      </trkpt>
      <trkpt lat="45.21482" lon="6.02579">
        <ele>2104.6</ele>
        <time>2021-02-27T09:38:26Z</time>
      </trkpt>
      <trkpt lat="45.21486" lon="6.02587">
        <ele>2103.8</ele>
        <time>2021-02-27T09:38:27Z</time>
      </trkpt>
      <trkpt lat="45.21489" lon="6.02592">
        <ele>2102.8</ele>
        <time>2021-02-27T09:38:28Z</time>
      </trkpt>
      <trkpt lat="45.21493" lon="6.02598">
        <ele>2102.2</ele>
        <time>2021-02-27T09:38:29Z</time>
      </trkpt>
      <trkpt lat="45.21497" lon="6.02607">
        <ele>2101.8</ele>
        <time>2021-02-27T09:38:30Z</time>
      </trkpt>
      <trkpt lat="45.21502" lon="6.02615">
        <ele>2100.8</ele>
        <time>2021-02-27T09:38:31Z</time>
      </trkpt>
      <trkpt lat="45.21507" lon="6.02623">
        <ele>2099.6</ele>
        <time>2021-02-27T09:38:32Z</time>
      </trkpt>
      <trkpt lat="45.21512" lon="6.02629">
        <ele>2098.6</ele>
        <time>2021-02-27T09:38:33Z</time>
      </trkpt>
      <trkpt lat="45.21517" lon="6.02634">
        <ele>2098.8</ele>
        <time>2021-02-27T09:38:34Z</time>
      </trkpt>
      <trkpt lat="45.21521" lon="6.0264">
        <ele>2098</ele>
        <time>2021-02-27T09:38:35Z</time>
      </trkpt>
      <trkpt lat="45.21525" lon="6.02646">
        <ele>2097.4</ele>
        <time>2021-02-27T09:38:36Z</time>
      </trkpt>
      <trkpt lat="45.21529" lon="6.02652">
        <ele>2097.2</ele>
        <time>2021-02-27T09:38:37Z</time>
      </trkpt>
      <trkpt lat="45.21532" lon="6.02657">
        <ele>2096.2</ele>
        <time>2021-02-27T09:38:38Z</time>
      </trkpt>
      <trkpt lat="45.21535" lon="6.02661">
        <ele>2095.2</ele>
        <time>2021-02-27T09:38:39Z</time>
      </trkpt>
      <trkpt lat="45.21537" lon="6.02666">
        <ele>2094</ele>
        <time>2021-02-27T09:38:40Z</time>
      </trkpt>
      <trkpt lat="45.21536" lon="6.02671">
        <ele>2092.8</ele>
        <time>2021-02-27T09:38:41Z</time>
      </trkpt>
      <trkpt lat="45.21533" lon="6.02675">
        <ele>2091.6</ele>
        <time>2021-02-27T09:38:42Z</time>
      </trkpt>
      <trkpt lat="45.21532" lon="6.0268">
        <ele>2090</ele>
        <time>2021-02-27T09:38:43Z</time>
      </trkpt>
      <trkpt lat="45.21533" lon="6.02684">
        <ele>2088.8</ele>
        <time>2021-02-27T09:38:44Z</time>
      </trkpt>
      <trkpt lat="45.21537" lon="6.02688">
        <ele>2087.6</ele>
        <time>2021-02-27T09:38:45Z</time>
      </trkpt>
      <trkpt lat="45.21542" lon="6.0269">
        <ele>2086.4</ele>
        <time>2021-02-27T09:38:46Z</time>
      </trkpt>
      <trkpt lat="45.21546" lon="6.02694">
        <ele>2085.2</ele>
        <time>2021-02-27T09:38:47Z</time>
      </trkpt>
      <trkpt lat="45.2155" lon="6.02698">
        <ele>2084.6</ele>
        <time>2021-02-27T09:38:48Z</time>
      </trkpt>
      <trkpt lat="45.21555" lon="6.02702">
        <ele>2083.6</ele>
        <time>2021-02-27T09:38:49Z</time>
      </trkpt>
      <trkpt lat="45.2156" lon="6.02705">
        <ele>2082.4</ele>
        <time>2021-02-27T09:38:50Z</time>
      </trkpt>
      <trkpt lat="45.21565" lon="6.02709">
        <ele>2081.2</ele>
        <time>2021-02-27T09:38:51Z</time>
      </trkpt>
      <trkpt lat="45.21568" lon="6.02714">
        <ele>2080.4</ele>
        <time>2021-02-27T09:38:52Z</time>
      </trkpt>
      <trkpt lat="45.21567" lon="6.02721">
        <ele>2080.2</ele>
        <time>2021-02-27T09:38:53Z</time>
      </trkpt>
      <trkpt lat="45.21568" lon="6.02728">
        <ele>2079.4</ele>
        <time>2021-02-27T09:38:54Z</time>
      </trkpt>
      <trkpt lat="45.21568" lon="6.02728">
        <ele>2078.2</ele>
        <time>2021-02-27T09:38:55Z</time>
      </trkpt>
      <trkpt lat="45.21569" lon="6.02733">
        <ele>2075.6</ele>
        <time>2021-02-27T09:38:56Z</time>
      </trkpt>
      <trkpt lat="45.21569" lon="6.02738">
        <ele>2073.6</ele>
        <time>2021-02-27T09:38:57Z</time>
      </trkpt>
      <trkpt lat="45.2157" lon="6.02744">
        <ele>2072.2</ele>
        <time>2021-02-27T09:38:58Z</time>
      </trkpt>
      <trkpt lat="45.21565" lon="6.02747">
        <ele>2070.8</ele>
        <time>2021-02-27T09:38:59Z</time>
      </trkpt>
      <trkpt lat="45.21562" lon="6.02751">
        <ele>2069.6</ele>
        <time>2021-02-27T09:39:00Z</time>
      </trkpt>
      <trkpt lat="45.21564" lon="6.02755">
        <ele>2068.6</ele>
        <time>2021-02-27T09:39:01Z</time>
      </trkpt>
      <trkpt lat="45.21569" lon="6.02756">
        <ele>2066.2</ele>
        <time>2021-02-27T09:39:02Z</time>
      </trkpt>
      <trkpt lat="45.21575" lon="6.02758">
        <ele>2064.4</ele>
        <time>2021-02-27T09:39:03Z</time>
      </trkpt>
      <trkpt lat="45.2158" lon="6.02761">
        <ele>2062.8</ele>
        <time>2021-02-27T09:39:04Z</time>
      </trkpt>
      <trkpt lat="45.21587" lon="6.02764">
        <ele>2061.2</ele>
        <time>2021-02-27T09:39:05Z</time>
      </trkpt>
      <trkpt lat="45.21587" lon="6.02764">
        <ele>2059.8</ele>
        <time>2021-02-27T09:39:06Z</time>
      </trkpt>
      <trkpt lat="45.21598" lon="6.0277">
        <ele>2058.6</ele>
        <time>2021-02-27T09:39:07Z</time>
      </trkpt>
      <trkpt lat="45.216" lon="6.02772">
        <ele>2058.2</ele>
        <time>2021-02-27T09:39:08Z</time>
      </trkpt>
      <trkpt lat="45.21602" lon="6.02776">
        <ele>2057.8</ele>
        <time>2021-02-27T09:39:09Z</time>
      </trkpt>
      <trkpt lat="45.21603" lon="6.02781">
        <ele>2057.4</ele>
        <time>2021-02-27T09:39:10Z</time>
      </trkpt>
      <trkpt lat="45.21606" lon="6.02784">
        <ele>2057</ele>
        <time>2021-02-27T09:39:11Z</time>
      </trkpt>
      <trkpt lat="45.2161" lon="6.02785">
        <ele>2055.2</ele>
        <time>2021-02-27T09:39:12Z</time>
      </trkpt>
      <trkpt lat="45.21611" lon="6.02789">
        <ele>2053.6</ele>
        <time>2021-02-27T09:39:13Z</time>
      </trkpt>
      <trkpt lat="45.21611" lon="6.02794">
        <ele>2052.2</ele>
        <time>2021-02-27T09:39:14Z</time>
      </trkpt>
      <trkpt lat="45.21613" lon="6.028">
        <ele>2051.2</ele>
        <time>2021-02-27T09:39:15Z</time>
      </trkpt>
      <trkpt lat="45.21617" lon="6.02804">
        <ele>2050</ele>
        <time>2021-02-27T09:39:16Z</time>
      </trkpt>
      <trkpt lat="45.21621" lon="6.02807">
        <ele>2048.4</ele>
        <time>2021-02-27T09:39:17Z</time>
      </trkpt>
      <trkpt lat="45.21626" lon="6.02812">
        <ele>2047</ele>
        <time>2021-02-27T09:39:18Z</time>
      </trkpt>
      <trkpt lat="45.21631" lon="6.02817">
        <ele>2045.4</ele>
        <time>2021-02-27T09:39:19Z</time>
      </trkpt>
      <trkpt lat="45.21636" lon="6.02822">
        <ele>2044</ele>
        <time>2021-02-27T09:39:20Z</time>
      </trkpt>
      <trkpt lat="45.21641" lon="6.02827">
        <ele>2043</ele>
        <time>2021-02-27T09:39:21Z</time>
      </trkpt>
      <trkpt lat="45.21644" lon="6.0283">
        <ele>2042</ele>
        <time>2021-02-27T09:39:22Z</time>
      </trkpt>
      <trkpt lat="45.21647" lon="6.0283">
        <ele>2041.4</ele>
        <time>2021-02-27T09:39:23Z</time>
      </trkpt>
      <trkpt lat="45.21649" lon="6.02828">
        <ele>2041.4</ele>
        <time>2021-02-27T09:39:24Z</time>
      </trkpt>
      <trkpt lat="45.21649" lon="6.02828">
        <ele>2041.8</ele>
        <time>2021-02-27T09:39:25Z</time>
      </trkpt>
      <trkpt lat="45.21651" lon="6.02825">
        <ele>2042.2</ele>
        <time>2021-02-27T09:39:26Z</time>
      </trkpt>
      <trkpt lat="45.21651" lon="6.02825">
        <ele>2042.2</ele>
        <time>2021-02-27T09:39:27Z</time>
      </trkpt>
      <trkpt lat="45.21651" lon="6.02825">
        <ele>2041.8</ele>
        <time>2021-02-27T09:39:28Z</time>
      </trkpt>
      <trkpt lat="45.21654" lon="6.02825">
        <ele>2041.6</ele>
        <time>2021-02-27T09:39:29Z</time>
      </trkpt>
      <trkpt lat="45.21656" lon="6.02827">
        <ele>2041.2</ele>
        <time>2021-02-27T09:39:30Z</time>
      </trkpt>
      <trkpt lat="45.21657" lon="6.02831">
        <ele>2040.6</ele>
        <time>2021-02-27T09:39:31Z</time>
      </trkpt>
      <trkpt lat="45.21653" lon="6.02835">
        <ele>2039.4</ele>
        <time>2021-02-27T09:39:32Z</time>
      </trkpt>
      <trkpt lat="45.21649" lon="6.02839">
        <ele>2038</ele>
        <time>2021-02-27T09:39:33Z</time>
      </trkpt>
      <trkpt lat="45.21647" lon="6.02844">
        <ele>2036.6</ele>
        <time>2021-02-27T09:39:34Z</time>
      </trkpt>
      <trkpt lat="45.21645" lon="6.0285">
        <ele>2036</ele>
        <time>2021-02-27T09:39:35Z</time>
      </trkpt>
      <trkpt lat="45.21642" lon="6.02856">
        <ele>2034.4</ele>
        <time>2021-02-27T09:39:36Z</time>
      </trkpt>
      <trkpt lat="45.21642" lon="6.02862">
        <ele>2032.6</ele>
        <time>2021-02-27T09:39:37Z</time>
      </trkpt>
      <trkpt lat="45.21645" lon="6.02866">
        <ele>2030.4</ele>
        <time>2021-02-27T09:39:38Z</time>
      </trkpt>
      <trkpt lat="45.21648" lon="6.02868">
        <ele>2027.8</ele>
        <time>2021-02-27T09:39:39Z</time>
      </trkpt>
      <trkpt lat="45.21654" lon="6.02868">
        <ele>2025.8</ele>
        <time>2021-02-27T09:39:40Z</time>
      </trkpt>
      <trkpt lat="45.21659" lon="6.0287">
        <ele>2023.8</ele>
        <time>2021-02-27T09:39:41Z</time>
      </trkpt>
      <trkpt lat="45.21662" lon="6.02875">
        <ele>2022</ele>
        <time>2021-02-27T09:39:42Z</time>
      </trkpt>
      <trkpt lat="45.2166" lon="6.02881">
        <ele>2020.2</ele>
        <time>2021-02-27T09:39:43Z</time>
      </trkpt>
      <trkpt lat="45.2166" lon="6.02881">
        <ele>2018</ele>
        <time>2021-02-27T09:39:44Z</time>
      </trkpt>
      <trkpt lat="45.21663" lon="6.029">
        <ele>2016.6</ele>
        <time>2021-02-27T09:39:45Z</time>
      </trkpt>
      <trkpt lat="45.21665" lon="6.02902">
        <ele>2014.2</ele>
        <time>2021-02-27T09:39:46Z</time>
      </trkpt>
      <trkpt lat="45.2167" lon="6.02911">
        <ele>2011.8</ele>
        <time>2021-02-27T09:39:47Z</time>
      </trkpt>
      <trkpt lat="45.21672" lon="6.02914">
        <ele>2009.6</ele>
        <time>2021-02-27T09:39:48Z</time>
      </trkpt>
      <trkpt lat="45.21678" lon="6.02924">
        <ele>2007.8</ele>
        <time>2021-02-27T09:39:49Z</time>
      </trkpt>
      <trkpt lat="45.21681" lon="6.02927">
        <ele>2005.4</ele>
        <time>2021-02-27T09:39:50Z</time>
      </trkpt>
      <trkpt lat="45.2169" lon="6.02936">
        <ele>2003.2</ele>
        <time>2021-02-27T09:39:51Z</time>
      </trkpt>
      <trkpt lat="45.21693" lon="6.02937">
        <ele>2001.2</ele>
        <time>2021-02-27T09:39:52Z</time>
      </trkpt>
      <trkpt lat="45.21699" lon="6.02939">
        <ele>1999.6</ele>
        <time>2021-02-27T09:39:53Z</time>
      </trkpt>
      <trkpt lat="45.21699" lon="6.02939">
        <ele>1998.2</ele>
        <time>2021-02-27T09:39:54Z</time>
      </trkpt>
      <trkpt lat="45.21697" lon="6.02943">
        <ele>1997.2</ele>
        <time>2021-02-27T09:39:55Z</time>
      </trkpt>
      <trkpt lat="45.21696" lon="6.02948">
        <ele>1995.6</ele>
        <time>2021-02-27T09:39:56Z</time>
      </trkpt>
      <trkpt lat="45.21694" lon="6.02953">
        <ele>1994.4</ele>
        <time>2021-02-27T09:39:57Z</time>
      </trkpt>
      <trkpt lat="45.217" lon="6.02958">
        <ele>1992.6</ele>
        <time>2021-02-27T09:39:58Z</time>
      </trkpt>
      <trkpt lat="45.21706" lon="6.02962">
        <ele>1990.4</ele>
        <time>2021-02-27T09:39:59Z</time>
      </trkpt>
      <trkpt lat="45.21712" lon="6.02967">
        <ele>1988.2</ele>
        <time>2021-02-27T09:40:00Z</time>
      </trkpt>
      <trkpt lat="45.2172" lon="6.02976">
        <ele>1986.2</ele>
        <time>2021-02-27T09:40:01Z</time>
      </trkpt>
      <trkpt lat="45.21721" lon="6.02981">
        <ele>1985</ele>
        <time>2021-02-27T09:40:02Z</time>
      </trkpt>
      <trkpt lat="45.21725" lon="6.02997">
        <ele>1983.4</ele>
        <time>2021-02-27T09:40:03Z</time>
      </trkpt>
      <trkpt lat="45.21726" lon="6.03002">
        <ele>1981.8</ele>
        <time>2021-02-27T09:40:04Z</time>
      </trkpt>
      <trkpt lat="45.21727" lon="6.03014">
        <ele>1980.2</ele>
        <time>2021-02-27T09:40:05Z</time>
      </trkpt>
      <trkpt lat="45.21729" lon="6.03023">
        <ele>1979.4</ele>
        <time>2021-02-27T09:40:06Z</time>
      </trkpt>
      <trkpt lat="45.2173" lon="6.03029">
        <ele>1978</ele>
        <time>2021-02-27T09:40:07Z</time>
      </trkpt>
      <trkpt lat="45.21732" lon="6.03035">
        <ele>1976.8</ele>
        <time>2021-02-27T09:40:08Z</time>
      </trkpt>
      <trkpt lat="45.21732" lon="6.03039">
        <ele>1976.2</ele>
        <time>2021-02-27T09:40:09Z</time>
      </trkpt>
      <trkpt lat="45.21733" lon="6.03042">
        <ele>1975.8</ele>
        <time>2021-02-27T09:40:10Z</time>
      </trkpt>
      <trkpt lat="45.21733" lon="6.03042">
        <ele>1975.6</ele>
        <time>2021-02-27T09:40:11Z</time>
      </trkpt>
      <trkpt lat="45.21732" lon="6.03045">
        <ele>1975.4</ele>
        <time>2021-02-27T09:40:12Z</time>
      </trkpt>
      <trkpt lat="45.21732" lon="6.03045">
        <ele>1975.6</ele>
        <time>2021-02-27T09:40:13Z</time>
      </trkpt>
      <trkpt lat="45.21732" lon="6.03045">
        <ele>1975.4</ele>
        <time>2021-02-27T09:40:14Z</time>
      </trkpt>
      <trkpt lat="45.21732" lon="6.03045">
        <ele>1975.4</ele>
        <time>2021-02-27T09:40:15Z</time>
      </trkpt>
      <trkpt lat="45.21732" lon="6.03045">
        <ele>1975.2</ele>
        <time>2021-02-27T09:40:16Z</time>
      </trkpt>
      <trkpt lat="45.21732" lon="6.03045">
        <ele>1975.2</ele>
        <time>2021-02-27T09:40:17Z</time>
      </trkpt>
      <trkpt lat="45.21732" lon="6.03045">
        <ele>1975.2</ele>
        <time>2021-02-27T09:40:18Z</time>
      </trkpt>
      <trkpt lat="45.21732" lon="6.03045">
        <ele>1975.4</ele>
        <time>2021-02-27T09:40:19Z</time>
      </trkpt>
      <trkpt lat="45.21732" lon="6.03045">
        <ele>1975.8</ele>
        <time>2021-02-27T09:40:20Z</time>
      </trkpt>
      <trkpt lat="45.21732" lon="6.03045">
        <ele>1975.6</ele>
        <time>2021-02-27T09:40:21Z</time>
      </trkpt>
      <trkpt lat="45.21732" lon="6.03045">
        <ele>1975.8</ele>
        <time>2021-02-27T09:40:22Z</time>
      </trkpt>
      <trkpt lat="45.21732" lon="6.03045">
        <ele>1976</ele>
        <time>2021-02-27T09:40:23Z</time>
      </trkpt>
      <trkpt lat="45.21732" lon="6.03045">
        <ele>1976.2</ele>
        <time>2021-02-27T09:40:24Z</time>
      </trkpt>
      <trkpt lat="45.21732" lon="6.03045">
        <ele>1976.4</ele>
        <time>2021-02-27T09:40:25Z</time>
      </trkpt>
      <trkpt lat="45.21732" lon="6.03045">
        <ele>1976.6</ele>
        <time>2021-02-27T09:40:26Z</time>
      </trkpt>
      <trkpt lat="45.21732" lon="6.03045">
        <ele>1976.8</ele>
        <time>2021-02-27T09:40:27Z</time>
      </trkpt>
      <trkpt lat="45.21732" lon="6.03045">
        <ele>1976.8</ele>
        <time>2021-02-27T09:40:28Z</time>
      </trkpt>
      <trkpt lat="45.21732" lon="6.03045">
        <ele>1977</ele>
        <time>2021-02-27T09:40:29Z</time>
      </trkpt>
      <trkpt lat="45.21732" lon="6.03045">
        <ele>1976.8</ele>
        <time>2021-02-27T09:40:30Z</time>
      </trkpt>
      <trkpt lat="45.21732" lon="6.03045">
        <ele>1976.4</ele>
        <time>2021-02-27T09:40:31Z</time>
      </trkpt>
      <trkpt lat="45.21732" lon="6.03045">
        <ele>1976</ele>
        <time>2021-02-27T09:40:32Z</time>
      </trkpt>
      <trkpt lat="45.21732" lon="6.03045">
        <ele>1975.8</ele>
        <time>2021-02-27T09:40:33Z</time>
      </trkpt>
      <trkpt lat="45.21732" lon="6.03045">
        <ele>1975.4</ele>
        <time>2021-02-27T09:40:34Z</time>
      </trkpt>
      <trkpt lat="45.21732" lon="6.03045">
        <ele>1975.2</ele>
        <time>2021-02-27T09:40:35Z</time>
      </trkpt>
      <trkpt lat="45.21732" lon="6.03045">
        <ele>1975</ele>
        <time>2021-02-27T09:40:36Z</time>
      </trkpt>
      <trkpt lat="45.21732" lon="6.03045">
        <ele>1975.2</ele>
        <time>2021-02-27T09:40:37Z</time>
      </trkpt>
      <trkpt lat="45.21732" lon="6.03045">
        <ele>1975.2</ele>
        <time>2021-02-27T09:40:38Z</time>
      </trkpt>
      <trkpt lat="45.21732" lon="6.03045">
        <ele>1974.8</ele>
        <time>2021-02-27T09:40:39Z</time>
      </trkpt>
      <trkpt lat="45.21733" lon="6.03043">
        <ele>1974.6</ele>
        <time>2021-02-27T09:40:40Z</time>
      </trkpt>
      <trkpt lat="45.21733" lon="6.03043">
        <ele>1974.8</ele>
        <time>2021-02-27T09:40:41Z</time>
      </trkpt>
      <trkpt lat="45.21733" lon="6.03043">
        <ele>1974.4</ele>
        <time>2021-02-27T09:40:42Z</time>
      </trkpt>
      <trkpt lat="45.21733" lon="6.03043">
        <ele>1974.4</ele>
        <time>2021-02-27T09:40:43Z</time>
      </trkpt>
      <trkpt lat="45.21733" lon="6.03043">
        <ele>1974.4</ele>
        <time>2021-02-27T09:40:44Z</time>
      </trkpt>
      <trkpt lat="45.21733" lon="6.03043">
        <ele>1974.2</ele>
        <time>2021-02-27T09:40:45Z</time>
      </trkpt>
      <trkpt lat="45.21733" lon="6.03043">
        <ele>1974</ele>
        <time>2021-02-27T09:40:46Z</time>
      </trkpt>
      <trkpt lat="45.21733" lon="6.03043">
        <ele>1973.8</ele>
        <time>2021-02-27T09:40:47Z</time>
      </trkpt>
      <trkpt lat="45.21733" lon="6.03043">
        <ele>1973.8</ele>
        <time>2021-02-27T09:40:48Z</time>
      </trkpt>
      <trkpt lat="45.21733" lon="6.03043">
        <ele>1973.6</ele>
        <time>2021-02-27T09:40:49Z</time>
      </trkpt>
      <trkpt lat="45.21733" lon="6.03043">
        <ele>1973.4</ele>
        <time>2021-02-27T09:40:50Z</time>
      </trkpt>
      <trkpt lat="45.21733" lon="6.03043">
        <ele>1973.2</ele>
        <time>2021-02-27T09:40:51Z</time>
      </trkpt>
      <trkpt lat="45.21733" lon="6.03043">
        <ele>1973.4</ele>
        <time>2021-02-27T09:40:52Z</time>
      </trkpt>
      <trkpt lat="45.21733" lon="6.03043">
        <ele>1973.6</ele>
        <time>2021-02-27T09:40:53Z</time>
      </trkpt>
      <trkpt lat="45.21733" lon="6.03043">
        <ele>1973.6</ele>
        <time>2021-02-27T09:40:54Z</time>
      </trkpt>
      <trkpt lat="45.21733" lon="6.03043">
        <ele>1973.6</ele>
        <time>2021-02-27T09:40:55Z</time>
      </trkpt>
      <trkpt lat="45.21733" lon="6.03043">
        <ele>1973.4</ele>
        <time>2021-02-27T09:40:56Z</time>
      </trkpt>
      <trkpt lat="45.21733" lon="6.03043">
        <ele>1973.2</ele>
        <time>2021-02-27T09:40:57Z</time>
      </trkpt>
      <trkpt lat="45.21733" lon="6.03043">
        <ele>1972.8</ele>
        <time>2021-02-27T09:40:58Z</time>
      </trkpt>
      <trkpt lat="45.21733" lon="6.03043">
        <ele>1972.6</ele>
        <time>2021-02-27T09:40:59Z</time>
      </trkpt>
      <trkpt lat="45.21733" lon="6.03043">
        <ele>1972.6</ele>
        <time>2021-02-27T09:41:00Z</time>
      </trkpt>
      <trkpt lat="45.21733" lon="6.03043">
        <ele>1972.6</ele>
        <time>2021-02-27T09:41:01Z</time>
      </trkpt>
      <trkpt lat="45.21733" lon="6.03043">
        <ele>1972.8</ele>
        <time>2021-02-27T09:41:02Z</time>
      </trkpt>
      <trkpt lat="45.21733" lon="6.03043">
        <ele>1973</ele>
        <time>2021-02-27T09:41:03Z</time>
      </trkpt>
      <trkpt lat="45.21733" lon="6.03043">
        <ele>1973.2</ele>
        <time>2021-02-27T09:41:04Z</time>
      </trkpt>
      <trkpt lat="45.21733" lon="6.03043">
        <ele>1973.2</ele>
        <time>2021-02-27T09:41:05Z</time>
      </trkpt>
      <trkpt lat="45.21733" lon="6.03043">
        <ele>1973.2</ele>
        <time>2021-02-27T09:41:06Z</time>
      </trkpt>
      <trkpt lat="45.21733" lon="6.03043">
        <ele>1973.4</ele>
        <time>2021-02-27T09:41:07Z</time>
      </trkpt>
      <trkpt lat="45.21733" lon="6.03043">
        <ele>1973.6</ele>
        <time>2021-02-27T09:41:08Z</time>
      </trkpt>
      <trkpt lat="45.21733" lon="6.03043">
        <ele>1973.8</ele>
        <time>2021-02-27T09:41:09Z</time>
      </trkpt>
      <trkpt lat="45.21733" lon="6.03043">
        <ele>1973.8</ele>
        <time>2021-02-27T09:41:10Z</time>
      </trkpt>
      <trkpt lat="45.21734" lon="6.03041">
        <ele>1973.8</ele>
        <time>2021-02-27T09:41:11Z</time>
      </trkpt>
      <trkpt lat="45.21734" lon="6.03041">
        <ele>1973</ele>
        <time>2021-02-27T09:41:12Z</time>
      </trkpt>
      <trkpt lat="45.21734" lon="6.03041">
        <ele>1972.4</ele>
        <time>2021-02-27T09:41:13Z</time>
      </trkpt>
      <trkpt lat="45.21734" lon="6.03041">
        <ele>1972.4</ele>
        <time>2021-02-27T09:41:14Z</time>
      </trkpt>
      <trkpt lat="45.21734" lon="6.03041">
        <ele>1972.2</ele>
        <time>2021-02-27T09:41:15Z</time>
      </trkpt>
      <trkpt lat="45.21734" lon="6.03041">
        <ele>1972</ele>
        <time>2021-02-27T09:41:16Z</time>
      </trkpt>
      <trkpt lat="45.21734" lon="6.03041">
        <ele>1972</ele>
        <time>2021-02-27T09:41:17Z</time>
      </trkpt>
      <trkpt lat="45.21734" lon="6.03041">
        <ele>1971.8</ele>
        <time>2021-02-27T09:41:18Z</time>
      </trkpt>
      <trkpt lat="45.21734" lon="6.03041">
        <ele>1971.8</ele>
        <time>2021-02-27T09:41:19Z</time>
      </trkpt>
      <trkpt lat="45.21734" lon="6.03041">
        <ele>1971.6</ele>
        <time>2021-02-27T09:41:20Z</time>
      </trkpt>
      <trkpt lat="45.21734" lon="6.03041">
        <ele>1971.4</ele>
        <time>2021-02-27T09:41:21Z</time>
      </trkpt>
      <trkpt lat="45.21734" lon="6.03041">
        <ele>1971.2</ele>
        <time>2021-02-27T09:41:22Z</time>
      </trkpt>
      <trkpt lat="45.21734" lon="6.03041">
        <ele>1971</ele>
        <time>2021-02-27T09:41:23Z</time>
      </trkpt>
      <trkpt lat="45.21734" lon="6.03041">
        <ele>1970.8</ele>
        <time>2021-02-27T09:41:24Z</time>
      </trkpt>
      <trkpt lat="45.21734" lon="6.03041">
        <ele>1970.8</ele>
        <time>2021-02-27T09:41:25Z</time>
      </trkpt>
      <trkpt lat="45.21734" lon="6.03041">
        <ele>1970.6</ele>
        <time>2021-02-27T09:41:26Z</time>
      </trkpt>
      <trkpt lat="45.21735" lon="6.03044">
        <ele>1970.8</ele>
        <time>2021-02-27T09:41:27Z</time>
      </trkpt>
      <trkpt lat="45.21735" lon="6.03044">
        <ele>1970.8</ele>
        <time>2021-02-27T09:41:28Z</time>
      </trkpt>
      <trkpt lat="45.21735" lon="6.03044">
        <ele>1971</ele>
        <time>2021-02-27T09:41:29Z</time>
      </trkpt>
      <trkpt lat="45.21736" lon="6.03047">
        <ele>1971.4</ele>
        <time>2021-02-27T09:41:30Z</time>
      </trkpt>
      <trkpt lat="45.21736" lon="6.03047">
        <ele>1971.8</ele>
        <time>2021-02-27T09:41:31Z</time>
      </trkpt>
      <trkpt lat="45.21736" lon="6.03047">
        <ele>1972.2</ele>
        <time>2021-02-27T09:41:32Z</time>
      </trkpt>
      <trkpt lat="45.21738" lon="6.03048">
        <ele>1972.4</ele>
        <time>2021-02-27T09:41:33Z</time>
      </trkpt>
      <trkpt lat="45.21738" lon="6.03048">
        <ele>1972.8</ele>
        <time>2021-02-27T09:41:34Z</time>
      </trkpt>
      <trkpt lat="45.2174" lon="6.03049">
        <ele>1973</ele>
        <time>2021-02-27T09:41:35Z</time>
      </trkpt>
      <trkpt lat="45.2174" lon="6.03049">
        <ele>1973.2</ele>
        <time>2021-02-27T09:41:36Z</time>
      </trkpt>
      <trkpt lat="45.2174" lon="6.03049">
        <ele>1973.6</ele>
        <time>2021-02-27T09:41:37Z</time>
      </trkpt>
      <trkpt lat="45.21742" lon="6.0305">
        <ele>1973.6</ele>
        <time>2021-02-27T09:41:38Z</time>
      </trkpt>
      <trkpt lat="45.21742" lon="6.0305">
        <ele>1973.8</ele>
        <time>2021-02-27T09:41:39Z</time>
      </trkpt>
      <trkpt lat="45.21742" lon="6.0305">
        <ele>1974</ele>
        <time>2021-02-27T09:41:40Z</time>
      </trkpt>
      <trkpt lat="45.21744" lon="6.03051">
        <ele>1974.2</ele>
        <time>2021-02-27T09:41:41Z</time>
      </trkpt>
      <trkpt lat="45.21744" lon="6.03051">
        <ele>1974.4</ele>
        <time>2021-02-27T09:41:42Z</time>
      </trkpt>
      <trkpt lat="45.21744" lon="6.03051">
        <ele>1974.6</ele>
        <time>2021-02-27T09:41:43Z</time>
      </trkpt>
      <trkpt lat="45.21745" lon="6.03053">
        <ele>1975</ele>
        <time>2021-02-27T09:41:44Z</time>
      </trkpt>
      <trkpt lat="45.21745" lon="6.03053">
        <ele>1975.2</ele>
        <time>2021-02-27T09:41:45Z</time>
      </trkpt>
      <trkpt lat="45.21745" lon="6.03053">
        <ele>1975.4</ele>
        <time>2021-02-27T09:41:46Z</time>
      </trkpt>
      <trkpt lat="45.21747" lon="6.03054">
        <ele>1975.8</ele>
        <time>2021-02-27T09:41:47Z</time>
      </trkpt>
      <trkpt lat="45.21747" lon="6.03054">
        <ele>1975.8</ele>
        <time>2021-02-27T09:41:48Z</time>
      </trkpt>
      <trkpt lat="45.21747" lon="6.03054">
        <ele>1976</ele>
        <time>2021-02-27T09:41:49Z</time>
      </trkpt>
      <trkpt lat="45.21749" lon="6.03057">
        <ele>1976.2</ele>
        <time>2021-02-27T09:41:50Z</time>
      </trkpt>
      <trkpt lat="45.21749" lon="6.03057">
        <ele>1976.4</ele>
        <time>2021-02-27T09:41:51Z</time>
      </trkpt>
      <trkpt lat="45.21749" lon="6.03057">
        <ele>1977</ele>
        <time>2021-02-27T09:41:52Z</time>
      </trkpt>
      <trkpt lat="45.21751" lon="6.03058">
        <ele>1977.2</ele>
        <time>2021-02-27T09:41:53Z</time>
      </trkpt>
      <trkpt lat="45.21751" lon="6.03058">
        <ele>1977.4</ele>
        <time>2021-02-27T09:41:54Z</time>
      </trkpt>
      <trkpt lat="45.21751" lon="6.03058">
        <ele>1977.6</ele>
        <time>2021-02-27T09:41:55Z</time>
      </trkpt>
      <trkpt lat="45.21752" lon="6.03059">
        <ele>1977.8</ele>
        <time>2021-02-27T09:41:56Z</time>
      </trkpt>
      <trkpt lat="45.21752" lon="6.03059">
        <ele>1978.2</ele>
        <time>2021-02-27T09:41:57Z</time>
      </trkpt>
      <trkpt lat="45.21752" lon="6.03059">
        <ele>1978.4</ele>
        <time>2021-02-27T09:41:58Z</time>
      </trkpt>
      <trkpt lat="45.21755" lon="6.0306">
        <ele>1978.2</ele>
        <time>2021-02-27T09:41:59Z</time>
      </trkpt>
      <trkpt lat="45.21755" lon="6.0306">
        <ele>1978.4</ele>
        <time>2021-02-27T09:42:00Z</time>
      </trkpt>
      <trkpt lat="45.21755" lon="6.0306">
        <ele>1978.8</ele>
        <time>2021-02-27T09:42:01Z</time>
      </trkpt>
      <trkpt lat="45.21757" lon="6.03061">
        <ele>1979.2</ele>
        <time>2021-02-27T09:42:02Z</time>
      </trkpt>
      <trkpt lat="45.21757" lon="6.03061">
        <ele>1979.4</ele>
        <time>2021-02-27T09:42:03Z</time>
      </trkpt>
      <trkpt lat="45.21757" lon="6.03061">
        <ele>1979.8</ele>
        <time>2021-02-27T09:42:04Z</time>
      </trkpt>
      <trkpt lat="45.21759" lon="6.03064">
        <ele>1980</ele>
        <time>2021-02-27T09:42:05Z</time>
      </trkpt>
      <trkpt lat="45.21759" lon="6.03064">
        <ele>1980.2</ele>
        <time>2021-02-27T09:42:06Z</time>
      </trkpt>
      <trkpt lat="45.21759" lon="6.03064">
        <ele>1980.4</ele>
        <time>2021-02-27T09:42:07Z</time>
      </trkpt>
      <trkpt lat="45.21761" lon="6.03066">
        <ele>1980.4</ele>
        <time>2021-02-27T09:42:08Z</time>
      </trkpt>
      <trkpt lat="45.21761" lon="6.03066">
        <ele>1980.6</ele>
        <time>2021-02-27T09:42:09Z</time>
      </trkpt>
      <trkpt lat="45.21761" lon="6.03066">
        <ele>1981</ele>
        <time>2021-02-27T09:42:10Z</time>
      </trkpt>
      <trkpt lat="45.21762" lon="6.03068">
        <ele>1981</ele>
        <time>2021-02-27T09:42:11Z</time>
      </trkpt>
      <trkpt lat="45.21762" lon="6.03068">
        <ele>1981.4</ele>
        <time>2021-02-27T09:42:12Z</time>
      </trkpt>
      <trkpt lat="45.21762" lon="6.03068">
        <ele>1981.8</ele>
        <time>2021-02-27T09:42:13Z</time>
      </trkpt>
      <trkpt lat="45.21764" lon="6.03069">
        <ele>1982</ele>
        <time>2021-02-27T09:42:14Z</time>
      </trkpt>
      <trkpt lat="45.21764" lon="6.03069">
        <ele>1982.2</ele>
        <time>2021-02-27T09:42:15Z</time>
      </trkpt>
      <trkpt lat="45.21764" lon="6.03069">
        <ele>1982.4</ele>
        <time>2021-02-27T09:42:16Z</time>
      </trkpt>
      <trkpt lat="45.21764" lon="6.03069">
        <ele>1982.4</ele>
        <time>2021-02-27T09:42:17Z</time>
      </trkpt>
      <trkpt lat="45.21764" lon="6.03069">
        <ele>1982.4</ele>
        <time>2021-02-27T09:42:18Z</time>
      </trkpt>
      <trkpt lat="45.21764" lon="6.03069">
        <ele>1982.2</ele>
        <time>2021-02-27T09:42:19Z</time>
      </trkpt>
      <trkpt lat="45.21764" lon="6.03069">
        <ele>1982.2</ele>
        <time>2021-02-27T09:42:20Z</time>
      </trkpt>
      <trkpt lat="45.21764" lon="6.03069">
        <ele>1982.2</ele>
        <time>2021-02-27T09:42:21Z</time>
      </trkpt>
      <trkpt lat="45.21764" lon="6.03069">
        <ele>1982</ele>
        <time>2021-02-27T09:42:22Z</time>
      </trkpt>
      <trkpt lat="45.21764" lon="6.03069">
        <ele>1982</ele>
        <time>2021-02-27T09:42:23Z</time>
      </trkpt>
      <trkpt lat="45.21764" lon="6.03069">
        <ele>1982</ele>
        <time>2021-02-27T09:42:24Z</time>
      </trkpt>
      <trkpt lat="45.21764" lon="6.03069">
        <ele>1982.2</ele>
        <time>2021-02-27T09:42:25Z</time>
      </trkpt>
      <trkpt lat="45.21764" lon="6.03069">
        <ele>1982.2</ele>
        <time>2021-02-27T09:42:26Z</time>
      </trkpt>
      <trkpt lat="45.21764" lon="6.03069">
        <ele>1982.2</ele>
        <time>2021-02-27T09:42:27Z</time>
      </trkpt>
      <trkpt lat="45.21764" lon="6.03069">
        <ele>1982.6</ele>
        <time>2021-02-27T09:42:28Z</time>
      </trkpt>
      <trkpt lat="45.21764" lon="6.03069">
        <ele>1982.8</ele>
        <time>2021-02-27T09:42:29Z</time>
      </trkpt>
      <trkpt lat="45.21764" lon="6.03069">
        <ele>1983</ele>
        <time>2021-02-27T09:42:30Z</time>
      </trkpt>
      <trkpt lat="45.21764" lon="6.03069">
        <ele>1982.8</ele>
        <time>2021-02-27T09:42:31Z</time>
      </trkpt>
      <trkpt lat="45.21764" lon="6.03069">
        <ele>1983</ele>
        <time>2021-02-27T09:42:32Z</time>
      </trkpt>
      <trkpt lat="45.21764" lon="6.03069">
        <ele>1983</ele>
        <time>2021-02-27T09:42:33Z</time>
      </trkpt>
      <trkpt lat="45.21764" lon="6.03069">
        <ele>1983.2</ele>
        <time>2021-02-27T09:42:34Z</time>
      </trkpt>
      <trkpt lat="45.21764" lon="6.03069">
        <ele>1983.2</ele>
        <time>2021-02-27T09:42:35Z</time>
      </trkpt>
      <trkpt lat="45.21764" lon="6.03069">
        <ele>1983.2</ele>
        <time>2021-02-27T09:42:36Z</time>
      </trkpt>
      <trkpt lat="45.21764" lon="6.03069">
        <ele>1983</ele>
        <time>2021-02-27T09:42:37Z</time>
      </trkpt>
      <trkpt lat="45.21764" lon="6.03069">
        <ele>1982.8</ele>
        <time>2021-02-27T09:42:38Z</time>
      </trkpt>
      <trkpt lat="45.21764" lon="6.03069">
        <ele>1983</ele>
        <time>2021-02-27T09:42:39Z</time>
      </trkpt>
      <trkpt lat="45.21764" lon="6.03069">
        <ele>1983</ele>
        <time>2021-02-27T09:42:40Z</time>
      </trkpt>
      <trkpt lat="45.21764" lon="6.03069">
        <ele>1982.8</ele>
        <time>2021-02-27T09:42:41Z</time>
      </trkpt>
      <trkpt lat="45.21764" lon="6.03069">
        <ele>1983</ele>
        <time>2021-02-27T09:42:42Z</time>
      </trkpt>
      <trkpt lat="45.21764" lon="6.03069">
        <ele>1983</ele>
        <time>2021-02-27T09:42:43Z</time>
      </trkpt>
      <trkpt lat="45.21764" lon="6.03069">
        <ele>1982.8</ele>
        <time>2021-02-27T09:42:44Z</time>
      </trkpt>
      <trkpt lat="45.21764" lon="6.03069">
        <ele>1982.8</ele>
        <time>2021-02-27T09:42:45Z</time>
      </trkpt>
      <trkpt lat="45.21764" lon="6.03069">
        <ele>1982.6</ele>
        <time>2021-02-27T09:42:46Z</time>
      </trkpt>
      <trkpt lat="45.21764" lon="6.03069">
        <ele>1982.4</ele>
        <time>2021-02-27T09:42:47Z</time>
      </trkpt>
      <trkpt lat="45.21764" lon="6.03069">
        <ele>1982.4</ele>
        <time>2021-02-27T09:42:48Z</time>
      </trkpt>
      <trkpt lat="45.21764" lon="6.03069">
        <ele>1982.4</ele>
        <time>2021-02-27T09:42:49Z</time>
      </trkpt>
      <trkpt lat="45.21764" lon="6.03069">
        <ele>1982.2</ele>
        <time>2021-02-27T09:42:50Z</time>
      </trkpt>
      <trkpt lat="45.21764" lon="6.03069">
        <ele>1982.2</ele>
        <time>2021-02-27T09:42:51Z</time>
      </trkpt>
      <trkpt lat="45.21764" lon="6.03069">
        <ele>1982</ele>
        <time>2021-02-27T09:42:52Z</time>
      </trkpt>
      <trkpt lat="45.21765" lon="6.03072">
        <ele>1982</ele>
        <time>2021-02-27T09:42:53Z</time>
      </trkpt>
      <trkpt lat="45.21765" lon="6.03072">
        <ele>1982.2</ele>
        <time>2021-02-27T09:42:54Z</time>
      </trkpt>
      <trkpt lat="45.21765" lon="6.03076">
        <ele>1982.2</ele>
        <time>2021-02-27T09:42:55Z</time>
      </trkpt>
      <trkpt lat="45.21765" lon="6.03076">
        <ele>1982.2</ele>
        <time>2021-02-27T09:42:56Z</time>
      </trkpt>
      <trkpt lat="45.21766" lon="6.0308">
        <ele>1982.4</ele>
        <time>2021-02-27T09:42:57Z</time>
      </trkpt>
      <trkpt lat="45.21766" lon="6.0308">
        <ele>1982.6</ele>
        <time>2021-02-27T09:42:58Z</time>
      </trkpt>
      <trkpt lat="45.21766" lon="6.03084">
        <ele>1982.8</ele>
        <time>2021-02-27T09:42:59Z</time>
      </trkpt>
      <trkpt lat="45.21766" lon="6.03084">
        <ele>1983</ele>
        <time>2021-02-27T09:43:00Z</time>
      </trkpt>
      <trkpt lat="45.21767" lon="6.03088">
        <ele>1983.4</ele>
        <time>2021-02-27T09:43:01Z</time>
      </trkpt>
      <trkpt lat="45.21767" lon="6.03088">
        <ele>1983.8</ele>
        <time>2021-02-27T09:43:02Z</time>
      </trkpt>
      <trkpt lat="45.21767" lon="6.03092">
        <ele>1983.8</ele>
        <time>2021-02-27T09:43:03Z</time>
      </trkpt>
      <trkpt lat="45.21767" lon="6.03092">
        <ele>1984.2</ele>
        <time>2021-02-27T09:43:04Z</time>
      </trkpt>
      <trkpt lat="45.21767" lon="6.03096">
        <ele>1984.4</ele>
        <time>2021-02-27T09:43:05Z</time>
      </trkpt>
      <trkpt lat="45.21767" lon="6.03096">
        <ele>1984.6</ele>
        <time>2021-02-27T09:43:06Z</time>
      </trkpt>
      <trkpt lat="45.21768" lon="6.03099">
        <ele>1984.6</ele>
        <time>2021-02-27T09:43:07Z</time>
      </trkpt>
      <trkpt lat="45.21768" lon="6.03099">
        <ele>1984.8</ele>
        <time>2021-02-27T09:43:08Z</time>
      </trkpt>
      <trkpt lat="45.21769" lon="6.03102">
        <ele>1985</ele>
        <time>2021-02-27T09:43:09Z</time>
      </trkpt>
      <trkpt lat="45.21769" lon="6.03102">
        <ele>1985.4</ele>
        <time>2021-02-27T09:43:10Z</time>
      </trkpt>
      <trkpt lat="45.21769" lon="6.03105">
        <ele>1985.6</ele>
        <time>2021-02-27T09:43:11Z</time>
      </trkpt>
      <trkpt lat="45.21769" lon="6.03105">
        <ele>1986</ele>
        <time>2021-02-27T09:43:12Z</time>
      </trkpt>
      <trkpt lat="45.21769" lon="6.03108">
        <ele>1986.4</ele>
        <time>2021-02-27T09:43:13Z</time>
      </trkpt>
      <trkpt lat="45.21769" lon="6.03108">
        <ele>1986.4</ele>
        <time>2021-02-27T09:43:14Z</time>
      </trkpt>
      <trkpt lat="45.21769" lon="6.03111">
        <ele>1986.8</ele>
        <time>2021-02-27T09:43:15Z</time>
      </trkpt>
      <trkpt lat="45.21769" lon="6.03111">
        <ele>1987</ele>
        <time>2021-02-27T09:43:16Z</time>
      </trkpt>
      <trkpt lat="45.21769" lon="6.03114">
        <ele>1987</ele>
        <time>2021-02-27T09:43:17Z</time>
      </trkpt>
      <trkpt lat="45.21769" lon="6.03114">
        <ele>1987.4</ele>
        <time>2021-02-27T09:43:18Z</time>
      </trkpt>
      <trkpt lat="45.21769" lon="6.03117">
        <ele>1987.4</ele>
        <time>2021-02-27T09:43:19Z</time>
      </trkpt>
      <trkpt lat="45.21769" lon="6.03117">
        <ele>1987.4</ele>
        <time>2021-02-27T09:43:20Z</time>
      </trkpt>
      <trkpt lat="45.21769" lon="6.03117">
        <ele>1988</ele>
        <time>2021-02-27T09:43:21Z</time>
      </trkpt>
      <trkpt lat="45.2177" lon="6.03122">
        <ele>1988</ele>
        <time>2021-02-27T09:43:22Z</time>
      </trkpt>
      <trkpt lat="45.2177" lon="6.03122">
        <ele>1988.4</ele>
        <time>2021-02-27T09:43:23Z</time>
      </trkpt>
      <trkpt lat="45.2177" lon="6.03122">
        <ele>1988.8</ele>
        <time>2021-02-27T09:43:24Z</time>
      </trkpt>
      <trkpt lat="45.21769" lon="6.03125">
        <ele>1988.8</ele>
        <time>2021-02-27T09:43:25Z</time>
      </trkpt>
      <trkpt lat="45.21769" lon="6.03125">
        <ele>1989.6</ele>
        <time>2021-02-27T09:43:26Z</time>
      </trkpt>
      <trkpt lat="45.21769" lon="6.03125">
        <ele>1990</ele>
        <time>2021-02-27T09:43:27Z</time>
      </trkpt>
      <trkpt lat="45.21769" lon="6.03128">
        <ele>1990.4</ele>
        <time>2021-02-27T09:43:28Z</time>
      </trkpt>
      <trkpt lat="45.21769" lon="6.03128">
        <ele>1990.8</ele>
        <time>2021-02-27T09:43:29Z</time>
      </trkpt>
      <trkpt lat="45.21769" lon="6.03128">
        <ele>1991</ele>
        <time>2021-02-27T09:43:30Z</time>
      </trkpt>
      <trkpt lat="45.2177" lon="6.03131">
        <ele>1991.2</ele>
        <time>2021-02-27T09:43:31Z</time>
      </trkpt>
      <trkpt lat="45.2177" lon="6.03131">
        <ele>1991.4</ele>
        <time>2021-02-27T09:43:32Z</time>
      </trkpt>
      <trkpt lat="45.2177" lon="6.03131">
        <ele>1991.6</ele>
        <time>2021-02-27T09:43:33Z</time>
      </trkpt>
      <trkpt lat="45.2177" lon="6.03134">
        <ele>1991.8</ele>
        <time>2021-02-27T09:43:34Z</time>
      </trkpt>
      <trkpt lat="45.2177" lon="6.03134">
        <ele>1992.2</ele>
        <time>2021-02-27T09:43:35Z</time>
      </trkpt>
      <trkpt lat="45.2177" lon="6.03134">
        <ele>1992.6</ele>
        <time>2021-02-27T09:43:36Z</time>
      </trkpt>
      <trkpt lat="45.21771" lon="6.03137">
        <ele>1992.6</ele>
        <time>2021-02-27T09:43:37Z</time>
      </trkpt>
      <trkpt lat="45.21771" lon="6.03137">
        <ele>1993</ele>
        <time>2021-02-27T09:43:38Z</time>
      </trkpt>
      <trkpt lat="45.21771" lon="6.03137">
        <ele>1993.2</ele>
        <time>2021-02-27T09:43:39Z</time>
      </trkpt>
      <trkpt lat="45.21772" lon="6.0314">
        <ele>1993.6</ele>
        <time>2021-02-27T09:43:40Z</time>
      </trkpt>
      <trkpt lat="45.21772" lon="6.0314">
        <ele>1993.8</ele>
        <time>2021-02-27T09:43:41Z</time>
      </trkpt>
      <trkpt lat="45.21772" lon="6.0314">
        <ele>1994.2</ele>
        <time>2021-02-27T09:43:42Z</time>
      </trkpt>
      <trkpt lat="45.21774" lon="6.03142">
        <ele>1994.4</ele>
        <time>2021-02-27T09:43:43Z</time>
      </trkpt>
      <trkpt lat="45.21774" lon="6.03142">
        <ele>1994.6</ele>
        <time>2021-02-27T09:43:44Z</time>
      </trkpt>
      <trkpt lat="45.21775" lon="6.03144">
        <ele>1994.8</ele>
        <time>2021-02-27T09:43:45Z</time>
      </trkpt>
      <trkpt lat="45.21775" lon="6.03144">
        <ele>1995</ele>
        <time>2021-02-27T09:43:46Z</time>
      </trkpt>
      <trkpt lat="45.21775" lon="6.03144">
        <ele>1995.2</ele>
        <time>2021-02-27T09:43:47Z</time>
      </trkpt>
      <trkpt lat="45.21776" lon="6.03147">
        <ele>1995.8</ele>
        <time>2021-02-27T09:43:48Z</time>
      </trkpt>
      <trkpt lat="45.21776" lon="6.03147">
        <ele>1996.2</ele>
        <time>2021-02-27T09:43:49Z</time>
      </trkpt>
      <trkpt lat="45.21776" lon="6.03147">
        <ele>1996</ele>
        <time>2021-02-27T09:43:50Z</time>
      </trkpt>
      <trkpt lat="45.21776" lon="6.03151">
        <ele>1996.6</ele>
        <time>2021-02-27T09:43:51Z</time>
      </trkpt>
      <trkpt lat="45.21776" lon="6.03151">
        <ele>1996.6</ele>
        <time>2021-02-27T09:43:52Z</time>
      </trkpt>
      <trkpt lat="45.21776" lon="6.03151">
        <ele>1997</ele>
        <time>2021-02-27T09:43:53Z</time>
      </trkpt>
      <trkpt lat="45.21777" lon="6.03155">
        <ele>1997.2</ele>
        <time>2021-02-27T09:43:54Z</time>
      </trkpt>
      <trkpt lat="45.21777" lon="6.03155">
        <ele>1997.8</ele>
        <time>2021-02-27T09:43:55Z</time>
      </trkpt>
      <trkpt lat="45.21778" lon="6.03158">
        <ele>1998.2</ele>
        <time>2021-02-27T09:43:56Z</time>
      </trkpt>
      <trkpt lat="45.21778" lon="6.03158">
        <ele>1998.6</ele>
        <time>2021-02-27T09:43:57Z</time>
      </trkpt>
      <trkpt lat="45.21779" lon="6.0316">
        <ele>1998.8</ele>
        <time>2021-02-27T09:43:58Z</time>
      </trkpt>
      <trkpt lat="45.21779" lon="6.0316">
        <ele>1999.2</ele>
        <time>2021-02-27T09:43:59Z</time>
      </trkpt>
      <trkpt lat="45.2178" lon="6.03163">
        <ele>1999.4</ele>
        <time>2021-02-27T09:44:00Z</time>
      </trkpt>
      <trkpt lat="45.2178" lon="6.03163">
        <ele>1999.4</ele>
        <time>2021-02-27T09:44:01Z</time>
      </trkpt>
      <trkpt lat="45.21781" lon="6.03165">
        <ele>1999.4</ele>
        <time>2021-02-27T09:44:02Z</time>
      </trkpt>
      <trkpt lat="45.21781" lon="6.03165">
        <ele>1999.4</ele>
        <time>2021-02-27T09:44:03Z</time>
      </trkpt>
      <trkpt lat="45.21782" lon="6.03168">
        <ele>1999.8</ele>
        <time>2021-02-27T09:44:04Z</time>
      </trkpt>
      <trkpt lat="45.21782" lon="6.03168">
        <ele>1999.8</ele>
        <time>2021-02-27T09:44:05Z</time>
      </trkpt>
      <trkpt lat="45.21783" lon="6.03171">
        <ele>2000</ele>
        <time>2021-02-27T09:44:06Z</time>
      </trkpt>
      <trkpt lat="45.21783" lon="6.03171">
        <ele>1999.8</ele>
        <time>2021-02-27T09:44:07Z</time>
      </trkpt>
      <trkpt lat="45.21784" lon="6.03174">
        <ele>1999.8</ele>
        <time>2021-02-27T09:44:08Z</time>
      </trkpt>
      <trkpt lat="45.21784" lon="6.03174">
        <ele>1999.8</ele>
        <time>2021-02-27T09:44:09Z</time>
      </trkpt>
      <trkpt lat="45.21785" lon="6.03177">
        <ele>2000.2</ele>
        <time>2021-02-27T09:44:10Z</time>
      </trkpt>
      <trkpt lat="45.21785" lon="6.03177">
        <ele>2000.4</ele>
        <time>2021-02-27T09:44:11Z</time>
      </trkpt>
      <trkpt lat="45.21786" lon="6.03181">
        <ele>2000.4</ele>
        <time>2021-02-27T09:44:12Z</time>
      </trkpt>
      <trkpt lat="45.21786" lon="6.03181">
        <ele>2000.8</ele>
        <time>2021-02-27T09:44:13Z</time>
      </trkpt>
      <trkpt lat="45.21787" lon="6.03184">
        <ele>2000.8</ele>
        <time>2021-02-27T09:44:14Z</time>
      </trkpt>
      <trkpt lat="45.21787" lon="6.03184">
        <ele>2000.8</ele>
        <time>2021-02-27T09:44:15Z</time>
      </trkpt>
      <trkpt lat="45.21789" lon="6.03188">
        <ele>2000.8</ele>
        <time>2021-02-27T09:44:16Z</time>
      </trkpt>
      <trkpt lat="45.21789" lon="6.03188">
        <ele>2000.8</ele>
        <time>2021-02-27T09:44:17Z</time>
      </trkpt>
      <trkpt lat="45.2179" lon="6.03191">
        <ele>2000.4</ele>
        <time>2021-02-27T09:44:18Z</time>
      </trkpt>
      <trkpt lat="45.2179" lon="6.03191">
        <ele>2000.8</ele>
        <time>2021-02-27T09:44:19Z</time>
      </trkpt>
      <trkpt lat="45.21791" lon="6.03195">
        <ele>2000.6</ele>
        <time>2021-02-27T09:44:20Z</time>
      </trkpt>
      <trkpt lat="45.21791" lon="6.03195">
        <ele>2001</ele>
        <time>2021-02-27T09:44:21Z</time>
      </trkpt>
      <trkpt lat="45.21792" lon="6.03199">
        <ele>2001</ele>
        <time>2021-02-27T09:44:22Z</time>
      </trkpt>
      <trkpt lat="45.21792" lon="6.03199">
        <ele>2000.8</ele>
        <time>2021-02-27T09:44:23Z</time>
      </trkpt>
      <trkpt lat="45.21793" lon="6.03202">
        <ele>2001</ele>
        <time>2021-02-27T09:44:24Z</time>
      </trkpt>
      <trkpt lat="45.21793" lon="6.03202">
        <ele>2001</ele>
        <time>2021-02-27T09:44:25Z</time>
      </trkpt>
      <trkpt lat="45.21794" lon="6.03206">
        <ele>2001.2</ele>
        <time>2021-02-27T09:44:26Z</time>
      </trkpt>
      <trkpt lat="45.21794" lon="6.03206">
        <ele>2001.4</ele>
        <time>2021-02-27T09:44:27Z</time>
      </trkpt>
      <trkpt lat="45.21794" lon="6.03208">
        <ele>2001.6</ele>
        <time>2021-02-27T09:44:28Z</time>
      </trkpt>
      <trkpt lat="45.21794" lon="6.03208">
        <ele>2001.6</ele>
        <time>2021-02-27T09:44:29Z</time>
      </trkpt>
      <trkpt lat="45.21795" lon="6.03212">
        <ele>2002</ele>
        <time>2021-02-27T09:44:30Z</time>
      </trkpt>
      <trkpt lat="45.21795" lon="6.03212">
        <ele>2001.8</ele>
        <time>2021-02-27T09:44:31Z</time>
      </trkpt>
      <trkpt lat="45.21796" lon="6.03215">
        <ele>2001.4</ele>
        <time>2021-02-27T09:44:32Z</time>
      </trkpt>
      <trkpt lat="45.21796" lon="6.03215">
        <ele>2001.8</ele>
        <time>2021-02-27T09:44:33Z</time>
      </trkpt>
      <trkpt lat="45.21796" lon="6.03215">
        <ele>2001.8</ele>
        <time>2021-02-27T09:44:34Z</time>
      </trkpt>
      <trkpt lat="45.21795" lon="6.03218">
        <ele>2002</ele>
        <time>2021-02-27T09:44:35Z</time>
      </trkpt>
      <trkpt lat="45.21795" lon="6.03218">
        <ele>2002.4</ele>
        <time>2021-02-27T09:44:36Z</time>
      </trkpt>
      <trkpt lat="45.21795" lon="6.03222">
        <ele>2002.4</ele>
        <time>2021-02-27T09:44:37Z</time>
      </trkpt>
      <trkpt lat="45.21795" lon="6.03222">
        <ele>2002.6</ele>
        <time>2021-02-27T09:44:38Z</time>
      </trkpt>
      <trkpt lat="45.21796" lon="6.03225">
        <ele>2002.8</ele>
        <time>2021-02-27T09:44:39Z</time>
      </trkpt>
      <trkpt lat="45.21796" lon="6.03225">
        <ele>2002.8</ele>
        <time>2021-02-27T09:44:40Z</time>
      </trkpt>
      <trkpt lat="45.21797" lon="6.03229">
        <ele>2002.8</ele>
        <time>2021-02-27T09:44:41Z</time>
      </trkpt>
      <trkpt lat="45.21797" lon="6.03229">
        <ele>2002.8</ele>
        <time>2021-02-27T09:44:42Z</time>
      </trkpt>
      <trkpt lat="45.21798" lon="6.03233">
        <ele>2003.6</ele>
        <time>2021-02-27T09:44:43Z</time>
      </trkpt>
      <trkpt lat="45.21798" lon="6.03233">
        <ele>2003.6</ele>
        <time>2021-02-27T09:44:44Z</time>
      </trkpt>
      <trkpt lat="45.21799" lon="6.03237">
        <ele>2003.6</ele>
        <time>2021-02-27T09:44:45Z</time>
      </trkpt>
      <trkpt lat="45.21799" lon="6.03237">
        <ele>2003.6</ele>
        <time>2021-02-27T09:44:46Z</time>
      </trkpt>
      <trkpt lat="45.21799" lon="6.0324">
        <ele>2004</ele>
        <time>2021-02-27T09:44:47Z</time>
      </trkpt>
      <trkpt lat="45.21799" lon="6.0324">
        <ele>2004.4</ele>
        <time>2021-02-27T09:44:48Z</time>
      </trkpt>
      <trkpt lat="45.21801" lon="6.03244">
        <ele>2004.6</ele>
        <time>2021-02-27T09:44:49Z</time>
      </trkpt>
      <trkpt lat="45.21801" lon="6.03244">
        <ele>2004.8</ele>
        <time>2021-02-27T09:44:50Z</time>
      </trkpt>
      <trkpt lat="45.21801" lon="6.03247">
        <ele>2005.2</ele>
        <time>2021-02-27T09:44:51Z</time>
      </trkpt>
      <trkpt lat="45.21801" lon="6.03247">
        <ele>2005.2</ele>
        <time>2021-02-27T09:44:52Z</time>
      </trkpt>
      <trkpt lat="45.21801" lon="6.03247">
        <ele>2005.8</ele>
        <time>2021-02-27T09:44:53Z</time>
      </trkpt>
      <trkpt lat="45.21801" lon="6.03247">
        <ele>2006</ele>
        <time>2021-02-27T09:44:54Z</time>
      </trkpt>
      <trkpt lat="45.21802" lon="6.03251">
        <ele>2006.4</ele>
        <time>2021-02-27T09:44:55Z</time>
      </trkpt>
      <trkpt lat="45.21802" lon="6.03251">
        <ele>2006.8</ele>
        <time>2021-02-27T09:44:56Z</time>
      </trkpt>
      <trkpt lat="45.21802" lon="6.03255">
        <ele>2007</ele>
        <time>2021-02-27T09:44:57Z</time>
      </trkpt>
      <trkpt lat="45.21802" lon="6.03255">
        <ele>2007.6</ele>
        <time>2021-02-27T09:44:58Z</time>
      </trkpt>
      <trkpt lat="45.21803" lon="6.03259">
        <ele>2007.6</ele>
        <time>2021-02-27T09:44:59Z</time>
      </trkpt>
      <trkpt lat="45.21803" lon="6.03259">
        <ele>2007.8</ele>
        <time>2021-02-27T09:45:00Z</time>
      </trkpt>
      <trkpt lat="45.21804" lon="6.03262">
        <ele>2008</ele>
        <time>2021-02-27T09:45:01Z</time>
      </trkpt>
      <trkpt lat="45.21804" lon="6.03262">
        <ele>2008</ele>
        <time>2021-02-27T09:45:02Z</time>
      </trkpt>
      <trkpt lat="45.21805" lon="6.03266">
        <ele>2008.8</ele>
        <time>2021-02-27T09:45:03Z</time>
      </trkpt>
      <trkpt lat="45.21805" lon="6.03266">
        <ele>2009</ele>
        <time>2021-02-27T09:45:04Z</time>
      </trkpt>
      <trkpt lat="45.21806" lon="6.03269">
        <ele>2009.2</ele>
        <time>2021-02-27T09:45:05Z</time>
      </trkpt>
      <trkpt lat="45.21806" lon="6.03269">
        <ele>2009.4</ele>
        <time>2021-02-27T09:45:06Z</time>
      </trkpt>
      <trkpt lat="45.21807" lon="6.03271">
        <ele>2009.8</ele>
        <time>2021-02-27T09:45:07Z</time>
      </trkpt>
      <trkpt lat="45.21807" lon="6.03271">
        <ele>2010</ele>
        <time>2021-02-27T09:45:08Z</time>
      </trkpt>
      <trkpt lat="45.21807" lon="6.03275">
        <ele>2010.2</ele>
        <time>2021-02-27T09:45:09Z</time>
      </trkpt>
      <trkpt lat="45.21807" lon="6.03275">
        <ele>2010.6</ele>
        <time>2021-02-27T09:45:10Z</time>
      </trkpt>
      <trkpt lat="45.21809" lon="6.03278">
        <ele>2010.6</ele>
        <time>2021-02-27T09:45:11Z</time>
      </trkpt>
      <trkpt lat="45.21809" lon="6.03278">
        <ele>2010.6</ele>
        <time>2021-02-27T09:45:12Z</time>
      </trkpt>
      <trkpt lat="45.2181" lon="6.03281">
        <ele>2010.8</ele>
        <time>2021-02-27T09:45:13Z</time>
      </trkpt>
      <trkpt lat="45.2181" lon="6.03281">
        <ele>2011.2</ele>
        <time>2021-02-27T09:45:14Z</time>
      </trkpt>
      <trkpt lat="45.21812" lon="6.03283">
        <ele>2011.2</ele>
        <time>2021-02-27T09:45:15Z</time>
      </trkpt>
      <trkpt lat="45.21812" lon="6.03283">
        <ele>2011.6</ele>
        <time>2021-02-27T09:45:16Z</time>
      </trkpt>
      <trkpt lat="45.21814" lon="6.03284">
        <ele>2011.6</ele>
        <time>2021-02-27T09:45:17Z</time>
      </trkpt>
      <trkpt lat="45.21814" lon="6.03284">
        <ele>2012</ele>
        <time>2021-02-27T09:45:18Z</time>
      </trkpt>
      <trkpt lat="45.21814" lon="6.03284">
        <ele>2012.2</ele>
        <time>2021-02-27T09:45:19Z</time>
      </trkpt>
      <trkpt lat="45.21814" lon="6.03287">
        <ele>2012.4</ele>
        <time>2021-02-27T09:45:20Z</time>
      </trkpt>
      <trkpt lat="45.21814" lon="6.03287">
        <ele>2012.4</ele>
        <time>2021-02-27T09:45:21Z</time>
      </trkpt>
      <trkpt lat="45.21814" lon="6.03287">
        <ele>2012.6</ele>
        <time>2021-02-27T09:45:22Z</time>
      </trkpt>
      <trkpt lat="45.21815" lon="6.0329">
        <ele>2013</ele>
        <time>2021-02-27T09:45:23Z</time>
      </trkpt>
      <trkpt lat="45.21815" lon="6.0329">
        <ele>2013.4</ele>
        <time>2021-02-27T09:45:24Z</time>
      </trkpt>
      <trkpt lat="45.21815" lon="6.0329">
        <ele>2013.8</ele>
        <time>2021-02-27T09:45:25Z</time>
      </trkpt>
      <trkpt lat="45.21817" lon="6.03293">
        <ele>2014</ele>
        <time>2021-02-27T09:45:26Z</time>
      </trkpt>
      <trkpt lat="45.21817" lon="6.03293">
        <ele>2014.2</ele>
        <time>2021-02-27T09:45:27Z</time>
      </trkpt>
      <trkpt lat="45.21819" lon="6.03297">
        <ele>2014</ele>
        <time>2021-02-27T09:45:28Z</time>
      </trkpt>
      <trkpt lat="45.2182" lon="6.03299">
        <ele>2013.8</ele>
        <time>2021-02-27T09:45:29Z</time>
      </trkpt>
      <trkpt lat="45.21821" lon="6.03301">
        <ele>2013.8</ele>
        <time>2021-02-27T09:45:30Z</time>
      </trkpt>
      <trkpt lat="45.21823" lon="6.03304">
        <ele>2013.6</ele>
        <time>2021-02-27T09:45:31Z</time>
      </trkpt>
      <trkpt lat="45.21825" lon="6.03306">
        <ele>2013.2</ele>
        <time>2021-02-27T09:45:32Z</time>
      </trkpt>
      <trkpt lat="45.21827" lon="6.03309">
        <ele>2013.4</ele>
        <time>2021-02-27T09:45:33Z</time>
      </trkpt>
      <trkpt lat="45.21827" lon="6.03309">
        <ele>2013.4</ele>
        <time>2021-02-27T09:45:34Z</time>
      </trkpt>
      <trkpt lat="45.21828" lon="6.03311">
        <ele>2013.2</ele>
        <time>2021-02-27T09:45:35Z</time>
      </trkpt>
      <trkpt lat="45.21828" lon="6.03311">
        <ele>2013</ele>
        <time>2021-02-27T09:45:36Z</time>
      </trkpt>
      <trkpt lat="45.21828" lon="6.03311">
        <ele>2013</ele>
        <time>2021-02-27T09:45:37Z</time>
      </trkpt>
      <trkpt lat="45.21828" lon="6.03311">
        <ele>2012.8</ele>
        <time>2021-02-27T09:45:38Z</time>
      </trkpt>
      <trkpt lat="45.21828" lon="6.03311">
        <ele>2012.6</ele>
        <time>2021-02-27T09:45:39Z</time>
      </trkpt>
      <trkpt lat="45.21829" lon="6.03308">
        <ele>2012.4</ele>
        <time>2021-02-27T09:45:40Z</time>
      </trkpt>
      <trkpt lat="45.21829" lon="6.03308">
        <ele>2012.4</ele>
        <time>2021-02-27T09:45:41Z</time>
      </trkpt>
      <trkpt lat="45.2183" lon="6.03305">
        <ele>2012.2</ele>
        <time>2021-02-27T09:45:42Z</time>
      </trkpt>
      <trkpt lat="45.2183" lon="6.03305">
        <ele>2012.2</ele>
        <time>2021-02-27T09:45:43Z</time>
      </trkpt>
      <trkpt lat="45.21831" lon="6.03301">
        <ele>2012.2</ele>
        <time>2021-02-27T09:45:44Z</time>
      </trkpt>
      <trkpt lat="45.21831" lon="6.03301">
        <ele>2012</ele>
        <time>2021-02-27T09:45:45Z</time>
      </trkpt>
      <trkpt lat="45.21833" lon="6.03297">
        <ele>2012.2</ele>
        <time>2021-02-27T09:45:46Z</time>
      </trkpt>
      <trkpt lat="45.21833" lon="6.03297">
        <ele>2012.2</ele>
        <time>2021-02-27T09:45:47Z</time>
      </trkpt>
      <trkpt lat="45.21835" lon="6.03294">
        <ele>2012</ele>
        <time>2021-02-27T09:45:48Z</time>
      </trkpt>
      <trkpt lat="45.21835" lon="6.03294">
        <ele>2011.8</ele>
        <time>2021-02-27T09:45:49Z</time>
      </trkpt>
      <trkpt lat="45.21838" lon="6.03292">
        <ele>2012</ele>
        <time>2021-02-27T09:45:50Z</time>
      </trkpt>
      <trkpt lat="45.21838" lon="6.03292">
        <ele>2012</ele>
        <time>2021-02-27T09:45:51Z</time>
      </trkpt>
      <trkpt lat="45.2184" lon="6.0329">
        <ele>2011.8</ele>
        <time>2021-02-27T09:45:52Z</time>
      </trkpt>
      <trkpt lat="45.2184" lon="6.0329">
        <ele>2012</ele>
        <time>2021-02-27T09:45:53Z</time>
      </trkpt>
      <trkpt lat="45.21843" lon="6.03287">
        <ele>2012</ele>
        <time>2021-02-27T09:45:54Z</time>
      </trkpt>
      <trkpt lat="45.21843" lon="6.03287">
        <ele>2012.2</ele>
        <time>2021-02-27T09:45:55Z</time>
      </trkpt>
      <trkpt lat="45.21845" lon="6.03285">
        <ele>2012.2</ele>
        <time>2021-02-27T09:45:56Z</time>
      </trkpt>
      <trkpt lat="45.21845" lon="6.03285">
        <ele>2012.2</ele>
        <time>2021-02-27T09:45:57Z</time>
      </trkpt>
      <trkpt lat="45.21848" lon="6.03284">
        <ele>2012.8</ele>
        <time>2021-02-27T09:45:58Z</time>
      </trkpt>
      <trkpt lat="45.21848" lon="6.03284">
        <ele>2012.8</ele>
        <time>2021-02-27T09:45:59Z</time>
      </trkpt>
      <trkpt lat="45.2185" lon="6.03284">
        <ele>2013.2</ele>
        <time>2021-02-27T09:46:00Z</time>
      </trkpt>
      <trkpt lat="45.2185" lon="6.03284">
        <ele>2013.2</ele>
        <time>2021-02-27T09:46:01Z</time>
      </trkpt>
      <trkpt lat="45.21853" lon="6.03283">
        <ele>2013.4</ele>
        <time>2021-02-27T09:46:02Z</time>
      </trkpt>
      <trkpt lat="45.21853" lon="6.03283">
        <ele>2013.4</ele>
        <time>2021-02-27T09:46:03Z</time>
      </trkpt>
      <trkpt lat="45.21855" lon="6.03282">
        <ele>2013.4</ele>
        <time>2021-02-27T09:46:04Z</time>
      </trkpt>
      <trkpt lat="45.21855" lon="6.03282">
        <ele>2013.8</ele>
        <time>2021-02-27T09:46:05Z</time>
      </trkpt>
      <trkpt lat="45.21857" lon="6.0328">
        <ele>2014.2</ele>
        <time>2021-02-27T09:46:06Z</time>
      </trkpt>
      <trkpt lat="45.21857" lon="6.0328">
        <ele>2014.2</ele>
        <time>2021-02-27T09:46:07Z</time>
      </trkpt>
      <trkpt lat="45.21859" lon="6.03278">
        <ele>2014.6</ele>
        <time>2021-02-27T09:46:08Z</time>
      </trkpt>
      <trkpt lat="45.21859" lon="6.03278">
        <ele>2015.2</ele>
        <time>2021-02-27T09:46:09Z</time>
      </trkpt>
      <trkpt lat="45.21861" lon="6.03276">
        <ele>2015.6</ele>
        <time>2021-02-27T09:46:10Z</time>
      </trkpt>
      <trkpt lat="45.21861" lon="6.03276">
        <ele>2016</ele>
        <time>2021-02-27T09:46:11Z</time>
      </trkpt>
      <trkpt lat="45.21863" lon="6.03274">
        <ele>2016.2</ele>
        <time>2021-02-27T09:46:12Z</time>
      </trkpt>
      <trkpt lat="45.21863" lon="6.03274">
        <ele>2016</ele>
        <time>2021-02-27T09:46:13Z</time>
      </trkpt>
      <trkpt lat="45.21865" lon="6.03272">
        <ele>2016</ele>
        <time>2021-02-27T09:46:14Z</time>
      </trkpt>
      <trkpt lat="45.21865" lon="6.03272">
        <ele>2015.8</ele>
        <time>2021-02-27T09:46:15Z</time>
      </trkpt>
      <trkpt lat="45.21865" lon="6.03272">
        <ele>2016.2</ele>
        <time>2021-02-27T09:46:16Z</time>
      </trkpt>
      <trkpt lat="45.21865" lon="6.03272">
        <ele>2016.2</ele>
        <time>2021-02-27T09:46:17Z</time>
      </trkpt>
      <trkpt lat="45.21865" lon="6.03272">
        <ele>2016.4</ele>
        <time>2021-02-27T09:46:18Z</time>
      </trkpt>
      <trkpt lat="45.21865" lon="6.03272">
        <ele>2016.8</ele>
        <time>2021-02-27T09:46:19Z</time>
      </trkpt>
      <trkpt lat="45.21866" lon="6.0327">
        <ele>2017</ele>
        <time>2021-02-27T09:46:20Z</time>
      </trkpt>
      <trkpt lat="45.21866" lon="6.0327">
        <ele>2017</ele>
        <time>2021-02-27T09:46:21Z</time>
      </trkpt>
      <trkpt lat="45.21868" lon="6.03268">
        <ele>2016.6</ele>
        <time>2021-02-27T09:46:22Z</time>
      </trkpt>
      <trkpt lat="45.21868" lon="6.03268">
        <ele>2016.4</ele>
        <time>2021-02-27T09:46:23Z</time>
      </trkpt>
      <trkpt lat="45.21869" lon="6.03265">
        <ele>2016.2</ele>
        <time>2021-02-27T09:46:24Z</time>
      </trkpt>
      <trkpt lat="45.21869" lon="6.03265">
        <ele>2016.4</ele>
        <time>2021-02-27T09:46:25Z</time>
      </trkpt>
      <trkpt lat="45.21869" lon="6.03265">
        <ele>2016.8</ele>
        <time>2021-02-27T09:46:26Z</time>
      </trkpt>
      <trkpt lat="45.21869" lon="6.03262">
        <ele>2016.8</ele>
        <time>2021-02-27T09:46:27Z</time>
      </trkpt>
      <trkpt lat="45.21869" lon="6.03262">
        <ele>2017.2</ele>
        <time>2021-02-27T09:46:28Z</time>
      </trkpt>
      <trkpt lat="45.21869" lon="6.03262">
        <ele>2017.4</ele>
        <time>2021-02-27T09:46:29Z</time>
      </trkpt>
      <trkpt lat="45.21869" lon="6.03262">
        <ele>2017.4</ele>
        <time>2021-02-27T09:46:30Z</time>
      </trkpt>
      <trkpt lat="45.21869" lon="6.03262">
        <ele>2017.6</ele>
        <time>2021-02-27T09:46:31Z</time>
      </trkpt>
      <trkpt lat="45.21869" lon="6.03262">
        <ele>2017.4</ele>
        <time>2021-02-27T09:46:32Z</time>
      </trkpt>
      <trkpt lat="45.21869" lon="6.03258">
        <ele>2017.4</ele>
        <time>2021-02-27T09:46:33Z</time>
      </trkpt>
      <trkpt lat="45.21869" lon="6.03258">
        <ele>2017.6</ele>
        <time>2021-02-27T09:46:34Z</time>
      </trkpt>
      <trkpt lat="45.2187" lon="6.03255">
        <ele>2017.6</ele>
        <time>2021-02-27T09:46:35Z</time>
      </trkpt>
      <trkpt lat="45.2187" lon="6.03255">
        <ele>2017.8</ele>
        <time>2021-02-27T09:46:36Z</time>
      </trkpt>
      <trkpt lat="45.2187" lon="6.03252">
        <ele>2018</ele>
        <time>2021-02-27T09:46:37Z</time>
      </trkpt>
      <trkpt lat="45.2187" lon="6.03252">
        <ele>2017.8</ele>
        <time>2021-02-27T09:46:38Z</time>
      </trkpt>
      <trkpt lat="45.2187" lon="6.03249">
        <ele>2017.8</ele>
        <time>2021-02-27T09:46:39Z</time>
      </trkpt>
      <trkpt lat="45.2187" lon="6.03249">
        <ele>2018</ele>
        <time>2021-02-27T09:46:40Z</time>
      </trkpt>
      <trkpt lat="45.21871" lon="6.03246">
        <ele>2018</ele>
        <time>2021-02-27T09:46:41Z</time>
      </trkpt>
      <trkpt lat="45.21871" lon="6.03246">
        <ele>2018</ele>
        <time>2021-02-27T09:46:42Z</time>
      </trkpt>
      <trkpt lat="45.21871" lon="6.03243">
        <ele>2017.8</ele>
        <time>2021-02-27T09:46:43Z</time>
      </trkpt>
      <trkpt lat="45.21871" lon="6.03243">
        <ele>2017.8</ele>
        <time>2021-02-27T09:46:44Z</time>
      </trkpt>
      <trkpt lat="45.21871" lon="6.03239">
        <ele>2018.2</ele>
        <time>2021-02-27T09:46:45Z</time>
      </trkpt>
      <trkpt lat="45.21871" lon="6.03239">
        <ele>2018.4</ele>
        <time>2021-02-27T09:46:46Z</time>
      </trkpt>
      <trkpt lat="45.21871" lon="6.03237">
        <ele>2018.4</ele>
        <time>2021-02-27T09:46:47Z</time>
      </trkpt>
      <trkpt lat="45.21871" lon="6.03237">
        <ele>2018.4</ele>
        <time>2021-02-27T09:46:48Z</time>
      </trkpt>
      <trkpt lat="45.2187" lon="6.03234">
        <ele>2018.4</ele>
        <time>2021-02-27T09:46:49Z</time>
      </trkpt>
      <trkpt lat="45.2187" lon="6.03234">
        <ele>2018.6</ele>
        <time>2021-02-27T09:46:50Z</time>
      </trkpt>
      <trkpt lat="45.2187" lon="6.03232">
        <ele>2018.4</ele>
        <time>2021-02-27T09:46:51Z</time>
      </trkpt>
      <trkpt lat="45.2187" lon="6.03232">
        <ele>2018.6</ele>
        <time>2021-02-27T09:46:52Z</time>
      </trkpt>
      <trkpt lat="45.2187" lon="6.03232">
        <ele>2018.8</ele>
        <time>2021-02-27T09:46:53Z</time>
      </trkpt>
      <trkpt lat="45.2187" lon="6.03228">
        <ele>2019.4</ele>
        <time>2021-02-27T09:46:54Z</time>
      </trkpt>
      <trkpt lat="45.2187" lon="6.03228">
        <ele>2019.4</ele>
        <time>2021-02-27T09:46:55Z</time>
      </trkpt>
      <trkpt lat="45.2187" lon="6.03225">
        <ele>2019.6</ele>
        <time>2021-02-27T09:46:56Z</time>
      </trkpt>
      <trkpt lat="45.2187" lon="6.03225">
        <ele>2019.8</ele>
        <time>2021-02-27T09:46:57Z</time>
      </trkpt>
      <trkpt lat="45.2187" lon="6.03225">
        <ele>2019.8</ele>
        <time>2021-02-27T09:46:58Z</time>
      </trkpt>
      <trkpt lat="45.2187" lon="6.03222">
        <ele>2020</ele>
        <time>2021-02-27T09:46:59Z</time>
      </trkpt>
      <trkpt lat="45.2187" lon="6.03222">
        <ele>2020.4</ele>
        <time>2021-02-27T09:47:00Z</time>
      </trkpt>
      <trkpt lat="45.2187" lon="6.03219">
        <ele>2020.8</ele>
        <time>2021-02-27T09:47:01Z</time>
      </trkpt>
      <trkpt lat="45.2187" lon="6.03219">
        <ele>2020.6</ele>
        <time>2021-02-27T09:47:02Z</time>
      </trkpt>
      <trkpt lat="45.2187" lon="6.03216">
        <ele>2021</ele>
        <time>2021-02-27T09:47:03Z</time>
      </trkpt>
      <trkpt lat="45.2187" lon="6.03216">
        <ele>2021.4</ele>
        <time>2021-02-27T09:47:04Z</time>
      </trkpt>
      <trkpt lat="45.2187" lon="6.03213">
        <ele>2021.8</ele>
        <time>2021-02-27T09:47:05Z</time>
      </trkpt>
      <trkpt lat="45.2187" lon="6.03213">
        <ele>2022</ele>
        <time>2021-02-27T09:47:06Z</time>
      </trkpt>
      <trkpt lat="45.2187" lon="6.0321">
        <ele>2022</ele>
        <time>2021-02-27T09:47:07Z</time>
      </trkpt>
      <trkpt lat="45.2187" lon="6.0321">
        <ele>2022.6</ele>
        <time>2021-02-27T09:47:08Z</time>
      </trkpt>
      <trkpt lat="45.2187" lon="6.0321">
        <ele>2022.6</ele>
        <time>2021-02-27T09:47:09Z</time>
      </trkpt>
      <trkpt lat="45.2187" lon="6.03206">
        <ele>2022.8</ele>
        <time>2021-02-27T09:47:10Z</time>
      </trkpt>
      <trkpt lat="45.2187" lon="6.03206">
        <ele>2023</ele>
        <time>2021-02-27T09:47:11Z</time>
      </trkpt>
      <trkpt lat="45.2187" lon="6.03206">
        <ele>2023.4</ele>
        <time>2021-02-27T09:47:12Z</time>
      </trkpt>
      <trkpt lat="45.2187" lon="6.03202">
        <ele>2023.4</ele>
        <time>2021-02-27T09:47:13Z</time>
      </trkpt>
      <trkpt lat="45.2187" lon="6.03202">
        <ele>2023.8</ele>
        <time>2021-02-27T09:47:14Z</time>
      </trkpt>
      <trkpt lat="45.2187" lon="6.03202">
        <ele>2024.2</ele>
        <time>2021-02-27T09:47:15Z</time>
      </trkpt>
      <trkpt lat="45.2187" lon="6.03199">
        <ele>2024.4</ele>
        <time>2021-02-27T09:47:16Z</time>
      </trkpt>
      <trkpt lat="45.2187" lon="6.03199">
        <ele>2024.6</ele>
        <time>2021-02-27T09:47:17Z</time>
      </trkpt>
      <trkpt lat="45.2187" lon="6.03196">
        <ele>2024.8</ele>
        <time>2021-02-27T09:47:18Z</time>
      </trkpt>
      <trkpt lat="45.2187" lon="6.03196">
        <ele>2025.4</ele>
        <time>2021-02-27T09:47:19Z</time>
      </trkpt>
      <trkpt lat="45.2187" lon="6.03196">
        <ele>2025.8</ele>
        <time>2021-02-27T09:47:20Z</time>
      </trkpt>
      <trkpt lat="45.2187" lon="6.03192">
        <ele>2025.8</ele>
        <time>2021-02-27T09:47:21Z</time>
      </trkpt>
      <trkpt lat="45.2187" lon="6.03192">
        <ele>2026.4</ele>
        <time>2021-02-27T09:47:22Z</time>
      </trkpt>
      <trkpt lat="45.2187" lon="6.03192">
        <ele>2026.6</ele>
        <time>2021-02-27T09:47:23Z</time>
      </trkpt>
      <trkpt lat="45.2187" lon="6.03189">
        <ele>2026.8</ele>
        <time>2021-02-27T09:47:24Z</time>
      </trkpt>
      <trkpt lat="45.2187" lon="6.03189">
        <ele>2027</ele>
        <time>2021-02-27T09:47:25Z</time>
      </trkpt>
      <trkpt lat="45.21873" lon="6.03189">
        <ele>2027.8</ele>
        <time>2021-02-27T09:47:26Z</time>
      </trkpt>
      <trkpt lat="45.21873" lon="6.03189">
        <ele>2028</ele>
        <time>2021-02-27T09:47:27Z</time>
      </trkpt>
      <trkpt lat="45.21875" lon="6.0319">
        <ele>2028</ele>
        <time>2021-02-27T09:47:28Z</time>
      </trkpt>
      <trkpt lat="45.21875" lon="6.0319">
        <ele>2028.4</ele>
        <time>2021-02-27T09:47:29Z</time>
      </trkpt>
      <trkpt lat="45.21878" lon="6.03192">
        <ele>2028.4</ele>
        <time>2021-02-27T09:47:30Z</time>
      </trkpt>
      <trkpt lat="45.21878" lon="6.03192">
        <ele>2028.6</ele>
        <time>2021-02-27T09:47:31Z</time>
      </trkpt>
      <trkpt lat="45.2188" lon="6.03193">
        <ele>2029.2</ele>
        <time>2021-02-27T09:47:32Z</time>
      </trkpt>
      <trkpt lat="45.2188" lon="6.03193">
        <ele>2029.2</ele>
        <time>2021-02-27T09:47:33Z</time>
      </trkpt>
      <trkpt lat="45.21882" lon="6.03195">
        <ele>2029.8</ele>
        <time>2021-02-27T09:47:34Z</time>
      </trkpt>
      <trkpt lat="45.21882" lon="6.03195">
        <ele>2030.2</ele>
        <time>2021-02-27T09:47:35Z</time>
      </trkpt>
      <trkpt lat="45.21884" lon="6.03196">
        <ele>2030.2</ele>
        <time>2021-02-27T09:47:36Z</time>
      </trkpt>
      <trkpt lat="45.21884" lon="6.03196">
        <ele>2031</ele>
        <time>2021-02-27T09:47:37Z</time>
      </trkpt>
      <trkpt lat="45.21886" lon="6.03198">
        <ele>2031.2</ele>
        <time>2021-02-27T09:47:38Z</time>
      </trkpt>
      <trkpt lat="45.21886" lon="6.03198">
        <ele>2031.2</ele>
        <time>2021-02-27T09:47:39Z</time>
      </trkpt>
      <trkpt lat="45.21887" lon="6.03201">
        <ele>2031.4</ele>
        <time>2021-02-27T09:47:40Z</time>
      </trkpt>
      <trkpt lat="45.21887" lon="6.03201">
        <ele>2031.6</ele>
        <time>2021-02-27T09:47:41Z</time>
      </trkpt>
      <trkpt lat="45.21888" lon="6.03204">
        <ele>2032</ele>
        <time>2021-02-27T09:47:42Z</time>
      </trkpt>
      <trkpt lat="45.21888" lon="6.03204">
        <ele>2031.8</ele>
        <time>2021-02-27T09:47:43Z</time>
      </trkpt>
      <trkpt lat="45.21888" lon="6.03209">
        <ele>2032.4</ele>
        <time>2021-02-27T09:47:44Z</time>
      </trkpt>
      <trkpt lat="45.21888" lon="6.03209">
        <ele>2032.2</ele>
        <time>2021-02-27T09:47:45Z</time>
      </trkpt>
      <trkpt lat="45.21889" lon="6.03212">
        <ele>2032.2</ele>
        <time>2021-02-27T09:47:46Z</time>
      </trkpt>
      <trkpt lat="45.21889" lon="6.03212">
        <ele>2032.4</ele>
        <time>2021-02-27T09:47:47Z</time>
      </trkpt>
      <trkpt lat="45.2189" lon="6.03215">
        <ele>2032.6</ele>
        <time>2021-02-27T09:47:48Z</time>
      </trkpt>
      <trkpt lat="45.2189" lon="6.03215">
        <ele>2032.8</ele>
        <time>2021-02-27T09:47:49Z</time>
      </trkpt>
      <trkpt lat="45.21893" lon="6.03219">
        <ele>2032.8</ele>
        <time>2021-02-27T09:47:50Z</time>
      </trkpt>
      <trkpt lat="45.21894" lon="6.03222">
        <ele>2032.6</ele>
        <time>2021-02-27T09:47:51Z</time>
      </trkpt>
      <trkpt lat="45.21895" lon="6.03224">
        <ele>2032.6</ele>
        <time>2021-02-27T09:47:52Z</time>
      </trkpt>
      <trkpt lat="45.21895" lon="6.03227">
        <ele>2032.8</ele>
        <time>2021-02-27T09:47:53Z</time>
      </trkpt>
      <trkpt lat="45.21895" lon="6.03227">
        <ele>2032.6</ele>
        <time>2021-02-27T09:47:54Z</time>
      </trkpt>
      <trkpt lat="45.21897" lon="6.0323">
        <ele>2032.6</ele>
        <time>2021-02-27T09:47:55Z</time>
      </trkpt>
      <trkpt lat="45.21897" lon="6.0323">
        <ele>2032.6</ele>
        <time>2021-02-27T09:47:56Z</time>
      </trkpt>
      <trkpt lat="45.21899" lon="6.03233">
        <ele>2032.6</ele>
        <time>2021-02-27T09:47:57Z</time>
      </trkpt>
      <trkpt lat="45.21899" lon="6.03233">
        <ele>2032.8</ele>
        <time>2021-02-27T09:47:58Z</time>
      </trkpt>
      <trkpt lat="45.219" lon="6.03236">
        <ele>2033.2</ele>
        <time>2021-02-27T09:47:59Z</time>
      </trkpt>
      <trkpt lat="45.219" lon="6.03236">
        <ele>2033.2</ele>
        <time>2021-02-27T09:48:00Z</time>
      </trkpt>
      <trkpt lat="45.21901" lon="6.03239">
        <ele>2033.2</ele>
        <time>2021-02-27T09:48:01Z</time>
      </trkpt>
      <trkpt lat="45.21901" lon="6.03239">
        <ele>2033.2</ele>
        <time>2021-02-27T09:48:02Z</time>
      </trkpt>
      <trkpt lat="45.21903" lon="6.03242">
        <ele>2033.2</ele>
        <time>2021-02-27T09:48:03Z</time>
      </trkpt>
      <trkpt lat="45.21903" lon="6.03242">
        <ele>2033.2</ele>
        <time>2021-02-27T09:48:04Z</time>
      </trkpt>
      <trkpt lat="45.21904" lon="6.03245">
        <ele>2033.4</ele>
        <time>2021-02-27T09:48:05Z</time>
      </trkpt>
      <trkpt lat="45.21904" lon="6.03245">
        <ele>2033.6</ele>
        <time>2021-02-27T09:48:06Z</time>
      </trkpt>
      <trkpt lat="45.21905" lon="6.03248">
        <ele>2033.8</ele>
        <time>2021-02-27T09:48:07Z</time>
      </trkpt>
      <trkpt lat="45.21905" lon="6.03248">
        <ele>2034.8</ele>
        <time>2021-02-27T09:48:08Z</time>
      </trkpt>
      <trkpt lat="45.21906" lon="6.03252">
        <ele>2035.2</ele>
        <time>2021-02-27T09:48:09Z</time>
      </trkpt>
      <trkpt lat="45.21906" lon="6.03252">
        <ele>2035.4</ele>
        <time>2021-02-27T09:48:10Z</time>
      </trkpt>
      <trkpt lat="45.21907" lon="6.03254">
        <ele>2036</ele>
        <time>2021-02-27T09:48:11Z</time>
      </trkpt>
      <trkpt lat="45.21907" lon="6.03254">
        <ele>2036</ele>
        <time>2021-02-27T09:48:12Z</time>
      </trkpt>
      <trkpt lat="45.21909" lon="6.03257">
        <ele>2036.4</ele>
        <time>2021-02-27T09:48:13Z</time>
      </trkpt>
      <trkpt lat="45.21909" lon="6.03257">
        <ele>2036.6</ele>
        <time>2021-02-27T09:48:14Z</time>
      </trkpt>
      <trkpt lat="45.21911" lon="6.03259">
        <ele>2037</ele>
        <time>2021-02-27T09:48:15Z</time>
      </trkpt>
      <trkpt lat="45.21911" lon="6.03259">
        <ele>2037.6</ele>
        <time>2021-02-27T09:48:16Z</time>
      </trkpt>
      <trkpt lat="45.21914" lon="6.03261">
        <ele>2037.6</ele>
        <time>2021-02-27T09:48:17Z</time>
      </trkpt>
      <trkpt lat="45.21914" lon="6.03261">
        <ele>2037.6</ele>
        <time>2021-02-27T09:48:18Z</time>
      </trkpt>
      <trkpt lat="45.21916" lon="6.03262">
        <ele>2038</ele>
        <time>2021-02-27T09:48:19Z</time>
      </trkpt>
      <trkpt lat="45.21916" lon="6.03262">
        <ele>2038</ele>
        <time>2021-02-27T09:48:20Z</time>
      </trkpt>
      <trkpt lat="45.21916" lon="6.03262">
        <ele>2038.6</ele>
        <time>2021-02-27T09:48:21Z</time>
      </trkpt>
      <trkpt lat="45.21918" lon="6.03263">
        <ele>2038.8</ele>
        <time>2021-02-27T09:48:22Z</time>
      </trkpt>
      <trkpt lat="45.21918" lon="6.03263">
        <ele>2039</ele>
        <time>2021-02-27T09:48:23Z</time>
      </trkpt>
      <trkpt lat="45.21918" lon="6.03263">
        <ele>2039.6</ele>
        <time>2021-02-27T09:48:24Z</time>
      </trkpt>
      <trkpt lat="45.21921" lon="6.03264">
        <ele>2039.6</ele>
        <time>2021-02-27T09:48:25Z</time>
      </trkpt>
      <trkpt lat="45.21921" lon="6.03264">
        <ele>2040.2</ele>
        <time>2021-02-27T09:48:26Z</time>
      </trkpt>
      <trkpt lat="45.21923" lon="6.03264">
        <ele>2040.6</ele>
        <time>2021-02-27T09:48:27Z</time>
      </trkpt>
      <trkpt lat="45.21923" lon="6.03264">
        <ele>2040.8</ele>
        <time>2021-02-27T09:48:28Z</time>
      </trkpt>
      <trkpt lat="45.21923" lon="6.03264">
        <ele>2041.6</ele>
        <time>2021-02-27T09:48:29Z</time>
      </trkpt>
      <trkpt lat="45.21925" lon="6.03264">
        <ele>2041.8</ele>
        <time>2021-02-27T09:48:30Z</time>
      </trkpt>
      <trkpt lat="45.21925" lon="6.03264">
        <ele>2042.2</ele>
        <time>2021-02-27T09:48:31Z</time>
      </trkpt>
      <trkpt lat="45.21928" lon="6.03265">
        <ele>2042.8</ele>
        <time>2021-02-27T09:48:32Z</time>
      </trkpt>
      <trkpt lat="45.21928" lon="6.03265">
        <ele>2043.2</ele>
        <time>2021-02-27T09:48:33Z</time>
      </trkpt>
      <trkpt lat="45.2193" lon="6.03266">
        <ele>2043.4</ele>
        <time>2021-02-27T09:48:34Z</time>
      </trkpt>
      <trkpt lat="45.2193" lon="6.03266">
        <ele>2043.6</ele>
        <time>2021-02-27T09:48:35Z</time>
      </trkpt>
      <trkpt lat="45.21932" lon="6.03266">
        <ele>2044</ele>
        <time>2021-02-27T09:48:36Z</time>
      </trkpt>
      <trkpt lat="45.21932" lon="6.03266">
        <ele>2044.6</ele>
        <time>2021-02-27T09:48:37Z</time>
      </trkpt>
      <trkpt lat="45.21934" lon="6.03266">
        <ele>2044.8</ele>
        <time>2021-02-27T09:48:38Z</time>
      </trkpt>
      <trkpt lat="45.21934" lon="6.03266">
        <ele>2045.2</ele>
        <time>2021-02-27T09:48:39Z</time>
      </trkpt>
      <trkpt lat="45.21936" lon="6.03267">
        <ele>2045.8</ele>
        <time>2021-02-27T09:48:40Z</time>
      </trkpt>
      <trkpt lat="45.21936" lon="6.03267">
        <ele>2045.6</ele>
        <time>2021-02-27T09:48:41Z</time>
      </trkpt>
      <trkpt lat="45.21938" lon="6.03267">
        <ele>2046</ele>
        <time>2021-02-27T09:48:42Z</time>
      </trkpt>
      <trkpt lat="45.21938" lon="6.03267">
        <ele>2046.6</ele>
        <time>2021-02-27T09:48:43Z</time>
      </trkpt>
      <trkpt lat="45.21938" lon="6.03267">
        <ele>2046.6</ele>
        <time>2021-02-27T09:48:44Z</time>
      </trkpt>
      <trkpt lat="45.21938" lon="6.03267">
        <ele>2047</ele>
        <time>2021-02-27T09:48:45Z</time>
      </trkpt>
      <trkpt lat="45.21938" lon="6.03267">
        <ele>2047.4</ele>
        <time>2021-02-27T09:48:46Z</time>
      </trkpt>
      <trkpt lat="45.21938" lon="6.03267">
        <ele>2047.6</ele>
        <time>2021-02-27T09:48:47Z</time>
      </trkpt>
      <trkpt lat="45.21938" lon="6.03267">
        <ele>2047.8</ele>
        <time>2021-02-27T09:48:48Z</time>
      </trkpt>
      <trkpt lat="45.21938" lon="6.03267">
        <ele>2047.8</ele>
        <time>2021-02-27T09:48:49Z</time>
      </trkpt>
      <trkpt lat="45.21938" lon="6.03267">
        <ele>2047.8</ele>
        <time>2021-02-27T09:48:50Z</time>
      </trkpt>
      <trkpt lat="45.21938" lon="6.03267">
        <ele>2048</ele>
        <time>2021-02-27T09:48:51Z</time>
      </trkpt>
      <trkpt lat="45.21938" lon="6.03267">
        <ele>2048</ele>
        <time>2021-02-27T09:48:52Z</time>
      </trkpt>
      <trkpt lat="45.21938" lon="6.03267">
        <ele>2047.8</ele>
        <time>2021-02-27T09:48:53Z</time>
      </trkpt>
      <trkpt lat="45.21938" lon="6.03267">
        <ele>2048</ele>
        <time>2021-02-27T09:48:54Z</time>
      </trkpt>
      <trkpt lat="45.21938" lon="6.03267">
        <ele>2048.2</ele>
        <time>2021-02-27T09:48:55Z</time>
      </trkpt>
      <trkpt lat="45.21938" lon="6.03267">
        <ele>2048.2</ele>
        <time>2021-02-27T09:48:56Z</time>
      </trkpt>
      <trkpt lat="45.21938" lon="6.03267">
        <ele>2048.4</ele>
        <time>2021-02-27T09:48:57Z</time>
      </trkpt>
      <trkpt lat="45.21938" lon="6.03267">
        <ele>2048.2</ele>
        <time>2021-02-27T09:48:58Z</time>
      </trkpt>
      <trkpt lat="45.21938" lon="6.03267">
        <ele>2048.4</ele>
        <time>2021-02-27T09:48:59Z</time>
      </trkpt>
      <trkpt lat="45.21938" lon="6.03267">
        <ele>2048.6</ele>
        <time>2021-02-27T09:49:00Z</time>
      </trkpt>
      <trkpt lat="45.21938" lon="6.03267">
        <ele>2048.6</ele>
        <time>2021-02-27T09:49:01Z</time>
      </trkpt>
      <trkpt lat="45.21938" lon="6.03267">
        <ele>2048.6</ele>
        <time>2021-02-27T09:49:02Z</time>
      </trkpt>
      <trkpt lat="45.21938" lon="6.03267">
        <ele>2048.6</ele>
        <time>2021-02-27T09:49:03Z</time>
      </trkpt>
      <trkpt lat="45.21938" lon="6.03267">
        <ele>2048.6</ele>
        <time>2021-02-27T09:49:04Z</time>
      </trkpt>
      <trkpt lat="45.21938" lon="6.03267">
        <ele>2048.6</ele>
        <time>2021-02-27T09:49:05Z</time>
      </trkpt>
      <trkpt lat="45.21938" lon="6.03267">
        <ele>2048.6</ele>
        <time>2021-02-27T09:49:06Z</time>
      </trkpt>
      <trkpt lat="45.21938" lon="6.03267">
        <ele>2048.6</ele>
        <time>2021-02-27T09:49:07Z</time>
      </trkpt>
      <trkpt lat="45.21938" lon="6.03267">
        <ele>2048.6</ele>
        <time>2021-02-27T09:49:08Z</time>
      </trkpt>
      <trkpt lat="45.21938" lon="6.03267">
        <ele>2048.8</ele>
        <time>2021-02-27T09:49:09Z</time>
      </trkpt>
      <trkpt lat="45.21938" lon="6.03267">
        <ele>2049</ele>
        <time>2021-02-27T09:49:10Z</time>
      </trkpt>
      <trkpt lat="45.21938" lon="6.03267">
        <ele>2049</ele>
        <time>2021-02-27T09:49:11Z</time>
      </trkpt>
      <trkpt lat="45.21938" lon="6.03267">
        <ele>2049.2</ele>
        <time>2021-02-27T09:49:12Z</time>
      </trkpt>
      <trkpt lat="45.21938" lon="6.03267">
        <ele>2049.2</ele>
        <time>2021-02-27T09:49:13Z</time>
      </trkpt>
      <trkpt lat="45.21938" lon="6.03267">
        <ele>2049</ele>
        <time>2021-02-27T09:49:14Z</time>
      </trkpt>
      <trkpt lat="45.21938" lon="6.03267">
        <ele>2049.2</ele>
        <time>2021-02-27T09:49:15Z</time>
      </trkpt>
      <trkpt lat="45.2194" lon="6.03266">
        <ele>2049.4</ele>
        <time>2021-02-27T09:49:16Z</time>
      </trkpt>
      <trkpt lat="45.2194" lon="6.03266">
        <ele>2050</ele>
        <time>2021-02-27T09:49:17Z</time>
      </trkpt>
      <trkpt lat="45.2194" lon="6.03266">
        <ele>2050.2</ele>
        <time>2021-02-27T09:49:18Z</time>
      </trkpt>
      <trkpt lat="45.2194" lon="6.03266">
        <ele>2050.2</ele>
        <time>2021-02-27T09:49:19Z</time>
      </trkpt>
      <trkpt lat="45.2194" lon="6.03266">
        <ele>2050</ele>
        <time>2021-02-27T09:49:20Z</time>
      </trkpt>
      <trkpt lat="45.2194" lon="6.03266">
        <ele>2050</ele>
        <time>2021-02-27T09:49:21Z</time>
      </trkpt>
      <trkpt lat="45.2194" lon="6.03266">
        <ele>2050</ele>
        <time>2021-02-27T09:49:22Z</time>
      </trkpt>
      <trkpt lat="45.2194" lon="6.03266">
        <ele>2050</ele>
        <time>2021-02-27T09:49:23Z</time>
      </trkpt>
      <trkpt lat="45.2194" lon="6.03266">
        <ele>2050</ele>
        <time>2021-02-27T09:49:24Z</time>
      </trkpt>
      <trkpt lat="45.2194" lon="6.03266">
        <ele>2050.2</ele>
        <time>2021-02-27T09:49:25Z</time>
      </trkpt>
      <trkpt lat="45.2194" lon="6.03266">
        <ele>2050.4</ele>
        <time>2021-02-27T09:49:26Z</time>
      </trkpt>
      <trkpt lat="45.2194" lon="6.03266">
        <ele>2051</ele>
        <time>2021-02-27T09:49:27Z</time>
      </trkpt>
      <trkpt lat="45.2194" lon="6.03266">
        <ele>2051.4</ele>
        <time>2021-02-27T09:49:28Z</time>
      </trkpt>
      <trkpt lat="45.2194" lon="6.03266">
        <ele>2052</ele>
        <time>2021-02-27T09:49:29Z</time>
      </trkpt>
      <trkpt lat="45.2194" lon="6.03266">
        <ele>2052.2</ele>
        <time>2021-02-27T09:49:30Z</time>
      </trkpt>
      <trkpt lat="45.2194" lon="6.03266">
        <ele>2052.2</ele>
        <time>2021-02-27T09:49:31Z</time>
      </trkpt>
      <trkpt lat="45.2194" lon="6.03266">
        <ele>2052.2</ele>
        <time>2021-02-27T09:49:32Z</time>
      </trkpt>
      <trkpt lat="45.2194" lon="6.03266">
        <ele>2052.2</ele>
        <time>2021-02-27T09:49:33Z</time>
      </trkpt>
      <trkpt lat="45.2194" lon="6.03266">
        <ele>2052.4</ele>
        <time>2021-02-27T09:49:34Z</time>
      </trkpt>
      <trkpt lat="45.2194" lon="6.03266">
        <ele>2052.6</ele>
        <time>2021-02-27T09:49:35Z</time>
      </trkpt>
      <trkpt lat="45.2194" lon="6.03266">
        <ele>2052.8</ele>
        <time>2021-02-27T09:49:36Z</time>
      </trkpt>
      <trkpt lat="45.21941" lon="6.03267">
        <ele>2052.4</ele>
        <time>2021-02-27T09:49:37Z</time>
      </trkpt>
      <trkpt lat="45.21941" lon="6.03267">
        <ele>2052.2</ele>
        <time>2021-02-27T09:49:38Z</time>
      </trkpt>
      <trkpt lat="45.21941" lon="6.03267">
        <ele>2052.4</ele>
        <time>2021-02-27T09:49:39Z</time>
      </trkpt>
      <trkpt lat="45.21941" lon="6.03267">
        <ele>2053</ele>
        <time>2021-02-27T09:49:40Z</time>
      </trkpt>
      <trkpt lat="45.21941" lon="6.03267">
        <ele>2053.4</ele>
        <time>2021-02-27T09:49:41Z</time>
      </trkpt>
      <trkpt lat="45.21941" lon="6.03267">
        <ele>2053.4</ele>
        <time>2021-02-27T09:49:42Z</time>
      </trkpt>
      <trkpt lat="45.21941" lon="6.03267">
        <ele>2054</ele>
        <time>2021-02-27T09:49:43Z</time>
      </trkpt>
      <trkpt lat="45.21941" lon="6.03267">
        <ele>2054.6</ele>
        <time>2021-02-27T09:49:44Z</time>
      </trkpt>
      <trkpt lat="45.21941" lon="6.03267">
        <ele>2055.2</ele>
        <time>2021-02-27T09:49:45Z</time>
      </trkpt>
      <trkpt lat="45.21941" lon="6.03267">
        <ele>2055.2</ele>
        <time>2021-02-27T09:49:46Z</time>
      </trkpt>
      <trkpt lat="45.21941" lon="6.03267">
        <ele>2055.4</ele>
        <time>2021-02-27T09:49:47Z</time>
      </trkpt>
      <trkpt lat="45.21941" lon="6.03267">
        <ele>2056</ele>
        <time>2021-02-27T09:49:48Z</time>
      </trkpt>
      <trkpt lat="45.21941" lon="6.03267">
        <ele>2056.6</ele>
        <time>2021-02-27T09:49:49Z</time>
      </trkpt>
      <trkpt lat="45.21941" lon="6.03267">
        <ele>2056.6</ele>
        <time>2021-02-27T09:49:50Z</time>
      </trkpt>
      <trkpt lat="45.21941" lon="6.03267">
        <ele>2056.6</ele>
        <time>2021-02-27T09:49:51Z</time>
      </trkpt>
      <trkpt lat="45.21941" lon="6.03267">
        <ele>2057</ele>
        <time>2021-02-27T09:49:52Z</time>
      </trkpt>
      <trkpt lat="45.21941" lon="6.03267">
        <ele>2057.4</ele>
        <time>2021-02-27T09:49:53Z</time>
      </trkpt>
      <trkpt lat="45.21941" lon="6.03267">
        <ele>2057.8</ele>
        <time>2021-02-27T09:49:54Z</time>
      </trkpt>
      <trkpt lat="45.21941" lon="6.03267">
        <ele>2059.4</ele>
        <time>2021-02-27T09:49:55Z</time>
      </trkpt>
      <trkpt lat="45.21941" lon="6.03267">
        <ele>2059.6</ele>
        <time>2021-02-27T09:49:56Z</time>
      </trkpt>
      <trkpt lat="45.21941" lon="6.03267">
        <ele>2060</ele>
        <time>2021-02-27T09:49:57Z</time>
      </trkpt>
      <trkpt lat="45.21941" lon="6.03267">
        <ele>2060.4</ele>
        <time>2021-02-27T09:49:58Z</time>
      </trkpt>
      <trkpt lat="45.21941" lon="6.03267">
        <ele>2059.8</ele>
        <time>2021-02-27T09:49:59Z</time>
      </trkpt>
      <trkpt lat="45.21941" lon="6.03267">
        <ele>2059.2</ele>
        <time>2021-02-27T09:50:00Z</time>
      </trkpt>
      <trkpt lat="45.21941" lon="6.03267">
        <ele>2058.8</ele>
        <time>2021-02-27T09:50:01Z</time>
      </trkpt>
      <trkpt lat="45.21941" lon="6.03267">
        <ele>2059.2</ele>
        <time>2021-02-27T09:50:02Z</time>
      </trkpt>
      <trkpt lat="45.21941" lon="6.03267">
        <ele>2058.4</ele>
        <time>2021-02-27T09:50:03Z</time>
      </trkpt>
      <trkpt lat="45.21941" lon="6.03267">
        <ele>2058.2</ele>
        <time>2021-02-27T09:50:04Z</time>
      </trkpt>
      <trkpt lat="45.21941" lon="6.03267">
        <ele>2058</ele>
        <time>2021-02-27T09:50:05Z</time>
      </trkpt>
      <trkpt lat="45.21941" lon="6.03267">
        <ele>2057.8</ele>
        <time>2021-02-27T09:50:06Z</time>
      </trkpt>
      <trkpt lat="45.21941" lon="6.03267">
        <ele>2058</ele>
        <time>2021-02-27T09:50:07Z</time>
      </trkpt>
      <trkpt lat="45.21944" lon="6.03269">
        <ele>2058</ele>
        <time>2021-02-27T09:50:08Z</time>
      </trkpt>
      <trkpt lat="45.21945" lon="6.0327">
        <ele>2058</ele>
        <time>2021-02-27T09:50:09Z</time>
      </trkpt>
      <trkpt lat="45.21948" lon="6.03273">
        <ele>2057.6</ele>
        <time>2021-02-27T09:50:10Z</time>
      </trkpt>
      <trkpt lat="45.21951" lon="6.03277">
        <ele>2057.2</ele>
        <time>2021-02-27T09:50:11Z</time>
      </trkpt>
      <trkpt lat="45.21955" lon="6.03282">
        <ele>2056.8</ele>
        <time>2021-02-27T09:50:12Z</time>
      </trkpt>
      <trkpt lat="45.21961" lon="6.03286">
        <ele>2056.8</ele>
        <time>2021-02-27T09:50:13Z</time>
      </trkpt>
      <trkpt lat="45.21969" lon="6.03289">
        <ele>2057</ele>
        <time>2021-02-27T09:50:14Z</time>
      </trkpt>
      <trkpt lat="45.21977" lon="6.03293">
        <ele>2056.2</ele>
        <time>2021-02-27T09:50:15Z</time>
      </trkpt>
      <trkpt lat="45.21984" lon="6.03295">
        <ele>2056.6</ele>
        <time>2021-02-27T09:50:16Z</time>
      </trkpt>
      <trkpt lat="45.21991" lon="6.03299">
        <ele>2055.4</ele>
        <time>2021-02-27T09:50:17Z</time>
      </trkpt>
      <trkpt lat="45.21996" lon="6.03301">
        <ele>2053.8</ele>
        <time>2021-02-27T09:50:18Z</time>
      </trkpt>
      <trkpt lat="45.22001" lon="6.03303">
        <ele>2052.2</ele>
        <time>2021-02-27T09:50:19Z</time>
      </trkpt>
      <trkpt lat="45.22004" lon="6.03304">
        <ele>2051.2</ele>
        <time>2021-02-27T09:50:20Z</time>
      </trkpt>
      <trkpt lat="45.22004" lon="6.03304">
        <ele>2050.4</ele>
        <time>2021-02-27T09:50:21Z</time>
      </trkpt>
      <trkpt lat="45.22006" lon="6.03305">
        <ele>2050.2</ele>
        <time>2021-02-27T09:50:22Z</time>
      </trkpt>
      <trkpt lat="45.22006" lon="6.03305">
        <ele>2049.4</ele>
        <time>2021-02-27T09:50:23Z</time>
      </trkpt>
      <trkpt lat="45.22006" lon="6.03305">
        <ele>2049.4</ele>
        <time>2021-02-27T09:50:24Z</time>
      </trkpt>
      <trkpt lat="45.22006" lon="6.03305">
        <ele>2049.6</ele>
        <time>2021-02-27T09:50:25Z</time>
      </trkpt>
      <trkpt lat="45.22006" lon="6.03305">
        <ele>2049.4</ele>
        <time>2021-02-27T09:50:26Z</time>
      </trkpt>
      <trkpt lat="45.22007" lon="6.03309">
        <ele>2049.4</ele>
        <time>2021-02-27T09:50:27Z</time>
      </trkpt>
      <trkpt lat="45.22004" lon="6.03312">
        <ele>2049</ele>
        <time>2021-02-27T09:50:28Z</time>
      </trkpt>
      <trkpt lat="45.22001" lon="6.03313">
        <ele>2048.6</ele>
        <time>2021-02-27T09:50:29Z</time>
      </trkpt>
      <trkpt lat="45.21998" lon="6.03313">
        <ele>2047.6</ele>
        <time>2021-02-27T09:50:30Z</time>
      </trkpt>
      <trkpt lat="45.21994" lon="6.03316">
        <ele>2047</ele>
        <time>2021-02-27T09:50:31Z</time>
      </trkpt>
      <trkpt lat="45.21991" lon="6.03321">
        <ele>2046</ele>
        <time>2021-02-27T09:50:32Z</time>
      </trkpt>
      <trkpt lat="45.21991" lon="6.03331">
        <ele>2045</ele>
        <time>2021-02-27T09:50:33Z</time>
      </trkpt>
      <trkpt lat="45.2199" lon="6.0334">
        <ele>2042.8</ele>
        <time>2021-02-27T09:50:34Z</time>
      </trkpt>
      <trkpt lat="45.21988" lon="6.03349">
        <ele>2039.6</ele>
        <time>2021-02-27T09:50:35Z</time>
      </trkpt>
      <trkpt lat="45.21987" lon="6.03355">
        <ele>2037.4</ele>
        <time>2021-02-27T09:50:36Z</time>
      </trkpt>
      <trkpt lat="45.21989" lon="6.03359">
        <ele>2037.4</ele>
        <time>2021-02-27T09:50:37Z</time>
      </trkpt>
      <trkpt lat="45.21991" lon="6.03359">
        <ele>2035.8</ele>
        <time>2021-02-27T09:50:38Z</time>
      </trkpt>
      <trkpt lat="45.21996" lon="6.03353">
        <ele>2035.2</ele>
        <time>2021-02-27T09:50:39Z</time>
      </trkpt>
      <trkpt lat="45.22001" lon="6.03348">
        <ele>2034.2</ele>
        <time>2021-02-27T09:50:40Z</time>
      </trkpt>
      <trkpt lat="45.22006" lon="6.03343">
        <ele>2033.2</ele>
        <time>2021-02-27T09:50:41Z</time>
      </trkpt>
      <trkpt lat="45.22006" lon="6.03343">
        <ele>2032.8</ele>
        <time>2021-02-27T09:50:42Z</time>
      </trkpt>
      <trkpt lat="45.2202" lon="6.03337">
        <ele>2032</ele>
        <time>2021-02-27T09:50:43Z</time>
      </trkpt>
      <trkpt lat="45.22024" lon="6.03337">
        <ele>2031.6</ele>
        <time>2021-02-27T09:50:44Z</time>
      </trkpt>
      <trkpt lat="45.22033" lon="6.03335">
        <ele>2029.8</ele>
        <time>2021-02-27T09:50:45Z</time>
      </trkpt>
      <trkpt lat="45.22037" lon="6.03335">
        <ele>2029</ele>
        <time>2021-02-27T09:50:46Z</time>
      </trkpt>
      <trkpt lat="45.22047" lon="6.03335">
        <ele>2028</ele>
        <time>2021-02-27T09:50:47Z</time>
      </trkpt>
      <trkpt lat="45.22051" lon="6.03336">
        <ele>2026.8</ele>
        <time>2021-02-27T09:50:48Z</time>
      </trkpt>
      <trkpt lat="45.22061" lon="6.03339">
        <ele>2026</ele>
        <time>2021-02-27T09:50:49Z</time>
      </trkpt>
      <trkpt lat="45.22064" lon="6.0334">
        <ele>2025</ele>
        <time>2021-02-27T09:50:50Z</time>
      </trkpt>
      <trkpt lat="45.22074" lon="6.03345">
        <ele>2024</ele>
        <time>2021-02-27T09:50:51Z</time>
      </trkpt>
      <trkpt lat="45.22077" lon="6.03346">
        <ele>2023</ele>
        <time>2021-02-27T09:50:52Z</time>
      </trkpt>
      <trkpt lat="45.22083" lon="6.03349">
        <ele>2022.6</ele>
        <time>2021-02-27T09:50:53Z</time>
      </trkpt>
      <trkpt lat="45.22088" lon="6.03351">
        <ele>2021.8</ele>
        <time>2021-02-27T09:50:54Z</time>
      </trkpt>
      <trkpt lat="45.22093" lon="6.03352">
        <ele>2021.4</ele>
        <time>2021-02-27T09:50:55Z</time>
      </trkpt>
      <trkpt lat="45.22099" lon="6.03356">
        <ele>2021.8</ele>
        <time>2021-02-27T09:50:56Z</time>
      </trkpt>
      <trkpt lat="45.22104" lon="6.03361">
        <ele>2021</ele>
        <time>2021-02-27T09:50:57Z</time>
      </trkpt>
      <trkpt lat="45.22106" lon="6.03369">
        <ele>2019.6</ele>
        <time>2021-02-27T09:50:58Z</time>
      </trkpt>
      <trkpt lat="45.22108" lon="6.03377">
        <ele>2018.2</ele>
        <time>2021-02-27T09:50:59Z</time>
      </trkpt>
      <trkpt lat="45.2211" lon="6.03385">
        <ele>2016</ele>
        <time>2021-02-27T09:51:00Z</time>
      </trkpt>
      <trkpt lat="45.22113" lon="6.03394">
        <ele>2015.4</ele>
        <time>2021-02-27T09:51:01Z</time>
      </trkpt>
      <trkpt lat="45.22118" lon="6.03403">
        <ele>2015.4</ele>
        <time>2021-02-27T09:51:02Z</time>
      </trkpt>
      <trkpt lat="45.22123" lon="6.0341">
        <ele>2014</ele>
        <time>2021-02-27T09:51:03Z</time>
      </trkpt>
      <trkpt lat="45.22128" lon="6.03416">
        <ele>2012.2</ele>
        <time>2021-02-27T09:51:04Z</time>
      </trkpt>
      <trkpt lat="45.22133" lon="6.03423">
        <ele>2010.6</ele>
        <time>2021-02-27T09:51:05Z</time>
      </trkpt>
      <trkpt lat="45.22137" lon="6.03429">
        <ele>2009</ele>
        <time>2021-02-27T09:51:06Z</time>
      </trkpt>
      <trkpt lat="45.22142" lon="6.03434">
        <ele>2007.4</ele>
        <time>2021-02-27T09:51:07Z</time>
      </trkpt>
      <trkpt lat="45.22146" lon="6.03442">
        <ele>2005.4</ele>
        <time>2021-02-27T09:51:08Z</time>
      </trkpt>
      <trkpt lat="45.22151" lon="6.03449">
        <ele>2003.8</ele>
        <time>2021-02-27T09:51:09Z</time>
      </trkpt>
      <trkpt lat="45.22155" lon="6.03454">
        <ele>2002.2</ele>
        <time>2021-02-27T09:51:10Z</time>
      </trkpt>
      <trkpt lat="45.2216" lon="6.03458">
        <ele>2000</ele>
        <time>2021-02-27T09:51:11Z</time>
      </trkpt>
      <trkpt lat="45.22165" lon="6.03463">
        <ele>1997.8</ele>
        <time>2021-02-27T09:51:12Z</time>
      </trkpt>
      <trkpt lat="45.2217" lon="6.03468">
        <ele>1995.6</ele>
        <time>2021-02-27T09:51:13Z</time>
      </trkpt>
      <trkpt lat="45.22175" lon="6.03474">
        <ele>1994.8</ele>
        <time>2021-02-27T09:51:14Z</time>
      </trkpt>
      <trkpt lat="45.2218" lon="6.0348">
        <ele>1993</ele>
        <time>2021-02-27T09:51:15Z</time>
      </trkpt>
      <trkpt lat="45.22184" lon="6.03484">
        <ele>1992</ele>
        <time>2021-02-27T09:51:16Z</time>
      </trkpt>
      <trkpt lat="45.22187" lon="6.03489">
        <ele>1990.6</ele>
        <time>2021-02-27T09:51:17Z</time>
      </trkpt>
      <trkpt lat="45.2219" lon="6.03494">
        <ele>1988.6</ele>
        <time>2021-02-27T09:51:18Z</time>
      </trkpt>
      <trkpt lat="45.22194" lon="6.03497">
        <ele>1986.8</ele>
        <time>2021-02-27T09:51:19Z</time>
      </trkpt>
      <trkpt lat="45.22198" lon="6.03501">
        <ele>1986.6</ele>
        <time>2021-02-27T09:51:20Z</time>
      </trkpt>
      <trkpt lat="45.22201" lon="6.03505">
        <ele>1985</ele>
        <time>2021-02-27T09:51:21Z</time>
      </trkpt>
      <trkpt lat="45.22204" lon="6.03508">
        <ele>1983.6</ele>
        <time>2021-02-27T09:51:22Z</time>
      </trkpt>
      <trkpt lat="45.22206" lon="6.03512">
        <ele>1980.8</ele>
        <time>2021-02-27T09:51:23Z</time>
      </trkpt>
      <trkpt lat="45.22209" lon="6.03517">
        <ele>1979.8</ele>
        <time>2021-02-27T09:51:24Z</time>
      </trkpt>
      <trkpt lat="45.22209" lon="6.03517">
        <ele>1976.6</ele>
        <time>2021-02-27T09:51:25Z</time>
      </trkpt>
      <trkpt lat="45.22215" lon="6.03528">
        <ele>1975.6</ele>
        <time>2021-02-27T09:51:26Z</time>
      </trkpt>
      <trkpt lat="45.22215" lon="6.03528">
        <ele>1973.4</ele>
        <time>2021-02-27T09:51:27Z</time>
      </trkpt>
      <trkpt lat="45.22217" lon="6.03532">
        <ele>1971.4</ele>
        <time>2021-02-27T09:51:28Z</time>
      </trkpt>
      <trkpt lat="45.22218" lon="6.03535">
        <ele>1969.6</ele>
        <time>2021-02-27T09:51:29Z</time>
      </trkpt>
      <trkpt lat="45.2222" lon="6.03539">
        <ele>1968.6</ele>
        <time>2021-02-27T09:51:30Z</time>
      </trkpt>
      <trkpt lat="45.22223" lon="6.03541">
        <ele>1967.6</ele>
        <time>2021-02-27T09:51:31Z</time>
      </trkpt>
      <trkpt lat="45.22226" lon="6.03542">
        <ele>1966.6</ele>
        <time>2021-02-27T09:51:32Z</time>
      </trkpt>
      <trkpt lat="45.22229" lon="6.03543">
        <ele>1965.8</ele>
        <time>2021-02-27T09:51:33Z</time>
      </trkpt>
      <trkpt lat="45.22231" lon="6.03544">
        <ele>1965</ele>
        <time>2021-02-27T09:51:34Z</time>
      </trkpt>
      <trkpt lat="45.22231" lon="6.03544">
        <ele>1964.6</ele>
        <time>2021-02-27T09:51:35Z</time>
      </trkpt>
      <trkpt lat="45.22233" lon="6.03544">
        <ele>1963.8</ele>
        <time>2021-02-27T09:51:36Z</time>
      </trkpt>
      <trkpt lat="45.22233" lon="6.03544">
        <ele>1963.6</ele>
        <time>2021-02-27T09:51:37Z</time>
      </trkpt>
      <trkpt lat="45.22233" lon="6.03544">
        <ele>1963.4</ele>
        <time>2021-02-27T09:51:38Z</time>
      </trkpt>
      <trkpt lat="45.22233" lon="6.03544">
        <ele>1963.2</ele>
        <time>2021-02-27T09:51:39Z</time>
      </trkpt>
      <trkpt lat="45.22233" lon="6.03544">
        <ele>1962.8</ele>
        <time>2021-02-27T09:51:40Z</time>
      </trkpt>
      <trkpt lat="45.22233" lon="6.03544">
        <ele>1962.6</ele>
        <time>2021-02-27T09:51:41Z</time>
      </trkpt>
      <trkpt lat="45.22232" lon="6.0354">
        <ele>1962</ele>
        <time>2021-02-27T09:51:42Z</time>
      </trkpt>
      <trkpt lat="45.22232" lon="6.0354">
        <ele>1961.4</ele>
        <time>2021-02-27T09:51:43Z</time>
      </trkpt>
      <trkpt lat="45.22232" lon="6.0354">
        <ele>1961.2</ele>
        <time>2021-02-27T09:51:44Z</time>
      </trkpt>
      <trkpt lat="45.22234" lon="6.03538">
        <ele>1961.2</ele>
        <time>2021-02-27T09:51:45Z</time>
      </trkpt>
      <trkpt lat="45.22234" lon="6.03538">
        <ele>1961.4</ele>
        <time>2021-02-27T09:51:46Z</time>
      </trkpt>
      <trkpt lat="45.22237" lon="6.03537">
        <ele>1961.2</ele>
        <time>2021-02-27T09:51:47Z</time>
      </trkpt>
      <trkpt lat="45.22237" lon="6.03537">
        <ele>1961.6</ele>
        <time>2021-02-27T09:51:48Z</time>
      </trkpt>
      <trkpt lat="45.22237" lon="6.03537">
        <ele>1962</ele>
        <time>2021-02-27T09:51:49Z</time>
      </trkpt>
      <trkpt lat="45.22237" lon="6.03537">
        <ele>1961.8</ele>
        <time>2021-02-27T09:51:50Z</time>
      </trkpt>
      <trkpt lat="45.22237" lon="6.03537">
        <ele>1961.8</ele>
        <time>2021-02-27T09:51:51Z</time>
      </trkpt>
      <trkpt lat="45.22237" lon="6.03537">
        <ele>1962</ele>
        <time>2021-02-27T09:51:52Z</time>
      </trkpt>
      <trkpt lat="45.22237" lon="6.03537">
        <ele>1962</ele>
        <time>2021-02-27T09:51:53Z</time>
      </trkpt>
      <trkpt lat="45.22237" lon="6.03537">
        <ele>1962.2</ele>
        <time>2021-02-27T09:51:54Z</time>
      </trkpt>
      <trkpt lat="45.22237" lon="6.03537">
        <ele>1962.4</ele>
        <time>2021-02-27T09:51:55Z</time>
      </trkpt>
      <trkpt lat="45.22237" lon="6.03537">
        <ele>1962.4</ele>
        <time>2021-02-27T09:51:56Z</time>
      </trkpt>
      <trkpt lat="45.22237" lon="6.03537">
        <ele>1962.6</ele>
        <time>2021-02-27T09:51:57Z</time>
      </trkpt>
      <trkpt lat="45.22237" lon="6.03537">
        <ele>1962.8</ele>
        <time>2021-02-27T09:51:58Z</time>
      </trkpt>
      <trkpt lat="45.22237" lon="6.03537">
        <ele>1962.6</ele>
        <time>2021-02-27T09:51:59Z</time>
      </trkpt>
      <trkpt lat="45.22237" lon="6.03537">
        <ele>1962.2</ele>
        <time>2021-02-27T09:52:00Z</time>
      </trkpt>
      <trkpt lat="45.22237" lon="6.03537">
        <ele>1962.4</ele>
        <time>2021-02-27T09:52:01Z</time>
      </trkpt>
      <trkpt lat="45.22237" lon="6.03537">
        <ele>1962</ele>
        <time>2021-02-27T09:52:02Z</time>
      </trkpt>
      <trkpt lat="45.22237" lon="6.03537">
        <ele>1962</ele>
        <time>2021-02-27T09:52:03Z</time>
      </trkpt>
      <trkpt lat="45.22237" lon="6.03537">
        <ele>1962</ele>
        <time>2021-02-27T09:52:04Z</time>
      </trkpt>
      <trkpt lat="45.22237" lon="6.03537">
        <ele>1962</ele>
        <time>2021-02-27T09:52:05Z</time>
      </trkpt>
      <trkpt lat="45.22237" lon="6.03537">
        <ele>1962</ele>
        <time>2021-02-27T09:52:06Z</time>
      </trkpt>
      <trkpt lat="45.22237" lon="6.03537">
        <ele>1962.2</ele>
        <time>2021-02-27T09:52:07Z</time>
      </trkpt>
      <trkpt lat="45.22237" lon="6.03537">
        <ele>1962.2</ele>
        <time>2021-02-27T09:52:08Z</time>
      </trkpt>
      <trkpt lat="45.22237" lon="6.03537">
        <ele>1962.2</ele>
        <time>2021-02-27T09:52:09Z</time>
      </trkpt>
      <trkpt lat="45.22237" lon="6.03537">
        <ele>1962.2</ele>
        <time>2021-02-27T09:52:10Z</time>
      </trkpt>
      <trkpt lat="45.22237" lon="6.03537">
        <ele>1962</ele>
        <time>2021-02-27T09:52:11Z</time>
      </trkpt>
      <trkpt lat="45.22237" lon="6.03537">
        <ele>1962.2</ele>
        <time>2021-02-27T09:52:12Z</time>
      </trkpt>
      <trkpt lat="45.22237" lon="6.03537">
        <ele>1962</ele>
        <time>2021-02-27T09:52:13Z</time>
      </trkpt>
      <trkpt lat="45.22237" lon="6.03537">
        <ele>1962</ele>
        <time>2021-02-27T09:52:14Z</time>
      </trkpt>
      <trkpt lat="45.22237" lon="6.03537">
        <ele>1961.8</ele>
        <time>2021-02-27T09:52:15Z</time>
      </trkpt>
      <trkpt lat="45.22237" lon="6.03537">
        <ele>1961.6</ele>
        <time>2021-02-27T09:52:16Z</time>
      </trkpt>
      <trkpt lat="45.22237" lon="6.03537">
        <ele>1961.6</ele>
        <time>2021-02-27T09:52:17Z</time>
      </trkpt>
      <trkpt lat="45.22237" lon="6.03537">
        <ele>1961.8</ele>
        <time>2021-02-27T09:52:18Z</time>
      </trkpt>
      <trkpt lat="45.22237" lon="6.03537">
        <ele>1961.8</ele>
        <time>2021-02-27T09:52:19Z</time>
      </trkpt>
      <trkpt lat="45.22237" lon="6.03537">
        <ele>1961.8</ele>
        <time>2021-02-27T09:52:20Z</time>
      </trkpt>
      <trkpt lat="45.22237" lon="6.03537">
        <ele>1961.6</ele>
        <time>2021-02-27T09:52:21Z</time>
      </trkpt>
      <trkpt lat="45.22237" lon="6.03537">
        <ele>1961.8</ele>
        <time>2021-02-27T09:52:22Z</time>
      </trkpt>
      <trkpt lat="45.22237" lon="6.03537">
        <ele>1961.8</ele>
        <time>2021-02-27T09:52:23Z</time>
      </trkpt>
      <trkpt lat="45.22237" lon="6.03537">
        <ele>1962</ele>
        <time>2021-02-27T09:52:24Z</time>
      </trkpt>
      <trkpt lat="45.22237" lon="6.03537">
        <ele>1962.2</ele>
        <time>2021-02-27T09:52:25Z</time>
      </trkpt>
      <trkpt lat="45.22237" lon="6.03537">
        <ele>1962</ele>
        <time>2021-02-27T09:52:26Z</time>
      </trkpt>
      <trkpt lat="45.22236" lon="6.03535">
        <ele>1962.2</ele>
        <time>2021-02-27T09:52:27Z</time>
      </trkpt>
      <trkpt lat="45.22236" lon="6.03535">
        <ele>1962.6</ele>
        <time>2021-02-27T09:52:28Z</time>
      </trkpt>
      <trkpt lat="45.22236" lon="6.03535">
        <ele>1962.6</ele>
        <time>2021-02-27T09:52:29Z</time>
      </trkpt>
      <trkpt lat="45.22236" lon="6.03535">
        <ele>1962.8</ele>
        <time>2021-02-27T09:52:30Z</time>
      </trkpt>
      <trkpt lat="45.22236" lon="6.03535">
        <ele>1963</ele>
        <time>2021-02-27T09:52:31Z</time>
      </trkpt>
      <trkpt lat="45.22236" lon="6.03535">
        <ele>1963.2</ele>
        <time>2021-02-27T09:52:32Z</time>
      </trkpt>
      <trkpt lat="45.22236" lon="6.03535">
        <ele>1963.2</ele>
        <time>2021-02-27T09:52:33Z</time>
      </trkpt>
      <trkpt lat="45.22236" lon="6.03535">
        <ele>1963.4</ele>
        <time>2021-02-27T09:52:34Z</time>
      </trkpt>
      <trkpt lat="45.22236" lon="6.03535">
        <ele>1963.4</ele>
        <time>2021-02-27T09:52:35Z</time>
      </trkpt>
      <trkpt lat="45.22236" lon="6.03535">
        <ele>1962.8</ele>
        <time>2021-02-27T09:52:36Z</time>
      </trkpt>
      <trkpt lat="45.22236" lon="6.03535">
        <ele>1962.6</ele>
        <time>2021-02-27T09:52:37Z</time>
      </trkpt>
      <trkpt lat="45.22236" lon="6.03535">
        <ele>1962.8</ele>
        <time>2021-02-27T09:52:38Z</time>
      </trkpt>
      <trkpt lat="45.22236" lon="6.03535">
        <ele>1962.6</ele>
        <time>2021-02-27T09:52:39Z</time>
      </trkpt>
      <trkpt lat="45.22236" lon="6.03535">
        <ele>1962.6</ele>
        <time>2021-02-27T09:52:40Z</time>
      </trkpt>
      <trkpt lat="45.22236" lon="6.03535">
        <ele>1962.6</ele>
        <time>2021-02-27T09:52:41Z</time>
      </trkpt>
      <trkpt lat="45.22236" lon="6.03535">
        <ele>1962.2</ele>
        <time>2021-02-27T09:52:42Z</time>
      </trkpt>
      <trkpt lat="45.22236" lon="6.03535">
        <ele>1962.2</ele>
        <time>2021-02-27T09:52:43Z</time>
      </trkpt>
      <trkpt lat="45.22236" lon="6.03535">
        <ele>1962.2</ele>
        <time>2021-02-27T09:52:44Z</time>
      </trkpt>
      <trkpt lat="45.22236" lon="6.03535">
        <ele>1962.2</ele>
        <time>2021-02-27T09:52:45Z</time>
      </trkpt>
      <trkpt lat="45.22236" lon="6.03535">
        <ele>1962.2</ele>
        <time>2021-02-27T09:52:46Z</time>
      </trkpt>
      <trkpt lat="45.22236" lon="6.03535">
        <ele>1962</ele>
        <time>2021-02-27T09:52:47Z</time>
      </trkpt>
      <trkpt lat="45.22237" lon="6.03536">
        <ele>1962</ele>
        <time>2021-02-27T09:52:48Z</time>
      </trkpt>
      <trkpt lat="45.22237" lon="6.03536">
        <ele>1962</ele>
        <time>2021-02-27T09:52:49Z</time>
      </trkpt>
      <trkpt lat="45.22237" lon="6.03536">
        <ele>1962</ele>
        <time>2021-02-27T09:52:50Z</time>
      </trkpt>
      <trkpt lat="45.22237" lon="6.03536">
        <ele>1962.2</ele>
        <time>2021-02-27T09:52:51Z</time>
      </trkpt>
      <trkpt lat="45.22237" lon="6.03536">
        <ele>1962.2</ele>
        <time>2021-02-27T09:52:52Z</time>
      </trkpt>
      <trkpt lat="45.22237" lon="6.03536">
        <ele>1962.8</ele>
        <time>2021-02-27T09:52:53Z</time>
      </trkpt>
      <trkpt lat="45.22237" lon="6.03536">
        <ele>1962.6</ele>
        <time>2021-02-27T09:52:54Z</time>
      </trkpt>
      <trkpt lat="45.22237" lon="6.03536">
        <ele>1962.6</ele>
        <time>2021-02-27T09:52:55Z</time>
      </trkpt>
      <trkpt lat="45.22237" lon="6.03536">
        <ele>1962.6</ele>
        <time>2021-02-27T09:52:56Z</time>
      </trkpt>
      <trkpt lat="45.22237" lon="6.03536">
        <ele>1962.6</ele>
        <time>2021-02-27T09:52:57Z</time>
      </trkpt>
      <trkpt lat="45.22237" lon="6.03536">
        <ele>1962.6</ele>
        <time>2021-02-27T09:52:58Z</time>
      </trkpt>
      <trkpt lat="45.22237" lon="6.03536">
        <ele>1963</ele>
        <time>2021-02-27T09:52:59Z</time>
      </trkpt>
      <trkpt lat="45.22237" lon="6.03536">
        <ele>1963.4</ele>
        <time>2021-02-27T09:53:00Z</time>
      </trkpt>
      <trkpt lat="45.22237" lon="6.03536">
        <ele>1963.2</ele>
        <time>2021-02-27T09:53:01Z</time>
      </trkpt>
      <trkpt lat="45.22237" lon="6.03536">
        <ele>1963.6</ele>
        <time>2021-02-27T09:53:02Z</time>
      </trkpt>
      <trkpt lat="45.22237" lon="6.03536">
        <ele>1963.8</ele>
        <time>2021-02-27T09:53:03Z</time>
      </trkpt>
      <trkpt lat="45.22237" lon="6.03536">
        <ele>1964</ele>
        <time>2021-02-27T09:53:04Z</time>
      </trkpt>
      <trkpt lat="45.22237" lon="6.03536">
        <ele>1964.2</ele>
        <time>2021-02-27T09:53:05Z</time>
      </trkpt>
      <trkpt lat="45.22237" lon="6.03536">
        <ele>1964</ele>
        <time>2021-02-27T09:53:06Z</time>
      </trkpt>
      <trkpt lat="45.22237" lon="6.03536">
        <ele>1964</ele>
        <time>2021-02-27T09:53:07Z</time>
      </trkpt>
      <trkpt lat="45.22237" lon="6.03536">
        <ele>1964</ele>
        <time>2021-02-27T09:53:08Z</time>
      </trkpt>
      <trkpt lat="45.22237" lon="6.03536">
        <ele>1964.2</ele>
        <time>2021-02-27T09:53:09Z</time>
      </trkpt>
      <trkpt lat="45.22237" lon="6.03536">
        <ele>1964.6</ele>
        <time>2021-02-27T09:53:10Z</time>
      </trkpt>
      <trkpt lat="45.22237" lon="6.03536">
        <ele>1964.8</ele>
        <time>2021-02-27T09:53:11Z</time>
      </trkpt>
      <trkpt lat="45.22239" lon="6.03536">
        <ele>1964.8</ele>
        <time>2021-02-27T09:53:12Z</time>
      </trkpt>
      <trkpt lat="45.22239" lon="6.03536">
        <ele>1964.8</ele>
        <time>2021-02-27T09:53:13Z</time>
      </trkpt>
      <trkpt lat="45.22239" lon="6.03536">
        <ele>1965</ele>
        <time>2021-02-27T09:53:14Z</time>
      </trkpt>
      <trkpt lat="45.22239" lon="6.03536">
        <ele>1964.4</ele>
        <time>2021-02-27T09:53:15Z</time>
      </trkpt>
      <trkpt lat="45.22239" lon="6.03536">
        <ele>1963.8</ele>
        <time>2021-02-27T09:53:16Z</time>
      </trkpt>
      <trkpt lat="45.22239" lon="6.03536">
        <ele>1963.6</ele>
        <time>2021-02-27T09:53:17Z</time>
      </trkpt>
      <trkpt lat="45.22239" lon="6.03536">
        <ele>1963.8</ele>
        <time>2021-02-27T09:53:18Z</time>
      </trkpt>
      <trkpt lat="45.22239" lon="6.03536">
        <ele>1963.8</ele>
        <time>2021-02-27T09:53:19Z</time>
      </trkpt>
      <trkpt lat="45.22239" lon="6.03536">
        <ele>1963.8</ele>
        <time>2021-02-27T09:53:20Z</time>
      </trkpt>
      <trkpt lat="45.22239" lon="6.03536">
        <ele>1964</ele>
        <time>2021-02-27T09:53:21Z</time>
      </trkpt>
      <trkpt lat="45.22239" lon="6.03536">
        <ele>1964.2</ele>
        <time>2021-02-27T09:53:22Z</time>
      </trkpt>
      <trkpt lat="45.22239" lon="6.03536">
        <ele>1964.4</ele>
        <time>2021-02-27T09:53:23Z</time>
      </trkpt>
      <trkpt lat="45.22239" lon="6.03536">
        <ele>1964.2</ele>
        <time>2021-02-27T09:53:24Z</time>
      </trkpt>
      <trkpt lat="45.22239" lon="6.03536">
        <ele>1964.6</ele>
        <time>2021-02-27T09:53:25Z</time>
      </trkpt>
      <trkpt lat="45.22239" lon="6.03536">
        <ele>1964.4</ele>
        <time>2021-02-27T09:53:26Z</time>
      </trkpt>
      <trkpt lat="45.22239" lon="6.03536">
        <ele>1964.2</ele>
        <time>2021-02-27T09:53:27Z</time>
      </trkpt>
      <trkpt lat="45.22239" lon="6.03536">
        <ele>1964.4</ele>
        <time>2021-02-27T09:53:28Z</time>
      </trkpt>
      <trkpt lat="45.22239" lon="6.03536">
        <ele>1964.6</ele>
        <time>2021-02-27T09:53:29Z</time>
      </trkpt>
      <trkpt lat="45.22239" lon="6.03536">
        <ele>1964.4</ele>
        <time>2021-02-27T09:53:30Z</time>
      </trkpt>
      <trkpt lat="45.22239" lon="6.03536">
        <ele>1964.2</ele>
        <time>2021-02-27T09:53:31Z</time>
      </trkpt>
      <trkpt lat="45.22239" lon="6.03536">
        <ele>1964.4</ele>
        <time>2021-02-27T09:53:32Z</time>
      </trkpt>
      <trkpt lat="45.22239" lon="6.03536">
        <ele>1964.4</ele>
        <time>2021-02-27T09:53:33Z</time>
      </trkpt>
      <trkpt lat="45.22239" lon="6.03536">
        <ele>1964.4</ele>
        <time>2021-02-27T09:53:34Z</time>
      </trkpt>
      <trkpt lat="45.22241" lon="6.03535">
        <ele>1964.4</ele>
        <time>2021-02-27T09:53:35Z</time>
      </trkpt>
      <trkpt lat="45.22241" lon="6.03535">
        <ele>1964.6</ele>
        <time>2021-02-27T09:53:36Z</time>
      </trkpt>
      <trkpt lat="45.22243" lon="6.03535">
        <ele>1964</ele>
        <time>2021-02-27T09:53:37Z</time>
      </trkpt>
      <trkpt lat="45.22243" lon="6.03535">
        <ele>1963.6</ele>
        <time>2021-02-27T09:53:38Z</time>
      </trkpt>
      <trkpt lat="45.22243" lon="6.03535">
        <ele>1963.4</ele>
        <time>2021-02-27T09:53:39Z</time>
      </trkpt>
      <trkpt lat="45.22246" lon="6.03535">
        <ele>1963.8</ele>
        <time>2021-02-27T09:53:40Z</time>
      </trkpt>
      <trkpt lat="45.22246" lon="6.03535">
        <ele>1963.6</ele>
        <time>2021-02-27T09:53:41Z</time>
      </trkpt>
      <trkpt lat="45.22248" lon="6.03536">
        <ele>1963.6</ele>
        <time>2021-02-27T09:53:42Z</time>
      </trkpt>
      <trkpt lat="45.22248" lon="6.03536">
        <ele>1964</ele>
        <time>2021-02-27T09:53:43Z</time>
      </trkpt>
      <trkpt lat="45.22251" lon="6.03536">
        <ele>1963.8</ele>
        <time>2021-02-27T09:53:44Z</time>
      </trkpt>
      <trkpt lat="45.22251" lon="6.03536">
        <ele>1964</ele>
        <time>2021-02-27T09:53:45Z</time>
      </trkpt>
      <trkpt lat="45.22253" lon="6.03536">
        <ele>1964.6</ele>
        <time>2021-02-27T09:53:46Z</time>
      </trkpt>
      <trkpt lat="45.22253" lon="6.03536">
        <ele>1965</ele>
        <time>2021-02-27T09:53:47Z</time>
      </trkpt>
      <trkpt lat="45.22255" lon="6.03537">
        <ele>1965.2</ele>
        <time>2021-02-27T09:53:48Z</time>
      </trkpt>
      <trkpt lat="45.22255" lon="6.03537">
        <ele>1965</ele>
        <time>2021-02-27T09:53:49Z</time>
      </trkpt>
      <trkpt lat="45.22257" lon="6.03538">
        <ele>1965.2</ele>
        <time>2021-02-27T09:53:50Z</time>
      </trkpt>
      <trkpt lat="45.22257" lon="6.03538">
        <ele>1965.2</ele>
        <time>2021-02-27T09:53:51Z</time>
      </trkpt>
      <trkpt lat="45.2226" lon="6.03538">
        <ele>1965.4</ele>
        <time>2021-02-27T09:53:52Z</time>
      </trkpt>
      <trkpt lat="45.2226" lon="6.03538">
        <ele>1965.6</ele>
        <time>2021-02-27T09:53:53Z</time>
      </trkpt>
      <trkpt lat="45.22262" lon="6.03538">
        <ele>1966.2</ele>
        <time>2021-02-27T09:53:54Z</time>
      </trkpt>
      <trkpt lat="45.22262" lon="6.03538">
        <ele>1965.8</ele>
        <time>2021-02-27T09:53:55Z</time>
      </trkpt>
      <trkpt lat="45.22264" lon="6.03538">
        <ele>1965.8</ele>
        <time>2021-02-27T09:53:56Z</time>
      </trkpt>
      <trkpt lat="45.22264" lon="6.03538">
        <ele>1965.8</ele>
        <time>2021-02-27T09:53:57Z</time>
      </trkpt>
      <trkpt lat="45.22266" lon="6.03538">
        <ele>1966</ele>
        <time>2021-02-27T09:53:58Z</time>
      </trkpt>
      <trkpt lat="45.22266" lon="6.03538">
        <ele>1965.8</ele>
        <time>2021-02-27T09:53:59Z</time>
      </trkpt>
      <trkpt lat="45.22269" lon="6.03537">
        <ele>1965.6</ele>
        <time>2021-02-27T09:54:00Z</time>
      </trkpt>
      <trkpt lat="45.22269" lon="6.03537">
        <ele>1965.6</ele>
        <time>2021-02-27T09:54:01Z</time>
      </trkpt>
      <trkpt lat="45.22271" lon="6.03537">
        <ele>1965.6</ele>
        <time>2021-02-27T09:54:02Z</time>
      </trkpt>
      <trkpt lat="45.22271" lon="6.03537">
        <ele>1965.8</ele>
        <time>2021-02-27T09:54:03Z</time>
      </trkpt>
      <trkpt lat="45.22274" lon="6.03536">
        <ele>1965.8</ele>
        <time>2021-02-27T09:54:04Z</time>
      </trkpt>
      <trkpt lat="45.22274" lon="6.03536">
        <ele>1965.8</ele>
        <time>2021-02-27T09:54:05Z</time>
      </trkpt>
      <trkpt lat="45.22276" lon="6.03536">
        <ele>1965.8</ele>
        <time>2021-02-27T09:54:06Z</time>
      </trkpt>
      <trkpt lat="45.22276" lon="6.03536">
        <ele>1965.6</ele>
        <time>2021-02-27T09:54:07Z</time>
      </trkpt>
      <trkpt lat="45.22278" lon="6.03536">
        <ele>1965.6</ele>
        <time>2021-02-27T09:54:08Z</time>
      </trkpt>
      <trkpt lat="45.22278" lon="6.03536">
        <ele>1965.4</ele>
        <time>2021-02-27T09:54:09Z</time>
      </trkpt>
      <trkpt lat="45.2228" lon="6.03536">
        <ele>1965.2</ele>
        <time>2021-02-27T09:54:10Z</time>
      </trkpt>
      <trkpt lat="45.2228" lon="6.03536">
        <ele>1965.6</ele>
        <time>2021-02-27T09:54:11Z</time>
      </trkpt>
      <trkpt lat="45.22283" lon="6.03538">
        <ele>1965.4</ele>
        <time>2021-02-27T09:54:12Z</time>
      </trkpt>
      <trkpt lat="45.22283" lon="6.03538">
        <ele>1965.4</ele>
        <time>2021-02-27T09:54:13Z</time>
      </trkpt>
      <trkpt lat="45.22287" lon="6.03537">
        <ele>1965.8</ele>
        <time>2021-02-27T09:54:14Z</time>
      </trkpt>
      <trkpt lat="45.22287" lon="6.03537">
        <ele>1965.8</ele>
        <time>2021-02-27T09:54:15Z</time>
      </trkpt>
      <trkpt lat="45.2229" lon="6.03537">
        <ele>1966.2</ele>
        <time>2021-02-27T09:54:16Z</time>
      </trkpt>
      <trkpt lat="45.2229" lon="6.03537">
        <ele>1966.4</ele>
        <time>2021-02-27T09:54:17Z</time>
      </trkpt>
      <trkpt lat="45.22292" lon="6.03538">
        <ele>1966.2</ele>
        <time>2021-02-27T09:54:18Z</time>
      </trkpt>
      <trkpt lat="45.22292" lon="6.03538">
        <ele>1966.6</ele>
        <time>2021-02-27T09:54:19Z</time>
      </trkpt>
      <trkpt lat="45.22294" lon="6.03538">
        <ele>1966.6</ele>
        <time>2021-02-27T09:54:20Z</time>
      </trkpt>
      <trkpt lat="45.22296" lon="6.03538">
        <ele>1966.4</ele>
        <time>2021-02-27T09:54:21Z</time>
      </trkpt>
      <trkpt lat="45.22296" lon="6.03538">
        <ele>1966.4</ele>
        <time>2021-02-27T09:54:22Z</time>
      </trkpt>
      <trkpt lat="45.223" lon="6.03539">
        <ele>1966.6</ele>
        <time>2021-02-27T09:54:23Z</time>
      </trkpt>
      <trkpt lat="45.22302" lon="6.03539">
        <ele>1966.8</ele>
        <time>2021-02-27T09:54:24Z</time>
      </trkpt>
      <trkpt lat="45.22302" lon="6.03539">
        <ele>1967</ele>
        <time>2021-02-27T09:54:25Z</time>
      </trkpt>
      <trkpt lat="45.22305" lon="6.03539">
        <ele>1967</ele>
        <time>2021-02-27T09:54:26Z</time>
      </trkpt>
      <trkpt lat="45.22305" lon="6.03539">
        <ele>1967</ele>
        <time>2021-02-27T09:54:27Z</time>
      </trkpt>
      <trkpt lat="45.22308" lon="6.03539">
        <ele>1967</ele>
        <time>2021-02-27T09:54:28Z</time>
      </trkpt>
      <trkpt lat="45.22308" lon="6.03539">
        <ele>1967.2</ele>
        <time>2021-02-27T09:54:29Z</time>
      </trkpt>
      <trkpt lat="45.2231" lon="6.03539">
        <ele>1967.2</ele>
        <time>2021-02-27T09:54:30Z</time>
      </trkpt>
      <trkpt lat="45.2231" lon="6.03539">
        <ele>1967</ele>
        <time>2021-02-27T09:54:31Z</time>
      </trkpt>
      <trkpt lat="45.22312" lon="6.03539">
        <ele>1967.4</ele>
        <time>2021-02-27T09:54:32Z</time>
      </trkpt>
      <trkpt lat="45.22313" lon="6.03538">
        <ele>1967.6</ele>
        <time>2021-02-27T09:54:33Z</time>
      </trkpt>
      <trkpt lat="45.22314" lon="6.03537">
        <ele>1967</ele>
        <time>2021-02-27T09:54:34Z</time>
      </trkpt>
      <trkpt lat="45.22314" lon="6.03537">
        <ele>1967.6</ele>
        <time>2021-02-27T09:54:35Z</time>
      </trkpt>
      <trkpt lat="45.22316" lon="6.03539">
        <ele>1967.8</ele>
        <time>2021-02-27T09:54:36Z</time>
      </trkpt>
      <trkpt lat="45.22316" lon="6.03539">
        <ele>1968.2</ele>
        <time>2021-02-27T09:54:37Z</time>
      </trkpt>
      <trkpt lat="45.22317" lon="6.03539">
        <ele>1968</ele>
        <time>2021-02-27T09:54:38Z</time>
      </trkpt>
      <trkpt lat="45.22319" lon="6.0354">
        <ele>1967.8</ele>
        <time>2021-02-27T09:54:39Z</time>
      </trkpt>
      <trkpt lat="45.2232" lon="6.03541">
        <ele>1968.4</ele>
        <time>2021-02-27T09:54:40Z</time>
      </trkpt>
      <trkpt lat="45.22324" lon="6.03541">
        <ele>1968.2</ele>
        <time>2021-02-27T09:54:41Z</time>
      </trkpt>
      <trkpt lat="45.22324" lon="6.03541">
        <ele>1968.6</ele>
        <time>2021-02-27T09:54:42Z</time>
      </trkpt>
      <trkpt lat="45.22327" lon="6.0354">
        <ele>1968.8</ele>
        <time>2021-02-27T09:54:43Z</time>
      </trkpt>
      <trkpt lat="45.22327" lon="6.0354">
        <ele>1968.8</ele>
        <time>2021-02-27T09:54:44Z</time>
      </trkpt>
      <trkpt lat="45.2233" lon="6.0354">
        <ele>1969.2</ele>
        <time>2021-02-27T09:54:45Z</time>
      </trkpt>
      <trkpt lat="45.2233" lon="6.0354">
        <ele>1969</ele>
        <time>2021-02-27T09:54:46Z</time>
      </trkpt>
      <trkpt lat="45.22333" lon="6.03539">
        <ele>1969.2</ele>
        <time>2021-02-27T09:54:47Z</time>
      </trkpt>
      <trkpt lat="45.22333" lon="6.03539">
        <ele>1969.4</ele>
        <time>2021-02-27T09:54:48Z</time>
      </trkpt>
      <trkpt lat="45.22336" lon="6.03539">
        <ele>1969.2</ele>
        <time>2021-02-27T09:54:49Z</time>
      </trkpt>
      <trkpt lat="45.22336" lon="6.03539">
        <ele>1969.6</ele>
        <time>2021-02-27T09:54:50Z</time>
      </trkpt>
      <trkpt lat="45.22339" lon="6.0354">
        <ele>1969.4</ele>
        <time>2021-02-27T09:54:51Z</time>
      </trkpt>
      <trkpt lat="45.22339" lon="6.0354">
        <ele>1969.6</ele>
        <time>2021-02-27T09:54:52Z</time>
      </trkpt>
      <trkpt lat="45.22342" lon="6.0354">
        <ele>1969.8</ele>
        <time>2021-02-27T09:54:53Z</time>
      </trkpt>
      <trkpt lat="45.22342" lon="6.0354">
        <ele>1969.8</ele>
        <time>2021-02-27T09:54:54Z</time>
      </trkpt>
      <trkpt lat="45.22344" lon="6.03541">
        <ele>1970.6</ele>
        <time>2021-02-27T09:54:55Z</time>
      </trkpt>
      <trkpt lat="45.22344" lon="6.03541">
        <ele>1971</ele>
        <time>2021-02-27T09:54:56Z</time>
      </trkpt>
      <trkpt lat="45.22347" lon="6.03542">
        <ele>1970.8</ele>
        <time>2021-02-27T09:54:57Z</time>
      </trkpt>
      <trkpt lat="45.22347" lon="6.03542">
        <ele>1971.6</ele>
        <time>2021-02-27T09:54:58Z</time>
      </trkpt>
      <trkpt lat="45.2235" lon="6.03543">
        <ele>1972</ele>
        <time>2021-02-27T09:54:59Z</time>
      </trkpt>
      <trkpt lat="45.2235" lon="6.03543">
        <ele>1972.2</ele>
        <time>2021-02-27T09:55:00Z</time>
      </trkpt>
      <trkpt lat="45.22351" lon="6.03544">
        <ele>1972.4</ele>
        <time>2021-02-27T09:55:01Z</time>
      </trkpt>
      <trkpt lat="45.22351" lon="6.03545">
        <ele>1973</ele>
        <time>2021-02-27T09:55:02Z</time>
      </trkpt>
      <trkpt lat="45.22352" lon="6.03546">
        <ele>1973.4</ele>
        <time>2021-02-27T09:55:03Z</time>
      </trkpt>
      <trkpt lat="45.22353" lon="6.03547">
        <ele>1973.2</ele>
        <time>2021-02-27T09:55:04Z</time>
      </trkpt>
      <trkpt lat="45.22354" lon="6.03548">
        <ele>1973.6</ele>
        <time>2021-02-27T09:55:05Z</time>
      </trkpt>
      <trkpt lat="45.22354" lon="6.03549">
        <ele>1974.4</ele>
        <time>2021-02-27T09:55:06Z</time>
      </trkpt>
      <trkpt lat="45.22355" lon="6.0355">
        <ele>1974.8</ele>
        <time>2021-02-27T09:55:07Z</time>
      </trkpt>
      <trkpt lat="45.22356" lon="6.03551">
        <ele>1974.4</ele>
        <time>2021-02-27T09:55:08Z</time>
      </trkpt>
      <trkpt lat="45.22356" lon="6.03552">
        <ele>1975.8</ele>
        <time>2021-02-27T09:55:09Z</time>
      </trkpt>
      <trkpt lat="45.22358" lon="6.03554">
        <ele>1975.6</ele>
        <time>2021-02-27T09:55:10Z</time>
      </trkpt>
      <trkpt lat="45.22358" lon="6.03554">
        <ele>1975.4</ele>
        <time>2021-02-27T09:55:11Z</time>
      </trkpt>
      <trkpt lat="45.22359" lon="6.03555">
        <ele>1975.8</ele>
        <time>2021-02-27T09:55:12Z</time>
      </trkpt>
      <trkpt lat="45.2236" lon="6.03556">
        <ele>1976.2</ele>
        <time>2021-02-27T09:55:13Z</time>
      </trkpt>
      <trkpt lat="45.22362" lon="6.03557">
        <ele>1977</ele>
        <time>2021-02-27T09:55:14Z</time>
      </trkpt>
      <trkpt lat="45.22363" lon="6.03558">
        <ele>1976.8</ele>
        <time>2021-02-27T09:55:15Z</time>
      </trkpt>
      <trkpt lat="45.22364" lon="6.0356">
        <ele>1976.4</ele>
        <time>2021-02-27T09:55:16Z</time>
      </trkpt>
      <trkpt lat="45.22364" lon="6.0356">
        <ele>1977</ele>
        <time>2021-02-27T09:55:17Z</time>
      </trkpt>
      <trkpt lat="45.22366" lon="6.0356">
        <ele>1977.6</ele>
        <time>2021-02-27T09:55:18Z</time>
      </trkpt>
      <trkpt lat="45.22367" lon="6.03561">
        <ele>1977.2</ele>
        <time>2021-02-27T09:55:19Z</time>
      </trkpt>
      <trkpt lat="45.22368" lon="6.03562">
        <ele>1977.6</ele>
        <time>2021-02-27T09:55:20Z</time>
      </trkpt>
      <trkpt lat="45.22368" lon="6.03562">
        <ele>1977.6</ele>
        <time>2021-02-27T09:55:21Z</time>
      </trkpt>
      <trkpt lat="45.22368" lon="6.03562">
        <ele>1978.2</ele>
        <time>2021-02-27T09:55:22Z</time>
      </trkpt>
      <trkpt lat="45.22371" lon="6.03564">
        <ele>1978.6</ele>
        <time>2021-02-27T09:55:23Z</time>
      </trkpt>
      <trkpt lat="45.22371" lon="6.03564">
        <ele>1978.6</ele>
        <time>2021-02-27T09:55:24Z</time>
      </trkpt>
      <trkpt lat="45.22371" lon="6.03564">
        <ele>1978.4</ele>
        <time>2021-02-27T09:55:25Z</time>
      </trkpt>
      <trkpt lat="45.22374" lon="6.03565">
        <ele>1979</ele>
        <time>2021-02-27T09:55:26Z</time>
      </trkpt>
      <trkpt lat="45.22374" lon="6.03565">
        <ele>1979.2</ele>
        <time>2021-02-27T09:55:27Z</time>
      </trkpt>
      <trkpt lat="45.22376" lon="6.03567">
        <ele>1979</ele>
        <time>2021-02-27T09:55:28Z</time>
      </trkpt>
      <trkpt lat="45.22376" lon="6.03567">
        <ele>1979</ele>
        <time>2021-02-27T09:55:29Z</time>
      </trkpt>
      <trkpt lat="45.22378" lon="6.03569">
        <ele>1978.6</ele>
        <time>2021-02-27T09:55:30Z</time>
      </trkpt>
      <trkpt lat="45.22378" lon="6.03569">
        <ele>1979.2</ele>
        <time>2021-02-27T09:55:31Z</time>
      </trkpt>
      <trkpt lat="45.2238" lon="6.0357">
        <ele>1979</ele>
        <time>2021-02-27T09:55:32Z</time>
      </trkpt>
      <trkpt lat="45.2238" lon="6.0357">
        <ele>1979.2</ele>
        <time>2021-02-27T09:55:33Z</time>
      </trkpt>
      <trkpt lat="45.22382" lon="6.0357">
        <ele>1979.6</ele>
        <time>2021-02-27T09:55:34Z</time>
      </trkpt>
      <trkpt lat="45.22382" lon="6.0357">
        <ele>1979.4</ele>
        <time>2021-02-27T09:55:35Z</time>
      </trkpt>
      <trkpt lat="45.22385" lon="6.03571">
        <ele>1980</ele>
        <time>2021-02-27T09:55:36Z</time>
      </trkpt>
      <trkpt lat="45.22385" lon="6.03571">
        <ele>1980</ele>
        <time>2021-02-27T09:55:37Z</time>
      </trkpt>
      <trkpt lat="45.22387" lon="6.03572">
        <ele>1980.2</ele>
        <time>2021-02-27T09:55:38Z</time>
      </trkpt>
      <trkpt lat="45.22387" lon="6.03572">
        <ele>1981</ele>
        <time>2021-02-27T09:55:39Z</time>
      </trkpt>
      <trkpt lat="45.22389" lon="6.03573">
        <ele>1981.2</ele>
        <time>2021-02-27T09:55:40Z</time>
      </trkpt>
      <trkpt lat="45.22389" lon="6.03573">
        <ele>1980.8</ele>
        <time>2021-02-27T09:55:41Z</time>
      </trkpt>
      <trkpt lat="45.22391" lon="6.03574">
        <ele>1981.4</ele>
        <time>2021-02-27T09:55:42Z</time>
      </trkpt>
      <trkpt lat="45.22391" lon="6.03574">
        <ele>1981.2</ele>
        <time>2021-02-27T09:55:43Z</time>
      </trkpt>
      <trkpt lat="45.22391" lon="6.03574">
        <ele>1981.6</ele>
        <time>2021-02-27T09:55:44Z</time>
      </trkpt>
      <trkpt lat="45.22393" lon="6.03576">
        <ele>1981.8</ele>
        <time>2021-02-27T09:55:45Z</time>
      </trkpt>
      <trkpt lat="45.22393" lon="6.03576">
        <ele>1981.6</ele>
        <time>2021-02-27T09:55:46Z</time>
      </trkpt>
      <trkpt lat="45.22396" lon="6.03577">
        <ele>1982.4</ele>
        <time>2021-02-27T09:55:47Z</time>
      </trkpt>
      <trkpt lat="45.22398" lon="6.03578">
        <ele>1982.6</ele>
        <time>2021-02-27T09:55:48Z</time>
      </trkpt>
      <trkpt lat="45.22398" lon="6.03578">
        <ele>1982.4</ele>
        <time>2021-02-27T09:55:49Z</time>
      </trkpt>
      <trkpt lat="45.22401" lon="6.03579">
        <ele>1982</ele>
        <time>2021-02-27T09:55:50Z</time>
      </trkpt>
      <trkpt lat="45.22401" lon="6.03579">
        <ele>1983</ele>
        <time>2021-02-27T09:55:51Z</time>
      </trkpt>
      <trkpt lat="45.22403" lon="6.0358">
        <ele>1983</ele>
        <time>2021-02-27T09:55:52Z</time>
      </trkpt>
      <trkpt lat="45.22403" lon="6.0358">
        <ele>1983</ele>
        <time>2021-02-27T09:55:53Z</time>
      </trkpt>
      <trkpt lat="45.22405" lon="6.03582">
        <ele>1983.8</ele>
        <time>2021-02-27T09:55:54Z</time>
      </trkpt>
      <trkpt lat="45.22405" lon="6.03582">
        <ele>1983.8</ele>
        <time>2021-02-27T09:55:55Z</time>
      </trkpt>
      <trkpt lat="45.22407" lon="6.03584">
        <ele>1984.2</ele>
        <time>2021-02-27T09:55:56Z</time>
      </trkpt>
      <trkpt lat="45.22407" lon="6.03584">
        <ele>1984.4</ele>
        <time>2021-02-27T09:55:57Z</time>
      </trkpt>
      <trkpt lat="45.22409" lon="6.03585">
        <ele>1984.2</ele>
        <time>2021-02-27T09:55:58Z</time>
      </trkpt>
      <trkpt lat="45.22409" lon="6.03585">
        <ele>1984.4</ele>
        <time>2021-02-27T09:55:59Z</time>
      </trkpt>
      <trkpt lat="45.22412" lon="6.03586">
        <ele>1984.6</ele>
        <time>2021-02-27T09:56:00Z</time>
      </trkpt>
      <trkpt lat="45.22412" lon="6.03586">
        <ele>1984.6</ele>
        <time>2021-02-27T09:56:01Z</time>
      </trkpt>
      <trkpt lat="45.22414" lon="6.03587">
        <ele>1984.4</ele>
        <time>2021-02-27T09:56:02Z</time>
      </trkpt>
      <trkpt lat="45.22414" lon="6.03587">
        <ele>1984.2</ele>
        <time>2021-02-27T09:56:03Z</time>
      </trkpt>
      <trkpt lat="45.22416" lon="6.03588">
        <ele>1984.2</ele>
        <time>2021-02-27T09:56:04Z</time>
      </trkpt>
      <trkpt lat="45.22416" lon="6.03588">
        <ele>1984.2</ele>
        <time>2021-02-27T09:56:05Z</time>
      </trkpt>
      <trkpt lat="45.22417" lon="6.03589">
        <ele>1984</ele>
        <time>2021-02-27T09:56:06Z</time>
      </trkpt>
      <trkpt lat="45.22417" lon="6.03589">
        <ele>1984.6</ele>
        <time>2021-02-27T09:56:07Z</time>
      </trkpt>
      <trkpt lat="45.2242" lon="6.0359">
        <ele>1984.8</ele>
        <time>2021-02-27T09:56:08Z</time>
      </trkpt>
      <trkpt lat="45.2242" lon="6.0359">
        <ele>1985</ele>
        <time>2021-02-27T09:56:09Z</time>
      </trkpt>
      <trkpt lat="45.22422" lon="6.03591">
        <ele>1985.2</ele>
        <time>2021-02-27T09:56:10Z</time>
      </trkpt>
      <trkpt lat="45.22422" lon="6.03591">
        <ele>1985.6</ele>
        <time>2021-02-27T09:56:11Z</time>
      </trkpt>
      <trkpt lat="45.22422" lon="6.03591">
        <ele>1985.6</ele>
        <time>2021-02-27T09:56:12Z</time>
      </trkpt>
      <trkpt lat="45.22424" lon="6.03593">
        <ele>1985.8</ele>
        <time>2021-02-27T09:56:13Z</time>
      </trkpt>
      <trkpt lat="45.22424" lon="6.03593">
        <ele>1985.8</ele>
        <time>2021-02-27T09:56:14Z</time>
      </trkpt>
      <trkpt lat="45.22426" lon="6.03595">
        <ele>1986.4</ele>
        <time>2021-02-27T09:56:15Z</time>
      </trkpt>
      <trkpt lat="45.22426" lon="6.03595">
        <ele>1986.8</ele>
        <time>2021-02-27T09:56:16Z</time>
      </trkpt>
      <trkpt lat="45.22426" lon="6.03595">
        <ele>1987.2</ele>
        <time>2021-02-27T09:56:17Z</time>
      </trkpt>
      <trkpt lat="45.22428" lon="6.03598">
        <ele>1987.4</ele>
        <time>2021-02-27T09:56:18Z</time>
      </trkpt>
      <trkpt lat="45.22428" lon="6.03598">
        <ele>1987.6</ele>
        <time>2021-02-27T09:56:19Z</time>
      </trkpt>
      <trkpt lat="45.22429" lon="6.036">
        <ele>1987.6</ele>
        <time>2021-02-27T09:56:20Z</time>
      </trkpt>
      <trkpt lat="45.22429" lon="6.036">
        <ele>1988.2</ele>
        <time>2021-02-27T09:56:21Z</time>
      </trkpt>
      <trkpt lat="45.2243" lon="6.03602">
        <ele>1988.2</ele>
        <time>2021-02-27T09:56:22Z</time>
      </trkpt>
      <trkpt lat="45.2243" lon="6.03602">
        <ele>1987.8</ele>
        <time>2021-02-27T09:56:23Z</time>
      </trkpt>
      <trkpt lat="45.22432" lon="6.03605">
        <ele>1988.6</ele>
        <time>2021-02-27T09:56:24Z</time>
      </trkpt>
      <trkpt lat="45.22432" lon="6.03605">
        <ele>1988.6</ele>
        <time>2021-02-27T09:56:25Z</time>
      </trkpt>
      <trkpt lat="45.22433" lon="6.03606">
        <ele>1988.8</ele>
        <time>2021-02-27T09:56:26Z</time>
      </trkpt>
      <trkpt lat="45.22434" lon="6.03607">
        <ele>1989.2</ele>
        <time>2021-02-27T09:56:27Z</time>
      </trkpt>
      <trkpt lat="45.22435" lon="6.03608">
        <ele>1989</ele>
        <time>2021-02-27T09:56:28Z</time>
      </trkpt>
      <trkpt lat="45.22437" lon="6.03609">
        <ele>1989.2</ele>
        <time>2021-02-27T09:56:29Z</time>
      </trkpt>
      <trkpt lat="45.22437" lon="6.03609">
        <ele>1989.4</ele>
        <time>2021-02-27T09:56:30Z</time>
      </trkpt>
      <trkpt lat="45.22438" lon="6.03613">
        <ele>1989.2</ele>
        <time>2021-02-27T09:56:31Z</time>
      </trkpt>
      <trkpt lat="45.22438" lon="6.03613">
        <ele>1990</ele>
        <time>2021-02-27T09:56:32Z</time>
      </trkpt>
      <trkpt lat="45.2244" lon="6.03614">
        <ele>1990</ele>
        <time>2021-02-27T09:56:33Z</time>
      </trkpt>
      <trkpt lat="45.2244" lon="6.03614">
        <ele>1989.8</ele>
        <time>2021-02-27T09:56:34Z</time>
      </trkpt>
      <trkpt lat="45.22442" lon="6.03616">
        <ele>1990.2</ele>
        <time>2021-02-27T09:56:35Z</time>
      </trkpt>
      <trkpt lat="45.22442" lon="6.03616">
        <ele>1990.6</ele>
        <time>2021-02-27T09:56:36Z</time>
      </trkpt>
      <trkpt lat="45.22442" lon="6.03616">
        <ele>1990.8</ele>
        <time>2021-02-27T09:56:37Z</time>
      </trkpt>
      <trkpt lat="45.22444" lon="6.03618">
        <ele>1991</ele>
        <time>2021-02-27T09:56:38Z</time>
      </trkpt>
      <trkpt lat="45.22444" lon="6.03618">
        <ele>1991.4</ele>
        <time>2021-02-27T09:56:39Z</time>
      </trkpt>
      <trkpt lat="45.22446" lon="6.03619">
        <ele>1991.8</ele>
        <time>2021-02-27T09:56:40Z</time>
      </trkpt>
      <trkpt lat="45.22446" lon="6.03619">
        <ele>1992</ele>
        <time>2021-02-27T09:56:41Z</time>
      </trkpt>
      <trkpt lat="45.22448" lon="6.03621">
        <ele>1992.4</ele>
        <time>2021-02-27T09:56:42Z</time>
      </trkpt>
      <trkpt lat="45.22448" lon="6.03621">
        <ele>1992.4</ele>
        <time>2021-02-27T09:56:43Z</time>
      </trkpt>
      <trkpt lat="45.22448" lon="6.03621">
        <ele>1992.4</ele>
        <time>2021-02-27T09:56:44Z</time>
      </trkpt>
      <trkpt lat="45.22449" lon="6.03623">
        <ele>1992.8</ele>
        <time>2021-02-27T09:56:45Z</time>
      </trkpt>
      <trkpt lat="45.22449" lon="6.03623">
        <ele>1993.2</ele>
        <time>2021-02-27T09:56:46Z</time>
      </trkpt>
      <trkpt lat="45.22449" lon="6.03623">
        <ele>1993.4</ele>
        <time>2021-02-27T09:56:47Z</time>
      </trkpt>
      <trkpt lat="45.22451" lon="6.03627">
        <ele>1994.2</ele>
        <time>2021-02-27T09:56:48Z</time>
      </trkpt>
      <trkpt lat="45.22451" lon="6.03627">
        <ele>1994</ele>
        <time>2021-02-27T09:56:49Z</time>
      </trkpt>
      <trkpt lat="45.22451" lon="6.03629">
        <ele>1994</ele>
        <time>2021-02-27T09:56:50Z</time>
      </trkpt>
      <trkpt lat="45.22451" lon="6.03629">
        <ele>1994.2</ele>
        <time>2021-02-27T09:56:51Z</time>
      </trkpt>
      <trkpt lat="45.22452" lon="6.03632">
        <ele>1994.8</ele>
        <time>2021-02-27T09:56:52Z</time>
      </trkpt>
      <trkpt lat="45.22452" lon="6.03632">
        <ele>1994.6</ele>
        <time>2021-02-27T09:56:53Z</time>
      </trkpt>
      <trkpt lat="45.22455" lon="6.03632">
        <ele>1994.6</ele>
        <time>2021-02-27T09:56:54Z</time>
      </trkpt>
      <trkpt lat="45.22455" lon="6.03632">
        <ele>1995</ele>
        <time>2021-02-27T09:56:55Z</time>
      </trkpt>
      <trkpt lat="45.22455" lon="6.03632">
        <ele>1995</ele>
        <time>2021-02-27T09:56:56Z</time>
      </trkpt>
      <trkpt lat="45.22457" lon="6.03633">
        <ele>1995.2</ele>
        <time>2021-02-27T09:56:57Z</time>
      </trkpt>
      <trkpt lat="45.22457" lon="6.03633">
        <ele>1995.6</ele>
        <time>2021-02-27T09:56:58Z</time>
      </trkpt>
      <trkpt lat="45.22459" lon="6.03634">
        <ele>1996.4</ele>
        <time>2021-02-27T09:56:59Z</time>
      </trkpt>
      <trkpt lat="45.22459" lon="6.03634">
        <ele>1996</ele>
        <time>2021-02-27T09:57:00Z</time>
      </trkpt>
      <trkpt lat="45.22462" lon="6.03635">
        <ele>1997</ele>
        <time>2021-02-27T09:57:01Z</time>
      </trkpt>
      <trkpt lat="45.22462" lon="6.03635">
        <ele>1997.2</ele>
        <time>2021-02-27T09:57:02Z</time>
      </trkpt>
      <trkpt lat="45.22464" lon="6.03637">
        <ele>1997</ele>
        <time>2021-02-27T09:57:03Z</time>
      </trkpt>
      <trkpt lat="45.22464" lon="6.03637">
        <ele>1996.6</ele>
        <time>2021-02-27T09:57:04Z</time>
      </trkpt>
      <trkpt lat="45.22466" lon="6.03637">
        <ele>1997</ele>
        <time>2021-02-27T09:57:05Z</time>
      </trkpt>
      <trkpt lat="45.22466" lon="6.03637">
        <ele>1996.8</ele>
        <time>2021-02-27T09:57:06Z</time>
      </trkpt>
      <trkpt lat="45.22466" lon="6.03637">
        <ele>1997</ele>
        <time>2021-02-27T09:57:07Z</time>
      </trkpt>
      <trkpt lat="45.22469" lon="6.0364">
        <ele>1997.2</ele>
        <time>2021-02-27T09:57:08Z</time>
      </trkpt>
      <trkpt lat="45.22469" lon="6.0364">
        <ele>1997.4</ele>
        <time>2021-02-27T09:57:09Z</time>
      </trkpt>
      <trkpt lat="45.22471" lon="6.03641">
        <ele>1997</ele>
        <time>2021-02-27T09:57:10Z</time>
      </trkpt>
      <trkpt lat="45.22471" lon="6.03641">
        <ele>1997.8</ele>
        <time>2021-02-27T09:57:11Z</time>
      </trkpt>
      <trkpt lat="45.22472" lon="6.03643">
        <ele>1998.2</ele>
        <time>2021-02-27T09:57:12Z</time>
      </trkpt>
      <trkpt lat="45.22472" lon="6.03643">
        <ele>1998.2</ele>
        <time>2021-02-27T09:57:13Z</time>
      </trkpt>
      <trkpt lat="45.22474" lon="6.03644">
        <ele>1998.2</ele>
        <time>2021-02-27T09:57:14Z</time>
      </trkpt>
      <trkpt lat="45.22474" lon="6.03644">
        <ele>1999</ele>
        <time>2021-02-27T09:57:15Z</time>
      </trkpt>
      <trkpt lat="45.22476" lon="6.03646">
        <ele>1999</ele>
        <time>2021-02-27T09:57:16Z</time>
      </trkpt>
      <trkpt lat="45.22476" lon="6.03646">
        <ele>1999</ele>
        <time>2021-02-27T09:57:17Z</time>
      </trkpt>
      <trkpt lat="45.22476" lon="6.03646">
        <ele>1999.6</ele>
        <time>2021-02-27T09:57:18Z</time>
      </trkpt>
      <trkpt lat="45.22478" lon="6.03649">
        <ele>1999.6</ele>
        <time>2021-02-27T09:57:19Z</time>
      </trkpt>
      <trkpt lat="45.22478" lon="6.03649">
        <ele>1999.6</ele>
        <time>2021-02-27T09:57:20Z</time>
      </trkpt>
      <trkpt lat="45.22479" lon="6.03651">
        <ele>2000.6</ele>
        <time>2021-02-27T09:57:21Z</time>
      </trkpt>
      <trkpt lat="45.22479" lon="6.03651">
        <ele>2000.4</ele>
        <time>2021-02-27T09:57:22Z</time>
      </trkpt>
      <trkpt lat="45.22481" lon="6.03654">
        <ele>2000.2</ele>
        <time>2021-02-27T09:57:23Z</time>
      </trkpt>
      <trkpt lat="45.22481" lon="6.03654">
        <ele>2000.6</ele>
        <time>2021-02-27T09:57:24Z</time>
      </trkpt>
      <trkpt lat="45.22482" lon="6.03656">
        <ele>2000.8</ele>
        <time>2021-02-27T09:57:25Z</time>
      </trkpt>
      <trkpt lat="45.22482" lon="6.03656">
        <ele>2001.4</ele>
        <time>2021-02-27T09:57:26Z</time>
      </trkpt>
      <trkpt lat="45.22484" lon="6.03658">
        <ele>2001.4</ele>
        <time>2021-02-27T09:57:27Z</time>
      </trkpt>
      <trkpt lat="45.22484" lon="6.03658">
        <ele>2001</ele>
        <time>2021-02-27T09:57:28Z</time>
      </trkpt>
      <trkpt lat="45.22486" lon="6.0366">
        <ele>2001.4</ele>
        <time>2021-02-27T09:57:29Z</time>
      </trkpt>
      <trkpt lat="45.22486" lon="6.0366">
        <ele>2001.2</ele>
        <time>2021-02-27T09:57:30Z</time>
      </trkpt>
      <trkpt lat="45.22488" lon="6.03663">
        <ele>2001.4</ele>
        <time>2021-02-27T09:57:31Z</time>
      </trkpt>
      <trkpt lat="45.22488" lon="6.03663">
        <ele>2001.6</ele>
        <time>2021-02-27T09:57:32Z</time>
      </trkpt>
      <trkpt lat="45.2249" lon="6.03664">
        <ele>2001.4</ele>
        <time>2021-02-27T09:57:33Z</time>
      </trkpt>
      <trkpt lat="45.2249" lon="6.03664">
        <ele>2002.2</ele>
        <time>2021-02-27T09:57:34Z</time>
      </trkpt>
      <trkpt lat="45.22492" lon="6.03667">
        <ele>2002.6</ele>
        <time>2021-02-27T09:57:35Z</time>
      </trkpt>
      <trkpt lat="45.22492" lon="6.03667">
        <ele>2003</ele>
        <time>2021-02-27T09:57:36Z</time>
      </trkpt>
      <trkpt lat="45.22494" lon="6.03669">
        <ele>2003</ele>
        <time>2021-02-27T09:57:37Z</time>
      </trkpt>
      <trkpt lat="45.22494" lon="6.03669">
        <ele>2003.6</ele>
        <time>2021-02-27T09:57:38Z</time>
      </trkpt>
      <trkpt lat="45.22496" lon="6.03671">
        <ele>2003.8</ele>
        <time>2021-02-27T09:57:39Z</time>
      </trkpt>
      <trkpt lat="45.22496" lon="6.03671">
        <ele>2004.4</ele>
        <time>2021-02-27T09:57:40Z</time>
      </trkpt>
      <trkpt lat="45.22498" lon="6.03672">
        <ele>2004.6</ele>
        <time>2021-02-27T09:57:41Z</time>
      </trkpt>
      <trkpt lat="45.22498" lon="6.03672">
        <ele>2005</ele>
        <time>2021-02-27T09:57:42Z</time>
      </trkpt>
      <trkpt lat="45.22499" lon="6.03673">
        <ele>2005</ele>
        <time>2021-02-27T09:57:43Z</time>
      </trkpt>
      <trkpt lat="45.22499" lon="6.03673">
        <ele>2006</ele>
        <time>2021-02-27T09:57:44Z</time>
      </trkpt>
      <trkpt lat="45.22499" lon="6.03673">
        <ele>2006.6</ele>
        <time>2021-02-27T09:57:45Z</time>
      </trkpt>
      <trkpt lat="45.22502" lon="6.03674">
        <ele>2006.8</ele>
        <time>2021-02-27T09:57:46Z</time>
      </trkpt>
      <trkpt lat="45.22502" lon="6.03674">
        <ele>2008.4</ele>
        <time>2021-02-27T09:57:47Z</time>
      </trkpt>
      <trkpt lat="45.22502" lon="6.03674">
        <ele>2008.8</ele>
        <time>2021-02-27T09:57:48Z</time>
      </trkpt>
      <trkpt lat="45.22503" lon="6.03675">
        <ele>2008.8</ele>
        <time>2021-02-27T09:57:49Z</time>
      </trkpt>
      <trkpt lat="45.22503" lon="6.03675">
        <ele>2009.6</ele>
        <time>2021-02-27T09:57:50Z</time>
      </trkpt>
      <trkpt lat="45.22503" lon="6.03675">
        <ele>2009.2</ele>
        <time>2021-02-27T09:57:51Z</time>
      </trkpt>
      <trkpt lat="45.22503" lon="6.03675">
        <ele>2010.4</ele>
        <time>2021-02-27T09:57:52Z</time>
      </trkpt>
      <trkpt lat="45.22506" lon="6.03677">
        <ele>2010</ele>
        <time>2021-02-27T09:57:53Z</time>
      </trkpt>
      <trkpt lat="45.22506" lon="6.03677">
        <ele>2009.8</ele>
        <time>2021-02-27T09:57:54Z</time>
      </trkpt>
      <trkpt lat="45.22506" lon="6.03677">
        <ele>2010.4</ele>
        <time>2021-02-27T09:57:55Z</time>
      </trkpt>
      <trkpt lat="45.22508" lon="6.03678">
        <ele>2010.2</ele>
        <time>2021-02-27T09:57:56Z</time>
      </trkpt>
      <trkpt lat="45.22508" lon="6.03678">
        <ele>2009.6</ele>
        <time>2021-02-27T09:57:57Z</time>
      </trkpt>
      <trkpt lat="45.22508" lon="6.03678">
        <ele>2009.4</ele>
        <time>2021-02-27T09:57:58Z</time>
      </trkpt>
      <trkpt lat="45.22509" lon="6.0368">
        <ele>2009.6</ele>
        <time>2021-02-27T09:57:59Z</time>
      </trkpt>
      <trkpt lat="45.22509" lon="6.0368">
        <ele>2009.6</ele>
        <time>2021-02-27T09:58:00Z</time>
      </trkpt>
      <trkpt lat="45.22509" lon="6.0368">
        <ele>2010</ele>
        <time>2021-02-27T09:58:01Z</time>
      </trkpt>
      <trkpt lat="45.22509" lon="6.0368">
        <ele>2010</ele>
        <time>2021-02-27T09:58:02Z</time>
      </trkpt>
      <trkpt lat="45.22511" lon="6.03682">
        <ele>2010.4</ele>
        <time>2021-02-27T09:58:03Z</time>
      </trkpt>
      <trkpt lat="45.22511" lon="6.03682">
        <ele>2011.6</ele>
        <time>2021-02-27T09:58:04Z</time>
      </trkpt>
      <trkpt lat="45.22511" lon="6.03682">
        <ele>2011.2</ele>
        <time>2021-02-27T09:58:05Z</time>
      </trkpt>
      <trkpt lat="45.22513" lon="6.03683">
        <ele>2011.6</ele>
        <time>2021-02-27T09:58:06Z</time>
      </trkpt>
      <trkpt lat="45.22513" lon="6.03683">
        <ele>2011.8</ele>
        <time>2021-02-27T09:58:07Z</time>
      </trkpt>
      <trkpt lat="45.22513" lon="6.03683">
        <ele>2011.8</ele>
        <time>2021-02-27T09:58:08Z</time>
      </trkpt>
      <trkpt lat="45.22516" lon="6.03682">
        <ele>2012</ele>
        <time>2021-02-27T09:58:09Z</time>
      </trkpt>
      <trkpt lat="45.22516" lon="6.03682">
        <ele>2011.6</ele>
        <time>2021-02-27T09:58:10Z</time>
      </trkpt>
      <trkpt lat="45.22516" lon="6.03682">
        <ele>2011</ele>
        <time>2021-02-27T09:58:11Z</time>
      </trkpt>
      <trkpt lat="45.22518" lon="6.03683">
        <ele>2011.8</ele>
        <time>2021-02-27T09:58:12Z</time>
      </trkpt>
      <trkpt lat="45.22518" lon="6.03683">
        <ele>2012.4</ele>
        <time>2021-02-27T09:58:13Z</time>
      </trkpt>
      <trkpt lat="45.2252" lon="6.03684">
        <ele>2011.8</ele>
        <time>2021-02-27T09:58:14Z</time>
      </trkpt>
      <trkpt lat="45.2252" lon="6.03684">
        <ele>2012.4</ele>
        <time>2021-02-27T09:58:15Z</time>
      </trkpt>
      <trkpt lat="45.22522" lon="6.03685">
        <ele>2012.4</ele>
        <time>2021-02-27T09:58:16Z</time>
      </trkpt>
      <trkpt lat="45.22522" lon="6.03685">
        <ele>2012.2</ele>
        <time>2021-02-27T09:58:17Z</time>
      </trkpt>
      <trkpt lat="45.22524" lon="6.03687">
        <ele>2013.2</ele>
        <time>2021-02-27T09:58:18Z</time>
      </trkpt>
      <trkpt lat="45.22524" lon="6.03687">
        <ele>2013.4</ele>
        <time>2021-02-27T09:58:19Z</time>
      </trkpt>
      <trkpt lat="45.22526" lon="6.03689">
        <ele>2013.8</ele>
        <time>2021-02-27T09:58:20Z</time>
      </trkpt>
      <trkpt lat="45.22526" lon="6.03689">
        <ele>2014</ele>
        <time>2021-02-27T09:58:21Z</time>
      </trkpt>
      <trkpt lat="45.22526" lon="6.03689">
        <ele>2014</ele>
        <time>2021-02-27T09:58:22Z</time>
      </trkpt>
      <trkpt lat="45.22528" lon="6.0369">
        <ele>2014</ele>
        <time>2021-02-27T09:58:23Z</time>
      </trkpt>
      <trkpt lat="45.22528" lon="6.0369">
        <ele>2014.2</ele>
        <time>2021-02-27T09:58:24Z</time>
      </trkpt>
      <trkpt lat="45.22531" lon="6.03692">
        <ele>2014</ele>
        <time>2021-02-27T09:58:25Z</time>
      </trkpt>
      <trkpt lat="45.22531" lon="6.03692">
        <ele>2013.6</ele>
        <time>2021-02-27T09:58:26Z</time>
      </trkpt>
      <trkpt lat="45.22533" lon="6.03692">
        <ele>2013.8</ele>
        <time>2021-02-27T09:58:27Z</time>
      </trkpt>
      <trkpt lat="45.22533" lon="6.03692">
        <ele>2013.8</ele>
        <time>2021-02-27T09:58:28Z</time>
      </trkpt>
      <trkpt lat="45.22535" lon="6.03694">
        <ele>2014.2</ele>
        <time>2021-02-27T09:58:29Z</time>
      </trkpt>
      <trkpt lat="45.22535" lon="6.03694">
        <ele>2014.6</ele>
        <time>2021-02-27T09:58:30Z</time>
      </trkpt>
      <trkpt lat="45.22537" lon="6.03695">
        <ele>2014</ele>
        <time>2021-02-27T09:58:31Z</time>
      </trkpt>
      <trkpt lat="45.22537" lon="6.03695">
        <ele>2014.8</ele>
        <time>2021-02-27T09:58:32Z</time>
      </trkpt>
      <trkpt lat="45.2254" lon="6.03695">
        <ele>2014.6</ele>
        <time>2021-02-27T09:58:33Z</time>
      </trkpt>
      <trkpt lat="45.2254" lon="6.03695">
        <ele>2014.4</ele>
        <time>2021-02-27T09:58:34Z</time>
      </trkpt>
      <trkpt lat="45.22542" lon="6.03697">
        <ele>2015</ele>
        <time>2021-02-27T09:58:35Z</time>
      </trkpt>
      <trkpt lat="45.22542" lon="6.03697">
        <ele>2014.6</ele>
        <time>2021-02-27T09:58:36Z</time>
      </trkpt>
      <trkpt lat="45.22544" lon="6.03699">
        <ele>2014.4</ele>
        <time>2021-02-27T09:58:37Z</time>
      </trkpt>
      <trkpt lat="45.22544" lon="6.03699">
        <ele>2014.8</ele>
        <time>2021-02-27T09:58:38Z</time>
      </trkpt>
      <trkpt lat="45.22546" lon="6.037">
        <ele>2014.4</ele>
        <time>2021-02-27T09:58:39Z</time>
      </trkpt>
      <trkpt lat="45.22546" lon="6.037">
        <ele>2014.8</ele>
        <time>2021-02-27T09:58:40Z</time>
      </trkpt>
      <trkpt lat="45.22548" lon="6.03702">
        <ele>2014.6</ele>
        <time>2021-02-27T09:58:41Z</time>
      </trkpt>
      <trkpt lat="45.22548" lon="6.03702">
        <ele>2014.6</ele>
        <time>2021-02-27T09:58:42Z</time>
      </trkpt>
      <trkpt lat="45.22548" lon="6.03702">
        <ele>2015.2</ele>
        <time>2021-02-27T09:58:43Z</time>
      </trkpt>
      <trkpt lat="45.2255" lon="6.03704">
        <ele>2015.4</ele>
        <time>2021-02-27T09:58:44Z</time>
      </trkpt>
      <trkpt lat="45.2255" lon="6.03704">
        <ele>2015.2</ele>
        <time>2021-02-27T09:58:45Z</time>
      </trkpt>
      <trkpt lat="45.22552" lon="6.03704">
        <ele>2015.8</ele>
        <time>2021-02-27T09:58:46Z</time>
      </trkpt>
      <trkpt lat="45.22552" lon="6.03704">
        <ele>2015.6</ele>
        <time>2021-02-27T09:58:47Z</time>
      </trkpt>
      <trkpt lat="45.22554" lon="6.03705">
        <ele>2016</ele>
        <time>2021-02-27T09:58:48Z</time>
      </trkpt>
      <trkpt lat="45.22554" lon="6.03705">
        <ele>2016.2</ele>
        <time>2021-02-27T09:58:49Z</time>
      </trkpt>
      <trkpt lat="45.22556" lon="6.03706">
        <ele>2016.2</ele>
        <time>2021-02-27T09:58:50Z</time>
      </trkpt>
      <trkpt lat="45.22556" lon="6.03706">
        <ele>2017</ele>
        <time>2021-02-27T09:58:51Z</time>
      </trkpt>
      <trkpt lat="45.22559" lon="6.03708">
        <ele>2017.4</ele>
        <time>2021-02-27T09:58:52Z</time>
      </trkpt>
      <trkpt lat="45.22559" lon="6.03708">
        <ele>2017.6</ele>
        <time>2021-02-27T09:58:53Z</time>
      </trkpt>
      <trkpt lat="45.22561" lon="6.03709">
        <ele>2017.2</ele>
        <time>2021-02-27T09:58:54Z</time>
      </trkpt>
      <trkpt lat="45.22561" lon="6.03709">
        <ele>2017.6</ele>
        <time>2021-02-27T09:58:55Z</time>
      </trkpt>
      <trkpt lat="45.22564" lon="6.03711">
        <ele>2017.2</ele>
        <time>2021-02-27T09:58:56Z</time>
      </trkpt>
      <trkpt lat="45.22564" lon="6.03711">
        <ele>2016.6</ele>
        <time>2021-02-27T09:58:57Z</time>
      </trkpt>
      <trkpt lat="45.22566" lon="6.03712">
        <ele>2017</ele>
        <time>2021-02-27T09:58:58Z</time>
      </trkpt>
      <trkpt lat="45.22566" lon="6.03712">
        <ele>2016.8</ele>
        <time>2021-02-27T09:58:59Z</time>
      </trkpt>
      <trkpt lat="45.22569" lon="6.03713">
        <ele>2016.8</ele>
        <time>2021-02-27T09:59:00Z</time>
      </trkpt>
      <trkpt lat="45.22569" lon="6.03713">
        <ele>2017.2</ele>
        <time>2021-02-27T09:59:01Z</time>
      </trkpt>
      <trkpt lat="45.22571" lon="6.03716">
        <ele>2017</ele>
        <time>2021-02-27T09:59:02Z</time>
      </trkpt>
      <trkpt lat="45.22571" lon="6.03716">
        <ele>2017.4</ele>
        <time>2021-02-27T09:59:03Z</time>
      </trkpt>
      <trkpt lat="45.22574" lon="6.03716">
        <ele>2017.6</ele>
        <time>2021-02-27T09:59:04Z</time>
      </trkpt>
      <trkpt lat="45.22574" lon="6.03716">
        <ele>2017.4</ele>
        <time>2021-02-27T09:59:05Z</time>
      </trkpt>
      <trkpt lat="45.22577" lon="6.03717">
        <ele>2017.8</ele>
        <time>2021-02-27T09:59:06Z</time>
      </trkpt>
      <trkpt lat="45.22577" lon="6.03717">
        <ele>2017.8</ele>
        <time>2021-02-27T09:59:07Z</time>
      </trkpt>
      <trkpt lat="45.22579" lon="6.03719">
        <ele>2017.6</ele>
        <time>2021-02-27T09:59:08Z</time>
      </trkpt>
      <trkpt lat="45.22579" lon="6.03719">
        <ele>2017.8</ele>
        <time>2021-02-27T09:59:09Z</time>
      </trkpt>
      <trkpt lat="45.22581" lon="6.03721">
        <ele>2017.4</ele>
        <time>2021-02-27T09:59:10Z</time>
      </trkpt>
      <trkpt lat="45.22581" lon="6.03721">
        <ele>2017.4</ele>
        <time>2021-02-27T09:59:11Z</time>
      </trkpt>
      <trkpt lat="45.22584" lon="6.03722">
        <ele>2017.8</ele>
        <time>2021-02-27T09:59:12Z</time>
      </trkpt>
      <trkpt lat="45.22584" lon="6.03722">
        <ele>2018.4</ele>
        <time>2021-02-27T09:59:13Z</time>
      </trkpt>
      <trkpt lat="45.22584" lon="6.03722">
        <ele>2018.4</ele>
        <time>2021-02-27T09:59:14Z</time>
      </trkpt>
      <trkpt lat="45.22588" lon="6.03723">
        <ele>2018.6</ele>
        <time>2021-02-27T09:59:15Z</time>
      </trkpt>
      <trkpt lat="45.22588" lon="6.03723">
        <ele>2019.2</ele>
        <time>2021-02-27T09:59:16Z</time>
      </trkpt>
      <trkpt lat="45.22591" lon="6.03724">
        <ele>2019.2</ele>
        <time>2021-02-27T09:59:17Z</time>
      </trkpt>
      <trkpt lat="45.22591" lon="6.03724">
        <ele>2019.2</ele>
        <time>2021-02-27T09:59:18Z</time>
      </trkpt>
      <trkpt lat="45.22593" lon="6.03724">
        <ele>2019.6</ele>
        <time>2021-02-27T09:59:19Z</time>
      </trkpt>
      <trkpt lat="45.22593" lon="6.03724">
        <ele>2019.6</ele>
        <time>2021-02-27T09:59:20Z</time>
      </trkpt>
      <trkpt lat="45.22595" lon="6.03724">
        <ele>2019.8</ele>
        <time>2021-02-27T09:59:21Z</time>
      </trkpt>
      <trkpt lat="45.22595" lon="6.03724">
        <ele>2019.8</ele>
        <time>2021-02-27T09:59:22Z</time>
      </trkpt>
      <trkpt lat="45.22597" lon="6.03725">
        <ele>2020</ele>
        <time>2021-02-27T09:59:23Z</time>
      </trkpt>
      <trkpt lat="45.22597" lon="6.03725">
        <ele>2020.4</ele>
        <time>2021-02-27T09:59:24Z</time>
      </trkpt>
      <trkpt lat="45.226" lon="6.03727">
        <ele>2020.2</ele>
        <time>2021-02-27T09:59:25Z</time>
      </trkpt>
      <trkpt lat="45.226" lon="6.03727">
        <ele>2020.4</ele>
        <time>2021-02-27T09:59:26Z</time>
      </trkpt>
      <trkpt lat="45.22601" lon="6.03729">
        <ele>2020.6</ele>
        <time>2021-02-27T09:59:27Z</time>
      </trkpt>
      <trkpt lat="45.22601" lon="6.03729">
        <ele>2020.6</ele>
        <time>2021-02-27T09:59:28Z</time>
      </trkpt>
      <trkpt lat="45.22603" lon="6.03732">
        <ele>2021</ele>
        <time>2021-02-27T09:59:29Z</time>
      </trkpt>
      <trkpt lat="45.22603" lon="6.03732">
        <ele>2021.2</ele>
        <time>2021-02-27T09:59:30Z</time>
      </trkpt>
      <trkpt lat="45.22605" lon="6.03733">
        <ele>2020.6</ele>
        <time>2021-02-27T09:59:31Z</time>
      </trkpt>
      <trkpt lat="45.22605" lon="6.03733">
        <ele>2020.8</ele>
        <time>2021-02-27T09:59:32Z</time>
      </trkpt>
      <trkpt lat="45.22608" lon="6.03736">
        <ele>2020.4</ele>
        <time>2021-02-27T09:59:33Z</time>
      </trkpt>
      <trkpt lat="45.22608" lon="6.03736">
        <ele>2020.2</ele>
        <time>2021-02-27T09:59:34Z</time>
      </trkpt>
      <trkpt lat="45.2261" lon="6.03738">
        <ele>2020.2</ele>
        <time>2021-02-27T09:59:35Z</time>
      </trkpt>
      <trkpt lat="45.2261" lon="6.03738">
        <ele>2020.2</ele>
        <time>2021-02-27T09:59:36Z</time>
      </trkpt>
      <trkpt lat="45.22612" lon="6.0374">
        <ele>2020.2</ele>
        <time>2021-02-27T09:59:37Z</time>
      </trkpt>
      <trkpt lat="45.22612" lon="6.0374">
        <ele>2020.4</ele>
        <time>2021-02-27T09:59:38Z</time>
      </trkpt>
      <trkpt lat="45.22614" lon="6.03743">
        <ele>2020.4</ele>
        <time>2021-02-27T09:59:39Z</time>
      </trkpt>
      <trkpt lat="45.22614" lon="6.03743">
        <ele>2021.2</ele>
        <time>2021-02-27T09:59:40Z</time>
      </trkpt>
      <trkpt lat="45.22615" lon="6.03745">
        <ele>2021</ele>
        <time>2021-02-27T09:59:41Z</time>
      </trkpt>
      <trkpt lat="45.22615" lon="6.03745">
        <ele>2020.8</ele>
        <time>2021-02-27T09:59:42Z</time>
      </trkpt>
      <trkpt lat="45.22616" lon="6.03749">
        <ele>2021</ele>
        <time>2021-02-27T09:59:43Z</time>
      </trkpt>
      <trkpt lat="45.22616" lon="6.03749">
        <ele>2020.8</ele>
        <time>2021-02-27T09:59:44Z</time>
      </trkpt>
      <trkpt lat="45.22617" lon="6.03755">
        <ele>2020.6</ele>
        <time>2021-02-27T09:59:45Z</time>
      </trkpt>
      <trkpt lat="45.22617" lon="6.03756">
        <ele>2021</ele>
        <time>2021-02-27T09:59:46Z</time>
      </trkpt>
      <trkpt lat="45.22617" lon="6.03756">
        <ele>2021</ele>
        <time>2021-02-27T09:59:47Z</time>
      </trkpt>
      <trkpt lat="45.22618" lon="6.0376">
        <ele>2021.2</ele>
        <time>2021-02-27T09:59:48Z</time>
      </trkpt>
      <trkpt lat="45.22618" lon="6.0376">
        <ele>2021.6</ele>
        <time>2021-02-27T09:59:49Z</time>
      </trkpt>
      <trkpt lat="45.22619" lon="6.03762">
        <ele>2021.8</ele>
        <time>2021-02-27T09:59:50Z</time>
      </trkpt>
      <trkpt lat="45.22619" lon="6.03762">
        <ele>2021.8</ele>
        <time>2021-02-27T09:59:51Z</time>
      </trkpt>
      <trkpt lat="45.2262" lon="6.03765">
        <ele>2022</ele>
        <time>2021-02-27T09:59:52Z</time>
      </trkpt>
      <trkpt lat="45.2262" lon="6.03768">
        <ele>2021.8</ele>
        <time>2021-02-27T09:59:53Z</time>
      </trkpt>
      <trkpt lat="45.2262" lon="6.03768">
        <ele>2022</ele>
        <time>2021-02-27T09:59:54Z</time>
      </trkpt>
      <trkpt lat="45.2262" lon="6.03772">
        <ele>2021.6</ele>
        <time>2021-02-27T09:59:55Z</time>
      </trkpt>
      <trkpt lat="45.2262" lon="6.03775">
        <ele>2021.8</ele>
        <time>2021-02-27T09:59:56Z</time>
      </trkpt>
      <trkpt lat="45.2262" lon="6.03778">
        <ele>2021.6</ele>
        <time>2021-02-27T09:59:57Z</time>
      </trkpt>
      <trkpt lat="45.2262" lon="6.03778">
        <ele>2021.6</ele>
        <time>2021-02-27T09:59:58Z</time>
      </trkpt>
      <trkpt lat="45.22621" lon="6.03783">
        <ele>2021.8</ele>
        <time>2021-02-27T09:59:59Z</time>
      </trkpt>
      <trkpt lat="45.22621" lon="6.03783">
        <ele>2021.4</ele>
        <time>2021-02-27T10:00:00Z</time>
      </trkpt>
      <trkpt lat="45.22621" lon="6.03787">
        <ele>2021</ele>
        <time>2021-02-27T10:00:01Z</time>
      </trkpt>
      <trkpt lat="45.22621" lon="6.03787">
        <ele>2021</ele>
        <time>2021-02-27T10:00:02Z</time>
      </trkpt>
      <trkpt lat="45.22622" lon="6.0379">
        <ele>2021</ele>
        <time>2021-02-27T10:00:03Z</time>
      </trkpt>
      <trkpt lat="45.22622" lon="6.0379">
        <ele>2020.8</ele>
        <time>2021-02-27T10:00:04Z</time>
      </trkpt>
      <trkpt lat="45.22622" lon="6.03793">
        <ele>2021.2</ele>
        <time>2021-02-27T10:00:05Z</time>
      </trkpt>
      <trkpt lat="45.22622" lon="6.03793">
        <ele>2021.4</ele>
        <time>2021-02-27T10:00:06Z</time>
      </trkpt>
      <trkpt lat="45.22624" lon="6.03796">
        <ele>2021.4</ele>
        <time>2021-02-27T10:00:07Z</time>
      </trkpt>
      <trkpt lat="45.22624" lon="6.03796">
        <ele>2021.2</ele>
        <time>2021-02-27T10:00:08Z</time>
      </trkpt>
      <trkpt lat="45.22625" lon="6.03799">
        <ele>2020.8</ele>
        <time>2021-02-27T10:00:09Z</time>
      </trkpt>
      <trkpt lat="45.22625" lon="6.03799">
        <ele>2020.8</ele>
        <time>2021-02-27T10:00:10Z</time>
      </trkpt>
      <trkpt lat="45.22626" lon="6.03802">
        <ele>2021.2</ele>
        <time>2021-02-27T10:00:11Z</time>
      </trkpt>
      <trkpt lat="45.22626" lon="6.03802">
        <ele>2021.2</ele>
        <time>2021-02-27T10:00:12Z</time>
      </trkpt>
      <trkpt lat="45.22628" lon="6.03803">
        <ele>2021</ele>
        <time>2021-02-27T10:00:13Z</time>
      </trkpt>
      <trkpt lat="45.22628" lon="6.03803">
        <ele>2020.6</ele>
        <time>2021-02-27T10:00:14Z</time>
      </trkpt>
      <trkpt lat="45.22628" lon="6.03803">
        <ele>2021</ele>
        <time>2021-02-27T10:00:15Z</time>
      </trkpt>
      <trkpt lat="45.22631" lon="6.03805">
        <ele>2020.8</ele>
        <time>2021-02-27T10:00:16Z</time>
      </trkpt>
      <trkpt lat="45.22631" lon="6.03805">
        <ele>2020.8</ele>
        <time>2021-02-27T10:00:17Z</time>
      </trkpt>
      <trkpt lat="45.22633" lon="6.03806">
        <ele>2021.4</ele>
        <time>2021-02-27T10:00:18Z</time>
      </trkpt>
      <trkpt lat="45.22633" lon="6.03806">
        <ele>2021.6</ele>
        <time>2021-02-27T10:00:19Z</time>
      </trkpt>
      <trkpt lat="45.22635" lon="6.03808">
        <ele>2022.2</ele>
        <time>2021-02-27T10:00:20Z</time>
      </trkpt>
      <trkpt lat="45.22635" lon="6.03808">
        <ele>2022.4</ele>
        <time>2021-02-27T10:00:21Z</time>
      </trkpt>
      <trkpt lat="45.22636" lon="6.0381">
        <ele>2022.2</ele>
        <time>2021-02-27T10:00:22Z</time>
      </trkpt>
      <trkpt lat="45.22636" lon="6.0381">
        <ele>2022.8</ele>
        <time>2021-02-27T10:00:23Z</time>
      </trkpt>
      <trkpt lat="45.22637" lon="6.03813">
        <ele>2022.8</ele>
        <time>2021-02-27T10:00:24Z</time>
      </trkpt>
      <trkpt lat="45.22637" lon="6.03813">
        <ele>2023.2</ele>
        <time>2021-02-27T10:00:25Z</time>
      </trkpt>
      <trkpt lat="45.22639" lon="6.03815">
        <ele>2023.4</ele>
        <time>2021-02-27T10:00:26Z</time>
      </trkpt>
      <trkpt lat="45.22639" lon="6.03815">
        <ele>2023.2</ele>
        <time>2021-02-27T10:00:27Z</time>
      </trkpt>
      <trkpt lat="45.22641" lon="6.03818">
        <ele>2024.2</ele>
        <time>2021-02-27T10:00:28Z</time>
      </trkpt>
      <trkpt lat="45.22641" lon="6.03818">
        <ele>2024.4</ele>
        <time>2021-02-27T10:00:29Z</time>
      </trkpt>
      <trkpt lat="45.22642" lon="6.03821">
        <ele>2024.2</ele>
        <time>2021-02-27T10:00:30Z</time>
      </trkpt>
      <trkpt lat="45.22642" lon="6.03821">
        <ele>2024.6</ele>
        <time>2021-02-27T10:00:31Z</time>
      </trkpt>
      <trkpt lat="45.22644" lon="6.03824">
        <ele>2024.4</ele>
        <time>2021-02-27T10:00:32Z</time>
      </trkpt>
      <trkpt lat="45.22644" lon="6.03824">
        <ele>2025</ele>
        <time>2021-02-27T10:00:33Z</time>
      </trkpt>
      <trkpt lat="45.22645" lon="6.03827">
        <ele>2025.2</ele>
        <time>2021-02-27T10:00:34Z</time>
      </trkpt>
      <trkpt lat="45.22645" lon="6.03827">
        <ele>2025.6</ele>
        <time>2021-02-27T10:00:35Z</time>
      </trkpt>
      <trkpt lat="45.22646" lon="6.03829">
        <ele>2025.6</ele>
        <time>2021-02-27T10:00:36Z</time>
      </trkpt>
      <trkpt lat="45.22646" lon="6.03829">
        <ele>2026</ele>
        <time>2021-02-27T10:00:37Z</time>
      </trkpt>
      <trkpt lat="45.22648" lon="6.03832">
        <ele>2026.2</ele>
        <time>2021-02-27T10:00:38Z</time>
      </trkpt>
      <trkpt lat="45.22648" lon="6.03832">
        <ele>2026.2</ele>
        <time>2021-02-27T10:00:39Z</time>
      </trkpt>
      <trkpt lat="45.2265" lon="6.03834">
        <ele>2026.4</ele>
        <time>2021-02-27T10:00:40Z</time>
      </trkpt>
      <trkpt lat="45.2265" lon="6.03834">
        <ele>2026.4</ele>
        <time>2021-02-27T10:00:41Z</time>
      </trkpt>
      <trkpt lat="45.22652" lon="6.03837">
        <ele>2027.2</ele>
        <time>2021-02-27T10:00:42Z</time>
      </trkpt>
      <trkpt lat="45.22654" lon="6.03838">
        <ele>2027.4</ele>
        <time>2021-02-27T10:00:43Z</time>
      </trkpt>
      <trkpt lat="45.22654" lon="6.03838">
        <ele>2027.2</ele>
        <time>2021-02-27T10:00:44Z</time>
      </trkpt>
      <trkpt lat="45.22656" lon="6.0384">
        <ele>2027.8</ele>
        <time>2021-02-27T10:00:45Z</time>
      </trkpt>
      <trkpt lat="45.22656" lon="6.0384">
        <ele>2027.8</ele>
        <time>2021-02-27T10:00:46Z</time>
      </trkpt>
      <trkpt lat="45.22658" lon="6.03842">
        <ele>2028.2</ele>
        <time>2021-02-27T10:00:47Z</time>
      </trkpt>
      <trkpt lat="45.22658" lon="6.03842">
        <ele>2028.4</ele>
        <time>2021-02-27T10:00:48Z</time>
      </trkpt>
      <trkpt lat="45.22659" lon="6.03845">
        <ele>2028.4</ele>
        <time>2021-02-27T10:00:49Z</time>
      </trkpt>
      <trkpt lat="45.22659" lon="6.03845">
        <ele>2029</ele>
        <time>2021-02-27T10:00:50Z</time>
      </trkpt>
      <trkpt lat="45.22661" lon="6.03848">
        <ele>2029.2</ele>
        <time>2021-02-27T10:00:51Z</time>
      </trkpt>
      <trkpt lat="45.22661" lon="6.03848">
        <ele>2029.8</ele>
        <time>2021-02-27T10:00:52Z</time>
      </trkpt>
      <trkpt lat="45.22662" lon="6.03851">
        <ele>2029.8</ele>
        <time>2021-02-27T10:00:53Z</time>
      </trkpt>
      <trkpt lat="45.22662" lon="6.03851">
        <ele>2030</ele>
        <time>2021-02-27T10:00:54Z</time>
      </trkpt>
      <trkpt lat="45.22663" lon="6.03853">
        <ele>2030.2</ele>
        <time>2021-02-27T10:00:55Z</time>
      </trkpt>
      <trkpt lat="45.22663" lon="6.03853">
        <ele>2030</ele>
        <time>2021-02-27T10:00:56Z</time>
      </trkpt>
      <trkpt lat="45.22666" lon="6.03855">
        <ele>2030.6</ele>
        <time>2021-02-27T10:00:57Z</time>
      </trkpt>
      <trkpt lat="45.22666" lon="6.03855">
        <ele>2030.4</ele>
        <time>2021-02-27T10:00:58Z</time>
      </trkpt>
      <trkpt lat="45.22668" lon="6.03857">
        <ele>2030.6</ele>
        <time>2021-02-27T10:00:59Z</time>
      </trkpt>
      <trkpt lat="45.22668" lon="6.03857">
        <ele>2030.6</ele>
        <time>2021-02-27T10:01:00Z</time>
      </trkpt>
      <trkpt lat="45.2267" lon="6.03859">
        <ele>2030.6</ele>
        <time>2021-02-27T10:01:01Z</time>
      </trkpt>
      <trkpt lat="45.2267" lon="6.03859">
        <ele>2030.8</ele>
        <time>2021-02-27T10:01:02Z</time>
      </trkpt>
      <trkpt lat="45.22672" lon="6.03861">
        <ele>2030.6</ele>
        <time>2021-02-27T10:01:03Z</time>
      </trkpt>
      <trkpt lat="45.22672" lon="6.03861">
        <ele>2031</ele>
        <time>2021-02-27T10:01:04Z</time>
      </trkpt>
      <trkpt lat="45.22675" lon="6.03863">
        <ele>2030.8</ele>
        <time>2021-02-27T10:01:05Z</time>
      </trkpt>
      <trkpt lat="45.22675" lon="6.03863">
        <ele>2030.6</ele>
        <time>2021-02-27T10:01:06Z</time>
      </trkpt>
      <trkpt lat="45.22677" lon="6.03863">
        <ele>2030.6</ele>
        <time>2021-02-27T10:01:07Z</time>
      </trkpt>
      <trkpt lat="45.22677" lon="6.03863">
        <ele>2030.6</ele>
        <time>2021-02-27T10:01:08Z</time>
      </trkpt>
      <trkpt lat="45.2268" lon="6.03865">
        <ele>2031</ele>
        <time>2021-02-27T10:01:09Z</time>
      </trkpt>
      <trkpt lat="45.2268" lon="6.03865">
        <ele>2030.8</ele>
        <time>2021-02-27T10:01:10Z</time>
      </trkpt>
      <trkpt lat="45.22682" lon="6.03868">
        <ele>2030.8</ele>
        <time>2021-02-27T10:01:11Z</time>
      </trkpt>
      <trkpt lat="45.22682" lon="6.03868">
        <ele>2031.2</ele>
        <time>2021-02-27T10:01:12Z</time>
      </trkpt>
      <trkpt lat="45.22684" lon="6.0387">
        <ele>2031.6</ele>
        <time>2021-02-27T10:01:13Z</time>
      </trkpt>
      <trkpt lat="45.22684" lon="6.0387">
        <ele>2031.8</ele>
        <time>2021-02-27T10:01:14Z</time>
      </trkpt>
      <trkpt lat="45.22684" lon="6.0387">
        <ele>2031.8</ele>
        <time>2021-02-27T10:01:15Z</time>
      </trkpt>
      <trkpt lat="45.22684" lon="6.0387">
        <ele>2032</ele>
        <time>2021-02-27T10:01:16Z</time>
      </trkpt>
      <trkpt lat="45.22686" lon="6.03871">
        <ele>2032.2</ele>
        <time>2021-02-27T10:01:17Z</time>
      </trkpt>
      <trkpt lat="45.22686" lon="6.03871">
        <ele>2032.4</ele>
        <time>2021-02-27T10:01:18Z</time>
      </trkpt>
      <trkpt lat="45.22688" lon="6.03872">
        <ele>2032.4</ele>
        <time>2021-02-27T10:01:19Z</time>
      </trkpt>
      <trkpt lat="45.22688" lon="6.03872">
        <ele>2032.6</ele>
        <time>2021-02-27T10:01:20Z</time>
      </trkpt>
      <trkpt lat="45.22689" lon="6.03874">
        <ele>2032.4</ele>
        <time>2021-02-27T10:01:21Z</time>
      </trkpt>
      <trkpt lat="45.22689" lon="6.03874">
        <ele>2032.8</ele>
        <time>2021-02-27T10:01:22Z</time>
      </trkpt>
      <trkpt lat="45.22689" lon="6.03874">
        <ele>2032.6</ele>
        <time>2021-02-27T10:01:23Z</time>
      </trkpt>
      <trkpt lat="45.22691" lon="6.03876">
        <ele>2032.6</ele>
        <time>2021-02-27T10:01:24Z</time>
      </trkpt>
      <trkpt lat="45.22691" lon="6.03876">
        <ele>2033</ele>
        <time>2021-02-27T10:01:25Z</time>
      </trkpt>
      <trkpt lat="45.22691" lon="6.03876">
        <ele>2032.6</ele>
        <time>2021-02-27T10:01:26Z</time>
      </trkpt>
      <trkpt lat="45.22693" lon="6.03879">
        <ele>2032.4</ele>
        <time>2021-02-27T10:01:27Z</time>
      </trkpt>
      <trkpt lat="45.22693" lon="6.03879">
        <ele>2032.6</ele>
        <time>2021-02-27T10:01:28Z</time>
      </trkpt>
      <trkpt lat="45.22695" lon="6.03881">
        <ele>2032.6</ele>
        <time>2021-02-27T10:01:29Z</time>
      </trkpt>
      <trkpt lat="45.22695" lon="6.03881">
        <ele>2032.4</ele>
        <time>2021-02-27T10:01:30Z</time>
      </trkpt>
      <trkpt lat="45.22697" lon="6.03883">
        <ele>2033.2</ele>
        <time>2021-02-27T10:01:31Z</time>
      </trkpt>
      <trkpt lat="45.22697" lon="6.03883">
        <ele>2033</ele>
        <time>2021-02-27T10:01:32Z</time>
      </trkpt>
      <trkpt lat="45.22698" lon="6.03886">
        <ele>2033</ele>
        <time>2021-02-27T10:01:33Z</time>
      </trkpt>
      <trkpt lat="45.22698" lon="6.03886">
        <ele>2033.2</ele>
        <time>2021-02-27T10:01:34Z</time>
      </trkpt>
      <trkpt lat="45.22698" lon="6.03886">
        <ele>2033.2</ele>
        <time>2021-02-27T10:01:35Z</time>
      </trkpt>
      <trkpt lat="45.227" lon="6.03889">
        <ele>2033.6</ele>
        <time>2021-02-27T10:01:36Z</time>
      </trkpt>
      <trkpt lat="45.227" lon="6.03889">
        <ele>2033.6</ele>
        <time>2021-02-27T10:01:37Z</time>
      </trkpt>
      <trkpt lat="45.227" lon="6.03889">
        <ele>2033.6</ele>
        <time>2021-02-27T10:01:38Z</time>
      </trkpt>
      <trkpt lat="45.22701" lon="6.03892">
        <ele>2034</ele>
        <time>2021-02-27T10:01:39Z</time>
      </trkpt>
      <trkpt lat="45.22701" lon="6.03892">
        <ele>2033.8</ele>
        <time>2021-02-27T10:01:40Z</time>
      </trkpt>
      <trkpt lat="45.22703" lon="6.03894">
        <ele>2033.6</ele>
        <time>2021-02-27T10:01:41Z</time>
      </trkpt>
      <trkpt lat="45.22703" lon="6.03894">
        <ele>2033.8</ele>
        <time>2021-02-27T10:01:42Z</time>
      </trkpt>
      <trkpt lat="45.22705" lon="6.03896">
        <ele>2034.4</ele>
        <time>2021-02-27T10:01:43Z</time>
      </trkpt>
      <trkpt lat="45.22705" lon="6.03896">
        <ele>2034.4</ele>
        <time>2021-02-27T10:01:44Z</time>
      </trkpt>
      <trkpt lat="45.22705" lon="6.03896">
        <ele>2034.2</ele>
        <time>2021-02-27T10:01:45Z</time>
      </trkpt>
      <trkpt lat="45.22706" lon="6.039">
        <ele>2034.8</ele>
        <time>2021-02-27T10:01:46Z</time>
      </trkpt>
      <trkpt lat="45.22706" lon="6.039">
        <ele>2034.8</ele>
        <time>2021-02-27T10:01:47Z</time>
      </trkpt>
      <trkpt lat="45.22706" lon="6.039">
        <ele>2034.8</ele>
        <time>2021-02-27T10:01:48Z</time>
      </trkpt>
      <trkpt lat="45.22706" lon="6.03904">
        <ele>2035.2</ele>
        <time>2021-02-27T10:01:49Z</time>
      </trkpt>
      <trkpt lat="45.22706" lon="6.03904">
        <ele>2035</ele>
        <time>2021-02-27T10:01:50Z</time>
      </trkpt>
      <trkpt lat="45.22706" lon="6.03907">
        <ele>2035</ele>
        <time>2021-02-27T10:01:51Z</time>
      </trkpt>
      <trkpt lat="45.22706" lon="6.03907">
        <ele>2035</ele>
        <time>2021-02-27T10:01:52Z</time>
      </trkpt>
      <trkpt lat="45.22706" lon="6.0391">
        <ele>2035</ele>
        <time>2021-02-27T10:01:53Z</time>
      </trkpt>
      <trkpt lat="45.22706" lon="6.0391">
        <ele>2035.6</ele>
        <time>2021-02-27T10:01:54Z</time>
      </trkpt>
      <trkpt lat="45.22706" lon="6.03912">
        <ele>2036</ele>
        <time>2021-02-27T10:01:55Z</time>
      </trkpt>
      <trkpt lat="45.22706" lon="6.03912">
        <ele>2035.8</ele>
        <time>2021-02-27T10:01:56Z</time>
      </trkpt>
      <trkpt lat="45.22706" lon="6.03915">
        <ele>2036.2</ele>
        <time>2021-02-27T10:01:57Z</time>
      </trkpt>
      <trkpt lat="45.22706" lon="6.03915">
        <ele>2036</ele>
        <time>2021-02-27T10:01:58Z</time>
      </trkpt>
      <trkpt lat="45.22706" lon="6.03915">
        <ele>2036</ele>
        <time>2021-02-27T10:01:59Z</time>
      </trkpt>
      <trkpt lat="45.22706" lon="6.03919">
        <ele>2036.4</ele>
        <time>2021-02-27T10:02:00Z</time>
      </trkpt>
      <trkpt lat="45.22706" lon="6.03919">
        <ele>2036.2</ele>
        <time>2021-02-27T10:02:01Z</time>
      </trkpt>
      <trkpt lat="45.22706" lon="6.03919">
        <ele>2036.2</ele>
        <time>2021-02-27T10:02:02Z</time>
      </trkpt>
      <trkpt lat="45.22706" lon="6.03922">
        <ele>2036.6</ele>
        <time>2021-02-27T10:02:03Z</time>
      </trkpt>
      <trkpt lat="45.22706" lon="6.03922">
        <ele>2036.8</ele>
        <time>2021-02-27T10:02:04Z</time>
      </trkpt>
      <trkpt lat="45.22706" lon="6.03922">
        <ele>2036.8</ele>
        <time>2021-02-27T10:02:05Z</time>
      </trkpt>
      <trkpt lat="45.22707" lon="6.03925">
        <ele>2037</ele>
        <time>2021-02-27T10:02:06Z</time>
      </trkpt>
      <trkpt lat="45.22707" lon="6.03925">
        <ele>2037</ele>
        <time>2021-02-27T10:02:07Z</time>
      </trkpt>
      <trkpt lat="45.22707" lon="6.03925">
        <ele>2037.2</ele>
        <time>2021-02-27T10:02:08Z</time>
      </trkpt>
      <trkpt lat="45.22709" lon="6.03927">
        <ele>2037</ele>
        <time>2021-02-27T10:02:09Z</time>
      </trkpt>
      <trkpt lat="45.22709" lon="6.03927">
        <ele>2036.8</ele>
        <time>2021-02-27T10:02:10Z</time>
      </trkpt>
      <trkpt lat="45.2271" lon="6.03928">
        <ele>2037.4</ele>
        <time>2021-02-27T10:02:11Z</time>
      </trkpt>
      <trkpt lat="45.2271" lon="6.03928">
        <ele>2037.6</ele>
        <time>2021-02-27T10:02:12Z</time>
      </trkpt>
      <trkpt lat="45.22711" lon="6.03931">
        <ele>2037.4</ele>
        <time>2021-02-27T10:02:13Z</time>
      </trkpt>
      <trkpt lat="45.22711" lon="6.03931">
        <ele>2037.2</ele>
        <time>2021-02-27T10:02:14Z</time>
      </trkpt>
      <trkpt lat="45.22713" lon="6.03933">
        <ele>2037.4</ele>
        <time>2021-02-27T10:02:15Z</time>
      </trkpt>
      <trkpt lat="45.22713" lon="6.03933">
        <ele>2037</ele>
        <time>2021-02-27T10:02:16Z</time>
      </trkpt>
      <trkpt lat="45.22714" lon="6.03935">
        <ele>2037</ele>
        <time>2021-02-27T10:02:17Z</time>
      </trkpt>
      <trkpt lat="45.22714" lon="6.03935">
        <ele>2037.2</ele>
        <time>2021-02-27T10:02:18Z</time>
      </trkpt>
      <trkpt lat="45.22716" lon="6.03937">
        <ele>2037</ele>
        <time>2021-02-27T10:02:19Z</time>
      </trkpt>
      <trkpt lat="45.22716" lon="6.03937">
        <ele>2037.4</ele>
        <time>2021-02-27T10:02:20Z</time>
      </trkpt>
      <trkpt lat="45.22717" lon="6.03939">
        <ele>2037.4</ele>
        <time>2021-02-27T10:02:21Z</time>
      </trkpt>
      <trkpt lat="45.22717" lon="6.03939">
        <ele>2037.4</ele>
        <time>2021-02-27T10:02:22Z</time>
      </trkpt>
      <trkpt lat="45.22718" lon="6.03942">
        <ele>2037.4</ele>
        <time>2021-02-27T10:02:23Z</time>
      </trkpt>
      <trkpt lat="45.22718" lon="6.03942">
        <ele>2037.6</ele>
        <time>2021-02-27T10:02:24Z</time>
      </trkpt>
      <trkpt lat="45.22719" lon="6.03945">
        <ele>2037.8</ele>
        <time>2021-02-27T10:02:25Z</time>
      </trkpt>
      <trkpt lat="45.22719" lon="6.03945">
        <ele>2038</ele>
        <time>2021-02-27T10:02:26Z</time>
      </trkpt>
      <trkpt lat="45.2272" lon="6.03947">
        <ele>2037.6</ele>
        <time>2021-02-27T10:02:27Z</time>
      </trkpt>
      <trkpt lat="45.2272" lon="6.03947">
        <ele>2038</ele>
        <time>2021-02-27T10:02:28Z</time>
      </trkpt>
      <trkpt lat="45.2272" lon="6.03947">
        <ele>2038.2</ele>
        <time>2021-02-27T10:02:29Z</time>
      </trkpt>
      <trkpt lat="45.22722" lon="6.0395">
        <ele>2038.2</ele>
        <time>2021-02-27T10:02:30Z</time>
      </trkpt>
      <trkpt lat="45.22722" lon="6.0395">
        <ele>2038.4</ele>
        <time>2021-02-27T10:02:31Z</time>
      </trkpt>
      <trkpt lat="45.22723" lon="6.03953">
        <ele>2038.4</ele>
        <time>2021-02-27T10:02:32Z</time>
      </trkpt>
      <trkpt lat="45.22723" lon="6.03953">
        <ele>2038.4</ele>
        <time>2021-02-27T10:02:33Z</time>
      </trkpt>
      <trkpt lat="45.22724" lon="6.03956">
        <ele>2039</ele>
        <time>2021-02-27T10:02:34Z</time>
      </trkpt>
      <trkpt lat="45.22724" lon="6.03956">
        <ele>2039.2</ele>
        <time>2021-02-27T10:02:35Z</time>
      </trkpt>
      <trkpt lat="45.22725" lon="6.03959">
        <ele>2039.2</ele>
        <time>2021-02-27T10:02:36Z</time>
      </trkpt>
      <trkpt lat="45.22725" lon="6.03959">
        <ele>2039.6</ele>
        <time>2021-02-27T10:02:37Z</time>
      </trkpt>
      <trkpt lat="45.22725" lon="6.03959">
        <ele>2039.2</ele>
        <time>2021-02-27T10:02:38Z</time>
      </trkpt>
      <trkpt lat="45.22726" lon="6.03962">
        <ele>2039.6</ele>
        <time>2021-02-27T10:02:39Z</time>
      </trkpt>
      <trkpt lat="45.22726" lon="6.03962">
        <ele>2040</ele>
        <time>2021-02-27T10:02:40Z</time>
      </trkpt>
      <trkpt lat="45.22726" lon="6.03962">
        <ele>2040.2</ele>
        <time>2021-02-27T10:02:41Z</time>
      </trkpt>
      <trkpt lat="45.22728" lon="6.03965">
        <ele>2040.8</ele>
        <time>2021-02-27T10:02:42Z</time>
      </trkpt>
      <trkpt lat="45.22728" lon="6.03965">
        <ele>2041</ele>
        <time>2021-02-27T10:02:43Z</time>
      </trkpt>
      <trkpt lat="45.22728" lon="6.03965">
        <ele>2041.2</ele>
        <time>2021-02-27T10:02:44Z</time>
      </trkpt>
      <trkpt lat="45.2273" lon="6.03967">
        <ele>2042</ele>
        <time>2021-02-27T10:02:45Z</time>
      </trkpt>
      <trkpt lat="45.2273" lon="6.03967">
        <ele>2042</ele>
        <time>2021-02-27T10:02:46Z</time>
      </trkpt>
      <trkpt lat="45.22733" lon="6.03968">
        <ele>2042.4</ele>
        <time>2021-02-27T10:02:47Z</time>
      </trkpt>
      <trkpt lat="45.22733" lon="6.03968">
        <ele>2042.8</ele>
        <time>2021-02-27T10:02:48Z</time>
      </trkpt>
      <trkpt lat="45.22735" lon="6.03969">
        <ele>2042.8</ele>
        <time>2021-02-27T10:02:49Z</time>
      </trkpt>
      <trkpt lat="45.22735" lon="6.03969">
        <ele>2043.4</ele>
        <time>2021-02-27T10:02:50Z</time>
      </trkpt>
      <trkpt lat="45.22737" lon="6.0397">
        <ele>2043.6</ele>
        <time>2021-02-27T10:02:51Z</time>
      </trkpt>
      <trkpt lat="45.22737" lon="6.0397">
        <ele>2043.6</ele>
        <time>2021-02-27T10:02:52Z</time>
      </trkpt>
      <trkpt lat="45.22738" lon="6.03973">
        <ele>2044</ele>
        <time>2021-02-27T10:02:53Z</time>
      </trkpt>
      <trkpt lat="45.22738" lon="6.03973">
        <ele>2044.2</ele>
        <time>2021-02-27T10:02:54Z</time>
      </trkpt>
      <trkpt lat="45.2274" lon="6.03975">
        <ele>2044.2</ele>
        <time>2021-02-27T10:02:55Z</time>
      </trkpt>
      <trkpt lat="45.2274" lon="6.03975">
        <ele>2044.6</ele>
        <time>2021-02-27T10:02:56Z</time>
      </trkpt>
      <trkpt lat="45.22741" lon="6.03977">
        <ele>2044.6</ele>
        <time>2021-02-27T10:02:57Z</time>
      </trkpt>
      <trkpt lat="45.22741" lon="6.03977">
        <ele>2044.6</ele>
        <time>2021-02-27T10:02:58Z</time>
      </trkpt>
      <trkpt lat="45.22743" lon="6.03978">
        <ele>2045.2</ele>
        <time>2021-02-27T10:02:59Z</time>
      </trkpt>
      <trkpt lat="45.22743" lon="6.03978">
        <ele>2045</ele>
        <time>2021-02-27T10:03:00Z</time>
      </trkpt>
      <trkpt lat="45.22745" lon="6.03979">
        <ele>2045.6</ele>
        <time>2021-02-27T10:03:01Z</time>
      </trkpt>
      <trkpt lat="45.22745" lon="6.03979">
        <ele>2045.6</ele>
        <time>2021-02-27T10:03:02Z</time>
      </trkpt>
      <trkpt lat="45.22746" lon="6.03981">
        <ele>2045.6</ele>
        <time>2021-02-27T10:03:03Z</time>
      </trkpt>
      <trkpt lat="45.22746" lon="6.03981">
        <ele>2046</ele>
        <time>2021-02-27T10:03:04Z</time>
      </trkpt>
      <trkpt lat="45.22748" lon="6.03983">
        <ele>2046</ele>
        <time>2021-02-27T10:03:05Z</time>
      </trkpt>
      <trkpt lat="45.22748" lon="6.03983">
        <ele>2046.4</ele>
        <time>2021-02-27T10:03:06Z</time>
      </trkpt>
      <trkpt lat="45.22748" lon="6.03983">
        <ele>2046.6</ele>
        <time>2021-02-27T10:03:07Z</time>
      </trkpt>
      <trkpt lat="45.2275" lon="6.03986">
        <ele>2046.8</ele>
        <time>2021-02-27T10:03:08Z</time>
      </trkpt>
      <trkpt lat="45.2275" lon="6.03986">
        <ele>2046.8</ele>
        <time>2021-02-27T10:03:09Z</time>
      </trkpt>
      <trkpt lat="45.2275" lon="6.03986">
        <ele>2047.2</ele>
        <time>2021-02-27T10:03:10Z</time>
      </trkpt>
      <trkpt lat="45.22751" lon="6.03988">
        <ele>2047.6</ele>
        <time>2021-02-27T10:03:11Z</time>
      </trkpt>
      <trkpt lat="45.22751" lon="6.03988">
        <ele>2047.8</ele>
        <time>2021-02-27T10:03:12Z</time>
      </trkpt>
      <trkpt lat="45.22751" lon="6.03988">
        <ele>2048</ele>
        <time>2021-02-27T10:03:13Z</time>
      </trkpt>
      <trkpt lat="45.22753" lon="6.0399">
        <ele>2048.4</ele>
        <time>2021-02-27T10:03:14Z</time>
      </trkpt>
      <trkpt lat="45.22753" lon="6.0399">
        <ele>2048.6</ele>
        <time>2021-02-27T10:03:15Z</time>
      </trkpt>
      <trkpt lat="45.22755" lon="6.03993">
        <ele>2048.8</ele>
        <time>2021-02-27T10:03:16Z</time>
      </trkpt>
      <trkpt lat="45.22755" lon="6.03993">
        <ele>2049</ele>
        <time>2021-02-27T10:03:17Z</time>
      </trkpt>
      <trkpt lat="45.22756" lon="6.03995">
        <ele>2049.6</ele>
        <time>2021-02-27T10:03:18Z</time>
      </trkpt>
      <trkpt lat="45.22756" lon="6.03995">
        <ele>2049.6</ele>
        <time>2021-02-27T10:03:19Z</time>
      </trkpt>
      <trkpt lat="45.22757" lon="6.03997">
        <ele>2050</ele>
        <time>2021-02-27T10:03:20Z</time>
      </trkpt>
      <trkpt lat="45.22757" lon="6.03997">
        <ele>2050.2</ele>
        <time>2021-02-27T10:03:21Z</time>
      </trkpt>
      <trkpt lat="45.22759" lon="6.03999">
        <ele>2050.2</ele>
        <time>2021-02-27T10:03:22Z</time>
      </trkpt>
      <trkpt lat="45.22759" lon="6.03999">
        <ele>2050.8</ele>
        <time>2021-02-27T10:03:23Z</time>
      </trkpt>
      <trkpt lat="45.22761" lon="6.04001">
        <ele>2051</ele>
        <time>2021-02-27T10:03:24Z</time>
      </trkpt>
      <trkpt lat="45.22761" lon="6.04001">
        <ele>2050.8</ele>
        <time>2021-02-27T10:03:25Z</time>
      </trkpt>
      <trkpt lat="45.22762" lon="6.04004">
        <ele>2051.2</ele>
        <time>2021-02-27T10:03:26Z</time>
      </trkpt>
      <trkpt lat="45.22762" lon="6.04004">
        <ele>2051</ele>
        <time>2021-02-27T10:03:27Z</time>
      </trkpt>
      <trkpt lat="45.22763" lon="6.04006">
        <ele>2051.2</ele>
        <time>2021-02-27T10:03:28Z</time>
      </trkpt>
      <trkpt lat="45.22763" lon="6.04006">
        <ele>2051.8</ele>
        <time>2021-02-27T10:03:29Z</time>
      </trkpt>
      <trkpt lat="45.22765" lon="6.04008">
        <ele>2051.8</ele>
        <time>2021-02-27T10:03:30Z</time>
      </trkpt>
      <trkpt lat="45.22765" lon="6.04008">
        <ele>2052.2</ele>
        <time>2021-02-27T10:03:31Z</time>
      </trkpt>
      <trkpt lat="45.22767" lon="6.04009">
        <ele>2052.2</ele>
        <time>2021-02-27T10:03:32Z</time>
      </trkpt>
      <trkpt lat="45.22767" lon="6.04009">
        <ele>2052.2</ele>
        <time>2021-02-27T10:03:33Z</time>
      </trkpt>
      <trkpt lat="45.22767" lon="6.04009">
        <ele>2052.8</ele>
        <time>2021-02-27T10:03:34Z</time>
      </trkpt>
      <trkpt lat="45.22768" lon="6.04013">
        <ele>2053</ele>
        <time>2021-02-27T10:03:35Z</time>
      </trkpt>
      <trkpt lat="45.22768" lon="6.04013">
        <ele>2053.2</ele>
        <time>2021-02-27T10:03:36Z</time>
      </trkpt>
      <trkpt lat="45.22768" lon="6.04013">
        <ele>2053.2</ele>
        <time>2021-02-27T10:03:37Z</time>
      </trkpt>
      <trkpt lat="45.22768" lon="6.04013">
        <ele>2053</ele>
        <time>2021-02-27T10:03:38Z</time>
      </trkpt>
      <trkpt lat="45.22768" lon="6.04013">
        <ele>2053</ele>
        <time>2021-02-27T10:03:39Z</time>
      </trkpt>
      <trkpt lat="45.22768" lon="6.04013">
        <ele>2053</ele>
        <time>2021-02-27T10:03:40Z</time>
      </trkpt>
      <trkpt lat="45.22768" lon="6.04013">
        <ele>2053</ele>
        <time>2021-02-27T10:03:41Z</time>
      </trkpt>
      <trkpt lat="45.22768" lon="6.04013">
        <ele>2053</ele>
        <time>2021-02-27T10:03:42Z</time>
      </trkpt>
      <trkpt lat="45.22768" lon="6.04013">
        <ele>2053</ele>
        <time>2021-02-27T10:03:43Z</time>
      </trkpt>
      <trkpt lat="45.22768" lon="6.04013">
        <ele>2053.2</ele>
        <time>2021-02-27T10:03:44Z</time>
      </trkpt>
      <trkpt lat="45.22768" lon="6.04013">
        <ele>2053</ele>
        <time>2021-02-27T10:03:45Z</time>
      </trkpt>
      <trkpt lat="45.22768" lon="6.04013">
        <ele>2053</ele>
        <time>2021-02-27T10:03:46Z</time>
      </trkpt>
      <trkpt lat="45.22768" lon="6.04013">
        <ele>2053</ele>
        <time>2021-02-27T10:03:47Z</time>
      </trkpt>
      <trkpt lat="45.22768" lon="6.04013">
        <ele>2053</ele>
        <time>2021-02-27T10:03:48Z</time>
      </trkpt>
      <trkpt lat="45.22768" lon="6.04013">
        <ele>2053</ele>
        <time>2021-02-27T10:03:49Z</time>
      </trkpt>
      <trkpt lat="45.22768" lon="6.04013">
        <ele>2053.2</ele>
        <time>2021-02-27T10:03:50Z</time>
      </trkpt>
      <trkpt lat="45.22768" lon="6.04013">
        <ele>2053.2</ele>
        <time>2021-02-27T10:03:51Z</time>
      </trkpt>
      <trkpt lat="45.22768" lon="6.04013">
        <ele>2053</ele>
        <time>2021-02-27T10:03:52Z</time>
      </trkpt>
      <trkpt lat="45.22768" lon="6.04013">
        <ele>2053</ele>
        <time>2021-02-27T10:03:53Z</time>
      </trkpt>
      <trkpt lat="45.22769" lon="6.0401">
        <ele>2053</ele>
        <time>2021-02-27T10:03:54Z</time>
      </trkpt>
      <trkpt lat="45.22769" lon="6.0401">
        <ele>2053</ele>
        <time>2021-02-27T10:03:55Z</time>
      </trkpt>
      <trkpt lat="45.22769" lon="6.0401">
        <ele>2053.4</ele>
        <time>2021-02-27T10:03:56Z</time>
      </trkpt>
      <trkpt lat="45.22771" lon="6.04011">
        <ele>2053.8</ele>
        <time>2021-02-27T10:03:57Z</time>
      </trkpt>
      <trkpt lat="45.22771" lon="6.04011">
        <ele>2053.8</ele>
        <time>2021-02-27T10:03:58Z</time>
      </trkpt>
      <trkpt lat="45.22773" lon="6.04012">
        <ele>2054.4</ele>
        <time>2021-02-27T10:03:59Z</time>
      </trkpt>
      <trkpt lat="45.22773" lon="6.04012">
        <ele>2054.2</ele>
        <time>2021-02-27T10:04:00Z</time>
      </trkpt>
      <trkpt lat="45.22775" lon="6.04013">
        <ele>2054.4</ele>
        <time>2021-02-27T10:04:01Z</time>
      </trkpt>
      <trkpt lat="45.22775" lon="6.04013">
        <ele>2054.8</ele>
        <time>2021-02-27T10:04:02Z</time>
      </trkpt>
      <trkpt lat="45.22777" lon="6.04013">
        <ele>2055</ele>
        <time>2021-02-27T10:04:03Z</time>
      </trkpt>
      <trkpt lat="45.22777" lon="6.04013">
        <ele>2055</ele>
        <time>2021-02-27T10:04:04Z</time>
      </trkpt>
      <trkpt lat="45.22777" lon="6.04013">
        <ele>2055.6</ele>
        <time>2021-02-27T10:04:05Z</time>
      </trkpt>
      <trkpt lat="45.2278" lon="6.04014">
        <ele>2056</ele>
        <time>2021-02-27T10:04:06Z</time>
      </trkpt>
      <trkpt lat="45.2278" lon="6.04014">
        <ele>2056.2</ele>
        <time>2021-02-27T10:04:07Z</time>
      </trkpt>
      <trkpt lat="45.2278" lon="6.04014">
        <ele>2056.4</ele>
        <time>2021-02-27T10:04:08Z</time>
      </trkpt>
      <trkpt lat="45.22782" lon="6.04015">
        <ele>2056.2</ele>
        <time>2021-02-27T10:04:09Z</time>
      </trkpt>
      <trkpt lat="45.22782" lon="6.04015">
        <ele>2057</ele>
        <time>2021-02-27T10:04:10Z</time>
      </trkpt>
      <trkpt lat="45.22784" lon="6.04017">
        <ele>2057.2</ele>
        <time>2021-02-27T10:04:11Z</time>
      </trkpt>
      <trkpt lat="45.22784" lon="6.04017">
        <ele>2057.2</ele>
        <time>2021-02-27T10:04:12Z</time>
      </trkpt>
      <trkpt lat="45.22786" lon="6.04018">
        <ele>2057.6</ele>
        <time>2021-02-27T10:04:13Z</time>
      </trkpt>
      <trkpt lat="45.22786" lon="6.04018">
        <ele>2057.6</ele>
        <time>2021-02-27T10:04:14Z</time>
      </trkpt>
      <trkpt lat="45.22789" lon="6.04019">
        <ele>2058.4</ele>
        <time>2021-02-27T10:04:15Z</time>
      </trkpt>
      <trkpt lat="45.22789" lon="6.04019">
        <ele>2058.6</ele>
        <time>2021-02-27T10:04:16Z</time>
      </trkpt>
      <trkpt lat="45.22791" lon="6.04021">
        <ele>2058.6</ele>
        <time>2021-02-27T10:04:17Z</time>
      </trkpt>
      <trkpt lat="45.22791" lon="6.04021">
        <ele>2059</ele>
        <time>2021-02-27T10:04:18Z</time>
      </trkpt>
      <trkpt lat="45.22793" lon="6.04022">
        <ele>2059</ele>
        <time>2021-02-27T10:04:19Z</time>
      </trkpt>
      <trkpt lat="45.22793" lon="6.04022">
        <ele>2059</ele>
        <time>2021-02-27T10:04:20Z</time>
      </trkpt>
      <trkpt lat="45.22793" lon="6.04022">
        <ele>2059.4</ele>
        <time>2021-02-27T10:04:21Z</time>
      </trkpt>
      <trkpt lat="45.22795" lon="6.04024">
        <ele>2059.4</ele>
        <time>2021-02-27T10:04:22Z</time>
      </trkpt>
      <trkpt lat="45.22795" lon="6.04024">
        <ele>2060</ele>
        <time>2021-02-27T10:04:23Z</time>
      </trkpt>
      <trkpt lat="45.22798" lon="6.04025">
        <ele>2060.2</ele>
        <time>2021-02-27T10:04:24Z</time>
      </trkpt>
      <trkpt lat="45.22798" lon="6.04025">
        <ele>2060.2</ele>
        <time>2021-02-27T10:04:25Z</time>
      </trkpt>
      <trkpt lat="45.22799" lon="6.04026">
        <ele>2060.6</ele>
        <time>2021-02-27T10:04:26Z</time>
      </trkpt>
      <trkpt lat="45.22799" lon="6.04026">
        <ele>2060.6</ele>
        <time>2021-02-27T10:04:27Z</time>
      </trkpt>
      <trkpt lat="45.22801" lon="6.04027">
        <ele>2061.2</ele>
        <time>2021-02-27T10:04:28Z</time>
      </trkpt>
      <trkpt lat="45.22801" lon="6.04027">
        <ele>2061.4</ele>
        <time>2021-02-27T10:04:29Z</time>
      </trkpt>
      <trkpt lat="45.22803" lon="6.04029">
        <ele>2061.4</ele>
        <time>2021-02-27T10:04:30Z</time>
      </trkpt>
      <trkpt lat="45.22803" lon="6.04029">
        <ele>2062</ele>
        <time>2021-02-27T10:04:31Z</time>
      </trkpt>
      <trkpt lat="45.22805" lon="6.0403">
        <ele>2062</ele>
        <time>2021-02-27T10:04:32Z</time>
      </trkpt>
      <trkpt lat="45.22805" lon="6.0403">
        <ele>2062.4</ele>
        <time>2021-02-27T10:04:33Z</time>
      </trkpt>
      <trkpt lat="45.22805" lon="6.0403">
        <ele>2062.8</ele>
        <time>2021-02-27T10:04:34Z</time>
      </trkpt>
      <trkpt lat="45.22807" lon="6.04031">
        <ele>2062.6</ele>
        <time>2021-02-27T10:04:35Z</time>
      </trkpt>
      <trkpt lat="45.22807" lon="6.04031">
        <ele>2063</ele>
        <time>2021-02-27T10:04:36Z</time>
      </trkpt>
      <trkpt lat="45.22807" lon="6.04031">
        <ele>2063.4</ele>
        <time>2021-02-27T10:04:37Z</time>
      </trkpt>
      <trkpt lat="45.22809" lon="6.04032">
        <ele>2064</ele>
        <time>2021-02-27T10:04:38Z</time>
      </trkpt>
      <trkpt lat="45.22809" lon="6.04032">
        <ele>2063.8</ele>
        <time>2021-02-27T10:04:39Z</time>
      </trkpt>
      <trkpt lat="45.22809" lon="6.04032">
        <ele>2064</ele>
        <time>2021-02-27T10:04:40Z</time>
      </trkpt>
      <trkpt lat="45.22811" lon="6.04033">
        <ele>2064.4</ele>
        <time>2021-02-27T10:04:41Z</time>
      </trkpt>
      <trkpt lat="45.22811" lon="6.04033">
        <ele>2064.2</ele>
        <time>2021-02-27T10:04:42Z</time>
      </trkpt>
      <trkpt lat="45.22813" lon="6.04034">
        <ele>2064.4</ele>
        <time>2021-02-27T10:04:43Z</time>
      </trkpt>
      <trkpt lat="45.22813" lon="6.04034">
        <ele>2064.8</ele>
        <time>2021-02-27T10:04:44Z</time>
      </trkpt>
      <trkpt lat="45.22815" lon="6.04035">
        <ele>2065</ele>
        <time>2021-02-27T10:04:45Z</time>
      </trkpt>
      <trkpt lat="45.22815" lon="6.04035">
        <ele>2064.8</ele>
        <time>2021-02-27T10:04:46Z</time>
      </trkpt>
      <trkpt lat="45.22817" lon="6.04037">
        <ele>2065</ele>
        <time>2021-02-27T10:04:47Z</time>
      </trkpt>
      <trkpt lat="45.22817" lon="6.04037">
        <ele>2065</ele>
        <time>2021-02-27T10:04:48Z</time>
      </trkpt>
      <trkpt lat="45.22819" lon="6.04038">
        <ele>2065.2</ele>
        <time>2021-02-27T10:04:49Z</time>
      </trkpt>
      <trkpt lat="45.22819" lon="6.04038">
        <ele>2065.4</ele>
        <time>2021-02-27T10:04:50Z</time>
      </trkpt>
      <trkpt lat="45.22819" lon="6.04038">
        <ele>2065.8</ele>
        <time>2021-02-27T10:04:51Z</time>
      </trkpt>
      <trkpt lat="45.2282" lon="6.04041">
        <ele>2066</ele>
        <time>2021-02-27T10:04:52Z</time>
      </trkpt>
      <trkpt lat="45.2282" lon="6.04041">
        <ele>2066.2</ele>
        <time>2021-02-27T10:04:53Z</time>
      </trkpt>
      <trkpt lat="45.22822" lon="6.04043">
        <ele>2066.2</ele>
        <time>2021-02-27T10:04:54Z</time>
      </trkpt>
      <trkpt lat="45.22822" lon="6.04043">
        <ele>2066.4</ele>
        <time>2021-02-27T10:04:55Z</time>
      </trkpt>
      <trkpt lat="45.22824" lon="6.04045">
        <ele>2066.6</ele>
        <time>2021-02-27T10:04:56Z</time>
      </trkpt>
      <trkpt lat="45.22824" lon="6.04045">
        <ele>2066.8</ele>
        <time>2021-02-27T10:04:57Z</time>
      </trkpt>
      <trkpt lat="45.22824" lon="6.04048">
        <ele>2067.2</ele>
        <time>2021-02-27T10:04:58Z</time>
      </trkpt>
      <trkpt lat="45.22824" lon="6.04048">
        <ele>2067.4</ele>
        <time>2021-02-27T10:04:59Z</time>
      </trkpt>
      <trkpt lat="45.22825" lon="6.04051">
        <ele>2067.6</ele>
        <time>2021-02-27T10:05:00Z</time>
      </trkpt>
      <trkpt lat="45.22825" lon="6.04051">
        <ele>2068.2</ele>
        <time>2021-02-27T10:05:01Z</time>
      </trkpt>
      <trkpt lat="45.22826" lon="6.04055">
        <ele>2068.4</ele>
        <time>2021-02-27T10:05:02Z</time>
      </trkpt>
      <trkpt lat="45.22826" lon="6.04055">
        <ele>2068.4</ele>
        <time>2021-02-27T10:05:03Z</time>
      </trkpt>
      <trkpt lat="45.22826" lon="6.04057">
        <ele>2068.6</ele>
        <time>2021-02-27T10:05:04Z</time>
      </trkpt>
      <trkpt lat="45.22826" lon="6.04057">
        <ele>2068.6</ele>
        <time>2021-02-27T10:05:05Z</time>
      </trkpt>
      <trkpt lat="45.22827" lon="6.0406">
        <ele>2069</ele>
        <time>2021-02-27T10:05:06Z</time>
      </trkpt>
      <trkpt lat="45.22827" lon="6.0406">
        <ele>2069.2</ele>
        <time>2021-02-27T10:05:07Z</time>
      </trkpt>
      <trkpt lat="45.22827" lon="6.04064">
        <ele>2069.6</ele>
        <time>2021-02-27T10:05:08Z</time>
      </trkpt>
      <trkpt lat="45.22827" lon="6.04064">
        <ele>2069.8</ele>
        <time>2021-02-27T10:05:09Z</time>
      </trkpt>
      <trkpt lat="45.22829" lon="6.04066">
        <ele>2070</ele>
        <time>2021-02-27T10:05:10Z</time>
      </trkpt>
      <trkpt lat="45.22829" lon="6.04066">
        <ele>2070.4</ele>
        <time>2021-02-27T10:05:11Z</time>
      </trkpt>
      <trkpt lat="45.2283" lon="6.04069">
        <ele>2070.8</ele>
        <time>2021-02-27T10:05:12Z</time>
      </trkpt>
      <trkpt lat="45.2283" lon="6.04069">
        <ele>2071.2</ele>
        <time>2021-02-27T10:05:13Z</time>
      </trkpt>
      <trkpt lat="45.2283" lon="6.04069">
        <ele>2071.2</ele>
        <time>2021-02-27T10:05:14Z</time>
      </trkpt>
      <trkpt lat="45.22832" lon="6.04071">
        <ele>2071.4</ele>
        <time>2021-02-27T10:05:15Z</time>
      </trkpt>
      <trkpt lat="45.22832" lon="6.04071">
        <ele>2071.8</ele>
        <time>2021-02-27T10:05:16Z</time>
      </trkpt>
      <trkpt lat="45.22834" lon="6.04074">
        <ele>2072</ele>
        <time>2021-02-27T10:05:17Z</time>
      </trkpt>
      <trkpt lat="45.22834" lon="6.04074">
        <ele>2072.4</ele>
        <time>2021-02-27T10:05:18Z</time>
      </trkpt>
      <trkpt lat="45.22835" lon="6.04076">
        <ele>2072.4</ele>
        <time>2021-02-27T10:05:19Z</time>
      </trkpt>
      <trkpt lat="45.22835" lon="6.04076">
        <ele>2072.8</ele>
        <time>2021-02-27T10:05:20Z</time>
      </trkpt>
      <trkpt lat="45.22837" lon="6.04078">
        <ele>2072.8</ele>
        <time>2021-02-27T10:05:21Z</time>
      </trkpt>
      <trkpt lat="45.22837" lon="6.04078">
        <ele>2073</ele>
        <time>2021-02-27T10:05:22Z</time>
      </trkpt>
      <trkpt lat="45.22837" lon="6.04078">
        <ele>2073.4</ele>
        <time>2021-02-27T10:05:23Z</time>
      </trkpt>
      <trkpt lat="45.22839" lon="6.0408">
        <ele>2073.6</ele>
        <time>2021-02-27T10:05:24Z</time>
      </trkpt>
      <trkpt lat="45.22839" lon="6.0408">
        <ele>2073.8</ele>
        <time>2021-02-27T10:05:25Z</time>
      </trkpt>
      <trkpt lat="45.22841" lon="6.04081">
        <ele>2073.6</ele>
        <time>2021-02-27T10:05:26Z</time>
      </trkpt>
      <trkpt lat="45.22841" lon="6.04081">
        <ele>2073.8</ele>
        <time>2021-02-27T10:05:27Z</time>
      </trkpt>
      <trkpt lat="45.22843" lon="6.04082">
        <ele>2074</ele>
        <time>2021-02-27T10:05:28Z</time>
      </trkpt>
      <trkpt lat="45.22843" lon="6.04082">
        <ele>2074.2</ele>
        <time>2021-02-27T10:05:29Z</time>
      </trkpt>
      <trkpt lat="45.22843" lon="6.04082">
        <ele>2074.6</ele>
        <time>2021-02-27T10:05:30Z</time>
      </trkpt>
      <trkpt lat="45.22845" lon="6.04083">
        <ele>2074.8</ele>
        <time>2021-02-27T10:05:31Z</time>
      </trkpt>
      <trkpt lat="45.22845" lon="6.04083">
        <ele>2075.2</ele>
        <time>2021-02-27T10:05:32Z</time>
      </trkpt>
      <trkpt lat="45.22848" lon="6.04083">
        <ele>2075.6</ele>
        <time>2021-02-27T10:05:33Z</time>
      </trkpt>
      <trkpt lat="45.22848" lon="6.04083">
        <ele>2075.8</ele>
        <time>2021-02-27T10:05:34Z</time>
      </trkpt>
      <trkpt lat="45.2285" lon="6.04084">
        <ele>2076</ele>
        <time>2021-02-27T10:05:35Z</time>
      </trkpt>
      <trkpt lat="45.2285" lon="6.04084">
        <ele>2076.2</ele>
        <time>2021-02-27T10:05:36Z</time>
      </trkpt>
      <trkpt lat="45.22853" lon="6.04085">
        <ele>2076.4</ele>
        <time>2021-02-27T10:05:37Z</time>
      </trkpt>
      <trkpt lat="45.22853" lon="6.04085">
        <ele>2076.6</ele>
        <time>2021-02-27T10:05:38Z</time>
      </trkpt>
      <trkpt lat="45.22853" lon="6.04085">
        <ele>2076.8</ele>
        <time>2021-02-27T10:05:39Z</time>
      </trkpt>
      <trkpt lat="45.22855" lon="6.04086">
        <ele>2077</ele>
        <time>2021-02-27T10:05:40Z</time>
      </trkpt>
      <trkpt lat="45.22855" lon="6.04086">
        <ele>2077</ele>
        <time>2021-02-27T10:05:41Z</time>
      </trkpt>
      <trkpt lat="45.22857" lon="6.04087">
        <ele>2077.2</ele>
        <time>2021-02-27T10:05:42Z</time>
      </trkpt>
      <trkpt lat="45.22857" lon="6.04087">
        <ele>2077.2</ele>
        <time>2021-02-27T10:05:43Z</time>
      </trkpt>
      <trkpt lat="45.22859" lon="6.04088">
        <ele>2077.6</ele>
        <time>2021-02-27T10:05:44Z</time>
      </trkpt>
      <trkpt lat="45.22859" lon="6.04088">
        <ele>2077.8</ele>
        <time>2021-02-27T10:05:45Z</time>
      </trkpt>
      <trkpt lat="45.22859" lon="6.04088">
        <ele>2078</ele>
        <time>2021-02-27T10:05:46Z</time>
      </trkpt>
      <trkpt lat="45.2286" lon="6.0409">
        <ele>2078.4</ele>
        <time>2021-02-27T10:05:47Z</time>
      </trkpt>
      <trkpt lat="45.2286" lon="6.0409">
        <ele>2078.6</ele>
        <time>2021-02-27T10:05:48Z</time>
      </trkpt>
      <trkpt lat="45.2286" lon="6.0409">
        <ele>2078.8</ele>
        <time>2021-02-27T10:05:49Z</time>
      </trkpt>
      <trkpt lat="45.22862" lon="6.04092">
        <ele>2079</ele>
        <time>2021-02-27T10:05:50Z</time>
      </trkpt>
      <trkpt lat="45.22862" lon="6.04092">
        <ele>2079</ele>
        <time>2021-02-27T10:05:51Z</time>
      </trkpt>
      <trkpt lat="45.22862" lon="6.04092">
        <ele>2079.2</ele>
        <time>2021-02-27T10:05:52Z</time>
      </trkpt>
      <trkpt lat="45.22862" lon="6.04094">
        <ele>2079.4</ele>
        <time>2021-02-27T10:05:53Z</time>
      </trkpt>
      <trkpt lat="45.22862" lon="6.04094">
        <ele>2079.6</ele>
        <time>2021-02-27T10:05:54Z</time>
      </trkpt>
      <trkpt lat="45.22862" lon="6.04094">
        <ele>2080</ele>
        <time>2021-02-27T10:05:55Z</time>
      </trkpt>
      <trkpt lat="45.22863" lon="6.04098">
        <ele>2080.2</ele>
        <time>2021-02-27T10:05:56Z</time>
      </trkpt>
      <trkpt lat="45.22863" lon="6.04098">
        <ele>2080.4</ele>
        <time>2021-02-27T10:05:57Z</time>
      </trkpt>
      <trkpt lat="45.22863" lon="6.04098">
        <ele>2080.6</ele>
        <time>2021-02-27T10:05:58Z</time>
      </trkpt>
      <trkpt lat="45.22865" lon="6.04099">
        <ele>2080.8</ele>
        <time>2021-02-27T10:05:59Z</time>
      </trkpt>
      <trkpt lat="45.22865" lon="6.04099">
        <ele>2081</ele>
        <time>2021-02-27T10:06:00Z</time>
      </trkpt>
      <trkpt lat="45.22865" lon="6.04099">
        <ele>2081.4</ele>
        <time>2021-02-27T10:06:01Z</time>
      </trkpt>
      <trkpt lat="45.22867" lon="6.04101">
        <ele>2081.8</ele>
        <time>2021-02-27T10:06:02Z</time>
      </trkpt>
      <trkpt lat="45.22867" lon="6.04101">
        <ele>2082</ele>
        <time>2021-02-27T10:06:03Z</time>
      </trkpt>
      <trkpt lat="45.22867" lon="6.04101">
        <ele>2082</ele>
        <time>2021-02-27T10:06:04Z</time>
      </trkpt>
      <trkpt lat="45.22869" lon="6.04104">
        <ele>2082.2</ele>
        <time>2021-02-27T10:06:05Z</time>
      </trkpt>
      <trkpt lat="45.22869" lon="6.04104">
        <ele>2082.6</ele>
        <time>2021-02-27T10:06:06Z</time>
      </trkpt>
      <trkpt lat="45.22869" lon="6.04104">
        <ele>2082.6</ele>
        <time>2021-02-27T10:06:07Z</time>
      </trkpt>
      <trkpt lat="45.22871" lon="6.04105">
        <ele>2082.6</ele>
        <time>2021-02-27T10:06:08Z</time>
      </trkpt>
      <trkpt lat="45.22871" lon="6.04105">
        <ele>2082.6</ele>
        <time>2021-02-27T10:06:09Z</time>
      </trkpt>
      <trkpt lat="45.22873" lon="6.04105">
        <ele>2083</ele>
        <time>2021-02-27T10:06:10Z</time>
      </trkpt>
      <trkpt lat="45.22873" lon="6.04105">
        <ele>2083.2</ele>
        <time>2021-02-27T10:06:11Z</time>
      </trkpt>
      <trkpt lat="45.22875" lon="6.04106">
        <ele>2083.2</ele>
        <time>2021-02-27T10:06:12Z</time>
      </trkpt>
      <trkpt lat="45.22875" lon="6.04106">
        <ele>2083.4</ele>
        <time>2021-02-27T10:06:13Z</time>
      </trkpt>
      <trkpt lat="45.22877" lon="6.04106">
        <ele>2083.8</ele>
        <time>2021-02-27T10:06:14Z</time>
      </trkpt>
      <trkpt lat="45.22877" lon="6.04106">
        <ele>2084</ele>
        <time>2021-02-27T10:06:15Z</time>
      </trkpt>
      <trkpt lat="45.2288" lon="6.04106">
        <ele>2083.8</ele>
        <time>2021-02-27T10:06:16Z</time>
      </trkpt>
      <trkpt lat="45.2288" lon="6.04106">
        <ele>2084</ele>
        <time>2021-02-27T10:06:17Z</time>
      </trkpt>
      <trkpt lat="45.22882" lon="6.04107">
        <ele>2084.2</ele>
        <time>2021-02-27T10:06:18Z</time>
      </trkpt>
      <trkpt lat="45.22882" lon="6.04107">
        <ele>2084.4</ele>
        <time>2021-02-27T10:06:19Z</time>
      </trkpt>
      <trkpt lat="45.22882" lon="6.04107">
        <ele>2084.4</ele>
        <time>2021-02-27T10:06:20Z</time>
      </trkpt>
      <trkpt lat="45.22884" lon="6.04108">
        <ele>2084.6</ele>
        <time>2021-02-27T10:06:21Z</time>
      </trkpt>
      <trkpt lat="45.22884" lon="6.04108">
        <ele>2084.8</ele>
        <time>2021-02-27T10:06:22Z</time>
      </trkpt>
      <trkpt lat="45.22884" lon="6.04108">
        <ele>2085.2</ele>
        <time>2021-02-27T10:06:23Z</time>
      </trkpt>
      <trkpt lat="45.22886" lon="6.04109">
        <ele>2085.2</ele>
        <time>2021-02-27T10:06:24Z</time>
      </trkpt>
      <trkpt lat="45.22886" lon="6.04109">
        <ele>2085.2</ele>
        <time>2021-02-27T10:06:25Z</time>
      </trkpt>
      <trkpt lat="45.22886" lon="6.04109">
        <ele>2085.4</ele>
        <time>2021-02-27T10:06:26Z</time>
      </trkpt>
      <trkpt lat="45.22889" lon="6.04109">
        <ele>2085.6</ele>
        <time>2021-02-27T10:06:27Z</time>
      </trkpt>
      <trkpt lat="45.22889" lon="6.04109">
        <ele>2086</ele>
        <time>2021-02-27T10:06:28Z</time>
      </trkpt>
      <trkpt lat="45.22889" lon="6.04109">
        <ele>2086</ele>
        <time>2021-02-27T10:06:29Z</time>
      </trkpt>
      <trkpt lat="45.22891" lon="6.04109">
        <ele>2086.2</ele>
        <time>2021-02-27T10:06:30Z</time>
      </trkpt>
      <trkpt lat="45.22891" lon="6.04109">
        <ele>2086.4</ele>
        <time>2021-02-27T10:06:31Z</time>
      </trkpt>
      <trkpt lat="45.22891" lon="6.04109">
        <ele>2086.6</ele>
        <time>2021-02-27T10:06:32Z</time>
      </trkpt>
      <trkpt lat="45.22893" lon="6.0411">
        <ele>2086.8</ele>
        <time>2021-02-27T10:06:33Z</time>
      </trkpt>
      <trkpt lat="45.22893" lon="6.0411">
        <ele>2086.8</ele>
        <time>2021-02-27T10:06:34Z</time>
      </trkpt>
      <trkpt lat="45.22893" lon="6.0411">
        <ele>2087.2</ele>
        <time>2021-02-27T10:06:35Z</time>
      </trkpt>
      <trkpt lat="45.22895" lon="6.04111">
        <ele>2087.4</ele>
        <time>2021-02-27T10:06:36Z</time>
      </trkpt>
      <trkpt lat="45.22895" lon="6.04111">
        <ele>2087.6</ele>
        <time>2021-02-27T10:06:37Z</time>
      </trkpt>
      <trkpt lat="45.22897" lon="6.04112">
        <ele>2087.8</ele>
        <time>2021-02-27T10:06:38Z</time>
      </trkpt>
      <trkpt lat="45.22897" lon="6.04112">
        <ele>2088</ele>
        <time>2021-02-27T10:06:39Z</time>
      </trkpt>
      <trkpt lat="45.22897" lon="6.04112">
        <ele>2088.2</ele>
        <time>2021-02-27T10:06:40Z</time>
      </trkpt>
      <trkpt lat="45.22899" lon="6.04113">
        <ele>2088.4</ele>
        <time>2021-02-27T10:06:41Z</time>
      </trkpt>
      <trkpt lat="45.22899" lon="6.04113">
        <ele>2088.4</ele>
        <time>2021-02-27T10:06:42Z</time>
      </trkpt>
      <trkpt lat="45.22899" lon="6.04113">
        <ele>2088.6</ele>
        <time>2021-02-27T10:06:43Z</time>
      </trkpt>
      <trkpt lat="45.22902" lon="6.04114">
        <ele>2088.8</ele>
        <time>2021-02-27T10:06:44Z</time>
      </trkpt>
      <trkpt lat="45.22902" lon="6.04114">
        <ele>2089</ele>
        <time>2021-02-27T10:06:45Z</time>
      </trkpt>
      <trkpt lat="45.22904" lon="6.04115">
        <ele>2089.2</ele>
        <time>2021-02-27T10:06:46Z</time>
      </trkpt>
      <trkpt lat="45.22904" lon="6.04115">
        <ele>2089.6</ele>
        <time>2021-02-27T10:06:47Z</time>
      </trkpt>
      <trkpt lat="45.22906" lon="6.04116">
        <ele>2090</ele>
        <time>2021-02-27T10:06:48Z</time>
      </trkpt>
      <trkpt lat="45.22906" lon="6.04116">
        <ele>2090.2</ele>
        <time>2021-02-27T10:06:49Z</time>
      </trkpt>
      <trkpt lat="45.22908" lon="6.04116">
        <ele>2090.8</ele>
        <time>2021-02-27T10:06:50Z</time>
      </trkpt>
      <trkpt lat="45.22908" lon="6.04116">
        <ele>2091</ele>
        <time>2021-02-27T10:06:51Z</time>
      </trkpt>
      <trkpt lat="45.2291" lon="6.04116">
        <ele>2091.2</ele>
        <time>2021-02-27T10:06:52Z</time>
      </trkpt>
      <trkpt lat="45.2291" lon="6.04116">
        <ele>2091.2</ele>
        <time>2021-02-27T10:06:53Z</time>
      </trkpt>
      <trkpt lat="45.22911" lon="6.04117">
        <ele>2091.4</ele>
        <time>2021-02-27T10:06:54Z</time>
      </trkpt>
      <trkpt lat="45.22911" lon="6.04117">
        <ele>2091.8</ele>
        <time>2021-02-27T10:06:55Z</time>
      </trkpt>
      <trkpt lat="45.22911" lon="6.04117">
        <ele>2092</ele>
        <time>2021-02-27T10:06:56Z</time>
      </trkpt>
      <trkpt lat="45.22914" lon="6.04118">
        <ele>2092.2</ele>
        <time>2021-02-27T10:06:57Z</time>
      </trkpt>
      <trkpt lat="45.22914" lon="6.04118">
        <ele>2092.6</ele>
        <time>2021-02-27T10:06:58Z</time>
      </trkpt>
      <trkpt lat="45.22916" lon="6.04119">
        <ele>2092.8</ele>
        <time>2021-02-27T10:06:59Z</time>
      </trkpt>
      <trkpt lat="45.22916" lon="6.04119">
        <ele>2093</ele>
        <time>2021-02-27T10:07:00Z</time>
      </trkpt>
      <trkpt lat="45.22918" lon="6.0412">
        <ele>2093</ele>
        <time>2021-02-27T10:07:01Z</time>
      </trkpt>
      <trkpt lat="45.22918" lon="6.0412">
        <ele>2093.2</ele>
        <time>2021-02-27T10:07:02Z</time>
      </trkpt>
      <trkpt lat="45.2292" lon="6.04121">
        <ele>2093.4</ele>
        <time>2021-02-27T10:07:03Z</time>
      </trkpt>
      <trkpt lat="45.2292" lon="6.04121">
        <ele>2093.6</ele>
        <time>2021-02-27T10:07:04Z</time>
      </trkpt>
      <trkpt lat="45.2292" lon="6.04121">
        <ele>2093.8</ele>
        <time>2021-02-27T10:07:05Z</time>
      </trkpt>
      <trkpt lat="45.22923" lon="6.04122">
        <ele>2093.8</ele>
        <time>2021-02-27T10:07:06Z</time>
      </trkpt>
      <trkpt lat="45.22923" lon="6.04122">
        <ele>2094</ele>
        <time>2021-02-27T10:07:07Z</time>
      </trkpt>
      <trkpt lat="45.22925" lon="6.04123">
        <ele>2094.4</ele>
        <time>2021-02-27T10:07:08Z</time>
      </trkpt>
      <trkpt lat="45.22925" lon="6.04123">
        <ele>2094.6</ele>
        <time>2021-02-27T10:07:09Z</time>
      </trkpt>
      <trkpt lat="45.22925" lon="6.04123">
        <ele>2095</ele>
        <time>2021-02-27T10:07:10Z</time>
      </trkpt>
      <trkpt lat="45.22927" lon="6.04124">
        <ele>2094.8</ele>
        <time>2021-02-27T10:07:11Z</time>
      </trkpt>
      <trkpt lat="45.22927" lon="6.04124">
        <ele>2095.2</ele>
        <time>2021-02-27T10:07:12Z</time>
      </trkpt>
      <trkpt lat="45.2293" lon="6.04123">
        <ele>2095.2</ele>
        <time>2021-02-27T10:07:13Z</time>
      </trkpt>
      <trkpt lat="45.2293" lon="6.04123">
        <ele>2095.6</ele>
        <time>2021-02-27T10:07:14Z</time>
      </trkpt>
      <trkpt lat="45.2293" lon="6.04123">
        <ele>2096</ele>
        <time>2021-02-27T10:07:15Z</time>
      </trkpt>
      <trkpt lat="45.22932" lon="6.04123">
        <ele>2096.4</ele>
        <time>2021-02-27T10:07:16Z</time>
      </trkpt>
      <trkpt lat="45.22932" lon="6.04123">
        <ele>2096.6</ele>
        <time>2021-02-27T10:07:17Z</time>
      </trkpt>
      <trkpt lat="45.22934" lon="6.04123">
        <ele>2097</ele>
        <time>2021-02-27T10:07:18Z</time>
      </trkpt>
      <trkpt lat="45.22934" lon="6.04123">
        <ele>2097.2</ele>
        <time>2021-02-27T10:07:19Z</time>
      </trkpt>
      <trkpt lat="45.22936" lon="6.04124">
        <ele>2097.8</ele>
        <time>2021-02-27T10:07:20Z</time>
      </trkpt>
      <trkpt lat="45.22936" lon="6.04124">
        <ele>2097.8</ele>
        <time>2021-02-27T10:07:21Z</time>
      </trkpt>
      <trkpt lat="45.22938" lon="6.04124">
        <ele>2098.4</ele>
        <time>2021-02-27T10:07:22Z</time>
      </trkpt>
      <trkpt lat="45.22938" lon="6.04124">
        <ele>2098.6</ele>
        <time>2021-02-27T10:07:23Z</time>
      </trkpt>
      <trkpt lat="45.2294" lon="6.04124">
        <ele>2099</ele>
        <time>2021-02-27T10:07:24Z</time>
      </trkpt>
      <trkpt lat="45.2294" lon="6.04124">
        <ele>2099.4</ele>
        <time>2021-02-27T10:07:25Z</time>
      </trkpt>
      <trkpt lat="45.22943" lon="6.04124">
        <ele>2099.6</ele>
        <time>2021-02-27T10:07:26Z</time>
      </trkpt>
      <trkpt lat="45.22945" lon="6.04124">
        <ele>2099.8</ele>
        <time>2021-02-27T10:07:27Z</time>
      </trkpt>
      <trkpt lat="45.22945" lon="6.04124">
        <ele>2100.4</ele>
        <time>2021-02-27T10:07:28Z</time>
      </trkpt>
      <trkpt lat="45.22947" lon="6.04124">
        <ele>2100.6</ele>
        <time>2021-02-27T10:07:29Z</time>
      </trkpt>
      <trkpt lat="45.22947" lon="6.04124">
        <ele>2100.8</ele>
        <time>2021-02-27T10:07:30Z</time>
      </trkpt>
      <trkpt lat="45.22947" lon="6.04124">
        <ele>2101</ele>
        <time>2021-02-27T10:07:31Z</time>
      </trkpt>
      <trkpt lat="45.22949" lon="6.04124">
        <ele>2101.4</ele>
        <time>2021-02-27T10:07:32Z</time>
      </trkpt>
      <trkpt lat="45.22949" lon="6.04124">
        <ele>2101.8</ele>
        <time>2021-02-27T10:07:33Z</time>
      </trkpt>
      <trkpt lat="45.22949" lon="6.04124">
        <ele>2102</ele>
        <time>2021-02-27T10:07:34Z</time>
      </trkpt>
      <trkpt lat="45.22949" lon="6.04124">
        <ele>2102.4</ele>
        <time>2021-02-27T10:07:35Z</time>
      </trkpt>
      <trkpt lat="45.22952" lon="6.04124">
        <ele>2102.6</ele>
        <time>2021-02-27T10:07:36Z</time>
      </trkpt>
      <trkpt lat="45.22952" lon="6.04124">
        <ele>2102.8</ele>
        <time>2021-02-27T10:07:37Z</time>
      </trkpt>
      <trkpt lat="45.22954" lon="6.04125">
        <ele>2103.2</ele>
        <time>2021-02-27T10:07:38Z</time>
      </trkpt>
      <trkpt lat="45.22954" lon="6.04125">
        <ele>2103.4</ele>
        <time>2021-02-27T10:07:39Z</time>
      </trkpt>
      <trkpt lat="45.22957" lon="6.04126">
        <ele>2103.6</ele>
        <time>2021-02-27T10:07:40Z</time>
      </trkpt>
      <trkpt lat="45.22957" lon="6.04126">
        <ele>2103.8</ele>
        <time>2021-02-27T10:07:41Z</time>
      </trkpt>
      <trkpt lat="45.22959" lon="6.04127">
        <ele>2104</ele>
        <time>2021-02-27T10:07:42Z</time>
      </trkpt>
      <trkpt lat="45.22959" lon="6.04127">
        <ele>2104</ele>
        <time>2021-02-27T10:07:43Z</time>
      </trkpt>
      <trkpt lat="45.22962" lon="6.04128">
        <ele>2104.2</ele>
        <time>2021-02-27T10:07:44Z</time>
      </trkpt>
      <trkpt lat="45.22962" lon="6.04128">
        <ele>2104.4</ele>
        <time>2021-02-27T10:07:45Z</time>
      </trkpt>
      <trkpt lat="45.22965" lon="6.04128">
        <ele>2104.8</ele>
        <time>2021-02-27T10:07:46Z</time>
      </trkpt>
      <trkpt lat="45.22965" lon="6.04128">
        <ele>2104.8</ele>
        <time>2021-02-27T10:07:47Z</time>
      </trkpt>
      <trkpt lat="45.22967" lon="6.04129">
        <ele>2105</ele>
        <time>2021-02-27T10:07:48Z</time>
      </trkpt>
      <trkpt lat="45.22967" lon="6.04129">
        <ele>2105.4</ele>
        <time>2021-02-27T10:07:49Z</time>
      </trkpt>
      <trkpt lat="45.22969" lon="6.04128">
        <ele>2105.6</ele>
        <time>2021-02-27T10:07:50Z</time>
      </trkpt>
      <trkpt lat="45.22969" lon="6.04128">
        <ele>2105.6</ele>
        <time>2021-02-27T10:07:51Z</time>
      </trkpt>
      <trkpt lat="45.22971" lon="6.04129">
        <ele>2106</ele>
        <time>2021-02-27T10:07:52Z</time>
      </trkpt>
      <trkpt lat="45.22971" lon="6.04129">
        <ele>2106.4</ele>
        <time>2021-02-27T10:07:53Z</time>
      </trkpt>
      <trkpt lat="45.22972" lon="6.04128">
        <ele>2106.6</ele>
        <time>2021-02-27T10:07:54Z</time>
      </trkpt>
      <trkpt lat="45.22972" lon="6.04128">
        <ele>2107.2</ele>
        <time>2021-02-27T10:07:55Z</time>
      </trkpt>
      <trkpt lat="45.22975" lon="6.04128">
        <ele>2107.6</ele>
        <time>2021-02-27T10:07:56Z</time>
      </trkpt>
      <trkpt lat="45.22975" lon="6.04128">
        <ele>2108</ele>
        <time>2021-02-27T10:07:57Z</time>
      </trkpt>
      <trkpt lat="45.22977" lon="6.04128">
        <ele>2108.2</ele>
        <time>2021-02-27T10:07:58Z</time>
      </trkpt>
      <trkpt lat="45.22977" lon="6.04128">
        <ele>2108.4</ele>
        <time>2021-02-27T10:07:59Z</time>
      </trkpt>
      <trkpt lat="45.2298" lon="6.04129">
        <ele>2108.8</ele>
        <time>2021-02-27T10:08:00Z</time>
      </trkpt>
      <trkpt lat="45.2298" lon="6.04129">
        <ele>2108.8</ele>
        <time>2021-02-27T10:08:01Z</time>
      </trkpt>
      <trkpt lat="45.2298" lon="6.04129">
        <ele>2109.2</ele>
        <time>2021-02-27T10:08:02Z</time>
      </trkpt>
      <trkpt lat="45.22982" lon="6.04129">
        <ele>2109.4</ele>
        <time>2021-02-27T10:08:03Z</time>
      </trkpt>
      <trkpt lat="45.22982" lon="6.04129">
        <ele>2109.8</ele>
        <time>2021-02-27T10:08:04Z</time>
      </trkpt>
      <trkpt lat="45.22984" lon="6.04129">
        <ele>2110.2</ele>
        <time>2021-02-27T10:08:05Z</time>
      </trkpt>
      <trkpt lat="45.22984" lon="6.04129">
        <ele>2110.4</ele>
        <time>2021-02-27T10:08:06Z</time>
      </trkpt>
      <trkpt lat="45.22987" lon="6.04129">
        <ele>2110.6</ele>
        <time>2021-02-27T10:08:07Z</time>
      </trkpt>
      <trkpt lat="45.22987" lon="6.04129">
        <ele>2111</ele>
        <time>2021-02-27T10:08:08Z</time>
      </trkpt>
      <trkpt lat="45.22989" lon="6.0413">
        <ele>2111.4</ele>
        <time>2021-02-27T10:08:09Z</time>
      </trkpt>
      <trkpt lat="45.22989" lon="6.0413">
        <ele>2111.6</ele>
        <time>2021-02-27T10:08:10Z</time>
      </trkpt>
      <trkpt lat="45.22992" lon="6.0413">
        <ele>2111.8</ele>
        <time>2021-02-27T10:08:11Z</time>
      </trkpt>
      <trkpt lat="45.22992" lon="6.0413">
        <ele>2112.8</ele>
        <time>2021-02-27T10:08:12Z</time>
      </trkpt>
      <trkpt lat="45.22995" lon="6.0413">
        <ele>2113.4</ele>
        <time>2021-02-27T10:08:13Z</time>
      </trkpt>
      <trkpt lat="45.22995" lon="6.0413">
        <ele>2113.8</ele>
        <time>2021-02-27T10:08:14Z</time>
      </trkpt>
      <trkpt lat="45.22997" lon="6.0413">
        <ele>2114.2</ele>
        <time>2021-02-27T10:08:15Z</time>
      </trkpt>
      <trkpt lat="45.22997" lon="6.0413">
        <ele>2115.4</ele>
        <time>2021-02-27T10:08:16Z</time>
      </trkpt>
      <trkpt lat="45.22999" lon="6.0413">
        <ele>2116</ele>
        <time>2021-02-27T10:08:17Z</time>
      </trkpt>
      <trkpt lat="45.22999" lon="6.0413">
        <ele>2116.2</ele>
        <time>2021-02-27T10:08:18Z</time>
      </trkpt>
      <trkpt lat="45.22999" lon="6.0413">
        <ele>2116.2</ele>
        <time>2021-02-27T10:08:19Z</time>
      </trkpt>
      <trkpt lat="45.23" lon="6.04132">
        <ele>2116.8</ele>
        <time>2021-02-27T10:08:20Z</time>
      </trkpt>
      <trkpt lat="45.23" lon="6.04132">
        <ele>2116.8</ele>
        <time>2021-02-27T10:08:21Z</time>
      </trkpt>
      <trkpt lat="45.23002" lon="6.04135">
        <ele>2116.8</ele>
        <time>2021-02-27T10:08:22Z</time>
      </trkpt>
      <trkpt lat="45.23002" lon="6.04135">
        <ele>2117</ele>
        <time>2021-02-27T10:08:23Z</time>
      </trkpt>
      <trkpt lat="45.23003" lon="6.04137">
        <ele>2117.4</ele>
        <time>2021-02-27T10:08:24Z</time>
      </trkpt>
      <trkpt lat="45.23003" lon="6.04137">
        <ele>2117.4</ele>
        <time>2021-02-27T10:08:25Z</time>
      </trkpt>
      <trkpt lat="45.23004" lon="6.04139">
        <ele>2117.6</ele>
        <time>2021-02-27T10:08:26Z</time>
      </trkpt>
      <trkpt lat="45.23004" lon="6.04139">
        <ele>2117.6</ele>
        <time>2021-02-27T10:08:27Z</time>
      </trkpt>
      <trkpt lat="45.23005" lon="6.04141">
        <ele>2117.6</ele>
        <time>2021-02-27T10:08:28Z</time>
      </trkpt>
      <trkpt lat="45.23005" lon="6.04141">
        <ele>2117.6</ele>
        <time>2021-02-27T10:08:29Z</time>
      </trkpt>
      <trkpt lat="45.23006" lon="6.04143">
        <ele>2117.6</ele>
        <time>2021-02-27T10:08:30Z</time>
      </trkpt>
      <trkpt lat="45.23006" lon="6.04143">
        <ele>2117.4</ele>
        <time>2021-02-27T10:08:31Z</time>
      </trkpt>
      <trkpt lat="45.23008" lon="6.04144">
        <ele>2117.8</ele>
        <time>2021-02-27T10:08:32Z</time>
      </trkpt>
      <trkpt lat="45.23008" lon="6.04144">
        <ele>2117.8</ele>
        <time>2021-02-27T10:08:33Z</time>
      </trkpt>
      <trkpt lat="45.23008" lon="6.04144">
        <ele>2118</ele>
        <time>2021-02-27T10:08:34Z</time>
      </trkpt>
      <trkpt lat="45.2301" lon="6.04147">
        <ele>2118.2</ele>
        <time>2021-02-27T10:08:35Z</time>
      </trkpt>
      <trkpt lat="45.2301" lon="6.04147">
        <ele>2119</ele>
        <time>2021-02-27T10:08:36Z</time>
      </trkpt>
      <trkpt lat="45.23012" lon="6.04149">
        <ele>2119.4</ele>
        <time>2021-02-27T10:08:37Z</time>
      </trkpt>
      <trkpt lat="45.23012" lon="6.04149">
        <ele>2120</ele>
        <time>2021-02-27T10:08:38Z</time>
      </trkpt>
      <trkpt lat="45.23012" lon="6.04149">
        <ele>2120.2</ele>
        <time>2021-02-27T10:08:39Z</time>
      </trkpt>
      <trkpt lat="45.23014" lon="6.04151">
        <ele>2121</ele>
        <time>2021-02-27T10:08:40Z</time>
      </trkpt>
      <trkpt lat="45.23014" lon="6.04151">
        <ele>2121.6</ele>
        <time>2021-02-27T10:08:41Z</time>
      </trkpt>
      <trkpt lat="45.23015" lon="6.04153">
        <ele>2121.8</ele>
        <time>2021-02-27T10:08:42Z</time>
      </trkpt>
      <trkpt lat="45.23015" lon="6.04153">
        <ele>2121.6</ele>
        <time>2021-02-27T10:08:43Z</time>
      </trkpt>
      <trkpt lat="45.23015" lon="6.04153">
        <ele>2122</ele>
        <time>2021-02-27T10:08:44Z</time>
      </trkpt>
      <trkpt lat="45.23017" lon="6.04156">
        <ele>2122.4</ele>
        <time>2021-02-27T10:08:45Z</time>
      </trkpt>
      <trkpt lat="45.23017" lon="6.04156">
        <ele>2122.6</ele>
        <time>2021-02-27T10:08:46Z</time>
      </trkpt>
      <trkpt lat="45.23017" lon="6.04156">
        <ele>2123</ele>
        <time>2021-02-27T10:08:47Z</time>
      </trkpt>
      <trkpt lat="45.23019" lon="6.04159">
        <ele>2123.6</ele>
        <time>2021-02-27T10:08:48Z</time>
      </trkpt>
      <trkpt lat="45.23019" lon="6.04159">
        <ele>2123.6</ele>
        <time>2021-02-27T10:08:49Z</time>
      </trkpt>
      <trkpt lat="45.2302" lon="6.0416">
        <ele>2124</ele>
        <time>2021-02-27T10:08:50Z</time>
      </trkpt>
      <trkpt lat="45.2302" lon="6.0416">
        <ele>2124.4</ele>
        <time>2021-02-27T10:08:51Z</time>
      </trkpt>
      <trkpt lat="45.2302" lon="6.0416">
        <ele>2124.6</ele>
        <time>2021-02-27T10:08:52Z</time>
      </trkpt>
      <trkpt lat="45.23022" lon="6.04163">
        <ele>2124.8</ele>
        <time>2021-02-27T10:08:53Z</time>
      </trkpt>
      <trkpt lat="45.23022" lon="6.04163">
        <ele>2125.2</ele>
        <time>2021-02-27T10:08:54Z</time>
      </trkpt>
      <trkpt lat="45.23022" lon="6.04163">
        <ele>2125.4</ele>
        <time>2021-02-27T10:08:55Z</time>
      </trkpt>
      <trkpt lat="45.23024" lon="6.04165">
        <ele>2126</ele>
        <time>2021-02-27T10:08:56Z</time>
      </trkpt>
      <trkpt lat="45.23024" lon="6.04165">
        <ele>2126.4</ele>
        <time>2021-02-27T10:08:57Z</time>
      </trkpt>
      <trkpt lat="45.23026" lon="6.04167">
        <ele>2126.4</ele>
        <time>2021-02-27T10:08:58Z</time>
      </trkpt>
      <trkpt lat="45.23026" lon="6.04167">
        <ele>2126.6</ele>
        <time>2021-02-27T10:08:59Z</time>
      </trkpt>
      <trkpt lat="45.23028" lon="6.04169">
        <ele>2126.6</ele>
        <time>2021-02-27T10:09:00Z</time>
      </trkpt>
      <trkpt lat="45.23028" lon="6.04169">
        <ele>2126.8</ele>
        <time>2021-02-27T10:09:01Z</time>
      </trkpt>
      <trkpt lat="45.23028" lon="6.04169">
        <ele>2126.8</ele>
        <time>2021-02-27T10:09:02Z</time>
      </trkpt>
      <trkpt lat="45.2303" lon="6.04171">
        <ele>2126.8</ele>
        <time>2021-02-27T10:09:03Z</time>
      </trkpt>
      <trkpt lat="45.2303" lon="6.04171">
        <ele>2127.2</ele>
        <time>2021-02-27T10:09:04Z</time>
      </trkpt>
      <trkpt lat="45.23032" lon="6.04172">
        <ele>2127.4</ele>
        <time>2021-02-27T10:09:05Z</time>
      </trkpt>
      <trkpt lat="45.23032" lon="6.04172">
        <ele>2128</ele>
        <time>2021-02-27T10:09:06Z</time>
      </trkpt>
      <trkpt lat="45.23032" lon="6.04173">
        <ele>2127.8</ele>
        <time>2021-02-27T10:09:07Z</time>
      </trkpt>
      <trkpt lat="45.23033" lon="6.04174">
        <ele>2128.2</ele>
        <time>2021-02-27T10:09:08Z</time>
      </trkpt>
      <trkpt lat="45.23034" lon="6.04175">
        <ele>2128.6</ele>
        <time>2021-02-27T10:09:09Z</time>
      </trkpt>
      <trkpt lat="45.23035" lon="6.04175">
        <ele>2129</ele>
        <time>2021-02-27T10:09:10Z</time>
      </trkpt>
      <trkpt lat="45.23036" lon="6.04176">
        <ele>2129</ele>
        <time>2021-02-27T10:09:11Z</time>
      </trkpt>
      <trkpt lat="45.23037" lon="6.04177">
        <ele>2129.4</ele>
        <time>2021-02-27T10:09:12Z</time>
      </trkpt>
      <trkpt lat="45.23038" lon="6.04177">
        <ele>2129.8</ele>
        <time>2021-02-27T10:09:13Z</time>
      </trkpt>
      <trkpt lat="45.23038" lon="6.04178">
        <ele>2130</ele>
        <time>2021-02-27T10:09:14Z</time>
      </trkpt>
      <trkpt lat="45.23038" lon="6.04178">
        <ele>2130</ele>
        <time>2021-02-27T10:09:15Z</time>
      </trkpt>
      <trkpt lat="45.2304" lon="6.0418">
        <ele>2130.6</ele>
        <time>2021-02-27T10:09:16Z</time>
      </trkpt>
      <trkpt lat="45.2304" lon="6.0418">
        <ele>2131</ele>
        <time>2021-02-27T10:09:17Z</time>
      </trkpt>
      <trkpt lat="45.2304" lon="6.0418">
        <ele>2131.2</ele>
        <time>2021-02-27T10:09:18Z</time>
      </trkpt>
      <trkpt lat="45.23042" lon="6.04183">
        <ele>2131.4</ele>
        <time>2021-02-27T10:09:19Z</time>
      </trkpt>
      <trkpt lat="45.23042" lon="6.04183">
        <ele>2132</ele>
        <time>2021-02-27T10:09:20Z</time>
      </trkpt>
      <trkpt lat="45.23043" lon="6.04185">
        <ele>2132.2</ele>
        <time>2021-02-27T10:09:21Z</time>
      </trkpt>
      <trkpt lat="45.23043" lon="6.04185">
        <ele>2132.4</ele>
        <time>2021-02-27T10:09:22Z</time>
      </trkpt>
      <trkpt lat="45.23043" lon="6.04185">
        <ele>2132.4</ele>
        <time>2021-02-27T10:09:23Z</time>
      </trkpt>
      <trkpt lat="45.23045" lon="6.04188">
        <ele>2133</ele>
        <time>2021-02-27T10:09:24Z</time>
      </trkpt>
      <trkpt lat="45.23045" lon="6.04188">
        <ele>2133.4</ele>
        <time>2021-02-27T10:09:25Z</time>
      </trkpt>
      <trkpt lat="45.23045" lon="6.04188">
        <ele>2133.8</ele>
        <time>2021-02-27T10:09:26Z</time>
      </trkpt>
      <trkpt lat="45.23045" lon="6.0419">
        <ele>2134</ele>
        <time>2021-02-27T10:09:27Z</time>
      </trkpt>
      <trkpt lat="45.23045" lon="6.0419">
        <ele>2134.4</ele>
        <time>2021-02-27T10:09:28Z</time>
      </trkpt>
      <trkpt lat="45.23045" lon="6.0419">
        <ele>2135.8</ele>
        <time>2021-02-27T10:09:29Z</time>
      </trkpt>
      <trkpt lat="45.23046" lon="6.04193">
        <ele>2135.8</ele>
        <time>2021-02-27T10:09:30Z</time>
      </trkpt>
      <trkpt lat="45.23046" lon="6.04193">
        <ele>2135.8</ele>
        <time>2021-02-27T10:09:31Z</time>
      </trkpt>
      <trkpt lat="45.23047" lon="6.04195">
        <ele>2136</ele>
        <time>2021-02-27T10:09:32Z</time>
      </trkpt>
      <trkpt lat="45.23047" lon="6.04195">
        <ele>2136</ele>
        <time>2021-02-27T10:09:33Z</time>
      </trkpt>
      <trkpt lat="45.23047" lon="6.04195">
        <ele>2136.2</ele>
        <time>2021-02-27T10:09:34Z</time>
      </trkpt>
      <trkpt lat="45.23048" lon="6.04198">
        <ele>2136</ele>
        <time>2021-02-27T10:09:35Z</time>
      </trkpt>
      <trkpt lat="45.23048" lon="6.04198">
        <ele>2136</ele>
        <time>2021-02-27T10:09:36Z</time>
      </trkpt>
      <trkpt lat="45.23051" lon="6.04199">
        <ele>2136</ele>
        <time>2021-02-27T10:09:37Z</time>
      </trkpt>
      <trkpt lat="45.23051" lon="6.04199">
        <ele>2136.2</ele>
        <time>2021-02-27T10:09:38Z</time>
      </trkpt>
      <trkpt lat="45.23053" lon="6.042">
        <ele>2136.6</ele>
        <time>2021-02-27T10:09:39Z</time>
      </trkpt>
      <trkpt lat="45.23053" lon="6.042">
        <ele>2137.2</ele>
        <time>2021-02-27T10:09:40Z</time>
      </trkpt>
      <trkpt lat="45.23055" lon="6.042">
        <ele>2137.6</ele>
        <time>2021-02-27T10:09:41Z</time>
      </trkpt>
      <trkpt lat="45.23057" lon="6.04201">
        <ele>2137.8</ele>
        <time>2021-02-27T10:09:42Z</time>
      </trkpt>
      <trkpt lat="45.23057" lon="6.04201">
        <ele>2138</ele>
        <time>2021-02-27T10:09:43Z</time>
      </trkpt>
      <trkpt lat="45.23059" lon="6.04202">
        <ele>2138.6</ele>
        <time>2021-02-27T10:09:44Z</time>
      </trkpt>
      <trkpt lat="45.23059" lon="6.04202">
        <ele>2139</ele>
        <time>2021-02-27T10:09:45Z</time>
      </trkpt>
      <trkpt lat="45.23061" lon="6.04202">
        <ele>2139.4</ele>
        <time>2021-02-27T10:09:46Z</time>
      </trkpt>
      <trkpt lat="45.23061" lon="6.04202">
        <ele>2140</ele>
        <time>2021-02-27T10:09:47Z</time>
      </trkpt>
      <trkpt lat="45.23061" lon="6.04202">
        <ele>2140.2</ele>
        <time>2021-02-27T10:09:48Z</time>
      </trkpt>
      <trkpt lat="45.23061" lon="6.04202">
        <ele>2140</ele>
        <time>2021-02-27T10:09:49Z</time>
      </trkpt>
      <trkpt lat="45.23064" lon="6.04202">
        <ele>2140.2</ele>
        <time>2021-02-27T10:09:50Z</time>
      </trkpt>
      <trkpt lat="45.23064" lon="6.04202">
        <ele>2140.2</ele>
        <time>2021-02-27T10:09:51Z</time>
      </trkpt>
      <trkpt lat="45.23064" lon="6.04202">
        <ele>2140.4</ele>
        <time>2021-02-27T10:09:52Z</time>
      </trkpt>
      <trkpt lat="45.23064" lon="6.04202">
        <ele>2140.4</ele>
        <time>2021-02-27T10:09:53Z</time>
      </trkpt>
      <trkpt lat="45.23067" lon="6.04204">
        <ele>2141</ele>
        <time>2021-02-27T10:09:54Z</time>
      </trkpt>
      <trkpt lat="45.23067" lon="6.04204">
        <ele>2141.2</ele>
        <time>2021-02-27T10:09:55Z</time>
      </trkpt>
      <trkpt lat="45.23068" lon="6.04205">
        <ele>2141.6</ele>
        <time>2021-02-27T10:09:56Z</time>
      </trkpt>
      <trkpt lat="45.2307" lon="6.04206">
        <ele>2142.2</ele>
        <time>2021-02-27T10:09:57Z</time>
      </trkpt>
      <trkpt lat="45.23071" lon="6.04207">
        <ele>2142.8</ele>
        <time>2021-02-27T10:09:58Z</time>
      </trkpt>
      <trkpt lat="45.23073" lon="6.04209">
        <ele>2143.2</ele>
        <time>2021-02-27T10:09:59Z</time>
      </trkpt>
      <trkpt lat="45.23073" lon="6.04209">
        <ele>2143.6</ele>
        <time>2021-02-27T10:10:00Z</time>
      </trkpt>
      <trkpt lat="45.23075" lon="6.0421">
        <ele>2143.6</ele>
        <time>2021-02-27T10:10:01Z</time>
      </trkpt>
      <trkpt lat="45.23075" lon="6.0421">
        <ele>2144.4</ele>
        <time>2021-02-27T10:10:02Z</time>
      </trkpt>
      <trkpt lat="45.23078" lon="6.04212">
        <ele>2144.8</ele>
        <time>2021-02-27T10:10:03Z</time>
      </trkpt>
      <trkpt lat="45.23078" lon="6.04212">
        <ele>2145</ele>
        <time>2021-02-27T10:10:04Z</time>
      </trkpt>
      <trkpt lat="45.23078" lon="6.04212">
        <ele>2144.8</ele>
        <time>2021-02-27T10:10:05Z</time>
      </trkpt>
      <trkpt lat="45.23078" lon="6.04212">
        <ele>2144.8</ele>
        <time>2021-02-27T10:10:06Z</time>
      </trkpt>
      <trkpt lat="45.2308" lon="6.04215">
        <ele>2145</ele>
        <time>2021-02-27T10:10:07Z</time>
      </trkpt>
      <trkpt lat="45.2308" lon="6.04215">
        <ele>2145.2</ele>
        <time>2021-02-27T10:10:08Z</time>
      </trkpt>
      <trkpt lat="45.2308" lon="6.04215">
        <ele>2145.4</ele>
        <time>2021-02-27T10:10:09Z</time>
      </trkpt>
      <trkpt lat="45.23082" lon="6.04215">
        <ele>2145.6</ele>
        <time>2021-02-27T10:10:10Z</time>
      </trkpt>
      <trkpt lat="45.23082" lon="6.04215">
        <ele>2145.8</ele>
        <time>2021-02-27T10:10:11Z</time>
      </trkpt>
      <trkpt lat="45.23082" lon="6.04215">
        <ele>2145.6</ele>
        <time>2021-02-27T10:10:12Z</time>
      </trkpt>
      <trkpt lat="45.23084" lon="6.04215">
        <ele>2145.6</ele>
        <time>2021-02-27T10:10:13Z</time>
      </trkpt>
      <trkpt lat="45.23086" lon="6.04216">
        <ele>2145.8</ele>
        <time>2021-02-27T10:10:14Z</time>
      </trkpt>
      <trkpt lat="45.23088" lon="6.04217">
        <ele>2145.8</ele>
        <time>2021-02-27T10:10:15Z</time>
      </trkpt>
      <trkpt lat="45.23088" lon="6.04217">
        <ele>2146.2</ele>
        <time>2021-02-27T10:10:16Z</time>
      </trkpt>
      <trkpt lat="45.2309" lon="6.04218">
        <ele>2146.4</ele>
        <time>2021-02-27T10:10:17Z</time>
      </trkpt>
      <trkpt lat="45.2309" lon="6.04218">
        <ele>2146.6</ele>
        <time>2021-02-27T10:10:18Z</time>
      </trkpt>
      <trkpt lat="45.2309" lon="6.04218">
        <ele>2147</ele>
        <time>2021-02-27T10:10:19Z</time>
      </trkpt>
      <trkpt lat="45.23093" lon="6.04218">
        <ele>2147</ele>
        <time>2021-02-27T10:10:20Z</time>
      </trkpt>
      <trkpt lat="45.23095" lon="6.04218">
        <ele>2147.4</ele>
        <time>2021-02-27T10:10:21Z</time>
      </trkpt>
      <trkpt lat="45.23095" lon="6.04218">
        <ele>2147.8</ele>
        <time>2021-02-27T10:10:22Z</time>
      </trkpt>
      <trkpt lat="45.23095" lon="6.04218">
        <ele>2148.2</ele>
        <time>2021-02-27T10:10:23Z</time>
      </trkpt>
      <trkpt lat="45.23098" lon="6.0422">
        <ele>2148.6</ele>
        <time>2021-02-27T10:10:24Z</time>
      </trkpt>
      <trkpt lat="45.23098" lon="6.0422">
        <ele>2148.8</ele>
        <time>2021-02-27T10:10:25Z</time>
      </trkpt>
      <trkpt lat="45.23098" lon="6.0422">
        <ele>2149.2</ele>
        <time>2021-02-27T10:10:26Z</time>
      </trkpt>
      <trkpt lat="45.231" lon="6.04219">
        <ele>2149.6</ele>
        <time>2021-02-27T10:10:27Z</time>
      </trkpt>
      <trkpt lat="45.231" lon="6.04219">
        <ele>2149.4</ele>
        <time>2021-02-27T10:10:28Z</time>
      </trkpt>
      <trkpt lat="45.23102" lon="6.04221">
        <ele>2150</ele>
        <time>2021-02-27T10:10:29Z</time>
      </trkpt>
      <trkpt lat="45.23102" lon="6.04221">
        <ele>2150.2</ele>
        <time>2021-02-27T10:10:30Z</time>
      </trkpt>
      <trkpt lat="45.23102" lon="6.04221">
        <ele>2150.2</ele>
        <time>2021-02-27T10:10:31Z</time>
      </trkpt>
      <trkpt lat="45.23102" lon="6.04221">
        <ele>2150.4</ele>
        <time>2021-02-27T10:10:32Z</time>
      </trkpt>
      <trkpt lat="45.23105" lon="6.04222">
        <ele>2150.8</ele>
        <time>2021-02-27T10:10:33Z</time>
      </trkpt>
      <trkpt lat="45.23105" lon="6.04222">
        <ele>2151.2</ele>
        <time>2021-02-27T10:10:34Z</time>
      </trkpt>
      <trkpt lat="45.23105" lon="6.04222">
        <ele>2151.2</ele>
        <time>2021-02-27T10:10:35Z</time>
      </trkpt>
      <trkpt lat="45.23107" lon="6.04224">
        <ele>2151.6</ele>
        <time>2021-02-27T10:10:36Z</time>
      </trkpt>
      <trkpt lat="45.23107" lon="6.04224">
        <ele>2152</ele>
        <time>2021-02-27T10:10:37Z</time>
      </trkpt>
      <trkpt lat="45.23107" lon="6.04224">
        <ele>2152.2</ele>
        <time>2021-02-27T10:10:38Z</time>
      </trkpt>
      <trkpt lat="45.2311" lon="6.04226">
        <ele>2152.4</ele>
        <time>2021-02-27T10:10:39Z</time>
      </trkpt>
      <trkpt lat="45.23113" lon="6.04227">
        <ele>2152.6</ele>
        <time>2021-02-27T10:10:40Z</time>
      </trkpt>
      <trkpt lat="45.23115" lon="6.04228">
        <ele>2153</ele>
        <time>2021-02-27T10:10:41Z</time>
      </trkpt>
      <trkpt lat="45.23115" lon="6.04228">
        <ele>2153.4</ele>
        <time>2021-02-27T10:10:42Z</time>
      </trkpt>
      <trkpt lat="45.23117" lon="6.04229">
        <ele>2153.4</ele>
        <time>2021-02-27T10:10:43Z</time>
      </trkpt>
      <trkpt lat="45.23117" lon="6.04229">
        <ele>2154</ele>
        <time>2021-02-27T10:10:44Z</time>
      </trkpt>
      <trkpt lat="45.23117" lon="6.04229">
        <ele>2154.2</ele>
        <time>2021-02-27T10:10:45Z</time>
      </trkpt>
      <trkpt lat="45.23119" lon="6.0423">
        <ele>2154.4</ele>
        <time>2021-02-27T10:10:46Z</time>
      </trkpt>
      <trkpt lat="45.23119" lon="6.0423">
        <ele>2154.4</ele>
        <time>2021-02-27T10:10:47Z</time>
      </trkpt>
      <trkpt lat="45.2312" lon="6.0423">
        <ele>2154.8</ele>
        <time>2021-02-27T10:10:48Z</time>
      </trkpt>
      <trkpt lat="45.23121" lon="6.04231">
        <ele>2155</ele>
        <time>2021-02-27T10:10:49Z</time>
      </trkpt>
      <trkpt lat="45.23122" lon="6.04232">
        <ele>2155.2</ele>
        <time>2021-02-27T10:10:50Z</time>
      </trkpt>
      <trkpt lat="45.23122" lon="6.04232">
        <ele>2155.2</ele>
        <time>2021-02-27T10:10:51Z</time>
      </trkpt>
      <trkpt lat="45.23123" lon="6.04233">
        <ele>2155.6</ele>
        <time>2021-02-27T10:10:52Z</time>
      </trkpt>
      <trkpt lat="45.23124" lon="6.04234">
        <ele>2156</ele>
        <time>2021-02-27T10:10:53Z</time>
      </trkpt>
      <trkpt lat="45.23123" lon="6.04235">
        <ele>2156</ele>
        <time>2021-02-27T10:10:54Z</time>
      </trkpt>
      <trkpt lat="45.23122" lon="6.04236">
        <ele>2156.8</ele>
        <time>2021-02-27T10:10:55Z</time>
      </trkpt>
      <trkpt lat="45.23122" lon="6.04237">
        <ele>2157</ele>
        <time>2021-02-27T10:10:56Z</time>
      </trkpt>
      <trkpt lat="45.23121" lon="6.04238">
        <ele>2157.2</ele>
        <time>2021-02-27T10:10:57Z</time>
      </trkpt>
      <trkpt lat="45.2312" lon="6.04239">
        <ele>2158</ele>
        <time>2021-02-27T10:10:58Z</time>
      </trkpt>
      <trkpt lat="45.23119" lon="6.04239">
        <ele>2158.2</ele>
        <time>2021-02-27T10:10:59Z</time>
      </trkpt>
      <trkpt lat="45.23118" lon="6.0424">
        <ele>2158.2</ele>
        <time>2021-02-27T10:11:00Z</time>
      </trkpt>
      <trkpt lat="45.23117" lon="6.04241">
        <ele>2158.8</ele>
        <time>2021-02-27T10:11:01Z</time>
      </trkpt>
      <trkpt lat="45.23115" lon="6.04243">
        <ele>2159</ele>
        <time>2021-02-27T10:11:02Z</time>
      </trkpt>
      <trkpt lat="45.23115" lon="6.04243">
        <ele>2159</ele>
        <time>2021-02-27T10:11:03Z</time>
      </trkpt>
      <trkpt lat="45.23115" lon="6.04243">
        <ele>2159.4</ele>
        <time>2021-02-27T10:11:04Z</time>
      </trkpt>
      <trkpt lat="45.23114" lon="6.04245">
        <ele>2159.6</ele>
        <time>2021-02-27T10:11:05Z</time>
      </trkpt>
      <trkpt lat="45.23114" lon="6.04245">
        <ele>2159.6</ele>
        <time>2021-02-27T10:11:06Z</time>
      </trkpt>
      <trkpt lat="45.23114" lon="6.04245">
        <ele>2160.2</ele>
        <time>2021-02-27T10:11:07Z</time>
      </trkpt>
      <trkpt lat="45.23113" lon="6.04248">
        <ele>2160.4</ele>
        <time>2021-02-27T10:11:08Z</time>
      </trkpt>
      <trkpt lat="45.23113" lon="6.04248">
        <ele>2160.6</ele>
        <time>2021-02-27T10:11:09Z</time>
      </trkpt>
      <trkpt lat="45.23111" lon="6.0425">
        <ele>2161</ele>
        <time>2021-02-27T10:11:10Z</time>
      </trkpt>
      <trkpt lat="45.23111" lon="6.0425">
        <ele>2160.6</ele>
        <time>2021-02-27T10:11:11Z</time>
      </trkpt>
      <trkpt lat="45.23109" lon="6.04251">
        <ele>2161.4</ele>
        <time>2021-02-27T10:11:12Z</time>
      </trkpt>
      <trkpt lat="45.23109" lon="6.04251">
        <ele>2161.4</ele>
        <time>2021-02-27T10:11:13Z</time>
      </trkpt>
      <trkpt lat="45.23107" lon="6.04253">
        <ele>2161.6</ele>
        <time>2021-02-27T10:11:14Z</time>
      </trkpt>
      <trkpt lat="45.23107" lon="6.04253">
        <ele>2161.8</ele>
        <time>2021-02-27T10:11:15Z</time>
      </trkpt>
      <trkpt lat="45.23105" lon="6.04254">
        <ele>2162.8</ele>
        <time>2021-02-27T10:11:16Z</time>
      </trkpt>
      <trkpt lat="45.23105" lon="6.04254">
        <ele>2163.2</ele>
        <time>2021-02-27T10:11:17Z</time>
      </trkpt>
      <trkpt lat="45.23104" lon="6.04256">
        <ele>2163.6</ele>
        <time>2021-02-27T10:11:18Z</time>
      </trkpt>
      <trkpt lat="45.23104" lon="6.04256">
        <ele>2164.4</ele>
        <time>2021-02-27T10:11:19Z</time>
      </trkpt>
      <trkpt lat="45.23102" lon="6.04259">
        <ele>2164.6</ele>
        <time>2021-02-27T10:11:20Z</time>
      </trkpt>
      <trkpt lat="45.23102" lon="6.04259">
        <ele>2164.4</ele>
        <time>2021-02-27T10:11:21Z</time>
      </trkpt>
      <trkpt lat="45.231" lon="6.04261">
        <ele>2165</ele>
        <time>2021-02-27T10:11:22Z</time>
      </trkpt>
      <trkpt lat="45.231" lon="6.04261">
        <ele>2165</ele>
        <time>2021-02-27T10:11:23Z</time>
      </trkpt>
      <trkpt lat="45.23098" lon="6.04263">
        <ele>2165.2</ele>
        <time>2021-02-27T10:11:24Z</time>
      </trkpt>
      <trkpt lat="45.23098" lon="6.04263">
        <ele>2165.8</ele>
        <time>2021-02-27T10:11:25Z</time>
      </trkpt>
      <trkpt lat="45.23098" lon="6.04263">
        <ele>2166</ele>
        <time>2021-02-27T10:11:26Z</time>
      </trkpt>
      <trkpt lat="45.23098" lon="6.04263">
        <ele>2167</ele>
        <time>2021-02-27T10:11:27Z</time>
      </trkpt>
      <trkpt lat="45.23097" lon="6.04265">
        <ele>2167.6</ele>
        <time>2021-02-27T10:11:28Z</time>
      </trkpt>
      <trkpt lat="45.23097" lon="6.04265">
        <ele>2167.8</ele>
        <time>2021-02-27T10:11:29Z</time>
      </trkpt>
      <trkpt lat="45.23096" lon="6.04267">
        <ele>2168.2</ele>
        <time>2021-02-27T10:11:30Z</time>
      </trkpt>
      <trkpt lat="45.23096" lon="6.04267">
        <ele>2168.6</ele>
        <time>2021-02-27T10:11:31Z</time>
      </trkpt>
      <trkpt lat="45.23096" lon="6.04267">
        <ele>2168.8</ele>
        <time>2021-02-27T10:11:32Z</time>
      </trkpt>
      <trkpt lat="45.23097" lon="6.04269">
        <ele>2168.8</ele>
        <time>2021-02-27T10:11:33Z</time>
      </trkpt>
      <trkpt lat="45.23097" lon="6.04269">
        <ele>2168.4</ele>
        <time>2021-02-27T10:11:34Z</time>
      </trkpt>
      <trkpt lat="45.231" lon="6.0427">
        <ele>2168.2</ele>
        <time>2021-02-27T10:11:35Z</time>
      </trkpt>
      <trkpt lat="45.231" lon="6.0427">
        <ele>2168.4</ele>
        <time>2021-02-27T10:11:36Z</time>
      </trkpt>
      <trkpt lat="45.231" lon="6.0427">
        <ele>2168.6</ele>
        <time>2021-02-27T10:11:37Z</time>
      </trkpt>
      <trkpt lat="45.23102" lon="6.04271">
        <ele>2168.6</ele>
        <time>2021-02-27T10:11:38Z</time>
      </trkpt>
      <trkpt lat="45.23102" lon="6.04271">
        <ele>2168.8</ele>
        <time>2021-02-27T10:11:39Z</time>
      </trkpt>
      <trkpt lat="45.23102" lon="6.04271">
        <ele>2169</ele>
        <time>2021-02-27T10:11:40Z</time>
      </trkpt>
      <trkpt lat="45.23102" lon="6.04271">
        <ele>2169.2</ele>
        <time>2021-02-27T10:11:41Z</time>
      </trkpt>
      <trkpt lat="45.23102" lon="6.04271">
        <ele>2169.2</ele>
        <time>2021-02-27T10:11:42Z</time>
      </trkpt>
      <trkpt lat="45.23102" lon="6.04271">
        <ele>2169.6</ele>
        <time>2021-02-27T10:11:43Z</time>
      </trkpt>
      <trkpt lat="45.23104" lon="6.04271">
        <ele>2170</ele>
        <time>2021-02-27T10:11:44Z</time>
      </trkpt>
      <trkpt lat="45.23104" lon="6.04271">
        <ele>2169.8</ele>
        <time>2021-02-27T10:11:45Z</time>
      </trkpt>
      <trkpt lat="45.23107" lon="6.04273">
        <ele>2170.4</ele>
        <time>2021-02-27T10:11:46Z</time>
      </trkpt>
      <trkpt lat="45.23107" lon="6.04273">
        <ele>2170.8</ele>
        <time>2021-02-27T10:11:47Z</time>
      </trkpt>
      <trkpt lat="45.23108" lon="6.04274">
        <ele>2171</ele>
        <time>2021-02-27T10:11:48Z</time>
      </trkpt>
      <trkpt lat="45.23109" lon="6.04275">
        <ele>2171.4</ele>
        <time>2021-02-27T10:11:49Z</time>
      </trkpt>
      <trkpt lat="45.2311" lon="6.04275">
        <ele>2171.8</ele>
        <time>2021-02-27T10:11:50Z</time>
      </trkpt>
      <trkpt lat="45.23111" lon="6.04276">
        <ele>2172.2</ele>
        <time>2021-02-27T10:11:51Z</time>
      </trkpt>
      <trkpt lat="45.23112" lon="6.04276">
        <ele>2172.4</ele>
        <time>2021-02-27T10:11:52Z</time>
      </trkpt>
      <trkpt lat="45.23113" lon="6.04277">
        <ele>2172.8</ele>
        <time>2021-02-27T10:11:53Z</time>
      </trkpt>
      <trkpt lat="45.23114" lon="6.04278">
        <ele>2172.8</ele>
        <time>2021-02-27T10:11:54Z</time>
      </trkpt>
      <trkpt lat="45.23115" lon="6.04278">
        <ele>2172.6</ele>
        <time>2021-02-27T10:11:55Z</time>
      </trkpt>
      <trkpt lat="45.23116" lon="6.04279">
        <ele>2172.8</ele>
        <time>2021-02-27T10:11:56Z</time>
      </trkpt>
      <trkpt lat="45.23117" lon="6.04279">
        <ele>2173</ele>
        <time>2021-02-27T10:11:57Z</time>
      </trkpt>
      <trkpt lat="45.23117" lon="6.0428">
        <ele>2173.4</ele>
        <time>2021-02-27T10:11:58Z</time>
      </trkpt>
      <trkpt lat="45.23118" lon="6.04281">
        <ele>2173.2</ele>
        <time>2021-02-27T10:11:59Z</time>
      </trkpt>
      <trkpt lat="45.23119" lon="6.04281">
        <ele>2173.4</ele>
        <time>2021-02-27T10:12:00Z</time>
      </trkpt>
      <trkpt lat="45.23119" lon="6.04281">
        <ele>2174</ele>
        <time>2021-02-27T10:12:01Z</time>
      </trkpt>
      <trkpt lat="45.23122" lon="6.04283">
        <ele>2174</ele>
        <time>2021-02-27T10:12:02Z</time>
      </trkpt>
      <trkpt lat="45.23122" lon="6.04283">
        <ele>2174.2</ele>
        <time>2021-02-27T10:12:03Z</time>
      </trkpt>
      <trkpt lat="45.23124" lon="6.04284">
        <ele>2174.6</ele>
        <time>2021-02-27T10:12:04Z</time>
      </trkpt>
      <trkpt lat="45.23124" lon="6.04284">
        <ele>2175</ele>
        <time>2021-02-27T10:12:05Z</time>
      </trkpt>
      <trkpt lat="45.23124" lon="6.04284">
        <ele>2175.2</ele>
        <time>2021-02-27T10:12:06Z</time>
      </trkpt>
      <trkpt lat="45.23126" lon="6.04286">
        <ele>2175.8</ele>
        <time>2021-02-27T10:12:07Z</time>
      </trkpt>
      <trkpt lat="45.23126" lon="6.04286">
        <ele>2175.8</ele>
        <time>2021-02-27T10:12:08Z</time>
      </trkpt>
      <trkpt lat="45.23128" lon="6.04287">
        <ele>2176.2</ele>
        <time>2021-02-27T10:12:09Z</time>
      </trkpt>
      <trkpt lat="45.23128" lon="6.04287">
        <ele>2176.4</ele>
        <time>2021-02-27T10:12:10Z</time>
      </trkpt>
      <trkpt lat="45.23131" lon="6.04288">
        <ele>2177</ele>
        <time>2021-02-27T10:12:11Z</time>
      </trkpt>
      <trkpt lat="45.23131" lon="6.04288">
        <ele>2177</ele>
        <time>2021-02-27T10:12:12Z</time>
      </trkpt>
      <trkpt lat="45.23131" lon="6.04288">
        <ele>2177.2</ele>
        <time>2021-02-27T10:12:13Z</time>
      </trkpt>
      <trkpt lat="45.23132" lon="6.0429">
        <ele>2177.6</ele>
        <time>2021-02-27T10:12:14Z</time>
      </trkpt>
      <trkpt lat="45.23134" lon="6.04291">
        <ele>2178</ele>
        <time>2021-02-27T10:12:15Z</time>
      </trkpt>
      <trkpt lat="45.23134" lon="6.04291">
        <ele>2178.4</ele>
        <time>2021-02-27T10:12:16Z</time>
      </trkpt>
      <trkpt lat="45.23136" lon="6.04291">
        <ele>2178.6</ele>
        <time>2021-02-27T10:12:17Z</time>
      </trkpt>
      <trkpt lat="45.23136" lon="6.04291">
        <ele>2178.4</ele>
        <time>2021-02-27T10:12:18Z</time>
      </trkpt>
      <trkpt lat="45.23139" lon="6.04292">
        <ele>2178.6</ele>
        <time>2021-02-27T10:12:19Z</time>
      </trkpt>
      <trkpt lat="45.23139" lon="6.04292">
        <ele>2179</ele>
        <time>2021-02-27T10:12:20Z</time>
      </trkpt>
      <trkpt lat="45.23139" lon="6.04292">
        <ele>2179.2</ele>
        <time>2021-02-27T10:12:21Z</time>
      </trkpt>
      <trkpt lat="45.23141" lon="6.04292">
        <ele>2179.4</ele>
        <time>2021-02-27T10:12:22Z</time>
      </trkpt>
      <trkpt lat="45.23141" lon="6.04292">
        <ele>2179.4</ele>
        <time>2021-02-27T10:12:23Z</time>
      </trkpt>
      <trkpt lat="45.23141" lon="6.04292">
        <ele>2179.4</ele>
        <time>2021-02-27T10:12:24Z</time>
      </trkpt>
      <trkpt lat="45.23143" lon="6.04293">
        <ele>2179.8</ele>
        <time>2021-02-27T10:12:25Z</time>
      </trkpt>
      <trkpt lat="45.23143" lon="6.04293">
        <ele>2180</ele>
        <time>2021-02-27T10:12:26Z</time>
      </trkpt>
      <trkpt lat="45.23143" lon="6.04293">
        <ele>2180.2</ele>
        <time>2021-02-27T10:12:27Z</time>
      </trkpt>
      <trkpt lat="45.23143" lon="6.04293">
        <ele>2180.4</ele>
        <time>2021-02-27T10:12:28Z</time>
      </trkpt>
      <trkpt lat="45.23147" lon="6.04295">
        <ele>2180.4</ele>
        <time>2021-02-27T10:12:29Z</time>
      </trkpt>
      <trkpt lat="45.23149" lon="6.04296">
        <ele>2180.8</ele>
        <time>2021-02-27T10:12:30Z</time>
      </trkpt>
      <trkpt lat="45.23149" lon="6.04296">
        <ele>2181</ele>
        <time>2021-02-27T10:12:31Z</time>
      </trkpt>
      <trkpt lat="45.23151" lon="6.04298">
        <ele>2181.4</ele>
        <time>2021-02-27T10:12:32Z</time>
      </trkpt>
      <trkpt lat="45.23151" lon="6.04298">
        <ele>2181.8</ele>
        <time>2021-02-27T10:12:33Z</time>
      </trkpt>
      <trkpt lat="45.23153" lon="6.04299">
        <ele>2182</ele>
        <time>2021-02-27T10:12:34Z</time>
      </trkpt>
      <trkpt lat="45.23153" lon="6.04299">
        <ele>2182.2</ele>
        <time>2021-02-27T10:12:35Z</time>
      </trkpt>
      <trkpt lat="45.23153" lon="6.04299">
        <ele>2182.2</ele>
        <time>2021-02-27T10:12:36Z</time>
      </trkpt>
      <trkpt lat="45.23155" lon="6.043">
        <ele>2182.6</ele>
        <time>2021-02-27T10:12:37Z</time>
      </trkpt>
      <trkpt lat="45.23155" lon="6.043">
        <ele>2182.8</ele>
        <time>2021-02-27T10:12:38Z</time>
      </trkpt>
      <trkpt lat="45.23155" lon="6.043">
        <ele>2183.2</ele>
        <time>2021-02-27T10:12:39Z</time>
      </trkpt>
      <trkpt lat="45.23158" lon="6.04302">
        <ele>2183.2</ele>
        <time>2021-02-27T10:12:40Z</time>
      </trkpt>
      <trkpt lat="45.23158" lon="6.04302">
        <ele>2183.4</ele>
        <time>2021-02-27T10:12:41Z</time>
      </trkpt>
      <trkpt lat="45.23158" lon="6.04302">
        <ele>2184.2</ele>
        <time>2021-02-27T10:12:42Z</time>
      </trkpt>
      <trkpt lat="45.23158" lon="6.04302">
        <ele>2184.4</ele>
        <time>2021-02-27T10:12:43Z</time>
      </trkpt>
      <trkpt lat="45.23154" lon="6.04302">
        <ele>2184.4</ele>
        <time>2021-02-27T10:12:44Z</time>
      </trkpt>
      <trkpt lat="45.23154" lon="6.04302">
        <ele>2185.2</ele>
        <time>2021-02-27T10:12:45Z</time>
      </trkpt>
      <trkpt lat="45.23152" lon="6.04303">
        <ele>2185.2</ele>
        <time>2021-02-27T10:12:46Z</time>
      </trkpt>
      <trkpt lat="45.23152" lon="6.04303">
        <ele>2185.4</ele>
        <time>2021-02-27T10:12:47Z</time>
      </trkpt>
      <trkpt lat="45.2315" lon="6.04304">
        <ele>2186</ele>
        <time>2021-02-27T10:12:48Z</time>
      </trkpt>
      <trkpt lat="45.2315" lon="6.04304">
        <ele>2186</ele>
        <time>2021-02-27T10:12:49Z</time>
      </trkpt>
      <trkpt lat="45.23149" lon="6.04305">
        <ele>2186.4</ele>
        <time>2021-02-27T10:12:50Z</time>
      </trkpt>
      <trkpt lat="45.23148" lon="6.04306">
        <ele>2187</ele>
        <time>2021-02-27T10:12:51Z</time>
      </trkpt>
      <trkpt lat="45.23146" lon="6.04307">
        <ele>2187</ele>
        <time>2021-02-27T10:12:52Z</time>
      </trkpt>
      <trkpt lat="45.23145" lon="6.04309">
        <ele>2187.2</ele>
        <time>2021-02-27T10:12:53Z</time>
      </trkpt>
      <trkpt lat="45.23144" lon="6.0431">
        <ele>2187.6</ele>
        <time>2021-02-27T10:12:54Z</time>
      </trkpt>
      <trkpt lat="45.23143" lon="6.04311">
        <ele>2187.2</ele>
        <time>2021-02-27T10:12:55Z</time>
      </trkpt>
      <trkpt lat="45.23142" lon="6.04312">
        <ele>2187.8</ele>
        <time>2021-02-27T10:12:56Z</time>
      </trkpt>
      <trkpt lat="45.2314" lon="6.04312">
        <ele>2188</ele>
        <time>2021-02-27T10:12:57Z</time>
      </trkpt>
      <trkpt lat="45.23139" lon="6.04313">
        <ele>2189.2</ele>
        <time>2021-02-27T10:12:58Z</time>
      </trkpt>
      <trkpt lat="45.23138" lon="6.04313">
        <ele>2189</ele>
        <time>2021-02-27T10:12:59Z</time>
      </trkpt>
      <trkpt lat="45.23137" lon="6.04313">
        <ele>2189.4</ele>
        <time>2021-02-27T10:13:00Z</time>
      </trkpt>
      <trkpt lat="45.23136" lon="6.04314">
        <ele>2189.2</ele>
        <time>2021-02-27T10:13:01Z</time>
      </trkpt>
      <trkpt lat="45.23135" lon="6.04314">
        <ele>2188.8</ele>
        <time>2021-02-27T10:13:02Z</time>
      </trkpt>
      <trkpt lat="45.23134" lon="6.04315">
        <ele>2189.2</ele>
        <time>2021-02-27T10:13:03Z</time>
      </trkpt>
      <trkpt lat="45.23133" lon="6.04315">
        <ele>2189.2</ele>
        <time>2021-02-27T10:13:04Z</time>
      </trkpt>
      <trkpt lat="45.23131" lon="6.04316">
        <ele>2189</ele>
        <time>2021-02-27T10:13:05Z</time>
      </trkpt>
      <trkpt lat="45.23131" lon="6.04316">
        <ele>2189.4</ele>
        <time>2021-02-27T10:13:06Z</time>
      </trkpt>
      <trkpt lat="45.2313" lon="6.04317">
        <ele>2189.8</ele>
        <time>2021-02-27T10:13:07Z</time>
      </trkpt>
      <trkpt lat="45.23129" lon="6.04317">
        <ele>2189.6</ele>
        <time>2021-02-27T10:13:08Z</time>
      </trkpt>
      <trkpt lat="45.23128" lon="6.04318">
        <ele>2190.2</ele>
        <time>2021-02-27T10:13:09Z</time>
      </trkpt>
      <trkpt lat="45.23127" lon="6.04318">
        <ele>2190.4</ele>
        <time>2021-02-27T10:13:10Z</time>
      </trkpt>
      <trkpt lat="45.23127" lon="6.04319">
        <ele>2190.8</ele>
        <time>2021-02-27T10:13:11Z</time>
      </trkpt>
      <trkpt lat="45.23126" lon="6.04319">
        <ele>2191</ele>
        <time>2021-02-27T10:13:12Z</time>
      </trkpt>
      <trkpt lat="45.23126" lon="6.04319">
        <ele>2191</ele>
        <time>2021-02-27T10:13:13Z</time>
      </trkpt>
      <trkpt lat="45.23125" lon="6.04323">
        <ele>2191.6</ele>
        <time>2021-02-27T10:13:14Z</time>
      </trkpt>
      <trkpt lat="45.23125" lon="6.04323">
        <ele>2191.6</ele>
        <time>2021-02-27T10:13:15Z</time>
      </trkpt>
      <trkpt lat="45.23125" lon="6.04323">
        <ele>2191.6</ele>
        <time>2021-02-27T10:13:16Z</time>
      </trkpt>
      <trkpt lat="45.23123" lon="6.04326">
        <ele>2192</ele>
        <time>2021-02-27T10:13:17Z</time>
      </trkpt>
      <trkpt lat="45.23123" lon="6.04326">
        <ele>2191.8</ele>
        <time>2021-02-27T10:13:18Z</time>
      </trkpt>
      <trkpt lat="45.23121" lon="6.04328">
        <ele>2192</ele>
        <time>2021-02-27T10:13:19Z</time>
      </trkpt>
      <trkpt lat="45.23121" lon="6.04328">
        <ele>2192.4</ele>
        <time>2021-02-27T10:13:20Z</time>
      </trkpt>
      <trkpt lat="45.23119" lon="6.04329">
        <ele>2192.6</ele>
        <time>2021-02-27T10:13:21Z</time>
      </trkpt>
      <trkpt lat="45.23119" lon="6.04329">
        <ele>2193</ele>
        <time>2021-02-27T10:13:22Z</time>
      </trkpt>
      <trkpt lat="45.23118" lon="6.04331">
        <ele>2193.2</ele>
        <time>2021-02-27T10:13:23Z</time>
      </trkpt>
      <trkpt lat="45.23118" lon="6.04331">
        <ele>2193.4</ele>
        <time>2021-02-27T10:13:24Z</time>
      </trkpt>
      <trkpt lat="45.23116" lon="6.04333">
        <ele>2193.2</ele>
        <time>2021-02-27T10:13:25Z</time>
      </trkpt>
      <trkpt lat="45.23116" lon="6.04333">
        <ele>2193.4</ele>
        <time>2021-02-27T10:13:26Z</time>
      </trkpt>
      <trkpt lat="45.23114" lon="6.04335">
        <ele>2193.8</ele>
        <time>2021-02-27T10:13:27Z</time>
      </trkpt>
      <trkpt lat="45.23114" lon="6.04335">
        <ele>2194</ele>
        <time>2021-02-27T10:13:28Z</time>
      </trkpt>
      <trkpt lat="45.23112" lon="6.04337">
        <ele>2194.2</ele>
        <time>2021-02-27T10:13:29Z</time>
      </trkpt>
      <trkpt lat="45.23112" lon="6.04337">
        <ele>2194.6</ele>
        <time>2021-02-27T10:13:30Z</time>
      </trkpt>
      <trkpt lat="45.2311" lon="6.04339">
        <ele>2194.4</ele>
        <time>2021-02-27T10:13:31Z</time>
      </trkpt>
      <trkpt lat="45.2311" lon="6.04339">
        <ele>2195.2</ele>
        <time>2021-02-27T10:13:32Z</time>
      </trkpt>
      <trkpt lat="45.23108" lon="6.04341">
        <ele>2195.4</ele>
        <time>2021-02-27T10:13:33Z</time>
      </trkpt>
      <trkpt lat="45.23108" lon="6.04341">
        <ele>2195.4</ele>
        <time>2021-02-27T10:13:34Z</time>
      </trkpt>
      <trkpt lat="45.23106" lon="6.04343">
        <ele>2196</ele>
        <time>2021-02-27T10:13:35Z</time>
      </trkpt>
      <trkpt lat="45.23106" lon="6.04343">
        <ele>2196</ele>
        <time>2021-02-27T10:13:36Z</time>
      </trkpt>
      <trkpt lat="45.23103" lon="6.04345">
        <ele>2196.2</ele>
        <time>2021-02-27T10:13:37Z</time>
      </trkpt>
      <trkpt lat="45.23103" lon="6.04345">
        <ele>2197</ele>
        <time>2021-02-27T10:13:38Z</time>
      </trkpt>
      <trkpt lat="45.23102" lon="6.04346">
        <ele>2197</ele>
        <time>2021-02-27T10:13:39Z</time>
      </trkpt>
      <trkpt lat="45.23102" lon="6.04346">
        <ele>2197.4</ele>
        <time>2021-02-27T10:13:40Z</time>
      </trkpt>
      <trkpt lat="45.23102" lon="6.04346">
        <ele>2198</ele>
        <time>2021-02-27T10:13:41Z</time>
      </trkpt>
      <trkpt lat="45.231" lon="6.04348">
        <ele>2198</ele>
        <time>2021-02-27T10:13:42Z</time>
      </trkpt>
      <trkpt lat="45.231" lon="6.04348">
        <ele>2198.6</ele>
        <time>2021-02-27T10:13:43Z</time>
      </trkpt>
      <trkpt lat="45.23098" lon="6.0435">
        <ele>2198.6</ele>
        <time>2021-02-27T10:13:44Z</time>
      </trkpt>
      <trkpt lat="45.23098" lon="6.0435">
        <ele>2198.8</ele>
        <time>2021-02-27T10:13:45Z</time>
      </trkpt>
      <trkpt lat="45.23095" lon="6.04351">
        <ele>2199.4</ele>
        <time>2021-02-27T10:13:46Z</time>
      </trkpt>
      <trkpt lat="45.23095" lon="6.04351">
        <ele>2199.2</ele>
        <time>2021-02-27T10:13:47Z</time>
      </trkpt>
      <trkpt lat="45.23095" lon="6.04351">
        <ele>2199.2</ele>
        <time>2021-02-27T10:13:48Z</time>
      </trkpt>
      <trkpt lat="45.23093" lon="6.04354">
        <ele>2199.8</ele>
        <time>2021-02-27T10:13:49Z</time>
      </trkpt>
      <trkpt lat="45.23093" lon="6.04354">
        <ele>2200</ele>
        <time>2021-02-27T10:13:50Z</time>
      </trkpt>
      <trkpt lat="45.23093" lon="6.04354">
        <ele>2200.2</ele>
        <time>2021-02-27T10:13:51Z</time>
      </trkpt>
      <trkpt lat="45.23093" lon="6.04356">
        <ele>2200.6</ele>
        <time>2021-02-27T10:13:52Z</time>
      </trkpt>
      <trkpt lat="45.23093" lon="6.04356">
        <ele>2201</ele>
        <time>2021-02-27T10:13:53Z</time>
      </trkpt>
      <trkpt lat="45.23093" lon="6.04356">
        <ele>2201</ele>
        <time>2021-02-27T10:13:54Z</time>
      </trkpt>
      <trkpt lat="45.23093" lon="6.04356">
        <ele>2201.2</ele>
        <time>2021-02-27T10:13:55Z</time>
      </trkpt>
      <trkpt lat="45.23093" lon="6.04356">
        <ele>2201.2</ele>
        <time>2021-02-27T10:13:56Z</time>
      </trkpt>
      <trkpt lat="45.23096" lon="6.04356">
        <ele>2201.2</ele>
        <time>2021-02-27T10:13:57Z</time>
      </trkpt>
      <trkpt lat="45.23096" lon="6.04356">
        <ele>2201.4</ele>
        <time>2021-02-27T10:13:58Z</time>
      </trkpt>
      <trkpt lat="45.23098" lon="6.04357">
        <ele>2201.4</ele>
        <time>2021-02-27T10:13:59Z</time>
      </trkpt>
      <trkpt lat="45.23098" lon="6.04357">
        <ele>2201.6</ele>
        <time>2021-02-27T10:14:00Z</time>
      </trkpt>
      <trkpt lat="45.231" lon="6.04357">
        <ele>2201.8</ele>
        <time>2021-02-27T10:14:01Z</time>
      </trkpt>
      <trkpt lat="45.23101" lon="6.04358">
        <ele>2201.6</ele>
        <time>2021-02-27T10:14:02Z</time>
      </trkpt>
      <trkpt lat="45.23102" lon="6.04358">
        <ele>2202</ele>
        <time>2021-02-27T10:14:03Z</time>
      </trkpt>
      <trkpt lat="45.23104" lon="6.04359">
        <ele>2202.2</ele>
        <time>2021-02-27T10:14:04Z</time>
      </trkpt>
      <trkpt lat="45.23105" lon="6.04359">
        <ele>2202.4</ele>
        <time>2021-02-27T10:14:05Z</time>
      </trkpt>
      <trkpt lat="45.23106" lon="6.04359">
        <ele>2202.4</ele>
        <time>2021-02-27T10:14:06Z</time>
      </trkpt>
      <trkpt lat="45.23109" lon="6.0436">
        <ele>2202.6</ele>
        <time>2021-02-27T10:14:07Z</time>
      </trkpt>
      <trkpt lat="45.23109" lon="6.0436">
        <ele>2203.4</ele>
        <time>2021-02-27T10:14:08Z</time>
      </trkpt>
      <trkpt lat="45.23111" lon="6.04362">
        <ele>2203.6</ele>
        <time>2021-02-27T10:14:09Z</time>
      </trkpt>
      <trkpt lat="45.23111" lon="6.04362">
        <ele>2204.2</ele>
        <time>2021-02-27T10:14:10Z</time>
      </trkpt>
      <trkpt lat="45.23112" lon="6.04362">
        <ele>2204.4</ele>
        <time>2021-02-27T10:14:11Z</time>
      </trkpt>
      <trkpt lat="45.23112" lon="6.04362">
        <ele>2204.8</ele>
        <time>2021-02-27T10:14:12Z</time>
      </trkpt>
      <trkpt lat="45.23113" lon="6.04362">
        <ele>2205.2</ele>
        <time>2021-02-27T10:14:13Z</time>
      </trkpt>
      <trkpt lat="45.23114" lon="6.04362">
        <ele>2205.4</ele>
        <time>2021-02-27T10:14:14Z</time>
      </trkpt>
      <trkpt lat="45.23115" lon="6.04362">
        <ele>2205.4</ele>
        <time>2021-02-27T10:14:15Z</time>
      </trkpt>
      <trkpt lat="45.23115" lon="6.04363">
        <ele>2205.8</ele>
        <time>2021-02-27T10:14:16Z</time>
      </trkpt>
      <trkpt lat="45.23116" lon="6.04363">
        <ele>2206.4</ele>
        <time>2021-02-27T10:14:17Z</time>
      </trkpt>
      <trkpt lat="45.23117" lon="6.04363">
        <ele>2206.4</ele>
        <time>2021-02-27T10:14:18Z</time>
      </trkpt>
      <trkpt lat="45.23118" lon="6.04363">
        <ele>2206.6</ele>
        <time>2021-02-27T10:14:19Z</time>
      </trkpt>
      <trkpt lat="45.23118" lon="6.04363">
        <ele>2206.8</ele>
        <time>2021-02-27T10:14:20Z</time>
      </trkpt>
      <trkpt lat="45.23119" lon="6.04363">
        <ele>2207.2</ele>
        <time>2021-02-27T10:14:21Z</time>
      </trkpt>
      <trkpt lat="45.2312" lon="6.04364">
        <ele>2207.4</ele>
        <time>2021-02-27T10:14:22Z</time>
      </trkpt>
      <trkpt lat="45.23121" lon="6.04364">
        <ele>2207.6</ele>
        <time>2021-02-27T10:14:23Z</time>
      </trkpt>
      <trkpt lat="45.23121" lon="6.04364">
        <ele>2207.8</ele>
        <time>2021-02-27T10:14:24Z</time>
      </trkpt>
      <trkpt lat="45.23121" lon="6.04364">
        <ele>2208.4</ele>
        <time>2021-02-27T10:14:25Z</time>
      </trkpt>
      <trkpt lat="45.23121" lon="6.04364">
        <ele>2208.8</ele>
        <time>2021-02-27T10:14:26Z</time>
      </trkpt>
      <trkpt lat="45.23121" lon="6.04364">
        <ele>2208.8</ele>
        <time>2021-02-27T10:14:27Z</time>
      </trkpt>
      <trkpt lat="45.23121" lon="6.04364">
        <ele>2209.2</ele>
        <time>2021-02-27T10:14:28Z</time>
      </trkpt>
      <trkpt lat="45.23121" lon="6.04364">
        <ele>2209.4</ele>
        <time>2021-02-27T10:14:29Z</time>
      </trkpt>
      <trkpt lat="45.23121" lon="6.04364">
        <ele>2210.2</ele>
        <time>2021-02-27T10:14:30Z</time>
      </trkpt>
      <trkpt lat="45.23121" lon="6.04364">
        <ele>2210.6</ele>
        <time>2021-02-27T10:14:31Z</time>
      </trkpt>
      <trkpt lat="45.23121" lon="6.04367">
        <ele>2210.8</ele>
        <time>2021-02-27T10:14:32Z</time>
      </trkpt>
      <trkpt lat="45.23121" lon="6.04367">
        <ele>2211.2</ele>
        <time>2021-02-27T10:14:33Z</time>
      </trkpt>
      <trkpt lat="45.23119" lon="6.04368">
        <ele>2211.2</ele>
        <time>2021-02-27T10:14:34Z</time>
      </trkpt>
      <trkpt lat="45.23119" lon="6.04368">
        <ele>2211.4</ele>
        <time>2021-02-27T10:14:35Z</time>
      </trkpt>
      <trkpt lat="45.23117" lon="6.0437">
        <ele>2211.2</ele>
        <time>2021-02-27T10:14:36Z</time>
      </trkpt>
      <trkpt lat="45.23117" lon="6.0437">
        <ele>2211.2</ele>
        <time>2021-02-27T10:14:37Z</time>
      </trkpt>
      <trkpt lat="45.23115" lon="6.04372">
        <ele>2211.4</ele>
        <time>2021-02-27T10:14:38Z</time>
      </trkpt>
      <trkpt lat="45.23115" lon="6.04372">
        <ele>2211.2</ele>
        <time>2021-02-27T10:14:39Z</time>
      </trkpt>
      <trkpt lat="45.23113" lon="6.04373">
        <ele>2211.2</ele>
        <time>2021-02-27T10:14:40Z</time>
      </trkpt>
      <trkpt lat="45.23113" lon="6.04373">
        <ele>2211.6</ele>
        <time>2021-02-27T10:14:41Z</time>
      </trkpt>
      <trkpt lat="45.23111" lon="6.04375">
        <ele>2211.2</ele>
        <time>2021-02-27T10:14:42Z</time>
      </trkpt>
      <trkpt lat="45.23111" lon="6.04375">
        <ele>2211.6</ele>
        <time>2021-02-27T10:14:43Z</time>
      </trkpt>
      <trkpt lat="45.23111" lon="6.04375">
        <ele>2212.2</ele>
        <time>2021-02-27T10:14:44Z</time>
      </trkpt>
      <trkpt lat="45.23109" lon="6.04377">
        <ele>2212</ele>
        <time>2021-02-27T10:14:45Z</time>
      </trkpt>
      <trkpt lat="45.23109" lon="6.04377">
        <ele>2212.2</ele>
        <time>2021-02-27T10:14:46Z</time>
      </trkpt>
      <trkpt lat="45.23107" lon="6.04378">
        <ele>2212.8</ele>
        <time>2021-02-27T10:14:47Z</time>
      </trkpt>
      <trkpt lat="45.23107" lon="6.04378">
        <ele>2213.2</ele>
        <time>2021-02-27T10:14:48Z</time>
      </trkpt>
      <trkpt lat="45.23107" lon="6.04378">
        <ele>2213.4</ele>
        <time>2021-02-27T10:14:49Z</time>
      </trkpt>
      <trkpt lat="45.23107" lon="6.04378">
        <ele>2214</ele>
        <time>2021-02-27T10:14:50Z</time>
      </trkpt>
      <trkpt lat="45.23107" lon="6.04378">
        <ele>2214</ele>
        <time>2021-02-27T10:14:51Z</time>
      </trkpt>
      <trkpt lat="45.23107" lon="6.04381">
        <ele>2214.2</ele>
        <time>2021-02-27T10:14:52Z</time>
      </trkpt>
      <trkpt lat="45.23107" lon="6.04381">
        <ele>2214.6</ele>
        <time>2021-02-27T10:14:53Z</time>
      </trkpt>
      <trkpt lat="45.23107" lon="6.04381">
        <ele>2214.8</ele>
        <time>2021-02-27T10:14:54Z</time>
      </trkpt>
      <trkpt lat="45.23107" lon="6.04381">
        <ele>2214.6</ele>
        <time>2021-02-27T10:14:55Z</time>
      </trkpt>
      <trkpt lat="45.2311" lon="6.04382">
        <ele>2214.4</ele>
        <time>2021-02-27T10:14:56Z</time>
      </trkpt>
      <trkpt lat="45.2311" lon="6.04382">
        <ele>2214.4</ele>
        <time>2021-02-27T10:14:57Z</time>
      </trkpt>
      <trkpt lat="45.23111" lon="6.04383">
        <ele>2214.6</ele>
        <time>2021-02-27T10:14:58Z</time>
      </trkpt>
      <trkpt lat="45.23112" lon="6.04383">
        <ele>2214.6</ele>
        <time>2021-02-27T10:14:59Z</time>
      </trkpt>
      <trkpt lat="45.23113" lon="6.04384">
        <ele>2214.8</ele>
        <time>2021-02-27T10:15:00Z</time>
      </trkpt>
      <trkpt lat="45.23114" lon="6.04385">
        <ele>2215.2</ele>
        <time>2021-02-27T10:15:01Z</time>
      </trkpt>
      <trkpt lat="45.23114" lon="6.04385">
        <ele>2215.6</ele>
        <time>2021-02-27T10:15:02Z</time>
      </trkpt>
      <trkpt lat="45.23115" lon="6.04386">
        <ele>2215.8</ele>
        <time>2021-02-27T10:15:03Z</time>
      </trkpt>
      <trkpt lat="45.23116" lon="6.04387">
        <ele>2216.2</ele>
        <time>2021-02-27T10:15:04Z</time>
      </trkpt>
      <trkpt lat="45.23117" lon="6.04387">
        <ele>2216.4</ele>
        <time>2021-02-27T10:15:05Z</time>
      </trkpt>
      <trkpt lat="45.23118" lon="6.04388">
        <ele>2216.4</ele>
        <time>2021-02-27T10:15:06Z</time>
      </trkpt>
      <trkpt lat="45.23118" lon="6.04389">
        <ele>2216.2</ele>
        <time>2021-02-27T10:15:07Z</time>
      </trkpt>
      <trkpt lat="45.23119" lon="6.04389">
        <ele>2216.6</ele>
        <time>2021-02-27T10:15:08Z</time>
      </trkpt>
      <trkpt lat="45.2312" lon="6.0439">
        <ele>2217</ele>
        <time>2021-02-27T10:15:09Z</time>
      </trkpt>
      <trkpt lat="45.23121" lon="6.04391">
        <ele>2217.4</ele>
        <time>2021-02-27T10:15:10Z</time>
      </trkpt>
      <trkpt lat="45.23122" lon="6.04392">
        <ele>2217.8</ele>
        <time>2021-02-27T10:15:11Z</time>
      </trkpt>
      <trkpt lat="45.23123" lon="6.04392">
        <ele>2217.8</ele>
        <time>2021-02-27T10:15:12Z</time>
      </trkpt>
      <trkpt lat="45.23124" lon="6.04393">
        <ele>2218.2</ele>
        <time>2021-02-27T10:15:13Z</time>
      </trkpt>
      <trkpt lat="45.23125" lon="6.04394">
        <ele>2218.8</ele>
        <time>2021-02-27T10:15:14Z</time>
      </trkpt>
      <trkpt lat="45.23126" lon="6.04394">
        <ele>2219</ele>
        <time>2021-02-27T10:15:15Z</time>
      </trkpt>
      <trkpt lat="45.23126" lon="6.04395">
        <ele>2219.4</ele>
        <time>2021-02-27T10:15:16Z</time>
      </trkpt>
      <trkpt lat="45.23126" lon="6.04395">
        <ele>2220</ele>
        <time>2021-02-27T10:15:17Z</time>
      </trkpt>
      <trkpt lat="45.23126" lon="6.04395">
        <ele>2219.6</ele>
        <time>2021-02-27T10:15:18Z</time>
      </trkpt>
      <trkpt lat="45.23126" lon="6.04395">
        <ele>2220</ele>
        <time>2021-02-27T10:15:19Z</time>
      </trkpt>
      <trkpt lat="45.23126" lon="6.04395">
        <ele>2220.4</ele>
        <time>2021-02-27T10:15:20Z</time>
      </trkpt>
      <trkpt lat="45.23126" lon="6.04395">
        <ele>2220.6</ele>
        <time>2021-02-27T10:15:21Z</time>
      </trkpt>
      <trkpt lat="45.23126" lon="6.04395">
        <ele>2221</ele>
        <time>2021-02-27T10:15:22Z</time>
      </trkpt>
      <trkpt lat="45.23126" lon="6.04395">
        <ele>2221.2</ele>
        <time>2021-02-27T10:15:23Z</time>
      </trkpt>
      <trkpt lat="45.23126" lon="6.04395">
        <ele>2222</ele>
        <time>2021-02-27T10:15:24Z</time>
      </trkpt>
      <trkpt lat="45.23126" lon="6.04395">
        <ele>2222.4</ele>
        <time>2021-02-27T10:15:25Z</time>
      </trkpt>
      <trkpt lat="45.23128" lon="6.04399">
        <ele>2222.8</ele>
        <time>2021-02-27T10:15:26Z</time>
      </trkpt>
      <trkpt lat="45.23128" lon="6.04399">
        <ele>2222.6</ele>
        <time>2021-02-27T10:15:27Z</time>
      </trkpt>
      <trkpt lat="45.23126" lon="6.04399">
        <ele>2223.2</ele>
        <time>2021-02-27T10:15:28Z</time>
      </trkpt>
      <trkpt lat="45.23126" lon="6.04399">
        <ele>2223.2</ele>
        <time>2021-02-27T10:15:29Z</time>
      </trkpt>
      <trkpt lat="45.23123" lon="6.044">
        <ele>2223</ele>
        <time>2021-02-27T10:15:30Z</time>
      </trkpt>
      <trkpt lat="45.23123" lon="6.044">
        <ele>2223.4</ele>
        <time>2021-02-27T10:15:31Z</time>
      </trkpt>
      <trkpt lat="45.23123" lon="6.044">
        <ele>2224</ele>
        <time>2021-02-27T10:15:32Z</time>
      </trkpt>
      <trkpt lat="45.23121" lon="6.044">
        <ele>2224</ele>
        <time>2021-02-27T10:15:33Z</time>
      </trkpt>
      <trkpt lat="45.23121" lon="6.044">
        <ele>2224</ele>
        <time>2021-02-27T10:15:34Z</time>
      </trkpt>
      <trkpt lat="45.23121" lon="6.044">
        <ele>2224.8</ele>
        <time>2021-02-27T10:15:35Z</time>
      </trkpt>
      <trkpt lat="45.23119" lon="6.04401">
        <ele>2224.6</ele>
        <time>2021-02-27T10:15:36Z</time>
      </trkpt>
      <trkpt lat="45.23119" lon="6.04401">
        <ele>2224.6</ele>
        <time>2021-02-27T10:15:37Z</time>
      </trkpt>
      <trkpt lat="45.23117" lon="6.04403">
        <ele>2225.4</ele>
        <time>2021-02-27T10:15:38Z</time>
      </trkpt>
      <trkpt lat="45.23117" lon="6.04403">
        <ele>2225.2</ele>
        <time>2021-02-27T10:15:39Z</time>
      </trkpt>
      <trkpt lat="45.23114" lon="6.04404">
        <ele>2225.2</ele>
        <time>2021-02-27T10:15:40Z</time>
      </trkpt>
      <trkpt lat="45.23114" lon="6.04404">
        <ele>2225.8</ele>
        <time>2021-02-27T10:15:41Z</time>
      </trkpt>
      <trkpt lat="45.23113" lon="6.04405">
        <ele>2225.8</ele>
        <time>2021-02-27T10:15:42Z</time>
      </trkpt>
      <trkpt lat="45.23113" lon="6.04405">
        <ele>2225.8</ele>
        <time>2021-02-27T10:15:43Z</time>
      </trkpt>
      <trkpt lat="45.23113" lon="6.04405">
        <ele>2226.6</ele>
        <time>2021-02-27T10:15:44Z</time>
      </trkpt>
      <trkpt lat="45.2311" lon="6.04407">
        <ele>2226.8</ele>
        <time>2021-02-27T10:15:45Z</time>
      </trkpt>
      <trkpt lat="45.2311" lon="6.04407">
        <ele>2227</ele>
        <time>2021-02-27T10:15:46Z</time>
      </trkpt>
      <trkpt lat="45.23108" lon="6.04409">
        <ele>2227.6</ele>
        <time>2021-02-27T10:15:47Z</time>
      </trkpt>
      <trkpt lat="45.23108" lon="6.04409">
        <ele>2227.8</ele>
        <time>2021-02-27T10:15:48Z</time>
      </trkpt>
      <trkpt lat="45.23106" lon="6.04412">
        <ele>2228</ele>
        <time>2021-02-27T10:15:49Z</time>
      </trkpt>
      <trkpt lat="45.23106" lon="6.04412">
        <ele>2228.4</ele>
        <time>2021-02-27T10:15:50Z</time>
      </trkpt>
      <trkpt lat="45.23105" lon="6.04413">
        <ele>2228.4</ele>
        <time>2021-02-27T10:15:51Z</time>
      </trkpt>
      <trkpt lat="45.23105" lon="6.04413">
        <ele>2228.8</ele>
        <time>2021-02-27T10:15:52Z</time>
      </trkpt>
      <trkpt lat="45.23105" lon="6.04413">
        <ele>2228.8</ele>
        <time>2021-02-27T10:15:53Z</time>
      </trkpt>
      <trkpt lat="45.23103" lon="6.04416">
        <ele>2228.8</ele>
        <time>2021-02-27T10:15:54Z</time>
      </trkpt>
      <trkpt lat="45.23103" lon="6.04416">
        <ele>2229.2</ele>
        <time>2021-02-27T10:15:55Z</time>
      </trkpt>
      <trkpt lat="45.23101" lon="6.04418">
        <ele>2229.4</ele>
        <time>2021-02-27T10:15:56Z</time>
      </trkpt>
      <trkpt lat="45.23101" lon="6.04418">
        <ele>2229.4</ele>
        <time>2021-02-27T10:15:57Z</time>
      </trkpt>
      <trkpt lat="45.23099" lon="6.0442">
        <ele>2230.2</ele>
        <time>2021-02-27T10:15:58Z</time>
      </trkpt>
      <trkpt lat="45.23099" lon="6.0442">
        <ele>2230.2</ele>
        <time>2021-02-27T10:15:59Z</time>
      </trkpt>
      <trkpt lat="45.231" lon="6.04421">
        <ele>2230.4</ele>
        <time>2021-02-27T10:16:00Z</time>
      </trkpt>
      <trkpt lat="45.231" lon="6.04422">
        <ele>2231</ele>
        <time>2021-02-27T10:16:01Z</time>
      </trkpt>
      <trkpt lat="45.23101" lon="6.04423">
        <ele>2231</ele>
        <time>2021-02-27T10:16:02Z</time>
      </trkpt>
      <trkpt lat="45.23101" lon="6.04423">
        <ele>2231.4</ele>
        <time>2021-02-27T10:16:03Z</time>
      </trkpt>
      <trkpt lat="45.23102" lon="6.04424">
        <ele>2232.2</ele>
        <time>2021-02-27T10:16:04Z</time>
      </trkpt>
      <trkpt lat="45.23102" lon="6.04425">
        <ele>2232.4</ele>
        <time>2021-02-27T10:16:05Z</time>
      </trkpt>
      <trkpt lat="45.23103" lon="6.04425">
        <ele>2233</ele>
        <time>2021-02-27T10:16:06Z</time>
      </trkpt>
      <trkpt lat="45.23103" lon="6.04426">
        <ele>2233.2</ele>
        <time>2021-02-27T10:16:07Z</time>
      </trkpt>
      <trkpt lat="45.23103" lon="6.04427">
        <ele>2233.6</ele>
        <time>2021-02-27T10:16:08Z</time>
      </trkpt>
      <trkpt lat="45.23104" lon="6.04427">
        <ele>2233.6</ele>
        <time>2021-02-27T10:16:09Z</time>
      </trkpt>
      <trkpt lat="45.23104" lon="6.04428">
        <ele>2233.6</ele>
        <time>2021-02-27T10:16:10Z</time>
      </trkpt>
      <trkpt lat="45.23105" lon="6.04429">
        <ele>2233.6</ele>
        <time>2021-02-27T10:16:11Z</time>
      </trkpt>
      <trkpt lat="45.23105" lon="6.04429">
        <ele>2233.8</ele>
        <time>2021-02-27T10:16:12Z</time>
      </trkpt>
      <trkpt lat="45.23106" lon="6.0443">
        <ele>2233.8</ele>
        <time>2021-02-27T10:16:13Z</time>
      </trkpt>
      <trkpt lat="45.23107" lon="6.0443">
        <ele>2233.8</ele>
        <time>2021-02-27T10:16:14Z</time>
      </trkpt>
      <trkpt lat="45.23109" lon="6.04431">
        <ele>2234</ele>
        <time>2021-02-27T10:16:15Z</time>
      </trkpt>
      <trkpt lat="45.2311" lon="6.04431">
        <ele>2234.4</ele>
        <time>2021-02-27T10:16:16Z</time>
      </trkpt>
      <trkpt lat="45.23112" lon="6.04432">
        <ele>2234.2</ele>
        <time>2021-02-27T10:16:17Z</time>
      </trkpt>
      <trkpt lat="45.23113" lon="6.04432">
        <ele>2234.4</ele>
        <time>2021-02-27T10:16:18Z</time>
      </trkpt>
      <trkpt lat="45.23115" lon="6.04432">
        <ele>2234.6</ele>
        <time>2021-02-27T10:16:19Z</time>
      </trkpt>
      <trkpt lat="45.23115" lon="6.04432">
        <ele>2234.6</ele>
        <time>2021-02-27T10:16:20Z</time>
      </trkpt>
      <trkpt lat="45.23116" lon="6.04432">
        <ele>2235</ele>
        <time>2021-02-27T10:16:21Z</time>
      </trkpt>
      <trkpt lat="45.23116" lon="6.04432">
        <ele>2235</ele>
        <time>2021-02-27T10:16:22Z</time>
      </trkpt>
      <trkpt lat="45.23117" lon="6.04432">
        <ele>2235.4</ele>
        <time>2021-02-27T10:16:23Z</time>
      </trkpt>
      <trkpt lat="45.23118" lon="6.04432">
        <ele>2235.6</ele>
        <time>2021-02-27T10:16:24Z</time>
      </trkpt>
      <trkpt lat="45.23118" lon="6.04432">
        <ele>2236</ele>
        <time>2021-02-27T10:16:25Z</time>
      </trkpt>
      <trkpt lat="45.23119" lon="6.04431">
        <ele>2236.4</ele>
        <time>2021-02-27T10:16:26Z</time>
      </trkpt>
      <trkpt lat="45.23119" lon="6.04431">
        <ele>2236.6</ele>
        <time>2021-02-27T10:16:27Z</time>
      </trkpt>
      <trkpt lat="45.2312" lon="6.04431">
        <ele>2236.6</ele>
        <time>2021-02-27T10:16:28Z</time>
      </trkpt>
      <trkpt lat="45.23121" lon="6.04431">
        <ele>2236.8</ele>
        <time>2021-02-27T10:16:29Z</time>
      </trkpt>
      <trkpt lat="45.23121" lon="6.04431">
        <ele>2237</ele>
        <time>2021-02-27T10:16:30Z</time>
      </trkpt>
      <trkpt lat="45.23122" lon="6.04431">
        <ele>2237</ele>
        <time>2021-02-27T10:16:31Z</time>
      </trkpt>
      <trkpt lat="45.23122" lon="6.04431">
        <ele>2237</ele>
        <time>2021-02-27T10:16:32Z</time>
      </trkpt>
      <trkpt lat="45.23123" lon="6.04431">
        <ele>2237.2</ele>
        <time>2021-02-27T10:16:33Z</time>
      </trkpt>
      <trkpt lat="45.23124" lon="6.0443">
        <ele>2237.4</ele>
        <time>2021-02-27T10:16:34Z</time>
      </trkpt>
      <trkpt lat="45.23124" lon="6.04431">
        <ele>2237.8</ele>
        <time>2021-02-27T10:16:35Z</time>
      </trkpt>
      <trkpt lat="45.23125" lon="6.04431">
        <ele>2238</ele>
        <time>2021-02-27T10:16:36Z</time>
      </trkpt>
      <trkpt lat="45.23126" lon="6.04432">
        <ele>2238.6</ele>
        <time>2021-02-27T10:16:37Z</time>
      </trkpt>
      <trkpt lat="45.23127" lon="6.04432">
        <ele>2239</ele>
        <time>2021-02-27T10:16:38Z</time>
      </trkpt>
      <trkpt lat="45.23128" lon="6.04433">
        <ele>2239.4</ele>
        <time>2021-02-27T10:16:39Z</time>
      </trkpt>
      <trkpt lat="45.23129" lon="6.04433">
        <ele>2239.4</ele>
        <time>2021-02-27T10:16:40Z</time>
      </trkpt>
      <trkpt lat="45.2313" lon="6.04434">
        <ele>2239.4</ele>
        <time>2021-02-27T10:16:41Z</time>
      </trkpt>
      <trkpt lat="45.23131" lon="6.04434">
        <ele>2239.6</ele>
        <time>2021-02-27T10:16:42Z</time>
      </trkpt>
      <trkpt lat="45.23131" lon="6.04435">
        <ele>2239.6</ele>
        <time>2021-02-27T10:16:43Z</time>
      </trkpt>
      <trkpt lat="45.23132" lon="6.04435">
        <ele>2239.8</ele>
        <time>2021-02-27T10:16:44Z</time>
      </trkpt>
      <trkpt lat="45.23132" lon="6.04435">
        <ele>2240</ele>
        <time>2021-02-27T10:16:45Z</time>
      </trkpt>
      <trkpt lat="45.23132" lon="6.04435">
        <ele>2240</ele>
        <time>2021-02-27T10:16:46Z</time>
      </trkpt>
      <trkpt lat="45.23132" lon="6.04435">
        <ele>2240.4</ele>
        <time>2021-02-27T10:16:47Z</time>
      </trkpt>
      <trkpt lat="45.23132" lon="6.04435">
        <ele>2240.6</ele>
        <time>2021-02-27T10:16:48Z</time>
      </trkpt>
      <trkpt lat="45.23132" lon="6.04435">
        <ele>2240.8</ele>
        <time>2021-02-27T10:16:49Z</time>
      </trkpt>
      <trkpt lat="45.23132" lon="6.04435">
        <ele>2241</ele>
        <time>2021-02-27T10:16:50Z</time>
      </trkpt>
      <trkpt lat="45.23132" lon="6.04435">
        <ele>2241.4</ele>
        <time>2021-02-27T10:16:51Z</time>
      </trkpt>
      <trkpt lat="45.23132" lon="6.04435">
        <ele>2241.8</ele>
        <time>2021-02-27T10:16:52Z</time>
      </trkpt>
      <trkpt lat="45.23132" lon="6.04435">
        <ele>2242.4</ele>
        <time>2021-02-27T10:16:53Z</time>
      </trkpt>
      <trkpt lat="45.23132" lon="6.04435">
        <ele>2242.8</ele>
        <time>2021-02-27T10:16:54Z</time>
      </trkpt>
      <trkpt lat="45.23135" lon="6.04439">
        <ele>2243</ele>
        <time>2021-02-27T10:16:55Z</time>
      </trkpt>
      <trkpt lat="45.23135" lon="6.04439">
        <ele>2243.2</ele>
        <time>2021-02-27T10:16:56Z</time>
      </trkpt>
      <trkpt lat="45.23134" lon="6.04439">
        <ele>2243.6</ele>
        <time>2021-02-27T10:16:57Z</time>
      </trkpt>
      <trkpt lat="45.23133" lon="6.0444">
        <ele>2244</ele>
        <time>2021-02-27T10:16:58Z</time>
      </trkpt>
      <trkpt lat="45.23132" lon="6.0444">
        <ele>2243.8</ele>
        <time>2021-02-27T10:16:59Z</time>
      </trkpt>
      <trkpt lat="45.23132" lon="6.04441">
        <ele>2244</ele>
        <time>2021-02-27T10:17:00Z</time>
      </trkpt>
      <trkpt lat="45.23131" lon="6.04442">
        <ele>2244.4</ele>
        <time>2021-02-27T10:17:01Z</time>
      </trkpt>
      <trkpt lat="45.2313" lon="6.04442">
        <ele>2244.4</ele>
        <time>2021-02-27T10:17:02Z</time>
      </trkpt>
      <trkpt lat="45.23129" lon="6.04443">
        <ele>2244.6</ele>
        <time>2021-02-27T10:17:03Z</time>
      </trkpt>
      <trkpt lat="45.23128" lon="6.04443">
        <ele>2245</ele>
        <time>2021-02-27T10:17:04Z</time>
      </trkpt>
      <trkpt lat="45.23127" lon="6.04444">
        <ele>2245.2</ele>
        <time>2021-02-27T10:17:05Z</time>
      </trkpt>
      <trkpt lat="45.23127" lon="6.04445">
        <ele>2246</ele>
        <time>2021-02-27T10:17:06Z</time>
      </trkpt>
      <trkpt lat="45.23126" lon="6.04445">
        <ele>2246.4</ele>
        <time>2021-02-27T10:17:07Z</time>
      </trkpt>
      <trkpt lat="45.23125" lon="6.04446">
        <ele>2246.4</ele>
        <time>2021-02-27T10:17:08Z</time>
      </trkpt>
      <trkpt lat="45.23124" lon="6.04447">
        <ele>2246.8</ele>
        <time>2021-02-27T10:17:09Z</time>
      </trkpt>
      <trkpt lat="45.23123" lon="6.04448">
        <ele>2247.2</ele>
        <time>2021-02-27T10:17:10Z</time>
      </trkpt>
      <trkpt lat="45.23122" lon="6.04448">
        <ele>2247.2</ele>
        <time>2021-02-27T10:17:11Z</time>
      </trkpt>
      <trkpt lat="45.2312" lon="6.0445">
        <ele>2247.8</ele>
        <time>2021-02-27T10:17:12Z</time>
      </trkpt>
      <trkpt lat="45.2312" lon="6.0445">
        <ele>2247.6</ele>
        <time>2021-02-27T10:17:13Z</time>
      </trkpt>
      <trkpt lat="45.23118" lon="6.04451">
        <ele>2247.6</ele>
        <time>2021-02-27T10:17:14Z</time>
      </trkpt>
      <trkpt lat="45.23118" lon="6.04451">
        <ele>2248.4</ele>
        <time>2021-02-27T10:17:15Z</time>
      </trkpt>
      <trkpt lat="45.23116" lon="6.04453">
        <ele>2248.2</ele>
        <time>2021-02-27T10:17:16Z</time>
      </trkpt>
      <trkpt lat="45.23116" lon="6.04453">
        <ele>2248.6</ele>
        <time>2021-02-27T10:17:17Z</time>
      </trkpt>
      <trkpt lat="45.23116" lon="6.04453">
        <ele>2249.2</ele>
        <time>2021-02-27T10:17:18Z</time>
      </trkpt>
      <trkpt lat="45.23114" lon="6.04455">
        <ele>2249.4</ele>
        <time>2021-02-27T10:17:19Z</time>
      </trkpt>
      <trkpt lat="45.23114" lon="6.04455">
        <ele>2249.4</ele>
        <time>2021-02-27T10:17:20Z</time>
      </trkpt>
      <trkpt lat="45.23112" lon="6.04458">
        <ele>2249.8</ele>
        <time>2021-02-27T10:17:21Z</time>
      </trkpt>
      <trkpt lat="45.23112" lon="6.04458">
        <ele>2249.8</ele>
        <time>2021-02-27T10:17:22Z</time>
      </trkpt>
      <trkpt lat="45.23112" lon="6.04458">
        <ele>2249.8</ele>
        <time>2021-02-27T10:17:23Z</time>
      </trkpt>
      <trkpt lat="45.23112" lon="6.04458">
        <ele>2250.2</ele>
        <time>2021-02-27T10:17:24Z</time>
      </trkpt>
      <trkpt lat="45.23112" lon="6.04458">
        <ele>2250.4</ele>
        <time>2021-02-27T10:17:25Z</time>
      </trkpt>
      <trkpt lat="45.23112" lon="6.04458">
        <ele>2250.8</ele>
        <time>2021-02-27T10:17:26Z</time>
      </trkpt>
      <trkpt lat="45.23112" lon="6.04458">
        <ele>2250.8</ele>
        <time>2021-02-27T10:17:27Z</time>
      </trkpt>
      <trkpt lat="45.23112" lon="6.04458">
        <ele>2250.8</ele>
        <time>2021-02-27T10:17:28Z</time>
      </trkpt>
      <trkpt lat="45.23114" lon="6.04459">
        <ele>2250.8</ele>
        <time>2021-02-27T10:17:29Z</time>
      </trkpt>
      <trkpt lat="45.23114" lon="6.04459">
        <ele>2250.8</ele>
        <time>2021-02-27T10:17:30Z</time>
      </trkpt>
      <trkpt lat="45.23116" lon="6.04459">
        <ele>2251.2</ele>
        <time>2021-02-27T10:17:31Z</time>
      </trkpt>
      <trkpt lat="45.23116" lon="6.04459">
        <ele>2251</ele>
        <time>2021-02-27T10:17:32Z</time>
      </trkpt>
      <trkpt lat="45.23118" lon="6.04459">
        <ele>2251</ele>
        <time>2021-02-27T10:17:33Z</time>
      </trkpt>
      <trkpt lat="45.23118" lon="6.04459">
        <ele>2251.2</ele>
        <time>2021-02-27T10:17:34Z</time>
      </trkpt>
      <trkpt lat="45.23121" lon="6.0446">
        <ele>2251.4</ele>
        <time>2021-02-27T10:17:35Z</time>
      </trkpt>
      <trkpt lat="45.23121" lon="6.0446">
        <ele>2251.2</ele>
        <time>2021-02-27T10:17:36Z</time>
      </trkpt>
      <trkpt lat="45.23121" lon="6.0446">
        <ele>2252</ele>
        <time>2021-02-27T10:17:37Z</time>
      </trkpt>
      <trkpt lat="45.23123" lon="6.04461">
        <ele>2252.2</ele>
        <time>2021-02-27T10:17:38Z</time>
      </trkpt>
      <trkpt lat="45.23123" lon="6.04461">
        <ele>2252.4</ele>
        <time>2021-02-27T10:17:39Z</time>
      </trkpt>
      <trkpt lat="45.23123" lon="6.04461">
        <ele>2252.6</ele>
        <time>2021-02-27T10:17:40Z</time>
      </trkpt>
      <trkpt lat="45.23125" lon="6.04462">
        <ele>2252.8</ele>
        <time>2021-02-27T10:17:41Z</time>
      </trkpt>
      <trkpt lat="45.23125" lon="6.04462">
        <ele>2253</ele>
        <time>2021-02-27T10:17:42Z</time>
      </trkpt>
      <trkpt lat="45.23127" lon="6.04462">
        <ele>2253.4</ele>
        <time>2021-02-27T10:17:43Z</time>
      </trkpt>
      <trkpt lat="45.23127" lon="6.04462">
        <ele>2253.8</ele>
        <time>2021-02-27T10:17:44Z</time>
      </trkpt>
      <trkpt lat="45.23127" lon="6.04462">
        <ele>2254</ele>
        <time>2021-02-27T10:17:45Z</time>
      </trkpt>
      <trkpt lat="45.23127" lon="6.04462">
        <ele>2254.4</ele>
        <time>2021-02-27T10:17:46Z</time>
      </trkpt>
      <trkpt lat="45.23127" lon="6.04462">
        <ele>2255</ele>
        <time>2021-02-27T10:17:47Z</time>
      </trkpt>
      <trkpt lat="45.23127" lon="6.04462">
        <ele>2255.2</ele>
        <time>2021-02-27T10:17:48Z</time>
      </trkpt>
      <trkpt lat="45.23125" lon="6.04464">
        <ele>2255.6</ele>
        <time>2021-02-27T10:17:49Z</time>
      </trkpt>
      <trkpt lat="45.23125" lon="6.04464">
        <ele>2255.8</ele>
        <time>2021-02-27T10:17:50Z</time>
      </trkpt>
      <trkpt lat="45.23125" lon="6.04464">
        <ele>2255.8</ele>
        <time>2021-02-27T10:17:51Z</time>
      </trkpt>
      <trkpt lat="45.23123" lon="6.04466">
        <ele>2256.2</ele>
        <time>2021-02-27T10:17:52Z</time>
      </trkpt>
      <trkpt lat="45.23123" lon="6.04466">
        <ele>2256.8</ele>
        <time>2021-02-27T10:17:53Z</time>
      </trkpt>
      <trkpt lat="45.23121" lon="6.04468">
        <ele>2257</ele>
        <time>2021-02-27T10:17:54Z</time>
      </trkpt>
      <trkpt lat="45.23121" lon="6.04468">
        <ele>2257.2</ele>
        <time>2021-02-27T10:17:55Z</time>
      </trkpt>
      <trkpt lat="45.23119" lon="6.0447">
        <ele>2257.6</ele>
        <time>2021-02-27T10:17:56Z</time>
      </trkpt>
      <trkpt lat="45.23119" lon="6.0447">
        <ele>2257.4</ele>
        <time>2021-02-27T10:17:57Z</time>
      </trkpt>
      <trkpt lat="45.23119" lon="6.0447">
        <ele>2258.2</ele>
        <time>2021-02-27T10:17:58Z</time>
      </trkpt>
      <trkpt lat="45.23117" lon="6.04473">
        <ele>2258.4</ele>
        <time>2021-02-27T10:17:59Z</time>
      </trkpt>
      <trkpt lat="45.23117" lon="6.04473">
        <ele>2258.2</ele>
        <time>2021-02-27T10:18:00Z</time>
      </trkpt>
      <trkpt lat="45.23116" lon="6.04474">
        <ele>2258.8</ele>
        <time>2021-02-27T10:18:01Z</time>
      </trkpt>
      <trkpt lat="45.23116" lon="6.04474">
        <ele>2258.6</ele>
        <time>2021-02-27T10:18:02Z</time>
      </trkpt>
      <trkpt lat="45.23114" lon="6.04476">
        <ele>2258.6</ele>
        <time>2021-02-27T10:18:03Z</time>
      </trkpt>
      <trkpt lat="45.23114" lon="6.04476">
        <ele>2259.6</ele>
        <time>2021-02-27T10:18:04Z</time>
      </trkpt>
      <trkpt lat="45.23112" lon="6.04478">
        <ele>2259.8</ele>
        <time>2021-02-27T10:18:05Z</time>
      </trkpt>
      <trkpt lat="45.23112" lon="6.04478">
        <ele>2260</ele>
        <time>2021-02-27T10:18:06Z</time>
      </trkpt>
      <trkpt lat="45.23112" lon="6.0448">
        <ele>2260.4</ele>
        <time>2021-02-27T10:18:07Z</time>
      </trkpt>
      <trkpt lat="45.23112" lon="6.0448">
        <ele>2260.8</ele>
        <time>2021-02-27T10:18:08Z</time>
      </trkpt>
      <trkpt lat="45.23112" lon="6.0448">
        <ele>2260.8</ele>
        <time>2021-02-27T10:18:09Z</time>
      </trkpt>
      <trkpt lat="45.23112" lon="6.0448">
        <ele>2261.2</ele>
        <time>2021-02-27T10:18:10Z</time>
      </trkpt>
      <trkpt lat="45.23114" lon="6.0448">
        <ele>2261</ele>
        <time>2021-02-27T10:18:11Z</time>
      </trkpt>
      <trkpt lat="45.23114" lon="6.0448">
        <ele>2261.2</ele>
        <time>2021-02-27T10:18:12Z</time>
      </trkpt>
      <trkpt lat="45.23116" lon="6.04481">
        <ele>2261.2</ele>
        <time>2021-02-27T10:18:13Z</time>
      </trkpt>
      <trkpt lat="45.23116" lon="6.04481">
        <ele>2261.2</ele>
        <time>2021-02-27T10:18:14Z</time>
      </trkpt>
      <trkpt lat="45.23119" lon="6.04481">
        <ele>2261.6</ele>
        <time>2021-02-27T10:18:15Z</time>
      </trkpt>
      <trkpt lat="45.23119" lon="6.04481">
        <ele>2261.6</ele>
        <time>2021-02-27T10:18:16Z</time>
      </trkpt>
      <trkpt lat="45.23122" lon="6.04481">
        <ele>2261.8</ele>
        <time>2021-02-27T10:18:17Z</time>
      </trkpt>
      <trkpt lat="45.23122" lon="6.04481">
        <ele>2262.2</ele>
        <time>2021-02-27T10:18:18Z</time>
      </trkpt>
      <trkpt lat="45.23124" lon="6.04482">
        <ele>2262.4</ele>
        <time>2021-02-27T10:18:19Z</time>
      </trkpt>
      <trkpt lat="45.23124" lon="6.04482">
        <ele>2262.2</ele>
        <time>2021-02-27T10:18:20Z</time>
      </trkpt>
      <trkpt lat="45.23124" lon="6.04482">
        <ele>2262.2</ele>
        <time>2021-02-27T10:18:21Z</time>
      </trkpt>
      <trkpt lat="45.23124" lon="6.04482">
        <ele>2262.4</ele>
        <time>2021-02-27T10:18:22Z</time>
      </trkpt>
      <trkpt lat="45.23126" lon="6.0448">
        <ele>2262.8</ele>
        <time>2021-02-27T10:18:23Z</time>
      </trkpt>
      <trkpt lat="45.23126" lon="6.0448">
        <ele>2263</ele>
        <time>2021-02-27T10:18:24Z</time>
      </trkpt>
      <trkpt lat="45.23126" lon="6.0448">
        <ele>2263.4</ele>
        <time>2021-02-27T10:18:25Z</time>
      </trkpt>
      <trkpt lat="45.23126" lon="6.0448">
        <ele>2264</ele>
        <time>2021-02-27T10:18:26Z</time>
      </trkpt>
      <trkpt lat="45.23126" lon="6.0448">
        <ele>2264.6</ele>
        <time>2021-02-27T10:18:27Z</time>
      </trkpt>
      <trkpt lat="45.23126" lon="6.0448">
        <ele>2264.4</ele>
        <time>2021-02-27T10:18:28Z</time>
      </trkpt>
      <trkpt lat="45.23123" lon="6.04482">
        <ele>2264.6</ele>
        <time>2021-02-27T10:18:29Z</time>
      </trkpt>
      <trkpt lat="45.23123" lon="6.04482">
        <ele>2264.6</ele>
        <time>2021-02-27T10:18:30Z</time>
      </trkpt>
      <trkpt lat="45.23122" lon="6.04484">
        <ele>2264.4</ele>
        <time>2021-02-27T10:18:31Z</time>
      </trkpt>
      <trkpt lat="45.23122" lon="6.04484">
        <ele>2265.2</ele>
        <time>2021-02-27T10:18:32Z</time>
      </trkpt>
      <trkpt lat="45.23122" lon="6.04484">
        <ele>2265</ele>
        <time>2021-02-27T10:18:33Z</time>
      </trkpt>
      <trkpt lat="45.2312" lon="6.04485">
        <ele>2265.2</ele>
        <time>2021-02-27T10:18:34Z</time>
      </trkpt>
      <trkpt lat="45.2312" lon="6.04485">
        <ele>2265.2</ele>
        <time>2021-02-27T10:18:35Z</time>
      </trkpt>
      <trkpt lat="45.2312" lon="6.04485">
        <ele>2265.8</ele>
        <time>2021-02-27T10:18:36Z</time>
      </trkpt>
      <trkpt lat="45.2312" lon="6.04485">
        <ele>2265.8</ele>
        <time>2021-02-27T10:18:37Z</time>
      </trkpt>
      <trkpt lat="45.23119" lon="6.04488">
        <ele>2266</ele>
        <time>2021-02-27T10:18:38Z</time>
      </trkpt>
      <trkpt lat="45.23119" lon="6.04488">
        <ele>2266</ele>
        <time>2021-02-27T10:18:39Z</time>
      </trkpt>
      <trkpt lat="45.23119" lon="6.04488">
        <ele>2266.6</ele>
        <time>2021-02-27T10:18:40Z</time>
      </trkpt>
      <trkpt lat="45.23119" lon="6.04488">
        <ele>2266.4</ele>
        <time>2021-02-27T10:18:41Z</time>
      </trkpt>
      <trkpt lat="45.2312" lon="6.04491">
        <ele>2266.4</ele>
        <time>2021-02-27T10:18:42Z</time>
      </trkpt>
      <trkpt lat="45.2312" lon="6.04491">
        <ele>2267</ele>
        <time>2021-02-27T10:18:43Z</time>
      </trkpt>
      <trkpt lat="45.2312" lon="6.04491">
        <ele>2267.4</ele>
        <time>2021-02-27T10:18:44Z</time>
      </trkpt>
      <trkpt lat="45.2312" lon="6.04491">
        <ele>2267.8</ele>
        <time>2021-02-27T10:18:45Z</time>
      </trkpt>
      <trkpt lat="45.2312" lon="6.04491">
        <ele>2267.8</ele>
        <time>2021-02-27T10:18:46Z</time>
      </trkpt>
      <trkpt lat="45.2312" lon="6.04491">
        <ele>2267.8</ele>
        <time>2021-02-27T10:18:47Z</time>
      </trkpt>
      <trkpt lat="45.23122" lon="6.0449">
        <ele>2267.6</ele>
        <time>2021-02-27T10:18:48Z</time>
      </trkpt>
      <trkpt lat="45.23122" lon="6.0449">
        <ele>2268</ele>
        <time>2021-02-27T10:18:49Z</time>
      </trkpt>
      <trkpt lat="45.23122" lon="6.0449">
        <ele>2268</ele>
        <time>2021-02-27T10:18:50Z</time>
      </trkpt>
      <trkpt lat="45.23125" lon="6.0449">
        <ele>2268.4</ele>
        <time>2021-02-27T10:18:51Z</time>
      </trkpt>
      <trkpt lat="45.23125" lon="6.0449">
        <ele>2268.4</ele>
        <time>2021-02-27T10:18:52Z</time>
      </trkpt>
      <trkpt lat="45.23127" lon="6.04491">
        <ele>2268.8</ele>
        <time>2021-02-27T10:18:53Z</time>
      </trkpt>
      <trkpt lat="45.23127" lon="6.04491">
        <ele>2269.2</ele>
        <time>2021-02-27T10:18:54Z</time>
      </trkpt>
      <trkpt lat="45.23127" lon="6.04491">
        <ele>2269.4</ele>
        <time>2021-02-27T10:18:55Z</time>
      </trkpt>
      <trkpt lat="45.23127" lon="6.04491">
        <ele>2270.2</ele>
        <time>2021-02-27T10:18:56Z</time>
      </trkpt>
      <trkpt lat="45.2313" lon="6.04491">
        <ele>2270.6</ele>
        <time>2021-02-27T10:18:57Z</time>
      </trkpt>
      <trkpt lat="45.2313" lon="6.04491">
        <ele>2270.6</ele>
        <time>2021-02-27T10:18:58Z</time>
      </trkpt>
      <trkpt lat="45.2313" lon="6.04491">
        <ele>2270.8</ele>
        <time>2021-02-27T10:18:59Z</time>
      </trkpt>
      <trkpt lat="45.23132" lon="6.04491">
        <ele>2271.4</ele>
        <time>2021-02-27T10:19:00Z</time>
      </trkpt>
      <trkpt lat="45.23132" lon="6.04491">
        <ele>2271.6</ele>
        <time>2021-02-27T10:19:01Z</time>
      </trkpt>
      <trkpt lat="45.23132" lon="6.04491">
        <ele>2272.2</ele>
        <time>2021-02-27T10:19:02Z</time>
      </trkpt>
      <trkpt lat="45.23132" lon="6.04491">
        <ele>2272.4</ele>
        <time>2021-02-27T10:19:03Z</time>
      </trkpt>
      <trkpt lat="45.23133" lon="6.04493">
        <ele>2273</ele>
        <time>2021-02-27T10:19:04Z</time>
      </trkpt>
      <trkpt lat="45.23133" lon="6.04493">
        <ele>2273.6</ele>
        <time>2021-02-27T10:19:05Z</time>
      </trkpt>
      <trkpt lat="45.23133" lon="6.04493">
        <ele>2274</ele>
        <time>2021-02-27T10:19:06Z</time>
      </trkpt>
      <trkpt lat="45.23132" lon="6.04496">
        <ele>2274.6</ele>
        <time>2021-02-27T10:19:07Z</time>
      </trkpt>
      <trkpt lat="45.23132" lon="6.04496">
        <ele>2274.6</ele>
        <time>2021-02-27T10:19:08Z</time>
      </trkpt>
      <trkpt lat="45.23131" lon="6.04498">
        <ele>2274.6</ele>
        <time>2021-02-27T10:19:09Z</time>
      </trkpt>
      <trkpt lat="45.23131" lon="6.04498">
        <ele>2275</ele>
        <time>2021-02-27T10:19:10Z</time>
      </trkpt>
      <trkpt lat="45.23131" lon="6.04498">
        <ele>2275.4</ele>
        <time>2021-02-27T10:19:11Z</time>
      </trkpt>
      <trkpt lat="45.23129" lon="6.04501">
        <ele>2276</ele>
        <time>2021-02-27T10:19:12Z</time>
      </trkpt>
      <trkpt lat="45.23129" lon="6.04501">
        <ele>2275.6</ele>
        <time>2021-02-27T10:19:13Z</time>
      </trkpt>
      <trkpt lat="45.23128" lon="6.04503">
        <ele>2276</ele>
        <time>2021-02-27T10:19:14Z</time>
      </trkpt>
      <trkpt lat="45.23128" lon="6.04503">
        <ele>2276.2</ele>
        <time>2021-02-27T10:19:15Z</time>
      </trkpt>
      <trkpt lat="45.23128" lon="6.04503">
        <ele>2275.8</ele>
        <time>2021-02-27T10:19:16Z</time>
      </trkpt>
      <trkpt lat="45.23128" lon="6.04503">
        <ele>2275.8</ele>
        <time>2021-02-27T10:19:17Z</time>
      </trkpt>
      <trkpt lat="45.23128" lon="6.04503">
        <ele>2276</ele>
        <time>2021-02-27T10:19:18Z</time>
      </trkpt>
      <trkpt lat="45.23128" lon="6.04503">
        <ele>2276</ele>
        <time>2021-02-27T10:19:19Z</time>
      </trkpt>
      <trkpt lat="45.23128" lon="6.04503">
        <ele>2275.8</ele>
        <time>2021-02-27T10:19:20Z</time>
      </trkpt>
      <trkpt lat="45.2313" lon="6.04504">
        <ele>2275.8</ele>
        <time>2021-02-27T10:19:21Z</time>
      </trkpt>
      <trkpt lat="45.23132" lon="6.04505">
        <ele>2275.4</ele>
        <time>2021-02-27T10:19:22Z</time>
      </trkpt>
      <trkpt lat="45.23132" lon="6.04505">
        <ele>2275.4</ele>
        <time>2021-02-27T10:19:23Z</time>
      </trkpt>
      <trkpt lat="45.23134" lon="6.04505">
        <ele>2275.8</ele>
        <time>2021-02-27T10:19:24Z</time>
      </trkpt>
      <trkpt lat="45.23134" lon="6.04505">
        <ele>2276</ele>
        <time>2021-02-27T10:19:25Z</time>
      </trkpt>
      <trkpt lat="45.23134" lon="6.04505">
        <ele>2276.8</ele>
        <time>2021-02-27T10:19:26Z</time>
      </trkpt>
      <trkpt lat="45.23137" lon="6.04505">
        <ele>2277</ele>
        <time>2021-02-27T10:19:27Z</time>
      </trkpt>
      <trkpt lat="45.23137" lon="6.04505">
        <ele>2277.4</ele>
        <time>2021-02-27T10:19:28Z</time>
      </trkpt>
      <trkpt lat="45.23139" lon="6.04504">
        <ele>2277.6</ele>
        <time>2021-02-27T10:19:29Z</time>
      </trkpt>
      <trkpt lat="45.23139" lon="6.04504">
        <ele>2277.8</ele>
        <time>2021-02-27T10:19:30Z</time>
      </trkpt>
      <trkpt lat="45.23139" lon="6.04504">
        <ele>2277.6</ele>
        <time>2021-02-27T10:19:31Z</time>
      </trkpt>
      <trkpt lat="45.23141" lon="6.04503">
        <ele>2277.8</ele>
        <time>2021-02-27T10:19:32Z</time>
      </trkpt>
      <trkpt lat="45.23141" lon="6.04503">
        <ele>2278.8</ele>
        <time>2021-02-27T10:19:33Z</time>
      </trkpt>
      <trkpt lat="45.23141" lon="6.04503">
        <ele>2278.8</ele>
        <time>2021-02-27T10:19:34Z</time>
      </trkpt>
      <trkpt lat="45.23141" lon="6.04503">
        <ele>2279</ele>
        <time>2021-02-27T10:19:35Z</time>
      </trkpt>
      <trkpt lat="45.23141" lon="6.04503">
        <ele>2279.6</ele>
        <time>2021-02-27T10:19:36Z</time>
      </trkpt>
      <trkpt lat="45.23141" lon="6.04503">
        <ele>2280</ele>
        <time>2021-02-27T10:19:37Z</time>
      </trkpt>
      <trkpt lat="45.2314" lon="6.04506">
        <ele>2280.6</ele>
        <time>2021-02-27T10:19:38Z</time>
      </trkpt>
      <trkpt lat="45.2314" lon="6.04506">
        <ele>2280.6</ele>
        <time>2021-02-27T10:19:39Z</time>
      </trkpt>
      <trkpt lat="45.23138" lon="6.04508">
        <ele>2280.6</ele>
        <time>2021-02-27T10:19:40Z</time>
      </trkpt>
      <trkpt lat="45.23138" lon="6.04508">
        <ele>2280.6</ele>
        <time>2021-02-27T10:19:41Z</time>
      </trkpt>
      <trkpt lat="45.23138" lon="6.04508">
        <ele>2281</ele>
        <time>2021-02-27T10:19:42Z</time>
      </trkpt>
      <trkpt lat="45.23136" lon="6.0451">
        <ele>2281.4</ele>
        <time>2021-02-27T10:19:43Z</time>
      </trkpt>
      <trkpt lat="45.23136" lon="6.0451">
        <ele>2281.4</ele>
        <time>2021-02-27T10:19:44Z</time>
      </trkpt>
      <trkpt lat="45.23134" lon="6.04511">
        <ele>2282</ele>
        <time>2021-02-27T10:19:45Z</time>
      </trkpt>
      <trkpt lat="45.23134" lon="6.04511">
        <ele>2282.4</ele>
        <time>2021-02-27T10:19:46Z</time>
      </trkpt>
      <trkpt lat="45.23134" lon="6.04511">
        <ele>2282.4</ele>
        <time>2021-02-27T10:19:47Z</time>
      </trkpt>
      <trkpt lat="45.23133" lon="6.04513">
        <ele>2283</ele>
        <time>2021-02-27T10:19:48Z</time>
      </trkpt>
      <trkpt lat="45.23133" lon="6.04513">
        <ele>2282.8</ele>
        <time>2021-02-27T10:19:49Z</time>
      </trkpt>
      <trkpt lat="45.23133" lon="6.04513">
        <ele>2283.4</ele>
        <time>2021-02-27T10:19:50Z</time>
      </trkpt>
      <trkpt lat="45.23133" lon="6.04513">
        <ele>2283.6</ele>
        <time>2021-02-27T10:19:51Z</time>
      </trkpt>
      <trkpt lat="45.23133" lon="6.04513">
        <ele>2283.8</ele>
        <time>2021-02-27T10:19:52Z</time>
      </trkpt>
      <trkpt lat="45.23133" lon="6.04513">
        <ele>2284.2</ele>
        <time>2021-02-27T10:19:53Z</time>
      </trkpt>
      <trkpt lat="45.23135" lon="6.04514">
        <ele>2284.6</ele>
        <time>2021-02-27T10:19:54Z</time>
      </trkpt>
      <trkpt lat="45.23135" lon="6.04514">
        <ele>2285.4</ele>
        <time>2021-02-27T10:19:55Z</time>
      </trkpt>
      <trkpt lat="45.23138" lon="6.04515">
        <ele>2285.8</ele>
        <time>2021-02-27T10:19:56Z</time>
      </trkpt>
      <trkpt lat="45.23138" lon="6.04515">
        <ele>2286</ele>
        <time>2021-02-27T10:19:57Z</time>
      </trkpt>
      <trkpt lat="45.2314" lon="6.04516">
        <ele>2285.8</ele>
        <time>2021-02-27T10:19:58Z</time>
      </trkpt>
      <trkpt lat="45.2314" lon="6.04516">
        <ele>2285.8</ele>
        <time>2021-02-27T10:19:59Z</time>
      </trkpt>
      <trkpt lat="45.23143" lon="6.04516">
        <ele>2285.4</ele>
        <time>2021-02-27T10:20:00Z</time>
      </trkpt>
      <trkpt lat="45.23143" lon="6.04516">
        <ele>2286</ele>
        <time>2021-02-27T10:20:01Z</time>
      </trkpt>
      <trkpt lat="45.23143" lon="6.04516">
        <ele>2285.8</ele>
        <time>2021-02-27T10:20:02Z</time>
      </trkpt>
      <trkpt lat="45.23145" lon="6.04516">
        <ele>2286</ele>
        <time>2021-02-27T10:20:03Z</time>
      </trkpt>
      <trkpt lat="45.23145" lon="6.04516">
        <ele>2286.2</ele>
        <time>2021-02-27T10:20:04Z</time>
      </trkpt>
      <trkpt lat="45.23145" lon="6.04516">
        <ele>2286.2</ele>
        <time>2021-02-27T10:20:05Z</time>
      </trkpt>
      <trkpt lat="45.23145" lon="6.04516">
        <ele>2286.6</ele>
        <time>2021-02-27T10:20:06Z</time>
      </trkpt>
      <trkpt lat="45.23145" lon="6.04516">
        <ele>2286.8</ele>
        <time>2021-02-27T10:20:07Z</time>
      </trkpt>
      <trkpt lat="45.23146" lon="6.04518">
        <ele>2287.8</ele>
        <time>2021-02-27T10:20:08Z</time>
      </trkpt>
      <trkpt lat="45.23146" lon="6.04518">
        <ele>2288.2</ele>
        <time>2021-02-27T10:20:09Z</time>
      </trkpt>
      <trkpt lat="45.23146" lon="6.04518">
        <ele>2288.4</ele>
        <time>2021-02-27T10:20:10Z</time>
      </trkpt>
      <trkpt lat="45.23146" lon="6.04518">
        <ele>2288.8</ele>
        <time>2021-02-27T10:20:11Z</time>
      </trkpt>
      <trkpt lat="45.23145" lon="6.04521">
        <ele>2289.4</ele>
        <time>2021-02-27T10:20:12Z</time>
      </trkpt>
      <trkpt lat="45.23145" lon="6.04521">
        <ele>2289.4</ele>
        <time>2021-02-27T10:20:13Z</time>
      </trkpt>
      <trkpt lat="45.23145" lon="6.04521">
        <ele>2289.4</ele>
        <time>2021-02-27T10:20:14Z</time>
      </trkpt>
      <trkpt lat="45.23143" lon="6.04524">
        <ele>2289.8</ele>
        <time>2021-02-27T10:20:15Z</time>
      </trkpt>
      <trkpt lat="45.23143" lon="6.04524">
        <ele>2290</ele>
        <time>2021-02-27T10:20:16Z</time>
      </trkpt>
      <trkpt lat="45.23143" lon="6.04524">
        <ele>2290.4</ele>
        <time>2021-02-27T10:20:17Z</time>
      </trkpt>
      <trkpt lat="45.23143" lon="6.04524">
        <ele>2290.6</ele>
        <time>2021-02-27T10:20:18Z</time>
      </trkpt>
      <trkpt lat="45.23143" lon="6.04524">
        <ele>2290.8</ele>
        <time>2021-02-27T10:20:19Z</time>
      </trkpt>
      <trkpt lat="45.23143" lon="6.04524">
        <ele>2291</ele>
        <time>2021-02-27T10:20:20Z</time>
      </trkpt>
      <trkpt lat="45.23143" lon="6.04524">
        <ele>2291.2</ele>
        <time>2021-02-27T10:20:21Z</time>
      </trkpt>
      <trkpt lat="45.23143" lon="6.04524">
        <ele>2291.4</ele>
        <time>2021-02-27T10:20:22Z</time>
      </trkpt>
      <trkpt lat="45.23143" lon="6.04524">
        <ele>2291.6</ele>
        <time>2021-02-27T10:20:23Z</time>
      </trkpt>
      <trkpt lat="45.23146" lon="6.04524">
        <ele>2291.6</ele>
        <time>2021-02-27T10:20:24Z</time>
      </trkpt>
      <trkpt lat="45.23146" lon="6.04524">
        <ele>2291.8</ele>
        <time>2021-02-27T10:20:25Z</time>
      </trkpt>
      <trkpt lat="45.23149" lon="6.04524">
        <ele>2292</ele>
        <time>2021-02-27T10:20:26Z</time>
      </trkpt>
      <trkpt lat="45.23149" lon="6.04524">
        <ele>2291.8</ele>
        <time>2021-02-27T10:20:27Z</time>
      </trkpt>
      <trkpt lat="45.23152" lon="6.04523">
        <ele>2292</ele>
        <time>2021-02-27T10:20:28Z</time>
      </trkpt>
      <trkpt lat="45.23152" lon="6.04523">
        <ele>2292</ele>
        <time>2021-02-27T10:20:29Z</time>
      </trkpt>
      <trkpt lat="45.23154" lon="6.04522">
        <ele>2292.2</ele>
        <time>2021-02-27T10:20:30Z</time>
      </trkpt>
      <trkpt lat="45.23154" lon="6.04522">
        <ele>2292.4</ele>
        <time>2021-02-27T10:20:31Z</time>
      </trkpt>
      <trkpt lat="45.23157" lon="6.04521">
        <ele>2292.2</ele>
        <time>2021-02-27T10:20:32Z</time>
      </trkpt>
      <trkpt lat="45.23157" lon="6.04521">
        <ele>2292.2</ele>
        <time>2021-02-27T10:20:33Z</time>
      </trkpt>
      <trkpt lat="45.23158" lon="6.04519">
        <ele>2292.2</ele>
        <time>2021-02-27T10:20:34Z</time>
      </trkpt>
      <trkpt lat="45.23158" lon="6.04519">
        <ele>2292.6</ele>
        <time>2021-02-27T10:20:35Z</time>
      </trkpt>
      <trkpt lat="45.23159" lon="6.04517">
        <ele>2292.8</ele>
        <time>2021-02-27T10:20:36Z</time>
      </trkpt>
      <trkpt lat="45.23159" lon="6.04517">
        <ele>2292.8</ele>
        <time>2021-02-27T10:20:37Z</time>
      </trkpt>
      <trkpt lat="45.23159" lon="6.04517">
        <ele>2292.6</ele>
        <time>2021-02-27T10:20:38Z</time>
      </trkpt>
      <trkpt lat="45.2316" lon="6.04514">
        <ele>2292.8</ele>
        <time>2021-02-27T10:20:39Z</time>
      </trkpt>
      <trkpt lat="45.2316" lon="6.04514">
        <ele>2293.2</ele>
        <time>2021-02-27T10:20:40Z</time>
      </trkpt>
      <trkpt lat="45.2316" lon="6.04514">
        <ele>2293.2</ele>
        <time>2021-02-27T10:20:41Z</time>
      </trkpt>
      <trkpt lat="45.2316" lon="6.04514">
        <ele>2294</ele>
        <time>2021-02-27T10:20:42Z</time>
      </trkpt>
      <trkpt lat="45.23162" lon="6.04516">
        <ele>2294.4</ele>
        <time>2021-02-27T10:20:43Z</time>
      </trkpt>
      <trkpt lat="45.23162" lon="6.04516">
        <ele>2294.2</ele>
        <time>2021-02-27T10:20:44Z</time>
      </trkpt>
      <trkpt lat="45.23162" lon="6.04519">
        <ele>2294.8</ele>
        <time>2021-02-27T10:20:45Z</time>
      </trkpt>
      <trkpt lat="45.23162" lon="6.04519">
        <ele>2295</ele>
        <time>2021-02-27T10:20:46Z</time>
      </trkpt>
      <trkpt lat="45.23162" lon="6.04519">
        <ele>2295.2</ele>
        <time>2021-02-27T10:20:47Z</time>
      </trkpt>
      <trkpt lat="45.23161" lon="6.04522">
        <ele>2295.8</ele>
        <time>2021-02-27T10:20:48Z</time>
      </trkpt>
      <trkpt lat="45.23161" lon="6.04522">
        <ele>2296</ele>
        <time>2021-02-27T10:20:49Z</time>
      </trkpt>
      <trkpt lat="45.23161" lon="6.04525">
        <ele>2296.2</ele>
        <time>2021-02-27T10:20:50Z</time>
      </trkpt>
      <trkpt lat="45.23161" lon="6.04525">
        <ele>2296.8</ele>
        <time>2021-02-27T10:20:51Z</time>
      </trkpt>
      <trkpt lat="45.2316" lon="6.04527">
        <ele>2297</ele>
        <time>2021-02-27T10:20:52Z</time>
      </trkpt>
      <trkpt lat="45.2316" lon="6.04527">
        <ele>2297.4</ele>
        <time>2021-02-27T10:20:53Z</time>
      </trkpt>
      <trkpt lat="45.2316" lon="6.04527">
        <ele>2297.8</ele>
        <time>2021-02-27T10:20:54Z</time>
      </trkpt>
      <trkpt lat="45.23159" lon="6.04531">
        <ele>2297.6</ele>
        <time>2021-02-27T10:20:55Z</time>
      </trkpt>
      <trkpt lat="45.23159" lon="6.04531">
        <ele>2298.6</ele>
        <time>2021-02-27T10:20:56Z</time>
      </trkpt>
      <trkpt lat="45.23158" lon="6.04533">
        <ele>2298.6</ele>
        <time>2021-02-27T10:20:57Z</time>
      </trkpt>
      <trkpt lat="45.23158" lon="6.04533">
        <ele>2298.4</ele>
        <time>2021-02-27T10:20:58Z</time>
      </trkpt>
      <trkpt lat="45.23158" lon="6.04536">
        <ele>2299</ele>
        <time>2021-02-27T10:20:59Z</time>
      </trkpt>
      <trkpt lat="45.23158" lon="6.04536">
        <ele>2299.2</ele>
        <time>2021-02-27T10:21:00Z</time>
      </trkpt>
      <trkpt lat="45.23158" lon="6.04536">
        <ele>2299.2</ele>
        <time>2021-02-27T10:21:01Z</time>
      </trkpt>
      <trkpt lat="45.23158" lon="6.04536">
        <ele>2299.8</ele>
        <time>2021-02-27T10:21:02Z</time>
      </trkpt>
      <trkpt lat="45.23158" lon="6.04536">
        <ele>2300.2</ele>
        <time>2021-02-27T10:21:03Z</time>
      </trkpt>
      <trkpt lat="45.23158" lon="6.04536">
        <ele>2300.4</ele>
        <time>2021-02-27T10:21:04Z</time>
      </trkpt>
      <trkpt lat="45.23158" lon="6.04536">
        <ele>2301</ele>
        <time>2021-02-27T10:21:05Z</time>
      </trkpt>
      <trkpt lat="45.23155" lon="6.0454">
        <ele>2301.2</ele>
        <time>2021-02-27T10:21:06Z</time>
      </trkpt>
      <trkpt lat="45.23155" lon="6.0454">
        <ele>2301.4</ele>
        <time>2021-02-27T10:21:07Z</time>
      </trkpt>
      <trkpt lat="45.23155" lon="6.0454">
        <ele>2301.4</ele>
        <time>2021-02-27T10:21:08Z</time>
      </trkpt>
      <trkpt lat="45.23157" lon="6.04539">
        <ele>2301.4</ele>
        <time>2021-02-27T10:21:09Z</time>
      </trkpt>
      <trkpt lat="45.23157" lon="6.04539">
        <ele>2301.4</ele>
        <time>2021-02-27T10:21:10Z</time>
      </trkpt>
      <trkpt lat="45.23159" lon="6.04538">
        <ele>2301.6</ele>
        <time>2021-02-27T10:21:11Z</time>
      </trkpt>
      <trkpt lat="45.23159" lon="6.04538">
        <ele>2301.8</ele>
        <time>2021-02-27T10:21:12Z</time>
      </trkpt>
      <trkpt lat="45.23162" lon="6.04537">
        <ele>2301.8</ele>
        <time>2021-02-27T10:21:13Z</time>
      </trkpt>
      <trkpt lat="45.23162" lon="6.04537">
        <ele>2302</ele>
        <time>2021-02-27T10:21:14Z</time>
      </trkpt>
      <trkpt lat="45.23162" lon="6.04537">
        <ele>2302.2</ele>
        <time>2021-02-27T10:21:15Z</time>
      </trkpt>
      <trkpt lat="45.23164" lon="6.04536">
        <ele>2302.6</ele>
        <time>2021-02-27T10:21:16Z</time>
      </trkpt>
      <trkpt lat="45.23164" lon="6.04536">
        <ele>2302.8</ele>
        <time>2021-02-27T10:21:17Z</time>
      </trkpt>
      <trkpt lat="45.23167" lon="6.04536">
        <ele>2303</ele>
        <time>2021-02-27T10:21:18Z</time>
      </trkpt>
      <trkpt lat="45.23167" lon="6.04536">
        <ele>2303.2</ele>
        <time>2021-02-27T10:21:19Z</time>
      </trkpt>
      <trkpt lat="45.23169" lon="6.04535">
        <ele>2303.4</ele>
        <time>2021-02-27T10:21:20Z</time>
      </trkpt>
      <trkpt lat="45.23169" lon="6.04535">
        <ele>2303.6</ele>
        <time>2021-02-27T10:21:21Z</time>
      </trkpt>
      <trkpt lat="45.23169" lon="6.04535">
        <ele>2304</ele>
        <time>2021-02-27T10:21:22Z</time>
      </trkpt>
      <trkpt lat="45.23171" lon="6.04535">
        <ele>2304</ele>
        <time>2021-02-27T10:21:23Z</time>
      </trkpt>
      <trkpt lat="45.23171" lon="6.04535">
        <ele>2304.2</ele>
        <time>2021-02-27T10:21:24Z</time>
      </trkpt>
      <trkpt lat="45.23171" lon="6.04535">
        <ele>2304.6</ele>
        <time>2021-02-27T10:21:25Z</time>
      </trkpt>
      <trkpt lat="45.23171" lon="6.04535">
        <ele>2304.8</ele>
        <time>2021-02-27T10:21:26Z</time>
      </trkpt>
      <trkpt lat="45.23171" lon="6.04535">
        <ele>2305.2</ele>
        <time>2021-02-27T10:21:27Z</time>
      </trkpt>
      <trkpt lat="45.23173" lon="6.04533">
        <ele>2305.2</ele>
        <time>2021-02-27T10:21:28Z</time>
      </trkpt>
      <trkpt lat="45.23173" lon="6.04533">
        <ele>2305.4</ele>
        <time>2021-02-27T10:21:29Z</time>
      </trkpt>
      <trkpt lat="45.23173" lon="6.04533">
        <ele>2305.2</ele>
        <time>2021-02-27T10:21:30Z</time>
      </trkpt>
      <trkpt lat="45.23173" lon="6.04533">
        <ele>2305.4</ele>
        <time>2021-02-27T10:21:31Z</time>
      </trkpt>
      <trkpt lat="45.23173" lon="6.04533">
        <ele>2305.8</ele>
        <time>2021-02-27T10:21:32Z</time>
      </trkpt>
      <trkpt lat="45.23173" lon="6.04533">
        <ele>2306</ele>
        <time>2021-02-27T10:21:33Z</time>
      </trkpt>
      <trkpt lat="45.23175" lon="6.04531">
        <ele>2306</ele>
        <time>2021-02-27T10:21:34Z</time>
      </trkpt>
      <trkpt lat="45.23175" lon="6.04531">
        <ele>2305.6</ele>
        <time>2021-02-27T10:21:35Z</time>
      </trkpt>
      <trkpt lat="45.23175" lon="6.04531">
        <ele>2306.2</ele>
        <time>2021-02-27T10:21:36Z</time>
      </trkpt>
      <trkpt lat="45.23175" lon="6.04531">
        <ele>2306.2</ele>
        <time>2021-02-27T10:21:37Z</time>
      </trkpt>
      <trkpt lat="45.23175" lon="6.04531">
        <ele>2306.6</ele>
        <time>2021-02-27T10:21:38Z</time>
      </trkpt>
      <trkpt lat="45.23175" lon="6.04531">
        <ele>2307</ele>
        <time>2021-02-27T10:21:39Z</time>
      </trkpt>
      <trkpt lat="45.23175" lon="6.04531">
        <ele>2307.4</ele>
        <time>2021-02-27T10:21:40Z</time>
      </trkpt>
      <trkpt lat="45.23175" lon="6.04531">
        <ele>2308</ele>
        <time>2021-02-27T10:21:41Z</time>
      </trkpt>
      <trkpt lat="45.23175" lon="6.04531">
        <ele>2308.4</ele>
        <time>2021-02-27T10:21:42Z</time>
      </trkpt>
      <trkpt lat="45.23173" lon="6.04534">
        <ele>2308.2</ele>
        <time>2021-02-27T10:21:43Z</time>
      </trkpt>
      <trkpt lat="45.23173" lon="6.04534">
        <ele>2308.4</ele>
        <time>2021-02-27T10:21:44Z</time>
      </trkpt>
      <trkpt lat="45.23172" lon="6.04537">
        <ele>2308.6</ele>
        <time>2021-02-27T10:21:45Z</time>
      </trkpt>
      <trkpt lat="45.23172" lon="6.04537">
        <ele>2309</ele>
        <time>2021-02-27T10:21:46Z</time>
      </trkpt>
      <trkpt lat="45.23171" lon="6.04539">
        <ele>2309</ele>
        <time>2021-02-27T10:21:47Z</time>
      </trkpt>
      <trkpt lat="45.23171" lon="6.04539">
        <ele>2309.4</ele>
        <time>2021-02-27T10:21:48Z</time>
      </trkpt>
      <trkpt lat="45.2317" lon="6.04541">
        <ele>2309.8</ele>
        <time>2021-02-27T10:21:49Z</time>
      </trkpt>
      <trkpt lat="45.2317" lon="6.04541">
        <ele>2310</ele>
        <time>2021-02-27T10:21:50Z</time>
      </trkpt>
      <trkpt lat="45.2317" lon="6.04541">
        <ele>2310.2</ele>
        <time>2021-02-27T10:21:51Z</time>
      </trkpt>
      <trkpt lat="45.2317" lon="6.04541">
        <ele>2310</ele>
        <time>2021-02-27T10:21:52Z</time>
      </trkpt>
      <trkpt lat="45.2317" lon="6.04541">
        <ele>2310.6</ele>
        <time>2021-02-27T10:21:53Z</time>
      </trkpt>
      <trkpt lat="45.2317" lon="6.04541">
        <ele>2310.8</ele>
        <time>2021-02-27T10:21:54Z</time>
      </trkpt>
      <trkpt lat="45.2317" lon="6.04541">
        <ele>2311.2</ele>
        <time>2021-02-27T10:21:55Z</time>
      </trkpt>
      <trkpt lat="45.23172" lon="6.04546">
        <ele>2311.4</ele>
        <time>2021-02-27T10:21:56Z</time>
      </trkpt>
      <trkpt lat="45.23172" lon="6.04546">
        <ele>2311.4</ele>
        <time>2021-02-27T10:21:57Z</time>
      </trkpt>
      <trkpt lat="45.23172" lon="6.04546">
        <ele>2311.6</ele>
        <time>2021-02-27T10:21:58Z</time>
      </trkpt>
      <trkpt lat="45.23174" lon="6.04544">
        <ele>2311.6</ele>
        <time>2021-02-27T10:21:59Z</time>
      </trkpt>
      <trkpt lat="45.23174" lon="6.04544">
        <ele>2311.8</ele>
        <time>2021-02-27T10:22:00Z</time>
      </trkpt>
      <trkpt lat="45.23177" lon="6.04543">
        <ele>2312</ele>
        <time>2021-02-27T10:22:01Z</time>
      </trkpt>
      <trkpt lat="45.23177" lon="6.04543">
        <ele>2312.2</ele>
        <time>2021-02-27T10:22:02Z</time>
      </trkpt>
      <trkpt lat="45.23179" lon="6.04541">
        <ele>2312.6</ele>
        <time>2021-02-27T10:22:03Z</time>
      </trkpt>
      <trkpt lat="45.23179" lon="6.04541">
        <ele>2312.4</ele>
        <time>2021-02-27T10:22:04Z</time>
      </trkpt>
      <trkpt lat="45.2318" lon="6.04538">
        <ele>2312.8</ele>
        <time>2021-02-27T10:22:05Z</time>
      </trkpt>
      <trkpt lat="45.2318" lon="6.04538">
        <ele>2312.6</ele>
        <time>2021-02-27T10:22:06Z</time>
      </trkpt>
      <trkpt lat="45.23182" lon="6.04536">
        <ele>2313</ele>
        <time>2021-02-27T10:22:07Z</time>
      </trkpt>
      <trkpt lat="45.23182" lon="6.04536">
        <ele>2313.2</ele>
        <time>2021-02-27T10:22:08Z</time>
      </trkpt>
      <trkpt lat="45.23183" lon="6.04534">
        <ele>2313.6</ele>
        <time>2021-02-27T10:22:09Z</time>
      </trkpt>
      <trkpt lat="45.23183" lon="6.04534">
        <ele>2314</ele>
        <time>2021-02-27T10:22:10Z</time>
      </trkpt>
      <trkpt lat="45.23185" lon="6.04532">
        <ele>2314.2</ele>
        <time>2021-02-27T10:22:11Z</time>
      </trkpt>
      <trkpt lat="45.23185" lon="6.04532">
        <ele>2314.4</ele>
        <time>2021-02-27T10:22:12Z</time>
      </trkpt>
      <trkpt lat="45.23186" lon="6.04531">
        <ele>2314.4</ele>
        <time>2021-02-27T10:22:13Z</time>
      </trkpt>
      <trkpt lat="45.23186" lon="6.04531">
        <ele>2314.6</ele>
        <time>2021-02-27T10:22:14Z</time>
      </trkpt>
      <trkpt lat="45.23186" lon="6.04531">
        <ele>2314.8</ele>
        <time>2021-02-27T10:22:15Z</time>
      </trkpt>
      <trkpt lat="45.23186" lon="6.04531">
        <ele>2315.4</ele>
        <time>2021-02-27T10:22:16Z</time>
      </trkpt>
      <trkpt lat="45.23184" lon="6.04533">
        <ele>2315.8</ele>
        <time>2021-02-27T10:22:17Z</time>
      </trkpt>
      <trkpt lat="45.23184" lon="6.04533">
        <ele>2315.8</ele>
        <time>2021-02-27T10:22:18Z</time>
      </trkpt>
      <trkpt lat="45.23183" lon="6.04536">
        <ele>2316.4</ele>
        <time>2021-02-27T10:22:19Z</time>
      </trkpt>
      <trkpt lat="45.23183" lon="6.04536">
        <ele>2316.2</ele>
        <time>2021-02-27T10:22:20Z</time>
      </trkpt>
      <trkpt lat="45.23183" lon="6.04538">
        <ele>2316.6</ele>
        <time>2021-02-27T10:22:21Z</time>
      </trkpt>
      <trkpt lat="45.23183" lon="6.04538">
        <ele>2316.8</ele>
        <time>2021-02-27T10:22:22Z</time>
      </trkpt>
      <trkpt lat="45.23183" lon="6.04538">
        <ele>2317.4</ele>
        <time>2021-02-27T10:22:23Z</time>
      </trkpt>
      <trkpt lat="45.23181" lon="6.04542">
        <ele>2317.6</ele>
        <time>2021-02-27T10:22:24Z</time>
      </trkpt>
      <trkpt lat="45.23181" lon="6.04542">
        <ele>2317.8</ele>
        <time>2021-02-27T10:22:25Z</time>
      </trkpt>
      <trkpt lat="45.23181" lon="6.04544">
        <ele>2318.4</ele>
        <time>2021-02-27T10:22:26Z</time>
      </trkpt>
      <trkpt lat="45.23181" lon="6.04544">
        <ele>2318.6</ele>
        <time>2021-02-27T10:22:27Z</time>
      </trkpt>
      <trkpt lat="45.2318" lon="6.04547">
        <ele>2318.8</ele>
        <time>2021-02-27T10:22:28Z</time>
      </trkpt>
      <trkpt lat="45.2318" lon="6.04547">
        <ele>2319.4</ele>
        <time>2021-02-27T10:22:29Z</time>
      </trkpt>
      <trkpt lat="45.2318" lon="6.0455">
        <ele>2319.8</ele>
        <time>2021-02-27T10:22:30Z</time>
      </trkpt>
      <trkpt lat="45.2318" lon="6.0455">
        <ele>2320</ele>
        <time>2021-02-27T10:22:31Z</time>
      </trkpt>
      <trkpt lat="45.23179" lon="6.04552">
        <ele>2320</ele>
        <time>2021-02-27T10:22:32Z</time>
      </trkpt>
      <trkpt lat="45.23179" lon="6.04552">
        <ele>2320.4</ele>
        <time>2021-02-27T10:22:33Z</time>
      </trkpt>
      <trkpt lat="45.23179" lon="6.04555">
        <ele>2320.6</ele>
        <time>2021-02-27T10:22:34Z</time>
      </trkpt>
      <trkpt lat="45.23179" lon="6.04555">
        <ele>2321</ele>
        <time>2021-02-27T10:22:35Z</time>
      </trkpt>
      <trkpt lat="45.23178" lon="6.04557">
        <ele>2321.2</ele>
        <time>2021-02-27T10:22:36Z</time>
      </trkpt>
      <trkpt lat="45.23178" lon="6.04557">
        <ele>2321</ele>
        <time>2021-02-27T10:22:37Z</time>
      </trkpt>
      <trkpt lat="45.23177" lon="6.0456">
        <ele>2321.4</ele>
        <time>2021-02-27T10:22:38Z</time>
      </trkpt>
      <trkpt lat="45.23177" lon="6.0456">
        <ele>2321.6</ele>
        <time>2021-02-27T10:22:39Z</time>
      </trkpt>
      <trkpt lat="45.23176" lon="6.04563">
        <ele>2321.6</ele>
        <time>2021-02-27T10:22:40Z</time>
      </trkpt>
      <trkpt lat="45.23176" lon="6.04563">
        <ele>2322</ele>
        <time>2021-02-27T10:22:41Z</time>
      </trkpt>
      <trkpt lat="45.23175" lon="6.04566">
        <ele>2322.2</ele>
        <time>2021-02-27T10:22:42Z</time>
      </trkpt>
      <trkpt lat="45.23175" lon="6.04566">
        <ele>2322.4</ele>
        <time>2021-02-27T10:22:43Z</time>
      </trkpt>
      <trkpt lat="45.23175" lon="6.04566">
        <ele>2323.2</ele>
        <time>2021-02-27T10:22:44Z</time>
      </trkpt>
      <trkpt lat="45.23174" lon="6.04569">
        <ele>2323.2</ele>
        <time>2021-02-27T10:22:45Z</time>
      </trkpt>
      <trkpt lat="45.23174" lon="6.04569">
        <ele>2323.6</ele>
        <time>2021-02-27T10:22:46Z</time>
      </trkpt>
      <trkpt lat="45.23174" lon="6.04569">
        <ele>2324</ele>
        <time>2021-02-27T10:22:47Z</time>
      </trkpt>
      <trkpt lat="45.23173" lon="6.04572">
        <ele>2324</ele>
        <time>2021-02-27T10:22:48Z</time>
      </trkpt>
      <trkpt lat="45.23173" lon="6.04572">
        <ele>2324.6</ele>
        <time>2021-02-27T10:22:49Z</time>
      </trkpt>
      <trkpt lat="45.23173" lon="6.04572">
        <ele>2325</ele>
        <time>2021-02-27T10:22:50Z</time>
      </trkpt>
      <trkpt lat="45.23172" lon="6.04576">
        <ele>2324.8</ele>
        <time>2021-02-27T10:22:51Z</time>
      </trkpt>
      <trkpt lat="45.23172" lon="6.04576">
        <ele>2325.2</ele>
        <time>2021-02-27T10:22:52Z</time>
      </trkpt>
      <trkpt lat="45.23172" lon="6.04576">
        <ele>2326</ele>
        <time>2021-02-27T10:22:53Z</time>
      </trkpt>
      <trkpt lat="45.23171" lon="6.04579">
        <ele>2325.4</ele>
        <time>2021-02-27T10:22:54Z</time>
      </trkpt>
      <trkpt lat="45.23171" lon="6.04579">
        <ele>2325.6</ele>
        <time>2021-02-27T10:22:55Z</time>
      </trkpt>
      <trkpt lat="45.2317" lon="6.04582">
        <ele>2325.8</ele>
        <time>2021-02-27T10:22:56Z</time>
      </trkpt>
      <trkpt lat="45.2317" lon="6.04582">
        <ele>2325.8</ele>
        <time>2021-02-27T10:22:57Z</time>
      </trkpt>
      <trkpt lat="45.2317" lon="6.04584">
        <ele>2326.4</ele>
        <time>2021-02-27T10:22:58Z</time>
      </trkpt>
      <trkpt lat="45.2317" lon="6.04584">
        <ele>2326.6</ele>
        <time>2021-02-27T10:22:59Z</time>
      </trkpt>
      <trkpt lat="45.2317" lon="6.04584">
        <ele>2326.6</ele>
        <time>2021-02-27T10:23:00Z</time>
      </trkpt>
      <trkpt lat="45.23169" lon="6.04587">
        <ele>2326.8</ele>
        <time>2021-02-27T10:23:01Z</time>
      </trkpt>
      <trkpt lat="45.23169" lon="6.04587">
        <ele>2327.4</ele>
        <time>2021-02-27T10:23:02Z</time>
      </trkpt>
      <trkpt lat="45.23169" lon="6.04589">
        <ele>2327.6</ele>
        <time>2021-02-27T10:23:03Z</time>
      </trkpt>
      <trkpt lat="45.23169" lon="6.04589">
        <ele>2327.8</ele>
        <time>2021-02-27T10:23:04Z</time>
      </trkpt>
      <trkpt lat="45.23169" lon="6.04589">
        <ele>2328.2</ele>
        <time>2021-02-27T10:23:05Z</time>
      </trkpt>
      <trkpt lat="45.23168" lon="6.04593">
        <ele>2328.2</ele>
        <time>2021-02-27T10:23:06Z</time>
      </trkpt>
      <trkpt lat="45.23168" lon="6.04593">
        <ele>2328.6</ele>
        <time>2021-02-27T10:23:07Z</time>
      </trkpt>
      <trkpt lat="45.23168" lon="6.04593">
        <ele>2329</ele>
        <time>2021-02-27T10:23:08Z</time>
      </trkpt>
      <trkpt lat="45.23168" lon="6.04596">
        <ele>2329.2</ele>
        <time>2021-02-27T10:23:09Z</time>
      </trkpt>
      <trkpt lat="45.23168" lon="6.04596">
        <ele>2329.6</ele>
        <time>2021-02-27T10:23:10Z</time>
      </trkpt>
      <trkpt lat="45.23168" lon="6.04596">
        <ele>2329.6</ele>
        <time>2021-02-27T10:23:11Z</time>
      </trkpt>
      <trkpt lat="45.23168" lon="6.046">
        <ele>2329.8</ele>
        <time>2021-02-27T10:23:12Z</time>
      </trkpt>
      <trkpt lat="45.23168" lon="6.046">
        <ele>2330</ele>
        <time>2021-02-27T10:23:13Z</time>
      </trkpt>
      <trkpt lat="45.23168" lon="6.046">
        <ele>2330.2</ele>
        <time>2021-02-27T10:23:14Z</time>
      </trkpt>
      <trkpt lat="45.23168" lon="6.046">
        <ele>2330.2</ele>
        <time>2021-02-27T10:23:15Z</time>
      </trkpt>
      <trkpt lat="45.23167" lon="6.04605">
        <ele>2330.6</ele>
        <time>2021-02-27T10:23:16Z</time>
      </trkpt>
      <trkpt lat="45.23167" lon="6.04605">
        <ele>2330.8</ele>
        <time>2021-02-27T10:23:17Z</time>
      </trkpt>
      <trkpt lat="45.23167" lon="6.04605">
        <ele>2330.8</ele>
        <time>2021-02-27T10:23:18Z</time>
      </trkpt>
      <trkpt lat="45.23167" lon="6.04608">
        <ele>2331.4</ele>
        <time>2021-02-27T10:23:19Z</time>
      </trkpt>
      <trkpt lat="45.23167" lon="6.04608">
        <ele>2331.8</ele>
        <time>2021-02-27T10:23:20Z</time>
      </trkpt>
      <trkpt lat="45.23167" lon="6.04608">
        <ele>2331.6</ele>
        <time>2021-02-27T10:23:21Z</time>
      </trkpt>
      <trkpt lat="45.23167" lon="6.04611">
        <ele>2331.8</ele>
        <time>2021-02-27T10:23:22Z</time>
      </trkpt>
      <trkpt lat="45.23167" lon="6.04611">
        <ele>2331.8</ele>
        <time>2021-02-27T10:23:23Z</time>
      </trkpt>
      <trkpt lat="45.23167" lon="6.04611">
        <ele>2332</ele>
        <time>2021-02-27T10:23:24Z</time>
      </trkpt>
      <trkpt lat="45.23167" lon="6.04611">
        <ele>2332</ele>
        <time>2021-02-27T10:23:25Z</time>
      </trkpt>
      <trkpt lat="45.23167" lon="6.04611">
        <ele>2332.8</ele>
        <time>2021-02-27T10:23:26Z</time>
      </trkpt>
      <trkpt lat="45.23167" lon="6.04611">
        <ele>2333.6</ele>
        <time>2021-02-27T10:23:27Z</time>
      </trkpt>
      <trkpt lat="45.23166" lon="6.04616">
        <ele>2333.6</ele>
        <time>2021-02-27T10:23:28Z</time>
      </trkpt>
      <trkpt lat="45.23166" lon="6.04616">
        <ele>2333.6</ele>
        <time>2021-02-27T10:23:29Z</time>
      </trkpt>
      <trkpt lat="45.23166" lon="6.04616">
        <ele>2334</ele>
        <time>2021-02-27T10:23:30Z</time>
      </trkpt>
      <trkpt lat="45.23164" lon="6.04618">
        <ele>2334</ele>
        <time>2021-02-27T10:23:31Z</time>
      </trkpt>
      <trkpt lat="45.23164" lon="6.04618">
        <ele>2333.8</ele>
        <time>2021-02-27T10:23:32Z</time>
      </trkpt>
      <trkpt lat="45.23164" lon="6.04618">
        <ele>2334.2</ele>
        <time>2021-02-27T10:23:33Z</time>
      </trkpt>
      <trkpt lat="45.23164" lon="6.04618">
        <ele>2334.4</ele>
        <time>2021-02-27T10:23:34Z</time>
      </trkpt>
      <trkpt lat="45.23164" lon="6.04618">
        <ele>2334.4</ele>
        <time>2021-02-27T10:23:35Z</time>
      </trkpt>
      <trkpt lat="45.23164" lon="6.04618">
        <ele>2334.6</ele>
        <time>2021-02-27T10:23:36Z</time>
      </trkpt>
      <trkpt lat="45.23164" lon="6.04618">
        <ele>2334.6</ele>
        <time>2021-02-27T10:23:37Z</time>
      </trkpt>
      <trkpt lat="45.23164" lon="6.04618">
        <ele>2334.8</ele>
        <time>2021-02-27T10:23:38Z</time>
      </trkpt>
      <trkpt lat="45.23164" lon="6.04618">
        <ele>2335</ele>
        <time>2021-02-27T10:23:39Z</time>
      </trkpt>
      <trkpt lat="45.23166" lon="6.0462">
        <ele>2335</ele>
        <time>2021-02-27T10:23:40Z</time>
      </trkpt>
      <trkpt lat="45.23166" lon="6.0462">
        <ele>2335.2</ele>
        <time>2021-02-27T10:23:41Z</time>
      </trkpt>
      <trkpt lat="45.23168" lon="6.0462">
        <ele>2335.4</ele>
        <time>2021-02-27T10:23:42Z</time>
      </trkpt>
      <trkpt lat="45.23168" lon="6.0462">
        <ele>2335.4</ele>
        <time>2021-02-27T10:23:43Z</time>
      </trkpt>
      <trkpt lat="45.2317" lon="6.0462">
        <ele>2335.8</ele>
        <time>2021-02-27T10:23:44Z</time>
      </trkpt>
      <trkpt lat="45.2317" lon="6.0462">
        <ele>2335.8</ele>
        <time>2021-02-27T10:23:45Z</time>
      </trkpt>
      <trkpt lat="45.23172" lon="6.0462">
        <ele>2336</ele>
        <time>2021-02-27T10:23:46Z</time>
      </trkpt>
      <trkpt lat="45.23172" lon="6.0462">
        <ele>2336.2</ele>
        <time>2021-02-27T10:23:47Z</time>
      </trkpt>
      <trkpt lat="45.23175" lon="6.04619">
        <ele>2336.6</ele>
        <time>2021-02-27T10:23:48Z</time>
      </trkpt>
      <trkpt lat="45.23175" lon="6.04619">
        <ele>2336.8</ele>
        <time>2021-02-27T10:23:49Z</time>
      </trkpt>
      <trkpt lat="45.23175" lon="6.04619">
        <ele>2337.4</ele>
        <time>2021-02-27T10:23:50Z</time>
      </trkpt>
      <trkpt lat="45.23177" lon="6.04619">
        <ele>2337.8</ele>
        <time>2021-02-27T10:23:51Z</time>
      </trkpt>
      <trkpt lat="45.23177" lon="6.04619">
        <ele>2338.4</ele>
        <time>2021-02-27T10:23:52Z</time>
      </trkpt>
      <trkpt lat="45.23177" lon="6.04619">
        <ele>2338.6</ele>
        <time>2021-02-27T10:23:53Z</time>
      </trkpt>
      <trkpt lat="45.23178" lon="6.04616">
        <ele>2338.8</ele>
        <time>2021-02-27T10:23:54Z</time>
      </trkpt>
      <trkpt lat="45.23178" lon="6.04616">
        <ele>2339.6</ele>
        <time>2021-02-27T10:23:55Z</time>
      </trkpt>
      <trkpt lat="45.23178" lon="6.04616">
        <ele>2339.6</ele>
        <time>2021-02-27T10:23:56Z</time>
      </trkpt>
      <trkpt lat="45.23178" lon="6.04616">
        <ele>2340.4</ele>
        <time>2021-02-27T10:23:57Z</time>
      </trkpt>
      <trkpt lat="45.2318" lon="6.04619">
        <ele>2340.8</ele>
        <time>2021-02-27T10:23:58Z</time>
      </trkpt>
      <trkpt lat="45.2318" lon="6.04619">
        <ele>2341</ele>
        <time>2021-02-27T10:23:59Z</time>
      </trkpt>
      <trkpt lat="45.2318" lon="6.04619">
        <ele>2341.4</ele>
        <time>2021-02-27T10:24:00Z</time>
      </trkpt>
      <trkpt lat="45.2318" lon="6.04619">
        <ele>2341.6</ele>
        <time>2021-02-27T10:24:01Z</time>
      </trkpt>
      <trkpt lat="45.23181" lon="6.04622">
        <ele>2341.8</ele>
        <time>2021-02-27T10:24:02Z</time>
      </trkpt>
      <trkpt lat="45.23183" lon="6.04623">
        <ele>2342.2</ele>
        <time>2021-02-27T10:24:03Z</time>
      </trkpt>
      <trkpt lat="45.23183" lon="6.04623">
        <ele>2342.4</ele>
        <time>2021-02-27T10:24:04Z</time>
      </trkpt>
      <trkpt lat="45.23185" lon="6.04625">
        <ele>2342.4</ele>
        <time>2021-02-27T10:24:05Z</time>
      </trkpt>
      <trkpt lat="45.23185" lon="6.04625">
        <ele>2342.8</ele>
        <time>2021-02-27T10:24:06Z</time>
      </trkpt>
      <trkpt lat="45.23185" lon="6.04625">
        <ele>2342.6</ele>
        <time>2021-02-27T10:24:07Z</time>
      </trkpt>
      <trkpt lat="45.23186" lon="6.04627">
        <ele>2343</ele>
        <time>2021-02-27T10:24:08Z</time>
      </trkpt>
      <trkpt lat="45.23186" lon="6.04627">
        <ele>2343.4</ele>
        <time>2021-02-27T10:24:09Z</time>
      </trkpt>
      <trkpt lat="45.23188" lon="6.04628">
        <ele>2343.4</ele>
        <time>2021-02-27T10:24:10Z</time>
      </trkpt>
      <trkpt lat="45.23188" lon="6.04628">
        <ele>2343.8</ele>
        <time>2021-02-27T10:24:11Z</time>
      </trkpt>
      <trkpt lat="45.23191" lon="6.0463">
        <ele>2344.2</ele>
        <time>2021-02-27T10:24:12Z</time>
      </trkpt>
      <trkpt lat="45.23191" lon="6.0463">
        <ele>2344.6</ele>
        <time>2021-02-27T10:24:13Z</time>
      </trkpt>
      <trkpt lat="45.23193" lon="6.04632">
        <ele>2344.4</ele>
        <time>2021-02-27T10:24:14Z</time>
      </trkpt>
      <trkpt lat="45.23193" lon="6.04632">
        <ele>2344.8</ele>
        <time>2021-02-27T10:24:15Z</time>
      </trkpt>
      <trkpt lat="45.23195" lon="6.04633">
        <ele>2345.2</ele>
        <time>2021-02-27T10:24:16Z</time>
      </trkpt>
      <trkpt lat="45.23195" lon="6.04633">
        <ele>2345.2</ele>
        <time>2021-02-27T10:24:17Z</time>
      </trkpt>
      <trkpt lat="45.23195" lon="6.04633">
        <ele>2345.6</ele>
        <time>2021-02-27T10:24:18Z</time>
      </trkpt>
      <trkpt lat="45.23197" lon="6.04635">
        <ele>2345.8</ele>
        <time>2021-02-27T10:24:19Z</time>
      </trkpt>
      <trkpt lat="45.23197" lon="6.04635">
        <ele>2346.2</ele>
        <time>2021-02-27T10:24:20Z</time>
      </trkpt>
      <trkpt lat="45.23197" lon="6.04635">
        <ele>2346.4</ele>
        <time>2021-02-27T10:24:21Z</time>
      </trkpt>
      <trkpt lat="45.23197" lon="6.04635">
        <ele>2346.2</ele>
        <time>2021-02-27T10:24:22Z</time>
      </trkpt>
      <trkpt lat="45.23199" lon="6.04638">
        <ele>2346.6</ele>
        <time>2021-02-27T10:24:23Z</time>
      </trkpt>
      <trkpt lat="45.23199" lon="6.04638">
        <ele>2346.4</ele>
        <time>2021-02-27T10:24:24Z</time>
      </trkpt>
      <trkpt lat="45.23199" lon="6.04638">
        <ele>2347</ele>
        <time>2021-02-27T10:24:25Z</time>
      </trkpt>
      <trkpt lat="45.23201" lon="6.04639">
        <ele>2347.6</ele>
        <time>2021-02-27T10:24:26Z</time>
      </trkpt>
      <trkpt lat="45.23201" lon="6.04639">
        <ele>2347.6</ele>
        <time>2021-02-27T10:24:27Z</time>
      </trkpt>
      <trkpt lat="45.23201" lon="6.04639">
        <ele>2347.8</ele>
        <time>2021-02-27T10:24:28Z</time>
      </trkpt>
      <trkpt lat="45.23203" lon="6.04641">
        <ele>2348</ele>
        <time>2021-02-27T10:24:29Z</time>
      </trkpt>
      <trkpt lat="45.23203" lon="6.04641">
        <ele>2348.4</ele>
        <time>2021-02-27T10:24:30Z</time>
      </trkpt>
      <trkpt lat="45.23203" lon="6.04641">
        <ele>2348.4</ele>
        <time>2021-02-27T10:24:31Z</time>
      </trkpt>
      <trkpt lat="45.23204" lon="6.04642">
        <ele>2349</ele>
        <time>2021-02-27T10:24:32Z</time>
      </trkpt>
      <trkpt lat="45.23204" lon="6.04642">
        <ele>2349</ele>
        <time>2021-02-27T10:24:33Z</time>
      </trkpt>
      <trkpt lat="45.23206" lon="6.04645">
        <ele>2349.2</ele>
        <time>2021-02-27T10:24:34Z</time>
      </trkpt>
      <trkpt lat="45.23206" lon="6.04645">
        <ele>2349.6</ele>
        <time>2021-02-27T10:24:35Z</time>
      </trkpt>
      <trkpt lat="45.23206" lon="6.04645">
        <ele>2350.2</ele>
        <time>2021-02-27T10:24:36Z</time>
      </trkpt>
      <trkpt lat="45.23207" lon="6.04647">
        <ele>2350.2</ele>
        <time>2021-02-27T10:24:37Z</time>
      </trkpt>
      <trkpt lat="45.23207" lon="6.04647">
        <ele>2350.8</ele>
        <time>2021-02-27T10:24:38Z</time>
      </trkpt>
      <trkpt lat="45.23207" lon="6.04647">
        <ele>2351</ele>
        <time>2021-02-27T10:24:39Z</time>
      </trkpt>
      <trkpt lat="45.23209" lon="6.04649">
        <ele>2351.2</ele>
        <time>2021-02-27T10:24:40Z</time>
      </trkpt>
      <trkpt lat="45.23209" lon="6.04649">
        <ele>2351.6</ele>
        <time>2021-02-27T10:24:41Z</time>
      </trkpt>
      <trkpt lat="45.23209" lon="6.04649">
        <ele>2351.8</ele>
        <time>2021-02-27T10:24:42Z</time>
      </trkpt>
      <trkpt lat="45.23212" lon="6.04651">
        <ele>2352.4</ele>
        <time>2021-02-27T10:24:43Z</time>
      </trkpt>
      <trkpt lat="45.23212" lon="6.04651">
        <ele>2352.8</ele>
        <time>2021-02-27T10:24:44Z</time>
      </trkpt>
      <trkpt lat="45.23212" lon="6.04651">
        <ele>2352.8</ele>
        <time>2021-02-27T10:24:45Z</time>
      </trkpt>
      <trkpt lat="45.23213" lon="6.04652">
        <ele>2353.2</ele>
        <time>2021-02-27T10:24:46Z</time>
      </trkpt>
      <trkpt lat="45.23213" lon="6.04653">
        <ele>2353.6</ele>
        <time>2021-02-27T10:24:47Z</time>
      </trkpt>
      <trkpt lat="45.23213" lon="6.04653">
        <ele>2354</ele>
        <time>2021-02-27T10:24:48Z</time>
      </trkpt>
      <trkpt lat="45.23214" lon="6.04654">
        <ele>2354.2</ele>
        <time>2021-02-27T10:24:49Z</time>
      </trkpt>
      <trkpt lat="45.23214" lon="6.04655">
        <ele>2354.6</ele>
        <time>2021-02-27T10:24:50Z</time>
      </trkpt>
      <trkpt lat="45.23215" lon="6.04655">
        <ele>2354.8</ele>
        <time>2021-02-27T10:24:51Z</time>
      </trkpt>
      <trkpt lat="45.23217" lon="6.04657">
        <ele>2354.8</ele>
        <time>2021-02-27T10:24:52Z</time>
      </trkpt>
      <trkpt lat="45.23217" lon="6.04657">
        <ele>2355.4</ele>
        <time>2021-02-27T10:24:53Z</time>
      </trkpt>
      <trkpt lat="45.23218" lon="6.04659">
        <ele>2355.6</ele>
        <time>2021-02-27T10:24:54Z</time>
      </trkpt>
      <trkpt lat="45.23218" lon="6.04659">
        <ele>2356</ele>
        <time>2021-02-27T10:24:55Z</time>
      </trkpt>
      <trkpt lat="45.23218" lon="6.04659">
        <ele>2356.4</ele>
        <time>2021-02-27T10:24:56Z</time>
      </trkpt>
      <trkpt lat="45.2322" lon="6.04661">
        <ele>2356.4</ele>
        <time>2021-02-27T10:24:57Z</time>
      </trkpt>
      <trkpt lat="45.2322" lon="6.04661">
        <ele>2356.8</ele>
        <time>2021-02-27T10:24:58Z</time>
      </trkpt>
      <trkpt lat="45.2322" lon="6.04661">
        <ele>2357.2</ele>
        <time>2021-02-27T10:24:59Z</time>
      </trkpt>
      <trkpt lat="45.23221" lon="6.04663">
        <ele>2357.6</ele>
        <time>2021-02-27T10:25:00Z</time>
      </trkpt>
      <trkpt lat="45.23221" lon="6.04663">
        <ele>2358</ele>
        <time>2021-02-27T10:25:01Z</time>
      </trkpt>
      <trkpt lat="45.23222" lon="6.04664">
        <ele>2358.4</ele>
        <time>2021-02-27T10:25:02Z</time>
      </trkpt>
      <trkpt lat="45.23222" lon="6.04664">
        <ele>2358.6</ele>
        <time>2021-02-27T10:25:03Z</time>
      </trkpt>
      <trkpt lat="45.23222" lon="6.04665">
        <ele>2358.6</ele>
        <time>2021-02-27T10:25:04Z</time>
      </trkpt>
      <trkpt lat="45.23223" lon="6.04665">
        <ele>2359</ele>
        <time>2021-02-27T10:25:05Z</time>
      </trkpt>
      <trkpt lat="45.23223" lon="6.04666">
        <ele>2359.2</ele>
        <time>2021-02-27T10:25:06Z</time>
      </trkpt>
      <trkpt lat="45.23224" lon="6.04667">
        <ele>2359.6</ele>
        <time>2021-02-27T10:25:07Z</time>
      </trkpt>
      <trkpt lat="45.23224" lon="6.04667">
        <ele>2360.2</ele>
        <time>2021-02-27T10:25:08Z</time>
      </trkpt>
      <trkpt lat="45.23224" lon="6.04668">
        <ele>2360.2</ele>
        <time>2021-02-27T10:25:09Z</time>
      </trkpt>
      <trkpt lat="45.23225" lon="6.04668">
        <ele>2360.6</ele>
        <time>2021-02-27T10:25:10Z</time>
      </trkpt>
      <trkpt lat="45.23225" lon="6.04669">
        <ele>2360.8</ele>
        <time>2021-02-27T10:25:11Z</time>
      </trkpt>
      <trkpt lat="45.23225" lon="6.04672">
        <ele>2361.2</ele>
        <time>2021-02-27T10:25:12Z</time>
      </trkpt>
      <trkpt lat="45.23225" lon="6.04672">
        <ele>2362</ele>
        <time>2021-02-27T10:25:13Z</time>
      </trkpt>
      <trkpt lat="45.23225" lon="6.04675">
        <ele>2362</ele>
        <time>2021-02-27T10:25:14Z</time>
      </trkpt>
      <trkpt lat="45.23225" lon="6.04675">
        <ele>2362.4</ele>
        <time>2021-02-27T10:25:15Z</time>
      </trkpt>
      <trkpt lat="45.23225" lon="6.04675">
        <ele>2362.8</ele>
        <time>2021-02-27T10:25:16Z</time>
      </trkpt>
      <trkpt lat="45.23225" lon="6.04679">
        <ele>2363</ele>
        <time>2021-02-27T10:25:17Z</time>
      </trkpt>
      <trkpt lat="45.23225" lon="6.04679">
        <ele>2363</ele>
        <time>2021-02-27T10:25:18Z</time>
      </trkpt>
      <trkpt lat="45.23225" lon="6.04679">
        <ele>2363.6</ele>
        <time>2021-02-27T10:25:19Z</time>
      </trkpt>
      <trkpt lat="45.23225" lon="6.04682">
        <ele>2364</ele>
        <time>2021-02-27T10:25:20Z</time>
      </trkpt>
      <trkpt lat="45.23225" lon="6.04682">
        <ele>2364.2</ele>
        <time>2021-02-27T10:25:21Z</time>
      </trkpt>
      <trkpt lat="45.23225" lon="6.04682">
        <ele>2364.4</ele>
        <time>2021-02-27T10:25:22Z</time>
      </trkpt>
      <trkpt lat="45.23224" lon="6.04685">
        <ele>2364.8</ele>
        <time>2021-02-27T10:25:23Z</time>
      </trkpt>
      <trkpt lat="45.23224" lon="6.04685">
        <ele>2365.2</ele>
        <time>2021-02-27T10:25:24Z</time>
      </trkpt>
      <trkpt lat="45.23224" lon="6.04685">
        <ele>2365.6</ele>
        <time>2021-02-27T10:25:25Z</time>
      </trkpt>
      <trkpt lat="45.23224" lon="6.04685">
        <ele>2365.6</ele>
        <time>2021-02-27T10:25:26Z</time>
      </trkpt>
      <trkpt lat="45.23225" lon="6.04687">
        <ele>2366.2</ele>
        <time>2021-02-27T10:25:27Z</time>
      </trkpt>
      <trkpt lat="45.23225" lon="6.04687">
        <ele>2366.4</ele>
        <time>2021-02-27T10:25:28Z</time>
      </trkpt>
      <trkpt lat="45.23225" lon="6.04687">
        <ele>2366.8</ele>
        <time>2021-02-27T10:25:29Z</time>
      </trkpt>
      <trkpt lat="45.23227" lon="6.04689">
        <ele>2367</ele>
        <time>2021-02-27T10:25:30Z</time>
      </trkpt>
      <trkpt lat="45.23227" lon="6.04689">
        <ele>2367.4</ele>
        <time>2021-02-27T10:25:31Z</time>
      </trkpt>
      <trkpt lat="45.2323" lon="6.04689">
        <ele>2367.8</ele>
        <time>2021-02-27T10:25:32Z</time>
      </trkpt>
      <trkpt lat="45.2323" lon="6.04689">
        <ele>2367.8</ele>
        <time>2021-02-27T10:25:33Z</time>
      </trkpt>
      <trkpt lat="45.2323" lon="6.04689">
        <ele>2367.4</ele>
        <time>2021-02-27T10:25:34Z</time>
      </trkpt>
      <trkpt lat="45.23231" lon="6.0469">
        <ele>2367.6</ele>
        <time>2021-02-27T10:25:35Z</time>
      </trkpt>
      <trkpt lat="45.23231" lon="6.0469">
        <ele>2368</ele>
        <time>2021-02-27T10:25:36Z</time>
      </trkpt>
      <trkpt lat="45.23233" lon="6.04691">
        <ele>2368</ele>
        <time>2021-02-27T10:25:37Z</time>
      </trkpt>
      <trkpt lat="45.23233" lon="6.04691">
        <ele>2368.2</ele>
        <time>2021-02-27T10:25:38Z</time>
      </trkpt>
      <trkpt lat="45.23233" lon="6.04691">
        <ele>2368.6</ele>
        <time>2021-02-27T10:25:39Z</time>
      </trkpt>
      <trkpt lat="45.23235" lon="6.04694">
        <ele>2368.8</ele>
        <time>2021-02-27T10:25:40Z</time>
      </trkpt>
      <trkpt lat="45.23235" lon="6.04694">
        <ele>2368.8</ele>
        <time>2021-02-27T10:25:41Z</time>
      </trkpt>
      <trkpt lat="45.23235" lon="6.04694">
        <ele>2369.2</ele>
        <time>2021-02-27T10:25:42Z</time>
      </trkpt>
      <trkpt lat="45.23235" lon="6.04698">
        <ele>2369.6</ele>
        <time>2021-02-27T10:25:43Z</time>
      </trkpt>
      <trkpt lat="45.23235" lon="6.04698">
        <ele>2369.6</ele>
        <time>2021-02-27T10:25:44Z</time>
      </trkpt>
      <trkpt lat="45.23235" lon="6.04698">
        <ele>2370.2</ele>
        <time>2021-02-27T10:25:45Z</time>
      </trkpt>
      <trkpt lat="45.23235" lon="6.04701">
        <ele>2370.6</ele>
        <time>2021-02-27T10:25:46Z</time>
      </trkpt>
      <trkpt lat="45.23235" lon="6.04701">
        <ele>2371.2</ele>
        <time>2021-02-27T10:25:47Z</time>
      </trkpt>
      <trkpt lat="45.23235" lon="6.04701">
        <ele>2371</ele>
        <time>2021-02-27T10:25:48Z</time>
      </trkpt>
      <trkpt lat="45.23235" lon="6.04704">
        <ele>2371.6</ele>
        <time>2021-02-27T10:25:49Z</time>
      </trkpt>
      <trkpt lat="45.23235" lon="6.04704">
        <ele>2372</ele>
        <time>2021-02-27T10:25:50Z</time>
      </trkpt>
      <trkpt lat="45.23235" lon="6.04704">
        <ele>2372</ele>
        <time>2021-02-27T10:25:51Z</time>
      </trkpt>
      <trkpt lat="45.23236" lon="6.04707">
        <ele>2372.4</ele>
        <time>2021-02-27T10:25:52Z</time>
      </trkpt>
      <trkpt lat="45.23236" lon="6.04707">
        <ele>2373</ele>
        <time>2021-02-27T10:25:53Z</time>
      </trkpt>
      <trkpt lat="45.23236" lon="6.04707">
        <ele>2373</ele>
        <time>2021-02-27T10:25:54Z</time>
      </trkpt>
      <trkpt lat="45.23237" lon="6.04709">
        <ele>2373.4</ele>
        <time>2021-02-27T10:25:55Z</time>
      </trkpt>
      <trkpt lat="45.23237" lon="6.04709">
        <ele>2373.8</ele>
        <time>2021-02-27T10:25:56Z</time>
      </trkpt>
      <trkpt lat="45.23238" lon="6.04711">
        <ele>2373.8</ele>
        <time>2021-02-27T10:25:57Z</time>
      </trkpt>
      <trkpt lat="45.23238" lon="6.04711">
        <ele>2374</ele>
        <time>2021-02-27T10:25:58Z</time>
      </trkpt>
      <trkpt lat="45.2324" lon="6.04712">
        <ele>2374.4</ele>
        <time>2021-02-27T10:25:59Z</time>
      </trkpt>
      <trkpt lat="45.2324" lon="6.04712">
        <ele>2374.4</ele>
        <time>2021-02-27T10:26:00Z</time>
      </trkpt>
      <trkpt lat="45.2324" lon="6.04712">
        <ele>2374.6</ele>
        <time>2021-02-27T10:26:01Z</time>
      </trkpt>
      <trkpt lat="45.23242" lon="6.04715">
        <ele>2375</ele>
        <time>2021-02-27T10:26:02Z</time>
      </trkpt>
      <trkpt lat="45.23242" lon="6.04715">
        <ele>2375.2</ele>
        <time>2021-02-27T10:26:03Z</time>
      </trkpt>
      <trkpt lat="45.23244" lon="6.04717">
        <ele>2375.6</ele>
        <time>2021-02-27T10:26:04Z</time>
      </trkpt>
      <trkpt lat="45.23244" lon="6.04717">
        <ele>2376.2</ele>
        <time>2021-02-27T10:26:05Z</time>
      </trkpt>
      <trkpt lat="45.23244" lon="6.04717">
        <ele>2376.2</ele>
        <time>2021-02-27T10:26:06Z</time>
      </trkpt>
      <trkpt lat="45.23246" lon="6.04718">
        <ele>2376.6</ele>
        <time>2021-02-27T10:26:07Z</time>
      </trkpt>
      <trkpt lat="45.23246" lon="6.04718">
        <ele>2377</ele>
        <time>2021-02-27T10:26:08Z</time>
      </trkpt>
      <trkpt lat="45.23246" lon="6.04718">
        <ele>2377.4</ele>
        <time>2021-02-27T10:26:09Z</time>
      </trkpt>
      <trkpt lat="45.23246" lon="6.04718">
        <ele>2377.8</ele>
        <time>2021-02-27T10:26:10Z</time>
      </trkpt>
      <trkpt lat="45.23247" lon="6.0472">
        <ele>2377.8</ele>
        <time>2021-02-27T10:26:11Z</time>
      </trkpt>
      <trkpt lat="45.23247" lon="6.0472">
        <ele>2378</ele>
        <time>2021-02-27T10:26:12Z</time>
      </trkpt>
      <trkpt lat="45.23247" lon="6.0472">
        <ele>2378.4</ele>
        <time>2021-02-27T10:26:13Z</time>
      </trkpt>
      <trkpt lat="45.23247" lon="6.0472">
        <ele>2378.6</ele>
        <time>2021-02-27T10:26:14Z</time>
      </trkpt>
      <trkpt lat="45.23247" lon="6.04723">
        <ele>2379.2</ele>
        <time>2021-02-27T10:26:15Z</time>
      </trkpt>
      <trkpt lat="45.23247" lon="6.04723">
        <ele>2379.4</ele>
        <time>2021-02-27T10:26:16Z</time>
      </trkpt>
      <trkpt lat="45.23247" lon="6.04723">
        <ele>2379.8</ele>
        <time>2021-02-27T10:26:17Z</time>
      </trkpt>
      <trkpt lat="45.23247" lon="6.04723">
        <ele>2380.2</ele>
        <time>2021-02-27T10:26:18Z</time>
      </trkpt>
      <trkpt lat="45.23248" lon="6.04726">
        <ele>2380.6</ele>
        <time>2021-02-27T10:26:19Z</time>
      </trkpt>
      <trkpt lat="45.23248" lon="6.04726">
        <ele>2380.6</ele>
        <time>2021-02-27T10:26:20Z</time>
      </trkpt>
      <trkpt lat="45.23248" lon="6.04726">
        <ele>2380.8</ele>
        <time>2021-02-27T10:26:21Z</time>
      </trkpt>
      <trkpt lat="45.23249" lon="6.04729">
        <ele>2381.2</ele>
        <time>2021-02-27T10:26:22Z</time>
      </trkpt>
      <trkpt lat="45.23249" lon="6.04729">
        <ele>2381.2</ele>
        <time>2021-02-27T10:26:23Z</time>
      </trkpt>
      <trkpt lat="45.23249" lon="6.04729">
        <ele>2381.4</ele>
        <time>2021-02-27T10:26:24Z</time>
      </trkpt>
      <trkpt lat="45.23249" lon="6.04732">
        <ele>2382</ele>
        <time>2021-02-27T10:26:25Z</time>
      </trkpt>
      <trkpt lat="45.23249" lon="6.04732">
        <ele>2382.2</ele>
        <time>2021-02-27T10:26:26Z</time>
      </trkpt>
      <trkpt lat="45.23249" lon="6.04732">
        <ele>2382.4</ele>
        <time>2021-02-27T10:26:27Z</time>
      </trkpt>
      <trkpt lat="45.23249" lon="6.04736">
        <ele>2382.6</ele>
        <time>2021-02-27T10:26:28Z</time>
      </trkpt>
      <trkpt lat="45.23249" lon="6.04736">
        <ele>2383</ele>
        <time>2021-02-27T10:26:29Z</time>
      </trkpt>
      <trkpt lat="45.23249" lon="6.04736">
        <ele>2383.4</ele>
        <time>2021-02-27T10:26:30Z</time>
      </trkpt>
      <trkpt lat="45.23249" lon="6.04736">
        <ele>2384</ele>
        <time>2021-02-27T10:26:31Z</time>
      </trkpt>
      <trkpt lat="45.2325" lon="6.04738">
        <ele>2384.2</ele>
        <time>2021-02-27T10:26:32Z</time>
      </trkpt>
      <trkpt lat="45.2325" lon="6.04738">
        <ele>2384</ele>
        <time>2021-02-27T10:26:33Z</time>
      </trkpt>
      <trkpt lat="45.2325" lon="6.04738">
        <ele>2384.2</ele>
        <time>2021-02-27T10:26:34Z</time>
      </trkpt>
      <trkpt lat="45.23252" lon="6.0474">
        <ele>2384.6</ele>
        <time>2021-02-27T10:26:35Z</time>
      </trkpt>
      <trkpt lat="45.23252" lon="6.0474">
        <ele>2384.6</ele>
        <time>2021-02-27T10:26:36Z</time>
      </trkpt>
      <trkpt lat="45.23252" lon="6.0474">
        <ele>2385</ele>
        <time>2021-02-27T10:26:37Z</time>
      </trkpt>
      <trkpt lat="45.23254" lon="6.0474">
        <ele>2385</ele>
        <time>2021-02-27T10:26:38Z</time>
      </trkpt>
      <trkpt lat="45.23254" lon="6.0474">
        <ele>2385.6</ele>
        <time>2021-02-27T10:26:39Z</time>
      </trkpt>
      <trkpt lat="45.23254" lon="6.0474">
        <ele>2385.8</ele>
        <time>2021-02-27T10:26:40Z</time>
      </trkpt>
      <trkpt lat="45.23256" lon="6.0474">
        <ele>2386.2</ele>
        <time>2021-02-27T10:26:41Z</time>
      </trkpt>
      <trkpt lat="45.23256" lon="6.0474">
        <ele>2386.4</ele>
        <time>2021-02-27T10:26:42Z</time>
      </trkpt>
      <trkpt lat="45.23256" lon="6.0474">
        <ele>2386.6</ele>
        <time>2021-02-27T10:26:43Z</time>
      </trkpt>
      <trkpt lat="45.23259" lon="6.0474">
        <ele>2386.6</ele>
        <time>2021-02-27T10:26:44Z</time>
      </trkpt>
      <trkpt lat="45.23259" lon="6.0474">
        <ele>2386.8</ele>
        <time>2021-02-27T10:26:45Z</time>
      </trkpt>
      <trkpt lat="45.23259" lon="6.0474">
        <ele>2387.2</ele>
        <time>2021-02-27T10:26:46Z</time>
      </trkpt>
      <trkpt lat="45.23261" lon="6.0474">
        <ele>2387.6</ele>
        <time>2021-02-27T10:26:47Z</time>
      </trkpt>
      <trkpt lat="45.23261" lon="6.0474">
        <ele>2387.8</ele>
        <time>2021-02-27T10:26:48Z</time>
      </trkpt>
      <trkpt lat="45.23261" lon="6.0474">
        <ele>2388</ele>
        <time>2021-02-27T10:26:49Z</time>
      </trkpt>
      <trkpt lat="45.23261" lon="6.0474">
        <ele>2388.2</ele>
        <time>2021-02-27T10:26:50Z</time>
      </trkpt>
      <trkpt lat="45.23263" lon="6.04739">
        <ele>2388.4</ele>
        <time>2021-02-27T10:26:51Z</time>
      </trkpt>
      <trkpt lat="45.23263" lon="6.04739">
        <ele>2388.6</ele>
        <time>2021-02-27T10:26:52Z</time>
      </trkpt>
      <trkpt lat="45.23263" lon="6.04739">
        <ele>2388.6</ele>
        <time>2021-02-27T10:26:53Z</time>
      </trkpt>
      <trkpt lat="45.23263" lon="6.04739">
        <ele>2388.8</ele>
        <time>2021-02-27T10:26:54Z</time>
      </trkpt>
      <trkpt lat="45.23265" lon="6.04739">
        <ele>2389.2</ele>
        <time>2021-02-27T10:26:55Z</time>
      </trkpt>
      <trkpt lat="45.23265" lon="6.04739">
        <ele>2389.4</ele>
        <time>2021-02-27T10:26:56Z</time>
      </trkpt>
      <trkpt lat="45.23265" lon="6.04739">
        <ele>2389.8</ele>
        <time>2021-02-27T10:26:57Z</time>
      </trkpt>
      <trkpt lat="45.23267" lon="6.0474">
        <ele>2390</ele>
        <time>2021-02-27T10:26:58Z</time>
      </trkpt>
      <trkpt lat="45.23267" lon="6.0474">
        <ele>2390.2</ele>
        <time>2021-02-27T10:26:59Z</time>
      </trkpt>
      <trkpt lat="45.23267" lon="6.0474">
        <ele>2390.6</ele>
        <time>2021-02-27T10:27:00Z</time>
      </trkpt>
      <trkpt lat="45.23269" lon="6.04742">
        <ele>2390.8</ele>
        <time>2021-02-27T10:27:01Z</time>
      </trkpt>
      <trkpt lat="45.23269" lon="6.04742">
        <ele>2390.8</ele>
        <time>2021-02-27T10:27:02Z</time>
      </trkpt>
      <trkpt lat="45.23269" lon="6.04742">
        <ele>2391.2</ele>
        <time>2021-02-27T10:27:03Z</time>
      </trkpt>
      <trkpt lat="45.23269" lon="6.04746">
        <ele>2391.6</ele>
        <time>2021-02-27T10:27:04Z</time>
      </trkpt>
      <trkpt lat="45.23269" lon="6.04746">
        <ele>2392</ele>
        <time>2021-02-27T10:27:05Z</time>
      </trkpt>
      <trkpt lat="45.23269" lon="6.04746">
        <ele>2392.2</ele>
        <time>2021-02-27T10:27:06Z</time>
      </trkpt>
      <trkpt lat="45.23268" lon="6.04749">
        <ele>2392.6</ele>
        <time>2021-02-27T10:27:07Z</time>
      </trkpt>
      <trkpt lat="45.23268" lon="6.04749">
        <ele>2392.8</ele>
        <time>2021-02-27T10:27:08Z</time>
      </trkpt>
      <trkpt lat="45.23267" lon="6.04751">
        <ele>2392.8</ele>
        <time>2021-02-27T10:27:09Z</time>
      </trkpt>
      <trkpt lat="45.23267" lon="6.04751">
        <ele>2393.4</ele>
        <time>2021-02-27T10:27:10Z</time>
      </trkpt>
      <trkpt lat="45.23267" lon="6.04751">
        <ele>2393.8</ele>
        <time>2021-02-27T10:27:11Z</time>
      </trkpt>
      <trkpt lat="45.23267" lon="6.04754">
        <ele>2394.2</ele>
        <time>2021-02-27T10:27:12Z</time>
      </trkpt>
      <trkpt lat="45.23267" lon="6.04754">
        <ele>2394.4</ele>
        <time>2021-02-27T10:27:13Z</time>
      </trkpt>
      <trkpt lat="45.23267" lon="6.04754">
        <ele>2394.8</ele>
        <time>2021-02-27T10:27:14Z</time>
      </trkpt>
      <trkpt lat="45.23267" lon="6.04758">
        <ele>2395.2</ele>
        <time>2021-02-27T10:27:15Z</time>
      </trkpt>
      <trkpt lat="45.23267" lon="6.04758">
        <ele>2395.2</ele>
        <time>2021-02-27T10:27:16Z</time>
      </trkpt>
      <trkpt lat="45.23266" lon="6.04761">
        <ele>2395.8</ele>
        <time>2021-02-27T10:27:17Z</time>
      </trkpt>
      <trkpt lat="45.23266" lon="6.04761">
        <ele>2396.6</ele>
        <time>2021-02-27T10:27:18Z</time>
      </trkpt>
      <trkpt lat="45.23266" lon="6.04761">
        <ele>2397</ele>
        <time>2021-02-27T10:27:19Z</time>
      </trkpt>
      <trkpt lat="45.23265" lon="6.04764">
        <ele>2397.2</ele>
        <time>2021-02-27T10:27:20Z</time>
      </trkpt>
      <trkpt lat="45.23265" lon="6.04764">
        <ele>2396.8</ele>
        <time>2021-02-27T10:27:21Z</time>
      </trkpt>
      <trkpt lat="45.23265" lon="6.04764">
        <ele>2397.4</ele>
        <time>2021-02-27T10:27:22Z</time>
      </trkpt>
      <trkpt lat="45.23265" lon="6.04767">
        <ele>2397.6</ele>
        <time>2021-02-27T10:27:23Z</time>
      </trkpt>
      <trkpt lat="45.23265" lon="6.04767">
        <ele>2397.8</ele>
        <time>2021-02-27T10:27:24Z</time>
      </trkpt>
      <trkpt lat="45.23265" lon="6.04767">
        <ele>2398.2</ele>
        <time>2021-02-27T10:27:25Z</time>
      </trkpt>
      <trkpt lat="45.23265" lon="6.0477">
        <ele>2398.6</ele>
        <time>2021-02-27T10:27:26Z</time>
      </trkpt>
      <trkpt lat="45.23265" lon="6.0477">
        <ele>2398.8</ele>
        <time>2021-02-27T10:27:27Z</time>
      </trkpt>
      <trkpt lat="45.23265" lon="6.0477">
        <ele>2399.2</ele>
        <time>2021-02-27T10:27:28Z</time>
      </trkpt>
      <trkpt lat="45.23265" lon="6.04773">
        <ele>2399.4</ele>
        <time>2021-02-27T10:27:29Z</time>
      </trkpt>
      <trkpt lat="45.23265" lon="6.04773">
        <ele>2399.6</ele>
        <time>2021-02-27T10:27:30Z</time>
      </trkpt>
      <trkpt lat="45.23265" lon="6.04773">
        <ele>2399.8</ele>
        <time>2021-02-27T10:27:31Z</time>
      </trkpt>
      <trkpt lat="45.23264" lon="6.04776">
        <ele>2400</ele>
        <time>2021-02-27T10:27:32Z</time>
      </trkpt>
      <trkpt lat="45.23264" lon="6.04776">
        <ele>2399.6</ele>
        <time>2021-02-27T10:27:33Z</time>
      </trkpt>
      <trkpt lat="45.23264" lon="6.04776">
        <ele>2400</ele>
        <time>2021-02-27T10:27:34Z</time>
      </trkpt>
      <trkpt lat="45.23264" lon="6.04779">
        <ele>2400</ele>
        <time>2021-02-27T10:27:35Z</time>
      </trkpt>
      <trkpt lat="45.23264" lon="6.04779">
        <ele>2400.6</ele>
        <time>2021-02-27T10:27:36Z</time>
      </trkpt>
      <trkpt lat="45.23264" lon="6.04779">
        <ele>2400.8</ele>
        <time>2021-02-27T10:27:37Z</time>
      </trkpt>
      <trkpt lat="45.23264" lon="6.04782">
        <ele>2400.8</ele>
        <time>2021-02-27T10:27:38Z</time>
      </trkpt>
      <trkpt lat="45.23264" lon="6.04782">
        <ele>2401.2</ele>
        <time>2021-02-27T10:27:39Z</time>
      </trkpt>
      <trkpt lat="45.23264" lon="6.04785">
        <ele>2401.6</ele>
        <time>2021-02-27T10:27:40Z</time>
      </trkpt>
      <trkpt lat="45.23264" lon="6.04785">
        <ele>2401.4</ele>
        <time>2021-02-27T10:27:41Z</time>
      </trkpt>
      <trkpt lat="45.23264" lon="6.04785">
        <ele>2402</ele>
        <time>2021-02-27T10:27:42Z</time>
      </trkpt>
      <trkpt lat="45.23264" lon="6.04787">
        <ele>2402.2</ele>
        <time>2021-02-27T10:27:43Z</time>
      </trkpt>
      <trkpt lat="45.23264" lon="6.04787">
        <ele>2402.2</ele>
        <time>2021-02-27T10:27:44Z</time>
      </trkpt>
      <trkpt lat="45.23264" lon="6.04787">
        <ele>2403</ele>
        <time>2021-02-27T10:27:45Z</time>
      </trkpt>
      <trkpt lat="45.23264" lon="6.0479">
        <ele>2402.8</ele>
        <time>2021-02-27T10:27:46Z</time>
      </trkpt>
      <trkpt lat="45.23264" lon="6.0479">
        <ele>2402.6</ele>
        <time>2021-02-27T10:27:47Z</time>
      </trkpt>
      <trkpt lat="45.23266" lon="6.04791">
        <ele>2403</ele>
        <time>2021-02-27T10:27:48Z</time>
      </trkpt>
      <trkpt lat="45.23266" lon="6.04791">
        <ele>2403.4</ele>
        <time>2021-02-27T10:27:49Z</time>
      </trkpt>
      <trkpt lat="45.23266" lon="6.04791">
        <ele>2403.6</ele>
        <time>2021-02-27T10:27:50Z</time>
      </trkpt>
      <trkpt lat="45.23268" lon="6.04792">
        <ele>2403.8</ele>
        <time>2021-02-27T10:27:51Z</time>
      </trkpt>
      <trkpt lat="45.23268" lon="6.04792">
        <ele>2404.2</ele>
        <time>2021-02-27T10:27:52Z</time>
      </trkpt>
      <trkpt lat="45.23269" lon="6.04793">
        <ele>2404.2</ele>
        <time>2021-02-27T10:27:53Z</time>
      </trkpt>
      <trkpt lat="45.23269" lon="6.04793">
        <ele>2404.4</ele>
        <time>2021-02-27T10:27:54Z</time>
      </trkpt>
      <trkpt lat="45.23269" lon="6.04793">
        <ele>2404.8</ele>
        <time>2021-02-27T10:27:55Z</time>
      </trkpt>
      <trkpt lat="45.23269" lon="6.04793">
        <ele>2405</ele>
        <time>2021-02-27T10:27:56Z</time>
      </trkpt>
      <trkpt lat="45.2327" lon="6.04796">
        <ele>2405</ele>
        <time>2021-02-27T10:27:57Z</time>
      </trkpt>
      <trkpt lat="45.2327" lon="6.04796">
        <ele>2405.4</ele>
        <time>2021-02-27T10:27:58Z</time>
      </trkpt>
      <trkpt lat="45.23271" lon="6.04798">
        <ele>2405.8</ele>
        <time>2021-02-27T10:27:59Z</time>
      </trkpt>
      <trkpt lat="45.23271" lon="6.04798">
        <ele>2405.8</ele>
        <time>2021-02-27T10:28:00Z</time>
      </trkpt>
      <trkpt lat="45.23271" lon="6.04798">
        <ele>2406</ele>
        <time>2021-02-27T10:28:01Z</time>
      </trkpt>
      <trkpt lat="45.23273" lon="6.04801">
        <ele>2406.2</ele>
        <time>2021-02-27T10:28:02Z</time>
      </trkpt>
      <trkpt lat="45.23273" lon="6.04801">
        <ele>2406.4</ele>
        <time>2021-02-27T10:28:03Z</time>
      </trkpt>
      <trkpt lat="45.23273" lon="6.04801">
        <ele>2406.6</ele>
        <time>2021-02-27T10:28:04Z</time>
      </trkpt>
      <trkpt lat="45.23273" lon="6.04801">
        <ele>2406.8</ele>
        <time>2021-02-27T10:28:05Z</time>
      </trkpt>
      <trkpt lat="45.23274" lon="6.04804">
        <ele>2407.2</ele>
        <time>2021-02-27T10:28:06Z</time>
      </trkpt>
      <trkpt lat="45.23274" lon="6.04804">
        <ele>2407.2</ele>
        <time>2021-02-27T10:28:07Z</time>
      </trkpt>
      <trkpt lat="45.23274" lon="6.04804">
        <ele>2407.6</ele>
        <time>2021-02-27T10:28:08Z</time>
      </trkpt>
      <trkpt lat="45.23275" lon="6.04806">
        <ele>2408</ele>
        <time>2021-02-27T10:28:09Z</time>
      </trkpt>
      <trkpt lat="45.23275" lon="6.04806">
        <ele>2408.2</ele>
        <time>2021-02-27T10:28:10Z</time>
      </trkpt>
      <trkpt lat="45.23275" lon="6.04806">
        <ele>2408.4</ele>
        <time>2021-02-27T10:28:11Z</time>
      </trkpt>
      <trkpt lat="45.23276" lon="6.04808">
        <ele>2408.8</ele>
        <time>2021-02-27T10:28:12Z</time>
      </trkpt>
      <trkpt lat="45.23276" lon="6.04808">
        <ele>2409</ele>
        <time>2021-02-27T10:28:13Z</time>
      </trkpt>
      <trkpt lat="45.23276" lon="6.04808">
        <ele>2409.4</ele>
        <time>2021-02-27T10:28:14Z</time>
      </trkpt>
      <trkpt lat="45.23277" lon="6.04811">
        <ele>2409.8</ele>
        <time>2021-02-27T10:28:15Z</time>
      </trkpt>
      <trkpt lat="45.23277" lon="6.04811">
        <ele>2409.8</ele>
        <time>2021-02-27T10:28:16Z</time>
      </trkpt>
      <trkpt lat="45.23278" lon="6.04813">
        <ele>2410</ele>
        <time>2021-02-27T10:28:17Z</time>
      </trkpt>
      <trkpt lat="45.23278" lon="6.04813">
        <ele>2410.2</ele>
        <time>2021-02-27T10:28:18Z</time>
      </trkpt>
      <trkpt lat="45.23278" lon="6.04813">
        <ele>2410.4</ele>
        <time>2021-02-27T10:28:19Z</time>
      </trkpt>
      <trkpt lat="45.2328" lon="6.04816">
        <ele>2410.8</ele>
        <time>2021-02-27T10:28:20Z</time>
      </trkpt>
      <trkpt lat="45.2328" lon="6.04816">
        <ele>2411</ele>
        <time>2021-02-27T10:28:21Z</time>
      </trkpt>
      <trkpt lat="45.2328" lon="6.04818">
        <ele>2411.2</ele>
        <time>2021-02-27T10:28:22Z</time>
      </trkpt>
      <trkpt lat="45.2328" lon="6.04818">
        <ele>2411.8</ele>
        <time>2021-02-27T10:28:23Z</time>
      </trkpt>
      <trkpt lat="45.2328" lon="6.04818">
        <ele>2412</ele>
        <time>2021-02-27T10:28:24Z</time>
      </trkpt>
      <trkpt lat="45.2328" lon="6.04822">
        <ele>2412.8</ele>
        <time>2021-02-27T10:28:25Z</time>
      </trkpt>
      <trkpt lat="45.2328" lon="6.04822">
        <ele>2413.2</ele>
        <time>2021-02-27T10:28:26Z</time>
      </trkpt>
      <trkpt lat="45.2328" lon="6.04822">
        <ele>2413</ele>
        <time>2021-02-27T10:28:27Z</time>
      </trkpt>
      <trkpt lat="45.2328" lon="6.04825">
        <ele>2413</ele>
        <time>2021-02-27T10:28:28Z</time>
      </trkpt>
      <trkpt lat="45.2328" lon="6.04825">
        <ele>2413.2</ele>
        <time>2021-02-27T10:28:29Z</time>
      </trkpt>
      <trkpt lat="45.2328" lon="6.04825">
        <ele>2413.8</ele>
        <time>2021-02-27T10:28:30Z</time>
      </trkpt>
      <trkpt lat="45.23279" lon="6.04828">
        <ele>2414</ele>
        <time>2021-02-27T10:28:31Z</time>
      </trkpt>
      <trkpt lat="45.23279" lon="6.04828">
        <ele>2414.2</ele>
        <time>2021-02-27T10:28:32Z</time>
      </trkpt>
      <trkpt lat="45.23279" lon="6.04828">
        <ele>2414.6</ele>
        <time>2021-02-27T10:28:33Z</time>
      </trkpt>
      <trkpt lat="45.23278" lon="6.04831">
        <ele>2415</ele>
        <time>2021-02-27T10:28:34Z</time>
      </trkpt>
      <trkpt lat="45.23278" lon="6.04831">
        <ele>2415.4</ele>
        <time>2021-02-27T10:28:35Z</time>
      </trkpt>
      <trkpt lat="45.23277" lon="6.04833">
        <ele>2415.4</ele>
        <time>2021-02-27T10:28:36Z</time>
      </trkpt>
      <trkpt lat="45.23277" lon="6.04833">
        <ele>2415.6</ele>
        <time>2021-02-27T10:28:37Z</time>
      </trkpt>
      <trkpt lat="45.23277" lon="6.04833">
        <ele>2415.8</ele>
        <time>2021-02-27T10:28:38Z</time>
      </trkpt>
      <trkpt lat="45.23275" lon="6.04835">
        <ele>2416</ele>
        <time>2021-02-27T10:28:39Z</time>
      </trkpt>
      <trkpt lat="45.23275" lon="6.04835">
        <ele>2416.2</ele>
        <time>2021-02-27T10:28:40Z</time>
      </trkpt>
      <trkpt lat="45.23275" lon="6.04835">
        <ele>2417</ele>
        <time>2021-02-27T10:28:41Z</time>
      </trkpt>
      <trkpt lat="45.23274" lon="6.04838">
        <ele>2417.2</ele>
        <time>2021-02-27T10:28:42Z</time>
      </trkpt>
      <trkpt lat="45.23274" lon="6.04838">
        <ele>2417.4</ele>
        <time>2021-02-27T10:28:43Z</time>
      </trkpt>
      <trkpt lat="45.23274" lon="6.04838">
        <ele>2418.2</ele>
        <time>2021-02-27T10:28:44Z</time>
      </trkpt>
      <trkpt lat="45.23273" lon="6.0484">
        <ele>2418.2</ele>
        <time>2021-02-27T10:28:45Z</time>
      </trkpt>
      <trkpt lat="45.23273" lon="6.0484">
        <ele>2418.8</ele>
        <time>2021-02-27T10:28:46Z</time>
      </trkpt>
      <trkpt lat="45.23273" lon="6.0484">
        <ele>2418.8</ele>
        <time>2021-02-27T10:28:47Z</time>
      </trkpt>
      <trkpt lat="45.23271" lon="6.04843">
        <ele>2419</ele>
        <time>2021-02-27T10:28:48Z</time>
      </trkpt>
      <trkpt lat="45.23271" lon="6.04843">
        <ele>2419.2</ele>
        <time>2021-02-27T10:28:49Z</time>
      </trkpt>
      <trkpt lat="45.23271" lon="6.04843">
        <ele>2419.2</ele>
        <time>2021-02-27T10:28:50Z</time>
      </trkpt>
      <trkpt lat="45.2327" lon="6.04846">
        <ele>2419.4</ele>
        <time>2021-02-27T10:28:51Z</time>
      </trkpt>
      <trkpt lat="45.2327" lon="6.04846">
        <ele>2419.8</ele>
        <time>2021-02-27T10:28:52Z</time>
      </trkpt>
      <trkpt lat="45.23269" lon="6.04848">
        <ele>2419.8</ele>
        <time>2021-02-27T10:28:53Z</time>
      </trkpt>
      <trkpt lat="45.23269" lon="6.04848">
        <ele>2420</ele>
        <time>2021-02-27T10:28:54Z</time>
      </trkpt>
      <trkpt lat="45.23269" lon="6.04848">
        <ele>2420.6</ele>
        <time>2021-02-27T10:28:55Z</time>
      </trkpt>
      <trkpt lat="45.23267" lon="6.04851">
        <ele>2420.6</ele>
        <time>2021-02-27T10:28:56Z</time>
      </trkpt>
      <trkpt lat="45.23267" lon="6.04851">
        <ele>2421</ele>
        <time>2021-02-27T10:28:57Z</time>
      </trkpt>
      <trkpt lat="45.23267" lon="6.04851">
        <ele>2421.6</ele>
        <time>2021-02-27T10:28:58Z</time>
      </trkpt>
      <trkpt lat="45.23266" lon="6.04854">
        <ele>2421.8</ele>
        <time>2021-02-27T10:28:59Z</time>
      </trkpt>
      <trkpt lat="45.23266" lon="6.04854">
        <ele>2422</ele>
        <time>2021-02-27T10:29:00Z</time>
      </trkpt>
      <trkpt lat="45.23266" lon="6.04854">
        <ele>2422.6</ele>
        <time>2021-02-27T10:29:01Z</time>
      </trkpt>
      <trkpt lat="45.23266" lon="6.04854">
        <ele>2423</ele>
        <time>2021-02-27T10:29:02Z</time>
      </trkpt>
      <trkpt lat="45.23266" lon="6.04854">
        <ele>2423.4</ele>
        <time>2021-02-27T10:29:03Z</time>
      </trkpt>
      <trkpt lat="45.23266" lon="6.04854">
        <ele>2423.8</ele>
        <time>2021-02-27T10:29:04Z</time>
      </trkpt>
      <trkpt lat="45.23266" lon="6.04854">
        <ele>2423.6</ele>
        <time>2021-02-27T10:29:05Z</time>
      </trkpt>
      <trkpt lat="45.23266" lon="6.04854">
        <ele>2423.8</ele>
        <time>2021-02-27T10:29:06Z</time>
      </trkpt>
      <trkpt lat="45.23266" lon="6.04854">
        <ele>2423.4</ele>
        <time>2021-02-27T10:29:07Z</time>
      </trkpt>
      <trkpt lat="45.23266" lon="6.04854">
        <ele>2423.8</ele>
        <time>2021-02-27T10:29:08Z</time>
      </trkpt>
      <trkpt lat="45.23266" lon="6.04854">
        <ele>2423.6</ele>
        <time>2021-02-27T10:29:09Z</time>
      </trkpt>
      <trkpt lat="45.23266" lon="6.04854">
        <ele>2423.4</ele>
        <time>2021-02-27T10:29:10Z</time>
      </trkpt>
      <trkpt lat="45.23266" lon="6.04854">
        <ele>2423.8</ele>
        <time>2021-02-27T10:29:11Z</time>
      </trkpt>
      <trkpt lat="45.23266" lon="6.04854">
        <ele>2424</ele>
        <time>2021-02-27T10:29:12Z</time>
      </trkpt>
      <trkpt lat="45.23266" lon="6.04854">
        <ele>2424.2</ele>
        <time>2021-02-27T10:29:13Z</time>
      </trkpt>
      <trkpt lat="45.23267" lon="6.04856">
        <ele>2424</ele>
        <time>2021-02-27T10:29:14Z</time>
      </trkpt>
      <trkpt lat="45.23267" lon="6.04856">
        <ele>2423.8</ele>
        <time>2021-02-27T10:29:15Z</time>
      </trkpt>
      <trkpt lat="45.23267" lon="6.04856">
        <ele>2424</ele>
        <time>2021-02-27T10:29:16Z</time>
      </trkpt>
      <trkpt lat="45.23267" lon="6.04856">
        <ele>2423.6</ele>
        <time>2021-02-27T10:29:17Z</time>
      </trkpt>
      <trkpt lat="45.23267" lon="6.04856">
        <ele>2423.6</ele>
        <time>2021-02-27T10:29:18Z</time>
      </trkpt>
      <trkpt lat="45.23267" lon="6.04856">
        <ele>2423.4</ele>
        <time>2021-02-27T10:29:19Z</time>
      </trkpt>
      <trkpt lat="45.23267" lon="6.04856">
        <ele>2423</ele>
        <time>2021-02-27T10:29:20Z</time>
      </trkpt>
      <trkpt lat="45.23267" lon="6.04856">
        <ele>2423</ele>
        <time>2021-02-27T10:29:21Z</time>
      </trkpt>
      <trkpt lat="45.23267" lon="6.04856">
        <ele>2423</ele>
        <time>2021-02-27T10:29:22Z</time>
      </trkpt>
      <trkpt lat="45.23269" lon="6.04855">
        <ele>2422.8</ele>
        <time>2021-02-27T10:29:23Z</time>
      </trkpt>
      <trkpt lat="45.23269" lon="6.04855">
        <ele>2423</ele>
        <time>2021-02-27T10:29:24Z</time>
      </trkpt>
      <trkpt lat="45.23269" lon="6.04855">
        <ele>2422.8</ele>
        <time>2021-02-27T10:29:25Z</time>
      </trkpt>
      <trkpt lat="45.23269" lon="6.04855">
        <ele>2423</ele>
        <time>2021-02-27T10:29:26Z</time>
      </trkpt>
      <trkpt lat="45.23269" lon="6.04855">
        <ele>2423</ele>
        <time>2021-02-27T10:29:27Z</time>
      </trkpt>
      <trkpt lat="45.23269" lon="6.04855">
        <ele>2423.6</ele>
        <time>2021-02-27T10:29:28Z</time>
      </trkpt>
      <trkpt lat="45.23269" lon="6.04855">
        <ele>2424.2</ele>
        <time>2021-02-27T10:29:29Z</time>
      </trkpt>
      <trkpt lat="45.23269" lon="6.04855">
        <ele>2424.2</ele>
        <time>2021-02-27T10:29:30Z</time>
      </trkpt>
      <trkpt lat="45.23269" lon="6.04855">
        <ele>2424.2</ele>
        <time>2021-02-27T10:29:31Z</time>
      </trkpt>
      <trkpt lat="45.23269" lon="6.04855">
        <ele>2424.4</ele>
        <time>2021-02-27T10:29:32Z</time>
      </trkpt>
      <trkpt lat="45.23269" lon="6.04855">
        <ele>2424.6</ele>
        <time>2021-02-27T10:29:33Z</time>
      </trkpt>
      <trkpt lat="45.23269" lon="6.04855">
        <ele>2424.6</ele>
        <time>2021-02-27T10:29:34Z</time>
      </trkpt>
      <trkpt lat="45.23269" lon="6.04855">
        <ele>2424.6</ele>
        <time>2021-02-27T10:29:35Z</time>
      </trkpt>
      <trkpt lat="45.23269" lon="6.04855">
        <ele>2425</ele>
        <time>2021-02-27T10:29:36Z</time>
      </trkpt>
      <trkpt lat="45.23269" lon="6.04855">
        <ele>2425</ele>
        <time>2021-02-27T10:29:37Z</time>
      </trkpt>
      <trkpt lat="45.23269" lon="6.04855">
        <ele>2424.6</ele>
        <time>2021-02-27T10:29:38Z</time>
      </trkpt>
      <trkpt lat="45.23269" lon="6.04855">
        <ele>2424.4</ele>
        <time>2021-02-27T10:29:39Z</time>
      </trkpt>
      <trkpt lat="45.23269" lon="6.04855">
        <ele>2424.4</ele>
        <time>2021-02-27T10:29:40Z</time>
      </trkpt>
      <trkpt lat="45.23269" lon="6.04855">
        <ele>2424.2</ele>
        <time>2021-02-27T10:29:41Z</time>
      </trkpt>
      <trkpt lat="45.23269" lon="6.04855">
        <ele>2424.4</ele>
        <time>2021-02-27T10:29:42Z</time>
      </trkpt>
      <trkpt lat="45.23269" lon="6.04855">
        <ele>2425</ele>
        <time>2021-02-27T10:29:43Z</time>
      </trkpt>
      <trkpt lat="45.23269" lon="6.04855">
        <ele>2425.2</ele>
        <time>2021-02-27T10:29:44Z</time>
      </trkpt>
      <trkpt lat="45.23269" lon="6.04855">
        <ele>2425.4</ele>
        <time>2021-02-27T10:29:45Z</time>
      </trkpt>
      <trkpt lat="45.23269" lon="6.04855">
        <ele>2425.2</ele>
        <time>2021-02-27T10:29:46Z</time>
      </trkpt>
      <trkpt lat="45.23269" lon="6.04855">
        <ele>2425.2</ele>
        <time>2021-02-27T10:29:47Z</time>
      </trkpt>
      <trkpt lat="45.23269" lon="6.04855">
        <ele>2425.2</ele>
        <time>2021-02-27T10:29:48Z</time>
      </trkpt>
      <trkpt lat="45.23269" lon="6.04855">
        <ele>2425.2</ele>
        <time>2021-02-27T10:29:49Z</time>
      </trkpt>
      <trkpt lat="45.23269" lon="6.04855">
        <ele>2425</ele>
        <time>2021-02-27T10:29:50Z</time>
      </trkpt>
      <trkpt lat="45.23269" lon="6.04855">
        <ele>2425.4</ele>
        <time>2021-02-27T10:29:51Z</time>
      </trkpt>
      <trkpt lat="45.23269" lon="6.04855">
        <ele>2425.8</ele>
        <time>2021-02-27T10:29:52Z</time>
      </trkpt>
      <trkpt lat="45.23269" lon="6.04855">
        <ele>2425.6</ele>
        <time>2021-02-27T10:29:53Z</time>
      </trkpt>
      <trkpt lat="45.23269" lon="6.04855">
        <ele>2425.4</ele>
        <time>2021-02-27T10:29:54Z</time>
      </trkpt>
      <trkpt lat="45.23269" lon="6.04855">
        <ele>2425.4</ele>
        <time>2021-02-27T10:29:55Z</time>
      </trkpt>
      <trkpt lat="45.23269" lon="6.04855">
        <ele>2425.4</ele>
        <time>2021-02-27T10:29:56Z</time>
      </trkpt>
      <trkpt lat="45.23269" lon="6.04855">
        <ele>2425.6</ele>
        <time>2021-02-27T10:29:57Z</time>
      </trkpt>
      <trkpt lat="45.23269" lon="6.04855">
        <ele>2425.6</ele>
        <time>2021-02-27T10:29:58Z</time>
      </trkpt>
      <trkpt lat="45.23269" lon="6.04855">
        <ele>2426</ele>
        <time>2021-02-27T10:29:59Z</time>
      </trkpt>
      <trkpt lat="45.23269" lon="6.04855">
        <ele>2425.6</ele>
        <time>2021-02-27T10:30:00Z</time>
      </trkpt>
      <trkpt lat="45.23269" lon="6.04855">
        <ele>2425.2</ele>
        <time>2021-02-27T10:30:01Z</time>
      </trkpt>
      <trkpt lat="45.23269" lon="6.04855">
        <ele>2425.4</ele>
        <time>2021-02-27T10:30:02Z</time>
      </trkpt>
      <trkpt lat="45.23269" lon="6.04855">
        <ele>2425.4</ele>
        <time>2021-02-27T10:30:03Z</time>
      </trkpt>
      <trkpt lat="45.23269" lon="6.04855">
        <ele>2425.2</ele>
        <time>2021-02-27T10:30:04Z</time>
      </trkpt>
      <trkpt lat="45.23269" lon="6.04855">
        <ele>2425.4</ele>
        <time>2021-02-27T10:30:05Z</time>
      </trkpt>
      <trkpt lat="45.23269" lon="6.04855">
        <ele>2425.4</ele>
        <time>2021-02-27T10:30:06Z</time>
      </trkpt>
      <trkpt lat="45.23269" lon="6.04855">
        <ele>2425</ele>
        <time>2021-02-27T10:30:07Z</time>
      </trkpt>
      <trkpt lat="45.23269" lon="6.04855">
        <ele>2425</ele>
        <time>2021-02-27T10:30:08Z</time>
      </trkpt>
      <trkpt lat="45.23268" lon="6.04858">
        <ele>2425.2</ele>
        <time>2021-02-27T10:30:09Z</time>
      </trkpt>
      <trkpt lat="45.23268" lon="6.04858">
        <ele>2425.2</ele>
        <time>2021-02-27T10:30:10Z</time>
      </trkpt>
      <trkpt lat="45.23268" lon="6.04858">
        <ele>2426</ele>
        <time>2021-02-27T10:30:11Z</time>
      </trkpt>
      <trkpt lat="45.23268" lon="6.04858">
        <ele>2425.8</ele>
        <time>2021-02-27T10:30:12Z</time>
      </trkpt>
      <trkpt lat="45.23268" lon="6.04858">
        <ele>2426.2</ele>
        <time>2021-02-27T10:30:13Z</time>
      </trkpt>
      <trkpt lat="45.23268" lon="6.04858">
        <ele>2426.4</ele>
        <time>2021-02-27T10:30:14Z</time>
      </trkpt>
      <trkpt lat="45.23268" lon="6.04858">
        <ele>2426.8</ele>
        <time>2021-02-27T10:30:15Z</time>
      </trkpt>
      <trkpt lat="45.23268" lon="6.04858">
        <ele>2427</ele>
        <time>2021-02-27T10:30:16Z</time>
      </trkpt>
      <trkpt lat="45.23268" lon="6.04858">
        <ele>2427</ele>
        <time>2021-02-27T10:30:17Z</time>
      </trkpt>
      <trkpt lat="45.23268" lon="6.04858">
        <ele>2426.6</ele>
        <time>2021-02-27T10:30:18Z</time>
      </trkpt>
      <trkpt lat="45.23269" lon="6.04861">
        <ele>2426.6</ele>
        <time>2021-02-27T10:30:19Z</time>
      </trkpt>
      <trkpt lat="45.23269" lon="6.04864">
        <ele>2426.8</ele>
        <time>2021-02-27T10:30:20Z</time>
      </trkpt>
      <trkpt lat="45.23269" lon="6.04867">
        <ele>2426.8</ele>
        <time>2021-02-27T10:30:21Z</time>
      </trkpt>
      <trkpt lat="45.23269" lon="6.04872">
        <ele>2426.6</ele>
        <time>2021-02-27T10:30:22Z</time>
      </trkpt>
      <trkpt lat="45.23269" lon="6.04876">
        <ele>2426.4</ele>
        <time>2021-02-27T10:30:23Z</time>
      </trkpt>
      <trkpt lat="45.23269" lon="6.04882">
        <ele>2425.6</ele>
        <time>2021-02-27T10:30:24Z</time>
      </trkpt>
      <trkpt lat="45.23268" lon="6.04889">
        <ele>2425</ele>
        <time>2021-02-27T10:30:25Z</time>
      </trkpt>
      <trkpt lat="45.23268" lon="6.04895">
        <ele>2424.8</ele>
        <time>2021-02-27T10:30:26Z</time>
      </trkpt>
      <trkpt lat="45.23267" lon="6.04902">
        <ele>2424.2</ele>
        <time>2021-02-27T10:30:27Z</time>
      </trkpt>
      <trkpt lat="45.23266" lon="6.04908">
        <ele>2423.6</ele>
        <time>2021-02-27T10:30:28Z</time>
      </trkpt>
      <trkpt lat="45.23266" lon="6.04913">
        <ele>2423</ele>
        <time>2021-02-27T10:30:29Z</time>
      </trkpt>
      <trkpt lat="45.23265" lon="6.04918">
        <ele>2422.8</ele>
        <time>2021-02-27T10:30:30Z</time>
      </trkpt>
      <trkpt lat="45.23265" lon="6.04922">
        <ele>2422.4</ele>
        <time>2021-02-27T10:30:31Z</time>
      </trkpt>
      <trkpt lat="45.23265" lon="6.04927">
        <ele>2422</ele>
        <time>2021-02-27T10:30:32Z</time>
      </trkpt>
      <trkpt lat="45.23264" lon="6.04932">
        <ele>2421.8</ele>
        <time>2021-02-27T10:30:33Z</time>
      </trkpt>
      <trkpt lat="45.23264" lon="6.04937">
        <ele>2421.6</ele>
        <time>2021-02-27T10:30:34Z</time>
      </trkpt>
      <trkpt lat="45.23263" lon="6.04944">
        <ele>2421.4</ele>
        <time>2021-02-27T10:30:35Z</time>
      </trkpt>
      <trkpt lat="45.23262" lon="6.04951">
        <ele>2420.6</ele>
        <time>2021-02-27T10:30:36Z</time>
      </trkpt>
      <trkpt lat="45.23261" lon="6.04958">
        <ele>2419.8</ele>
        <time>2021-02-27T10:30:37Z</time>
      </trkpt>
      <trkpt lat="45.2326" lon="6.04964">
        <ele>2419.2</ele>
        <time>2021-02-27T10:30:38Z</time>
      </trkpt>
      <trkpt lat="45.23258" lon="6.04971">
        <ele>2419</ele>
        <time>2021-02-27T10:30:39Z</time>
      </trkpt>
      <trkpt lat="45.23256" lon="6.04978">
        <ele>2419</ele>
        <time>2021-02-27T10:30:40Z</time>
      </trkpt>
      <trkpt lat="45.23254" lon="6.04983">
        <ele>2418.6</ele>
        <time>2021-02-27T10:30:41Z</time>
      </trkpt>
      <trkpt lat="45.23252" lon="6.04987">
        <ele>2417.8</ele>
        <time>2021-02-27T10:30:42Z</time>
      </trkpt>
      <trkpt lat="45.2325" lon="6.0499">
        <ele>2418</ele>
        <time>2021-02-27T10:30:43Z</time>
      </trkpt>
      <trkpt lat="45.23248" lon="6.04992">
        <ele>2418.4</ele>
        <time>2021-02-27T10:30:44Z</time>
      </trkpt>
      <trkpt lat="45.23247" lon="6.04995">
        <ele>2418.8</ele>
        <time>2021-02-27T10:30:45Z</time>
      </trkpt>
      <trkpt lat="45.23245" lon="6.04997">
        <ele>2418.8</ele>
        <time>2021-02-27T10:30:46Z</time>
      </trkpt>
      <trkpt lat="45.23243" lon="6.05">
        <ele>2419.2</ele>
        <time>2021-02-27T10:30:47Z</time>
      </trkpt>
      <trkpt lat="45.23241" lon="6.05">
        <ele>2419</ele>
        <time>2021-02-27T10:30:48Z</time>
      </trkpt>
      <trkpt lat="45.23238" lon="6.04998">
        <ele>2417.8</ele>
        <time>2021-02-27T10:30:49Z</time>
      </trkpt>
      <trkpt lat="45.23236" lon="6.04997">
        <ele>2417</ele>
        <time>2021-02-27T10:30:50Z</time>
      </trkpt>
      <trkpt lat="45.23234" lon="6.05001">
        <ele>2415.2</ele>
        <time>2021-02-27T10:30:51Z</time>
      </trkpt>
      <trkpt lat="45.23232" lon="6.05006">
        <ele>2415.4</ele>
        <time>2021-02-27T10:30:52Z</time>
      </trkpt>
      <trkpt lat="45.23229" lon="6.05008">
        <ele>2414.4</ele>
        <time>2021-02-27T10:30:53Z</time>
      </trkpt>
      <trkpt lat="45.23227" lon="6.05009">
        <ele>2413</ele>
        <time>2021-02-27T10:30:54Z</time>
      </trkpt>
      <trkpt lat="45.23225" lon="6.05013">
        <ele>2412</ele>
        <time>2021-02-27T10:30:55Z</time>
      </trkpt>
      <trkpt lat="45.23224" lon="6.0502">
        <ele>2410.8</ele>
        <time>2021-02-27T10:30:56Z</time>
      </trkpt>
      <trkpt lat="45.23223" lon="6.05026">
        <ele>2408.6</ele>
        <time>2021-02-27T10:30:57Z</time>
      </trkpt>
      <trkpt lat="45.23222" lon="6.05032">
        <ele>2406.8</ele>
        <time>2021-02-27T10:30:58Z</time>
      </trkpt>
      <trkpt lat="45.23222" lon="6.05038">
        <ele>2404.6</ele>
        <time>2021-02-27T10:30:59Z</time>
      </trkpt>
      <trkpt lat="45.23222" lon="6.05045">
        <ele>2402.2</ele>
        <time>2021-02-27T10:31:00Z</time>
      </trkpt>
      <trkpt lat="45.23222" lon="6.05054">
        <ele>2400.2</ele>
        <time>2021-02-27T10:31:01Z</time>
      </trkpt>
      <trkpt lat="45.23221" lon="6.05062">
        <ele>2398</ele>
        <time>2021-02-27T10:31:02Z</time>
      </trkpt>
      <trkpt lat="45.23221" lon="6.0507">
        <ele>2396.8</ele>
        <time>2021-02-27T10:31:03Z</time>
      </trkpt>
      <trkpt lat="45.23221" lon="6.05078">
        <ele>2394.6</ele>
        <time>2021-02-27T10:31:04Z</time>
      </trkpt>
      <trkpt lat="45.23221" lon="6.05086">
        <ele>2393.8</ele>
        <time>2021-02-27T10:31:05Z</time>
      </trkpt>
      <trkpt lat="45.23221" lon="6.05096">
        <ele>2392</ele>
        <time>2021-02-27T10:31:06Z</time>
      </trkpt>
      <trkpt lat="45.2322" lon="6.05104">
        <ele>2390.6</ele>
        <time>2021-02-27T10:31:07Z</time>
      </trkpt>
      <trkpt lat="45.23219" lon="6.05111">
        <ele>2389.2</ele>
        <time>2021-02-27T10:31:08Z</time>
      </trkpt>
      <trkpt lat="45.23217" lon="6.05117">
        <ele>2388.2</ele>
        <time>2021-02-27T10:31:09Z</time>
      </trkpt>
      <trkpt lat="45.23217" lon="6.05117">
        <ele>2387.8</ele>
        <time>2021-02-27T10:31:10Z</time>
      </trkpt>
      <trkpt lat="45.23214" lon="6.05129">
        <ele>2387</ele>
        <time>2021-02-27T10:31:11Z</time>
      </trkpt>
      <trkpt lat="45.23214" lon="6.05132">
        <ele>2386.8</ele>
        <time>2021-02-27T10:31:12Z</time>
      </trkpt>
      <trkpt lat="45.23213" lon="6.05137">
        <ele>2386.4</ele>
        <time>2021-02-27T10:31:13Z</time>
      </trkpt>
      <trkpt lat="45.23211" lon="6.05143">
        <ele>2386.2</ele>
        <time>2021-02-27T10:31:14Z</time>
      </trkpt>
      <trkpt lat="45.23209" lon="6.05146">
        <ele>2385.6</ele>
        <time>2021-02-27T10:31:15Z</time>
      </trkpt>
      <trkpt lat="45.23206" lon="6.05147">
        <ele>2384</ele>
        <time>2021-02-27T10:31:16Z</time>
      </trkpt>
      <trkpt lat="45.23203" lon="6.05149">
        <ele>2383.4</ele>
        <time>2021-02-27T10:31:17Z</time>
      </trkpt>
      <trkpt lat="45.23203" lon="6.05149">
        <ele>2381.8</ele>
        <time>2021-02-27T10:31:18Z</time>
      </trkpt>
      <trkpt lat="45.23204" lon="6.05154">
        <ele>2380.6</ele>
        <time>2021-02-27T10:31:19Z</time>
      </trkpt>
      <trkpt lat="45.23205" lon="6.05159">
        <ele>2380.6</ele>
        <time>2021-02-27T10:31:20Z</time>
      </trkpt>
      <trkpt lat="45.23206" lon="6.05165">
        <ele>2379</ele>
        <time>2021-02-27T10:31:21Z</time>
      </trkpt>
      <trkpt lat="45.23204" lon="6.05173">
        <ele>2378.2</ele>
        <time>2021-02-27T10:31:22Z</time>
      </trkpt>
      <trkpt lat="45.23203" lon="6.05182">
        <ele>2376.8</ele>
        <time>2021-02-27T10:31:23Z</time>
      </trkpt>
      <trkpt lat="45.23202" lon="6.0519">
        <ele>2375.6</ele>
        <time>2021-02-27T10:31:24Z</time>
      </trkpt>
      <trkpt lat="45.232" lon="6.05197">
        <ele>2374.8</ele>
        <time>2021-02-27T10:31:25Z</time>
      </trkpt>
      <trkpt lat="45.232" lon="6.05197">
        <ele>2375</ele>
        <time>2021-02-27T10:31:26Z</time>
      </trkpt>
      <trkpt lat="45.23198" lon="6.05201">
        <ele>2374.8</ele>
        <time>2021-02-27T10:31:27Z</time>
      </trkpt>
      <trkpt lat="45.23197" lon="6.05205">
        <ele>2374.6</ele>
        <time>2021-02-27T10:31:28Z</time>
      </trkpt>
      <trkpt lat="45.23195" lon="6.0521">
        <ele>2375</ele>
        <time>2021-02-27T10:31:29Z</time>
      </trkpt>
      <trkpt lat="45.23194" lon="6.05216">
        <ele>2375</ele>
        <time>2021-02-27T10:31:30Z</time>
      </trkpt>
      <trkpt lat="45.23193" lon="6.05222">
        <ele>2375.2</ele>
        <time>2021-02-27T10:31:31Z</time>
      </trkpt>
      <trkpt lat="45.23192" lon="6.05228">
        <ele>2375.2</ele>
        <time>2021-02-27T10:31:32Z</time>
      </trkpt>
      <trkpt lat="45.23191" lon="6.05235">
        <ele>2374.6</ele>
        <time>2021-02-27T10:31:33Z</time>
      </trkpt>
      <trkpt lat="45.23189" lon="6.05242">
        <ele>2373.8</ele>
        <time>2021-02-27T10:31:34Z</time>
      </trkpt>
      <trkpt lat="45.23188" lon="6.05251">
        <ele>2373.2</ele>
        <time>2021-02-27T10:31:35Z</time>
      </trkpt>
      <trkpt lat="45.23186" lon="6.0526">
        <ele>2372.6</ele>
        <time>2021-02-27T10:31:36Z</time>
      </trkpt>
      <trkpt lat="45.23184" lon="6.05268">
        <ele>2371.8</ele>
        <time>2021-02-27T10:31:37Z</time>
      </trkpt>
      <trkpt lat="45.23182" lon="6.05276">
        <ele>2370.8</ele>
        <time>2021-02-27T10:31:38Z</time>
      </trkpt>
      <trkpt lat="45.23181" lon="6.05283">
        <ele>2370.2</ele>
        <time>2021-02-27T10:31:39Z</time>
      </trkpt>
      <trkpt lat="45.23179" lon="6.05289">
        <ele>2369.4</ele>
        <time>2021-02-27T10:31:40Z</time>
      </trkpt>
      <trkpt lat="45.23178" lon="6.05294">
        <ele>2369.2</ele>
        <time>2021-02-27T10:31:41Z</time>
      </trkpt>
      <trkpt lat="45.23178" lon="6.05294">
        <ele>2368.6</ele>
        <time>2021-02-27T10:31:42Z</time>
      </trkpt>
      <trkpt lat="45.23176" lon="6.053">
        <ele>2369</ele>
        <time>2021-02-27T10:31:43Z</time>
      </trkpt>
      <trkpt lat="45.23174" lon="6.05305">
        <ele>2369.6</ele>
        <time>2021-02-27T10:31:44Z</time>
      </trkpt>
      <trkpt lat="45.23172" lon="6.0531">
        <ele>2370</ele>
        <time>2021-02-27T10:31:45Z</time>
      </trkpt>
      <trkpt lat="45.2317" lon="6.05314">
        <ele>2370.2</ele>
        <time>2021-02-27T10:31:46Z</time>
      </trkpt>
      <trkpt lat="45.23169" lon="6.05319">
        <ele>2370.4</ele>
        <time>2021-02-27T10:31:47Z</time>
      </trkpt>
      <trkpt lat="45.23167" lon="6.05323">
        <ele>2370</ele>
        <time>2021-02-27T10:31:48Z</time>
      </trkpt>
      <trkpt lat="45.23165" lon="6.05327">
        <ele>2370.4</ele>
        <time>2021-02-27T10:31:49Z</time>
      </trkpt>
      <trkpt lat="45.23164" lon="6.0533">
        <ele>2370.8</ele>
        <time>2021-02-27T10:31:50Z</time>
      </trkpt>
      <trkpt lat="45.23163" lon="6.05334">
        <ele>2370.4</ele>
        <time>2021-02-27T10:31:51Z</time>
      </trkpt>
      <trkpt lat="45.23162" lon="6.05337">
        <ele>2370.8</ele>
        <time>2021-02-27T10:31:52Z</time>
      </trkpt>
      <trkpt lat="45.23161" lon="6.05339">
        <ele>2371.4</ele>
        <time>2021-02-27T10:31:53Z</time>
      </trkpt>
      <trkpt lat="45.2316" lon="6.05341">
        <ele>2371.8</ele>
        <time>2021-02-27T10:31:54Z</time>
      </trkpt>
      <trkpt lat="45.2316" lon="6.05343">
        <ele>2371.6</ele>
        <time>2021-02-27T10:31:55Z</time>
      </trkpt>
      <trkpt lat="45.23159" lon="6.05344">
        <ele>2371.6</ele>
        <time>2021-02-27T10:31:56Z</time>
      </trkpt>
      <trkpt lat="45.23159" lon="6.05344">
        <ele>2371.2</ele>
        <time>2021-02-27T10:31:57Z</time>
      </trkpt>
      <trkpt lat="45.23159" lon="6.05344">
        <ele>2370.8</ele>
        <time>2021-02-27T10:31:58Z</time>
      </trkpt>
      <trkpt lat="45.23159" lon="6.05344">
        <ele>2370.6</ele>
        <time>2021-02-27T10:31:59Z</time>
      </trkpt>
      <trkpt lat="45.23159" lon="6.05344">
        <ele>2370.4</ele>
        <time>2021-02-27T10:32:00Z</time>
      </trkpt>
      <trkpt lat="45.23159" lon="6.05344">
        <ele>2370.2</ele>
        <time>2021-02-27T10:32:01Z</time>
      </trkpt>
      <trkpt lat="45.23159" lon="6.05344">
        <ele>2370.2</ele>
        <time>2021-02-27T10:32:02Z</time>
      </trkpt>
      <trkpt lat="45.23159" lon="6.05344">
        <ele>2370.8</ele>
        <time>2021-02-27T10:32:03Z</time>
      </trkpt>
      <trkpt lat="45.23157" lon="6.05343">
        <ele>2371</ele>
        <time>2021-02-27T10:32:04Z</time>
      </trkpt>
      <trkpt lat="45.23157" lon="6.05343">
        <ele>2371.4</ele>
        <time>2021-02-27T10:32:05Z</time>
      </trkpt>
      <trkpt lat="45.23157" lon="6.05343">
        <ele>2371.8</ele>
        <time>2021-02-27T10:32:06Z</time>
      </trkpt>
      <trkpt lat="45.23157" lon="6.05343">
        <ele>2372.2</ele>
        <time>2021-02-27T10:32:07Z</time>
      </trkpt>
      <trkpt lat="45.23157" lon="6.05343">
        <ele>2372.2</ele>
        <time>2021-02-27T10:32:08Z</time>
      </trkpt>
      <trkpt lat="45.23157" lon="6.05343">
        <ele>2372.2</ele>
        <time>2021-02-27T10:32:09Z</time>
      </trkpt>
      <trkpt lat="45.23157" lon="6.05343">
        <ele>2371.8</ele>
        <time>2021-02-27T10:32:10Z</time>
      </trkpt>
      <trkpt lat="45.23155" lon="6.05342">
        <ele>2371.2</ele>
        <time>2021-02-27T10:32:11Z</time>
      </trkpt>
      <trkpt lat="45.23155" lon="6.05342">
        <ele>2371</ele>
        <time>2021-02-27T10:32:12Z</time>
      </trkpt>
      <trkpt lat="45.23155" lon="6.05342">
        <ele>2370.6</ele>
        <time>2021-02-27T10:32:13Z</time>
      </trkpt>
      <trkpt lat="45.23154" lon="6.05342">
        <ele>2370.4</ele>
        <time>2021-02-27T10:32:14Z</time>
      </trkpt>
      <trkpt lat="45.23154" lon="6.05342">
        <ele>2370</ele>
        <time>2021-02-27T10:32:15Z</time>
      </trkpt>
      <trkpt lat="45.23154" lon="6.05342">
        <ele>2370.2</ele>
        <time>2021-02-27T10:32:16Z</time>
      </trkpt>
      <trkpt lat="45.23154" lon="6.05342">
        <ele>2370</ele>
        <time>2021-02-27T10:32:17Z</time>
      </trkpt>
      <trkpt lat="45.23154" lon="6.05342">
        <ele>2370.2</ele>
        <time>2021-02-27T10:32:18Z</time>
      </trkpt>
      <trkpt lat="45.23154" lon="6.05342">
        <ele>2369.8</ele>
        <time>2021-02-27T10:32:19Z</time>
      </trkpt>
      <trkpt lat="45.23154" lon="6.05342">
        <ele>2369.4</ele>
        <time>2021-02-27T10:32:20Z</time>
      </trkpt>
      <trkpt lat="45.23154" lon="6.05342">
        <ele>2369.2</ele>
        <time>2021-02-27T10:32:21Z</time>
      </trkpt>
      <trkpt lat="45.23154" lon="6.05342">
        <ele>2369</ele>
        <time>2021-02-27T10:32:22Z</time>
      </trkpt>
      <trkpt lat="45.23154" lon="6.05342">
        <ele>2368.6</ele>
        <time>2021-02-27T10:32:23Z</time>
      </trkpt>
      <trkpt lat="45.23154" lon="6.05342">
        <ele>2368.8</ele>
        <time>2021-02-27T10:32:24Z</time>
      </trkpt>
      <trkpt lat="45.23154" lon="6.05342">
        <ele>2368.6</ele>
        <time>2021-02-27T10:32:25Z</time>
      </trkpt>
      <trkpt lat="45.23154" lon="6.05342">
        <ele>2368.8</ele>
        <time>2021-02-27T10:32:26Z</time>
      </trkpt>
      <trkpt lat="45.23154" lon="6.05342">
        <ele>2368.8</ele>
        <time>2021-02-27T10:32:27Z</time>
      </trkpt>
      <trkpt lat="45.23154" lon="6.05342">
        <ele>2368.6</ele>
        <time>2021-02-27T10:32:28Z</time>
      </trkpt>
      <trkpt lat="45.23154" lon="6.05342">
        <ele>2368.6</ele>
        <time>2021-02-27T10:32:29Z</time>
      </trkpt>
      <trkpt lat="45.23154" lon="6.05342">
        <ele>2368.8</ele>
        <time>2021-02-27T10:32:30Z</time>
      </trkpt>
      <trkpt lat="45.23154" lon="6.05342">
        <ele>2368.8</ele>
        <time>2021-02-27T10:32:31Z</time>
      </trkpt>
      <trkpt lat="45.23154" lon="6.0534">
        <ele>2368.8</ele>
        <time>2021-02-27T10:32:32Z</time>
      </trkpt>
      <trkpt lat="45.23154" lon="6.0534">
        <ele>2368.8</ele>
        <time>2021-02-27T10:32:33Z</time>
      </trkpt>
      <trkpt lat="45.23158" lon="6.05339">
        <ele>2369.2</ele>
        <time>2021-02-27T10:32:34Z</time>
      </trkpt>
      <trkpt lat="45.23158" lon="6.05339">
        <ele>2369.4</ele>
        <time>2021-02-27T10:32:35Z</time>
      </trkpt>
      <trkpt lat="45.23158" lon="6.05339">
        <ele>2369.6</ele>
        <time>2021-02-27T10:32:36Z</time>
      </trkpt>
      <trkpt lat="45.2316" lon="6.0534">
        <ele>2369.8</ele>
        <time>2021-02-27T10:32:37Z</time>
      </trkpt>
      <trkpt lat="45.2316" lon="6.0534">
        <ele>2369.8</ele>
        <time>2021-02-27T10:32:38Z</time>
      </trkpt>
      <trkpt lat="45.2316" lon="6.0534">
        <ele>2370</ele>
        <time>2021-02-27T10:32:39Z</time>
      </trkpt>
      <trkpt lat="45.2316" lon="6.0534">
        <ele>2370</ele>
        <time>2021-02-27T10:32:40Z</time>
      </trkpt>
      <trkpt lat="45.23158" lon="6.0534">
        <ele>2370.2</ele>
        <time>2021-02-27T10:32:41Z</time>
      </trkpt>
      <trkpt lat="45.23158" lon="6.0534">
        <ele>2370</ele>
        <time>2021-02-27T10:32:42Z</time>
      </trkpt>
      <trkpt lat="45.23158" lon="6.0534">
        <ele>2370</ele>
        <time>2021-02-27T10:32:43Z</time>
      </trkpt>
      <trkpt lat="45.23158" lon="6.0534">
        <ele>2369.8</ele>
        <time>2021-02-27T10:32:44Z</time>
      </trkpt>
      <trkpt lat="45.23158" lon="6.0534">
        <ele>2369.8</ele>
        <time>2021-02-27T10:32:45Z</time>
      </trkpt>
      <trkpt lat="45.23158" lon="6.0534">
        <ele>2369.8</ele>
        <time>2021-02-27T10:32:46Z</time>
      </trkpt>
      <trkpt lat="45.23158" lon="6.0534">
        <ele>2369.8</ele>
        <time>2021-02-27T10:32:47Z</time>
      </trkpt>
      <trkpt lat="45.23154" lon="6.05339">
        <ele>2369.6</ele>
        <time>2021-02-27T10:32:48Z</time>
      </trkpt>
      <trkpt lat="45.23154" lon="6.05339">
        <ele>2369.4</ele>
        <time>2021-02-27T10:32:49Z</time>
      </trkpt>
      <trkpt lat="45.23154" lon="6.05339">
        <ele>2369.4</ele>
        <time>2021-02-27T10:32:50Z</time>
      </trkpt>
      <trkpt lat="45.23154" lon="6.05339">
        <ele>2369.4</ele>
        <time>2021-02-27T10:32:51Z</time>
      </trkpt>
      <trkpt lat="45.23154" lon="6.05339">
        <ele>2369.4</ele>
        <time>2021-02-27T10:32:52Z</time>
      </trkpt>
      <trkpt lat="45.23154" lon="6.05339">
        <ele>2369.2</ele>
        <time>2021-02-27T10:32:53Z</time>
      </trkpt>
      <trkpt lat="45.23154" lon="6.05339">
        <ele>2369.2</ele>
        <time>2021-02-27T10:32:54Z</time>
      </trkpt>
      <trkpt lat="45.23154" lon="6.05339">
        <ele>2369.2</ele>
        <time>2021-02-27T10:32:55Z</time>
      </trkpt>
      <trkpt lat="45.23157" lon="6.05339">
        <ele>2369.2</ele>
        <time>2021-02-27T10:32:56Z</time>
      </trkpt>
      <trkpt lat="45.23157" lon="6.05339">
        <ele>2369.2</ele>
        <time>2021-02-27T10:32:57Z</time>
      </trkpt>
      <trkpt lat="45.23154" lon="6.05341">
        <ele>2369</ele>
        <time>2021-02-27T10:32:58Z</time>
      </trkpt>
      <trkpt lat="45.23154" lon="6.05341">
        <ele>2368.8</ele>
        <time>2021-02-27T10:32:59Z</time>
      </trkpt>
      <trkpt lat="45.23154" lon="6.05341">
        <ele>2368.6</ele>
        <time>2021-02-27T10:33:00Z</time>
      </trkpt>
      <trkpt lat="45.23154" lon="6.05341">
        <ele>2368.6</ele>
        <time>2021-02-27T10:33:01Z</time>
      </trkpt>
      <trkpt lat="45.23154" lon="6.05341">
        <ele>2368.8</ele>
        <time>2021-02-27T10:33:02Z</time>
      </trkpt>
      <trkpt lat="45.23154" lon="6.05341">
        <ele>2368.6</ele>
        <time>2021-02-27T10:33:03Z</time>
      </trkpt>
      <trkpt lat="45.23154" lon="6.05341">
        <ele>2368.8</ele>
        <time>2021-02-27T10:33:04Z</time>
      </trkpt>
      <trkpt lat="45.23154" lon="6.05341">
        <ele>2369</ele>
        <time>2021-02-27T10:33:05Z</time>
      </trkpt>
      <trkpt lat="45.23152" lon="6.05343">
        <ele>2369</ele>
        <time>2021-02-27T10:33:06Z</time>
      </trkpt>
      <trkpt lat="45.23152" lon="6.05343">
        <ele>2369.2</ele>
        <time>2021-02-27T10:33:07Z</time>
      </trkpt>
      <trkpt lat="45.23151" lon="6.05345">
        <ele>2369.2</ele>
        <time>2021-02-27T10:33:08Z</time>
      </trkpt>
      <trkpt lat="45.23151" lon="6.05345">
        <ele>2369.4</ele>
        <time>2021-02-27T10:33:09Z</time>
      </trkpt>
      <trkpt lat="45.2315" lon="6.05347">
        <ele>2369.4</ele>
        <time>2021-02-27T10:33:10Z</time>
      </trkpt>
      <trkpt lat="45.2315" lon="6.05347">
        <ele>2369.2</ele>
        <time>2021-02-27T10:33:11Z</time>
      </trkpt>
      <trkpt lat="45.23149" lon="6.0535">
        <ele>2369</ele>
        <time>2021-02-27T10:33:12Z</time>
      </trkpt>
      <trkpt lat="45.23149" lon="6.0535">
        <ele>2369.2</ele>
        <time>2021-02-27T10:33:13Z</time>
      </trkpt>
      <trkpt lat="45.23148" lon="6.05352">
        <ele>2369.2</ele>
        <time>2021-02-27T10:33:14Z</time>
      </trkpt>
      <trkpt lat="45.23148" lon="6.05352">
        <ele>2369.6</ele>
        <time>2021-02-27T10:33:15Z</time>
      </trkpt>
      <trkpt lat="45.23148" lon="6.05352">
        <ele>2369.8</ele>
        <time>2021-02-27T10:33:16Z</time>
      </trkpt>
      <trkpt lat="45.23148" lon="6.05355">
        <ele>2370</ele>
        <time>2021-02-27T10:33:17Z</time>
      </trkpt>
      <trkpt lat="45.23148" lon="6.05355">
        <ele>2370.4</ele>
        <time>2021-02-27T10:33:18Z</time>
      </trkpt>
      <trkpt lat="45.23148" lon="6.05355">
        <ele>2370.6</ele>
        <time>2021-02-27T10:33:19Z</time>
      </trkpt>
      <trkpt lat="45.23147" lon="6.05359">
        <ele>2370.8</ele>
        <time>2021-02-27T10:33:20Z</time>
      </trkpt>
      <trkpt lat="45.23147" lon="6.05359">
        <ele>2371.2</ele>
        <time>2021-02-27T10:33:21Z</time>
      </trkpt>
      <trkpt lat="45.23147" lon="6.05362">
        <ele>2371.4</ele>
        <time>2021-02-27T10:33:22Z</time>
      </trkpt>
      <trkpt lat="45.23147" lon="6.05362">
        <ele>2371.4</ele>
        <time>2021-02-27T10:33:23Z</time>
      </trkpt>
      <trkpt lat="45.23146" lon="6.05365">
        <ele>2371.6</ele>
        <time>2021-02-27T10:33:24Z</time>
      </trkpt>
      <trkpt lat="45.23146" lon="6.05365">
        <ele>2371.4</ele>
        <time>2021-02-27T10:33:25Z</time>
      </trkpt>
      <trkpt lat="45.23145" lon="6.0537">
        <ele>2371.6</ele>
        <time>2021-02-27T10:33:26Z</time>
      </trkpt>
      <trkpt lat="45.23145" lon="6.0537">
        <ele>2371.8</ele>
        <time>2021-02-27T10:33:27Z</time>
      </trkpt>
      <trkpt lat="45.23144" lon="6.05373">
        <ele>2371.8</ele>
        <time>2021-02-27T10:33:28Z</time>
      </trkpt>
      <trkpt lat="45.23144" lon="6.05373">
        <ele>2371.8</ele>
        <time>2021-02-27T10:33:29Z</time>
      </trkpt>
      <trkpt lat="45.23144" lon="6.05375">
        <ele>2371.8</ele>
        <time>2021-02-27T10:33:30Z</time>
      </trkpt>
      <trkpt lat="45.23144" lon="6.05375">
        <ele>2372</ele>
        <time>2021-02-27T10:33:31Z</time>
      </trkpt>
      <trkpt lat="45.23144" lon="6.05378">
        <ele>2372</ele>
        <time>2021-02-27T10:33:32Z</time>
      </trkpt>
      <trkpt lat="45.23144" lon="6.05378">
        <ele>2372</ele>
        <time>2021-02-27T10:33:33Z</time>
      </trkpt>
      <trkpt lat="45.23143" lon="6.05381">
        <ele>2372</ele>
        <time>2021-02-27T10:33:34Z</time>
      </trkpt>
      <trkpt lat="45.23143" lon="6.05381">
        <ele>2371.6</ele>
        <time>2021-02-27T10:33:35Z</time>
      </trkpt>
      <trkpt lat="45.23143" lon="6.05381">
        <ele>2371.6</ele>
        <time>2021-02-27T10:33:36Z</time>
      </trkpt>
      <trkpt lat="45.23144" lon="6.05385">
        <ele>2372.2</ele>
        <time>2021-02-27T10:33:37Z</time>
      </trkpt>
      <trkpt lat="45.23144" lon="6.05385">
        <ele>2372.8</ele>
        <time>2021-02-27T10:33:38Z</time>
      </trkpt>
      <trkpt lat="45.23144" lon="6.05385">
        <ele>2373.2</ele>
        <time>2021-02-27T10:33:39Z</time>
      </trkpt>
      <trkpt lat="45.23144" lon="6.05389">
        <ele>2373.4</ele>
        <time>2021-02-27T10:33:40Z</time>
      </trkpt>
      <trkpt lat="45.23144" lon="6.05389">
        <ele>2373.4</ele>
        <time>2021-02-27T10:33:41Z</time>
      </trkpt>
      <trkpt lat="45.23144" lon="6.05389">
        <ele>2373.8</ele>
        <time>2021-02-27T10:33:42Z</time>
      </trkpt>
      <trkpt lat="45.23143" lon="6.05392">
        <ele>2374.2</ele>
        <time>2021-02-27T10:33:43Z</time>
      </trkpt>
      <trkpt lat="45.23143" lon="6.05392">
        <ele>2374.6</ele>
        <time>2021-02-27T10:33:44Z</time>
      </trkpt>
      <trkpt lat="45.23143" lon="6.05392">
        <ele>2374.4</ele>
        <time>2021-02-27T10:33:45Z</time>
      </trkpt>
      <trkpt lat="45.23142" lon="6.05395">
        <ele>2374.6</ele>
        <time>2021-02-27T10:33:46Z</time>
      </trkpt>
      <trkpt lat="45.23142" lon="6.05395">
        <ele>2374.8</ele>
        <time>2021-02-27T10:33:47Z</time>
      </trkpt>
      <trkpt lat="45.23141" lon="6.05398">
        <ele>2374.8</ele>
        <time>2021-02-27T10:33:48Z</time>
      </trkpt>
      <trkpt lat="45.23141" lon="6.05398">
        <ele>2374.6</ele>
        <time>2021-02-27T10:33:49Z</time>
      </trkpt>
      <trkpt lat="45.23141" lon="6.054">
        <ele>2375</ele>
        <time>2021-02-27T10:33:50Z</time>
      </trkpt>
      <trkpt lat="45.23141" lon="6.054">
        <ele>2374.8</ele>
        <time>2021-02-27T10:33:51Z</time>
      </trkpt>
      <trkpt lat="45.2314" lon="6.05403">
        <ele>2374.8</ele>
        <time>2021-02-27T10:33:52Z</time>
      </trkpt>
      <trkpt lat="45.2314" lon="6.05403">
        <ele>2375.4</ele>
        <time>2021-02-27T10:33:53Z</time>
      </trkpt>
      <trkpt lat="45.23139" lon="6.05404">
        <ele>2374.8</ele>
        <time>2021-02-27T10:33:54Z</time>
      </trkpt>
      <trkpt lat="45.23138" lon="6.05406">
        <ele>2375.2</ele>
        <time>2021-02-27T10:33:55Z</time>
      </trkpt>
      <trkpt lat="45.23137" lon="6.05407">
        <ele>2375.8</ele>
        <time>2021-02-27T10:33:56Z</time>
      </trkpt>
      <trkpt lat="45.23136" lon="6.0541">
        <ele>2375.6</ele>
        <time>2021-02-27T10:33:57Z</time>
      </trkpt>
      <trkpt lat="45.23136" lon="6.0541">
        <ele>2376.4</ele>
        <time>2021-02-27T10:33:58Z</time>
      </trkpt>
      <trkpt lat="45.23135" lon="6.05413">
        <ele>2376.6</ele>
        <time>2021-02-27T10:33:59Z</time>
      </trkpt>
      <trkpt lat="45.23135" lon="6.05413">
        <ele>2377.2</ele>
        <time>2021-02-27T10:34:00Z</time>
      </trkpt>
      <trkpt lat="45.23135" lon="6.05417">
        <ele>2377.4</ele>
        <time>2021-02-27T10:34:01Z</time>
      </trkpt>
      <trkpt lat="45.23135" lon="6.05417">
        <ele>2377.4</ele>
        <time>2021-02-27T10:34:02Z</time>
      </trkpt>
      <trkpt lat="45.23134" lon="6.0542">
        <ele>2377.8</ele>
        <time>2021-02-27T10:34:03Z</time>
      </trkpt>
      <trkpt lat="45.23134" lon="6.0542">
        <ele>2377.8</ele>
        <time>2021-02-27T10:34:04Z</time>
      </trkpt>
      <trkpt lat="45.23134" lon="6.05423">
        <ele>2378.2</ele>
        <time>2021-02-27T10:34:05Z</time>
      </trkpt>
      <trkpt lat="45.23134" lon="6.05423">
        <ele>2378.2</ele>
        <time>2021-02-27T10:34:06Z</time>
      </trkpt>
      <trkpt lat="45.23134" lon="6.05426">
        <ele>2378.4</ele>
        <time>2021-02-27T10:34:07Z</time>
      </trkpt>
      <trkpt lat="45.23134" lon="6.05426">
        <ele>2379.2</ele>
        <time>2021-02-27T10:34:08Z</time>
      </trkpt>
      <trkpt lat="45.23132" lon="6.05429">
        <ele>2379.4</ele>
        <time>2021-02-27T10:34:09Z</time>
      </trkpt>
      <trkpt lat="45.23132" lon="6.05429">
        <ele>2379.8</ele>
        <time>2021-02-27T10:34:10Z</time>
      </trkpt>
      <trkpt lat="45.23132" lon="6.05431">
        <ele>2380.2</ele>
        <time>2021-02-27T10:34:11Z</time>
      </trkpt>
      <trkpt lat="45.23132" lon="6.05431">
        <ele>2380.2</ele>
        <time>2021-02-27T10:34:12Z</time>
      </trkpt>
      <trkpt lat="45.23132" lon="6.05435">
        <ele>2381</ele>
        <time>2021-02-27T10:34:13Z</time>
      </trkpt>
      <trkpt lat="45.23132" lon="6.05435">
        <ele>2380.8</ele>
        <time>2021-02-27T10:34:14Z</time>
      </trkpt>
      <trkpt lat="45.23132" lon="6.05435">
        <ele>2379.8</ele>
        <time>2021-02-27T10:34:15Z</time>
      </trkpt>
      <trkpt lat="45.23131" lon="6.05438">
        <ele>2380.4</ele>
        <time>2021-02-27T10:34:16Z</time>
      </trkpt>
      <trkpt lat="45.23131" lon="6.05438">
        <ele>2380.2</ele>
        <time>2021-02-27T10:34:17Z</time>
      </trkpt>
      <trkpt lat="45.23131" lon="6.05438">
        <ele>2380</ele>
        <time>2021-02-27T10:34:18Z</time>
      </trkpt>
      <trkpt lat="45.23131" lon="6.05438">
        <ele>2380.2</ele>
        <time>2021-02-27T10:34:19Z</time>
      </trkpt>
      <trkpt lat="45.23129" lon="6.05442">
        <ele>2380.6</ele>
        <time>2021-02-27T10:34:20Z</time>
      </trkpt>
      <trkpt lat="45.23129" lon="6.05442">
        <ele>2380.4</ele>
        <time>2021-02-27T10:34:21Z</time>
      </trkpt>
      <trkpt lat="45.23128" lon="6.05445">
        <ele>2380</ele>
        <time>2021-02-27T10:34:22Z</time>
      </trkpt>
      <trkpt lat="45.23128" lon="6.05445">
        <ele>2380</ele>
        <time>2021-02-27T10:34:23Z</time>
      </trkpt>
      <trkpt lat="45.23128" lon="6.05445">
        <ele>2379.8</ele>
        <time>2021-02-27T10:34:24Z</time>
      </trkpt>
      <trkpt lat="45.23127" lon="6.05448">
        <ele>2380</ele>
        <time>2021-02-27T10:34:25Z</time>
      </trkpt>
      <trkpt lat="45.23127" lon="6.05448">
        <ele>2380</ele>
        <time>2021-02-27T10:34:26Z</time>
      </trkpt>
      <trkpt lat="45.23127" lon="6.05448">
        <ele>2380.4</ele>
        <time>2021-02-27T10:34:27Z</time>
      </trkpt>
      <trkpt lat="45.23125" lon="6.05451">
        <ele>2380.4</ele>
        <time>2021-02-27T10:34:28Z</time>
      </trkpt>
      <trkpt lat="45.23125" lon="6.05451">
        <ele>2380.4</ele>
        <time>2021-02-27T10:34:29Z</time>
      </trkpt>
      <trkpt lat="45.23125" lon="6.05451">
        <ele>2381.2</ele>
        <time>2021-02-27T10:34:30Z</time>
      </trkpt>
      <trkpt lat="45.23125" lon="6.05451">
        <ele>2381.4</ele>
        <time>2021-02-27T10:34:31Z</time>
      </trkpt>
      <trkpt lat="45.23125" lon="6.05451">
        <ele>2382</ele>
        <time>2021-02-27T10:34:32Z</time>
      </trkpt>
      <trkpt lat="45.23122" lon="6.05453">
        <ele>2382.6</ele>
        <time>2021-02-27T10:34:33Z</time>
      </trkpt>
      <trkpt lat="45.23122" lon="6.05453">
        <ele>2383.2</ele>
        <time>2021-02-27T10:34:34Z</time>
      </trkpt>
      <trkpt lat="45.2312" lon="6.05455">
        <ele>2383.8</ele>
        <time>2021-02-27T10:34:35Z</time>
      </trkpt>
      <trkpt lat="45.2312" lon="6.05455">
        <ele>2384.2</ele>
        <time>2021-02-27T10:34:36Z</time>
      </trkpt>
      <trkpt lat="45.23118" lon="6.05457">
        <ele>2384.8</ele>
        <time>2021-02-27T10:34:37Z</time>
      </trkpt>
      <trkpt lat="45.23118" lon="6.05457">
        <ele>2385.2</ele>
        <time>2021-02-27T10:34:38Z</time>
      </trkpt>
      <trkpt lat="45.23116" lon="6.05459">
        <ele>2385.8</ele>
        <time>2021-02-27T10:34:39Z</time>
      </trkpt>
      <trkpt lat="45.23116" lon="6.05459">
        <ele>2385.8</ele>
        <time>2021-02-27T10:34:40Z</time>
      </trkpt>
      <trkpt lat="45.23116" lon="6.05459">
        <ele>2386.2</ele>
        <time>2021-02-27T10:34:41Z</time>
      </trkpt>
      <trkpt lat="45.23114" lon="6.05463">
        <ele>2386.4</ele>
        <time>2021-02-27T10:34:42Z</time>
      </trkpt>
      <trkpt lat="45.23114" lon="6.05463">
        <ele>2386.8</ele>
        <time>2021-02-27T10:34:43Z</time>
      </trkpt>
      <trkpt lat="45.23112" lon="6.05465">
        <ele>2387.6</ele>
        <time>2021-02-27T10:34:44Z</time>
      </trkpt>
      <trkpt lat="45.23112" lon="6.05465">
        <ele>2387.8</ele>
        <time>2021-02-27T10:34:45Z</time>
      </trkpt>
      <trkpt lat="45.23111" lon="6.05467">
        <ele>2387.8</ele>
        <time>2021-02-27T10:34:46Z</time>
      </trkpt>
      <trkpt lat="45.23111" lon="6.05467">
        <ele>2388.4</ele>
        <time>2021-02-27T10:34:47Z</time>
      </trkpt>
      <trkpt lat="45.23111" lon="6.05467">
        <ele>2388.8</ele>
        <time>2021-02-27T10:34:48Z</time>
      </trkpt>
      <trkpt lat="45.23111" lon="6.05467">
        <ele>2389</ele>
        <time>2021-02-27T10:34:49Z</time>
      </trkpt>
      <trkpt lat="45.23111" lon="6.0547">
        <ele>2389.6</ele>
        <time>2021-02-27T10:34:50Z</time>
      </trkpt>
      <trkpt lat="45.23111" lon="6.0547">
        <ele>2390</ele>
        <time>2021-02-27T10:34:51Z</time>
      </trkpt>
      <trkpt lat="45.23111" lon="6.0547">
        <ele>2390.2</ele>
        <time>2021-02-27T10:34:52Z</time>
      </trkpt>
      <trkpt lat="45.23113" lon="6.05471">
        <ele>2390.4</ele>
        <time>2021-02-27T10:34:53Z</time>
      </trkpt>
      <trkpt lat="45.23113" lon="6.05471">
        <ele>2390.4</ele>
        <time>2021-02-27T10:34:54Z</time>
      </trkpt>
      <trkpt lat="45.23114" lon="6.05472">
        <ele>2390.8</ele>
        <time>2021-02-27T10:34:55Z</time>
      </trkpt>
      <trkpt lat="45.23115" lon="6.05473">
        <ele>2390.8</ele>
        <time>2021-02-27T10:34:56Z</time>
      </trkpt>
      <trkpt lat="45.23116" lon="6.05474">
        <ele>2391.4</ele>
        <time>2021-02-27T10:34:57Z</time>
      </trkpt>
      <trkpt lat="45.23116" lon="6.05475">
        <ele>2391.4</ele>
        <time>2021-02-27T10:34:58Z</time>
      </trkpt>
      <trkpt lat="45.23117" lon="6.05476">
        <ele>2392</ele>
        <time>2021-02-27T10:34:59Z</time>
      </trkpt>
      <trkpt lat="45.23118" lon="6.05477">
        <ele>2392</ele>
        <time>2021-02-27T10:35:00Z</time>
      </trkpt>
      <trkpt lat="45.23119" lon="6.05478">
        <ele>2392</ele>
        <time>2021-02-27T10:35:01Z</time>
      </trkpt>
      <trkpt lat="45.2312" lon="6.05479">
        <ele>2392.4</ele>
        <time>2021-02-27T10:35:02Z</time>
      </trkpt>
      <trkpt lat="45.23121" lon="6.0548">
        <ele>2392.2</ele>
        <time>2021-02-27T10:35:03Z</time>
      </trkpt>
      <trkpt lat="45.2312" lon="6.05481">
        <ele>2392.4</ele>
        <time>2021-02-27T10:35:04Z</time>
      </trkpt>
      <trkpt lat="45.2312" lon="6.05483">
        <ele>2392.6</ele>
        <time>2021-02-27T10:35:05Z</time>
      </trkpt>
      <trkpt lat="45.2312" lon="6.05484">
        <ele>2393</ele>
        <time>2021-02-27T10:35:06Z</time>
      </trkpt>
      <trkpt lat="45.23119" lon="6.05485">
        <ele>2393.2</ele>
        <time>2021-02-27T10:35:07Z</time>
      </trkpt>
      <trkpt lat="45.23119" lon="6.05486">
        <ele>2393.4</ele>
        <time>2021-02-27T10:35:08Z</time>
      </trkpt>
      <trkpt lat="45.23119" lon="6.05487">
        <ele>2393.8</ele>
        <time>2021-02-27T10:35:09Z</time>
      </trkpt>
      <trkpt lat="45.23119" lon="6.05488">
        <ele>2394.8</ele>
        <time>2021-02-27T10:35:10Z</time>
      </trkpt>
      <trkpt lat="45.23118" lon="6.0549">
        <ele>2395</ele>
        <time>2021-02-27T10:35:11Z</time>
      </trkpt>
      <trkpt lat="45.23118" lon="6.05491">
        <ele>2395.4</ele>
        <time>2021-02-27T10:35:12Z</time>
      </trkpt>
      <trkpt lat="45.23118" lon="6.05492">
        <ele>2395.6</ele>
        <time>2021-02-27T10:35:13Z</time>
      </trkpt>
      <trkpt lat="45.23118" lon="6.05493">
        <ele>2396</ele>
        <time>2021-02-27T10:35:14Z</time>
      </trkpt>
      <trkpt lat="45.23117" lon="6.05494">
        <ele>2396</ele>
        <time>2021-02-27T10:35:15Z</time>
      </trkpt>
      <trkpt lat="45.23116" lon="6.05495">
        <ele>2396.6</ele>
        <time>2021-02-27T10:35:16Z</time>
      </trkpt>
      <trkpt lat="45.23115" lon="6.05496">
        <ele>2396.6</ele>
        <time>2021-02-27T10:35:17Z</time>
      </trkpt>
      <trkpt lat="45.23115" lon="6.05497">
        <ele>2396.8</ele>
        <time>2021-02-27T10:35:18Z</time>
      </trkpt>
      <trkpt lat="45.23114" lon="6.05498">
        <ele>2397.2</ele>
        <time>2021-02-27T10:35:19Z</time>
      </trkpt>
      <trkpt lat="45.23113" lon="6.05499">
        <ele>2397</ele>
        <time>2021-02-27T10:35:20Z</time>
      </trkpt>
      <trkpt lat="45.23112" lon="6.05501">
        <ele>2397.4</ele>
        <time>2021-02-27T10:35:21Z</time>
      </trkpt>
      <trkpt lat="45.23112" lon="6.05501">
        <ele>2397.8</ele>
        <time>2021-02-27T10:35:22Z</time>
      </trkpt>
      <trkpt lat="45.2311" lon="6.05503">
        <ele>2398</ele>
        <time>2021-02-27T10:35:23Z</time>
      </trkpt>
      <trkpt lat="45.2311" lon="6.05503">
        <ele>2398.4</ele>
        <time>2021-02-27T10:35:24Z</time>
      </trkpt>
      <trkpt lat="45.2311" lon="6.05503">
        <ele>2398.8</ele>
        <time>2021-02-27T10:35:25Z</time>
      </trkpt>
      <trkpt lat="45.2311" lon="6.05503">
        <ele>2398.6</ele>
        <time>2021-02-27T10:35:26Z</time>
      </trkpt>
      <trkpt lat="45.2311" lon="6.05503">
        <ele>2399.4</ele>
        <time>2021-02-27T10:35:27Z</time>
      </trkpt>
      <trkpt lat="45.23108" lon="6.05505">
        <ele>2399.4</ele>
        <time>2021-02-27T10:35:28Z</time>
      </trkpt>
      <trkpt lat="45.23108" lon="6.05505">
        <ele>2399.4</ele>
        <time>2021-02-27T10:35:29Z</time>
      </trkpt>
      <trkpt lat="45.23108" lon="6.05505">
        <ele>2400</ele>
        <time>2021-02-27T10:35:30Z</time>
      </trkpt>
      <trkpt lat="45.23107" lon="6.05508">
        <ele>2400.2</ele>
        <time>2021-02-27T10:35:31Z</time>
      </trkpt>
      <trkpt lat="45.23107" lon="6.05508">
        <ele>2400.6</ele>
        <time>2021-02-27T10:35:32Z</time>
      </trkpt>
      <trkpt lat="45.23108" lon="6.05511">
        <ele>2401</ele>
        <time>2021-02-27T10:35:33Z</time>
      </trkpt>
      <trkpt lat="45.23108" lon="6.05511">
        <ele>2401</ele>
        <time>2021-02-27T10:35:34Z</time>
      </trkpt>
      <trkpt lat="45.23109" lon="6.05514">
        <ele>2401.6</ele>
        <time>2021-02-27T10:35:35Z</time>
      </trkpt>
      <trkpt lat="45.23109" lon="6.05514">
        <ele>2402.2</ele>
        <time>2021-02-27T10:35:36Z</time>
      </trkpt>
      <trkpt lat="45.23109" lon="6.05514">
        <ele>2402.6</ele>
        <time>2021-02-27T10:35:37Z</time>
      </trkpt>
      <trkpt lat="45.2311" lon="6.05516">
        <ele>2402.6</ele>
        <time>2021-02-27T10:35:38Z</time>
      </trkpt>
      <trkpt lat="45.2311" lon="6.05516">
        <ele>2402.2</ele>
        <time>2021-02-27T10:35:39Z</time>
      </trkpt>
      <trkpt lat="45.2311" lon="6.05516">
        <ele>2403</ele>
        <time>2021-02-27T10:35:40Z</time>
      </trkpt>
      <trkpt lat="45.2311" lon="6.05516">
        <ele>2403.2</ele>
        <time>2021-02-27T10:35:41Z</time>
      </trkpt>
      <trkpt lat="45.2311" lon="6.05516">
        <ele>2403</ele>
        <time>2021-02-27T10:35:42Z</time>
      </trkpt>
      <trkpt lat="45.23114" lon="6.0552">
        <ele>2403.8</ele>
        <time>2021-02-27T10:35:43Z</time>
      </trkpt>
      <trkpt lat="45.23114" lon="6.0552">
        <ele>2404.2</ele>
        <time>2021-02-27T10:35:44Z</time>
      </trkpt>
      <trkpt lat="45.23116" lon="6.05522">
        <ele>2404.6</ele>
        <time>2021-02-27T10:35:45Z</time>
      </trkpt>
      <trkpt lat="45.23116" lon="6.05522">
        <ele>2405</ele>
        <time>2021-02-27T10:35:46Z</time>
      </trkpt>
      <trkpt lat="45.23117" lon="6.05523">
        <ele>2405.8</ele>
        <time>2021-02-27T10:35:47Z</time>
      </trkpt>
      <trkpt lat="45.23118" lon="6.05523">
        <ele>2405.2</ele>
        <time>2021-02-27T10:35:48Z</time>
      </trkpt>
      <trkpt lat="45.23119" lon="6.05524">
        <ele>2405.4</ele>
        <time>2021-02-27T10:35:49Z</time>
      </trkpt>
      <trkpt lat="45.2312" lon="6.05525">
        <ele>2405.6</ele>
        <time>2021-02-27T10:35:50Z</time>
      </trkpt>
      <trkpt lat="45.2312" lon="6.05525">
        <ele>2405.8</ele>
        <time>2021-02-27T10:35:51Z</time>
      </trkpt>
      <trkpt lat="45.23119" lon="6.05528">
        <ele>2406.2</ele>
        <time>2021-02-27T10:35:52Z</time>
      </trkpt>
      <trkpt lat="45.23119" lon="6.05528">
        <ele>2406.2</ele>
        <time>2021-02-27T10:35:53Z</time>
      </trkpt>
      <trkpt lat="45.23117" lon="6.05529">
        <ele>2406.6</ele>
        <time>2021-02-27T10:35:54Z</time>
      </trkpt>
      <trkpt lat="45.23117" lon="6.05529">
        <ele>2406.8</ele>
        <time>2021-02-27T10:35:55Z</time>
      </trkpt>
      <trkpt lat="45.23114" lon="6.0553">
        <ele>2406.6</ele>
        <time>2021-02-27T10:35:56Z</time>
      </trkpt>
      <trkpt lat="45.23114" lon="6.0553">
        <ele>2407.4</ele>
        <time>2021-02-27T10:35:57Z</time>
      </trkpt>
      <trkpt lat="45.23113" lon="6.05531">
        <ele>2407.6</ele>
        <time>2021-02-27T10:35:58Z</time>
      </trkpt>
      <trkpt lat="45.23113" lon="6.05531">
        <ele>2407.6</ele>
        <time>2021-02-27T10:35:59Z</time>
      </trkpt>
      <trkpt lat="45.23111" lon="6.05533">
        <ele>2408.2</ele>
        <time>2021-02-27T10:36:00Z</time>
      </trkpt>
      <trkpt lat="45.23111" lon="6.05533">
        <ele>2408.2</ele>
        <time>2021-02-27T10:36:01Z</time>
      </trkpt>
      <trkpt lat="45.2311" lon="6.05535">
        <ele>2408.2</ele>
        <time>2021-02-27T10:36:02Z</time>
      </trkpt>
      <trkpt lat="45.2311" lon="6.05535">
        <ele>2408.8</ele>
        <time>2021-02-27T10:36:03Z</time>
      </trkpt>
      <trkpt lat="45.2311" lon="6.05535">
        <ele>2408.8</ele>
        <time>2021-02-27T10:36:04Z</time>
      </trkpt>
      <trkpt lat="45.23108" lon="6.05537">
        <ele>2408.6</ele>
        <time>2021-02-27T10:36:05Z</time>
      </trkpt>
      <trkpt lat="45.23108" lon="6.05537">
        <ele>2409.4</ele>
        <time>2021-02-27T10:36:06Z</time>
      </trkpt>
      <trkpt lat="45.23106" lon="6.05538">
        <ele>2409.8</ele>
        <time>2021-02-27T10:36:07Z</time>
      </trkpt>
      <trkpt lat="45.23106" lon="6.05538">
        <ele>2410.2</ele>
        <time>2021-02-27T10:36:08Z</time>
      </trkpt>
      <trkpt lat="45.23104" lon="6.05541">
        <ele>2410.6</ele>
        <time>2021-02-27T10:36:09Z</time>
      </trkpt>
      <trkpt lat="45.23104" lon="6.05541">
        <ele>2410.4</ele>
        <time>2021-02-27T10:36:10Z</time>
      </trkpt>
      <trkpt lat="45.23103" lon="6.05543">
        <ele>2411</ele>
        <time>2021-02-27T10:36:11Z</time>
      </trkpt>
      <trkpt lat="45.23103" lon="6.05543">
        <ele>2411.2</ele>
        <time>2021-02-27T10:36:12Z</time>
      </trkpt>
      <trkpt lat="45.23102" lon="6.05546">
        <ele>2411.4</ele>
        <time>2021-02-27T10:36:13Z</time>
      </trkpt>
      <trkpt lat="45.23102" lon="6.05546">
        <ele>2411.6</ele>
        <time>2021-02-27T10:36:14Z</time>
      </trkpt>
      <trkpt lat="45.23101" lon="6.05549">
        <ele>2411.6</ele>
        <time>2021-02-27T10:36:15Z</time>
      </trkpt>
      <trkpt lat="45.23101" lon="6.05549">
        <ele>2411.8</ele>
        <time>2021-02-27T10:36:16Z</time>
      </trkpt>
      <trkpt lat="45.23101" lon="6.05549">
        <ele>2412.6</ele>
        <time>2021-02-27T10:36:17Z</time>
      </trkpt>
      <trkpt lat="45.231" lon="6.05552">
        <ele>2413.4</ele>
        <time>2021-02-27T10:36:18Z</time>
      </trkpt>
      <trkpt lat="45.231" lon="6.05552">
        <ele>2413.6</ele>
        <time>2021-02-27T10:36:19Z</time>
      </trkpt>
      <trkpt lat="45.231" lon="6.05552">
        <ele>2413.8</ele>
        <time>2021-02-27T10:36:20Z</time>
      </trkpt>
      <trkpt lat="45.231" lon="6.05555">
        <ele>2414.2</ele>
        <time>2021-02-27T10:36:21Z</time>
      </trkpt>
      <trkpt lat="45.231" lon="6.05555">
        <ele>2414.6</ele>
        <time>2021-02-27T10:36:22Z</time>
      </trkpt>
      <trkpt lat="45.231" lon="6.05555">
        <ele>2414.4</ele>
        <time>2021-02-27T10:36:23Z</time>
      </trkpt>
      <trkpt lat="45.23099" lon="6.0556">
        <ele>2414.8</ele>
        <time>2021-02-27T10:36:24Z</time>
      </trkpt>
      <trkpt lat="45.23099" lon="6.0556">
        <ele>2415</ele>
        <time>2021-02-27T10:36:25Z</time>
      </trkpt>
      <trkpt lat="45.23099" lon="6.0556">
        <ele>2414.6</ele>
        <time>2021-02-27T10:36:26Z</time>
      </trkpt>
      <trkpt lat="45.231" lon="6.05563">
        <ele>2415</ele>
        <time>2021-02-27T10:36:27Z</time>
      </trkpt>
      <trkpt lat="45.231" lon="6.05563">
        <ele>2415.6</ele>
        <time>2021-02-27T10:36:28Z</time>
      </trkpt>
      <trkpt lat="45.231" lon="6.05563">
        <ele>2416</ele>
        <time>2021-02-27T10:36:29Z</time>
      </trkpt>
      <trkpt lat="45.231" lon="6.05567">
        <ele>2416.6</ele>
        <time>2021-02-27T10:36:30Z</time>
      </trkpt>
      <trkpt lat="45.231" lon="6.05567">
        <ele>2417</ele>
        <time>2021-02-27T10:36:31Z</time>
      </trkpt>
      <trkpt lat="45.231" lon="6.05567">
        <ele>2417.4</ele>
        <time>2021-02-27T10:36:32Z</time>
      </trkpt>
      <trkpt lat="45.23099" lon="6.0557">
        <ele>2417.4</ele>
        <time>2021-02-27T10:36:33Z</time>
      </trkpt>
      <trkpt lat="45.23099" lon="6.0557">
        <ele>2418.6</ele>
        <time>2021-02-27T10:36:34Z</time>
      </trkpt>
      <trkpt lat="45.23099" lon="6.0557">
        <ele>2418.8</ele>
        <time>2021-02-27T10:36:35Z</time>
      </trkpt>
      <trkpt lat="45.231" lon="6.05574">
        <ele>2418.4</ele>
        <time>2021-02-27T10:36:36Z</time>
      </trkpt>
      <trkpt lat="45.231" lon="6.05574">
        <ele>2420</ele>
        <time>2021-02-27T10:36:37Z</time>
      </trkpt>
      <trkpt lat="45.23101" lon="6.05577">
        <ele>2420.6</ele>
        <time>2021-02-27T10:36:38Z</time>
      </trkpt>
      <trkpt lat="45.23101" lon="6.05577">
        <ele>2420</ele>
        <time>2021-02-27T10:36:39Z</time>
      </trkpt>
      <trkpt lat="45.23101" lon="6.0558">
        <ele>2420.8</ele>
        <time>2021-02-27T10:36:40Z</time>
      </trkpt>
      <trkpt lat="45.23101" lon="6.0558">
        <ele>2420.8</ele>
        <time>2021-02-27T10:36:41Z</time>
      </trkpt>
      <trkpt lat="45.23101" lon="6.0558">
        <ele>2420.8</ele>
        <time>2021-02-27T10:36:42Z</time>
      </trkpt>
      <trkpt lat="45.23101" lon="6.05584">
        <ele>2421</ele>
        <time>2021-02-27T10:36:43Z</time>
      </trkpt>
      <trkpt lat="45.23101" lon="6.05584">
        <ele>2421.4</ele>
        <time>2021-02-27T10:36:44Z</time>
      </trkpt>
      <trkpt lat="45.23102" lon="6.05587">
        <ele>2421.6</ele>
        <time>2021-02-27T10:36:45Z</time>
      </trkpt>
      <trkpt lat="45.23102" lon="6.05587">
        <ele>2421.4</ele>
        <time>2021-02-27T10:36:46Z</time>
      </trkpt>
      <trkpt lat="45.23102" lon="6.05589">
        <ele>2421.6</ele>
        <time>2021-02-27T10:36:47Z</time>
      </trkpt>
      <trkpt lat="45.23102" lon="6.05589">
        <ele>2422</ele>
        <time>2021-02-27T10:36:48Z</time>
      </trkpt>
      <trkpt lat="45.23102" lon="6.05589">
        <ele>2422.2</ele>
        <time>2021-02-27T10:36:49Z</time>
      </trkpt>
      <trkpt lat="45.23102" lon="6.05593">
        <ele>2422</ele>
        <time>2021-02-27T10:36:50Z</time>
      </trkpt>
      <trkpt lat="45.23102" lon="6.05593">
        <ele>2422.4</ele>
        <time>2021-02-27T10:36:51Z</time>
      </trkpt>
      <trkpt lat="45.23102" lon="6.05593">
        <ele>2422.8</ele>
        <time>2021-02-27T10:36:52Z</time>
      </trkpt>
      <trkpt lat="45.23103" lon="6.05597">
        <ele>2423.2</ele>
        <time>2021-02-27T10:36:53Z</time>
      </trkpt>
      <trkpt lat="45.23103" lon="6.05597">
        <ele>2423</ele>
        <time>2021-02-27T10:36:54Z</time>
      </trkpt>
      <trkpt lat="45.23103" lon="6.05597">
        <ele>2423.4</ele>
        <time>2021-02-27T10:36:55Z</time>
      </trkpt>
      <trkpt lat="45.23103" lon="6.056">
        <ele>2424</ele>
        <time>2021-02-27T10:36:56Z</time>
      </trkpt>
      <trkpt lat="45.23103" lon="6.056">
        <ele>2423.4</ele>
        <time>2021-02-27T10:36:57Z</time>
      </trkpt>
      <trkpt lat="45.23102" lon="6.05603">
        <ele>2424</ele>
        <time>2021-02-27T10:36:58Z</time>
      </trkpt>
      <trkpt lat="45.23102" lon="6.05603">
        <ele>2424</ele>
        <time>2021-02-27T10:36:59Z</time>
      </trkpt>
      <trkpt lat="45.23102" lon="6.05606">
        <ele>2425</ele>
        <time>2021-02-27T10:37:00Z</time>
      </trkpt>
      <trkpt lat="45.23102" lon="6.05606">
        <ele>2425.6</ele>
        <time>2021-02-27T10:37:01Z</time>
      </trkpt>
      <trkpt lat="45.23102" lon="6.05609">
        <ele>2426.6</ele>
        <time>2021-02-27T10:37:02Z</time>
      </trkpt>
      <trkpt lat="45.23102" lon="6.05609">
        <ele>2426.4</ele>
        <time>2021-02-27T10:37:03Z</time>
      </trkpt>
      <trkpt lat="45.23102" lon="6.05613">
        <ele>2426.8</ele>
        <time>2021-02-27T10:37:04Z</time>
      </trkpt>
      <trkpt lat="45.23102" lon="6.05613">
        <ele>2427</ele>
        <time>2021-02-27T10:37:05Z</time>
      </trkpt>
      <trkpt lat="45.23102" lon="6.05616">
        <ele>2427.4</ele>
        <time>2021-02-27T10:37:06Z</time>
      </trkpt>
      <trkpt lat="45.23102" lon="6.05616">
        <ele>2428.2</ele>
        <time>2021-02-27T10:37:07Z</time>
      </trkpt>
      <trkpt lat="45.23102" lon="6.05619">
        <ele>2428.4</ele>
        <time>2021-02-27T10:37:08Z</time>
      </trkpt>
      <trkpt lat="45.23102" lon="6.05619">
        <ele>2429</ele>
        <time>2021-02-27T10:37:09Z</time>
      </trkpt>
      <trkpt lat="45.23102" lon="6.05622">
        <ele>2429.4</ele>
        <time>2021-02-27T10:37:10Z</time>
      </trkpt>
      <trkpt lat="45.23102" lon="6.05622">
        <ele>2430.2</ele>
        <time>2021-02-27T10:37:11Z</time>
      </trkpt>
      <trkpt lat="45.23102" lon="6.05625">
        <ele>2431</ele>
        <time>2021-02-27T10:37:12Z</time>
      </trkpt>
      <trkpt lat="45.23102" lon="6.05625">
        <ele>2431.2</ele>
        <time>2021-02-27T10:37:13Z</time>
      </trkpt>
      <trkpt lat="45.23102" lon="6.05625">
        <ele>2431.6</ele>
        <time>2021-02-27T10:37:14Z</time>
      </trkpt>
      <trkpt lat="45.23101" lon="6.05629">
        <ele>2431</ele>
        <time>2021-02-27T10:37:15Z</time>
      </trkpt>
      <trkpt lat="45.23101" lon="6.05629">
        <ele>2431.4</ele>
        <time>2021-02-27T10:37:16Z</time>
      </trkpt>
      <trkpt lat="45.23102" lon="6.05631">
        <ele>2431.4</ele>
        <time>2021-02-27T10:37:17Z</time>
      </trkpt>
      <trkpt lat="45.23102" lon="6.05631">
        <ele>2432.4</ele>
        <time>2021-02-27T10:37:18Z</time>
      </trkpt>
      <trkpt lat="45.23102" lon="6.05634">
        <ele>2432.8</ele>
        <time>2021-02-27T10:37:19Z</time>
      </trkpt>
      <trkpt lat="45.23102" lon="6.05634">
        <ele>2432.8</ele>
        <time>2021-02-27T10:37:20Z</time>
      </trkpt>
      <trkpt lat="45.23101" lon="6.05637">
        <ele>2432.6</ele>
        <time>2021-02-27T10:37:21Z</time>
      </trkpt>
      <trkpt lat="45.23101" lon="6.05637">
        <ele>2432.6</ele>
        <time>2021-02-27T10:37:22Z</time>
      </trkpt>
      <trkpt lat="45.23101" lon="6.0564">
        <ele>2432.8</ele>
        <time>2021-02-27T10:37:23Z</time>
      </trkpt>
      <trkpt lat="45.23101" lon="6.0564">
        <ele>2433</ele>
        <time>2021-02-27T10:37:24Z</time>
      </trkpt>
      <trkpt lat="45.23101" lon="6.0564">
        <ele>2433.2</ele>
        <time>2021-02-27T10:37:25Z</time>
      </trkpt>
      <trkpt lat="45.23101" lon="6.05643">
        <ele>2433</ele>
        <time>2021-02-27T10:37:26Z</time>
      </trkpt>
      <trkpt lat="45.23101" lon="6.05643">
        <ele>2433.6</ele>
        <time>2021-02-27T10:37:27Z</time>
      </trkpt>
      <trkpt lat="45.231" lon="6.05646">
        <ele>2433.6</ele>
        <time>2021-02-27T10:37:28Z</time>
      </trkpt>
      <trkpt lat="45.231" lon="6.05646">
        <ele>2434</ele>
        <time>2021-02-27T10:37:29Z</time>
      </trkpt>
      <trkpt lat="45.231" lon="6.05646">
        <ele>2433.4</ele>
        <time>2021-02-27T10:37:30Z</time>
      </trkpt>
      <trkpt lat="45.231" lon="6.0565">
        <ele>2433.8</ele>
        <time>2021-02-27T10:37:31Z</time>
      </trkpt>
      <trkpt lat="45.231" lon="6.0565">
        <ele>2434.2</ele>
        <time>2021-02-27T10:37:32Z</time>
      </trkpt>
      <trkpt lat="45.231" lon="6.05653">
        <ele>2434.4</ele>
        <time>2021-02-27T10:37:33Z</time>
      </trkpt>
      <trkpt lat="45.231" lon="6.05653">
        <ele>2434.6</ele>
        <time>2021-02-27T10:37:34Z</time>
      </trkpt>
      <trkpt lat="45.231" lon="6.05657">
        <ele>2434.4</ele>
        <time>2021-02-27T10:37:35Z</time>
      </trkpt>
      <trkpt lat="45.231" lon="6.05657">
        <ele>2435</ele>
        <time>2021-02-27T10:37:36Z</time>
      </trkpt>
      <trkpt lat="45.23101" lon="6.0566">
        <ele>2435</ele>
        <time>2021-02-27T10:37:37Z</time>
      </trkpt>
      <trkpt lat="45.23101" lon="6.0566">
        <ele>2435</ele>
        <time>2021-02-27T10:37:38Z</time>
      </trkpt>
      <trkpt lat="45.23102" lon="6.05663">
        <ele>2435</ele>
        <time>2021-02-27T10:37:39Z</time>
      </trkpt>
      <trkpt lat="45.23102" lon="6.05663">
        <ele>2435.2</ele>
        <time>2021-02-27T10:37:40Z</time>
      </trkpt>
      <trkpt lat="45.23103" lon="6.05666">
        <ele>2435.2</ele>
        <time>2021-02-27T10:37:41Z</time>
      </trkpt>
      <trkpt lat="45.23103" lon="6.05666">
        <ele>2435.2</ele>
        <time>2021-02-27T10:37:42Z</time>
      </trkpt>
      <trkpt lat="45.23103" lon="6.05669">
        <ele>2435.8</ele>
        <time>2021-02-27T10:37:43Z</time>
      </trkpt>
      <trkpt lat="45.23103" lon="6.05669">
        <ele>2435.4</ele>
        <time>2021-02-27T10:37:44Z</time>
      </trkpt>
      <trkpt lat="45.23102" lon="6.05672">
        <ele>2435.2</ele>
        <time>2021-02-27T10:37:45Z</time>
      </trkpt>
      <trkpt lat="45.23102" lon="6.05672">
        <ele>2435.4</ele>
        <time>2021-02-27T10:37:46Z</time>
      </trkpt>
      <trkpt lat="45.23102" lon="6.05675">
        <ele>2436</ele>
        <time>2021-02-27T10:37:47Z</time>
      </trkpt>
      <trkpt lat="45.23102" lon="6.05675">
        <ele>2435.6</ele>
        <time>2021-02-27T10:37:48Z</time>
      </trkpt>
      <trkpt lat="45.23103" lon="6.05676">
        <ele>2435.8</ele>
        <time>2021-02-27T10:37:49Z</time>
      </trkpt>
      <trkpt lat="45.23103" lon="6.05677">
        <ele>2436</ele>
        <time>2021-02-27T10:37:50Z</time>
      </trkpt>
      <trkpt lat="45.23103" lon="6.05677">
        <ele>2436.2</ele>
        <time>2021-02-27T10:37:51Z</time>
      </trkpt>
      <trkpt lat="45.23104" lon="6.05678">
        <ele>2436.4</ele>
        <time>2021-02-27T10:37:52Z</time>
      </trkpt>
      <trkpt lat="45.23104" lon="6.05679">
        <ele>2436.8</ele>
        <time>2021-02-27T10:37:53Z</time>
      </trkpt>
      <trkpt lat="45.23104" lon="6.0568">
        <ele>2437.2</ele>
        <time>2021-02-27T10:37:54Z</time>
      </trkpt>
      <trkpt lat="45.23104" lon="6.05681">
        <ele>2437</ele>
        <time>2021-02-27T10:37:55Z</time>
      </trkpt>
      <trkpt lat="45.23105" lon="6.05681">
        <ele>2437.6</ele>
        <time>2021-02-27T10:37:56Z</time>
      </trkpt>
      <trkpt lat="45.23105" lon="6.05682">
        <ele>2438</ele>
        <time>2021-02-27T10:37:57Z</time>
      </trkpt>
      <trkpt lat="45.23105" lon="6.05683">
        <ele>2438.2</ele>
        <time>2021-02-27T10:37:58Z</time>
      </trkpt>
      <trkpt lat="45.23106" lon="6.05684">
        <ele>2438.4</ele>
        <time>2021-02-27T10:37:59Z</time>
      </trkpt>
      <trkpt lat="45.23106" lon="6.05684">
        <ele>2439.2</ele>
        <time>2021-02-27T10:38:00Z</time>
      </trkpt>
      <trkpt lat="45.23106" lon="6.05686">
        <ele>2440.2</ele>
        <time>2021-02-27T10:38:01Z</time>
      </trkpt>
      <trkpt lat="45.23106" lon="6.05686">
        <ele>2441.6</ele>
        <time>2021-02-27T10:38:02Z</time>
      </trkpt>
      <trkpt lat="45.23104" lon="6.05689">
        <ele>2442.4</ele>
        <time>2021-02-27T10:38:03Z</time>
      </trkpt>
      <trkpt lat="45.23104" lon="6.05689">
        <ele>2443</ele>
        <time>2021-02-27T10:38:04Z</time>
      </trkpt>
      <trkpt lat="45.23104" lon="6.05689">
        <ele>2443.6</ele>
        <time>2021-02-27T10:38:05Z</time>
      </trkpt>
      <trkpt lat="45.23102" lon="6.05692">
        <ele>2444</ele>
        <time>2021-02-27T10:38:06Z</time>
      </trkpt>
      <trkpt lat="45.23102" lon="6.05692">
        <ele>2444.4</ele>
        <time>2021-02-27T10:38:07Z</time>
      </trkpt>
      <trkpt lat="45.23102" lon="6.05692">
        <ele>2442.4</ele>
        <time>2021-02-27T10:38:08Z</time>
      </trkpt>
      <trkpt lat="45.23101" lon="6.05695">
        <ele>2443.6</ele>
        <time>2021-02-27T10:38:09Z</time>
      </trkpt>
      <trkpt lat="45.23101" lon="6.05695">
        <ele>2444.2</ele>
        <time>2021-02-27T10:38:10Z</time>
      </trkpt>
      <trkpt lat="45.23101" lon="6.05695">
        <ele>2443.2</ele>
        <time>2021-02-27T10:38:11Z</time>
      </trkpt>
      <trkpt lat="45.231" lon="6.05698">
        <ele>2444.4</ele>
        <time>2021-02-27T10:38:12Z</time>
      </trkpt>
      <trkpt lat="45.231" lon="6.05698">
        <ele>2445.2</ele>
        <time>2021-02-27T10:38:13Z</time>
      </trkpt>
      <trkpt lat="45.231" lon="6.05698">
        <ele>2445.8</ele>
        <time>2021-02-27T10:38:14Z</time>
      </trkpt>
      <trkpt lat="45.23099" lon="6.05701">
        <ele>2446.2</ele>
        <time>2021-02-27T10:38:15Z</time>
      </trkpt>
      <trkpt lat="45.23099" lon="6.05701">
        <ele>2446.6</ele>
        <time>2021-02-27T10:38:16Z</time>
      </trkpt>
      <trkpt lat="45.23098" lon="6.05704">
        <ele>2446.8</ele>
        <time>2021-02-27T10:38:17Z</time>
      </trkpt>
      <trkpt lat="45.23098" lon="6.05704">
        <ele>2447</ele>
        <time>2021-02-27T10:38:18Z</time>
      </trkpt>
      <trkpt lat="45.23097" lon="6.05707">
        <ele>2446.6</ele>
        <time>2021-02-27T10:38:19Z</time>
      </trkpt>
      <trkpt lat="45.23097" lon="6.05707">
        <ele>2447</ele>
        <time>2021-02-27T10:38:20Z</time>
      </trkpt>
      <trkpt lat="45.23097" lon="6.05707">
        <ele>2447</ele>
        <time>2021-02-27T10:38:21Z</time>
      </trkpt>
      <trkpt lat="45.23096" lon="6.05711">
        <ele>2447.2</ele>
        <time>2021-02-27T10:38:22Z</time>
      </trkpt>
      <trkpt lat="45.23096" lon="6.05711">
        <ele>2447.8</ele>
        <time>2021-02-27T10:38:23Z</time>
      </trkpt>
      <trkpt lat="45.23094" lon="6.05713">
        <ele>2448</ele>
        <time>2021-02-27T10:38:24Z</time>
      </trkpt>
      <trkpt lat="45.23094" lon="6.05713">
        <ele>2447.4</ele>
        <time>2021-02-27T10:38:25Z</time>
      </trkpt>
      <trkpt lat="45.23093" lon="6.05716">
        <ele>2448</ele>
        <time>2021-02-27T10:38:26Z</time>
      </trkpt>
      <trkpt lat="45.23093" lon="6.05716">
        <ele>2448.2</ele>
        <time>2021-02-27T10:38:27Z</time>
      </trkpt>
      <trkpt lat="45.23093" lon="6.05716">
        <ele>2448.2</ele>
        <time>2021-02-27T10:38:28Z</time>
      </trkpt>
      <trkpt lat="45.23093" lon="6.05716">
        <ele>2448.6</ele>
        <time>2021-02-27T10:38:29Z</time>
      </trkpt>
      <trkpt lat="45.23093" lon="6.05716">
        <ele>2448.6</ele>
        <time>2021-02-27T10:38:30Z</time>
      </trkpt>
      <trkpt lat="45.23093" lon="6.05716">
        <ele>2448.6</ele>
        <time>2021-02-27T10:38:31Z</time>
      </trkpt>
      <trkpt lat="45.23094" lon="6.05718">
        <ele>2448.4</ele>
        <time>2021-02-27T10:38:32Z</time>
      </trkpt>
      <trkpt lat="45.23094" lon="6.05718">
        <ele>2447.8</ele>
        <time>2021-02-27T10:38:33Z</time>
      </trkpt>
      <trkpt lat="45.23094" lon="6.05718">
        <ele>2447.8</ele>
        <time>2021-02-27T10:38:34Z</time>
      </trkpt>
      <trkpt lat="45.23096" lon="6.05719">
        <ele>2448</ele>
        <time>2021-02-27T10:38:35Z</time>
      </trkpt>
      <trkpt lat="45.23096" lon="6.05719">
        <ele>2448.4</ele>
        <time>2021-02-27T10:38:36Z</time>
      </trkpt>
      <trkpt lat="45.23096" lon="6.05719">
        <ele>2449</ele>
        <time>2021-02-27T10:38:37Z</time>
      </trkpt>
      <trkpt lat="45.23099" lon="6.05719">
        <ele>2448.8</ele>
        <time>2021-02-27T10:38:38Z</time>
      </trkpt>
      <trkpt lat="45.23099" lon="6.05719">
        <ele>2449</ele>
        <time>2021-02-27T10:38:39Z</time>
      </trkpt>
      <trkpt lat="45.23099" lon="6.05719">
        <ele>2449.8</ele>
        <time>2021-02-27T10:38:40Z</time>
      </trkpt>
      <trkpt lat="45.23101" lon="6.0572">
        <ele>2449.8</ele>
        <time>2021-02-27T10:38:41Z</time>
      </trkpt>
      <trkpt lat="45.23101" lon="6.0572">
        <ele>2450.2</ele>
        <time>2021-02-27T10:38:42Z</time>
      </trkpt>
      <trkpt lat="45.23103" lon="6.05721">
        <ele>2451.2</ele>
        <time>2021-02-27T10:38:43Z</time>
      </trkpt>
      <trkpt lat="45.23103" lon="6.05721">
        <ele>2451.6</ele>
        <time>2021-02-27T10:38:44Z</time>
      </trkpt>
      <trkpt lat="45.23103" lon="6.05721">
        <ele>2451.8</ele>
        <time>2021-02-27T10:38:45Z</time>
      </trkpt>
      <trkpt lat="45.23105" lon="6.05722">
        <ele>2452.4</ele>
        <time>2021-02-27T10:38:46Z</time>
      </trkpt>
      <trkpt lat="45.23105" lon="6.05722">
        <ele>2453.2</ele>
        <time>2021-02-27T10:38:47Z</time>
      </trkpt>
      <trkpt lat="45.23105" lon="6.05722">
        <ele>2453.2</ele>
        <time>2021-02-27T10:38:48Z</time>
      </trkpt>
      <trkpt lat="45.23108" lon="6.05723">
        <ele>2453.6</ele>
        <time>2021-02-27T10:38:49Z</time>
      </trkpt>
      <trkpt lat="45.23108" lon="6.05723">
        <ele>2454</ele>
        <time>2021-02-27T10:38:50Z</time>
      </trkpt>
      <trkpt lat="45.23108" lon="6.05723">
        <ele>2454.4</ele>
        <time>2021-02-27T10:38:51Z</time>
      </trkpt>
      <trkpt lat="45.23109" lon="6.05725">
        <ele>2455.6</ele>
        <time>2021-02-27T10:38:52Z</time>
      </trkpt>
      <trkpt lat="45.23109" lon="6.05725">
        <ele>2456.4</ele>
        <time>2021-02-27T10:38:53Z</time>
      </trkpt>
      <trkpt lat="45.23109" lon="6.05728">
        <ele>2457.6</ele>
        <time>2021-02-27T10:38:54Z</time>
      </trkpt>
      <trkpt lat="45.23109" lon="6.05728">
        <ele>2458.2</ele>
        <time>2021-02-27T10:38:55Z</time>
      </trkpt>
      <trkpt lat="45.23108" lon="6.05731">
        <ele>2456.2</ele>
        <time>2021-02-27T10:38:56Z</time>
      </trkpt>
      <trkpt lat="45.23108" lon="6.05731">
        <ele>2456</ele>
        <time>2021-02-27T10:38:57Z</time>
      </trkpt>
      <trkpt lat="45.23107" lon="6.05734">
        <ele>2455.6</ele>
        <time>2021-02-27T10:38:58Z</time>
      </trkpt>
      <trkpt lat="45.23107" lon="6.05734">
        <ele>2454</ele>
        <time>2021-02-27T10:38:59Z</time>
      </trkpt>
      <trkpt lat="45.23106" lon="6.05736">
        <ele>2454.2</ele>
        <time>2021-02-27T10:39:00Z</time>
      </trkpt>
      <trkpt lat="45.23106" lon="6.05736">
        <ele>2453.6</ele>
        <time>2021-02-27T10:39:01Z</time>
      </trkpt>
      <trkpt lat="45.23106" lon="6.05736">
        <ele>2452.6</ele>
        <time>2021-02-27T10:39:02Z</time>
      </trkpt>
      <trkpt lat="45.23105" lon="6.05739">
        <ele>2452.8</ele>
        <time>2021-02-27T10:39:03Z</time>
      </trkpt>
      <trkpt lat="45.23105" lon="6.05739">
        <ele>2452.6</ele>
        <time>2021-02-27T10:39:04Z</time>
      </trkpt>
      <trkpt lat="45.23104" lon="6.05742">
        <ele>2452.6</ele>
        <time>2021-02-27T10:39:05Z</time>
      </trkpt>
      <trkpt lat="45.23104" lon="6.05742">
        <ele>2453.4</ele>
        <time>2021-02-27T10:39:06Z</time>
      </trkpt>
      <trkpt lat="45.23102" lon="6.05744">
        <ele>2453.6</ele>
        <time>2021-02-27T10:39:07Z</time>
      </trkpt>
      <trkpt lat="45.23102" lon="6.05744">
        <ele>2454.4</ele>
        <time>2021-02-27T10:39:08Z</time>
      </trkpt>
      <trkpt lat="45.23101" lon="6.05747">
        <ele>2455</ele>
        <time>2021-02-27T10:39:09Z</time>
      </trkpt>
      <trkpt lat="45.23101" lon="6.05747">
        <ele>2455.2</ele>
        <time>2021-02-27T10:39:10Z</time>
      </trkpt>
      <trkpt lat="45.23099" lon="6.05748">
        <ele>2455.2</ele>
        <time>2021-02-27T10:39:11Z</time>
      </trkpt>
      <trkpt lat="45.23099" lon="6.05748">
        <ele>2455.6</ele>
        <time>2021-02-27T10:39:12Z</time>
      </trkpt>
      <trkpt lat="45.23099" lon="6.05748">
        <ele>2456</ele>
        <time>2021-02-27T10:39:13Z</time>
      </trkpt>
      <trkpt lat="45.23096" lon="6.05749">
        <ele>2456</ele>
        <time>2021-02-27T10:39:14Z</time>
      </trkpt>
      <trkpt lat="45.23096" lon="6.05749">
        <ele>2456.6</ele>
        <time>2021-02-27T10:39:15Z</time>
      </trkpt>
      <trkpt lat="45.23094" lon="6.0575">
        <ele>2457</ele>
        <time>2021-02-27T10:39:16Z</time>
      </trkpt>
      <trkpt lat="45.23094" lon="6.0575">
        <ele>2457.4</ele>
        <time>2021-02-27T10:39:17Z</time>
      </trkpt>
      <trkpt lat="45.23092" lon="6.05751">
        <ele>2458</ele>
        <time>2021-02-27T10:39:18Z</time>
      </trkpt>
      <trkpt lat="45.23092" lon="6.05751">
        <ele>2458.2</ele>
        <time>2021-02-27T10:39:19Z</time>
      </trkpt>
      <trkpt lat="45.23092" lon="6.05751">
        <ele>2459.2</ele>
        <time>2021-02-27T10:39:20Z</time>
      </trkpt>
      <trkpt lat="45.23089" lon="6.05751">
        <ele>2459.4</ele>
        <time>2021-02-27T10:39:21Z</time>
      </trkpt>
      <trkpt lat="45.23089" lon="6.05751">
        <ele>2459.6</ele>
        <time>2021-02-27T10:39:22Z</time>
      </trkpt>
      <trkpt lat="45.23087" lon="6.05752">
        <ele>2460.2</ele>
        <time>2021-02-27T10:39:23Z</time>
      </trkpt>
      <trkpt lat="45.23087" lon="6.05752">
        <ele>2460.2</ele>
        <time>2021-02-27T10:39:24Z</time>
      </trkpt>
      <trkpt lat="45.23087" lon="6.05752">
        <ele>2460.2</ele>
        <time>2021-02-27T10:39:25Z</time>
      </trkpt>
      <trkpt lat="45.23085" lon="6.05752">
        <ele>2461</ele>
        <time>2021-02-27T10:39:26Z</time>
      </trkpt>
      <trkpt lat="45.23085" lon="6.05752">
        <ele>2461.4</ele>
        <time>2021-02-27T10:39:27Z</time>
      </trkpt>
      <trkpt lat="45.23085" lon="6.05752">
        <ele>2461.6</ele>
        <time>2021-02-27T10:39:28Z</time>
      </trkpt>
      <trkpt lat="45.23082" lon="6.05752">
        <ele>2462.4</ele>
        <time>2021-02-27T10:39:29Z</time>
      </trkpt>
      <trkpt lat="45.23082" lon="6.05752">
        <ele>2462.6</ele>
        <time>2021-02-27T10:39:30Z</time>
      </trkpt>
      <trkpt lat="45.23082" lon="6.05752">
        <ele>2462.4</ele>
        <time>2021-02-27T10:39:31Z</time>
      </trkpt>
      <trkpt lat="45.23082" lon="6.05752">
        <ele>2463</ele>
        <time>2021-02-27T10:39:32Z</time>
      </trkpt>
      <trkpt lat="45.23082" lon="6.05752">
        <ele>2462.8</ele>
        <time>2021-02-27T10:39:33Z</time>
      </trkpt>
      <trkpt lat="45.23082" lon="6.05752">
        <ele>2462.6</ele>
        <time>2021-02-27T10:39:34Z</time>
      </trkpt>
      <trkpt lat="45.23084" lon="6.05754">
        <ele>2463</ele>
        <time>2021-02-27T10:39:35Z</time>
      </trkpt>
      <trkpt lat="45.23084" lon="6.05754">
        <ele>2463.4</ele>
        <time>2021-02-27T10:39:36Z</time>
      </trkpt>
      <trkpt lat="45.23084" lon="6.05754">
        <ele>2463.8</ele>
        <time>2021-02-27T10:39:37Z</time>
      </trkpt>
      <trkpt lat="45.23085" lon="6.05757">
        <ele>2463.6</ele>
        <time>2021-02-27T10:39:38Z</time>
      </trkpt>
      <trkpt lat="45.23085" lon="6.05757">
        <ele>2464.2</ele>
        <time>2021-02-27T10:39:39Z</time>
      </trkpt>
      <trkpt lat="45.23087" lon="6.05759">
        <ele>2464.6</ele>
        <time>2021-02-27T10:39:40Z</time>
      </trkpt>
      <trkpt lat="45.23087" lon="6.05759">
        <ele>2464.6</ele>
        <time>2021-02-27T10:39:41Z</time>
      </trkpt>
      <trkpt lat="45.23088" lon="6.05762">
        <ele>2465</ele>
        <time>2021-02-27T10:39:42Z</time>
      </trkpt>
      <trkpt lat="45.23088" lon="6.05762">
        <ele>2466</ele>
        <time>2021-02-27T10:39:43Z</time>
      </trkpt>
      <trkpt lat="45.23089" lon="6.05764">
        <ele>2466</ele>
        <time>2021-02-27T10:39:44Z</time>
      </trkpt>
      <trkpt lat="45.23089" lon="6.05764">
        <ele>2466.4</ele>
        <time>2021-02-27T10:39:45Z</time>
      </trkpt>
      <trkpt lat="45.23091" lon="6.05767">
        <ele>2466.8</ele>
        <time>2021-02-27T10:39:46Z</time>
      </trkpt>
      <trkpt lat="45.23091" lon="6.05767">
        <ele>2466.8</ele>
        <time>2021-02-27T10:39:47Z</time>
      </trkpt>
      <trkpt lat="45.23092" lon="6.05769">
        <ele>2467</ele>
        <time>2021-02-27T10:39:48Z</time>
      </trkpt>
      <trkpt lat="45.23092" lon="6.05769">
        <ele>2467.4</ele>
        <time>2021-02-27T10:39:49Z</time>
      </trkpt>
      <trkpt lat="45.23093" lon="6.05771">
        <ele>2467.6</ele>
        <time>2021-02-27T10:39:50Z</time>
      </trkpt>
      <trkpt lat="45.23093" lon="6.05771">
        <ele>2468</ele>
        <time>2021-02-27T10:39:51Z</time>
      </trkpt>
      <trkpt lat="45.23095" lon="6.05774">
        <ele>2468</ele>
        <time>2021-02-27T10:39:52Z</time>
      </trkpt>
      <trkpt lat="45.23095" lon="6.05774">
        <ele>2468.2</ele>
        <time>2021-02-27T10:39:53Z</time>
      </trkpt>
      <trkpt lat="45.23095" lon="6.05774">
        <ele>2468.2</ele>
        <time>2021-02-27T10:39:54Z</time>
      </trkpt>
      <trkpt lat="45.23096" lon="6.05776">
        <ele>2468.8</ele>
        <time>2021-02-27T10:39:55Z</time>
      </trkpt>
      <trkpt lat="45.23096" lon="6.05776">
        <ele>2469</ele>
        <time>2021-02-27T10:39:56Z</time>
      </trkpt>
      <trkpt lat="45.23096" lon="6.05776">
        <ele>2468.8</ele>
        <time>2021-02-27T10:39:57Z</time>
      </trkpt>
      <trkpt lat="45.23098" lon="6.05778">
        <ele>2469.2</ele>
        <time>2021-02-27T10:39:58Z</time>
      </trkpt>
      <trkpt lat="45.23098" lon="6.05778">
        <ele>2469.2</ele>
        <time>2021-02-27T10:39:59Z</time>
      </trkpt>
      <trkpt lat="45.23098" lon="6.05778">
        <ele>2468.6</ele>
        <time>2021-02-27T10:40:00Z</time>
      </trkpt>
      <trkpt lat="45.23101" lon="6.0578">
        <ele>2469</ele>
        <time>2021-02-27T10:40:01Z</time>
      </trkpt>
      <trkpt lat="45.23101" lon="6.0578">
        <ele>2469.4</ele>
        <time>2021-02-27T10:40:02Z</time>
      </trkpt>
      <trkpt lat="45.23101" lon="6.0578">
        <ele>2469</ele>
        <time>2021-02-27T10:40:03Z</time>
      </trkpt>
      <trkpt lat="45.23101" lon="6.0578">
        <ele>2469.4</ele>
        <time>2021-02-27T10:40:04Z</time>
      </trkpt>
      <trkpt lat="45.23101" lon="6.0578">
        <ele>2469.8</ele>
        <time>2021-02-27T10:40:05Z</time>
      </trkpt>
      <trkpt lat="45.23103" lon="6.05782">
        <ele>2469.8</ele>
        <time>2021-02-27T10:40:06Z</time>
      </trkpt>
      <trkpt lat="45.23103" lon="6.05782">
        <ele>2470.4</ele>
        <time>2021-02-27T10:40:07Z</time>
      </trkpt>
      <trkpt lat="45.23103" lon="6.05782">
        <ele>2470.8</ele>
        <time>2021-02-27T10:40:08Z</time>
      </trkpt>
      <trkpt lat="45.23105" lon="6.05783">
        <ele>2471.4</ele>
        <time>2021-02-27T10:40:09Z</time>
      </trkpt>
      <trkpt lat="45.23105" lon="6.05783">
        <ele>2471.8</ele>
        <time>2021-02-27T10:40:10Z</time>
      </trkpt>
      <trkpt lat="45.23105" lon="6.05783">
        <ele>2472.2</ele>
        <time>2021-02-27T10:40:11Z</time>
      </trkpt>
      <trkpt lat="45.23103" lon="6.05786">
        <ele>2472</ele>
        <time>2021-02-27T10:40:12Z</time>
      </trkpt>
      <trkpt lat="45.23103" lon="6.05786">
        <ele>2472.2</ele>
        <time>2021-02-27T10:40:13Z</time>
      </trkpt>
      <trkpt lat="45.23103" lon="6.05786">
        <ele>2472.8</ele>
        <time>2021-02-27T10:40:14Z</time>
      </trkpt>
      <trkpt lat="45.23101" lon="6.05787">
        <ele>2473</ele>
        <time>2021-02-27T10:40:15Z</time>
      </trkpt>
      <trkpt lat="45.23101" lon="6.05787">
        <ele>2472.8</ele>
        <time>2021-02-27T10:40:16Z</time>
      </trkpt>
      <trkpt lat="45.23099" lon="6.05789">
        <ele>2473.2</ele>
        <time>2021-02-27T10:40:17Z</time>
      </trkpt>
      <trkpt lat="45.23099" lon="6.05789">
        <ele>2473.2</ele>
        <time>2021-02-27T10:40:18Z</time>
      </trkpt>
      <trkpt lat="45.23096" lon="6.0579">
        <ele>2473</ele>
        <time>2021-02-27T10:40:19Z</time>
      </trkpt>
      <trkpt lat="45.23096" lon="6.0579">
        <ele>2473.4</ele>
        <time>2021-02-27T10:40:20Z</time>
      </trkpt>
      <trkpt lat="45.23094" lon="6.05792">
        <ele>2473.2</ele>
        <time>2021-02-27T10:40:21Z</time>
      </trkpt>
      <trkpt lat="45.23094" lon="6.05792">
        <ele>2473.2</ele>
        <time>2021-02-27T10:40:22Z</time>
      </trkpt>
      <trkpt lat="45.23092" lon="6.05794">
        <ele>2473.4</ele>
        <time>2021-02-27T10:40:23Z</time>
      </trkpt>
      <trkpt lat="45.23092" lon="6.05794">
        <ele>2473</ele>
        <time>2021-02-27T10:40:24Z</time>
      </trkpt>
      <trkpt lat="45.2309" lon="6.05795">
        <ele>2473.2</ele>
        <time>2021-02-27T10:40:25Z</time>
      </trkpt>
      <trkpt lat="45.2309" lon="6.05795">
        <ele>2473.6</ele>
        <time>2021-02-27T10:40:26Z</time>
      </trkpt>
      <trkpt lat="45.23088" lon="6.05795">
        <ele>2473.4</ele>
        <time>2021-02-27T10:40:27Z</time>
      </trkpt>
      <trkpt lat="45.23088" lon="6.05795">
        <ele>2473.6</ele>
        <time>2021-02-27T10:40:28Z</time>
      </trkpt>
      <trkpt lat="45.23085" lon="6.05796">
        <ele>2474</ele>
        <time>2021-02-27T10:40:29Z</time>
      </trkpt>
      <trkpt lat="45.23085" lon="6.05796">
        <ele>2473.6</ele>
        <time>2021-02-27T10:40:30Z</time>
      </trkpt>
      <trkpt lat="45.23083" lon="6.05796">
        <ele>2474</ele>
        <time>2021-02-27T10:40:31Z</time>
      </trkpt>
      <trkpt lat="45.23083" lon="6.05796">
        <ele>2474.4</ele>
        <time>2021-02-27T10:40:32Z</time>
      </trkpt>
      <trkpt lat="45.23081" lon="6.05796">
        <ele>2474.6</ele>
        <time>2021-02-27T10:40:33Z</time>
      </trkpt>
      <trkpt lat="45.23081" lon="6.05796">
        <ele>2475</ele>
        <time>2021-02-27T10:40:34Z</time>
      </trkpt>
      <trkpt lat="45.23079" lon="6.05797">
        <ele>2475.4</ele>
        <time>2021-02-27T10:40:35Z</time>
      </trkpt>
      <trkpt lat="45.23079" lon="6.05797">
        <ele>2475.4</ele>
        <time>2021-02-27T10:40:36Z</time>
      </trkpt>
      <trkpt lat="45.23076" lon="6.05797">
        <ele>2476</ele>
        <time>2021-02-27T10:40:37Z</time>
      </trkpt>
      <trkpt lat="45.23076" lon="6.05797">
        <ele>2476.2</ele>
        <time>2021-02-27T10:40:38Z</time>
      </trkpt>
      <trkpt lat="45.23076" lon="6.05797">
        <ele>2476.4</ele>
        <time>2021-02-27T10:40:39Z</time>
      </trkpt>
      <trkpt lat="45.23076" lon="6.05797">
        <ele>2476.8</ele>
        <time>2021-02-27T10:40:40Z</time>
      </trkpt>
      <trkpt lat="45.23076" lon="6.05797">
        <ele>2477.6</ele>
        <time>2021-02-27T10:40:41Z</time>
      </trkpt>
      <trkpt lat="45.23078" lon="6.058">
        <ele>2477.6</ele>
        <time>2021-02-27T10:40:42Z</time>
      </trkpt>
      <trkpt lat="45.23078" lon="6.058">
        <ele>2477.8</ele>
        <time>2021-02-27T10:40:43Z</time>
      </trkpt>
      <trkpt lat="45.23079" lon="6.05803">
        <ele>2478</ele>
        <time>2021-02-27T10:40:44Z</time>
      </trkpt>
      <trkpt lat="45.23079" lon="6.05803">
        <ele>2478.2</ele>
        <time>2021-02-27T10:40:45Z</time>
      </trkpt>
      <trkpt lat="45.2308" lon="6.05806">
        <ele>2478.4</ele>
        <time>2021-02-27T10:40:46Z</time>
      </trkpt>
      <trkpt lat="45.2308" lon="6.05806">
        <ele>2478.6</ele>
        <time>2021-02-27T10:40:47Z</time>
      </trkpt>
      <trkpt lat="45.2308" lon="6.05806">
        <ele>2479.4</ele>
        <time>2021-02-27T10:40:48Z</time>
      </trkpt>
      <trkpt lat="45.23081" lon="6.05809">
        <ele>2479</ele>
        <time>2021-02-27T10:40:49Z</time>
      </trkpt>
      <trkpt lat="45.23081" lon="6.05809">
        <ele>2479</ele>
        <time>2021-02-27T10:40:50Z</time>
      </trkpt>
      <trkpt lat="45.23081" lon="6.05809">
        <ele>2479.2</ele>
        <time>2021-02-27T10:40:51Z</time>
      </trkpt>
      <trkpt lat="45.23083" lon="6.05812">
        <ele>2479.4</ele>
        <time>2021-02-27T10:40:52Z</time>
      </trkpt>
      <trkpt lat="45.23083" lon="6.05812">
        <ele>2479.6</ele>
        <time>2021-02-27T10:40:53Z</time>
      </trkpt>
      <trkpt lat="45.23084" lon="6.05815">
        <ele>2480.2</ele>
        <time>2021-02-27T10:40:54Z</time>
      </trkpt>
      <trkpt lat="45.23084" lon="6.05815">
        <ele>2480.4</ele>
        <time>2021-02-27T10:40:55Z</time>
      </trkpt>
      <trkpt lat="45.23085" lon="6.05817">
        <ele>2480.8</ele>
        <time>2021-02-27T10:40:56Z</time>
      </trkpt>
      <trkpt lat="45.23085" lon="6.05817">
        <ele>2481</ele>
        <time>2021-02-27T10:40:57Z</time>
      </trkpt>
      <trkpt lat="45.23087" lon="6.05819">
        <ele>2481.6</ele>
        <time>2021-02-27T10:40:58Z</time>
      </trkpt>
      <trkpt lat="45.23087" lon="6.05819">
        <ele>2481.4</ele>
        <time>2021-02-27T10:40:59Z</time>
      </trkpt>
      <trkpt lat="45.23089" lon="6.05821">
        <ele>2481.6</ele>
        <time>2021-02-27T10:41:00Z</time>
      </trkpt>
      <trkpt lat="45.23089" lon="6.05821">
        <ele>2482.2</ele>
        <time>2021-02-27T10:41:01Z</time>
      </trkpt>
      <trkpt lat="45.23091" lon="6.05823">
        <ele>2482.6</ele>
        <time>2021-02-27T10:41:02Z</time>
      </trkpt>
      <trkpt lat="45.23091" lon="6.05823">
        <ele>2483</ele>
        <time>2021-02-27T10:41:03Z</time>
      </trkpt>
      <trkpt lat="45.23092" lon="6.05825">
        <ele>2483</ele>
        <time>2021-02-27T10:41:04Z</time>
      </trkpt>
      <trkpt lat="45.23092" lon="6.05825">
        <ele>2483.4</ele>
        <time>2021-02-27T10:41:05Z</time>
      </trkpt>
      <trkpt lat="45.23094" lon="6.05828">
        <ele>2483.8</ele>
        <time>2021-02-27T10:41:06Z</time>
      </trkpt>
      <trkpt lat="45.23094" lon="6.05828">
        <ele>2484.2</ele>
        <time>2021-02-27T10:41:07Z</time>
      </trkpt>
      <trkpt lat="45.23094" lon="6.05829">
        <ele>2484.4</ele>
        <time>2021-02-27T10:41:08Z</time>
      </trkpt>
      <trkpt lat="45.23094" lon="6.0583">
        <ele>2484.4</ele>
        <time>2021-02-27T10:41:09Z</time>
      </trkpt>
      <trkpt lat="45.23095" lon="6.05831">
        <ele>2484.8</ele>
        <time>2021-02-27T10:41:10Z</time>
      </trkpt>
      <trkpt lat="45.23095" lon="6.05832">
        <ele>2485</ele>
        <time>2021-02-27T10:41:11Z</time>
      </trkpt>
      <trkpt lat="45.23095" lon="6.05832">
        <ele>2485.2</ele>
        <time>2021-02-27T10:41:12Z</time>
      </trkpt>
      <trkpt lat="45.23095" lon="6.05833">
        <ele>2485.4</ele>
        <time>2021-02-27T10:41:13Z</time>
      </trkpt>
      <trkpt lat="45.23095" lon="6.05834">
        <ele>2485.8</ele>
        <time>2021-02-27T10:41:14Z</time>
      </trkpt>
      <trkpt lat="45.23096" lon="6.05835">
        <ele>2486.6</ele>
        <time>2021-02-27T10:41:15Z</time>
      </trkpt>
      <trkpt lat="45.23096" lon="6.05836">
        <ele>2486.6</ele>
        <time>2021-02-27T10:41:16Z</time>
      </trkpt>
      <trkpt lat="45.23094" lon="6.05837">
        <ele>2487.6</ele>
        <time>2021-02-27T10:41:17Z</time>
      </trkpt>
      <trkpt lat="45.23091" lon="6.05837">
        <ele>2488.2</ele>
        <time>2021-02-27T10:41:18Z</time>
      </trkpt>
      <trkpt lat="45.23089" lon="6.05838">
        <ele>2488.6</ele>
        <time>2021-02-27T10:41:19Z</time>
      </trkpt>
      <trkpt lat="45.23089" lon="6.05838">
        <ele>2488.6</ele>
        <time>2021-02-27T10:41:20Z</time>
      </trkpt>
      <trkpt lat="45.23087" lon="6.0584">
        <ele>2489</ele>
        <time>2021-02-27T10:41:21Z</time>
      </trkpt>
      <trkpt lat="45.23087" lon="6.0584">
        <ele>2489</ele>
        <time>2021-02-27T10:41:22Z</time>
      </trkpt>
      <trkpt lat="45.23083" lon="6.05841">
        <ele>2489.4</ele>
        <time>2021-02-27T10:41:23Z</time>
      </trkpt>
      <trkpt lat="45.23083" lon="6.05841">
        <ele>2489.4</ele>
        <time>2021-02-27T10:41:24Z</time>
      </trkpt>
      <trkpt lat="45.23081" lon="6.05844">
        <ele>2489.4</ele>
        <time>2021-02-27T10:41:25Z</time>
      </trkpt>
      <trkpt lat="45.23081" lon="6.05844">
        <ele>2489.2</ele>
        <time>2021-02-27T10:41:26Z</time>
      </trkpt>
      <trkpt lat="45.23079" lon="6.05846">
        <ele>2489.6</ele>
        <time>2021-02-27T10:41:27Z</time>
      </trkpt>
      <trkpt lat="45.23079" lon="6.05846">
        <ele>2489.6</ele>
        <time>2021-02-27T10:41:28Z</time>
      </trkpt>
      <trkpt lat="45.23077" lon="6.05847">
        <ele>2489.8</ele>
        <time>2021-02-27T10:41:29Z</time>
      </trkpt>
      <trkpt lat="45.23077" lon="6.05847">
        <ele>2490.6</ele>
        <time>2021-02-27T10:41:30Z</time>
      </trkpt>
      <trkpt lat="45.23075" lon="6.05848">
        <ele>2490.8</ele>
        <time>2021-02-27T10:41:31Z</time>
      </trkpt>
      <trkpt lat="45.23075" lon="6.05848">
        <ele>2490.8</ele>
        <time>2021-02-27T10:41:32Z</time>
      </trkpt>
      <trkpt lat="45.23075" lon="6.05848">
        <ele>2491.2</ele>
        <time>2021-02-27T10:41:33Z</time>
      </trkpt>
      <trkpt lat="45.23075" lon="6.05848">
        <ele>2491.4</ele>
        <time>2021-02-27T10:41:34Z</time>
      </trkpt>
      <trkpt lat="45.23073" lon="6.0585">
        <ele>2491.8</ele>
        <time>2021-02-27T10:41:35Z</time>
      </trkpt>
      <trkpt lat="45.23073" lon="6.0585">
        <ele>2492.2</ele>
        <time>2021-02-27T10:41:36Z</time>
      </trkpt>
      <trkpt lat="45.2307" lon="6.0585">
        <ele>2492.6</ele>
        <time>2021-02-27T10:41:37Z</time>
      </trkpt>
      <trkpt lat="45.2307" lon="6.0585">
        <ele>2493</ele>
        <time>2021-02-27T10:41:38Z</time>
      </trkpt>
      <trkpt lat="45.23068" lon="6.05851">
        <ele>2493.4</ele>
        <time>2021-02-27T10:41:39Z</time>
      </trkpt>
      <trkpt lat="45.23068" lon="6.05851">
        <ele>2493.2</ele>
        <time>2021-02-27T10:41:40Z</time>
      </trkpt>
      <trkpt lat="45.23066" lon="6.05851">
        <ele>2494</ele>
        <time>2021-02-27T10:41:41Z</time>
      </trkpt>
      <trkpt lat="45.23066" lon="6.05851">
        <ele>2493.8</ele>
        <time>2021-02-27T10:41:42Z</time>
      </trkpt>
      <trkpt lat="45.23066" lon="6.05851">
        <ele>2494</ele>
        <time>2021-02-27T10:41:43Z</time>
      </trkpt>
      <trkpt lat="45.23066" lon="6.05851">
        <ele>2494</ele>
        <time>2021-02-27T10:41:44Z</time>
      </trkpt>
      <trkpt lat="45.23068" lon="6.05852">
        <ele>2494.2</ele>
        <time>2021-02-27T10:41:45Z</time>
      </trkpt>
      <trkpt lat="45.23068" lon="6.05852">
        <ele>2494.4</ele>
        <time>2021-02-27T10:41:46Z</time>
      </trkpt>
      <trkpt lat="45.23068" lon="6.05852">
        <ele>2494.6</ele>
        <time>2021-02-27T10:41:47Z</time>
      </trkpt>
      <trkpt lat="45.23068" lon="6.05852">
        <ele>2494.4</ele>
        <time>2021-02-27T10:41:48Z</time>
      </trkpt>
      <trkpt lat="45.23068" lon="6.05855">
        <ele>2494.8</ele>
        <time>2021-02-27T10:41:49Z</time>
      </trkpt>
      <trkpt lat="45.23068" lon="6.05855">
        <ele>2494.8</ele>
        <time>2021-02-27T10:41:50Z</time>
      </trkpt>
      <trkpt lat="45.23068" lon="6.05855">
        <ele>2495</ele>
        <time>2021-02-27T10:41:51Z</time>
      </trkpt>
      <trkpt lat="45.23068" lon="6.05859">
        <ele>2495.2</ele>
        <time>2021-02-27T10:41:52Z</time>
      </trkpt>
      <trkpt lat="45.23068" lon="6.05859">
        <ele>2495.6</ele>
        <time>2021-02-27T10:41:53Z</time>
      </trkpt>
      <trkpt lat="45.23068" lon="6.05859">
        <ele>2495.8</ele>
        <time>2021-02-27T10:41:54Z</time>
      </trkpt>
      <trkpt lat="45.23069" lon="6.05861">
        <ele>2496.2</ele>
        <time>2021-02-27T10:41:55Z</time>
      </trkpt>
      <trkpt lat="45.23069" lon="6.05861">
        <ele>2496.2</ele>
        <time>2021-02-27T10:41:56Z</time>
      </trkpt>
      <trkpt lat="45.23069" lon="6.05861">
        <ele>2496.4</ele>
        <time>2021-02-27T10:41:57Z</time>
      </trkpt>
      <trkpt lat="45.2307" lon="6.05864">
        <ele>2496.4</ele>
        <time>2021-02-27T10:41:58Z</time>
      </trkpt>
      <trkpt lat="45.2307" lon="6.05864">
        <ele>2496.6</ele>
        <time>2021-02-27T10:41:59Z</time>
      </trkpt>
      <trkpt lat="45.2307" lon="6.05864">
        <ele>2496.8</ele>
        <time>2021-02-27T10:42:00Z</time>
      </trkpt>
      <trkpt lat="45.2307" lon="6.05867">
        <ele>2497</ele>
        <time>2021-02-27T10:42:01Z</time>
      </trkpt>
      <trkpt lat="45.2307" lon="6.05867">
        <ele>2497</ele>
        <time>2021-02-27T10:42:02Z</time>
      </trkpt>
      <trkpt lat="45.23071" lon="6.05869">
        <ele>2497.2</ele>
        <time>2021-02-27T10:42:03Z</time>
      </trkpt>
      <trkpt lat="45.23071" lon="6.05869">
        <ele>2497.6</ele>
        <time>2021-02-27T10:42:04Z</time>
      </trkpt>
      <trkpt lat="45.23072" lon="6.05872">
        <ele>2497.8</ele>
        <time>2021-02-27T10:42:05Z</time>
      </trkpt>
      <trkpt lat="45.23072" lon="6.05872">
        <ele>2497.8</ele>
        <time>2021-02-27T10:42:06Z</time>
      </trkpt>
      <trkpt lat="45.23073" lon="6.05874">
        <ele>2498.4</ele>
        <time>2021-02-27T10:42:07Z</time>
      </trkpt>
      <trkpt lat="45.23073" lon="6.05874">
        <ele>2498.6</ele>
        <time>2021-02-27T10:42:08Z</time>
      </trkpt>
      <trkpt lat="45.23073" lon="6.05874">
        <ele>2499</ele>
        <time>2021-02-27T10:42:09Z</time>
      </trkpt>
      <trkpt lat="45.23074" lon="6.05878">
        <ele>2499</ele>
        <time>2021-02-27T10:42:10Z</time>
      </trkpt>
      <trkpt lat="45.23074" lon="6.05878">
        <ele>2499.2</ele>
        <time>2021-02-27T10:42:11Z</time>
      </trkpt>
      <trkpt lat="45.23075" lon="6.05881">
        <ele>2499.2</ele>
        <time>2021-02-27T10:42:12Z</time>
      </trkpt>
      <trkpt lat="45.23075" lon="6.05881">
        <ele>2499.4</ele>
        <time>2021-02-27T10:42:13Z</time>
      </trkpt>
      <trkpt lat="45.23076" lon="6.05884">
        <ele>2499.8</ele>
        <time>2021-02-27T10:42:14Z</time>
      </trkpt>
      <trkpt lat="45.23076" lon="6.05884">
        <ele>2500.4</ele>
        <time>2021-02-27T10:42:15Z</time>
      </trkpt>
      <trkpt lat="45.23077" lon="6.05886">
        <ele>2500.8</ele>
        <time>2021-02-27T10:42:16Z</time>
      </trkpt>
      <trkpt lat="45.23077" lon="6.05886">
        <ele>2501</ele>
        <time>2021-02-27T10:42:17Z</time>
      </trkpt>
      <trkpt lat="45.23078" lon="6.05889">
        <ele>2501.2</ele>
        <time>2021-02-27T10:42:18Z</time>
      </trkpt>
      <trkpt lat="45.23078" lon="6.05889">
        <ele>2502</ele>
        <time>2021-02-27T10:42:19Z</time>
      </trkpt>
      <trkpt lat="45.23078" lon="6.05889">
        <ele>2502.2</ele>
        <time>2021-02-27T10:42:20Z</time>
      </trkpt>
      <trkpt lat="45.2308" lon="6.05892">
        <ele>2502.4</ele>
        <time>2021-02-27T10:42:21Z</time>
      </trkpt>
      <trkpt lat="45.2308" lon="6.05892">
        <ele>2502.8</ele>
        <time>2021-02-27T10:42:22Z</time>
      </trkpt>
      <trkpt lat="45.23081" lon="6.05895">
        <ele>2502.6</ele>
        <time>2021-02-27T10:42:23Z</time>
      </trkpt>
      <trkpt lat="45.23081" lon="6.05895">
        <ele>2503.4</ele>
        <time>2021-02-27T10:42:24Z</time>
      </trkpt>
      <trkpt lat="45.23082" lon="6.05898">
        <ele>2504.2</ele>
        <time>2021-02-27T10:42:25Z</time>
      </trkpt>
      <trkpt lat="45.23082" lon="6.05898">
        <ele>2504.8</ele>
        <time>2021-02-27T10:42:26Z</time>
      </trkpt>
      <trkpt lat="45.23083" lon="6.05901">
        <ele>2504.8</ele>
        <time>2021-02-27T10:42:27Z</time>
      </trkpt>
      <trkpt lat="45.23083" lon="6.05901">
        <ele>2505</ele>
        <time>2021-02-27T10:42:28Z</time>
      </trkpt>
      <trkpt lat="45.23083" lon="6.05901">
        <ele>2505.8</ele>
        <time>2021-02-27T10:42:29Z</time>
      </trkpt>
      <trkpt lat="45.23085" lon="6.05904">
        <ele>2507.8</ele>
        <time>2021-02-27T10:42:30Z</time>
      </trkpt>
      <trkpt lat="45.23085" lon="6.05904">
        <ele>2507.6</ele>
        <time>2021-02-27T10:42:31Z</time>
      </trkpt>
      <trkpt lat="45.23085" lon="6.05907">
        <ele>2507.8</ele>
        <time>2021-02-27T10:42:32Z</time>
      </trkpt>
      <trkpt lat="45.23085" lon="6.05907">
        <ele>2508.2</ele>
        <time>2021-02-27T10:42:33Z</time>
      </trkpt>
      <trkpt lat="45.23082" lon="6.05907">
        <ele>2509</ele>
        <time>2021-02-27T10:42:34Z</time>
      </trkpt>
      <trkpt lat="45.23082" lon="6.05907">
        <ele>2508.2</ele>
        <time>2021-02-27T10:42:35Z</time>
      </trkpt>
      <trkpt lat="45.2308" lon="6.05908">
        <ele>2509</ele>
        <time>2021-02-27T10:42:36Z</time>
      </trkpt>
      <trkpt lat="45.2308" lon="6.05908">
        <ele>2508.4</ele>
        <time>2021-02-27T10:42:37Z</time>
      </trkpt>
      <trkpt lat="45.2308" lon="6.05908">
        <ele>2508</ele>
        <time>2021-02-27T10:42:38Z</time>
      </trkpt>
      <trkpt lat="45.23077" lon="6.05909">
        <ele>2508.4</ele>
        <time>2021-02-27T10:42:39Z</time>
      </trkpt>
      <trkpt lat="45.23077" lon="6.05909">
        <ele>2508.6</ele>
        <time>2021-02-27T10:42:40Z</time>
      </trkpt>
      <trkpt lat="45.23074" lon="6.05911">
        <ele>2507.4</ele>
        <time>2021-02-27T10:42:41Z</time>
      </trkpt>
      <trkpt lat="45.23074" lon="6.05911">
        <ele>2507.4</ele>
        <time>2021-02-27T10:42:42Z</time>
      </trkpt>
      <trkpt lat="45.23074" lon="6.05911">
        <ele>2507.4</ele>
        <time>2021-02-27T10:42:43Z</time>
      </trkpt>
      <trkpt lat="45.23071" lon="6.05912">
        <ele>2507.6</ele>
        <time>2021-02-27T10:42:44Z</time>
      </trkpt>
      <trkpt lat="45.23071" lon="6.05912">
        <ele>2507.4</ele>
        <time>2021-02-27T10:42:45Z</time>
      </trkpt>
      <trkpt lat="45.23069" lon="6.05911">
        <ele>2507.6</ele>
        <time>2021-02-27T10:42:46Z</time>
      </trkpt>
      <trkpt lat="45.23068" lon="6.05911">
        <ele>2508.4</ele>
        <time>2021-02-27T10:42:47Z</time>
      </trkpt>
      <trkpt lat="45.23066" lon="6.05911">
        <ele>2509</ele>
        <time>2021-02-27T10:42:48Z</time>
      </trkpt>
      <trkpt lat="45.23065" lon="6.0591">
        <ele>2508.4</ele>
        <time>2021-02-27T10:42:49Z</time>
      </trkpt>
      <trkpt lat="45.23062" lon="6.0591">
        <ele>2507.4</ele>
        <time>2021-02-27T10:42:50Z</time>
      </trkpt>
      <trkpt lat="45.2306" lon="6.05909">
        <ele>2507.8</ele>
        <time>2021-02-27T10:42:51Z</time>
      </trkpt>
      <trkpt lat="45.2306" lon="6.05909">
        <ele>2508.2</ele>
        <time>2021-02-27T10:42:52Z</time>
      </trkpt>
      <trkpt lat="45.23058" lon="6.05908">
        <ele>2507.8</ele>
        <time>2021-02-27T10:42:53Z</time>
      </trkpt>
      <trkpt lat="45.23058" lon="6.05908">
        <ele>2508</ele>
        <time>2021-02-27T10:42:54Z</time>
      </trkpt>
      <trkpt lat="45.23056" lon="6.05906">
        <ele>2507.2</ele>
        <time>2021-02-27T10:42:55Z</time>
      </trkpt>
      <trkpt lat="45.23056" lon="6.05906">
        <ele>2507.4</ele>
        <time>2021-02-27T10:42:56Z</time>
      </trkpt>
      <trkpt lat="45.23054" lon="6.05904">
        <ele>2507.8</ele>
        <time>2021-02-27T10:42:57Z</time>
      </trkpt>
      <trkpt lat="45.23054" lon="6.05904">
        <ele>2507.6</ele>
        <time>2021-02-27T10:42:58Z</time>
      </trkpt>
      <trkpt lat="45.23054" lon="6.05904">
        <ele>2508.2</ele>
        <time>2021-02-27T10:42:59Z</time>
      </trkpt>
      <trkpt lat="45.23052" lon="6.05903">
        <ele>2508.4</ele>
        <time>2021-02-27T10:43:00Z</time>
      </trkpt>
      <trkpt lat="45.23052" lon="6.05903">
        <ele>2508</ele>
        <time>2021-02-27T10:43:01Z</time>
      </trkpt>
      <trkpt lat="45.2305" lon="6.05901">
        <ele>2508.4</ele>
        <time>2021-02-27T10:43:02Z</time>
      </trkpt>
      <trkpt lat="45.2305" lon="6.05901">
        <ele>2508.4</ele>
        <time>2021-02-27T10:43:03Z</time>
      </trkpt>
      <trkpt lat="45.2305" lon="6.05901">
        <ele>2508.8</ele>
        <time>2021-02-27T10:43:04Z</time>
      </trkpt>
      <trkpt lat="45.23048" lon="6.059">
        <ele>2509.2</ele>
        <time>2021-02-27T10:43:05Z</time>
      </trkpt>
      <trkpt lat="45.23048" lon="6.059">
        <ele>2509.2</ele>
        <time>2021-02-27T10:43:06Z</time>
      </trkpt>
      <trkpt lat="45.23048" lon="6.059">
        <ele>2509.4</ele>
        <time>2021-02-27T10:43:07Z</time>
      </trkpt>
      <trkpt lat="45.23048" lon="6.059">
        <ele>2509.4</ele>
        <time>2021-02-27T10:43:08Z</time>
      </trkpt>
      <trkpt lat="45.23048" lon="6.059">
        <ele>2510</ele>
        <time>2021-02-27T10:43:09Z</time>
      </trkpt>
      <trkpt lat="45.23048" lon="6.059">
        <ele>2510</ele>
        <time>2021-02-27T10:43:10Z</time>
      </trkpt>
      <trkpt lat="45.23048" lon="6.059">
        <ele>2510</ele>
        <time>2021-02-27T10:43:11Z</time>
      </trkpt>
      <trkpt lat="45.2305" lon="6.05903">
        <ele>2510.2</ele>
        <time>2021-02-27T10:43:12Z</time>
      </trkpt>
      <trkpt lat="45.2305" lon="6.05903">
        <ele>2510</ele>
        <time>2021-02-27T10:43:13Z</time>
      </trkpt>
      <trkpt lat="45.2305" lon="6.05904">
        <ele>2510.6</ele>
        <time>2021-02-27T10:43:14Z</time>
      </trkpt>
      <trkpt lat="45.23051" lon="6.05906">
        <ele>2510.8</ele>
        <time>2021-02-27T10:43:15Z</time>
      </trkpt>
      <trkpt lat="45.23051" lon="6.05907">
        <ele>2511.2</ele>
        <time>2021-02-27T10:43:16Z</time>
      </trkpt>
      <trkpt lat="45.23051" lon="6.05908">
        <ele>2511.2</ele>
        <time>2021-02-27T10:43:17Z</time>
      </trkpt>
      <trkpt lat="45.23052" lon="6.05909">
        <ele>2511.4</ele>
        <time>2021-02-27T10:43:18Z</time>
      </trkpt>
      <trkpt lat="45.23052" lon="6.0591">
        <ele>2511.8</ele>
        <time>2021-02-27T10:43:19Z</time>
      </trkpt>
      <trkpt lat="45.23052" lon="6.05911">
        <ele>2512.4</ele>
        <time>2021-02-27T10:43:20Z</time>
      </trkpt>
      <trkpt lat="45.23053" lon="6.05913">
        <ele>2513</ele>
        <time>2021-02-27T10:43:21Z</time>
      </trkpt>
      <trkpt lat="45.23053" lon="6.05914">
        <ele>2513.8</ele>
        <time>2021-02-27T10:43:22Z</time>
      </trkpt>
      <trkpt lat="45.23054" lon="6.05915">
        <ele>2514</ele>
        <time>2021-02-27T10:43:23Z</time>
      </trkpt>
      <trkpt lat="45.23055" lon="6.05918">
        <ele>2514.6</ele>
        <time>2021-02-27T10:43:24Z</time>
      </trkpt>
      <trkpt lat="45.23055" lon="6.05918">
        <ele>2515.4</ele>
        <time>2021-02-27T10:43:25Z</time>
      </trkpt>
      <trkpt lat="45.23055" lon="6.05918">
        <ele>2516</ele>
        <time>2021-02-27T10:43:26Z</time>
      </trkpt>
      <trkpt lat="45.23056" lon="6.05921">
        <ele>2516.4</ele>
        <time>2021-02-27T10:43:27Z</time>
      </trkpt>
      <trkpt lat="45.23056" lon="6.05921">
        <ele>2516.8</ele>
        <time>2021-02-27T10:43:28Z</time>
      </trkpt>
      <trkpt lat="45.23056" lon="6.05921">
        <ele>2517.4</ele>
        <time>2021-02-27T10:43:29Z</time>
      </trkpt>
      <trkpt lat="45.23056" lon="6.05923">
        <ele>2517.6</ele>
        <time>2021-02-27T10:43:30Z</time>
      </trkpt>
      <trkpt lat="45.23056" lon="6.05923">
        <ele>2518</ele>
        <time>2021-02-27T10:43:31Z</time>
      </trkpt>
      <trkpt lat="45.23058" lon="6.05925">
        <ele>2518.8</ele>
        <time>2021-02-27T10:43:32Z</time>
      </trkpt>
      <trkpt lat="45.23058" lon="6.05925">
        <ele>2518.8</ele>
        <time>2021-02-27T10:43:33Z</time>
      </trkpt>
      <trkpt lat="45.2306" lon="6.05927">
        <ele>2518.6</ele>
        <time>2021-02-27T10:43:34Z</time>
      </trkpt>
      <trkpt lat="45.2306" lon="6.05927">
        <ele>2518.8</ele>
        <time>2021-02-27T10:43:35Z</time>
      </trkpt>
      <trkpt lat="45.2306" lon="6.05927">
        <ele>2519.2</ele>
        <time>2021-02-27T10:43:36Z</time>
      </trkpt>
      <trkpt lat="45.2306" lon="6.05927">
        <ele>2519.4</ele>
        <time>2021-02-27T10:43:37Z</time>
      </trkpt>
      <trkpt lat="45.23061" lon="6.05929">
        <ele>2519.8</ele>
        <time>2021-02-27T10:43:38Z</time>
      </trkpt>
      <trkpt lat="45.23061" lon="6.05929">
        <ele>2520</ele>
        <time>2021-02-27T10:43:39Z</time>
      </trkpt>
      <trkpt lat="45.23061" lon="6.05929">
        <ele>2520.6</ele>
        <time>2021-02-27T10:43:40Z</time>
      </trkpt>
      <trkpt lat="45.23061" lon="6.05929">
        <ele>2521.4</ele>
        <time>2021-02-27T10:43:41Z</time>
      </trkpt>
      <trkpt lat="45.23061" lon="6.05929">
        <ele>2522</ele>
        <time>2021-02-27T10:43:42Z</time>
      </trkpt>
      <trkpt lat="45.23061" lon="6.05929">
        <ele>2522.6</ele>
        <time>2021-02-27T10:43:43Z</time>
      </trkpt>
      <trkpt lat="45.23059" lon="6.05931">
        <ele>2522.8</ele>
        <time>2021-02-27T10:43:44Z</time>
      </trkpt>
      <trkpt lat="45.23058" lon="6.05931">
        <ele>2523.4</ele>
        <time>2021-02-27T10:43:45Z</time>
      </trkpt>
      <trkpt lat="45.23058" lon="6.05931">
        <ele>2523.4</ele>
        <time>2021-02-27T10:43:46Z</time>
      </trkpt>
      <trkpt lat="45.23056" lon="6.05932">
        <ele>2523.4</ele>
        <time>2021-02-27T10:43:47Z</time>
      </trkpt>
      <trkpt lat="45.23056" lon="6.05932">
        <ele>2524.2</ele>
        <time>2021-02-27T10:43:48Z</time>
      </trkpt>
      <trkpt lat="45.23053" lon="6.05932">
        <ele>2524</ele>
        <time>2021-02-27T10:43:49Z</time>
      </trkpt>
      <trkpt lat="45.23053" lon="6.05932">
        <ele>2524</ele>
        <time>2021-02-27T10:43:50Z</time>
      </trkpt>
      <trkpt lat="45.23051" lon="6.05931">
        <ele>2524.4</ele>
        <time>2021-02-27T10:43:51Z</time>
      </trkpt>
      <trkpt lat="45.23051" lon="6.05931">
        <ele>2524.6</ele>
        <time>2021-02-27T10:43:52Z</time>
      </trkpt>
      <trkpt lat="45.23048" lon="6.05931">
        <ele>2524.6</ele>
        <time>2021-02-27T10:43:53Z</time>
      </trkpt>
      <trkpt lat="45.23048" lon="6.05931">
        <ele>2524.8</ele>
        <time>2021-02-27T10:43:54Z</time>
      </trkpt>
      <trkpt lat="45.23048" lon="6.05931">
        <ele>2524.4</ele>
        <time>2021-02-27T10:43:55Z</time>
      </trkpt>
      <trkpt lat="45.23048" lon="6.05931">
        <ele>2525</ele>
        <time>2021-02-27T10:43:56Z</time>
      </trkpt>
      <trkpt lat="45.23045" lon="6.05931">
        <ele>2525</ele>
        <time>2021-02-27T10:43:57Z</time>
      </trkpt>
      <trkpt lat="45.23045" lon="6.05931">
        <ele>2525</ele>
        <time>2021-02-27T10:43:58Z</time>
      </trkpt>
      <trkpt lat="45.23045" lon="6.05931">
        <ele>2525</ele>
        <time>2021-02-27T10:43:59Z</time>
      </trkpt>
      <trkpt lat="45.23043" lon="6.05929">
        <ele>2525.2</ele>
        <time>2021-02-27T10:44:00Z</time>
      </trkpt>
      <trkpt lat="45.23043" lon="6.05929">
        <ele>2525.4</ele>
        <time>2021-02-27T10:44:01Z</time>
      </trkpt>
      <trkpt lat="45.23043" lon="6.05929">
        <ele>2525.6</ele>
        <time>2021-02-27T10:44:02Z</time>
      </trkpt>
      <trkpt lat="45.23041" lon="6.05928">
        <ele>2525.8</ele>
        <time>2021-02-27T10:44:03Z</time>
      </trkpt>
      <trkpt lat="45.23041" lon="6.05928">
        <ele>2526.4</ele>
        <time>2021-02-27T10:44:04Z</time>
      </trkpt>
      <trkpt lat="45.23039" lon="6.05927">
        <ele>2526</ele>
        <time>2021-02-27T10:44:05Z</time>
      </trkpt>
      <trkpt lat="45.23039" lon="6.05927">
        <ele>2526</ele>
        <time>2021-02-27T10:44:06Z</time>
      </trkpt>
      <trkpt lat="45.23039" lon="6.05927">
        <ele>2527.2</ele>
        <time>2021-02-27T10:44:07Z</time>
      </trkpt>
      <trkpt lat="45.23039" lon="6.05927">
        <ele>2528</ele>
        <time>2021-02-27T10:44:08Z</time>
      </trkpt>
      <trkpt lat="45.23038" lon="6.05925">
        <ele>2528.2</ele>
        <time>2021-02-27T10:44:09Z</time>
      </trkpt>
      <trkpt lat="45.23038" lon="6.05925">
        <ele>2528.4</ele>
        <time>2021-02-27T10:44:10Z</time>
      </trkpt>
      <trkpt lat="45.23038" lon="6.05925">
        <ele>2529</ele>
        <time>2021-02-27T10:44:11Z</time>
      </trkpt>
      <trkpt lat="45.23038" lon="6.05925">
        <ele>2529.4</ele>
        <time>2021-02-27T10:44:12Z</time>
      </trkpt>
      <trkpt lat="45.23038" lon="6.05925">
        <ele>2529.6</ele>
        <time>2021-02-27T10:44:13Z</time>
      </trkpt>
      <trkpt lat="45.23039" lon="6.05927">
        <ele>2529.4</ele>
        <time>2021-02-27T10:44:14Z</time>
      </trkpt>
      <trkpt lat="45.23039" lon="6.05927">
        <ele>2529.4</ele>
        <time>2021-02-27T10:44:15Z</time>
      </trkpt>
      <trkpt lat="45.23041" lon="6.0593">
        <ele>2529.2</ele>
        <time>2021-02-27T10:44:16Z</time>
      </trkpt>
      <trkpt lat="45.23041" lon="6.0593">
        <ele>2529.2</ele>
        <time>2021-02-27T10:44:17Z</time>
      </trkpt>
      <trkpt lat="45.23043" lon="6.05932">
        <ele>2529.2</ele>
        <time>2021-02-27T10:44:18Z</time>
      </trkpt>
      <trkpt lat="45.23043" lon="6.05932">
        <ele>2529.2</ele>
        <time>2021-02-27T10:44:19Z</time>
      </trkpt>
      <trkpt lat="45.23044" lon="6.05935">
        <ele>2529.2</ele>
        <time>2021-02-27T10:44:20Z</time>
      </trkpt>
      <trkpt lat="45.23044" lon="6.05935">
        <ele>2529.4</ele>
        <time>2021-02-27T10:44:21Z</time>
      </trkpt>
      <trkpt lat="45.23045" lon="6.05937">
        <ele>2529.4</ele>
        <time>2021-02-27T10:44:22Z</time>
      </trkpt>
      <trkpt lat="45.23045" lon="6.05937">
        <ele>2529.8</ele>
        <time>2021-02-27T10:44:23Z</time>
      </trkpt>
      <trkpt lat="45.23045" lon="6.05937">
        <ele>2530.2</ele>
        <time>2021-02-27T10:44:24Z</time>
      </trkpt>
      <trkpt lat="45.23046" lon="6.0594">
        <ele>2530.6</ele>
        <time>2021-02-27T10:44:25Z</time>
      </trkpt>
      <trkpt lat="45.23046" lon="6.0594">
        <ele>2530.6</ele>
        <time>2021-02-27T10:44:26Z</time>
      </trkpt>
      <trkpt lat="45.23046" lon="6.0594">
        <ele>2530.8</ele>
        <time>2021-02-27T10:44:27Z</time>
      </trkpt>
      <trkpt lat="45.23046" lon="6.0594">
        <ele>2531</ele>
        <time>2021-02-27T10:44:28Z</time>
      </trkpt>
      <trkpt lat="45.23048" lon="6.05943">
        <ele>2531.2</ele>
        <time>2021-02-27T10:44:29Z</time>
      </trkpt>
      <trkpt lat="45.23048" lon="6.05943">
        <ele>2531.6</ele>
        <time>2021-02-27T10:44:30Z</time>
      </trkpt>
      <trkpt lat="45.23049" lon="6.05945">
        <ele>2531.8</ele>
        <time>2021-02-27T10:44:31Z</time>
      </trkpt>
      <trkpt lat="45.23049" lon="6.05945">
        <ele>2531.6</ele>
        <time>2021-02-27T10:44:32Z</time>
      </trkpt>
      <trkpt lat="45.23049" lon="6.05945">
        <ele>2532</ele>
        <time>2021-02-27T10:44:33Z</time>
      </trkpt>
      <trkpt lat="45.23051" lon="6.05947">
        <ele>2532.4</ele>
        <time>2021-02-27T10:44:34Z</time>
      </trkpt>
      <trkpt lat="45.23051" lon="6.05947">
        <ele>2533</ele>
        <time>2021-02-27T10:44:35Z</time>
      </trkpt>
      <trkpt lat="45.23051" lon="6.05947">
        <ele>2533.4</ele>
        <time>2021-02-27T10:44:36Z</time>
      </trkpt>
      <trkpt lat="45.23052" lon="6.05949">
        <ele>2534</ele>
        <time>2021-02-27T10:44:37Z</time>
      </trkpt>
      <trkpt lat="45.23052" lon="6.05949">
        <ele>2534</ele>
        <time>2021-02-27T10:44:38Z</time>
      </trkpt>
      <trkpt lat="45.23052" lon="6.05949">
        <ele>2533.6</ele>
        <time>2021-02-27T10:44:39Z</time>
      </trkpt>
      <trkpt lat="45.23052" lon="6.05949">
        <ele>2533.4</ele>
        <time>2021-02-27T10:44:40Z</time>
      </trkpt>
      <trkpt lat="45.2305" lon="6.0595">
        <ele>2533.4</ele>
        <time>2021-02-27T10:44:41Z</time>
      </trkpt>
      <trkpt lat="45.2305" lon="6.0595">
        <ele>2532.6</ele>
        <time>2021-02-27T10:44:42Z</time>
      </trkpt>
      <trkpt lat="45.23048" lon="6.0595">
        <ele>2532.2</ele>
        <time>2021-02-27T10:44:43Z</time>
      </trkpt>
      <trkpt lat="45.23048" lon="6.0595">
        <ele>2532.8</ele>
        <time>2021-02-27T10:44:44Z</time>
      </trkpt>
      <trkpt lat="45.23048" lon="6.0595">
        <ele>2531.6</ele>
        <time>2021-02-27T10:44:45Z</time>
      </trkpt>
      <trkpt lat="45.23046" lon="6.0595">
        <ele>2531.6</ele>
        <time>2021-02-27T10:44:46Z</time>
      </trkpt>
      <trkpt lat="45.23046" lon="6.0595">
        <ele>2531.6</ele>
        <time>2021-02-27T10:44:47Z</time>
      </trkpt>
      <trkpt lat="45.23044" lon="6.05949">
        <ele>2531.6</ele>
        <time>2021-02-27T10:44:48Z</time>
      </trkpt>
      <trkpt lat="45.23044" lon="6.05949">
        <ele>2531.4</ele>
        <time>2021-02-27T10:44:49Z</time>
      </trkpt>
      <trkpt lat="45.23042" lon="6.05948">
        <ele>2531.8</ele>
        <time>2021-02-27T10:44:50Z</time>
      </trkpt>
      <trkpt lat="45.23042" lon="6.05948">
        <ele>2531.6</ele>
        <time>2021-02-27T10:44:51Z</time>
      </trkpt>
      <trkpt lat="45.23042" lon="6.05948">
        <ele>2532.2</ele>
        <time>2021-02-27T10:44:52Z</time>
      </trkpt>
      <trkpt lat="45.2304" lon="6.05947">
        <ele>2532.8</ele>
        <time>2021-02-27T10:44:53Z</time>
      </trkpt>
      <trkpt lat="45.2304" lon="6.05947">
        <ele>2532.6</ele>
        <time>2021-02-27T10:44:54Z</time>
      </trkpt>
      <trkpt lat="45.2304" lon="6.05947">
        <ele>2532.8</ele>
        <time>2021-02-27T10:44:55Z</time>
      </trkpt>
      <trkpt lat="45.23037" lon="6.05946">
        <ele>2533.2</ele>
        <time>2021-02-27T10:44:56Z</time>
      </trkpt>
      <trkpt lat="45.23037" lon="6.05946">
        <ele>2533.6</ele>
        <time>2021-02-27T10:44:57Z</time>
      </trkpt>
      <trkpt lat="45.23037" lon="6.05946">
        <ele>2533.8</ele>
        <time>2021-02-27T10:44:58Z</time>
      </trkpt>
      <trkpt lat="45.23036" lon="6.05945">
        <ele>2534.4</ele>
        <time>2021-02-27T10:44:59Z</time>
      </trkpt>
      <trkpt lat="45.23036" lon="6.05945">
        <ele>2534.4</ele>
        <time>2021-02-27T10:45:00Z</time>
      </trkpt>
      <trkpt lat="45.23036" lon="6.05945">
        <ele>2534.4</ele>
        <time>2021-02-27T10:45:01Z</time>
      </trkpt>
      <trkpt lat="45.23036" lon="6.05945">
        <ele>2534.6</ele>
        <time>2021-02-27T10:45:02Z</time>
      </trkpt>
      <trkpt lat="45.23036" lon="6.05945">
        <ele>2534.6</ele>
        <time>2021-02-27T10:45:03Z</time>
      </trkpt>
      <trkpt lat="45.23037" lon="6.05948">
        <ele>2534.6</ele>
        <time>2021-02-27T10:45:04Z</time>
      </trkpt>
      <trkpt lat="45.23037" lon="6.05948">
        <ele>2534.2</ele>
        <time>2021-02-27T10:45:05Z</time>
      </trkpt>
      <trkpt lat="45.23038" lon="6.0595">
        <ele>2534</ele>
        <time>2021-02-27T10:45:06Z</time>
      </trkpt>
      <trkpt lat="45.23038" lon="6.0595">
        <ele>2534.2</ele>
        <time>2021-02-27T10:45:07Z</time>
      </trkpt>
      <trkpt lat="45.2304" lon="6.05952">
        <ele>2534.4</ele>
        <time>2021-02-27T10:45:08Z</time>
      </trkpt>
      <trkpt lat="45.2304" lon="6.05952">
        <ele>2534.8</ele>
        <time>2021-02-27T10:45:09Z</time>
      </trkpt>
      <trkpt lat="45.2304" lon="6.05952">
        <ele>2535</ele>
        <time>2021-02-27T10:45:10Z</time>
      </trkpt>
      <trkpt lat="45.2304" lon="6.05952">
        <ele>2535.2</ele>
        <time>2021-02-27T10:45:11Z</time>
      </trkpt>
      <trkpt lat="45.23041" lon="6.05954">
        <ele>2535.6</ele>
        <time>2021-02-27T10:45:12Z</time>
      </trkpt>
      <trkpt lat="45.23041" lon="6.05954">
        <ele>2536.2</ele>
        <time>2021-02-27T10:45:13Z</time>
      </trkpt>
      <trkpt lat="45.23041" lon="6.05954">
        <ele>2536.6</ele>
        <time>2021-02-27T10:45:14Z</time>
      </trkpt>
      <trkpt lat="45.23042" lon="6.05956">
        <ele>2537.2</ele>
        <time>2021-02-27T10:45:15Z</time>
      </trkpt>
      <trkpt lat="45.23042" lon="6.05956">
        <ele>2537.4</ele>
        <time>2021-02-27T10:45:16Z</time>
      </trkpt>
      <trkpt lat="45.23042" lon="6.05956">
        <ele>2537.8</ele>
        <time>2021-02-27T10:45:17Z</time>
      </trkpt>
      <trkpt lat="45.23042" lon="6.05956">
        <ele>2538.2</ele>
        <time>2021-02-27T10:45:18Z</time>
      </trkpt>
      <trkpt lat="45.23044" lon="6.05958">
        <ele>2538.8</ele>
        <time>2021-02-27T10:45:19Z</time>
      </trkpt>
      <trkpt lat="45.23044" lon="6.05958">
        <ele>2539.4</ele>
        <time>2021-02-27T10:45:20Z</time>
      </trkpt>
      <trkpt lat="45.23044" lon="6.05958">
        <ele>2539.6</ele>
        <time>2021-02-27T10:45:21Z</time>
      </trkpt>
      <trkpt lat="45.23044" lon="6.05958">
        <ele>2539.6</ele>
        <time>2021-02-27T10:45:22Z</time>
      </trkpt>
      <trkpt lat="45.23046" lon="6.05958">
        <ele>2539.4</ele>
        <time>2021-02-27T10:45:23Z</time>
      </trkpt>
      <trkpt lat="45.23046" lon="6.05958">
        <ele>2539.4</ele>
        <time>2021-02-27T10:45:24Z</time>
      </trkpt>
      <trkpt lat="45.23046" lon="6.05958">
        <ele>2539.8</ele>
        <time>2021-02-27T10:45:25Z</time>
      </trkpt>
      <trkpt lat="45.23046" lon="6.05958">
        <ele>2540.2</ele>
        <time>2021-02-27T10:45:26Z</time>
      </trkpt>
      <trkpt lat="45.23046" lon="6.05958">
        <ele>2540.4</ele>
        <time>2021-02-27T10:45:27Z</time>
      </trkpt>
      <trkpt lat="45.23046" lon="6.05958">
        <ele>2540.6</ele>
        <time>2021-02-27T10:45:28Z</time>
      </trkpt>
      <trkpt lat="45.23046" lon="6.05958">
        <ele>2540.6</ele>
        <time>2021-02-27T10:45:29Z</time>
      </trkpt>
      <trkpt lat="45.23046" lon="6.05958">
        <ele>2541</ele>
        <time>2021-02-27T10:45:30Z</time>
      </trkpt>
      <trkpt lat="45.23048" lon="6.05959">
        <ele>2541.4</ele>
        <time>2021-02-27T10:45:31Z</time>
      </trkpt>
      <trkpt lat="45.23048" lon="6.05959">
        <ele>2541.6</ele>
        <time>2021-02-27T10:45:32Z</time>
      </trkpt>
      <trkpt lat="45.23048" lon="6.05959">
        <ele>2541.6</ele>
        <time>2021-02-27T10:45:33Z</time>
      </trkpt>
      <trkpt lat="45.23048" lon="6.05959">
        <ele>2541.8</ele>
        <time>2021-02-27T10:45:34Z</time>
      </trkpt>
      <trkpt lat="45.23048" lon="6.05959">
        <ele>2542</ele>
        <time>2021-02-27T10:45:35Z</time>
      </trkpt>
      <trkpt lat="45.23049" lon="6.05962">
        <ele>2542.2</ele>
        <time>2021-02-27T10:45:36Z</time>
      </trkpt>
      <trkpt lat="45.23049" lon="6.05962">
        <ele>2542.6</ele>
        <time>2021-02-27T10:45:37Z</time>
      </trkpt>
      <trkpt lat="45.23049" lon="6.05962">
        <ele>2543.4</ele>
        <time>2021-02-27T10:45:38Z</time>
      </trkpt>
      <trkpt lat="45.23046" lon="6.05964">
        <ele>2543.8</ele>
        <time>2021-02-27T10:45:39Z</time>
      </trkpt>
      <trkpt lat="45.23046" lon="6.05964">
        <ele>2544.2</ele>
        <time>2021-02-27T10:45:40Z</time>
      </trkpt>
      <trkpt lat="45.23044" lon="6.05964">
        <ele>2544.4</ele>
        <time>2021-02-27T10:45:41Z</time>
      </trkpt>
      <trkpt lat="45.23044" lon="6.05964">
        <ele>2545</ele>
        <time>2021-02-27T10:45:42Z</time>
      </trkpt>
      <trkpt lat="45.23042" lon="6.05964">
        <ele>2545.2</ele>
        <time>2021-02-27T10:45:43Z</time>
      </trkpt>
      <trkpt lat="45.23042" lon="6.05964">
        <ele>2545.2</ele>
        <time>2021-02-27T10:45:44Z</time>
      </trkpt>
      <trkpt lat="45.23042" lon="6.05964">
        <ele>2545.8</ele>
        <time>2021-02-27T10:45:45Z</time>
      </trkpt>
      <trkpt lat="45.2304" lon="6.05965">
        <ele>2545.8</ele>
        <time>2021-02-27T10:45:46Z</time>
      </trkpt>
      <trkpt lat="45.2304" lon="6.05965">
        <ele>2546</ele>
        <time>2021-02-27T10:45:47Z</time>
      </trkpt>
      <trkpt lat="45.2304" lon="6.05965">
        <ele>2546.8</ele>
        <time>2021-02-27T10:45:48Z</time>
      </trkpt>
      <trkpt lat="45.23037" lon="6.05965">
        <ele>2547.4</ele>
        <time>2021-02-27T10:45:49Z</time>
      </trkpt>
      <trkpt lat="45.23037" lon="6.05965">
        <ele>2548</ele>
        <time>2021-02-27T10:45:50Z</time>
      </trkpt>
      <trkpt lat="45.23035" lon="6.05964">
        <ele>2548.8</ele>
        <time>2021-02-27T10:45:51Z</time>
      </trkpt>
      <trkpt lat="45.23035" lon="6.05964">
        <ele>2549.2</ele>
        <time>2021-02-27T10:45:52Z</time>
      </trkpt>
      <trkpt lat="45.23035" lon="6.05964">
        <ele>2549.8</ele>
        <time>2021-02-27T10:45:53Z</time>
      </trkpt>
      <trkpt lat="45.23033" lon="6.05963">
        <ele>2550.8</ele>
        <time>2021-02-27T10:45:54Z</time>
      </trkpt>
      <trkpt lat="45.23033" lon="6.05963">
        <ele>2550.4</ele>
        <time>2021-02-27T10:45:55Z</time>
      </trkpt>
      <trkpt lat="45.23033" lon="6.05963">
        <ele>2551</ele>
        <time>2021-02-27T10:45:56Z</time>
      </trkpt>
      <trkpt lat="45.23033" lon="6.05963">
        <ele>2551</ele>
        <time>2021-02-27T10:45:57Z</time>
      </trkpt>
      <trkpt lat="45.23033" lon="6.05963">
        <ele>2551.4</ele>
        <time>2021-02-27T10:45:58Z</time>
      </trkpt>
      <trkpt lat="45.23033" lon="6.05963">
        <ele>2551.6</ele>
        <time>2021-02-27T10:45:59Z</time>
      </trkpt>
      <trkpt lat="45.23033" lon="6.05963">
        <ele>2551.8</ele>
        <time>2021-02-27T10:46:00Z</time>
      </trkpt>
      <trkpt lat="45.23035" lon="6.05966">
        <ele>2551.8</ele>
        <time>2021-02-27T10:46:01Z</time>
      </trkpt>
      <trkpt lat="45.23035" lon="6.05966">
        <ele>2552.4</ele>
        <time>2021-02-27T10:46:02Z</time>
      </trkpt>
      <trkpt lat="45.23035" lon="6.05966">
        <ele>2553</ele>
        <time>2021-02-27T10:46:03Z</time>
      </trkpt>
      <trkpt lat="45.23037" lon="6.05968">
        <ele>2553.2</ele>
        <time>2021-02-27T10:46:04Z</time>
      </trkpt>
      <trkpt lat="45.23037" lon="6.05968">
        <ele>2553.4</ele>
        <time>2021-02-27T10:46:05Z</time>
      </trkpt>
      <trkpt lat="45.23037" lon="6.05968">
        <ele>2553.6</ele>
        <time>2021-02-27T10:46:06Z</time>
      </trkpt>
      <trkpt lat="45.23039" lon="6.0597">
        <ele>2554.2</ele>
        <time>2021-02-27T10:46:07Z</time>
      </trkpt>
      <trkpt lat="45.23039" lon="6.0597">
        <ele>2554.4</ele>
        <time>2021-02-27T10:46:08Z</time>
      </trkpt>
      <trkpt lat="45.23039" lon="6.0597">
        <ele>2554.6</ele>
        <time>2021-02-27T10:46:09Z</time>
      </trkpt>
      <trkpt lat="45.23039" lon="6.0597">
        <ele>2555</ele>
        <time>2021-02-27T10:46:10Z</time>
      </trkpt>
      <trkpt lat="45.23039" lon="6.05973">
        <ele>2555.2</ele>
        <time>2021-02-27T10:46:11Z</time>
      </trkpt>
      <trkpt lat="45.23039" lon="6.05973">
        <ele>2555.4</ele>
        <time>2021-02-27T10:46:12Z</time>
      </trkpt>
      <trkpt lat="45.23039" lon="6.05973">
        <ele>2555.2</ele>
        <time>2021-02-27T10:46:13Z</time>
      </trkpt>
      <trkpt lat="45.23039" lon="6.05973">
        <ele>2555.4</ele>
        <time>2021-02-27T10:46:14Z</time>
      </trkpt>
      <trkpt lat="45.23039" lon="6.05973">
        <ele>2555</ele>
        <time>2021-02-27T10:46:15Z</time>
      </trkpt>
      <trkpt lat="45.2304" lon="6.05976">
        <ele>2555.2</ele>
        <time>2021-02-27T10:46:16Z</time>
      </trkpt>
      <trkpt lat="45.2304" lon="6.05976">
        <ele>2555.4</ele>
        <time>2021-02-27T10:46:17Z</time>
      </trkpt>
      <trkpt lat="45.2304" lon="6.05976">
        <ele>2555.2</ele>
        <time>2021-02-27T10:46:18Z</time>
      </trkpt>
      <trkpt lat="45.2304" lon="6.05976">
        <ele>2555.2</ele>
        <time>2021-02-27T10:46:19Z</time>
      </trkpt>
      <trkpt lat="45.2304" lon="6.05976">
        <ele>2555</ele>
        <time>2021-02-27T10:46:20Z</time>
      </trkpt>
      <trkpt lat="45.2304" lon="6.05976">
        <ele>2555.2</ele>
        <time>2021-02-27T10:46:21Z</time>
      </trkpt>
      <trkpt lat="45.2304" lon="6.05979">
        <ele>2555.4</ele>
        <time>2021-02-27T10:46:22Z</time>
      </trkpt>
      <trkpt lat="45.2304" lon="6.05979">
        <ele>2555.8</ele>
        <time>2021-02-27T10:46:23Z</time>
      </trkpt>
      <trkpt lat="45.2304" lon="6.05979">
        <ele>2556</ele>
        <time>2021-02-27T10:46:24Z</time>
      </trkpt>
      <trkpt lat="45.23038" lon="6.0598">
        <ele>2556.4</ele>
        <time>2021-02-27T10:46:25Z</time>
      </trkpt>
      <trkpt lat="45.23038" lon="6.0598">
        <ele>2556.4</ele>
        <time>2021-02-27T10:46:26Z</time>
      </trkpt>
      <trkpt lat="45.23038" lon="6.0598">
        <ele>2556.8</ele>
        <time>2021-02-27T10:46:27Z</time>
      </trkpt>
      <trkpt lat="45.23036" lon="6.0598">
        <ele>2557</ele>
        <time>2021-02-27T10:46:28Z</time>
      </trkpt>
      <trkpt lat="45.23036" lon="6.0598">
        <ele>2557.6</ele>
        <time>2021-02-27T10:46:29Z</time>
      </trkpt>
      <trkpt lat="45.23036" lon="6.0598">
        <ele>2558.4</ele>
        <time>2021-02-27T10:46:30Z</time>
      </trkpt>
      <trkpt lat="45.23034" lon="6.0598">
        <ele>2558.8</ele>
        <time>2021-02-27T10:46:31Z</time>
      </trkpt>
      <trkpt lat="45.23034" lon="6.0598">
        <ele>2559.6</ele>
        <time>2021-02-27T10:46:32Z</time>
      </trkpt>
      <trkpt lat="45.23032" lon="6.05979">
        <ele>2559.6</ele>
        <time>2021-02-27T10:46:33Z</time>
      </trkpt>
      <trkpt lat="45.23032" lon="6.05979">
        <ele>2559.8</ele>
        <time>2021-02-27T10:46:34Z</time>
      </trkpt>
      <trkpt lat="45.23032" lon="6.05979">
        <ele>2559.8</ele>
        <time>2021-02-27T10:46:35Z</time>
      </trkpt>
      <trkpt lat="45.23032" lon="6.05979">
        <ele>2560.2</ele>
        <time>2021-02-27T10:46:36Z</time>
      </trkpt>
      <trkpt lat="45.23032" lon="6.05979">
        <ele>2559.6</ele>
        <time>2021-02-27T10:46:37Z</time>
      </trkpt>
      <trkpt lat="45.2303" lon="6.0598">
        <ele>2559.8</ele>
        <time>2021-02-27T10:46:38Z</time>
      </trkpt>
      <trkpt lat="45.2303" lon="6.0598">
        <ele>2559.6</ele>
        <time>2021-02-27T10:46:39Z</time>
      </trkpt>
      <trkpt lat="45.2303" lon="6.0598">
        <ele>2559.6</ele>
        <time>2021-02-27T10:46:40Z</time>
      </trkpt>
      <trkpt lat="45.23027" lon="6.0598">
        <ele>2559.6</ele>
        <time>2021-02-27T10:46:41Z</time>
      </trkpt>
      <trkpt lat="45.23027" lon="6.0598">
        <ele>2559</ele>
        <time>2021-02-27T10:46:42Z</time>
      </trkpt>
      <trkpt lat="45.23027" lon="6.0598">
        <ele>2559.2</ele>
        <time>2021-02-27T10:46:43Z</time>
      </trkpt>
      <trkpt lat="45.23027" lon="6.0598">
        <ele>2559</ele>
        <time>2021-02-27T10:46:44Z</time>
      </trkpt>
      <trkpt lat="45.23027" lon="6.0598">
        <ele>2558.8</ele>
        <time>2021-02-27T10:46:45Z</time>
      </trkpt>
      <trkpt lat="45.23027" lon="6.0598">
        <ele>2558.2</ele>
        <time>2021-02-27T10:46:46Z</time>
      </trkpt>
      <trkpt lat="45.23027" lon="6.0598">
        <ele>2558</ele>
        <time>2021-02-27T10:46:47Z</time>
      </trkpt>
      <trkpt lat="45.23027" lon="6.0598">
        <ele>2558</ele>
        <time>2021-02-27T10:46:48Z</time>
      </trkpt>
      <trkpt lat="45.23027" lon="6.0598">
        <ele>2558</ele>
        <time>2021-02-27T10:46:49Z</time>
      </trkpt>
      <trkpt lat="45.23028" lon="6.05982">
        <ele>2557.8</ele>
        <time>2021-02-27T10:46:50Z</time>
      </trkpt>
      <trkpt lat="45.23028" lon="6.05982">
        <ele>2558</ele>
        <time>2021-02-27T10:46:51Z</time>
      </trkpt>
      <trkpt lat="45.23028" lon="6.05982">
        <ele>2557.6</ele>
        <time>2021-02-27T10:46:52Z</time>
      </trkpt>
      <trkpt lat="45.23028" lon="6.05982">
        <ele>2557.4</ele>
        <time>2021-02-27T10:46:53Z</time>
      </trkpt>
      <trkpt lat="45.2303" lon="6.05984">
        <ele>2557.4</ele>
        <time>2021-02-27T10:46:54Z</time>
      </trkpt>
      <trkpt lat="45.2303" lon="6.05984">
        <ele>2557.6</ele>
        <time>2021-02-27T10:46:55Z</time>
      </trkpt>
      <trkpt lat="45.2303" lon="6.05984">
        <ele>2557.6</ele>
        <time>2021-02-27T10:46:56Z</time>
      </trkpt>
      <trkpt lat="45.23032" lon="6.05985">
        <ele>2557.6</ele>
        <time>2021-02-27T10:46:57Z</time>
      </trkpt>
      <trkpt lat="45.23032" lon="6.05985">
        <ele>2557.8</ele>
        <time>2021-02-27T10:46:58Z</time>
      </trkpt>
      <trkpt lat="45.23032" lon="6.05985">
        <ele>2558</ele>
        <time>2021-02-27T10:46:59Z</time>
      </trkpt>
      <trkpt lat="45.23032" lon="6.05985">
        <ele>2558.2</ele>
        <time>2021-02-27T10:47:00Z</time>
      </trkpt>
      <trkpt lat="45.23032" lon="6.05985">
        <ele>2558.6</ele>
        <time>2021-02-27T10:47:01Z</time>
      </trkpt>
      <trkpt lat="45.2303" lon="6.05986">
        <ele>2558.6</ele>
        <time>2021-02-27T10:47:02Z</time>
      </trkpt>
      <trkpt lat="45.2303" lon="6.05986">
        <ele>2558.6</ele>
        <time>2021-02-27T10:47:03Z</time>
      </trkpt>
      <trkpt lat="45.2303" lon="6.05986">
        <ele>2558.8</ele>
        <time>2021-02-27T10:47:04Z</time>
      </trkpt>
      <trkpt lat="45.23028" lon="6.05985">
        <ele>2558.6</ele>
        <time>2021-02-27T10:47:05Z</time>
      </trkpt>
      <trkpt lat="45.23028" lon="6.05985">
        <ele>2558.6</ele>
        <time>2021-02-27T10:47:06Z</time>
      </trkpt>
      <trkpt lat="45.23028" lon="6.05985">
        <ele>2558.8</ele>
        <time>2021-02-27T10:47:07Z</time>
      </trkpt>
      <trkpt lat="45.23026" lon="6.05984">
        <ele>2559.2</ele>
        <time>2021-02-27T10:47:08Z</time>
      </trkpt>
      <trkpt lat="45.23026" lon="6.05984">
        <ele>2558.8</ele>
        <time>2021-02-27T10:47:09Z</time>
      </trkpt>
      <trkpt lat="45.23026" lon="6.05984">
        <ele>2559.6</ele>
        <time>2021-02-27T10:47:10Z</time>
      </trkpt>
      <trkpt lat="45.23024" lon="6.05982">
        <ele>2559.4</ele>
        <time>2021-02-27T10:47:11Z</time>
      </trkpt>
      <trkpt lat="45.23024" lon="6.05982">
        <ele>2560.2</ele>
        <time>2021-02-27T10:47:12Z</time>
      </trkpt>
      <trkpt lat="45.23024" lon="6.05982">
        <ele>2560.2</ele>
        <time>2021-02-27T10:47:13Z</time>
      </trkpt>
      <trkpt lat="45.23024" lon="6.05982">
        <ele>2559.8</ele>
        <time>2021-02-27T10:47:14Z</time>
      </trkpt>
      <trkpt lat="45.23024" lon="6.05982">
        <ele>2558.4</ele>
        <time>2021-02-27T10:47:15Z</time>
      </trkpt>
      <trkpt lat="45.23024" lon="6.05982">
        <ele>2558.2</ele>
        <time>2021-02-27T10:47:16Z</time>
      </trkpt>
      <trkpt lat="45.23024" lon="6.05982">
        <ele>2558.8</ele>
        <time>2021-02-27T10:47:17Z</time>
      </trkpt>
      <trkpt lat="45.23024" lon="6.05982">
        <ele>2558.4</ele>
        <time>2021-02-27T10:47:18Z</time>
      </trkpt>
      <trkpt lat="45.23024" lon="6.05982">
        <ele>2559</ele>
        <time>2021-02-27T10:47:19Z</time>
      </trkpt>
      <trkpt lat="45.23025" lon="6.05985">
        <ele>2559.4</ele>
        <time>2021-02-27T10:47:20Z</time>
      </trkpt>
      <trkpt lat="45.23025" lon="6.05985">
        <ele>2559.6</ele>
        <time>2021-02-27T10:47:21Z</time>
      </trkpt>
      <trkpt lat="45.23025" lon="6.05985">
        <ele>2560</ele>
        <time>2021-02-27T10:47:22Z</time>
      </trkpt>
      <trkpt lat="45.23027" lon="6.05987">
        <ele>2559.8</ele>
        <time>2021-02-27T10:47:23Z</time>
      </trkpt>
      <trkpt lat="45.23027" lon="6.05987">
        <ele>2560</ele>
        <time>2021-02-27T10:47:24Z</time>
      </trkpt>
      <trkpt lat="45.23027" lon="6.05987">
        <ele>2560.8</ele>
        <time>2021-02-27T10:47:25Z</time>
      </trkpt>
      <trkpt lat="45.23027" lon="6.05987">
        <ele>2561.8</ele>
        <time>2021-02-27T10:47:26Z</time>
      </trkpt>
      <trkpt lat="45.23027" lon="6.05987">
        <ele>2561.4</ele>
        <time>2021-02-27T10:47:27Z</time>
      </trkpt>
      <trkpt lat="45.23027" lon="6.05987">
        <ele>2561.4</ele>
        <time>2021-02-27T10:47:28Z</time>
      </trkpt>
      <trkpt lat="45.23027" lon="6.05987">
        <ele>2561.4</ele>
        <time>2021-02-27T10:47:29Z</time>
      </trkpt>
      <trkpt lat="45.23027" lon="6.05987">
        <ele>2561.8</ele>
        <time>2021-02-27T10:47:30Z</time>
      </trkpt>
      <trkpt lat="45.23027" lon="6.05987">
        <ele>2562</ele>
        <time>2021-02-27T10:47:31Z</time>
      </trkpt>
      <trkpt lat="45.23027" lon="6.05987">
        <ele>2562.6</ele>
        <time>2021-02-27T10:47:32Z</time>
      </trkpt>
      <trkpt lat="45.23027" lon="6.05987">
        <ele>2562.6</ele>
        <time>2021-02-27T10:47:33Z</time>
      </trkpt>
      <trkpt lat="45.23027" lon="6.05987">
        <ele>2562.2</ele>
        <time>2021-02-27T10:47:34Z</time>
      </trkpt>
      <trkpt lat="45.23027" lon="6.05987">
        <ele>2562.2</ele>
        <time>2021-02-27T10:47:35Z</time>
      </trkpt>
      <trkpt lat="45.23027" lon="6.05987">
        <ele>2562.4</ele>
        <time>2021-02-27T10:47:36Z</time>
      </trkpt>
      <trkpt lat="45.23027" lon="6.05987">
        <ele>2563</ele>
        <time>2021-02-27T10:47:37Z</time>
      </trkpt>
      <trkpt lat="45.23027" lon="6.05987">
        <ele>2563.8</ele>
        <time>2021-02-27T10:47:38Z</time>
      </trkpt>
      <trkpt lat="45.23027" lon="6.05987">
        <ele>2563.8</ele>
        <time>2021-02-27T10:47:39Z</time>
      </trkpt>
      <trkpt lat="45.23027" lon="6.05987">
        <ele>2563.4</ele>
        <time>2021-02-27T10:47:40Z</time>
      </trkpt>
      <trkpt lat="45.23027" lon="6.05987">
        <ele>2563.8</ele>
        <time>2021-02-27T10:47:41Z</time>
      </trkpt>
      <trkpt lat="45.23027" lon="6.05987">
        <ele>2565</ele>
        <time>2021-02-27T10:47:42Z</time>
      </trkpt>
      <trkpt lat="45.23027" lon="6.05987">
        <ele>2565.2</ele>
        <time>2021-02-27T10:47:43Z</time>
      </trkpt>
      <trkpt lat="45.23027" lon="6.05987">
        <ele>2566.2</ele>
        <time>2021-02-27T10:47:44Z</time>
      </trkpt>
      <trkpt lat="45.23027" lon="6.05987">
        <ele>2568.4</ele>
        <time>2021-02-27T10:47:45Z</time>
      </trkpt>
      <trkpt lat="45.23027" lon="6.05987">
        <ele>2569.4</ele>
        <time>2021-02-27T10:47:46Z</time>
      </trkpt>
      <trkpt lat="45.23027" lon="6.05987">
        <ele>2569.4</ele>
        <time>2021-02-27T10:47:47Z</time>
      </trkpt>
      <trkpt lat="45.23028" lon="6.05989">
        <ele>2571</ele>
        <time>2021-02-27T10:47:48Z</time>
      </trkpt>
      <trkpt lat="45.23028" lon="6.05989">
        <ele>2571.4</ele>
        <time>2021-02-27T10:47:49Z</time>
      </trkpt>
      <trkpt lat="45.23028" lon="6.05989">
        <ele>2572.2</ele>
        <time>2021-02-27T10:47:50Z</time>
      </trkpt>
      <trkpt lat="45.23028" lon="6.05989">
        <ele>2573</ele>
        <time>2021-02-27T10:47:51Z</time>
      </trkpt>
      <trkpt lat="45.23028" lon="6.05989">
        <ele>2573.4</ele>
        <time>2021-02-27T10:47:52Z</time>
      </trkpt>
      <trkpt lat="45.23028" lon="6.05989">
        <ele>2573.6</ele>
        <time>2021-02-27T10:47:53Z</time>
      </trkpt>
      <trkpt lat="45.23028" lon="6.05989">
        <ele>2574.2</ele>
        <time>2021-02-27T10:47:54Z</time>
      </trkpt>
      <trkpt lat="45.23028" lon="6.05989">
        <ele>2574</ele>
        <time>2021-02-27T10:47:55Z</time>
      </trkpt>
      <trkpt lat="45.23028" lon="6.05989">
        <ele>2574.6</ele>
        <time>2021-02-27T10:47:56Z</time>
      </trkpt>
      <trkpt lat="45.23028" lon="6.05989">
        <ele>2574</ele>
        <time>2021-02-27T10:47:57Z</time>
      </trkpt>
      <trkpt lat="45.23028" lon="6.05989">
        <ele>2574.2</ele>
        <time>2021-02-27T10:47:58Z</time>
      </trkpt>
      <trkpt lat="45.23028" lon="6.05989">
        <ele>2574</ele>
        <time>2021-02-27T10:47:59Z</time>
      </trkpt>
      <trkpt lat="45.23028" lon="6.05989">
        <ele>2574.2</ele>
        <time>2021-02-27T10:48:00Z</time>
      </trkpt>
      <trkpt lat="45.23028" lon="6.05989">
        <ele>2574.2</ele>
        <time>2021-02-27T10:48:01Z</time>
      </trkpt>
      <trkpt lat="45.23028" lon="6.05989">
        <ele>2576</ele>
        <time>2021-02-27T10:48:02Z</time>
      </trkpt>
      <trkpt lat="45.23028" lon="6.05992">
        <ele>2576.4</ele>
        <time>2021-02-27T10:48:03Z</time>
      </trkpt>
      <trkpt lat="45.23028" lon="6.05992">
        <ele>2575.4</ele>
        <time>2021-02-27T10:48:04Z</time>
      </trkpt>
      <trkpt lat="45.23028" lon="6.05992">
        <ele>2574.6</ele>
        <time>2021-02-27T10:48:05Z</time>
      </trkpt>
      <trkpt lat="45.23028" lon="6.05992">
        <ele>2573.4</ele>
        <time>2021-02-27T10:48:06Z</time>
      </trkpt>
      <trkpt lat="45.23028" lon="6.05992">
        <ele>2571.2</ele>
        <time>2021-02-27T10:48:07Z</time>
      </trkpt>
      <trkpt lat="45.23028" lon="6.05995">
        <ele>2572.2</ele>
        <time>2021-02-27T10:48:08Z</time>
      </trkpt>
      <trkpt lat="45.23028" lon="6.05995">
        <ele>2572.4</ele>
        <time>2021-02-27T10:48:09Z</time>
      </trkpt>
      <trkpt lat="45.23028" lon="6.05995">
        <ele>2572.2</ele>
        <time>2021-02-27T10:48:10Z</time>
      </trkpt>
      <trkpt lat="45.23028" lon="6.05995">
        <ele>2570.2</ele>
        <time>2021-02-27T10:48:11Z</time>
      </trkpt>
      <trkpt lat="45.23028" lon="6.05995">
        <ele>2568.2</ele>
        <time>2021-02-27T10:48:12Z</time>
      </trkpt>
      <trkpt lat="45.23027" lon="6.05998">
        <ele>2567.2</ele>
        <time>2021-02-27T10:48:13Z</time>
      </trkpt>
      <trkpt lat="45.23027" lon="6.05998">
        <ele>2564</ele>
        <time>2021-02-27T10:48:14Z</time>
      </trkpt>
      <trkpt lat="45.23027" lon="6.05998">
        <ele>2563.2</ele>
        <time>2021-02-27T10:48:15Z</time>
      </trkpt>
      <trkpt lat="45.23027" lon="6.05998">
        <ele>2562.6</ele>
        <time>2021-02-27T10:48:16Z</time>
      </trkpt>
      <trkpt lat="45.23027" lon="6.05998">
        <ele>2561.6</ele>
        <time>2021-02-27T10:48:17Z</time>
      </trkpt>
      <trkpt lat="45.23027" lon="6.05998">
        <ele>2561.2</ele>
        <time>2021-02-27T10:48:18Z</time>
      </trkpt>
      <trkpt lat="45.23027" lon="6.05998">
        <ele>2561.2</ele>
        <time>2021-02-27T10:48:19Z</time>
      </trkpt>
      <trkpt lat="45.23027" lon="6.05998">
        <ele>2561.2</ele>
        <time>2021-02-27T10:48:20Z</time>
      </trkpt>
      <trkpt lat="45.23027" lon="6.05998">
        <ele>2560.8</ele>
        <time>2021-02-27T10:48:21Z</time>
      </trkpt>
      <trkpt lat="45.23027" lon="6.05998">
        <ele>2562</ele>
        <time>2021-02-27T10:48:22Z</time>
      </trkpt>
      <trkpt lat="45.23027" lon="6.05998">
        <ele>2563</ele>
        <time>2021-02-27T10:48:23Z</time>
      </trkpt>
      <trkpt lat="45.23027" lon="6.05998">
        <ele>2562.2</ele>
        <time>2021-02-27T10:48:24Z</time>
      </trkpt>
      <trkpt lat="45.23027" lon="6.05998">
        <ele>2562.2</ele>
        <time>2021-02-27T10:48:25Z</time>
      </trkpt>
      <trkpt lat="45.23027" lon="6.05998">
        <ele>2560.2</ele>
        <time>2021-02-27T10:48:26Z</time>
      </trkpt>
      <trkpt lat="45.23027" lon="6.05998">
        <ele>2560.2</ele>
        <time>2021-02-27T10:48:27Z</time>
      </trkpt>
      <trkpt lat="45.23027" lon="6.05998">
        <ele>2561.2</ele>
        <time>2021-02-27T10:48:28Z</time>
      </trkpt>
      <trkpt lat="45.23027" lon="6.05998">
        <ele>2562</ele>
        <time>2021-02-27T10:48:29Z</time>
      </trkpt>
      <trkpt lat="45.23027" lon="6.05998">
        <ele>2562.8</ele>
        <time>2021-02-27T10:48:30Z</time>
      </trkpt>
      <trkpt lat="45.23027" lon="6.05998">
        <ele>2565.2</ele>
        <time>2021-02-27T10:48:31Z</time>
      </trkpt>
      <trkpt lat="45.23027" lon="6.05998">
        <ele>2567</ele>
        <time>2021-02-27T10:48:32Z</time>
      </trkpt>
      <trkpt lat="45.23027" lon="6.05998">
        <ele>2567.8</ele>
        <time>2021-02-27T10:48:33Z</time>
      </trkpt>
      <trkpt lat="45.23027" lon="6.05998">
        <ele>2566.8</ele>
        <time>2021-02-27T10:48:34Z</time>
      </trkpt>
      <trkpt lat="45.23027" lon="6.06">
        <ele>2565.8</ele>
        <time>2021-02-27T10:48:35Z</time>
      </trkpt>
      <trkpt lat="45.23027" lon="6.06">
        <ele>2565.2</ele>
        <time>2021-02-27T10:48:36Z</time>
      </trkpt>
      <trkpt lat="45.23027" lon="6.06">
        <ele>2564.2</ele>
        <time>2021-02-27T10:48:37Z</time>
      </trkpt>
      <trkpt lat="45.23027" lon="6.06004">
        <ele>2564.2</ele>
        <time>2021-02-27T10:48:38Z</time>
      </trkpt>
      <trkpt lat="45.23027" lon="6.06004">
        <ele>2563.8</ele>
        <time>2021-02-27T10:48:39Z</time>
      </trkpt>
      <trkpt lat="45.23027" lon="6.06004">
        <ele>2562.6</ele>
        <time>2021-02-27T10:48:40Z</time>
      </trkpt>
      <trkpt lat="45.23027" lon="6.06004">
        <ele>2562</ele>
        <time>2021-02-27T10:48:41Z</time>
      </trkpt>
      <trkpt lat="45.23027" lon="6.06004">
        <ele>2561.8</ele>
        <time>2021-02-27T10:48:42Z</time>
      </trkpt>
      <trkpt lat="45.23027" lon="6.06004">
        <ele>2561.4</ele>
        <time>2021-02-27T10:48:43Z</time>
      </trkpt>
      <trkpt lat="45.23027" lon="6.06004">
        <ele>2560.6</ele>
        <time>2021-02-27T10:48:44Z</time>
      </trkpt>
      <trkpt lat="45.23027" lon="6.06004">
        <ele>2560.8</ele>
        <time>2021-02-27T10:48:45Z</time>
      </trkpt>
      <trkpt lat="45.23027" lon="6.06004">
        <ele>2560.4</ele>
        <time>2021-02-27T10:48:46Z</time>
      </trkpt>
      <trkpt lat="45.23027" lon="6.06004">
        <ele>2560.4</ele>
        <time>2021-02-27T10:48:47Z</time>
      </trkpt>
      <trkpt lat="45.23027" lon="6.06004">
        <ele>2560.2</ele>
        <time>2021-02-27T10:48:48Z</time>
      </trkpt>
      <trkpt lat="45.23027" lon="6.06004">
        <ele>2560.8</ele>
        <time>2021-02-27T10:48:49Z</time>
      </trkpt>
      <trkpt lat="45.23027" lon="6.06004">
        <ele>2560.8</ele>
        <time>2021-02-27T10:48:50Z</time>
      </trkpt>
      <trkpt lat="45.23025" lon="6.06003">
        <ele>2561</ele>
        <time>2021-02-27T10:48:51Z</time>
      </trkpt>
      <trkpt lat="45.23025" lon="6.06003">
        <ele>2560.6</ele>
        <time>2021-02-27T10:48:52Z</time>
      </trkpt>
      <trkpt lat="45.23025" lon="6.06003">
        <ele>2559.8</ele>
        <time>2021-02-27T10:48:53Z</time>
      </trkpt>
      <trkpt lat="45.23025" lon="6.06003">
        <ele>2560.2</ele>
        <time>2021-02-27T10:48:54Z</time>
      </trkpt>
      <trkpt lat="45.23025" lon="6.06003">
        <ele>2559.8</ele>
        <time>2021-02-27T10:48:55Z</time>
      </trkpt>
      <trkpt lat="45.23025" lon="6.06003">
        <ele>2559.8</ele>
        <time>2021-02-27T10:48:56Z</time>
      </trkpt>
      <trkpt lat="45.23025" lon="6.06003">
        <ele>2560</ele>
        <time>2021-02-27T10:48:57Z</time>
      </trkpt>
      <trkpt lat="45.23025" lon="6.06003">
        <ele>2561</ele>
        <time>2021-02-27T10:48:58Z</time>
      </trkpt>
      <trkpt lat="45.23025" lon="6.06003">
        <ele>2562.2</ele>
        <time>2021-02-27T10:48:59Z</time>
      </trkpt>
      <trkpt lat="45.23025" lon="6.06003">
        <ele>2562.6</ele>
        <time>2021-02-27T10:49:00Z</time>
      </trkpt>
      <trkpt lat="45.23025" lon="6.06003">
        <ele>2562.8</ele>
        <time>2021-02-27T10:49:01Z</time>
      </trkpt>
      <trkpt lat="45.23025" lon="6.06003">
        <ele>2562.6</ele>
        <time>2021-02-27T10:49:02Z</time>
      </trkpt>
      <trkpt lat="45.23025" lon="6.06003">
        <ele>2561.6</ele>
        <time>2021-02-27T10:49:03Z</time>
      </trkpt>
      <trkpt lat="45.23025" lon="6.06003">
        <ele>2561.2</ele>
        <time>2021-02-27T10:49:04Z</time>
      </trkpt>
      <trkpt lat="45.23025" lon="6.06003">
        <ele>2560.4</ele>
        <time>2021-02-27T10:49:05Z</time>
      </trkpt>
      <trkpt lat="45.23025" lon="6.06003">
        <ele>2560.4</ele>
        <time>2021-02-27T10:49:06Z</time>
      </trkpt>
      <trkpt lat="45.23025" lon="6.06003">
        <ele>2560.8</ele>
        <time>2021-02-27T10:49:07Z</time>
      </trkpt>
      <trkpt lat="45.23025" lon="6.06003">
        <ele>2559.6</ele>
        <time>2021-02-27T10:49:08Z</time>
      </trkpt>
      <trkpt lat="45.23025" lon="6.06003">
        <ele>2560.2</ele>
        <time>2021-02-27T10:49:09Z</time>
      </trkpt>
      <trkpt lat="45.23025" lon="6.06003">
        <ele>2561</ele>
        <time>2021-02-27T10:49:10Z</time>
      </trkpt>
      <trkpt lat="45.23025" lon="6.06003">
        <ele>2561.2</ele>
        <time>2021-02-27T10:49:11Z</time>
      </trkpt>
      <trkpt lat="45.23025" lon="6.06003">
        <ele>2561</ele>
        <time>2021-02-27T10:49:12Z</time>
      </trkpt>
      <trkpt lat="45.23025" lon="6.06003">
        <ele>2561.4</ele>
        <time>2021-02-27T10:49:13Z</time>
      </trkpt>
      <trkpt lat="45.23025" lon="6.06003">
        <ele>2561.4</ele>
        <time>2021-02-27T10:49:14Z</time>
      </trkpt>
      <trkpt lat="45.23025" lon="6.06003">
        <ele>2561.2</ele>
        <time>2021-02-27T10:49:15Z</time>
      </trkpt>
      <trkpt lat="45.23025" lon="6.06003">
        <ele>2561.2</ele>
        <time>2021-02-27T10:49:16Z</time>
      </trkpt>
      <trkpt lat="45.23025" lon="6.06003">
        <ele>2560.6</ele>
        <time>2021-02-27T10:49:17Z</time>
      </trkpt>
      <trkpt lat="45.23025" lon="6.06003">
        <ele>2560.4</ele>
        <time>2021-02-27T10:49:18Z</time>
      </trkpt>
      <trkpt lat="45.23025" lon="6.06003">
        <ele>2559.8</ele>
        <time>2021-02-27T10:49:19Z</time>
      </trkpt>
      <trkpt lat="45.23025" lon="6.06003">
        <ele>2559.8</ele>
        <time>2021-02-27T10:49:20Z</time>
      </trkpt>
      <trkpt lat="45.23025" lon="6.06003">
        <ele>2559.8</ele>
        <time>2021-02-27T10:49:21Z</time>
      </trkpt>
      <trkpt lat="45.23025" lon="6.06003">
        <ele>2560.6</ele>
        <time>2021-02-27T10:49:22Z</time>
      </trkpt>
      <trkpt lat="45.23025" lon="6.06003">
        <ele>2560.6</ele>
        <time>2021-02-27T10:49:23Z</time>
      </trkpt>
      <trkpt lat="45.23026" lon="6.06006">
        <ele>2560.6</ele>
        <time>2021-02-27T10:49:24Z</time>
      </trkpt>
      <trkpt lat="45.23028" lon="6.06009">
        <ele>2561</ele>
        <time>2021-02-27T10:49:25Z</time>
      </trkpt>
      <trkpt lat="45.23033" lon="6.06015">
        <ele>2561.2</ele>
        <time>2021-02-27T10:49:26Z</time>
      </trkpt>
      <trkpt lat="45.23035" lon="6.06018">
        <ele>2560.4</ele>
        <time>2021-02-27T10:49:27Z</time>
      </trkpt>
      <trkpt lat="45.23039" lon="6.06021">
        <ele>2559.8</ele>
        <time>2021-02-27T10:49:28Z</time>
      </trkpt>
      <trkpt lat="45.23042" lon="6.06023">
        <ele>2558.8</ele>
        <time>2021-02-27T10:49:29Z</time>
      </trkpt>
      <trkpt lat="45.23044" lon="6.06025">
        <ele>2558.2</ele>
        <time>2021-02-27T10:49:30Z</time>
      </trkpt>
      <trkpt lat="45.23046" lon="6.06028">
        <ele>2557.4</ele>
        <time>2021-02-27T10:49:31Z</time>
      </trkpt>
      <trkpt lat="45.23045" lon="6.06032">
        <ele>2557.4</ele>
        <time>2021-02-27T10:49:32Z</time>
      </trkpt>
      <trkpt lat="45.23042" lon="6.06036">
        <ele>2556.6</ele>
        <time>2021-02-27T10:49:33Z</time>
      </trkpt>
      <trkpt lat="45.23039" lon="6.06038">
        <ele>2555</ele>
        <time>2021-02-27T10:49:34Z</time>
      </trkpt>
      <trkpt lat="45.23039" lon="6.06042">
        <ele>2554.2</ele>
        <time>2021-02-27T10:49:35Z</time>
      </trkpt>
      <trkpt lat="45.23041" lon="6.06047">
        <ele>2553</ele>
        <time>2021-02-27T10:49:36Z</time>
      </trkpt>
      <trkpt lat="45.23046" lon="6.0605">
        <ele>2552</ele>
        <time>2021-02-27T10:49:37Z</time>
      </trkpt>
      <trkpt lat="45.23046" lon="6.0605">
        <ele>2550.4</ele>
        <time>2021-02-27T10:49:38Z</time>
      </trkpt>
      <trkpt lat="45.23051" lon="6.06056">
        <ele>2548.4</ele>
        <time>2021-02-27T10:49:39Z</time>
      </trkpt>
      <trkpt lat="45.23051" lon="6.06056">
        <ele>2546.8</ele>
        <time>2021-02-27T10:49:40Z</time>
      </trkpt>
      <trkpt lat="45.23047" lon="6.06062">
        <ele>2544.6</ele>
        <time>2021-02-27T10:49:41Z</time>
      </trkpt>
      <trkpt lat="45.23047" lon="6.06062">
        <ele>2542.8</ele>
        <time>2021-02-27T10:49:42Z</time>
      </trkpt>
      <trkpt lat="45.23049" lon="6.06066">
        <ele>2541.2</ele>
        <time>2021-02-27T10:49:43Z</time>
      </trkpt>
      <trkpt lat="45.2305" lon="6.0607">
        <ele>2538.8</ele>
        <time>2021-02-27T10:49:44Z</time>
      </trkpt>
      <trkpt lat="45.23052" lon="6.06073">
        <ele>2536.2</ele>
        <time>2021-02-27T10:49:45Z</time>
      </trkpt>
      <trkpt lat="45.23053" lon="6.0608">
        <ele>2534.2</ele>
        <time>2021-02-27T10:49:46Z</time>
      </trkpt>
      <trkpt lat="45.23054" lon="6.06087">
        <ele>2532.2</ele>
        <time>2021-02-27T10:49:47Z</time>
      </trkpt>
      <trkpt lat="45.23055" lon="6.06094">
        <ele>2530.8</ele>
        <time>2021-02-27T10:49:48Z</time>
      </trkpt>
      <trkpt lat="45.23054" lon="6.06099">
        <ele>2528.8</ele>
        <time>2021-02-27T10:49:49Z</time>
      </trkpt>
      <trkpt lat="45.23054" lon="6.06099">
        <ele>2526.4</ele>
        <time>2021-02-27T10:49:50Z</time>
      </trkpt>
      <trkpt lat="45.23059" lon="6.06117">
        <ele>2523.2</ele>
        <time>2021-02-27T10:49:51Z</time>
      </trkpt>
      <trkpt lat="45.23058" lon="6.06121">
        <ele>2520.4</ele>
        <time>2021-02-27T10:49:52Z</time>
      </trkpt>
      <trkpt lat="45.23056" lon="6.06129">
        <ele>2517.8</ele>
        <time>2021-02-27T10:49:53Z</time>
      </trkpt>
      <trkpt lat="45.23058" lon="6.06137">
        <ele>2515.6</ele>
        <time>2021-02-27T10:49:54Z</time>
      </trkpt>
      <trkpt lat="45.23058" lon="6.06137">
        <ele>2513</ele>
        <time>2021-02-27T10:49:55Z</time>
      </trkpt>
      <trkpt lat="45.23062" lon="6.06158">
        <ele>2510.2</ele>
        <time>2021-02-27T10:49:56Z</time>
      </trkpt>
      <trkpt lat="45.23061" lon="6.06162">
        <ele>2508</ele>
        <time>2021-02-27T10:49:57Z</time>
      </trkpt>
      <trkpt lat="45.23058" lon="6.06172">
        <ele>2505.2</ele>
        <time>2021-02-27T10:49:58Z</time>
      </trkpt>
      <trkpt lat="45.23057" lon="6.06175">
        <ele>2503.4</ele>
        <time>2021-02-27T10:49:59Z</time>
      </trkpt>
      <trkpt lat="45.23055" lon="6.06181">
        <ele>2501</ele>
        <time>2021-02-27T10:50:00Z</time>
      </trkpt>
      <trkpt lat="45.23055" lon="6.06181">
        <ele>2499.2</ele>
        <time>2021-02-27T10:50:01Z</time>
      </trkpt>
      <trkpt lat="45.23059" lon="6.06188">
        <ele>2498</ele>
        <time>2021-02-27T10:50:02Z</time>
      </trkpt>
      <trkpt lat="45.23063" lon="6.06194">
        <ele>2497.8</ele>
        <time>2021-02-27T10:50:03Z</time>
      </trkpt>
      <trkpt lat="45.23067" lon="6.06201">
        <ele>2495.6</ele>
        <time>2021-02-27T10:50:04Z</time>
      </trkpt>
      <trkpt lat="45.2307" lon="6.06207">
        <ele>2493.6</ele>
        <time>2021-02-27T10:50:05Z</time>
      </trkpt>
      <trkpt lat="45.2307" lon="6.06207">
        <ele>2491.8</ele>
        <time>2021-02-27T10:50:06Z</time>
      </trkpt>
      <trkpt lat="45.23079" lon="6.06223">
        <ele>2490</ele>
        <time>2021-02-27T10:50:07Z</time>
      </trkpt>
      <trkpt lat="45.23081" lon="6.06225">
        <ele>2487.2</ele>
        <time>2021-02-27T10:50:08Z</time>
      </trkpt>
      <trkpt lat="45.23087" lon="6.06234">
        <ele>2484.2</ele>
        <time>2021-02-27T10:50:09Z</time>
      </trkpt>
      <trkpt lat="45.23088" lon="6.06237">
        <ele>2482.8</ele>
        <time>2021-02-27T10:50:10Z</time>
      </trkpt>
      <trkpt lat="45.23089" lon="6.06243">
        <ele>2481</ele>
        <time>2021-02-27T10:50:11Z</time>
      </trkpt>
      <trkpt lat="45.23089" lon="6.06243">
        <ele>2478.2</ele>
        <time>2021-02-27T10:50:12Z</time>
      </trkpt>
      <trkpt lat="45.23093" lon="6.06245">
        <ele>2476.2</ele>
        <time>2021-02-27T10:50:13Z</time>
      </trkpt>
      <trkpt lat="45.23098" lon="6.06248">
        <ele>2474.8</ele>
        <time>2021-02-27T10:50:14Z</time>
      </trkpt>
      <trkpt lat="45.23102" lon="6.0625">
        <ele>2472.6</ele>
        <time>2021-02-27T10:50:15Z</time>
      </trkpt>
      <trkpt lat="45.23103" lon="6.06257">
        <ele>2469.2</ele>
        <time>2021-02-27T10:50:16Z</time>
      </trkpt>
      <trkpt lat="45.23105" lon="6.06265">
        <ele>2467.4</ele>
        <time>2021-02-27T10:50:17Z</time>
      </trkpt>
      <trkpt lat="45.23107" lon="6.06272">
        <ele>2464.4</ele>
        <time>2021-02-27T10:50:18Z</time>
      </trkpt>
      <trkpt lat="45.23111" lon="6.06281">
        <ele>2462.8</ele>
        <time>2021-02-27T10:50:19Z</time>
      </trkpt>
      <trkpt lat="45.23114" lon="6.06283">
        <ele>2460</ele>
        <time>2021-02-27T10:50:20Z</time>
      </trkpt>
      <trkpt lat="45.23124" lon="6.06289">
        <ele>2457.4</ele>
        <time>2021-02-27T10:50:21Z</time>
      </trkpt>
      <trkpt lat="45.23128" lon="6.06292">
        <ele>2455</ele>
        <time>2021-02-27T10:50:22Z</time>
      </trkpt>
      <trkpt lat="45.23138" lon="6.063">
        <ele>2452.4</ele>
        <time>2021-02-27T10:50:23Z</time>
      </trkpt>
      <trkpt lat="45.2314" lon="6.06302">
        <ele>2451.4</ele>
        <time>2021-02-27T10:50:24Z</time>
      </trkpt>
      <trkpt lat="45.23143" lon="6.06307">
        <ele>2449.6</ele>
        <time>2021-02-27T10:50:25Z</time>
      </trkpt>
      <trkpt lat="45.23146" lon="6.0633">
        <ele>2447.2</ele>
        <time>2021-02-27T10:50:26Z</time>
      </trkpt>
      <trkpt lat="45.23147" lon="6.06333">
        <ele>2445.6</ele>
        <time>2021-02-27T10:50:27Z</time>
      </trkpt>
      <trkpt lat="45.23147" lon="6.0634">
        <ele>2445</ele>
        <time>2021-02-27T10:50:28Z</time>
      </trkpt>
      <trkpt lat="45.23147" lon="6.0634">
        <ele>2443.8</ele>
        <time>2021-02-27T10:50:29Z</time>
      </trkpt>
      <trkpt lat="45.23147" lon="6.0634">
        <ele>2442.6</ele>
        <time>2021-02-27T10:50:30Z</time>
      </trkpt>
      <trkpt lat="45.23147" lon="6.0634">
        <ele>2442</ele>
        <time>2021-02-27T10:50:31Z</time>
      </trkpt>
      <trkpt lat="45.23147" lon="6.0634">
        <ele>2441.8</ele>
        <time>2021-02-27T10:50:32Z</time>
      </trkpt>
      <trkpt lat="45.23149" lon="6.06339">
        <ele>2442</ele>
        <time>2021-02-27T10:50:33Z</time>
      </trkpt>
      <trkpt lat="45.23151" lon="6.06341">
        <ele>2440.8</ele>
        <time>2021-02-27T10:50:34Z</time>
      </trkpt>
      <trkpt lat="45.23151" lon="6.06341">
        <ele>2440.4</ele>
        <time>2021-02-27T10:50:35Z</time>
      </trkpt>
      <trkpt lat="45.23162" lon="6.06354">
        <ele>2440</ele>
        <time>2021-02-27T10:50:36Z</time>
      </trkpt>
      <trkpt lat="45.23165" lon="6.06357">
        <ele>2439.4</ele>
        <time>2021-02-27T10:50:37Z</time>
      </trkpt>
      <trkpt lat="45.2317" lon="6.06363">
        <ele>2438.8</ele>
        <time>2021-02-27T10:50:38Z</time>
      </trkpt>
      <trkpt lat="45.23175" lon="6.06369">
        <ele>2437.8</ele>
        <time>2021-02-27T10:50:39Z</time>
      </trkpt>
      <trkpt lat="45.2318" lon="6.06374">
        <ele>2436.2</ele>
        <time>2021-02-27T10:50:40Z</time>
      </trkpt>
      <trkpt lat="45.23184" lon="6.0638">
        <ele>2435.4</ele>
        <time>2021-02-27T10:50:41Z</time>
      </trkpt>
      <trkpt lat="45.23189" lon="6.06384">
        <ele>2434.4</ele>
        <time>2021-02-27T10:50:42Z</time>
      </trkpt>
      <trkpt lat="45.23193" lon="6.06389">
        <ele>2433.6</ele>
        <time>2021-02-27T10:50:43Z</time>
      </trkpt>
      <trkpt lat="45.23197" lon="6.06393">
        <ele>2432.8</ele>
        <time>2021-02-27T10:50:44Z</time>
      </trkpt>
      <trkpt lat="45.23201" lon="6.06398">
        <ele>2432.2</ele>
        <time>2021-02-27T10:50:45Z</time>
      </trkpt>
      <trkpt lat="45.23206" lon="6.06403">
        <ele>2431</ele>
        <time>2021-02-27T10:50:46Z</time>
      </trkpt>
      <trkpt lat="45.23212" lon="6.06407">
        <ele>2430.2</ele>
        <time>2021-02-27T10:50:47Z</time>
      </trkpt>
      <trkpt lat="45.2322" lon="6.06413">
        <ele>2429.4</ele>
        <time>2021-02-27T10:50:48Z</time>
      </trkpt>
      <trkpt lat="45.23228" lon="6.06419">
        <ele>2428.4</ele>
        <time>2021-02-27T10:50:49Z</time>
      </trkpt>
      <trkpt lat="45.23237" lon="6.06425">
        <ele>2427</ele>
        <time>2021-02-27T10:50:50Z</time>
      </trkpt>
      <trkpt lat="45.23244" lon="6.06429">
        <ele>2425.8</ele>
        <time>2021-02-27T10:50:51Z</time>
      </trkpt>
      <trkpt lat="45.23251" lon="6.06431">
        <ele>2423.8</ele>
        <time>2021-02-27T10:50:52Z</time>
      </trkpt>
      <trkpt lat="45.23257" lon="6.06434">
        <ele>2422.6</ele>
        <time>2021-02-27T10:50:53Z</time>
      </trkpt>
      <trkpt lat="45.23258" lon="6.0644">
        <ele>2422</ele>
        <time>2021-02-27T10:50:54Z</time>
      </trkpt>
      <trkpt lat="45.23258" lon="6.0644">
        <ele>2421.4</ele>
        <time>2021-02-27T10:50:55Z</time>
      </trkpt>
      <trkpt lat="45.23247" lon="6.06449">
        <ele>2420.2</ele>
        <time>2021-02-27T10:50:56Z</time>
      </trkpt>
      <trkpt lat="45.23245" lon="6.06451">
        <ele>2419</ele>
        <time>2021-02-27T10:50:57Z</time>
      </trkpt>
      <trkpt lat="45.23243" lon="6.06454">
        <ele>2417.8</ele>
        <time>2021-02-27T10:50:58Z</time>
      </trkpt>
      <trkpt lat="45.23258" lon="6.06483">
        <ele>2415.2</ele>
        <time>2021-02-27T10:50:59Z</time>
      </trkpt>
      <trkpt lat="45.23262" lon="6.06488">
        <ele>2412</ele>
        <time>2021-02-27T10:51:00Z</time>
      </trkpt>
      <trkpt lat="45.23271" lon="6.06497">
        <ele>2408.8</ele>
        <time>2021-02-27T10:51:01Z</time>
      </trkpt>
      <trkpt lat="45.23271" lon="6.06497">
        <ele>2405.8</ele>
        <time>2021-02-27T10:51:02Z</time>
      </trkpt>
      <trkpt lat="45.23271" lon="6.06517">
        <ele>2403.2</ele>
        <time>2021-02-27T10:51:03Z</time>
      </trkpt>
      <trkpt lat="45.23267" lon="6.0652">
        <ele>2401.8</ele>
        <time>2021-02-27T10:51:04Z</time>
      </trkpt>
      <trkpt lat="45.23258" lon="6.06525">
        <ele>2400.2</ele>
        <time>2021-02-27T10:51:05Z</time>
      </trkpt>
      <trkpt lat="45.23249" lon="6.06532">
        <ele>2398.4</ele>
        <time>2021-02-27T10:51:06Z</time>
      </trkpt>
      <trkpt lat="45.23242" lon="6.06542">
        <ele>2396.8</ele>
        <time>2021-02-27T10:51:07Z</time>
      </trkpt>
      <trkpt lat="45.23243" lon="6.06555">
        <ele>2395</ele>
        <time>2021-02-27T10:51:08Z</time>
      </trkpt>
      <trkpt lat="45.23249" lon="6.06568">
        <ele>2392.6</ele>
        <time>2021-02-27T10:51:09Z</time>
      </trkpt>
      <trkpt lat="45.23256" lon="6.06578">
        <ele>2389.8</ele>
        <time>2021-02-27T10:51:10Z</time>
      </trkpt>
      <trkpt lat="45.23262" lon="6.06588">
        <ele>2387.4</ele>
        <time>2021-02-27T10:51:11Z</time>
      </trkpt>
      <trkpt lat="45.23262" lon="6.06588">
        <ele>2384.6</ele>
        <time>2021-02-27T10:51:12Z</time>
      </trkpt>
      <trkpt lat="45.2327" lon="6.06607">
        <ele>2382.8</ele>
        <time>2021-02-27T10:51:13Z</time>
      </trkpt>
      <trkpt lat="45.23268" lon="6.0661">
        <ele>2382.2</ele>
        <time>2021-02-27T10:51:14Z</time>
      </trkpt>
      <trkpt lat="45.23265" lon="6.06621">
        <ele>2381.2</ele>
        <time>2021-02-27T10:51:15Z</time>
      </trkpt>
      <trkpt lat="45.23266" lon="6.06625">
        <ele>2379.8</ele>
        <time>2021-02-27T10:51:16Z</time>
      </trkpt>
      <trkpt lat="45.23269" lon="6.06637">
        <ele>2378.2</ele>
        <time>2021-02-27T10:51:17Z</time>
      </trkpt>
      <trkpt lat="45.2327" lon="6.06641">
        <ele>2376</ele>
        <time>2021-02-27T10:51:18Z</time>
      </trkpt>
      <trkpt lat="45.23274" lon="6.06652">
        <ele>2374.2</ele>
        <time>2021-02-27T10:51:19Z</time>
      </trkpt>
      <trkpt lat="45.23275" lon="6.06654">
        <ele>2372.4</ele>
        <time>2021-02-27T10:51:20Z</time>
      </trkpt>
      <trkpt lat="45.23277" lon="6.06659">
        <ele>2371</ele>
        <time>2021-02-27T10:51:21Z</time>
      </trkpt>
      <trkpt lat="45.23271" lon="6.06675">
        <ele>2369.8</ele>
        <time>2021-02-27T10:51:22Z</time>
      </trkpt>
      <trkpt lat="45.23271" lon="6.06679">
        <ele>2368.8</ele>
        <time>2021-02-27T10:51:23Z</time>
      </trkpt>
      <trkpt lat="45.23274" lon="6.06688">
        <ele>2367</ele>
        <time>2021-02-27T10:51:24Z</time>
      </trkpt>
      <trkpt lat="45.23277" lon="6.06697">
        <ele>2364.8</ele>
        <time>2021-02-27T10:51:25Z</time>
      </trkpt>
      <trkpt lat="45.23279" lon="6.06707">
        <ele>2362.6</ele>
        <time>2021-02-27T10:51:26Z</time>
      </trkpt>
      <trkpt lat="45.2328" lon="6.06717">
        <ele>2360.8</ele>
        <time>2021-02-27T10:51:27Z</time>
      </trkpt>
      <trkpt lat="45.23282" lon="6.06726">
        <ele>2359.4</ele>
        <time>2021-02-27T10:51:28Z</time>
      </trkpt>
      <trkpt lat="45.23282" lon="6.06734">
        <ele>2357.8</ele>
        <time>2021-02-27T10:51:29Z</time>
      </trkpt>
      <trkpt lat="45.2328" lon="6.06741">
        <ele>2356.4</ele>
        <time>2021-02-27T10:51:30Z</time>
      </trkpt>
      <trkpt lat="45.2328" lon="6.06747">
        <ele>2355.4</ele>
        <time>2021-02-27T10:51:31Z</time>
      </trkpt>
      <trkpt lat="45.23279" lon="6.06753">
        <ele>2353.4</ele>
        <time>2021-02-27T10:51:32Z</time>
      </trkpt>
      <trkpt lat="45.23277" lon="6.06762">
        <ele>2351.6</ele>
        <time>2021-02-27T10:51:33Z</time>
      </trkpt>
      <trkpt lat="45.23279" lon="6.0677">
        <ele>2349.6</ele>
        <time>2021-02-27T10:51:34Z</time>
      </trkpt>
      <trkpt lat="45.23283" lon="6.06777">
        <ele>2347</ele>
        <time>2021-02-27T10:51:35Z</time>
      </trkpt>
      <trkpt lat="45.23287" lon="6.06785">
        <ele>2344</ele>
        <time>2021-02-27T10:51:36Z</time>
      </trkpt>
      <trkpt lat="45.23288" lon="6.06793">
        <ele>2341.6</ele>
        <time>2021-02-27T10:51:37Z</time>
      </trkpt>
      <trkpt lat="45.23284" lon="6.06799">
        <ele>2339.6</ele>
        <time>2021-02-27T10:51:38Z</time>
      </trkpt>
      <trkpt lat="45.23284" lon="6.06799">
        <ele>2338</ele>
        <time>2021-02-27T10:51:39Z</time>
      </trkpt>
      <trkpt lat="45.23275" lon="6.06816">
        <ele>2336.4</ele>
        <time>2021-02-27T10:51:40Z</time>
      </trkpt>
      <trkpt lat="45.23274" lon="6.0682">
        <ele>2334.2</ele>
        <time>2021-02-27T10:51:41Z</time>
      </trkpt>
      <trkpt lat="45.23272" lon="6.06826">
        <ele>2331.4</ele>
        <time>2021-02-27T10:51:42Z</time>
      </trkpt>
      <trkpt lat="45.23267" lon="6.06829">
        <ele>2328.6</ele>
        <time>2021-02-27T10:51:43Z</time>
      </trkpt>
      <trkpt lat="45.23264" lon="6.06836">
        <ele>2326.2</ele>
        <time>2021-02-27T10:51:44Z</time>
      </trkpt>
      <trkpt lat="45.23262" lon="6.06845">
        <ele>2322.8</ele>
        <time>2021-02-27T10:51:45Z</time>
      </trkpt>
      <trkpt lat="45.23262" lon="6.06845">
        <ele>2319.8</ele>
        <time>2021-02-27T10:51:46Z</time>
      </trkpt>
      <trkpt lat="45.23252" lon="6.0686">
        <ele>2316.8</ele>
        <time>2021-02-27T10:51:47Z</time>
      </trkpt>
      <trkpt lat="45.23252" lon="6.06864">
        <ele>2314</ele>
        <time>2021-02-27T10:51:48Z</time>
      </trkpt>
      <trkpt lat="45.2325" lon="6.06876">
        <ele>2310.8</ele>
        <time>2021-02-27T10:51:49Z</time>
      </trkpt>
      <trkpt lat="45.23248" lon="6.06881">
        <ele>2307.2</ele>
        <time>2021-02-27T10:51:50Z</time>
      </trkpt>
      <trkpt lat="45.23245" lon="6.06894">
        <ele>2304</ele>
        <time>2021-02-27T10:51:51Z</time>
      </trkpt>
      <trkpt lat="45.23245" lon="6.06898">
        <ele>2300.6</ele>
        <time>2021-02-27T10:51:52Z</time>
      </trkpt>
      <trkpt lat="45.23246" lon="6.0691">
        <ele>2297.8</ele>
        <time>2021-02-27T10:51:53Z</time>
      </trkpt>
      <trkpt lat="45.23246" lon="6.06915">
        <ele>2294.2</ele>
        <time>2021-02-27T10:51:54Z</time>
      </trkpt>
      <trkpt lat="45.23246" lon="6.06928">
        <ele>2291.4</ele>
        <time>2021-02-27T10:51:55Z</time>
      </trkpt>
      <trkpt lat="45.23247" lon="6.06931">
        <ele>2288.6</ele>
        <time>2021-02-27T10:51:56Z</time>
      </trkpt>
      <trkpt lat="45.2325" lon="6.06942">
        <ele>2286</ele>
        <time>2021-02-27T10:51:57Z</time>
      </trkpt>
      <trkpt lat="45.2325" lon="6.06945">
        <ele>2283.8</ele>
        <time>2021-02-27T10:51:58Z</time>
      </trkpt>
      <trkpt lat="45.23251" lon="6.06951">
        <ele>2281.2</ele>
        <time>2021-02-27T10:51:59Z</time>
      </trkpt>
      <trkpt lat="45.23249" lon="6.06979">
        <ele>2278.4</ele>
        <time>2021-02-27T10:52:00Z</time>
      </trkpt>
      <trkpt lat="45.23249" lon="6.06985">
        <ele>2276.2</ele>
        <time>2021-02-27T10:52:01Z</time>
      </trkpt>
      <trkpt lat="45.2325" lon="6.07003">
        <ele>2274.4</ele>
        <time>2021-02-27T10:52:02Z</time>
      </trkpt>
      <trkpt lat="45.23251" lon="6.0701">
        <ele>2271.8</ele>
        <time>2021-02-27T10:52:03Z</time>
      </trkpt>
      <trkpt lat="45.23254" lon="6.07024">
        <ele>2269.4</ele>
        <time>2021-02-27T10:52:04Z</time>
      </trkpt>
      <trkpt lat="45.23254" lon="6.07024">
        <ele>2266.8</ele>
        <time>2021-02-27T10:52:05Z</time>
      </trkpt>
      <trkpt lat="45.23257" lon="6.07044">
        <ele>2265.2</ele>
        <time>2021-02-27T10:52:06Z</time>
      </trkpt>
      <trkpt lat="45.23256" lon="6.07049">
        <ele>2264</ele>
        <time>2021-02-27T10:52:07Z</time>
      </trkpt>
      <trkpt lat="45.23254" lon="6.07061">
        <ele>2262.8</ele>
        <time>2021-02-27T10:52:08Z</time>
      </trkpt>
      <trkpt lat="45.23254" lon="6.07064">
        <ele>2260.8</ele>
        <time>2021-02-27T10:52:09Z</time>
      </trkpt>
      <trkpt lat="45.23254" lon="6.07071">
        <ele>2258.6</ele>
        <time>2021-02-27T10:52:10Z</time>
      </trkpt>
      <trkpt lat="45.2326" lon="6.07097">
        <ele>2256.4</ele>
        <time>2021-02-27T10:52:11Z</time>
      </trkpt>
      <trkpt lat="45.2326" lon="6.07101">
        <ele>2254.2</ele>
        <time>2021-02-27T10:52:12Z</time>
      </trkpt>
      <trkpt lat="45.23259" lon="6.07115">
        <ele>2252.4</ele>
        <time>2021-02-27T10:52:13Z</time>
      </trkpt>
      <trkpt lat="45.23258" lon="6.0712">
        <ele>2251.2</ele>
        <time>2021-02-27T10:52:14Z</time>
      </trkpt>
      <trkpt lat="45.23258" lon="6.07137">
        <ele>2250.4</ele>
        <time>2021-02-27T10:52:15Z</time>
      </trkpt>
      <trkpt lat="45.23259" lon="6.07144">
        <ele>2248.4</ele>
        <time>2021-02-27T10:52:16Z</time>
      </trkpt>
      <trkpt lat="45.23261" lon="6.07157">
        <ele>2245.8</ele>
        <time>2021-02-27T10:52:17Z</time>
      </trkpt>
      <trkpt lat="45.23263" lon="6.07171">
        <ele>2243.2</ele>
        <time>2021-02-27T10:52:18Z</time>
      </trkpt>
      <trkpt lat="45.23265" lon="6.07184">
        <ele>2241.4</ele>
        <time>2021-02-27T10:52:19Z</time>
      </trkpt>
      <trkpt lat="45.23266" lon="6.07198">
        <ele>2239</ele>
        <time>2021-02-27T10:52:20Z</time>
      </trkpt>
      <trkpt lat="45.23268" lon="6.07212">
        <ele>2238</ele>
        <time>2021-02-27T10:52:21Z</time>
      </trkpt>
      <trkpt lat="45.23271" lon="6.07223">
        <ele>2236.4</ele>
        <time>2021-02-27T10:52:22Z</time>
      </trkpt>
      <trkpt lat="45.23272" lon="6.07234">
        <ele>2235.2</ele>
        <time>2021-02-27T10:52:23Z</time>
      </trkpt>
      <trkpt lat="45.23273" lon="6.07244">
        <ele>2233.8</ele>
        <time>2021-02-27T10:52:24Z</time>
      </trkpt>
      <trkpt lat="45.23276" lon="6.07252">
        <ele>2233</ele>
        <time>2021-02-27T10:52:25Z</time>
      </trkpt>
      <trkpt lat="45.2328" lon="6.07258">
        <ele>2231.6</ele>
        <time>2021-02-27T10:52:26Z</time>
      </trkpt>
      <trkpt lat="45.23283" lon="6.07264">
        <ele>2230.4</ele>
        <time>2021-02-27T10:52:27Z</time>
      </trkpt>
      <trkpt lat="45.23286" lon="6.07272">
        <ele>2229.4</ele>
        <time>2021-02-27T10:52:28Z</time>
      </trkpt>
      <trkpt lat="45.23289" lon="6.07279">
        <ele>2228.6</ele>
        <time>2021-02-27T10:52:29Z</time>
      </trkpt>
      <trkpt lat="45.23291" lon="6.07285">
        <ele>2227.2</ele>
        <time>2021-02-27T10:52:30Z</time>
      </trkpt>
      <trkpt lat="45.23293" lon="6.07289">
        <ele>2226.2</ele>
        <time>2021-02-27T10:52:31Z</time>
      </trkpt>
      <trkpt lat="45.23293" lon="6.07289">
        <ele>2225.4</ele>
        <time>2021-02-27T10:52:32Z</time>
      </trkpt>
      <trkpt lat="45.23293" lon="6.07289">
        <ele>2225.2</ele>
        <time>2021-02-27T10:52:33Z</time>
      </trkpt>
      <trkpt lat="45.23293" lon="6.07289">
        <ele>2225.2</ele>
        <time>2021-02-27T10:52:34Z</time>
      </trkpt>
      <trkpt lat="45.23293" lon="6.07289">
        <ele>2225.4</ele>
        <time>2021-02-27T10:52:35Z</time>
      </trkpt>
      <trkpt lat="45.23293" lon="6.07289">
        <ele>2225.4</ele>
        <time>2021-02-27T10:52:36Z</time>
      </trkpt>
      <trkpt lat="45.23293" lon="6.07289">
        <ele>2225.4</ele>
        <time>2021-02-27T10:52:37Z</time>
      </trkpt>
      <trkpt lat="45.23293" lon="6.07289">
        <ele>2225.4</ele>
        <time>2021-02-27T10:52:38Z</time>
      </trkpt>
      <trkpt lat="45.23293" lon="6.07289">
        <ele>2225.4</ele>
        <time>2021-02-27T10:52:39Z</time>
      </trkpt>
      <trkpt lat="45.23293" lon="6.07289">
        <ele>2225.6</ele>
        <time>2021-02-27T10:52:40Z</time>
      </trkpt>
      <trkpt lat="45.23293" lon="6.07289">
        <ele>2225.4</ele>
        <time>2021-02-27T10:52:41Z</time>
      </trkpt>
      <trkpt lat="45.23293" lon="6.07289">
        <ele>2225.6</ele>
        <time>2021-02-27T10:52:42Z</time>
      </trkpt>
      <trkpt lat="45.23293" lon="6.07289">
        <ele>2225.4</ele>
        <time>2021-02-27T10:52:43Z</time>
      </trkpt>
      <trkpt lat="45.23293" lon="6.07289">
        <ele>2225.4</ele>
        <time>2021-02-27T10:52:44Z</time>
      </trkpt>
      <trkpt lat="45.23293" lon="6.07289">
        <ele>2225.6</ele>
        <time>2021-02-27T10:52:45Z</time>
      </trkpt>
      <trkpt lat="45.23293" lon="6.07289">
        <ele>2225.6</ele>
        <time>2021-02-27T10:52:46Z</time>
      </trkpt>
      <trkpt lat="45.23293" lon="6.07289">
        <ele>2225.6</ele>
        <time>2021-02-27T10:52:47Z</time>
      </trkpt>
      <trkpt lat="45.23291" lon="6.07288">
        <ele>2225.8</ele>
        <time>2021-02-27T10:52:48Z</time>
      </trkpt>
      <trkpt lat="45.23291" lon="6.07288">
        <ele>2225.8</ele>
        <time>2021-02-27T10:52:49Z</time>
      </trkpt>
      <trkpt lat="45.23291" lon="6.07288">
        <ele>2225.4</ele>
        <time>2021-02-27T10:52:50Z</time>
      </trkpt>
      <trkpt lat="45.23291" lon="6.07288">
        <ele>2225.4</ele>
        <time>2021-02-27T10:52:51Z</time>
      </trkpt>
      <trkpt lat="45.23291" lon="6.07288">
        <ele>2225.2</ele>
        <time>2021-02-27T10:52:52Z</time>
      </trkpt>
      <trkpt lat="45.2329" lon="6.07286">
        <ele>2225.6</ele>
        <time>2021-02-27T10:52:53Z</time>
      </trkpt>
      <trkpt lat="45.2329" lon="6.07286">
        <ele>2225.6</ele>
        <time>2021-02-27T10:52:54Z</time>
      </trkpt>
      <trkpt lat="45.2329" lon="6.07286">
        <ele>2226</ele>
        <time>2021-02-27T10:52:55Z</time>
      </trkpt>
      <trkpt lat="45.2329" lon="6.07286">
        <ele>2226.2</ele>
        <time>2021-02-27T10:52:56Z</time>
      </trkpt>
      <trkpt lat="45.2329" lon="6.07286">
        <ele>2226.6</ele>
        <time>2021-02-27T10:52:57Z</time>
      </trkpt>
      <trkpt lat="45.2329" lon="6.07286">
        <ele>2226.8</ele>
        <time>2021-02-27T10:52:58Z</time>
      </trkpt>
      <trkpt lat="45.2329" lon="6.07286">
        <ele>2227</ele>
        <time>2021-02-27T10:52:59Z</time>
      </trkpt>
      <trkpt lat="45.2329" lon="6.07286">
        <ele>2227</ele>
        <time>2021-02-27T10:53:00Z</time>
      </trkpt>
      <trkpt lat="45.2329" lon="6.07286">
        <ele>2227.2</ele>
        <time>2021-02-27T10:53:01Z</time>
      </trkpt>
      <trkpt lat="45.2329" lon="6.07286">
        <ele>2227.4</ele>
        <time>2021-02-27T10:53:02Z</time>
      </trkpt>
      <trkpt lat="45.2329" lon="6.07286">
        <ele>2227</ele>
        <time>2021-02-27T10:53:03Z</time>
      </trkpt>
      <trkpt lat="45.2329" lon="6.07286">
        <ele>2227.2</ele>
        <time>2021-02-27T10:53:04Z</time>
      </trkpt>
      <trkpt lat="45.2329" lon="6.07286">
        <ele>2227</ele>
        <time>2021-02-27T10:53:05Z</time>
      </trkpt>
      <trkpt lat="45.2329" lon="6.07286">
        <ele>2227</ele>
        <time>2021-02-27T10:53:06Z</time>
      </trkpt>
      <trkpt lat="45.2329" lon="6.07286">
        <ele>2226.8</ele>
        <time>2021-02-27T10:53:07Z</time>
      </trkpt>
      <trkpt lat="45.2329" lon="6.07286">
        <ele>2226.6</ele>
        <time>2021-02-27T10:53:08Z</time>
      </trkpt>
      <trkpt lat="45.2329" lon="6.07286">
        <ele>2226.4</ele>
        <time>2021-02-27T10:53:09Z</time>
      </trkpt>
      <trkpt lat="45.2329" lon="6.07286">
        <ele>2226.4</ele>
        <time>2021-02-27T10:53:10Z</time>
      </trkpt>
      <trkpt lat="45.2329" lon="6.07286">
        <ele>2226.2</ele>
        <time>2021-02-27T10:53:11Z</time>
      </trkpt>
      <trkpt lat="45.2329" lon="6.07286">
        <ele>2226.2</ele>
        <time>2021-02-27T10:53:12Z</time>
      </trkpt>
      <trkpt lat="45.2329" lon="6.07286">
        <ele>2225.6</ele>
        <time>2021-02-27T10:53:13Z</time>
      </trkpt>
      <trkpt lat="45.2329" lon="6.07286">
        <ele>2225.8</ele>
        <time>2021-02-27T10:53:14Z</time>
      </trkpt>
      <trkpt lat="45.2329" lon="6.07286">
        <ele>2225.8</ele>
        <time>2021-02-27T10:53:15Z</time>
      </trkpt>
      <trkpt lat="45.2329" lon="6.07286">
        <ele>2225.6</ele>
        <time>2021-02-27T10:53:16Z</time>
      </trkpt>
      <trkpt lat="45.2329" lon="6.07286">
        <ele>2225.4</ele>
        <time>2021-02-27T10:53:17Z</time>
      </trkpt>
      <trkpt lat="45.2329" lon="6.07286">
        <ele>2225.4</ele>
        <time>2021-02-27T10:53:18Z</time>
      </trkpt>
      <trkpt lat="45.2329" lon="6.07286">
        <ele>2225.2</ele>
        <time>2021-02-27T10:53:19Z</time>
      </trkpt>
      <trkpt lat="45.2329" lon="6.07286">
        <ele>2225</ele>
        <time>2021-02-27T10:53:20Z</time>
      </trkpt>
      <trkpt lat="45.2329" lon="6.07286">
        <ele>2225.2</ele>
        <time>2021-02-27T10:53:21Z</time>
      </trkpt>
      <trkpt lat="45.2329" lon="6.07286">
        <ele>2225.2</ele>
        <time>2021-02-27T10:53:22Z</time>
      </trkpt>
      <trkpt lat="45.2329" lon="6.07286">
        <ele>2225</ele>
        <time>2021-02-27T10:53:23Z</time>
      </trkpt>
      <trkpt lat="45.2329" lon="6.07286">
        <ele>2224.8</ele>
        <time>2021-02-27T10:53:24Z</time>
      </trkpt>
      <trkpt lat="45.2329" lon="6.07286">
        <ele>2224.8</ele>
        <time>2021-02-27T10:53:25Z</time>
      </trkpt>
      <trkpt lat="45.2329" lon="6.07286">
        <ele>2224.8</ele>
        <time>2021-02-27T10:53:26Z</time>
      </trkpt>
      <trkpt lat="45.2329" lon="6.07286">
        <ele>2224.6</ele>
        <time>2021-02-27T10:53:27Z</time>
      </trkpt>
      <trkpt lat="45.2329" lon="6.07286">
        <ele>2224.6</ele>
        <time>2021-02-27T10:53:28Z</time>
      </trkpt>
      <trkpt lat="45.2329" lon="6.07286">
        <ele>2224.6</ele>
        <time>2021-02-27T10:53:29Z</time>
      </trkpt>
      <trkpt lat="45.2329" lon="6.07286">
        <ele>2224.6</ele>
        <time>2021-02-27T10:53:30Z</time>
      </trkpt>
      <trkpt lat="45.2329" lon="6.07286">
        <ele>2224.6</ele>
        <time>2021-02-27T10:53:31Z</time>
      </trkpt>
      <trkpt lat="45.2329" lon="6.07286">
        <ele>2224.2</ele>
        <time>2021-02-27T10:53:32Z</time>
      </trkpt>
      <trkpt lat="45.2329" lon="6.07286">
        <ele>2224</ele>
        <time>2021-02-27T10:53:33Z</time>
      </trkpt>
      <trkpt lat="45.2329" lon="6.07286">
        <ele>2224</ele>
        <time>2021-02-27T10:53:34Z</time>
      </trkpt>
      <trkpt lat="45.2329" lon="6.07288">
        <ele>2223.6</ele>
        <time>2021-02-27T10:53:35Z</time>
      </trkpt>
      <trkpt lat="45.23291" lon="6.07292">
        <ele>2223</ele>
        <time>2021-02-27T10:53:36Z</time>
      </trkpt>
      <trkpt lat="45.23293" lon="6.07295">
        <ele>2222.8</ele>
        <time>2021-02-27T10:53:37Z</time>
      </trkpt>
      <trkpt lat="45.23295" lon="6.07299">
        <ele>2222</ele>
        <time>2021-02-27T10:53:38Z</time>
      </trkpt>
      <trkpt lat="45.23299" lon="6.07303">
        <ele>2221.4</ele>
        <time>2021-02-27T10:53:39Z</time>
      </trkpt>
      <trkpt lat="45.23303" lon="6.07308">
        <ele>2220.8</ele>
        <time>2021-02-27T10:53:40Z</time>
      </trkpt>
      <trkpt lat="45.23308" lon="6.07314">
        <ele>2219.6</ele>
        <time>2021-02-27T10:53:41Z</time>
      </trkpt>
      <trkpt lat="45.23311" lon="6.0732">
        <ele>2218.2</ele>
        <time>2021-02-27T10:53:42Z</time>
      </trkpt>
      <trkpt lat="45.23314" lon="6.07327">
        <ele>2217</ele>
        <time>2021-02-27T10:53:43Z</time>
      </trkpt>
      <trkpt lat="45.23316" lon="6.07334">
        <ele>2216.2</ele>
        <time>2021-02-27T10:53:44Z</time>
      </trkpt>
      <trkpt lat="45.23317" lon="6.07341">
        <ele>2215.6</ele>
        <time>2021-02-27T10:53:45Z</time>
      </trkpt>
      <trkpt lat="45.2332" lon="6.07347">
        <ele>2215</ele>
        <time>2021-02-27T10:53:46Z</time>
      </trkpt>
      <trkpt lat="45.23322" lon="6.07354">
        <ele>2214</ele>
        <time>2021-02-27T10:53:47Z</time>
      </trkpt>
      <trkpt lat="45.23324" lon="6.0736">
        <ele>2213.2</ele>
        <time>2021-02-27T10:53:48Z</time>
      </trkpt>
      <trkpt lat="45.23326" lon="6.07367">
        <ele>2212.8</ele>
        <time>2021-02-27T10:53:49Z</time>
      </trkpt>
      <trkpt lat="45.23329" lon="6.07374">
        <ele>2212</ele>
        <time>2021-02-27T10:53:50Z</time>
      </trkpt>
      <trkpt lat="45.23332" lon="6.07382">
        <ele>2211.2</ele>
        <time>2021-02-27T10:53:51Z</time>
      </trkpt>
      <trkpt lat="45.23335" lon="6.07391">
        <ele>2210.4</ele>
        <time>2021-02-27T10:53:52Z</time>
      </trkpt>
      <trkpt lat="45.23337" lon="6.074">
        <ele>2209.8</ele>
        <time>2021-02-27T10:53:53Z</time>
      </trkpt>
      <trkpt lat="45.23339" lon="6.07411">
        <ele>2208.8</ele>
        <time>2021-02-27T10:53:54Z</time>
      </trkpt>
      <trkpt lat="45.2334" lon="6.0742">
        <ele>2207.6</ele>
        <time>2021-02-27T10:53:55Z</time>
      </trkpt>
      <trkpt lat="45.23341" lon="6.07429">
        <ele>2206</ele>
        <time>2021-02-27T10:53:56Z</time>
      </trkpt>
      <trkpt lat="45.23342" lon="6.07436">
        <ele>2205.2</ele>
        <time>2021-02-27T10:53:57Z</time>
      </trkpt>
      <trkpt lat="45.23342" lon="6.07442">
        <ele>2204.4</ele>
        <time>2021-02-27T10:53:58Z</time>
      </trkpt>
      <trkpt lat="45.23342" lon="6.07448">
        <ele>2203.4</ele>
        <time>2021-02-27T10:53:59Z</time>
      </trkpt>
      <trkpt lat="45.23343" lon="6.07452">
        <ele>2202.8</ele>
        <time>2021-02-27T10:54:00Z</time>
      </trkpt>
      <trkpt lat="45.23343" lon="6.07455">
        <ele>2202.6</ele>
        <time>2021-02-27T10:54:01Z</time>
      </trkpt>
      <trkpt lat="45.23344" lon="6.07459">
        <ele>2202.4</ele>
        <time>2021-02-27T10:54:02Z</time>
      </trkpt>
      <trkpt lat="45.23346" lon="6.07463">
        <ele>2202</ele>
        <time>2021-02-27T10:54:03Z</time>
      </trkpt>
      <trkpt lat="45.23346" lon="6.07467">
        <ele>2202</ele>
        <time>2021-02-27T10:54:04Z</time>
      </trkpt>
      <trkpt lat="45.23347" lon="6.07472">
        <ele>2202</ele>
        <time>2021-02-27T10:54:05Z</time>
      </trkpt>
      <trkpt lat="45.23349" lon="6.07476">
        <ele>2201.6</ele>
        <time>2021-02-27T10:54:06Z</time>
      </trkpt>
      <trkpt lat="45.23352" lon="6.07481">
        <ele>2200.4</ele>
        <time>2021-02-27T10:54:07Z</time>
      </trkpt>
      <trkpt lat="45.23354" lon="6.07486">
        <ele>2199.6</ele>
        <time>2021-02-27T10:54:08Z</time>
      </trkpt>
      <trkpt lat="45.23357" lon="6.07493">
        <ele>2199.4</ele>
        <time>2021-02-27T10:54:09Z</time>
      </trkpt>
      <trkpt lat="45.2336" lon="6.07501">
        <ele>2198.6</ele>
        <time>2021-02-27T10:54:10Z</time>
      </trkpt>
      <trkpt lat="45.23363" lon="6.0751">
        <ele>2198.2</ele>
        <time>2021-02-27T10:54:11Z</time>
      </trkpt>
      <trkpt lat="45.23366" lon="6.0752">
        <ele>2197.2</ele>
        <time>2021-02-27T10:54:12Z</time>
      </trkpt>
      <trkpt lat="45.23368" lon="6.0753">
        <ele>2195.8</ele>
        <time>2021-02-27T10:54:13Z</time>
      </trkpt>
      <trkpt lat="45.2337" lon="6.07538">
        <ele>2194.4</ele>
        <time>2021-02-27T10:54:14Z</time>
      </trkpt>
      <trkpt lat="45.23371" lon="6.07547">
        <ele>2193.8</ele>
        <time>2021-02-27T10:54:15Z</time>
      </trkpt>
      <trkpt lat="45.23371" lon="6.07547">
        <ele>2193.2</ele>
        <time>2021-02-27T10:54:16Z</time>
      </trkpt>
      <trkpt lat="45.2337" lon="6.07562">
        <ele>2193</ele>
        <time>2021-02-27T10:54:17Z</time>
      </trkpt>
      <trkpt lat="45.2337" lon="6.07562">
        <ele>2192.4</ele>
        <time>2021-02-27T10:54:18Z</time>
      </trkpt>
      <trkpt lat="45.23371" lon="6.07567">
        <ele>2192</ele>
        <time>2021-02-27T10:54:19Z</time>
      </trkpt>
      <trkpt lat="45.23371" lon="6.07571">
        <ele>2191.8</ele>
        <time>2021-02-27T10:54:20Z</time>
      </trkpt>
      <trkpt lat="45.23371" lon="6.07575">
        <ele>2191.4</ele>
        <time>2021-02-27T10:54:21Z</time>
      </trkpt>
      <trkpt lat="45.23373" lon="6.07582">
        <ele>2191.2</ele>
        <time>2021-02-27T10:54:22Z</time>
      </trkpt>
      <trkpt lat="45.23375" lon="6.07589">
        <ele>2191</ele>
        <time>2021-02-27T10:54:23Z</time>
      </trkpt>
      <trkpt lat="45.23377" lon="6.07596">
        <ele>2190.4</ele>
        <time>2021-02-27T10:54:24Z</time>
      </trkpt>
      <trkpt lat="45.23379" lon="6.07601">
        <ele>2190</ele>
        <time>2021-02-27T10:54:25Z</time>
      </trkpt>
      <trkpt lat="45.2338" lon="6.07607">
        <ele>2189.6</ele>
        <time>2021-02-27T10:54:26Z</time>
      </trkpt>
      <trkpt lat="45.23382" lon="6.07613">
        <ele>2189</ele>
        <time>2021-02-27T10:54:27Z</time>
      </trkpt>
      <trkpt lat="45.23384" lon="6.07619">
        <ele>2188.6</ele>
        <time>2021-02-27T10:54:28Z</time>
      </trkpt>
      <trkpt lat="45.23386" lon="6.07624">
        <ele>2188.4</ele>
        <time>2021-02-27T10:54:29Z</time>
      </trkpt>
      <trkpt lat="45.23387" lon="6.07629">
        <ele>2188</ele>
        <time>2021-02-27T10:54:30Z</time>
      </trkpt>
      <trkpt lat="45.23389" lon="6.07635">
        <ele>2188.2</ele>
        <time>2021-02-27T10:54:31Z</time>
      </trkpt>
      <trkpt lat="45.2339" lon="6.07641">
        <ele>2188.2</ele>
        <time>2021-02-27T10:54:32Z</time>
      </trkpt>
      <trkpt lat="45.2339" lon="6.07647">
        <ele>2188.6</ele>
        <time>2021-02-27T10:54:33Z</time>
      </trkpt>
      <trkpt lat="45.23391" lon="6.07652">
        <ele>2188.6</ele>
        <time>2021-02-27T10:54:34Z</time>
      </trkpt>
      <trkpt lat="45.23392" lon="6.07657">
        <ele>2188.4</ele>
        <time>2021-02-27T10:54:35Z</time>
      </trkpt>
      <trkpt lat="45.23392" lon="6.07661">
        <ele>2188</ele>
        <time>2021-02-27T10:54:36Z</time>
      </trkpt>
      <trkpt lat="45.23393" lon="6.07664">
        <ele>2188.4</ele>
        <time>2021-02-27T10:54:37Z</time>
      </trkpt>
      <trkpt lat="45.23394" lon="6.07668">
        <ele>2188.2</ele>
        <time>2021-02-27T10:54:38Z</time>
      </trkpt>
      <trkpt lat="45.23395" lon="6.07672">
        <ele>2188</ele>
        <time>2021-02-27T10:54:39Z</time>
      </trkpt>
      <trkpt lat="45.23396" lon="6.07677">
        <ele>2188.2</ele>
        <time>2021-02-27T10:54:40Z</time>
      </trkpt>
      <trkpt lat="45.23398" lon="6.07683">
        <ele>2188.2</ele>
        <time>2021-02-27T10:54:41Z</time>
      </trkpt>
      <trkpt lat="45.234" lon="6.0769">
        <ele>2187.8</ele>
        <time>2021-02-27T10:54:42Z</time>
      </trkpt>
      <trkpt lat="45.23403" lon="6.07697">
        <ele>2187.2</ele>
        <time>2021-02-27T10:54:43Z</time>
      </trkpt>
      <trkpt lat="45.23406" lon="6.07704">
        <ele>2186.8</ele>
        <time>2021-02-27T10:54:44Z</time>
      </trkpt>
      <trkpt lat="45.23409" lon="6.07712">
        <ele>2186</ele>
        <time>2021-02-27T10:54:45Z</time>
      </trkpt>
      <trkpt lat="45.23412" lon="6.07719">
        <ele>2185</ele>
        <time>2021-02-27T10:54:46Z</time>
      </trkpt>
      <trkpt lat="45.23416" lon="6.07727">
        <ele>2184.2</ele>
        <time>2021-02-27T10:54:47Z</time>
      </trkpt>
      <trkpt lat="45.23417" lon="6.07735">
        <ele>2183.8</ele>
        <time>2021-02-27T10:54:48Z</time>
      </trkpt>
      <trkpt lat="45.23415" lon="6.07743">
        <ele>2183.2</ele>
        <time>2021-02-27T10:54:49Z</time>
      </trkpt>
      <trkpt lat="45.23415" lon="6.0775">
        <ele>2182.8</ele>
        <time>2021-02-27T10:54:50Z</time>
      </trkpt>
      <trkpt lat="45.23416" lon="6.07758">
        <ele>2181.8</ele>
        <time>2021-02-27T10:54:51Z</time>
      </trkpt>
      <trkpt lat="45.23418" lon="6.07765">
        <ele>2180.8</ele>
        <time>2021-02-27T10:54:52Z</time>
      </trkpt>
      <trkpt lat="45.23419" lon="6.07771">
        <ele>2180.2</ele>
        <time>2021-02-27T10:54:53Z</time>
      </trkpt>
      <trkpt lat="45.23419" lon="6.07776">
        <ele>2179.6</ele>
        <time>2021-02-27T10:54:54Z</time>
      </trkpt>
      <trkpt lat="45.2342" lon="6.07781">
        <ele>2179.4</ele>
        <time>2021-02-27T10:54:55Z</time>
      </trkpt>
      <trkpt lat="45.23421" lon="6.07785">
        <ele>2178.8</ele>
        <time>2021-02-27T10:54:56Z</time>
      </trkpt>
      <trkpt lat="45.23423" lon="6.07788">
        <ele>2178.6</ele>
        <time>2021-02-27T10:54:57Z</time>
      </trkpt>
      <trkpt lat="45.23424" lon="6.07791">
        <ele>2178.4</ele>
        <time>2021-02-27T10:54:58Z</time>
      </trkpt>
      <trkpt lat="45.23425" lon="6.07794">
        <ele>2178</ele>
        <time>2021-02-27T10:54:59Z</time>
      </trkpt>
      <trkpt lat="45.23426" lon="6.07797">
        <ele>2178</ele>
        <time>2021-02-27T10:55:00Z</time>
      </trkpt>
      <trkpt lat="45.23426" lon="6.07797">
        <ele>2178.4</ele>
        <time>2021-02-27T10:55:01Z</time>
      </trkpt>
      <trkpt lat="45.23427" lon="6.07802">
        <ele>2178.6</ele>
        <time>2021-02-27T10:55:02Z</time>
      </trkpt>
      <trkpt lat="45.23427" lon="6.07802">
        <ele>2178.2</ele>
        <time>2021-02-27T10:55:03Z</time>
      </trkpt>
      <trkpt lat="45.23427" lon="6.07806">
        <ele>2178.2</ele>
        <time>2021-02-27T10:55:04Z</time>
      </trkpt>
      <trkpt lat="45.23427" lon="6.07806">
        <ele>2178.2</ele>
        <time>2021-02-27T10:55:05Z</time>
      </trkpt>
      <trkpt lat="45.23428" lon="6.0781">
        <ele>2178</ele>
        <time>2021-02-27T10:55:06Z</time>
      </trkpt>
      <trkpt lat="45.23428" lon="6.0781">
        <ele>2178.4</ele>
        <time>2021-02-27T10:55:07Z</time>
      </trkpt>
      <trkpt lat="45.2343" lon="6.07815">
        <ele>2178.2</ele>
        <time>2021-02-27T10:55:08Z</time>
      </trkpt>
      <trkpt lat="45.23432" lon="6.07818">
        <ele>2177.8</ele>
        <time>2021-02-27T10:55:09Z</time>
      </trkpt>
      <trkpt lat="45.23434" lon="6.07822">
        <ele>2177.6</ele>
        <time>2021-02-27T10:55:10Z</time>
      </trkpt>
      <trkpt lat="45.23435" lon="6.07826">
        <ele>2177.2</ele>
        <time>2021-02-27T10:55:11Z</time>
      </trkpt>
      <trkpt lat="45.23436" lon="6.0783">
        <ele>2177</ele>
        <time>2021-02-27T10:55:12Z</time>
      </trkpt>
      <trkpt lat="45.23437" lon="6.07833">
        <ele>2177</ele>
        <time>2021-02-27T10:55:13Z</time>
      </trkpt>
      <trkpt lat="45.23438" lon="6.07835">
        <ele>2176.6</ele>
        <time>2021-02-27T10:55:14Z</time>
      </trkpt>
      <trkpt lat="45.23439" lon="6.07838">
        <ele>2176.2</ele>
        <time>2021-02-27T10:55:15Z</time>
      </trkpt>
      <trkpt lat="45.23439" lon="6.07838">
        <ele>2175.6</ele>
        <time>2021-02-27T10:55:16Z</time>
      </trkpt>
      <trkpt lat="45.23441" lon="6.07841">
        <ele>2175.8</ele>
        <time>2021-02-27T10:55:17Z</time>
      </trkpt>
      <trkpt lat="45.23441" lon="6.07841">
        <ele>2175.8</ele>
        <time>2021-02-27T10:55:18Z</time>
      </trkpt>
      <trkpt lat="45.23443" lon="6.07844">
        <ele>2175.8</ele>
        <time>2021-02-27T10:55:19Z</time>
      </trkpt>
      <trkpt lat="45.23443" lon="6.07844">
        <ele>2175.6</ele>
        <time>2021-02-27T10:55:20Z</time>
      </trkpt>
      <trkpt lat="45.23445" lon="6.07848">
        <ele>2175.2</ele>
        <time>2021-02-27T10:55:21Z</time>
      </trkpt>
      <trkpt lat="45.23445" lon="6.07848">
        <ele>2175.8</ele>
        <time>2021-02-27T10:55:22Z</time>
      </trkpt>
      <trkpt lat="45.23447" lon="6.0785">
        <ele>2175.8</ele>
        <time>2021-02-27T10:55:23Z</time>
      </trkpt>
      <trkpt lat="45.23447" lon="6.0785">
        <ele>2175.2</ele>
        <time>2021-02-27T10:55:24Z</time>
      </trkpt>
      <trkpt lat="45.23449" lon="6.07854">
        <ele>2175.2</ele>
        <time>2021-02-27T10:55:25Z</time>
      </trkpt>
      <trkpt lat="45.23449" lon="6.07854">
        <ele>2175</ele>
        <time>2021-02-27T10:55:26Z</time>
      </trkpt>
      <trkpt lat="45.23452" lon="6.07857">
        <ele>2175</ele>
        <time>2021-02-27T10:55:27Z</time>
      </trkpt>
      <trkpt lat="45.23452" lon="6.07857">
        <ele>2175.2</ele>
        <time>2021-02-27T10:55:28Z</time>
      </trkpt>
      <trkpt lat="45.23453" lon="6.07859">
        <ele>2175.2</ele>
        <time>2021-02-27T10:55:29Z</time>
      </trkpt>
      <trkpt lat="45.23453" lon="6.07859">
        <ele>2175.4</ele>
        <time>2021-02-27T10:55:30Z</time>
      </trkpt>
      <trkpt lat="45.23456" lon="6.07863">
        <ele>2175.2</ele>
        <time>2021-02-27T10:55:31Z</time>
      </trkpt>
      <trkpt lat="45.23456" lon="6.07863">
        <ele>2175.6</ele>
        <time>2021-02-27T10:55:32Z</time>
      </trkpt>
      <trkpt lat="45.23455" lon="6.07868">
        <ele>2175.4</ele>
        <time>2021-02-27T10:55:33Z</time>
      </trkpt>
      <trkpt lat="45.23455" lon="6.07868">
        <ele>2175</ele>
        <time>2021-02-27T10:55:34Z</time>
      </trkpt>
      <trkpt lat="45.23456" lon="6.0787">
        <ele>2174.6</ele>
        <time>2021-02-27T10:55:35Z</time>
      </trkpt>
      <trkpt lat="45.23456" lon="6.0787">
        <ele>2174.2</ele>
        <time>2021-02-27T10:55:36Z</time>
      </trkpt>
      <trkpt lat="45.23456" lon="6.0787">
        <ele>2174.4</ele>
        <time>2021-02-27T10:55:37Z</time>
      </trkpt>
      <trkpt lat="45.23456" lon="6.0787">
        <ele>2174.6</ele>
        <time>2021-02-27T10:55:38Z</time>
      </trkpt>
      <trkpt lat="45.23456" lon="6.0787">
        <ele>2174.8</ele>
        <time>2021-02-27T10:55:39Z</time>
      </trkpt>
      <trkpt lat="45.23456" lon="6.0787">
        <ele>2175</ele>
        <time>2021-02-27T10:55:40Z</time>
      </trkpt>
      <trkpt lat="45.23457" lon="6.07872">
        <ele>2175.6</ele>
        <time>2021-02-27T10:55:41Z</time>
      </trkpt>
      <trkpt lat="45.23457" lon="6.07872">
        <ele>2175.6</ele>
        <time>2021-02-27T10:55:42Z</time>
      </trkpt>
      <trkpt lat="45.23457" lon="6.07872">
        <ele>2175.4</ele>
        <time>2021-02-27T10:55:43Z</time>
      </trkpt>
      <trkpt lat="45.23457" lon="6.07872">
        <ele>2175.4</ele>
        <time>2021-02-27T10:55:44Z</time>
      </trkpt>
      <trkpt lat="45.23459" lon="6.07874">
        <ele>2175.2</ele>
        <time>2021-02-27T10:55:45Z</time>
      </trkpt>
      <trkpt lat="45.23459" lon="6.07874">
        <ele>2175</ele>
        <time>2021-02-27T10:55:46Z</time>
      </trkpt>
      <trkpt lat="45.23459" lon="6.07874">
        <ele>2175.2</ele>
        <time>2021-02-27T10:55:47Z</time>
      </trkpt>
      <trkpt lat="45.23461" lon="6.07876">
        <ele>2175.4</ele>
        <time>2021-02-27T10:55:48Z</time>
      </trkpt>
      <trkpt lat="45.23461" lon="6.07876">
        <ele>2175.2</ele>
        <time>2021-02-27T10:55:49Z</time>
      </trkpt>
      <trkpt lat="45.23464" lon="6.07877">
        <ele>2175</ele>
        <time>2021-02-27T10:55:50Z</time>
      </trkpt>
      <trkpt lat="45.23464" lon="6.07877">
        <ele>2174.8</ele>
        <time>2021-02-27T10:55:51Z</time>
      </trkpt>
      <trkpt lat="45.23467" lon="6.07879">
        <ele>2174.6</ele>
        <time>2021-02-27T10:55:52Z</time>
      </trkpt>
      <trkpt lat="45.23467" lon="6.07879">
        <ele>2174.4</ele>
        <time>2021-02-27T10:55:53Z</time>
      </trkpt>
      <trkpt lat="45.23469" lon="6.07882">
        <ele>2174.4</ele>
        <time>2021-02-27T10:55:54Z</time>
      </trkpt>
      <trkpt lat="45.23471" lon="6.07884">
        <ele>2174.8</ele>
        <time>2021-02-27T10:55:55Z</time>
      </trkpt>
      <trkpt lat="45.23472" lon="6.07886">
        <ele>2174.6</ele>
        <time>2021-02-27T10:55:56Z</time>
      </trkpt>
      <trkpt lat="45.23472" lon="6.07886">
        <ele>2174.6</ele>
        <time>2021-02-27T10:55:57Z</time>
      </trkpt>
      <trkpt lat="45.23475" lon="6.07889">
        <ele>2174.8</ele>
        <time>2021-02-27T10:55:58Z</time>
      </trkpt>
      <trkpt lat="45.23475" lon="6.07889">
        <ele>2175</ele>
        <time>2021-02-27T10:55:59Z</time>
      </trkpt>
      <trkpt lat="45.23477" lon="6.07892">
        <ele>2175</ele>
        <time>2021-02-27T10:56:00Z</time>
      </trkpt>
      <trkpt lat="45.23479" lon="6.07894">
        <ele>2174.6</ele>
        <time>2021-02-27T10:56:01Z</time>
      </trkpt>
      <trkpt lat="45.23479" lon="6.07894">
        <ele>2174.8</ele>
        <time>2021-02-27T10:56:02Z</time>
      </trkpt>
      <trkpt lat="45.23481" lon="6.07897">
        <ele>2174.6</ele>
        <time>2021-02-27T10:56:03Z</time>
      </trkpt>
      <trkpt lat="45.23481" lon="6.07897">
        <ele>2174.4</ele>
        <time>2021-02-27T10:56:04Z</time>
      </trkpt>
      <trkpt lat="45.23483" lon="6.079">
        <ele>2175</ele>
        <time>2021-02-27T10:56:05Z</time>
      </trkpt>
      <trkpt lat="45.23483" lon="6.079">
        <ele>2174.6</ele>
        <time>2021-02-27T10:56:06Z</time>
      </trkpt>
      <trkpt lat="45.23486" lon="6.07904">
        <ele>2174.4</ele>
        <time>2021-02-27T10:56:07Z</time>
      </trkpt>
      <trkpt lat="45.23487" lon="6.07906">
        <ele>2174.4</ele>
        <time>2021-02-27T10:56:08Z</time>
      </trkpt>
      <trkpt lat="45.23489" lon="6.07908">
        <ele>2174.8</ele>
        <time>2021-02-27T10:56:09Z</time>
      </trkpt>
      <trkpt lat="45.2349" lon="6.07911">
        <ele>2174.6</ele>
        <time>2021-02-27T10:56:10Z</time>
      </trkpt>
      <trkpt lat="45.23492" lon="6.07912">
        <ele>2174.4</ele>
        <time>2021-02-27T10:56:11Z</time>
      </trkpt>
      <trkpt lat="45.23494" lon="6.07914">
        <ele>2174.4</ele>
        <time>2021-02-27T10:56:12Z</time>
      </trkpt>
      <trkpt lat="45.23496" lon="6.07916">
        <ele>2174.8</ele>
        <time>2021-02-27T10:56:13Z</time>
      </trkpt>
      <trkpt lat="45.23496" lon="6.07916">
        <ele>2175.2</ele>
        <time>2021-02-27T10:56:14Z</time>
      </trkpt>
      <trkpt lat="45.23499" lon="6.07919">
        <ele>2174.6</ele>
        <time>2021-02-27T10:56:15Z</time>
      </trkpt>
      <trkpt lat="45.235" lon="6.07921">
        <ele>2174.2</ele>
        <time>2021-02-27T10:56:16Z</time>
      </trkpt>
      <trkpt lat="45.23501" lon="6.07923">
        <ele>2174.6</ele>
        <time>2021-02-27T10:56:17Z</time>
      </trkpt>
      <trkpt lat="45.23503" lon="6.07926">
        <ele>2174.6</ele>
        <time>2021-02-27T10:56:18Z</time>
      </trkpt>
      <trkpt lat="45.23504" lon="6.07929">
        <ele>2174.4</ele>
        <time>2021-02-27T10:56:19Z</time>
      </trkpt>
      <trkpt lat="45.23506" lon="6.07931">
        <ele>2174.4</ele>
        <time>2021-02-27T10:56:20Z</time>
      </trkpt>
      <trkpt lat="45.23507" lon="6.07934">
        <ele>2174</ele>
        <time>2021-02-27T10:56:21Z</time>
      </trkpt>
      <trkpt lat="45.23508" lon="6.07936">
        <ele>2174</ele>
        <time>2021-02-27T10:56:22Z</time>
      </trkpt>
      <trkpt lat="45.23508" lon="6.07936">
        <ele>2174.4</ele>
        <time>2021-02-27T10:56:23Z</time>
      </trkpt>
      <trkpt lat="45.23509" lon="6.07939">
        <ele>2174</ele>
        <time>2021-02-27T10:56:24Z</time>
      </trkpt>
      <trkpt lat="45.23511" lon="6.07941">
        <ele>2173.8</ele>
        <time>2021-02-27T10:56:25Z</time>
      </trkpt>
      <trkpt lat="45.23512" lon="6.07943">
        <ele>2174</ele>
        <time>2021-02-27T10:56:26Z</time>
      </trkpt>
      <trkpt lat="45.23513" lon="6.07945">
        <ele>2173.8</ele>
        <time>2021-02-27T10:56:27Z</time>
      </trkpt>
      <trkpt lat="45.23514" lon="6.07948">
        <ele>2173.8</ele>
        <time>2021-02-27T10:56:28Z</time>
      </trkpt>
      <trkpt lat="45.23516" lon="6.07954">
        <ele>2173.4</ele>
        <time>2021-02-27T10:56:29Z</time>
      </trkpt>
      <trkpt lat="45.23517" lon="6.07955">
        <ele>2173.2</ele>
        <time>2021-02-27T10:56:30Z</time>
      </trkpt>
      <trkpt lat="45.23517" lon="6.07955">
        <ele>2173.4</ele>
        <time>2021-02-27T10:56:31Z</time>
      </trkpt>
      <trkpt lat="45.23519" lon="6.07958">
        <ele>2173.2</ele>
        <time>2021-02-27T10:56:32Z</time>
      </trkpt>
      <trkpt lat="45.23519" lon="6.07958">
        <ele>2173.4</ele>
        <time>2021-02-27T10:56:33Z</time>
      </trkpt>
      <trkpt lat="45.23521" lon="6.07961">
        <ele>2173.8</ele>
        <time>2021-02-27T10:56:34Z</time>
      </trkpt>
      <trkpt lat="45.23521" lon="6.07961">
        <ele>2173.6</ele>
        <time>2021-02-27T10:56:35Z</time>
      </trkpt>
      <trkpt lat="45.23524" lon="6.07964">
        <ele>2173.6</ele>
        <time>2021-02-27T10:56:36Z</time>
      </trkpt>
      <trkpt lat="45.23524" lon="6.07964">
        <ele>2173.8</ele>
        <time>2021-02-27T10:56:37Z</time>
      </trkpt>
      <trkpt lat="45.23526" lon="6.07967">
        <ele>2173.6</ele>
        <time>2021-02-27T10:56:38Z</time>
      </trkpt>
      <trkpt lat="45.23526" lon="6.07967">
        <ele>2173.8</ele>
        <time>2021-02-27T10:56:39Z</time>
      </trkpt>
      <trkpt lat="45.23527" lon="6.07969">
        <ele>2174</ele>
        <time>2021-02-27T10:56:40Z</time>
      </trkpt>
      <trkpt lat="45.23527" lon="6.07969">
        <ele>2174.2</ele>
        <time>2021-02-27T10:56:41Z</time>
      </trkpt>
      <trkpt lat="45.2353" lon="6.07972">
        <ele>2174.6</ele>
        <time>2021-02-27T10:56:42Z</time>
      </trkpt>
      <trkpt lat="45.2353" lon="6.07972">
        <ele>2175.2</ele>
        <time>2021-02-27T10:56:43Z</time>
      </trkpt>
      <trkpt lat="45.23532" lon="6.07975">
        <ele>2175.4</ele>
        <time>2021-02-27T10:56:44Z</time>
      </trkpt>
      <trkpt lat="45.23532" lon="6.07975">
        <ele>2175.4</ele>
        <time>2021-02-27T10:56:45Z</time>
      </trkpt>
      <trkpt lat="45.23534" lon="6.07978">
        <ele>2175.8</ele>
        <time>2021-02-27T10:56:46Z</time>
      </trkpt>
      <trkpt lat="45.23536" lon="6.0798">
        <ele>2175.6</ele>
        <time>2021-02-27T10:56:47Z</time>
      </trkpt>
      <trkpt lat="45.23538" lon="6.07983">
        <ele>2176</ele>
        <time>2021-02-27T10:56:48Z</time>
      </trkpt>
      <trkpt lat="45.2354" lon="6.07985">
        <ele>2175.6</ele>
        <time>2021-02-27T10:56:49Z</time>
      </trkpt>
      <trkpt lat="45.2354" lon="6.07985">
        <ele>2175.6</ele>
        <time>2021-02-27T10:56:50Z</time>
      </trkpt>
      <trkpt lat="45.23543" lon="6.07988">
        <ele>2175.4</ele>
        <time>2021-02-27T10:56:51Z</time>
      </trkpt>
      <trkpt lat="45.23546" lon="6.07992">
        <ele>2175.4</ele>
        <time>2021-02-27T10:56:52Z</time>
      </trkpt>
      <trkpt lat="45.23549" lon="6.07996">
        <ele>2175</ele>
        <time>2021-02-27T10:56:53Z</time>
      </trkpt>
      <trkpt lat="45.23551" lon="6.08">
        <ele>2174.4</ele>
        <time>2021-02-27T10:56:54Z</time>
      </trkpt>
      <trkpt lat="45.23553" lon="6.08004">
        <ele>2174.4</ele>
        <time>2021-02-27T10:56:55Z</time>
      </trkpt>
      <trkpt lat="45.23555" lon="6.08008">
        <ele>2174</ele>
        <time>2021-02-27T10:56:56Z</time>
      </trkpt>
      <trkpt lat="45.23558" lon="6.08011">
        <ele>2173.6</ele>
        <time>2021-02-27T10:56:57Z</time>
      </trkpt>
      <trkpt lat="45.2356" lon="6.08013">
        <ele>2173.8</ele>
        <time>2021-02-27T10:56:58Z</time>
      </trkpt>
      <trkpt lat="45.23562" lon="6.08016">
        <ele>2173.4</ele>
        <time>2021-02-27T10:56:59Z</time>
      </trkpt>
      <trkpt lat="45.23564" lon="6.08018">
        <ele>2173.8</ele>
        <time>2021-02-27T10:57:00Z</time>
      </trkpt>
      <trkpt lat="45.23566" lon="6.08021">
        <ele>2174.4</ele>
        <time>2021-02-27T10:57:01Z</time>
      </trkpt>
      <trkpt lat="45.23567" lon="6.08023">
        <ele>2174.4</ele>
        <time>2021-02-27T10:57:02Z</time>
      </trkpt>
      <trkpt lat="45.23569" lon="6.08025">
        <ele>2174.4</ele>
        <time>2021-02-27T10:57:03Z</time>
      </trkpt>
      <trkpt lat="45.23571" lon="6.08028">
        <ele>2174.8</ele>
        <time>2021-02-27T10:57:04Z</time>
      </trkpt>
      <trkpt lat="45.23572" lon="6.0803">
        <ele>2174.8</ele>
        <time>2021-02-27T10:57:05Z</time>
      </trkpt>
      <trkpt lat="45.23573" lon="6.08032">
        <ele>2175.2</ele>
        <time>2021-02-27T10:57:06Z</time>
      </trkpt>
      <trkpt lat="45.23574" lon="6.08034">
        <ele>2175.2</ele>
        <time>2021-02-27T10:57:07Z</time>
      </trkpt>
      <trkpt lat="45.23575" lon="6.08036">
        <ele>2175.2</ele>
        <time>2021-02-27T10:57:08Z</time>
      </trkpt>
      <trkpt lat="45.23577" lon="6.08038">
        <ele>2174.8</ele>
        <time>2021-02-27T10:57:09Z</time>
      </trkpt>
      <trkpt lat="45.23578" lon="6.0804">
        <ele>2175</ele>
        <time>2021-02-27T10:57:10Z</time>
      </trkpt>
      <trkpt lat="45.23579" lon="6.08042">
        <ele>2175.2</ele>
        <time>2021-02-27T10:57:11Z</time>
      </trkpt>
      <trkpt lat="45.2358" lon="6.08044">
        <ele>2175.2</ele>
        <time>2021-02-27T10:57:12Z</time>
      </trkpt>
      <trkpt lat="45.23581" lon="6.08046">
        <ele>2175.2</ele>
        <time>2021-02-27T10:57:13Z</time>
      </trkpt>
      <trkpt lat="45.23582" lon="6.08048">
        <ele>2175.4</ele>
        <time>2021-02-27T10:57:14Z</time>
      </trkpt>
      <trkpt lat="45.23583" lon="6.0805">
        <ele>2175.2</ele>
        <time>2021-02-27T10:57:15Z</time>
      </trkpt>
      <trkpt lat="45.23585" lon="6.08052">
        <ele>2175.4</ele>
        <time>2021-02-27T10:57:16Z</time>
      </trkpt>
      <trkpt lat="45.23587" lon="6.08053">
        <ele>2175.2</ele>
        <time>2021-02-27T10:57:17Z</time>
      </trkpt>
      <trkpt lat="45.23589" lon="6.08054">
        <ele>2175.6</ele>
        <time>2021-02-27T10:57:18Z</time>
      </trkpt>
      <trkpt lat="45.23591" lon="6.08055">
        <ele>2175.6</ele>
        <time>2021-02-27T10:57:19Z</time>
      </trkpt>
      <trkpt lat="45.23593" lon="6.08057">
        <ele>2175.4</ele>
        <time>2021-02-27T10:57:20Z</time>
      </trkpt>
      <trkpt lat="45.23594" lon="6.08058">
        <ele>2175.4</ele>
        <time>2021-02-27T10:57:21Z</time>
      </trkpt>
      <trkpt lat="45.23596" lon="6.08059">
        <ele>2175.4</ele>
        <time>2021-02-27T10:57:22Z</time>
      </trkpt>
      <trkpt lat="45.23597" lon="6.0806">
        <ele>2175.4</ele>
        <time>2021-02-27T10:57:23Z</time>
      </trkpt>
      <trkpt lat="45.23598" lon="6.08061">
        <ele>2175.6</ele>
        <time>2021-02-27T10:57:24Z</time>
      </trkpt>
      <trkpt lat="45.236" lon="6.08062">
        <ele>2175.4</ele>
        <time>2021-02-27T10:57:25Z</time>
      </trkpt>
      <trkpt lat="45.23601" lon="6.08063">
        <ele>2175.4</ele>
        <time>2021-02-27T10:57:26Z</time>
      </trkpt>
      <trkpt lat="45.23602" lon="6.08066">
        <ele>2175.8</ele>
        <time>2021-02-27T10:57:27Z</time>
      </trkpt>
      <trkpt lat="45.23603" lon="6.08068">
        <ele>2176</ele>
        <time>2021-02-27T10:57:28Z</time>
      </trkpt>
      <trkpt lat="45.23604" lon="6.08071">
        <ele>2176.2</ele>
        <time>2021-02-27T10:57:29Z</time>
      </trkpt>
      <trkpt lat="45.23605" lon="6.08073">
        <ele>2176.2</ele>
        <time>2021-02-27T10:57:30Z</time>
      </trkpt>
      <trkpt lat="45.23607" lon="6.08075">
        <ele>2176</ele>
        <time>2021-02-27T10:57:31Z</time>
      </trkpt>
      <trkpt lat="45.23607" lon="6.08078">
        <ele>2176</ele>
        <time>2021-02-27T10:57:32Z</time>
      </trkpt>
      <trkpt lat="45.23607" lon="6.08081">
        <ele>2176</ele>
        <time>2021-02-27T10:57:33Z</time>
      </trkpt>
      <trkpt lat="45.23608" lon="6.08084">
        <ele>2176.2</ele>
        <time>2021-02-27T10:57:34Z</time>
      </trkpt>
      <trkpt lat="45.23608" lon="6.08087">
        <ele>2176</ele>
        <time>2021-02-27T10:57:35Z</time>
      </trkpt>
      <trkpt lat="45.23608" lon="6.0809">
        <ele>2176.2</ele>
        <time>2021-02-27T10:57:36Z</time>
      </trkpt>
      <trkpt lat="45.23609" lon="6.08092">
        <ele>2176</ele>
        <time>2021-02-27T10:57:37Z</time>
      </trkpt>
      <trkpt lat="45.23609" lon="6.08095">
        <ele>2175.6</ele>
        <time>2021-02-27T10:57:38Z</time>
      </trkpt>
      <trkpt lat="45.23609" lon="6.08097">
        <ele>2176</ele>
        <time>2021-02-27T10:57:39Z</time>
      </trkpt>
      <trkpt lat="45.23609" lon="6.081">
        <ele>2176</ele>
        <time>2021-02-27T10:57:40Z</time>
      </trkpt>
      <trkpt lat="45.23609" lon="6.08102">
        <ele>2176</ele>
        <time>2021-02-27T10:57:41Z</time>
      </trkpt>
      <trkpt lat="45.23609" lon="6.08104">
        <ele>2176.2</ele>
        <time>2021-02-27T10:57:42Z</time>
      </trkpt>
      <trkpt lat="45.23609" lon="6.08104">
        <ele>2176.6</ele>
        <time>2021-02-27T10:57:43Z</time>
      </trkpt>
      <trkpt lat="45.23609" lon="6.08104">
        <ele>2176.6</ele>
        <time>2021-02-27T10:57:44Z</time>
      </trkpt>
      <trkpt lat="45.23609" lon="6.08104">
        <ele>2176.2</ele>
        <time>2021-02-27T10:57:45Z</time>
      </trkpt>
      <trkpt lat="45.23609" lon="6.08104">
        <ele>2176</ele>
        <time>2021-02-27T10:57:46Z</time>
      </trkpt>
      <trkpt lat="45.23609" lon="6.08104">
        <ele>2175.8</ele>
        <time>2021-02-27T10:57:47Z</time>
      </trkpt>
      <trkpt lat="45.23609" lon="6.08104">
        <ele>2175.6</ele>
        <time>2021-02-27T10:57:48Z</time>
      </trkpt>
      <trkpt lat="45.23609" lon="6.08104">
        <ele>2175.6</ele>
        <time>2021-02-27T10:57:49Z</time>
      </trkpt>
      <trkpt lat="45.23609" lon="6.08104">
        <ele>2175.6</ele>
        <time>2021-02-27T10:57:50Z</time>
      </trkpt>
      <trkpt lat="45.23609" lon="6.08104">
        <ele>2176</ele>
        <time>2021-02-27T10:57:51Z</time>
      </trkpt>
      <trkpt lat="45.23609" lon="6.08104">
        <ele>2175.8</ele>
        <time>2021-02-27T10:57:52Z</time>
      </trkpt>
      <trkpt lat="45.23609" lon="6.08104">
        <ele>2175.4</ele>
        <time>2021-02-27T10:57:53Z</time>
      </trkpt>
      <trkpt lat="45.23609" lon="6.08104">
        <ele>2175.2</ele>
        <time>2021-02-27T10:57:54Z</time>
      </trkpt>
      <trkpt lat="45.23611" lon="6.08105">
        <ele>2175</ele>
        <time>2021-02-27T10:57:55Z</time>
      </trkpt>
      <trkpt lat="45.23611" lon="6.08105">
        <ele>2174.8</ele>
        <time>2021-02-27T10:57:56Z</time>
      </trkpt>
      <trkpt lat="45.23611" lon="6.08105">
        <ele>2174.6</ele>
        <time>2021-02-27T10:57:57Z</time>
      </trkpt>
      <trkpt lat="45.23611" lon="6.08105">
        <ele>2174.6</ele>
        <time>2021-02-27T10:57:58Z</time>
      </trkpt>
      <trkpt lat="45.23611" lon="6.08105">
        <ele>2174.4</ele>
        <time>2021-02-27T10:57:59Z</time>
      </trkpt>
      <trkpt lat="45.23611" lon="6.08105">
        <ele>2174.6</ele>
        <time>2021-02-27T10:58:00Z</time>
      </trkpt>
      <trkpt lat="45.23611" lon="6.08105">
        <ele>2174.4</ele>
        <time>2021-02-27T10:58:01Z</time>
      </trkpt>
      <trkpt lat="45.23611" lon="6.08105">
        <ele>2174.2</ele>
        <time>2021-02-27T10:58:02Z</time>
      </trkpt>
      <trkpt lat="45.23611" lon="6.08105">
        <ele>2174.4</ele>
        <time>2021-02-27T10:58:03Z</time>
      </trkpt>
      <trkpt lat="45.23611" lon="6.08105">
        <ele>2174.8</ele>
        <time>2021-02-27T10:58:04Z</time>
      </trkpt>
      <trkpt lat="45.23611" lon="6.08105">
        <ele>2175</ele>
        <time>2021-02-27T10:58:05Z</time>
      </trkpt>
      <trkpt lat="45.23611" lon="6.08105">
        <ele>2175.2</ele>
        <time>2021-02-27T10:58:06Z</time>
      </trkpt>
      <trkpt lat="45.23611" lon="6.08105">
        <ele>2175</ele>
        <time>2021-02-27T10:58:07Z</time>
      </trkpt>
      <trkpt lat="45.23611" lon="6.08105">
        <ele>2175.2</ele>
        <time>2021-02-27T10:58:08Z</time>
      </trkpt>
      <trkpt lat="45.23611" lon="6.08105">
        <ele>2175.6</ele>
        <time>2021-02-27T10:58:09Z</time>
      </trkpt>
      <trkpt lat="45.23611" lon="6.08105">
        <ele>2175.6</ele>
        <time>2021-02-27T10:58:10Z</time>
      </trkpt>
      <trkpt lat="45.23611" lon="6.08105">
        <ele>2176</ele>
        <time>2021-02-27T10:58:11Z</time>
      </trkpt>
      <trkpt lat="45.23611" lon="6.08105">
        <ele>2176.4</ele>
        <time>2021-02-27T10:58:12Z</time>
      </trkpt>
      <trkpt lat="45.23611" lon="6.08105">
        <ele>2176</ele>
        <time>2021-02-27T10:58:13Z</time>
      </trkpt>
      <trkpt lat="45.23611" lon="6.08105">
        <ele>2175.8</ele>
        <time>2021-02-27T10:58:14Z</time>
      </trkpt>
      <trkpt lat="45.23611" lon="6.08105">
        <ele>2175.8</ele>
        <time>2021-02-27T10:58:15Z</time>
      </trkpt>
      <trkpt lat="45.23611" lon="6.08105">
        <ele>2175.4</ele>
        <time>2021-02-27T10:58:16Z</time>
      </trkpt>
      <trkpt lat="45.23609" lon="6.08107">
        <ele>2175.4</ele>
        <time>2021-02-27T10:58:17Z</time>
      </trkpt>
      <trkpt lat="45.23609" lon="6.08107">
        <ele>2175.4</ele>
        <time>2021-02-27T10:58:18Z</time>
      </trkpt>
      <trkpt lat="45.23609" lon="6.08107">
        <ele>2175.6</ele>
        <time>2021-02-27T10:58:19Z</time>
      </trkpt>
      <trkpt lat="45.23609" lon="6.08107">
        <ele>2175.8</ele>
        <time>2021-02-27T10:58:20Z</time>
      </trkpt>
      <trkpt lat="45.23609" lon="6.08107">
        <ele>2175.6</ele>
        <time>2021-02-27T10:58:21Z</time>
      </trkpt>
      <trkpt lat="45.23609" lon="6.08107">
        <ele>2175</ele>
        <time>2021-02-27T10:58:22Z</time>
      </trkpt>
      <trkpt lat="45.23609" lon="6.08107">
        <ele>2175</ele>
        <time>2021-02-27T10:58:23Z</time>
      </trkpt>
      <trkpt lat="45.23609" lon="6.08107">
        <ele>2174.6</ele>
        <time>2021-02-27T10:58:24Z</time>
      </trkpt>
      <trkpt lat="45.23609" lon="6.08107">
        <ele>2174.4</ele>
        <time>2021-02-27T10:58:25Z</time>
      </trkpt>
      <trkpt lat="45.23609" lon="6.08107">
        <ele>2174.2</ele>
        <time>2021-02-27T10:58:26Z</time>
      </trkpt>
      <trkpt lat="45.23609" lon="6.08107">
        <ele>2174</ele>
        <time>2021-02-27T10:58:27Z</time>
      </trkpt>
      <trkpt lat="45.23609" lon="6.08107">
        <ele>2174</ele>
        <time>2021-02-27T10:58:28Z</time>
      </trkpt>
      <trkpt lat="45.23609" lon="6.08107">
        <ele>2174</ele>
        <time>2021-02-27T10:58:29Z</time>
      </trkpt>
      <trkpt lat="45.23609" lon="6.08107">
        <ele>2174</ele>
        <time>2021-02-27T10:58:30Z</time>
      </trkpt>
      <trkpt lat="45.23609" lon="6.08107">
        <ele>2174.2</ele>
        <time>2021-02-27T10:58:31Z</time>
      </trkpt>
      <trkpt lat="45.23609" lon="6.08107">
        <ele>2174.8</ele>
        <time>2021-02-27T10:58:32Z</time>
      </trkpt>
      <trkpt lat="45.23609" lon="6.08107">
        <ele>2175</ele>
        <time>2021-02-27T10:58:33Z</time>
      </trkpt>
      <trkpt lat="45.23609" lon="6.08107">
        <ele>2175.6</ele>
        <time>2021-02-27T10:58:34Z</time>
      </trkpt>
      <trkpt lat="45.23609" lon="6.08107">
        <ele>2175.6</ele>
        <time>2021-02-27T10:58:35Z</time>
      </trkpt>
      <trkpt lat="45.23609" lon="6.08107">
        <ele>2175.6</ele>
        <time>2021-02-27T10:58:36Z</time>
      </trkpt>
      <trkpt lat="45.23609" lon="6.08107">
        <ele>2175.6</ele>
        <time>2021-02-27T10:58:37Z</time>
      </trkpt>
      <trkpt lat="45.23609" lon="6.08107">
        <ele>2175.2</ele>
        <time>2021-02-27T10:58:38Z</time>
      </trkpt>
      <trkpt lat="45.23609" lon="6.08107">
        <ele>2175.6</ele>
        <time>2021-02-27T10:58:39Z</time>
      </trkpt>
      <trkpt lat="45.23609" lon="6.08107">
        <ele>2175.6</ele>
        <time>2021-02-27T10:58:40Z</time>
      </trkpt>
      <trkpt lat="45.23609" lon="6.08107">
        <ele>2176</ele>
        <time>2021-02-27T10:58:41Z</time>
      </trkpt>
      <trkpt lat="45.23609" lon="6.08107">
        <ele>2176.4</ele>
        <time>2021-02-27T10:58:42Z</time>
      </trkpt>
      <trkpt lat="45.23609" lon="6.08107">
        <ele>2176.8</ele>
        <time>2021-02-27T10:58:43Z</time>
      </trkpt>
      <trkpt lat="45.23609" lon="6.08107">
        <ele>2176.8</ele>
        <time>2021-02-27T10:58:44Z</time>
      </trkpt>
      <trkpt lat="45.23609" lon="6.08107">
        <ele>2177</ele>
        <time>2021-02-27T10:58:45Z</time>
      </trkpt>
      <trkpt lat="45.23609" lon="6.08107">
        <ele>2177.2</ele>
        <time>2021-02-27T10:58:46Z</time>
      </trkpt>
      <trkpt lat="45.23609" lon="6.08107">
        <ele>2176.8</ele>
        <time>2021-02-27T10:58:47Z</time>
      </trkpt>
      <trkpt lat="45.23609" lon="6.08107">
        <ele>2176.6</ele>
        <time>2021-02-27T10:58:48Z</time>
      </trkpt>
      <trkpt lat="45.23609" lon="6.08107">
        <ele>2176.4</ele>
        <time>2021-02-27T10:58:49Z</time>
      </trkpt>
      <trkpt lat="45.23609" lon="6.08107">
        <ele>2176.4</ele>
        <time>2021-02-27T10:58:50Z</time>
      </trkpt>
      <trkpt lat="45.23609" lon="6.08107">
        <ele>2176.4</ele>
        <time>2021-02-27T10:58:51Z</time>
      </trkpt>
      <trkpt lat="45.23609" lon="6.08107">
        <ele>2176.6</ele>
        <time>2021-02-27T10:58:52Z</time>
      </trkpt>
      <trkpt lat="45.23609" lon="6.08107">
        <ele>2176.4</ele>
        <time>2021-02-27T10:58:53Z</time>
      </trkpt>
      <trkpt lat="45.23609" lon="6.08107">
        <ele>2176.2</ele>
        <time>2021-02-27T10:58:54Z</time>
      </trkpt>
      <trkpt lat="45.23609" lon="6.08107">
        <ele>2176.6</ele>
        <time>2021-02-27T10:58:55Z</time>
      </trkpt>
      <trkpt lat="45.23609" lon="6.08107">
        <ele>2176.6</ele>
        <time>2021-02-27T10:58:56Z</time>
      </trkpt>
      <trkpt lat="45.23609" lon="6.08107">
        <ele>2176.8</ele>
        <time>2021-02-27T10:58:57Z</time>
      </trkpt>
      <trkpt lat="45.23609" lon="6.08107">
        <ele>2177</ele>
        <time>2021-02-27T10:58:58Z</time>
      </trkpt>
      <trkpt lat="45.23609" lon="6.08107">
        <ele>2176.6</ele>
        <time>2021-02-27T10:58:59Z</time>
      </trkpt>
      <trkpt lat="45.23609" lon="6.08107">
        <ele>2176.6</ele>
        <time>2021-02-27T10:59:00Z</time>
      </trkpt>
      <trkpt lat="45.23609" lon="6.08107">
        <ele>2176.4</ele>
        <time>2021-02-27T10:59:01Z</time>
      </trkpt>
      <trkpt lat="45.23609" lon="6.08107">
        <ele>2176</ele>
        <time>2021-02-27T10:59:02Z</time>
      </trkpt>
      <trkpt lat="45.23609" lon="6.08107">
        <ele>2175.8</ele>
        <time>2021-02-27T10:59:03Z</time>
      </trkpt>
      <trkpt lat="45.23609" lon="6.08107">
        <ele>2175.8</ele>
        <time>2021-02-27T10:59:04Z</time>
      </trkpt>
      <trkpt lat="45.23609" lon="6.08107">
        <ele>2175.6</ele>
        <time>2021-02-27T10:59:05Z</time>
      </trkpt>
      <trkpt lat="45.23609" lon="6.08107">
        <ele>2175.6</ele>
        <time>2021-02-27T10:59:06Z</time>
      </trkpt>
      <trkpt lat="45.23609" lon="6.08107">
        <ele>2175.4</ele>
        <time>2021-02-27T10:59:07Z</time>
      </trkpt>
      <trkpt lat="45.23609" lon="6.08107">
        <ele>2175.4</ele>
        <time>2021-02-27T10:59:08Z</time>
      </trkpt>
      <trkpt lat="45.23609" lon="6.08107">
        <ele>2175.4</ele>
        <time>2021-02-27T10:59:09Z</time>
      </trkpt>
      <trkpt lat="45.23609" lon="6.08107">
        <ele>2175.6</ele>
        <time>2021-02-27T10:59:10Z</time>
      </trkpt>
      <trkpt lat="45.23609" lon="6.08107">
        <ele>2175.6</ele>
        <time>2021-02-27T10:59:11Z</time>
      </trkpt>
      <trkpt lat="45.23609" lon="6.08107">
        <ele>2175.8</ele>
        <time>2021-02-27T10:59:12Z</time>
      </trkpt>
      <trkpt lat="45.23609" lon="6.08107">
        <ele>2176</ele>
        <time>2021-02-27T10:59:13Z</time>
      </trkpt>
      <trkpt lat="45.23609" lon="6.08107">
        <ele>2176.8</ele>
        <time>2021-02-27T10:59:14Z</time>
      </trkpt>
      <trkpt lat="45.23609" lon="6.08107">
        <ele>2177</ele>
        <time>2021-02-27T10:59:15Z</time>
      </trkpt>
      <trkpt lat="45.23609" lon="6.08107">
        <ele>2177.2</ele>
        <time>2021-02-27T10:59:16Z</time>
      </trkpt>
      <trkpt lat="45.23609" lon="6.08107">
        <ele>2177.2</ele>
        <time>2021-02-27T10:59:17Z</time>
      </trkpt>
      <trkpt lat="45.23608" lon="6.08104">
        <ele>2177</ele>
        <time>2021-02-27T10:59:18Z</time>
      </trkpt>
      <trkpt lat="45.23608" lon="6.08104">
        <ele>2177.2</ele>
        <time>2021-02-27T10:59:19Z</time>
      </trkpt>
      <trkpt lat="45.23608" lon="6.08104">
        <ele>2176.8</ele>
        <time>2021-02-27T10:59:20Z</time>
      </trkpt>
      <trkpt lat="45.23608" lon="6.08104">
        <ele>2176.4</ele>
        <time>2021-02-27T10:59:21Z</time>
      </trkpt>
      <trkpt lat="45.23608" lon="6.08104">
        <ele>2176.4</ele>
        <time>2021-02-27T10:59:22Z</time>
      </trkpt>
      <trkpt lat="45.23608" lon="6.08104">
        <ele>2176.4</ele>
        <time>2021-02-27T10:59:23Z</time>
      </trkpt>
      <trkpt lat="45.23608" lon="6.08104">
        <ele>2176.2</ele>
        <time>2021-02-27T10:59:24Z</time>
      </trkpt>
      <trkpt lat="45.23608" lon="6.08104">
        <ele>2176.2</ele>
        <time>2021-02-27T10:59:25Z</time>
      </trkpt>
      <trkpt lat="45.23608" lon="6.08104">
        <ele>2176</ele>
        <time>2021-02-27T10:59:26Z</time>
      </trkpt>
      <trkpt lat="45.23608" lon="6.08104">
        <ele>2176</ele>
        <time>2021-02-27T10:59:27Z</time>
      </trkpt>
      <trkpt lat="45.23608" lon="6.08104">
        <ele>2176</ele>
        <time>2021-02-27T10:59:28Z</time>
      </trkpt>
      <trkpt lat="45.23608" lon="6.08104">
        <ele>2176.2</ele>
        <time>2021-02-27T10:59:29Z</time>
      </trkpt>
      <trkpt lat="45.23608" lon="6.08104">
        <ele>2176.6</ele>
        <time>2021-02-27T10:59:30Z</time>
      </trkpt>
      <trkpt lat="45.23608" lon="6.08104">
        <ele>2177</ele>
        <time>2021-02-27T10:59:31Z</time>
      </trkpt>
      <trkpt lat="45.23608" lon="6.08104">
        <ele>2176.8</ele>
        <time>2021-02-27T10:59:32Z</time>
      </trkpt>
      <trkpt lat="45.23608" lon="6.08104">
        <ele>2177</ele>
        <time>2021-02-27T10:59:33Z</time>
      </trkpt>
      <trkpt lat="45.23608" lon="6.08104">
        <ele>2176.8</ele>
        <time>2021-02-27T10:59:34Z</time>
      </trkpt>
      <trkpt lat="45.23608" lon="6.08104">
        <ele>2176.8</ele>
        <time>2021-02-27T10:59:35Z</time>
      </trkpt>
      <trkpt lat="45.23608" lon="6.08104">
        <ele>2176.4</ele>
        <time>2021-02-27T10:59:36Z</time>
      </trkpt>
      <trkpt lat="45.23608" lon="6.08104">
        <ele>2176.2</ele>
        <time>2021-02-27T10:59:37Z</time>
      </trkpt>
      <trkpt lat="45.2361" lon="6.08104">
        <ele>2176.2</ele>
        <time>2021-02-27T10:59:38Z</time>
      </trkpt>
      <trkpt lat="45.2361" lon="6.08104">
        <ele>2176.2</ele>
        <time>2021-02-27T10:59:39Z</time>
      </trkpt>
      <trkpt lat="45.2361" lon="6.08104">
        <ele>2176.2</ele>
        <time>2021-02-27T10:59:40Z</time>
      </trkpt>
      <trkpt lat="45.2361" lon="6.08104">
        <ele>2176</ele>
        <time>2021-02-27T10:59:41Z</time>
      </trkpt>
      <trkpt lat="45.2361" lon="6.08104">
        <ele>2176.2</ele>
        <time>2021-02-27T10:59:42Z</time>
      </trkpt>
      <trkpt lat="45.2361" lon="6.08104">
        <ele>2176.6</ele>
        <time>2021-02-27T10:59:43Z</time>
      </trkpt>
      <trkpt lat="45.2361" lon="6.08104">
        <ele>2176.8</ele>
        <time>2021-02-27T10:59:44Z</time>
      </trkpt>
      <trkpt lat="45.2361" lon="6.08104">
        <ele>2176.8</ele>
        <time>2021-02-27T10:59:45Z</time>
      </trkpt>
      <trkpt lat="45.2361" lon="6.08104">
        <ele>2177</ele>
        <time>2021-02-27T10:59:46Z</time>
      </trkpt>
      <trkpt lat="45.2361" lon="6.08104">
        <ele>2177</ele>
        <time>2021-02-27T10:59:47Z</time>
      </trkpt>
      <trkpt lat="45.2361" lon="6.08104">
        <ele>2177</ele>
        <time>2021-02-27T10:59:48Z</time>
      </trkpt>
      <trkpt lat="45.2361" lon="6.08104">
        <ele>2177</ele>
        <time>2021-02-27T10:59:49Z</time>
      </trkpt>
      <trkpt lat="45.2361" lon="6.08104">
        <ele>2176.8</ele>
        <time>2021-02-27T10:59:50Z</time>
      </trkpt>
      <trkpt lat="45.2361" lon="6.08104">
        <ele>2176.6</ele>
        <time>2021-02-27T10:59:51Z</time>
      </trkpt>
      <trkpt lat="45.2361" lon="6.08104">
        <ele>2177</ele>
        <time>2021-02-27T10:59:52Z</time>
      </trkpt>
      <trkpt lat="45.2361" lon="6.08104">
        <ele>2176.8</ele>
        <time>2021-02-27T10:59:53Z</time>
      </trkpt>
      <trkpt lat="45.2361" lon="6.08104">
        <ele>2176.8</ele>
        <time>2021-02-27T10:59:54Z</time>
      </trkpt>
      <trkpt lat="45.2361" lon="6.08104">
        <ele>2176.6</ele>
        <time>2021-02-27T10:59:55Z</time>
      </trkpt>
      <trkpt lat="45.2361" lon="6.08104">
        <ele>2176.4</ele>
        <time>2021-02-27T10:59:56Z</time>
      </trkpt>
      <trkpt lat="45.2361" lon="6.08104">
        <ele>2176.4</ele>
        <time>2021-02-27T10:59:57Z</time>
      </trkpt>
      <trkpt lat="45.2361" lon="6.08104">
        <ele>2176.6</ele>
        <time>2021-02-27T10:59:58Z</time>
      </trkpt>
      <trkpt lat="45.2361" lon="6.08104">
        <ele>2176.6</ele>
        <time>2021-02-27T10:59:59Z</time>
      </trkpt>
      <trkpt lat="45.2361" lon="6.08104">
        <ele>2176.6</ele>
        <time>2021-02-27T11:00:00Z</time>
      </trkpt>
      <trkpt lat="45.2361" lon="6.08104">
        <ele>2176.6</ele>
        <time>2021-02-27T11:00:01Z</time>
      </trkpt>
      <trkpt lat="45.2361" lon="6.08104">
        <ele>2176.6</ele>
        <time>2021-02-27T11:00:02Z</time>
      </trkpt>
      <trkpt lat="45.2361" lon="6.08104">
        <ele>2176.6</ele>
        <time>2021-02-27T11:00:03Z</time>
      </trkpt>
      <trkpt lat="45.2361" lon="6.08104">
        <ele>2176.4</ele>
        <time>2021-02-27T11:00:04Z</time>
      </trkpt>
      <trkpt lat="45.2361" lon="6.08104">
        <ele>2176.4</ele>
        <time>2021-02-27T11:00:05Z</time>
      </trkpt>
      <trkpt lat="45.2361" lon="6.08104">
        <ele>2176.4</ele>
        <time>2021-02-27T11:00:06Z</time>
      </trkpt>
      <trkpt lat="45.2361" lon="6.08104">
        <ele>2176.6</ele>
        <time>2021-02-27T11:00:07Z</time>
      </trkpt>
      <trkpt lat="45.2361" lon="6.08104">
        <ele>2176.6</ele>
        <time>2021-02-27T11:00:08Z</time>
      </trkpt>
      <trkpt lat="45.2361" lon="6.08104">
        <ele>2176.4</ele>
        <time>2021-02-27T11:00:09Z</time>
      </trkpt>
      <trkpt lat="45.2361" lon="6.08104">
        <ele>2176.4</ele>
        <time>2021-02-27T11:00:10Z</time>
      </trkpt>
      <trkpt lat="45.2361" lon="6.08104">
        <ele>2176.6</ele>
        <time>2021-02-27T11:00:11Z</time>
      </trkpt>
      <trkpt lat="45.2361" lon="6.08104">
        <ele>2176.4</ele>
        <time>2021-02-27T11:00:12Z</time>
      </trkpt>
      <trkpt lat="45.2361" lon="6.08104">
        <ele>2176.6</ele>
        <time>2021-02-27T11:00:13Z</time>
      </trkpt>
      <trkpt lat="45.2361" lon="6.08104">
        <ele>2176.4</ele>
        <time>2021-02-27T11:00:14Z</time>
      </trkpt>
      <trkpt lat="45.2361" lon="6.08104">
        <ele>2176.4</ele>
        <time>2021-02-27T11:00:15Z</time>
      </trkpt>
      <trkpt lat="45.2361" lon="6.08104">
        <ele>2176.4</ele>
        <time>2021-02-27T11:00:16Z</time>
      </trkpt>
      <trkpt lat="45.2361" lon="6.08104">
        <ele>2176.6</ele>
        <time>2021-02-27T11:00:17Z</time>
      </trkpt>
      <trkpt lat="45.2361" lon="6.08104">
        <ele>2176.6</ele>
        <time>2021-02-27T11:00:18Z</time>
      </trkpt>
      <trkpt lat="45.2361" lon="6.08104">
        <ele>2176.6</ele>
        <time>2021-02-27T11:00:19Z</time>
      </trkpt>
      <trkpt lat="45.2361" lon="6.08104">
        <ele>2176.4</ele>
        <time>2021-02-27T11:00:20Z</time>
      </trkpt>
      <trkpt lat="45.2361" lon="6.08104">
        <ele>2176.4</ele>
        <time>2021-02-27T11:00:21Z</time>
      </trkpt>
      <trkpt lat="45.2361" lon="6.08104">
        <ele>2176.2</ele>
        <time>2021-02-27T11:00:22Z</time>
      </trkpt>
      <trkpt lat="45.2361" lon="6.08104">
        <ele>2176.4</ele>
        <time>2021-02-27T11:00:23Z</time>
      </trkpt>
      <trkpt lat="45.2361" lon="6.08104">
        <ele>2176.4</ele>
        <time>2021-02-27T11:00:24Z</time>
      </trkpt>
      <trkpt lat="45.2361" lon="6.08104">
        <ele>2176.6</ele>
        <time>2021-02-27T11:00:25Z</time>
      </trkpt>
      <trkpt lat="45.2361" lon="6.08104">
        <ele>2177.2</ele>
        <time>2021-02-27T11:00:26Z</time>
      </trkpt>
      <trkpt lat="45.2361" lon="6.08104">
        <ele>2177.4</ele>
        <time>2021-02-27T11:00:27Z</time>
      </trkpt>
      <trkpt lat="45.2361" lon="6.08104">
        <ele>2177.6</ele>
        <time>2021-02-27T11:00:28Z</time>
      </trkpt>
      <trkpt lat="45.2361" lon="6.08104">
        <ele>2177.4</ele>
        <time>2021-02-27T11:00:29Z</time>
      </trkpt>
      <trkpt lat="45.2361" lon="6.08104">
        <ele>2177.2</ele>
        <time>2021-02-27T11:00:30Z</time>
      </trkpt>
      <trkpt lat="45.2361" lon="6.08104">
        <ele>2177</ele>
        <time>2021-02-27T11:00:31Z</time>
      </trkpt>
      <trkpt lat="45.2361" lon="6.08104">
        <ele>2176.8</ele>
        <time>2021-02-27T11:00:32Z</time>
      </trkpt>
      <trkpt lat="45.2361" lon="6.08104">
        <ele>2176.8</ele>
        <time>2021-02-27T11:00:33Z</time>
      </trkpt>
      <trkpt lat="45.2361" lon="6.08104">
        <ele>2176.8</ele>
        <time>2021-02-27T11:00:34Z</time>
      </trkpt>
      <trkpt lat="45.2361" lon="6.08104">
        <ele>2176.6</ele>
        <time>2021-02-27T11:00:35Z</time>
      </trkpt>
      <trkpt lat="45.2361" lon="6.08104">
        <ele>2176.4</ele>
        <time>2021-02-27T11:00:36Z</time>
      </trkpt>
      <trkpt lat="45.2361" lon="6.08104">
        <ele>2176.4</ele>
        <time>2021-02-27T11:00:37Z</time>
      </trkpt>
      <trkpt lat="45.2361" lon="6.08104">
        <ele>2176.4</ele>
        <time>2021-02-27T11:00:38Z</time>
      </trkpt>
      <trkpt lat="45.2361" lon="6.08104">
        <ele>2176.6</ele>
        <time>2021-02-27T11:00:39Z</time>
      </trkpt>
      <trkpt lat="45.2361" lon="6.08104">
        <ele>2176.8</ele>
        <time>2021-02-27T11:00:40Z</time>
      </trkpt>
      <trkpt lat="45.2361" lon="6.08104">
        <ele>2176.6</ele>
        <time>2021-02-27T11:00:41Z</time>
      </trkpt>
      <trkpt lat="45.2361" lon="6.08104">
        <ele>2176.8</ele>
        <time>2021-02-27T11:00:42Z</time>
      </trkpt>
      <trkpt lat="45.2361" lon="6.08104">
        <ele>2176.6</ele>
        <time>2021-02-27T11:00:43Z</time>
      </trkpt>
      <trkpt lat="45.2361" lon="6.08104">
        <ele>2176.6</ele>
        <time>2021-02-27T11:00:44Z</time>
      </trkpt>
      <trkpt lat="45.2361" lon="6.08104">
        <ele>2176.4</ele>
        <time>2021-02-27T11:00:45Z</time>
      </trkpt>
      <trkpt lat="45.2361" lon="6.08104">
        <ele>2176.4</ele>
        <time>2021-02-27T11:00:46Z</time>
      </trkpt>
      <trkpt lat="45.2361" lon="6.08104">
        <ele>2176.6</ele>
        <time>2021-02-27T11:00:47Z</time>
      </trkpt>
      <trkpt lat="45.2361" lon="6.08104">
        <ele>2176.6</ele>
        <time>2021-02-27T11:00:48Z</time>
      </trkpt>
      <trkpt lat="45.2361" lon="6.08104">
        <ele>2176.6</ele>
        <time>2021-02-27T11:00:49Z</time>
      </trkpt>
      <trkpt lat="45.2361" lon="6.08104">
        <ele>2176.8</ele>
        <time>2021-02-27T11:00:50Z</time>
      </trkpt>
      <trkpt lat="45.2361" lon="6.08104">
        <ele>2176.8</ele>
        <time>2021-02-27T11:00:51Z</time>
      </trkpt>
      <trkpt lat="45.2361" lon="6.08104">
        <ele>2177</ele>
        <time>2021-02-27T11:00:52Z</time>
      </trkpt>
      <trkpt lat="45.2361" lon="6.08104">
        <ele>2177</ele>
        <time>2021-02-27T11:00:53Z</time>
      </trkpt>
      <trkpt lat="45.2361" lon="6.08104">
        <ele>2177.2</ele>
        <time>2021-02-27T11:00:54Z</time>
      </trkpt>
      <trkpt lat="45.2361" lon="6.08104">
        <ele>2177</ele>
        <time>2021-02-27T11:00:55Z</time>
      </trkpt>
      <trkpt lat="45.2361" lon="6.08104">
        <ele>2177.4</ele>
        <time>2021-02-27T11:00:56Z</time>
      </trkpt>
      <trkpt lat="45.2361" lon="6.08104">
        <ele>2177.4</ele>
        <time>2021-02-27T11:00:57Z</time>
      </trkpt>
      <trkpt lat="45.2361" lon="6.08104">
        <ele>2177.4</ele>
        <time>2021-02-27T11:00:58Z</time>
      </trkpt>
      <trkpt lat="45.2361" lon="6.08104">
        <ele>2177.2</ele>
        <time>2021-02-27T11:00:59Z</time>
      </trkpt>
      <trkpt lat="45.2361" lon="6.08104">
        <ele>2177.2</ele>
        <time>2021-02-27T11:01:00Z</time>
      </trkpt>
      <trkpt lat="45.2361" lon="6.08104">
        <ele>2177.2</ele>
        <time>2021-02-27T11:01:01Z</time>
      </trkpt>
      <trkpt lat="45.2361" lon="6.08104">
        <ele>2177.2</ele>
        <time>2021-02-27T11:01:02Z</time>
      </trkpt>
      <trkpt lat="45.2361" lon="6.08104">
        <ele>2177.2</ele>
        <time>2021-02-27T11:01:03Z</time>
      </trkpt>
      <trkpt lat="45.2361" lon="6.08104">
        <ele>2177.2</ele>
        <time>2021-02-27T11:01:04Z</time>
      </trkpt>
      <trkpt lat="45.2361" lon="6.08104">
        <ele>2177.2</ele>
        <time>2021-02-27T11:01:05Z</time>
      </trkpt>
      <trkpt lat="45.2361" lon="6.08104">
        <ele>2177.2</ele>
        <time>2021-02-27T11:01:06Z</time>
      </trkpt>
      <trkpt lat="45.2361" lon="6.08104">
        <ele>2177</ele>
        <time>2021-02-27T11:01:07Z</time>
      </trkpt>
      <trkpt lat="45.2361" lon="6.08104">
        <ele>2177</ele>
        <time>2021-02-27T11:01:08Z</time>
      </trkpt>
      <trkpt lat="45.2361" lon="6.08104">
        <ele>2177.2</ele>
        <time>2021-02-27T11:01:09Z</time>
      </trkpt>
      <trkpt lat="45.2361" lon="6.08104">
        <ele>2177.4</ele>
        <time>2021-02-27T11:01:10Z</time>
      </trkpt>
      <trkpt lat="45.2361" lon="6.08104">
        <ele>2177.4</ele>
        <time>2021-02-27T11:01:11Z</time>
      </trkpt>
      <trkpt lat="45.2361" lon="6.08104">
        <ele>2177.6</ele>
        <time>2021-02-27T11:01:12Z</time>
      </trkpt>
      <trkpt lat="45.2361" lon="6.08104">
        <ele>2177.8</ele>
        <time>2021-02-27T11:01:13Z</time>
      </trkpt>
      <trkpt lat="45.2361" lon="6.08104">
        <ele>2178</ele>
        <time>2021-02-27T11:01:14Z</time>
      </trkpt>
      <trkpt lat="45.2361" lon="6.08104">
        <ele>2178</ele>
        <time>2021-02-27T11:01:15Z</time>
      </trkpt>
      <trkpt lat="45.2361" lon="6.08104">
        <ele>2178</ele>
        <time>2021-02-27T11:01:16Z</time>
      </trkpt>
      <trkpt lat="45.2361" lon="6.08104">
        <ele>2178.2</ele>
        <time>2021-02-27T11:01:17Z</time>
      </trkpt>
      <trkpt lat="45.2361" lon="6.08104">
        <ele>2178.4</ele>
        <time>2021-02-27T11:01:18Z</time>
      </trkpt>
      <trkpt lat="45.2361" lon="6.08104">
        <ele>2178.8</ele>
        <time>2021-02-27T11:01:19Z</time>
      </trkpt>
      <trkpt lat="45.2361" lon="6.08104">
        <ele>2179</ele>
        <time>2021-02-27T11:01:20Z</time>
      </trkpt>
      <trkpt lat="45.2361" lon="6.08104">
        <ele>2179.2</ele>
        <time>2021-02-27T11:01:21Z</time>
      </trkpt>
      <trkpt lat="45.2361" lon="6.08104">
        <ele>2179.6</ele>
        <time>2021-02-27T11:01:22Z</time>
      </trkpt>
      <trkpt lat="45.2361" lon="6.08104">
        <ele>2179.6</ele>
        <time>2021-02-27T11:01:23Z</time>
      </trkpt>
      <trkpt lat="45.2361" lon="6.08104">
        <ele>2179.8</ele>
        <time>2021-02-27T11:01:24Z</time>
      </trkpt>
      <trkpt lat="45.2361" lon="6.08104">
        <ele>2178.8</ele>
        <time>2021-02-27T11:01:25Z</time>
      </trkpt>
      <trkpt lat="45.2361" lon="6.08104">
        <ele>2178.6</ele>
        <time>2021-02-27T11:01:26Z</time>
      </trkpt>
      <trkpt lat="45.2361" lon="6.08104">
        <ele>2177.8</ele>
        <time>2021-02-27T11:01:27Z</time>
      </trkpt>
      <trkpt lat="45.2361" lon="6.08104">
        <ele>2178</ele>
        <time>2021-02-27T11:01:28Z</time>
      </trkpt>
      <trkpt lat="45.2361" lon="6.08104">
        <ele>2178</ele>
        <time>2021-02-27T11:01:29Z</time>
      </trkpt>
      <trkpt lat="45.2361" lon="6.08104">
        <ele>2177.6</ele>
        <time>2021-02-27T11:01:30Z</time>
      </trkpt>
      <trkpt lat="45.2361" lon="6.08104">
        <ele>2177.2</ele>
        <time>2021-02-27T11:01:31Z</time>
      </trkpt>
      <trkpt lat="45.2361" lon="6.08104">
        <ele>2177.6</ele>
        <time>2021-02-27T11:01:32Z</time>
      </trkpt>
      <trkpt lat="45.2361" lon="6.08104">
        <ele>2177.4</ele>
        <time>2021-02-27T11:01:33Z</time>
      </trkpt>
      <trkpt lat="45.2361" lon="6.08104">
        <ele>2177.6</ele>
        <time>2021-02-27T11:01:34Z</time>
      </trkpt>
      <trkpt lat="45.2361" lon="6.08104">
        <ele>2178.4</ele>
        <time>2021-02-27T11:01:35Z</time>
      </trkpt>
      <trkpt lat="45.2361" lon="6.08104">
        <ele>2178.8</ele>
        <time>2021-02-27T11:01:36Z</time>
      </trkpt>
      <trkpt lat="45.2361" lon="6.08104">
        <ele>2179.2</ele>
        <time>2021-02-27T11:01:37Z</time>
      </trkpt>
      <trkpt lat="45.2361" lon="6.08104">
        <ele>2179.4</ele>
        <time>2021-02-27T11:01:38Z</time>
      </trkpt>
      <trkpt lat="45.2361" lon="6.08104">
        <ele>2179.4</ele>
        <time>2021-02-27T11:01:39Z</time>
      </trkpt>
      <trkpt lat="45.2361" lon="6.08104">
        <ele>2179.2</ele>
        <time>2021-02-27T11:01:40Z</time>
      </trkpt>
      <trkpt lat="45.2361" lon="6.08104">
        <ele>2179.6</ele>
        <time>2021-02-27T11:01:41Z</time>
      </trkpt>
      <trkpt lat="45.2361" lon="6.08104">
        <ele>2179.4</ele>
        <time>2021-02-27T11:01:42Z</time>
      </trkpt>
      <trkpt lat="45.2361" lon="6.08104">
        <ele>2179.4</ele>
        <time>2021-02-27T11:01:43Z</time>
      </trkpt>
      <trkpt lat="45.2361" lon="6.08104">
        <ele>2179.2</ele>
        <time>2021-02-27T11:01:44Z</time>
      </trkpt>
      <trkpt lat="45.2361" lon="6.08104">
        <ele>2179.2</ele>
        <time>2021-02-27T11:01:45Z</time>
      </trkpt>
      <trkpt lat="45.2361" lon="6.08104">
        <ele>2179</ele>
        <time>2021-02-27T11:01:46Z</time>
      </trkpt>
      <trkpt lat="45.2361" lon="6.08104">
        <ele>2179.2</ele>
        <time>2021-02-27T11:01:47Z</time>
      </trkpt>
      <trkpt lat="45.2361" lon="6.08104">
        <ele>2179.6</ele>
        <time>2021-02-27T11:01:48Z</time>
      </trkpt>
      <trkpt lat="45.2361" lon="6.08104">
        <ele>2180</ele>
        <time>2021-02-27T11:01:49Z</time>
      </trkpt>
      <trkpt lat="45.2361" lon="6.08104">
        <ele>2179.6</ele>
        <time>2021-02-27T11:01:50Z</time>
      </trkpt>
      <trkpt lat="45.2361" lon="6.08104">
        <ele>2179.2</ele>
        <time>2021-02-27T11:01:51Z</time>
      </trkpt>
      <trkpt lat="45.2361" lon="6.08104">
        <ele>2178.4</ele>
        <time>2021-02-27T11:01:52Z</time>
      </trkpt>
      <trkpt lat="45.2361" lon="6.08104">
        <ele>2178.4</ele>
        <time>2021-02-27T11:01:53Z</time>
      </trkpt>
      <trkpt lat="45.2361" lon="6.08104">
        <ele>2178.4</ele>
        <time>2021-02-27T11:01:54Z</time>
      </trkpt>
      <trkpt lat="45.2361" lon="6.08104">
        <ele>2178.6</ele>
        <time>2021-02-27T11:01:55Z</time>
      </trkpt>
      <trkpt lat="45.2361" lon="6.08104">
        <ele>2178.6</ele>
        <time>2021-02-27T11:01:56Z</time>
      </trkpt>
      <trkpt lat="45.2361" lon="6.08104">
        <ele>2178.6</ele>
        <time>2021-02-27T11:01:57Z</time>
      </trkpt>
      <trkpt lat="45.2361" lon="6.08104">
        <ele>2178.6</ele>
        <time>2021-02-27T11:01:58Z</time>
      </trkpt>
      <trkpt lat="45.2361" lon="6.08104">
        <ele>2178.6</ele>
        <time>2021-02-27T11:01:59Z</time>
      </trkpt>
      <trkpt lat="45.2361" lon="6.08104">
        <ele>2179.6</ele>
        <time>2021-02-27T11:02:00Z</time>
      </trkpt>
      <trkpt lat="45.2361" lon="6.08104">
        <ele>2179.8</ele>
        <time>2021-02-27T11:02:01Z</time>
      </trkpt>
      <trkpt lat="45.2361" lon="6.08104">
        <ele>2179.8</ele>
        <time>2021-02-27T11:02:02Z</time>
      </trkpt>
      <trkpt lat="45.2361" lon="6.08104">
        <ele>2179.4</ele>
        <time>2021-02-27T11:02:03Z</time>
      </trkpt>
      <trkpt lat="45.2361" lon="6.08104">
        <ele>2179.4</ele>
        <time>2021-02-27T11:02:04Z</time>
      </trkpt>
      <trkpt lat="45.2361" lon="6.08104">
        <ele>2179.4</ele>
        <time>2021-02-27T11:02:05Z</time>
      </trkpt>
      <trkpt lat="45.2361" lon="6.08104">
        <ele>2179.2</ele>
        <time>2021-02-27T11:02:06Z</time>
      </trkpt>
      <trkpt lat="45.2361" lon="6.08104">
        <ele>2179.4</ele>
        <time>2021-02-27T11:02:07Z</time>
      </trkpt>
      <trkpt lat="45.2361" lon="6.08104">
        <ele>2179.4</ele>
        <time>2021-02-27T11:02:08Z</time>
      </trkpt>
      <trkpt lat="45.2361" lon="6.08104">
        <ele>2179.6</ele>
        <time>2021-02-27T11:02:09Z</time>
      </trkpt>
      <trkpt lat="45.2361" lon="6.08104">
        <ele>2179.8</ele>
        <time>2021-02-27T11:02:10Z</time>
      </trkpt>
      <trkpt lat="45.2361" lon="6.08104">
        <ele>2180.4</ele>
        <time>2021-02-27T11:02:11Z</time>
      </trkpt>
      <trkpt lat="45.2361" lon="6.08104">
        <ele>2180.2</ele>
        <time>2021-02-27T11:02:12Z</time>
      </trkpt>
      <trkpt lat="45.2361" lon="6.08104">
        <ele>2180.2</ele>
        <time>2021-02-27T11:02:13Z</time>
      </trkpt>
      <trkpt lat="45.2361" lon="6.08104">
        <ele>2179.8</ele>
        <time>2021-02-27T11:02:14Z</time>
      </trkpt>
      <trkpt lat="45.2361" lon="6.08104">
        <ele>2179.8</ele>
        <time>2021-02-27T11:02:15Z</time>
      </trkpt>
      <trkpt lat="45.2361" lon="6.08104">
        <ele>2179.8</ele>
        <time>2021-02-27T11:02:16Z</time>
      </trkpt>
      <trkpt lat="45.2361" lon="6.08104">
        <ele>2179.6</ele>
        <time>2021-02-27T11:02:17Z</time>
      </trkpt>
      <trkpt lat="45.2361" lon="6.08104">
        <ele>2179.6</ele>
        <time>2021-02-27T11:02:18Z</time>
      </trkpt>
      <trkpt lat="45.2361" lon="6.08104">
        <ele>2179.6</ele>
        <time>2021-02-27T11:02:19Z</time>
      </trkpt>
      <trkpt lat="45.2361" lon="6.08104">
        <ele>2179.6</ele>
        <time>2021-02-27T11:02:20Z</time>
      </trkpt>
      <trkpt lat="45.2361" lon="6.08104">
        <ele>2179.2</ele>
        <time>2021-02-27T11:02:21Z</time>
      </trkpt>
      <trkpt lat="45.2361" lon="6.08104">
        <ele>2179.4</ele>
        <time>2021-02-27T11:02:22Z</time>
      </trkpt>
      <trkpt lat="45.2361" lon="6.08104">
        <ele>2179.4</ele>
        <time>2021-02-27T11:02:23Z</time>
      </trkpt>
      <trkpt lat="45.2361" lon="6.08104">
        <ele>2179.8</ele>
        <time>2021-02-27T11:02:24Z</time>
      </trkpt>
      <trkpt lat="45.2361" lon="6.08104">
        <ele>2179.8</ele>
        <time>2021-02-27T11:02:25Z</time>
      </trkpt>
      <trkpt lat="45.2361" lon="6.08104">
        <ele>2180.2</ele>
        <time>2021-02-27T11:02:26Z</time>
      </trkpt>
      <trkpt lat="45.2361" lon="6.08104">
        <ele>2180.4</ele>
        <time>2021-02-27T11:02:27Z</time>
      </trkpt>
      <trkpt lat="45.2361" lon="6.08104">
        <ele>2180.2</ele>
        <time>2021-02-27T11:02:28Z</time>
      </trkpt>
      <trkpt lat="45.2361" lon="6.08104">
        <ele>2180.4</ele>
        <time>2021-02-27T11:02:29Z</time>
      </trkpt>
      <trkpt lat="45.2361" lon="6.08104">
        <ele>2180.8</ele>
        <time>2021-02-27T11:02:30Z</time>
      </trkpt>
      <trkpt lat="45.2361" lon="6.08104">
        <ele>2181.2</ele>
        <time>2021-02-27T11:02:31Z</time>
      </trkpt>
      <trkpt lat="45.2361" lon="6.08104">
        <ele>2181.4</ele>
        <time>2021-02-27T11:02:32Z</time>
      </trkpt>
      <trkpt lat="45.2361" lon="6.08104">
        <ele>2180.8</ele>
        <time>2021-02-27T11:02:33Z</time>
      </trkpt>
      <trkpt lat="45.2361" lon="6.08104">
        <ele>2180.6</ele>
        <time>2021-02-27T11:02:34Z</time>
      </trkpt>
      <trkpt lat="45.2361" lon="6.08104">
        <ele>2180.2</ele>
        <time>2021-02-27T11:02:35Z</time>
      </trkpt>
      <trkpt lat="45.2361" lon="6.08104">
        <ele>2180.2</ele>
        <time>2021-02-27T11:02:36Z</time>
      </trkpt>
      <trkpt lat="45.2361" lon="6.08104">
        <ele>2180</ele>
        <time>2021-02-27T11:02:37Z</time>
      </trkpt>
      <trkpt lat="45.2361" lon="6.08104">
        <ele>2179.6</ele>
        <time>2021-02-27T11:02:38Z</time>
      </trkpt>
      <trkpt lat="45.2361" lon="6.08104">
        <ele>2179.2</ele>
        <time>2021-02-27T11:02:39Z</time>
      </trkpt>
      <trkpt lat="45.2361" lon="6.08104">
        <ele>2179</ele>
        <time>2021-02-27T11:02:40Z</time>
      </trkpt>
      <trkpt lat="45.2361" lon="6.08104">
        <ele>2179</ele>
        <time>2021-02-27T11:02:41Z</time>
      </trkpt>
      <trkpt lat="45.2361" lon="6.08104">
        <ele>2178.8</ele>
        <time>2021-02-27T11:02:42Z</time>
      </trkpt>
      <trkpt lat="45.2361" lon="6.08104">
        <ele>2178.8</ele>
        <time>2021-02-27T11:02:43Z</time>
      </trkpt>
      <trkpt lat="45.2361" lon="6.08104">
        <ele>2178.8</ele>
        <time>2021-02-27T11:02:44Z</time>
      </trkpt>
      <trkpt lat="45.2361" lon="6.08104">
        <ele>2178.8</ele>
        <time>2021-02-27T11:02:45Z</time>
      </trkpt>
      <trkpt lat="45.2361" lon="6.08104">
        <ele>2178.8</ele>
        <time>2021-02-27T11:02:46Z</time>
      </trkpt>
      <trkpt lat="45.2361" lon="6.08104">
        <ele>2178.8</ele>
        <time>2021-02-27T11:02:47Z</time>
      </trkpt>
      <trkpt lat="45.2361" lon="6.08104">
        <ele>2178.6</ele>
        <time>2021-02-27T11:02:48Z</time>
      </trkpt>
      <trkpt lat="45.2361" lon="6.08104">
        <ele>2178.8</ele>
        <time>2021-02-27T11:02:49Z</time>
      </trkpt>
      <trkpt lat="45.2361" lon="6.08104">
        <ele>2178.8</ele>
        <time>2021-02-27T11:02:50Z</time>
      </trkpt>
      <trkpt lat="45.2361" lon="6.08104">
        <ele>2178.8</ele>
        <time>2021-02-27T11:02:51Z</time>
      </trkpt>
      <trkpt lat="45.2361" lon="6.08104">
        <ele>2178.8</ele>
        <time>2021-02-27T11:02:52Z</time>
      </trkpt>
      <trkpt lat="45.2361" lon="6.08104">
        <ele>2178.6</ele>
        <time>2021-02-27T11:02:53Z</time>
      </trkpt>
      <trkpt lat="45.2361" lon="6.08104">
        <ele>2178.8</ele>
        <time>2021-02-27T11:02:54Z</time>
      </trkpt>
      <trkpt lat="45.2361" lon="6.08104">
        <ele>2178.8</ele>
        <time>2021-02-27T11:02:55Z</time>
      </trkpt>
      <trkpt lat="45.2361" lon="6.08104">
        <ele>2178.8</ele>
        <time>2021-02-27T11:02:56Z</time>
      </trkpt>
      <trkpt lat="45.2361" lon="6.08104">
        <ele>2179</ele>
        <time>2021-02-27T11:02:57Z</time>
      </trkpt>
      <trkpt lat="45.2361" lon="6.08104">
        <ele>2178.8</ele>
        <time>2021-02-27T11:02:58Z</time>
      </trkpt>
      <trkpt lat="45.2361" lon="6.08104">
        <ele>2178.8</ele>
        <time>2021-02-27T11:02:59Z</time>
      </trkpt>
      <trkpt lat="45.2361" lon="6.08104">
        <ele>2178.8</ele>
        <time>2021-02-27T11:03:00Z</time>
      </trkpt>
      <trkpt lat="45.2361" lon="6.08104">
        <ele>2178.6</ele>
        <time>2021-02-27T11:03:01Z</time>
      </trkpt>
      <trkpt lat="45.2361" lon="6.08104">
        <ele>2178.6</ele>
        <time>2021-02-27T11:03:02Z</time>
      </trkpt>
      <trkpt lat="45.2361" lon="6.08104">
        <ele>2178.6</ele>
        <time>2021-02-27T11:03:03Z</time>
      </trkpt>
      <trkpt lat="45.2361" lon="6.08104">
        <ele>2178.4</ele>
        <time>2021-02-27T11:03:04Z</time>
      </trkpt>
      <trkpt lat="45.2361" lon="6.08104">
        <ele>2178.4</ele>
        <time>2021-02-27T11:03:05Z</time>
      </trkpt>
      <trkpt lat="45.2361" lon="6.08104">
        <ele>2178.4</ele>
        <time>2021-02-27T11:03:06Z</time>
      </trkpt>
      <trkpt lat="45.2361" lon="6.08104">
        <ele>2178.4</ele>
        <time>2021-02-27T11:03:07Z</time>
      </trkpt>
      <trkpt lat="45.2361" lon="6.08104">
        <ele>2178.6</ele>
        <time>2021-02-27T11:03:08Z</time>
      </trkpt>
      <trkpt lat="45.2361" lon="6.08104">
        <ele>2178.8</ele>
        <time>2021-02-27T11:03:09Z</time>
      </trkpt>
      <trkpt lat="45.2361" lon="6.08104">
        <ele>2178.6</ele>
        <time>2021-02-27T11:03:10Z</time>
      </trkpt>
      <trkpt lat="45.2361" lon="6.08104">
        <ele>2178.6</ele>
        <time>2021-02-27T11:03:11Z</time>
      </trkpt>
      <trkpt lat="45.2361" lon="6.08104">
        <ele>2178.8</ele>
        <time>2021-02-27T11:03:12Z</time>
      </trkpt>
      <trkpt lat="45.2361" lon="6.08104">
        <ele>2179.2</ele>
        <time>2021-02-27T11:03:13Z</time>
      </trkpt>
      <trkpt lat="45.2361" lon="6.08104">
        <ele>2179.4</ele>
        <time>2021-02-27T11:03:14Z</time>
      </trkpt>
      <trkpt lat="45.2361" lon="6.08104">
        <ele>2179.2</ele>
        <time>2021-02-27T11:03:15Z</time>
      </trkpt>
      <trkpt lat="45.2361" lon="6.08104">
        <ele>2179</ele>
        <time>2021-02-27T11:03:16Z</time>
      </trkpt>
      <trkpt lat="45.2361" lon="6.08104">
        <ele>2179.2</ele>
        <time>2021-02-27T11:03:17Z</time>
      </trkpt>
      <trkpt lat="45.2361" lon="6.08104">
        <ele>2179.2</ele>
        <time>2021-02-27T11:03:18Z</time>
      </trkpt>
      <trkpt lat="45.2361" lon="6.08104">
        <ele>2178.4</ele>
        <time>2021-02-27T11:03:19Z</time>
      </trkpt>
      <trkpt lat="45.2361" lon="6.08104">
        <ele>2178.4</ele>
        <time>2021-02-27T11:03:20Z</time>
      </trkpt>
      <trkpt lat="45.2361" lon="6.08104">
        <ele>2178.6</ele>
        <time>2021-02-27T11:03:21Z</time>
      </trkpt>
      <trkpt lat="45.2361" lon="6.08104">
        <ele>2178.8</ele>
        <time>2021-02-27T11:03:22Z</time>
      </trkpt>
      <trkpt lat="45.2361" lon="6.08104">
        <ele>2178.8</ele>
        <time>2021-02-27T11:03:23Z</time>
      </trkpt>
      <trkpt lat="45.2361" lon="6.08104">
        <ele>2179</ele>
        <time>2021-02-27T11:03:24Z</time>
      </trkpt>
      <trkpt lat="45.2361" lon="6.08104">
        <ele>2178.8</ele>
        <time>2021-02-27T11:03:25Z</time>
      </trkpt>
      <trkpt lat="45.2361" lon="6.08104">
        <ele>2179</ele>
        <time>2021-02-27T11:03:26Z</time>
      </trkpt>
      <trkpt lat="45.2361" lon="6.08104">
        <ele>2179</ele>
        <time>2021-02-27T11:03:27Z</time>
      </trkpt>
      <trkpt lat="45.2361" lon="6.08104">
        <ele>2178.8</ele>
        <time>2021-02-27T11:03:28Z</time>
      </trkpt>
      <trkpt lat="45.2361" lon="6.08104">
        <ele>2179</ele>
        <time>2021-02-27T11:03:29Z</time>
      </trkpt>
      <trkpt lat="45.2361" lon="6.08104">
        <ele>2179</ele>
        <time>2021-02-27T11:03:30Z</time>
      </trkpt>
      <trkpt lat="45.2361" lon="6.08104">
        <ele>2179</ele>
        <time>2021-02-27T11:03:31Z</time>
      </trkpt>
      <trkpt lat="45.2361" lon="6.08104">
        <ele>2179.2</ele>
        <time>2021-02-27T11:03:32Z</time>
      </trkpt>
      <trkpt lat="45.2361" lon="6.08104">
        <ele>2179.2</ele>
        <time>2021-02-27T11:03:33Z</time>
      </trkpt>
      <trkpt lat="45.2361" lon="6.08104">
        <ele>2179.2</ele>
        <time>2021-02-27T11:03:34Z</time>
      </trkpt>
      <trkpt lat="45.2361" lon="6.08104">
        <ele>2179.4</ele>
        <time>2021-02-27T11:03:35Z</time>
      </trkpt>
      <trkpt lat="45.2361" lon="6.08104">
        <ele>2179.6</ele>
        <time>2021-02-27T11:03:36Z</time>
      </trkpt>
      <trkpt lat="45.2361" lon="6.08104">
        <ele>2179.6</ele>
        <time>2021-02-27T11:03:37Z</time>
      </trkpt>
      <trkpt lat="45.2361" lon="6.08104">
        <ele>2179.6</ele>
        <time>2021-02-27T11:03:38Z</time>
      </trkpt>
      <trkpt lat="45.2361" lon="6.08104">
        <ele>2179.6</ele>
        <time>2021-02-27T11:03:39Z</time>
      </trkpt>
      <trkpt lat="45.2361" lon="6.08104">
        <ele>2179.4</ele>
        <time>2021-02-27T11:03:40Z</time>
      </trkpt>
      <trkpt lat="45.2361" lon="6.08104">
        <ele>2179.4</ele>
        <time>2021-02-27T11:03:41Z</time>
      </trkpt>
      <trkpt lat="45.2361" lon="6.08104">
        <ele>2179.2</ele>
        <time>2021-02-27T11:03:42Z</time>
      </trkpt>
      <trkpt lat="45.2361" lon="6.08104">
        <ele>2179.6</ele>
        <time>2021-02-27T11:03:43Z</time>
      </trkpt>
      <trkpt lat="45.2361" lon="6.08104">
        <ele>2180.2</ele>
        <time>2021-02-27T11:03:44Z</time>
      </trkpt>
      <trkpt lat="45.2361" lon="6.08104">
        <ele>2180.4</ele>
        <time>2021-02-27T11:03:45Z</time>
      </trkpt>
      <trkpt lat="45.2361" lon="6.08104">
        <ele>2180.4</ele>
        <time>2021-02-27T11:03:46Z</time>
      </trkpt>
      <trkpt lat="45.2361" lon="6.08104">
        <ele>2180</ele>
        <time>2021-02-27T11:03:47Z</time>
      </trkpt>
      <trkpt lat="45.2361" lon="6.08104">
        <ele>2180.2</ele>
        <time>2021-02-27T11:03:48Z</time>
      </trkpt>
      <trkpt lat="45.2361" lon="6.08104">
        <ele>2180.4</ele>
        <time>2021-02-27T11:03:49Z</time>
      </trkpt>
      <trkpt lat="45.2361" lon="6.08104">
        <ele>2180.4</ele>
        <time>2021-02-27T11:03:50Z</time>
      </trkpt>
      <trkpt lat="45.2361" lon="6.08104">
        <ele>2180.8</ele>
        <time>2021-02-27T11:03:51Z</time>
      </trkpt>
      <trkpt lat="45.2361" lon="6.08104">
        <ele>2180.8</ele>
        <time>2021-02-27T11:03:52Z</time>
      </trkpt>
      <trkpt lat="45.2361" lon="6.08104">
        <ele>2180.8</ele>
        <time>2021-02-27T11:03:53Z</time>
      </trkpt>
      <trkpt lat="45.23612" lon="6.08104">
        <ele>2180.4</ele>
        <time>2021-02-27T11:03:54Z</time>
      </trkpt>
      <trkpt lat="45.23612" lon="6.08104">
        <ele>2180.4</ele>
        <time>2021-02-27T11:03:55Z</time>
      </trkpt>
      <trkpt lat="45.23612" lon="6.08104">
        <ele>2180.4</ele>
        <time>2021-02-27T11:03:56Z</time>
      </trkpt>
      <trkpt lat="45.23612" lon="6.08104">
        <ele>2180.6</ele>
        <time>2021-02-27T11:03:57Z</time>
      </trkpt>
      <trkpt lat="45.23612" lon="6.08104">
        <ele>2180.4</ele>
        <time>2021-02-27T11:03:58Z</time>
      </trkpt>
      <trkpt lat="45.23612" lon="6.08104">
        <ele>2180.4</ele>
        <time>2021-02-27T11:03:59Z</time>
      </trkpt>
      <trkpt lat="45.23612" lon="6.08104">
        <ele>2180.4</ele>
        <time>2021-02-27T11:04:00Z</time>
      </trkpt>
      <trkpt lat="45.23612" lon="6.08104">
        <ele>2180.8</ele>
        <time>2021-02-27T11:04:01Z</time>
      </trkpt>
      <trkpt lat="45.23612" lon="6.08104">
        <ele>2180.6</ele>
        <time>2021-02-27T11:04:02Z</time>
      </trkpt>
      <trkpt lat="45.23612" lon="6.08104">
        <ele>2180.4</ele>
        <time>2021-02-27T11:04:03Z</time>
      </trkpt>
      <trkpt lat="45.23612" lon="6.08104">
        <ele>2180.2</ele>
        <time>2021-02-27T11:04:04Z</time>
      </trkpt>
      <trkpt lat="45.23612" lon="6.08104">
        <ele>2180.4</ele>
        <time>2021-02-27T11:04:05Z</time>
      </trkpt>
      <trkpt lat="45.23612" lon="6.08104">
        <ele>2180.4</ele>
        <time>2021-02-27T11:04:06Z</time>
      </trkpt>
      <trkpt lat="45.23612" lon="6.08104">
        <ele>2180.4</ele>
        <time>2021-02-27T11:04:07Z</time>
      </trkpt>
      <trkpt lat="45.23612" lon="6.08104">
        <ele>2180.6</ele>
        <time>2021-02-27T11:04:08Z</time>
      </trkpt>
      <trkpt lat="45.23612" lon="6.08104">
        <ele>2180.6</ele>
        <time>2021-02-27T11:04:09Z</time>
      </trkpt>
      <trkpt lat="45.23612" lon="6.08104">
        <ele>2180.6</ele>
        <time>2021-02-27T11:04:10Z</time>
      </trkpt>
      <trkpt lat="45.23612" lon="6.08104">
        <ele>2180.6</ele>
        <time>2021-02-27T11:04:11Z</time>
      </trkpt>
      <trkpt lat="45.23612" lon="6.08104">
        <ele>2180.8</ele>
        <time>2021-02-27T11:04:12Z</time>
      </trkpt>
      <trkpt lat="45.23612" lon="6.08104">
        <ele>2180.8</ele>
        <time>2021-02-27T11:04:13Z</time>
      </trkpt>
      <trkpt lat="45.23612" lon="6.08104">
        <ele>2180.8</ele>
        <time>2021-02-27T11:04:14Z</time>
      </trkpt>
      <trkpt lat="45.23612" lon="6.08104">
        <ele>2180.6</ele>
        <time>2021-02-27T11:04:15Z</time>
      </trkpt>
      <trkpt lat="45.23612" lon="6.08104">
        <ele>2180.2</ele>
        <time>2021-02-27T11:04:16Z</time>
      </trkpt>
      <trkpt lat="45.23611" lon="6.08103">
        <ele>2180.6</ele>
        <time>2021-02-27T11:04:17Z</time>
      </trkpt>
      <trkpt lat="45.23611" lon="6.08103">
        <ele>2180.8</ele>
        <time>2021-02-27T11:04:18Z</time>
      </trkpt>
      <trkpt lat="45.23611" lon="6.08103">
        <ele>2180.8</ele>
        <time>2021-02-27T11:04:19Z</time>
      </trkpt>
      <trkpt lat="45.23611" lon="6.08103">
        <ele>2181.4</ele>
        <time>2021-02-27T11:04:20Z</time>
      </trkpt>
      <trkpt lat="45.23611" lon="6.08103">
        <ele>2181.4</ele>
        <time>2021-02-27T11:04:21Z</time>
      </trkpt>
      <trkpt lat="45.23611" lon="6.08103">
        <ele>2181.6</ele>
        <time>2021-02-27T11:04:22Z</time>
      </trkpt>
      <trkpt lat="45.23611" lon="6.08103">
        <ele>2181.6</ele>
        <time>2021-02-27T11:04:23Z</time>
      </trkpt>
      <trkpt lat="45.23611" lon="6.08103">
        <ele>2181.6</ele>
        <time>2021-02-27T11:04:24Z</time>
      </trkpt>
      <trkpt lat="45.23611" lon="6.08103">
        <ele>2181.8</ele>
        <time>2021-02-27T11:04:25Z</time>
      </trkpt>
      <trkpt lat="45.23611" lon="6.08103">
        <ele>2182</ele>
        <time>2021-02-27T11:04:26Z</time>
      </trkpt>
      <trkpt lat="45.23611" lon="6.08103">
        <ele>2182.4</ele>
        <time>2021-02-27T11:04:27Z</time>
      </trkpt>
      <trkpt lat="45.23611" lon="6.08103">
        <ele>2182.4</ele>
        <time>2021-02-27T11:04:28Z</time>
      </trkpt>
      <trkpt lat="45.23611" lon="6.08103">
        <ele>2182.8</ele>
        <time>2021-02-27T11:04:29Z</time>
      </trkpt>
      <trkpt lat="45.23611" lon="6.08103">
        <ele>2182.8</ele>
        <time>2021-02-27T11:04:30Z</time>
      </trkpt>
      <trkpt lat="45.23611" lon="6.08103">
        <ele>2183</ele>
        <time>2021-02-27T11:04:31Z</time>
      </trkpt>
      <trkpt lat="45.23611" lon="6.08103">
        <ele>2183.2</ele>
        <time>2021-02-27T11:04:32Z</time>
      </trkpt>
      <trkpt lat="45.23611" lon="6.08103">
        <ele>2183.8</ele>
        <time>2021-02-27T11:04:33Z</time>
      </trkpt>
      <trkpt lat="45.23611" lon="6.08103">
        <ele>2184.4</ele>
        <time>2021-02-27T11:04:34Z</time>
      </trkpt>
      <trkpt lat="45.23611" lon="6.08103">
        <ele>2184.4</ele>
        <time>2021-02-27T11:04:35Z</time>
      </trkpt>
      <trkpt lat="45.23611" lon="6.08103">
        <ele>2183.8</ele>
        <time>2021-02-27T11:04:36Z</time>
      </trkpt>
      <trkpt lat="45.23611" lon="6.08103">
        <ele>2183.4</ele>
        <time>2021-02-27T11:04:37Z</time>
      </trkpt>
      <trkpt lat="45.23611" lon="6.08103">
        <ele>2183.2</ele>
        <time>2021-02-27T11:04:38Z</time>
      </trkpt>
      <trkpt lat="45.23611" lon="6.08103">
        <ele>2183.2</ele>
        <time>2021-02-27T11:04:39Z</time>
      </trkpt>
      <trkpt lat="45.23611" lon="6.08103">
        <ele>2183</ele>
        <time>2021-02-27T11:04:40Z</time>
      </trkpt>
      <trkpt lat="45.23611" lon="6.08103">
        <ele>2183</ele>
        <time>2021-02-27T11:04:41Z</time>
      </trkpt>
      <trkpt lat="45.23611" lon="6.08103">
        <ele>2183</ele>
        <time>2021-02-27T11:04:42Z</time>
      </trkpt>
      <trkpt lat="45.23611" lon="6.08103">
        <ele>2182.8</ele>
        <time>2021-02-27T11:04:43Z</time>
      </trkpt>
      <trkpt lat="45.23611" lon="6.08103">
        <ele>2182.6</ele>
        <time>2021-02-27T11:04:44Z</time>
      </trkpt>
      <trkpt lat="45.23611" lon="6.08103">
        <ele>2182.4</ele>
        <time>2021-02-27T11:04:45Z</time>
      </trkpt>
      <trkpt lat="45.23611" lon="6.08103">
        <ele>2182.4</ele>
        <time>2021-02-27T11:04:46Z</time>
      </trkpt>
      <trkpt lat="45.23611" lon="6.08103">
        <ele>2182.2</ele>
        <time>2021-02-27T11:04:47Z</time>
      </trkpt>
      <trkpt lat="45.23611" lon="6.08103">
        <ele>2182</ele>
        <time>2021-02-27T11:04:48Z</time>
      </trkpt>
      <trkpt lat="45.23611" lon="6.08103">
        <ele>2182.4</ele>
        <time>2021-02-27T11:04:49Z</time>
      </trkpt>
      <trkpt lat="45.23611" lon="6.08103">
        <ele>2182.4</ele>
        <time>2021-02-27T11:04:50Z</time>
      </trkpt>
      <trkpt lat="45.23611" lon="6.08103">
        <ele>2182.4</ele>
        <time>2021-02-27T11:04:51Z</time>
      </trkpt>
      <trkpt lat="45.23611" lon="6.08103">
        <ele>2182.2</ele>
        <time>2021-02-27T11:04:52Z</time>
      </trkpt>
      <trkpt lat="45.23611" lon="6.08103">
        <ele>2182</ele>
        <time>2021-02-27T11:04:53Z</time>
      </trkpt>
      <trkpt lat="45.23611" lon="6.08103">
        <ele>2182</ele>
        <time>2021-02-27T11:04:54Z</time>
      </trkpt>
      <trkpt lat="45.23611" lon="6.08103">
        <ele>2181.8</ele>
        <time>2021-02-27T11:04:55Z</time>
      </trkpt>
      <trkpt lat="45.23611" lon="6.08103">
        <ele>2181.6</ele>
        <time>2021-02-27T11:04:56Z</time>
      </trkpt>
      <trkpt lat="45.23611" lon="6.08103">
        <ele>2181.6</ele>
        <time>2021-02-27T11:04:57Z</time>
      </trkpt>
      <trkpt lat="45.23611" lon="6.08103">
        <ele>2181.4</ele>
        <time>2021-02-27T11:04:58Z</time>
      </trkpt>
      <trkpt lat="45.23611" lon="6.08103">
        <ele>2181.6</ele>
        <time>2021-02-27T11:04:59Z</time>
      </trkpt>
      <trkpt lat="45.23611" lon="6.08103">
        <ele>2182</ele>
        <time>2021-02-27T11:05:00Z</time>
      </trkpt>
      <trkpt lat="45.23611" lon="6.08103">
        <ele>2182</ele>
        <time>2021-02-27T11:05:01Z</time>
      </trkpt>
      <trkpt lat="45.23611" lon="6.08103">
        <ele>2182</ele>
        <time>2021-02-27T11:05:02Z</time>
      </trkpt>
      <trkpt lat="45.23611" lon="6.08103">
        <ele>2182</ele>
        <time>2021-02-27T11:05:03Z</time>
      </trkpt>
      <trkpt lat="45.23611" lon="6.08103">
        <ele>2181.8</ele>
        <time>2021-02-27T11:05:04Z</time>
      </trkpt>
      <trkpt lat="45.23611" lon="6.08103">
        <ele>2182.2</ele>
        <time>2021-02-27T11:05:05Z</time>
      </trkpt>
      <trkpt lat="45.23611" lon="6.08103">
        <ele>2182.6</ele>
        <time>2021-02-27T11:05:06Z</time>
      </trkpt>
      <trkpt lat="45.23611" lon="6.08103">
        <ele>2182.4</ele>
        <time>2021-02-27T11:05:07Z</time>
      </trkpt>
      <trkpt lat="45.23611" lon="6.08103">
        <ele>2182.8</ele>
        <time>2021-02-27T11:05:08Z</time>
      </trkpt>
      <trkpt lat="45.23611" lon="6.08103">
        <ele>2183.2</ele>
        <time>2021-02-27T11:05:09Z</time>
      </trkpt>
      <trkpt lat="45.23609" lon="6.08105">
        <ele>2183</ele>
        <time>2021-02-27T11:05:10Z</time>
      </trkpt>
      <trkpt lat="45.23609" lon="6.08105">
        <ele>2183</ele>
        <time>2021-02-27T11:05:11Z</time>
      </trkpt>
      <trkpt lat="45.23609" lon="6.08105">
        <ele>2183</ele>
        <time>2021-02-27T11:05:12Z</time>
      </trkpt>
      <trkpt lat="45.23609" lon="6.08105">
        <ele>2182.8</ele>
        <time>2021-02-27T11:05:13Z</time>
      </trkpt>
      <trkpt lat="45.23609" lon="6.08105">
        <ele>2182.6</ele>
        <time>2021-02-27T11:05:14Z</time>
      </trkpt>
      <trkpt lat="45.23609" lon="6.08105">
        <ele>2182.6</ele>
        <time>2021-02-27T11:05:15Z</time>
      </trkpt>
      <trkpt lat="45.23609" lon="6.08105">
        <ele>2182.6</ele>
        <time>2021-02-27T11:05:16Z</time>
      </trkpt>
      <trkpt lat="45.23609" lon="6.08105">
        <ele>2182.4</ele>
        <time>2021-02-27T11:05:17Z</time>
      </trkpt>
      <trkpt lat="45.23609" lon="6.08105">
        <ele>2182.4</ele>
        <time>2021-02-27T11:05:18Z</time>
      </trkpt>
      <trkpt lat="45.23609" lon="6.08105">
        <ele>2182</ele>
        <time>2021-02-27T11:05:19Z</time>
      </trkpt>
      <trkpt lat="45.23609" lon="6.08105">
        <ele>2181.8</ele>
        <time>2021-02-27T11:05:20Z</time>
      </trkpt>
      <trkpt lat="45.23609" lon="6.08105">
        <ele>2181.6</ele>
        <time>2021-02-27T11:05:21Z</time>
      </trkpt>
      <trkpt lat="45.23609" lon="6.08105">
        <ele>2181.4</ele>
        <time>2021-02-27T11:05:22Z</time>
      </trkpt>
      <trkpt lat="45.23609" lon="6.08105">
        <ele>2181.4</ele>
        <time>2021-02-27T11:05:23Z</time>
      </trkpt>
      <trkpt lat="45.23609" lon="6.08105">
        <ele>2181.4</ele>
        <time>2021-02-27T11:05:24Z</time>
      </trkpt>
      <trkpt lat="45.23609" lon="6.08105">
        <ele>2180.8</ele>
        <time>2021-02-27T11:05:25Z</time>
      </trkpt>
      <trkpt lat="45.23609" lon="6.08105">
        <ele>2180.6</ele>
        <time>2021-02-27T11:05:26Z</time>
      </trkpt>
      <trkpt lat="45.23609" lon="6.08105">
        <ele>2180.4</ele>
        <time>2021-02-27T11:05:27Z</time>
      </trkpt>
      <trkpt lat="45.23609" lon="6.08105">
        <ele>2180</ele>
        <time>2021-02-27T11:05:28Z</time>
      </trkpt>
      <trkpt lat="45.23609" lon="6.08105">
        <ele>2180</ele>
        <time>2021-02-27T11:05:29Z</time>
      </trkpt>
      <trkpt lat="45.23609" lon="6.08105">
        <ele>2180.2</ele>
        <time>2021-02-27T11:05:30Z</time>
      </trkpt>
      <trkpt lat="45.23609" lon="6.08105">
        <ele>2180.4</ele>
        <time>2021-02-27T11:05:31Z</time>
      </trkpt>
      <trkpt lat="45.23609" lon="6.08105">
        <ele>2180.2</ele>
        <time>2021-02-27T11:05:32Z</time>
      </trkpt>
      <trkpt lat="45.23609" lon="6.08105">
        <ele>2180.4</ele>
        <time>2021-02-27T11:05:33Z</time>
      </trkpt>
      <trkpt lat="45.23609" lon="6.08105">
        <ele>2180.6</ele>
        <time>2021-02-27T11:05:34Z</time>
      </trkpt>
      <trkpt lat="45.23609" lon="6.08105">
        <ele>2181</ele>
        <time>2021-02-27T11:05:35Z</time>
      </trkpt>
      <trkpt lat="45.23609" lon="6.08105">
        <ele>2180.6</ele>
        <time>2021-02-27T11:05:36Z</time>
      </trkpt>
      <trkpt lat="45.23609" lon="6.08105">
        <ele>2180.2</ele>
        <time>2021-02-27T11:05:37Z</time>
      </trkpt>
      <trkpt lat="45.23609" lon="6.08105">
        <ele>2180.2</ele>
        <time>2021-02-27T11:05:38Z</time>
      </trkpt>
      <trkpt lat="45.23609" lon="6.08105">
        <ele>2180.2</ele>
        <time>2021-02-27T11:05:39Z</time>
      </trkpt>
      <trkpt lat="45.23609" lon="6.08105">
        <ele>2180.6</ele>
        <time>2021-02-27T11:05:40Z</time>
      </trkpt>
      <trkpt lat="45.23609" lon="6.08105">
        <ele>2180.6</ele>
        <time>2021-02-27T11:05:41Z</time>
      </trkpt>
      <trkpt lat="45.23609" lon="6.08105">
        <ele>2180.6</ele>
        <time>2021-02-27T11:05:42Z</time>
      </trkpt>
      <trkpt lat="45.23609" lon="6.08105">
        <ele>2180.6</ele>
        <time>2021-02-27T11:05:43Z</time>
      </trkpt>
      <trkpt lat="45.23609" lon="6.08105">
        <ele>2180.4</ele>
        <time>2021-02-27T11:05:44Z</time>
      </trkpt>
      <trkpt lat="45.23609" lon="6.08105">
        <ele>2180.8</ele>
        <time>2021-02-27T11:05:45Z</time>
      </trkpt>
      <trkpt lat="45.23609" lon="6.08105">
        <ele>2181</ele>
        <time>2021-02-27T11:05:46Z</time>
      </trkpt>
      <trkpt lat="45.23609" lon="6.08105">
        <ele>2180.6</ele>
        <time>2021-02-27T11:05:47Z</time>
      </trkpt>
      <trkpt lat="45.23609" lon="6.08105">
        <ele>2180.6</ele>
        <time>2021-02-27T11:05:48Z</time>
      </trkpt>
      <trkpt lat="45.23609" lon="6.08105">
        <ele>2180.8</ele>
        <time>2021-02-27T11:05:49Z</time>
      </trkpt>
      <trkpt lat="45.23609" lon="6.08105">
        <ele>2181</ele>
        <time>2021-02-27T11:05:50Z</time>
      </trkpt>
      <trkpt lat="45.23609" lon="6.08105">
        <ele>2181.2</ele>
        <time>2021-02-27T11:05:51Z</time>
      </trkpt>
      <trkpt lat="45.23609" lon="6.08105">
        <ele>2181.2</ele>
        <time>2021-02-27T11:05:52Z</time>
      </trkpt>
      <trkpt lat="45.23609" lon="6.08105">
        <ele>2181.6</ele>
        <time>2021-02-27T11:05:53Z</time>
      </trkpt>
      <trkpt lat="45.23609" lon="6.08105">
        <ele>2181.4</ele>
        <time>2021-02-27T11:05:54Z</time>
      </trkpt>
      <trkpt lat="45.23609" lon="6.08105">
        <ele>2181.4</ele>
        <time>2021-02-27T11:05:55Z</time>
      </trkpt>
      <trkpt lat="45.23609" lon="6.08105">
        <ele>2181.4</ele>
        <time>2021-02-27T11:05:56Z</time>
      </trkpt>
      <trkpt lat="45.23609" lon="6.08105">
        <ele>2181.4</ele>
        <time>2021-02-27T11:05:57Z</time>
      </trkpt>
      <trkpt lat="45.23609" lon="6.08105">
        <ele>2181.6</ele>
        <time>2021-02-27T11:05:58Z</time>
      </trkpt>
      <trkpt lat="45.23609" lon="6.08105">
        <ele>2181.8</ele>
        <time>2021-02-27T11:05:59Z</time>
      </trkpt>
      <trkpt lat="45.23609" lon="6.08105">
        <ele>2182</ele>
        <time>2021-02-27T11:06:00Z</time>
      </trkpt>
      <trkpt lat="45.23609" lon="6.08105">
        <ele>2182.4</ele>
        <time>2021-02-27T11:06:01Z</time>
      </trkpt>
      <trkpt lat="45.23609" lon="6.08105">
        <ele>2182.2</ele>
        <time>2021-02-27T11:06:02Z</time>
      </trkpt>
      <trkpt lat="45.23609" lon="6.08105">
        <ele>2182.6</ele>
        <time>2021-02-27T11:06:03Z</time>
      </trkpt>
      <trkpt lat="45.23611" lon="6.08106">
        <ele>2182</ele>
        <time>2021-02-27T11:06:04Z</time>
      </trkpt>
      <trkpt lat="45.23611" lon="6.08106">
        <ele>2181.8</ele>
        <time>2021-02-27T11:06:05Z</time>
      </trkpt>
      <trkpt lat="45.23611" lon="6.08106">
        <ele>2182</ele>
        <time>2021-02-27T11:06:06Z</time>
      </trkpt>
      <trkpt lat="45.23611" lon="6.08106">
        <ele>2182</ele>
        <time>2021-02-27T11:06:07Z</time>
      </trkpt>
      <trkpt lat="45.23611" lon="6.08106">
        <ele>2181.6</ele>
        <time>2021-02-27T11:06:08Z</time>
      </trkpt>
      <trkpt lat="45.23611" lon="6.08106">
        <ele>2181.4</ele>
        <time>2021-02-27T11:06:09Z</time>
      </trkpt>
      <trkpt lat="45.23611" lon="6.08106">
        <ele>2180.8</ele>
        <time>2021-02-27T11:06:10Z</time>
      </trkpt>
      <trkpt lat="45.23611" lon="6.08106">
        <ele>2180.6</ele>
        <time>2021-02-27T11:06:11Z</time>
      </trkpt>
      <trkpt lat="45.23611" lon="6.08106">
        <ele>2180.4</ele>
        <time>2021-02-27T11:06:12Z</time>
      </trkpt>
      <trkpt lat="45.23611" lon="6.08106">
        <ele>2180.4</ele>
        <time>2021-02-27T11:06:13Z</time>
      </trkpt>
      <trkpt lat="45.23611" lon="6.08106">
        <ele>2180.6</ele>
        <time>2021-02-27T11:06:14Z</time>
      </trkpt>
      <trkpt lat="45.23611" lon="6.08106">
        <ele>2180.6</ele>
        <time>2021-02-27T11:06:15Z</time>
      </trkpt>
      <trkpt lat="45.23611" lon="6.08106">
        <ele>2180.8</ele>
        <time>2021-02-27T11:06:16Z</time>
      </trkpt>
      <trkpt lat="45.23611" lon="6.08106">
        <ele>2180.8</ele>
        <time>2021-02-27T11:06:17Z</time>
      </trkpt>
      <trkpt lat="45.23611" lon="6.08106">
        <ele>2180.6</ele>
        <time>2021-02-27T11:06:18Z</time>
      </trkpt>
      <trkpt lat="45.23611" lon="6.08106">
        <ele>2180.6</ele>
        <time>2021-02-27T11:06:19Z</time>
      </trkpt>
      <trkpt lat="45.23611" lon="6.08106">
        <ele>2180.8</ele>
        <time>2021-02-27T11:06:20Z</time>
      </trkpt>
      <trkpt lat="45.23611" lon="6.08106">
        <ele>2181</ele>
        <time>2021-02-27T11:06:21Z</time>
      </trkpt>
      <trkpt lat="45.23611" lon="6.08106">
        <ele>2181</ele>
        <time>2021-02-27T11:06:22Z</time>
      </trkpt>
      <trkpt lat="45.23611" lon="6.08106">
        <ele>2181.2</ele>
        <time>2021-02-27T11:06:23Z</time>
      </trkpt>
      <trkpt lat="45.23611" lon="6.08106">
        <ele>2180.8</ele>
        <time>2021-02-27T11:06:24Z</time>
      </trkpt>
      <trkpt lat="45.23611" lon="6.08106">
        <ele>2180.8</ele>
        <time>2021-02-27T11:06:25Z</time>
      </trkpt>
      <trkpt lat="45.23611" lon="6.08106">
        <ele>2181</ele>
        <time>2021-02-27T11:06:26Z</time>
      </trkpt>
      <trkpt lat="45.23611" lon="6.08106">
        <ele>2181</ele>
        <time>2021-02-27T11:06:27Z</time>
      </trkpt>
      <trkpt lat="45.23611" lon="6.08106">
        <ele>2180.6</ele>
        <time>2021-02-27T11:06:28Z</time>
      </trkpt>
      <trkpt lat="45.23611" lon="6.08106">
        <ele>2180.6</ele>
        <time>2021-02-27T11:06:29Z</time>
      </trkpt>
      <trkpt lat="45.23611" lon="6.08106">
        <ele>2180.8</ele>
        <time>2021-02-27T11:06:30Z</time>
      </trkpt>
      <trkpt lat="45.23611" lon="6.08106">
        <ele>2180.4</ele>
        <time>2021-02-27T11:06:31Z</time>
      </trkpt>
      <trkpt lat="45.23611" lon="6.08106">
        <ele>2180.6</ele>
        <time>2021-02-27T11:06:32Z</time>
      </trkpt>
      <trkpt lat="45.23611" lon="6.08106">
        <ele>2180.6</ele>
        <time>2021-02-27T11:06:33Z</time>
      </trkpt>
      <trkpt lat="45.23611" lon="6.08106">
        <ele>2180.8</ele>
        <time>2021-02-27T11:06:34Z</time>
      </trkpt>
      <trkpt lat="45.23611" lon="6.08106">
        <ele>2181.2</ele>
        <time>2021-02-27T11:06:35Z</time>
      </trkpt>
      <trkpt lat="45.23611" lon="6.08106">
        <ele>2181.8</ele>
        <time>2021-02-27T11:06:36Z</time>
      </trkpt>
      <trkpt lat="45.23611" lon="6.08106">
        <ele>2181.6</ele>
        <time>2021-02-27T11:06:37Z</time>
      </trkpt>
      <trkpt lat="45.23611" lon="6.08106">
        <ele>2181.6</ele>
        <time>2021-02-27T11:06:38Z</time>
      </trkpt>
      <trkpt lat="45.23611" lon="6.08106">
        <ele>2182.2</ele>
        <time>2021-02-27T11:06:39Z</time>
      </trkpt>
      <trkpt lat="45.23611" lon="6.08106">
        <ele>2182</ele>
        <time>2021-02-27T11:06:40Z</time>
      </trkpt>
      <trkpt lat="45.23611" lon="6.08106">
        <ele>2182</ele>
        <time>2021-02-27T11:06:41Z</time>
      </trkpt>
      <trkpt lat="45.23611" lon="6.08106">
        <ele>2182</ele>
        <time>2021-02-27T11:06:42Z</time>
      </trkpt>
      <trkpt lat="45.23611" lon="6.08106">
        <ele>2182.2</ele>
        <time>2021-02-27T11:06:43Z</time>
      </trkpt>
      <trkpt lat="45.23611" lon="6.08106">
        <ele>2181.8</ele>
        <time>2021-02-27T11:06:44Z</time>
      </trkpt>
      <trkpt lat="45.23611" lon="6.08106">
        <ele>2182.2</ele>
        <time>2021-02-27T11:06:45Z</time>
      </trkpt>
      <trkpt lat="45.23611" lon="6.08106">
        <ele>2182.4</ele>
        <time>2021-02-27T11:06:46Z</time>
      </trkpt>
      <trkpt lat="45.23611" lon="6.08106">
        <ele>2182.4</ele>
        <time>2021-02-27T11:06:47Z</time>
      </trkpt>
      <trkpt lat="45.23611" lon="6.08106">
        <ele>2182.2</ele>
        <time>2021-02-27T11:06:48Z</time>
      </trkpt>
      <trkpt lat="45.23611" lon="6.08106">
        <ele>2182</ele>
        <time>2021-02-27T11:06:49Z</time>
      </trkpt>
      <trkpt lat="45.23611" lon="6.08106">
        <ele>2181.8</ele>
        <time>2021-02-27T11:06:50Z</time>
      </trkpt>
      <trkpt lat="45.23611" lon="6.08106">
        <ele>2181.8</ele>
        <time>2021-02-27T11:06:51Z</time>
      </trkpt>
      <trkpt lat="45.23611" lon="6.08106">
        <ele>2181.4</ele>
        <time>2021-02-27T11:06:52Z</time>
      </trkpt>
      <trkpt lat="45.23611" lon="6.08106">
        <ele>2182</ele>
        <time>2021-02-27T11:06:53Z</time>
      </trkpt>
      <trkpt lat="45.23611" lon="6.08106">
        <ele>2182</ele>
        <time>2021-02-27T11:06:54Z</time>
      </trkpt>
      <trkpt lat="45.23611" lon="6.08106">
        <ele>2181.6</ele>
        <time>2021-02-27T11:06:55Z</time>
      </trkpt>
      <trkpt lat="45.23611" lon="6.08106">
        <ele>2181.6</ele>
        <time>2021-02-27T11:06:56Z</time>
      </trkpt>
      <trkpt lat="45.23611" lon="6.08106">
        <ele>2181.6</ele>
        <time>2021-02-27T11:06:57Z</time>
      </trkpt>
      <trkpt lat="45.23611" lon="6.08106">
        <ele>2181.4</ele>
        <time>2021-02-27T11:06:58Z</time>
      </trkpt>
      <trkpt lat="45.23611" lon="6.08106">
        <ele>2181.6</ele>
        <time>2021-02-27T11:06:59Z</time>
      </trkpt>
      <trkpt lat="45.23611" lon="6.08106">
        <ele>2181.8</ele>
        <time>2021-02-27T11:07:00Z</time>
      </trkpt>
      <trkpt lat="45.23611" lon="6.08106">
        <ele>2181.8</ele>
        <time>2021-02-27T11:07:01Z</time>
      </trkpt>
      <trkpt lat="45.23611" lon="6.08106">
        <ele>2181.8</ele>
        <time>2021-02-27T11:07:02Z</time>
      </trkpt>
      <trkpt lat="45.23611" lon="6.08106">
        <ele>2181.8</ele>
        <time>2021-02-27T11:07:03Z</time>
      </trkpt>
      <trkpt lat="45.23611" lon="6.08106">
        <ele>2181.8</ele>
        <time>2021-02-27T11:07:04Z</time>
      </trkpt>
      <trkpt lat="45.23612" lon="6.08103">
        <ele>2181.8</ele>
        <time>2021-02-27T11:07:05Z</time>
      </trkpt>
      <trkpt lat="45.23612" lon="6.08103">
        <ele>2182</ele>
        <time>2021-02-27T11:07:06Z</time>
      </trkpt>
      <trkpt lat="45.23614" lon="6.081">
        <ele>2182</ele>
        <time>2021-02-27T11:07:07Z</time>
      </trkpt>
      <trkpt lat="45.23614" lon="6.081">
        <ele>2181.8</ele>
        <time>2021-02-27T11:07:08Z</time>
      </trkpt>
      <trkpt lat="45.23614" lon="6.081">
        <ele>2181.8</ele>
        <time>2021-02-27T11:07:09Z</time>
      </trkpt>
      <trkpt lat="45.23614" lon="6.081">
        <ele>2181.6</ele>
        <time>2021-02-27T11:07:10Z</time>
      </trkpt>
      <trkpt lat="45.23614" lon="6.081">
        <ele>2181.4</ele>
        <time>2021-02-27T11:07:11Z</time>
      </trkpt>
      <trkpt lat="45.23614" lon="6.081">
        <ele>2181.6</ele>
        <time>2021-02-27T11:07:12Z</time>
      </trkpt>
      <trkpt lat="45.23614" lon="6.081">
        <ele>2181.8</ele>
        <time>2021-02-27T11:07:13Z</time>
      </trkpt>
      <trkpt lat="45.23614" lon="6.081">
        <ele>2182</ele>
        <time>2021-02-27T11:07:14Z</time>
      </trkpt>
      <trkpt lat="45.23614" lon="6.081">
        <ele>2182</ele>
        <time>2021-02-27T11:07:15Z</time>
      </trkpt>
      <trkpt lat="45.23614" lon="6.081">
        <ele>2182</ele>
        <time>2021-02-27T11:07:16Z</time>
      </trkpt>
      <trkpt lat="45.23614" lon="6.081">
        <ele>2182</ele>
        <time>2021-02-27T11:07:17Z</time>
      </trkpt>
      <trkpt lat="45.23614" lon="6.081">
        <ele>2182</ele>
        <time>2021-02-27T11:07:18Z</time>
      </trkpt>
      <trkpt lat="45.23614" lon="6.081">
        <ele>2182</ele>
        <time>2021-02-27T11:07:19Z</time>
      </trkpt>
      <trkpt lat="45.23614" lon="6.081">
        <ele>2182.6</ele>
        <time>2021-02-27T11:07:20Z</time>
      </trkpt>
      <trkpt lat="45.23614" lon="6.081">
        <ele>2182.8</ele>
        <time>2021-02-27T11:07:21Z</time>
      </trkpt>
      <trkpt lat="45.23614" lon="6.081">
        <ele>2183.2</ele>
        <time>2021-02-27T11:07:22Z</time>
      </trkpt>
      <trkpt lat="45.23614" lon="6.081">
        <ele>2183.2</ele>
        <time>2021-02-27T11:07:23Z</time>
      </trkpt>
      <trkpt lat="45.23614" lon="6.081">
        <ele>2183.4</ele>
        <time>2021-02-27T11:07:24Z</time>
      </trkpt>
      <trkpt lat="45.23614" lon="6.081">
        <ele>2183.2</ele>
        <time>2021-02-27T11:07:25Z</time>
      </trkpt>
      <trkpt lat="45.23614" lon="6.081">
        <ele>2183.4</ele>
        <time>2021-02-27T11:07:26Z</time>
      </trkpt>
      <trkpt lat="45.23614" lon="6.081">
        <ele>2183.2</ele>
        <time>2021-02-27T11:07:27Z</time>
      </trkpt>
      <trkpt lat="45.23614" lon="6.081">
        <ele>2183.4</ele>
        <time>2021-02-27T11:07:28Z</time>
      </trkpt>
      <trkpt lat="45.23612" lon="6.08101">
        <ele>2183.6</ele>
        <time>2021-02-27T11:07:29Z</time>
      </trkpt>
      <trkpt lat="45.23612" lon="6.08101">
        <ele>2183.6</ele>
        <time>2021-02-27T11:07:30Z</time>
      </trkpt>
      <trkpt lat="45.23612" lon="6.08101">
        <ele>2183.4</ele>
        <time>2021-02-27T11:07:31Z</time>
      </trkpt>
      <trkpt lat="45.23612" lon="6.08101">
        <ele>2183.2</ele>
        <time>2021-02-27T11:07:32Z</time>
      </trkpt>
      <trkpt lat="45.23612" lon="6.08101">
        <ele>2183.2</ele>
        <time>2021-02-27T11:07:33Z</time>
      </trkpt>
      <trkpt lat="45.23612" lon="6.08101">
        <ele>2183.6</ele>
        <time>2021-02-27T11:07:34Z</time>
      </trkpt>
      <trkpt lat="45.23612" lon="6.08101">
        <ele>2183.2</ele>
        <time>2021-02-27T11:07:35Z</time>
      </trkpt>
      <trkpt lat="45.23612" lon="6.08101">
        <ele>2182.8</ele>
        <time>2021-02-27T11:07:36Z</time>
      </trkpt>
      <trkpt lat="45.23612" lon="6.08101">
        <ele>2182.8</ele>
        <time>2021-02-27T11:07:37Z</time>
      </trkpt>
      <trkpt lat="45.23611" lon="6.08103">
        <ele>2182.8</ele>
        <time>2021-02-27T11:07:38Z</time>
      </trkpt>
      <trkpt lat="45.23611" lon="6.08103">
        <ele>2182.6</ele>
        <time>2021-02-27T11:07:39Z</time>
      </trkpt>
      <trkpt lat="45.23611" lon="6.08103">
        <ele>2182.8</ele>
        <time>2021-02-27T11:07:40Z</time>
      </trkpt>
      <trkpt lat="45.23612" lon="6.08107">
        <ele>2182.8</ele>
        <time>2021-02-27T11:07:41Z</time>
      </trkpt>
      <trkpt lat="45.23612" lon="6.08107">
        <ele>2183.2</ele>
        <time>2021-02-27T11:07:42Z</time>
      </trkpt>
      <trkpt lat="45.23613" lon="6.0811">
        <ele>2183.4</ele>
        <time>2021-02-27T11:07:43Z</time>
      </trkpt>
      <trkpt lat="45.23613" lon="6.0811">
        <ele>2183.6</ele>
        <time>2021-02-27T11:07:44Z</time>
      </trkpt>
      <trkpt lat="45.23614" lon="6.08112">
        <ele>2183.4</ele>
        <time>2021-02-27T11:07:45Z</time>
      </trkpt>
      <trkpt lat="45.23614" lon="6.08112">
        <ele>2183.4</ele>
        <time>2021-02-27T11:07:46Z</time>
      </trkpt>
      <trkpt lat="45.23615" lon="6.08115">
        <ele>2183.4</ele>
        <time>2021-02-27T11:07:47Z</time>
      </trkpt>
      <trkpt lat="45.23615" lon="6.08115">
        <ele>2183.8</ele>
        <time>2021-02-27T11:07:48Z</time>
      </trkpt>
      <trkpt lat="45.23615" lon="6.08118">
        <ele>2183</ele>
        <time>2021-02-27T11:07:49Z</time>
      </trkpt>
      <trkpt lat="45.23615" lon="6.08118">
        <ele>2183.2</ele>
        <time>2021-02-27T11:07:50Z</time>
      </trkpt>
      <trkpt lat="45.23616" lon="6.08122">
        <ele>2183.8</ele>
        <time>2021-02-27T11:07:51Z</time>
      </trkpt>
      <trkpt lat="45.23616" lon="6.08122">
        <ele>2183.6</ele>
        <time>2021-02-27T11:07:52Z</time>
      </trkpt>
      <trkpt lat="45.23617" lon="6.08125">
        <ele>2184.4</ele>
        <time>2021-02-27T11:07:53Z</time>
      </trkpt>
      <trkpt lat="45.23617" lon="6.08125">
        <ele>2184</ele>
        <time>2021-02-27T11:07:54Z</time>
      </trkpt>
      <trkpt lat="45.23618" lon="6.08128">
        <ele>2184.4</ele>
        <time>2021-02-27T11:07:55Z</time>
      </trkpt>
      <trkpt lat="45.23618" lon="6.08128">
        <ele>2184.8</ele>
        <time>2021-02-27T11:07:56Z</time>
      </trkpt>
      <trkpt lat="45.2362" lon="6.08131">
        <ele>2184.8</ele>
        <time>2021-02-27T11:07:57Z</time>
      </trkpt>
      <trkpt lat="45.2362" lon="6.08131">
        <ele>2185</ele>
        <time>2021-02-27T11:07:58Z</time>
      </trkpt>
      <trkpt lat="45.23621" lon="6.08134">
        <ele>2185.6</ele>
        <time>2021-02-27T11:07:59Z</time>
      </trkpt>
      <trkpt lat="45.23621" lon="6.08134">
        <ele>2185.4</ele>
        <time>2021-02-27T11:08:00Z</time>
      </trkpt>
      <trkpt lat="45.23622" lon="6.08137">
        <ele>2186.2</ele>
        <time>2021-02-27T11:08:01Z</time>
      </trkpt>
      <trkpt lat="45.23622" lon="6.08137">
        <ele>2185.6</ele>
        <time>2021-02-27T11:08:02Z</time>
      </trkpt>
      <trkpt lat="45.23623" lon="6.0814">
        <ele>2186</ele>
        <time>2021-02-27T11:08:03Z</time>
      </trkpt>
      <trkpt lat="45.23623" lon="6.0814">
        <ele>2186.4</ele>
        <time>2021-02-27T11:08:04Z</time>
      </trkpt>
      <trkpt lat="45.23624" lon="6.08143">
        <ele>2186.2</ele>
        <time>2021-02-27T11:08:05Z</time>
      </trkpt>
      <trkpt lat="45.23624" lon="6.08143">
        <ele>2186.2</ele>
        <time>2021-02-27T11:08:06Z</time>
      </trkpt>
      <trkpt lat="45.23625" lon="6.08145">
        <ele>2186.2</ele>
        <time>2021-02-27T11:08:07Z</time>
      </trkpt>
      <trkpt lat="45.23625" lon="6.08145">
        <ele>2186.6</ele>
        <time>2021-02-27T11:08:08Z</time>
      </trkpt>
      <trkpt lat="45.23627" lon="6.08146">
        <ele>2187</ele>
        <time>2021-02-27T11:08:09Z</time>
      </trkpt>
      <trkpt lat="45.23628" lon="6.08147">
        <ele>2187</ele>
        <time>2021-02-27T11:08:10Z</time>
      </trkpt>
      <trkpt lat="45.23629" lon="6.08149">
        <ele>2187</ele>
        <time>2021-02-27T11:08:11Z</time>
      </trkpt>
      <trkpt lat="45.2363" lon="6.08151">
        <ele>2187.2</ele>
        <time>2021-02-27T11:08:12Z</time>
      </trkpt>
      <trkpt lat="45.2363" lon="6.08151">
        <ele>2187.4</ele>
        <time>2021-02-27T11:08:13Z</time>
      </trkpt>
      <trkpt lat="45.23632" lon="6.08154">
        <ele>2187.4</ele>
        <time>2021-02-27T11:08:14Z</time>
      </trkpt>
      <trkpt lat="45.23632" lon="6.08154">
        <ele>2187.4</ele>
        <time>2021-02-27T11:08:15Z</time>
      </trkpt>
      <trkpt lat="45.23632" lon="6.08154">
        <ele>2187.6</ele>
        <time>2021-02-27T11:08:16Z</time>
      </trkpt>
      <trkpt lat="45.23632" lon="6.08157">
        <ele>2188.4</ele>
        <time>2021-02-27T11:08:17Z</time>
      </trkpt>
      <trkpt lat="45.23632" lon="6.08157">
        <ele>2188.6</ele>
        <time>2021-02-27T11:08:18Z</time>
      </trkpt>
      <trkpt lat="45.23633" lon="6.0816">
        <ele>2188.8</ele>
        <time>2021-02-27T11:08:19Z</time>
      </trkpt>
      <trkpt lat="45.23633" lon="6.0816">
        <ele>2189</ele>
        <time>2021-02-27T11:08:20Z</time>
      </trkpt>
      <trkpt lat="45.23633" lon="6.0816">
        <ele>2189</ele>
        <time>2021-02-27T11:08:21Z</time>
      </trkpt>
      <trkpt lat="45.23634" lon="6.08162">
        <ele>2189</ele>
        <time>2021-02-27T11:08:22Z</time>
      </trkpt>
      <trkpt lat="45.23634" lon="6.08162">
        <ele>2189</ele>
        <time>2021-02-27T11:08:23Z</time>
      </trkpt>
      <trkpt lat="45.23635" lon="6.08165">
        <ele>2189</ele>
        <time>2021-02-27T11:08:24Z</time>
      </trkpt>
      <trkpt lat="45.23635" lon="6.08165">
        <ele>2188.8</ele>
        <time>2021-02-27T11:08:25Z</time>
      </trkpt>
      <trkpt lat="45.23635" lon="6.08169">
        <ele>2188.2</ele>
        <time>2021-02-27T11:08:26Z</time>
      </trkpt>
      <trkpt lat="45.23635" lon="6.08169">
        <ele>2188.6</ele>
        <time>2021-02-27T11:08:27Z</time>
      </trkpt>
      <trkpt lat="45.23635" lon="6.08173">
        <ele>2189</ele>
        <time>2021-02-27T11:08:28Z</time>
      </trkpt>
      <trkpt lat="45.23635" lon="6.08173">
        <ele>2189</ele>
        <time>2021-02-27T11:08:29Z</time>
      </trkpt>
      <trkpt lat="45.23636" lon="6.08177">
        <ele>2189</ele>
        <time>2021-02-27T11:08:30Z</time>
      </trkpt>
      <trkpt lat="45.23636" lon="6.08177">
        <ele>2189.2</ele>
        <time>2021-02-27T11:08:31Z</time>
      </trkpt>
      <trkpt lat="45.23636" lon="6.08181">
        <ele>2189.2</ele>
        <time>2021-02-27T11:08:32Z</time>
      </trkpt>
      <trkpt lat="45.23636" lon="6.08181">
        <ele>2189.2</ele>
        <time>2021-02-27T11:08:33Z</time>
      </trkpt>
      <trkpt lat="45.23636" lon="6.08184">
        <ele>2189</ele>
        <time>2021-02-27T11:08:34Z</time>
      </trkpt>
      <trkpt lat="45.23636" lon="6.08184">
        <ele>2189.2</ele>
        <time>2021-02-27T11:08:35Z</time>
      </trkpt>
      <trkpt lat="45.23637" lon="6.08188">
        <ele>2189.2</ele>
        <time>2021-02-27T11:08:36Z</time>
      </trkpt>
      <trkpt lat="45.23637" lon="6.08188">
        <ele>2189.4</ele>
        <time>2021-02-27T11:08:37Z</time>
      </trkpt>
      <trkpt lat="45.23638" lon="6.08192">
        <ele>2189.2</ele>
        <time>2021-02-27T11:08:38Z</time>
      </trkpt>
      <trkpt lat="45.23638" lon="6.08192">
        <ele>2189.2</ele>
        <time>2021-02-27T11:08:39Z</time>
      </trkpt>
      <trkpt lat="45.23638" lon="6.08196">
        <ele>2189.6</ele>
        <time>2021-02-27T11:08:40Z</time>
      </trkpt>
      <trkpt lat="45.23638" lon="6.08196">
        <ele>2189.8</ele>
        <time>2021-02-27T11:08:41Z</time>
      </trkpt>
      <trkpt lat="45.23638" lon="6.082">
        <ele>2189.8</ele>
        <time>2021-02-27T11:08:42Z</time>
      </trkpt>
      <trkpt lat="45.23638" lon="6.082">
        <ele>2189.6</ele>
        <time>2021-02-27T11:08:43Z</time>
      </trkpt>
      <trkpt lat="45.23638" lon="6.08203">
        <ele>2189.6</ele>
        <time>2021-02-27T11:08:44Z</time>
      </trkpt>
      <trkpt lat="45.23638" lon="6.08203">
        <ele>2189.8</ele>
        <time>2021-02-27T11:08:45Z</time>
      </trkpt>
      <trkpt lat="45.23637" lon="6.08207">
        <ele>2189.4</ele>
        <time>2021-02-27T11:08:46Z</time>
      </trkpt>
      <trkpt lat="45.23637" lon="6.08207">
        <ele>2189.8</ele>
        <time>2021-02-27T11:08:47Z</time>
      </trkpt>
      <trkpt lat="45.23637" lon="6.08212">
        <ele>2190.2</ele>
        <time>2021-02-27T11:08:48Z</time>
      </trkpt>
      <trkpt lat="45.23637" lon="6.08212">
        <ele>2189.8</ele>
        <time>2021-02-27T11:08:49Z</time>
      </trkpt>
      <trkpt lat="45.23636" lon="6.08216">
        <ele>2189.6</ele>
        <time>2021-02-27T11:08:50Z</time>
      </trkpt>
      <trkpt lat="45.23636" lon="6.08216">
        <ele>2189.4</ele>
        <time>2021-02-27T11:08:51Z</time>
      </trkpt>
      <trkpt lat="45.23636" lon="6.0822">
        <ele>2189</ele>
        <time>2021-02-27T11:08:52Z</time>
      </trkpt>
      <trkpt lat="45.23636" lon="6.0822">
        <ele>2189</ele>
        <time>2021-02-27T11:08:53Z</time>
      </trkpt>
      <trkpt lat="45.23636" lon="6.08223">
        <ele>2189.6</ele>
        <time>2021-02-27T11:08:54Z</time>
      </trkpt>
      <trkpt lat="45.23636" lon="6.08223">
        <ele>2189.6</ele>
        <time>2021-02-27T11:08:55Z</time>
      </trkpt>
      <trkpt lat="45.23635" lon="6.08226">
        <ele>2190</ele>
        <time>2021-02-27T11:08:56Z</time>
      </trkpt>
      <trkpt lat="45.23635" lon="6.08226">
        <ele>2190</ele>
        <time>2021-02-27T11:08:57Z</time>
      </trkpt>
      <trkpt lat="45.23635" lon="6.08229">
        <ele>2190</ele>
        <time>2021-02-27T11:08:58Z</time>
      </trkpt>
      <trkpt lat="45.23635" lon="6.08229">
        <ele>2190.2</ele>
        <time>2021-02-27T11:08:59Z</time>
      </trkpt>
      <trkpt lat="45.23636" lon="6.08232">
        <ele>2190.4</ele>
        <time>2021-02-27T11:09:00Z</time>
      </trkpt>
      <trkpt lat="45.23636" lon="6.08232">
        <ele>2190.8</ele>
        <time>2021-02-27T11:09:01Z</time>
      </trkpt>
      <trkpt lat="45.23637" lon="6.08234">
        <ele>2191.2</ele>
        <time>2021-02-27T11:09:02Z</time>
      </trkpt>
      <trkpt lat="45.23637" lon="6.08234">
        <ele>2191.4</ele>
        <time>2021-02-27T11:09:03Z</time>
      </trkpt>
      <trkpt lat="45.23639" lon="6.08237">
        <ele>2191.8</ele>
        <time>2021-02-27T11:09:04Z</time>
      </trkpt>
      <trkpt lat="45.23639" lon="6.08237">
        <ele>2192</ele>
        <time>2021-02-27T11:09:05Z</time>
      </trkpt>
      <trkpt lat="45.23641" lon="6.08239">
        <ele>2192.4</ele>
        <time>2021-02-27T11:09:06Z</time>
      </trkpt>
      <trkpt lat="45.23641" lon="6.08239">
        <ele>2192.6</ele>
        <time>2021-02-27T11:09:07Z</time>
      </trkpt>
      <trkpt lat="45.23643" lon="6.08241">
        <ele>2192.8</ele>
        <time>2021-02-27T11:09:08Z</time>
      </trkpt>
      <trkpt lat="45.23643" lon="6.08241">
        <ele>2193</ele>
        <time>2021-02-27T11:09:09Z</time>
      </trkpt>
      <trkpt lat="45.23644" lon="6.08243">
        <ele>2193.6</ele>
        <time>2021-02-27T11:09:10Z</time>
      </trkpt>
      <trkpt lat="45.23644" lon="6.08243">
        <ele>2194</ele>
        <time>2021-02-27T11:09:11Z</time>
      </trkpt>
      <trkpt lat="45.23647" lon="6.08245">
        <ele>2194.2</ele>
        <time>2021-02-27T11:09:12Z</time>
      </trkpt>
      <trkpt lat="45.23647" lon="6.08245">
        <ele>2195</ele>
        <time>2021-02-27T11:09:13Z</time>
      </trkpt>
      <trkpt lat="45.23648" lon="6.08247">
        <ele>2194.8</ele>
        <time>2021-02-27T11:09:14Z</time>
      </trkpt>
      <trkpt lat="45.23648" lon="6.08247">
        <ele>2195.2</ele>
        <time>2021-02-27T11:09:15Z</time>
      </trkpt>
      <trkpt lat="45.23651" lon="6.08249">
        <ele>2195.4</ele>
        <time>2021-02-27T11:09:16Z</time>
      </trkpt>
      <trkpt lat="45.23651" lon="6.08249">
        <ele>2195.4</ele>
        <time>2021-02-27T11:09:17Z</time>
      </trkpt>
      <trkpt lat="45.23653" lon="6.08252">
        <ele>2195.2</ele>
        <time>2021-02-27T11:09:18Z</time>
      </trkpt>
      <trkpt lat="45.23653" lon="6.08252">
        <ele>2195.4</ele>
        <time>2021-02-27T11:09:19Z</time>
      </trkpt>
      <trkpt lat="45.23655" lon="6.08254">
        <ele>2195</ele>
        <time>2021-02-27T11:09:20Z</time>
      </trkpt>
      <trkpt lat="45.23655" lon="6.08254">
        <ele>2194.4</ele>
        <time>2021-02-27T11:09:21Z</time>
      </trkpt>
      <trkpt lat="45.23658" lon="6.08256">
        <ele>2194.2</ele>
        <time>2021-02-27T11:09:22Z</time>
      </trkpt>
      <trkpt lat="45.23658" lon="6.08256">
        <ele>2194</ele>
        <time>2021-02-27T11:09:23Z</time>
      </trkpt>
      <trkpt lat="45.2366" lon="6.08259">
        <ele>2193.2</ele>
        <time>2021-02-27T11:09:24Z</time>
      </trkpt>
      <trkpt lat="45.23662" lon="6.0826">
        <ele>2193.6</ele>
        <time>2021-02-27T11:09:25Z</time>
      </trkpt>
      <trkpt lat="45.23664" lon="6.08262">
        <ele>2193.2</ele>
        <time>2021-02-27T11:09:26Z</time>
      </trkpt>
      <trkpt lat="45.23666" lon="6.08263">
        <ele>2193</ele>
        <time>2021-02-27T11:09:27Z</time>
      </trkpt>
      <trkpt lat="45.23668" lon="6.08265">
        <ele>2192.8</ele>
        <time>2021-02-27T11:09:28Z</time>
      </trkpt>
      <trkpt lat="45.23669" lon="6.08267">
        <ele>2192.8</ele>
        <time>2021-02-27T11:09:29Z</time>
      </trkpt>
      <trkpt lat="45.23671" lon="6.08269">
        <ele>2192.8</ele>
        <time>2021-02-27T11:09:30Z</time>
      </trkpt>
      <trkpt lat="45.23673" lon="6.08271">
        <ele>2192.4</ele>
        <time>2021-02-27T11:09:31Z</time>
      </trkpt>
      <trkpt lat="45.23676" lon="6.08274">
        <ele>2192</ele>
        <time>2021-02-27T11:09:32Z</time>
      </trkpt>
      <trkpt lat="45.23679" lon="6.08277">
        <ele>2191.6</ele>
        <time>2021-02-27T11:09:33Z</time>
      </trkpt>
      <trkpt lat="45.23682" lon="6.0828">
        <ele>2191</ele>
        <time>2021-02-27T11:09:34Z</time>
      </trkpt>
      <trkpt lat="45.23685" lon="6.08282">
        <ele>2190</ele>
        <time>2021-02-27T11:09:35Z</time>
      </trkpt>
      <trkpt lat="45.23687" lon="6.08284">
        <ele>2189.2</ele>
        <time>2021-02-27T11:09:36Z</time>
      </trkpt>
      <trkpt lat="45.23689" lon="6.08286">
        <ele>2188.8</ele>
        <time>2021-02-27T11:09:37Z</time>
      </trkpt>
      <trkpt lat="45.23691" lon="6.08288">
        <ele>2188.2</ele>
        <time>2021-02-27T11:09:38Z</time>
      </trkpt>
      <trkpt lat="45.23692" lon="6.08289">
        <ele>2187.8</ele>
        <time>2021-02-27T11:09:39Z</time>
      </trkpt>
      <trkpt lat="45.23692" lon="6.08289">
        <ele>2188.2</ele>
        <time>2021-02-27T11:09:40Z</time>
      </trkpt>
      <trkpt lat="45.23696" lon="6.08292">
        <ele>2187.8</ele>
        <time>2021-02-27T11:09:41Z</time>
      </trkpt>
      <trkpt lat="45.23697" lon="6.08293">
        <ele>2187.4</ele>
        <time>2021-02-27T11:09:42Z</time>
      </trkpt>
      <trkpt lat="45.23697" lon="6.08293">
        <ele>2187.2</ele>
        <time>2021-02-27T11:09:43Z</time>
      </trkpt>
      <trkpt lat="45.237" lon="6.08295">
        <ele>2187.4</ele>
        <time>2021-02-27T11:09:44Z</time>
      </trkpt>
      <trkpt lat="45.237" lon="6.08295">
        <ele>2187.4</ele>
        <time>2021-02-27T11:09:45Z</time>
      </trkpt>
      <trkpt lat="45.23702" lon="6.08297">
        <ele>2187</ele>
        <time>2021-02-27T11:09:46Z</time>
      </trkpt>
      <trkpt lat="45.23702" lon="6.08297">
        <ele>2187.8</ele>
        <time>2021-02-27T11:09:47Z</time>
      </trkpt>
      <trkpt lat="45.23705" lon="6.08299">
        <ele>2187.4</ele>
        <time>2021-02-27T11:09:48Z</time>
      </trkpt>
      <trkpt lat="45.23705" lon="6.08299">
        <ele>2187.4</ele>
        <time>2021-02-27T11:09:49Z</time>
      </trkpt>
      <trkpt lat="45.23708" lon="6.083">
        <ele>2188</ele>
        <time>2021-02-27T11:09:50Z</time>
      </trkpt>
      <trkpt lat="45.23708" lon="6.083">
        <ele>2187.8</ele>
        <time>2021-02-27T11:09:51Z</time>
      </trkpt>
      <trkpt lat="45.2371" lon="6.08302">
        <ele>2187.8</ele>
        <time>2021-02-27T11:09:52Z</time>
      </trkpt>
      <trkpt lat="45.2371" lon="6.08302">
        <ele>2187.6</ele>
        <time>2021-02-27T11:09:53Z</time>
      </trkpt>
      <trkpt lat="45.23713" lon="6.08304">
        <ele>2187.8</ele>
        <time>2021-02-27T11:09:54Z</time>
      </trkpt>
      <trkpt lat="45.23713" lon="6.08304">
        <ele>2187.8</ele>
        <time>2021-02-27T11:09:55Z</time>
      </trkpt>
      <trkpt lat="45.23716" lon="6.08306">
        <ele>2187.6</ele>
        <time>2021-02-27T11:09:56Z</time>
      </trkpt>
      <trkpt lat="45.23716" lon="6.08306">
        <ele>2187</ele>
        <time>2021-02-27T11:09:57Z</time>
      </trkpt>
      <trkpt lat="45.23719" lon="6.08308">
        <ele>2186.8</ele>
        <time>2021-02-27T11:09:58Z</time>
      </trkpt>
      <trkpt lat="45.23719" lon="6.08308">
        <ele>2187</ele>
        <time>2021-02-27T11:09:59Z</time>
      </trkpt>
      <trkpt lat="45.23722" lon="6.0831">
        <ele>2187.2</ele>
        <time>2021-02-27T11:10:00Z</time>
      </trkpt>
      <trkpt lat="45.23722" lon="6.0831">
        <ele>2187.4</ele>
        <time>2021-02-27T11:10:01Z</time>
      </trkpt>
      <trkpt lat="45.23724" lon="6.08312">
        <ele>2187.4</ele>
        <time>2021-02-27T11:10:02Z</time>
      </trkpt>
      <trkpt lat="45.23724" lon="6.08312">
        <ele>2187</ele>
        <time>2021-02-27T11:10:03Z</time>
      </trkpt>
      <trkpt lat="45.23727" lon="6.08314">
        <ele>2186.8</ele>
        <time>2021-02-27T11:10:04Z</time>
      </trkpt>
      <trkpt lat="45.23727" lon="6.08314">
        <ele>2187</ele>
        <time>2021-02-27T11:10:05Z</time>
      </trkpt>
      <trkpt lat="45.23729" lon="6.08316">
        <ele>2187</ele>
        <time>2021-02-27T11:10:06Z</time>
      </trkpt>
      <trkpt lat="45.23731" lon="6.08317">
        <ele>2186.6</ele>
        <time>2021-02-27T11:10:07Z</time>
      </trkpt>
      <trkpt lat="45.23733" lon="6.08318">
        <ele>2186.4</ele>
        <time>2021-02-27T11:10:08Z</time>
      </trkpt>
      <trkpt lat="45.23733" lon="6.08318">
        <ele>2186.4</ele>
        <time>2021-02-27T11:10:09Z</time>
      </trkpt>
      <trkpt lat="45.23735" lon="6.08321">
        <ele>2186.6</ele>
        <time>2021-02-27T11:10:10Z</time>
      </trkpt>
      <trkpt lat="45.23735" lon="6.08321">
        <ele>2186.6</ele>
        <time>2021-02-27T11:10:11Z</time>
      </trkpt>
      <trkpt lat="45.23738" lon="6.08324">
        <ele>2186.8</ele>
        <time>2021-02-27T11:10:12Z</time>
      </trkpt>
      <trkpt lat="45.23738" lon="6.08324">
        <ele>2186.6</ele>
        <time>2021-02-27T11:10:13Z</time>
      </trkpt>
      <trkpt lat="45.2374" lon="6.08326">
        <ele>2186.6</ele>
        <time>2021-02-27T11:10:14Z</time>
      </trkpt>
      <trkpt lat="45.23742" lon="6.08328">
        <ele>2186.8</ele>
        <time>2021-02-27T11:10:15Z</time>
      </trkpt>
      <trkpt lat="45.23744" lon="6.0833">
        <ele>2186.8</ele>
        <time>2021-02-27T11:10:16Z</time>
      </trkpt>
      <trkpt lat="45.23745" lon="6.08332">
        <ele>2186.4</ele>
        <time>2021-02-27T11:10:17Z</time>
      </trkpt>
      <trkpt lat="45.23747" lon="6.08333">
        <ele>2186.4</ele>
        <time>2021-02-27T11:10:18Z</time>
      </trkpt>
      <trkpt lat="45.23748" lon="6.08335">
        <ele>2186.6</ele>
        <time>2021-02-27T11:10:19Z</time>
      </trkpt>
      <trkpt lat="45.2375" lon="6.08336">
        <ele>2186</ele>
        <time>2021-02-27T11:10:20Z</time>
      </trkpt>
      <trkpt lat="45.23752" lon="6.08337">
        <ele>2186</ele>
        <time>2021-02-27T11:10:21Z</time>
      </trkpt>
      <trkpt lat="45.23753" lon="6.08339">
        <ele>2185.2</ele>
        <time>2021-02-27T11:10:22Z</time>
      </trkpt>
      <trkpt lat="45.23753" lon="6.08339">
        <ele>2185</ele>
        <time>2021-02-27T11:10:23Z</time>
      </trkpt>
      <trkpt lat="45.23756" lon="6.08342">
        <ele>2185.4</ele>
        <time>2021-02-27T11:10:24Z</time>
      </trkpt>
      <trkpt lat="45.23756" lon="6.08342">
        <ele>2185.6</ele>
        <time>2021-02-27T11:10:25Z</time>
      </trkpt>
      <trkpt lat="45.23758" lon="6.08344">
        <ele>2185.4</ele>
        <time>2021-02-27T11:10:26Z</time>
      </trkpt>
      <trkpt lat="45.23758" lon="6.08344">
        <ele>2185.8</ele>
        <time>2021-02-27T11:10:27Z</time>
      </trkpt>
      <trkpt lat="45.2376" lon="6.08346">
        <ele>2186</ele>
        <time>2021-02-27T11:10:28Z</time>
      </trkpt>
      <trkpt lat="45.2376" lon="6.08346">
        <ele>2186</ele>
        <time>2021-02-27T11:10:29Z</time>
      </trkpt>
      <trkpt lat="45.23763" lon="6.08349">
        <ele>2186</ele>
        <time>2021-02-27T11:10:30Z</time>
      </trkpt>
      <trkpt lat="45.23763" lon="6.08349">
        <ele>2186.2</ele>
        <time>2021-02-27T11:10:31Z</time>
      </trkpt>
      <trkpt lat="45.23766" lon="6.08351">
        <ele>2185.8</ele>
        <time>2021-02-27T11:10:32Z</time>
      </trkpt>
      <trkpt lat="45.23768" lon="6.08353">
        <ele>2185.4</ele>
        <time>2021-02-27T11:10:33Z</time>
      </trkpt>
      <trkpt lat="45.23768" lon="6.08353">
        <ele>2185.6</ele>
        <time>2021-02-27T11:10:34Z</time>
      </trkpt>
      <trkpt lat="45.23771" lon="6.08355">
        <ele>2185.4</ele>
        <time>2021-02-27T11:10:35Z</time>
      </trkpt>
      <trkpt lat="45.23772" lon="6.08357">
        <ele>2185</ele>
        <time>2021-02-27T11:10:36Z</time>
      </trkpt>
      <trkpt lat="45.23772" lon="6.08357">
        <ele>2185.2</ele>
        <time>2021-02-27T11:10:37Z</time>
      </trkpt>
      <trkpt lat="45.23775" lon="6.08359">
        <ele>2185.4</ele>
        <time>2021-02-27T11:10:38Z</time>
      </trkpt>
      <trkpt lat="45.23776" lon="6.08361">
        <ele>2185.6</ele>
        <time>2021-02-27T11:10:39Z</time>
      </trkpt>
      <trkpt lat="45.23778" lon="6.08362">
        <ele>2185.2</ele>
        <time>2021-02-27T11:10:40Z</time>
      </trkpt>
      <trkpt lat="45.23779" lon="6.08364">
        <ele>2185.2</ele>
        <time>2021-02-27T11:10:41Z</time>
      </trkpt>
      <trkpt lat="45.23781" lon="6.08366">
        <ele>2185</ele>
        <time>2021-02-27T11:10:42Z</time>
      </trkpt>
      <trkpt lat="45.23782" lon="6.08368">
        <ele>2185.2</ele>
        <time>2021-02-27T11:10:43Z</time>
      </trkpt>
      <trkpt lat="45.23782" lon="6.08368">
        <ele>2185.2</ele>
        <time>2021-02-27T11:10:44Z</time>
      </trkpt>
      <trkpt lat="45.23785" lon="6.08371">
        <ele>2184.4</ele>
        <time>2021-02-27T11:10:45Z</time>
      </trkpt>
      <trkpt lat="45.23785" lon="6.08371">
        <ele>2184.4</ele>
        <time>2021-02-27T11:10:46Z</time>
      </trkpt>
      <trkpt lat="45.23787" lon="6.08374">
        <ele>2184.4</ele>
        <time>2021-02-27T11:10:47Z</time>
      </trkpt>
      <trkpt lat="45.23787" lon="6.08374">
        <ele>2184.4</ele>
        <time>2021-02-27T11:10:48Z</time>
      </trkpt>
      <trkpt lat="45.23789" lon="6.08376">
        <ele>2184.2</ele>
        <time>2021-02-27T11:10:49Z</time>
      </trkpt>
      <trkpt lat="45.23789" lon="6.08376">
        <ele>2184.2</ele>
        <time>2021-02-27T11:10:50Z</time>
      </trkpt>
      <trkpt lat="45.23792" lon="6.08378">
        <ele>2184</ele>
        <time>2021-02-27T11:10:51Z</time>
      </trkpt>
      <trkpt lat="45.23792" lon="6.08378">
        <ele>2183.4</ele>
        <time>2021-02-27T11:10:52Z</time>
      </trkpt>
      <trkpt lat="45.23795" lon="6.0838">
        <ele>2183.6</ele>
        <time>2021-02-27T11:10:53Z</time>
      </trkpt>
      <trkpt lat="45.23795" lon="6.0838">
        <ele>2183.6</ele>
        <time>2021-02-27T11:10:54Z</time>
      </trkpt>
      <trkpt lat="45.23796" lon="6.08383">
        <ele>2183.6</ele>
        <time>2021-02-27T11:10:55Z</time>
      </trkpt>
      <trkpt lat="45.23796" lon="6.08383">
        <ele>2183.6</ele>
        <time>2021-02-27T11:10:56Z</time>
      </trkpt>
      <trkpt lat="45.23798" lon="6.08386">
        <ele>2183.4</ele>
        <time>2021-02-27T11:10:57Z</time>
      </trkpt>
      <trkpt lat="45.23798" lon="6.08386">
        <ele>2183.8</ele>
        <time>2021-02-27T11:10:58Z</time>
      </trkpt>
      <trkpt lat="45.238" lon="6.08389">
        <ele>2184.2</ele>
        <time>2021-02-27T11:10:59Z</time>
      </trkpt>
      <trkpt lat="45.238" lon="6.08389">
        <ele>2184.4</ele>
        <time>2021-02-27T11:11:00Z</time>
      </trkpt>
      <trkpt lat="45.23802" lon="6.08391">
        <ele>2184.4</ele>
        <time>2021-02-27T11:11:01Z</time>
      </trkpt>
      <trkpt lat="45.23802" lon="6.08391">
        <ele>2184.4</ele>
        <time>2021-02-27T11:11:02Z</time>
      </trkpt>
      <trkpt lat="45.23804" lon="6.08393">
        <ele>2184.6</ele>
        <time>2021-02-27T11:11:03Z</time>
      </trkpt>
      <trkpt lat="45.23804" lon="6.08393">
        <ele>2184.6</ele>
        <time>2021-02-27T11:11:04Z</time>
      </trkpt>
      <trkpt lat="45.23806" lon="6.08395">
        <ele>2184.4</ele>
        <time>2021-02-27T11:11:05Z</time>
      </trkpt>
      <trkpt lat="45.23806" lon="6.08395">
        <ele>2184.6</ele>
        <time>2021-02-27T11:11:06Z</time>
      </trkpt>
      <trkpt lat="45.23808" lon="6.08398">
        <ele>2184.4</ele>
        <time>2021-02-27T11:11:07Z</time>
      </trkpt>
      <trkpt lat="45.23808" lon="6.08398">
        <ele>2184.6</ele>
        <time>2021-02-27T11:11:08Z</time>
      </trkpt>
      <trkpt lat="45.23809" lon="6.084">
        <ele>2184.8</ele>
        <time>2021-02-27T11:11:09Z</time>
      </trkpt>
      <trkpt lat="45.23809" lon="6.084">
        <ele>2185</ele>
        <time>2021-02-27T11:11:10Z</time>
      </trkpt>
      <trkpt lat="45.23811" lon="6.08403">
        <ele>2184.8</ele>
        <time>2021-02-27T11:11:11Z</time>
      </trkpt>
      <trkpt lat="45.23811" lon="6.08403">
        <ele>2185.2</ele>
        <time>2021-02-27T11:11:12Z</time>
      </trkpt>
      <trkpt lat="45.23812" lon="6.08406">
        <ele>2185.2</ele>
        <time>2021-02-27T11:11:13Z</time>
      </trkpt>
      <trkpt lat="45.23812" lon="6.08406">
        <ele>2185</ele>
        <time>2021-02-27T11:11:14Z</time>
      </trkpt>
      <trkpt lat="45.23814" lon="6.08408">
        <ele>2185.2</ele>
        <time>2021-02-27T11:11:15Z</time>
      </trkpt>
      <trkpt lat="45.23814" lon="6.08408">
        <ele>2185.4</ele>
        <time>2021-02-27T11:11:16Z</time>
      </trkpt>
      <trkpt lat="45.23815" lon="6.08411">
        <ele>2185.6</ele>
        <time>2021-02-27T11:11:17Z</time>
      </trkpt>
      <trkpt lat="45.23815" lon="6.08411">
        <ele>2185.8</ele>
        <time>2021-02-27T11:11:18Z</time>
      </trkpt>
      <trkpt lat="45.23816" lon="6.08413">
        <ele>2185.6</ele>
        <time>2021-02-27T11:11:19Z</time>
      </trkpt>
      <trkpt lat="45.23816" lon="6.08413">
        <ele>2185.8</ele>
        <time>2021-02-27T11:11:20Z</time>
      </trkpt>
      <trkpt lat="45.23818" lon="6.08416">
        <ele>2186.4</ele>
        <time>2021-02-27T11:11:21Z</time>
      </trkpt>
      <trkpt lat="45.23818" lon="6.08416">
        <ele>2186.8</ele>
        <time>2021-02-27T11:11:22Z</time>
      </trkpt>
      <trkpt lat="45.23819" lon="6.08419">
        <ele>2186.8</ele>
        <time>2021-02-27T11:11:23Z</time>
      </trkpt>
      <trkpt lat="45.23819" lon="6.08419">
        <ele>2187.4</ele>
        <time>2021-02-27T11:11:24Z</time>
      </trkpt>
      <trkpt lat="45.2382" lon="6.08422">
        <ele>2187.6</ele>
        <time>2021-02-27T11:11:25Z</time>
      </trkpt>
      <trkpt lat="45.2382" lon="6.08422">
        <ele>2187.8</ele>
        <time>2021-02-27T11:11:26Z</time>
      </trkpt>
      <trkpt lat="45.23821" lon="6.08425">
        <ele>2188.2</ele>
        <time>2021-02-27T11:11:27Z</time>
      </trkpt>
      <trkpt lat="45.23821" lon="6.08425">
        <ele>2188.6</ele>
        <time>2021-02-27T11:11:28Z</time>
      </trkpt>
      <trkpt lat="45.23821" lon="6.08429">
        <ele>2189</ele>
        <time>2021-02-27T11:11:29Z</time>
      </trkpt>
      <trkpt lat="45.23821" lon="6.08429">
        <ele>2189</ele>
        <time>2021-02-27T11:11:30Z</time>
      </trkpt>
      <trkpt lat="45.23823" lon="6.08431">
        <ele>2189.2</ele>
        <time>2021-02-27T11:11:31Z</time>
      </trkpt>
      <trkpt lat="45.23823" lon="6.08431">
        <ele>2189.8</ele>
        <time>2021-02-27T11:11:32Z</time>
      </trkpt>
      <trkpt lat="45.23826" lon="6.08433">
        <ele>2189.6</ele>
        <time>2021-02-27T11:11:33Z</time>
      </trkpt>
      <trkpt lat="45.23826" lon="6.08433">
        <ele>2189.8</ele>
        <time>2021-02-27T11:11:34Z</time>
      </trkpt>
      <trkpt lat="45.23828" lon="6.08435">
        <ele>2189.8</ele>
        <time>2021-02-27T11:11:35Z</time>
      </trkpt>
      <trkpt lat="45.23828" lon="6.08435">
        <ele>2189.8</ele>
        <time>2021-02-27T11:11:36Z</time>
      </trkpt>
      <trkpt lat="45.23831" lon="6.08437">
        <ele>2190</ele>
        <time>2021-02-27T11:11:37Z</time>
      </trkpt>
      <trkpt lat="45.23831" lon="6.08437">
        <ele>2189.6</ele>
        <time>2021-02-27T11:11:38Z</time>
      </trkpt>
      <trkpt lat="45.23834" lon="6.0844">
        <ele>2189.4</ele>
        <time>2021-02-27T11:11:39Z</time>
      </trkpt>
      <trkpt lat="45.23836" lon="6.08441">
        <ele>2189.8</ele>
        <time>2021-02-27T11:11:40Z</time>
      </trkpt>
      <trkpt lat="45.23837" lon="6.08442">
        <ele>2189.6</ele>
        <time>2021-02-27T11:11:41Z</time>
      </trkpt>
      <trkpt lat="45.23839" lon="6.08443">
        <ele>2189.8</ele>
        <time>2021-02-27T11:11:42Z</time>
      </trkpt>
      <trkpt lat="45.23841" lon="6.08445">
        <ele>2189.8</ele>
        <time>2021-02-27T11:11:43Z</time>
      </trkpt>
      <trkpt lat="45.23843" lon="6.08446">
        <ele>2190.2</ele>
        <time>2021-02-27T11:11:44Z</time>
      </trkpt>
      <trkpt lat="45.23845" lon="6.08448">
        <ele>2190</ele>
        <time>2021-02-27T11:11:45Z</time>
      </trkpt>
      <trkpt lat="45.23848" lon="6.0845">
        <ele>2189.8</ele>
        <time>2021-02-27T11:11:46Z</time>
      </trkpt>
      <trkpt lat="45.2385" lon="6.08452">
        <ele>2189.6</ele>
        <time>2021-02-27T11:11:47Z</time>
      </trkpt>
      <trkpt lat="45.23853" lon="6.08454">
        <ele>2189.2</ele>
        <time>2021-02-27T11:11:48Z</time>
      </trkpt>
      <trkpt lat="45.23855" lon="6.08456">
        <ele>2188.8</ele>
        <time>2021-02-27T11:11:49Z</time>
      </trkpt>
      <trkpt lat="45.23857" lon="6.08457">
        <ele>2188.2</ele>
        <time>2021-02-27T11:11:50Z</time>
      </trkpt>
      <trkpt lat="45.23859" lon="6.08458">
        <ele>2187.8</ele>
        <time>2021-02-27T11:11:51Z</time>
      </trkpt>
      <trkpt lat="45.23859" lon="6.08458">
        <ele>2187.4</ele>
        <time>2021-02-27T11:11:52Z</time>
      </trkpt>
      <trkpt lat="45.23862" lon="6.08459">
        <ele>2187.2</ele>
        <time>2021-02-27T11:11:53Z</time>
      </trkpt>
      <trkpt lat="45.23862" lon="6.08459">
        <ele>2187</ele>
        <time>2021-02-27T11:11:54Z</time>
      </trkpt>
      <trkpt lat="45.23865" lon="6.0846">
        <ele>2187</ele>
        <time>2021-02-27T11:11:55Z</time>
      </trkpt>
      <trkpt lat="45.23865" lon="6.0846">
        <ele>2186.6</ele>
        <time>2021-02-27T11:11:56Z</time>
      </trkpt>
      <trkpt lat="45.23868" lon="6.08461">
        <ele>2187</ele>
        <time>2021-02-27T11:11:57Z</time>
      </trkpt>
      <trkpt lat="45.23868" lon="6.08461">
        <ele>2187</ele>
        <time>2021-02-27T11:11:58Z</time>
      </trkpt>
      <trkpt lat="45.2387" lon="6.08462">
        <ele>2186.8</ele>
        <time>2021-02-27T11:11:59Z</time>
      </trkpt>
      <trkpt lat="45.2387" lon="6.08462">
        <ele>2187</ele>
        <time>2021-02-27T11:12:00Z</time>
      </trkpt>
      <trkpt lat="45.23872" lon="6.08462">
        <ele>2186.8</ele>
        <time>2021-02-27T11:12:01Z</time>
      </trkpt>
      <trkpt lat="45.23872" lon="6.08462">
        <ele>2187.4</ele>
        <time>2021-02-27T11:12:02Z</time>
      </trkpt>
      <trkpt lat="45.23872" lon="6.08462">
        <ele>2187.8</ele>
        <time>2021-02-27T11:12:03Z</time>
      </trkpt>
      <trkpt lat="45.23875" lon="6.08463">
        <ele>2187.8</ele>
        <time>2021-02-27T11:12:04Z</time>
      </trkpt>
      <trkpt lat="45.23875" lon="6.08463">
        <ele>2188.2</ele>
        <time>2021-02-27T11:12:05Z</time>
      </trkpt>
      <trkpt lat="45.23877" lon="6.08464">
        <ele>2188.6</ele>
        <time>2021-02-27T11:12:06Z</time>
      </trkpt>
      <trkpt lat="45.23877" lon="6.08464">
        <ele>2188.6</ele>
        <time>2021-02-27T11:12:07Z</time>
      </trkpt>
      <trkpt lat="45.23879" lon="6.08465">
        <ele>2188.8</ele>
        <time>2021-02-27T11:12:08Z</time>
      </trkpt>
      <trkpt lat="45.23879" lon="6.08465">
        <ele>2189</ele>
        <time>2021-02-27T11:12:09Z</time>
      </trkpt>
      <trkpt lat="45.23881" lon="6.08467">
        <ele>2189.2</ele>
        <time>2021-02-27T11:12:10Z</time>
      </trkpt>
      <trkpt lat="45.23881" lon="6.08467">
        <ele>2189.2</ele>
        <time>2021-02-27T11:12:11Z</time>
      </trkpt>
      <trkpt lat="45.23883" lon="6.08469">
        <ele>2189.4</ele>
        <time>2021-02-27T11:12:12Z</time>
      </trkpt>
      <trkpt lat="45.23883" lon="6.08469">
        <ele>2189.6</ele>
        <time>2021-02-27T11:12:13Z</time>
      </trkpt>
      <trkpt lat="45.23885" lon="6.08471">
        <ele>2189.6</ele>
        <time>2021-02-27T11:12:14Z</time>
      </trkpt>
      <trkpt lat="45.23885" lon="6.08471">
        <ele>2189.4</ele>
        <time>2021-02-27T11:12:15Z</time>
      </trkpt>
      <trkpt lat="45.23886" lon="6.08473">
        <ele>2189.6</ele>
        <time>2021-02-27T11:12:16Z</time>
      </trkpt>
      <trkpt lat="45.23886" lon="6.08473">
        <ele>2190.2</ele>
        <time>2021-02-27T11:12:17Z</time>
      </trkpt>
      <trkpt lat="45.23888" lon="6.08476">
        <ele>2190.2</ele>
        <time>2021-02-27T11:12:18Z</time>
      </trkpt>
      <trkpt lat="45.23888" lon="6.08476">
        <ele>2190.4</ele>
        <time>2021-02-27T11:12:19Z</time>
      </trkpt>
      <trkpt lat="45.23891" lon="6.08481">
        <ele>2190.6</ele>
        <time>2021-02-27T11:12:20Z</time>
      </trkpt>
      <trkpt lat="45.23893" lon="6.08484">
        <ele>2190.8</ele>
        <time>2021-02-27T11:12:21Z</time>
      </trkpt>
      <trkpt lat="45.23896" lon="6.08489">
        <ele>2190.4</ele>
        <time>2021-02-27T11:12:22Z</time>
      </trkpt>
      <trkpt lat="45.23899" lon="6.08493">
        <ele>2189.8</ele>
        <time>2021-02-27T11:12:23Z</time>
      </trkpt>
      <trkpt lat="45.23902" lon="6.08497">
        <ele>2189.2</ele>
        <time>2021-02-27T11:12:24Z</time>
      </trkpt>
      <trkpt lat="45.23903" lon="6.08499">
        <ele>2188.8</ele>
        <time>2021-02-27T11:12:25Z</time>
      </trkpt>
      <trkpt lat="45.23905" lon="6.08501">
        <ele>2188.6</ele>
        <time>2021-02-27T11:12:26Z</time>
      </trkpt>
      <trkpt lat="45.23905" lon="6.08501">
        <ele>2188.4</ele>
        <time>2021-02-27T11:12:27Z</time>
      </trkpt>
      <trkpt lat="45.23906" lon="6.08504">
        <ele>2188</ele>
        <time>2021-02-27T11:12:28Z</time>
      </trkpt>
      <trkpt lat="45.23906" lon="6.08504">
        <ele>2188.2</ele>
        <time>2021-02-27T11:12:29Z</time>
      </trkpt>
      <trkpt lat="45.23908" lon="6.08507">
        <ele>2188</ele>
        <time>2021-02-27T11:12:30Z</time>
      </trkpt>
      <trkpt lat="45.23908" lon="6.08507">
        <ele>2188</ele>
        <time>2021-02-27T11:12:31Z</time>
      </trkpt>
      <trkpt lat="45.2391" lon="6.0851">
        <ele>2188.4</ele>
        <time>2021-02-27T11:12:32Z</time>
      </trkpt>
      <trkpt lat="45.2391" lon="6.0851">
        <ele>2188.4</ele>
        <time>2021-02-27T11:12:33Z</time>
      </trkpt>
      <trkpt lat="45.23912" lon="6.08514">
        <ele>2188.4</ele>
        <time>2021-02-27T11:12:34Z</time>
      </trkpt>
      <trkpt lat="45.23912" lon="6.08514">
        <ele>2188.2</ele>
        <time>2021-02-27T11:12:35Z</time>
      </trkpt>
      <trkpt lat="45.23914" lon="6.08517">
        <ele>2188.4</ele>
        <time>2021-02-27T11:12:36Z</time>
      </trkpt>
      <trkpt lat="45.23914" lon="6.08517">
        <ele>2188.6</ele>
        <time>2021-02-27T11:12:37Z</time>
      </trkpt>
      <trkpt lat="45.23915" lon="6.08521">
        <ele>2188.8</ele>
        <time>2021-02-27T11:12:38Z</time>
      </trkpt>
      <trkpt lat="45.23915" lon="6.08521">
        <ele>2189.2</ele>
        <time>2021-02-27T11:12:39Z</time>
      </trkpt>
      <trkpt lat="45.23915" lon="6.08521">
        <ele>2189.6</ele>
        <time>2021-02-27T11:12:40Z</time>
      </trkpt>
      <trkpt lat="45.23915" lon="6.08526">
        <ele>2189.8</ele>
        <time>2021-02-27T11:12:41Z</time>
      </trkpt>
      <trkpt lat="45.23915" lon="6.08526">
        <ele>2189.8</ele>
        <time>2021-02-27T11:12:42Z</time>
      </trkpt>
      <trkpt lat="45.23915" lon="6.0853">
        <ele>2190</ele>
        <time>2021-02-27T11:12:43Z</time>
      </trkpt>
      <trkpt lat="45.23915" lon="6.0853">
        <ele>2189.8</ele>
        <time>2021-02-27T11:12:44Z</time>
      </trkpt>
      <trkpt lat="45.23916" lon="6.08533">
        <ele>2190.4</ele>
        <time>2021-02-27T11:12:45Z</time>
      </trkpt>
      <trkpt lat="45.23916" lon="6.08533">
        <ele>2190.4</ele>
        <time>2021-02-27T11:12:46Z</time>
      </trkpt>
      <trkpt lat="45.23917" lon="6.08537">
        <ele>2190.6</ele>
        <time>2021-02-27T11:12:47Z</time>
      </trkpt>
      <trkpt lat="45.23917" lon="6.08537">
        <ele>2190.8</ele>
        <time>2021-02-27T11:12:48Z</time>
      </trkpt>
      <trkpt lat="45.23918" lon="6.08541">
        <ele>2191.6</ele>
        <time>2021-02-27T11:12:49Z</time>
      </trkpt>
      <trkpt lat="45.23918" lon="6.08541">
        <ele>2191.4</ele>
        <time>2021-02-27T11:12:50Z</time>
      </trkpt>
      <trkpt lat="45.23918" lon="6.08544">
        <ele>2191.2</ele>
        <time>2021-02-27T11:12:51Z</time>
      </trkpt>
      <trkpt lat="45.23918" lon="6.08544">
        <ele>2191.4</ele>
        <time>2021-02-27T11:12:52Z</time>
      </trkpt>
      <trkpt lat="45.23918" lon="6.08547">
        <ele>2191.6</ele>
        <time>2021-02-27T11:12:53Z</time>
      </trkpt>
      <trkpt lat="45.23918" lon="6.08547">
        <ele>2191.6</ele>
        <time>2021-02-27T11:12:54Z</time>
      </trkpt>
      <trkpt lat="45.23918" lon="6.0855">
        <ele>2191.4</ele>
        <time>2021-02-27T11:12:55Z</time>
      </trkpt>
      <trkpt lat="45.23918" lon="6.0855">
        <ele>2191.6</ele>
        <time>2021-02-27T11:12:56Z</time>
      </trkpt>
      <trkpt lat="45.23919" lon="6.08552">
        <ele>2191.6</ele>
        <time>2021-02-27T11:12:57Z</time>
      </trkpt>
      <trkpt lat="45.23919" lon="6.08552">
        <ele>2191.2</ele>
        <time>2021-02-27T11:12:58Z</time>
      </trkpt>
      <trkpt lat="45.23919" lon="6.08552">
        <ele>2191.4</ele>
        <time>2021-02-27T11:12:59Z</time>
      </trkpt>
      <trkpt lat="45.23919" lon="6.08555">
        <ele>2191.8</ele>
        <time>2021-02-27T11:13:00Z</time>
      </trkpt>
      <trkpt lat="45.23919" lon="6.08555">
        <ele>2192</ele>
        <time>2021-02-27T11:13:01Z</time>
      </trkpt>
      <trkpt lat="45.23919" lon="6.08555">
        <ele>2192.4</ele>
        <time>2021-02-27T11:13:02Z</time>
      </trkpt>
      <trkpt lat="45.2392" lon="6.08559">
        <ele>2192.6</ele>
        <time>2021-02-27T11:13:03Z</time>
      </trkpt>
      <trkpt lat="45.2392" lon="6.08559">
        <ele>2192.8</ele>
        <time>2021-02-27T11:13:04Z</time>
      </trkpt>
      <trkpt lat="45.23921" lon="6.08561">
        <ele>2193</ele>
        <time>2021-02-27T11:13:05Z</time>
      </trkpt>
      <trkpt lat="45.23921" lon="6.08561">
        <ele>2193.2</ele>
        <time>2021-02-27T11:13:06Z</time>
      </trkpt>
      <trkpt lat="45.23921" lon="6.08561">
        <ele>2193.4</ele>
        <time>2021-02-27T11:13:07Z</time>
      </trkpt>
      <trkpt lat="45.23922" lon="6.08565">
        <ele>2193.2</ele>
        <time>2021-02-27T11:13:08Z</time>
      </trkpt>
      <trkpt lat="45.23922" lon="6.08565">
        <ele>2193.8</ele>
        <time>2021-02-27T11:13:09Z</time>
      </trkpt>
      <trkpt lat="45.23922" lon="6.08568">
        <ele>2193.8</ele>
        <time>2021-02-27T11:13:10Z</time>
      </trkpt>
      <trkpt lat="45.23922" lon="6.08568">
        <ele>2193.8</ele>
        <time>2021-02-27T11:13:11Z</time>
      </trkpt>
      <trkpt lat="45.23922" lon="6.08571">
        <ele>2194.2</ele>
        <time>2021-02-27T11:13:12Z</time>
      </trkpt>
      <trkpt lat="45.23922" lon="6.08571">
        <ele>2194.4</ele>
        <time>2021-02-27T11:13:13Z</time>
      </trkpt>
      <trkpt lat="45.23922" lon="6.08571">
        <ele>2194.8</ele>
        <time>2021-02-27T11:13:14Z</time>
      </trkpt>
      <trkpt lat="45.23922" lon="6.08575">
        <ele>2195</ele>
        <time>2021-02-27T11:13:15Z</time>
      </trkpt>
      <trkpt lat="45.23922" lon="6.08575">
        <ele>2195.2</ele>
        <time>2021-02-27T11:13:16Z</time>
      </trkpt>
      <trkpt lat="45.23922" lon="6.08575">
        <ele>2195.4</ele>
        <time>2021-02-27T11:13:17Z</time>
      </trkpt>
      <trkpt lat="45.23923" lon="6.08579">
        <ele>2195.6</ele>
        <time>2021-02-27T11:13:18Z</time>
      </trkpt>
      <trkpt lat="45.23923" lon="6.08579">
        <ele>2195.8</ele>
        <time>2021-02-27T11:13:19Z</time>
      </trkpt>
      <trkpt lat="45.23924" lon="6.08582">
        <ele>2196.2</ele>
        <time>2021-02-27T11:13:20Z</time>
      </trkpt>
      <trkpt lat="45.23924" lon="6.08582">
        <ele>2196.2</ele>
        <time>2021-02-27T11:13:21Z</time>
      </trkpt>
      <trkpt lat="45.23925" lon="6.08584">
        <ele>2196.2</ele>
        <time>2021-02-27T11:13:22Z</time>
      </trkpt>
      <trkpt lat="45.23925" lon="6.08584">
        <ele>2196.8</ele>
        <time>2021-02-27T11:13:23Z</time>
      </trkpt>
      <trkpt lat="45.23925" lon="6.08584">
        <ele>2196.6</ele>
        <time>2021-02-27T11:13:24Z</time>
      </trkpt>
      <trkpt lat="45.23925" lon="6.08588">
        <ele>2197</ele>
        <time>2021-02-27T11:13:25Z</time>
      </trkpt>
      <trkpt lat="45.23925" lon="6.08588">
        <ele>2197</ele>
        <time>2021-02-27T11:13:26Z</time>
      </trkpt>
      <trkpt lat="45.23925" lon="6.08588">
        <ele>2197.4</ele>
        <time>2021-02-27T11:13:27Z</time>
      </trkpt>
      <trkpt lat="45.23925" lon="6.08591">
        <ele>2197.6</ele>
        <time>2021-02-27T11:13:28Z</time>
      </trkpt>
      <trkpt lat="45.23925" lon="6.08591">
        <ele>2197.8</ele>
        <time>2021-02-27T11:13:29Z</time>
      </trkpt>
      <trkpt lat="45.23925" lon="6.08591">
        <ele>2198.4</ele>
        <time>2021-02-27T11:13:30Z</time>
      </trkpt>
      <trkpt lat="45.23925" lon="6.08595">
        <ele>2198.4</ele>
        <time>2021-02-27T11:13:31Z</time>
      </trkpt>
      <trkpt lat="45.23925" lon="6.08595">
        <ele>2198.4</ele>
        <time>2021-02-27T11:13:32Z</time>
      </trkpt>
      <trkpt lat="45.23925" lon="6.08597">
        <ele>2198.6</ele>
        <time>2021-02-27T11:13:33Z</time>
      </trkpt>
      <trkpt lat="45.23925" lon="6.08597">
        <ele>2198.8</ele>
        <time>2021-02-27T11:13:34Z</time>
      </trkpt>
      <trkpt lat="45.23925" lon="6.086">
        <ele>2198.8</ele>
        <time>2021-02-27T11:13:35Z</time>
      </trkpt>
      <trkpt lat="45.23925" lon="6.086">
        <ele>2199</ele>
        <time>2021-02-27T11:13:36Z</time>
      </trkpt>
      <trkpt lat="45.23925" lon="6.08603">
        <ele>2199</ele>
        <time>2021-02-27T11:13:37Z</time>
      </trkpt>
      <trkpt lat="45.23925" lon="6.08603">
        <ele>2199</ele>
        <time>2021-02-27T11:13:38Z</time>
      </trkpt>
      <trkpt lat="45.23925" lon="6.08606">
        <ele>2199.4</ele>
        <time>2021-02-27T11:13:39Z</time>
      </trkpt>
      <trkpt lat="45.23925" lon="6.08606">
        <ele>2199.6</ele>
        <time>2021-02-27T11:13:40Z</time>
      </trkpt>
      <trkpt lat="45.23925" lon="6.08606">
        <ele>2199.8</ele>
        <time>2021-02-27T11:13:41Z</time>
      </trkpt>
      <trkpt lat="45.23925" lon="6.0861">
        <ele>2200</ele>
        <time>2021-02-27T11:13:42Z</time>
      </trkpt>
      <trkpt lat="45.23925" lon="6.0861">
        <ele>2200</ele>
        <time>2021-02-27T11:13:43Z</time>
      </trkpt>
      <trkpt lat="45.23925" lon="6.08613">
        <ele>2199.8</ele>
        <time>2021-02-27T11:13:44Z</time>
      </trkpt>
      <trkpt lat="45.23925" lon="6.08613">
        <ele>2200</ele>
        <time>2021-02-27T11:13:45Z</time>
      </trkpt>
      <trkpt lat="45.23925" lon="6.08616">
        <ele>2200.2</ele>
        <time>2021-02-27T11:13:46Z</time>
      </trkpt>
      <trkpt lat="45.23925" lon="6.08616">
        <ele>2200.6</ele>
        <time>2021-02-27T11:13:47Z</time>
      </trkpt>
      <trkpt lat="45.23925" lon="6.08618">
        <ele>2200.4</ele>
        <time>2021-02-27T11:13:48Z</time>
      </trkpt>
      <trkpt lat="45.23925" lon="6.08618">
        <ele>2201</ele>
        <time>2021-02-27T11:13:49Z</time>
      </trkpt>
      <trkpt lat="45.23925" lon="6.08621">
        <ele>2201</ele>
        <time>2021-02-27T11:13:50Z</time>
      </trkpt>
      <trkpt lat="45.23925" lon="6.08621">
        <ele>2201.2</ele>
        <time>2021-02-27T11:13:51Z</time>
      </trkpt>
      <trkpt lat="45.23925" lon="6.08621">
        <ele>2201.4</ele>
        <time>2021-02-27T11:13:52Z</time>
      </trkpt>
      <trkpt lat="45.23926" lon="6.08624">
        <ele>2201.6</ele>
        <time>2021-02-27T11:13:53Z</time>
      </trkpt>
      <trkpt lat="45.23926" lon="6.08624">
        <ele>2201.6</ele>
        <time>2021-02-27T11:13:54Z</time>
      </trkpt>
      <trkpt lat="45.23928" lon="6.08627">
        <ele>2202</ele>
        <time>2021-02-27T11:13:55Z</time>
      </trkpt>
      <trkpt lat="45.23928" lon="6.08627">
        <ele>2202</ele>
        <time>2021-02-27T11:13:56Z</time>
      </trkpt>
      <trkpt lat="45.23929" lon="6.0863">
        <ele>2202.4</ele>
        <time>2021-02-27T11:13:57Z</time>
      </trkpt>
      <trkpt lat="45.23929" lon="6.0863">
        <ele>2202.6</ele>
        <time>2021-02-27T11:13:58Z</time>
      </trkpt>
      <trkpt lat="45.23929" lon="6.0863">
        <ele>2202.8</ele>
        <time>2021-02-27T11:13:59Z</time>
      </trkpt>
      <trkpt lat="45.2393" lon="6.08633">
        <ele>2203</ele>
        <time>2021-02-27T11:14:00Z</time>
      </trkpt>
      <trkpt lat="45.2393" lon="6.08633">
        <ele>2203.2</ele>
        <time>2021-02-27T11:14:01Z</time>
      </trkpt>
      <trkpt lat="45.2393" lon="6.08633">
        <ele>2203.4</ele>
        <time>2021-02-27T11:14:02Z</time>
      </trkpt>
      <trkpt lat="45.23931" lon="6.08636">
        <ele>2203.6</ele>
        <time>2021-02-27T11:14:03Z</time>
      </trkpt>
      <trkpt lat="45.23931" lon="6.08636">
        <ele>2203.8</ele>
        <time>2021-02-27T11:14:04Z</time>
      </trkpt>
      <trkpt lat="45.23933" lon="6.08638">
        <ele>2204</ele>
        <time>2021-02-27T11:14:05Z</time>
      </trkpt>
      <trkpt lat="45.23933" lon="6.08638">
        <ele>2204.4</ele>
        <time>2021-02-27T11:14:06Z</time>
      </trkpt>
      <trkpt lat="45.23933" lon="6.08638">
        <ele>2204.4</ele>
        <time>2021-02-27T11:14:07Z</time>
      </trkpt>
      <trkpt lat="45.23935" lon="6.08641">
        <ele>2204.4</ele>
        <time>2021-02-27T11:14:08Z</time>
      </trkpt>
      <trkpt lat="45.23935" lon="6.08641">
        <ele>2205.2</ele>
        <time>2021-02-27T11:14:09Z</time>
      </trkpt>
      <trkpt lat="45.23935" lon="6.08641">
        <ele>2205.4</ele>
        <time>2021-02-27T11:14:10Z</time>
      </trkpt>
      <trkpt lat="45.23935" lon="6.08641">
        <ele>2205.8</ele>
        <time>2021-02-27T11:14:11Z</time>
      </trkpt>
      <trkpt lat="45.23935" lon="6.08645">
        <ele>2206.4</ele>
        <time>2021-02-27T11:14:12Z</time>
      </trkpt>
      <trkpt lat="45.23935" lon="6.08645">
        <ele>2206.6</ele>
        <time>2021-02-27T11:14:13Z</time>
      </trkpt>
      <trkpt lat="45.23935" lon="6.08645">
        <ele>2207</ele>
        <time>2021-02-27T11:14:14Z</time>
      </trkpt>
      <trkpt lat="45.23936" lon="6.08648">
        <ele>2207.2</ele>
        <time>2021-02-27T11:14:15Z</time>
      </trkpt>
      <trkpt lat="45.23936" lon="6.08648">
        <ele>2207.4</ele>
        <time>2021-02-27T11:14:16Z</time>
      </trkpt>
      <trkpt lat="45.23936" lon="6.08648">
        <ele>2207.6</ele>
        <time>2021-02-27T11:14:17Z</time>
      </trkpt>
      <trkpt lat="45.23936" lon="6.0865">
        <ele>2208.2</ele>
        <time>2021-02-27T11:14:18Z</time>
      </trkpt>
      <trkpt lat="45.23936" lon="6.0865">
        <ele>2208.6</ele>
        <time>2021-02-27T11:14:19Z</time>
      </trkpt>
      <trkpt lat="45.23936" lon="6.0865">
        <ele>2209.4</ele>
        <time>2021-02-27T11:14:20Z</time>
      </trkpt>
      <trkpt lat="45.23936" lon="6.08653">
        <ele>2209.8</ele>
        <time>2021-02-27T11:14:21Z</time>
      </trkpt>
      <trkpt lat="45.23936" lon="6.08653">
        <ele>2210.2</ele>
        <time>2021-02-27T11:14:22Z</time>
      </trkpt>
      <trkpt lat="45.23936" lon="6.08653">
        <ele>2210.4</ele>
        <time>2021-02-27T11:14:23Z</time>
      </trkpt>
      <trkpt lat="45.23936" lon="6.08657">
        <ele>2210.6</ele>
        <time>2021-02-27T11:14:24Z</time>
      </trkpt>
      <trkpt lat="45.23936" lon="6.08657">
        <ele>2211</ele>
        <time>2021-02-27T11:14:25Z</time>
      </trkpt>
      <trkpt lat="45.23936" lon="6.08659">
        <ele>2211.2</ele>
        <time>2021-02-27T11:14:26Z</time>
      </trkpt>
      <trkpt lat="45.23936" lon="6.08659">
        <ele>2211.6</ele>
        <time>2021-02-27T11:14:27Z</time>
      </trkpt>
      <trkpt lat="45.23936" lon="6.08659">
        <ele>2211.6</ele>
        <time>2021-02-27T11:14:28Z</time>
      </trkpt>
      <trkpt lat="45.23936" lon="6.08663">
        <ele>2211.8</ele>
        <time>2021-02-27T11:14:29Z</time>
      </trkpt>
      <trkpt lat="45.23936" lon="6.08663">
        <ele>2212.2</ele>
        <time>2021-02-27T11:14:30Z</time>
      </trkpt>
      <trkpt lat="45.23936" lon="6.08663">
        <ele>2212.2</ele>
        <time>2021-02-27T11:14:31Z</time>
      </trkpt>
      <trkpt lat="45.23935" lon="6.08666">
        <ele>2212.6</ele>
        <time>2021-02-27T11:14:32Z</time>
      </trkpt>
      <trkpt lat="45.23935" lon="6.08666">
        <ele>2213.2</ele>
        <time>2021-02-27T11:14:33Z</time>
      </trkpt>
      <trkpt lat="45.23935" lon="6.08666">
        <ele>2213.6</ele>
        <time>2021-02-27T11:14:34Z</time>
      </trkpt>
      <trkpt lat="45.23936" lon="6.08669">
        <ele>2213.2</ele>
        <time>2021-02-27T11:14:35Z</time>
      </trkpt>
      <trkpt lat="45.23936" lon="6.08669">
        <ele>2213.6</ele>
        <time>2021-02-27T11:14:36Z</time>
      </trkpt>
      <trkpt lat="45.23936" lon="6.08669">
        <ele>2214</ele>
        <time>2021-02-27T11:14:37Z</time>
      </trkpt>
      <trkpt lat="45.23936" lon="6.08672">
        <ele>2214.2</ele>
        <time>2021-02-27T11:14:38Z</time>
      </trkpt>
      <trkpt lat="45.23936" lon="6.08672">
        <ele>2215</ele>
        <time>2021-02-27T11:14:39Z</time>
      </trkpt>
      <trkpt lat="45.23936" lon="6.08672">
        <ele>2214.8</ele>
        <time>2021-02-27T11:14:40Z</time>
      </trkpt>
      <trkpt lat="45.23936" lon="6.08675">
        <ele>2214.6</ele>
        <time>2021-02-27T11:14:41Z</time>
      </trkpt>
      <trkpt lat="45.23936" lon="6.08675">
        <ele>2214.8</ele>
        <time>2021-02-27T11:14:42Z</time>
      </trkpt>
      <trkpt lat="45.23937" lon="6.08677">
        <ele>2215</ele>
        <time>2021-02-27T11:14:43Z</time>
      </trkpt>
      <trkpt lat="45.23937" lon="6.08677">
        <ele>2215</ele>
        <time>2021-02-27T11:14:44Z</time>
      </trkpt>
      <trkpt lat="45.23937" lon="6.08677">
        <ele>2215.4</ele>
        <time>2021-02-27T11:14:45Z</time>
      </trkpt>
      <trkpt lat="45.23939" lon="6.0868">
        <ele>2215.4</ele>
        <time>2021-02-27T11:14:46Z</time>
      </trkpt>
      <trkpt lat="45.23939" lon="6.0868">
        <ele>2215.8</ele>
        <time>2021-02-27T11:14:47Z</time>
      </trkpt>
      <trkpt lat="45.23939" lon="6.0868">
        <ele>2216</ele>
        <time>2021-02-27T11:14:48Z</time>
      </trkpt>
      <trkpt lat="45.2394" lon="6.08682">
        <ele>2216.2</ele>
        <time>2021-02-27T11:14:49Z</time>
      </trkpt>
      <trkpt lat="45.2394" lon="6.08682">
        <ele>2216.4</ele>
        <time>2021-02-27T11:14:50Z</time>
      </trkpt>
      <trkpt lat="45.2394" lon="6.08682">
        <ele>2216.6</ele>
        <time>2021-02-27T11:14:51Z</time>
      </trkpt>
      <trkpt lat="45.23942" lon="6.08682">
        <ele>2216.8</ele>
        <time>2021-02-27T11:14:52Z</time>
      </trkpt>
      <trkpt lat="45.23942" lon="6.08682">
        <ele>2216.8</ele>
        <time>2021-02-27T11:14:53Z</time>
      </trkpt>
      <trkpt lat="45.23942" lon="6.08682">
        <ele>2217</ele>
        <time>2021-02-27T11:14:54Z</time>
      </trkpt>
      <trkpt lat="45.23944" lon="6.08683">
        <ele>2217.4</ele>
        <time>2021-02-27T11:14:55Z</time>
      </trkpt>
      <trkpt lat="45.23944" lon="6.08683">
        <ele>2217.4</ele>
        <time>2021-02-27T11:14:56Z</time>
      </trkpt>
      <trkpt lat="45.23946" lon="6.08684">
        <ele>2217.6</ele>
        <time>2021-02-27T11:14:57Z</time>
      </trkpt>
      <trkpt lat="45.23946" lon="6.08684">
        <ele>2217.8</ele>
        <time>2021-02-27T11:14:58Z</time>
      </trkpt>
      <trkpt lat="45.23948" lon="6.08685">
        <ele>2218.2</ele>
        <time>2021-02-27T11:14:59Z</time>
      </trkpt>
      <trkpt lat="45.23948" lon="6.08685">
        <ele>2218</ele>
        <time>2021-02-27T11:15:00Z</time>
      </trkpt>
      <trkpt lat="45.2395" lon="6.08686">
        <ele>2218.2</ele>
        <time>2021-02-27T11:15:01Z</time>
      </trkpt>
      <trkpt lat="45.2395" lon="6.08686">
        <ele>2218.4</ele>
        <time>2021-02-27T11:15:02Z</time>
      </trkpt>
      <trkpt lat="45.23952" lon="6.08687">
        <ele>2218.8</ele>
        <time>2021-02-27T11:15:03Z</time>
      </trkpt>
      <trkpt lat="45.23952" lon="6.08687">
        <ele>2219</ele>
        <time>2021-02-27T11:15:04Z</time>
      </trkpt>
      <trkpt lat="45.23954" lon="6.08689">
        <ele>2219</ele>
        <time>2021-02-27T11:15:05Z</time>
      </trkpt>
      <trkpt lat="45.23954" lon="6.08689">
        <ele>2219.4</ele>
        <time>2021-02-27T11:15:06Z</time>
      </trkpt>
      <trkpt lat="45.23954" lon="6.08689">
        <ele>2219.6</ele>
        <time>2021-02-27T11:15:07Z</time>
      </trkpt>
      <trkpt lat="45.23956" lon="6.08691">
        <ele>2219.4</ele>
        <time>2021-02-27T11:15:08Z</time>
      </trkpt>
      <trkpt lat="45.23956" lon="6.08691">
        <ele>2219.6</ele>
        <time>2021-02-27T11:15:09Z</time>
      </trkpt>
      <trkpt lat="45.23958" lon="6.08692">
        <ele>2220</ele>
        <time>2021-02-27T11:15:10Z</time>
      </trkpt>
      <trkpt lat="45.23958" lon="6.08692">
        <ele>2220</ele>
        <time>2021-02-27T11:15:11Z</time>
      </trkpt>
      <trkpt lat="45.23958" lon="6.08692">
        <ele>2220</ele>
        <time>2021-02-27T11:15:12Z</time>
      </trkpt>
      <trkpt lat="45.2396" lon="6.08695">
        <ele>2220.4</ele>
        <time>2021-02-27T11:15:13Z</time>
      </trkpt>
      <trkpt lat="45.2396" lon="6.08695">
        <ele>2220.6</ele>
        <time>2021-02-27T11:15:14Z</time>
      </trkpt>
      <trkpt lat="45.2396" lon="6.08698">
        <ele>2221</ele>
        <time>2021-02-27T11:15:15Z</time>
      </trkpt>
      <trkpt lat="45.2396" lon="6.08698">
        <ele>2221</ele>
        <time>2021-02-27T11:15:16Z</time>
      </trkpt>
      <trkpt lat="45.2396" lon="6.08698">
        <ele>2221.2</ele>
        <time>2021-02-27T11:15:17Z</time>
      </trkpt>
      <trkpt lat="45.23961" lon="6.08701">
        <ele>2221.6</ele>
        <time>2021-02-27T11:15:18Z</time>
      </trkpt>
      <trkpt lat="45.23961" lon="6.08701">
        <ele>2222.2</ele>
        <time>2021-02-27T11:15:19Z</time>
      </trkpt>
      <trkpt lat="45.23961" lon="6.08701">
        <ele>2222.8</ele>
        <time>2021-02-27T11:15:20Z</time>
      </trkpt>
      <trkpt lat="45.23962" lon="6.08703">
        <ele>2223</ele>
        <time>2021-02-27T11:15:21Z</time>
      </trkpt>
      <trkpt lat="45.23962" lon="6.08703">
        <ele>2223</ele>
        <time>2021-02-27T11:15:22Z</time>
      </trkpt>
      <trkpt lat="45.23962" lon="6.08703">
        <ele>2223.4</ele>
        <time>2021-02-27T11:15:23Z</time>
      </trkpt>
      <trkpt lat="45.23964" lon="6.08706">
        <ele>2223.4</ele>
        <time>2021-02-27T11:15:24Z</time>
      </trkpt>
      <trkpt lat="45.23964" lon="6.08706">
        <ele>2223.6</ele>
        <time>2021-02-27T11:15:25Z</time>
      </trkpt>
      <trkpt lat="45.23964" lon="6.08706">
        <ele>2223.6</ele>
        <time>2021-02-27T11:15:26Z</time>
      </trkpt>
      <trkpt lat="45.23966" lon="6.08708">
        <ele>2224</ele>
        <time>2021-02-27T11:15:27Z</time>
      </trkpt>
      <trkpt lat="45.23966" lon="6.08708">
        <ele>2224</ele>
        <time>2021-02-27T11:15:28Z</time>
      </trkpt>
      <trkpt lat="45.23966" lon="6.08708">
        <ele>2224</ele>
        <time>2021-02-27T11:15:29Z</time>
      </trkpt>
      <trkpt lat="45.23968" lon="6.0871">
        <ele>2224.2</ele>
        <time>2021-02-27T11:15:30Z</time>
      </trkpt>
      <trkpt lat="45.23968" lon="6.0871">
        <ele>2224.2</ele>
        <time>2021-02-27T11:15:31Z</time>
      </trkpt>
      <trkpt lat="45.2397" lon="6.08711">
        <ele>2224.8</ele>
        <time>2021-02-27T11:15:32Z</time>
      </trkpt>
      <trkpt lat="45.2397" lon="6.08711">
        <ele>2224.6</ele>
        <time>2021-02-27T11:15:33Z</time>
      </trkpt>
      <trkpt lat="45.23971" lon="6.08713">
        <ele>2225.2</ele>
        <time>2021-02-27T11:15:34Z</time>
      </trkpt>
      <trkpt lat="45.23971" lon="6.08713">
        <ele>2225.4</ele>
        <time>2021-02-27T11:15:35Z</time>
      </trkpt>
      <trkpt lat="45.23971" lon="6.08713">
        <ele>2225.6</ele>
        <time>2021-02-27T11:15:36Z</time>
      </trkpt>
      <trkpt lat="45.23973" lon="6.08716">
        <ele>2226</ele>
        <time>2021-02-27T11:15:37Z</time>
      </trkpt>
      <trkpt lat="45.23973" lon="6.08716">
        <ele>2226.2</ele>
        <time>2021-02-27T11:15:38Z</time>
      </trkpt>
      <trkpt lat="45.23973" lon="6.08716">
        <ele>2226.4</ele>
        <time>2021-02-27T11:15:39Z</time>
      </trkpt>
      <trkpt lat="45.23975" lon="6.08718">
        <ele>2226.8</ele>
        <time>2021-02-27T11:15:40Z</time>
      </trkpt>
      <trkpt lat="45.23975" lon="6.08718">
        <ele>2227</ele>
        <time>2021-02-27T11:15:41Z</time>
      </trkpt>
      <trkpt lat="45.23975" lon="6.08718">
        <ele>2227.4</ele>
        <time>2021-02-27T11:15:42Z</time>
      </trkpt>
      <trkpt lat="45.23975" lon="6.08721">
        <ele>2227.6</ele>
        <time>2021-02-27T11:15:43Z</time>
      </trkpt>
      <trkpt lat="45.23975" lon="6.08721">
        <ele>2227.8</ele>
        <time>2021-02-27T11:15:44Z</time>
      </trkpt>
      <trkpt lat="45.23976" lon="6.08723">
        <ele>2228.2</ele>
        <time>2021-02-27T11:15:45Z</time>
      </trkpt>
      <trkpt lat="45.23976" lon="6.08723">
        <ele>2228.6</ele>
        <time>2021-02-27T11:15:46Z</time>
      </trkpt>
      <trkpt lat="45.23976" lon="6.08723">
        <ele>2229</ele>
        <time>2021-02-27T11:15:47Z</time>
      </trkpt>
      <trkpt lat="45.23976" lon="6.08727">
        <ele>2229.2</ele>
        <time>2021-02-27T11:15:48Z</time>
      </trkpt>
      <trkpt lat="45.23976" lon="6.08727">
        <ele>2229.4</ele>
        <time>2021-02-27T11:15:49Z</time>
      </trkpt>
      <trkpt lat="45.23975" lon="6.0873">
        <ele>2229.6</ele>
        <time>2021-02-27T11:15:50Z</time>
      </trkpt>
      <trkpt lat="45.23975" lon="6.0873">
        <ele>2230.2</ele>
        <time>2021-02-27T11:15:51Z</time>
      </trkpt>
      <trkpt lat="45.23975" lon="6.0873">
        <ele>2230.6</ele>
        <time>2021-02-27T11:15:52Z</time>
      </trkpt>
      <trkpt lat="45.23976" lon="6.08733">
        <ele>2230.8</ele>
        <time>2021-02-27T11:15:53Z</time>
      </trkpt>
      <trkpt lat="45.23976" lon="6.08733">
        <ele>2231.6</ele>
        <time>2021-02-27T11:15:54Z</time>
      </trkpt>
      <trkpt lat="45.23976" lon="6.08733">
        <ele>2231.6</ele>
        <time>2021-02-27T11:15:55Z</time>
      </trkpt>
      <trkpt lat="45.23977" lon="6.08736">
        <ele>2231.8</ele>
        <time>2021-02-27T11:15:56Z</time>
      </trkpt>
      <trkpt lat="45.23977" lon="6.08736">
        <ele>2232.2</ele>
        <time>2021-02-27T11:15:57Z</time>
      </trkpt>
      <trkpt lat="45.23977" lon="6.08739">
        <ele>2232.2</ele>
        <time>2021-02-27T11:15:58Z</time>
      </trkpt>
      <trkpt lat="45.23977" lon="6.08739">
        <ele>2232.6</ele>
        <time>2021-02-27T11:15:59Z</time>
      </trkpt>
      <trkpt lat="45.23977" lon="6.08739">
        <ele>2232.8</ele>
        <time>2021-02-27T11:16:00Z</time>
      </trkpt>
      <trkpt lat="45.23979" lon="6.08741">
        <ele>2233.2</ele>
        <time>2021-02-27T11:16:01Z</time>
      </trkpt>
      <trkpt lat="45.23979" lon="6.08741">
        <ele>2233.4</ele>
        <time>2021-02-27T11:16:02Z</time>
      </trkpt>
      <trkpt lat="45.23982" lon="6.08743">
        <ele>2233.6</ele>
        <time>2021-02-27T11:16:03Z</time>
      </trkpt>
      <trkpt lat="45.23982" lon="6.08743">
        <ele>2233.4</ele>
        <time>2021-02-27T11:16:04Z</time>
      </trkpt>
      <trkpt lat="45.23982" lon="6.08746">
        <ele>2234</ele>
        <time>2021-02-27T11:16:05Z</time>
      </trkpt>
      <trkpt lat="45.23982" lon="6.08746">
        <ele>2234.4</ele>
        <time>2021-02-27T11:16:06Z</time>
      </trkpt>
      <trkpt lat="45.23982" lon="6.08746">
        <ele>2234.4</ele>
        <time>2021-02-27T11:16:07Z</time>
      </trkpt>
      <trkpt lat="45.23983" lon="6.08749">
        <ele>2234.4</ele>
        <time>2021-02-27T11:16:08Z</time>
      </trkpt>
      <trkpt lat="45.23983" lon="6.08749">
        <ele>2235</ele>
        <time>2021-02-27T11:16:09Z</time>
      </trkpt>
      <trkpt lat="45.23983" lon="6.08749">
        <ele>2235.2</ele>
        <time>2021-02-27T11:16:10Z</time>
      </trkpt>
      <trkpt lat="45.23982" lon="6.08752">
        <ele>2235.4</ele>
        <time>2021-02-27T11:16:11Z</time>
      </trkpt>
      <trkpt lat="45.23982" lon="6.08752">
        <ele>2236</ele>
        <time>2021-02-27T11:16:12Z</time>
      </trkpt>
      <trkpt lat="45.23982" lon="6.08752">
        <ele>2236</ele>
        <time>2021-02-27T11:16:13Z</time>
      </trkpt>
      <trkpt lat="45.23982" lon="6.08752">
        <ele>2236.6</ele>
        <time>2021-02-27T11:16:14Z</time>
      </trkpt>
      <trkpt lat="45.23984" lon="6.08754">
        <ele>2237</ele>
        <time>2021-02-27T11:16:15Z</time>
      </trkpt>
      <trkpt lat="45.23984" lon="6.08754">
        <ele>2237.2</ele>
        <time>2021-02-27T11:16:16Z</time>
      </trkpt>
      <trkpt lat="45.23985" lon="6.08756">
        <ele>2237.4</ele>
        <time>2021-02-27T11:16:17Z</time>
      </trkpt>
      <trkpt lat="45.23985" lon="6.08756">
        <ele>2238.2</ele>
        <time>2021-02-27T11:16:18Z</time>
      </trkpt>
      <trkpt lat="45.23985" lon="6.08756">
        <ele>2238.4</ele>
        <time>2021-02-27T11:16:19Z</time>
      </trkpt>
      <trkpt lat="45.23987" lon="6.08759">
        <ele>2238.6</ele>
        <time>2021-02-27T11:16:20Z</time>
      </trkpt>
      <trkpt lat="45.23987" lon="6.08759">
        <ele>2239</ele>
        <time>2021-02-27T11:16:21Z</time>
      </trkpt>
      <trkpt lat="45.23987" lon="6.08759">
        <ele>2239.2</ele>
        <time>2021-02-27T11:16:22Z</time>
      </trkpt>
      <trkpt lat="45.23988" lon="6.08762">
        <ele>2239.4</ele>
        <time>2021-02-27T11:16:23Z</time>
      </trkpt>
      <trkpt lat="45.23988" lon="6.08762">
        <ele>2239.8</ele>
        <time>2021-02-27T11:16:24Z</time>
      </trkpt>
      <trkpt lat="45.23988" lon="6.08762">
        <ele>2240.2</ele>
        <time>2021-02-27T11:16:25Z</time>
      </trkpt>
      <trkpt lat="45.2399" lon="6.08764">
        <ele>2240.6</ele>
        <time>2021-02-27T11:16:26Z</time>
      </trkpt>
      <trkpt lat="45.2399" lon="6.08764">
        <ele>2241</ele>
        <time>2021-02-27T11:16:27Z</time>
      </trkpt>
      <trkpt lat="45.2399" lon="6.08764">
        <ele>2241.4</ele>
        <time>2021-02-27T11:16:28Z</time>
      </trkpt>
      <trkpt lat="45.23992" lon="6.08766">
        <ele>2241.6</ele>
        <time>2021-02-27T11:16:29Z</time>
      </trkpt>
      <trkpt lat="45.23992" lon="6.08766">
        <ele>2241.8</ele>
        <time>2021-02-27T11:16:30Z</time>
      </trkpt>
      <trkpt lat="45.23992" lon="6.08766">
        <ele>2242.6</ele>
        <time>2021-02-27T11:16:31Z</time>
      </trkpt>
      <trkpt lat="45.23994" lon="6.08768">
        <ele>2243</ele>
        <time>2021-02-27T11:16:32Z</time>
      </trkpt>
      <trkpt lat="45.23994" lon="6.08768">
        <ele>2243.2</ele>
        <time>2021-02-27T11:16:33Z</time>
      </trkpt>
      <trkpt lat="45.23995" lon="6.08769">
        <ele>2243.6</ele>
        <time>2021-02-27T11:16:34Z</time>
      </trkpt>
      <trkpt lat="45.23995" lon="6.08769">
        <ele>2243.8</ele>
        <time>2021-02-27T11:16:35Z</time>
      </trkpt>
      <trkpt lat="45.23995" lon="6.08769">
        <ele>2244</ele>
        <time>2021-02-27T11:16:36Z</time>
      </trkpt>
      <trkpt lat="45.23996" lon="6.08772">
        <ele>2244.4</ele>
        <time>2021-02-27T11:16:37Z</time>
      </trkpt>
      <trkpt lat="45.23996" lon="6.08772">
        <ele>2244.6</ele>
        <time>2021-02-27T11:16:38Z</time>
      </trkpt>
      <trkpt lat="45.23996" lon="6.08772">
        <ele>2244.6</ele>
        <time>2021-02-27T11:16:39Z</time>
      </trkpt>
      <trkpt lat="45.23998" lon="6.08774">
        <ele>2245.2</ele>
        <time>2021-02-27T11:16:40Z</time>
      </trkpt>
      <trkpt lat="45.23998" lon="6.08774">
        <ele>2245.2</ele>
        <time>2021-02-27T11:16:41Z</time>
      </trkpt>
      <trkpt lat="45.23998" lon="6.08774">
        <ele>2245.4</ele>
        <time>2021-02-27T11:16:42Z</time>
      </trkpt>
      <trkpt lat="45.24" lon="6.08776">
        <ele>2246</ele>
        <time>2021-02-27T11:16:43Z</time>
      </trkpt>
      <trkpt lat="45.24" lon="6.08776">
        <ele>2246.6</ele>
        <time>2021-02-27T11:16:44Z</time>
      </trkpt>
      <trkpt lat="45.24" lon="6.08776">
        <ele>2246.4</ele>
        <time>2021-02-27T11:16:45Z</time>
      </trkpt>
      <trkpt lat="45.24001" lon="6.08778">
        <ele>2246.4</ele>
        <time>2021-02-27T11:16:46Z</time>
      </trkpt>
      <trkpt lat="45.24001" lon="6.08778">
        <ele>2246.4</ele>
        <time>2021-02-27T11:16:47Z</time>
      </trkpt>
      <trkpt lat="45.24001" lon="6.08778">
        <ele>2246.6</ele>
        <time>2021-02-27T11:16:48Z</time>
      </trkpt>
      <trkpt lat="45.24001" lon="6.08778">
        <ele>2246.8</ele>
        <time>2021-02-27T11:16:49Z</time>
      </trkpt>
      <trkpt lat="45.24003" lon="6.08782">
        <ele>2247</ele>
        <time>2021-02-27T11:16:50Z</time>
      </trkpt>
      <trkpt lat="45.24003" lon="6.08782">
        <ele>2247.6</ele>
        <time>2021-02-27T11:16:51Z</time>
      </trkpt>
      <trkpt lat="45.24003" lon="6.08782">
        <ele>2247.6</ele>
        <time>2021-02-27T11:16:52Z</time>
      </trkpt>
      <trkpt lat="45.24004" lon="6.08784">
        <ele>2247.4</ele>
        <time>2021-02-27T11:16:53Z</time>
      </trkpt>
      <trkpt lat="45.24004" lon="6.08784">
        <ele>2247.8</ele>
        <time>2021-02-27T11:16:54Z</time>
      </trkpt>
      <trkpt lat="45.24004" lon="6.08784">
        <ele>2248</ele>
        <time>2021-02-27T11:16:55Z</time>
      </trkpt>
      <trkpt lat="45.24006" lon="6.08786">
        <ele>2248.6</ele>
        <time>2021-02-27T11:16:56Z</time>
      </trkpt>
      <trkpt lat="45.24006" lon="6.08786">
        <ele>2248.2</ele>
        <time>2021-02-27T11:16:57Z</time>
      </trkpt>
      <trkpt lat="45.24008" lon="6.08788">
        <ele>2248.4</ele>
        <time>2021-02-27T11:16:58Z</time>
      </trkpt>
      <trkpt lat="45.24008" lon="6.08788">
        <ele>2248.8</ele>
        <time>2021-02-27T11:16:59Z</time>
      </trkpt>
      <trkpt lat="45.24009" lon="6.0879">
        <ele>2249</ele>
        <time>2021-02-27T11:17:00Z</time>
      </trkpt>
      <trkpt lat="45.24009" lon="6.0879">
        <ele>2249.4</ele>
        <time>2021-02-27T11:17:01Z</time>
      </trkpt>
      <trkpt lat="45.24009" lon="6.0879">
        <ele>2249.6</ele>
        <time>2021-02-27T11:17:02Z</time>
      </trkpt>
      <trkpt lat="45.24009" lon="6.0879">
        <ele>2250</ele>
        <time>2021-02-27T11:17:03Z</time>
      </trkpt>
      <trkpt lat="45.24011" lon="6.08794">
        <ele>2250.2</ele>
        <time>2021-02-27T11:17:04Z</time>
      </trkpt>
      <trkpt lat="45.24011" lon="6.08794">
        <ele>2250.6</ele>
        <time>2021-02-27T11:17:05Z</time>
      </trkpt>
      <trkpt lat="45.24011" lon="6.08794">
        <ele>2251</ele>
        <time>2021-02-27T11:17:06Z</time>
      </trkpt>
      <trkpt lat="45.24013" lon="6.08796">
        <ele>2251</ele>
        <time>2021-02-27T11:17:07Z</time>
      </trkpt>
      <trkpt lat="45.24013" lon="6.08796">
        <ele>2251.6</ele>
        <time>2021-02-27T11:17:08Z</time>
      </trkpt>
      <trkpt lat="45.24013" lon="6.08797">
        <ele>2251.8</ele>
        <time>2021-02-27T11:17:09Z</time>
      </trkpt>
      <trkpt lat="45.24014" lon="6.08797">
        <ele>2252</ele>
        <time>2021-02-27T11:17:10Z</time>
      </trkpt>
      <trkpt lat="45.24015" lon="6.08798">
        <ele>2252.4</ele>
        <time>2021-02-27T11:17:11Z</time>
      </trkpt>
      <trkpt lat="45.24016" lon="6.08799">
        <ele>2252.8</ele>
        <time>2021-02-27T11:17:12Z</time>
      </trkpt>
      <trkpt lat="45.24016" lon="6.08799">
        <ele>2252.8</ele>
        <time>2021-02-27T11:17:13Z</time>
      </trkpt>
      <trkpt lat="45.24016" lon="6.08799">
        <ele>2253</ele>
        <time>2021-02-27T11:17:14Z</time>
      </trkpt>
      <trkpt lat="45.24019" lon="6.088">
        <ele>2253.4</ele>
        <time>2021-02-27T11:17:15Z</time>
      </trkpt>
      <trkpt lat="45.24019" lon="6.088">
        <ele>2253.8</ele>
        <time>2021-02-27T11:17:16Z</time>
      </trkpt>
      <trkpt lat="45.2402" lon="6.08802">
        <ele>2254</ele>
        <time>2021-02-27T11:17:17Z</time>
      </trkpt>
      <trkpt lat="45.2402" lon="6.08802">
        <ele>2254.2</ele>
        <time>2021-02-27T11:17:18Z</time>
      </trkpt>
      <trkpt lat="45.24022" lon="6.08803">
        <ele>2254.2</ele>
        <time>2021-02-27T11:17:19Z</time>
      </trkpt>
      <trkpt lat="45.24022" lon="6.08803">
        <ele>2254.8</ele>
        <time>2021-02-27T11:17:20Z</time>
      </trkpt>
      <trkpt lat="45.24023" lon="6.08806">
        <ele>2254.8</ele>
        <time>2021-02-27T11:17:21Z</time>
      </trkpt>
      <trkpt lat="45.24023" lon="6.08806">
        <ele>2255.4</ele>
        <time>2021-02-27T11:17:22Z</time>
      </trkpt>
      <trkpt lat="45.24024" lon="6.08807">
        <ele>2255.4</ele>
        <time>2021-02-27T11:17:23Z</time>
      </trkpt>
      <trkpt lat="45.24024" lon="6.08808">
        <ele>2255.6</ele>
        <time>2021-02-27T11:17:24Z</time>
      </trkpt>
      <trkpt lat="45.24025" lon="6.08809">
        <ele>2256</ele>
        <time>2021-02-27T11:17:25Z</time>
      </trkpt>
      <trkpt lat="45.24025" lon="6.0881">
        <ele>2256</ele>
        <time>2021-02-27T11:17:26Z</time>
      </trkpt>
      <trkpt lat="45.24026" lon="6.08811">
        <ele>2256.2</ele>
        <time>2021-02-27T11:17:27Z</time>
      </trkpt>
      <trkpt lat="45.24027" lon="6.08814">
        <ele>2256.8</ele>
        <time>2021-02-27T11:17:28Z</time>
      </trkpt>
      <trkpt lat="45.24027" lon="6.08814">
        <ele>2256.8</ele>
        <time>2021-02-27T11:17:29Z</time>
      </trkpt>
      <trkpt lat="45.24027" lon="6.08814">
        <ele>2257.2</ele>
        <time>2021-02-27T11:17:30Z</time>
      </trkpt>
      <trkpt lat="45.24028" lon="6.08817">
        <ele>2257.8</ele>
        <time>2021-02-27T11:17:31Z</time>
      </trkpt>
      <trkpt lat="45.24028" lon="6.08817">
        <ele>2258.2</ele>
        <time>2021-02-27T11:17:32Z</time>
      </trkpt>
      <trkpt lat="45.24029" lon="6.08819">
        <ele>2258.4</ele>
        <time>2021-02-27T11:17:33Z</time>
      </trkpt>
      <trkpt lat="45.24029" lon="6.08819">
        <ele>2258.8</ele>
        <time>2021-02-27T11:17:34Z</time>
      </trkpt>
      <trkpt lat="45.24029" lon="6.08819">
        <ele>2259.4</ele>
        <time>2021-02-27T11:17:35Z</time>
      </trkpt>
      <trkpt lat="45.24029" lon="6.08819">
        <ele>2259.2</ele>
        <time>2021-02-27T11:17:36Z</time>
      </trkpt>
      <trkpt lat="45.24029" lon="6.08819">
        <ele>2259.2</ele>
        <time>2021-02-27T11:17:37Z</time>
      </trkpt>
      <trkpt lat="45.24031" lon="6.08824">
        <ele>2259.8</ele>
        <time>2021-02-27T11:17:38Z</time>
      </trkpt>
      <trkpt lat="45.24031" lon="6.08824">
        <ele>2260</ele>
        <time>2021-02-27T11:17:39Z</time>
      </trkpt>
      <trkpt lat="45.24032" lon="6.08825">
        <ele>2260.6</ele>
        <time>2021-02-27T11:17:40Z</time>
      </trkpt>
      <trkpt lat="45.24032" lon="6.08826">
        <ele>2260.6</ele>
        <time>2021-02-27T11:17:41Z</time>
      </trkpt>
      <trkpt lat="45.24033" lon="6.08827">
        <ele>2260.8</ele>
        <time>2021-02-27T11:17:42Z</time>
      </trkpt>
      <trkpt lat="45.24034" lon="6.08828">
        <ele>2260.8</ele>
        <time>2021-02-27T11:17:43Z</time>
      </trkpt>
      <trkpt lat="45.24035" lon="6.08829">
        <ele>2261</ele>
        <time>2021-02-27T11:17:44Z</time>
      </trkpt>
      <trkpt lat="45.24035" lon="6.0883">
        <ele>2261</ele>
        <time>2021-02-27T11:17:45Z</time>
      </trkpt>
      <trkpt lat="45.24036" lon="6.0883">
        <ele>2261.2</ele>
        <time>2021-02-27T11:17:46Z</time>
      </trkpt>
      <trkpt lat="45.24037" lon="6.08831">
        <ele>2261.4</ele>
        <time>2021-02-27T11:17:47Z</time>
      </trkpt>
      <trkpt lat="45.24038" lon="6.08832">
        <ele>2261.6</ele>
        <time>2021-02-27T11:17:48Z</time>
      </trkpt>
      <trkpt lat="45.24038" lon="6.08833">
        <ele>2262</ele>
        <time>2021-02-27T11:17:49Z</time>
      </trkpt>
      <trkpt lat="45.2404" lon="6.08835">
        <ele>2262</ele>
        <time>2021-02-27T11:17:50Z</time>
      </trkpt>
      <trkpt lat="45.2404" lon="6.08835">
        <ele>2262.2</ele>
        <time>2021-02-27T11:17:51Z</time>
      </trkpt>
      <trkpt lat="45.24041" lon="6.08838">
        <ele>2262.4</ele>
        <time>2021-02-27T11:17:52Z</time>
      </trkpt>
      <trkpt lat="45.24041" lon="6.08838">
        <ele>2262.8</ele>
        <time>2021-02-27T11:17:53Z</time>
      </trkpt>
      <trkpt lat="45.24042" lon="6.0884">
        <ele>2262.8</ele>
        <time>2021-02-27T11:17:54Z</time>
      </trkpt>
      <trkpt lat="45.24042" lon="6.0884">
        <ele>2263</ele>
        <time>2021-02-27T11:17:55Z</time>
      </trkpt>
      <trkpt lat="45.24042" lon="6.0884">
        <ele>2263.4</ele>
        <time>2021-02-27T11:17:56Z</time>
      </trkpt>
      <trkpt lat="45.24044" lon="6.08843">
        <ele>2263.8</ele>
        <time>2021-02-27T11:17:57Z</time>
      </trkpt>
      <trkpt lat="45.24044" lon="6.08843">
        <ele>2263.8</ele>
        <time>2021-02-27T11:17:58Z</time>
      </trkpt>
      <trkpt lat="45.24044" lon="6.08843">
        <ele>2264</ele>
        <time>2021-02-27T11:17:59Z</time>
      </trkpt>
      <trkpt lat="45.24046" lon="6.08846">
        <ele>2264.2</ele>
        <time>2021-02-27T11:18:00Z</time>
      </trkpt>
      <trkpt lat="45.24046" lon="6.08846">
        <ele>2264.4</ele>
        <time>2021-02-27T11:18:01Z</time>
      </trkpt>
      <trkpt lat="45.24047" lon="6.08848">
        <ele>2264.8</ele>
        <time>2021-02-27T11:18:02Z</time>
      </trkpt>
      <trkpt lat="45.24047" lon="6.08848">
        <ele>2265</ele>
        <time>2021-02-27T11:18:03Z</time>
      </trkpt>
      <trkpt lat="45.24049" lon="6.0885">
        <ele>2265.6</ele>
        <time>2021-02-27T11:18:04Z</time>
      </trkpt>
      <trkpt lat="45.24049" lon="6.0885">
        <ele>2265.8</ele>
        <time>2021-02-27T11:18:05Z</time>
      </trkpt>
      <trkpt lat="45.24051" lon="6.08851">
        <ele>2265.6</ele>
        <time>2021-02-27T11:18:06Z</time>
      </trkpt>
      <trkpt lat="45.24051" lon="6.08851">
        <ele>2265.8</ele>
        <time>2021-02-27T11:18:07Z</time>
      </trkpt>
      <trkpt lat="45.24052" lon="6.08854">
        <ele>2266.2</ele>
        <time>2021-02-27T11:18:08Z</time>
      </trkpt>
      <trkpt lat="45.24052" lon="6.08854">
        <ele>2266.4</ele>
        <time>2021-02-27T11:18:09Z</time>
      </trkpt>
      <trkpt lat="45.24052" lon="6.08854">
        <ele>2266.4</ele>
        <time>2021-02-27T11:18:10Z</time>
      </trkpt>
      <trkpt lat="45.24053" lon="6.08857">
        <ele>2267.2</ele>
        <time>2021-02-27T11:18:11Z</time>
      </trkpt>
      <trkpt lat="45.24053" lon="6.08857">
        <ele>2267.4</ele>
        <time>2021-02-27T11:18:12Z</time>
      </trkpt>
      <trkpt lat="45.24055" lon="6.0886">
        <ele>2268</ele>
        <time>2021-02-27T11:18:13Z</time>
      </trkpt>
      <trkpt lat="45.24055" lon="6.0886">
        <ele>2268</ele>
        <time>2021-02-27T11:18:14Z</time>
      </trkpt>
      <trkpt lat="45.24055" lon="6.0886">
        <ele>2268.8</ele>
        <time>2021-02-27T11:18:15Z</time>
      </trkpt>
      <trkpt lat="45.24056" lon="6.08863">
        <ele>2269.4</ele>
        <time>2021-02-27T11:18:16Z</time>
      </trkpt>
      <trkpt lat="45.24056" lon="6.08863">
        <ele>2269.8</ele>
        <time>2021-02-27T11:18:17Z</time>
      </trkpt>
      <trkpt lat="45.24056" lon="6.08863">
        <ele>2270.2</ele>
        <time>2021-02-27T11:18:18Z</time>
      </trkpt>
      <trkpt lat="45.24057" lon="6.08867">
        <ele>2270.6</ele>
        <time>2021-02-27T11:18:19Z</time>
      </trkpt>
      <trkpt lat="45.24057" lon="6.08867">
        <ele>2271.2</ele>
        <time>2021-02-27T11:18:20Z</time>
      </trkpt>
      <trkpt lat="45.24058" lon="6.08869">
        <ele>2271.2</ele>
        <time>2021-02-27T11:18:21Z</time>
      </trkpt>
      <trkpt lat="45.24058" lon="6.08869">
        <ele>2271.4</ele>
        <time>2021-02-27T11:18:22Z</time>
      </trkpt>
      <trkpt lat="45.24059" lon="6.08872">
        <ele>2271.6</ele>
        <time>2021-02-27T11:18:23Z</time>
      </trkpt>
      <trkpt lat="45.24059" lon="6.08872">
        <ele>2271.4</ele>
        <time>2021-02-27T11:18:24Z</time>
      </trkpt>
      <trkpt lat="45.24061" lon="6.08873">
        <ele>2271.4</ele>
        <time>2021-02-27T11:18:25Z</time>
      </trkpt>
      <trkpt lat="45.24061" lon="6.08873">
        <ele>2271.4</ele>
        <time>2021-02-27T11:18:26Z</time>
      </trkpt>
      <trkpt lat="45.24062" lon="6.08876">
        <ele>2271.6</ele>
        <time>2021-02-27T11:18:27Z</time>
      </trkpt>
      <trkpt lat="45.24062" lon="6.08876">
        <ele>2271.8</ele>
        <time>2021-02-27T11:18:28Z</time>
      </trkpt>
      <trkpt lat="45.24064" lon="6.08878">
        <ele>2271.8</ele>
        <time>2021-02-27T11:18:29Z</time>
      </trkpt>
      <trkpt lat="45.24064" lon="6.08878">
        <ele>2271.8</ele>
        <time>2021-02-27T11:18:30Z</time>
      </trkpt>
      <trkpt lat="45.24066" lon="6.0888">
        <ele>2271.6</ele>
        <time>2021-02-27T11:18:31Z</time>
      </trkpt>
      <trkpt lat="45.24066" lon="6.0888">
        <ele>2271.6</ele>
        <time>2021-02-27T11:18:32Z</time>
      </trkpt>
      <trkpt lat="45.24068" lon="6.08883">
        <ele>2271.4</ele>
        <time>2021-02-27T11:18:33Z</time>
      </trkpt>
      <trkpt lat="45.24068" lon="6.08883">
        <ele>2271.2</ele>
        <time>2021-02-27T11:18:34Z</time>
      </trkpt>
      <trkpt lat="45.2407" lon="6.08885">
        <ele>2271.2</ele>
        <time>2021-02-27T11:18:35Z</time>
      </trkpt>
      <trkpt lat="45.2407" lon="6.08885">
        <ele>2271.4</ele>
        <time>2021-02-27T11:18:36Z</time>
      </trkpt>
      <trkpt lat="45.24072" lon="6.08887">
        <ele>2271.4</ele>
        <time>2021-02-27T11:18:37Z</time>
      </trkpt>
      <trkpt lat="45.24072" lon="6.08887">
        <ele>2271.8</ele>
        <time>2021-02-27T11:18:38Z</time>
      </trkpt>
      <trkpt lat="45.24074" lon="6.08889">
        <ele>2271.4</ele>
        <time>2021-02-27T11:18:39Z</time>
      </trkpt>
      <trkpt lat="45.24074" lon="6.08889">
        <ele>2271.8</ele>
        <time>2021-02-27T11:18:40Z</time>
      </trkpt>
      <trkpt lat="45.24076" lon="6.08892">
        <ele>2272</ele>
        <time>2021-02-27T11:18:41Z</time>
      </trkpt>
      <trkpt lat="45.24076" lon="6.08892">
        <ele>2271.6</ele>
        <time>2021-02-27T11:18:42Z</time>
      </trkpt>
      <trkpt lat="45.24078" lon="6.08895">
        <ele>2272</ele>
        <time>2021-02-27T11:18:43Z</time>
      </trkpt>
      <trkpt lat="45.24078" lon="6.08895">
        <ele>2271.8</ele>
        <time>2021-02-27T11:18:44Z</time>
      </trkpt>
      <trkpt lat="45.2408" lon="6.08898">
        <ele>2272</ele>
        <time>2021-02-27T11:18:45Z</time>
      </trkpt>
      <trkpt lat="45.24081" lon="6.089">
        <ele>2272.2</ele>
        <time>2021-02-27T11:18:46Z</time>
      </trkpt>
      <trkpt lat="45.24082" lon="6.08902">
        <ele>2272</ele>
        <time>2021-02-27T11:18:47Z</time>
      </trkpt>
      <trkpt lat="45.24083" lon="6.08904">
        <ele>2272</ele>
        <time>2021-02-27T11:18:48Z</time>
      </trkpt>
      <trkpt lat="45.24084" lon="6.08907">
        <ele>2271.4</ele>
        <time>2021-02-27T11:18:49Z</time>
      </trkpt>
      <trkpt lat="45.24084" lon="6.08911">
        <ele>2271.4</ele>
        <time>2021-02-27T11:18:50Z</time>
      </trkpt>
      <trkpt lat="45.24085" lon="6.08916">
        <ele>2270.8</ele>
        <time>2021-02-27T11:18:51Z</time>
      </trkpt>
      <trkpt lat="45.24085" lon="6.08921">
        <ele>2270.4</ele>
        <time>2021-02-27T11:18:52Z</time>
      </trkpt>
      <trkpt lat="45.24086" lon="6.08925">
        <ele>2269.8</ele>
        <time>2021-02-27T11:18:53Z</time>
      </trkpt>
      <trkpt lat="45.24086" lon="6.08925">
        <ele>2269</ele>
        <time>2021-02-27T11:18:54Z</time>
      </trkpt>
      <trkpt lat="45.24087" lon="6.08929">
        <ele>2269.2</ele>
        <time>2021-02-27T11:18:55Z</time>
      </trkpt>
      <trkpt lat="45.24087" lon="6.08929">
        <ele>2268.4</ele>
        <time>2021-02-27T11:18:56Z</time>
      </trkpt>
      <trkpt lat="45.24087" lon="6.08933">
        <ele>2268.2</ele>
        <time>2021-02-27T11:18:57Z</time>
      </trkpt>
      <trkpt lat="45.24087" lon="6.08933">
        <ele>2268.4</ele>
        <time>2021-02-27T11:18:58Z</time>
      </trkpt>
      <trkpt lat="45.24088" lon="6.08936">
        <ele>2268</ele>
        <time>2021-02-27T11:18:59Z</time>
      </trkpt>
      <trkpt lat="45.24088" lon="6.08936">
        <ele>2267.6</ele>
        <time>2021-02-27T11:19:00Z</time>
      </trkpt>
      <trkpt lat="45.24089" lon="6.08939">
        <ele>2267.6</ele>
        <time>2021-02-27T11:19:01Z</time>
      </trkpt>
      <trkpt lat="45.24089" lon="6.08939">
        <ele>2267.6</ele>
        <time>2021-02-27T11:19:02Z</time>
      </trkpt>
      <trkpt lat="45.2409" lon="6.08943">
        <ele>2267.6</ele>
        <time>2021-02-27T11:19:03Z</time>
      </trkpt>
      <trkpt lat="45.2409" lon="6.08943">
        <ele>2267.4</ele>
        <time>2021-02-27T11:19:04Z</time>
      </trkpt>
      <trkpt lat="45.24092" lon="6.08946">
        <ele>2267</ele>
        <time>2021-02-27T11:19:05Z</time>
      </trkpt>
      <trkpt lat="45.24092" lon="6.08946">
        <ele>2267</ele>
        <time>2021-02-27T11:19:06Z</time>
      </trkpt>
      <trkpt lat="45.24094" lon="6.08951">
        <ele>2267</ele>
        <time>2021-02-27T11:19:07Z</time>
      </trkpt>
      <trkpt lat="45.24095" lon="6.08953">
        <ele>2267.2</ele>
        <time>2021-02-27T11:19:08Z</time>
      </trkpt>
      <trkpt lat="45.24095" lon="6.08953">
        <ele>2267.2</ele>
        <time>2021-02-27T11:19:09Z</time>
      </trkpt>
      <trkpt lat="45.24096" lon="6.08957">
        <ele>2267.4</ele>
        <time>2021-02-27T11:19:10Z</time>
      </trkpt>
      <trkpt lat="45.24097" lon="6.08959">
        <ele>2267.4</ele>
        <time>2021-02-27T11:19:11Z</time>
      </trkpt>
      <trkpt lat="45.24097" lon="6.08959">
        <ele>2267.2</ele>
        <time>2021-02-27T11:19:12Z</time>
      </trkpt>
      <trkpt lat="45.24099" lon="6.08963">
        <ele>2267</ele>
        <time>2021-02-27T11:19:13Z</time>
      </trkpt>
      <trkpt lat="45.24099" lon="6.08963">
        <ele>2266.8</ele>
        <time>2021-02-27T11:19:14Z</time>
      </trkpt>
      <trkpt lat="45.241" lon="6.08967">
        <ele>2266.8</ele>
        <time>2021-02-27T11:19:15Z</time>
      </trkpt>
      <trkpt lat="45.241" lon="6.08967">
        <ele>2266.8</ele>
        <time>2021-02-27T11:19:16Z</time>
      </trkpt>
      <trkpt lat="45.24103" lon="6.08971">
        <ele>2266.6</ele>
        <time>2021-02-27T11:19:17Z</time>
      </trkpt>
      <trkpt lat="45.24103" lon="6.08971">
        <ele>2266.4</ele>
        <time>2021-02-27T11:19:18Z</time>
      </trkpt>
      <trkpt lat="45.24104" lon="6.08974">
        <ele>2266.8</ele>
        <time>2021-02-27T11:19:19Z</time>
      </trkpt>
      <trkpt lat="45.24104" lon="6.08974">
        <ele>2267.6</ele>
        <time>2021-02-27T11:19:20Z</time>
      </trkpt>
      <trkpt lat="45.24106" lon="6.08977">
        <ele>2267.2</ele>
        <time>2021-02-27T11:19:21Z</time>
      </trkpt>
      <trkpt lat="45.24106" lon="6.08977">
        <ele>2267</ele>
        <time>2021-02-27T11:19:22Z</time>
      </trkpt>
      <trkpt lat="45.24107" lon="6.0898">
        <ele>2267.6</ele>
        <time>2021-02-27T11:19:23Z</time>
      </trkpt>
      <trkpt lat="45.24107" lon="6.0898">
        <ele>2268.4</ele>
        <time>2021-02-27T11:19:24Z</time>
      </trkpt>
      <trkpt lat="45.24109" lon="6.08984">
        <ele>2269.2</ele>
        <time>2021-02-27T11:19:25Z</time>
      </trkpt>
      <trkpt lat="45.24109" lon="6.08984">
        <ele>2268.4</ele>
        <time>2021-02-27T11:19:26Z</time>
      </trkpt>
      <trkpt lat="45.24111" lon="6.08987">
        <ele>2268.2</ele>
        <time>2021-02-27T11:19:27Z</time>
      </trkpt>
      <trkpt lat="45.24111" lon="6.08987">
        <ele>2268</ele>
        <time>2021-02-27T11:19:28Z</time>
      </trkpt>
      <trkpt lat="45.24113" lon="6.08991">
        <ele>2268.2</ele>
        <time>2021-02-27T11:19:29Z</time>
      </trkpt>
      <trkpt lat="45.24113" lon="6.08991">
        <ele>2267.8</ele>
        <time>2021-02-27T11:19:30Z</time>
      </trkpt>
      <trkpt lat="45.24114" lon="6.08994">
        <ele>2267.6</ele>
        <time>2021-02-27T11:19:31Z</time>
      </trkpt>
      <trkpt lat="45.24114" lon="6.08994">
        <ele>2267.6</ele>
        <time>2021-02-27T11:19:32Z</time>
      </trkpt>
      <trkpt lat="45.24115" lon="6.08997">
        <ele>2267.6</ele>
        <time>2021-02-27T11:19:33Z</time>
      </trkpt>
      <trkpt lat="45.24115" lon="6.08997">
        <ele>2267.8</ele>
        <time>2021-02-27T11:19:34Z</time>
      </trkpt>
      <trkpt lat="45.24117" lon="6.09">
        <ele>2267.6</ele>
        <time>2021-02-27T11:19:35Z</time>
      </trkpt>
      <trkpt lat="45.24117" lon="6.09">
        <ele>2267.8</ele>
        <time>2021-02-27T11:19:36Z</time>
      </trkpt>
      <trkpt lat="45.24118" lon="6.09004">
        <ele>2267.6</ele>
        <time>2021-02-27T11:19:37Z</time>
      </trkpt>
      <trkpt lat="45.24118" lon="6.09004">
        <ele>2268.2</ele>
        <time>2021-02-27T11:19:38Z</time>
      </trkpt>
      <trkpt lat="45.2412" lon="6.09007">
        <ele>2268.8</ele>
        <time>2021-02-27T11:19:39Z</time>
      </trkpt>
      <trkpt lat="45.2412" lon="6.09007">
        <ele>2269.2</ele>
        <time>2021-02-27T11:19:40Z</time>
      </trkpt>
      <trkpt lat="45.24123" lon="6.09011">
        <ele>2269.4</ele>
        <time>2021-02-27T11:19:41Z</time>
      </trkpt>
      <trkpt lat="45.24123" lon="6.09011">
        <ele>2270</ele>
        <time>2021-02-27T11:19:42Z</time>
      </trkpt>
      <trkpt lat="45.24125" lon="6.09013">
        <ele>2270.6</ele>
        <time>2021-02-27T11:19:43Z</time>
      </trkpt>
      <trkpt lat="45.24125" lon="6.09013">
        <ele>2270.6</ele>
        <time>2021-02-27T11:19:44Z</time>
      </trkpt>
      <trkpt lat="45.24127" lon="6.09016">
        <ele>2270.4</ele>
        <time>2021-02-27T11:19:45Z</time>
      </trkpt>
      <trkpt lat="45.24127" lon="6.09016">
        <ele>2270.2</ele>
        <time>2021-02-27T11:19:46Z</time>
      </trkpt>
      <trkpt lat="45.24129" lon="6.09019">
        <ele>2270.4</ele>
        <time>2021-02-27T11:19:47Z</time>
      </trkpt>
      <trkpt lat="45.24129" lon="6.09019">
        <ele>2270</ele>
        <time>2021-02-27T11:19:48Z</time>
      </trkpt>
      <trkpt lat="45.24131" lon="6.09022">
        <ele>2270.2</ele>
        <time>2021-02-27T11:19:49Z</time>
      </trkpt>
      <trkpt lat="45.24131" lon="6.09022">
        <ele>2270.4</ele>
        <time>2021-02-27T11:19:50Z</time>
      </trkpt>
      <trkpt lat="45.24133" lon="6.09026">
        <ele>2270.4</ele>
        <time>2021-02-27T11:19:51Z</time>
      </trkpt>
      <trkpt lat="45.24133" lon="6.09026">
        <ele>2270.6</ele>
        <time>2021-02-27T11:19:52Z</time>
      </trkpt>
      <trkpt lat="45.24135" lon="6.09029">
        <ele>2271</ele>
        <time>2021-02-27T11:19:53Z</time>
      </trkpt>
      <trkpt lat="45.24135" lon="6.09029">
        <ele>2271</ele>
        <time>2021-02-27T11:19:54Z</time>
      </trkpt>
      <trkpt lat="45.24137" lon="6.09033">
        <ele>2270.8</ele>
        <time>2021-02-27T11:19:55Z</time>
      </trkpt>
      <trkpt lat="45.24137" lon="6.09033">
        <ele>2270.2</ele>
        <time>2021-02-27T11:19:56Z</time>
      </trkpt>
      <trkpt lat="45.24139" lon="6.09036">
        <ele>2270</ele>
        <time>2021-02-27T11:19:57Z</time>
      </trkpt>
      <trkpt lat="45.24139" lon="6.09036">
        <ele>2270</ele>
        <time>2021-02-27T11:19:58Z</time>
      </trkpt>
      <trkpt lat="45.24141" lon="6.0904">
        <ele>2269.6</ele>
        <time>2021-02-27T11:19:59Z</time>
      </trkpt>
      <trkpt lat="45.24141" lon="6.0904">
        <ele>2269.4</ele>
        <time>2021-02-27T11:20:00Z</time>
      </trkpt>
      <trkpt lat="45.24143" lon="6.09043">
        <ele>2269</ele>
        <time>2021-02-27T11:20:01Z</time>
      </trkpt>
      <trkpt lat="45.24143" lon="6.09043">
        <ele>2269</ele>
        <time>2021-02-27T11:20:02Z</time>
      </trkpt>
      <trkpt lat="45.24145" lon="6.09046">
        <ele>2269</ele>
        <time>2021-02-27T11:20:03Z</time>
      </trkpt>
      <trkpt lat="45.24145" lon="6.09046">
        <ele>2269</ele>
        <time>2021-02-27T11:20:04Z</time>
      </trkpt>
      <trkpt lat="45.24148" lon="6.09049">
        <ele>2269.2</ele>
        <time>2021-02-27T11:20:05Z</time>
      </trkpt>
      <trkpt lat="45.24149" lon="6.09051">
        <ele>2269.2</ele>
        <time>2021-02-27T11:20:06Z</time>
      </trkpt>
      <trkpt lat="45.24149" lon="6.09051">
        <ele>2269.4</ele>
        <time>2021-02-27T11:20:07Z</time>
      </trkpt>
      <trkpt lat="45.24151" lon="6.09054">
        <ele>2269.2</ele>
        <time>2021-02-27T11:20:08Z</time>
      </trkpt>
      <trkpt lat="45.24151" lon="6.09054">
        <ele>2269.4</ele>
        <time>2021-02-27T11:20:09Z</time>
      </trkpt>
      <trkpt lat="45.24153" lon="6.09058">
        <ele>2269.6</ele>
        <time>2021-02-27T11:20:10Z</time>
      </trkpt>
      <trkpt lat="45.24153" lon="6.09058">
        <ele>2269.8</ele>
        <time>2021-02-27T11:20:11Z</time>
      </trkpt>
      <trkpt lat="45.24154" lon="6.09062">
        <ele>2269.8</ele>
        <time>2021-02-27T11:20:12Z</time>
      </trkpt>
      <trkpt lat="45.24154" lon="6.09062">
        <ele>2269.8</ele>
        <time>2021-02-27T11:20:13Z</time>
      </trkpt>
      <trkpt lat="45.24155" lon="6.09066">
        <ele>2269.8</ele>
        <time>2021-02-27T11:20:14Z</time>
      </trkpt>
      <trkpt lat="45.24155" lon="6.09066">
        <ele>2269.8</ele>
        <time>2021-02-27T11:20:15Z</time>
      </trkpt>
      <trkpt lat="45.24157" lon="6.09069">
        <ele>2270</ele>
        <time>2021-02-27T11:20:16Z</time>
      </trkpt>
      <trkpt lat="45.24157" lon="6.09069">
        <ele>2270.2</ele>
        <time>2021-02-27T11:20:17Z</time>
      </trkpt>
      <trkpt lat="45.24158" lon="6.09073">
        <ele>2270.4</ele>
        <time>2021-02-27T11:20:18Z</time>
      </trkpt>
      <trkpt lat="45.24158" lon="6.09073">
        <ele>2270.4</ele>
        <time>2021-02-27T11:20:19Z</time>
      </trkpt>
      <trkpt lat="45.2416" lon="6.09076">
        <ele>2270.2</ele>
        <time>2021-02-27T11:20:20Z</time>
      </trkpt>
      <trkpt lat="45.2416" lon="6.09076">
        <ele>2270.2</ele>
        <time>2021-02-27T11:20:21Z</time>
      </trkpt>
      <trkpt lat="45.24161" lon="6.0908">
        <ele>2270</ele>
        <time>2021-02-27T11:20:22Z</time>
      </trkpt>
      <trkpt lat="45.24161" lon="6.0908">
        <ele>2269.8</ele>
        <time>2021-02-27T11:20:23Z</time>
      </trkpt>
      <trkpt lat="45.24163" lon="6.09084">
        <ele>2269.6</ele>
        <time>2021-02-27T11:20:24Z</time>
      </trkpt>
      <trkpt lat="45.24163" lon="6.09084">
        <ele>2269.6</ele>
        <time>2021-02-27T11:20:25Z</time>
      </trkpt>
      <trkpt lat="45.24164" lon="6.09088">
        <ele>2269.6</ele>
        <time>2021-02-27T11:20:26Z</time>
      </trkpt>
      <trkpt lat="45.24164" lon="6.09088">
        <ele>2269.6</ele>
        <time>2021-02-27T11:20:27Z</time>
      </trkpt>
      <trkpt lat="45.24165" lon="6.09092">
        <ele>2269.2</ele>
        <time>2021-02-27T11:20:28Z</time>
      </trkpt>
      <trkpt lat="45.24165" lon="6.09092">
        <ele>2269</ele>
        <time>2021-02-27T11:20:29Z</time>
      </trkpt>
      <trkpt lat="45.24167" lon="6.09095">
        <ele>2269</ele>
        <time>2021-02-27T11:20:30Z</time>
      </trkpt>
      <trkpt lat="45.24167" lon="6.09095">
        <ele>2268.8</ele>
        <time>2021-02-27T11:20:31Z</time>
      </trkpt>
      <trkpt lat="45.24169" lon="6.09098">
        <ele>2268.6</ele>
        <time>2021-02-27T11:20:32Z</time>
      </trkpt>
      <trkpt lat="45.24169" lon="6.09098">
        <ele>2268.6</ele>
        <time>2021-02-27T11:20:33Z</time>
      </trkpt>
      <trkpt lat="45.24171" lon="6.09102">
        <ele>2268.4</ele>
        <time>2021-02-27T11:20:34Z</time>
      </trkpt>
      <trkpt lat="45.24171" lon="6.09102">
        <ele>2268.4</ele>
        <time>2021-02-27T11:20:35Z</time>
      </trkpt>
      <trkpt lat="45.24173" lon="6.09106">
        <ele>2268.8</ele>
        <time>2021-02-27T11:20:36Z</time>
      </trkpt>
      <trkpt lat="45.24173" lon="6.09106">
        <ele>2268.6</ele>
        <time>2021-02-27T11:20:37Z</time>
      </trkpt>
      <trkpt lat="45.24175" lon="6.09109">
        <ele>2268.8</ele>
        <time>2021-02-27T11:20:38Z</time>
      </trkpt>
      <trkpt lat="45.24175" lon="6.09109">
        <ele>2268.8</ele>
        <time>2021-02-27T11:20:39Z</time>
      </trkpt>
      <trkpt lat="45.24177" lon="6.09113">
        <ele>2268.8</ele>
        <time>2021-02-27T11:20:40Z</time>
      </trkpt>
      <trkpt lat="45.24177" lon="6.09113">
        <ele>2268.8</ele>
        <time>2021-02-27T11:20:41Z</time>
      </trkpt>
      <trkpt lat="45.24177" lon="6.09117">
        <ele>2268.6</ele>
        <time>2021-02-27T11:20:42Z</time>
      </trkpt>
      <trkpt lat="45.24177" lon="6.09117">
        <ele>2268.6</ele>
        <time>2021-02-27T11:20:43Z</time>
      </trkpt>
      <trkpt lat="45.24178" lon="6.09121">
        <ele>2268.2</ele>
        <time>2021-02-27T11:20:44Z</time>
      </trkpt>
      <trkpt lat="45.24178" lon="6.09121">
        <ele>2268.4</ele>
        <time>2021-02-27T11:20:45Z</time>
      </trkpt>
      <trkpt lat="45.2418" lon="6.09125">
        <ele>2268.8</ele>
        <time>2021-02-27T11:20:46Z</time>
      </trkpt>
      <trkpt lat="45.2418" lon="6.09125">
        <ele>2268.8</ele>
        <time>2021-02-27T11:20:47Z</time>
      </trkpt>
      <trkpt lat="45.24181" lon="6.09128">
        <ele>2269.4</ele>
        <time>2021-02-27T11:20:48Z</time>
      </trkpt>
      <trkpt lat="45.24181" lon="6.09128">
        <ele>2269.6</ele>
        <time>2021-02-27T11:20:49Z</time>
      </trkpt>
      <trkpt lat="45.24183" lon="6.09132">
        <ele>2270</ele>
        <time>2021-02-27T11:20:50Z</time>
      </trkpt>
      <trkpt lat="45.24183" lon="6.09132">
        <ele>2270.8</ele>
        <time>2021-02-27T11:20:51Z</time>
      </trkpt>
      <trkpt lat="45.24184" lon="6.09134">
        <ele>2271</ele>
        <time>2021-02-27T11:20:52Z</time>
      </trkpt>
      <trkpt lat="45.24184" lon="6.09134">
        <ele>2271.2</ele>
        <time>2021-02-27T11:20:53Z</time>
      </trkpt>
      <trkpt lat="45.24186" lon="6.09137">
        <ele>2271.2</ele>
        <time>2021-02-27T11:20:54Z</time>
      </trkpt>
      <trkpt lat="45.24186" lon="6.09137">
        <ele>2271.2</ele>
        <time>2021-02-27T11:20:55Z</time>
      </trkpt>
      <trkpt lat="45.24188" lon="6.0914">
        <ele>2271.4</ele>
        <time>2021-02-27T11:20:56Z</time>
      </trkpt>
      <trkpt lat="45.24188" lon="6.0914">
        <ele>2271.4</ele>
        <time>2021-02-27T11:20:57Z</time>
      </trkpt>
      <trkpt lat="45.24189" lon="6.09143">
        <ele>2272</ele>
        <time>2021-02-27T11:20:58Z</time>
      </trkpt>
      <trkpt lat="45.24189" lon="6.09143">
        <ele>2271.6</ele>
        <time>2021-02-27T11:20:59Z</time>
      </trkpt>
      <trkpt lat="45.24191" lon="6.09147">
        <ele>2271.4</ele>
        <time>2021-02-27T11:21:00Z</time>
      </trkpt>
      <trkpt lat="45.24191" lon="6.09147">
        <ele>2271</ele>
        <time>2021-02-27T11:21:01Z</time>
      </trkpt>
      <trkpt lat="45.24192" lon="6.0915">
        <ele>2271</ele>
        <time>2021-02-27T11:21:02Z</time>
      </trkpt>
      <trkpt lat="45.24192" lon="6.0915">
        <ele>2270.8</ele>
        <time>2021-02-27T11:21:03Z</time>
      </trkpt>
      <trkpt lat="45.24192" lon="6.0915">
        <ele>2270.8</ele>
        <time>2021-02-27T11:21:04Z</time>
      </trkpt>
      <trkpt lat="45.24192" lon="6.09152">
        <ele>2270.8</ele>
        <time>2021-02-27T11:21:05Z</time>
      </trkpt>
      <trkpt lat="45.24192" lon="6.09152">
        <ele>2270.8</ele>
        <time>2021-02-27T11:21:06Z</time>
      </trkpt>
      <trkpt lat="45.24192" lon="6.09155">
        <ele>2270.4</ele>
        <time>2021-02-27T11:21:07Z</time>
      </trkpt>
      <trkpt lat="45.24192" lon="6.09155">
        <ele>2270.2</ele>
        <time>2021-02-27T11:21:08Z</time>
      </trkpt>
      <trkpt lat="45.24192" lon="6.09155">
        <ele>2270</ele>
        <time>2021-02-27T11:21:09Z</time>
      </trkpt>
      <trkpt lat="45.2419" lon="6.09158">
        <ele>2270.4</ele>
        <time>2021-02-27T11:21:10Z</time>
      </trkpt>
      <trkpt lat="45.2419" lon="6.09158">
        <ele>2270.6</ele>
        <time>2021-02-27T11:21:11Z</time>
      </trkpt>
      <trkpt lat="45.2419" lon="6.09158">
        <ele>2270.8</ele>
        <time>2021-02-27T11:21:12Z</time>
      </trkpt>
      <trkpt lat="45.24188" lon="6.0916">
        <ele>2270.8</ele>
        <time>2021-02-27T11:21:13Z</time>
      </trkpt>
      <trkpt lat="45.24188" lon="6.0916">
        <ele>2271.4</ele>
        <time>2021-02-27T11:21:14Z</time>
      </trkpt>
      <trkpt lat="45.24188" lon="6.0916">
        <ele>2271.8</ele>
        <time>2021-02-27T11:21:15Z</time>
      </trkpt>
      <trkpt lat="45.24188" lon="6.0916">
        <ele>2272.2</ele>
        <time>2021-02-27T11:21:16Z</time>
      </trkpt>
      <trkpt lat="45.24188" lon="6.0916">
        <ele>2272.4</ele>
        <time>2021-02-27T11:21:17Z</time>
      </trkpt>
      <trkpt lat="45.24188" lon="6.09163">
        <ele>2272.6</ele>
        <time>2021-02-27T11:21:18Z</time>
      </trkpt>
      <trkpt lat="45.24188" lon="6.09163">
        <ele>2273</ele>
        <time>2021-02-27T11:21:19Z</time>
      </trkpt>
      <trkpt lat="45.24188" lon="6.09163">
        <ele>2273</ele>
        <time>2021-02-27T11:21:20Z</time>
      </trkpt>
      <trkpt lat="45.2419" lon="6.09165">
        <ele>2273.2</ele>
        <time>2021-02-27T11:21:21Z</time>
      </trkpt>
      <trkpt lat="45.2419" lon="6.09165">
        <ele>2273.4</ele>
        <time>2021-02-27T11:21:22Z</time>
      </trkpt>
      <trkpt lat="45.2419" lon="6.09165">
        <ele>2273.4</ele>
        <time>2021-02-27T11:21:23Z</time>
      </trkpt>
      <trkpt lat="45.24191" lon="6.09168">
        <ele>2273.4</ele>
        <time>2021-02-27T11:21:24Z</time>
      </trkpt>
      <trkpt lat="45.24191" lon="6.09168">
        <ele>2273.8</ele>
        <time>2021-02-27T11:21:25Z</time>
      </trkpt>
      <trkpt lat="45.24191" lon="6.09168">
        <ele>2274</ele>
        <time>2021-02-27T11:21:26Z</time>
      </trkpt>
      <trkpt lat="45.24193" lon="6.09171">
        <ele>2274</ele>
        <time>2021-02-27T11:21:27Z</time>
      </trkpt>
      <trkpt lat="45.24193" lon="6.09171">
        <ele>2274.6</ele>
        <time>2021-02-27T11:21:28Z</time>
      </trkpt>
      <trkpt lat="45.24194" lon="6.09173">
        <ele>2274.6</ele>
        <time>2021-02-27T11:21:29Z</time>
      </trkpt>
      <trkpt lat="45.24194" lon="6.09173">
        <ele>2274.8</ele>
        <time>2021-02-27T11:21:30Z</time>
      </trkpt>
      <trkpt lat="45.24194" lon="6.09173">
        <ele>2275</ele>
        <time>2021-02-27T11:21:31Z</time>
      </trkpt>
      <trkpt lat="45.24196" lon="6.09175">
        <ele>2275</ele>
        <time>2021-02-27T11:21:32Z</time>
      </trkpt>
      <trkpt lat="45.24196" lon="6.09175">
        <ele>2274.8</ele>
        <time>2021-02-27T11:21:33Z</time>
      </trkpt>
      <trkpt lat="45.24196" lon="6.09175">
        <ele>2274.8</ele>
        <time>2021-02-27T11:21:34Z</time>
      </trkpt>
      <trkpt lat="45.24197" lon="6.09178">
        <ele>2275.4</ele>
        <time>2021-02-27T11:21:35Z</time>
      </trkpt>
      <trkpt lat="45.24197" lon="6.09178">
        <ele>2275.2</ele>
        <time>2021-02-27T11:21:36Z</time>
      </trkpt>
      <trkpt lat="45.24197" lon="6.09178">
        <ele>2275.2</ele>
        <time>2021-02-27T11:21:37Z</time>
      </trkpt>
      <trkpt lat="45.24199" lon="6.09182">
        <ele>2275.4</ele>
        <time>2021-02-27T11:21:38Z</time>
      </trkpt>
      <trkpt lat="45.24199" lon="6.09182">
        <ele>2275.4</ele>
        <time>2021-02-27T11:21:39Z</time>
      </trkpt>
      <trkpt lat="45.24199" lon="6.09182">
        <ele>2275.6</ele>
        <time>2021-02-27T11:21:40Z</time>
      </trkpt>
      <trkpt lat="45.242" lon="6.09184">
        <ele>2275.6</ele>
        <time>2021-02-27T11:21:41Z</time>
      </trkpt>
      <trkpt lat="45.242" lon="6.09184">
        <ele>2275.8</ele>
        <time>2021-02-27T11:21:42Z</time>
      </trkpt>
      <trkpt lat="45.242" lon="6.09184">
        <ele>2276</ele>
        <time>2021-02-27T11:21:43Z</time>
      </trkpt>
      <trkpt lat="45.242" lon="6.09187">
        <ele>2276.2</ele>
        <time>2021-02-27T11:21:44Z</time>
      </trkpt>
      <trkpt lat="45.242" lon="6.09187">
        <ele>2276.2</ele>
        <time>2021-02-27T11:21:45Z</time>
      </trkpt>
      <trkpt lat="45.242" lon="6.09187">
        <ele>2276.6</ele>
        <time>2021-02-27T11:21:46Z</time>
      </trkpt>
      <trkpt lat="45.24201" lon="6.0919">
        <ele>2276.8</ele>
        <time>2021-02-27T11:21:47Z</time>
      </trkpt>
      <trkpt lat="45.24201" lon="6.0919">
        <ele>2277.2</ele>
        <time>2021-02-27T11:21:48Z</time>
      </trkpt>
      <trkpt lat="45.24201" lon="6.0919">
        <ele>2277.4</ele>
        <time>2021-02-27T11:21:49Z</time>
      </trkpt>
      <trkpt lat="45.24201" lon="6.0919">
        <ele>2277.4</ele>
        <time>2021-02-27T11:21:50Z</time>
      </trkpt>
      <trkpt lat="45.24202" lon="6.09195">
        <ele>2277.8</ele>
        <time>2021-02-27T11:21:51Z</time>
      </trkpt>
      <trkpt lat="45.24202" lon="6.09195">
        <ele>2278</ele>
        <time>2021-02-27T11:21:52Z</time>
      </trkpt>
      <trkpt lat="45.24201" lon="6.09197">
        <ele>2278.4</ele>
        <time>2021-02-27T11:21:53Z</time>
      </trkpt>
      <trkpt lat="45.24201" lon="6.09197">
        <ele>2279.2</ele>
        <time>2021-02-27T11:21:54Z</time>
      </trkpt>
      <trkpt lat="45.24201" lon="6.09197">
        <ele>2279.2</ele>
        <time>2021-02-27T11:21:55Z</time>
      </trkpt>
      <trkpt lat="45.242" lon="6.09198">
        <ele>2280</ele>
        <time>2021-02-27T11:21:56Z</time>
      </trkpt>
      <trkpt lat="45.242" lon="6.09198">
        <ele>2280.4</ele>
        <time>2021-02-27T11:21:57Z</time>
      </trkpt>
      <trkpt lat="45.24198" lon="6.09199">
        <ele>2280.4</ele>
        <time>2021-02-27T11:21:58Z</time>
      </trkpt>
      <trkpt lat="45.24198" lon="6.09199">
        <ele>2280.8</ele>
        <time>2021-02-27T11:21:59Z</time>
      </trkpt>
      <trkpt lat="45.24198" lon="6.09199">
        <ele>2280.8</ele>
        <time>2021-02-27T11:22:00Z</time>
      </trkpt>
      <trkpt lat="45.24198" lon="6.09199">
        <ele>2280.8</ele>
        <time>2021-02-27T11:22:01Z</time>
      </trkpt>
      <trkpt lat="45.24198" lon="6.09199">
        <ele>2280.8</ele>
        <time>2021-02-27T11:22:02Z</time>
      </trkpt>
      <trkpt lat="45.24198" lon="6.09199">
        <ele>2281.2</ele>
        <time>2021-02-27T11:22:03Z</time>
      </trkpt>
      <trkpt lat="45.24198" lon="6.09199">
        <ele>2281</ele>
        <time>2021-02-27T11:22:04Z</time>
      </trkpt>
      <trkpt lat="45.24198" lon="6.09199">
        <ele>2281.2</ele>
        <time>2021-02-27T11:22:05Z</time>
      </trkpt>
      <trkpt lat="45.24195" lon="6.09199">
        <ele>2281.6</ele>
        <time>2021-02-27T11:22:06Z</time>
      </trkpt>
      <trkpt lat="45.24195" lon="6.09199">
        <ele>2282</ele>
        <time>2021-02-27T11:22:07Z</time>
      </trkpt>
      <trkpt lat="45.24195" lon="6.09199">
        <ele>2281.8</ele>
        <time>2021-02-27T11:22:08Z</time>
      </trkpt>
      <trkpt lat="45.24193" lon="6.092">
        <ele>2282.4</ele>
        <time>2021-02-27T11:22:09Z</time>
      </trkpt>
      <trkpt lat="45.24193" lon="6.092">
        <ele>2282.4</ele>
        <time>2021-02-27T11:22:10Z</time>
      </trkpt>
      <trkpt lat="45.24193" lon="6.092">
        <ele>2282.2</ele>
        <time>2021-02-27T11:22:11Z</time>
      </trkpt>
      <trkpt lat="45.24193" lon="6.092">
        <ele>2282.4</ele>
        <time>2021-02-27T11:22:12Z</time>
      </trkpt>
      <trkpt lat="45.24193" lon="6.092">
        <ele>2282.6</ele>
        <time>2021-02-27T11:22:13Z</time>
      </trkpt>
      <trkpt lat="45.24193" lon="6.092">
        <ele>2282.4</ele>
        <time>2021-02-27T11:22:14Z</time>
      </trkpt>
      <trkpt lat="45.24193" lon="6.092">
        <ele>2282.6</ele>
        <time>2021-02-27T11:22:15Z</time>
      </trkpt>
      <trkpt lat="45.24191" lon="6.09203">
        <ele>2282.4</ele>
        <time>2021-02-27T11:22:16Z</time>
      </trkpt>
      <trkpt lat="45.24191" lon="6.09203">
        <ele>2282.2</ele>
        <time>2021-02-27T11:22:17Z</time>
      </trkpt>
      <trkpt lat="45.24191" lon="6.09203">
        <ele>2282.8</ele>
        <time>2021-02-27T11:22:18Z</time>
      </trkpt>
      <trkpt lat="45.2419" lon="6.09206">
        <ele>2282.6</ele>
        <time>2021-02-27T11:22:19Z</time>
      </trkpt>
      <trkpt lat="45.2419" lon="6.09206">
        <ele>2282.6</ele>
        <time>2021-02-27T11:22:20Z</time>
      </trkpt>
      <trkpt lat="45.2419" lon="6.09206">
        <ele>2282.6</ele>
        <time>2021-02-27T11:22:21Z</time>
      </trkpt>
      <trkpt lat="45.24191" lon="6.09209">
        <ele>2283.2</ele>
        <time>2021-02-27T11:22:22Z</time>
      </trkpt>
      <trkpt lat="45.24191" lon="6.09209">
        <ele>2283.2</ele>
        <time>2021-02-27T11:22:23Z</time>
      </trkpt>
      <trkpt lat="45.24191" lon="6.09209">
        <ele>2283.8</ele>
        <time>2021-02-27T11:22:24Z</time>
      </trkpt>
      <trkpt lat="45.24193" lon="6.09212">
        <ele>2283.6</ele>
        <time>2021-02-27T11:22:25Z</time>
      </trkpt>
      <trkpt lat="45.24193" lon="6.09212">
        <ele>2283.8</ele>
        <time>2021-02-27T11:22:26Z</time>
      </trkpt>
      <trkpt lat="45.24193" lon="6.09213">
        <ele>2284.4</ele>
        <time>2021-02-27T11:22:27Z</time>
      </trkpt>
      <trkpt lat="45.24194" lon="6.09213">
        <ele>2284.6</ele>
        <time>2021-02-27T11:22:28Z</time>
      </trkpt>
      <trkpt lat="45.24194" lon="6.09214">
        <ele>2285</ele>
        <time>2021-02-27T11:22:29Z</time>
      </trkpt>
      <trkpt lat="45.24195" lon="6.09215">
        <ele>2285</ele>
        <time>2021-02-27T11:22:30Z</time>
      </trkpt>
      <trkpt lat="45.24195" lon="6.09215">
        <ele>2285</ele>
        <time>2021-02-27T11:22:31Z</time>
      </trkpt>
      <trkpt lat="45.24196" lon="6.09216">
        <ele>2285.4</ele>
        <time>2021-02-27T11:22:32Z</time>
      </trkpt>
      <trkpt lat="45.24196" lon="6.09217">
        <ele>2285.6</ele>
        <time>2021-02-27T11:22:33Z</time>
      </trkpt>
      <trkpt lat="45.24196" lon="6.09217">
        <ele>2286.4</ele>
        <time>2021-02-27T11:22:34Z</time>
      </trkpt>
      <trkpt lat="45.24196" lon="6.09217">
        <ele>2287.2</ele>
        <time>2021-02-27T11:22:35Z</time>
      </trkpt>
      <trkpt lat="45.24195" lon="6.09219">
        <ele>2288</ele>
        <time>2021-02-27T11:22:36Z</time>
      </trkpt>
      <trkpt lat="45.24195" lon="6.09219">
        <ele>2288.4</ele>
        <time>2021-02-27T11:22:37Z</time>
      </trkpt>
      <trkpt lat="45.24195" lon="6.09219">
        <ele>2288.8</ele>
        <time>2021-02-27T11:22:38Z</time>
      </trkpt>
      <trkpt lat="45.24193" lon="6.09221">
        <ele>2289.2</ele>
        <time>2021-02-27T11:22:39Z</time>
      </trkpt>
      <trkpt lat="45.24193" lon="6.09221">
        <ele>2289.8</ele>
        <time>2021-02-27T11:22:40Z</time>
      </trkpt>
      <trkpt lat="45.24193" lon="6.09221">
        <ele>2290.2</ele>
        <time>2021-02-27T11:22:41Z</time>
      </trkpt>
      <trkpt lat="45.24191" lon="6.09223">
        <ele>2290.2</ele>
        <time>2021-02-27T11:22:42Z</time>
      </trkpt>
      <trkpt lat="45.24191" lon="6.09223">
        <ele>2290.8</ele>
        <time>2021-02-27T11:22:43Z</time>
      </trkpt>
      <trkpt lat="45.24189" lon="6.09224">
        <ele>2291</ele>
        <time>2021-02-27T11:22:44Z</time>
      </trkpt>
      <trkpt lat="45.24189" lon="6.09224">
        <ele>2291.2</ele>
        <time>2021-02-27T11:22:45Z</time>
      </trkpt>
      <trkpt lat="45.24189" lon="6.09224">
        <ele>2291.8</ele>
        <time>2021-02-27T11:22:46Z</time>
      </trkpt>
      <trkpt lat="45.24189" lon="6.09224">
        <ele>2292</ele>
        <time>2021-02-27T11:22:47Z</time>
      </trkpt>
      <trkpt lat="45.24189" lon="6.09224">
        <ele>2292</ele>
        <time>2021-02-27T11:22:48Z</time>
      </trkpt>
      <trkpt lat="45.24187" lon="6.09225">
        <ele>2292.4</ele>
        <time>2021-02-27T11:22:49Z</time>
      </trkpt>
      <trkpt lat="45.24187" lon="6.09225">
        <ele>2292.6</ele>
        <time>2021-02-27T11:22:50Z</time>
      </trkpt>
      <trkpt lat="45.24186" lon="6.09225">
        <ele>2293</ele>
        <time>2021-02-27T11:22:51Z</time>
      </trkpt>
      <trkpt lat="45.24185" lon="6.09225">
        <ele>2293.6</ele>
        <time>2021-02-27T11:22:52Z</time>
      </trkpt>
      <trkpt lat="45.24184" lon="6.09226">
        <ele>2293.8</ele>
        <time>2021-02-27T11:22:53Z</time>
      </trkpt>
      <trkpt lat="45.24183" lon="6.09226">
        <ele>2294.2</ele>
        <time>2021-02-27T11:22:54Z</time>
      </trkpt>
      <trkpt lat="45.24183" lon="6.09226">
        <ele>2294.6</ele>
        <time>2021-02-27T11:22:55Z</time>
      </trkpt>
      <trkpt lat="45.24182" lon="6.09226">
        <ele>2294.8</ele>
        <time>2021-02-27T11:22:56Z</time>
      </trkpt>
      <trkpt lat="45.24181" lon="6.09227">
        <ele>2294.8</ele>
        <time>2021-02-27T11:22:57Z</time>
      </trkpt>
      <trkpt lat="45.2418" lon="6.09227">
        <ele>2295.4</ele>
        <time>2021-02-27T11:22:58Z</time>
      </trkpt>
      <trkpt lat="45.24179" lon="6.09227">
        <ele>2295.4</ele>
        <time>2021-02-27T11:22:59Z</time>
      </trkpt>
      <trkpt lat="45.24179" lon="6.09227">
        <ele>2294.8</ele>
        <time>2021-02-27T11:23:00Z</time>
      </trkpt>
      <trkpt lat="45.24179" lon="6.09231">
        <ele>2295</ele>
        <time>2021-02-27T11:23:01Z</time>
      </trkpt>
      <trkpt lat="45.24179" lon="6.09231">
        <ele>2295.4</ele>
        <time>2021-02-27T11:23:02Z</time>
      </trkpt>
      <trkpt lat="45.24179" lon="6.09231">
        <ele>2295.6</ele>
        <time>2021-02-27T11:23:03Z</time>
      </trkpt>
      <trkpt lat="45.24179" lon="6.09231">
        <ele>2296</ele>
        <time>2021-02-27T11:23:04Z</time>
      </trkpt>
      <trkpt lat="45.24178" lon="6.09236">
        <ele>2296.4</ele>
        <time>2021-02-27T11:23:05Z</time>
      </trkpt>
      <trkpt lat="45.24178" lon="6.09236">
        <ele>2296.4</ele>
        <time>2021-02-27T11:23:06Z</time>
      </trkpt>
      <trkpt lat="45.24178" lon="6.09236">
        <ele>2296.4</ele>
        <time>2021-02-27T11:23:07Z</time>
      </trkpt>
      <trkpt lat="45.24178" lon="6.09236">
        <ele>2297</ele>
        <time>2021-02-27T11:23:08Z</time>
      </trkpt>
      <trkpt lat="45.24179" lon="6.09238">
        <ele>2296.8</ele>
        <time>2021-02-27T11:23:09Z</time>
      </trkpt>
      <trkpt lat="45.24179" lon="6.09238">
        <ele>2297</ele>
        <time>2021-02-27T11:23:10Z</time>
      </trkpt>
      <trkpt lat="45.24179" lon="6.09238">
        <ele>2297.4</ele>
        <time>2021-02-27T11:23:11Z</time>
      </trkpt>
      <trkpt lat="45.2418" lon="6.09241">
        <ele>2297.2</ele>
        <time>2021-02-27T11:23:12Z</time>
      </trkpt>
      <trkpt lat="45.2418" lon="6.09241">
        <ele>2297.6</ele>
        <time>2021-02-27T11:23:13Z</time>
      </trkpt>
      <trkpt lat="45.24181" lon="6.09244">
        <ele>2297.8</ele>
        <time>2021-02-27T11:23:14Z</time>
      </trkpt>
      <trkpt lat="45.24181" lon="6.09244">
        <ele>2298</ele>
        <time>2021-02-27T11:23:15Z</time>
      </trkpt>
      <trkpt lat="45.24181" lon="6.09244">
        <ele>2298.2</ele>
        <time>2021-02-27T11:23:16Z</time>
      </trkpt>
      <trkpt lat="45.24181" lon="6.09244">
        <ele>2298.4</ele>
        <time>2021-02-27T11:23:17Z</time>
      </trkpt>
      <trkpt lat="45.24181" lon="6.09247">
        <ele>2299</ele>
        <time>2021-02-27T11:23:18Z</time>
      </trkpt>
      <trkpt lat="45.24181" lon="6.09247">
        <ele>2299.6</ele>
        <time>2021-02-27T11:23:19Z</time>
      </trkpt>
      <trkpt lat="45.24181" lon="6.09247">
        <ele>2299.6</ele>
        <time>2021-02-27T11:23:20Z</time>
      </trkpt>
      <trkpt lat="45.24181" lon="6.09247">
        <ele>2300</ele>
        <time>2021-02-27T11:23:21Z</time>
      </trkpt>
      <trkpt lat="45.2418" lon="6.09249">
        <ele>2300.8</ele>
        <time>2021-02-27T11:23:22Z</time>
      </trkpt>
      <trkpt lat="45.2418" lon="6.09249">
        <ele>2300.8</ele>
        <time>2021-02-27T11:23:23Z</time>
      </trkpt>
      <trkpt lat="45.2418" lon="6.09249">
        <ele>2300.8</ele>
        <time>2021-02-27T11:23:24Z</time>
      </trkpt>
      <trkpt lat="45.2418" lon="6.09249">
        <ele>2301.4</ele>
        <time>2021-02-27T11:23:25Z</time>
      </trkpt>
      <trkpt lat="45.2418" lon="6.09249">
        <ele>2301.4</ele>
        <time>2021-02-27T11:23:26Z</time>
      </trkpt>
      <trkpt lat="45.2418" lon="6.09249">
        <ele>2301.4</ele>
        <time>2021-02-27T11:23:27Z</time>
      </trkpt>
      <trkpt lat="45.2418" lon="6.09249">
        <ele>2301.6</ele>
        <time>2021-02-27T11:23:28Z</time>
      </trkpt>
      <trkpt lat="45.24179" lon="6.09252">
        <ele>2302</ele>
        <time>2021-02-27T11:23:29Z</time>
      </trkpt>
      <trkpt lat="45.24179" lon="6.09252">
        <ele>2302</ele>
        <time>2021-02-27T11:23:30Z</time>
      </trkpt>
      <trkpt lat="45.24178" lon="6.09254">
        <ele>2302</ele>
        <time>2021-02-27T11:23:31Z</time>
      </trkpt>
      <trkpt lat="45.24178" lon="6.09254">
        <ele>2302.4</ele>
        <time>2021-02-27T11:23:32Z</time>
      </trkpt>
      <trkpt lat="45.24176" lon="6.09255">
        <ele>2302.4</ele>
        <time>2021-02-27T11:23:33Z</time>
      </trkpt>
      <trkpt lat="45.24176" lon="6.09255">
        <ele>2302.8</ele>
        <time>2021-02-27T11:23:34Z</time>
      </trkpt>
      <trkpt lat="45.24176" lon="6.09255">
        <ele>2303</ele>
        <time>2021-02-27T11:23:35Z</time>
      </trkpt>
      <trkpt lat="45.24174" lon="6.09258">
        <ele>2303.2</ele>
        <time>2021-02-27T11:23:36Z</time>
      </trkpt>
      <trkpt lat="45.24174" lon="6.09258">
        <ele>2303.4</ele>
        <time>2021-02-27T11:23:37Z</time>
      </trkpt>
      <trkpt lat="45.24174" lon="6.09258">
        <ele>2303.6</ele>
        <time>2021-02-27T11:23:38Z</time>
      </trkpt>
      <trkpt lat="45.24171" lon="6.09259">
        <ele>2303.6</ele>
        <time>2021-02-27T11:23:39Z</time>
      </trkpt>
      <trkpt lat="45.24169" lon="6.09258">
        <ele>2303.8</ele>
        <time>2021-02-27T11:23:40Z</time>
      </trkpt>
      <trkpt lat="45.24169" lon="6.09258">
        <ele>2303.8</ele>
        <time>2021-02-27T11:23:41Z</time>
      </trkpt>
      <trkpt lat="45.24167" lon="6.09256">
        <ele>2304.4</ele>
        <time>2021-02-27T11:23:42Z</time>
      </trkpt>
      <trkpt lat="45.24167" lon="6.09256">
        <ele>2304.4</ele>
        <time>2021-02-27T11:23:43Z</time>
      </trkpt>
      <trkpt lat="45.24167" lon="6.09256">
        <ele>2304.6</ele>
        <time>2021-02-27T11:23:44Z</time>
      </trkpt>
      <trkpt lat="45.24167" lon="6.09256">
        <ele>2304.8</ele>
        <time>2021-02-27T11:23:45Z</time>
      </trkpt>
      <trkpt lat="45.24167" lon="6.09256">
        <ele>2305.8</ele>
        <time>2021-02-27T11:23:46Z</time>
      </trkpt>
      <trkpt lat="45.24167" lon="6.09256">
        <ele>2305.4</ele>
        <time>2021-02-27T11:23:47Z</time>
      </trkpt>
      <trkpt lat="45.24167" lon="6.09256">
        <ele>2305.6</ele>
        <time>2021-02-27T11:23:48Z</time>
      </trkpt>
      <trkpt lat="45.24167" lon="6.09256">
        <ele>2305.8</ele>
        <time>2021-02-27T11:23:49Z</time>
      </trkpt>
      <trkpt lat="45.24167" lon="6.09256">
        <ele>2305.8</ele>
        <time>2021-02-27T11:23:50Z</time>
      </trkpt>
      <trkpt lat="45.24166" lon="6.09253">
        <ele>2305.8</ele>
        <time>2021-02-27T11:23:51Z</time>
      </trkpt>
      <trkpt lat="45.24166" lon="6.09253">
        <ele>2306</ele>
        <time>2021-02-27T11:23:52Z</time>
      </trkpt>
      <trkpt lat="45.24166" lon="6.09253">
        <ele>2305.8</ele>
        <time>2021-02-27T11:23:53Z</time>
      </trkpt>
      <trkpt lat="45.24166" lon="6.09253">
        <ele>2306</ele>
        <time>2021-02-27T11:23:54Z</time>
      </trkpt>
      <trkpt lat="45.24166" lon="6.09253">
        <ele>2306.2</ele>
        <time>2021-02-27T11:23:55Z</time>
      </trkpt>
      <trkpt lat="45.24166" lon="6.09253">
        <ele>2306.6</ele>
        <time>2021-02-27T11:23:56Z</time>
      </trkpt>
      <trkpt lat="45.24166" lon="6.09253">
        <ele>2306.8</ele>
        <time>2021-02-27T11:23:57Z</time>
      </trkpt>
      <trkpt lat="45.24166" lon="6.09253">
        <ele>2306.4</ele>
        <time>2021-02-27T11:23:58Z</time>
      </trkpt>
      <trkpt lat="45.24166" lon="6.09253">
        <ele>2306.4</ele>
        <time>2021-02-27T11:23:59Z</time>
      </trkpt>
      <trkpt lat="45.24166" lon="6.09253">
        <ele>2306.8</ele>
        <time>2021-02-27T11:24:00Z</time>
      </trkpt>
      <trkpt lat="45.24166" lon="6.09253">
        <ele>2307</ele>
        <time>2021-02-27T11:24:01Z</time>
      </trkpt>
      <trkpt lat="45.24166" lon="6.09253">
        <ele>2307</ele>
        <time>2021-02-27T11:24:02Z</time>
      </trkpt>
      <trkpt lat="45.24166" lon="6.09253">
        <ele>2307</ele>
        <time>2021-02-27T11:24:03Z</time>
      </trkpt>
      <trkpt lat="45.24166" lon="6.09253">
        <ele>2306.6</ele>
        <time>2021-02-27T11:24:04Z</time>
      </trkpt>
      <trkpt lat="45.24166" lon="6.09253">
        <ele>2305.8</ele>
        <time>2021-02-27T11:24:05Z</time>
      </trkpt>
      <trkpt lat="45.24166" lon="6.09253">
        <ele>2305.6</ele>
        <time>2021-02-27T11:24:06Z</time>
      </trkpt>
      <trkpt lat="45.24166" lon="6.09253">
        <ele>2305.6</ele>
        <time>2021-02-27T11:24:07Z</time>
      </trkpt>
      <trkpt lat="45.24165" lon="6.09251">
        <ele>2306</ele>
        <time>2021-02-27T11:24:08Z</time>
      </trkpt>
      <trkpt lat="45.24165" lon="6.09251">
        <ele>2306.2</ele>
        <time>2021-02-27T11:24:09Z</time>
      </trkpt>
      <trkpt lat="45.24165" lon="6.09251">
        <ele>2306.2</ele>
        <time>2021-02-27T11:24:10Z</time>
      </trkpt>
      <trkpt lat="45.24165" lon="6.09251">
        <ele>2306.2</ele>
        <time>2021-02-27T11:24:11Z</time>
      </trkpt>
      <trkpt lat="45.24165" lon="6.09251">
        <ele>2306.2</ele>
        <time>2021-02-27T11:24:12Z</time>
      </trkpt>
      <trkpt lat="45.24165" lon="6.09251">
        <ele>2306.2</ele>
        <time>2021-02-27T11:24:13Z</time>
      </trkpt>
      <trkpt lat="45.24163" lon="6.0925">
        <ele>2306.2</ele>
        <time>2021-02-27T11:24:14Z</time>
      </trkpt>
      <trkpt lat="45.24163" lon="6.0925">
        <ele>2306.2</ele>
        <time>2021-02-27T11:24:15Z</time>
      </trkpt>
      <trkpt lat="45.24163" lon="6.0925">
        <ele>2306.4</ele>
        <time>2021-02-27T11:24:16Z</time>
      </trkpt>
      <trkpt lat="45.24163" lon="6.0925">
        <ele>2306.4</ele>
        <time>2021-02-27T11:24:17Z</time>
      </trkpt>
      <trkpt lat="45.24163" lon="6.0925">
        <ele>2306.4</ele>
        <time>2021-02-27T11:24:18Z</time>
      </trkpt>
      <trkpt lat="45.24163" lon="6.0925">
        <ele>2306.4</ele>
        <time>2021-02-27T11:24:19Z</time>
      </trkpt>
      <trkpt lat="45.24163" lon="6.0925">
        <ele>2307.2</ele>
        <time>2021-02-27T11:24:20Z</time>
      </trkpt>
      <trkpt lat="45.24163" lon="6.0925">
        <ele>2307.4</ele>
        <time>2021-02-27T11:24:21Z</time>
      </trkpt>
      <trkpt lat="45.24163" lon="6.0925">
        <ele>2307.2</ele>
        <time>2021-02-27T11:24:22Z</time>
      </trkpt>
      <trkpt lat="45.24163" lon="6.0925">
        <ele>2307.4</ele>
        <time>2021-02-27T11:24:23Z</time>
      </trkpt>
      <trkpt lat="45.24163" lon="6.0925">
        <ele>2307.4</ele>
        <time>2021-02-27T11:24:24Z</time>
      </trkpt>
      <trkpt lat="45.24163" lon="6.0925">
        <ele>2307.8</ele>
        <time>2021-02-27T11:24:25Z</time>
      </trkpt>
      <trkpt lat="45.24163" lon="6.0925">
        <ele>2307.6</ele>
        <time>2021-02-27T11:24:26Z</time>
      </trkpt>
      <trkpt lat="45.24163" lon="6.0925">
        <ele>2307.6</ele>
        <time>2021-02-27T11:24:27Z</time>
      </trkpt>
      <trkpt lat="45.24163" lon="6.0925">
        <ele>2307.8</ele>
        <time>2021-02-27T11:24:28Z</time>
      </trkpt>
      <trkpt lat="45.24163" lon="6.0925">
        <ele>2308</ele>
        <time>2021-02-27T11:24:29Z</time>
      </trkpt>
      <trkpt lat="45.24163" lon="6.0925">
        <ele>2308.2</ele>
        <time>2021-02-27T11:24:30Z</time>
      </trkpt>
      <trkpt lat="45.24163" lon="6.0925">
        <ele>2308.4</ele>
        <time>2021-02-27T11:24:31Z</time>
      </trkpt>
      <trkpt lat="45.24163" lon="6.0925">
        <ele>2308.4</ele>
        <time>2021-02-27T11:24:32Z</time>
      </trkpt>
      <trkpt lat="45.24163" lon="6.0925">
        <ele>2308.6</ele>
        <time>2021-02-27T11:24:33Z</time>
      </trkpt>
      <trkpt lat="45.24163" lon="6.0925">
        <ele>2308.6</ele>
        <time>2021-02-27T11:24:34Z</time>
      </trkpt>
      <trkpt lat="45.24163" lon="6.0925">
        <ele>2308.8</ele>
        <time>2021-02-27T11:24:35Z</time>
      </trkpt>
      <trkpt lat="45.24163" lon="6.0925">
        <ele>2309</ele>
        <time>2021-02-27T11:24:36Z</time>
      </trkpt>
      <trkpt lat="45.24163" lon="6.0925">
        <ele>2309</ele>
        <time>2021-02-27T11:24:37Z</time>
      </trkpt>
      <trkpt lat="45.24163" lon="6.0925">
        <ele>2308.8</ele>
        <time>2021-02-27T11:24:38Z</time>
      </trkpt>
      <trkpt lat="45.24163" lon="6.0925">
        <ele>2309</ele>
        <time>2021-02-27T11:24:39Z</time>
      </trkpt>
      <trkpt lat="45.24163" lon="6.0925">
        <ele>2309.2</ele>
        <time>2021-02-27T11:24:40Z</time>
      </trkpt>
      <trkpt lat="45.24163" lon="6.0925">
        <ele>2309</ele>
        <time>2021-02-27T11:24:41Z</time>
      </trkpt>
      <trkpt lat="45.24163" lon="6.0925">
        <ele>2309.2</ele>
        <time>2021-02-27T11:24:42Z</time>
      </trkpt>
      <trkpt lat="45.24163" lon="6.0925">
        <ele>2309</ele>
        <time>2021-02-27T11:24:43Z</time>
      </trkpt>
      <trkpt lat="45.24163" lon="6.0925">
        <ele>2309</ele>
        <time>2021-02-27T11:24:44Z</time>
      </trkpt>
      <trkpt lat="45.24163" lon="6.0925">
        <ele>2309.2</ele>
        <time>2021-02-27T11:24:45Z</time>
      </trkpt>
      <trkpt lat="45.24163" lon="6.0925">
        <ele>2308.8</ele>
        <time>2021-02-27T11:24:46Z</time>
      </trkpt>
      <trkpt lat="45.24163" lon="6.0925">
        <ele>2308.6</ele>
        <time>2021-02-27T11:24:47Z</time>
      </trkpt>
      <trkpt lat="45.24163" lon="6.0925">
        <ele>2308</ele>
        <time>2021-02-27T11:24:48Z</time>
      </trkpt>
      <trkpt lat="45.24163" lon="6.0925">
        <ele>2308</ele>
        <time>2021-02-27T11:24:49Z</time>
      </trkpt>
      <trkpt lat="45.24161" lon="6.09249">
        <ele>2308</ele>
        <time>2021-02-27T11:24:50Z</time>
      </trkpt>
      <trkpt lat="45.24161" lon="6.09249">
        <ele>2308</ele>
        <time>2021-02-27T11:24:51Z</time>
      </trkpt>
      <trkpt lat="45.24161" lon="6.09249">
        <ele>2308.2</ele>
        <time>2021-02-27T11:24:52Z</time>
      </trkpt>
      <trkpt lat="45.24161" lon="6.09249">
        <ele>2308</ele>
        <time>2021-02-27T11:24:53Z</time>
      </trkpt>
      <trkpt lat="45.24161" lon="6.09249">
        <ele>2308.2</ele>
        <time>2021-02-27T11:24:54Z</time>
      </trkpt>
      <trkpt lat="45.24161" lon="6.09249">
        <ele>2308.2</ele>
        <time>2021-02-27T11:24:55Z</time>
      </trkpt>
      <trkpt lat="45.24161" lon="6.09249">
        <ele>2308.2</ele>
        <time>2021-02-27T11:24:56Z</time>
      </trkpt>
      <trkpt lat="45.24161" lon="6.09252">
        <ele>2308.4</ele>
        <time>2021-02-27T11:24:57Z</time>
      </trkpt>
      <trkpt lat="45.24161" lon="6.09252">
        <ele>2308.4</ele>
        <time>2021-02-27T11:24:58Z</time>
      </trkpt>
      <trkpt lat="45.24161" lon="6.09252">
        <ele>2308.6</ele>
        <time>2021-02-27T11:24:59Z</time>
      </trkpt>
      <trkpt lat="45.24162" lon="6.09255">
        <ele>2308.8</ele>
        <time>2021-02-27T11:25:00Z</time>
      </trkpt>
      <trkpt lat="45.24162" lon="6.09255">
        <ele>2309.2</ele>
        <time>2021-02-27T11:25:01Z</time>
      </trkpt>
      <trkpt lat="45.24162" lon="6.09255">
        <ele>2309.6</ele>
        <time>2021-02-27T11:25:02Z</time>
      </trkpt>
      <trkpt lat="45.2416" lon="6.09257">
        <ele>2310.2</ele>
        <time>2021-02-27T11:25:03Z</time>
      </trkpt>
      <trkpt lat="45.2416" lon="6.09257">
        <ele>2310.4</ele>
        <time>2021-02-27T11:25:04Z</time>
      </trkpt>
      <trkpt lat="45.2416" lon="6.09257">
        <ele>2310.6</ele>
        <time>2021-02-27T11:25:05Z</time>
      </trkpt>
      <trkpt lat="45.2416" lon="6.09257">
        <ele>2311.4</ele>
        <time>2021-02-27T11:25:06Z</time>
      </trkpt>
      <trkpt lat="45.24161" lon="6.0926">
        <ele>2311.6</ele>
        <time>2021-02-27T11:25:07Z</time>
      </trkpt>
      <trkpt lat="45.24161" lon="6.0926">
        <ele>2311.8</ele>
        <time>2021-02-27T11:25:08Z</time>
      </trkpt>
      <trkpt lat="45.24161" lon="6.0926">
        <ele>2311.8</ele>
        <time>2021-02-27T11:25:09Z</time>
      </trkpt>
      <trkpt lat="45.2416" lon="6.09262">
        <ele>2312.2</ele>
        <time>2021-02-27T11:25:10Z</time>
      </trkpt>
      <trkpt lat="45.2416" lon="6.09262">
        <ele>2312.4</ele>
        <time>2021-02-27T11:25:11Z</time>
      </trkpt>
      <trkpt lat="45.2416" lon="6.09262">
        <ele>2312.6</ele>
        <time>2021-02-27T11:25:12Z</time>
      </trkpt>
      <trkpt lat="45.24159" lon="6.09265">
        <ele>2312.8</ele>
        <time>2021-02-27T11:25:13Z</time>
      </trkpt>
      <trkpt lat="45.24159" lon="6.09265">
        <ele>2312.8</ele>
        <time>2021-02-27T11:25:14Z</time>
      </trkpt>
      <trkpt lat="45.24159" lon="6.09265">
        <ele>2313.4</ele>
        <time>2021-02-27T11:25:15Z</time>
      </trkpt>
      <trkpt lat="45.24159" lon="6.09265">
        <ele>2314</ele>
        <time>2021-02-27T11:25:16Z</time>
      </trkpt>
      <trkpt lat="45.24158" lon="6.09268">
        <ele>2314.4</ele>
        <time>2021-02-27T11:25:17Z</time>
      </trkpt>
      <trkpt lat="45.24158" lon="6.09268">
        <ele>2314.4</ele>
        <time>2021-02-27T11:25:18Z</time>
      </trkpt>
      <trkpt lat="45.24158" lon="6.09268">
        <ele>2314.8</ele>
        <time>2021-02-27T11:25:19Z</time>
      </trkpt>
      <trkpt lat="45.24158" lon="6.09268">
        <ele>2315</ele>
        <time>2021-02-27T11:25:20Z</time>
      </trkpt>
      <trkpt lat="45.24158" lon="6.09268">
        <ele>2315.2</ele>
        <time>2021-02-27T11:25:21Z</time>
      </trkpt>
      <trkpt lat="45.24157" lon="6.09271">
        <ele>2315.6</ele>
        <time>2021-02-27T11:25:22Z</time>
      </trkpt>
      <trkpt lat="45.24157" lon="6.09271">
        <ele>2315.8</ele>
        <time>2021-02-27T11:25:23Z</time>
      </trkpt>
      <trkpt lat="45.24157" lon="6.09271">
        <ele>2315.8</ele>
        <time>2021-02-27T11:25:24Z</time>
      </trkpt>
      <trkpt lat="45.24157" lon="6.09271">
        <ele>2316.2</ele>
        <time>2021-02-27T11:25:25Z</time>
      </trkpt>
      <trkpt lat="45.24154" lon="6.09273">
        <ele>2316.4</ele>
        <time>2021-02-27T11:25:26Z</time>
      </trkpt>
      <trkpt lat="45.24154" lon="6.09273">
        <ele>2316.4</ele>
        <time>2021-02-27T11:25:27Z</time>
      </trkpt>
      <trkpt lat="45.24152" lon="6.09274">
        <ele>2316.8</ele>
        <time>2021-02-27T11:25:28Z</time>
      </trkpt>
      <trkpt lat="45.24152" lon="6.09274">
        <ele>2317</ele>
        <time>2021-02-27T11:25:29Z</time>
      </trkpt>
      <trkpt lat="45.24152" lon="6.09274">
        <ele>2317</ele>
        <time>2021-02-27T11:25:30Z</time>
      </trkpt>
      <trkpt lat="45.24152" lon="6.09274">
        <ele>2317</ele>
        <time>2021-02-27T11:25:31Z</time>
      </trkpt>
      <trkpt lat="45.24152" lon="6.09274">
        <ele>2317.2</ele>
        <time>2021-02-27T11:25:32Z</time>
      </trkpt>
      <trkpt lat="45.24151" lon="6.09276">
        <ele>2317.2</ele>
        <time>2021-02-27T11:25:33Z</time>
      </trkpt>
      <trkpt lat="45.24151" lon="6.09276">
        <ele>2317.6</ele>
        <time>2021-02-27T11:25:34Z</time>
      </trkpt>
      <trkpt lat="45.24151" lon="6.09276">
        <ele>2317.8</ele>
        <time>2021-02-27T11:25:35Z</time>
      </trkpt>
      <trkpt lat="45.24151" lon="6.09279">
        <ele>2317.8</ele>
        <time>2021-02-27T11:25:36Z</time>
      </trkpt>
      <trkpt lat="45.24151" lon="6.09279">
        <ele>2318.2</ele>
        <time>2021-02-27T11:25:37Z</time>
      </trkpt>
      <trkpt lat="45.24151" lon="6.09279">
        <ele>2318.6</ele>
        <time>2021-02-27T11:25:38Z</time>
      </trkpt>
      <trkpt lat="45.2415" lon="6.09281">
        <ele>2318.8</ele>
        <time>2021-02-27T11:25:39Z</time>
      </trkpt>
      <trkpt lat="45.2415" lon="6.09281">
        <ele>2318.8</ele>
        <time>2021-02-27T11:25:40Z</time>
      </trkpt>
      <trkpt lat="45.2415" lon="6.09281">
        <ele>2318.6</ele>
        <time>2021-02-27T11:25:41Z</time>
      </trkpt>
      <trkpt lat="45.2415" lon="6.09281">
        <ele>2319.2</ele>
        <time>2021-02-27T11:25:42Z</time>
      </trkpt>
      <trkpt lat="45.24148" lon="6.09284">
        <ele>2319.4</ele>
        <time>2021-02-27T11:25:43Z</time>
      </trkpt>
      <trkpt lat="45.24148" lon="6.09284">
        <ele>2319.4</ele>
        <time>2021-02-27T11:25:44Z</time>
      </trkpt>
      <trkpt lat="45.24148" lon="6.09284">
        <ele>2319.6</ele>
        <time>2021-02-27T11:25:45Z</time>
      </trkpt>
      <trkpt lat="45.24147" lon="6.09287">
        <ele>2320</ele>
        <time>2021-02-27T11:25:46Z</time>
      </trkpt>
      <trkpt lat="45.24147" lon="6.09287">
        <ele>2320.2</ele>
        <time>2021-02-27T11:25:47Z</time>
      </trkpt>
      <trkpt lat="45.24147" lon="6.09287">
        <ele>2320.8</ele>
        <time>2021-02-27T11:25:48Z</time>
      </trkpt>
      <trkpt lat="45.24147" lon="6.09287">
        <ele>2320.8</ele>
        <time>2021-02-27T11:25:49Z</time>
      </trkpt>
      <trkpt lat="45.24146" lon="6.09289">
        <ele>2321.2</ele>
        <time>2021-02-27T11:25:50Z</time>
      </trkpt>
      <trkpt lat="45.24146" lon="6.09289">
        <ele>2321.2</ele>
        <time>2021-02-27T11:25:51Z</time>
      </trkpt>
      <trkpt lat="45.24146" lon="6.09289">
        <ele>2321.4</ele>
        <time>2021-02-27T11:25:52Z</time>
      </trkpt>
      <trkpt lat="45.24145" lon="6.09292">
        <ele>2321.6</ele>
        <time>2021-02-27T11:25:53Z</time>
      </trkpt>
      <trkpt lat="45.24145" lon="6.09292">
        <ele>2321.6</ele>
        <time>2021-02-27T11:25:54Z</time>
      </trkpt>
      <trkpt lat="45.24145" lon="6.09292">
        <ele>2321.6</ele>
        <time>2021-02-27T11:25:55Z</time>
      </trkpt>
      <trkpt lat="45.24145" lon="6.09292">
        <ele>2321.8</ele>
        <time>2021-02-27T11:25:56Z</time>
      </trkpt>
      <trkpt lat="45.24145" lon="6.09294">
        <ele>2321.6</ele>
        <time>2021-02-27T11:25:57Z</time>
      </trkpt>
      <trkpt lat="45.24145" lon="6.09294">
        <ele>2322</ele>
        <time>2021-02-27T11:25:58Z</time>
      </trkpt>
      <trkpt lat="45.24145" lon="6.09294">
        <ele>2322.2</ele>
        <time>2021-02-27T11:25:59Z</time>
      </trkpt>
      <trkpt lat="45.24144" lon="6.09297">
        <ele>2322.2</ele>
        <time>2021-02-27T11:26:00Z</time>
      </trkpt>
      <trkpt lat="45.24144" lon="6.09297">
        <ele>2322.2</ele>
        <time>2021-02-27T11:26:01Z</time>
      </trkpt>
      <trkpt lat="45.24144" lon="6.09297">
        <ele>2322.4</ele>
        <time>2021-02-27T11:26:02Z</time>
      </trkpt>
      <trkpt lat="45.24144" lon="6.09297">
        <ele>2322.4</ele>
        <time>2021-02-27T11:26:03Z</time>
      </trkpt>
      <trkpt lat="45.24144" lon="6.09297">
        <ele>2322.6</ele>
        <time>2021-02-27T11:26:04Z</time>
      </trkpt>
      <trkpt lat="45.24144" lon="6.09297">
        <ele>2322.8</ele>
        <time>2021-02-27T11:26:05Z</time>
      </trkpt>
      <trkpt lat="45.24144" lon="6.09297">
        <ele>2323</ele>
        <time>2021-02-27T11:26:06Z</time>
      </trkpt>
      <trkpt lat="45.24144" lon="6.09297">
        <ele>2322.8</ele>
        <time>2021-02-27T11:26:07Z</time>
      </trkpt>
      <trkpt lat="45.24144" lon="6.09297">
        <ele>2322.6</ele>
        <time>2021-02-27T11:26:08Z</time>
      </trkpt>
      <trkpt lat="45.24144" lon="6.09297">
        <ele>2322.6</ele>
        <time>2021-02-27T11:26:09Z</time>
      </trkpt>
      <trkpt lat="45.24144" lon="6.09297">
        <ele>2322.6</ele>
        <time>2021-02-27T11:26:10Z</time>
      </trkpt>
      <trkpt lat="45.24144" lon="6.09297">
        <ele>2322.6</ele>
        <time>2021-02-27T11:26:11Z</time>
      </trkpt>
      <trkpt lat="45.24144" lon="6.09297">
        <ele>2322.8</ele>
        <time>2021-02-27T11:26:12Z</time>
      </trkpt>
      <trkpt lat="45.24144" lon="6.09297">
        <ele>2322.8</ele>
        <time>2021-02-27T11:26:13Z</time>
      </trkpt>
      <trkpt lat="45.24144" lon="6.09297">
        <ele>2322.8</ele>
        <time>2021-02-27T11:26:14Z</time>
      </trkpt>
      <trkpt lat="45.24144" lon="6.09297">
        <ele>2322.6</ele>
        <time>2021-02-27T11:26:15Z</time>
      </trkpt>
      <trkpt lat="45.24144" lon="6.09297">
        <ele>2322.6</ele>
        <time>2021-02-27T11:26:16Z</time>
      </trkpt>
      <trkpt lat="45.24144" lon="6.09297">
        <ele>2322.8</ele>
        <time>2021-02-27T11:26:17Z</time>
      </trkpt>
      <trkpt lat="45.24144" lon="6.09297">
        <ele>2323</ele>
        <time>2021-02-27T11:26:18Z</time>
      </trkpt>
      <trkpt lat="45.24144" lon="6.09297">
        <ele>2323</ele>
        <time>2021-02-27T11:26:19Z</time>
      </trkpt>
      <trkpt lat="45.24144" lon="6.09297">
        <ele>2323</ele>
        <time>2021-02-27T11:26:20Z</time>
      </trkpt>
      <trkpt lat="45.24144" lon="6.09297">
        <ele>2323.2</ele>
        <time>2021-02-27T11:26:21Z</time>
      </trkpt>
      <trkpt lat="45.24142" lon="6.09299">
        <ele>2323.4</ele>
        <time>2021-02-27T11:26:22Z</time>
      </trkpt>
      <trkpt lat="45.24142" lon="6.09299">
        <ele>2323.4</ele>
        <time>2021-02-27T11:26:23Z</time>
      </trkpt>
      <trkpt lat="45.24142" lon="6.09299">
        <ele>2323.6</ele>
        <time>2021-02-27T11:26:24Z</time>
      </trkpt>
      <trkpt lat="45.24141" lon="6.09302">
        <ele>2323.8</ele>
        <time>2021-02-27T11:26:25Z</time>
      </trkpt>
      <trkpt lat="45.24141" lon="6.09302">
        <ele>2323.6</ele>
        <time>2021-02-27T11:26:26Z</time>
      </trkpt>
      <trkpt lat="45.2414" lon="6.09304">
        <ele>2323.4</ele>
        <time>2021-02-27T11:26:27Z</time>
      </trkpt>
      <trkpt lat="45.2414" lon="6.09304">
        <ele>2323.8</ele>
        <time>2021-02-27T11:26:28Z</time>
      </trkpt>
      <trkpt lat="45.2414" lon="6.09304">
        <ele>2324.2</ele>
        <time>2021-02-27T11:26:29Z</time>
      </trkpt>
      <trkpt lat="45.24139" lon="6.09307">
        <ele>2324.4</ele>
        <time>2021-02-27T11:26:30Z</time>
      </trkpt>
      <trkpt lat="45.24139" lon="6.09307">
        <ele>2324.4</ele>
        <time>2021-02-27T11:26:31Z</time>
      </trkpt>
      <trkpt lat="45.24139" lon="6.09307">
        <ele>2324.6</ele>
        <time>2021-02-27T11:26:32Z</time>
      </trkpt>
      <trkpt lat="45.24139" lon="6.0931">
        <ele>2324.6</ele>
        <time>2021-02-27T11:26:33Z</time>
      </trkpt>
      <trkpt lat="45.24139" lon="6.0931">
        <ele>2324.4</ele>
        <time>2021-02-27T11:26:34Z</time>
      </trkpt>
      <trkpt lat="45.24139" lon="6.0931">
        <ele>2324.4</ele>
        <time>2021-02-27T11:26:35Z</time>
      </trkpt>
      <trkpt lat="45.24138" lon="6.09313">
        <ele>2324.4</ele>
        <time>2021-02-27T11:26:36Z</time>
      </trkpt>
      <trkpt lat="45.24138" lon="6.09313">
        <ele>2324.6</ele>
        <time>2021-02-27T11:26:37Z</time>
      </trkpt>
      <trkpt lat="45.24138" lon="6.09313">
        <ele>2324.6</ele>
        <time>2021-02-27T11:26:38Z</time>
      </trkpt>
      <trkpt lat="45.24137" lon="6.09317">
        <ele>2324.8</ele>
        <time>2021-02-27T11:26:39Z</time>
      </trkpt>
      <trkpt lat="45.24137" lon="6.09317">
        <ele>2325.2</ele>
        <time>2021-02-27T11:26:40Z</time>
      </trkpt>
      <trkpt lat="45.24137" lon="6.09317">
        <ele>2325.4</ele>
        <time>2021-02-27T11:26:41Z</time>
      </trkpt>
      <trkpt lat="45.24136" lon="6.0932">
        <ele>2325.6</ele>
        <time>2021-02-27T11:26:42Z</time>
      </trkpt>
      <trkpt lat="45.24136" lon="6.0932">
        <ele>2325.8</ele>
        <time>2021-02-27T11:26:43Z</time>
      </trkpt>
      <trkpt lat="45.24136" lon="6.0932">
        <ele>2326</ele>
        <time>2021-02-27T11:26:44Z</time>
      </trkpt>
      <trkpt lat="45.24135" lon="6.09323">
        <ele>2326.6</ele>
        <time>2021-02-27T11:26:45Z</time>
      </trkpt>
      <trkpt lat="45.24135" lon="6.09323">
        <ele>2327.4</ele>
        <time>2021-02-27T11:26:46Z</time>
      </trkpt>
      <trkpt lat="45.24135" lon="6.09323">
        <ele>2328</ele>
        <time>2021-02-27T11:26:47Z</time>
      </trkpt>
      <trkpt lat="45.24135" lon="6.09326">
        <ele>2328</ele>
        <time>2021-02-27T11:26:48Z</time>
      </trkpt>
      <trkpt lat="45.24135" lon="6.09326">
        <ele>2329.2</ele>
        <time>2021-02-27T11:26:49Z</time>
      </trkpt>
      <trkpt lat="45.24135" lon="6.09326">
        <ele>2329.2</ele>
        <time>2021-02-27T11:26:50Z</time>
      </trkpt>
      <trkpt lat="45.24133" lon="6.09328">
        <ele>2329.2</ele>
        <time>2021-02-27T11:26:51Z</time>
      </trkpt>
      <trkpt lat="45.24133" lon="6.09328">
        <ele>2329.6</ele>
        <time>2021-02-27T11:26:52Z</time>
      </trkpt>
      <trkpt lat="45.24133" lon="6.09328">
        <ele>2329.8</ele>
        <time>2021-02-27T11:26:53Z</time>
      </trkpt>
      <trkpt lat="45.24133" lon="6.09331">
        <ele>2330.2</ele>
        <time>2021-02-27T11:26:54Z</time>
      </trkpt>
      <trkpt lat="45.24133" lon="6.09331">
        <ele>2330.4</ele>
        <time>2021-02-27T11:26:55Z</time>
      </trkpt>
      <trkpt lat="45.24132" lon="6.09334">
        <ele>2330.6</ele>
        <time>2021-02-27T11:26:56Z</time>
      </trkpt>
      <trkpt lat="45.24132" lon="6.09334">
        <ele>2331.2</ele>
        <time>2021-02-27T11:26:57Z</time>
      </trkpt>
      <trkpt lat="45.24132" lon="6.09334">
        <ele>2331.8</ele>
        <time>2021-02-27T11:26:58Z</time>
      </trkpt>
      <trkpt lat="45.2413" lon="6.09336">
        <ele>2332</ele>
        <time>2021-02-27T11:26:59Z</time>
      </trkpt>
      <trkpt lat="45.2413" lon="6.09336">
        <ele>2332.4</ele>
        <time>2021-02-27T11:27:00Z</time>
      </trkpt>
      <trkpt lat="45.2413" lon="6.09336">
        <ele>2332.8</ele>
        <time>2021-02-27T11:27:01Z</time>
      </trkpt>
      <trkpt lat="45.2413" lon="6.09336">
        <ele>2332.8</ele>
        <time>2021-02-27T11:27:02Z</time>
      </trkpt>
      <trkpt lat="45.2413" lon="6.0934">
        <ele>2333</ele>
        <time>2021-02-27T11:27:03Z</time>
      </trkpt>
      <trkpt lat="45.2413" lon="6.0934">
        <ele>2333.2</ele>
        <time>2021-02-27T11:27:04Z</time>
      </trkpt>
      <trkpt lat="45.2413" lon="6.0934">
        <ele>2333.6</ele>
        <time>2021-02-27T11:27:05Z</time>
      </trkpt>
      <trkpt lat="45.24132" lon="6.09342">
        <ele>2333.4</ele>
        <time>2021-02-27T11:27:06Z</time>
      </trkpt>
      <trkpt lat="45.24132" lon="6.09342">
        <ele>2333.6</ele>
        <time>2021-02-27T11:27:07Z</time>
      </trkpt>
      <trkpt lat="45.24132" lon="6.09342">
        <ele>2334.2</ele>
        <time>2021-02-27T11:27:08Z</time>
      </trkpt>
      <trkpt lat="45.24133" lon="6.09345">
        <ele>2334.4</ele>
        <time>2021-02-27T11:27:09Z</time>
      </trkpt>
      <trkpt lat="45.24133" lon="6.09345">
        <ele>2334.6</ele>
        <time>2021-02-27T11:27:10Z</time>
      </trkpt>
      <trkpt lat="45.24134" lon="6.09348">
        <ele>2334.8</ele>
        <time>2021-02-27T11:27:11Z</time>
      </trkpt>
      <trkpt lat="45.24134" lon="6.09348">
        <ele>2334.8</ele>
        <time>2021-02-27T11:27:12Z</time>
      </trkpt>
      <trkpt lat="45.24135" lon="6.09351">
        <ele>2334.8</ele>
        <time>2021-02-27T11:27:13Z</time>
      </trkpt>
      <trkpt lat="45.24135" lon="6.09351">
        <ele>2335.2</ele>
        <time>2021-02-27T11:27:14Z</time>
      </trkpt>
      <trkpt lat="45.24135" lon="6.09351">
        <ele>2335.2</ele>
        <time>2021-02-27T11:27:15Z</time>
      </trkpt>
      <trkpt lat="45.24136" lon="6.09354">
        <ele>2335.4</ele>
        <time>2021-02-27T11:27:16Z</time>
      </trkpt>
      <trkpt lat="45.24136" lon="6.09354">
        <ele>2336</ele>
        <time>2021-02-27T11:27:17Z</time>
      </trkpt>
      <trkpt lat="45.24136" lon="6.09354">
        <ele>2335.6</ele>
        <time>2021-02-27T11:27:18Z</time>
      </trkpt>
      <trkpt lat="45.24135" lon="6.09357">
        <ele>2335.8</ele>
        <time>2021-02-27T11:27:19Z</time>
      </trkpt>
      <trkpt lat="45.24135" lon="6.09357">
        <ele>2336</ele>
        <time>2021-02-27T11:27:20Z</time>
      </trkpt>
      <trkpt lat="45.24135" lon="6.09357">
        <ele>2336.2</ele>
        <time>2021-02-27T11:27:21Z</time>
      </trkpt>
      <trkpt lat="45.24135" lon="6.0936">
        <ele>2336.8</ele>
        <time>2021-02-27T11:27:22Z</time>
      </trkpt>
      <trkpt lat="45.24135" lon="6.0936">
        <ele>2337</ele>
        <time>2021-02-27T11:27:23Z</time>
      </trkpt>
      <trkpt lat="45.24135" lon="6.0936">
        <ele>2337.2</ele>
        <time>2021-02-27T11:27:24Z</time>
      </trkpt>
      <trkpt lat="45.24135" lon="6.09363">
        <ele>2337.6</ele>
        <time>2021-02-27T11:27:25Z</time>
      </trkpt>
      <trkpt lat="45.24135" lon="6.09363">
        <ele>2337.8</ele>
        <time>2021-02-27T11:27:26Z</time>
      </trkpt>
      <trkpt lat="45.24135" lon="6.09363">
        <ele>2338.2</ele>
        <time>2021-02-27T11:27:27Z</time>
      </trkpt>
      <trkpt lat="45.24135" lon="6.09366">
        <ele>2338.4</ele>
        <time>2021-02-27T11:27:28Z</time>
      </trkpt>
      <trkpt lat="45.24135" lon="6.09366">
        <ele>2338.4</ele>
        <time>2021-02-27T11:27:29Z</time>
      </trkpt>
      <trkpt lat="45.24135" lon="6.09366">
        <ele>2338.4</ele>
        <time>2021-02-27T11:27:30Z</time>
      </trkpt>
      <trkpt lat="45.24135" lon="6.09369">
        <ele>2338.6</ele>
        <time>2021-02-27T11:27:31Z</time>
      </trkpt>
      <trkpt lat="45.24135" lon="6.09369">
        <ele>2339.2</ele>
        <time>2021-02-27T11:27:32Z</time>
      </trkpt>
      <trkpt lat="45.24135" lon="6.09369">
        <ele>2339.6</ele>
        <time>2021-02-27T11:27:33Z</time>
      </trkpt>
      <trkpt lat="45.24135" lon="6.09372">
        <ele>2339.6</ele>
        <time>2021-02-27T11:27:34Z</time>
      </trkpt>
      <trkpt lat="45.24135" lon="6.09372">
        <ele>2339.4</ele>
        <time>2021-02-27T11:27:35Z</time>
      </trkpt>
      <trkpt lat="45.24135" lon="6.09372">
        <ele>2340</ele>
        <time>2021-02-27T11:27:36Z</time>
      </trkpt>
      <trkpt lat="45.24135" lon="6.09375">
        <ele>2340.2</ele>
        <time>2021-02-27T11:27:37Z</time>
      </trkpt>
      <trkpt lat="45.24135" lon="6.09375">
        <ele>2340.2</ele>
        <time>2021-02-27T11:27:38Z</time>
      </trkpt>
      <trkpt lat="45.24135" lon="6.09375">
        <ele>2340.8</ele>
        <time>2021-02-27T11:27:39Z</time>
      </trkpt>
      <trkpt lat="45.24134" lon="6.09378">
        <ele>2341.2</ele>
        <time>2021-02-27T11:27:40Z</time>
      </trkpt>
      <trkpt lat="45.24134" lon="6.09378">
        <ele>2341.6</ele>
        <time>2021-02-27T11:27:41Z</time>
      </trkpt>
      <trkpt lat="45.24134" lon="6.09378">
        <ele>2342.4</ele>
        <time>2021-02-27T11:27:42Z</time>
      </trkpt>
      <trkpt lat="45.24133" lon="6.09381">
        <ele>2342.6</ele>
        <time>2021-02-27T11:27:43Z</time>
      </trkpt>
      <trkpt lat="45.24133" lon="6.09381">
        <ele>2342.8</ele>
        <time>2021-02-27T11:27:44Z</time>
      </trkpt>
      <trkpt lat="45.24133" lon="6.09384">
        <ele>2343</ele>
        <time>2021-02-27T11:27:45Z</time>
      </trkpt>
      <trkpt lat="45.24133" lon="6.09384">
        <ele>2343.2</ele>
        <time>2021-02-27T11:27:46Z</time>
      </trkpt>
      <trkpt lat="45.24133" lon="6.09384">
        <ele>2343.6</ele>
        <time>2021-02-27T11:27:47Z</time>
      </trkpt>
      <trkpt lat="45.24132" lon="6.09386">
        <ele>2344.2</ele>
        <time>2021-02-27T11:27:48Z</time>
      </trkpt>
      <trkpt lat="45.24132" lon="6.09386">
        <ele>2344.6</ele>
        <time>2021-02-27T11:27:49Z</time>
      </trkpt>
      <trkpt lat="45.24132" lon="6.09386">
        <ele>2345</ele>
        <time>2021-02-27T11:27:50Z</time>
      </trkpt>
      <trkpt lat="45.24132" lon="6.09386">
        <ele>2345.8</ele>
        <time>2021-02-27T11:27:51Z</time>
      </trkpt>
      <trkpt lat="45.2413" lon="6.09389">
        <ele>2346</ele>
        <time>2021-02-27T11:27:52Z</time>
      </trkpt>
      <trkpt lat="45.2413" lon="6.09389">
        <ele>2346.2</ele>
        <time>2021-02-27T11:27:53Z</time>
      </trkpt>
      <trkpt lat="45.2413" lon="6.09389">
        <ele>2346.6</ele>
        <time>2021-02-27T11:27:54Z</time>
      </trkpt>
      <trkpt lat="45.24129" lon="6.09391">
        <ele>2346.4</ele>
        <time>2021-02-27T11:27:55Z</time>
      </trkpt>
      <trkpt lat="45.24129" lon="6.09391">
        <ele>2346.4</ele>
        <time>2021-02-27T11:27:56Z</time>
      </trkpt>
      <trkpt lat="45.24129" lon="6.09391">
        <ele>2346.8</ele>
        <time>2021-02-27T11:27:57Z</time>
      </trkpt>
      <trkpt lat="45.24129" lon="6.09391">
        <ele>2347</ele>
        <time>2021-02-27T11:27:58Z</time>
      </trkpt>
      <trkpt lat="45.2413" lon="6.09393">
        <ele>2347.2</ele>
        <time>2021-02-27T11:27:59Z</time>
      </trkpt>
      <trkpt lat="45.2413" lon="6.09393">
        <ele>2347.8</ele>
        <time>2021-02-27T11:28:00Z</time>
      </trkpt>
      <trkpt lat="45.2413" lon="6.09393">
        <ele>2348</ele>
        <time>2021-02-27T11:28:01Z</time>
      </trkpt>
      <trkpt lat="45.24133" lon="6.09395">
        <ele>2348.8</ele>
        <time>2021-02-27T11:28:02Z</time>
      </trkpt>
      <trkpt lat="45.24133" lon="6.09395">
        <ele>2350</ele>
        <time>2021-02-27T11:28:03Z</time>
      </trkpt>
      <trkpt lat="45.24134" lon="6.09396">
        <ele>2350</ele>
        <time>2021-02-27T11:28:04Z</time>
      </trkpt>
      <trkpt lat="45.24134" lon="6.09396">
        <ele>2350.2</ele>
        <time>2021-02-27T11:28:05Z</time>
      </trkpt>
      <trkpt lat="45.24136" lon="6.09397">
        <ele>2350.4</ele>
        <time>2021-02-27T11:28:06Z</time>
      </trkpt>
      <trkpt lat="45.24136" lon="6.09397">
        <ele>2350.4</ele>
        <time>2021-02-27T11:28:07Z</time>
      </trkpt>
      <trkpt lat="45.24136" lon="6.09397">
        <ele>2350.8</ele>
        <time>2021-02-27T11:28:08Z</time>
      </trkpt>
      <trkpt lat="45.24138" lon="6.09396">
        <ele>2350.8</ele>
        <time>2021-02-27T11:28:09Z</time>
      </trkpt>
      <trkpt lat="45.24138" lon="6.09396">
        <ele>2350.6</ele>
        <time>2021-02-27T11:28:10Z</time>
      </trkpt>
      <trkpt lat="45.24138" lon="6.09396">
        <ele>2350.8</ele>
        <time>2021-02-27T11:28:11Z</time>
      </trkpt>
      <trkpt lat="45.2414" lon="6.09395">
        <ele>2351.6</ele>
        <time>2021-02-27T11:28:12Z</time>
      </trkpt>
      <trkpt lat="45.2414" lon="6.09395">
        <ele>2351.8</ele>
        <time>2021-02-27T11:28:13Z</time>
      </trkpt>
      <trkpt lat="45.2414" lon="6.09395">
        <ele>2352.2</ele>
        <time>2021-02-27T11:28:14Z</time>
      </trkpt>
      <trkpt lat="45.24142" lon="6.09393">
        <ele>2352.6</ele>
        <time>2021-02-27T11:28:15Z</time>
      </trkpt>
      <trkpt lat="45.24142" lon="6.09393">
        <ele>2352.6</ele>
        <time>2021-02-27T11:28:16Z</time>
      </trkpt>
      <trkpt lat="45.24144" lon="6.09392">
        <ele>2352.8</ele>
        <time>2021-02-27T11:28:17Z</time>
      </trkpt>
      <trkpt lat="45.24144" lon="6.09392">
        <ele>2352.8</ele>
        <time>2021-02-27T11:28:18Z</time>
      </trkpt>
      <trkpt lat="45.24144" lon="6.09392">
        <ele>2353</ele>
        <time>2021-02-27T11:28:19Z</time>
      </trkpt>
      <trkpt lat="45.24146" lon="6.09392">
        <ele>2353</ele>
        <time>2021-02-27T11:28:20Z</time>
      </trkpt>
      <trkpt lat="45.24146" lon="6.09392">
        <ele>2353.8</ele>
        <time>2021-02-27T11:28:21Z</time>
      </trkpt>
      <trkpt lat="45.24146" lon="6.09392">
        <ele>2354.4</ele>
        <time>2021-02-27T11:28:22Z</time>
      </trkpt>
      <trkpt lat="45.24149" lon="6.09392">
        <ele>2354.2</ele>
        <time>2021-02-27T11:28:23Z</time>
      </trkpt>
      <trkpt lat="45.24149" lon="6.09392">
        <ele>2354.4</ele>
        <time>2021-02-27T11:28:24Z</time>
      </trkpt>
      <trkpt lat="45.24149" lon="6.09392">
        <ele>2354.2</ele>
        <time>2021-02-27T11:28:25Z</time>
      </trkpt>
      <trkpt lat="45.24151" lon="6.09392">
        <ele>2354.2</ele>
        <time>2021-02-27T11:28:26Z</time>
      </trkpt>
      <trkpt lat="45.24151" lon="6.09392">
        <ele>2354.4</ele>
        <time>2021-02-27T11:28:27Z</time>
      </trkpt>
      <trkpt lat="45.24151" lon="6.09392">
        <ele>2354</ele>
        <time>2021-02-27T11:28:28Z</time>
      </trkpt>
      <trkpt lat="45.24154" lon="6.09391">
        <ele>2354.2</ele>
        <time>2021-02-27T11:28:29Z</time>
      </trkpt>
      <trkpt lat="45.24154" lon="6.09391">
        <ele>2354.8</ele>
        <time>2021-02-27T11:28:30Z</time>
      </trkpt>
      <trkpt lat="45.24154" lon="6.09391">
        <ele>2354.8</ele>
        <time>2021-02-27T11:28:31Z</time>
      </trkpt>
      <trkpt lat="45.24156" lon="6.09388">
        <ele>2355</ele>
        <time>2021-02-27T11:28:32Z</time>
      </trkpt>
      <trkpt lat="45.24156" lon="6.09388">
        <ele>2355.2</ele>
        <time>2021-02-27T11:28:33Z</time>
      </trkpt>
      <trkpt lat="45.24156" lon="6.09388">
        <ele>2355.4</ele>
        <time>2021-02-27T11:28:34Z</time>
      </trkpt>
      <trkpt lat="45.24158" lon="6.09387">
        <ele>2355.6</ele>
        <time>2021-02-27T11:28:35Z</time>
      </trkpt>
      <trkpt lat="45.24158" lon="6.09387">
        <ele>2355.8</ele>
        <time>2021-02-27T11:28:36Z</time>
      </trkpt>
      <trkpt lat="45.24158" lon="6.09387">
        <ele>2356.2</ele>
        <time>2021-02-27T11:28:37Z</time>
      </trkpt>
      <trkpt lat="45.24161" lon="6.09386">
        <ele>2356.2</ele>
        <time>2021-02-27T11:28:38Z</time>
      </trkpt>
      <trkpt lat="45.24161" lon="6.09386">
        <ele>2357</ele>
        <time>2021-02-27T11:28:39Z</time>
      </trkpt>
      <trkpt lat="45.24161" lon="6.09386">
        <ele>2357.2</ele>
        <time>2021-02-27T11:28:40Z</time>
      </trkpt>
      <trkpt lat="45.24163" lon="6.09387">
        <ele>2357.2</ele>
        <time>2021-02-27T11:28:41Z</time>
      </trkpt>
      <trkpt lat="45.24163" lon="6.09387">
        <ele>2357.6</ele>
        <time>2021-02-27T11:28:42Z</time>
      </trkpt>
      <trkpt lat="45.24163" lon="6.09387">
        <ele>2357.8</ele>
        <time>2021-02-27T11:28:43Z</time>
      </trkpt>
      <trkpt lat="45.24165" lon="6.09389">
        <ele>2358.4</ele>
        <time>2021-02-27T11:28:44Z</time>
      </trkpt>
      <trkpt lat="45.24165" lon="6.09389">
        <ele>2358.4</ele>
        <time>2021-02-27T11:28:45Z</time>
      </trkpt>
      <trkpt lat="45.24167" lon="6.09391">
        <ele>2358.4</ele>
        <time>2021-02-27T11:28:46Z</time>
      </trkpt>
      <trkpt lat="45.24167" lon="6.09391">
        <ele>2358.6</ele>
        <time>2021-02-27T11:28:47Z</time>
      </trkpt>
      <trkpt lat="45.24168" lon="6.09393">
        <ele>2358.4</ele>
        <time>2021-02-27T11:28:48Z</time>
      </trkpt>
      <trkpt lat="45.24168" lon="6.09393">
        <ele>2358.6</ele>
        <time>2021-02-27T11:28:49Z</time>
      </trkpt>
      <trkpt lat="45.2417" lon="6.09395">
        <ele>2358.8</ele>
        <time>2021-02-27T11:28:50Z</time>
      </trkpt>
      <trkpt lat="45.2417" lon="6.09395">
        <ele>2359</ele>
        <time>2021-02-27T11:28:51Z</time>
      </trkpt>
      <trkpt lat="45.24171" lon="6.09397">
        <ele>2359.2</ele>
        <time>2021-02-27T11:28:52Z</time>
      </trkpt>
      <trkpt lat="45.24171" lon="6.09397">
        <ele>2359.4</ele>
        <time>2021-02-27T11:28:53Z</time>
      </trkpt>
      <trkpt lat="45.24172" lon="6.09401">
        <ele>2359.8</ele>
        <time>2021-02-27T11:28:54Z</time>
      </trkpt>
      <trkpt lat="45.24172" lon="6.09401">
        <ele>2360</ele>
        <time>2021-02-27T11:28:55Z</time>
      </trkpt>
      <trkpt lat="45.24173" lon="6.09403">
        <ele>2360</ele>
        <time>2021-02-27T11:28:56Z</time>
      </trkpt>
      <trkpt lat="45.24173" lon="6.09403">
        <ele>2360.4</ele>
        <time>2021-02-27T11:28:57Z</time>
      </trkpt>
      <trkpt lat="45.24174" lon="6.09407">
        <ele>2360.6</ele>
        <time>2021-02-27T11:28:58Z</time>
      </trkpt>
      <trkpt lat="45.24174" lon="6.09407">
        <ele>2361</ele>
        <time>2021-02-27T11:28:59Z</time>
      </trkpt>
      <trkpt lat="45.24174" lon="6.09407">
        <ele>2361</ele>
        <time>2021-02-27T11:29:00Z</time>
      </trkpt>
      <trkpt lat="45.24175" lon="6.0941">
        <ele>2361.2</ele>
        <time>2021-02-27T11:29:01Z</time>
      </trkpt>
      <trkpt lat="45.24175" lon="6.0941">
        <ele>2361.4</ele>
        <time>2021-02-27T11:29:02Z</time>
      </trkpt>
      <trkpt lat="45.24175" lon="6.0941">
        <ele>2361.6</ele>
        <time>2021-02-27T11:29:03Z</time>
      </trkpt>
      <trkpt lat="45.24176" lon="6.09412">
        <ele>2361.8</ele>
        <time>2021-02-27T11:29:04Z</time>
      </trkpt>
      <trkpt lat="45.24176" lon="6.09412">
        <ele>2362</ele>
        <time>2021-02-27T11:29:05Z</time>
      </trkpt>
      <trkpt lat="45.24176" lon="6.09412">
        <ele>2362</ele>
        <time>2021-02-27T11:29:06Z</time>
      </trkpt>
      <trkpt lat="45.24179" lon="6.09411">
        <ele>2362</ele>
        <time>2021-02-27T11:29:07Z</time>
      </trkpt>
      <trkpt lat="45.24179" lon="6.09411">
        <ele>2362.4</ele>
        <time>2021-02-27T11:29:08Z</time>
      </trkpt>
      <trkpt lat="45.24181" lon="6.0941">
        <ele>2362.6</ele>
        <time>2021-02-27T11:29:09Z</time>
      </trkpt>
      <trkpt lat="45.24181" lon="6.0941">
        <ele>2363</ele>
        <time>2021-02-27T11:29:10Z</time>
      </trkpt>
      <trkpt lat="45.24183" lon="6.09409">
        <ele>2363.2</ele>
        <time>2021-02-27T11:29:11Z</time>
      </trkpt>
      <trkpt lat="45.24183" lon="6.09409">
        <ele>2363.4</ele>
        <time>2021-02-27T11:29:12Z</time>
      </trkpt>
      <trkpt lat="45.24183" lon="6.09409">
        <ele>2363.8</ele>
        <time>2021-02-27T11:29:13Z</time>
      </trkpt>
      <trkpt lat="45.24185" lon="6.09406">
        <ele>2363.8</ele>
        <time>2021-02-27T11:29:14Z</time>
      </trkpt>
      <trkpt lat="45.24185" lon="6.09406">
        <ele>2364</ele>
        <time>2021-02-27T11:29:15Z</time>
      </trkpt>
      <trkpt lat="45.24186" lon="6.09404">
        <ele>2364.4</ele>
        <time>2021-02-27T11:29:16Z</time>
      </trkpt>
      <trkpt lat="45.24186" lon="6.09404">
        <ele>2364.2</ele>
        <time>2021-02-27T11:29:17Z</time>
      </trkpt>
      <trkpt lat="45.24188" lon="6.09403">
        <ele>2364.4</ele>
        <time>2021-02-27T11:29:18Z</time>
      </trkpt>
      <trkpt lat="45.24188" lon="6.09403">
        <ele>2364.4</ele>
        <time>2021-02-27T11:29:19Z</time>
      </trkpt>
      <trkpt lat="45.24188" lon="6.09403">
        <ele>2364.4</ele>
        <time>2021-02-27T11:29:20Z</time>
      </trkpt>
      <trkpt lat="45.2419" lon="6.09401">
        <ele>2364.6</ele>
        <time>2021-02-27T11:29:21Z</time>
      </trkpt>
      <trkpt lat="45.2419" lon="6.09401">
        <ele>2364.6</ele>
        <time>2021-02-27T11:29:22Z</time>
      </trkpt>
      <trkpt lat="45.2419" lon="6.09401">
        <ele>2365</ele>
        <time>2021-02-27T11:29:23Z</time>
      </trkpt>
      <trkpt lat="45.2419" lon="6.09401">
        <ele>2365.2</ele>
        <time>2021-02-27T11:29:24Z</time>
      </trkpt>
      <trkpt lat="45.2419" lon="6.09401">
        <ele>2365.4</ele>
        <time>2021-02-27T11:29:25Z</time>
      </trkpt>
      <trkpt lat="45.24191" lon="6.09399">
        <ele>2365.4</ele>
        <time>2021-02-27T11:29:26Z</time>
      </trkpt>
      <trkpt lat="45.24191" lon="6.09399">
        <ele>2365.6</ele>
        <time>2021-02-27T11:29:27Z</time>
      </trkpt>
      <trkpt lat="45.24191" lon="6.09399">
        <ele>2365.4</ele>
        <time>2021-02-27T11:29:28Z</time>
      </trkpt>
      <trkpt lat="45.24193" lon="6.09398">
        <ele>2365.6</ele>
        <time>2021-02-27T11:29:29Z</time>
      </trkpt>
      <trkpt lat="45.24193" lon="6.09398">
        <ele>2365.4</ele>
        <time>2021-02-27T11:29:30Z</time>
      </trkpt>
      <trkpt lat="45.24193" lon="6.09398">
        <ele>2366</ele>
        <time>2021-02-27T11:29:31Z</time>
      </trkpt>
      <trkpt lat="45.24193" lon="6.09401">
        <ele>2366</ele>
        <time>2021-02-27T11:29:32Z</time>
      </trkpt>
      <trkpt lat="45.24193" lon="6.09401">
        <ele>2366.2</ele>
        <time>2021-02-27T11:29:33Z</time>
      </trkpt>
      <trkpt lat="45.24193" lon="6.09401">
        <ele>2366.2</ele>
        <time>2021-02-27T11:29:34Z</time>
      </trkpt>
      <trkpt lat="45.24193" lon="6.09404">
        <ele>2366.4</ele>
        <time>2021-02-27T11:29:35Z</time>
      </trkpt>
      <trkpt lat="45.24193" lon="6.09404">
        <ele>2366.6</ele>
        <time>2021-02-27T11:29:36Z</time>
      </trkpt>
      <trkpt lat="45.24193" lon="6.09404">
        <ele>2366.8</ele>
        <time>2021-02-27T11:29:37Z</time>
      </trkpt>
      <trkpt lat="45.24194" lon="6.09408">
        <ele>2366.8</ele>
        <time>2021-02-27T11:29:38Z</time>
      </trkpt>
      <trkpt lat="45.24194" lon="6.09408">
        <ele>2366.6</ele>
        <time>2021-02-27T11:29:39Z</time>
      </trkpt>
      <trkpt lat="45.24194" lon="6.09408">
        <ele>2366.8</ele>
        <time>2021-02-27T11:29:40Z</time>
      </trkpt>
      <trkpt lat="45.24194" lon="6.09412">
        <ele>2367</ele>
        <time>2021-02-27T11:29:41Z</time>
      </trkpt>
      <trkpt lat="45.24194" lon="6.09412">
        <ele>2367.2</ele>
        <time>2021-02-27T11:29:42Z</time>
      </trkpt>
      <trkpt lat="45.24194" lon="6.09414">
        <ele>2367.6</ele>
        <time>2021-02-27T11:29:43Z</time>
      </trkpt>
      <trkpt lat="45.24194" lon="6.09414">
        <ele>2367.8</ele>
        <time>2021-02-27T11:29:44Z</time>
      </trkpt>
      <trkpt lat="45.24194" lon="6.09414">
        <ele>2367.8</ele>
        <time>2021-02-27T11:29:45Z</time>
      </trkpt>
      <trkpt lat="45.24194" lon="6.09418">
        <ele>2368</ele>
        <time>2021-02-27T11:29:46Z</time>
      </trkpt>
      <trkpt lat="45.24194" lon="6.09418">
        <ele>2368.2</ele>
        <time>2021-02-27T11:29:47Z</time>
      </trkpt>
      <trkpt lat="45.24194" lon="6.09418">
        <ele>2368.6</ele>
        <time>2021-02-27T11:29:48Z</time>
      </trkpt>
      <trkpt lat="45.24194" lon="6.09421">
        <ele>2368.8</ele>
        <time>2021-02-27T11:29:49Z</time>
      </trkpt>
      <trkpt lat="45.24194" lon="6.09421">
        <ele>2369</ele>
        <time>2021-02-27T11:29:50Z</time>
      </trkpt>
      <trkpt lat="45.24194" lon="6.09421">
        <ele>2369.4</ele>
        <time>2021-02-27T11:29:51Z</time>
      </trkpt>
      <trkpt lat="45.24195" lon="6.09425">
        <ele>2369.6</ele>
        <time>2021-02-27T11:29:52Z</time>
      </trkpt>
      <trkpt lat="45.24195" lon="6.09425">
        <ele>2370</ele>
        <time>2021-02-27T11:29:53Z</time>
      </trkpt>
      <trkpt lat="45.24195" lon="6.09425">
        <ele>2370.2</ele>
        <time>2021-02-27T11:29:54Z</time>
      </trkpt>
      <trkpt lat="45.24196" lon="6.09427">
        <ele>2370.4</ele>
        <time>2021-02-27T11:29:55Z</time>
      </trkpt>
      <trkpt lat="45.24196" lon="6.09427">
        <ele>2370.6</ele>
        <time>2021-02-27T11:29:56Z</time>
      </trkpt>
      <trkpt lat="45.24196" lon="6.09427">
        <ele>2370.6</ele>
        <time>2021-02-27T11:29:57Z</time>
      </trkpt>
      <trkpt lat="45.24196" lon="6.0943">
        <ele>2371</ele>
        <time>2021-02-27T11:29:58Z</time>
      </trkpt>
      <trkpt lat="45.24196" lon="6.0943">
        <ele>2371.4</ele>
        <time>2021-02-27T11:29:59Z</time>
      </trkpt>
      <trkpt lat="45.24196" lon="6.0943">
        <ele>2371.8</ele>
        <time>2021-02-27T11:30:00Z</time>
      </trkpt>
      <trkpt lat="45.24198" lon="6.0943">
        <ele>2372</ele>
        <time>2021-02-27T11:30:01Z</time>
      </trkpt>
      <trkpt lat="45.24198" lon="6.0943">
        <ele>2372.4</ele>
        <time>2021-02-27T11:30:02Z</time>
      </trkpt>
      <trkpt lat="45.24198" lon="6.0943">
        <ele>2372.8</ele>
        <time>2021-02-27T11:30:03Z</time>
      </trkpt>
      <trkpt lat="45.242" lon="6.09429">
        <ele>2373</ele>
        <time>2021-02-27T11:30:04Z</time>
      </trkpt>
      <trkpt lat="45.242" lon="6.09429">
        <ele>2373.2</ele>
        <time>2021-02-27T11:30:05Z</time>
      </trkpt>
      <trkpt lat="45.242" lon="6.09429">
        <ele>2373.8</ele>
        <time>2021-02-27T11:30:06Z</time>
      </trkpt>
      <trkpt lat="45.242" lon="6.09429">
        <ele>2373.6</ele>
        <time>2021-02-27T11:30:07Z</time>
      </trkpt>
      <trkpt lat="45.24203" lon="6.09429">
        <ele>2374</ele>
        <time>2021-02-27T11:30:08Z</time>
      </trkpt>
      <trkpt lat="45.24203" lon="6.09429">
        <ele>2374</ele>
        <time>2021-02-27T11:30:09Z</time>
      </trkpt>
      <trkpt lat="45.24203" lon="6.09429">
        <ele>2374.2</ele>
        <time>2021-02-27T11:30:10Z</time>
      </trkpt>
      <trkpt lat="45.24203" lon="6.09429">
        <ele>2374.4</ele>
        <time>2021-02-27T11:30:11Z</time>
      </trkpt>
      <trkpt lat="45.24205" lon="6.09428">
        <ele>2374.6</ele>
        <time>2021-02-27T11:30:12Z</time>
      </trkpt>
      <trkpt lat="45.24205" lon="6.09428">
        <ele>2374.8</ele>
        <time>2021-02-27T11:30:13Z</time>
      </trkpt>
      <trkpt lat="45.24205" lon="6.09428">
        <ele>2375.2</ele>
        <time>2021-02-27T11:30:14Z</time>
      </trkpt>
      <trkpt lat="45.24205" lon="6.09428">
        <ele>2375.4</ele>
        <time>2021-02-27T11:30:15Z</time>
      </trkpt>
      <trkpt lat="45.24207" lon="6.09429">
        <ele>2375.6</ele>
        <time>2021-02-27T11:30:16Z</time>
      </trkpt>
      <trkpt lat="45.24207" lon="6.09429">
        <ele>2375.8</ele>
        <time>2021-02-27T11:30:17Z</time>
      </trkpt>
      <trkpt lat="45.24207" lon="6.09429">
        <ele>2376</ele>
        <time>2021-02-27T11:30:18Z</time>
      </trkpt>
      <trkpt lat="45.24207" lon="6.09429">
        <ele>2376.2</ele>
        <time>2021-02-27T11:30:19Z</time>
      </trkpt>
      <trkpt lat="45.24208" lon="6.09432">
        <ele>2376.2</ele>
        <time>2021-02-27T11:30:20Z</time>
      </trkpt>
      <trkpt lat="45.24208" lon="6.09432">
        <ele>2376.4</ele>
        <time>2021-02-27T11:30:21Z</time>
      </trkpt>
      <trkpt lat="45.24208" lon="6.09432">
        <ele>2376.4</ele>
        <time>2021-02-27T11:30:22Z</time>
      </trkpt>
      <trkpt lat="45.2421" lon="6.09434">
        <ele>2376.6</ele>
        <time>2021-02-27T11:30:23Z</time>
      </trkpt>
      <trkpt lat="45.2421" lon="6.09434">
        <ele>2376.8</ele>
        <time>2021-02-27T11:30:24Z</time>
      </trkpt>
      <trkpt lat="45.2421" lon="6.09434">
        <ele>2376.8</ele>
        <time>2021-02-27T11:30:25Z</time>
      </trkpt>
      <trkpt lat="45.24211" lon="6.09437">
        <ele>2376.8</ele>
        <time>2021-02-27T11:30:26Z</time>
      </trkpt>
      <trkpt lat="45.24211" lon="6.09437">
        <ele>2377.2</ele>
        <time>2021-02-27T11:30:27Z</time>
      </trkpt>
      <trkpt lat="45.24211" lon="6.09437">
        <ele>2377.2</ele>
        <time>2021-02-27T11:30:28Z</time>
      </trkpt>
      <trkpt lat="45.24213" lon="6.09438">
        <ele>2377.2</ele>
        <time>2021-02-27T11:30:29Z</time>
      </trkpt>
      <trkpt lat="45.24213" lon="6.09438">
        <ele>2377.4</ele>
        <time>2021-02-27T11:30:30Z</time>
      </trkpt>
      <trkpt lat="45.24213" lon="6.09438">
        <ele>2377.4</ele>
        <time>2021-02-27T11:30:31Z</time>
      </trkpt>
      <trkpt lat="45.24214" lon="6.0944">
        <ele>2377.8</ele>
        <time>2021-02-27T11:30:32Z</time>
      </trkpt>
      <trkpt lat="45.24214" lon="6.0944">
        <ele>2377.8</ele>
        <time>2021-02-27T11:30:33Z</time>
      </trkpt>
      <trkpt lat="45.24214" lon="6.0944">
        <ele>2378</ele>
        <time>2021-02-27T11:30:34Z</time>
      </trkpt>
      <trkpt lat="45.24216" lon="6.09441">
        <ele>2377.8</ele>
        <time>2021-02-27T11:30:35Z</time>
      </trkpt>
      <trkpt lat="45.24216" lon="6.09441">
        <ele>2377.8</ele>
        <time>2021-02-27T11:30:36Z</time>
      </trkpt>
      <trkpt lat="45.24216" lon="6.09441">
        <ele>2378</ele>
        <time>2021-02-27T11:30:37Z</time>
      </trkpt>
      <trkpt lat="45.24218" lon="6.09443">
        <ele>2378.4</ele>
        <time>2021-02-27T11:30:38Z</time>
      </trkpt>
      <trkpt lat="45.24218" lon="6.09443">
        <ele>2378.4</ele>
        <time>2021-02-27T11:30:39Z</time>
      </trkpt>
      <trkpt lat="45.24218" lon="6.09443">
        <ele>2378.8</ele>
        <time>2021-02-27T11:30:40Z</time>
      </trkpt>
      <trkpt lat="45.24219" lon="6.09445">
        <ele>2378.8</ele>
        <time>2021-02-27T11:30:41Z</time>
      </trkpt>
      <trkpt lat="45.24219" lon="6.09445">
        <ele>2378.8</ele>
        <time>2021-02-27T11:30:42Z</time>
      </trkpt>
      <trkpt lat="45.24219" lon="6.09445">
        <ele>2379.2</ele>
        <time>2021-02-27T11:30:43Z</time>
      </trkpt>
      <trkpt lat="45.24221" lon="6.09446">
        <ele>2379.2</ele>
        <time>2021-02-27T11:30:44Z</time>
      </trkpt>
      <trkpt lat="45.24221" lon="6.09446">
        <ele>2379.4</ele>
        <time>2021-02-27T11:30:45Z</time>
      </trkpt>
      <trkpt lat="45.24221" lon="6.09446">
        <ele>2379.6</ele>
        <time>2021-02-27T11:30:46Z</time>
      </trkpt>
      <trkpt lat="45.24223" lon="6.09449">
        <ele>2380</ele>
        <time>2021-02-27T11:30:47Z</time>
      </trkpt>
      <trkpt lat="45.24223" lon="6.09449">
        <ele>2380.4</ele>
        <time>2021-02-27T11:30:48Z</time>
      </trkpt>
      <trkpt lat="45.24223" lon="6.09449">
        <ele>2380.6</ele>
        <time>2021-02-27T11:30:49Z</time>
      </trkpt>
      <trkpt lat="45.24224" lon="6.09452">
        <ele>2380.8</ele>
        <time>2021-02-27T11:30:50Z</time>
      </trkpt>
      <trkpt lat="45.24224" lon="6.09452">
        <ele>2381</ele>
        <time>2021-02-27T11:30:51Z</time>
      </trkpt>
      <trkpt lat="45.24225" lon="6.09455">
        <ele>2380.8</ele>
        <time>2021-02-27T11:30:52Z</time>
      </trkpt>
      <trkpt lat="45.24225" lon="6.09455">
        <ele>2381.4</ele>
        <time>2021-02-27T11:30:53Z</time>
      </trkpt>
      <trkpt lat="45.24225" lon="6.09455">
        <ele>2381.6</ele>
        <time>2021-02-27T11:30:54Z</time>
      </trkpt>
      <trkpt lat="45.24224" lon="6.09458">
        <ele>2381.6</ele>
        <time>2021-02-27T11:30:55Z</time>
      </trkpt>
      <trkpt lat="45.24224" lon="6.09458">
        <ele>2382</ele>
        <time>2021-02-27T11:30:56Z</time>
      </trkpt>
      <trkpt lat="45.24224" lon="6.09458">
        <ele>2382</ele>
        <time>2021-02-27T11:30:57Z</time>
      </trkpt>
      <trkpt lat="45.24225" lon="6.09461">
        <ele>2382</ele>
        <time>2021-02-27T11:30:58Z</time>
      </trkpt>
      <trkpt lat="45.24225" lon="6.09461">
        <ele>2382.4</ele>
        <time>2021-02-27T11:30:59Z</time>
      </trkpt>
      <trkpt lat="45.24225" lon="6.09461">
        <ele>2382.6</ele>
        <time>2021-02-27T11:31:00Z</time>
      </trkpt>
      <trkpt lat="45.24225" lon="6.09464">
        <ele>2382.4</ele>
        <time>2021-02-27T11:31:01Z</time>
      </trkpt>
      <trkpt lat="45.24225" lon="6.09464">
        <ele>2382.8</ele>
        <time>2021-02-27T11:31:02Z</time>
      </trkpt>
      <trkpt lat="45.24225" lon="6.09464">
        <ele>2382.8</ele>
        <time>2021-02-27T11:31:03Z</time>
      </trkpt>
      <trkpt lat="45.24224" lon="6.09468">
        <ele>2382.4</ele>
        <time>2021-02-27T11:31:04Z</time>
      </trkpt>
      <trkpt lat="45.24224" lon="6.09468">
        <ele>2382.8</ele>
        <time>2021-02-27T11:31:05Z</time>
      </trkpt>
      <trkpt lat="45.24224" lon="6.09468">
        <ele>2383</ele>
        <time>2021-02-27T11:31:06Z</time>
      </trkpt>
      <trkpt lat="45.24223" lon="6.09471">
        <ele>2383</ele>
        <time>2021-02-27T11:31:07Z</time>
      </trkpt>
      <trkpt lat="45.24223" lon="6.09471">
        <ele>2383.4</ele>
        <time>2021-02-27T11:31:08Z</time>
      </trkpt>
      <trkpt lat="45.24223" lon="6.09471">
        <ele>2383.8</ele>
        <time>2021-02-27T11:31:09Z</time>
      </trkpt>
      <trkpt lat="45.24223" lon="6.09471">
        <ele>2383.8</ele>
        <time>2021-02-27T11:31:10Z</time>
      </trkpt>
      <trkpt lat="45.24222" lon="6.09473">
        <ele>2384</ele>
        <time>2021-02-27T11:31:11Z</time>
      </trkpt>
      <trkpt lat="45.24222" lon="6.09473">
        <ele>2384.4</ele>
        <time>2021-02-27T11:31:12Z</time>
      </trkpt>
      <trkpt lat="45.24222" lon="6.09473">
        <ele>2384.4</ele>
        <time>2021-02-27T11:31:13Z</time>
      </trkpt>
      <trkpt lat="45.24222" lon="6.09477">
        <ele>2384.4</ele>
        <time>2021-02-27T11:31:14Z</time>
      </trkpt>
      <trkpt lat="45.24222" lon="6.09477">
        <ele>2384.6</ele>
        <time>2021-02-27T11:31:15Z</time>
      </trkpt>
      <trkpt lat="45.24222" lon="6.09477">
        <ele>2384.6</ele>
        <time>2021-02-27T11:31:16Z</time>
      </trkpt>
      <trkpt lat="45.24222" lon="6.09477">
        <ele>2384.6</ele>
        <time>2021-02-27T11:31:17Z</time>
      </trkpt>
      <trkpt lat="45.24222" lon="6.0948">
        <ele>2384.8</ele>
        <time>2021-02-27T11:31:18Z</time>
      </trkpt>
      <trkpt lat="45.24222" lon="6.0948">
        <ele>2384.8</ele>
        <time>2021-02-27T11:31:19Z</time>
      </trkpt>
      <trkpt lat="45.24222" lon="6.0948">
        <ele>2385.2</ele>
        <time>2021-02-27T11:31:20Z</time>
      </trkpt>
      <trkpt lat="45.24222" lon="6.09482">
        <ele>2385</ele>
        <time>2021-02-27T11:31:21Z</time>
      </trkpt>
      <trkpt lat="45.24222" lon="6.09482">
        <ele>2385.4</ele>
        <time>2021-02-27T11:31:22Z</time>
      </trkpt>
      <trkpt lat="45.24222" lon="6.09482">
        <ele>2385.8</ele>
        <time>2021-02-27T11:31:23Z</time>
      </trkpt>
      <trkpt lat="45.24221" lon="6.09485">
        <ele>2386</ele>
        <time>2021-02-27T11:31:24Z</time>
      </trkpt>
      <trkpt lat="45.24221" lon="6.09485">
        <ele>2386.2</ele>
        <time>2021-02-27T11:31:25Z</time>
      </trkpt>
      <trkpt lat="45.24221" lon="6.09485">
        <ele>2386.2</ele>
        <time>2021-02-27T11:31:26Z</time>
      </trkpt>
      <trkpt lat="45.2422" lon="6.09488">
        <ele>2386.6</ele>
        <time>2021-02-27T11:31:27Z</time>
      </trkpt>
      <trkpt lat="45.2422" lon="6.09488">
        <ele>2386.8</ele>
        <time>2021-02-27T11:31:28Z</time>
      </trkpt>
      <trkpt lat="45.2422" lon="6.09488">
        <ele>2386.8</ele>
        <time>2021-02-27T11:31:29Z</time>
      </trkpt>
      <trkpt lat="45.2422" lon="6.09491">
        <ele>2386.8</ele>
        <time>2021-02-27T11:31:30Z</time>
      </trkpt>
      <trkpt lat="45.2422" lon="6.09491">
        <ele>2387.2</ele>
        <time>2021-02-27T11:31:31Z</time>
      </trkpt>
      <trkpt lat="45.2422" lon="6.09491">
        <ele>2387.4</ele>
        <time>2021-02-27T11:31:32Z</time>
      </trkpt>
      <trkpt lat="45.2422" lon="6.09491">
        <ele>2387.4</ele>
        <time>2021-02-27T11:31:33Z</time>
      </trkpt>
      <trkpt lat="45.2422" lon="6.09493">
        <ele>2387.6</ele>
        <time>2021-02-27T11:31:34Z</time>
      </trkpt>
      <trkpt lat="45.2422" lon="6.09493">
        <ele>2388</ele>
        <time>2021-02-27T11:31:35Z</time>
      </trkpt>
      <trkpt lat="45.2422" lon="6.09496">
        <ele>2388</ele>
        <time>2021-02-27T11:31:36Z</time>
      </trkpt>
      <trkpt lat="45.2422" lon="6.09496">
        <ele>2388</ele>
        <time>2021-02-27T11:31:37Z</time>
      </trkpt>
      <trkpt lat="45.2422" lon="6.09496">
        <ele>2388.2</ele>
        <time>2021-02-27T11:31:38Z</time>
      </trkpt>
      <trkpt lat="45.24219" lon="6.09499">
        <ele>2388.4</ele>
        <time>2021-02-27T11:31:39Z</time>
      </trkpt>
      <trkpt lat="45.24219" lon="6.09499">
        <ele>2388.8</ele>
        <time>2021-02-27T11:31:40Z</time>
      </trkpt>
      <trkpt lat="45.24219" lon="6.09499">
        <ele>2388.8</ele>
        <time>2021-02-27T11:31:41Z</time>
      </trkpt>
      <trkpt lat="45.24219" lon="6.09501">
        <ele>2389</ele>
        <time>2021-02-27T11:31:42Z</time>
      </trkpt>
      <trkpt lat="45.24219" lon="6.09501">
        <ele>2389.2</ele>
        <time>2021-02-27T11:31:43Z</time>
      </trkpt>
      <trkpt lat="45.24219" lon="6.09501">
        <ele>2389.6</ele>
        <time>2021-02-27T11:31:44Z</time>
      </trkpt>
      <trkpt lat="45.24221" lon="6.09504">
        <ele>2389.8</ele>
        <time>2021-02-27T11:31:45Z</time>
      </trkpt>
      <trkpt lat="45.24221" lon="6.09504">
        <ele>2390.2</ele>
        <time>2021-02-27T11:31:46Z</time>
      </trkpt>
      <trkpt lat="45.24221" lon="6.09504">
        <ele>2390.6</ele>
        <time>2021-02-27T11:31:47Z</time>
      </trkpt>
      <trkpt lat="45.24223" lon="6.09506">
        <ele>2390.8</ele>
        <time>2021-02-27T11:31:48Z</time>
      </trkpt>
      <trkpt lat="45.24223" lon="6.09506">
        <ele>2391.2</ele>
        <time>2021-02-27T11:31:49Z</time>
      </trkpt>
      <trkpt lat="45.24224" lon="6.09508">
        <ele>2391.4</ele>
        <time>2021-02-27T11:31:50Z</time>
      </trkpt>
      <trkpt lat="45.24224" lon="6.09508">
        <ele>2391.4</ele>
        <time>2021-02-27T11:31:51Z</time>
      </trkpt>
      <trkpt lat="45.24225" lon="6.09511">
        <ele>2391.8</ele>
        <time>2021-02-27T11:31:52Z</time>
      </trkpt>
      <trkpt lat="45.24225" lon="6.09511">
        <ele>2392</ele>
        <time>2021-02-27T11:31:53Z</time>
      </trkpt>
      <trkpt lat="45.24225" lon="6.09511">
        <ele>2392.2</ele>
        <time>2021-02-27T11:31:54Z</time>
      </trkpt>
      <trkpt lat="45.24226" lon="6.09514">
        <ele>2392.6</ele>
        <time>2021-02-27T11:31:55Z</time>
      </trkpt>
      <trkpt lat="45.24226" lon="6.09514">
        <ele>2393</ele>
        <time>2021-02-27T11:31:56Z</time>
      </trkpt>
      <trkpt lat="45.24225" lon="6.09517">
        <ele>2393.2</ele>
        <time>2021-02-27T11:31:57Z</time>
      </trkpt>
      <trkpt lat="45.24225" lon="6.09517">
        <ele>2393.4</ele>
        <time>2021-02-27T11:31:58Z</time>
      </trkpt>
      <trkpt lat="45.24224" lon="6.09519">
        <ele>2393.4</ele>
        <time>2021-02-27T11:31:59Z</time>
      </trkpt>
      <trkpt lat="45.24224" lon="6.09519">
        <ele>2393.6</ele>
        <time>2021-02-27T11:32:00Z</time>
      </trkpt>
      <trkpt lat="45.24222" lon="6.09521">
        <ele>2394.2</ele>
        <time>2021-02-27T11:32:01Z</time>
      </trkpt>
      <trkpt lat="45.24222" lon="6.09521">
        <ele>2394.4</ele>
        <time>2021-02-27T11:32:02Z</time>
      </trkpt>
      <trkpt lat="45.24222" lon="6.09524">
        <ele>2395</ele>
        <time>2021-02-27T11:32:03Z</time>
      </trkpt>
      <trkpt lat="45.24222" lon="6.09524">
        <ele>2395.4</ele>
        <time>2021-02-27T11:32:04Z</time>
      </trkpt>
      <trkpt lat="45.24222" lon="6.09524">
        <ele>2396</ele>
        <time>2021-02-27T11:32:05Z</time>
      </trkpt>
      <trkpt lat="45.24221" lon="6.09527">
        <ele>2396.4</ele>
        <time>2021-02-27T11:32:06Z</time>
      </trkpt>
      <trkpt lat="45.24221" lon="6.09527">
        <ele>2396.6</ele>
        <time>2021-02-27T11:32:07Z</time>
      </trkpt>
      <trkpt lat="45.24221" lon="6.09527">
        <ele>2397.2</ele>
        <time>2021-02-27T11:32:08Z</time>
      </trkpt>
      <trkpt lat="45.24219" lon="6.09529">
        <ele>2397.2</ele>
        <time>2021-02-27T11:32:09Z</time>
      </trkpt>
      <trkpt lat="45.24219" lon="6.09529">
        <ele>2397.6</ele>
        <time>2021-02-27T11:32:10Z</time>
      </trkpt>
      <trkpt lat="45.24219" lon="6.09529">
        <ele>2398.2</ele>
        <time>2021-02-27T11:32:11Z</time>
      </trkpt>
      <trkpt lat="45.24217" lon="6.09531">
        <ele>2398.6</ele>
        <time>2021-02-27T11:32:12Z</time>
      </trkpt>
      <trkpt lat="45.24217" lon="6.09531">
        <ele>2398.4</ele>
        <time>2021-02-27T11:32:13Z</time>
      </trkpt>
      <trkpt lat="45.24217" lon="6.09531">
        <ele>2398.6</ele>
        <time>2021-02-27T11:32:14Z</time>
      </trkpt>
      <trkpt lat="45.24215" lon="6.09533">
        <ele>2398.8</ele>
        <time>2021-02-27T11:32:15Z</time>
      </trkpt>
      <trkpt lat="45.24215" lon="6.09533">
        <ele>2398.8</ele>
        <time>2021-02-27T11:32:16Z</time>
      </trkpt>
      <trkpt lat="45.24215" lon="6.09533">
        <ele>2399.4</ele>
        <time>2021-02-27T11:32:17Z</time>
      </trkpt>
      <trkpt lat="45.24213" lon="6.09534">
        <ele>2399.4</ele>
        <time>2021-02-27T11:32:18Z</time>
      </trkpt>
      <trkpt lat="45.24213" lon="6.09534">
        <ele>2399.2</ele>
        <time>2021-02-27T11:32:19Z</time>
      </trkpt>
      <trkpt lat="45.24213" lon="6.09534">
        <ele>2399.4</ele>
        <time>2021-02-27T11:32:20Z</time>
      </trkpt>
      <trkpt lat="45.24211" lon="6.09536">
        <ele>2399.8</ele>
        <time>2021-02-27T11:32:21Z</time>
      </trkpt>
      <trkpt lat="45.24211" lon="6.09536">
        <ele>2399.4</ele>
        <time>2021-02-27T11:32:22Z</time>
      </trkpt>
      <trkpt lat="45.24211" lon="6.09536">
        <ele>2399.8</ele>
        <time>2021-02-27T11:32:23Z</time>
      </trkpt>
      <trkpt lat="45.24209" lon="6.09538">
        <ele>2400</ele>
        <time>2021-02-27T11:32:24Z</time>
      </trkpt>
      <trkpt lat="45.24209" lon="6.09538">
        <ele>2400.2</ele>
        <time>2021-02-27T11:32:25Z</time>
      </trkpt>
      <trkpt lat="45.24209" lon="6.09538">
        <ele>2400</ele>
        <time>2021-02-27T11:32:26Z</time>
      </trkpt>
      <trkpt lat="45.24209" lon="6.09541">
        <ele>2400</ele>
        <time>2021-02-27T11:32:27Z</time>
      </trkpt>
      <trkpt lat="45.24209" lon="6.09541">
        <ele>2399.8</ele>
        <time>2021-02-27T11:32:28Z</time>
      </trkpt>
      <trkpt lat="45.24209" lon="6.09541">
        <ele>2399.8</ele>
        <time>2021-02-27T11:32:29Z</time>
      </trkpt>
      <trkpt lat="45.24209" lon="6.09541">
        <ele>2399.8</ele>
        <time>2021-02-27T11:32:30Z</time>
      </trkpt>
      <trkpt lat="45.24209" lon="6.09545">
        <ele>2400</ele>
        <time>2021-02-27T11:32:31Z</time>
      </trkpt>
      <trkpt lat="45.24209" lon="6.09545">
        <ele>2400.2</ele>
        <time>2021-02-27T11:32:32Z</time>
      </trkpt>
      <trkpt lat="45.24209" lon="6.09545">
        <ele>2400.4</ele>
        <time>2021-02-27T11:32:33Z</time>
      </trkpt>
      <trkpt lat="45.24209" lon="6.09548">
        <ele>2400.6</ele>
        <time>2021-02-27T11:32:34Z</time>
      </trkpt>
      <trkpt lat="45.24209" lon="6.09548">
        <ele>2400.8</ele>
        <time>2021-02-27T11:32:35Z</time>
      </trkpt>
      <trkpt lat="45.24209" lon="6.09548">
        <ele>2400.8</ele>
        <time>2021-02-27T11:32:36Z</time>
      </trkpt>
      <trkpt lat="45.24208" lon="6.09551">
        <ele>2400.8</ele>
        <time>2021-02-27T11:32:37Z</time>
      </trkpt>
      <trkpt lat="45.24208" lon="6.09551">
        <ele>2401.2</ele>
        <time>2021-02-27T11:32:38Z</time>
      </trkpt>
      <trkpt lat="45.24207" lon="6.09554">
        <ele>2401.2</ele>
        <time>2021-02-27T11:32:39Z</time>
      </trkpt>
      <trkpt lat="45.24207" lon="6.09554">
        <ele>2401.4</ele>
        <time>2021-02-27T11:32:40Z</time>
      </trkpt>
      <trkpt lat="45.24208" lon="6.09555">
        <ele>2401.6</ele>
        <time>2021-02-27T11:32:41Z</time>
      </trkpt>
      <trkpt lat="45.24208" lon="6.09556">
        <ele>2402</ele>
        <time>2021-02-27T11:32:42Z</time>
      </trkpt>
      <trkpt lat="45.24208" lon="6.09557">
        <ele>2402</ele>
        <time>2021-02-27T11:32:43Z</time>
      </trkpt>
      <trkpt lat="45.24208" lon="6.09557">
        <ele>2401.6</ele>
        <time>2021-02-27T11:32:44Z</time>
      </trkpt>
      <trkpt lat="45.24209" lon="6.09558">
        <ele>2402.2</ele>
        <time>2021-02-27T11:32:45Z</time>
      </trkpt>
      <trkpt lat="45.24209" lon="6.09559">
        <ele>2402</ele>
        <time>2021-02-27T11:32:46Z</time>
      </trkpt>
      <trkpt lat="45.24209" lon="6.09559">
        <ele>2402.2</ele>
        <time>2021-02-27T11:32:47Z</time>
      </trkpt>
      <trkpt lat="45.2421" lon="6.0956">
        <ele>2402.6</ele>
        <time>2021-02-27T11:32:48Z</time>
      </trkpt>
      <trkpt lat="45.2421" lon="6.09561">
        <ele>2403.2</ele>
        <time>2021-02-27T11:32:49Z</time>
      </trkpt>
      <trkpt lat="45.2421" lon="6.09562">
        <ele>2403.6</ele>
        <time>2021-02-27T11:32:50Z</time>
      </trkpt>
      <trkpt lat="45.2421" lon="6.09562">
        <ele>2404.2</ele>
        <time>2021-02-27T11:32:51Z</time>
      </trkpt>
      <trkpt lat="45.24211" lon="6.09563">
        <ele>2404.8</ele>
        <time>2021-02-27T11:32:52Z</time>
      </trkpt>
      <trkpt lat="45.24211" lon="6.09564">
        <ele>2405.4</ele>
        <time>2021-02-27T11:32:53Z</time>
      </trkpt>
      <trkpt lat="45.24211" lon="6.09564">
        <ele>2405.4</ele>
        <time>2021-02-27T11:32:54Z</time>
      </trkpt>
      <trkpt lat="45.24211" lon="6.09565">
        <ele>2405.6</ele>
        <time>2021-02-27T11:32:55Z</time>
      </trkpt>
      <trkpt lat="45.24212" lon="6.09566">
        <ele>2405.6</ele>
        <time>2021-02-27T11:32:56Z</time>
      </trkpt>
      <trkpt lat="45.24212" lon="6.09566">
        <ele>2405.8</ele>
        <time>2021-02-27T11:32:57Z</time>
      </trkpt>
      <trkpt lat="45.24213" lon="6.09568">
        <ele>2406.6</ele>
        <time>2021-02-27T11:32:58Z</time>
      </trkpt>
      <trkpt lat="45.24213" lon="6.09568">
        <ele>2406.6</ele>
        <time>2021-02-27T11:32:59Z</time>
      </trkpt>
      <trkpt lat="45.24213" lon="6.09568">
        <ele>2406.6</ele>
        <time>2021-02-27T11:33:00Z</time>
      </trkpt>
      <trkpt lat="45.24213" lon="6.09568">
        <ele>2407</ele>
        <time>2021-02-27T11:33:01Z</time>
      </trkpt>
      <trkpt lat="45.24212" lon="6.0957">
        <ele>2407.6</ele>
        <time>2021-02-27T11:33:02Z</time>
      </trkpt>
      <trkpt lat="45.24212" lon="6.0957">
        <ele>2407.8</ele>
        <time>2021-02-27T11:33:03Z</time>
      </trkpt>
      <trkpt lat="45.2421" lon="6.09572">
        <ele>2407.4</ele>
        <time>2021-02-27T11:33:04Z</time>
      </trkpt>
      <trkpt lat="45.2421" lon="6.09572">
        <ele>2407.6</ele>
        <time>2021-02-27T11:33:05Z</time>
      </trkpt>
      <trkpt lat="45.2421" lon="6.09572">
        <ele>2408.2</ele>
        <time>2021-02-27T11:33:06Z</time>
      </trkpt>
      <trkpt lat="45.24208" lon="6.09574">
        <ele>2408.6</ele>
        <time>2021-02-27T11:33:07Z</time>
      </trkpt>
      <trkpt lat="45.24208" lon="6.09574">
        <ele>2408.8</ele>
        <time>2021-02-27T11:33:08Z</time>
      </trkpt>
      <trkpt lat="45.24206" lon="6.09575">
        <ele>2409.6</ele>
        <time>2021-02-27T11:33:09Z</time>
      </trkpt>
      <trkpt lat="45.24206" lon="6.09575">
        <ele>2410</ele>
        <time>2021-02-27T11:33:10Z</time>
      </trkpt>
      <trkpt lat="45.24204" lon="6.09576">
        <ele>2409.8</ele>
        <time>2021-02-27T11:33:11Z</time>
      </trkpt>
      <trkpt lat="45.24204" lon="6.09576">
        <ele>2410.6</ele>
        <time>2021-02-27T11:33:12Z</time>
      </trkpt>
      <trkpt lat="45.24202" lon="6.09576">
        <ele>2410.6</ele>
        <time>2021-02-27T11:33:13Z</time>
      </trkpt>
      <trkpt lat="45.24202" lon="6.09576">
        <ele>2410.8</ele>
        <time>2021-02-27T11:33:14Z</time>
      </trkpt>
      <trkpt lat="45.242" lon="6.09578">
        <ele>2411.4</ele>
        <time>2021-02-27T11:33:15Z</time>
      </trkpt>
      <trkpt lat="45.242" lon="6.09578">
        <ele>2411.8</ele>
        <time>2021-02-27T11:33:16Z</time>
      </trkpt>
      <trkpt lat="45.24199" lon="6.0958">
        <ele>2411.8</ele>
        <time>2021-02-27T11:33:17Z</time>
      </trkpt>
      <trkpt lat="45.24199" lon="6.0958">
        <ele>2412.4</ele>
        <time>2021-02-27T11:33:18Z</time>
      </trkpt>
      <trkpt lat="45.24197" lon="6.09581">
        <ele>2412.8</ele>
        <time>2021-02-27T11:33:19Z</time>
      </trkpt>
      <trkpt lat="45.24197" lon="6.09581">
        <ele>2413.4</ele>
        <time>2021-02-27T11:33:20Z</time>
      </trkpt>
      <trkpt lat="45.24196" lon="6.09584">
        <ele>2413.8</ele>
        <time>2021-02-27T11:33:21Z</time>
      </trkpt>
      <trkpt lat="45.24196" lon="6.09584">
        <ele>2413.8</ele>
        <time>2021-02-27T11:33:22Z</time>
      </trkpt>
      <trkpt lat="45.24196" lon="6.09584">
        <ele>2414</ele>
        <time>2021-02-27T11:33:23Z</time>
      </trkpt>
      <trkpt lat="45.24193" lon="6.09586">
        <ele>2414.2</ele>
        <time>2021-02-27T11:33:24Z</time>
      </trkpt>
      <trkpt lat="45.24193" lon="6.09586">
        <ele>2413.8</ele>
        <time>2021-02-27T11:33:25Z</time>
      </trkpt>
      <trkpt lat="45.24192" lon="6.09588">
        <ele>2414.2</ele>
        <time>2021-02-27T11:33:26Z</time>
      </trkpt>
      <trkpt lat="45.24192" lon="6.09588">
        <ele>2414.8</ele>
        <time>2021-02-27T11:33:27Z</time>
      </trkpt>
      <trkpt lat="45.24192" lon="6.09588">
        <ele>2415</ele>
        <time>2021-02-27T11:33:28Z</time>
      </trkpt>
      <trkpt lat="45.24191" lon="6.0959">
        <ele>2415.6</ele>
        <time>2021-02-27T11:33:29Z</time>
      </trkpt>
      <trkpt lat="45.24191" lon="6.0959">
        <ele>2416.8</ele>
        <time>2021-02-27T11:33:30Z</time>
      </trkpt>
      <trkpt lat="45.24188" lon="6.0959">
        <ele>2417.2</ele>
        <time>2021-02-27T11:33:31Z</time>
      </trkpt>
      <trkpt lat="45.24188" lon="6.0959">
        <ele>2417.4</ele>
        <time>2021-02-27T11:33:32Z</time>
      </trkpt>
      <trkpt lat="45.24187" lon="6.09589">
        <ele>2417.8</ele>
        <time>2021-02-27T11:33:33Z</time>
      </trkpt>
      <trkpt lat="45.24187" lon="6.09588">
        <ele>2418.6</ele>
        <time>2021-02-27T11:33:34Z</time>
      </trkpt>
      <trkpt lat="45.24186" lon="6.09588">
        <ele>2419</ele>
        <time>2021-02-27T11:33:35Z</time>
      </trkpt>
      <trkpt lat="45.24185" lon="6.09587">
        <ele>2419.4</ele>
        <time>2021-02-27T11:33:36Z</time>
      </trkpt>
      <trkpt lat="45.24184" lon="6.09586">
        <ele>2420.2</ele>
        <time>2021-02-27T11:33:37Z</time>
      </trkpt>
      <trkpt lat="45.24183" lon="6.09583">
        <ele>2420.8</ele>
        <time>2021-02-27T11:33:38Z</time>
      </trkpt>
      <trkpt lat="45.24183" lon="6.09583">
        <ele>2421</ele>
        <time>2021-02-27T11:33:39Z</time>
      </trkpt>
      <trkpt lat="45.2418" lon="6.09582">
        <ele>2421.4</ele>
        <time>2021-02-27T11:33:40Z</time>
      </trkpt>
      <trkpt lat="45.2418" lon="6.09582">
        <ele>2421.4</ele>
        <time>2021-02-27T11:33:41Z</time>
      </trkpt>
      <trkpt lat="45.24178" lon="6.09581">
        <ele>2422</ele>
        <time>2021-02-27T11:33:42Z</time>
      </trkpt>
      <trkpt lat="45.24178" lon="6.09581">
        <ele>2422</ele>
        <time>2021-02-27T11:33:43Z</time>
      </trkpt>
      <trkpt lat="45.24176" lon="6.09579">
        <ele>2421.8</ele>
        <time>2021-02-27T11:33:44Z</time>
      </trkpt>
      <trkpt lat="45.24176" lon="6.09579">
        <ele>2422</ele>
        <time>2021-02-27T11:33:45Z</time>
      </trkpt>
      <trkpt lat="45.24174" lon="6.09578">
        <ele>2421.8</ele>
        <time>2021-02-27T11:33:46Z</time>
      </trkpt>
      <trkpt lat="45.24174" lon="6.09578">
        <ele>2421.8</ele>
        <time>2021-02-27T11:33:47Z</time>
      </trkpt>
      <trkpt lat="45.24172" lon="6.09577">
        <ele>2422.4</ele>
        <time>2021-02-27T11:33:48Z</time>
      </trkpt>
      <trkpt lat="45.24172" lon="6.09577">
        <ele>2422.4</ele>
        <time>2021-02-27T11:33:49Z</time>
      </trkpt>
      <trkpt lat="45.2417" lon="6.09576">
        <ele>2422.4</ele>
        <time>2021-02-27T11:33:50Z</time>
      </trkpt>
      <trkpt lat="45.2417" lon="6.09576">
        <ele>2422.8</ele>
        <time>2021-02-27T11:33:51Z</time>
      </trkpt>
      <trkpt lat="45.24168" lon="6.09575">
        <ele>2422.6</ele>
        <time>2021-02-27T11:33:52Z</time>
      </trkpt>
      <trkpt lat="45.24168" lon="6.09575">
        <ele>2422.8</ele>
        <time>2021-02-27T11:33:53Z</time>
      </trkpt>
      <trkpt lat="45.24168" lon="6.09575">
        <ele>2422.6</ele>
        <time>2021-02-27T11:33:54Z</time>
      </trkpt>
      <trkpt lat="45.24166" lon="6.09572">
        <ele>2423</ele>
        <time>2021-02-27T11:33:55Z</time>
      </trkpt>
      <trkpt lat="45.24166" lon="6.09572">
        <ele>2423.4</ele>
        <time>2021-02-27T11:33:56Z</time>
      </trkpt>
      <trkpt lat="45.24164" lon="6.0957">
        <ele>2423.2</ele>
        <time>2021-02-27T11:33:57Z</time>
      </trkpt>
      <trkpt lat="45.24164" lon="6.0957">
        <ele>2423.8</ele>
        <time>2021-02-27T11:33:58Z</time>
      </trkpt>
      <trkpt lat="45.24162" lon="6.09569">
        <ele>2423.8</ele>
        <time>2021-02-27T11:33:59Z</time>
      </trkpt>
      <trkpt lat="45.24162" lon="6.09569">
        <ele>2424</ele>
        <time>2021-02-27T11:34:00Z</time>
      </trkpt>
      <trkpt lat="45.2416" lon="6.09568">
        <ele>2424.4</ele>
        <time>2021-02-27T11:34:01Z</time>
      </trkpt>
      <trkpt lat="45.2416" lon="6.09568">
        <ele>2424.8</ele>
        <time>2021-02-27T11:34:02Z</time>
      </trkpt>
      <trkpt lat="45.24158" lon="6.09566">
        <ele>2424.8</ele>
        <time>2021-02-27T11:34:03Z</time>
      </trkpt>
      <trkpt lat="45.24158" lon="6.09566">
        <ele>2425.4</ele>
        <time>2021-02-27T11:34:04Z</time>
      </trkpt>
      <trkpt lat="45.24158" lon="6.09566">
        <ele>2425.8</ele>
        <time>2021-02-27T11:34:05Z</time>
      </trkpt>
      <trkpt lat="45.24155" lon="6.09566">
        <ele>2425.8</ele>
        <time>2021-02-27T11:34:06Z</time>
      </trkpt>
      <trkpt lat="45.24155" lon="6.09566">
        <ele>2426.4</ele>
        <time>2021-02-27T11:34:07Z</time>
      </trkpt>
      <trkpt lat="45.24153" lon="6.09565">
        <ele>2426.4</ele>
        <time>2021-02-27T11:34:08Z</time>
      </trkpt>
      <trkpt lat="45.24153" lon="6.09565">
        <ele>2426.4</ele>
        <time>2021-02-27T11:34:09Z</time>
      </trkpt>
      <trkpt lat="45.24151" lon="6.09564">
        <ele>2426.8</ele>
        <time>2021-02-27T11:34:10Z</time>
      </trkpt>
      <trkpt lat="45.24151" lon="6.09564">
        <ele>2426.8</ele>
        <time>2021-02-27T11:34:11Z</time>
      </trkpt>
      <trkpt lat="45.24149" lon="6.09563">
        <ele>2427</ele>
        <time>2021-02-27T11:34:12Z</time>
      </trkpt>
      <trkpt lat="45.24149" lon="6.09563">
        <ele>2427.4</ele>
        <time>2021-02-27T11:34:13Z</time>
      </trkpt>
      <trkpt lat="45.24147" lon="6.09562">
        <ele>2427.4</ele>
        <time>2021-02-27T11:34:14Z</time>
      </trkpt>
      <trkpt lat="45.24147" lon="6.09562">
        <ele>2427.6</ele>
        <time>2021-02-27T11:34:15Z</time>
      </trkpt>
      <trkpt lat="45.24145" lon="6.09561">
        <ele>2428</ele>
        <time>2021-02-27T11:34:16Z</time>
      </trkpt>
      <trkpt lat="45.24145" lon="6.09561">
        <ele>2428</ele>
        <time>2021-02-27T11:34:17Z</time>
      </trkpt>
      <trkpt lat="45.24142" lon="6.0956">
        <ele>2427.8</ele>
        <time>2021-02-27T11:34:18Z</time>
      </trkpt>
      <trkpt lat="45.24142" lon="6.0956">
        <ele>2428.4</ele>
        <time>2021-02-27T11:34:19Z</time>
      </trkpt>
      <trkpt lat="45.24141" lon="6.09559">
        <ele>2428.6</ele>
        <time>2021-02-27T11:34:20Z</time>
      </trkpt>
      <trkpt lat="45.24141" lon="6.09559">
        <ele>2428.4</ele>
        <time>2021-02-27T11:34:21Z</time>
      </trkpt>
      <trkpt lat="45.24139" lon="6.09559">
        <ele>2429</ele>
        <time>2021-02-27T11:34:22Z</time>
      </trkpt>
      <trkpt lat="45.24139" lon="6.09559">
        <ele>2429.4</ele>
        <time>2021-02-27T11:34:23Z</time>
      </trkpt>
      <trkpt lat="45.24137" lon="6.09558">
        <ele>2429.4</ele>
        <time>2021-02-27T11:34:24Z</time>
      </trkpt>
      <trkpt lat="45.24137" lon="6.09558">
        <ele>2429.4</ele>
        <time>2021-02-27T11:34:25Z</time>
      </trkpt>
      <trkpt lat="45.24135" lon="6.09558">
        <ele>2429.8</ele>
        <time>2021-02-27T11:34:26Z</time>
      </trkpt>
      <trkpt lat="45.24135" lon="6.09558">
        <ele>2429.6</ele>
        <time>2021-02-27T11:34:27Z</time>
      </trkpt>
      <trkpt lat="45.24135" lon="6.09558">
        <ele>2430</ele>
        <time>2021-02-27T11:34:28Z</time>
      </trkpt>
      <trkpt lat="45.24133" lon="6.09558">
        <ele>2430.4</ele>
        <time>2021-02-27T11:34:29Z</time>
      </trkpt>
      <trkpt lat="45.24133" lon="6.09558">
        <ele>2430.4</ele>
        <time>2021-02-27T11:34:30Z</time>
      </trkpt>
      <trkpt lat="45.24133" lon="6.09558">
        <ele>2430.8</ele>
        <time>2021-02-27T11:34:31Z</time>
      </trkpt>
      <trkpt lat="45.24133" lon="6.09558">
        <ele>2430.8</ele>
        <time>2021-02-27T11:34:32Z</time>
      </trkpt>
      <trkpt lat="45.24133" lon="6.09558">
        <ele>2430.8</ele>
        <time>2021-02-27T11:34:33Z</time>
      </trkpt>
      <trkpt lat="45.24133" lon="6.09558">
        <ele>2430.4</ele>
        <time>2021-02-27T11:34:34Z</time>
      </trkpt>
      <trkpt lat="45.24133" lon="6.09558">
        <ele>2429.8</ele>
        <time>2021-02-27T11:34:35Z</time>
      </trkpt>
      <trkpt lat="45.24134" lon="6.0956">
        <ele>2429.8</ele>
        <time>2021-02-27T11:34:36Z</time>
      </trkpt>
      <trkpt lat="45.24134" lon="6.0956">
        <ele>2430</ele>
        <time>2021-02-27T11:34:37Z</time>
      </trkpt>
      <trkpt lat="45.24134" lon="6.0956">
        <ele>2429.8</ele>
        <time>2021-02-27T11:34:38Z</time>
      </trkpt>
      <trkpt lat="45.24135" lon="6.09564">
        <ele>2429.4</ele>
        <time>2021-02-27T11:34:39Z</time>
      </trkpt>
      <trkpt lat="45.24135" lon="6.09564">
        <ele>2430.6</ele>
        <time>2021-02-27T11:34:40Z</time>
      </trkpt>
      <trkpt lat="45.24135" lon="6.09564">
        <ele>2430.2</ele>
        <time>2021-02-27T11:34:41Z</time>
      </trkpt>
      <trkpt lat="45.24135" lon="6.09567">
        <ele>2430</ele>
        <time>2021-02-27T11:34:42Z</time>
      </trkpt>
      <trkpt lat="45.24135" lon="6.09567">
        <ele>2430.2</ele>
        <time>2021-02-27T11:34:43Z</time>
      </trkpt>
      <trkpt lat="45.24135" lon="6.09567">
        <ele>2430.2</ele>
        <time>2021-02-27T11:34:44Z</time>
      </trkpt>
      <trkpt lat="45.24136" lon="6.09571">
        <ele>2430.2</ele>
        <time>2021-02-27T11:34:45Z</time>
      </trkpt>
      <trkpt lat="45.24136" lon="6.09571">
        <ele>2430.4</ele>
        <time>2021-02-27T11:34:46Z</time>
      </trkpt>
      <trkpt lat="45.24136" lon="6.09571">
        <ele>2430.4</ele>
        <time>2021-02-27T11:34:47Z</time>
      </trkpt>
      <trkpt lat="45.24136" lon="6.09574">
        <ele>2430.2</ele>
        <time>2021-02-27T11:34:48Z</time>
      </trkpt>
      <trkpt lat="45.24136" lon="6.09574">
        <ele>2430.4</ele>
        <time>2021-02-27T11:34:49Z</time>
      </trkpt>
      <trkpt lat="45.24136" lon="6.09577">
        <ele>2430.6</ele>
        <time>2021-02-27T11:34:50Z</time>
      </trkpt>
      <trkpt lat="45.24136" lon="6.09577">
        <ele>2431</ele>
        <time>2021-02-27T11:34:51Z</time>
      </trkpt>
      <trkpt lat="45.24137" lon="6.0958">
        <ele>2431.6</ele>
        <time>2021-02-27T11:34:52Z</time>
      </trkpt>
      <trkpt lat="45.24137" lon="6.0958">
        <ele>2432</ele>
        <time>2021-02-27T11:34:53Z</time>
      </trkpt>
      <trkpt lat="45.24136" lon="6.09583">
        <ele>2432</ele>
        <time>2021-02-27T11:34:54Z</time>
      </trkpt>
      <trkpt lat="45.24136" lon="6.09583">
        <ele>2432.4</ele>
        <time>2021-02-27T11:34:55Z</time>
      </trkpt>
      <trkpt lat="45.24136" lon="6.09583">
        <ele>2432.8</ele>
        <time>2021-02-27T11:34:56Z</time>
      </trkpt>
      <trkpt lat="45.24135" lon="6.09584">
        <ele>2433.4</ele>
        <time>2021-02-27T11:34:57Z</time>
      </trkpt>
      <trkpt lat="45.24135" lon="6.09584">
        <ele>2434</ele>
        <time>2021-02-27T11:34:58Z</time>
      </trkpt>
      <trkpt lat="45.24132" lon="6.09584">
        <ele>2434.8</ele>
        <time>2021-02-27T11:34:59Z</time>
      </trkpt>
      <trkpt lat="45.24132" lon="6.09584">
        <ele>2435.6</ele>
        <time>2021-02-27T11:35:00Z</time>
      </trkpt>
      <trkpt lat="45.2413" lon="6.09582">
        <ele>2436.4</ele>
        <time>2021-02-27T11:35:01Z</time>
      </trkpt>
      <trkpt lat="45.2413" lon="6.09582">
        <ele>2437</ele>
        <time>2021-02-27T11:35:02Z</time>
      </trkpt>
      <trkpt lat="45.2413" lon="6.09582">
        <ele>2437.6</ele>
        <time>2021-02-27T11:35:03Z</time>
      </trkpt>
      <trkpt lat="45.24128" lon="6.09583">
        <ele>2438.4</ele>
        <time>2021-02-27T11:35:04Z</time>
      </trkpt>
      <trkpt lat="45.24128" lon="6.09583">
        <ele>2438.8</ele>
        <time>2021-02-27T11:35:05Z</time>
      </trkpt>
      <trkpt lat="45.24126" lon="6.09584">
        <ele>2439</ele>
        <time>2021-02-27T11:35:06Z</time>
      </trkpt>
      <trkpt lat="45.24126" lon="6.09584">
        <ele>2439.6</ele>
        <time>2021-02-27T11:35:07Z</time>
      </trkpt>
      <trkpt lat="45.24124" lon="6.09584">
        <ele>2440</ele>
        <time>2021-02-27T11:35:08Z</time>
      </trkpt>
      <trkpt lat="45.24124" lon="6.09584">
        <ele>2440.2</ele>
        <time>2021-02-27T11:35:09Z</time>
      </trkpt>
      <trkpt lat="45.24124" lon="6.09584">
        <ele>2440.6</ele>
        <time>2021-02-27T11:35:10Z</time>
      </trkpt>
      <trkpt lat="45.24124" lon="6.09584">
        <ele>2441</ele>
        <time>2021-02-27T11:35:11Z</time>
      </trkpt>
      <trkpt lat="45.24122" lon="6.09586">
        <ele>2441</ele>
        <time>2021-02-27T11:35:12Z</time>
      </trkpt>
      <trkpt lat="45.24122" lon="6.09586">
        <ele>2441.2</ele>
        <time>2021-02-27T11:35:13Z</time>
      </trkpt>
      <trkpt lat="45.24122" lon="6.09586">
        <ele>2441</ele>
        <time>2021-02-27T11:35:14Z</time>
      </trkpt>
      <trkpt lat="45.2412" lon="6.09588">
        <ele>2441</ele>
        <time>2021-02-27T11:35:15Z</time>
      </trkpt>
      <trkpt lat="45.2412" lon="6.09588">
        <ele>2441</ele>
        <time>2021-02-27T11:35:16Z</time>
      </trkpt>
      <trkpt lat="45.2412" lon="6.09588">
        <ele>2441.2</ele>
        <time>2021-02-27T11:35:17Z</time>
      </trkpt>
      <trkpt lat="45.24119" lon="6.0959">
        <ele>2441.2</ele>
        <time>2021-02-27T11:35:18Z</time>
      </trkpt>
      <trkpt lat="45.24119" lon="6.0959">
        <ele>2441.2</ele>
        <time>2021-02-27T11:35:19Z</time>
      </trkpt>
      <trkpt lat="45.24119" lon="6.0959">
        <ele>2441</ele>
        <time>2021-02-27T11:35:20Z</time>
      </trkpt>
      <trkpt lat="45.24117" lon="6.09592">
        <ele>2441.4</ele>
        <time>2021-02-27T11:35:21Z</time>
      </trkpt>
      <trkpt lat="45.24117" lon="6.09592">
        <ele>2441.6</ele>
        <time>2021-02-27T11:35:22Z</time>
      </trkpt>
      <trkpt lat="45.24117" lon="6.09592">
        <ele>2441.6</ele>
        <time>2021-02-27T11:35:23Z</time>
      </trkpt>
      <trkpt lat="45.24115" lon="6.09594">
        <ele>2442.2</ele>
        <time>2021-02-27T11:35:24Z</time>
      </trkpt>
      <trkpt lat="45.24115" lon="6.09594">
        <ele>2442.2</ele>
        <time>2021-02-27T11:35:25Z</time>
      </trkpt>
      <trkpt lat="45.24115" lon="6.09594">
        <ele>2442.4</ele>
        <time>2021-02-27T11:35:26Z</time>
      </trkpt>
      <trkpt lat="45.24113" lon="6.09596">
        <ele>2443</ele>
        <time>2021-02-27T11:35:27Z</time>
      </trkpt>
      <trkpt lat="45.24113" lon="6.09596">
        <ele>2443.2</ele>
        <time>2021-02-27T11:35:28Z</time>
      </trkpt>
      <trkpt lat="45.24113" lon="6.09596">
        <ele>2443.4</ele>
        <time>2021-02-27T11:35:29Z</time>
      </trkpt>
      <trkpt lat="45.24112" lon="6.09598">
        <ele>2443.6</ele>
        <time>2021-02-27T11:35:30Z</time>
      </trkpt>
      <trkpt lat="45.24112" lon="6.09598">
        <ele>2443.6</ele>
        <time>2021-02-27T11:35:31Z</time>
      </trkpt>
      <trkpt lat="45.24112" lon="6.09598">
        <ele>2444</ele>
        <time>2021-02-27T11:35:32Z</time>
      </trkpt>
      <trkpt lat="45.24112" lon="6.09598">
        <ele>2444.2</ele>
        <time>2021-02-27T11:35:33Z</time>
      </trkpt>
      <trkpt lat="45.2411" lon="6.09602">
        <ele>2443.8</ele>
        <time>2021-02-27T11:35:34Z</time>
      </trkpt>
      <trkpt lat="45.2411" lon="6.09602">
        <ele>2443.8</ele>
        <time>2021-02-27T11:35:35Z</time>
      </trkpt>
      <trkpt lat="45.2411" lon="6.09602">
        <ele>2444.4</ele>
        <time>2021-02-27T11:35:36Z</time>
      </trkpt>
      <trkpt lat="45.24109" lon="6.09604">
        <ele>2444.6</ele>
        <time>2021-02-27T11:35:37Z</time>
      </trkpt>
      <trkpt lat="45.24109" lon="6.09604">
        <ele>2445</ele>
        <time>2021-02-27T11:35:38Z</time>
      </trkpt>
      <trkpt lat="45.24109" lon="6.09604">
        <ele>2445.6</ele>
        <time>2021-02-27T11:35:39Z</time>
      </trkpt>
      <trkpt lat="45.24107" lon="6.09606">
        <ele>2445.8</ele>
        <time>2021-02-27T11:35:40Z</time>
      </trkpt>
      <trkpt lat="45.24107" lon="6.09606">
        <ele>2445.8</ele>
        <time>2021-02-27T11:35:41Z</time>
      </trkpt>
      <trkpt lat="45.24105" lon="6.09608">
        <ele>2446.6</ele>
        <time>2021-02-27T11:35:42Z</time>
      </trkpt>
      <trkpt lat="45.24105" lon="6.09608">
        <ele>2446.8</ele>
        <time>2021-02-27T11:35:43Z</time>
      </trkpt>
      <trkpt lat="45.24104" lon="6.0961">
        <ele>2446.6</ele>
        <time>2021-02-27T11:35:44Z</time>
      </trkpt>
      <trkpt lat="45.24104" lon="6.0961">
        <ele>2447.6</ele>
        <time>2021-02-27T11:35:45Z</time>
      </trkpt>
      <trkpt lat="45.24102" lon="6.09612">
        <ele>2447.4</ele>
        <time>2021-02-27T11:35:46Z</time>
      </trkpt>
      <trkpt lat="45.24102" lon="6.09612">
        <ele>2447.8</ele>
        <time>2021-02-27T11:35:47Z</time>
      </trkpt>
      <trkpt lat="45.24101" lon="6.09614">
        <ele>2448.6</ele>
        <time>2021-02-27T11:35:48Z</time>
      </trkpt>
      <trkpt lat="45.24101" lon="6.09614">
        <ele>2449</ele>
        <time>2021-02-27T11:35:49Z</time>
      </trkpt>
      <trkpt lat="45.241" lon="6.09616">
        <ele>2449.6</ele>
        <time>2021-02-27T11:35:50Z</time>
      </trkpt>
      <trkpt lat="45.241" lon="6.09616">
        <ele>2450</ele>
        <time>2021-02-27T11:35:51Z</time>
      </trkpt>
      <trkpt lat="45.24098" lon="6.09618">
        <ele>2450.4</ele>
        <time>2021-02-27T11:35:52Z</time>
      </trkpt>
      <trkpt lat="45.24098" lon="6.09618">
        <ele>2450.8</ele>
        <time>2021-02-27T11:35:53Z</time>
      </trkpt>
      <trkpt lat="45.24097" lon="6.0962">
        <ele>2451.6</ele>
        <time>2021-02-27T11:35:54Z</time>
      </trkpt>
      <trkpt lat="45.24097" lon="6.0962">
        <ele>2451.8</ele>
        <time>2021-02-27T11:35:55Z</time>
      </trkpt>
      <trkpt lat="45.24096" lon="6.09623">
        <ele>2452</ele>
        <time>2021-02-27T11:35:56Z</time>
      </trkpt>
      <trkpt lat="45.24096" lon="6.09623">
        <ele>2452.2</ele>
        <time>2021-02-27T11:35:57Z</time>
      </trkpt>
      <trkpt lat="45.24094" lon="6.09625">
        <ele>2452.2</ele>
        <time>2021-02-27T11:35:58Z</time>
      </trkpt>
      <trkpt lat="45.24094" lon="6.09625">
        <ele>2452.8</ele>
        <time>2021-02-27T11:35:59Z</time>
      </trkpt>
      <trkpt lat="45.24094" lon="6.09625">
        <ele>2453.4</ele>
        <time>2021-02-27T11:36:00Z</time>
      </trkpt>
      <trkpt lat="45.24093" lon="6.09628">
        <ele>2453.8</ele>
        <time>2021-02-27T11:36:01Z</time>
      </trkpt>
      <trkpt lat="45.24093" lon="6.09628">
        <ele>2454.2</ele>
        <time>2021-02-27T11:36:02Z</time>
      </trkpt>
      <trkpt lat="45.24091" lon="6.09631">
        <ele>2454.2</ele>
        <time>2021-02-27T11:36:03Z</time>
      </trkpt>
      <trkpt lat="45.24091" lon="6.09631">
        <ele>2454.2</ele>
        <time>2021-02-27T11:36:04Z</time>
      </trkpt>
      <trkpt lat="45.24089" lon="6.09633">
        <ele>2454.4</ele>
        <time>2021-02-27T11:36:05Z</time>
      </trkpt>
      <trkpt lat="45.24089" lon="6.09633">
        <ele>2454.4</ele>
        <time>2021-02-27T11:36:06Z</time>
      </trkpt>
      <trkpt lat="45.24088" lon="6.09636">
        <ele>2454.6</ele>
        <time>2021-02-27T11:36:07Z</time>
      </trkpt>
      <trkpt lat="45.24088" lon="6.09636">
        <ele>2455.2</ele>
        <time>2021-02-27T11:36:08Z</time>
      </trkpt>
      <trkpt lat="45.24086" lon="6.09638">
        <ele>2455.2</ele>
        <time>2021-02-27T11:36:09Z</time>
      </trkpt>
      <trkpt lat="45.24086" lon="6.09638">
        <ele>2456</ele>
        <time>2021-02-27T11:36:10Z</time>
      </trkpt>
      <trkpt lat="45.24084" lon="6.09641">
        <ele>2456.6</ele>
        <time>2021-02-27T11:36:11Z</time>
      </trkpt>
      <trkpt lat="45.24084" lon="6.09641">
        <ele>2456.2</ele>
        <time>2021-02-27T11:36:12Z</time>
      </trkpt>
      <trkpt lat="45.24082" lon="6.09644">
        <ele>2456.8</ele>
        <time>2021-02-27T11:36:13Z</time>
      </trkpt>
      <trkpt lat="45.24082" lon="6.09644">
        <ele>2457.2</ele>
        <time>2021-02-27T11:36:14Z</time>
      </trkpt>
      <trkpt lat="45.2408" lon="6.09646">
        <ele>2457</ele>
        <time>2021-02-27T11:36:15Z</time>
      </trkpt>
      <trkpt lat="45.2408" lon="6.09646">
        <ele>2457.2</ele>
        <time>2021-02-27T11:36:16Z</time>
      </trkpt>
      <trkpt lat="45.24078" lon="6.09648">
        <ele>2457.4</ele>
        <time>2021-02-27T11:36:17Z</time>
      </trkpt>
      <trkpt lat="45.24078" lon="6.09648">
        <ele>2457.4</ele>
        <time>2021-02-27T11:36:18Z</time>
      </trkpt>
      <trkpt lat="45.24077" lon="6.0965">
        <ele>2457.6</ele>
        <time>2021-02-27T11:36:19Z</time>
      </trkpt>
      <trkpt lat="45.24077" lon="6.0965">
        <ele>2457</ele>
        <time>2021-02-27T11:36:20Z</time>
      </trkpt>
      <trkpt lat="45.24075" lon="6.09652">
        <ele>2457</ele>
        <time>2021-02-27T11:36:21Z</time>
      </trkpt>
      <trkpt lat="45.24075" lon="6.09652">
        <ele>2457.4</ele>
        <time>2021-02-27T11:36:22Z</time>
      </trkpt>
      <trkpt lat="45.24074" lon="6.09655">
        <ele>2457</ele>
        <time>2021-02-27T11:36:23Z</time>
      </trkpt>
      <trkpt lat="45.24074" lon="6.09655">
        <ele>2457.2</ele>
        <time>2021-02-27T11:36:24Z</time>
      </trkpt>
      <trkpt lat="45.24072" lon="6.09657">
        <ele>2457.4</ele>
        <time>2021-02-27T11:36:25Z</time>
      </trkpt>
      <trkpt lat="45.24072" lon="6.09657">
        <ele>2457.2</ele>
        <time>2021-02-27T11:36:26Z</time>
      </trkpt>
      <trkpt lat="45.24071" lon="6.09659">
        <ele>2457.6</ele>
        <time>2021-02-27T11:36:27Z</time>
      </trkpt>
      <trkpt lat="45.24071" lon="6.09659">
        <ele>2457.6</ele>
        <time>2021-02-27T11:36:28Z</time>
      </trkpt>
      <trkpt lat="45.2407" lon="6.09661">
        <ele>2457.2</ele>
        <time>2021-02-27T11:36:29Z</time>
      </trkpt>
      <trkpt lat="45.2407" lon="6.09661">
        <ele>2457.2</ele>
        <time>2021-02-27T11:36:30Z</time>
      </trkpt>
      <trkpt lat="45.24068" lon="6.09664">
        <ele>2457.2</ele>
        <time>2021-02-27T11:36:31Z</time>
      </trkpt>
      <trkpt lat="45.24068" lon="6.09664">
        <ele>2457.6</ele>
        <time>2021-02-27T11:36:32Z</time>
      </trkpt>
      <trkpt lat="45.24067" lon="6.09666">
        <ele>2457.4</ele>
        <time>2021-02-27T11:36:33Z</time>
      </trkpt>
      <trkpt lat="45.24067" lon="6.09666">
        <ele>2457.2</ele>
        <time>2021-02-27T11:36:34Z</time>
      </trkpt>
      <trkpt lat="45.24065" lon="6.09668">
        <ele>2457.4</ele>
        <time>2021-02-27T11:36:35Z</time>
      </trkpt>
      <trkpt lat="45.24065" lon="6.09668">
        <ele>2457.2</ele>
        <time>2021-02-27T11:36:36Z</time>
      </trkpt>
      <trkpt lat="45.24063" lon="6.0967">
        <ele>2457</ele>
        <time>2021-02-27T11:36:37Z</time>
      </trkpt>
      <trkpt lat="45.24063" lon="6.0967">
        <ele>2456.8</ele>
        <time>2021-02-27T11:36:38Z</time>
      </trkpt>
      <trkpt lat="45.24063" lon="6.0967">
        <ele>2456.4</ele>
        <time>2021-02-27T11:36:39Z</time>
      </trkpt>
      <trkpt lat="45.24061" lon="6.09673">
        <ele>2456.2</ele>
        <time>2021-02-27T11:36:40Z</time>
      </trkpt>
      <trkpt lat="45.24061" lon="6.09673">
        <ele>2456</ele>
        <time>2021-02-27T11:36:41Z</time>
      </trkpt>
      <trkpt lat="45.2406" lon="6.09675">
        <ele>2456.4</ele>
        <time>2021-02-27T11:36:42Z</time>
      </trkpt>
      <trkpt lat="45.2406" lon="6.09675">
        <ele>2456.2</ele>
        <time>2021-02-27T11:36:43Z</time>
      </trkpt>
      <trkpt lat="45.2406" lon="6.09675">
        <ele>2456</ele>
        <time>2021-02-27T11:36:44Z</time>
      </trkpt>
      <trkpt lat="45.24058" lon="6.09677">
        <ele>2456.4</ele>
        <time>2021-02-27T11:36:45Z</time>
      </trkpt>
      <trkpt lat="45.24058" lon="6.09677">
        <ele>2456.6</ele>
        <time>2021-02-27T11:36:46Z</time>
      </trkpt>
      <trkpt lat="45.24056" lon="6.09679">
        <ele>2456.6</ele>
        <time>2021-02-27T11:36:47Z</time>
      </trkpt>
      <trkpt lat="45.24056" lon="6.09679">
        <ele>2456.8</ele>
        <time>2021-02-27T11:36:48Z</time>
      </trkpt>
      <trkpt lat="45.24055" lon="6.09681">
        <ele>2457</ele>
        <time>2021-02-27T11:36:49Z</time>
      </trkpt>
      <trkpt lat="45.24055" lon="6.09681">
        <ele>2457</ele>
        <time>2021-02-27T11:36:50Z</time>
      </trkpt>
      <trkpt lat="45.24055" lon="6.09681">
        <ele>2457.4</ele>
        <time>2021-02-27T11:36:51Z</time>
      </trkpt>
      <trkpt lat="45.24055" lon="6.09681">
        <ele>2457.6</ele>
        <time>2021-02-27T11:36:52Z</time>
      </trkpt>
      <trkpt lat="45.24053" lon="6.09683">
        <ele>2457.6</ele>
        <time>2021-02-27T11:36:53Z</time>
      </trkpt>
      <trkpt lat="45.24053" lon="6.09683">
        <ele>2457.6</ele>
        <time>2021-02-27T11:36:54Z</time>
      </trkpt>
      <trkpt lat="45.24053" lon="6.09683">
        <ele>2458.2</ele>
        <time>2021-02-27T11:36:55Z</time>
      </trkpt>
      <trkpt lat="45.24053" lon="6.09683">
        <ele>2458.4</ele>
        <time>2021-02-27T11:36:56Z</time>
      </trkpt>
      <trkpt lat="45.24053" lon="6.09683">
        <ele>2458.6</ele>
        <time>2021-02-27T11:36:57Z</time>
      </trkpt>
      <trkpt lat="45.24055" lon="6.09684">
        <ele>2458.4</ele>
        <time>2021-02-27T11:36:58Z</time>
      </trkpt>
      <trkpt lat="45.24055" lon="6.09684">
        <ele>2458.2</ele>
        <time>2021-02-27T11:36:59Z</time>
      </trkpt>
      <trkpt lat="45.24057" lon="6.09685">
        <ele>2458.2</ele>
        <time>2021-02-27T11:37:00Z</time>
      </trkpt>
      <trkpt lat="45.24057" lon="6.09685">
        <ele>2458</ele>
        <time>2021-02-27T11:37:01Z</time>
      </trkpt>
      <trkpt lat="45.24059" lon="6.09685">
        <ele>2458.2</ele>
        <time>2021-02-27T11:37:02Z</time>
      </trkpt>
      <trkpt lat="45.24059" lon="6.09685">
        <ele>2458</ele>
        <time>2021-02-27T11:37:03Z</time>
      </trkpt>
      <trkpt lat="45.24059" lon="6.09685">
        <ele>2458</ele>
        <time>2021-02-27T11:37:04Z</time>
      </trkpt>
      <trkpt lat="45.24061" lon="6.09684">
        <ele>2458.2</ele>
        <time>2021-02-27T11:37:05Z</time>
      </trkpt>
      <trkpt lat="45.24061" lon="6.09684">
        <ele>2458.6</ele>
        <time>2021-02-27T11:37:06Z</time>
      </trkpt>
      <trkpt lat="45.24061" lon="6.09684">
        <ele>2459.4</ele>
        <time>2021-02-27T11:37:07Z</time>
      </trkpt>
      <trkpt lat="45.24063" lon="6.09683">
        <ele>2459.6</ele>
        <time>2021-02-27T11:37:08Z</time>
      </trkpt>
      <trkpt lat="45.24063" lon="6.09683">
        <ele>2460.2</ele>
        <time>2021-02-27T11:37:09Z</time>
      </trkpt>
      <trkpt lat="45.24063" lon="6.09683">
        <ele>2460.6</ele>
        <time>2021-02-27T11:37:10Z</time>
      </trkpt>
      <trkpt lat="45.24064" lon="6.09686">
        <ele>2461</ele>
        <time>2021-02-27T11:37:11Z</time>
      </trkpt>
      <trkpt lat="45.24064" lon="6.09686">
        <ele>2462.2</ele>
        <time>2021-02-27T11:37:12Z</time>
      </trkpt>
      <trkpt lat="45.24064" lon="6.09686">
        <ele>2463</ele>
        <time>2021-02-27T11:37:13Z</time>
      </trkpt>
      <trkpt lat="45.24064" lon="6.09686">
        <ele>2462.6</ele>
        <time>2021-02-27T11:37:14Z</time>
      </trkpt>
      <trkpt lat="45.24063" lon="6.09689">
        <ele>2463.2</ele>
        <time>2021-02-27T11:37:15Z</time>
      </trkpt>
      <trkpt lat="45.24063" lon="6.09689">
        <ele>2463.6</ele>
        <time>2021-02-27T11:37:16Z</time>
      </trkpt>
      <trkpt lat="45.24062" lon="6.09691">
        <ele>2464</ele>
        <time>2021-02-27T11:37:17Z</time>
      </trkpt>
      <trkpt lat="45.24062" lon="6.09691">
        <ele>2464.6</ele>
        <time>2021-02-27T11:37:18Z</time>
      </trkpt>
      <trkpt lat="45.24061" lon="6.09694">
        <ele>2465.2</ele>
        <time>2021-02-27T11:37:19Z</time>
      </trkpt>
      <trkpt lat="45.24061" lon="6.09694">
        <ele>2465</ele>
        <time>2021-02-27T11:37:20Z</time>
      </trkpt>
      <trkpt lat="45.24059" lon="6.09696">
        <ele>2465.8</ele>
        <time>2021-02-27T11:37:21Z</time>
      </trkpt>
      <trkpt lat="45.24059" lon="6.09696">
        <ele>2465.8</ele>
        <time>2021-02-27T11:37:22Z</time>
      </trkpt>
      <trkpt lat="45.24058" lon="6.09698">
        <ele>2466</ele>
        <time>2021-02-27T11:37:23Z</time>
      </trkpt>
      <trkpt lat="45.24058" lon="6.09698">
        <ele>2466</ele>
        <time>2021-02-27T11:37:24Z</time>
      </trkpt>
      <trkpt lat="45.24058" lon="6.09698">
        <ele>2465.8</ele>
        <time>2021-02-27T11:37:25Z</time>
      </trkpt>
      <trkpt lat="45.24058" lon="6.09698">
        <ele>2465.8</ele>
        <time>2021-02-27T11:37:26Z</time>
      </trkpt>
      <trkpt lat="45.24056" lon="6.097">
        <ele>2465.8</ele>
        <time>2021-02-27T11:37:27Z</time>
      </trkpt>
      <trkpt lat="45.24056" lon="6.097">
        <ele>2465.4</ele>
        <time>2021-02-27T11:37:28Z</time>
      </trkpt>
      <trkpt lat="45.24056" lon="6.097">
        <ele>2465.4</ele>
        <time>2021-02-27T11:37:29Z</time>
      </trkpt>
      <trkpt lat="45.24055" lon="6.09702">
        <ele>2465.6</ele>
        <time>2021-02-27T11:37:30Z</time>
      </trkpt>
      <trkpt lat="45.24055" lon="6.09702">
        <ele>2465.4</ele>
        <time>2021-02-27T11:37:31Z</time>
      </trkpt>
      <trkpt lat="45.24055" lon="6.09702">
        <ele>2466.2</ele>
        <time>2021-02-27T11:37:32Z</time>
      </trkpt>
      <trkpt lat="45.24053" lon="6.09705">
        <ele>2466.4</ele>
        <time>2021-02-27T11:37:33Z</time>
      </trkpt>
      <trkpt lat="45.24053" lon="6.09705">
        <ele>2467.2</ele>
        <time>2021-02-27T11:37:34Z</time>
      </trkpt>
      <trkpt lat="45.24053" lon="6.09705">
        <ele>2467.8</ele>
        <time>2021-02-27T11:37:35Z</time>
      </trkpt>
      <trkpt lat="45.24051" lon="6.09708">
        <ele>2467.8</ele>
        <time>2021-02-27T11:37:36Z</time>
      </trkpt>
      <trkpt lat="45.24051" lon="6.09708">
        <ele>2468.2</ele>
        <time>2021-02-27T11:37:37Z</time>
      </trkpt>
      <trkpt lat="45.24051" lon="6.09708">
        <ele>2468.8</ele>
        <time>2021-02-27T11:37:38Z</time>
      </trkpt>
      <trkpt lat="45.24049" lon="6.0971">
        <ele>2469</ele>
        <time>2021-02-27T11:37:39Z</time>
      </trkpt>
      <trkpt lat="45.24049" lon="6.0971">
        <ele>2469.6</ele>
        <time>2021-02-27T11:37:40Z</time>
      </trkpt>
      <trkpt lat="45.24048" lon="6.09712">
        <ele>2470.4</ele>
        <time>2021-02-27T11:37:41Z</time>
      </trkpt>
      <trkpt lat="45.24048" lon="6.09712">
        <ele>2470.6</ele>
        <time>2021-02-27T11:37:42Z</time>
      </trkpt>
      <trkpt lat="45.24046" lon="6.09714">
        <ele>2471</ele>
        <time>2021-02-27T11:37:43Z</time>
      </trkpt>
      <trkpt lat="45.24046" lon="6.09714">
        <ele>2472.2</ele>
        <time>2021-02-27T11:37:44Z</time>
      </trkpt>
      <trkpt lat="45.24044" lon="6.09716">
        <ele>2473</ele>
        <time>2021-02-27T11:37:45Z</time>
      </trkpt>
      <trkpt lat="45.24044" lon="6.09716">
        <ele>2473.6</ele>
        <time>2021-02-27T11:37:46Z</time>
      </trkpt>
      <trkpt lat="45.24042" lon="6.09717">
        <ele>2474.4</ele>
        <time>2021-02-27T11:37:47Z</time>
      </trkpt>
      <trkpt lat="45.24042" lon="6.09717">
        <ele>2474.2</ele>
        <time>2021-02-27T11:37:48Z</time>
      </trkpt>
      <trkpt lat="45.24042" lon="6.09717">
        <ele>2474.4</ele>
        <time>2021-02-27T11:37:49Z</time>
      </trkpt>
      <trkpt lat="45.2404" lon="6.09719">
        <ele>2474.8</ele>
        <time>2021-02-27T11:37:50Z</time>
      </trkpt>
      <trkpt lat="45.2404" lon="6.09719">
        <ele>2474.6</ele>
        <time>2021-02-27T11:37:51Z</time>
      </trkpt>
      <trkpt lat="45.2404" lon="6.09719">
        <ele>2474.8</ele>
        <time>2021-02-27T11:37:52Z</time>
      </trkpt>
      <trkpt lat="45.24038" lon="6.0972">
        <ele>2474.8</ele>
        <time>2021-02-27T11:37:53Z</time>
      </trkpt>
      <trkpt lat="45.24038" lon="6.0972">
        <ele>2474.8</ele>
        <time>2021-02-27T11:37:54Z</time>
      </trkpt>
      <trkpt lat="45.24038" lon="6.0972">
        <ele>2475</ele>
        <time>2021-02-27T11:37:55Z</time>
      </trkpt>
      <trkpt lat="45.24036" lon="6.09721">
        <ele>2475.2</ele>
        <time>2021-02-27T11:37:56Z</time>
      </trkpt>
      <trkpt lat="45.24036" lon="6.09721">
        <ele>2475.2</ele>
        <time>2021-02-27T11:37:57Z</time>
      </trkpt>
      <trkpt lat="45.24036" lon="6.09721">
        <ele>2475.4</ele>
        <time>2021-02-27T11:37:58Z</time>
      </trkpt>
      <trkpt lat="45.24034" lon="6.09723">
        <ele>2476</ele>
        <time>2021-02-27T11:37:59Z</time>
      </trkpt>
      <trkpt lat="45.24034" lon="6.09723">
        <ele>2475.8</ele>
        <time>2021-02-27T11:38:00Z</time>
      </trkpt>
      <trkpt lat="45.24034" lon="6.09723">
        <ele>2476.2</ele>
        <time>2021-02-27T11:38:01Z</time>
      </trkpt>
      <trkpt lat="45.24033" lon="6.09725">
        <ele>2476.6</ele>
        <time>2021-02-27T11:38:02Z</time>
      </trkpt>
      <trkpt lat="45.24033" lon="6.09725">
        <ele>2476.8</ele>
        <time>2021-02-27T11:38:03Z</time>
      </trkpt>
      <trkpt lat="45.24031" lon="6.09727">
        <ele>2476.6</ele>
        <time>2021-02-27T11:38:04Z</time>
      </trkpt>
      <trkpt lat="45.24031" lon="6.09727">
        <ele>2477.2</ele>
        <time>2021-02-27T11:38:05Z</time>
      </trkpt>
      <trkpt lat="45.2403" lon="6.09729">
        <ele>2477.6</ele>
        <time>2021-02-27T11:38:06Z</time>
      </trkpt>
      <trkpt lat="45.2403" lon="6.09729">
        <ele>2477.4</ele>
        <time>2021-02-27T11:38:07Z</time>
      </trkpt>
      <trkpt lat="45.2403" lon="6.09729">
        <ele>2477.8</ele>
        <time>2021-02-27T11:38:08Z</time>
      </trkpt>
      <trkpt lat="45.24028" lon="6.09731">
        <ele>2478</ele>
        <time>2021-02-27T11:38:09Z</time>
      </trkpt>
      <trkpt lat="45.24028" lon="6.09731">
        <ele>2477.8</ele>
        <time>2021-02-27T11:38:10Z</time>
      </trkpt>
      <trkpt lat="45.24028" lon="6.09731">
        <ele>2478.6</ele>
        <time>2021-02-27T11:38:11Z</time>
      </trkpt>
      <trkpt lat="45.24026" lon="6.09733">
        <ele>2478.6</ele>
        <time>2021-02-27T11:38:12Z</time>
      </trkpt>
      <trkpt lat="45.24026" lon="6.09733">
        <ele>2478.8</ele>
        <time>2021-02-27T11:38:13Z</time>
      </trkpt>
      <trkpt lat="45.24026" lon="6.09733">
        <ele>2479.8</ele>
        <time>2021-02-27T11:38:14Z</time>
      </trkpt>
      <trkpt lat="45.24026" lon="6.09733">
        <ele>2480</ele>
        <time>2021-02-27T11:38:15Z</time>
      </trkpt>
      <trkpt lat="45.24025" lon="6.09736">
        <ele>2479.8</ele>
        <time>2021-02-27T11:38:16Z</time>
      </trkpt>
      <trkpt lat="45.24025" lon="6.09736">
        <ele>2480.2</ele>
        <time>2021-02-27T11:38:17Z</time>
      </trkpt>
      <trkpt lat="45.24025" lon="6.09736">
        <ele>2481</ele>
        <time>2021-02-27T11:38:18Z</time>
      </trkpt>
      <trkpt lat="45.24025" lon="6.09736">
        <ele>2481.4</ele>
        <time>2021-02-27T11:38:19Z</time>
      </trkpt>
      <trkpt lat="45.24025" lon="6.09736">
        <ele>2481.6</ele>
        <time>2021-02-27T11:38:20Z</time>
      </trkpt>
      <trkpt lat="45.24026" lon="6.09738">
        <ele>2482.6</ele>
        <time>2021-02-27T11:38:21Z</time>
      </trkpt>
      <trkpt lat="45.24026" lon="6.09738">
        <ele>2482.4</ele>
        <time>2021-02-27T11:38:22Z</time>
      </trkpt>
      <trkpt lat="45.24026" lon="6.09738">
        <ele>2482.2</ele>
        <time>2021-02-27T11:38:23Z</time>
      </trkpt>
      <trkpt lat="45.24029" lon="6.0974">
        <ele>2482.4</ele>
        <time>2021-02-27T11:38:24Z</time>
      </trkpt>
      <trkpt lat="45.24029" lon="6.0974">
        <ele>2482.6</ele>
        <time>2021-02-27T11:38:25Z</time>
      </trkpt>
      <trkpt lat="45.2403" lon="6.09742">
        <ele>2482.2</ele>
        <time>2021-02-27T11:38:26Z</time>
      </trkpt>
      <trkpt lat="45.2403" lon="6.09742">
        <ele>2483</ele>
        <time>2021-02-27T11:38:27Z</time>
      </trkpt>
      <trkpt lat="45.24032" lon="6.09744">
        <ele>2482.8</ele>
        <time>2021-02-27T11:38:28Z</time>
      </trkpt>
      <trkpt lat="45.24032" lon="6.09744">
        <ele>2483</ele>
        <time>2021-02-27T11:38:29Z</time>
      </trkpt>
      <trkpt lat="45.24033" lon="6.09746">
        <ele>2483.4</ele>
        <time>2021-02-27T11:38:30Z</time>
      </trkpt>
      <trkpt lat="45.24033" lon="6.09746">
        <ele>2483.4</ele>
        <time>2021-02-27T11:38:31Z</time>
      </trkpt>
      <trkpt lat="45.24033" lon="6.09746">
        <ele>2483.2</ele>
        <time>2021-02-27T11:38:32Z</time>
      </trkpt>
      <trkpt lat="45.24035" lon="6.09748">
        <ele>2483.4</ele>
        <time>2021-02-27T11:38:33Z</time>
      </trkpt>
      <trkpt lat="45.24035" lon="6.09748">
        <ele>2483.2</ele>
        <time>2021-02-27T11:38:34Z</time>
      </trkpt>
      <trkpt lat="45.24035" lon="6.09748">
        <ele>2483.2</ele>
        <time>2021-02-27T11:38:35Z</time>
      </trkpt>
      <trkpt lat="45.24038" lon="6.0975">
        <ele>2483.4</ele>
        <time>2021-02-27T11:38:36Z</time>
      </trkpt>
      <trkpt lat="45.24038" lon="6.0975">
        <ele>2483.2</ele>
        <time>2021-02-27T11:38:37Z</time>
      </trkpt>
      <trkpt lat="45.24039" lon="6.0975">
        <ele>2483.6</ele>
        <time>2021-02-27T11:38:38Z</time>
      </trkpt>
      <trkpt lat="45.24039" lon="6.0975">
        <ele>2484</ele>
        <time>2021-02-27T11:38:39Z</time>
      </trkpt>
      <trkpt lat="45.24041" lon="6.09751">
        <ele>2484.2</ele>
        <time>2021-02-27T11:38:40Z</time>
      </trkpt>
      <trkpt lat="45.24041" lon="6.09751">
        <ele>2484</ele>
        <time>2021-02-27T11:38:41Z</time>
      </trkpt>
      <trkpt lat="45.24041" lon="6.09751">
        <ele>2484.2</ele>
        <time>2021-02-27T11:38:42Z</time>
      </trkpt>
      <trkpt lat="45.24041" lon="6.09751">
        <ele>2484.6</ele>
        <time>2021-02-27T11:38:43Z</time>
      </trkpt>
      <trkpt lat="45.24041" lon="6.09754">
        <ele>2485</ele>
        <time>2021-02-27T11:38:44Z</time>
      </trkpt>
      <trkpt lat="45.24041" lon="6.09754">
        <ele>2485</ele>
        <time>2021-02-27T11:38:45Z</time>
      </trkpt>
      <trkpt lat="45.24041" lon="6.09754">
        <ele>2485.6</ele>
        <time>2021-02-27T11:38:46Z</time>
      </trkpt>
      <trkpt lat="45.24039" lon="6.09757">
        <ele>2485.6</ele>
        <time>2021-02-27T11:38:47Z</time>
      </trkpt>
      <trkpt lat="45.24039" lon="6.09757">
        <ele>2486</ele>
        <time>2021-02-27T11:38:48Z</time>
      </trkpt>
      <trkpt lat="45.24039" lon="6.09757">
        <ele>2486.8</ele>
        <time>2021-02-27T11:38:49Z</time>
      </trkpt>
      <trkpt lat="45.24038" lon="6.09759">
        <ele>2487.2</ele>
        <time>2021-02-27T11:38:50Z</time>
      </trkpt>
      <trkpt lat="45.24038" lon="6.09759">
        <ele>2487.6</ele>
        <time>2021-02-27T11:38:51Z</time>
      </trkpt>
      <trkpt lat="45.24036" lon="6.09761">
        <ele>2487.8</ele>
        <time>2021-02-27T11:38:52Z</time>
      </trkpt>
      <trkpt lat="45.24036" lon="6.09761">
        <ele>2488.2</ele>
        <time>2021-02-27T11:38:53Z</time>
      </trkpt>
      <trkpt lat="45.24034" lon="6.09762">
        <ele>2488.6</ele>
        <time>2021-02-27T11:38:54Z</time>
      </trkpt>
      <trkpt lat="45.24034" lon="6.09762">
        <ele>2489.2</ele>
        <time>2021-02-27T11:38:55Z</time>
      </trkpt>
      <trkpt lat="45.24034" lon="6.09762">
        <ele>2489.6</ele>
        <time>2021-02-27T11:38:56Z</time>
      </trkpt>
      <trkpt lat="45.24032" lon="6.09764">
        <ele>2489.6</ele>
        <time>2021-02-27T11:38:57Z</time>
      </trkpt>
      <trkpt lat="45.24032" lon="6.09764">
        <ele>2490</ele>
        <time>2021-02-27T11:38:58Z</time>
      </trkpt>
      <trkpt lat="45.2403" lon="6.09766">
        <ele>2490.6</ele>
        <time>2021-02-27T11:38:59Z</time>
      </trkpt>
      <trkpt lat="45.2403" lon="6.09766">
        <ele>2490.6</ele>
        <time>2021-02-27T11:39:00Z</time>
      </trkpt>
      <trkpt lat="45.2403" lon="6.09766">
        <ele>2490.8</ele>
        <time>2021-02-27T11:39:01Z</time>
      </trkpt>
      <trkpt lat="45.24027" lon="6.09768">
        <ele>2491.6</ele>
        <time>2021-02-27T11:39:02Z</time>
      </trkpt>
      <trkpt lat="45.24027" lon="6.09768">
        <ele>2491.8</ele>
        <time>2021-02-27T11:39:03Z</time>
      </trkpt>
      <trkpt lat="45.24027" lon="6.09768">
        <ele>2492.2</ele>
        <time>2021-02-27T11:39:04Z</time>
      </trkpt>
      <trkpt lat="45.24026" lon="6.09771">
        <ele>2492.6</ele>
        <time>2021-02-27T11:39:05Z</time>
      </trkpt>
      <trkpt lat="45.24026" lon="6.09771">
        <ele>2493</ele>
        <time>2021-02-27T11:39:06Z</time>
      </trkpt>
      <trkpt lat="45.24026" lon="6.09771">
        <ele>2493.2</ele>
        <time>2021-02-27T11:39:07Z</time>
      </trkpt>
      <trkpt lat="45.24024" lon="6.09773">
        <ele>2493.6</ele>
        <time>2021-02-27T11:39:08Z</time>
      </trkpt>
      <trkpt lat="45.24024" lon="6.09773">
        <ele>2493.8</ele>
        <time>2021-02-27T11:39:09Z</time>
      </trkpt>
      <trkpt lat="45.24024" lon="6.09773">
        <ele>2494</ele>
        <time>2021-02-27T11:39:10Z</time>
      </trkpt>
      <trkpt lat="45.24022" lon="6.09774">
        <ele>2494.2</ele>
        <time>2021-02-27T11:39:11Z</time>
      </trkpt>
      <trkpt lat="45.24022" lon="6.09774">
        <ele>2494.4</ele>
        <time>2021-02-27T11:39:12Z</time>
      </trkpt>
      <trkpt lat="45.24022" lon="6.09774">
        <ele>2494</ele>
        <time>2021-02-27T11:39:13Z</time>
      </trkpt>
      <trkpt lat="45.2402" lon="6.09776">
        <ele>2494.2</ele>
        <time>2021-02-27T11:39:14Z</time>
      </trkpt>
      <trkpt lat="45.2402" lon="6.09776">
        <ele>2494.6</ele>
        <time>2021-02-27T11:39:15Z</time>
      </trkpt>
      <trkpt lat="45.2402" lon="6.09776">
        <ele>2494.2</ele>
        <time>2021-02-27T11:39:16Z</time>
      </trkpt>
      <trkpt lat="45.24018" lon="6.09778">
        <ele>2494.6</ele>
        <time>2021-02-27T11:39:17Z</time>
      </trkpt>
      <trkpt lat="45.24018" lon="6.09778">
        <ele>2494.8</ele>
        <time>2021-02-27T11:39:18Z</time>
      </trkpt>
      <trkpt lat="45.24018" lon="6.09778">
        <ele>2494.6</ele>
        <time>2021-02-27T11:39:19Z</time>
      </trkpt>
      <trkpt lat="45.24016" lon="6.0978">
        <ele>2495</ele>
        <time>2021-02-27T11:39:20Z</time>
      </trkpt>
      <trkpt lat="45.24016" lon="6.0978">
        <ele>2495.2</ele>
        <time>2021-02-27T11:39:21Z</time>
      </trkpt>
      <trkpt lat="45.24016" lon="6.0978">
        <ele>2495.2</ele>
        <time>2021-02-27T11:39:22Z</time>
      </trkpt>
      <trkpt lat="45.24016" lon="6.0978">
        <ele>2495</ele>
        <time>2021-02-27T11:39:23Z</time>
      </trkpt>
      <trkpt lat="45.24019" lon="6.09781">
        <ele>2494.8</ele>
        <time>2021-02-27T11:39:24Z</time>
      </trkpt>
      <trkpt lat="45.24019" lon="6.09781">
        <ele>2495.8</ele>
        <time>2021-02-27T11:39:25Z</time>
      </trkpt>
      <trkpt lat="45.24021" lon="6.09782">
        <ele>2496</ele>
        <time>2021-02-27T11:39:26Z</time>
      </trkpt>
      <trkpt lat="45.24021" lon="6.09782">
        <ele>2495.8</ele>
        <time>2021-02-27T11:39:27Z</time>
      </trkpt>
      <trkpt lat="45.24024" lon="6.09784">
        <ele>2496.6</ele>
        <time>2021-02-27T11:39:28Z</time>
      </trkpt>
      <trkpt lat="45.24024" lon="6.09784">
        <ele>2496.8</ele>
        <time>2021-02-27T11:39:29Z</time>
      </trkpt>
      <trkpt lat="45.24026" lon="6.09784">
        <ele>2496.6</ele>
        <time>2021-02-27T11:39:30Z</time>
      </trkpt>
      <trkpt lat="45.24026" lon="6.09784">
        <ele>2496.8</ele>
        <time>2021-02-27T11:39:31Z</time>
      </trkpt>
      <trkpt lat="45.24026" lon="6.09784">
        <ele>2497.2</ele>
        <time>2021-02-27T11:39:32Z</time>
      </trkpt>
      <trkpt lat="45.24028" lon="6.09786">
        <ele>2497.4</ele>
        <time>2021-02-27T11:39:33Z</time>
      </trkpt>
      <trkpt lat="45.24028" lon="6.09786">
        <ele>2497.4</ele>
        <time>2021-02-27T11:39:34Z</time>
      </trkpt>
      <trkpt lat="45.2403" lon="6.09787">
        <ele>2497.6</ele>
        <time>2021-02-27T11:39:35Z</time>
      </trkpt>
      <trkpt lat="45.2403" lon="6.09787">
        <ele>2497.2</ele>
        <time>2021-02-27T11:39:36Z</time>
      </trkpt>
      <trkpt lat="45.2403" lon="6.09787">
        <ele>2497</ele>
        <time>2021-02-27T11:39:37Z</time>
      </trkpt>
      <trkpt lat="45.24032" lon="6.09788">
        <ele>2497.2</ele>
        <time>2021-02-27T11:39:38Z</time>
      </trkpt>
      <trkpt lat="45.24032" lon="6.09788">
        <ele>2497</ele>
        <time>2021-02-27T11:39:39Z</time>
      </trkpt>
      <trkpt lat="45.24035" lon="6.09789">
        <ele>2497.2</ele>
        <time>2021-02-27T11:39:40Z</time>
      </trkpt>
      <trkpt lat="45.24035" lon="6.09789">
        <ele>2497.4</ele>
        <time>2021-02-27T11:39:41Z</time>
      </trkpt>
      <trkpt lat="45.24036" lon="6.0979">
        <ele>2497.6</ele>
        <time>2021-02-27T11:39:42Z</time>
      </trkpt>
      <trkpt lat="45.24036" lon="6.0979">
        <ele>2497.6</ele>
        <time>2021-02-27T11:39:43Z</time>
      </trkpt>
      <trkpt lat="45.24036" lon="6.0979">
        <ele>2497.6</ele>
        <time>2021-02-27T11:39:44Z</time>
      </trkpt>
      <trkpt lat="45.24039" lon="6.0979">
        <ele>2497.8</ele>
        <time>2021-02-27T11:39:45Z</time>
      </trkpt>
      <trkpt lat="45.24039" lon="6.0979">
        <ele>2497.8</ele>
        <time>2021-02-27T11:39:46Z</time>
      </trkpt>
      <trkpt lat="45.24041" lon="6.0979">
        <ele>2498.2</ele>
        <time>2021-02-27T11:39:47Z</time>
      </trkpt>
      <trkpt lat="45.24041" lon="6.0979">
        <ele>2498.2</ele>
        <time>2021-02-27T11:39:48Z</time>
      </trkpt>
      <trkpt lat="45.24043" lon="6.0979">
        <ele>2498.2</ele>
        <time>2021-02-27T11:39:49Z</time>
      </trkpt>
      <trkpt lat="45.24043" lon="6.0979">
        <ele>2498.4</ele>
        <time>2021-02-27T11:39:50Z</time>
      </trkpt>
      <trkpt lat="45.24043" lon="6.0979">
        <ele>2498.6</ele>
        <time>2021-02-27T11:39:51Z</time>
      </trkpt>
      <trkpt lat="45.24045" lon="6.09789">
        <ele>2498.6</ele>
        <time>2021-02-27T11:39:52Z</time>
      </trkpt>
      <trkpt lat="45.24045" lon="6.09789">
        <ele>2498.8</ele>
        <time>2021-02-27T11:39:53Z</time>
      </trkpt>
      <trkpt lat="45.24045" lon="6.09789">
        <ele>2498.6</ele>
        <time>2021-02-27T11:39:54Z</time>
      </trkpt>
      <trkpt lat="45.24047" lon="6.09789">
        <ele>2499</ele>
        <time>2021-02-27T11:39:55Z</time>
      </trkpt>
      <trkpt lat="45.24047" lon="6.09789">
        <ele>2498.6</ele>
        <time>2021-02-27T11:39:56Z</time>
      </trkpt>
      <trkpt lat="45.24047" lon="6.09789">
        <ele>2499</ele>
        <time>2021-02-27T11:39:57Z</time>
      </trkpt>
      <trkpt lat="45.24047" lon="6.09792">
        <ele>2499</ele>
        <time>2021-02-27T11:39:58Z</time>
      </trkpt>
      <trkpt lat="45.24047" lon="6.09792">
        <ele>2498.8</ele>
        <time>2021-02-27T11:39:59Z</time>
      </trkpt>
      <trkpt lat="45.24047" lon="6.09792">
        <ele>2499</ele>
        <time>2021-02-27T11:40:00Z</time>
      </trkpt>
      <trkpt lat="45.24045" lon="6.09795">
        <ele>2499</ele>
        <time>2021-02-27T11:40:01Z</time>
      </trkpt>
      <trkpt lat="45.24045" lon="6.09795">
        <ele>2499</ele>
        <time>2021-02-27T11:40:02Z</time>
      </trkpt>
      <trkpt lat="45.24044" lon="6.09798">
        <ele>2499.6</ele>
        <time>2021-02-27T11:40:03Z</time>
      </trkpt>
      <trkpt lat="45.24044" lon="6.09798">
        <ele>2499.6</ele>
        <time>2021-02-27T11:40:04Z</time>
      </trkpt>
      <trkpt lat="45.24044" lon="6.09798">
        <ele>2499.8</ele>
        <time>2021-02-27T11:40:05Z</time>
      </trkpt>
      <trkpt lat="45.24042" lon="6.098">
        <ele>2500.4</ele>
        <time>2021-02-27T11:40:06Z</time>
      </trkpt>
      <trkpt lat="45.24042" lon="6.098">
        <ele>2500</ele>
        <time>2021-02-27T11:40:07Z</time>
      </trkpt>
      <trkpt lat="45.24042" lon="6.098">
        <ele>2499.4</ele>
        <time>2021-02-27T11:40:08Z</time>
      </trkpt>
      <trkpt lat="45.24041" lon="6.09802">
        <ele>2500.2</ele>
        <time>2021-02-27T11:40:09Z</time>
      </trkpt>
      <trkpt lat="45.24041" lon="6.09802">
        <ele>2500.6</ele>
        <time>2021-02-27T11:40:10Z</time>
      </trkpt>
      <trkpt lat="45.24041" lon="6.09802">
        <ele>2500.8</ele>
        <time>2021-02-27T11:40:11Z</time>
      </trkpt>
      <trkpt lat="45.24039" lon="6.09804">
        <ele>2501.4</ele>
        <time>2021-02-27T11:40:12Z</time>
      </trkpt>
      <trkpt lat="45.24039" lon="6.09804">
        <ele>2501.4</ele>
        <time>2021-02-27T11:40:13Z</time>
      </trkpt>
      <trkpt lat="45.24039" lon="6.09804">
        <ele>2501.6</ele>
        <time>2021-02-27T11:40:14Z</time>
      </trkpt>
      <trkpt lat="45.24036" lon="6.09807">
        <ele>2502.4</ele>
        <time>2021-02-27T11:40:15Z</time>
      </trkpt>
      <trkpt lat="45.24036" lon="6.09807">
        <ele>2502.2</ele>
        <time>2021-02-27T11:40:16Z</time>
      </trkpt>
      <trkpt lat="45.24035" lon="6.09809">
        <ele>2503</ele>
        <time>2021-02-27T11:40:17Z</time>
      </trkpt>
      <trkpt lat="45.24035" lon="6.09809">
        <ele>2503.4</ele>
        <time>2021-02-27T11:40:18Z</time>
      </trkpt>
      <trkpt lat="45.24035" lon="6.09809">
        <ele>2503.2</ele>
        <time>2021-02-27T11:40:19Z</time>
      </trkpt>
      <trkpt lat="45.24035" lon="6.09809">
        <ele>2503.8</ele>
        <time>2021-02-27T11:40:20Z</time>
      </trkpt>
      <trkpt lat="45.24033" lon="6.09811">
        <ele>2504.4</ele>
        <time>2021-02-27T11:40:21Z</time>
      </trkpt>
      <trkpt lat="45.24033" lon="6.09811">
        <ele>2504.8</ele>
        <time>2021-02-27T11:40:22Z</time>
      </trkpt>
      <trkpt lat="45.24033" lon="6.09811">
        <ele>2505.4</ele>
        <time>2021-02-27T11:40:23Z</time>
      </trkpt>
      <trkpt lat="45.24033" lon="6.09811">
        <ele>2505.8</ele>
        <time>2021-02-27T11:40:24Z</time>
      </trkpt>
      <trkpt lat="45.24036" lon="6.09811">
        <ele>2506</ele>
        <time>2021-02-27T11:40:25Z</time>
      </trkpt>
      <trkpt lat="45.24036" lon="6.09811">
        <ele>2506.2</ele>
        <time>2021-02-27T11:40:26Z</time>
      </trkpt>
      <trkpt lat="45.24036" lon="6.09811">
        <ele>2506.2</ele>
        <time>2021-02-27T11:40:27Z</time>
      </trkpt>
      <trkpt lat="45.24038" lon="6.09812">
        <ele>2506.2</ele>
        <time>2021-02-27T11:40:28Z</time>
      </trkpt>
      <trkpt lat="45.24038" lon="6.09812">
        <ele>2506.4</ele>
        <time>2021-02-27T11:40:29Z</time>
      </trkpt>
      <trkpt lat="45.24038" lon="6.09812">
        <ele>2506.6</ele>
        <time>2021-02-27T11:40:30Z</time>
      </trkpt>
      <trkpt lat="45.24041" lon="6.09812">
        <ele>2506.8</ele>
        <time>2021-02-27T11:40:31Z</time>
      </trkpt>
      <trkpt lat="45.24041" lon="6.09812">
        <ele>2507.2</ele>
        <time>2021-02-27T11:40:32Z</time>
      </trkpt>
      <trkpt lat="45.24041" lon="6.09812">
        <ele>2507.2</ele>
        <time>2021-02-27T11:40:33Z</time>
      </trkpt>
      <trkpt lat="45.24044" lon="6.09812">
        <ele>2507.4</ele>
        <time>2021-02-27T11:40:34Z</time>
      </trkpt>
      <trkpt lat="45.24044" lon="6.09812">
        <ele>2507.4</ele>
        <time>2021-02-27T11:40:35Z</time>
      </trkpt>
      <trkpt lat="45.24044" lon="6.09812">
        <ele>2507.4</ele>
        <time>2021-02-27T11:40:36Z</time>
      </trkpt>
      <trkpt lat="45.24047" lon="6.09811">
        <ele>2507.4</ele>
        <time>2021-02-27T11:40:37Z</time>
      </trkpt>
      <trkpt lat="45.24047" lon="6.09811">
        <ele>2507.6</ele>
        <time>2021-02-27T11:40:38Z</time>
      </trkpt>
      <trkpt lat="45.24048" lon="6.09811">
        <ele>2507.4</ele>
        <time>2021-02-27T11:40:39Z</time>
      </trkpt>
      <trkpt lat="45.24048" lon="6.09811">
        <ele>2507.6</ele>
        <time>2021-02-27T11:40:40Z</time>
      </trkpt>
      <trkpt lat="45.24048" lon="6.09811">
        <ele>2507.8</ele>
        <time>2021-02-27T11:40:41Z</time>
      </trkpt>
      <trkpt lat="45.24048" lon="6.09811">
        <ele>2507.8</ele>
        <time>2021-02-27T11:40:42Z</time>
      </trkpt>
      <trkpt lat="45.24048" lon="6.09811">
        <ele>2508.4</ele>
        <time>2021-02-27T11:40:43Z</time>
      </trkpt>
      <trkpt lat="45.24048" lon="6.09811">
        <ele>2508.6</ele>
        <time>2021-02-27T11:40:44Z</time>
      </trkpt>
      <trkpt lat="45.24048" lon="6.09814">
        <ele>2508.6</ele>
        <time>2021-02-27T11:40:45Z</time>
      </trkpt>
      <trkpt lat="45.24048" lon="6.09814">
        <ele>2508.6</ele>
        <time>2021-02-27T11:40:46Z</time>
      </trkpt>
      <trkpt lat="45.24046" lon="6.09816">
        <ele>2508.4</ele>
        <time>2021-02-27T11:40:47Z</time>
      </trkpt>
      <trkpt lat="45.24046" lon="6.09816">
        <ele>2508.6</ele>
        <time>2021-02-27T11:40:48Z</time>
      </trkpt>
      <trkpt lat="45.24045" lon="6.09818">
        <ele>2509</ele>
        <time>2021-02-27T11:40:49Z</time>
      </trkpt>
      <trkpt lat="45.24045" lon="6.09818">
        <ele>2509.2</ele>
        <time>2021-02-27T11:40:50Z</time>
      </trkpt>
      <trkpt lat="45.24043" lon="6.0982">
        <ele>2509.2</ele>
        <time>2021-02-27T11:40:51Z</time>
      </trkpt>
      <trkpt lat="45.24043" lon="6.0982">
        <ele>2509.4</ele>
        <time>2021-02-27T11:40:52Z</time>
      </trkpt>
      <trkpt lat="45.24043" lon="6.0982">
        <ele>2509.4</ele>
        <time>2021-02-27T11:40:53Z</time>
      </trkpt>
      <trkpt lat="45.24042" lon="6.09823">
        <ele>2509.4</ele>
        <time>2021-02-27T11:40:54Z</time>
      </trkpt>
      <trkpt lat="45.24042" lon="6.09823">
        <ele>2509.8</ele>
        <time>2021-02-27T11:40:55Z</time>
      </trkpt>
      <trkpt lat="45.24041" lon="6.09826">
        <ele>2509.6</ele>
        <time>2021-02-27T11:40:56Z</time>
      </trkpt>
      <trkpt lat="45.24041" lon="6.09826">
        <ele>2509.6</ele>
        <time>2021-02-27T11:40:57Z</time>
      </trkpt>
      <trkpt lat="45.24041" lon="6.09826">
        <ele>2510.2</ele>
        <time>2021-02-27T11:40:58Z</time>
      </trkpt>
      <trkpt lat="45.2404" lon="6.09828">
        <ele>2510.4</ele>
        <time>2021-02-27T11:40:59Z</time>
      </trkpt>
      <trkpt lat="45.2404" lon="6.09828">
        <ele>2511</ele>
        <time>2021-02-27T11:41:00Z</time>
      </trkpt>
      <trkpt lat="45.2404" lon="6.09828">
        <ele>2511</ele>
        <time>2021-02-27T11:41:01Z</time>
      </trkpt>
      <trkpt lat="45.2404" lon="6.09828">
        <ele>2511.2</ele>
        <time>2021-02-27T11:41:02Z</time>
      </trkpt>
      <trkpt lat="45.2404" lon="6.09828">
        <ele>2511.2</ele>
        <time>2021-02-27T11:41:03Z</time>
      </trkpt>
      <trkpt lat="45.24042" lon="6.09829">
        <ele>2511.8</ele>
        <time>2021-02-27T11:41:04Z</time>
      </trkpt>
      <trkpt lat="45.24042" lon="6.09829">
        <ele>2512</ele>
        <time>2021-02-27T11:41:05Z</time>
      </trkpt>
      <trkpt lat="45.24042" lon="6.09829">
        <ele>2512.6</ele>
        <time>2021-02-27T11:41:06Z</time>
      </trkpt>
      <trkpt lat="45.24044" lon="6.09829">
        <ele>2512.8</ele>
        <time>2021-02-27T11:41:07Z</time>
      </trkpt>
      <trkpt lat="45.24044" lon="6.09829">
        <ele>2512.6</ele>
        <time>2021-02-27T11:41:08Z</time>
      </trkpt>
      <trkpt lat="45.24044" lon="6.09829">
        <ele>2512.8</ele>
        <time>2021-02-27T11:41:09Z</time>
      </trkpt>
      <trkpt lat="45.24044" lon="6.09829">
        <ele>2512.8</ele>
        <time>2021-02-27T11:41:10Z</time>
      </trkpt>
      <trkpt lat="45.24047" lon="6.09828">
        <ele>2512.8</ele>
        <time>2021-02-27T11:41:11Z</time>
      </trkpt>
      <trkpt lat="45.24047" lon="6.09828">
        <ele>2513</ele>
        <time>2021-02-27T11:41:12Z</time>
      </trkpt>
      <trkpt lat="45.24049" lon="6.09828">
        <ele>2513.4</ele>
        <time>2021-02-27T11:41:13Z</time>
      </trkpt>
      <trkpt lat="45.24049" lon="6.09828">
        <ele>2513.8</ele>
        <time>2021-02-27T11:41:14Z</time>
      </trkpt>
      <trkpt lat="45.24049" lon="6.09828">
        <ele>2513.8</ele>
        <time>2021-02-27T11:41:15Z</time>
      </trkpt>
      <trkpt lat="45.24051" lon="6.09826">
        <ele>2514</ele>
        <time>2021-02-27T11:41:16Z</time>
      </trkpt>
      <trkpt lat="45.24051" lon="6.09826">
        <ele>2513.8</ele>
        <time>2021-02-27T11:41:17Z</time>
      </trkpt>
      <trkpt lat="45.24051" lon="6.09826">
        <ele>2514</ele>
        <time>2021-02-27T11:41:18Z</time>
      </trkpt>
      <trkpt lat="45.24053" lon="6.09825">
        <ele>2514.4</ele>
        <time>2021-02-27T11:41:19Z</time>
      </trkpt>
      <trkpt lat="45.24053" lon="6.09825">
        <ele>2515.2</ele>
        <time>2021-02-27T11:41:20Z</time>
      </trkpt>
      <trkpt lat="45.24053" lon="6.09825">
        <ele>2516</ele>
        <time>2021-02-27T11:41:21Z</time>
      </trkpt>
      <trkpt lat="45.24056" lon="6.09823">
        <ele>2516.4</ele>
        <time>2021-02-27T11:41:22Z</time>
      </trkpt>
      <trkpt lat="45.24056" lon="6.09823">
        <ele>2517.2</ele>
        <time>2021-02-27T11:41:23Z</time>
      </trkpt>
      <trkpt lat="45.24056" lon="6.09823">
        <ele>2517.6</ele>
        <time>2021-02-27T11:41:24Z</time>
      </trkpt>
      <trkpt lat="45.24058" lon="6.09823">
        <ele>2517.8</ele>
        <time>2021-02-27T11:41:25Z</time>
      </trkpt>
      <trkpt lat="45.24058" lon="6.09823">
        <ele>2517.8</ele>
        <time>2021-02-27T11:41:26Z</time>
      </trkpt>
      <trkpt lat="45.24058" lon="6.09823">
        <ele>2517.8</ele>
        <time>2021-02-27T11:41:27Z</time>
      </trkpt>
      <trkpt lat="45.24058" lon="6.09823">
        <ele>2517.8</ele>
        <time>2021-02-27T11:41:28Z</time>
      </trkpt>
      <trkpt lat="45.24058" lon="6.09823">
        <ele>2516.8</ele>
        <time>2021-02-27T11:41:29Z</time>
      </trkpt>
      <trkpt lat="45.24056" lon="6.09825">
        <ele>2517.6</ele>
        <time>2021-02-27T11:41:30Z</time>
      </trkpt>
      <trkpt lat="45.24056" lon="6.09825">
        <ele>2517.8</ele>
        <time>2021-02-27T11:41:31Z</time>
      </trkpt>
      <trkpt lat="45.24056" lon="6.09825">
        <ele>2517.2</ele>
        <time>2021-02-27T11:41:32Z</time>
      </trkpt>
      <trkpt lat="45.24055" lon="6.09828">
        <ele>2517.6</ele>
        <time>2021-02-27T11:41:33Z</time>
      </trkpt>
      <trkpt lat="45.24055" lon="6.09828">
        <ele>2517.8</ele>
        <time>2021-02-27T11:41:34Z</time>
      </trkpt>
      <trkpt lat="45.24055" lon="6.09828">
        <ele>2517.8</ele>
        <time>2021-02-27T11:41:35Z</time>
      </trkpt>
      <trkpt lat="45.24054" lon="6.09832">
        <ele>2518.8</ele>
        <time>2021-02-27T11:41:36Z</time>
      </trkpt>
      <trkpt lat="45.24054" lon="6.09832">
        <ele>2518.8</ele>
        <time>2021-02-27T11:41:37Z</time>
      </trkpt>
      <trkpt lat="45.24054" lon="6.09832">
        <ele>2519</ele>
        <time>2021-02-27T11:41:38Z</time>
      </trkpt>
      <trkpt lat="45.24055" lon="6.09835">
        <ele>2519.6</ele>
        <time>2021-02-27T11:41:39Z</time>
      </trkpt>
      <trkpt lat="45.24055" lon="6.09835">
        <ele>2519.6</ele>
        <time>2021-02-27T11:41:40Z</time>
      </trkpt>
      <trkpt lat="45.24055" lon="6.09835">
        <ele>2519.8</ele>
        <time>2021-02-27T11:41:41Z</time>
      </trkpt>
      <trkpt lat="45.24054" lon="6.09839">
        <ele>2520</ele>
        <time>2021-02-27T11:41:42Z</time>
      </trkpt>
      <trkpt lat="45.24054" lon="6.09839">
        <ele>2519.8</ele>
        <time>2021-02-27T11:41:43Z</time>
      </trkpt>
      <trkpt lat="45.24053" lon="6.09841">
        <ele>2520.2</ele>
        <time>2021-02-27T11:41:44Z</time>
      </trkpt>
      <trkpt lat="45.24053" lon="6.09841">
        <ele>2520.2</ele>
        <time>2021-02-27T11:41:45Z</time>
      </trkpt>
      <trkpt lat="45.24053" lon="6.09841">
        <ele>2520</ele>
        <time>2021-02-27T11:41:46Z</time>
      </trkpt>
      <trkpt lat="45.24051" lon="6.09844">
        <ele>2520</ele>
        <time>2021-02-27T11:41:47Z</time>
      </trkpt>
      <trkpt lat="45.24051" lon="6.09844">
        <ele>2520.4</ele>
        <time>2021-02-27T11:41:48Z</time>
      </trkpt>
      <trkpt lat="45.24051" lon="6.09844">
        <ele>2520.2</ele>
        <time>2021-02-27T11:41:49Z</time>
      </trkpt>
      <trkpt lat="45.24051" lon="6.09844">
        <ele>2519.6</ele>
        <time>2021-02-27T11:41:50Z</time>
      </trkpt>
      <trkpt lat="45.24051" lon="6.09844">
        <ele>2519.8</ele>
        <time>2021-02-27T11:41:51Z</time>
      </trkpt>
      <trkpt lat="45.24051" lon="6.09844">
        <ele>2520.6</ele>
        <time>2021-02-27T11:41:52Z</time>
      </trkpt>
      <trkpt lat="45.24051" lon="6.09844">
        <ele>2521.4</ele>
        <time>2021-02-27T11:41:53Z</time>
      </trkpt>
      <trkpt lat="45.24053" lon="6.09844">
        <ele>2521.6</ele>
        <time>2021-02-27T11:41:54Z</time>
      </trkpt>
      <trkpt lat="45.24053" lon="6.09844">
        <ele>2522.6</ele>
        <time>2021-02-27T11:41:55Z</time>
      </trkpt>
      <trkpt lat="45.24053" lon="6.09844">
        <ele>2522.8</ele>
        <time>2021-02-27T11:41:56Z</time>
      </trkpt>
      <trkpt lat="45.24055" lon="6.09843">
        <ele>2523</ele>
        <time>2021-02-27T11:41:57Z</time>
      </trkpt>
      <trkpt lat="45.24055" lon="6.09843">
        <ele>2523.2</ele>
        <time>2021-02-27T11:41:58Z</time>
      </trkpt>
      <trkpt lat="45.24057" lon="6.09842">
        <ele>2523.4</ele>
        <time>2021-02-27T11:41:59Z</time>
      </trkpt>
      <trkpt lat="45.24057" lon="6.09842">
        <ele>2523.6</ele>
        <time>2021-02-27T11:42:00Z</time>
      </trkpt>
      <trkpt lat="45.24057" lon="6.09842">
        <ele>2523.8</ele>
        <time>2021-02-27T11:42:01Z</time>
      </trkpt>
      <trkpt lat="45.24059" lon="6.0984">
        <ele>2523.6</ele>
        <time>2021-02-27T11:42:02Z</time>
      </trkpt>
      <trkpt lat="45.24059" lon="6.0984">
        <ele>2524.2</ele>
        <time>2021-02-27T11:42:03Z</time>
      </trkpt>
      <trkpt lat="45.24059" lon="6.0984">
        <ele>2524</ele>
        <time>2021-02-27T11:42:04Z</time>
      </trkpt>
      <trkpt lat="45.24061" lon="6.09838">
        <ele>2524.2</ele>
        <time>2021-02-27T11:42:05Z</time>
      </trkpt>
      <trkpt lat="45.24061" lon="6.09838">
        <ele>2524.4</ele>
        <time>2021-02-27T11:42:06Z</time>
      </trkpt>
      <trkpt lat="45.24061" lon="6.09838">
        <ele>2524.6</ele>
        <time>2021-02-27T11:42:07Z</time>
      </trkpt>
      <trkpt lat="45.24061" lon="6.09838">
        <ele>2524.4</ele>
        <time>2021-02-27T11:42:08Z</time>
      </trkpt>
      <trkpt lat="45.24061" lon="6.09838">
        <ele>2524.2</ele>
        <time>2021-02-27T11:42:09Z</time>
      </trkpt>
      <trkpt lat="45.24061" lon="6.09838">
        <ele>2524</ele>
        <time>2021-02-27T11:42:10Z</time>
      </trkpt>
      <trkpt lat="45.24061" lon="6.09838">
        <ele>2523.8</ele>
        <time>2021-02-27T11:42:11Z</time>
      </trkpt>
      <trkpt lat="45.24061" lon="6.09838">
        <ele>2523.8</ele>
        <time>2021-02-27T11:42:12Z</time>
      </trkpt>
      <trkpt lat="45.24061" lon="6.09838">
        <ele>2524</ele>
        <time>2021-02-27T11:42:13Z</time>
      </trkpt>
      <trkpt lat="45.24061" lon="6.09838">
        <ele>2523.8</ele>
        <time>2021-02-27T11:42:14Z</time>
      </trkpt>
      <trkpt lat="45.24061" lon="6.09838">
        <ele>2523.6</ele>
        <time>2021-02-27T11:42:15Z</time>
      </trkpt>
      <trkpt lat="45.24061" lon="6.09838">
        <ele>2523.2</ele>
        <time>2021-02-27T11:42:16Z</time>
      </trkpt>
      <trkpt lat="45.24063" lon="6.09836">
        <ele>2523.6</ele>
        <time>2021-02-27T11:42:17Z</time>
      </trkpt>
      <trkpt lat="45.24063" lon="6.09836">
        <ele>2524</ele>
        <time>2021-02-27T11:42:18Z</time>
      </trkpt>
      <trkpt lat="45.24063" lon="6.09836">
        <ele>2524.4</ele>
        <time>2021-02-27T11:42:19Z</time>
      </trkpt>
      <trkpt lat="45.24065" lon="6.09835">
        <ele>2524.8</ele>
        <time>2021-02-27T11:42:20Z</time>
      </trkpt>
      <trkpt lat="45.24065" lon="6.09835">
        <ele>2524.6</ele>
        <time>2021-02-27T11:42:21Z</time>
      </trkpt>
      <trkpt lat="45.24065" lon="6.09835">
        <ele>2525</ele>
        <time>2021-02-27T11:42:22Z</time>
      </trkpt>
      <trkpt lat="45.24065" lon="6.09835">
        <ele>2525.4</ele>
        <time>2021-02-27T11:42:23Z</time>
      </trkpt>
      <trkpt lat="45.24065" lon="6.09835">
        <ele>2525.6</ele>
        <time>2021-02-27T11:42:24Z</time>
      </trkpt>
      <trkpt lat="45.24066" lon="6.09838">
        <ele>2525.4</ele>
        <time>2021-02-27T11:42:25Z</time>
      </trkpt>
      <trkpt lat="45.24066" lon="6.09838">
        <ele>2525.6</ele>
        <time>2021-02-27T11:42:26Z</time>
      </trkpt>
      <trkpt lat="45.24066" lon="6.09838">
        <ele>2525.4</ele>
        <time>2021-02-27T11:42:27Z</time>
      </trkpt>
      <trkpt lat="45.24066" lon="6.09841">
        <ele>2525</ele>
        <time>2021-02-27T11:42:28Z</time>
      </trkpt>
      <trkpt lat="45.24066" lon="6.09841">
        <ele>2525.4</ele>
        <time>2021-02-27T11:42:29Z</time>
      </trkpt>
      <trkpt lat="45.24066" lon="6.09841">
        <ele>2525.6</ele>
        <time>2021-02-27T11:42:30Z</time>
      </trkpt>
      <trkpt lat="45.24066" lon="6.09841">
        <ele>2525.4</ele>
        <time>2021-02-27T11:42:31Z</time>
      </trkpt>
      <trkpt lat="45.24066" lon="6.09845">
        <ele>2526.4</ele>
        <time>2021-02-27T11:42:32Z</time>
      </trkpt>
      <trkpt lat="45.24066" lon="6.09845">
        <ele>2526.4</ele>
        <time>2021-02-27T11:42:33Z</time>
      </trkpt>
      <trkpt lat="45.24065" lon="6.09848">
        <ele>2526.2</ele>
        <time>2021-02-27T11:42:34Z</time>
      </trkpt>
      <trkpt lat="45.24065" lon="6.09848">
        <ele>2526.4</ele>
        <time>2021-02-27T11:42:35Z</time>
      </trkpt>
      <trkpt lat="45.24064" lon="6.09851">
        <ele>2526.4</ele>
        <time>2021-02-27T11:42:36Z</time>
      </trkpt>
      <trkpt lat="45.24064" lon="6.09851">
        <ele>2526.4</ele>
        <time>2021-02-27T11:42:37Z</time>
      </trkpt>
      <trkpt lat="45.24064" lon="6.09851">
        <ele>2526.6</ele>
        <time>2021-02-27T11:42:38Z</time>
      </trkpt>
      <trkpt lat="45.24063" lon="6.09854">
        <ele>2526.6</ele>
        <time>2021-02-27T11:42:39Z</time>
      </trkpt>
      <trkpt lat="45.24063" lon="6.09854">
        <ele>2526.6</ele>
        <time>2021-02-27T11:42:40Z</time>
      </trkpt>
      <trkpt lat="45.24063" lon="6.09854">
        <ele>2527</ele>
        <time>2021-02-27T11:42:41Z</time>
      </trkpt>
      <trkpt lat="45.24061" lon="6.09857">
        <ele>2527</ele>
        <time>2021-02-27T11:42:42Z</time>
      </trkpt>
      <trkpt lat="45.24061" lon="6.09857">
        <ele>2527</ele>
        <time>2021-02-27T11:42:43Z</time>
      </trkpt>
      <trkpt lat="45.24061" lon="6.09857">
        <ele>2527.6</ele>
        <time>2021-02-27T11:42:44Z</time>
      </trkpt>
      <trkpt lat="45.2406" lon="6.09859">
        <ele>2527.8</ele>
        <time>2021-02-27T11:42:45Z</time>
      </trkpt>
      <trkpt lat="45.2406" lon="6.09859">
        <ele>2528</ele>
        <time>2021-02-27T11:42:46Z</time>
      </trkpt>
      <trkpt lat="45.2406" lon="6.09859">
        <ele>2528.6</ele>
        <time>2021-02-27T11:42:47Z</time>
      </trkpt>
      <trkpt lat="45.2406" lon="6.09859">
        <ele>2528.8</ele>
        <time>2021-02-27T11:42:48Z</time>
      </trkpt>
      <trkpt lat="45.2406" lon="6.09859">
        <ele>2529.4</ele>
        <time>2021-02-27T11:42:49Z</time>
      </trkpt>
      <trkpt lat="45.2406" lon="6.09859">
        <ele>2530</ele>
        <time>2021-02-27T11:42:50Z</time>
      </trkpt>
      <trkpt lat="45.24061" lon="6.09861">
        <ele>2530.2</ele>
        <time>2021-02-27T11:42:51Z</time>
      </trkpt>
      <trkpt lat="45.24061" lon="6.09861">
        <ele>2531</ele>
        <time>2021-02-27T11:42:52Z</time>
      </trkpt>
      <trkpt lat="45.24061" lon="6.09861">
        <ele>2531.2</ele>
        <time>2021-02-27T11:42:53Z</time>
      </trkpt>
      <trkpt lat="45.24064" lon="6.0986">
        <ele>2531.4</ele>
        <time>2021-02-27T11:42:54Z</time>
      </trkpt>
      <trkpt lat="45.24064" lon="6.0986">
        <ele>2531.4</ele>
        <time>2021-02-27T11:42:55Z</time>
      </trkpt>
      <trkpt lat="45.24064" lon="6.0986">
        <ele>2531.8</ele>
        <time>2021-02-27T11:42:56Z</time>
      </trkpt>
      <trkpt lat="45.24066" lon="6.09858">
        <ele>2531.8</ele>
        <time>2021-02-27T11:42:57Z</time>
      </trkpt>
      <trkpt lat="45.24066" lon="6.09858">
        <ele>2531.8</ele>
        <time>2021-02-27T11:42:58Z</time>
      </trkpt>
      <trkpt lat="45.24066" lon="6.09858">
        <ele>2532.2</ele>
        <time>2021-02-27T11:42:59Z</time>
      </trkpt>
      <trkpt lat="45.24068" lon="6.09856">
        <ele>2532</ele>
        <time>2021-02-27T11:43:00Z</time>
      </trkpt>
      <trkpt lat="45.24068" lon="6.09856">
        <ele>2532.4</ele>
        <time>2021-02-27T11:43:01Z</time>
      </trkpt>
      <trkpt lat="45.2407" lon="6.09855">
        <ele>2533</ele>
        <time>2021-02-27T11:43:02Z</time>
      </trkpt>
      <trkpt lat="45.2407" lon="6.09855">
        <ele>2532.6</ele>
        <time>2021-02-27T11:43:03Z</time>
      </trkpt>
      <trkpt lat="45.24071" lon="6.09853">
        <ele>2533.8</ele>
        <time>2021-02-27T11:43:04Z</time>
      </trkpt>
      <trkpt lat="45.24071" lon="6.09853">
        <ele>2534.4</ele>
        <time>2021-02-27T11:43:05Z</time>
      </trkpt>
      <trkpt lat="45.24071" lon="6.09853">
        <ele>2534.6</ele>
        <time>2021-02-27T11:43:06Z</time>
      </trkpt>
      <trkpt lat="45.24073" lon="6.09851">
        <ele>2535.2</ele>
        <time>2021-02-27T11:43:07Z</time>
      </trkpt>
      <trkpt lat="45.24073" lon="6.09851">
        <ele>2535.2</ele>
        <time>2021-02-27T11:43:08Z</time>
      </trkpt>
      <trkpt lat="45.24073" lon="6.09851">
        <ele>2535</ele>
        <time>2021-02-27T11:43:09Z</time>
      </trkpt>
      <trkpt lat="45.24075" lon="6.09851">
        <ele>2535.4</ele>
        <time>2021-02-27T11:43:10Z</time>
      </trkpt>
      <trkpt lat="45.24075" lon="6.09851">
        <ele>2535.6</ele>
        <time>2021-02-27T11:43:11Z</time>
      </trkpt>
      <trkpt lat="45.24075" lon="6.09851">
        <ele>2535.8</ele>
        <time>2021-02-27T11:43:12Z</time>
      </trkpt>
      <trkpt lat="45.24075" lon="6.09851">
        <ele>2536</ele>
        <time>2021-02-27T11:43:13Z</time>
      </trkpt>
      <trkpt lat="45.24075" lon="6.09851">
        <ele>2535.6</ele>
        <time>2021-02-27T11:43:14Z</time>
      </trkpt>
      <trkpt lat="45.24074" lon="6.09854">
        <ele>2536</ele>
        <time>2021-02-27T11:43:15Z</time>
      </trkpt>
      <trkpt lat="45.24074" lon="6.09854">
        <ele>2535.6</ele>
        <time>2021-02-27T11:43:16Z</time>
      </trkpt>
      <trkpt lat="45.24074" lon="6.09854">
        <ele>2535.2</ele>
        <time>2021-02-27T11:43:17Z</time>
      </trkpt>
      <trkpt lat="45.24074" lon="6.09858">
        <ele>2535.4</ele>
        <time>2021-02-27T11:43:18Z</time>
      </trkpt>
      <trkpt lat="45.24074" lon="6.09858">
        <ele>2535.2</ele>
        <time>2021-02-27T11:43:19Z</time>
      </trkpt>
      <trkpt lat="45.24074" lon="6.09861">
        <ele>2534.8</ele>
        <time>2021-02-27T11:43:20Z</time>
      </trkpt>
      <trkpt lat="45.24074" lon="6.09861">
        <ele>2535.2</ele>
        <time>2021-02-27T11:43:21Z</time>
      </trkpt>
      <trkpt lat="45.24074" lon="6.09864">
        <ele>2535</ele>
        <time>2021-02-27T11:43:22Z</time>
      </trkpt>
      <trkpt lat="45.24074" lon="6.09864">
        <ele>2534.4</ele>
        <time>2021-02-27T11:43:23Z</time>
      </trkpt>
      <trkpt lat="45.24074" lon="6.09864">
        <ele>2534.8</ele>
        <time>2021-02-27T11:43:24Z</time>
      </trkpt>
      <trkpt lat="45.24074" lon="6.09867">
        <ele>2534.8</ele>
        <time>2021-02-27T11:43:25Z</time>
      </trkpt>
      <trkpt lat="45.24074" lon="6.09867">
        <ele>2534.6</ele>
        <time>2021-02-27T11:43:26Z</time>
      </trkpt>
      <trkpt lat="45.24074" lon="6.09867">
        <ele>2535.2</ele>
        <time>2021-02-27T11:43:27Z</time>
      </trkpt>
      <trkpt lat="45.24074" lon="6.09871">
        <ele>2536.2</ele>
        <time>2021-02-27T11:43:28Z</time>
      </trkpt>
      <trkpt lat="45.24074" lon="6.09871">
        <ele>2535.4</ele>
        <time>2021-02-27T11:43:29Z</time>
      </trkpt>
      <trkpt lat="45.24074" lon="6.09871">
        <ele>2535.8</ele>
        <time>2021-02-27T11:43:30Z</time>
      </trkpt>
      <trkpt lat="45.24073" lon="6.09873">
        <ele>2536.6</ele>
        <time>2021-02-27T11:43:31Z</time>
      </trkpt>
      <trkpt lat="45.24073" lon="6.09873">
        <ele>2536.4</ele>
        <time>2021-02-27T11:43:32Z</time>
      </trkpt>
      <trkpt lat="45.24073" lon="6.09873">
        <ele>2536.8</ele>
        <time>2021-02-27T11:43:33Z</time>
      </trkpt>
      <trkpt lat="45.24072" lon="6.09877">
        <ele>2536.8</ele>
        <time>2021-02-27T11:43:34Z</time>
      </trkpt>
      <trkpt lat="45.24072" lon="6.09877">
        <ele>2536.4</ele>
        <time>2021-02-27T11:43:35Z</time>
      </trkpt>
      <trkpt lat="45.2407" lon="6.09879">
        <ele>2537</ele>
        <time>2021-02-27T11:43:36Z</time>
      </trkpt>
      <trkpt lat="45.2407" lon="6.09879">
        <ele>2537</ele>
        <time>2021-02-27T11:43:37Z</time>
      </trkpt>
      <trkpt lat="45.2407" lon="6.09879">
        <ele>2536.8</ele>
        <time>2021-02-27T11:43:38Z</time>
      </trkpt>
      <trkpt lat="45.2407" lon="6.09879">
        <ele>2537.6</ele>
        <time>2021-02-27T11:43:39Z</time>
      </trkpt>
      <trkpt lat="45.2407" lon="6.09879">
        <ele>2537.8</ele>
        <time>2021-02-27T11:43:40Z</time>
      </trkpt>
      <trkpt lat="45.2407" lon="6.09879">
        <ele>2538.2</ele>
        <time>2021-02-27T11:43:41Z</time>
      </trkpt>
      <trkpt lat="45.2407" lon="6.09879">
        <ele>2539.4</ele>
        <time>2021-02-27T11:43:42Z</time>
      </trkpt>
      <trkpt lat="45.24072" lon="6.09881">
        <ele>2539.4</ele>
        <time>2021-02-27T11:43:43Z</time>
      </trkpt>
      <trkpt lat="45.24072" lon="6.09881">
        <ele>2539.2</ele>
        <time>2021-02-27T11:43:44Z</time>
      </trkpt>
      <trkpt lat="45.24074" lon="6.0988">
        <ele>2539.6</ele>
        <time>2021-02-27T11:43:45Z</time>
      </trkpt>
      <trkpt lat="45.24074" lon="6.0988">
        <ele>2539.8</ele>
        <time>2021-02-27T11:43:46Z</time>
      </trkpt>
      <trkpt lat="45.24076" lon="6.0988">
        <ele>2539.6</ele>
        <time>2021-02-27T11:43:47Z</time>
      </trkpt>
      <trkpt lat="45.24076" lon="6.0988">
        <ele>2539.6</ele>
        <time>2021-02-27T11:43:48Z</time>
      </trkpt>
      <trkpt lat="45.24078" lon="6.0988">
        <ele>2539.6</ele>
        <time>2021-02-27T11:43:49Z</time>
      </trkpt>
      <trkpt lat="45.24078" lon="6.0988">
        <ele>2539.4</ele>
        <time>2021-02-27T11:43:50Z</time>
      </trkpt>
      <trkpt lat="45.24081" lon="6.09879">
        <ele>2539.6</ele>
        <time>2021-02-27T11:43:51Z</time>
      </trkpt>
      <trkpt lat="45.24081" lon="6.09879">
        <ele>2539.6</ele>
        <time>2021-02-27T11:43:52Z</time>
      </trkpt>
      <trkpt lat="45.24081" lon="6.09879">
        <ele>2539.4</ele>
        <time>2021-02-27T11:43:53Z</time>
      </trkpt>
      <trkpt lat="45.24083" lon="6.09878">
        <ele>2539.4</ele>
        <time>2021-02-27T11:43:54Z</time>
      </trkpt>
      <trkpt lat="45.24083" lon="6.09878">
        <ele>2539.4</ele>
        <time>2021-02-27T11:43:55Z</time>
      </trkpt>
      <trkpt lat="45.24085" lon="6.09877">
        <ele>2539.4</ele>
        <time>2021-02-27T11:43:56Z</time>
      </trkpt>
      <trkpt lat="45.24085" lon="6.09877">
        <ele>2539.4</ele>
        <time>2021-02-27T11:43:57Z</time>
      </trkpt>
      <trkpt lat="45.24086" lon="6.09878">
        <ele>2539.8</ele>
        <time>2021-02-27T11:43:58Z</time>
      </trkpt>
      <trkpt lat="45.24086" lon="6.09878">
        <ele>2540.2</ele>
        <time>2021-02-27T11:43:59Z</time>
      </trkpt>
      <trkpt lat="45.24086" lon="6.09878">
        <ele>2540.4</ele>
        <time>2021-02-27T11:44:00Z</time>
      </trkpt>
      <trkpt lat="45.24088" lon="6.09881">
        <ele>2540.8</ele>
        <time>2021-02-27T11:44:01Z</time>
      </trkpt>
      <trkpt lat="45.24088" lon="6.09881">
        <ele>2541.2</ele>
        <time>2021-02-27T11:44:02Z</time>
      </trkpt>
      <trkpt lat="45.24087" lon="6.09884">
        <ele>2541.4</ele>
        <time>2021-02-27T11:44:03Z</time>
      </trkpt>
      <trkpt lat="45.24087" lon="6.09884">
        <ele>2541.8</ele>
        <time>2021-02-27T11:44:04Z</time>
      </trkpt>
      <trkpt lat="45.24087" lon="6.09887">
        <ele>2542</ele>
        <time>2021-02-27T11:44:05Z</time>
      </trkpt>
      <trkpt lat="45.24087" lon="6.09887">
        <ele>2542</ele>
        <time>2021-02-27T11:44:06Z</time>
      </trkpt>
      <trkpt lat="45.24086" lon="6.09891">
        <ele>2542.6</ele>
        <time>2021-02-27T11:44:07Z</time>
      </trkpt>
      <trkpt lat="45.24086" lon="6.09891">
        <ele>2542.4</ele>
        <time>2021-02-27T11:44:08Z</time>
      </trkpt>
      <trkpt lat="45.24085" lon="6.09894">
        <ele>2542.2</ele>
        <time>2021-02-27T11:44:09Z</time>
      </trkpt>
      <trkpt lat="45.24085" lon="6.09894">
        <ele>2542.6</ele>
        <time>2021-02-27T11:44:10Z</time>
      </trkpt>
      <trkpt lat="45.24084" lon="6.09897">
        <ele>2542.8</ele>
        <time>2021-02-27T11:44:11Z</time>
      </trkpt>
      <trkpt lat="45.24084" lon="6.09897">
        <ele>2542.8</ele>
        <time>2021-02-27T11:44:12Z</time>
      </trkpt>
      <trkpt lat="45.24084" lon="6.099">
        <ele>2543.2</ele>
        <time>2021-02-27T11:44:13Z</time>
      </trkpt>
      <trkpt lat="45.24084" lon="6.099">
        <ele>2543.2</ele>
        <time>2021-02-27T11:44:14Z</time>
      </trkpt>
      <trkpt lat="45.24084" lon="6.099">
        <ele>2543.4</ele>
        <time>2021-02-27T11:44:15Z</time>
      </trkpt>
      <trkpt lat="45.24083" lon="6.09902">
        <ele>2543.8</ele>
        <time>2021-02-27T11:44:16Z</time>
      </trkpt>
      <trkpt lat="45.24083" lon="6.09902">
        <ele>2543.8</ele>
        <time>2021-02-27T11:44:17Z</time>
      </trkpt>
      <trkpt lat="45.24083" lon="6.09903">
        <ele>2544.2</ele>
        <time>2021-02-27T11:44:18Z</time>
      </trkpt>
      <trkpt lat="45.24083" lon="6.09904">
        <ele>2544.2</ele>
        <time>2021-02-27T11:44:19Z</time>
      </trkpt>
      <trkpt lat="45.24084" lon="6.09904">
        <ele>2544.2</ele>
        <time>2021-02-27T11:44:20Z</time>
      </trkpt>
      <trkpt lat="45.24084" lon="6.09905">
        <ele>2544</ele>
        <time>2021-02-27T11:44:21Z</time>
      </trkpt>
      <trkpt lat="45.24084" lon="6.09905">
        <ele>2544.4</ele>
        <time>2021-02-27T11:44:22Z</time>
      </trkpt>
      <trkpt lat="45.24085" lon="6.09906">
        <ele>2544.8</ele>
        <time>2021-02-27T11:44:23Z</time>
      </trkpt>
      <trkpt lat="45.24085" lon="6.09907">
        <ele>2544.8</ele>
        <time>2021-02-27T11:44:24Z</time>
      </trkpt>
      <trkpt lat="45.24085" lon="6.09907">
        <ele>2544.6</ele>
        <time>2021-02-27T11:44:25Z</time>
      </trkpt>
      <trkpt lat="45.24085" lon="6.09908">
        <ele>2545.2</ele>
        <time>2021-02-27T11:44:26Z</time>
      </trkpt>
      <trkpt lat="45.24086" lon="6.09908">
        <ele>2545</ele>
        <time>2021-02-27T11:44:27Z</time>
      </trkpt>
      <trkpt lat="45.24086" lon="6.09909">
        <ele>2545.2</ele>
        <time>2021-02-27T11:44:28Z</time>
      </trkpt>
      <trkpt lat="45.24086" lon="6.09909">
        <ele>2545.2</ele>
        <time>2021-02-27T11:44:29Z</time>
      </trkpt>
      <trkpt lat="45.24087" lon="6.0991">
        <ele>2545.6</ele>
        <time>2021-02-27T11:44:30Z</time>
      </trkpt>
      <trkpt lat="45.24087" lon="6.09911">
        <ele>2545.6</ele>
        <time>2021-02-27T11:44:31Z</time>
      </trkpt>
      <trkpt lat="45.24087" lon="6.09911">
        <ele>2545.2</ele>
        <time>2021-02-27T11:44:32Z</time>
      </trkpt>
      <trkpt lat="45.24087" lon="6.09911">
        <ele>2545.8</ele>
        <time>2021-02-27T11:44:33Z</time>
      </trkpt>
      <trkpt lat="45.24087" lon="6.09911">
        <ele>2546.4</ele>
        <time>2021-02-27T11:44:34Z</time>
      </trkpt>
      <trkpt lat="45.24087" lon="6.09911">
        <ele>2547</ele>
        <time>2021-02-27T11:44:35Z</time>
      </trkpt>
      <trkpt lat="45.24089" lon="6.09913">
        <ele>2547.6</ele>
        <time>2021-02-27T11:44:36Z</time>
      </trkpt>
      <trkpt lat="45.24089" lon="6.09913">
        <ele>2548.2</ele>
        <time>2021-02-27T11:44:37Z</time>
      </trkpt>
      <trkpt lat="45.24089" lon="6.09913">
        <ele>2548.2</ele>
        <time>2021-02-27T11:44:38Z</time>
      </trkpt>
      <trkpt lat="45.24089" lon="6.09913">
        <ele>2548.6</ele>
        <time>2021-02-27T11:44:39Z</time>
      </trkpt>
      <trkpt lat="45.2409" lon="6.09916">
        <ele>2549.2</ele>
        <time>2021-02-27T11:44:40Z</time>
      </trkpt>
      <trkpt lat="45.2409" lon="6.09916">
        <ele>2549.2</ele>
        <time>2021-02-27T11:44:41Z</time>
      </trkpt>
      <trkpt lat="45.24089" lon="6.09919">
        <ele>2549.4</ele>
        <time>2021-02-27T11:44:42Z</time>
      </trkpt>
      <trkpt lat="45.24089" lon="6.09919">
        <ele>2549.6</ele>
        <time>2021-02-27T11:44:43Z</time>
      </trkpt>
      <trkpt lat="45.24089" lon="6.09919">
        <ele>2549.6</ele>
        <time>2021-02-27T11:44:44Z</time>
      </trkpt>
      <trkpt lat="45.24089" lon="6.09921">
        <ele>2550.2</ele>
        <time>2021-02-27T11:44:45Z</time>
      </trkpt>
      <trkpt lat="45.24089" lon="6.09921">
        <ele>2550.4</ele>
        <time>2021-02-27T11:44:46Z</time>
      </trkpt>
      <trkpt lat="45.24089" lon="6.09921">
        <ele>2550.4</ele>
        <time>2021-02-27T11:44:47Z</time>
      </trkpt>
      <trkpt lat="45.24089" lon="6.09921">
        <ele>2551</ele>
        <time>2021-02-27T11:44:48Z</time>
      </trkpt>
      <trkpt lat="45.24091" lon="6.09923">
        <ele>2551.4</ele>
        <time>2021-02-27T11:44:49Z</time>
      </trkpt>
      <trkpt lat="45.24091" lon="6.09923">
        <ele>2552.4</ele>
        <time>2021-02-27T11:44:50Z</time>
      </trkpt>
      <trkpt lat="45.24091" lon="6.09923">
        <ele>2552.6</ele>
        <time>2021-02-27T11:44:51Z</time>
      </trkpt>
      <trkpt lat="45.24094" lon="6.09923">
        <ele>2552.6</ele>
        <time>2021-02-27T11:44:52Z</time>
      </trkpt>
      <trkpt lat="45.24094" lon="6.09923">
        <ele>2552.6</ele>
        <time>2021-02-27T11:44:53Z</time>
      </trkpt>
      <trkpt lat="45.24096" lon="6.09924">
        <ele>2552.8</ele>
        <time>2021-02-27T11:44:54Z</time>
      </trkpt>
      <trkpt lat="45.24096" lon="6.09924">
        <ele>2553</ele>
        <time>2021-02-27T11:44:55Z</time>
      </trkpt>
      <trkpt lat="45.24098" lon="6.09925">
        <ele>2553.2</ele>
        <time>2021-02-27T11:44:56Z</time>
      </trkpt>
      <trkpt lat="45.24098" lon="6.09925">
        <ele>2553.6</ele>
        <time>2021-02-27T11:44:57Z</time>
      </trkpt>
      <trkpt lat="45.24098" lon="6.09925">
        <ele>2553.8</ele>
        <time>2021-02-27T11:44:58Z</time>
      </trkpt>
      <trkpt lat="45.24098" lon="6.09925">
        <ele>2553.6</ele>
        <time>2021-02-27T11:44:59Z</time>
      </trkpt>
      <trkpt lat="45.24099" lon="6.09929">
        <ele>2554.6</ele>
        <time>2021-02-27T11:45:00Z</time>
      </trkpt>
      <trkpt lat="45.24099" lon="6.09929">
        <ele>2554.4</ele>
        <time>2021-02-27T11:45:01Z</time>
      </trkpt>
      <trkpt lat="45.24099" lon="6.09929">
        <ele>2554.4</ele>
        <time>2021-02-27T11:45:02Z</time>
      </trkpt>
      <trkpt lat="45.24099" lon="6.09932">
        <ele>2554.4</ele>
        <time>2021-02-27T11:45:03Z</time>
      </trkpt>
      <trkpt lat="45.24099" lon="6.09932">
        <ele>2554.4</ele>
        <time>2021-02-27T11:45:04Z</time>
      </trkpt>
      <trkpt lat="45.24099" lon="6.09932">
        <ele>2555</ele>
        <time>2021-02-27T11:45:05Z</time>
      </trkpt>
      <trkpt lat="45.24098" lon="6.09937">
        <ele>2554.8</ele>
        <time>2021-02-27T11:45:06Z</time>
      </trkpt>
      <trkpt lat="45.24098" lon="6.09937">
        <ele>2555</ele>
        <time>2021-02-27T11:45:07Z</time>
      </trkpt>
      <trkpt lat="45.24098" lon="6.09937">
        <ele>2555.6</ele>
        <time>2021-02-27T11:45:08Z</time>
      </trkpt>
      <trkpt lat="45.24098" lon="6.0994">
        <ele>2555.6</ele>
        <time>2021-02-27T11:45:09Z</time>
      </trkpt>
      <trkpt lat="45.24098" lon="6.0994">
        <ele>2555.6</ele>
        <time>2021-02-27T11:45:10Z</time>
      </trkpt>
      <trkpt lat="45.24098" lon="6.0994">
        <ele>2556.4</ele>
        <time>2021-02-27T11:45:11Z</time>
      </trkpt>
      <trkpt lat="45.24098" lon="6.0994">
        <ele>2556.6</ele>
        <time>2021-02-27T11:45:12Z</time>
      </trkpt>
      <trkpt lat="45.24098" lon="6.09944">
        <ele>2556.8</ele>
        <time>2021-02-27T11:45:13Z</time>
      </trkpt>
      <trkpt lat="45.24098" lon="6.09944">
        <ele>2557.2</ele>
        <time>2021-02-27T11:45:14Z</time>
      </trkpt>
      <trkpt lat="45.24098" lon="6.09944">
        <ele>2557.8</ele>
        <time>2021-02-27T11:45:15Z</time>
      </trkpt>
      <trkpt lat="45.24099" lon="6.09945">
        <ele>2558</ele>
        <time>2021-02-27T11:45:16Z</time>
      </trkpt>
      <trkpt lat="45.24099" lon="6.09946">
        <ele>2558.4</ele>
        <time>2021-02-27T11:45:17Z</time>
      </trkpt>
      <trkpt lat="45.24099" lon="6.09946">
        <ele>2558.8</ele>
        <time>2021-02-27T11:45:18Z</time>
      </trkpt>
      <trkpt lat="45.241" lon="6.09947">
        <ele>2559.2</ele>
        <time>2021-02-27T11:45:19Z</time>
      </trkpt>
      <trkpt lat="45.241" lon="6.09947">
        <ele>2559.6</ele>
        <time>2021-02-27T11:45:20Z</time>
      </trkpt>
      <trkpt lat="45.24101" lon="6.09948">
        <ele>2559.8</ele>
        <time>2021-02-27T11:45:21Z</time>
      </trkpt>
      <trkpt lat="45.24101" lon="6.09948">
        <ele>2560.2</ele>
        <time>2021-02-27T11:45:22Z</time>
      </trkpt>
      <trkpt lat="45.24102" lon="6.09949">
        <ele>2560.4</ele>
        <time>2021-02-27T11:45:23Z</time>
      </trkpt>
      <trkpt lat="45.24102" lon="6.0995">
        <ele>2560.6</ele>
        <time>2021-02-27T11:45:24Z</time>
      </trkpt>
      <trkpt lat="45.24102" lon="6.0995">
        <ele>2561</ele>
        <time>2021-02-27T11:45:25Z</time>
      </trkpt>
      <trkpt lat="45.24103" lon="6.09951">
        <ele>2560.8</ele>
        <time>2021-02-27T11:45:26Z</time>
      </trkpt>
      <trkpt lat="45.24103" lon="6.09951">
        <ele>2560.6</ele>
        <time>2021-02-27T11:45:27Z</time>
      </trkpt>
      <trkpt lat="45.24104" lon="6.09952">
        <ele>2561.4</ele>
        <time>2021-02-27T11:45:28Z</time>
      </trkpt>
      <trkpt lat="45.24103" lon="6.09954">
        <ele>2561.8</ele>
        <time>2021-02-27T11:45:29Z</time>
      </trkpt>
      <trkpt lat="45.24103" lon="6.09954">
        <ele>2561.8</ele>
        <time>2021-02-27T11:45:30Z</time>
      </trkpt>
      <trkpt lat="45.24101" lon="6.09956">
        <ele>2562.4</ele>
        <time>2021-02-27T11:45:31Z</time>
      </trkpt>
      <trkpt lat="45.24101" lon="6.09956">
        <ele>2563</ele>
        <time>2021-02-27T11:45:32Z</time>
      </trkpt>
      <trkpt lat="45.241" lon="6.09959">
        <ele>2563.2</ele>
        <time>2021-02-27T11:45:33Z</time>
      </trkpt>
      <trkpt lat="45.241" lon="6.09959">
        <ele>2563.8</ele>
        <time>2021-02-27T11:45:34Z</time>
      </trkpt>
      <trkpt lat="45.24098" lon="6.09961">
        <ele>2564.4</ele>
        <time>2021-02-27T11:45:35Z</time>
      </trkpt>
      <trkpt lat="45.24098" lon="6.09961">
        <ele>2564.2</ele>
        <time>2021-02-27T11:45:36Z</time>
      </trkpt>
      <trkpt lat="45.24097" lon="6.09962">
        <ele>2564.2</ele>
        <time>2021-02-27T11:45:37Z</time>
      </trkpt>
      <trkpt lat="45.24097" lon="6.09962">
        <ele>2564.6</ele>
        <time>2021-02-27T11:45:38Z</time>
      </trkpt>
      <trkpt lat="45.24096" lon="6.09963">
        <ele>2564.8</ele>
        <time>2021-02-27T11:45:39Z</time>
      </trkpt>
      <trkpt lat="45.24095" lon="6.09964">
        <ele>2565</ele>
        <time>2021-02-27T11:45:40Z</time>
      </trkpt>
      <trkpt lat="45.24094" lon="6.09965">
        <ele>2565.6</ele>
        <time>2021-02-27T11:45:41Z</time>
      </trkpt>
      <trkpt lat="45.24093" lon="6.09966">
        <ele>2565.6</ele>
        <time>2021-02-27T11:45:42Z</time>
      </trkpt>
      <trkpt lat="45.24092" lon="6.09967">
        <ele>2565.6</ele>
        <time>2021-02-27T11:45:43Z</time>
      </trkpt>
      <trkpt lat="45.24091" lon="6.09967">
        <ele>2566</ele>
        <time>2021-02-27T11:45:44Z</time>
      </trkpt>
      <trkpt lat="45.24089" lon="6.09968">
        <ele>2566</ele>
        <time>2021-02-27T11:45:45Z</time>
      </trkpt>
      <trkpt lat="45.24088" lon="6.09968">
        <ele>2566.6</ele>
        <time>2021-02-27T11:45:46Z</time>
      </trkpt>
      <trkpt lat="45.24087" lon="6.09968">
        <ele>2566.2</ele>
        <time>2021-02-27T11:45:47Z</time>
      </trkpt>
      <trkpt lat="45.24087" lon="6.09968">
        <ele>2566.2</ele>
        <time>2021-02-27T11:45:48Z</time>
      </trkpt>
      <trkpt lat="45.24085" lon="6.09969">
        <ele>2566.6</ele>
        <time>2021-02-27T11:45:49Z</time>
      </trkpt>
      <trkpt lat="45.24085" lon="6.09969">
        <ele>2566.4</ele>
        <time>2021-02-27T11:45:50Z</time>
      </trkpt>
      <trkpt lat="45.24084" lon="6.0997">
        <ele>2566.6</ele>
        <time>2021-02-27T11:45:51Z</time>
      </trkpt>
      <trkpt lat="45.24083" lon="6.09971">
        <ele>2567</ele>
        <time>2021-02-27T11:45:52Z</time>
      </trkpt>
      <trkpt lat="45.24083" lon="6.09972">
        <ele>2567</ele>
        <time>2021-02-27T11:45:53Z</time>
      </trkpt>
      <trkpt lat="45.24082" lon="6.09972">
        <ele>2567.2</ele>
        <time>2021-02-27T11:45:54Z</time>
      </trkpt>
      <trkpt lat="45.24081" lon="6.09973">
        <ele>2567.4</ele>
        <time>2021-02-27T11:45:55Z</time>
      </trkpt>
      <trkpt lat="45.24079" lon="6.09975">
        <ele>2567.6</ele>
        <time>2021-02-27T11:45:56Z</time>
      </trkpt>
      <trkpt lat="45.24079" lon="6.09975">
        <ele>2568</ele>
        <time>2021-02-27T11:45:57Z</time>
      </trkpt>
      <trkpt lat="45.24077" lon="6.09976">
        <ele>2568.2</ele>
        <time>2021-02-27T11:45:58Z</time>
      </trkpt>
      <trkpt lat="45.24077" lon="6.09976">
        <ele>2568.2</ele>
        <time>2021-02-27T11:45:59Z</time>
      </trkpt>
      <trkpt lat="45.24077" lon="6.09976">
        <ele>2568.2</ele>
        <time>2021-02-27T11:46:00Z</time>
      </trkpt>
      <trkpt lat="45.24075" lon="6.09979">
        <ele>2568.4</ele>
        <time>2021-02-27T11:46:01Z</time>
      </trkpt>
      <trkpt lat="45.24075" lon="6.09979">
        <ele>2568.4</ele>
        <time>2021-02-27T11:46:02Z</time>
      </trkpt>
      <trkpt lat="45.24075" lon="6.09979">
        <ele>2568.8</ele>
        <time>2021-02-27T11:46:03Z</time>
      </trkpt>
      <trkpt lat="45.24074" lon="6.09981">
        <ele>2569</ele>
        <time>2021-02-27T11:46:04Z</time>
      </trkpt>
      <trkpt lat="45.24074" lon="6.09981">
        <ele>2569</ele>
        <time>2021-02-27T11:46:05Z</time>
      </trkpt>
      <trkpt lat="45.24073" lon="6.09984">
        <ele>2569.2</ele>
        <time>2021-02-27T11:46:06Z</time>
      </trkpt>
      <trkpt lat="45.24073" lon="6.09984">
        <ele>2569</ele>
        <time>2021-02-27T11:46:07Z</time>
      </trkpt>
      <trkpt lat="45.24073" lon="6.09984">
        <ele>2569</ele>
        <time>2021-02-27T11:46:08Z</time>
      </trkpt>
      <trkpt lat="45.24073" lon="6.09984">
        <ele>2569.2</ele>
        <time>2021-02-27T11:46:09Z</time>
      </trkpt>
      <trkpt lat="45.24073" lon="6.09984">
        <ele>2568.6</ele>
        <time>2021-02-27T11:46:10Z</time>
      </trkpt>
      <trkpt lat="45.24073" lon="6.09984">
        <ele>2568.2</ele>
        <time>2021-02-27T11:46:11Z</time>
      </trkpt>
      <trkpt lat="45.24073" lon="6.09984">
        <ele>2568.2</ele>
        <time>2021-02-27T11:46:12Z</time>
      </trkpt>
      <trkpt lat="45.24073" lon="6.09984">
        <ele>2568.2</ele>
        <time>2021-02-27T11:46:13Z</time>
      </trkpt>
      <trkpt lat="45.24073" lon="6.09984">
        <ele>2568</ele>
        <time>2021-02-27T11:46:14Z</time>
      </trkpt>
      <trkpt lat="45.24073" lon="6.09984">
        <ele>2568.2</ele>
        <time>2021-02-27T11:46:15Z</time>
      </trkpt>
      <trkpt lat="45.24071" lon="6.09985">
        <ele>2568</ele>
        <time>2021-02-27T11:46:16Z</time>
      </trkpt>
      <trkpt lat="45.24071" lon="6.09985">
        <ele>2568</ele>
        <time>2021-02-27T11:46:17Z</time>
      </trkpt>
      <trkpt lat="45.2407" lon="6.09986">
        <ele>2568.4</ele>
        <time>2021-02-27T11:46:18Z</time>
      </trkpt>
      <trkpt lat="45.2407" lon="6.09986">
        <ele>2568</ele>
        <time>2021-02-27T11:46:19Z</time>
      </trkpt>
      <trkpt lat="45.24068" lon="6.09987">
        <ele>2567.8</ele>
        <time>2021-02-27T11:46:20Z</time>
      </trkpt>
      <trkpt lat="45.24068" lon="6.09987">
        <ele>2567.4</ele>
        <time>2021-02-27T11:46:21Z</time>
      </trkpt>
      <trkpt lat="45.24066" lon="6.09989">
        <ele>2567.4</ele>
        <time>2021-02-27T11:46:22Z</time>
      </trkpt>
      <trkpt lat="45.24066" lon="6.09989">
        <ele>2567</ele>
        <time>2021-02-27T11:46:23Z</time>
      </trkpt>
      <trkpt lat="45.24066" lon="6.09989">
        <ele>2567.2</ele>
        <time>2021-02-27T11:46:24Z</time>
      </trkpt>
      <trkpt lat="45.24064" lon="6.09991">
        <ele>2567.4</ele>
        <time>2021-02-27T11:46:25Z</time>
      </trkpt>
      <trkpt lat="45.24064" lon="6.09991">
        <ele>2568.2</ele>
        <time>2021-02-27T11:46:26Z</time>
      </trkpt>
      <trkpt lat="45.24062" lon="6.09992">
        <ele>2568.2</ele>
        <time>2021-02-27T11:46:27Z</time>
      </trkpt>
      <trkpt lat="45.24062" lon="6.09992">
        <ele>2567.8</ele>
        <time>2021-02-27T11:46:28Z</time>
      </trkpt>
      <trkpt lat="45.2406" lon="6.09992">
        <ele>2567.4</ele>
        <time>2021-02-27T11:46:29Z</time>
      </trkpt>
      <trkpt lat="45.2406" lon="6.09992">
        <ele>2567.4</ele>
        <time>2021-02-27T11:46:30Z</time>
      </trkpt>
      <trkpt lat="45.24058" lon="6.09992">
        <ele>2567.4</ele>
        <time>2021-02-27T11:46:31Z</time>
      </trkpt>
      <trkpt lat="45.24058" lon="6.09992">
        <ele>2567.4</ele>
        <time>2021-02-27T11:46:32Z</time>
      </trkpt>
      <trkpt lat="45.24056" lon="6.09994">
        <ele>2568</ele>
        <time>2021-02-27T11:46:33Z</time>
      </trkpt>
      <trkpt lat="45.24056" lon="6.09994">
        <ele>2568.2</ele>
        <time>2021-02-27T11:46:34Z</time>
      </trkpt>
      <trkpt lat="45.24056" lon="6.09994">
        <ele>2568.4</ele>
        <time>2021-02-27T11:46:35Z</time>
      </trkpt>
      <trkpt lat="45.24055" lon="6.09995">
        <ele>2568.6</ele>
        <time>2021-02-27T11:46:36Z</time>
      </trkpt>
      <trkpt lat="45.24055" lon="6.09995">
        <ele>2568.2</ele>
        <time>2021-02-27T11:46:37Z</time>
      </trkpt>
      <trkpt lat="45.24053" lon="6.09996">
        <ele>2569</ele>
        <time>2021-02-27T11:46:38Z</time>
      </trkpt>
      <trkpt lat="45.24053" lon="6.09996">
        <ele>2568.8</ele>
        <time>2021-02-27T11:46:39Z</time>
      </trkpt>
      <trkpt lat="45.24053" lon="6.09996">
        <ele>2569.2</ele>
        <time>2021-02-27T11:46:40Z</time>
      </trkpt>
      <trkpt lat="45.24053" lon="6.09996">
        <ele>2568.2</ele>
        <time>2021-02-27T11:46:41Z</time>
      </trkpt>
      <trkpt lat="45.24051" lon="6.09996">
        <ele>2568.4</ele>
        <time>2021-02-27T11:46:42Z</time>
      </trkpt>
      <trkpt lat="45.24051" lon="6.09996">
        <ele>2568</ele>
        <time>2021-02-27T11:46:43Z</time>
      </trkpt>
      <trkpt lat="45.24048" lon="6.09996">
        <ele>2568</ele>
        <time>2021-02-27T11:46:44Z</time>
      </trkpt>
      <trkpt lat="45.24048" lon="6.09996">
        <ele>2568</ele>
        <time>2021-02-27T11:46:45Z</time>
      </trkpt>
      <trkpt lat="45.24046" lon="6.09997">
        <ele>2568.2</ele>
        <time>2021-02-27T11:46:46Z</time>
      </trkpt>
      <trkpt lat="45.24046" lon="6.09997">
        <ele>2568.8</ele>
        <time>2021-02-27T11:46:47Z</time>
      </trkpt>
      <trkpt lat="45.24043" lon="6.09998">
        <ele>2568.8</ele>
        <time>2021-02-27T11:46:48Z</time>
      </trkpt>
      <trkpt lat="45.24043" lon="6.09998">
        <ele>2569.4</ele>
        <time>2021-02-27T11:46:49Z</time>
      </trkpt>
      <trkpt lat="45.24041" lon="6.09998">
        <ele>2570.2</ele>
        <time>2021-02-27T11:46:50Z</time>
      </trkpt>
      <trkpt lat="45.24041" lon="6.09998">
        <ele>2569.6</ele>
        <time>2021-02-27T11:46:51Z</time>
      </trkpt>
      <trkpt lat="45.24039" lon="6.09999">
        <ele>2569.2</ele>
        <time>2021-02-27T11:46:52Z</time>
      </trkpt>
      <trkpt lat="45.24039" lon="6.09999">
        <ele>2569.4</ele>
        <time>2021-02-27T11:46:53Z</time>
      </trkpt>
      <trkpt lat="45.24037" lon="6.1">
        <ele>2570</ele>
        <time>2021-02-27T11:46:54Z</time>
      </trkpt>
      <trkpt lat="45.24037" lon="6.1">
        <ele>2570.6</ele>
        <time>2021-02-27T11:46:55Z</time>
      </trkpt>
      <trkpt lat="45.24035" lon="6.10001">
        <ele>2571.4</ele>
        <time>2021-02-27T11:46:56Z</time>
      </trkpt>
      <trkpt lat="45.24035" lon="6.10001">
        <ele>2572.2</ele>
        <time>2021-02-27T11:46:57Z</time>
      </trkpt>
      <trkpt lat="45.24033" lon="6.10003">
        <ele>2572.6</ele>
        <time>2021-02-27T11:46:58Z</time>
      </trkpt>
      <trkpt lat="45.24033" lon="6.10003">
        <ele>2573.2</ele>
        <time>2021-02-27T11:46:59Z</time>
      </trkpt>
      <trkpt lat="45.24031" lon="6.10004">
        <ele>2573.4</ele>
        <time>2021-02-27T11:47:00Z</time>
      </trkpt>
      <trkpt lat="45.24031" lon="6.10004">
        <ele>2573.4</ele>
        <time>2021-02-27T11:47:01Z</time>
      </trkpt>
      <trkpt lat="45.24029" lon="6.10006">
        <ele>2573.6</ele>
        <time>2021-02-27T11:47:02Z</time>
      </trkpt>
      <trkpt lat="45.24029" lon="6.10006">
        <ele>2574.4</ele>
        <time>2021-02-27T11:47:03Z</time>
      </trkpt>
      <trkpt lat="45.24027" lon="6.10009">
        <ele>2575.4</ele>
        <time>2021-02-27T11:47:04Z</time>
      </trkpt>
      <trkpt lat="45.24027" lon="6.10009">
        <ele>2575.8</ele>
        <time>2021-02-27T11:47:05Z</time>
      </trkpt>
      <trkpt lat="45.24025" lon="6.10011">
        <ele>2576.6</ele>
        <time>2021-02-27T11:47:06Z</time>
      </trkpt>
      <trkpt lat="45.24025" lon="6.10011">
        <ele>2577</ele>
        <time>2021-02-27T11:47:07Z</time>
      </trkpt>
      <trkpt lat="45.24023" lon="6.10012">
        <ele>2577.4</ele>
        <time>2021-02-27T11:47:08Z</time>
      </trkpt>
      <trkpt lat="45.24023" lon="6.10012">
        <ele>2577.8</ele>
        <time>2021-02-27T11:47:09Z</time>
      </trkpt>
      <trkpt lat="45.2402" lon="6.10013">
        <ele>2577.8</ele>
        <time>2021-02-27T11:47:10Z</time>
      </trkpt>
      <trkpt lat="45.2402" lon="6.10013">
        <ele>2577.8</ele>
        <time>2021-02-27T11:47:11Z</time>
      </trkpt>
      <trkpt lat="45.2402" lon="6.10013">
        <ele>2578</ele>
        <time>2021-02-27T11:47:12Z</time>
      </trkpt>
      <trkpt lat="45.24018" lon="6.10014">
        <ele>2578.6</ele>
        <time>2021-02-27T11:47:13Z</time>
      </trkpt>
      <trkpt lat="45.24018" lon="6.10014">
        <ele>2578.6</ele>
        <time>2021-02-27T11:47:14Z</time>
      </trkpt>
      <trkpt lat="45.24015" lon="6.10015">
        <ele>2578.6</ele>
        <time>2021-02-27T11:47:15Z</time>
      </trkpt>
      <trkpt lat="45.24015" lon="6.10015">
        <ele>2579</ele>
        <time>2021-02-27T11:47:16Z</time>
      </trkpt>
      <trkpt lat="45.24013" lon="6.10015">
        <ele>2578.8</ele>
        <time>2021-02-27T11:47:17Z</time>
      </trkpt>
      <trkpt lat="45.24013" lon="6.10015">
        <ele>2579</ele>
        <time>2021-02-27T11:47:18Z</time>
      </trkpt>
      <trkpt lat="45.24013" lon="6.10015">
        <ele>2579.2</ele>
        <time>2021-02-27T11:47:19Z</time>
      </trkpt>
      <trkpt lat="45.2401" lon="6.10015">
        <ele>2579</ele>
        <time>2021-02-27T11:47:20Z</time>
      </trkpt>
      <trkpt lat="45.2401" lon="6.10015">
        <ele>2579.6</ele>
        <time>2021-02-27T11:47:21Z</time>
      </trkpt>
      <trkpt lat="45.2401" lon="6.10015">
        <ele>2579.6</ele>
        <time>2021-02-27T11:47:22Z</time>
      </trkpt>
      <trkpt lat="45.24008" lon="6.10015">
        <ele>2580</ele>
        <time>2021-02-27T11:47:23Z</time>
      </trkpt>
      <trkpt lat="45.24008" lon="6.10015">
        <ele>2580.6</ele>
        <time>2021-02-27T11:47:24Z</time>
      </trkpt>
      <trkpt lat="45.24006" lon="6.10016">
        <ele>2581.4</ele>
        <time>2021-02-27T11:47:25Z</time>
      </trkpt>
      <trkpt lat="45.24006" lon="6.10016">
        <ele>2582</ele>
        <time>2021-02-27T11:47:26Z</time>
      </trkpt>
      <trkpt lat="45.24006" lon="6.10016">
        <ele>2583.2</ele>
        <time>2021-02-27T11:47:27Z</time>
      </trkpt>
      <trkpt lat="45.24004" lon="6.10017">
        <ele>2582.8</ele>
        <time>2021-02-27T11:47:28Z</time>
      </trkpt>
      <trkpt lat="45.24004" lon="6.10017">
        <ele>2582.8</ele>
        <time>2021-02-27T11:47:29Z</time>
      </trkpt>
      <trkpt lat="45.24002" lon="6.10017">
        <ele>2582.4</ele>
        <time>2021-02-27T11:47:30Z</time>
      </trkpt>
      <trkpt lat="45.24002" lon="6.10017">
        <ele>2581.8</ele>
        <time>2021-02-27T11:47:31Z</time>
      </trkpt>
      <trkpt lat="45.24" lon="6.10019">
        <ele>2581.6</ele>
        <time>2021-02-27T11:47:32Z</time>
      </trkpt>
      <trkpt lat="45.24" lon="6.10019">
        <ele>2581.2</ele>
        <time>2021-02-27T11:47:33Z</time>
      </trkpt>
      <trkpt lat="45.24" lon="6.10019">
        <ele>2581</ele>
        <time>2021-02-27T11:47:34Z</time>
      </trkpt>
      <trkpt lat="45.23999" lon="6.1002">
        <ele>2581.4</ele>
        <time>2021-02-27T11:47:35Z</time>
      </trkpt>
      <trkpt lat="45.23999" lon="6.1002">
        <ele>2581</ele>
        <time>2021-02-27T11:47:36Z</time>
      </trkpt>
      <trkpt lat="45.23997" lon="6.10022">
        <ele>2581.4</ele>
        <time>2021-02-27T11:47:37Z</time>
      </trkpt>
      <trkpt lat="45.23997" lon="6.10022">
        <ele>2581.8</ele>
        <time>2021-02-27T11:47:38Z</time>
      </trkpt>
      <trkpt lat="45.23996" lon="6.10024">
        <ele>2581.8</ele>
        <time>2021-02-27T11:47:39Z</time>
      </trkpt>
      <trkpt lat="45.23996" lon="6.10024">
        <ele>2582.2</ele>
        <time>2021-02-27T11:47:40Z</time>
      </trkpt>
      <trkpt lat="45.23994" lon="6.10026">
        <ele>2582.2</ele>
        <time>2021-02-27T11:47:41Z</time>
      </trkpt>
      <trkpt lat="45.23994" lon="6.10026">
        <ele>2582.4</ele>
        <time>2021-02-27T11:47:42Z</time>
      </trkpt>
      <trkpt lat="45.23993" lon="6.10028">
        <ele>2582.8</ele>
        <time>2021-02-27T11:47:43Z</time>
      </trkpt>
      <trkpt lat="45.23993" lon="6.10028">
        <ele>2583</ele>
        <time>2021-02-27T11:47:44Z</time>
      </trkpt>
      <trkpt lat="45.23993" lon="6.10028">
        <ele>2582.8</ele>
        <time>2021-02-27T11:47:45Z</time>
      </trkpt>
      <trkpt lat="45.23991" lon="6.1003">
        <ele>2583.4</ele>
        <time>2021-02-27T11:47:46Z</time>
      </trkpt>
      <trkpt lat="45.23991" lon="6.1003">
        <ele>2583.8</ele>
        <time>2021-02-27T11:47:47Z</time>
      </trkpt>
      <trkpt lat="45.2399" lon="6.10032">
        <ele>2583.4</ele>
        <time>2021-02-27T11:47:48Z</time>
      </trkpt>
      <trkpt lat="45.2399" lon="6.10032">
        <ele>2583.2</ele>
        <time>2021-02-27T11:47:49Z</time>
      </trkpt>
      <trkpt lat="45.2399" lon="6.10032">
        <ele>2583.4</ele>
        <time>2021-02-27T11:47:50Z</time>
      </trkpt>
      <trkpt lat="45.23988" lon="6.10034">
        <ele>2583.4</ele>
        <time>2021-02-27T11:47:51Z</time>
      </trkpt>
      <trkpt lat="45.23988" lon="6.10034">
        <ele>2583.6</ele>
        <time>2021-02-27T11:47:52Z</time>
      </trkpt>
      <trkpt lat="45.23988" lon="6.10034">
        <ele>2584</ele>
        <time>2021-02-27T11:47:53Z</time>
      </trkpt>
      <trkpt lat="45.23986" lon="6.10037">
        <ele>2584.2</ele>
        <time>2021-02-27T11:47:54Z</time>
      </trkpt>
      <trkpt lat="45.23986" lon="6.10037">
        <ele>2584.2</ele>
        <time>2021-02-27T11:47:55Z</time>
      </trkpt>
      <trkpt lat="45.23984" lon="6.10039">
        <ele>2584.6</ele>
        <time>2021-02-27T11:47:56Z</time>
      </trkpt>
      <trkpt lat="45.23984" lon="6.10039">
        <ele>2584.8</ele>
        <time>2021-02-27T11:47:57Z</time>
      </trkpt>
      <trkpt lat="45.23984" lon="6.10039">
        <ele>2584.6</ele>
        <time>2021-02-27T11:47:58Z</time>
      </trkpt>
      <trkpt lat="45.23983" lon="6.10042">
        <ele>2584.8</ele>
        <time>2021-02-27T11:47:59Z</time>
      </trkpt>
      <trkpt lat="45.23983" lon="6.10042">
        <ele>2584.8</ele>
        <time>2021-02-27T11:48:00Z</time>
      </trkpt>
      <trkpt lat="45.23983" lon="6.10042">
        <ele>2585</ele>
        <time>2021-02-27T11:48:01Z</time>
      </trkpt>
      <trkpt lat="45.23981" lon="6.10044">
        <ele>2585.2</ele>
        <time>2021-02-27T11:48:02Z</time>
      </trkpt>
      <trkpt lat="45.23981" lon="6.10044">
        <ele>2585.2</ele>
        <time>2021-02-27T11:48:03Z</time>
      </trkpt>
      <trkpt lat="45.23981" lon="6.10044">
        <ele>2586</ele>
        <time>2021-02-27T11:48:04Z</time>
      </trkpt>
      <trkpt lat="45.2398" lon="6.10048">
        <ele>2586</ele>
        <time>2021-02-27T11:48:05Z</time>
      </trkpt>
      <trkpt lat="45.2398" lon="6.10048">
        <ele>2585.6</ele>
        <time>2021-02-27T11:48:06Z</time>
      </trkpt>
      <trkpt lat="45.2398" lon="6.10048">
        <ele>2585.8</ele>
        <time>2021-02-27T11:48:07Z</time>
      </trkpt>
      <trkpt lat="45.23979" lon="6.1005">
        <ele>2586.4</ele>
        <time>2021-02-27T11:48:08Z</time>
      </trkpt>
      <trkpt lat="45.23979" lon="6.1005">
        <ele>2586.6</ele>
        <time>2021-02-27T11:48:09Z</time>
      </trkpt>
      <trkpt lat="45.23978" lon="6.10052">
        <ele>2586.4</ele>
        <time>2021-02-27T11:48:10Z</time>
      </trkpt>
      <trkpt lat="45.23978" lon="6.10052">
        <ele>2586.8</ele>
        <time>2021-02-27T11:48:11Z</time>
      </trkpt>
      <trkpt lat="45.23977" lon="6.10055">
        <ele>2586.8</ele>
        <time>2021-02-27T11:48:12Z</time>
      </trkpt>
      <trkpt lat="45.23977" lon="6.10055">
        <ele>2587</ele>
        <time>2021-02-27T11:48:13Z</time>
      </trkpt>
      <trkpt lat="45.23975" lon="6.10057">
        <ele>2587.4</ele>
        <time>2021-02-27T11:48:14Z</time>
      </trkpt>
      <trkpt lat="45.23975" lon="6.10057">
        <ele>2588.2</ele>
        <time>2021-02-27T11:48:15Z</time>
      </trkpt>
      <trkpt lat="45.23975" lon="6.10057">
        <ele>2588.4</ele>
        <time>2021-02-27T11:48:16Z</time>
      </trkpt>
      <trkpt lat="45.23974" lon="6.1006">
        <ele>2589</ele>
        <time>2021-02-27T11:48:17Z</time>
      </trkpt>
      <trkpt lat="45.23974" lon="6.1006">
        <ele>2589.6</ele>
        <time>2021-02-27T11:48:18Z</time>
      </trkpt>
      <trkpt lat="45.23973" lon="6.10062">
        <ele>2590</ele>
        <time>2021-02-27T11:48:19Z</time>
      </trkpt>
      <trkpt lat="45.23973" lon="6.10062">
        <ele>2590.8</ele>
        <time>2021-02-27T11:48:20Z</time>
      </trkpt>
      <trkpt lat="45.23971" lon="6.10065">
        <ele>2591</ele>
        <time>2021-02-27T11:48:21Z</time>
      </trkpt>
      <trkpt lat="45.23971" lon="6.10065">
        <ele>2591.8</ele>
        <time>2021-02-27T11:48:22Z</time>
      </trkpt>
      <trkpt lat="45.2397" lon="6.10067">
        <ele>2592.2</ele>
        <time>2021-02-27T11:48:23Z</time>
      </trkpt>
      <trkpt lat="45.2397" lon="6.10067">
        <ele>2592.4</ele>
        <time>2021-02-27T11:48:24Z</time>
      </trkpt>
      <trkpt lat="45.2397" lon="6.10067">
        <ele>2592.2</ele>
        <time>2021-02-27T11:48:25Z</time>
      </trkpt>
      <trkpt lat="45.23969" lon="6.1007">
        <ele>2592.6</ele>
        <time>2021-02-27T11:48:26Z</time>
      </trkpt>
      <trkpt lat="45.23969" lon="6.1007">
        <ele>2592.6</ele>
        <time>2021-02-27T11:48:27Z</time>
      </trkpt>
      <trkpt lat="45.23968" lon="6.10072">
        <ele>2593</ele>
        <time>2021-02-27T11:48:28Z</time>
      </trkpt>
      <trkpt lat="45.23968" lon="6.10072">
        <ele>2593.2</ele>
        <time>2021-02-27T11:48:29Z</time>
      </trkpt>
      <trkpt lat="45.23966" lon="6.10075">
        <ele>2593</ele>
        <time>2021-02-27T11:48:30Z</time>
      </trkpt>
      <trkpt lat="45.23966" lon="6.10075">
        <ele>2592.8</ele>
        <time>2021-02-27T11:48:31Z</time>
      </trkpt>
      <trkpt lat="45.23966" lon="6.10075">
        <ele>2593</ele>
        <time>2021-02-27T11:48:32Z</time>
      </trkpt>
      <trkpt lat="45.23965" lon="6.10078">
        <ele>2592.8</ele>
        <time>2021-02-27T11:48:33Z</time>
      </trkpt>
      <trkpt lat="45.23965" lon="6.10078">
        <ele>2592.8</ele>
        <time>2021-02-27T11:48:34Z</time>
      </trkpt>
      <trkpt lat="45.23965" lon="6.10078">
        <ele>2593</ele>
        <time>2021-02-27T11:48:35Z</time>
      </trkpt>
      <trkpt lat="45.23964" lon="6.10081">
        <ele>2592.8</ele>
        <time>2021-02-27T11:48:36Z</time>
      </trkpt>
      <trkpt lat="45.23964" lon="6.10081">
        <ele>2592.8</ele>
        <time>2021-02-27T11:48:37Z</time>
      </trkpt>
      <trkpt lat="45.23964" lon="6.10081">
        <ele>2593</ele>
        <time>2021-02-27T11:48:38Z</time>
      </trkpt>
      <trkpt lat="45.23963" lon="6.10084">
        <ele>2592.6</ele>
        <time>2021-02-27T11:48:39Z</time>
      </trkpt>
      <trkpt lat="45.23963" lon="6.10084">
        <ele>2592.4</ele>
        <time>2021-02-27T11:48:40Z</time>
      </trkpt>
      <trkpt lat="45.23962" lon="6.10086">
        <ele>2592.8</ele>
        <time>2021-02-27T11:48:41Z</time>
      </trkpt>
      <trkpt lat="45.23962" lon="6.10086">
        <ele>2592.6</ele>
        <time>2021-02-27T11:48:42Z</time>
      </trkpt>
      <trkpt lat="45.23961" lon="6.10089">
        <ele>2592.6</ele>
        <time>2021-02-27T11:48:43Z</time>
      </trkpt>
      <trkpt lat="45.23961" lon="6.10089">
        <ele>2593</ele>
        <time>2021-02-27T11:48:44Z</time>
      </trkpt>
      <trkpt lat="45.23959" lon="6.10091">
        <ele>2593</ele>
        <time>2021-02-27T11:48:45Z</time>
      </trkpt>
      <trkpt lat="45.23959" lon="6.10091">
        <ele>2593.2</ele>
        <time>2021-02-27T11:48:46Z</time>
      </trkpt>
      <trkpt lat="45.23959" lon="6.10091">
        <ele>2593.8</ele>
        <time>2021-02-27T11:48:47Z</time>
      </trkpt>
      <trkpt lat="45.23958" lon="6.10094">
        <ele>2593.8</ele>
        <time>2021-02-27T11:48:48Z</time>
      </trkpt>
      <trkpt lat="45.23958" lon="6.10094">
        <ele>2593.8</ele>
        <time>2021-02-27T11:48:49Z</time>
      </trkpt>
      <trkpt lat="45.23958" lon="6.10094">
        <ele>2594.2</ele>
        <time>2021-02-27T11:48:50Z</time>
      </trkpt>
      <trkpt lat="45.23957" lon="6.10097">
        <ele>2594.2</ele>
        <time>2021-02-27T11:48:51Z</time>
      </trkpt>
      <trkpt lat="45.23957" lon="6.10097">
        <ele>2594</ele>
        <time>2021-02-27T11:48:52Z</time>
      </trkpt>
      <trkpt lat="45.23957" lon="6.10097">
        <ele>2594.6</ele>
        <time>2021-02-27T11:48:53Z</time>
      </trkpt>
      <trkpt lat="45.23957" lon="6.101">
        <ele>2594.6</ele>
        <time>2021-02-27T11:48:54Z</time>
      </trkpt>
      <trkpt lat="45.23957" lon="6.101">
        <ele>2594.4</ele>
        <time>2021-02-27T11:48:55Z</time>
      </trkpt>
      <trkpt lat="45.23957" lon="6.101">
        <ele>2595.2</ele>
        <time>2021-02-27T11:48:56Z</time>
      </trkpt>
      <trkpt lat="45.23956" lon="6.10103">
        <ele>2595.2</ele>
        <time>2021-02-27T11:48:57Z</time>
      </trkpt>
      <trkpt lat="45.23956" lon="6.10103">
        <ele>2595.4</ele>
        <time>2021-02-27T11:48:58Z</time>
      </trkpt>
      <trkpt lat="45.23956" lon="6.10103">
        <ele>2596</ele>
        <time>2021-02-27T11:48:59Z</time>
      </trkpt>
      <trkpt lat="45.23955" lon="6.10106">
        <ele>2596.4</ele>
        <time>2021-02-27T11:49:00Z</time>
      </trkpt>
      <trkpt lat="45.23955" lon="6.10106">
        <ele>2596.4</ele>
        <time>2021-02-27T11:49:01Z</time>
      </trkpt>
      <trkpt lat="45.23955" lon="6.10106">
        <ele>2597</ele>
        <time>2021-02-27T11:49:02Z</time>
      </trkpt>
      <trkpt lat="45.23954" lon="6.10109">
        <ele>2596.8</ele>
        <time>2021-02-27T11:49:03Z</time>
      </trkpt>
      <trkpt lat="45.23954" lon="6.10109">
        <ele>2596.8</ele>
        <time>2021-02-27T11:49:04Z</time>
      </trkpt>
      <trkpt lat="45.23953" lon="6.10112">
        <ele>2597.4</ele>
        <time>2021-02-27T11:49:05Z</time>
      </trkpt>
      <trkpt lat="45.23953" lon="6.10112">
        <ele>2597.4</ele>
        <time>2021-02-27T11:49:06Z</time>
      </trkpt>
      <trkpt lat="45.23952" lon="6.10114">
        <ele>2597.2</ele>
        <time>2021-02-27T11:49:07Z</time>
      </trkpt>
      <trkpt lat="45.23952" lon="6.10114">
        <ele>2597.8</ele>
        <time>2021-02-27T11:49:08Z</time>
      </trkpt>
      <trkpt lat="45.23952" lon="6.10114">
        <ele>2598.2</ele>
        <time>2021-02-27T11:49:09Z</time>
      </trkpt>
      <trkpt lat="45.23951" lon="6.10118">
        <ele>2598.4</ele>
        <time>2021-02-27T11:49:10Z</time>
      </trkpt>
      <trkpt lat="45.23951" lon="6.10118">
        <ele>2598.8</ele>
        <time>2021-02-27T11:49:11Z</time>
      </trkpt>
      <trkpt lat="45.23951" lon="6.10118">
        <ele>2599.2</ele>
        <time>2021-02-27T11:49:12Z</time>
      </trkpt>
      <trkpt lat="45.23951" lon="6.10121">
        <ele>2598.8</ele>
        <time>2021-02-27T11:49:13Z</time>
      </trkpt>
      <trkpt lat="45.23951" lon="6.10121">
        <ele>2599.4</ele>
        <time>2021-02-27T11:49:14Z</time>
      </trkpt>
      <trkpt lat="45.23951" lon="6.10121">
        <ele>2599.8</ele>
        <time>2021-02-27T11:49:15Z</time>
      </trkpt>
      <trkpt lat="45.2395" lon="6.10124">
        <ele>2599.6</ele>
        <time>2021-02-27T11:49:16Z</time>
      </trkpt>
      <trkpt lat="45.2395" lon="6.10124">
        <ele>2599.8</ele>
        <time>2021-02-27T11:49:17Z</time>
      </trkpt>
      <trkpt lat="45.2395" lon="6.10124">
        <ele>2600</ele>
        <time>2021-02-27T11:49:18Z</time>
      </trkpt>
      <trkpt lat="45.23949" lon="6.10127">
        <ele>2600.6</ele>
        <time>2021-02-27T11:49:19Z</time>
      </trkpt>
      <trkpt lat="45.23949" lon="6.10127">
        <ele>2601.2</ele>
        <time>2021-02-27T11:49:20Z</time>
      </trkpt>
      <trkpt lat="45.23948" lon="6.1013">
        <ele>2601.6</ele>
        <time>2021-02-27T11:49:21Z</time>
      </trkpt>
      <trkpt lat="45.23948" lon="6.1013">
        <ele>2601.4</ele>
        <time>2021-02-27T11:49:22Z</time>
      </trkpt>
      <trkpt lat="45.23947" lon="6.10133">
        <ele>2601.8</ele>
        <time>2021-02-27T11:49:23Z</time>
      </trkpt>
      <trkpt lat="45.23947" lon="6.10133">
        <ele>2602.6</ele>
        <time>2021-02-27T11:49:24Z</time>
      </trkpt>
      <trkpt lat="45.23947" lon="6.10133">
        <ele>2603</ele>
        <time>2021-02-27T11:49:25Z</time>
      </trkpt>
      <trkpt lat="45.23946" lon="6.10135">
        <ele>2603.8</ele>
        <time>2021-02-27T11:49:26Z</time>
      </trkpt>
      <trkpt lat="45.23946" lon="6.10135">
        <ele>2604.2</ele>
        <time>2021-02-27T11:49:27Z</time>
      </trkpt>
      <trkpt lat="45.23946" lon="6.10135">
        <ele>2604.2</ele>
        <time>2021-02-27T11:49:28Z</time>
      </trkpt>
      <trkpt lat="45.23945" lon="6.10138">
        <ele>2604.6</ele>
        <time>2021-02-27T11:49:29Z</time>
      </trkpt>
      <trkpt lat="45.23945" lon="6.10138">
        <ele>2604.8</ele>
        <time>2021-02-27T11:49:30Z</time>
      </trkpt>
      <trkpt lat="45.23945" lon="6.10141">
        <ele>2604.4</ele>
        <time>2021-02-27T11:49:31Z</time>
      </trkpt>
      <trkpt lat="45.23945" lon="6.10141">
        <ele>2605.2</ele>
        <time>2021-02-27T11:49:32Z</time>
      </trkpt>
      <trkpt lat="45.23943" lon="6.10144">
        <ele>2605.2</ele>
        <time>2021-02-27T11:49:33Z</time>
      </trkpt>
      <trkpt lat="45.23943" lon="6.10144">
        <ele>2605</ele>
        <time>2021-02-27T11:49:34Z</time>
      </trkpt>
      <trkpt lat="45.23943" lon="6.10144">
        <ele>2605.6</ele>
        <time>2021-02-27T11:49:35Z</time>
      </trkpt>
      <trkpt lat="45.23942" lon="6.10146">
        <ele>2605.6</ele>
        <time>2021-02-27T11:49:36Z</time>
      </trkpt>
      <trkpt lat="45.23942" lon="6.10146">
        <ele>2605.4</ele>
        <time>2021-02-27T11:49:37Z</time>
      </trkpt>
      <trkpt lat="45.23942" lon="6.10146">
        <ele>2605.6</ele>
        <time>2021-02-27T11:49:38Z</time>
      </trkpt>
      <trkpt lat="45.23941" lon="6.1015">
        <ele>2606</ele>
        <time>2021-02-27T11:49:39Z</time>
      </trkpt>
      <trkpt lat="45.23941" lon="6.1015">
        <ele>2606.2</ele>
        <time>2021-02-27T11:49:40Z</time>
      </trkpt>
      <trkpt lat="45.23941" lon="6.1015">
        <ele>2606.8</ele>
        <time>2021-02-27T11:49:41Z</time>
      </trkpt>
      <trkpt lat="45.23941" lon="6.10153">
        <ele>2606.8</ele>
        <time>2021-02-27T11:49:42Z</time>
      </trkpt>
      <trkpt lat="45.23941" lon="6.10153">
        <ele>2606.8</ele>
        <time>2021-02-27T11:49:43Z</time>
      </trkpt>
      <trkpt lat="45.23941" lon="6.10153">
        <ele>2607.6</ele>
        <time>2021-02-27T11:49:44Z</time>
      </trkpt>
      <trkpt lat="45.23939" lon="6.10156">
        <ele>2607.8</ele>
        <time>2021-02-27T11:49:45Z</time>
      </trkpt>
      <trkpt lat="45.23939" lon="6.10156">
        <ele>2607.8</ele>
        <time>2021-02-27T11:49:46Z</time>
      </trkpt>
      <trkpt lat="45.23939" lon="6.10156">
        <ele>2608.2</ele>
        <time>2021-02-27T11:49:47Z</time>
      </trkpt>
      <trkpt lat="45.23938" lon="6.1016">
        <ele>2608.4</ele>
        <time>2021-02-27T11:49:48Z</time>
      </trkpt>
      <trkpt lat="45.23938" lon="6.1016">
        <ele>2608.6</ele>
        <time>2021-02-27T11:49:49Z</time>
      </trkpt>
      <trkpt lat="45.23938" lon="6.1016">
        <ele>2609.2</ele>
        <time>2021-02-27T11:49:50Z</time>
      </trkpt>
      <trkpt lat="45.23938" lon="6.10163">
        <ele>2609.4</ele>
        <time>2021-02-27T11:49:51Z</time>
      </trkpt>
      <trkpt lat="45.23938" lon="6.10163">
        <ele>2609.4</ele>
        <time>2021-02-27T11:49:52Z</time>
      </trkpt>
      <trkpt lat="45.23938" lon="6.10163">
        <ele>2609.6</ele>
        <time>2021-02-27T11:49:53Z</time>
      </trkpt>
      <trkpt lat="45.23938" lon="6.10166">
        <ele>2609.6</ele>
        <time>2021-02-27T11:49:54Z</time>
      </trkpt>
      <trkpt lat="45.23938" lon="6.10166">
        <ele>2609.8</ele>
        <time>2021-02-27T11:49:55Z</time>
      </trkpt>
      <trkpt lat="45.23938" lon="6.10166">
        <ele>2610.6</ele>
        <time>2021-02-27T11:49:56Z</time>
      </trkpt>
      <trkpt lat="45.23938" lon="6.10169">
        <ele>2610.6</ele>
        <time>2021-02-27T11:49:57Z</time>
      </trkpt>
      <trkpt lat="45.23938" lon="6.10169">
        <ele>2610.6</ele>
        <time>2021-02-27T11:49:58Z</time>
      </trkpt>
      <trkpt lat="45.23937" lon="6.10172">
        <ele>2611.8</ele>
        <time>2021-02-27T11:49:59Z</time>
      </trkpt>
      <trkpt lat="45.23937" lon="6.10172">
        <ele>2611.8</ele>
        <time>2021-02-27T11:50:00Z</time>
      </trkpt>
      <trkpt lat="45.23937" lon="6.10172">
        <ele>2611.8</ele>
        <time>2021-02-27T11:50:01Z</time>
      </trkpt>
      <trkpt lat="45.23936" lon="6.10175">
        <ele>2612.6</ele>
        <time>2021-02-27T11:50:02Z</time>
      </trkpt>
      <trkpt lat="45.23936" lon="6.10175">
        <ele>2612.6</ele>
        <time>2021-02-27T11:50:03Z</time>
      </trkpt>
      <trkpt lat="45.23936" lon="6.10175">
        <ele>2612.8</ele>
        <time>2021-02-27T11:50:04Z</time>
      </trkpt>
      <trkpt lat="45.23935" lon="6.10178">
        <ele>2613.2</ele>
        <time>2021-02-27T11:50:05Z</time>
      </trkpt>
      <trkpt lat="45.23935" lon="6.10178">
        <ele>2613.4</ele>
        <time>2021-02-27T11:50:06Z</time>
      </trkpt>
      <trkpt lat="45.23934" lon="6.10181">
        <ele>2613.2</ele>
        <time>2021-02-27T11:50:07Z</time>
      </trkpt>
      <trkpt lat="45.23934" lon="6.10181">
        <ele>2613.8</ele>
        <time>2021-02-27T11:50:08Z</time>
      </trkpt>
      <trkpt lat="45.23934" lon="6.10181">
        <ele>2613.6</ele>
        <time>2021-02-27T11:50:09Z</time>
      </trkpt>
      <trkpt lat="45.23934" lon="6.10184">
        <ele>2613</ele>
        <time>2021-02-27T11:50:10Z</time>
      </trkpt>
      <trkpt lat="45.23934" lon="6.10184">
        <ele>2613.8</ele>
        <time>2021-02-27T11:50:11Z</time>
      </trkpt>
      <trkpt lat="45.23934" lon="6.10184">
        <ele>2614.4</ele>
        <time>2021-02-27T11:50:12Z</time>
      </trkpt>
      <trkpt lat="45.23934" lon="6.10187">
        <ele>2614.4</ele>
        <time>2021-02-27T11:50:13Z</time>
      </trkpt>
      <trkpt lat="45.23934" lon="6.10187">
        <ele>2614.4</ele>
        <time>2021-02-27T11:50:14Z</time>
      </trkpt>
      <trkpt lat="45.23934" lon="6.10187">
        <ele>2614</ele>
        <time>2021-02-27T11:50:15Z</time>
      </trkpt>
      <trkpt lat="45.23934" lon="6.1019">
        <ele>2614.6</ele>
        <time>2021-02-27T11:50:16Z</time>
      </trkpt>
      <trkpt lat="45.23934" lon="6.1019">
        <ele>2614.2</ele>
        <time>2021-02-27T11:50:17Z</time>
      </trkpt>
      <trkpt lat="45.23934" lon="6.1019">
        <ele>2614.4</ele>
        <time>2021-02-27T11:50:18Z</time>
      </trkpt>
      <trkpt lat="45.23934" lon="6.10194">
        <ele>2614.6</ele>
        <time>2021-02-27T11:50:19Z</time>
      </trkpt>
      <trkpt lat="45.23934" lon="6.10194">
        <ele>2615</ele>
        <time>2021-02-27T11:50:20Z</time>
      </trkpt>
      <trkpt lat="45.23934" lon="6.10194">
        <ele>2615.6</ele>
        <time>2021-02-27T11:50:21Z</time>
      </trkpt>
      <trkpt lat="45.23934" lon="6.10197">
        <ele>2616</ele>
        <time>2021-02-27T11:50:22Z</time>
      </trkpt>
      <trkpt lat="45.23934" lon="6.10197">
        <ele>2616.2</ele>
        <time>2021-02-27T11:50:23Z</time>
      </trkpt>
      <trkpt lat="45.23934" lon="6.102">
        <ele>2616.2</ele>
        <time>2021-02-27T11:50:24Z</time>
      </trkpt>
      <trkpt lat="45.23934" lon="6.102">
        <ele>2616.6</ele>
        <time>2021-02-27T11:50:25Z</time>
      </trkpt>
      <trkpt lat="45.23933" lon="6.10203">
        <ele>2616.8</ele>
        <time>2021-02-27T11:50:26Z</time>
      </trkpt>
      <trkpt lat="45.23933" lon="6.10203">
        <ele>2616.8</ele>
        <time>2021-02-27T11:50:27Z</time>
      </trkpt>
      <trkpt lat="45.23933" lon="6.10203">
        <ele>2617.4</ele>
        <time>2021-02-27T11:50:28Z</time>
      </trkpt>
      <trkpt lat="45.23933" lon="6.10206">
        <ele>2617.6</ele>
        <time>2021-02-27T11:50:29Z</time>
      </trkpt>
      <trkpt lat="45.23933" lon="6.10206">
        <ele>2617.4</ele>
        <time>2021-02-27T11:50:30Z</time>
      </trkpt>
      <trkpt lat="45.23933" lon="6.10206">
        <ele>2617.8</ele>
        <time>2021-02-27T11:50:31Z</time>
      </trkpt>
      <trkpt lat="45.23933" lon="6.10206">
        <ele>2618</ele>
        <time>2021-02-27T11:50:32Z</time>
      </trkpt>
      <trkpt lat="45.23932" lon="6.10209">
        <ele>2618.2</ele>
        <time>2021-02-27T11:50:33Z</time>
      </trkpt>
      <trkpt lat="45.23932" lon="6.10209">
        <ele>2618.8</ele>
        <time>2021-02-27T11:50:34Z</time>
      </trkpt>
      <trkpt lat="45.23931" lon="6.10212">
        <ele>2618.8</ele>
        <time>2021-02-27T11:50:35Z</time>
      </trkpt>
      <trkpt lat="45.23931" lon="6.10212">
        <ele>2618.8</ele>
        <time>2021-02-27T11:50:36Z</time>
      </trkpt>
      <trkpt lat="45.23931" lon="6.10212">
        <ele>2619.4</ele>
        <time>2021-02-27T11:50:37Z</time>
      </trkpt>
      <trkpt lat="45.23931" lon="6.10215">
        <ele>2619.6</ele>
        <time>2021-02-27T11:50:38Z</time>
      </trkpt>
      <trkpt lat="45.23931" lon="6.10215">
        <ele>2619.8</ele>
        <time>2021-02-27T11:50:39Z</time>
      </trkpt>
      <trkpt lat="45.2393" lon="6.10217">
        <ele>2620.4</ele>
        <time>2021-02-27T11:50:40Z</time>
      </trkpt>
      <trkpt lat="45.2393" lon="6.10217">
        <ele>2620.2</ele>
        <time>2021-02-27T11:50:41Z</time>
      </trkpt>
      <trkpt lat="45.2393" lon="6.10217">
        <ele>2620.4</ele>
        <time>2021-02-27T11:50:42Z</time>
      </trkpt>
      <trkpt lat="45.23929" lon="6.1022">
        <ele>2620.8</ele>
        <time>2021-02-27T11:50:43Z</time>
      </trkpt>
      <trkpt lat="45.23929" lon="6.1022">
        <ele>2620.8</ele>
        <time>2021-02-27T11:50:44Z</time>
      </trkpt>
      <trkpt lat="45.23929" lon="6.1022">
        <ele>2621.2</ele>
        <time>2021-02-27T11:50:45Z</time>
      </trkpt>
      <trkpt lat="45.23928" lon="6.10223">
        <ele>2621</ele>
        <time>2021-02-27T11:50:46Z</time>
      </trkpt>
      <trkpt lat="45.23928" lon="6.10223">
        <ele>2621.2</ele>
        <time>2021-02-27T11:50:47Z</time>
      </trkpt>
      <trkpt lat="45.23928" lon="6.10223">
        <ele>2621.4</ele>
        <time>2021-02-27T11:50:48Z</time>
      </trkpt>
      <trkpt lat="45.23928" lon="6.10226">
        <ele>2621.4</ele>
        <time>2021-02-27T11:50:49Z</time>
      </trkpt>
      <trkpt lat="45.23928" lon="6.10226">
        <ele>2621.6</ele>
        <time>2021-02-27T11:50:50Z</time>
      </trkpt>
      <trkpt lat="45.23928" lon="6.10226">
        <ele>2622</ele>
        <time>2021-02-27T11:50:51Z</time>
      </trkpt>
      <trkpt lat="45.23927" lon="6.10228">
        <ele>2622.2</ele>
        <time>2021-02-27T11:50:52Z</time>
      </trkpt>
      <trkpt lat="45.23927" lon="6.10228">
        <ele>2622.2</ele>
        <time>2021-02-27T11:50:53Z</time>
      </trkpt>
      <trkpt lat="45.23927" lon="6.10228">
        <ele>2623</ele>
        <time>2021-02-27T11:50:54Z</time>
      </trkpt>
      <trkpt lat="45.23927" lon="6.10232">
        <ele>2623.2</ele>
        <time>2021-02-27T11:50:55Z</time>
      </trkpt>
      <trkpt lat="45.23927" lon="6.10232">
        <ele>2623</ele>
        <time>2021-02-27T11:50:56Z</time>
      </trkpt>
      <trkpt lat="45.23927" lon="6.10232">
        <ele>2623.8</ele>
        <time>2021-02-27T11:50:57Z</time>
      </trkpt>
      <trkpt lat="45.23926" lon="6.10235">
        <ele>2623.8</ele>
        <time>2021-02-27T11:50:58Z</time>
      </trkpt>
      <trkpt lat="45.23926" lon="6.10235">
        <ele>2623.8</ele>
        <time>2021-02-27T11:50:59Z</time>
      </trkpt>
      <trkpt lat="45.23926" lon="6.10235">
        <ele>2623.8</ele>
        <time>2021-02-27T11:51:00Z</time>
      </trkpt>
      <trkpt lat="45.23925" lon="6.10238">
        <ele>2623.8</ele>
        <time>2021-02-27T11:51:01Z</time>
      </trkpt>
      <trkpt lat="45.23925" lon="6.10238">
        <ele>2623.2</ele>
        <time>2021-02-27T11:51:02Z</time>
      </trkpt>
      <trkpt lat="45.23925" lon="6.10238">
        <ele>2623.2</ele>
        <time>2021-02-27T11:51:03Z</time>
      </trkpt>
      <trkpt lat="45.23926" lon="6.10241">
        <ele>2624</ele>
        <time>2021-02-27T11:51:04Z</time>
      </trkpt>
      <trkpt lat="45.23926" lon="6.10241">
        <ele>2624.2</ele>
        <time>2021-02-27T11:51:05Z</time>
      </trkpt>
      <trkpt lat="45.23926" lon="6.10241">
        <ele>2624.6</ele>
        <time>2021-02-27T11:51:06Z</time>
      </trkpt>
      <trkpt lat="45.23926" lon="6.10241">
        <ele>2625</ele>
        <time>2021-02-27T11:51:07Z</time>
      </trkpt>
      <trkpt lat="45.23925" lon="6.10244">
        <ele>2625.8</ele>
        <time>2021-02-27T11:51:08Z</time>
      </trkpt>
      <trkpt lat="45.23925" lon="6.10244">
        <ele>2625.6</ele>
        <time>2021-02-27T11:51:09Z</time>
      </trkpt>
      <trkpt lat="45.23925" lon="6.10244">
        <ele>2624.2</ele>
        <time>2021-02-27T11:51:10Z</time>
      </trkpt>
      <trkpt lat="45.23925" lon="6.10244">
        <ele>2624.8</ele>
        <time>2021-02-27T11:51:11Z</time>
      </trkpt>
      <trkpt lat="45.23924" lon="6.10248">
        <ele>2625.2</ele>
        <time>2021-02-27T11:51:12Z</time>
      </trkpt>
      <trkpt lat="45.23924" lon="6.10248">
        <ele>2625</ele>
        <time>2021-02-27T11:51:13Z</time>
      </trkpt>
      <trkpt lat="45.23924" lon="6.10248">
        <ele>2625</ele>
        <time>2021-02-27T11:51:14Z</time>
      </trkpt>
      <trkpt lat="45.23923" lon="6.10252">
        <ele>2625.2</ele>
        <time>2021-02-27T11:51:15Z</time>
      </trkpt>
      <trkpt lat="45.23923" lon="6.10252">
        <ele>2625.2</ele>
        <time>2021-02-27T11:51:16Z</time>
      </trkpt>
      <trkpt lat="45.23923" lon="6.10254">
        <ele>2624.8</ele>
        <time>2021-02-27T11:51:17Z</time>
      </trkpt>
      <trkpt lat="45.23923" lon="6.10254">
        <ele>2625.4</ele>
        <time>2021-02-27T11:51:18Z</time>
      </trkpt>
      <trkpt lat="45.23923" lon="6.10254">
        <ele>2625</ele>
        <time>2021-02-27T11:51:19Z</time>
      </trkpt>
      <trkpt lat="45.23922" lon="6.10257">
        <ele>2625.6</ele>
        <time>2021-02-27T11:51:20Z</time>
      </trkpt>
      <trkpt lat="45.23922" lon="6.10257">
        <ele>2626.2</ele>
        <time>2021-02-27T11:51:21Z</time>
      </trkpt>
      <trkpt lat="45.23921" lon="6.10259">
        <ele>2626.2</ele>
        <time>2021-02-27T11:51:22Z</time>
      </trkpt>
      <trkpt lat="45.23921" lon="6.10259">
        <ele>2626.4</ele>
        <time>2021-02-27T11:51:23Z</time>
      </trkpt>
      <trkpt lat="45.23921" lon="6.10259">
        <ele>2627</ele>
        <time>2021-02-27T11:51:24Z</time>
      </trkpt>
      <trkpt lat="45.23921" lon="6.10262">
        <ele>2627</ele>
        <time>2021-02-27T11:51:25Z</time>
      </trkpt>
      <trkpt lat="45.23921" lon="6.10262">
        <ele>2627.8</ele>
        <time>2021-02-27T11:51:26Z</time>
      </trkpt>
      <trkpt lat="45.23921" lon="6.10265">
        <ele>2627.6</ele>
        <time>2021-02-27T11:51:27Z</time>
      </trkpt>
      <trkpt lat="45.23921" lon="6.10265">
        <ele>2626.6</ele>
        <time>2021-02-27T11:51:28Z</time>
      </trkpt>
      <trkpt lat="45.23921" lon="6.10265">
        <ele>2627.6</ele>
        <time>2021-02-27T11:51:29Z</time>
      </trkpt>
      <trkpt lat="45.23921" lon="6.10269">
        <ele>2628</ele>
        <time>2021-02-27T11:51:30Z</time>
      </trkpt>
      <trkpt lat="45.23921" lon="6.10269">
        <ele>2627.8</ele>
        <time>2021-02-27T11:51:31Z</time>
      </trkpt>
      <trkpt lat="45.23921" lon="6.10269">
        <ele>2628.2</ele>
        <time>2021-02-27T11:51:32Z</time>
      </trkpt>
      <trkpt lat="45.2392" lon="6.10272">
        <ele>2629</ele>
        <time>2021-02-27T11:51:33Z</time>
      </trkpt>
      <trkpt lat="45.2392" lon="6.10272">
        <ele>2629.2</ele>
        <time>2021-02-27T11:51:34Z</time>
      </trkpt>
      <trkpt lat="45.2392" lon="6.10272">
        <ele>2629.8</ele>
        <time>2021-02-27T11:51:35Z</time>
      </trkpt>
      <trkpt lat="45.2392" lon="6.10272">
        <ele>2630.2</ele>
        <time>2021-02-27T11:51:36Z</time>
      </trkpt>
      <trkpt lat="45.2392" lon="6.10275">
        <ele>2629.8</ele>
        <time>2021-02-27T11:51:37Z</time>
      </trkpt>
      <trkpt lat="45.2392" lon="6.10275">
        <ele>2629.8</ele>
        <time>2021-02-27T11:51:38Z</time>
      </trkpt>
      <trkpt lat="45.2392" lon="6.10276">
        <ele>2628.8</ele>
        <time>2021-02-27T11:51:39Z</time>
      </trkpt>
      <trkpt lat="45.2392" lon="6.10277">
        <ele>2629</ele>
        <time>2021-02-27T11:51:40Z</time>
      </trkpt>
      <trkpt lat="45.2392" lon="6.10278">
        <ele>2629</ele>
        <time>2021-02-27T11:51:41Z</time>
      </trkpt>
      <trkpt lat="45.2392" lon="6.10279">
        <ele>2628.8</ele>
        <time>2021-02-27T11:51:42Z</time>
      </trkpt>
      <trkpt lat="45.2392" lon="6.1028">
        <ele>2629.2</ele>
        <time>2021-02-27T11:51:43Z</time>
      </trkpt>
      <trkpt lat="45.2392" lon="6.10281">
        <ele>2630</ele>
        <time>2021-02-27T11:51:44Z</time>
      </trkpt>
      <trkpt lat="45.23921" lon="6.10282">
        <ele>2630.6</ele>
        <time>2021-02-27T11:51:45Z</time>
      </trkpt>
      <trkpt lat="45.23921" lon="6.10282">
        <ele>2631</ele>
        <time>2021-02-27T11:51:46Z</time>
      </trkpt>
      <trkpt lat="45.23923" lon="6.10284">
        <ele>2631.8</ele>
        <time>2021-02-27T11:51:47Z</time>
      </trkpt>
      <trkpt lat="45.23923" lon="6.10284">
        <ele>2632.4</ele>
        <time>2021-02-27T11:51:48Z</time>
      </trkpt>
      <trkpt lat="45.23923" lon="6.10285">
        <ele>2632.6</ele>
        <time>2021-02-27T11:51:49Z</time>
      </trkpt>
      <trkpt lat="45.23923" lon="6.10286">
        <ele>2632.8</ele>
        <time>2021-02-27T11:51:50Z</time>
      </trkpt>
      <trkpt lat="45.23923" lon="6.10287">
        <ele>2633.4</ele>
        <time>2021-02-27T11:51:51Z</time>
      </trkpt>
      <trkpt lat="45.23923" lon="6.10288">
        <ele>2634</ele>
        <time>2021-02-27T11:51:52Z</time>
      </trkpt>
      <trkpt lat="45.23923" lon="6.10289">
        <ele>2634.8</ele>
        <time>2021-02-27T11:51:53Z</time>
      </trkpt>
      <trkpt lat="45.23923" lon="6.1029">
        <ele>2634.8</ele>
        <time>2021-02-27T11:51:54Z</time>
      </trkpt>
      <trkpt lat="45.23923" lon="6.1029">
        <ele>2635.6</ele>
        <time>2021-02-27T11:51:55Z</time>
      </trkpt>
      <trkpt lat="45.23923" lon="6.10291">
        <ele>2636.4</ele>
        <time>2021-02-27T11:51:56Z</time>
      </trkpt>
      <trkpt lat="45.23923" lon="6.10292">
        <ele>2636</ele>
        <time>2021-02-27T11:51:57Z</time>
      </trkpt>
      <trkpt lat="45.23923" lon="6.10293">
        <ele>2635.2</ele>
        <time>2021-02-27T11:51:58Z</time>
      </trkpt>
      <trkpt lat="45.23923" lon="6.10294">
        <ele>2635.2</ele>
        <time>2021-02-27T11:51:59Z</time>
      </trkpt>
      <trkpt lat="45.23923" lon="6.10295">
        <ele>2634.8</ele>
        <time>2021-02-27T11:52:00Z</time>
      </trkpt>
      <trkpt lat="45.23923" lon="6.10296">
        <ele>2635.4</ele>
        <time>2021-02-27T11:52:01Z</time>
      </trkpt>
      <trkpt lat="45.23923" lon="6.10297">
        <ele>2635.6</ele>
        <time>2021-02-27T11:52:02Z</time>
      </trkpt>
      <trkpt lat="45.23923" lon="6.10297">
        <ele>2635.8</ele>
        <time>2021-02-27T11:52:03Z</time>
      </trkpt>
      <trkpt lat="45.23923" lon="6.10297">
        <ele>2636</ele>
        <time>2021-02-27T11:52:04Z</time>
      </trkpt>
      <trkpt lat="45.23923" lon="6.10297">
        <ele>2636</ele>
        <time>2021-02-27T11:52:05Z</time>
      </trkpt>
      <trkpt lat="45.23925" lon="6.103">
        <ele>2636.4</ele>
        <time>2021-02-27T11:52:06Z</time>
      </trkpt>
      <trkpt lat="45.23925" lon="6.103">
        <ele>2636.6</ele>
        <time>2021-02-27T11:52:07Z</time>
      </trkpt>
      <trkpt lat="45.23925" lon="6.103">
        <ele>2637</ele>
        <time>2021-02-27T11:52:08Z</time>
      </trkpt>
      <trkpt lat="45.23925" lon="6.10303">
        <ele>2637.6</ele>
        <time>2021-02-27T11:52:09Z</time>
      </trkpt>
      <trkpt lat="45.23925" lon="6.10303">
        <ele>2638</ele>
        <time>2021-02-27T11:52:10Z</time>
      </trkpt>
      <trkpt lat="45.23925" lon="6.10304">
        <ele>2638.4</ele>
        <time>2021-02-27T11:52:11Z</time>
      </trkpt>
      <trkpt lat="45.23925" lon="6.10305">
        <ele>2638.8</ele>
        <time>2021-02-27T11:52:12Z</time>
      </trkpt>
      <trkpt lat="45.23925" lon="6.10306">
        <ele>2638.8</ele>
        <time>2021-02-27T11:52:13Z</time>
      </trkpt>
      <trkpt lat="45.23925" lon="6.10307">
        <ele>2639.2</ele>
        <time>2021-02-27T11:52:14Z</time>
      </trkpt>
      <trkpt lat="45.23925" lon="6.10308">
        <ele>2640</ele>
        <time>2021-02-27T11:52:15Z</time>
      </trkpt>
      <trkpt lat="45.23925" lon="6.10309">
        <ele>2640.2</ele>
        <time>2021-02-27T11:52:16Z</time>
      </trkpt>
      <trkpt lat="45.23925" lon="6.1031">
        <ele>2640.6</ele>
        <time>2021-02-27T11:52:17Z</time>
      </trkpt>
      <trkpt lat="45.23925" lon="6.10311">
        <ele>2640.8</ele>
        <time>2021-02-27T11:52:18Z</time>
      </trkpt>
      <trkpt lat="45.23925" lon="6.10312">
        <ele>2641.8</ele>
        <time>2021-02-27T11:52:19Z</time>
      </trkpt>
      <trkpt lat="45.23925" lon="6.10313">
        <ele>2642.2</ele>
        <time>2021-02-27T11:52:20Z</time>
      </trkpt>
      <trkpt lat="45.23925" lon="6.10314">
        <ele>2642.2</ele>
        <time>2021-02-27T11:52:21Z</time>
      </trkpt>
      <trkpt lat="45.23925" lon="6.10315">
        <ele>2642.6</ele>
        <time>2021-02-27T11:52:22Z</time>
      </trkpt>
      <trkpt lat="45.23925" lon="6.10316">
        <ele>2643</ele>
        <time>2021-02-27T11:52:23Z</time>
      </trkpt>
      <trkpt lat="45.23926" lon="6.10317">
        <ele>2643.2</ele>
        <time>2021-02-27T11:52:24Z</time>
      </trkpt>
      <trkpt lat="45.23926" lon="6.10318">
        <ele>2643.2</ele>
        <time>2021-02-27T11:52:25Z</time>
      </trkpt>
      <trkpt lat="45.23927" lon="6.10319">
        <ele>2642.8</ele>
        <time>2021-02-27T11:52:26Z</time>
      </trkpt>
      <trkpt lat="45.23927" lon="6.10319">
        <ele>2643</ele>
        <time>2021-02-27T11:52:27Z</time>
      </trkpt>
      <trkpt lat="45.23928" lon="6.1032">
        <ele>2643.2</ele>
        <time>2021-02-27T11:52:28Z</time>
      </trkpt>
      <trkpt lat="45.23928" lon="6.10321">
        <ele>2643.2</ele>
        <time>2021-02-27T11:52:29Z</time>
      </trkpt>
      <trkpt lat="45.23929" lon="6.10322">
        <ele>2643.6</ele>
        <time>2021-02-27T11:52:30Z</time>
      </trkpt>
      <trkpt lat="45.23929" lon="6.10323">
        <ele>2643.4</ele>
        <time>2021-02-27T11:52:31Z</time>
      </trkpt>
      <trkpt lat="45.2393" lon="6.10323">
        <ele>2643.4</ele>
        <time>2021-02-27T11:52:32Z</time>
      </trkpt>
      <trkpt lat="45.2393" lon="6.10323">
        <ele>2643.8</ele>
        <time>2021-02-27T11:52:33Z</time>
      </trkpt>
      <trkpt lat="45.2393" lon="6.10326">
        <ele>2644.2</ele>
        <time>2021-02-27T11:52:34Z</time>
      </trkpt>
      <trkpt lat="45.2393" lon="6.10326">
        <ele>2644.6</ele>
        <time>2021-02-27T11:52:35Z</time>
      </trkpt>
      <trkpt lat="45.2393" lon="6.10326">
        <ele>2644.8</ele>
        <time>2021-02-27T11:52:36Z</time>
      </trkpt>
      <trkpt lat="45.2393" lon="6.10326">
        <ele>2645.6</ele>
        <time>2021-02-27T11:52:37Z</time>
      </trkpt>
      <trkpt lat="45.2393" lon="6.1033">
        <ele>2646</ele>
        <time>2021-02-27T11:52:38Z</time>
      </trkpt>
      <trkpt lat="45.2393" lon="6.1033">
        <ele>2646.4</ele>
        <time>2021-02-27T11:52:39Z</time>
      </trkpt>
      <trkpt lat="45.2393" lon="6.1033">
        <ele>2647</ele>
        <time>2021-02-27T11:52:40Z</time>
      </trkpt>
      <trkpt lat="45.2393" lon="6.1033">
        <ele>2647.2</ele>
        <time>2021-02-27T11:52:41Z</time>
      </trkpt>
      <trkpt lat="45.2393" lon="6.1033">
        <ele>2647.8</ele>
        <time>2021-02-27T11:52:42Z</time>
      </trkpt>
      <trkpt lat="45.23929" lon="6.10335">
        <ele>2648</ele>
        <time>2021-02-27T11:52:43Z</time>
      </trkpt>
      <trkpt lat="45.23929" lon="6.10335">
        <ele>2648.2</ele>
        <time>2021-02-27T11:52:44Z</time>
      </trkpt>
      <trkpt lat="45.23929" lon="6.10335">
        <ele>2648.6</ele>
        <time>2021-02-27T11:52:45Z</time>
      </trkpt>
      <trkpt lat="45.23929" lon="6.10335">
        <ele>2648.8</ele>
        <time>2021-02-27T11:52:46Z</time>
      </trkpt>
      <trkpt lat="45.23928" lon="6.10338">
        <ele>2649.6</ele>
        <time>2021-02-27T11:52:47Z</time>
      </trkpt>
      <trkpt lat="45.23928" lon="6.10338">
        <ele>2650.2</ele>
        <time>2021-02-27T11:52:48Z</time>
      </trkpt>
      <trkpt lat="45.23928" lon="6.10338">
        <ele>2650.4</ele>
        <time>2021-02-27T11:52:49Z</time>
      </trkpt>
      <trkpt lat="45.23928" lon="6.10341">
        <ele>2651</ele>
        <time>2021-02-27T11:52:50Z</time>
      </trkpt>
      <trkpt lat="45.23928" lon="6.10341">
        <ele>2650.6</ele>
        <time>2021-02-27T11:52:51Z</time>
      </trkpt>
      <trkpt lat="45.23928" lon="6.10341">
        <ele>2650.4</ele>
        <time>2021-02-27T11:52:52Z</time>
      </trkpt>
      <trkpt lat="45.23927" lon="6.10344">
        <ele>2651</ele>
        <time>2021-02-27T11:52:53Z</time>
      </trkpt>
      <trkpt lat="45.23927" lon="6.10344">
        <ele>2651.2</ele>
        <time>2021-02-27T11:52:54Z</time>
      </trkpt>
      <trkpt lat="45.23926" lon="6.10346">
        <ele>2651.2</ele>
        <time>2021-02-27T11:52:55Z</time>
      </trkpt>
      <trkpt lat="45.23926" lon="6.10346">
        <ele>2651.4</ele>
        <time>2021-02-27T11:52:56Z</time>
      </trkpt>
      <trkpt lat="45.23926" lon="6.10346">
        <ele>2651.8</ele>
        <time>2021-02-27T11:52:57Z</time>
      </trkpt>
      <trkpt lat="45.23925" lon="6.10349">
        <ele>2651.8</ele>
        <time>2021-02-27T11:52:58Z</time>
      </trkpt>
      <trkpt lat="45.23925" lon="6.10349">
        <ele>2651.4</ele>
        <time>2021-02-27T11:52:59Z</time>
      </trkpt>
      <trkpt lat="45.23925" lon="6.10349">
        <ele>2651.2</ele>
        <time>2021-02-27T11:53:00Z</time>
      </trkpt>
      <trkpt lat="45.23924" lon="6.10352">
        <ele>2651.2</ele>
        <time>2021-02-27T11:53:01Z</time>
      </trkpt>
      <trkpt lat="45.23924" lon="6.10352">
        <ele>2651.6</ele>
        <time>2021-02-27T11:53:02Z</time>
      </trkpt>
      <trkpt lat="45.23925" lon="6.10353">
        <ele>2653.8</ele>
        <time>2021-02-27T11:53:03Z</time>
      </trkpt>
      <trkpt lat="45.23925" lon="6.10354">
        <ele>2653.4</ele>
        <time>2021-02-27T11:53:04Z</time>
      </trkpt>
      <trkpt lat="45.23925" lon="6.10355">
        <ele>2653.6</ele>
        <time>2021-02-27T11:53:05Z</time>
      </trkpt>
      <trkpt lat="45.23925" lon="6.10356">
        <ele>2653.8</ele>
        <time>2021-02-27T11:53:06Z</time>
      </trkpt>
      <trkpt lat="45.23925" lon="6.10357">
        <ele>2654.4</ele>
        <time>2021-02-27T11:53:07Z</time>
      </trkpt>
      <trkpt lat="45.23926" lon="6.10358">
        <ele>2656.6</ele>
        <time>2021-02-27T11:53:08Z</time>
      </trkpt>
      <trkpt lat="45.23926" lon="6.10359">
        <ele>2656.8</ele>
        <time>2021-02-27T11:53:09Z</time>
      </trkpt>
      <trkpt lat="45.23926" lon="6.1036">
        <ele>2656.4</ele>
        <time>2021-02-27T11:53:10Z</time>
      </trkpt>
      <trkpt lat="45.23926" lon="6.10361">
        <ele>2656.8</ele>
        <time>2021-02-27T11:53:11Z</time>
      </trkpt>
      <trkpt lat="45.23926" lon="6.10362">
        <ele>2656.4</ele>
        <time>2021-02-27T11:53:12Z</time>
      </trkpt>
      <trkpt lat="45.23927" lon="6.10363">
        <ele>2656.4</ele>
        <time>2021-02-27T11:53:13Z</time>
      </trkpt>
      <trkpt lat="45.23927" lon="6.10364">
        <ele>2656.4</ele>
        <time>2021-02-27T11:53:14Z</time>
      </trkpt>
      <trkpt lat="45.23927" lon="6.10365">
        <ele>2656.6</ele>
        <time>2021-02-27T11:53:15Z</time>
      </trkpt>
      <trkpt lat="45.23927" lon="6.10366">
        <ele>2657.2</ele>
        <time>2021-02-27T11:53:16Z</time>
      </trkpt>
      <trkpt lat="45.23928" lon="6.10367">
        <ele>2657.8</ele>
        <time>2021-02-27T11:53:17Z</time>
      </trkpt>
      <trkpt lat="45.23928" lon="6.10368">
        <ele>2658</ele>
        <time>2021-02-27T11:53:18Z</time>
      </trkpt>
      <trkpt lat="45.23929" lon="6.10369">
        <ele>2658.4</ele>
        <time>2021-02-27T11:53:19Z</time>
      </trkpt>
      <trkpt lat="45.23929" lon="6.1037">
        <ele>2658.8</ele>
        <time>2021-02-27T11:53:20Z</time>
      </trkpt>
      <trkpt lat="45.2393" lon="6.10371">
        <ele>2659.4</ele>
        <time>2021-02-27T11:53:21Z</time>
      </trkpt>
      <trkpt lat="45.2393" lon="6.10372">
        <ele>2659</ele>
        <time>2021-02-27T11:53:22Z</time>
      </trkpt>
      <trkpt lat="45.2393" lon="6.10373">
        <ele>2658.8</ele>
        <time>2021-02-27T11:53:23Z</time>
      </trkpt>
      <trkpt lat="45.23931" lon="6.10374">
        <ele>2659.2</ele>
        <time>2021-02-27T11:53:24Z</time>
      </trkpt>
      <trkpt lat="45.23931" lon="6.10375">
        <ele>2659.4</ele>
        <time>2021-02-27T11:53:25Z</time>
      </trkpt>
      <trkpt lat="45.23932" lon="6.10376">
        <ele>2660</ele>
        <time>2021-02-27T11:53:26Z</time>
      </trkpt>
      <trkpt lat="45.23932" lon="6.10377">
        <ele>2660.2</ele>
        <time>2021-02-27T11:53:27Z</time>
      </trkpt>
      <trkpt lat="45.23932" lon="6.10377">
        <ele>2660.4</ele>
        <time>2021-02-27T11:53:28Z</time>
      </trkpt>
      <trkpt lat="45.23934" lon="6.1038">
        <ele>2661.4</ele>
        <time>2021-02-27T11:53:29Z</time>
      </trkpt>
      <trkpt lat="45.23934" lon="6.1038">
        <ele>2662</ele>
        <time>2021-02-27T11:53:30Z</time>
      </trkpt>
      <trkpt lat="45.23934" lon="6.1038">
        <ele>2662.2</ele>
        <time>2021-02-27T11:53:31Z</time>
      </trkpt>
      <trkpt lat="45.23935" lon="6.10381">
        <ele>2662.6</ele>
        <time>2021-02-27T11:53:32Z</time>
      </trkpt>
      <trkpt lat="45.23935" lon="6.10382">
        <ele>2662.8</ele>
        <time>2021-02-27T11:53:33Z</time>
      </trkpt>
      <trkpt lat="45.23935" lon="6.10383">
        <ele>2662.8</ele>
        <time>2021-02-27T11:53:34Z</time>
      </trkpt>
      <trkpt lat="45.23935" lon="6.10384">
        <ele>2662.8</ele>
        <time>2021-02-27T11:53:35Z</time>
      </trkpt>
      <trkpt lat="45.23936" lon="6.10384">
        <ele>2663</ele>
        <time>2021-02-27T11:53:36Z</time>
      </trkpt>
      <trkpt lat="45.23936" lon="6.10385">
        <ele>2663.4</ele>
        <time>2021-02-27T11:53:37Z</time>
      </trkpt>
      <trkpt lat="45.23936" lon="6.10386">
        <ele>2663.6</ele>
        <time>2021-02-27T11:53:38Z</time>
      </trkpt>
      <trkpt lat="45.23937" lon="6.10387">
        <ele>2664</ele>
        <time>2021-02-27T11:53:39Z</time>
      </trkpt>
      <trkpt lat="45.23937" lon="6.10388">
        <ele>2664.6</ele>
        <time>2021-02-27T11:53:40Z</time>
      </trkpt>
      <trkpt lat="45.23937" lon="6.10389">
        <ele>2665</ele>
        <time>2021-02-27T11:53:41Z</time>
      </trkpt>
      <trkpt lat="45.23937" lon="6.10389">
        <ele>2665.4</ele>
        <time>2021-02-27T11:53:42Z</time>
      </trkpt>
      <trkpt lat="45.23938" lon="6.1039">
        <ele>2665.6</ele>
        <time>2021-02-27T11:53:43Z</time>
      </trkpt>
      <trkpt lat="45.23938" lon="6.10391">
        <ele>2666</ele>
        <time>2021-02-27T11:53:44Z</time>
      </trkpt>
      <trkpt lat="45.23938" lon="6.10391">
        <ele>2665.8</ele>
        <time>2021-02-27T11:53:45Z</time>
      </trkpt>
      <trkpt lat="45.23938" lon="6.10391">
        <ele>2666.2</ele>
        <time>2021-02-27T11:53:46Z</time>
      </trkpt>
      <trkpt lat="45.23938" lon="6.10391">
        <ele>2665.6</ele>
        <time>2021-02-27T11:53:47Z</time>
      </trkpt>
      <trkpt lat="45.23939" lon="6.10394">
        <ele>2666.2</ele>
        <time>2021-02-27T11:53:48Z</time>
      </trkpt>
      <trkpt lat="45.23939" lon="6.10394">
        <ele>2666.2</ele>
        <time>2021-02-27T11:53:49Z</time>
      </trkpt>
      <trkpt lat="45.23939" lon="6.10394">
        <ele>2666.4</ele>
        <time>2021-02-27T11:53:50Z</time>
      </trkpt>
      <trkpt lat="45.23941" lon="6.10397">
        <ele>2666.8</ele>
        <time>2021-02-27T11:53:51Z</time>
      </trkpt>
      <trkpt lat="45.23941" lon="6.10397">
        <ele>2666.4</ele>
        <time>2021-02-27T11:53:52Z</time>
      </trkpt>
      <trkpt lat="45.23941" lon="6.10397">
        <ele>2666.4</ele>
        <time>2021-02-27T11:53:53Z</time>
      </trkpt>
      <trkpt lat="45.23943" lon="6.10399">
        <ele>2666.6</ele>
        <time>2021-02-27T11:53:54Z</time>
      </trkpt>
      <trkpt lat="45.23943" lon="6.10399">
        <ele>2667.2</ele>
        <time>2021-02-27T11:53:55Z</time>
      </trkpt>
      <trkpt lat="45.23943" lon="6.10399">
        <ele>2667.8</ele>
        <time>2021-02-27T11:53:56Z</time>
      </trkpt>
      <trkpt lat="45.23945" lon="6.10401">
        <ele>2668.6</ele>
        <time>2021-02-27T11:53:57Z</time>
      </trkpt>
      <trkpt lat="45.23945" lon="6.10401">
        <ele>2668.8</ele>
        <time>2021-02-27T11:53:58Z</time>
      </trkpt>
      <trkpt lat="45.23945" lon="6.10401">
        <ele>2670.2</ele>
        <time>2021-02-27T11:53:59Z</time>
      </trkpt>
      <trkpt lat="45.23947" lon="6.10403">
        <ele>2669.8</ele>
        <time>2021-02-27T11:54:00Z</time>
      </trkpt>
      <trkpt lat="45.23947" lon="6.10403">
        <ele>2669.4</ele>
        <time>2021-02-27T11:54:01Z</time>
      </trkpt>
      <trkpt lat="45.23948" lon="6.10405">
        <ele>2669.8</ele>
        <time>2021-02-27T11:54:02Z</time>
      </trkpt>
      <trkpt lat="45.23948" lon="6.10405">
        <ele>2669.8</ele>
        <time>2021-02-27T11:54:03Z</time>
      </trkpt>
      <trkpt lat="45.23948" lon="6.10406">
        <ele>2669.2</ele>
        <time>2021-02-27T11:54:04Z</time>
      </trkpt>
      <trkpt lat="45.23948" lon="6.10407">
        <ele>2669.4</ele>
        <time>2021-02-27T11:54:05Z</time>
      </trkpt>
      <trkpt lat="45.23948" lon="6.10408">
        <ele>2669.2</ele>
        <time>2021-02-27T11:54:06Z</time>
      </trkpt>
      <trkpt lat="45.23948" lon="6.10409">
        <ele>2669</ele>
        <time>2021-02-27T11:54:07Z</time>
      </trkpt>
      <trkpt lat="45.23948" lon="6.1041">
        <ele>2669</ele>
        <time>2021-02-27T11:54:08Z</time>
      </trkpt>
      <trkpt lat="45.23948" lon="6.10411">
        <ele>2669.2</ele>
        <time>2021-02-27T11:54:09Z</time>
      </trkpt>
      <trkpt lat="45.23948" lon="6.10412">
        <ele>2669.2</ele>
        <time>2021-02-27T11:54:10Z</time>
      </trkpt>
      <trkpt lat="45.23948" lon="6.10413">
        <ele>2669</ele>
        <time>2021-02-27T11:54:11Z</time>
      </trkpt>
      <trkpt lat="45.23948" lon="6.10414">
        <ele>2669.2</ele>
        <time>2021-02-27T11:54:12Z</time>
      </trkpt>
      <trkpt lat="45.23948" lon="6.10414">
        <ele>2669.4</ele>
        <time>2021-02-27T11:54:13Z</time>
      </trkpt>
      <trkpt lat="45.23948" lon="6.10415">
        <ele>2670</ele>
        <time>2021-02-27T11:54:14Z</time>
      </trkpt>
      <trkpt lat="45.23948" lon="6.10416">
        <ele>2670.4</ele>
        <time>2021-02-27T11:54:15Z</time>
      </trkpt>
      <trkpt lat="45.23948" lon="6.10417">
        <ele>2670.6</ele>
        <time>2021-02-27T11:54:16Z</time>
      </trkpt>
      <trkpt lat="45.23948" lon="6.10418">
        <ele>2671.4</ele>
        <time>2021-02-27T11:54:17Z</time>
      </trkpt>
      <trkpt lat="45.23948" lon="6.10419">
        <ele>2671.8</ele>
        <time>2021-02-27T11:54:18Z</time>
      </trkpt>
      <trkpt lat="45.23947" lon="6.10421">
        <ele>2671.6</ele>
        <time>2021-02-27T11:54:19Z</time>
      </trkpt>
      <trkpt lat="45.23947" lon="6.10422">
        <ele>2671.8</ele>
        <time>2021-02-27T11:54:20Z</time>
      </trkpt>
      <trkpt lat="45.23947" lon="6.10423">
        <ele>2672.2</ele>
        <time>2021-02-27T11:54:21Z</time>
      </trkpt>
      <trkpt lat="45.23946" lon="6.10424">
        <ele>2672.2</ele>
        <time>2021-02-27T11:54:22Z</time>
      </trkpt>
      <trkpt lat="45.23946" lon="6.10425">
        <ele>2672.4</ele>
        <time>2021-02-27T11:54:23Z</time>
      </trkpt>
      <trkpt lat="45.23946" lon="6.10427">
        <ele>2672.4</ele>
        <time>2021-02-27T11:54:24Z</time>
      </trkpt>
      <trkpt lat="45.23946" lon="6.10428">
        <ele>2673</ele>
        <time>2021-02-27T11:54:25Z</time>
      </trkpt>
      <trkpt lat="45.23946" lon="6.10429">
        <ele>2673</ele>
        <time>2021-02-27T11:54:26Z</time>
      </trkpt>
      <trkpt lat="45.23946" lon="6.1043">
        <ele>2673</ele>
        <time>2021-02-27T11:54:27Z</time>
      </trkpt>
      <trkpt lat="45.23946" lon="6.10431">
        <ele>2673.6</ele>
        <time>2021-02-27T11:54:28Z</time>
      </trkpt>
      <trkpt lat="45.23946" lon="6.10432">
        <ele>2673.8</ele>
        <time>2021-02-27T11:54:29Z</time>
      </trkpt>
      <trkpt lat="45.23946" lon="6.10433">
        <ele>2674.4</ele>
        <time>2021-02-27T11:54:30Z</time>
      </trkpt>
      <trkpt lat="45.23946" lon="6.10435">
        <ele>2674.8</ele>
        <time>2021-02-27T11:54:31Z</time>
      </trkpt>
      <trkpt lat="45.23946" lon="6.10436">
        <ele>2674.4</ele>
        <time>2021-02-27T11:54:32Z</time>
      </trkpt>
      <trkpt lat="45.23946" lon="6.10437">
        <ele>2674.4</ele>
        <time>2021-02-27T11:54:33Z</time>
      </trkpt>
      <trkpt lat="45.23946" lon="6.10437">
        <ele>2674.8</ele>
        <time>2021-02-27T11:54:34Z</time>
      </trkpt>
      <trkpt lat="45.23946" lon="6.10438">
        <ele>2674.8</ele>
        <time>2021-02-27T11:54:35Z</time>
      </trkpt>
      <trkpt lat="45.23946" lon="6.10439">
        <ele>2674.6</ele>
        <time>2021-02-27T11:54:36Z</time>
      </trkpt>
      <trkpt lat="45.23946" lon="6.1044">
        <ele>2675.4</ele>
        <time>2021-02-27T11:54:37Z</time>
      </trkpt>
      <trkpt lat="45.23946" lon="6.10441">
        <ele>2676.2</ele>
        <time>2021-02-27T11:54:38Z</time>
      </trkpt>
      <trkpt lat="45.23946" lon="6.10442">
        <ele>2675.6</ele>
        <time>2021-02-27T11:54:39Z</time>
      </trkpt>
      <trkpt lat="45.23946" lon="6.10443">
        <ele>2675.8</ele>
        <time>2021-02-27T11:54:40Z</time>
      </trkpt>
      <trkpt lat="45.23946" lon="6.10443">
        <ele>2675.8</ele>
        <time>2021-02-27T11:54:41Z</time>
      </trkpt>
      <trkpt lat="45.23946" lon="6.10444">
        <ele>2675.6</ele>
        <time>2021-02-27T11:54:42Z</time>
      </trkpt>
      <trkpt lat="45.23946" lon="6.10444">
        <ele>2675.8</ele>
        <time>2021-02-27T11:54:43Z</time>
      </trkpt>
      <trkpt lat="45.23946" lon="6.10448">
        <ele>2675.8</ele>
        <time>2021-02-27T11:54:44Z</time>
      </trkpt>
      <trkpt lat="45.23946" lon="6.10448">
        <ele>2675.6</ele>
        <time>2021-02-27T11:54:45Z</time>
      </trkpt>
      <trkpt lat="45.23946" lon="6.10448">
        <ele>2676</ele>
        <time>2021-02-27T11:54:46Z</time>
      </trkpt>
      <trkpt lat="45.23946" lon="6.10451">
        <ele>2676.4</ele>
        <time>2021-02-27T11:54:47Z</time>
      </trkpt>
      <trkpt lat="45.23946" lon="6.10451">
        <ele>2677</ele>
        <time>2021-02-27T11:54:48Z</time>
      </trkpt>
      <trkpt lat="45.23945" lon="6.10453">
        <ele>2677.6</ele>
        <time>2021-02-27T11:54:49Z</time>
      </trkpt>
      <trkpt lat="45.23945" lon="6.10453">
        <ele>2677.6</ele>
        <time>2021-02-27T11:54:50Z</time>
      </trkpt>
      <trkpt lat="45.23945" lon="6.10453">
        <ele>2678.2</ele>
        <time>2021-02-27T11:54:51Z</time>
      </trkpt>
      <trkpt lat="45.23945" lon="6.10453">
        <ele>2678.8</ele>
        <time>2021-02-27T11:54:52Z</time>
      </trkpt>
      <trkpt lat="45.23943" lon="6.10456">
        <ele>2679.4</ele>
        <time>2021-02-27T11:54:53Z</time>
      </trkpt>
      <trkpt lat="45.23943" lon="6.10456">
        <ele>2680</ele>
        <time>2021-02-27T11:54:54Z</time>
      </trkpt>
      <trkpt lat="45.23944" lon="6.10457">
        <ele>2680.4</ele>
        <time>2021-02-27T11:54:55Z</time>
      </trkpt>
      <trkpt lat="45.23944" lon="6.10458">
        <ele>2681</ele>
        <time>2021-02-27T11:54:56Z</time>
      </trkpt>
      <trkpt lat="45.23944" lon="6.10458">
        <ele>2681.4</ele>
        <time>2021-02-27T11:54:57Z</time>
      </trkpt>
      <trkpt lat="45.23944" lon="6.10459">
        <ele>2681.4</ele>
        <time>2021-02-27T11:54:58Z</time>
      </trkpt>
      <trkpt lat="45.23944" lon="6.1046">
        <ele>2681.4</ele>
        <time>2021-02-27T11:54:59Z</time>
      </trkpt>
      <trkpt lat="45.23944" lon="6.10461">
        <ele>2681.6</ele>
        <time>2021-02-27T11:55:00Z</time>
      </trkpt>
      <trkpt lat="45.23944" lon="6.10462">
        <ele>2681.6</ele>
        <time>2021-02-27T11:55:01Z</time>
      </trkpt>
      <trkpt lat="45.23944" lon="6.10462">
        <ele>2681.8</ele>
        <time>2021-02-27T11:55:02Z</time>
      </trkpt>
      <trkpt lat="45.23944" lon="6.10463">
        <ele>2682</ele>
        <time>2021-02-27T11:55:03Z</time>
      </trkpt>
      <trkpt lat="45.23944" lon="6.10464">
        <ele>2682.6</ele>
        <time>2021-02-27T11:55:04Z</time>
      </trkpt>
      <trkpt lat="45.23944" lon="6.10465">
        <ele>2683.2</ele>
        <time>2021-02-27T11:55:05Z</time>
      </trkpt>
      <trkpt lat="45.23943" lon="6.10468">
        <ele>2683.8</ele>
        <time>2021-02-27T11:55:06Z</time>
      </trkpt>
      <trkpt lat="45.23943" lon="6.10468">
        <ele>2684.6</ele>
        <time>2021-02-27T11:55:07Z</time>
      </trkpt>
      <trkpt lat="45.23943" lon="6.10468">
        <ele>2685.2</ele>
        <time>2021-02-27T11:55:08Z</time>
      </trkpt>
      <trkpt lat="45.23942" lon="6.1047">
        <ele>2685.6</ele>
        <time>2021-02-27T11:55:09Z</time>
      </trkpt>
      <trkpt lat="45.23942" lon="6.1047">
        <ele>2686</ele>
        <time>2021-02-27T11:55:10Z</time>
      </trkpt>
      <trkpt lat="45.23942" lon="6.1047">
        <ele>2686</ele>
        <time>2021-02-27T11:55:11Z</time>
      </trkpt>
      <trkpt lat="45.2394" lon="6.1047">
        <ele>2686.4</ele>
        <time>2021-02-27T11:55:12Z</time>
      </trkpt>
      <trkpt lat="45.2394" lon="6.1047">
        <ele>2686.4</ele>
        <time>2021-02-27T11:55:13Z</time>
      </trkpt>
      <trkpt lat="45.2394" lon="6.1047">
        <ele>2686.2</ele>
        <time>2021-02-27T11:55:14Z</time>
      </trkpt>
      <trkpt lat="45.23937" lon="6.10472">
        <ele>2687</ele>
        <time>2021-02-27T11:55:15Z</time>
      </trkpt>
      <trkpt lat="45.23937" lon="6.10472">
        <ele>2687</ele>
        <time>2021-02-27T11:55:16Z</time>
      </trkpt>
      <trkpt lat="45.23937" lon="6.10472">
        <ele>2687.4</ele>
        <time>2021-02-27T11:55:17Z</time>
      </trkpt>
      <trkpt lat="45.23935" lon="6.10473">
        <ele>2687.8</ele>
        <time>2021-02-27T11:55:18Z</time>
      </trkpt>
      <trkpt lat="45.23935" lon="6.10473">
        <ele>2687.8</ele>
        <time>2021-02-27T11:55:19Z</time>
      </trkpt>
      <trkpt lat="45.23935" lon="6.10473">
        <ele>2688.2</ele>
        <time>2021-02-27T11:55:20Z</time>
      </trkpt>
      <trkpt lat="45.23935" lon="6.10473">
        <ele>2688</ele>
        <time>2021-02-27T11:55:21Z</time>
      </trkpt>
      <trkpt lat="45.23934" lon="6.10474">
        <ele>2688.4</ele>
        <time>2021-02-27T11:55:22Z</time>
      </trkpt>
      <trkpt lat="45.23934" lon="6.10474">
        <ele>2689.4</ele>
        <time>2021-02-27T11:55:23Z</time>
      </trkpt>
      <trkpt lat="45.23934" lon="6.10474">
        <ele>2690</ele>
        <time>2021-02-27T11:55:24Z</time>
      </trkpt>
      <trkpt lat="45.23934" lon="6.10474">
        <ele>2690.6</ele>
        <time>2021-02-27T11:55:25Z</time>
      </trkpt>
      <trkpt lat="45.23932" lon="6.10476">
        <ele>2690.6</ele>
        <time>2021-02-27T11:55:26Z</time>
      </trkpt>
      <trkpt lat="45.23932" lon="6.10476">
        <ele>2690.8</ele>
        <time>2021-02-27T11:55:27Z</time>
      </trkpt>
      <trkpt lat="45.23932" lon="6.10476">
        <ele>2690.6</ele>
        <time>2021-02-27T11:55:28Z</time>
      </trkpt>
      <trkpt lat="45.23932" lon="6.10476">
        <ele>2690.6</ele>
        <time>2021-02-27T11:55:29Z</time>
      </trkpt>
      <trkpt lat="45.23931" lon="6.10478">
        <ele>2690.4</ele>
        <time>2021-02-27T11:55:30Z</time>
      </trkpt>
      <trkpt lat="45.23931" lon="6.10478">
        <ele>2690.6</ele>
        <time>2021-02-27T11:55:31Z</time>
      </trkpt>
      <trkpt lat="45.23931" lon="6.10478">
        <ele>2691</ele>
        <time>2021-02-27T11:55:32Z</time>
      </trkpt>
      <trkpt lat="45.23931" lon="6.10481">
        <ele>2690.2</ele>
        <time>2021-02-27T11:55:33Z</time>
      </trkpt>
      <trkpt lat="45.23931" lon="6.10481">
        <ele>2689.2</ele>
        <time>2021-02-27T11:55:34Z</time>
      </trkpt>
      <trkpt lat="45.23931" lon="6.10481">
        <ele>2689.4</ele>
        <time>2021-02-27T11:55:35Z</time>
      </trkpt>
      <trkpt lat="45.23931" lon="6.10481">
        <ele>2689.6</ele>
        <time>2021-02-27T11:55:36Z</time>
      </trkpt>
      <trkpt lat="45.23931" lon="6.10485">
        <ele>2690.2</ele>
        <time>2021-02-27T11:55:37Z</time>
      </trkpt>
      <trkpt lat="45.23931" lon="6.10485">
        <ele>2690</ele>
        <time>2021-02-27T11:55:38Z</time>
      </trkpt>
      <trkpt lat="45.23931" lon="6.10485">
        <ele>2689.8</ele>
        <time>2021-02-27T11:55:39Z</time>
      </trkpt>
      <trkpt lat="45.23932" lon="6.10487">
        <ele>2690.2</ele>
        <time>2021-02-27T11:55:40Z</time>
      </trkpt>
      <trkpt lat="45.23932" lon="6.10487">
        <ele>2689.8</ele>
        <time>2021-02-27T11:55:41Z</time>
      </trkpt>
      <trkpt lat="45.23932" lon="6.10487">
        <ele>2689.6</ele>
        <time>2021-02-27T11:55:42Z</time>
      </trkpt>
      <trkpt lat="45.23933" lon="6.1049">
        <ele>2689.8</ele>
        <time>2021-02-27T11:55:43Z</time>
      </trkpt>
      <trkpt lat="45.23933" lon="6.1049">
        <ele>2690.2</ele>
        <time>2021-02-27T11:55:44Z</time>
      </trkpt>
      <trkpt lat="45.23933" lon="6.1049">
        <ele>2691</ele>
        <time>2021-02-27T11:55:45Z</time>
      </trkpt>
      <trkpt lat="45.23933" lon="6.10493">
        <ele>2691.2</ele>
        <time>2021-02-27T11:55:46Z</time>
      </trkpt>
      <trkpt lat="45.23933" lon="6.10493">
        <ele>2691.6</ele>
        <time>2021-02-27T11:55:47Z</time>
      </trkpt>
      <trkpt lat="45.23933" lon="6.10496">
        <ele>2692</ele>
        <time>2021-02-27T11:55:48Z</time>
      </trkpt>
      <trkpt lat="45.23933" lon="6.10496">
        <ele>2692.2</ele>
        <time>2021-02-27T11:55:49Z</time>
      </trkpt>
      <trkpt lat="45.23933" lon="6.10496">
        <ele>2692</ele>
        <time>2021-02-27T11:55:50Z</time>
      </trkpt>
      <trkpt lat="45.23933" lon="6.10499">
        <ele>2692.8</ele>
        <time>2021-02-27T11:55:51Z</time>
      </trkpt>
      <trkpt lat="45.23933" lon="6.10499">
        <ele>2693.2</ele>
        <time>2021-02-27T11:55:52Z</time>
      </trkpt>
      <trkpt lat="45.23933" lon="6.10499">
        <ele>2693.4</ele>
        <time>2021-02-27T11:55:53Z</time>
      </trkpt>
      <trkpt lat="45.23934" lon="6.10502">
        <ele>2694</ele>
        <time>2021-02-27T11:55:54Z</time>
      </trkpt>
      <trkpt lat="45.23934" lon="6.10502">
        <ele>2694.2</ele>
        <time>2021-02-27T11:55:55Z</time>
      </trkpt>
      <trkpt lat="45.23934" lon="6.10505">
        <ele>2694.4</ele>
        <time>2021-02-27T11:55:56Z</time>
      </trkpt>
      <trkpt lat="45.23934" lon="6.10505">
        <ele>2694.8</ele>
        <time>2021-02-27T11:55:57Z</time>
      </trkpt>
      <trkpt lat="45.23934" lon="6.10507">
        <ele>2695.6</ele>
        <time>2021-02-27T11:55:58Z</time>
      </trkpt>
      <trkpt lat="45.23934" lon="6.10507">
        <ele>2695.8</ele>
        <time>2021-02-27T11:55:59Z</time>
      </trkpt>
      <trkpt lat="45.23934" lon="6.10507">
        <ele>2695.4</ele>
        <time>2021-02-27T11:56:00Z</time>
      </trkpt>
      <trkpt lat="45.23934" lon="6.10511">
        <ele>2695.8</ele>
        <time>2021-02-27T11:56:01Z</time>
      </trkpt>
      <trkpt lat="45.23934" lon="6.10511">
        <ele>2695.6</ele>
        <time>2021-02-27T11:56:02Z</time>
      </trkpt>
      <trkpt lat="45.23934" lon="6.10514">
        <ele>2695.6</ele>
        <time>2021-02-27T11:56:03Z</time>
      </trkpt>
      <trkpt lat="45.23934" lon="6.10514">
        <ele>2695</ele>
        <time>2021-02-27T11:56:04Z</time>
      </trkpt>
      <trkpt lat="45.23934" lon="6.10514">
        <ele>2695</ele>
        <time>2021-02-27T11:56:05Z</time>
      </trkpt>
      <trkpt lat="45.23934" lon="6.10517">
        <ele>2695.2</ele>
        <time>2021-02-27T11:56:06Z</time>
      </trkpt>
      <trkpt lat="45.23934" lon="6.10517">
        <ele>2695.8</ele>
        <time>2021-02-27T11:56:07Z</time>
      </trkpt>
      <trkpt lat="45.23933" lon="6.1052">
        <ele>2696</ele>
        <time>2021-02-27T11:56:08Z</time>
      </trkpt>
      <trkpt lat="45.23933" lon="6.1052">
        <ele>2696.6</ele>
        <time>2021-02-27T11:56:09Z</time>
      </trkpt>
      <trkpt lat="45.23933" lon="6.10523">
        <ele>2697.6</ele>
        <time>2021-02-27T11:56:10Z</time>
      </trkpt>
      <trkpt lat="45.23933" lon="6.10523">
        <ele>2697.4</ele>
        <time>2021-02-27T11:56:11Z</time>
      </trkpt>
      <trkpt lat="45.23933" lon="6.10523">
        <ele>2697</ele>
        <time>2021-02-27T11:56:12Z</time>
      </trkpt>
      <trkpt lat="45.23932" lon="6.10526">
        <ele>2697.2</ele>
        <time>2021-02-27T11:56:13Z</time>
      </trkpt>
      <trkpt lat="45.23932" lon="6.10526">
        <ele>2696.6</ele>
        <time>2021-02-27T11:56:14Z</time>
      </trkpt>
      <trkpt lat="45.23932" lon="6.10526">
        <ele>2697</ele>
        <time>2021-02-27T11:56:15Z</time>
      </trkpt>
      <trkpt lat="45.23931" lon="6.10529">
        <ele>2697.4</ele>
        <time>2021-02-27T11:56:16Z</time>
      </trkpt>
      <trkpt lat="45.23931" lon="6.10529">
        <ele>2697.4</ele>
        <time>2021-02-27T11:56:17Z</time>
      </trkpt>
      <trkpt lat="45.2393" lon="6.10531">
        <ele>2697.4</ele>
        <time>2021-02-27T11:56:18Z</time>
      </trkpt>
      <trkpt lat="45.2393" lon="6.10531">
        <ele>2697</ele>
        <time>2021-02-27T11:56:19Z</time>
      </trkpt>
      <trkpt lat="45.23929" lon="6.10534">
        <ele>2697.8</ele>
        <time>2021-02-27T11:56:20Z</time>
      </trkpt>
      <trkpt lat="45.23929" lon="6.10534">
        <ele>2698</ele>
        <time>2021-02-27T11:56:21Z</time>
      </trkpt>
      <trkpt lat="45.23929" lon="6.10534">
        <ele>2698</ele>
        <time>2021-02-27T11:56:22Z</time>
      </trkpt>
      <trkpt lat="45.23928" lon="6.10537">
        <ele>2698.8</ele>
        <time>2021-02-27T11:56:23Z</time>
      </trkpt>
      <trkpt lat="45.23928" lon="6.10537">
        <ele>2699</ele>
        <time>2021-02-27T11:56:24Z</time>
      </trkpt>
      <trkpt lat="45.23928" lon="6.10537">
        <ele>2699</ele>
        <time>2021-02-27T11:56:25Z</time>
      </trkpt>
      <trkpt lat="45.23927" lon="6.10541">
        <ele>2698.6</ele>
        <time>2021-02-27T11:56:26Z</time>
      </trkpt>
      <trkpt lat="45.23927" lon="6.10541">
        <ele>2699.2</ele>
        <time>2021-02-27T11:56:27Z</time>
      </trkpt>
      <trkpt lat="45.23927" lon="6.10544">
        <ele>2699.6</ele>
        <time>2021-02-27T11:56:28Z</time>
      </trkpt>
      <trkpt lat="45.23927" lon="6.10544">
        <ele>2700.8</ele>
        <time>2021-02-27T11:56:29Z</time>
      </trkpt>
      <trkpt lat="45.23926" lon="6.10546">
        <ele>2701.2</ele>
        <time>2021-02-27T11:56:30Z</time>
      </trkpt>
      <trkpt lat="45.23926" lon="6.10546">
        <ele>2700.2</ele>
        <time>2021-02-27T11:56:31Z</time>
      </trkpt>
      <trkpt lat="45.23926" lon="6.10546">
        <ele>2700.4</ele>
        <time>2021-02-27T11:56:32Z</time>
      </trkpt>
      <trkpt lat="45.23926" lon="6.10549">
        <ele>2700.4</ele>
        <time>2021-02-27T11:56:33Z</time>
      </trkpt>
      <trkpt lat="45.23926" lon="6.10549">
        <ele>2701.4</ele>
        <time>2021-02-27T11:56:34Z</time>
      </trkpt>
      <trkpt lat="45.23926" lon="6.10551">
        <ele>2702.2</ele>
        <time>2021-02-27T11:56:35Z</time>
      </trkpt>
      <trkpt lat="45.23926" lon="6.10551">
        <ele>2702.8</ele>
        <time>2021-02-27T11:56:36Z</time>
      </trkpt>
      <trkpt lat="45.23926" lon="6.10551">
        <ele>2702.6</ele>
        <time>2021-02-27T11:56:37Z</time>
      </trkpt>
      <trkpt lat="45.23926" lon="6.10551">
        <ele>2703.4</ele>
        <time>2021-02-27T11:56:38Z</time>
      </trkpt>
      <trkpt lat="45.23925" lon="6.10555">
        <ele>2703.8</ele>
        <time>2021-02-27T11:56:39Z</time>
      </trkpt>
      <trkpt lat="45.23925" lon="6.10555">
        <ele>2703.8</ele>
        <time>2021-02-27T11:56:40Z</time>
      </trkpt>
      <trkpt lat="45.23925" lon="6.10555">
        <ele>2703.8</ele>
        <time>2021-02-27T11:56:41Z</time>
      </trkpt>
      <trkpt lat="45.23925" lon="6.10558">
        <ele>2704.2</ele>
        <time>2021-02-27T11:56:42Z</time>
      </trkpt>
      <trkpt lat="45.23925" lon="6.10558">
        <ele>2704.2</ele>
        <time>2021-02-27T11:56:43Z</time>
      </trkpt>
      <trkpt lat="45.23925" lon="6.10561">
        <ele>2704.6</ele>
        <time>2021-02-27T11:56:44Z</time>
      </trkpt>
      <trkpt lat="45.23925" lon="6.10561">
        <ele>2704.4</ele>
        <time>2021-02-27T11:56:45Z</time>
      </trkpt>
      <trkpt lat="45.23925" lon="6.10561">
        <ele>2704.6</ele>
        <time>2021-02-27T11:56:46Z</time>
      </trkpt>
      <trkpt lat="45.23925" lon="6.10561">
        <ele>2705</ele>
        <time>2021-02-27T11:56:47Z</time>
      </trkpt>
      <trkpt lat="45.23924" lon="6.10566">
        <ele>2705.4</ele>
        <time>2021-02-27T11:56:48Z</time>
      </trkpt>
      <trkpt lat="45.23924" lon="6.10566">
        <ele>2705.8</ele>
        <time>2021-02-27T11:56:49Z</time>
      </trkpt>
      <trkpt lat="45.23924" lon="6.10566">
        <ele>2706.2</ele>
        <time>2021-02-27T11:56:50Z</time>
      </trkpt>
      <trkpt lat="45.23923" lon="6.10569">
        <ele>2706.6</ele>
        <time>2021-02-27T11:56:51Z</time>
      </trkpt>
      <trkpt lat="45.23923" lon="6.10569">
        <ele>2707</ele>
        <time>2021-02-27T11:56:52Z</time>
      </trkpt>
      <trkpt lat="45.23923" lon="6.10569">
        <ele>2707</ele>
        <time>2021-02-27T11:56:53Z</time>
      </trkpt>
      <trkpt lat="45.23922" lon="6.10572">
        <ele>2707.4</ele>
        <time>2021-02-27T11:56:54Z</time>
      </trkpt>
      <trkpt lat="45.23922" lon="6.10572">
        <ele>2708</ele>
        <time>2021-02-27T11:56:55Z</time>
      </trkpt>
      <trkpt lat="45.23922" lon="6.10572">
        <ele>2708</ele>
        <time>2021-02-27T11:56:56Z</time>
      </trkpt>
      <trkpt lat="45.23922" lon="6.10572">
        <ele>2708.4</ele>
        <time>2021-02-27T11:56:57Z</time>
      </trkpt>
      <trkpt lat="45.23922" lon="6.10575">
        <ele>2708.8</ele>
        <time>2021-02-27T11:56:58Z</time>
      </trkpt>
      <trkpt lat="45.23922" lon="6.10575">
        <ele>2709.2</ele>
        <time>2021-02-27T11:56:59Z</time>
      </trkpt>
      <trkpt lat="45.23922" lon="6.10575">
        <ele>2709.2</ele>
        <time>2021-02-27T11:57:00Z</time>
      </trkpt>
      <trkpt lat="45.23921" lon="6.10577">
        <ele>2709</ele>
        <time>2021-02-27T11:57:01Z</time>
      </trkpt>
      <trkpt lat="45.23921" lon="6.10577">
        <ele>2709.2</ele>
        <time>2021-02-27T11:57:02Z</time>
      </trkpt>
      <trkpt lat="45.23921" lon="6.10577">
        <ele>2710.2</ele>
        <time>2021-02-27T11:57:03Z</time>
      </trkpt>
      <trkpt lat="45.23922" lon="6.1058">
        <ele>2711</ele>
        <time>2021-02-27T11:57:04Z</time>
      </trkpt>
      <trkpt lat="45.23922" lon="6.1058">
        <ele>2711.4</ele>
        <time>2021-02-27T11:57:05Z</time>
      </trkpt>
      <trkpt lat="45.23922" lon="6.1058">
        <ele>2711.8</ele>
        <time>2021-02-27T11:57:06Z</time>
      </trkpt>
      <trkpt lat="45.23922" lon="6.10583">
        <ele>2712.6</ele>
        <time>2021-02-27T11:57:07Z</time>
      </trkpt>
      <trkpt lat="45.23922" lon="6.10583">
        <ele>2712.4</ele>
        <time>2021-02-27T11:57:08Z</time>
      </trkpt>
      <trkpt lat="45.23924" lon="6.10585">
        <ele>2712.6</ele>
        <time>2021-02-27T11:57:09Z</time>
      </trkpt>
      <trkpt lat="45.23924" lon="6.10585">
        <ele>2712.8</ele>
        <time>2021-02-27T11:57:10Z</time>
      </trkpt>
      <trkpt lat="45.23924" lon="6.10585">
        <ele>2712.8</ele>
        <time>2021-02-27T11:57:11Z</time>
      </trkpt>
      <trkpt lat="45.23925" lon="6.10587">
        <ele>2713</ele>
        <time>2021-02-27T11:57:12Z</time>
      </trkpt>
      <trkpt lat="45.23925" lon="6.10587">
        <ele>2711.2</ele>
        <time>2021-02-27T11:57:13Z</time>
      </trkpt>
      <trkpt lat="45.23925" lon="6.10587">
        <ele>2710.6</ele>
        <time>2021-02-27T11:57:14Z</time>
      </trkpt>
      <trkpt lat="45.23924" lon="6.1059">
        <ele>2709.4</ele>
        <time>2021-02-27T11:57:15Z</time>
      </trkpt>
      <trkpt lat="45.23924" lon="6.1059">
        <ele>2709</ele>
        <time>2021-02-27T11:57:16Z</time>
      </trkpt>
      <trkpt lat="45.23924" lon="6.1059">
        <ele>2709.2</ele>
        <time>2021-02-27T11:57:17Z</time>
      </trkpt>
      <trkpt lat="45.23924" lon="6.1059">
        <ele>2709</ele>
        <time>2021-02-27T11:57:18Z</time>
      </trkpt>
      <trkpt lat="45.23923" lon="6.10593">
        <ele>2707.8</ele>
        <time>2021-02-27T11:57:19Z</time>
      </trkpt>
      <trkpt lat="45.23923" lon="6.10593">
        <ele>2707.8</ele>
        <time>2021-02-27T11:57:20Z</time>
      </trkpt>
      <trkpt lat="45.23923" lon="6.10595">
        <ele>2708.4</ele>
        <time>2021-02-27T11:57:21Z</time>
      </trkpt>
      <trkpt lat="45.23923" lon="6.10595">
        <ele>2709.2</ele>
        <time>2021-02-27T11:57:22Z</time>
      </trkpt>
      <trkpt lat="45.23923" lon="6.10595">
        <ele>2710</ele>
        <time>2021-02-27T11:57:23Z</time>
      </trkpt>
      <trkpt lat="45.23922" lon="6.10598">
        <ele>2711</ele>
        <time>2021-02-27T11:57:24Z</time>
      </trkpt>
      <trkpt lat="45.23922" lon="6.10598">
        <ele>2711.4</ele>
        <time>2021-02-27T11:57:25Z</time>
      </trkpt>
      <trkpt lat="45.23924" lon="6.10601">
        <ele>2712</ele>
        <time>2021-02-27T11:57:26Z</time>
      </trkpt>
      <trkpt lat="45.23924" lon="6.10601">
        <ele>2712</ele>
        <time>2021-02-27T11:57:27Z</time>
      </trkpt>
      <trkpt lat="45.23924" lon="6.10604">
        <ele>2712.2</ele>
        <time>2021-02-27T11:57:28Z</time>
      </trkpt>
      <trkpt lat="45.23924" lon="6.10604">
        <ele>2712.8</ele>
        <time>2021-02-27T11:57:29Z</time>
      </trkpt>
      <trkpt lat="45.23924" lon="6.10604">
        <ele>2713</ele>
        <time>2021-02-27T11:57:30Z</time>
      </trkpt>
      <trkpt lat="45.23924" lon="6.10608">
        <ele>2713.2</ele>
        <time>2021-02-27T11:57:31Z</time>
      </trkpt>
      <trkpt lat="45.23924" lon="6.10608">
        <ele>2713.8</ele>
        <time>2021-02-27T11:57:32Z</time>
      </trkpt>
      <trkpt lat="45.23923" lon="6.10611">
        <ele>2713.8</ele>
        <time>2021-02-27T11:57:33Z</time>
      </trkpt>
      <trkpt lat="45.23923" lon="6.10611">
        <ele>2714.2</ele>
        <time>2021-02-27T11:57:34Z</time>
      </trkpt>
      <trkpt lat="45.23923" lon="6.10611">
        <ele>2715.2</ele>
        <time>2021-02-27T11:57:35Z</time>
      </trkpt>
      <trkpt lat="45.23922" lon="6.10614">
        <ele>2715.2</ele>
        <time>2021-02-27T11:57:36Z</time>
      </trkpt>
      <trkpt lat="45.23922" lon="6.10614">
        <ele>2715.2</ele>
        <time>2021-02-27T11:57:37Z</time>
      </trkpt>
      <trkpt lat="45.23922" lon="6.10614">
        <ele>2715.8</ele>
        <time>2021-02-27T11:57:38Z</time>
      </trkpt>
      <trkpt lat="45.23922" lon="6.10614">
        <ele>2716.4</ele>
        <time>2021-02-27T11:57:39Z</time>
      </trkpt>
      <trkpt lat="45.2392" lon="6.10617">
        <ele>2716.4</ele>
        <time>2021-02-27T11:57:40Z</time>
      </trkpt>
      <trkpt lat="45.2392" lon="6.10617">
        <ele>2716.4</ele>
        <time>2021-02-27T11:57:41Z</time>
      </trkpt>
      <trkpt lat="45.2392" lon="6.10617">
        <ele>2716</ele>
        <time>2021-02-27T11:57:42Z</time>
      </trkpt>
      <trkpt lat="45.2392" lon="6.10617">
        <ele>2716</ele>
        <time>2021-02-27T11:57:43Z</time>
      </trkpt>
      <trkpt lat="45.2392" lon="6.10619">
        <ele>2716.6</ele>
        <time>2021-02-27T11:57:44Z</time>
      </trkpt>
      <trkpt lat="45.2392" lon="6.10619">
        <ele>2716.6</ele>
        <time>2021-02-27T11:57:45Z</time>
      </trkpt>
      <trkpt lat="45.2392" lon="6.10619">
        <ele>2717</ele>
        <time>2021-02-27T11:57:46Z</time>
      </trkpt>
      <trkpt lat="45.2392" lon="6.10619">
        <ele>2717.2</ele>
        <time>2021-02-27T11:57:47Z</time>
      </trkpt>
      <trkpt lat="45.23921" lon="6.10622">
        <ele>2717.8</ele>
        <time>2021-02-27T11:57:48Z</time>
      </trkpt>
      <trkpt lat="45.23921" lon="6.10622">
        <ele>2718.4</ele>
        <time>2021-02-27T11:57:49Z</time>
      </trkpt>
      <trkpt lat="45.23921" lon="6.10622">
        <ele>2718.8</ele>
        <time>2021-02-27T11:57:50Z</time>
      </trkpt>
      <trkpt lat="45.23921" lon="6.10622">
        <ele>2719.4</ele>
        <time>2021-02-27T11:57:51Z</time>
      </trkpt>
      <trkpt lat="45.23922" lon="6.10624">
        <ele>2719.2</ele>
        <time>2021-02-27T11:57:52Z</time>
      </trkpt>
      <trkpt lat="45.23922" lon="6.10624">
        <ele>2719.2</ele>
        <time>2021-02-27T11:57:53Z</time>
      </trkpt>
      <trkpt lat="45.23923" lon="6.10626">
        <ele>2720.2</ele>
        <time>2021-02-27T11:57:54Z</time>
      </trkpt>
      <trkpt lat="45.23923" lon="6.10626">
        <ele>2719.6</ele>
        <time>2021-02-27T11:57:55Z</time>
      </trkpt>
      <trkpt lat="45.23925" lon="6.10628">
        <ele>2719.6</ele>
        <time>2021-02-27T11:57:56Z</time>
      </trkpt>
      <trkpt lat="45.23925" lon="6.10628">
        <ele>2719.6</ele>
        <time>2021-02-27T11:57:57Z</time>
      </trkpt>
      <trkpt lat="45.23925" lon="6.10628">
        <ele>2719.8</ele>
        <time>2021-02-27T11:57:58Z</time>
      </trkpt>
      <trkpt lat="45.23925" lon="6.10628">
        <ele>2720</ele>
        <time>2021-02-27T11:57:59Z</time>
      </trkpt>
      <trkpt lat="45.23926" lon="6.1063">
        <ele>2720</ele>
        <time>2021-02-27T11:58:00Z</time>
      </trkpt>
      <trkpt lat="45.23926" lon="6.1063">
        <ele>2720</ele>
        <time>2021-02-27T11:58:01Z</time>
      </trkpt>
      <trkpt lat="45.23926" lon="6.1063">
        <ele>2720.2</ele>
        <time>2021-02-27T11:58:02Z</time>
      </trkpt>
      <trkpt lat="45.23927" lon="6.10633">
        <ele>2720.4</ele>
        <time>2021-02-27T11:58:03Z</time>
      </trkpt>
      <trkpt lat="45.23927" lon="6.10633">
        <ele>2720.4</ele>
        <time>2021-02-27T11:58:04Z</time>
      </trkpt>
      <trkpt lat="45.23927" lon="6.10633">
        <ele>2720.8</ele>
        <time>2021-02-27T11:58:05Z</time>
      </trkpt>
      <trkpt lat="45.23927" lon="6.10636">
        <ele>2721</ele>
        <time>2021-02-27T11:58:06Z</time>
      </trkpt>
      <trkpt lat="45.23927" lon="6.10636">
        <ele>2721.6</ele>
        <time>2021-02-27T11:58:07Z</time>
      </trkpt>
      <trkpt lat="45.23927" lon="6.10636">
        <ele>2721.6</ele>
        <time>2021-02-27T11:58:08Z</time>
      </trkpt>
      <trkpt lat="45.23925" lon="6.1064">
        <ele>2722.4</ele>
        <time>2021-02-27T11:58:09Z</time>
      </trkpt>
      <trkpt lat="45.23925" lon="6.1064">
        <ele>2722.8</ele>
        <time>2021-02-27T11:58:10Z</time>
      </trkpt>
      <trkpt lat="45.23924" lon="6.10642">
        <ele>2722.6</ele>
        <time>2021-02-27T11:58:11Z</time>
      </trkpt>
      <trkpt lat="45.23924" lon="6.10642">
        <ele>2722.8</ele>
        <time>2021-02-27T11:58:12Z</time>
      </trkpt>
      <trkpt lat="45.23923" lon="6.10644">
        <ele>2723.2</ele>
        <time>2021-02-27T11:58:13Z</time>
      </trkpt>
      <trkpt lat="45.23923" lon="6.10644">
        <ele>2722.8</ele>
        <time>2021-02-27T11:58:14Z</time>
      </trkpt>
      <trkpt lat="45.23923" lon="6.10644">
        <ele>2723</ele>
        <time>2021-02-27T11:58:15Z</time>
      </trkpt>
      <trkpt lat="45.23923" lon="6.10644">
        <ele>2723.4</ele>
        <time>2021-02-27T11:58:16Z</time>
      </trkpt>
      <trkpt lat="45.23921" lon="6.10647">
        <ele>2723.4</ele>
        <time>2021-02-27T11:58:17Z</time>
      </trkpt>
      <trkpt lat="45.23921" lon="6.10647">
        <ele>2723.4</ele>
        <time>2021-02-27T11:58:18Z</time>
      </trkpt>
      <trkpt lat="45.2392" lon="6.10648">
        <ele>2724</ele>
        <time>2021-02-27T11:58:19Z</time>
      </trkpt>
      <trkpt lat="45.23919" lon="6.10648">
        <ele>2724</ele>
        <time>2021-02-27T11:58:20Z</time>
      </trkpt>
      <trkpt lat="45.23918" lon="6.10648">
        <ele>2724</ele>
        <time>2021-02-27T11:58:21Z</time>
      </trkpt>
      <trkpt lat="45.23917" lon="6.10648">
        <ele>2724</ele>
        <time>2021-02-27T11:58:22Z</time>
      </trkpt>
      <trkpt lat="45.23916" lon="6.10649">
        <ele>2723.8</ele>
        <time>2021-02-27T11:58:23Z</time>
      </trkpt>
      <trkpt lat="45.23915" lon="6.10649">
        <ele>2723.6</ele>
        <time>2021-02-27T11:58:24Z</time>
      </trkpt>
      <trkpt lat="45.23914" lon="6.10649">
        <ele>2723.8</ele>
        <time>2021-02-27T11:58:25Z</time>
      </trkpt>
      <trkpt lat="45.23913" lon="6.10649">
        <ele>2723.8</ele>
        <time>2021-02-27T11:58:26Z</time>
      </trkpt>
      <trkpt lat="45.23912" lon="6.1065">
        <ele>2723.8</ele>
        <time>2021-02-27T11:58:27Z</time>
      </trkpt>
      <trkpt lat="45.23912" lon="6.1065">
        <ele>2724.2</ele>
        <time>2021-02-27T11:58:28Z</time>
      </trkpt>
      <trkpt lat="45.2391" lon="6.1065">
        <ele>2724.2</ele>
        <time>2021-02-27T11:58:29Z</time>
      </trkpt>
      <trkpt lat="45.23909" lon="6.1065">
        <ele>2724.4</ele>
        <time>2021-02-27T11:58:30Z</time>
      </trkpt>
      <trkpt lat="45.23908" lon="6.1065">
        <ele>2725</ele>
        <time>2021-02-27T11:58:31Z</time>
      </trkpt>
      <trkpt lat="45.23907" lon="6.10651">
        <ele>2725.2</ele>
        <time>2021-02-27T11:58:32Z</time>
      </trkpt>
      <trkpt lat="45.23906" lon="6.10651">
        <ele>2725.2</ele>
        <time>2021-02-27T11:58:33Z</time>
      </trkpt>
      <trkpt lat="45.23905" lon="6.10651">
        <ele>2725.2</ele>
        <time>2021-02-27T11:58:34Z</time>
      </trkpt>
      <trkpt lat="45.23904" lon="6.10651">
        <ele>2725.2</ele>
        <time>2021-02-27T11:58:35Z</time>
      </trkpt>
      <trkpt lat="45.23903" lon="6.10651">
        <ele>2725.2</ele>
        <time>2021-02-27T11:58:36Z</time>
      </trkpt>
      <trkpt lat="45.23902" lon="6.1065">
        <ele>2725</ele>
        <time>2021-02-27T11:58:37Z</time>
      </trkpt>
      <trkpt lat="45.23901" lon="6.1065">
        <ele>2725</ele>
        <time>2021-02-27T11:58:38Z</time>
      </trkpt>
      <trkpt lat="45.239" lon="6.10649">
        <ele>2724.8</ele>
        <time>2021-02-27T11:58:39Z</time>
      </trkpt>
      <trkpt lat="45.23899" lon="6.10648">
        <ele>2725</ele>
        <time>2021-02-27T11:58:40Z</time>
      </trkpt>
      <trkpt lat="45.23899" lon="6.10647">
        <ele>2724.8</ele>
        <time>2021-02-27T11:58:41Z</time>
      </trkpt>
      <trkpt lat="45.23898" lon="6.10646">
        <ele>2724.8</ele>
        <time>2021-02-27T11:58:42Z</time>
      </trkpt>
      <trkpt lat="45.23897" lon="6.10645">
        <ele>2725.2</ele>
        <time>2021-02-27T11:58:43Z</time>
      </trkpt>
      <trkpt lat="45.23896" lon="6.10644">
        <ele>2725.2</ele>
        <time>2021-02-27T11:58:44Z</time>
      </trkpt>
      <trkpt lat="45.23896" lon="6.10643">
        <ele>2725</ele>
        <time>2021-02-27T11:58:45Z</time>
      </trkpt>
      <trkpt lat="45.23895" lon="6.10642">
        <ele>2725.2</ele>
        <time>2021-02-27T11:58:46Z</time>
      </trkpt>
      <trkpt lat="45.23894" lon="6.10642">
        <ele>2725.2</ele>
        <time>2021-02-27T11:58:47Z</time>
      </trkpt>
      <trkpt lat="45.23893" lon="6.10641">
        <ele>2725</ele>
        <time>2021-02-27T11:58:48Z</time>
      </trkpt>
      <trkpt lat="45.23893" lon="6.1064">
        <ele>2725.6</ele>
        <time>2021-02-27T11:58:49Z</time>
      </trkpt>
      <trkpt lat="45.23892" lon="6.10639">
        <ele>2725.8</ele>
        <time>2021-02-27T11:58:50Z</time>
      </trkpt>
      <trkpt lat="45.23891" lon="6.10638">
        <ele>2725.8</ele>
        <time>2021-02-27T11:58:51Z</time>
      </trkpt>
      <trkpt lat="45.2389" lon="6.10638">
        <ele>2726.2</ele>
        <time>2021-02-27T11:58:52Z</time>
      </trkpt>
      <trkpt lat="45.2389" lon="6.10638">
        <ele>2726.8</ele>
        <time>2021-02-27T11:58:53Z</time>
      </trkpt>
      <trkpt lat="45.23889" lon="6.10636">
        <ele>2727</ele>
        <time>2021-02-27T11:58:54Z</time>
      </trkpt>
      <trkpt lat="45.23889" lon="6.10636">
        <ele>2727.4</ele>
        <time>2021-02-27T11:58:55Z</time>
      </trkpt>
      <trkpt lat="45.23888" lon="6.10633">
        <ele>2727.6</ele>
        <time>2021-02-27T11:58:56Z</time>
      </trkpt>
      <trkpt lat="45.23888" lon="6.10633">
        <ele>2727.6</ele>
        <time>2021-02-27T11:58:57Z</time>
      </trkpt>
      <trkpt lat="45.23888" lon="6.10633">
        <ele>2727.4</ele>
        <time>2021-02-27T11:58:58Z</time>
      </trkpt>
      <trkpt lat="45.23886" lon="6.10631">
        <ele>2727.8</ele>
        <time>2021-02-27T11:58:59Z</time>
      </trkpt>
      <trkpt lat="45.23886" lon="6.10631">
        <ele>2728</ele>
        <time>2021-02-27T11:59:00Z</time>
      </trkpt>
      <trkpt lat="45.23886" lon="6.10631">
        <ele>2728</ele>
        <time>2021-02-27T11:59:01Z</time>
      </trkpt>
      <trkpt lat="45.23886" lon="6.10631">
        <ele>2728.4</ele>
        <time>2021-02-27T11:59:02Z</time>
      </trkpt>
      <trkpt lat="45.23887" lon="6.10628">
        <ele>2728.6</ele>
        <time>2021-02-27T11:59:03Z</time>
      </trkpt>
      <trkpt lat="45.23887" lon="6.10628">
        <ele>2728.6</ele>
        <time>2021-02-27T11:59:04Z</time>
      </trkpt>
      <trkpt lat="45.23887" lon="6.10629">
        <ele>2728.6</ele>
        <time>2021-02-27T11:59:05Z</time>
      </trkpt>
      <trkpt lat="45.23887" lon="6.1063">
        <ele>2728.2</ele>
        <time>2021-02-27T11:59:06Z</time>
      </trkpt>
      <trkpt lat="45.23887" lon="6.10631">
        <ele>2728.4</ele>
        <time>2021-02-27T11:59:07Z</time>
      </trkpt>
      <trkpt lat="45.23887" lon="6.10631">
        <ele>2728.4</ele>
        <time>2021-02-27T11:59:08Z</time>
      </trkpt>
      <trkpt lat="45.23887" lon="6.10632">
        <ele>2728.4</ele>
        <time>2021-02-27T11:59:09Z</time>
      </trkpt>
      <trkpt lat="45.23887" lon="6.10633">
        <ele>2728.4</ele>
        <time>2021-02-27T11:59:10Z</time>
      </trkpt>
      <trkpt lat="45.23887" lon="6.10634">
        <ele>2728.4</ele>
        <time>2021-02-27T11:59:11Z</time>
      </trkpt>
      <trkpt lat="45.23887" lon="6.10634">
        <ele>2728.4</ele>
        <time>2021-02-27T11:59:12Z</time>
      </trkpt>
      <trkpt lat="45.23888" lon="6.10635">
        <ele>2728.6</ele>
        <time>2021-02-27T11:59:13Z</time>
      </trkpt>
      <trkpt lat="45.23888" lon="6.10638">
        <ele>2728.6</ele>
        <time>2021-02-27T11:59:14Z</time>
      </trkpt>
      <trkpt lat="45.23888" lon="6.10638">
        <ele>2728.6</ele>
        <time>2021-02-27T11:59:15Z</time>
      </trkpt>
      <trkpt lat="45.23888" lon="6.10638">
        <ele>2728.8</ele>
        <time>2021-02-27T11:59:16Z</time>
      </trkpt>
      <trkpt lat="45.23889" lon="6.10641">
        <ele>2729</ele>
        <time>2021-02-27T11:59:17Z</time>
      </trkpt>
      <trkpt lat="45.23889" lon="6.10641">
        <ele>2729.6</ele>
        <time>2021-02-27T11:59:18Z</time>
      </trkpt>
      <trkpt lat="45.2389" lon="6.10643">
        <ele>2729.8</ele>
        <time>2021-02-27T11:59:19Z</time>
      </trkpt>
      <trkpt lat="45.2389" lon="6.10643">
        <ele>2730.6</ele>
        <time>2021-02-27T11:59:20Z</time>
      </trkpt>
      <trkpt lat="45.2389" lon="6.10647">
        <ele>2730.4</ele>
        <time>2021-02-27T11:59:21Z</time>
      </trkpt>
      <trkpt lat="45.2389" lon="6.10647">
        <ele>2731</ele>
        <time>2021-02-27T11:59:22Z</time>
      </trkpt>
      <trkpt lat="45.2389" lon="6.1065">
        <ele>2731.2</ele>
        <time>2021-02-27T11:59:23Z</time>
      </trkpt>
      <trkpt lat="45.2389" lon="6.1065">
        <ele>2731.6</ele>
        <time>2021-02-27T11:59:24Z</time>
      </trkpt>
      <trkpt lat="45.2389" lon="6.1065">
        <ele>2731.8</ele>
        <time>2021-02-27T11:59:25Z</time>
      </trkpt>
      <trkpt lat="45.2389" lon="6.1065">
        <ele>2731.8</ele>
        <time>2021-02-27T11:59:26Z</time>
      </trkpt>
      <trkpt lat="45.23891" lon="6.10655">
        <ele>2731.8</ele>
        <time>2021-02-27T11:59:27Z</time>
      </trkpt>
      <trkpt lat="45.23891" lon="6.10655">
        <ele>2732</ele>
        <time>2021-02-27T11:59:28Z</time>
      </trkpt>
      <trkpt lat="45.23891" lon="6.10655">
        <ele>2732</ele>
        <time>2021-02-27T11:59:29Z</time>
      </trkpt>
      <trkpt lat="45.23892" lon="6.10658">
        <ele>2732</ele>
        <time>2021-02-27T11:59:30Z</time>
      </trkpt>
      <trkpt lat="45.23892" lon="6.10658">
        <ele>2731.8</ele>
        <time>2021-02-27T11:59:31Z</time>
      </trkpt>
      <trkpt lat="45.23892" lon="6.10658">
        <ele>2732</ele>
        <time>2021-02-27T11:59:32Z</time>
      </trkpt>
      <trkpt lat="45.23893" lon="6.10661">
        <ele>2731.8</ele>
        <time>2021-02-27T11:59:33Z</time>
      </trkpt>
      <trkpt lat="45.23893" lon="6.10661">
        <ele>2732</ele>
        <time>2021-02-27T11:59:34Z</time>
      </trkpt>
      <trkpt lat="45.23893" lon="6.10661">
        <ele>2732.4</ele>
        <time>2021-02-27T11:59:35Z</time>
      </trkpt>
      <trkpt lat="45.23893" lon="6.10661">
        <ele>2732.2</ele>
        <time>2021-02-27T11:59:36Z</time>
      </trkpt>
      <trkpt lat="45.23893" lon="6.10661">
        <ele>2732.4</ele>
        <time>2021-02-27T11:59:37Z</time>
      </trkpt>
      <trkpt lat="45.23893" lon="6.10661">
        <ele>2732.6</ele>
        <time>2021-02-27T11:59:38Z</time>
      </trkpt>
      <trkpt lat="45.2389" lon="6.10661">
        <ele>2732.8</ele>
        <time>2021-02-27T11:59:39Z</time>
      </trkpt>
      <trkpt lat="45.2389" lon="6.10661">
        <ele>2732.8</ele>
        <time>2021-02-27T11:59:40Z</time>
      </trkpt>
      <trkpt lat="45.2389" lon="6.10661">
        <ele>2733.2</ele>
        <time>2021-02-27T11:59:41Z</time>
      </trkpt>
      <trkpt lat="45.23889" lon="6.10659">
        <ele>2733.2</ele>
        <time>2021-02-27T11:59:42Z</time>
      </trkpt>
      <trkpt lat="45.23889" lon="6.10659">
        <ele>2733.8</ele>
        <time>2021-02-27T11:59:43Z</time>
      </trkpt>
      <trkpt lat="45.23889" lon="6.10658">
        <ele>2734.4</ele>
        <time>2021-02-27T11:59:44Z</time>
      </trkpt>
      <trkpt lat="45.23888" lon="6.10657">
        <ele>2734.2</ele>
        <time>2021-02-27T11:59:45Z</time>
      </trkpt>
      <trkpt lat="45.23888" lon="6.10656">
        <ele>2734.8</ele>
        <time>2021-02-27T11:59:46Z</time>
      </trkpt>
      <trkpt lat="45.23888" lon="6.10655">
        <ele>2734.8</ele>
        <time>2021-02-27T11:59:47Z</time>
      </trkpt>
      <trkpt lat="45.23887" lon="6.10653">
        <ele>2735.4</ele>
        <time>2021-02-27T11:59:48Z</time>
      </trkpt>
      <trkpt lat="45.23887" lon="6.10653">
        <ele>2735.4</ele>
        <time>2021-02-27T11:59:49Z</time>
      </trkpt>
      <trkpt lat="45.23886" lon="6.10652">
        <ele>2735.2</ele>
        <time>2021-02-27T11:59:50Z</time>
      </trkpt>
      <trkpt lat="45.23886" lon="6.10651">
        <ele>2735.8</ele>
        <time>2021-02-27T11:59:51Z</time>
      </trkpt>
      <trkpt lat="45.23885" lon="6.1065">
        <ele>2736.6</ele>
        <time>2021-02-27T11:59:52Z</time>
      </trkpt>
      <trkpt lat="45.23885" lon="6.10649">
        <ele>2736.4</ele>
        <time>2021-02-27T11:59:53Z</time>
      </trkpt>
      <trkpt lat="45.23884" lon="6.10648">
        <ele>2737.4</ele>
        <time>2021-02-27T11:59:54Z</time>
      </trkpt>
      <trkpt lat="45.23884" lon="6.10647">
        <ele>2739.2</ele>
        <time>2021-02-27T11:59:55Z</time>
      </trkpt>
      <trkpt lat="45.23883" lon="6.10646">
        <ele>2740.2</ele>
        <time>2021-02-27T11:59:56Z</time>
      </trkpt>
      <trkpt lat="45.23882" lon="6.10645">
        <ele>2740.4</ele>
        <time>2021-02-27T11:59:57Z</time>
      </trkpt>
      <trkpt lat="45.23882" lon="6.10644">
        <ele>2740.2</ele>
        <time>2021-02-27T11:59:58Z</time>
      </trkpt>
      <trkpt lat="45.23881" lon="6.10643">
        <ele>2740.2</ele>
        <time>2021-02-27T11:59:59Z</time>
      </trkpt>
      <trkpt lat="45.2388" lon="6.10642">
        <ele>2740.4</ele>
        <time>2021-02-27T12:00:00Z</time>
      </trkpt>
      <trkpt lat="45.23879" lon="6.10642">
        <ele>2739.8</ele>
        <time>2021-02-27T12:00:01Z</time>
      </trkpt>
      <trkpt lat="45.23878" lon="6.10641">
        <ele>2739.6</ele>
        <time>2021-02-27T12:00:02Z</time>
      </trkpt>
      <trkpt lat="45.23878" lon="6.1064">
        <ele>2739.8</ele>
        <time>2021-02-27T12:00:03Z</time>
      </trkpt>
      <trkpt lat="45.23877" lon="6.10639">
        <ele>2739.6</ele>
        <time>2021-02-27T12:00:04Z</time>
      </trkpt>
      <trkpt lat="45.23876" lon="6.10638">
        <ele>2739.6</ele>
        <time>2021-02-27T12:00:05Z</time>
      </trkpt>
      <trkpt lat="45.23875" lon="6.10637">
        <ele>2739.6</ele>
        <time>2021-02-27T12:00:06Z</time>
      </trkpt>
      <trkpt lat="45.23874" lon="6.10637">
        <ele>2739.2</ele>
        <time>2021-02-27T12:00:07Z</time>
      </trkpt>
      <trkpt lat="45.23874" lon="6.10637">
        <ele>2739.6</ele>
        <time>2021-02-27T12:00:08Z</time>
      </trkpt>
      <trkpt lat="45.23874" lon="6.10637">
        <ele>2739.6</ele>
        <time>2021-02-27T12:00:09Z</time>
      </trkpt>
      <trkpt lat="45.23874" lon="6.10637">
        <ele>2739.4</ele>
        <time>2021-02-27T12:00:10Z</time>
      </trkpt>
      <trkpt lat="45.23874" lon="6.10637">
        <ele>2739.2</ele>
        <time>2021-02-27T12:00:11Z</time>
      </trkpt>
      <trkpt lat="45.23874" lon="6.10637">
        <ele>2739.4</ele>
        <time>2021-02-27T12:00:12Z</time>
      </trkpt>
      <trkpt lat="45.23874" lon="6.10637">
        <ele>2739.4</ele>
        <time>2021-02-27T12:00:13Z</time>
      </trkpt>
      <trkpt lat="45.23872" lon="6.10632">
        <ele>2739.2</ele>
        <time>2021-02-27T12:00:14Z</time>
      </trkpt>
      <trkpt lat="45.23872" lon="6.10632">
        <ele>2739.2</ele>
        <time>2021-02-27T12:00:15Z</time>
      </trkpt>
      <trkpt lat="45.23872" lon="6.10632">
        <ele>2739.4</ele>
        <time>2021-02-27T12:00:16Z</time>
      </trkpt>
      <trkpt lat="45.23872" lon="6.10632">
        <ele>2739.2</ele>
        <time>2021-02-27T12:00:17Z</time>
      </trkpt>
      <trkpt lat="45.23872" lon="6.10632">
        <ele>2739</ele>
        <time>2021-02-27T12:00:18Z</time>
      </trkpt>
      <trkpt lat="45.23873" lon="6.10635">
        <ele>2739.2</ele>
        <time>2021-02-27T12:00:19Z</time>
      </trkpt>
      <trkpt lat="45.23873" lon="6.10635">
        <ele>2739.2</ele>
        <time>2021-02-27T12:00:20Z</time>
      </trkpt>
      <trkpt lat="45.23873" lon="6.10635">
        <ele>2738.8</ele>
        <time>2021-02-27T12:00:21Z</time>
      </trkpt>
      <trkpt lat="45.23874" lon="6.10638">
        <ele>2738.8</ele>
        <time>2021-02-27T12:00:22Z</time>
      </trkpt>
      <trkpt lat="45.23874" lon="6.10638">
        <ele>2739</ele>
        <time>2021-02-27T12:00:23Z</time>
      </trkpt>
      <trkpt lat="45.23874" lon="6.10638">
        <ele>2739.2</ele>
        <time>2021-02-27T12:00:24Z</time>
      </trkpt>
      <trkpt lat="45.23874" lon="6.10641">
        <ele>2739.2</ele>
        <time>2021-02-27T12:00:25Z</time>
      </trkpt>
      <trkpt lat="45.23874" lon="6.10641">
        <ele>2739.6</ele>
        <time>2021-02-27T12:00:26Z</time>
      </trkpt>
      <trkpt lat="45.23874" lon="6.10641">
        <ele>2739.8</ele>
        <time>2021-02-27T12:00:27Z</time>
      </trkpt>
      <trkpt lat="45.23875" lon="6.10644">
        <ele>2740</ele>
        <time>2021-02-27T12:00:28Z</time>
      </trkpt>
      <trkpt lat="45.23875" lon="6.10644">
        <ele>2740</ele>
        <time>2021-02-27T12:00:29Z</time>
      </trkpt>
      <trkpt lat="45.23875" lon="6.10644">
        <ele>2740.2</ele>
        <time>2021-02-27T12:00:30Z</time>
      </trkpt>
      <trkpt lat="45.23875" lon="6.10644">
        <ele>2740.4</ele>
        <time>2021-02-27T12:00:31Z</time>
      </trkpt>
      <trkpt lat="45.23875" lon="6.10648">
        <ele>2740.4</ele>
        <time>2021-02-27T12:00:32Z</time>
      </trkpt>
      <trkpt lat="45.23875" lon="6.10648">
        <ele>2740.4</ele>
        <time>2021-02-27T12:00:33Z</time>
      </trkpt>
      <trkpt lat="45.23875" lon="6.10648">
        <ele>2740.8</ele>
        <time>2021-02-27T12:00:34Z</time>
      </trkpt>
      <trkpt lat="45.23874" lon="6.10651">
        <ele>2741</ele>
        <time>2021-02-27T12:00:35Z</time>
      </trkpt>
      <trkpt lat="45.23874" lon="6.10651">
        <ele>2741.4</ele>
        <time>2021-02-27T12:00:36Z</time>
      </trkpt>
      <trkpt lat="45.23874" lon="6.10651">
        <ele>2741.6</ele>
        <time>2021-02-27T12:00:37Z</time>
      </trkpt>
      <trkpt lat="45.23873" lon="6.10654">
        <ele>2742</ele>
        <time>2021-02-27T12:00:38Z</time>
      </trkpt>
      <trkpt lat="45.23873" lon="6.10654">
        <ele>2742</ele>
        <time>2021-02-27T12:00:39Z</time>
      </trkpt>
      <trkpt lat="45.23873" lon="6.10657">
        <ele>2742.2</ele>
        <time>2021-02-27T12:00:40Z</time>
      </trkpt>
      <trkpt lat="45.23873" lon="6.10657">
        <ele>2742.2</ele>
        <time>2021-02-27T12:00:41Z</time>
      </trkpt>
      <trkpt lat="45.23874" lon="6.10661">
        <ele>2742.4</ele>
        <time>2021-02-27T12:00:42Z</time>
      </trkpt>
      <trkpt lat="45.23874" lon="6.10661">
        <ele>2742.6</ele>
        <time>2021-02-27T12:00:43Z</time>
      </trkpt>
      <trkpt lat="45.23873" lon="6.10664">
        <ele>2742.4</ele>
        <time>2021-02-27T12:00:44Z</time>
      </trkpt>
      <trkpt lat="45.23873" lon="6.10664">
        <ele>2742.6</ele>
        <time>2021-02-27T12:00:45Z</time>
      </trkpt>
      <trkpt lat="45.23873" lon="6.10664">
        <ele>2742.4</ele>
        <time>2021-02-27T12:00:46Z</time>
      </trkpt>
      <trkpt lat="45.23873" lon="6.10664">
        <ele>2742.6</ele>
        <time>2021-02-27T12:00:47Z</time>
      </trkpt>
      <trkpt lat="45.23873" lon="6.10664">
        <ele>2743.2</ele>
        <time>2021-02-27T12:00:48Z</time>
      </trkpt>
      <trkpt lat="45.23873" lon="6.10667">
        <ele>2743.2</ele>
        <time>2021-02-27T12:00:49Z</time>
      </trkpt>
      <trkpt lat="45.23873" lon="6.10667">
        <ele>2743.4</ele>
        <time>2021-02-27T12:00:50Z</time>
      </trkpt>
      <trkpt lat="45.23873" lon="6.10667">
        <ele>2743.6</ele>
        <time>2021-02-27T12:00:51Z</time>
      </trkpt>
      <trkpt lat="45.23873" lon="6.10667">
        <ele>2743.6</ele>
        <time>2021-02-27T12:00:52Z</time>
      </trkpt>
      <trkpt lat="45.23873" lon="6.1067">
        <ele>2743.8</ele>
        <time>2021-02-27T12:00:53Z</time>
      </trkpt>
      <trkpt lat="45.23873" lon="6.1067">
        <ele>2744</ele>
        <time>2021-02-27T12:00:54Z</time>
      </trkpt>
      <trkpt lat="45.23871" lon="6.10668">
        <ele>2744.4</ele>
        <time>2021-02-27T12:00:55Z</time>
      </trkpt>
      <trkpt lat="45.23871" lon="6.10668">
        <ele>2744.6</ele>
        <time>2021-02-27T12:00:56Z</time>
      </trkpt>
      <trkpt lat="45.2387" lon="6.10667">
        <ele>2745</ele>
        <time>2021-02-27T12:00:57Z</time>
      </trkpt>
      <trkpt lat="45.23869" lon="6.10666">
        <ele>2745</ele>
        <time>2021-02-27T12:00:58Z</time>
      </trkpt>
      <trkpt lat="45.23869" lon="6.10665">
        <ele>2744.4</ele>
        <time>2021-02-27T12:00:59Z</time>
      </trkpt>
      <trkpt lat="45.23868" lon="6.10664">
        <ele>2744.8</ele>
        <time>2021-02-27T12:01:00Z</time>
      </trkpt>
      <trkpt lat="45.23867" lon="6.10663">
        <ele>2745</ele>
        <time>2021-02-27T12:01:01Z</time>
      </trkpt>
      <trkpt lat="45.23866" lon="6.10662">
        <ele>2744.4</ele>
        <time>2021-02-27T12:01:02Z</time>
      </trkpt>
      <trkpt lat="45.23865" lon="6.10661">
        <ele>2745</ele>
        <time>2021-02-27T12:01:03Z</time>
      </trkpt>
      <trkpt lat="45.23865" lon="6.1066">
        <ele>2744.6</ele>
        <time>2021-02-27T12:01:04Z</time>
      </trkpt>
      <trkpt lat="45.23865" lon="6.10659">
        <ele>2745</ele>
        <time>2021-02-27T12:01:05Z</time>
      </trkpt>
      <trkpt lat="45.23865" lon="6.10658">
        <ele>2745</ele>
        <time>2021-02-27T12:01:06Z</time>
      </trkpt>
      <trkpt lat="45.23865" lon="6.10657">
        <ele>2745.4</ele>
        <time>2021-02-27T12:01:07Z</time>
      </trkpt>
      <trkpt lat="45.23864" lon="6.10656">
        <ele>2745.6</ele>
        <time>2021-02-27T12:01:08Z</time>
      </trkpt>
      <trkpt lat="45.23864" lon="6.10655">
        <ele>2745.8</ele>
        <time>2021-02-27T12:01:09Z</time>
      </trkpt>
      <trkpt lat="45.23864" lon="6.10654">
        <ele>2746</ele>
        <time>2021-02-27T12:01:10Z</time>
      </trkpt>
      <trkpt lat="45.23864" lon="6.10653">
        <ele>2746.2</ele>
        <time>2021-02-27T12:01:11Z</time>
      </trkpt>
      <trkpt lat="45.23864" lon="6.10653">
        <ele>2746.4</ele>
        <time>2021-02-27T12:01:12Z</time>
      </trkpt>
      <trkpt lat="45.23864" lon="6.10652">
        <ele>2746.4</ele>
        <time>2021-02-27T12:01:13Z</time>
      </trkpt>
      <trkpt lat="45.23863" lon="6.10651">
        <ele>2746.6</ele>
        <time>2021-02-27T12:01:14Z</time>
      </trkpt>
      <trkpt lat="45.23863" lon="6.1065">
        <ele>2746.8</ele>
        <time>2021-02-27T12:01:15Z</time>
      </trkpt>
      <trkpt lat="45.23863" lon="6.10649">
        <ele>2746.8</ele>
        <time>2021-02-27T12:01:16Z</time>
      </trkpt>
      <trkpt lat="45.23862" lon="6.10647">
        <ele>2746.4</ele>
        <time>2021-02-27T12:01:17Z</time>
      </trkpt>
      <trkpt lat="45.23862" lon="6.10647">
        <ele>2746.6</ele>
        <time>2021-02-27T12:01:18Z</time>
      </trkpt>
      <trkpt lat="45.23862" lon="6.10647">
        <ele>2746.6</ele>
        <time>2021-02-27T12:01:19Z</time>
      </trkpt>
      <trkpt lat="45.23862" lon="6.10647">
        <ele>2746.8</ele>
        <time>2021-02-27T12:01:20Z</time>
      </trkpt>
      <trkpt lat="45.23862" lon="6.10647">
        <ele>2747.2</ele>
        <time>2021-02-27T12:01:21Z</time>
      </trkpt>
      <trkpt lat="45.23859" lon="6.10644">
        <ele>2747</ele>
        <time>2021-02-27T12:01:22Z</time>
      </trkpt>
      <trkpt lat="45.23859" lon="6.10644">
        <ele>2747.4</ele>
        <time>2021-02-27T12:01:23Z</time>
      </trkpt>
      <trkpt lat="45.23859" lon="6.10644">
        <ele>2747.8</ele>
        <time>2021-02-27T12:01:24Z</time>
      </trkpt>
      <trkpt lat="45.23859" lon="6.10644">
        <ele>2747.6</ele>
        <time>2021-02-27T12:01:25Z</time>
      </trkpt>
      <trkpt lat="45.23856" lon="6.1064">
        <ele>2747.8</ele>
        <time>2021-02-27T12:01:26Z</time>
      </trkpt>
      <trkpt lat="45.23856" lon="6.1064">
        <ele>2747.6</ele>
        <time>2021-02-27T12:01:27Z</time>
      </trkpt>
      <trkpt lat="45.23856" lon="6.1064">
        <ele>2747.8</ele>
        <time>2021-02-27T12:01:28Z</time>
      </trkpt>
      <trkpt lat="45.23855" lon="6.10639">
        <ele>2747.8</ele>
        <time>2021-02-27T12:01:29Z</time>
      </trkpt>
      <trkpt lat="45.23855" lon="6.10639">
        <ele>2748</ele>
        <time>2021-02-27T12:01:30Z</time>
      </trkpt>
      <trkpt lat="45.23854" lon="6.10638">
        <ele>2748</ele>
        <time>2021-02-27T12:01:31Z</time>
      </trkpt>
      <trkpt lat="45.23854" lon="6.10638">
        <ele>2748</ele>
        <time>2021-02-27T12:01:32Z</time>
      </trkpt>
      <trkpt lat="45.23854" lon="6.10637">
        <ele>2748.6</ele>
        <time>2021-02-27T12:01:33Z</time>
      </trkpt>
      <trkpt lat="45.23853" lon="6.10637">
        <ele>2748.8</ele>
        <time>2021-02-27T12:01:34Z</time>
      </trkpt>
      <trkpt lat="45.23853" lon="6.10636">
        <ele>2749.4</ele>
        <time>2021-02-27T12:01:35Z</time>
      </trkpt>
      <trkpt lat="45.23853" lon="6.10636">
        <ele>2749.4</ele>
        <time>2021-02-27T12:01:36Z</time>
      </trkpt>
      <trkpt lat="45.23852" lon="6.10635">
        <ele>2749</ele>
        <time>2021-02-27T12:01:37Z</time>
      </trkpt>
      <trkpt lat="45.23852" lon="6.10635">
        <ele>2749.4</ele>
        <time>2021-02-27T12:01:38Z</time>
      </trkpt>
      <trkpt lat="45.23851" lon="6.10634">
        <ele>2749.6</ele>
        <time>2021-02-27T12:01:39Z</time>
      </trkpt>
      <trkpt lat="45.23851" lon="6.10634">
        <ele>2749.8</ele>
        <time>2021-02-27T12:01:40Z</time>
      </trkpt>
      <trkpt lat="45.23851" lon="6.10633">
        <ele>2750.2</ele>
        <time>2021-02-27T12:01:41Z</time>
      </trkpt>
      <trkpt lat="45.2385" lon="6.10633">
        <ele>2750.2</ele>
        <time>2021-02-27T12:01:42Z</time>
      </trkpt>
      <trkpt lat="45.2385" lon="6.10632">
        <ele>2750.2</ele>
        <time>2021-02-27T12:01:43Z</time>
      </trkpt>
      <trkpt lat="45.2385" lon="6.10632">
        <ele>2750.4</ele>
        <time>2021-02-27T12:01:44Z</time>
      </trkpt>
      <trkpt lat="45.23849" lon="6.10631">
        <ele>2750.6</ele>
        <time>2021-02-27T12:01:45Z</time>
      </trkpt>
      <trkpt lat="45.23849" lon="6.10632">
        <ele>2751.2</ele>
        <time>2021-02-27T12:01:46Z</time>
      </trkpt>
      <trkpt lat="45.2385" lon="6.10632">
        <ele>2751.6</ele>
        <time>2021-02-27T12:01:47Z</time>
      </trkpt>
      <trkpt lat="45.2385" lon="6.10632">
        <ele>2752.2</ele>
        <time>2021-02-27T12:01:48Z</time>
      </trkpt>
      <trkpt lat="45.2385" lon="6.10633">
        <ele>2752.4</ele>
        <time>2021-02-27T12:01:49Z</time>
      </trkpt>
      <trkpt lat="45.2385" lon="6.10633">
        <ele>2752.6</ele>
        <time>2021-02-27T12:01:50Z</time>
      </trkpt>
      <trkpt lat="45.2385" lon="6.10634">
        <ele>2752.8</ele>
        <time>2021-02-27T12:01:51Z</time>
      </trkpt>
      <trkpt lat="45.2385" lon="6.10634">
        <ele>2753.4</ele>
        <time>2021-02-27T12:01:52Z</time>
      </trkpt>
      <trkpt lat="45.2385" lon="6.10635">
        <ele>2754</ele>
        <time>2021-02-27T12:01:53Z</time>
      </trkpt>
      <trkpt lat="45.23851" lon="6.10635">
        <ele>2754.4</ele>
        <time>2021-02-27T12:01:54Z</time>
      </trkpt>
      <trkpt lat="45.23851" lon="6.10636">
        <ele>2754.6</ele>
        <time>2021-02-27T12:01:55Z</time>
      </trkpt>
      <trkpt lat="45.23851" lon="6.10636">
        <ele>2755</ele>
        <time>2021-02-27T12:01:56Z</time>
      </trkpt>
      <trkpt lat="45.23851" lon="6.10637">
        <ele>2755.4</ele>
        <time>2021-02-27T12:01:57Z</time>
      </trkpt>
      <trkpt lat="45.23851" lon="6.10637">
        <ele>2756</ele>
        <time>2021-02-27T12:01:58Z</time>
      </trkpt>
      <trkpt lat="45.23851" lon="6.10638">
        <ele>2756.2</ele>
        <time>2021-02-27T12:01:59Z</time>
      </trkpt>
      <trkpt lat="45.23851" lon="6.10638">
        <ele>2756.2</ele>
        <time>2021-02-27T12:02:00Z</time>
      </trkpt>
      <trkpt lat="45.23852" lon="6.10639">
        <ele>2756.6</ele>
        <time>2021-02-27T12:02:01Z</time>
      </trkpt>
      <trkpt lat="45.23852" lon="6.10639">
        <ele>2756.8</ele>
        <time>2021-02-27T12:02:02Z</time>
      </trkpt>
      <trkpt lat="45.23852" lon="6.1064">
        <ele>2756.6</ele>
        <time>2021-02-27T12:02:03Z</time>
      </trkpt>
      <trkpt lat="45.23852" lon="6.1064">
        <ele>2756.6</ele>
        <time>2021-02-27T12:02:04Z</time>
      </trkpt>
      <trkpt lat="45.23852" lon="6.10641">
        <ele>2756.2</ele>
        <time>2021-02-27T12:02:05Z</time>
      </trkpt>
      <trkpt lat="45.23852" lon="6.10641">
        <ele>2756.2</ele>
        <time>2021-02-27T12:02:06Z</time>
      </trkpt>
      <trkpt lat="45.23853" lon="6.10642">
        <ele>2756.2</ele>
        <time>2021-02-27T12:02:07Z</time>
      </trkpt>
      <trkpt lat="45.23853" lon="6.10642">
        <ele>2756</ele>
        <time>2021-02-27T12:02:08Z</time>
      </trkpt>
      <trkpt lat="45.23853" lon="6.10642">
        <ele>2756</ele>
        <time>2021-02-27T12:02:09Z</time>
      </trkpt>
      <trkpt lat="45.23853" lon="6.10643">
        <ele>2756.4</ele>
        <time>2021-02-27T12:02:10Z</time>
      </trkpt>
      <trkpt lat="45.23853" lon="6.10643">
        <ele>2756.4</ele>
        <time>2021-02-27T12:02:11Z</time>
      </trkpt>
      <trkpt lat="45.23853" lon="6.10643">
        <ele>2756.4</ele>
        <time>2021-02-27T12:02:12Z</time>
      </trkpt>
      <trkpt lat="45.23853" lon="6.10643">
        <ele>2756</ele>
        <time>2021-02-27T12:02:13Z</time>
      </trkpt>
      <trkpt lat="45.23853" lon="6.10643">
        <ele>2756</ele>
        <time>2021-02-27T12:02:14Z</time>
      </trkpt>
      <trkpt lat="45.23854" lon="6.10647">
        <ele>2756.2</ele>
        <time>2021-02-27T12:02:15Z</time>
      </trkpt>
      <trkpt lat="45.23854" lon="6.10647">
        <ele>2756.2</ele>
        <time>2021-02-27T12:02:16Z</time>
      </trkpt>
      <trkpt lat="45.23854" lon="6.10647">
        <ele>2756.2</ele>
        <time>2021-02-27T12:02:17Z</time>
      </trkpt>
      <trkpt lat="45.23853" lon="6.1065">
        <ele>2756</ele>
        <time>2021-02-27T12:02:18Z</time>
      </trkpt>
      <trkpt lat="45.23853" lon="6.1065">
        <ele>2756</ele>
        <time>2021-02-27T12:02:19Z</time>
      </trkpt>
      <trkpt lat="45.23853" lon="6.1065">
        <ele>2756.4</ele>
        <time>2021-02-27T12:02:20Z</time>
      </trkpt>
      <trkpt lat="45.23854" lon="6.10652">
        <ele>2756.6</ele>
        <time>2021-02-27T12:02:21Z</time>
      </trkpt>
      <trkpt lat="45.23854" lon="6.10652">
        <ele>2756.4</ele>
        <time>2021-02-27T12:02:22Z</time>
      </trkpt>
      <trkpt lat="45.23854" lon="6.10652">
        <ele>2756.4</ele>
        <time>2021-02-27T12:02:23Z</time>
      </trkpt>
      <trkpt lat="45.23855" lon="6.10655">
        <ele>2756.8</ele>
        <time>2021-02-27T12:02:24Z</time>
      </trkpt>
      <trkpt lat="45.23855" lon="6.10655">
        <ele>2756.8</ele>
        <time>2021-02-27T12:02:25Z</time>
      </trkpt>
      <trkpt lat="45.23855" lon="6.10655">
        <ele>2756.8</ele>
        <time>2021-02-27T12:02:26Z</time>
      </trkpt>
      <trkpt lat="45.23855" lon="6.10658">
        <ele>2757</ele>
        <time>2021-02-27T12:02:27Z</time>
      </trkpt>
      <trkpt lat="45.23855" lon="6.10658">
        <ele>2757.4</ele>
        <time>2021-02-27T12:02:28Z</time>
      </trkpt>
      <trkpt lat="45.23855" lon="6.10658">
        <ele>2757.6</ele>
        <time>2021-02-27T12:02:29Z</time>
      </trkpt>
      <trkpt lat="45.23855" lon="6.10661">
        <ele>2757.8</ele>
        <time>2021-02-27T12:02:30Z</time>
      </trkpt>
      <trkpt lat="45.23855" lon="6.10661">
        <ele>2758.4</ele>
        <time>2021-02-27T12:02:31Z</time>
      </trkpt>
      <trkpt lat="45.23855" lon="6.10661">
        <ele>2758.6</ele>
        <time>2021-02-27T12:02:32Z</time>
      </trkpt>
      <trkpt lat="45.23855" lon="6.10665">
        <ele>2759</ele>
        <time>2021-02-27T12:02:33Z</time>
      </trkpt>
      <trkpt lat="45.23855" lon="6.10665">
        <ele>2759.2</ele>
        <time>2021-02-27T12:02:34Z</time>
      </trkpt>
      <trkpt lat="45.23855" lon="6.10668">
        <ele>2759.4</ele>
        <time>2021-02-27T12:02:35Z</time>
      </trkpt>
      <trkpt lat="45.23855" lon="6.10668">
        <ele>2759.4</ele>
        <time>2021-02-27T12:02:36Z</time>
      </trkpt>
      <trkpt lat="45.23854" lon="6.10671">
        <ele>2759.2</ele>
        <time>2021-02-27T12:02:37Z</time>
      </trkpt>
      <trkpt lat="45.23854" lon="6.10671">
        <ele>2759.2</ele>
        <time>2021-02-27T12:02:38Z</time>
      </trkpt>
      <trkpt lat="45.23854" lon="6.10673">
        <ele>2759.2</ele>
        <time>2021-02-27T12:02:39Z</time>
      </trkpt>
      <trkpt lat="45.23854" lon="6.10673">
        <ele>2759.6</ele>
        <time>2021-02-27T12:02:40Z</time>
      </trkpt>
      <trkpt lat="45.23854" lon="6.10676">
        <ele>2759.6</ele>
        <time>2021-02-27T12:02:41Z</time>
      </trkpt>
      <trkpt lat="45.23854" lon="6.10676">
        <ele>2759.6</ele>
        <time>2021-02-27T12:02:42Z</time>
      </trkpt>
      <trkpt lat="45.23854" lon="6.10676">
        <ele>2759.2</ele>
        <time>2021-02-27T12:02:43Z</time>
      </trkpt>
      <trkpt lat="45.23853" lon="6.1068">
        <ele>2759</ele>
        <time>2021-02-27T12:02:44Z</time>
      </trkpt>
      <trkpt lat="45.23853" lon="6.1068">
        <ele>2758.8</ele>
        <time>2021-02-27T12:02:45Z</time>
      </trkpt>
      <trkpt lat="45.23853" lon="6.1068">
        <ele>2758.8</ele>
        <time>2021-02-27T12:02:46Z</time>
      </trkpt>
      <trkpt lat="45.23853" lon="6.10683">
        <ele>2758.6</ele>
        <time>2021-02-27T12:02:47Z</time>
      </trkpt>
      <trkpt lat="45.23853" lon="6.10683">
        <ele>2758.4</ele>
        <time>2021-02-27T12:02:48Z</time>
      </trkpt>
      <trkpt lat="45.23853" lon="6.10683">
        <ele>2758.2</ele>
        <time>2021-02-27T12:02:49Z</time>
      </trkpt>
      <trkpt lat="45.23853" lon="6.10686">
        <ele>2758</ele>
        <time>2021-02-27T12:02:50Z</time>
      </trkpt>
      <trkpt lat="45.23853" lon="6.10686">
        <ele>2758.2</ele>
        <time>2021-02-27T12:02:51Z</time>
      </trkpt>
      <trkpt lat="45.23853" lon="6.10686">
        <ele>2758.2</ele>
        <time>2021-02-27T12:02:52Z</time>
      </trkpt>
      <trkpt lat="45.23854" lon="6.10689">
        <ele>2758.4</ele>
        <time>2021-02-27T12:02:53Z</time>
      </trkpt>
      <trkpt lat="45.23854" lon="6.10689">
        <ele>2758.2</ele>
        <time>2021-02-27T12:02:54Z</time>
      </trkpt>
      <trkpt lat="45.23854" lon="6.10689">
        <ele>2758.2</ele>
        <time>2021-02-27T12:02:55Z</time>
      </trkpt>
      <trkpt lat="45.23855" lon="6.10691">
        <ele>2758.4</ele>
        <time>2021-02-27T12:02:56Z</time>
      </trkpt>
      <trkpt lat="45.23855" lon="6.10691">
        <ele>2758.4</ele>
        <time>2021-02-27T12:02:57Z</time>
      </trkpt>
      <trkpt lat="45.23855" lon="6.10691">
        <ele>2758.2</ele>
        <time>2021-02-27T12:02:58Z</time>
      </trkpt>
      <trkpt lat="45.23857" lon="6.10694">
        <ele>2758.2</ele>
        <time>2021-02-27T12:02:59Z</time>
      </trkpt>
      <trkpt lat="45.23857" lon="6.10694">
        <ele>2758.2</ele>
        <time>2021-02-27T12:03:00Z</time>
      </trkpt>
      <trkpt lat="45.23857" lon="6.10694">
        <ele>2758.4</ele>
        <time>2021-02-27T12:03:01Z</time>
      </trkpt>
      <trkpt lat="45.23859" lon="6.10696">
        <ele>2758.4</ele>
        <time>2021-02-27T12:03:02Z</time>
      </trkpt>
      <trkpt lat="45.23859" lon="6.10696">
        <ele>2758.8</ele>
        <time>2021-02-27T12:03:03Z</time>
      </trkpt>
      <trkpt lat="45.23859" lon="6.10696">
        <ele>2759</ele>
        <time>2021-02-27T12:03:04Z</time>
      </trkpt>
      <trkpt lat="45.23859" lon="6.10696">
        <ele>2759</ele>
        <time>2021-02-27T12:03:05Z</time>
      </trkpt>
      <trkpt lat="45.23861" lon="6.10697">
        <ele>2759.2</ele>
        <time>2021-02-27T12:03:06Z</time>
      </trkpt>
      <trkpt lat="45.23861" lon="6.10697">
        <ele>2759.4</ele>
        <time>2021-02-27T12:03:07Z</time>
      </trkpt>
      <trkpt lat="45.23861" lon="6.10697">
        <ele>2759.8</ele>
        <time>2021-02-27T12:03:08Z</time>
      </trkpt>
      <trkpt lat="45.23861" lon="6.10697">
        <ele>2760</ele>
        <time>2021-02-27T12:03:09Z</time>
      </trkpt>
      <trkpt lat="45.23861" lon="6.10697">
        <ele>2760.4</ele>
        <time>2021-02-27T12:03:10Z</time>
      </trkpt>
      <trkpt lat="45.23861" lon="6.10697">
        <ele>2760.4</ele>
        <time>2021-02-27T12:03:11Z</time>
      </trkpt>
      <trkpt lat="45.23861" lon="6.10697">
        <ele>2760.6</ele>
        <time>2021-02-27T12:03:12Z</time>
      </trkpt>
      <trkpt lat="45.23861" lon="6.10697">
        <ele>2760.2</ele>
        <time>2021-02-27T12:03:13Z</time>
      </trkpt>
      <trkpt lat="45.23861" lon="6.10697">
        <ele>2760</ele>
        <time>2021-02-27T12:03:14Z</time>
      </trkpt>
      <trkpt lat="45.23863" lon="6.10697">
        <ele>2759.8</ele>
        <time>2021-02-27T12:03:15Z</time>
      </trkpt>
      <trkpt lat="45.23863" lon="6.10697">
        <ele>2759.4</ele>
        <time>2021-02-27T12:03:16Z</time>
      </trkpt>
      <trkpt lat="45.23863" lon="6.10697">
        <ele>2759.2</ele>
        <time>2021-02-27T12:03:17Z</time>
      </trkpt>
      <trkpt lat="45.23863" lon="6.10697">
        <ele>2759</ele>
        <time>2021-02-27T12:03:18Z</time>
      </trkpt>
      <trkpt lat="45.23863" lon="6.10697">
        <ele>2758.8</ele>
        <time>2021-02-27T12:03:19Z</time>
      </trkpt>
      <trkpt lat="45.23863" lon="6.10697">
        <ele>2759.2</ele>
        <time>2021-02-27T12:03:20Z</time>
      </trkpt>
      <trkpt lat="45.23863" lon="6.10697">
        <ele>2759.4</ele>
        <time>2021-02-27T12:03:21Z</time>
      </trkpt>
      <trkpt lat="45.23863" lon="6.10697">
        <ele>2759.4</ele>
        <time>2021-02-27T12:03:22Z</time>
      </trkpt>
      <trkpt lat="45.23863" lon="6.10697">
        <ele>2759</ele>
        <time>2021-02-27T12:03:23Z</time>
      </trkpt>
      <trkpt lat="45.23863" lon="6.10697">
        <ele>2759.2</ele>
        <time>2021-02-27T12:03:24Z</time>
      </trkpt>
      <trkpt lat="45.23863" lon="6.10697">
        <ele>2758.8</ele>
        <time>2021-02-27T12:03:25Z</time>
      </trkpt>
      <trkpt lat="45.23863" lon="6.10697">
        <ele>2758.8</ele>
        <time>2021-02-27T12:03:26Z</time>
      </trkpt>
      <trkpt lat="45.23863" lon="6.10697">
        <ele>2759.6</ele>
        <time>2021-02-27T12:03:27Z</time>
      </trkpt>
      <trkpt lat="45.23863" lon="6.10697">
        <ele>2760.2</ele>
        <time>2021-02-27T12:03:28Z</time>
      </trkpt>
      <trkpt lat="45.23863" lon="6.10697">
        <ele>2761</ele>
        <time>2021-02-27T12:03:29Z</time>
      </trkpt>
      <trkpt lat="45.23863" lon="6.10697">
        <ele>2761.6</ele>
        <time>2021-02-27T12:03:30Z</time>
      </trkpt>
      <trkpt lat="45.23863" lon="6.10697">
        <ele>2762</ele>
        <time>2021-02-27T12:03:31Z</time>
      </trkpt>
      <trkpt lat="45.23863" lon="6.10697">
        <ele>2762.4</ele>
        <time>2021-02-27T12:03:32Z</time>
      </trkpt>
      <trkpt lat="45.23863" lon="6.10697">
        <ele>2763</ele>
        <time>2021-02-27T12:03:33Z</time>
      </trkpt>
      <trkpt lat="45.23863" lon="6.10697">
        <ele>2763.2</ele>
        <time>2021-02-27T12:03:34Z</time>
      </trkpt>
      <trkpt lat="45.23863" lon="6.10697">
        <ele>2763.2</ele>
        <time>2021-02-27T12:03:35Z</time>
      </trkpt>
      <trkpt lat="45.23863" lon="6.10697">
        <ele>2763.4</ele>
        <time>2021-02-27T12:03:36Z</time>
      </trkpt>
      <trkpt lat="45.23863" lon="6.10697">
        <ele>2763.2</ele>
        <time>2021-02-27T12:03:37Z</time>
      </trkpt>
      <trkpt lat="45.23863" lon="6.10697">
        <ele>2763.4</ele>
        <time>2021-02-27T12:03:38Z</time>
      </trkpt>
      <trkpt lat="45.23863" lon="6.10697">
        <ele>2763.2</ele>
        <time>2021-02-27T12:03:39Z</time>
      </trkpt>
      <trkpt lat="45.23864" lon="6.10699">
        <ele>2763.6</ele>
        <time>2021-02-27T12:03:40Z</time>
      </trkpt>
      <trkpt lat="45.23864" lon="6.10699">
        <ele>2764</ele>
        <time>2021-02-27T12:03:41Z</time>
      </trkpt>
      <trkpt lat="45.23864" lon="6.10699">
        <ele>2764</ele>
        <time>2021-02-27T12:03:42Z</time>
      </trkpt>
      <trkpt lat="45.23864" lon="6.10699">
        <ele>2764.4</ele>
        <time>2021-02-27T12:03:43Z</time>
      </trkpt>
      <trkpt lat="45.23864" lon="6.10699">
        <ele>2764.6</ele>
        <time>2021-02-27T12:03:44Z</time>
      </trkpt>
      <trkpt lat="45.23864" lon="6.10699">
        <ele>2765</ele>
        <time>2021-02-27T12:03:45Z</time>
      </trkpt>
      <trkpt lat="45.23864" lon="6.10699">
        <ele>2765.4</ele>
        <time>2021-02-27T12:03:46Z</time>
      </trkpt>
      <trkpt lat="45.23864" lon="6.10699">
        <ele>2765.6</ele>
        <time>2021-02-27T12:03:47Z</time>
      </trkpt>
      <trkpt lat="45.23864" lon="6.10699">
        <ele>2765.6</ele>
        <time>2021-02-27T12:03:48Z</time>
      </trkpt>
      <trkpt lat="45.23864" lon="6.10699">
        <ele>2765.8</ele>
        <time>2021-02-27T12:03:49Z</time>
      </trkpt>
      <trkpt lat="45.23864" lon="6.10699">
        <ele>2765.8</ele>
        <time>2021-02-27T12:03:50Z</time>
      </trkpt>
      <trkpt lat="45.23861" lon="6.107">
        <ele>2766</ele>
        <time>2021-02-27T12:03:51Z</time>
      </trkpt>
      <trkpt lat="45.23861" lon="6.107">
        <ele>2766.6</ele>
        <time>2021-02-27T12:03:52Z</time>
      </trkpt>
      <trkpt lat="45.23858" lon="6.10701">
        <ele>2767</ele>
        <time>2021-02-27T12:03:53Z</time>
      </trkpt>
      <trkpt lat="45.23858" lon="6.10701">
        <ele>2767</ele>
        <time>2021-02-27T12:03:54Z</time>
      </trkpt>
      <trkpt lat="45.23858" lon="6.10701">
        <ele>2767.4</ele>
        <time>2021-02-27T12:03:55Z</time>
      </trkpt>
      <trkpt lat="45.23858" lon="6.10701">
        <ele>2767.6</ele>
        <time>2021-02-27T12:03:56Z</time>
      </trkpt>
      <trkpt lat="45.23857" lon="6.10703">
        <ele>2768</ele>
        <time>2021-02-27T12:03:57Z</time>
      </trkpt>
      <trkpt lat="45.23857" lon="6.10703">
        <ele>2768.2</ele>
        <time>2021-02-27T12:03:58Z</time>
      </trkpt>
      <trkpt lat="45.23857" lon="6.10703">
        <ele>2768.4</ele>
        <time>2021-02-27T12:03:59Z</time>
      </trkpt>
      <trkpt lat="45.23857" lon="6.10703">
        <ele>2768.2</ele>
        <time>2021-02-27T12:04:00Z</time>
      </trkpt>
      <trkpt lat="45.23857" lon="6.10703">
        <ele>2768.6</ele>
        <time>2021-02-27T12:04:01Z</time>
      </trkpt>
      <trkpt lat="45.23857" lon="6.10703">
        <ele>2768.8</ele>
        <time>2021-02-27T12:04:02Z</time>
      </trkpt>
      <trkpt lat="45.23857" lon="6.10703">
        <ele>2769.2</ele>
        <time>2021-02-27T12:04:03Z</time>
      </trkpt>
      <trkpt lat="45.23857" lon="6.10703">
        <ele>2769</ele>
        <time>2021-02-27T12:04:04Z</time>
      </trkpt>
      <trkpt lat="45.23857" lon="6.10703">
        <ele>2769</ele>
        <time>2021-02-27T12:04:05Z</time>
      </trkpt>
      <trkpt lat="45.23857" lon="6.10703">
        <ele>2769.2</ele>
        <time>2021-02-27T12:04:06Z</time>
      </trkpt>
      <trkpt lat="45.23858" lon="6.10706">
        <ele>2769.4</ele>
        <time>2021-02-27T12:04:07Z</time>
      </trkpt>
      <trkpt lat="45.23858" lon="6.10706">
        <ele>2769.2</ele>
        <time>2021-02-27T12:04:08Z</time>
      </trkpt>
      <trkpt lat="45.23858" lon="6.10706">
        <ele>2769.6</ele>
        <time>2021-02-27T12:04:09Z</time>
      </trkpt>
      <trkpt lat="45.23858" lon="6.10706">
        <ele>2769.8</ele>
        <time>2021-02-27T12:04:10Z</time>
      </trkpt>
      <trkpt lat="45.23858" lon="6.10706">
        <ele>2770.4</ele>
        <time>2021-02-27T12:04:11Z</time>
      </trkpt>
      <trkpt lat="45.23858" lon="6.10706">
        <ele>2770.8</ele>
        <time>2021-02-27T12:04:12Z</time>
      </trkpt>
      <trkpt lat="45.23858" lon="6.10706">
        <ele>2771.2</ele>
        <time>2021-02-27T12:04:13Z</time>
      </trkpt>
      <trkpt lat="45.23858" lon="6.10709">
        <ele>2771.2</ele>
        <time>2021-02-27T12:04:14Z</time>
      </trkpt>
      <trkpt lat="45.23858" lon="6.10709">
        <ele>2771.6</ele>
        <time>2021-02-27T12:04:15Z</time>
      </trkpt>
      <trkpt lat="45.23858" lon="6.10709">
        <ele>2772</ele>
        <time>2021-02-27T12:04:16Z</time>
      </trkpt>
      <trkpt lat="45.23858" lon="6.10709">
        <ele>2772.6</ele>
        <time>2021-02-27T12:04:17Z</time>
      </trkpt>
      <trkpt lat="45.23856" lon="6.10711">
        <ele>2773.2</ele>
        <time>2021-02-27T12:04:18Z</time>
      </trkpt>
      <trkpt lat="45.23856" lon="6.10711">
        <ele>2773.6</ele>
        <time>2021-02-27T12:04:19Z</time>
      </trkpt>
      <trkpt lat="45.23856" lon="6.10711">
        <ele>2774</ele>
        <time>2021-02-27T12:04:20Z</time>
      </trkpt>
      <trkpt lat="45.23856" lon="6.10711">
        <ele>2774.6</ele>
        <time>2021-02-27T12:04:21Z</time>
      </trkpt>
      <trkpt lat="45.23856" lon="6.10711">
        <ele>2775.4</ele>
        <time>2021-02-27T12:04:22Z</time>
      </trkpt>
      <trkpt lat="45.23856" lon="6.10713">
        <ele>2775.8</ele>
        <time>2021-02-27T12:04:23Z</time>
      </trkpt>
      <trkpt lat="45.23856" lon="6.10713">
        <ele>2776</ele>
        <time>2021-02-27T12:04:24Z</time>
      </trkpt>
      <trkpt lat="45.23856" lon="6.10713">
        <ele>2776</ele>
        <time>2021-02-27T12:04:25Z</time>
      </trkpt>
      <trkpt lat="45.23856" lon="6.10713">
        <ele>2776.2</ele>
        <time>2021-02-27T12:04:26Z</time>
      </trkpt>
      <trkpt lat="45.23858" lon="6.10715">
        <ele>2776.6</ele>
        <time>2021-02-27T12:04:27Z</time>
      </trkpt>
      <trkpt lat="45.23858" lon="6.10715">
        <ele>2776.4</ele>
        <time>2021-02-27T12:04:28Z</time>
      </trkpt>
      <trkpt lat="45.23858" lon="6.10715">
        <ele>2776.4</ele>
        <time>2021-02-27T12:04:29Z</time>
      </trkpt>
      <trkpt lat="45.23858" lon="6.10715">
        <ele>2776.8</ele>
        <time>2021-02-27T12:04:30Z</time>
      </trkpt>
      <trkpt lat="45.23858" lon="6.10718">
        <ele>2776.8</ele>
        <time>2021-02-27T12:04:31Z</time>
      </trkpt>
      <trkpt lat="45.23858" lon="6.10718">
        <ele>2777.2</ele>
        <time>2021-02-27T12:04:32Z</time>
      </trkpt>
      <trkpt lat="45.23858" lon="6.10718">
        <ele>2777.2</ele>
        <time>2021-02-27T12:04:33Z</time>
      </trkpt>
      <trkpt lat="45.23858" lon="6.10718">
        <ele>2777</ele>
        <time>2021-02-27T12:04:34Z</time>
      </trkpt>
      <trkpt lat="45.23858" lon="6.10718">
        <ele>2776.6</ele>
        <time>2021-02-27T12:04:35Z</time>
      </trkpt>
      <trkpt lat="45.23858" lon="6.10718">
        <ele>2776.6</ele>
        <time>2021-02-27T12:04:36Z</time>
      </trkpt>
      <trkpt lat="45.23858" lon="6.10718">
        <ele>2776.4</ele>
        <time>2021-02-27T12:04:37Z</time>
      </trkpt>
      <trkpt lat="45.23858" lon="6.10718">
        <ele>2776.6</ele>
        <time>2021-02-27T12:04:38Z</time>
      </trkpt>
      <trkpt lat="45.23858" lon="6.10718">
        <ele>2776.8</ele>
        <time>2021-02-27T12:04:39Z</time>
      </trkpt>
      <trkpt lat="45.23857" lon="6.10721">
        <ele>2777.4</ele>
        <time>2021-02-27T12:04:40Z</time>
      </trkpt>
      <trkpt lat="45.23857" lon="6.10721">
        <ele>2777.4</ele>
        <time>2021-02-27T12:04:41Z</time>
      </trkpt>
      <trkpt lat="45.23857" lon="6.10721">
        <ele>2777.6</ele>
        <time>2021-02-27T12:04:42Z</time>
      </trkpt>
      <trkpt lat="45.23858" lon="6.10722">
        <ele>2777.8</ele>
        <time>2021-02-27T12:04:43Z</time>
      </trkpt>
      <trkpt lat="45.23858" lon="6.10722">
        <ele>2777.8</ele>
        <time>2021-02-27T12:04:44Z</time>
      </trkpt>
      <trkpt lat="45.23858" lon="6.10722">
        <ele>2777.8</ele>
        <time>2021-02-27T12:04:45Z</time>
      </trkpt>
      <trkpt lat="45.23858" lon="6.10723">
        <ele>2777.6</ele>
        <time>2021-02-27T12:04:46Z</time>
      </trkpt>
      <trkpt lat="45.23858" lon="6.10723">
        <ele>2777.6</ele>
        <time>2021-02-27T12:04:47Z</time>
      </trkpt>
      <trkpt lat="45.23859" lon="6.10723">
        <ele>2777.4</ele>
        <time>2021-02-27T12:04:48Z</time>
      </trkpt>
      <trkpt lat="45.23859" lon="6.10724">
        <ele>2777.6</ele>
        <time>2021-02-27T12:04:49Z</time>
      </trkpt>
      <trkpt lat="45.23859" lon="6.10724">
        <ele>2777.2</ele>
        <time>2021-02-27T12:04:50Z</time>
      </trkpt>
      <trkpt lat="45.23859" lon="6.10724">
        <ele>2777.2</ele>
        <time>2021-02-27T12:04:51Z</time>
      </trkpt>
      <trkpt lat="45.23859" lon="6.10725">
        <ele>2777.2</ele>
        <time>2021-02-27T12:04:52Z</time>
      </trkpt>
      <trkpt lat="45.23859" lon="6.10725">
        <ele>2777.2</ele>
        <time>2021-02-27T12:04:53Z</time>
      </trkpt>
      <trkpt lat="45.2386" lon="6.10726">
        <ele>2777</ele>
        <time>2021-02-27T12:04:54Z</time>
      </trkpt>
      <trkpt lat="45.2386" lon="6.10726">
        <ele>2777</ele>
        <time>2021-02-27T12:04:55Z</time>
      </trkpt>
      <trkpt lat="45.2386" lon="6.10726">
        <ele>2777</ele>
        <time>2021-02-27T12:04:56Z</time>
      </trkpt>
      <trkpt lat="45.2386" lon="6.10727">
        <ele>2777.4</ele>
        <time>2021-02-27T12:04:57Z</time>
      </trkpt>
      <trkpt lat="45.2386" lon="6.10727">
        <ele>2777.2</ele>
        <time>2021-02-27T12:04:58Z</time>
      </trkpt>
      <trkpt lat="45.2386" lon="6.10727">
        <ele>2777</ele>
        <time>2021-02-27T12:04:59Z</time>
      </trkpt>
      <trkpt lat="45.23861" lon="6.10728">
        <ele>2777.4</ele>
        <time>2021-02-27T12:05:00Z</time>
      </trkpt>
      <trkpt lat="45.23861" lon="6.10728">
        <ele>2777.4</ele>
        <time>2021-02-27T12:05:01Z</time>
      </trkpt>
      <trkpt lat="45.23861" lon="6.10728">
        <ele>2777.4</ele>
        <time>2021-02-27T12:05:02Z</time>
      </trkpt>
      <trkpt lat="45.23861" lon="6.10728">
        <ele>2777.8</ele>
        <time>2021-02-27T12:05:03Z</time>
      </trkpt>
      <trkpt lat="45.23861" lon="6.10728">
        <ele>2778</ele>
        <time>2021-02-27T12:05:04Z</time>
      </trkpt>
      <trkpt lat="45.23861" lon="6.10728">
        <ele>2778.2</ele>
        <time>2021-02-27T12:05:05Z</time>
      </trkpt>
      <trkpt lat="45.23861" lon="6.10728">
        <ele>2778</ele>
        <time>2021-02-27T12:05:06Z</time>
      </trkpt>
      <trkpt lat="45.23861" lon="6.10728">
        <ele>2778.4</ele>
        <time>2021-02-27T12:05:07Z</time>
      </trkpt>
      <trkpt lat="45.23861" lon="6.10728">
        <ele>2779</ele>
        <time>2021-02-27T12:05:08Z</time>
      </trkpt>
      <trkpt lat="45.23861" lon="6.10728">
        <ele>2779.4</ele>
        <time>2021-02-27T12:05:09Z</time>
      </trkpt>
      <trkpt lat="45.23861" lon="6.10728">
        <ele>2779.6</ele>
        <time>2021-02-27T12:05:10Z</time>
      </trkpt>
      <trkpt lat="45.23861" lon="6.10728">
        <ele>2779.8</ele>
        <time>2021-02-27T12:05:11Z</time>
      </trkpt>
      <trkpt lat="45.23861" lon="6.10728">
        <ele>2779.8</ele>
        <time>2021-02-27T12:05:12Z</time>
      </trkpt>
      <trkpt lat="45.23859" lon="6.10729">
        <ele>2780</ele>
        <time>2021-02-27T12:05:13Z</time>
      </trkpt>
      <trkpt lat="45.23859" lon="6.10729">
        <ele>2780</ele>
        <time>2021-02-27T12:05:14Z</time>
      </trkpt>
      <trkpt lat="45.23859" lon="6.10729">
        <ele>2780.2</ele>
        <time>2021-02-27T12:05:15Z</time>
      </trkpt>
      <trkpt lat="45.23859" lon="6.10729">
        <ele>2780.6</ele>
        <time>2021-02-27T12:05:16Z</time>
      </trkpt>
      <trkpt lat="45.23859" lon="6.10729">
        <ele>2780.4</ele>
        <time>2021-02-27T12:05:17Z</time>
      </trkpt>
      <trkpt lat="45.23859" lon="6.10732">
        <ele>2780.6</ele>
        <time>2021-02-27T12:05:18Z</time>
      </trkpt>
      <trkpt lat="45.23859" lon="6.10732">
        <ele>2780.4</ele>
        <time>2021-02-27T12:05:19Z</time>
      </trkpt>
      <trkpt lat="45.23859" lon="6.10732">
        <ele>2780.6</ele>
        <time>2021-02-27T12:05:20Z</time>
      </trkpt>
      <trkpt lat="45.23859" lon="6.10732">
        <ele>2780.2</ele>
        <time>2021-02-27T12:05:21Z</time>
      </trkpt>
      <trkpt lat="45.23859" lon="6.10732">
        <ele>2780.4</ele>
        <time>2021-02-27T12:05:22Z</time>
      </trkpt>
      <trkpt lat="45.23858" lon="6.10735">
        <ele>2780.4</ele>
        <time>2021-02-27T12:05:23Z</time>
      </trkpt>
      <trkpt lat="45.23858" lon="6.10735">
        <ele>2780.4</ele>
        <time>2021-02-27T12:05:24Z</time>
      </trkpt>
      <trkpt lat="45.23858" lon="6.10735">
        <ele>2780.6</ele>
        <time>2021-02-27T12:05:25Z</time>
      </trkpt>
      <trkpt lat="45.23858" lon="6.10735">
        <ele>2780.8</ele>
        <time>2021-02-27T12:05:26Z</time>
      </trkpt>
      <trkpt lat="45.23858" lon="6.10735">
        <ele>2781.2</ele>
        <time>2021-02-27T12:05:27Z</time>
      </trkpt>
      <trkpt lat="45.23858" lon="6.10735">
        <ele>2781</ele>
        <time>2021-02-27T12:05:28Z</time>
      </trkpt>
      <trkpt lat="45.23858" lon="6.10735">
        <ele>2781.4</ele>
        <time>2021-02-27T12:05:29Z</time>
      </trkpt>
      <trkpt lat="45.23858" lon="6.10735">
        <ele>2781.8</ele>
        <time>2021-02-27T12:05:30Z</time>
      </trkpt>
      <trkpt lat="45.23858" lon="6.10735">
        <ele>2781.8</ele>
        <time>2021-02-27T12:05:31Z</time>
      </trkpt>
      <trkpt lat="45.23858" lon="6.10735">
        <ele>2782.2</ele>
        <time>2021-02-27T12:05:32Z</time>
      </trkpt>
      <trkpt lat="45.23858" lon="6.10738">
        <ele>2782.4</ele>
        <time>2021-02-27T12:05:33Z</time>
      </trkpt>
      <trkpt lat="45.23858" lon="6.10738">
        <ele>2782.8</ele>
        <time>2021-02-27T12:05:34Z</time>
      </trkpt>
      <trkpt lat="45.23858" lon="6.10738">
        <ele>2783.2</ele>
        <time>2021-02-27T12:05:35Z</time>
      </trkpt>
      <trkpt lat="45.23858" lon="6.10738">
        <ele>2783</ele>
        <time>2021-02-27T12:05:36Z</time>
      </trkpt>
      <trkpt lat="45.23858" lon="6.10738">
        <ele>2783.4</ele>
        <time>2021-02-27T12:05:37Z</time>
      </trkpt>
      <trkpt lat="45.23858" lon="6.10738">
        <ele>2783.4</ele>
        <time>2021-02-27T12:05:38Z</time>
      </trkpt>
      <trkpt lat="45.23858" lon="6.10738">
        <ele>2783.2</ele>
        <time>2021-02-27T12:05:39Z</time>
      </trkpt>
      <trkpt lat="45.23858" lon="6.10738">
        <ele>2783.6</ele>
        <time>2021-02-27T12:05:40Z</time>
      </trkpt>
      <trkpt lat="45.23858" lon="6.10738">
        <ele>2783.6</ele>
        <time>2021-02-27T12:05:41Z</time>
      </trkpt>
      <trkpt lat="45.23855" lon="6.10738">
        <ele>2783.8</ele>
        <time>2021-02-27T12:05:42Z</time>
      </trkpt>
      <trkpt lat="45.23855" lon="6.10738">
        <ele>2784.2</ele>
        <time>2021-02-27T12:05:43Z</time>
      </trkpt>
      <trkpt lat="45.23855" lon="6.10738">
        <ele>2784.2</ele>
        <time>2021-02-27T12:05:44Z</time>
      </trkpt>
      <trkpt lat="45.23855" lon="6.10738">
        <ele>2784.2</ele>
        <time>2021-02-27T12:05:45Z</time>
      </trkpt>
      <trkpt lat="45.23855" lon="6.10738">
        <ele>2784.6</ele>
        <time>2021-02-27T12:05:46Z</time>
      </trkpt>
      <trkpt lat="45.23855" lon="6.10738">
        <ele>2784.6</ele>
        <time>2021-02-27T12:05:47Z</time>
      </trkpt>
      <trkpt lat="45.23855" lon="6.10738">
        <ele>2785</ele>
        <time>2021-02-27T12:05:48Z</time>
      </trkpt>
      <trkpt lat="45.23855" lon="6.10738">
        <ele>2785.4</ele>
        <time>2021-02-27T12:05:49Z</time>
      </trkpt>
      <trkpt lat="45.23855" lon="6.10741">
        <ele>2785.6</ele>
        <time>2021-02-27T12:05:50Z</time>
      </trkpt>
      <trkpt lat="45.23855" lon="6.10741">
        <ele>2786.2</ele>
        <time>2021-02-27T12:05:51Z</time>
      </trkpt>
      <trkpt lat="45.23855" lon="6.10741">
        <ele>2786.2</ele>
        <time>2021-02-27T12:05:52Z</time>
      </trkpt>
      <trkpt lat="45.23855" lon="6.10741">
        <ele>2786.8</ele>
        <time>2021-02-27T12:05:53Z</time>
      </trkpt>
      <trkpt lat="45.23855" lon="6.10741">
        <ele>2786.6</ele>
        <time>2021-02-27T12:05:54Z</time>
      </trkpt>
      <trkpt lat="45.23855" lon="6.10744">
        <ele>2787.2</ele>
        <time>2021-02-27T12:05:55Z</time>
      </trkpt>
      <trkpt lat="45.23855" lon="6.10744">
        <ele>2787.6</ele>
        <time>2021-02-27T12:05:56Z</time>
      </trkpt>
      <trkpt lat="45.23855" lon="6.10744">
        <ele>2787.6</ele>
        <time>2021-02-27T12:05:57Z</time>
      </trkpt>
      <trkpt lat="45.23855" lon="6.10744">
        <ele>2787.4</ele>
        <time>2021-02-27T12:05:58Z</time>
      </trkpt>
      <trkpt lat="45.23855" lon="6.10744">
        <ele>2787.2</ele>
        <time>2021-02-27T12:05:59Z</time>
      </trkpt>
      <trkpt lat="45.23854" lon="6.10746">
        <ele>2787.2</ele>
        <time>2021-02-27T12:06:00Z</time>
      </trkpt>
      <trkpt lat="45.23854" lon="6.10746">
        <ele>2787.8</ele>
        <time>2021-02-27T12:06:01Z</time>
      </trkpt>
      <trkpt lat="45.23854" lon="6.10746">
        <ele>2787.8</ele>
        <time>2021-02-27T12:06:02Z</time>
      </trkpt>
      <trkpt lat="45.23854" lon="6.10746">
        <ele>2787.8</ele>
        <time>2021-02-27T12:06:03Z</time>
      </trkpt>
      <trkpt lat="45.23854" lon="6.10746">
        <ele>2787.8</ele>
        <time>2021-02-27T12:06:04Z</time>
      </trkpt>
      <trkpt lat="45.23852" lon="6.10748">
        <ele>2787.8</ele>
        <time>2021-02-27T12:06:05Z</time>
      </trkpt>
      <trkpt lat="45.23852" lon="6.10748">
        <ele>2787.6</ele>
        <time>2021-02-27T12:06:06Z</time>
      </trkpt>
      <trkpt lat="45.23852" lon="6.10748">
        <ele>2787.8</ele>
        <time>2021-02-27T12:06:07Z</time>
      </trkpt>
      <trkpt lat="45.23852" lon="6.10748">
        <ele>2787.8</ele>
        <time>2021-02-27T12:06:08Z</time>
      </trkpt>
      <trkpt lat="45.23852" lon="6.10748">
        <ele>2788</ele>
        <time>2021-02-27T12:06:09Z</time>
      </trkpt>
      <trkpt lat="45.23852" lon="6.10748">
        <ele>2788.2</ele>
        <time>2021-02-27T12:06:10Z</time>
      </trkpt>
      <trkpt lat="45.23852" lon="6.10751">
        <ele>2788.2</ele>
        <time>2021-02-27T12:06:11Z</time>
      </trkpt>
      <trkpt lat="45.23852" lon="6.10751">
        <ele>2788.4</ele>
        <time>2021-02-27T12:06:12Z</time>
      </trkpt>
      <trkpt lat="45.23852" lon="6.10751">
        <ele>2788.4</ele>
        <time>2021-02-27T12:06:13Z</time>
      </trkpt>
      <trkpt lat="45.23852" lon="6.10751">
        <ele>2788.4</ele>
        <time>2021-02-27T12:06:14Z</time>
      </trkpt>
      <trkpt lat="45.23852" lon="6.10751">
        <ele>2788.4</ele>
        <time>2021-02-27T12:06:15Z</time>
      </trkpt>
      <trkpt lat="45.23852" lon="6.10751">
        <ele>2788.4</ele>
        <time>2021-02-27T12:06:16Z</time>
      </trkpt>
      <trkpt lat="45.23852" lon="6.10751">
        <ele>2788.4</ele>
        <time>2021-02-27T12:06:17Z</time>
      </trkpt>
      <trkpt lat="45.23852" lon="6.10751">
        <ele>2788.4</ele>
        <time>2021-02-27T12:06:18Z</time>
      </trkpt>
      <trkpt lat="45.23852" lon="6.10751">
        <ele>2788.4</ele>
        <time>2021-02-27T12:06:19Z</time>
      </trkpt>
      <trkpt lat="45.23852" lon="6.10751">
        <ele>2788.2</ele>
        <time>2021-02-27T12:06:20Z</time>
      </trkpt>
      <trkpt lat="45.23852" lon="6.10751">
        <ele>2787.8</ele>
        <time>2021-02-27T12:06:21Z</time>
      </trkpt>
      <trkpt lat="45.23852" lon="6.10751">
        <ele>2788.4</ele>
        <time>2021-02-27T12:06:22Z</time>
      </trkpt>
      <trkpt lat="45.23852" lon="6.10751">
        <ele>2788.6</ele>
        <time>2021-02-27T12:06:23Z</time>
      </trkpt>
      <trkpt lat="45.23852" lon="6.10751">
        <ele>2788.6</ele>
        <time>2021-02-27T12:06:24Z</time>
      </trkpt>
      <trkpt lat="45.23852" lon="6.10751">
        <ele>2788.8</ele>
        <time>2021-02-27T12:06:25Z</time>
      </trkpt>
      <trkpt lat="45.23853" lon="6.10753">
        <ele>2789</ele>
        <time>2021-02-27T12:06:26Z</time>
      </trkpt>
      <trkpt lat="45.23853" lon="6.10753">
        <ele>2789.6</ele>
        <time>2021-02-27T12:06:27Z</time>
      </trkpt>
      <trkpt lat="45.23853" lon="6.10753">
        <ele>2790</ele>
        <time>2021-02-27T12:06:28Z</time>
      </trkpt>
      <trkpt lat="45.23853" lon="6.10753">
        <ele>2790.4</ele>
        <time>2021-02-27T12:06:29Z</time>
      </trkpt>
      <trkpt lat="45.23853" lon="6.10753">
        <ele>2790.8</ele>
        <time>2021-02-27T12:06:30Z</time>
      </trkpt>
      <trkpt lat="45.23853" lon="6.10753">
        <ele>2791</ele>
        <time>2021-02-27T12:06:31Z</time>
      </trkpt>
      <trkpt lat="45.23853" lon="6.10753">
        <ele>2791.4</ele>
        <time>2021-02-27T12:06:32Z</time>
      </trkpt>
      <trkpt lat="45.23853" lon="6.10753">
        <ele>2792</ele>
        <time>2021-02-27T12:06:33Z</time>
      </trkpt>
      <trkpt lat="45.23853" lon="6.10753">
        <ele>2792.4</ele>
        <time>2021-02-27T12:06:34Z</time>
      </trkpt>
      <trkpt lat="45.23853" lon="6.10753">
        <ele>2793</ele>
        <time>2021-02-27T12:06:35Z</time>
      </trkpt>
      <trkpt lat="45.23853" lon="6.10753">
        <ele>2793.2</ele>
        <time>2021-02-27T12:06:36Z</time>
      </trkpt>
      <trkpt lat="45.23853" lon="6.10755">
        <ele>2793.2</ele>
        <time>2021-02-27T12:06:37Z</time>
      </trkpt>
      <trkpt lat="45.23853" lon="6.10755">
        <ele>2792.8</ele>
        <time>2021-02-27T12:06:38Z</time>
      </trkpt>
      <trkpt lat="45.23853" lon="6.10755">
        <ele>2792.8</ele>
        <time>2021-02-27T12:06:39Z</time>
      </trkpt>
      <trkpt lat="45.23853" lon="6.10755">
        <ele>2792.8</ele>
        <time>2021-02-27T12:06:40Z</time>
      </trkpt>
      <trkpt lat="45.23853" lon="6.10755">
        <ele>2792.4</ele>
        <time>2021-02-27T12:06:41Z</time>
      </trkpt>
      <trkpt lat="45.23853" lon="6.10755">
        <ele>2792.6</ele>
        <time>2021-02-27T12:06:42Z</time>
      </trkpt>
      <trkpt lat="45.23853" lon="6.10755">
        <ele>2792.4</ele>
        <time>2021-02-27T12:06:43Z</time>
      </trkpt>
      <trkpt lat="45.23853" lon="6.10755">
        <ele>2792.6</ele>
        <time>2021-02-27T12:06:44Z</time>
      </trkpt>
      <trkpt lat="45.23853" lon="6.10755">
        <ele>2792.4</ele>
        <time>2021-02-27T12:06:45Z</time>
      </trkpt>
      <trkpt lat="45.23853" lon="6.10758">
        <ele>2792.4</ele>
        <time>2021-02-27T12:06:46Z</time>
      </trkpt>
      <trkpt lat="45.23853" lon="6.10758">
        <ele>2792.2</ele>
        <time>2021-02-27T12:06:47Z</time>
      </trkpt>
      <trkpt lat="45.23853" lon="6.10758">
        <ele>2792.4</ele>
        <time>2021-02-27T12:06:48Z</time>
      </trkpt>
      <trkpt lat="45.23853" lon="6.10758">
        <ele>2792.2</ele>
        <time>2021-02-27T12:06:49Z</time>
      </trkpt>
      <trkpt lat="45.23853" lon="6.10758">
        <ele>2792.2</ele>
        <time>2021-02-27T12:06:50Z</time>
      </trkpt>
      <trkpt lat="45.23853" lon="6.10758">
        <ele>2792.4</ele>
        <time>2021-02-27T12:06:51Z</time>
      </trkpt>
      <trkpt lat="45.23853" lon="6.10758">
        <ele>2792.2</ele>
        <time>2021-02-27T12:06:52Z</time>
      </trkpt>
      <trkpt lat="45.23853" lon="6.10758">
        <ele>2792.4</ele>
        <time>2021-02-27T12:06:53Z</time>
      </trkpt>
      <trkpt lat="45.23853" lon="6.10761">
        <ele>2792.4</ele>
        <time>2021-02-27T12:06:54Z</time>
      </trkpt>
      <trkpt lat="45.23853" lon="6.10761">
        <ele>2792.4</ele>
        <time>2021-02-27T12:06:55Z</time>
      </trkpt>
      <trkpt lat="45.23853" lon="6.10761">
        <ele>2792.6</ele>
        <time>2021-02-27T12:06:56Z</time>
      </trkpt>
      <trkpt lat="45.23853" lon="6.10761">
        <ele>2792.6</ele>
        <time>2021-02-27T12:06:57Z</time>
      </trkpt>
      <trkpt lat="45.23853" lon="6.10761">
        <ele>2792.4</ele>
        <time>2021-02-27T12:06:58Z</time>
      </trkpt>
      <trkpt lat="45.23853" lon="6.10761">
        <ele>2793</ele>
        <time>2021-02-27T12:06:59Z</time>
      </trkpt>
      <trkpt lat="45.23851" lon="6.10763">
        <ele>2793.2</ele>
        <time>2021-02-27T12:07:00Z</time>
      </trkpt>
      <trkpt lat="45.23851" lon="6.10763">
        <ele>2793.2</ele>
        <time>2021-02-27T12:07:01Z</time>
      </trkpt>
      <trkpt lat="45.23851" lon="6.10763">
        <ele>2793.2</ele>
        <time>2021-02-27T12:07:02Z</time>
      </trkpt>
      <trkpt lat="45.23851" lon="6.10763">
        <ele>2792.8</ele>
        <time>2021-02-27T12:07:03Z</time>
      </trkpt>
      <trkpt lat="45.2385" lon="6.10765">
        <ele>2793.2</ele>
        <time>2021-02-27T12:07:04Z</time>
      </trkpt>
      <trkpt lat="45.2385" lon="6.10765">
        <ele>2793.2</ele>
        <time>2021-02-27T12:07:05Z</time>
      </trkpt>
      <trkpt lat="45.2385" lon="6.10765">
        <ele>2793.4</ele>
        <time>2021-02-27T12:07:06Z</time>
      </trkpt>
      <trkpt lat="45.2385" lon="6.10765">
        <ele>2793.8</ele>
        <time>2021-02-27T12:07:07Z</time>
      </trkpt>
      <trkpt lat="45.2385" lon="6.10768">
        <ele>2793.8</ele>
        <time>2021-02-27T12:07:08Z</time>
      </trkpt>
      <trkpt lat="45.2385" lon="6.10768">
        <ele>2794</ele>
        <time>2021-02-27T12:07:09Z</time>
      </trkpt>
      <trkpt lat="45.2385" lon="6.10768">
        <ele>2794.4</ele>
        <time>2021-02-27T12:07:10Z</time>
      </trkpt>
      <trkpt lat="45.2385" lon="6.10768">
        <ele>2794.4</ele>
        <time>2021-02-27T12:07:11Z</time>
      </trkpt>
      <trkpt lat="45.2385" lon="6.10768">
        <ele>2795</ele>
        <time>2021-02-27T12:07:12Z</time>
      </trkpt>
      <trkpt lat="45.2385" lon="6.10768">
        <ele>2795</ele>
        <time>2021-02-27T12:07:13Z</time>
      </trkpt>
      <trkpt lat="45.2385" lon="6.10768">
        <ele>2795</ele>
        <time>2021-02-27T12:07:14Z</time>
      </trkpt>
      <trkpt lat="45.23848" lon="6.10769">
        <ele>2795.4</ele>
        <time>2021-02-27T12:07:15Z</time>
      </trkpt>
      <trkpt lat="45.23848" lon="6.10769">
        <ele>2795.4</ele>
        <time>2021-02-27T12:07:16Z</time>
      </trkpt>
      <trkpt lat="45.23848" lon="6.10769">
        <ele>2795.8</ele>
        <time>2021-02-27T12:07:17Z</time>
      </trkpt>
      <trkpt lat="45.23848" lon="6.10769">
        <ele>2796.2</ele>
        <time>2021-02-27T12:07:18Z</time>
      </trkpt>
      <trkpt lat="45.23848" lon="6.10769">
        <ele>2795.8</ele>
        <time>2021-02-27T12:07:19Z</time>
      </trkpt>
      <trkpt lat="45.23848" lon="6.10769">
        <ele>2796</ele>
        <time>2021-02-27T12:07:20Z</time>
      </trkpt>
      <trkpt lat="45.23848" lon="6.10769">
        <ele>2796</ele>
        <time>2021-02-27T12:07:21Z</time>
      </trkpt>
      <trkpt lat="45.23848" lon="6.10769">
        <ele>2795.8</ele>
        <time>2021-02-27T12:07:22Z</time>
      </trkpt>
      <trkpt lat="45.23848" lon="6.10769">
        <ele>2796.4</ele>
        <time>2021-02-27T12:07:23Z</time>
      </trkpt>
      <trkpt lat="45.23848" lon="6.10769">
        <ele>2796.4</ele>
        <time>2021-02-27T12:07:24Z</time>
      </trkpt>
      <trkpt lat="45.23847" lon="6.10772">
        <ele>2796.2</ele>
        <time>2021-02-27T12:07:25Z</time>
      </trkpt>
      <trkpt lat="45.23847" lon="6.10772">
        <ele>2796</ele>
        <time>2021-02-27T12:07:26Z</time>
      </trkpt>
      <trkpt lat="45.23847" lon="6.10772">
        <ele>2796</ele>
        <time>2021-02-27T12:07:27Z</time>
      </trkpt>
      <trkpt lat="45.23847" lon="6.10772">
        <ele>2796.2</ele>
        <time>2021-02-27T12:07:28Z</time>
      </trkpt>
      <trkpt lat="45.23847" lon="6.10772">
        <ele>2796.6</ele>
        <time>2021-02-27T12:07:29Z</time>
      </trkpt>
      <trkpt lat="45.23847" lon="6.10772">
        <ele>2796.4</ele>
        <time>2021-02-27T12:07:30Z</time>
      </trkpt>
      <trkpt lat="45.23847" lon="6.10772">
        <ele>2796.4</ele>
        <time>2021-02-27T12:07:31Z</time>
      </trkpt>
      <trkpt lat="45.23847" lon="6.10772">
        <ele>2796.4</ele>
        <time>2021-02-27T12:07:32Z</time>
      </trkpt>
      <trkpt lat="45.23847" lon="6.10772">
        <ele>2796.8</ele>
        <time>2021-02-27T12:07:33Z</time>
      </trkpt>
      <trkpt lat="45.23847" lon="6.10772">
        <ele>2796.8</ele>
        <time>2021-02-27T12:07:34Z</time>
      </trkpt>
      <trkpt lat="45.23847" lon="6.10772">
        <ele>2797</ele>
        <time>2021-02-27T12:07:35Z</time>
      </trkpt>
      <trkpt lat="45.23847" lon="6.10772">
        <ele>2797.4</ele>
        <time>2021-02-27T12:07:36Z</time>
      </trkpt>
      <trkpt lat="45.23847" lon="6.10775">
        <ele>2797.8</ele>
        <time>2021-02-27T12:07:37Z</time>
      </trkpt>
      <trkpt lat="45.23847" lon="6.10775">
        <ele>2797.8</ele>
        <time>2021-02-27T12:07:38Z</time>
      </trkpt>
      <trkpt lat="45.23847" lon="6.10775">
        <ele>2797.8</ele>
        <time>2021-02-27T12:07:39Z</time>
      </trkpt>
      <trkpt lat="45.23847" lon="6.10775">
        <ele>2797.8</ele>
        <time>2021-02-27T12:07:40Z</time>
      </trkpt>
      <trkpt lat="45.23847" lon="6.10775">
        <ele>2798.2</ele>
        <time>2021-02-27T12:07:41Z</time>
      </trkpt>
      <trkpt lat="45.23847" lon="6.10775">
        <ele>2798.2</ele>
        <time>2021-02-27T12:07:42Z</time>
      </trkpt>
      <trkpt lat="45.23847" lon="6.10775">
        <ele>2798.4</ele>
        <time>2021-02-27T12:07:43Z</time>
      </trkpt>
      <trkpt lat="45.23847" lon="6.10775">
        <ele>2798.4</ele>
        <time>2021-02-27T12:07:44Z</time>
      </trkpt>
      <trkpt lat="45.23847" lon="6.10775">
        <ele>2798.4</ele>
        <time>2021-02-27T12:07:45Z</time>
      </trkpt>
      <trkpt lat="45.23847" lon="6.10775">
        <ele>2798.4</ele>
        <time>2021-02-27T12:07:46Z</time>
      </trkpt>
      <trkpt lat="45.23847" lon="6.10775">
        <ele>2798.4</ele>
        <time>2021-02-27T12:07:47Z</time>
      </trkpt>
      <trkpt lat="45.23847" lon="6.10775">
        <ele>2798.4</ele>
        <time>2021-02-27T12:07:48Z</time>
      </trkpt>
      <trkpt lat="45.23847" lon="6.10775">
        <ele>2798.4</ele>
        <time>2021-02-27T12:07:49Z</time>
      </trkpt>
      <trkpt lat="45.23847" lon="6.10775">
        <ele>2798.2</ele>
        <time>2021-02-27T12:07:50Z</time>
      </trkpt>
      <trkpt lat="45.23847" lon="6.10775">
        <ele>2798.6</ele>
        <time>2021-02-27T12:07:51Z</time>
      </trkpt>
      <trkpt lat="45.23847" lon="6.10775">
        <ele>2798.6</ele>
        <time>2021-02-27T12:07:52Z</time>
      </trkpt>
      <trkpt lat="45.23847" lon="6.10775">
        <ele>2798.4</ele>
        <time>2021-02-27T12:07:53Z</time>
      </trkpt>
      <trkpt lat="45.23847" lon="6.10775">
        <ele>2798</ele>
        <time>2021-02-27T12:07:54Z</time>
      </trkpt>
      <trkpt lat="45.23847" lon="6.10775">
        <ele>2797.8</ele>
        <time>2021-02-27T12:07:55Z</time>
      </trkpt>
      <trkpt lat="45.23847" lon="6.10775">
        <ele>2797.4</ele>
        <time>2021-02-27T12:07:56Z</time>
      </trkpt>
      <trkpt lat="45.23845" lon="6.10775">
        <ele>2797.4</ele>
        <time>2021-02-27T12:07:57Z</time>
      </trkpt>
      <trkpt lat="45.23845" lon="6.10775">
        <ele>2798.2</ele>
        <time>2021-02-27T12:07:58Z</time>
      </trkpt>
      <trkpt lat="45.23845" lon="6.10775">
        <ele>2798.6</ele>
        <time>2021-02-27T12:07:59Z</time>
      </trkpt>
      <trkpt lat="45.23845" lon="6.10775">
        <ele>2799</ele>
        <time>2021-02-27T12:08:00Z</time>
      </trkpt>
      <trkpt lat="45.23845" lon="6.10775">
        <ele>2799.2</ele>
        <time>2021-02-27T12:08:01Z</time>
      </trkpt>
      <trkpt lat="45.23845" lon="6.10775">
        <ele>2799.4</ele>
        <time>2021-02-27T12:08:02Z</time>
      </trkpt>
      <trkpt lat="45.23845" lon="6.10775">
        <ele>2799.2</ele>
        <time>2021-02-27T12:08:03Z</time>
      </trkpt>
      <trkpt lat="45.23845" lon="6.10775">
        <ele>2799</ele>
        <time>2021-02-27T12:08:04Z</time>
      </trkpt>
      <trkpt lat="45.23845" lon="6.10775">
        <ele>2798.6</ele>
        <time>2021-02-27T12:08:05Z</time>
      </trkpt>
      <trkpt lat="45.23845" lon="6.10775">
        <ele>2798.4</ele>
        <time>2021-02-27T12:08:06Z</time>
      </trkpt>
      <trkpt lat="45.23845" lon="6.10775">
        <ele>2798.6</ele>
        <time>2021-02-27T12:08:07Z</time>
      </trkpt>
      <trkpt lat="45.23845" lon="6.10775">
        <ele>2798.6</ele>
        <time>2021-02-27T12:08:08Z</time>
      </trkpt>
      <trkpt lat="45.23845" lon="6.10779">
        <ele>2798.8</ele>
        <time>2021-02-27T12:08:09Z</time>
      </trkpt>
      <trkpt lat="45.23845" lon="6.10779">
        <ele>2799.2</ele>
        <time>2021-02-27T12:08:10Z</time>
      </trkpt>
      <trkpt lat="45.23845" lon="6.10779">
        <ele>2799</ele>
        <time>2021-02-27T12:08:11Z</time>
      </trkpt>
      <trkpt lat="45.23845" lon="6.10779">
        <ele>2799.4</ele>
        <time>2021-02-27T12:08:12Z</time>
      </trkpt>
      <trkpt lat="45.23845" lon="6.10779">
        <ele>2799.8</ele>
        <time>2021-02-27T12:08:13Z</time>
      </trkpt>
      <trkpt lat="45.23845" lon="6.10779">
        <ele>2799.8</ele>
        <time>2021-02-27T12:08:14Z</time>
      </trkpt>
      <trkpt lat="45.23845" lon="6.10779">
        <ele>2799.6</ele>
        <time>2021-02-27T12:08:15Z</time>
      </trkpt>
      <trkpt lat="45.23845" lon="6.10779">
        <ele>2800.2</ele>
        <time>2021-02-27T12:08:16Z</time>
      </trkpt>
      <trkpt lat="45.23845" lon="6.10779">
        <ele>2800.2</ele>
        <time>2021-02-27T12:08:17Z</time>
      </trkpt>
      <trkpt lat="45.23845" lon="6.10779">
        <ele>2799.8</ele>
        <time>2021-02-27T12:08:18Z</time>
      </trkpt>
      <trkpt lat="45.23843" lon="6.10778">
        <ele>2800.2</ele>
        <time>2021-02-27T12:08:19Z</time>
      </trkpt>
      <trkpt lat="45.23843" lon="6.10778">
        <ele>2800.6</ele>
        <time>2021-02-27T12:08:20Z</time>
      </trkpt>
      <trkpt lat="45.23843" lon="6.10778">
        <ele>2800.6</ele>
        <time>2021-02-27T12:08:21Z</time>
      </trkpt>
      <trkpt lat="45.23843" lon="6.10778">
        <ele>2800.2</ele>
        <time>2021-02-27T12:08:22Z</time>
      </trkpt>
      <trkpt lat="45.23843" lon="6.10778">
        <ele>2800.4</ele>
        <time>2021-02-27T12:08:23Z</time>
      </trkpt>
      <trkpt lat="45.23843" lon="6.10778">
        <ele>2800.6</ele>
        <time>2021-02-27T12:08:24Z</time>
      </trkpt>
      <trkpt lat="45.23843" lon="6.10778">
        <ele>2801.6</ele>
        <time>2021-02-27T12:08:25Z</time>
      </trkpt>
      <trkpt lat="45.23843" lon="6.10778">
        <ele>2801.4</ele>
        <time>2021-02-27T12:08:26Z</time>
      </trkpt>
      <trkpt lat="45.23843" lon="6.10778">
        <ele>2801.6</ele>
        <time>2021-02-27T12:08:27Z</time>
      </trkpt>
      <trkpt lat="45.23843" lon="6.10778">
        <ele>2801.6</ele>
        <time>2021-02-27T12:08:28Z</time>
      </trkpt>
      <trkpt lat="45.23843" lon="6.10778">
        <ele>2801.8</ele>
        <time>2021-02-27T12:08:29Z</time>
      </trkpt>
      <trkpt lat="45.23843" lon="6.10778">
        <ele>2801.8</ele>
        <time>2021-02-27T12:08:30Z</time>
      </trkpt>
      <trkpt lat="45.23843" lon="6.10778">
        <ele>2801.4</ele>
        <time>2021-02-27T12:08:31Z</time>
      </trkpt>
      <trkpt lat="45.23843" lon="6.10778">
        <ele>2801.2</ele>
        <time>2021-02-27T12:08:32Z</time>
      </trkpt>
      <trkpt lat="45.23843" lon="6.10778">
        <ele>2801</ele>
        <time>2021-02-27T12:08:33Z</time>
      </trkpt>
      <trkpt lat="45.23843" lon="6.10778">
        <ele>2801</ele>
        <time>2021-02-27T12:08:34Z</time>
      </trkpt>
      <trkpt lat="45.23843" lon="6.10778">
        <ele>2800.8</ele>
        <time>2021-02-27T12:08:35Z</time>
      </trkpt>
      <trkpt lat="45.23844" lon="6.1078">
        <ele>2800.6</ele>
        <time>2021-02-27T12:08:36Z</time>
      </trkpt>
      <trkpt lat="45.23844" lon="6.1078">
        <ele>2801</ele>
        <time>2021-02-27T12:08:37Z</time>
      </trkpt>
      <trkpt lat="45.23844" lon="6.1078">
        <ele>2800.8</ele>
        <time>2021-02-27T12:08:38Z</time>
      </trkpt>
      <trkpt lat="45.23844" lon="6.1078">
        <ele>2800.8</ele>
        <time>2021-02-27T12:08:39Z</time>
      </trkpt>
      <trkpt lat="45.23844" lon="6.1078">
        <ele>2801.2</ele>
        <time>2021-02-27T12:08:40Z</time>
      </trkpt>
      <trkpt lat="45.23844" lon="6.1078">
        <ele>2801.4</ele>
        <time>2021-02-27T12:08:41Z</time>
      </trkpt>
      <trkpt lat="45.23844" lon="6.1078">
        <ele>2801.6</ele>
        <time>2021-02-27T12:08:42Z</time>
      </trkpt>
      <trkpt lat="45.23844" lon="6.1078">
        <ele>2801.4</ele>
        <time>2021-02-27T12:08:43Z</time>
      </trkpt>
      <trkpt lat="45.23844" lon="6.1078">
        <ele>2801.4</ele>
        <time>2021-02-27T12:08:44Z</time>
      </trkpt>
      <trkpt lat="45.23844" lon="6.1078">
        <ele>2801.8</ele>
        <time>2021-02-27T12:08:45Z</time>
      </trkpt>
      <trkpt lat="45.23844" lon="6.1078">
        <ele>2801.8</ele>
        <time>2021-02-27T12:08:46Z</time>
      </trkpt>
      <trkpt lat="45.23844" lon="6.1078">
        <ele>2801.8</ele>
        <time>2021-02-27T12:08:47Z</time>
      </trkpt>
      <trkpt lat="45.23844" lon="6.1078">
        <ele>2801.6</ele>
        <time>2021-02-27T12:08:48Z</time>
      </trkpt>
      <trkpt lat="45.23844" lon="6.1078">
        <ele>2803</ele>
        <time>2021-02-27T12:08:49Z</time>
      </trkpt>
      <trkpt lat="45.23844" lon="6.1078">
        <ele>2803</ele>
        <time>2021-02-27T12:08:50Z</time>
      </trkpt>
      <trkpt lat="45.23844" lon="6.1078">
        <ele>2802.6</ele>
        <time>2021-02-27T12:08:51Z</time>
      </trkpt>
      <trkpt lat="45.23844" lon="6.1078">
        <ele>2802.8</ele>
        <time>2021-02-27T12:08:52Z</time>
      </trkpt>
      <trkpt lat="45.23844" lon="6.1078">
        <ele>2803</ele>
        <time>2021-02-27T12:08:53Z</time>
      </trkpt>
      <trkpt lat="45.23843" lon="6.10783">
        <ele>2803</ele>
        <time>2021-02-27T12:08:54Z</time>
      </trkpt>
      <trkpt lat="45.23843" lon="6.10783">
        <ele>2803</ele>
        <time>2021-02-27T12:08:55Z</time>
      </trkpt>
      <trkpt lat="45.23843" lon="6.10783">
        <ele>2803</ele>
        <time>2021-02-27T12:08:56Z</time>
      </trkpt>
      <trkpt lat="45.23843" lon="6.10783">
        <ele>2803.2</ele>
        <time>2021-02-27T12:08:57Z</time>
      </trkpt>
      <trkpt lat="45.23843" lon="6.10783">
        <ele>2803.2</ele>
        <time>2021-02-27T12:08:58Z</time>
      </trkpt>
      <trkpt lat="45.23843" lon="6.10783">
        <ele>2803.2</ele>
        <time>2021-02-27T12:08:59Z</time>
      </trkpt>
      <trkpt lat="45.23843" lon="6.10783">
        <ele>2803.2</ele>
        <time>2021-02-27T12:09:00Z</time>
      </trkpt>
      <trkpt lat="45.23843" lon="6.10783">
        <ele>2803.4</ele>
        <time>2021-02-27T12:09:01Z</time>
      </trkpt>
      <trkpt lat="45.23843" lon="6.10783">
        <ele>2803.4</ele>
        <time>2021-02-27T12:09:02Z</time>
      </trkpt>
      <trkpt lat="45.23845" lon="6.10786">
        <ele>2804</ele>
        <time>2021-02-27T12:09:03Z</time>
      </trkpt>
      <trkpt lat="45.23845" lon="6.10786">
        <ele>2804</ele>
        <time>2021-02-27T12:09:04Z</time>
      </trkpt>
      <trkpt lat="45.23845" lon="6.10786">
        <ele>2804.6</ele>
        <time>2021-02-27T12:09:05Z</time>
      </trkpt>
      <trkpt lat="45.23845" lon="6.10786">
        <ele>2804.8</ele>
        <time>2021-02-27T12:09:06Z</time>
      </trkpt>
      <trkpt lat="45.23845" lon="6.10786">
        <ele>2805</ele>
        <time>2021-02-27T12:09:07Z</time>
      </trkpt>
      <trkpt lat="45.23844" lon="6.10789">
        <ele>2805.2</ele>
        <time>2021-02-27T12:09:08Z</time>
      </trkpt>
      <trkpt lat="45.23844" lon="6.10789">
        <ele>2805.2</ele>
        <time>2021-02-27T12:09:09Z</time>
      </trkpt>
      <trkpt lat="45.23844" lon="6.10789">
        <ele>2805.4</ele>
        <time>2021-02-27T12:09:10Z</time>
      </trkpt>
      <trkpt lat="45.23844" lon="6.10789">
        <ele>2805.6</ele>
        <time>2021-02-27T12:09:11Z</time>
      </trkpt>
      <trkpt lat="45.23844" lon="6.10789">
        <ele>2806</ele>
        <time>2021-02-27T12:09:12Z</time>
      </trkpt>
      <trkpt lat="45.23844" lon="6.10789">
        <ele>2805.8</ele>
        <time>2021-02-27T12:09:13Z</time>
      </trkpt>
      <trkpt lat="45.23844" lon="6.10789">
        <ele>2806.4</ele>
        <time>2021-02-27T12:09:14Z</time>
      </trkpt>
      <trkpt lat="45.23844" lon="6.10789">
        <ele>2806.4</ele>
        <time>2021-02-27T12:09:15Z</time>
      </trkpt>
      <trkpt lat="45.23844" lon="6.10789">
        <ele>2806.4</ele>
        <time>2021-02-27T12:09:16Z</time>
      </trkpt>
      <trkpt lat="45.23844" lon="6.10789">
        <ele>2806.4</ele>
        <time>2021-02-27T12:09:17Z</time>
      </trkpt>
      <trkpt lat="45.23844" lon="6.10789">
        <ele>2806.4</ele>
        <time>2021-02-27T12:09:18Z</time>
      </trkpt>
      <trkpt lat="45.23844" lon="6.10789">
        <ele>2806.6</ele>
        <time>2021-02-27T12:09:19Z</time>
      </trkpt>
      <trkpt lat="45.23845" lon="6.10792">
        <ele>2806.8</ele>
        <time>2021-02-27T12:09:20Z</time>
      </trkpt>
      <trkpt lat="45.23845" lon="6.10792">
        <ele>2807</ele>
        <time>2021-02-27T12:09:21Z</time>
      </trkpt>
      <trkpt lat="45.23845" lon="6.10792">
        <ele>2806.8</ele>
        <time>2021-02-27T12:09:22Z</time>
      </trkpt>
      <trkpt lat="45.23845" lon="6.10792">
        <ele>2807.2</ele>
        <time>2021-02-27T12:09:23Z</time>
      </trkpt>
      <trkpt lat="45.23845" lon="6.10792">
        <ele>2807.2</ele>
        <time>2021-02-27T12:09:24Z</time>
      </trkpt>
      <trkpt lat="45.23845" lon="6.10792">
        <ele>2807</ele>
        <time>2021-02-27T12:09:25Z</time>
      </trkpt>
      <trkpt lat="45.23845" lon="6.10792">
        <ele>2806.4</ele>
        <time>2021-02-27T12:09:26Z</time>
      </trkpt>
      <trkpt lat="45.23845" lon="6.10792">
        <ele>2806.4</ele>
        <time>2021-02-27T12:09:27Z</time>
      </trkpt>
      <trkpt lat="45.23842" lon="6.10791">
        <ele>2806.8</ele>
        <time>2021-02-27T12:09:28Z</time>
      </trkpt>
      <trkpt lat="45.23842" lon="6.10791">
        <ele>2807</ele>
        <time>2021-02-27T12:09:29Z</time>
      </trkpt>
      <trkpt lat="45.23842" lon="6.10791">
        <ele>2807.2</ele>
        <time>2021-02-27T12:09:30Z</time>
      </trkpt>
      <trkpt lat="45.23842" lon="6.10791">
        <ele>2807.6</ele>
        <time>2021-02-27T12:09:31Z</time>
      </trkpt>
      <trkpt lat="45.23842" lon="6.10791">
        <ele>2807.4</ele>
        <time>2021-02-27T12:09:32Z</time>
      </trkpt>
      <trkpt lat="45.23841" lon="6.1079">
        <ele>2807.8</ele>
        <time>2021-02-27T12:09:33Z</time>
      </trkpt>
      <trkpt lat="45.23841" lon="6.1079">
        <ele>2808.2</ele>
        <time>2021-02-27T12:09:34Z</time>
      </trkpt>
      <trkpt lat="45.23841" lon="6.1079">
        <ele>2808.2</ele>
        <time>2021-02-27T12:09:35Z</time>
      </trkpt>
      <trkpt lat="45.23839" lon="6.10789">
        <ele>2809</ele>
        <time>2021-02-27T12:09:36Z</time>
      </trkpt>
      <trkpt lat="45.23839" lon="6.10789">
        <ele>2809</ele>
        <time>2021-02-27T12:09:37Z</time>
      </trkpt>
      <trkpt lat="45.23839" lon="6.10789">
        <ele>2809</ele>
        <time>2021-02-27T12:09:38Z</time>
      </trkpt>
      <trkpt lat="45.23837" lon="6.10788">
        <ele>2809.2</ele>
        <time>2021-02-27T12:09:39Z</time>
      </trkpt>
      <trkpt lat="45.23837" lon="6.10788">
        <ele>2809</ele>
        <time>2021-02-27T12:09:40Z</time>
      </trkpt>
      <trkpt lat="45.23837" lon="6.10788">
        <ele>2809.2</ele>
        <time>2021-02-27T12:09:41Z</time>
      </trkpt>
      <trkpt lat="45.23837" lon="6.10788">
        <ele>2809.2</ele>
        <time>2021-02-27T12:09:42Z</time>
      </trkpt>
      <trkpt lat="45.23837" lon="6.10788">
        <ele>2809.4</ele>
        <time>2021-02-27T12:09:43Z</time>
      </trkpt>
      <trkpt lat="45.23837" lon="6.10788">
        <ele>2809.2</ele>
        <time>2021-02-27T12:09:44Z</time>
      </trkpt>
      <trkpt lat="45.23837" lon="6.10788">
        <ele>2809</ele>
        <time>2021-02-27T12:09:45Z</time>
      </trkpt>
      <trkpt lat="45.23837" lon="6.10788">
        <ele>2808.8</ele>
        <time>2021-02-27T12:09:46Z</time>
      </trkpt>
      <trkpt lat="45.23837" lon="6.10788">
        <ele>2809</ele>
        <time>2021-02-27T12:09:47Z</time>
      </trkpt>
      <trkpt lat="45.23835" lon="6.10786">
        <ele>2809</ele>
        <time>2021-02-27T12:09:48Z</time>
      </trkpt>
      <trkpt lat="45.23835" lon="6.10786">
        <ele>2809</ele>
        <time>2021-02-27T12:09:49Z</time>
      </trkpt>
      <trkpt lat="45.23835" lon="6.10786">
        <ele>2808.6</ele>
        <time>2021-02-27T12:09:50Z</time>
      </trkpt>
      <trkpt lat="45.23833" lon="6.10783">
        <ele>2808.4</ele>
        <time>2021-02-27T12:09:51Z</time>
      </trkpt>
      <trkpt lat="45.23833" lon="6.10783">
        <ele>2807.8</ele>
        <time>2021-02-27T12:09:52Z</time>
      </trkpt>
      <trkpt lat="45.23833" lon="6.10783">
        <ele>2807.8</ele>
        <time>2021-02-27T12:09:53Z</time>
      </trkpt>
      <trkpt lat="45.23831" lon="6.10781">
        <ele>2807.8</ele>
        <time>2021-02-27T12:09:54Z</time>
      </trkpt>
      <trkpt lat="45.23831" lon="6.10781">
        <ele>2808</ele>
        <time>2021-02-27T12:09:55Z</time>
      </trkpt>
      <trkpt lat="45.23831" lon="6.10781">
        <ele>2807.6</ele>
        <time>2021-02-27T12:09:56Z</time>
      </trkpt>
      <trkpt lat="45.23829" lon="6.1078">
        <ele>2807.4</ele>
        <time>2021-02-27T12:09:57Z</time>
      </trkpt>
      <trkpt lat="45.23829" lon="6.1078">
        <ele>2807.8</ele>
        <time>2021-02-27T12:09:58Z</time>
      </trkpt>
      <trkpt lat="45.23829" lon="6.1078">
        <ele>2807.6</ele>
        <time>2021-02-27T12:09:59Z</time>
      </trkpt>
      <trkpt lat="45.23829" lon="6.1078">
        <ele>2807.4</ele>
        <time>2021-02-27T12:10:00Z</time>
      </trkpt>
      <trkpt lat="45.23829" lon="6.1078">
        <ele>2807.2</ele>
        <time>2021-02-27T12:10:01Z</time>
      </trkpt>
      <trkpt lat="45.23829" lon="6.1078">
        <ele>2807</ele>
        <time>2021-02-27T12:10:02Z</time>
      </trkpt>
      <trkpt lat="45.23829" lon="6.1078">
        <ele>2806.6</ele>
        <time>2021-02-27T12:10:03Z</time>
      </trkpt>
      <trkpt lat="45.23829" lon="6.1078">
        <ele>2806.2</ele>
        <time>2021-02-27T12:10:04Z</time>
      </trkpt>
      <trkpt lat="45.23829" lon="6.1078">
        <ele>2806.4</ele>
        <time>2021-02-27T12:10:05Z</time>
      </trkpt>
      <trkpt lat="45.23829" lon="6.1078">
        <ele>2806.2</ele>
        <time>2021-02-27T12:10:06Z</time>
      </trkpt>
      <trkpt lat="45.23829" lon="6.1078">
        <ele>2806.2</ele>
        <time>2021-02-27T12:10:07Z</time>
      </trkpt>
      <trkpt lat="45.23829" lon="6.1078">
        <ele>2806.2</ele>
        <time>2021-02-27T12:10:08Z</time>
      </trkpt>
      <trkpt lat="45.23829" lon="6.1078">
        <ele>2806</ele>
        <time>2021-02-27T12:10:09Z</time>
      </trkpt>
      <trkpt lat="45.23829" lon="6.1078">
        <ele>2806.4</ele>
        <time>2021-02-27T12:10:10Z</time>
      </trkpt>
      <trkpt lat="45.23829" lon="6.1078">
        <ele>2806.4</ele>
        <time>2021-02-27T12:10:11Z</time>
      </trkpt>
      <trkpt lat="45.23829" lon="6.1078">
        <ele>2806.8</ele>
        <time>2021-02-27T12:10:12Z</time>
      </trkpt>
      <trkpt lat="45.23829" lon="6.1078">
        <ele>2807.2</ele>
        <time>2021-02-27T12:10:13Z</time>
      </trkpt>
      <trkpt lat="45.23829" lon="6.1078">
        <ele>2807.4</ele>
        <time>2021-02-27T12:10:14Z</time>
      </trkpt>
      <trkpt lat="45.23829" lon="6.1078">
        <ele>2807.2</ele>
        <time>2021-02-27T12:10:15Z</time>
      </trkpt>
      <trkpt lat="45.23829" lon="6.1078">
        <ele>2807</ele>
        <time>2021-02-27T12:10:16Z</time>
      </trkpt>
      <trkpt lat="45.23829" lon="6.1078">
        <ele>2807.2</ele>
        <time>2021-02-27T12:10:17Z</time>
      </trkpt>
      <trkpt lat="45.23829" lon="6.1078">
        <ele>2807.2</ele>
        <time>2021-02-27T12:10:18Z</time>
      </trkpt>
      <trkpt lat="45.23829" lon="6.1078">
        <ele>2807.2</ele>
        <time>2021-02-27T12:10:19Z</time>
      </trkpt>
      <trkpt lat="45.23829" lon="6.1078">
        <ele>2807.2</ele>
        <time>2021-02-27T12:10:20Z</time>
      </trkpt>
      <trkpt lat="45.23829" lon="6.1078">
        <ele>2808</ele>
        <time>2021-02-27T12:10:21Z</time>
      </trkpt>
      <trkpt lat="45.23829" lon="6.1078">
        <ele>2809.2</ele>
        <time>2021-02-27T12:10:22Z</time>
      </trkpt>
      <trkpt lat="45.23829" lon="6.1078">
        <ele>2810.2</ele>
        <time>2021-02-27T12:10:23Z</time>
      </trkpt>
      <trkpt lat="45.23829" lon="6.1078">
        <ele>2810.8</ele>
        <time>2021-02-27T12:10:24Z</time>
      </trkpt>
      <trkpt lat="45.23829" lon="6.1078">
        <ele>2811.6</ele>
        <time>2021-02-27T12:10:25Z</time>
      </trkpt>
      <trkpt lat="45.23829" lon="6.1078">
        <ele>2812.6</ele>
        <time>2021-02-27T12:10:26Z</time>
      </trkpt>
      <trkpt lat="45.23829" lon="6.1078">
        <ele>2813.4</ele>
        <time>2021-02-27T12:10:27Z</time>
      </trkpt>
      <trkpt lat="45.23829" lon="6.1078">
        <ele>2813</ele>
        <time>2021-02-27T12:10:28Z</time>
      </trkpt>
      <trkpt lat="45.23829" lon="6.1078">
        <ele>2813.4</ele>
        <time>2021-02-27T12:10:29Z</time>
      </trkpt>
      <trkpt lat="45.23829" lon="6.1078">
        <ele>2812.8</ele>
        <time>2021-02-27T12:10:30Z</time>
      </trkpt>
      <trkpt lat="45.23829" lon="6.1078">
        <ele>2812.2</ele>
        <time>2021-02-27T12:10:31Z</time>
      </trkpt>
      <trkpt lat="45.23829" lon="6.1078">
        <ele>2812.8</ele>
        <time>2021-02-27T12:10:32Z</time>
      </trkpt>
      <trkpt lat="45.23829" lon="6.1078">
        <ele>2813.6</ele>
        <time>2021-02-27T12:10:33Z</time>
      </trkpt>
      <trkpt lat="45.23829" lon="6.1078">
        <ele>2814</ele>
        <time>2021-02-27T12:10:34Z</time>
      </trkpt>
      <trkpt lat="45.23829" lon="6.1078">
        <ele>2814</ele>
        <time>2021-02-27T12:10:35Z</time>
      </trkpt>
      <trkpt lat="45.23829" lon="6.1078">
        <ele>2811.4</ele>
        <time>2021-02-27T12:10:36Z</time>
      </trkpt>
      <trkpt lat="45.23829" lon="6.1078">
        <ele>2809.4</ele>
        <time>2021-02-27T12:10:37Z</time>
      </trkpt>
      <trkpt lat="45.23829" lon="6.1078">
        <ele>2809.2</ele>
        <time>2021-02-27T12:10:38Z</time>
      </trkpt>
      <trkpt lat="45.23829" lon="6.1078">
        <ele>2810</ele>
        <time>2021-02-27T12:10:39Z</time>
      </trkpt>
      <trkpt lat="45.23829" lon="6.1078">
        <ele>2810.4</ele>
        <time>2021-02-27T12:10:40Z</time>
      </trkpt>
      <trkpt lat="45.23829" lon="6.1078">
        <ele>2811.6</ele>
        <time>2021-02-27T12:10:41Z</time>
      </trkpt>
      <trkpt lat="45.23829" lon="6.1078">
        <ele>2812</ele>
        <time>2021-02-27T12:10:42Z</time>
      </trkpt>
      <trkpt lat="45.23829" lon="6.1078">
        <ele>2812.2</ele>
        <time>2021-02-27T12:10:43Z</time>
      </trkpt>
      <trkpt lat="45.23829" lon="6.1078">
        <ele>2812</ele>
        <time>2021-02-27T12:10:44Z</time>
      </trkpt>
      <trkpt lat="45.23829" lon="6.1078">
        <ele>2812.2</ele>
        <time>2021-02-27T12:10:45Z</time>
      </trkpt>
      <trkpt lat="45.23829" lon="6.1078">
        <ele>2812.2</ele>
        <time>2021-02-27T12:10:46Z</time>
      </trkpt>
      <trkpt lat="45.23827" lon="6.1078">
        <ele>2812</ele>
        <time>2021-02-27T12:10:47Z</time>
      </trkpt>
      <trkpt lat="45.23827" lon="6.1078">
        <ele>2812.6</ele>
        <time>2021-02-27T12:10:48Z</time>
      </trkpt>
      <trkpt lat="45.23827" lon="6.1078">
        <ele>2813.2</ele>
        <time>2021-02-27T12:10:49Z</time>
      </trkpt>
      <trkpt lat="45.23827" lon="6.1078">
        <ele>2814</ele>
        <time>2021-02-27T12:10:50Z</time>
      </trkpt>
      <trkpt lat="45.23827" lon="6.1078">
        <ele>2814</ele>
        <time>2021-02-27T12:10:51Z</time>
      </trkpt>
      <trkpt lat="45.23827" lon="6.1078">
        <ele>2814.2</ele>
        <time>2021-02-27T12:10:52Z</time>
      </trkpt>
      <trkpt lat="45.23827" lon="6.1078">
        <ele>2814</ele>
        <time>2021-02-27T12:10:53Z</time>
      </trkpt>
      <trkpt lat="45.23827" lon="6.1078">
        <ele>2813.6</ele>
        <time>2021-02-27T12:10:54Z</time>
      </trkpt>
      <trkpt lat="45.23827" lon="6.1078">
        <ele>2812.6</ele>
        <time>2021-02-27T12:10:55Z</time>
      </trkpt>
      <trkpt lat="45.23827" lon="6.1078">
        <ele>2812.8</ele>
        <time>2021-02-27T12:10:56Z</time>
      </trkpt>
      <trkpt lat="45.23827" lon="6.1078">
        <ele>2812.8</ele>
        <time>2021-02-27T12:10:57Z</time>
      </trkpt>
      <trkpt lat="45.23827" lon="6.1078">
        <ele>2812.4</ele>
        <time>2021-02-27T12:10:58Z</time>
      </trkpt>
      <trkpt lat="45.23827" lon="6.1078">
        <ele>2812.4</ele>
        <time>2021-02-27T12:10:59Z</time>
      </trkpt>
      <trkpt lat="45.23827" lon="6.1078">
        <ele>2812</ele>
        <time>2021-02-27T12:11:00Z</time>
      </trkpt>
      <trkpt lat="45.23827" lon="6.1078">
        <ele>2811.6</ele>
        <time>2021-02-27T12:11:01Z</time>
      </trkpt>
      <trkpt lat="45.23827" lon="6.1078">
        <ele>2810.8</ele>
        <time>2021-02-27T12:11:02Z</time>
      </trkpt>
      <trkpt lat="45.23827" lon="6.1078">
        <ele>2811.6</ele>
        <time>2021-02-27T12:11:03Z</time>
      </trkpt>
      <trkpt lat="45.23827" lon="6.1078">
        <ele>2811.2</ele>
        <time>2021-02-27T12:11:04Z</time>
      </trkpt>
      <trkpt lat="45.23827" lon="6.1078">
        <ele>2809.8</ele>
        <time>2021-02-27T12:11:05Z</time>
      </trkpt>
      <trkpt lat="45.23827" lon="6.1078">
        <ele>2808</ele>
        <time>2021-02-27T12:11:06Z</time>
      </trkpt>
      <trkpt lat="45.23827" lon="6.1078">
        <ele>2807.4</ele>
        <time>2021-02-27T12:11:07Z</time>
      </trkpt>
      <trkpt lat="45.23827" lon="6.1078">
        <ele>2806.4</ele>
        <time>2021-02-27T12:11:08Z</time>
      </trkpt>
      <trkpt lat="45.23827" lon="6.1078">
        <ele>2805.8</ele>
        <time>2021-02-27T12:11:09Z</time>
      </trkpt>
      <trkpt lat="45.23827" lon="6.1078">
        <ele>2805.8</ele>
        <time>2021-02-27T12:11:10Z</time>
      </trkpt>
      <trkpt lat="45.23827" lon="6.1078">
        <ele>2805</ele>
        <time>2021-02-27T12:11:11Z</time>
      </trkpt>
      <trkpt lat="45.23827" lon="6.1078">
        <ele>2804.4</ele>
        <time>2021-02-27T12:11:12Z</time>
      </trkpt>
      <trkpt lat="45.23827" lon="6.1078">
        <ele>2803.8</ele>
        <time>2021-02-27T12:11:13Z</time>
      </trkpt>
      <trkpt lat="45.23827" lon="6.1078">
        <ele>2803.2</ele>
        <time>2021-02-27T12:11:14Z</time>
      </trkpt>
      <trkpt lat="45.23827" lon="6.1078">
        <ele>2802.2</ele>
        <time>2021-02-27T12:11:15Z</time>
      </trkpt>
      <trkpt lat="45.23827" lon="6.1078">
        <ele>2801.8</ele>
        <time>2021-02-27T12:11:16Z</time>
      </trkpt>
      <trkpt lat="45.23827" lon="6.1078">
        <ele>2801.6</ele>
        <time>2021-02-27T12:11:17Z</time>
      </trkpt>
      <trkpt lat="45.23827" lon="6.1078">
        <ele>2801.8</ele>
        <time>2021-02-27T12:11:18Z</time>
      </trkpt>
      <trkpt lat="45.23827" lon="6.1078">
        <ele>2802</ele>
        <time>2021-02-27T12:11:19Z</time>
      </trkpt>
      <trkpt lat="45.23827" lon="6.1078">
        <ele>2801.6</ele>
        <time>2021-02-27T12:11:20Z</time>
      </trkpt>
      <trkpt lat="45.23827" lon="6.1078">
        <ele>2801.4</ele>
        <time>2021-02-27T12:11:21Z</time>
      </trkpt>
      <trkpt lat="45.23827" lon="6.1078">
        <ele>2800.4</ele>
        <time>2021-02-27T12:11:22Z</time>
      </trkpt>
      <trkpt lat="45.23827" lon="6.10783">
        <ele>2800</ele>
        <time>2021-02-27T12:11:23Z</time>
      </trkpt>
      <trkpt lat="45.23827" lon="6.10783">
        <ele>2799.6</ele>
        <time>2021-02-27T12:11:24Z</time>
      </trkpt>
      <trkpt lat="45.23827" lon="6.10783">
        <ele>2799.6</ele>
        <time>2021-02-27T12:11:25Z</time>
      </trkpt>
      <trkpt lat="45.23827" lon="6.10783">
        <ele>2799.4</ele>
        <time>2021-02-27T12:11:26Z</time>
      </trkpt>
      <trkpt lat="45.23827" lon="6.10783">
        <ele>2799.2</ele>
        <time>2021-02-27T12:11:27Z</time>
      </trkpt>
      <trkpt lat="45.23827" lon="6.10783">
        <ele>2799.6</ele>
        <time>2021-02-27T12:11:28Z</time>
      </trkpt>
      <trkpt lat="45.23827" lon="6.10785">
        <ele>2798.6</ele>
        <time>2021-02-27T12:11:29Z</time>
      </trkpt>
      <trkpt lat="45.23827" lon="6.10785">
        <ele>2798.2</ele>
        <time>2021-02-27T12:11:30Z</time>
      </trkpt>
      <trkpt lat="45.23827" lon="6.10785">
        <ele>2798.4</ele>
        <time>2021-02-27T12:11:31Z</time>
      </trkpt>
      <trkpt lat="45.23827" lon="6.10785">
        <ele>2798.2</ele>
        <time>2021-02-27T12:11:32Z</time>
      </trkpt>
      <trkpt lat="45.23827" lon="6.10785">
        <ele>2798</ele>
        <time>2021-02-27T12:11:33Z</time>
      </trkpt>
      <trkpt lat="45.23827" lon="6.10785">
        <ele>2798</ele>
        <time>2021-02-27T12:11:34Z</time>
      </trkpt>
      <trkpt lat="45.23827" lon="6.10785">
        <ele>2797.8</ele>
        <time>2021-02-27T12:11:35Z</time>
      </trkpt>
      <trkpt lat="45.23827" lon="6.10785">
        <ele>2798</ele>
        <time>2021-02-27T12:11:36Z</time>
      </trkpt>
      <trkpt lat="45.23827" lon="6.10785">
        <ele>2798</ele>
        <time>2021-02-27T12:11:37Z</time>
      </trkpt>
      <trkpt lat="45.23827" lon="6.10785">
        <ele>2796.8</ele>
        <time>2021-02-27T12:11:38Z</time>
      </trkpt>
      <trkpt lat="45.23827" lon="6.10785">
        <ele>2796.4</ele>
        <time>2021-02-27T12:11:39Z</time>
      </trkpt>
      <trkpt lat="45.23827" lon="6.10785">
        <ele>2795.8</ele>
        <time>2021-02-27T12:11:40Z</time>
      </trkpt>
      <trkpt lat="45.23827" lon="6.10785">
        <ele>2795.8</ele>
        <time>2021-02-27T12:11:41Z</time>
      </trkpt>
      <trkpt lat="45.23827" lon="6.10785">
        <ele>2795.4</ele>
        <time>2021-02-27T12:11:42Z</time>
      </trkpt>
      <trkpt lat="45.23827" lon="6.10785">
        <ele>2795.6</ele>
        <time>2021-02-27T12:11:43Z</time>
      </trkpt>
      <trkpt lat="45.23827" lon="6.10785">
        <ele>2795.4</ele>
        <time>2021-02-27T12:11:44Z</time>
      </trkpt>
      <trkpt lat="45.23827" lon="6.10785">
        <ele>2795</ele>
        <time>2021-02-27T12:11:45Z</time>
      </trkpt>
      <trkpt lat="45.23827" lon="6.10785">
        <ele>2795</ele>
        <time>2021-02-27T12:11:46Z</time>
      </trkpt>
      <trkpt lat="45.23827" lon="6.10785">
        <ele>2794.8</ele>
        <time>2021-02-27T12:11:47Z</time>
      </trkpt>
      <trkpt lat="45.23827" lon="6.10785">
        <ele>2795.4</ele>
        <time>2021-02-27T12:11:48Z</time>
      </trkpt>
      <trkpt lat="45.23827" lon="6.10785">
        <ele>2795</ele>
        <time>2021-02-27T12:11:49Z</time>
      </trkpt>
      <trkpt lat="45.23827" lon="6.10785">
        <ele>2794.8</ele>
        <time>2021-02-27T12:11:50Z</time>
      </trkpt>
      <trkpt lat="45.23827" lon="6.10785">
        <ele>2794.8</ele>
        <time>2021-02-27T12:11:51Z</time>
      </trkpt>
      <trkpt lat="45.23826" lon="6.10787">
        <ele>2794.6</ele>
        <time>2021-02-27T12:11:52Z</time>
      </trkpt>
      <trkpt lat="45.23826" lon="6.10787">
        <ele>2795</ele>
        <time>2021-02-27T12:11:53Z</time>
      </trkpt>
      <trkpt lat="45.23826" lon="6.10787">
        <ele>2795.2</ele>
        <time>2021-02-27T12:11:54Z</time>
      </trkpt>
      <trkpt lat="45.23826" lon="6.10787">
        <ele>2794.8</ele>
        <time>2021-02-27T12:11:55Z</time>
      </trkpt>
      <trkpt lat="45.23826" lon="6.10787">
        <ele>2795</ele>
        <time>2021-02-27T12:11:56Z</time>
      </trkpt>
      <trkpt lat="45.23826" lon="6.10787">
        <ele>2794.8</ele>
        <time>2021-02-27T12:11:57Z</time>
      </trkpt>
      <trkpt lat="45.23826" lon="6.10787">
        <ele>2794.8</ele>
        <time>2021-02-27T12:11:58Z</time>
      </trkpt>
      <trkpt lat="45.23826" lon="6.10787">
        <ele>2795.2</ele>
        <time>2021-02-27T12:11:59Z</time>
      </trkpt>
      <trkpt lat="45.23826" lon="6.10787">
        <ele>2795</ele>
        <time>2021-02-27T12:12:00Z</time>
      </trkpt>
      <trkpt lat="45.23826" lon="6.10787">
        <ele>2795</ele>
        <time>2021-02-27T12:12:01Z</time>
      </trkpt>
      <trkpt lat="45.23826" lon="6.10787">
        <ele>2795.2</ele>
        <time>2021-02-27T12:12:02Z</time>
      </trkpt>
      <trkpt lat="45.23826" lon="6.10787">
        <ele>2794.8</ele>
        <time>2021-02-27T12:12:03Z</time>
      </trkpt>
      <trkpt lat="45.23826" lon="6.10787">
        <ele>2794.8</ele>
        <time>2021-02-27T12:12:04Z</time>
      </trkpt>
      <trkpt lat="45.23826" lon="6.10787">
        <ele>2794.8</ele>
        <time>2021-02-27T12:12:05Z</time>
      </trkpt>
      <trkpt lat="45.23826" lon="6.10787">
        <ele>2795.2</ele>
        <time>2021-02-27T12:12:06Z</time>
      </trkpt>
      <trkpt lat="45.23826" lon="6.10787">
        <ele>2795</ele>
        <time>2021-02-27T12:12:07Z</time>
      </trkpt>
      <trkpt lat="45.23826" lon="6.10787">
        <ele>2793.6</ele>
        <time>2021-02-27T12:12:08Z</time>
      </trkpt>
      <trkpt lat="45.23826" lon="6.10787">
        <ele>2793.4</ele>
        <time>2021-02-27T12:12:09Z</time>
      </trkpt>
      <trkpt lat="45.23826" lon="6.10787">
        <ele>2793.6</ele>
        <time>2021-02-27T12:12:10Z</time>
      </trkpt>
      <trkpt lat="45.23826" lon="6.10787">
        <ele>2794</ele>
        <time>2021-02-27T12:12:11Z</time>
      </trkpt>
      <trkpt lat="45.23826" lon="6.10787">
        <ele>2794</ele>
        <time>2021-02-27T12:12:12Z</time>
      </trkpt>
      <trkpt lat="45.23826" lon="6.10787">
        <ele>2793.8</ele>
        <time>2021-02-27T12:12:13Z</time>
      </trkpt>
      <trkpt lat="45.23826" lon="6.10787">
        <ele>2794</ele>
        <time>2021-02-27T12:12:14Z</time>
      </trkpt>
      <trkpt lat="45.23826" lon="6.10787">
        <ele>2794.6</ele>
        <time>2021-02-27T12:12:15Z</time>
      </trkpt>
      <trkpt lat="45.23826" lon="6.10787">
        <ele>2794.6</ele>
        <time>2021-02-27T12:12:16Z</time>
      </trkpt>
      <trkpt lat="45.23827" lon="6.1079">
        <ele>2794.8</ele>
        <time>2021-02-27T12:12:17Z</time>
      </trkpt>
      <trkpt lat="45.23827" lon="6.1079">
        <ele>2794.8</ele>
        <time>2021-02-27T12:12:18Z</time>
      </trkpt>
      <trkpt lat="45.23827" lon="6.1079">
        <ele>2795.2</ele>
        <time>2021-02-27T12:12:19Z</time>
      </trkpt>
      <trkpt lat="45.23827" lon="6.1079">
        <ele>2795.2</ele>
        <time>2021-02-27T12:12:20Z</time>
      </trkpt>
      <trkpt lat="45.23827" lon="6.1079">
        <ele>2795</ele>
        <time>2021-02-27T12:12:21Z</time>
      </trkpt>
      <trkpt lat="45.23828" lon="6.10792">
        <ele>2795</ele>
        <time>2021-02-27T12:12:22Z</time>
      </trkpt>
      <trkpt lat="45.23828" lon="6.10792">
        <ele>2795.2</ele>
        <time>2021-02-27T12:12:23Z</time>
      </trkpt>
      <trkpt lat="45.23828" lon="6.10792">
        <ele>2795.4</ele>
        <time>2021-02-27T12:12:24Z</time>
      </trkpt>
      <trkpt lat="45.23828" lon="6.10792">
        <ele>2795.4</ele>
        <time>2021-02-27T12:12:25Z</time>
      </trkpt>
      <trkpt lat="45.23828" lon="6.10792">
        <ele>2795.4</ele>
        <time>2021-02-27T12:12:26Z</time>
      </trkpt>
      <trkpt lat="45.2383" lon="6.10793">
        <ele>2795.4</ele>
        <time>2021-02-27T12:12:27Z</time>
      </trkpt>
      <trkpt lat="45.2383" lon="6.10793">
        <ele>2795</ele>
        <time>2021-02-27T12:12:28Z</time>
      </trkpt>
      <trkpt lat="45.2383" lon="6.10793">
        <ele>2794.2</ele>
        <time>2021-02-27T12:12:29Z</time>
      </trkpt>
      <trkpt lat="45.2383" lon="6.10793">
        <ele>2794</ele>
        <time>2021-02-27T12:12:30Z</time>
      </trkpt>
      <trkpt lat="45.2383" lon="6.10793">
        <ele>2794</ele>
        <time>2021-02-27T12:12:31Z</time>
      </trkpt>
      <trkpt lat="45.2383" lon="6.10793">
        <ele>2794</ele>
        <time>2021-02-27T12:12:32Z</time>
      </trkpt>
      <trkpt lat="45.2383" lon="6.10793">
        <ele>2794.2</ele>
        <time>2021-02-27T12:12:33Z</time>
      </trkpt>
      <trkpt lat="45.2383" lon="6.10793">
        <ele>2794</ele>
        <time>2021-02-27T12:12:34Z</time>
      </trkpt>
      <trkpt lat="45.2383" lon="6.10793">
        <ele>2794</ele>
        <time>2021-02-27T12:12:35Z</time>
      </trkpt>
      <trkpt lat="45.2383" lon="6.10793">
        <ele>2794.2</ele>
        <time>2021-02-27T12:12:36Z</time>
      </trkpt>
      <trkpt lat="45.2383" lon="6.10793">
        <ele>2794.4</ele>
        <time>2021-02-27T12:12:37Z</time>
      </trkpt>
      <trkpt lat="45.2383" lon="6.10793">
        <ele>2794.2</ele>
        <time>2021-02-27T12:12:38Z</time>
      </trkpt>
      <trkpt lat="45.2383" lon="6.10793">
        <ele>2793.8</ele>
        <time>2021-02-27T12:12:39Z</time>
      </trkpt>
      <trkpt lat="45.2383" lon="6.10793">
        <ele>2794.2</ele>
        <time>2021-02-27T12:12:40Z</time>
      </trkpt>
      <trkpt lat="45.2383" lon="6.10793">
        <ele>2794.2</ele>
        <time>2021-02-27T12:12:41Z</time>
      </trkpt>
      <trkpt lat="45.2383" lon="6.10793">
        <ele>2794.4</ele>
        <time>2021-02-27T12:12:42Z</time>
      </trkpt>
      <trkpt lat="45.2383" lon="6.10793">
        <ele>2794.4</ele>
        <time>2021-02-27T12:12:43Z</time>
      </trkpt>
      <trkpt lat="45.2383" lon="6.10793">
        <ele>2794</ele>
        <time>2021-02-27T12:12:44Z</time>
      </trkpt>
      <trkpt lat="45.2383" lon="6.10793">
        <ele>2793.8</ele>
        <time>2021-02-27T12:12:45Z</time>
      </trkpt>
      <trkpt lat="45.2383" lon="6.10793">
        <ele>2793.8</ele>
        <time>2021-02-27T12:12:46Z</time>
      </trkpt>
      <trkpt lat="45.2383" lon="6.10793">
        <ele>2794</ele>
        <time>2021-02-27T12:12:47Z</time>
      </trkpt>
      <trkpt lat="45.2383" lon="6.10793">
        <ele>2793.6</ele>
        <time>2021-02-27T12:12:48Z</time>
      </trkpt>
      <trkpt lat="45.23831" lon="6.10796">
        <ele>2793.2</ele>
        <time>2021-02-27T12:12:49Z</time>
      </trkpt>
      <trkpt lat="45.23831" lon="6.10796">
        <ele>2792.8</ele>
        <time>2021-02-27T12:12:50Z</time>
      </trkpt>
      <trkpt lat="45.23831" lon="6.10796">
        <ele>2792.6</ele>
        <time>2021-02-27T12:12:51Z</time>
      </trkpt>
      <trkpt lat="45.23831" lon="6.10796">
        <ele>2792.6</ele>
        <time>2021-02-27T12:12:52Z</time>
      </trkpt>
      <trkpt lat="45.23831" lon="6.10796">
        <ele>2792.2</ele>
        <time>2021-02-27T12:12:53Z</time>
      </trkpt>
      <trkpt lat="45.23831" lon="6.10796">
        <ele>2792</ele>
        <time>2021-02-27T12:12:54Z</time>
      </trkpt>
      <trkpt lat="45.23831" lon="6.10796">
        <ele>2791.6</ele>
        <time>2021-02-27T12:12:55Z</time>
      </trkpt>
      <trkpt lat="45.23831" lon="6.10796">
        <ele>2791.2</ele>
        <time>2021-02-27T12:12:56Z</time>
      </trkpt>
      <trkpt lat="45.23831" lon="6.10796">
        <ele>2790.6</ele>
        <time>2021-02-27T12:12:57Z</time>
      </trkpt>
      <trkpt lat="45.23831" lon="6.10796">
        <ele>2790.6</ele>
        <time>2021-02-27T12:12:58Z</time>
      </trkpt>
      <trkpt lat="45.23831" lon="6.10796">
        <ele>2790.8</ele>
        <time>2021-02-27T12:12:59Z</time>
      </trkpt>
      <trkpt lat="45.23831" lon="6.10796">
        <ele>2790.6</ele>
        <time>2021-02-27T12:13:00Z</time>
      </trkpt>
      <trkpt lat="45.23831" lon="6.10796">
        <ele>2791</ele>
        <time>2021-02-27T12:13:01Z</time>
      </trkpt>
      <trkpt lat="45.23831" lon="6.10796">
        <ele>2790.8</ele>
        <time>2021-02-27T12:13:02Z</time>
      </trkpt>
      <trkpt lat="45.23831" lon="6.10796">
        <ele>2791</ele>
        <time>2021-02-27T12:13:03Z</time>
      </trkpt>
      <trkpt lat="45.23831" lon="6.10796">
        <ele>2791</ele>
        <time>2021-02-27T12:13:04Z</time>
      </trkpt>
      <trkpt lat="45.23831" lon="6.10796">
        <ele>2791</ele>
        <time>2021-02-27T12:13:05Z</time>
      </trkpt>
      <trkpt lat="45.23831" lon="6.10796">
        <ele>2790.6</ele>
        <time>2021-02-27T12:13:06Z</time>
      </trkpt>
      <trkpt lat="45.23831" lon="6.10796">
        <ele>2790.6</ele>
        <time>2021-02-27T12:13:07Z</time>
      </trkpt>
      <trkpt lat="45.23831" lon="6.10796">
        <ele>2790.8</ele>
        <time>2021-02-27T12:13:08Z</time>
      </trkpt>
      <trkpt lat="45.23831" lon="6.10796">
        <ele>2791.2</ele>
        <time>2021-02-27T12:13:09Z</time>
      </trkpt>
      <trkpt lat="45.23831" lon="6.10796">
        <ele>2790.8</ele>
        <time>2021-02-27T12:13:10Z</time>
      </trkpt>
      <trkpt lat="45.23831" lon="6.10796">
        <ele>2790.4</ele>
        <time>2021-02-27T12:13:11Z</time>
      </trkpt>
      <trkpt lat="45.23831" lon="6.10796">
        <ele>2790.4</ele>
        <time>2021-02-27T12:13:12Z</time>
      </trkpt>
      <trkpt lat="45.23831" lon="6.10796">
        <ele>2790.6</ele>
        <time>2021-02-27T12:13:13Z</time>
      </trkpt>
      <trkpt lat="45.23831" lon="6.10796">
        <ele>2791</ele>
        <time>2021-02-27T12:13:14Z</time>
      </trkpt>
      <trkpt lat="45.23831" lon="6.10796">
        <ele>2791.6</ele>
        <time>2021-02-27T12:13:15Z</time>
      </trkpt>
      <trkpt lat="45.23831" lon="6.10796">
        <ele>2791.8</ele>
        <time>2021-02-27T12:13:16Z</time>
      </trkpt>
      <trkpt lat="45.23831" lon="6.10796">
        <ele>2792</ele>
        <time>2021-02-27T12:13:17Z</time>
      </trkpt>
      <trkpt lat="45.23831" lon="6.10796">
        <ele>2792.2</ele>
        <time>2021-02-27T12:13:18Z</time>
      </trkpt>
      <trkpt lat="45.23831" lon="6.10796">
        <ele>2792.2</ele>
        <time>2021-02-27T12:13:19Z</time>
      </trkpt>
      <trkpt lat="45.23831" lon="6.10796">
        <ele>2792.6</ele>
        <time>2021-02-27T12:13:20Z</time>
      </trkpt>
      <trkpt lat="45.23829" lon="6.10794">
        <ele>2792.4</ele>
        <time>2021-02-27T12:13:21Z</time>
      </trkpt>
      <trkpt lat="45.23829" lon="6.10794">
        <ele>2792.6</ele>
        <time>2021-02-27T12:13:22Z</time>
      </trkpt>
      <trkpt lat="45.23829" lon="6.10794">
        <ele>2792.6</ele>
        <time>2021-02-27T12:13:23Z</time>
      </trkpt>
      <trkpt lat="45.23829" lon="6.10794">
        <ele>2792.2</ele>
        <time>2021-02-27T12:13:24Z</time>
      </trkpt>
      <trkpt lat="45.23829" lon="6.10794">
        <ele>2792.2</ele>
        <time>2021-02-27T12:13:25Z</time>
      </trkpt>
      <trkpt lat="45.23829" lon="6.10794">
        <ele>2791.8</ele>
        <time>2021-02-27T12:13:26Z</time>
      </trkpt>
      <trkpt lat="45.23829" lon="6.10794">
        <ele>2791.8</ele>
        <time>2021-02-27T12:13:27Z</time>
      </trkpt>
      <trkpt lat="45.23829" lon="6.10794">
        <ele>2791.8</ele>
        <time>2021-02-27T12:13:28Z</time>
      </trkpt>
      <trkpt lat="45.23829" lon="6.10794">
        <ele>2792</ele>
        <time>2021-02-27T12:13:29Z</time>
      </trkpt>
      <trkpt lat="45.23829" lon="6.10794">
        <ele>2792.2</ele>
        <time>2021-02-27T12:13:30Z</time>
      </trkpt>
      <trkpt lat="45.23829" lon="6.10794">
        <ele>2792.2</ele>
        <time>2021-02-27T12:13:31Z</time>
      </trkpt>
      <trkpt lat="45.23829" lon="6.10794">
        <ele>2792.2</ele>
        <time>2021-02-27T12:13:32Z</time>
      </trkpt>
      <trkpt lat="45.23829" lon="6.10794">
        <ele>2792</ele>
        <time>2021-02-27T12:13:33Z</time>
      </trkpt>
      <trkpt lat="45.23829" lon="6.10794">
        <ele>2791.6</ele>
        <time>2021-02-27T12:13:34Z</time>
      </trkpt>
      <trkpt lat="45.23829" lon="6.10794">
        <ele>2791.2</ele>
        <time>2021-02-27T12:13:35Z</time>
      </trkpt>
      <trkpt lat="45.23829" lon="6.10794">
        <ele>2791.2</ele>
        <time>2021-02-27T12:13:36Z</time>
      </trkpt>
      <trkpt lat="45.23829" lon="6.10794">
        <ele>2790.8</ele>
        <time>2021-02-27T12:13:37Z</time>
      </trkpt>
      <trkpt lat="45.23829" lon="6.10794">
        <ele>2790.8</ele>
        <time>2021-02-27T12:13:38Z</time>
      </trkpt>
      <trkpt lat="45.23829" lon="6.10794">
        <ele>2790.6</ele>
        <time>2021-02-27T12:13:39Z</time>
      </trkpt>
      <trkpt lat="45.23829" lon="6.10794">
        <ele>2790.4</ele>
        <time>2021-02-27T12:13:40Z</time>
      </trkpt>
      <trkpt lat="45.23829" lon="6.10794">
        <ele>2790.4</ele>
        <time>2021-02-27T12:13:41Z</time>
      </trkpt>
      <trkpt lat="45.23829" lon="6.10794">
        <ele>2790.6</ele>
        <time>2021-02-27T12:13:42Z</time>
      </trkpt>
      <trkpt lat="45.23829" lon="6.10794">
        <ele>2790.8</ele>
        <time>2021-02-27T12:13:43Z</time>
      </trkpt>
      <trkpt lat="45.23829" lon="6.10794">
        <ele>2791</ele>
        <time>2021-02-27T12:13:44Z</time>
      </trkpt>
      <trkpt lat="45.23829" lon="6.10794">
        <ele>2790.8</ele>
        <time>2021-02-27T12:13:45Z</time>
      </trkpt>
      <trkpt lat="45.23829" lon="6.10794">
        <ele>2791.2</ele>
        <time>2021-02-27T12:13:46Z</time>
      </trkpt>
      <trkpt lat="45.23829" lon="6.10794">
        <ele>2791.4</ele>
        <time>2021-02-27T12:13:47Z</time>
      </trkpt>
      <trkpt lat="45.23829" lon="6.10794">
        <ele>2792.2</ele>
        <time>2021-02-27T12:13:48Z</time>
      </trkpt>
      <trkpt lat="45.23829" lon="6.10794">
        <ele>2792.6</ele>
        <time>2021-02-27T12:13:49Z</time>
      </trkpt>
      <trkpt lat="45.23829" lon="6.10798">
        <ele>2792</ele>
        <time>2021-02-27T12:13:50Z</time>
      </trkpt>
      <trkpt lat="45.23829" lon="6.10798">
        <ele>2791.6</ele>
        <time>2021-02-27T12:13:51Z</time>
      </trkpt>
      <trkpt lat="45.23829" lon="6.10798">
        <ele>2791.8</ele>
        <time>2021-02-27T12:13:52Z</time>
      </trkpt>
      <trkpt lat="45.23829" lon="6.10798">
        <ele>2792.2</ele>
        <time>2021-02-27T12:13:53Z</time>
      </trkpt>
      <trkpt lat="45.23829" lon="6.10798">
        <ele>2792</ele>
        <time>2021-02-27T12:13:54Z</time>
      </trkpt>
      <trkpt lat="45.23827" lon="6.10803">
        <ele>2791.8</ele>
        <time>2021-02-27T12:13:55Z</time>
      </trkpt>
      <trkpt lat="45.23825" lon="6.10807">
        <ele>2792</ele>
        <time>2021-02-27T12:13:56Z</time>
      </trkpt>
      <trkpt lat="45.23824" lon="6.1081">
        <ele>2791.6</ele>
        <time>2021-02-27T12:13:57Z</time>
      </trkpt>
      <trkpt lat="45.23824" lon="6.1081">
        <ele>2790.8</ele>
        <time>2021-02-27T12:13:58Z</time>
      </trkpt>
      <trkpt lat="45.23822" lon="6.10812">
        <ele>2790.2</ele>
        <time>2021-02-27T12:13:59Z</time>
      </trkpt>
      <trkpt lat="45.23822" lon="6.10812">
        <ele>2789.6</ele>
        <time>2021-02-27T12:14:00Z</time>
      </trkpt>
      <trkpt lat="45.23822" lon="6.10815">
        <ele>2789</ele>
        <time>2021-02-27T12:14:01Z</time>
      </trkpt>
      <trkpt lat="45.23822" lon="6.10815">
        <ele>2788.6</ele>
        <time>2021-02-27T12:14:02Z</time>
      </trkpt>
      <trkpt lat="45.23819" lon="6.10815">
        <ele>2789.8</ele>
        <time>2021-02-27T12:14:03Z</time>
      </trkpt>
      <trkpt lat="45.23818" lon="6.10812">
        <ele>2788.8</ele>
        <time>2021-02-27T12:14:04Z</time>
      </trkpt>
      <trkpt lat="45.23818" lon="6.10812">
        <ele>2786.6</ele>
        <time>2021-02-27T12:14:05Z</time>
      </trkpt>
      <trkpt lat="45.23817" lon="6.1081">
        <ele>2784.6</ele>
        <time>2021-02-27T12:14:06Z</time>
      </trkpt>
      <trkpt lat="45.23817" lon="6.1081">
        <ele>2783</ele>
        <time>2021-02-27T12:14:07Z</time>
      </trkpt>
      <trkpt lat="45.23815" lon="6.1081">
        <ele>2781.4</ele>
        <time>2021-02-27T12:14:08Z</time>
      </trkpt>
      <trkpt lat="45.23813" lon="6.10812">
        <ele>2781.6</ele>
        <time>2021-02-27T12:14:09Z</time>
      </trkpt>
      <trkpt lat="45.23812" lon="6.10816">
        <ele>2782.4</ele>
        <time>2021-02-27T12:14:10Z</time>
      </trkpt>
      <trkpt lat="45.23811" lon="6.10818">
        <ele>2782.6</ele>
        <time>2021-02-27T12:14:11Z</time>
      </trkpt>
      <trkpt lat="45.23809" lon="6.1082">
        <ele>2781.8</ele>
        <time>2021-02-27T12:14:12Z</time>
      </trkpt>
      <trkpt lat="45.23807" lon="6.10821">
        <ele>2781.6</ele>
        <time>2021-02-27T12:14:13Z</time>
      </trkpt>
      <trkpt lat="45.23805" lon="6.10818">
        <ele>2781</ele>
        <time>2021-02-27T12:14:14Z</time>
      </trkpt>
      <trkpt lat="45.23805" lon="6.10815">
        <ele>2779.2</ele>
        <time>2021-02-27T12:14:15Z</time>
      </trkpt>
      <trkpt lat="45.23805" lon="6.10815">
        <ele>2777.6</ele>
        <time>2021-02-27T12:14:16Z</time>
      </trkpt>
      <trkpt lat="45.23803" lon="6.10817">
        <ele>2776.6</ele>
        <time>2021-02-27T12:14:17Z</time>
      </trkpt>
      <trkpt lat="45.23802" lon="6.10818">
        <ele>2776.2</ele>
        <time>2021-02-27T12:14:18Z</time>
      </trkpt>
      <trkpt lat="45.23801" lon="6.1082">
        <ele>2776</ele>
        <time>2021-02-27T12:14:19Z</time>
      </trkpt>
      <trkpt lat="45.238" lon="6.10822">
        <ele>2775.4</ele>
        <time>2021-02-27T12:14:20Z</time>
      </trkpt>
      <trkpt lat="45.23799" lon="6.10824">
        <ele>2775.4</ele>
        <time>2021-02-27T12:14:21Z</time>
      </trkpt>
      <trkpt lat="45.23798" lon="6.10825">
        <ele>2775.4</ele>
        <time>2021-02-27T12:14:22Z</time>
      </trkpt>
      <trkpt lat="45.23796" lon="6.10824">
        <ele>2776</ele>
        <time>2021-02-27T12:14:23Z</time>
      </trkpt>
      <trkpt lat="45.23795" lon="6.10823">
        <ele>2773.8</ele>
        <time>2021-02-27T12:14:24Z</time>
      </trkpt>
      <trkpt lat="45.23793" lon="6.10821">
        <ele>2771.8</ele>
        <time>2021-02-27T12:14:25Z</time>
      </trkpt>
      <trkpt lat="45.23792" lon="6.1082">
        <ele>2772</ele>
        <time>2021-02-27T12:14:26Z</time>
      </trkpt>
      <trkpt lat="45.23789" lon="6.10823">
        <ele>2771.6</ele>
        <time>2021-02-27T12:14:27Z</time>
      </trkpt>
      <trkpt lat="45.23787" lon="6.10826">
        <ele>2770.6</ele>
        <time>2021-02-27T12:14:28Z</time>
      </trkpt>
      <trkpt lat="45.23784" lon="6.10829">
        <ele>2769.6</ele>
        <time>2021-02-27T12:14:29Z</time>
      </trkpt>
      <trkpt lat="45.23784" lon="6.10829">
        <ele>2768.6</ele>
        <time>2021-02-27T12:14:30Z</time>
      </trkpt>
      <trkpt lat="45.23781" lon="6.10822">
        <ele>2767.4</ele>
        <time>2021-02-27T12:14:31Z</time>
      </trkpt>
      <trkpt lat="45.23781" lon="6.10819">
        <ele>2764.6</ele>
        <time>2021-02-27T12:14:32Z</time>
      </trkpt>
      <trkpt lat="45.23781" lon="6.10819">
        <ele>2762.4</ele>
        <time>2021-02-27T12:14:33Z</time>
      </trkpt>
      <trkpt lat="45.2378" lon="6.10817">
        <ele>2760.4</ele>
        <time>2021-02-27T12:14:34Z</time>
      </trkpt>
      <trkpt lat="45.23779" lon="6.10815">
        <ele>2759.6</ele>
        <time>2021-02-27T12:14:35Z</time>
      </trkpt>
      <trkpt lat="45.23778" lon="6.10812">
        <ele>2758.4</ele>
        <time>2021-02-27T12:14:36Z</time>
      </trkpt>
      <trkpt lat="45.23776" lon="6.1081">
        <ele>2758</ele>
        <time>2021-02-27T12:14:37Z</time>
      </trkpt>
      <trkpt lat="45.23775" lon="6.10813">
        <ele>2758.4</ele>
        <time>2021-02-27T12:14:38Z</time>
      </trkpt>
      <trkpt lat="45.23774" lon="6.10816">
        <ele>2757.8</ele>
        <time>2021-02-27T12:14:39Z</time>
      </trkpt>
      <trkpt lat="45.23772" lon="6.10819">
        <ele>2757</ele>
        <time>2021-02-27T12:14:40Z</time>
      </trkpt>
      <trkpt lat="45.23771" lon="6.10821">
        <ele>2755.6</ele>
        <time>2021-02-27T12:14:41Z</time>
      </trkpt>
      <trkpt lat="45.2377" lon="6.10819">
        <ele>2754.8</ele>
        <time>2021-02-27T12:14:42Z</time>
      </trkpt>
      <trkpt lat="45.23769" lon="6.10816">
        <ele>2753</ele>
        <time>2021-02-27T12:14:43Z</time>
      </trkpt>
      <trkpt lat="45.23768" lon="6.10814">
        <ele>2750.4</ele>
        <time>2021-02-27T12:14:44Z</time>
      </trkpt>
      <trkpt lat="45.23767" lon="6.10811">
        <ele>2748.8</ele>
        <time>2021-02-27T12:14:45Z</time>
      </trkpt>
      <trkpt lat="45.23766" lon="6.10809">
        <ele>2747.2</ele>
        <time>2021-02-27T12:14:46Z</time>
      </trkpt>
      <trkpt lat="45.23765" lon="6.10806">
        <ele>2746</ele>
        <time>2021-02-27T12:14:47Z</time>
      </trkpt>
      <trkpt lat="45.23763" lon="6.10809">
        <ele>2745.2</ele>
        <time>2021-02-27T12:14:48Z</time>
      </trkpt>
      <trkpt lat="45.23761" lon="6.10811">
        <ele>2744.4</ele>
        <time>2021-02-27T12:14:49Z</time>
      </trkpt>
      <trkpt lat="45.2376" lon="6.10814">
        <ele>2744.2</ele>
        <time>2021-02-27T12:14:50Z</time>
      </trkpt>
      <trkpt lat="45.23758" lon="6.10816">
        <ele>2745.2</ele>
        <time>2021-02-27T12:14:51Z</time>
      </trkpt>
      <trkpt lat="45.23756" lon="6.10819">
        <ele>2744</ele>
        <time>2021-02-27T12:14:52Z</time>
      </trkpt>
      <trkpt lat="45.23755" lon="6.10818">
        <ele>2743</ele>
        <time>2021-02-27T12:14:53Z</time>
      </trkpt>
      <trkpt lat="45.23755" lon="6.10817">
        <ele>2742.4</ele>
        <time>2021-02-27T12:14:54Z</time>
      </trkpt>
      <trkpt lat="45.23754" lon="6.10816">
        <ele>2742.6</ele>
        <time>2021-02-27T12:14:55Z</time>
      </trkpt>
      <trkpt lat="45.23753" lon="6.10815">
        <ele>2744.2</ele>
        <time>2021-02-27T12:14:56Z</time>
      </trkpt>
      <trkpt lat="45.23752" lon="6.10814">
        <ele>2741.8</ele>
        <time>2021-02-27T12:14:57Z</time>
      </trkpt>
      <trkpt lat="45.23752" lon="6.10814">
        <ele>2738.8</ele>
        <time>2021-02-27T12:14:58Z</time>
      </trkpt>
      <trkpt lat="45.23751" lon="6.10813">
        <ele>2736.2</ele>
        <time>2021-02-27T12:14:59Z</time>
      </trkpt>
      <trkpt lat="45.2375" lon="6.10812">
        <ele>2734.6</ele>
        <time>2021-02-27T12:15:00Z</time>
      </trkpt>
      <trkpt lat="45.2375" lon="6.10811">
        <ele>2733.4</ele>
        <time>2021-02-27T12:15:01Z</time>
      </trkpt>
      <trkpt lat="45.23749" lon="6.1081">
        <ele>2733</ele>
        <time>2021-02-27T12:15:02Z</time>
      </trkpt>
      <trkpt lat="45.23748" lon="6.10809">
        <ele>2732.6</ele>
        <time>2021-02-27T12:15:03Z</time>
      </trkpt>
      <trkpt lat="45.23747" lon="6.10809">
        <ele>2732.2</ele>
        <time>2021-02-27T12:15:04Z</time>
      </trkpt>
      <trkpt lat="45.23746" lon="6.1081">
        <ele>2731.6</ele>
        <time>2021-02-27T12:15:05Z</time>
      </trkpt>
      <trkpt lat="45.23745" lon="6.1081">
        <ele>2731</ele>
        <time>2021-02-27T12:15:06Z</time>
      </trkpt>
      <trkpt lat="45.23744" lon="6.1081">
        <ele>2730.2</ele>
        <time>2021-02-27T12:15:07Z</time>
      </trkpt>
      <trkpt lat="45.23743" lon="6.1081">
        <ele>2729.6</ele>
        <time>2021-02-27T12:15:08Z</time>
      </trkpt>
      <trkpt lat="45.23742" lon="6.1081">
        <ele>2728.8</ele>
        <time>2021-02-27T12:15:09Z</time>
      </trkpt>
      <trkpt lat="45.23742" lon="6.1081">
        <ele>2728.2</ele>
        <time>2021-02-27T12:15:10Z</time>
      </trkpt>
      <trkpt lat="45.23741" lon="6.1081">
        <ele>2727.4</ele>
        <time>2021-02-27T12:15:11Z</time>
      </trkpt>
      <trkpt lat="45.2374" lon="6.10811">
        <ele>2727.6</ele>
        <time>2021-02-27T12:15:12Z</time>
      </trkpt>
      <trkpt lat="45.23739" lon="6.10811">
        <ele>2727.4</ele>
        <time>2021-02-27T12:15:13Z</time>
      </trkpt>
      <trkpt lat="45.23737" lon="6.10812">
        <ele>2727.2</ele>
        <time>2021-02-27T12:15:14Z</time>
      </trkpt>
      <trkpt lat="45.23736" lon="6.10812">
        <ele>2726.2</ele>
        <time>2021-02-27T12:15:15Z</time>
      </trkpt>
      <trkpt lat="45.23735" lon="6.10813">
        <ele>2725</ele>
        <time>2021-02-27T12:15:16Z</time>
      </trkpt>
      <trkpt lat="45.23733" lon="6.10814">
        <ele>2723.8</ele>
        <time>2021-02-27T12:15:17Z</time>
      </trkpt>
      <trkpt lat="45.23732" lon="6.10815">
        <ele>2722.8</ele>
        <time>2021-02-27T12:15:18Z</time>
      </trkpt>
      <trkpt lat="45.23731" lon="6.10816">
        <ele>2722.2</ele>
        <time>2021-02-27T12:15:19Z</time>
      </trkpt>
      <trkpt lat="45.23729" lon="6.10817">
        <ele>2721.2</ele>
        <time>2021-02-27T12:15:20Z</time>
      </trkpt>
      <trkpt lat="45.23727" lon="6.10811">
        <ele>2718.8</ele>
        <time>2021-02-27T12:15:21Z</time>
      </trkpt>
      <trkpt lat="45.23725" lon="6.10806">
        <ele>2716.4</ele>
        <time>2021-02-27T12:15:22Z</time>
      </trkpt>
      <trkpt lat="45.23722" lon="6.10801">
        <ele>2714.2</ele>
        <time>2021-02-27T12:15:23Z</time>
      </trkpt>
      <trkpt lat="45.2372" lon="6.10805">
        <ele>2712.6</ele>
        <time>2021-02-27T12:15:24Z</time>
      </trkpt>
      <trkpt lat="45.23718" lon="6.10809">
        <ele>2711.4</ele>
        <time>2021-02-27T12:15:25Z</time>
      </trkpt>
      <trkpt lat="45.23716" lon="6.10812">
        <ele>2710.6</ele>
        <time>2021-02-27T12:15:26Z</time>
      </trkpt>
      <trkpt lat="45.23714" lon="6.10816">
        <ele>2709.8</ele>
        <time>2021-02-27T12:15:27Z</time>
      </trkpt>
      <trkpt lat="45.23709" lon="6.10819">
        <ele>2709.8</ele>
        <time>2021-02-27T12:15:28Z</time>
      </trkpt>
      <trkpt lat="45.23704" lon="6.10821">
        <ele>2707.2</ele>
        <time>2021-02-27T12:15:29Z</time>
      </trkpt>
      <trkpt lat="45.23699" lon="6.10823">
        <ele>2705</ele>
        <time>2021-02-27T12:15:30Z</time>
      </trkpt>
      <trkpt lat="45.23693" lon="6.10828">
        <ele>2703.4</ele>
        <time>2021-02-27T12:15:31Z</time>
      </trkpt>
      <trkpt lat="45.2369" lon="6.1083">
        <ele>2700.8</ele>
        <time>2021-02-27T12:15:32Z</time>
      </trkpt>
      <trkpt lat="45.23684" lon="6.10833">
        <ele>2698.8</ele>
        <time>2021-02-27T12:15:33Z</time>
      </trkpt>
      <trkpt lat="45.23679" lon="6.10829">
        <ele>2695.4</ele>
        <time>2021-02-27T12:15:34Z</time>
      </trkpt>
      <trkpt lat="45.23675" lon="6.10823">
        <ele>2691.8</ele>
        <time>2021-02-27T12:15:35Z</time>
      </trkpt>
      <trkpt lat="45.23669" lon="6.10822">
        <ele>2688.8</ele>
        <time>2021-02-27T12:15:36Z</time>
      </trkpt>
      <trkpt lat="45.23665" lon="6.10827">
        <ele>2687.8</ele>
        <time>2021-02-27T12:15:37Z</time>
      </trkpt>
      <trkpt lat="45.23665" lon="6.10827">
        <ele>2686.4</ele>
        <time>2021-02-27T12:15:38Z</time>
      </trkpt>
      <trkpt lat="45.23656" lon="6.10844">
        <ele>2684.2</ele>
        <time>2021-02-27T12:15:39Z</time>
      </trkpt>
      <trkpt lat="45.23654" lon="6.10848">
        <ele>2680.8</ele>
        <time>2021-02-27T12:15:40Z</time>
      </trkpt>
      <trkpt lat="45.23651" lon="6.10858">
        <ele>2679.2</ele>
        <time>2021-02-27T12:15:41Z</time>
      </trkpt>
      <trkpt lat="45.2365" lon="6.10861">
        <ele>2677.8</ele>
        <time>2021-02-27T12:15:42Z</time>
      </trkpt>
      <trkpt lat="45.23649" lon="6.10868">
        <ele>2675.6</ele>
        <time>2021-02-27T12:15:43Z</time>
      </trkpt>
      <trkpt lat="45.23649" lon="6.10868">
        <ele>2673.8</ele>
        <time>2021-02-27T12:15:44Z</time>
      </trkpt>
      <trkpt lat="45.23633" lon="6.10856">
        <ele>2670.2</ele>
        <time>2021-02-27T12:15:45Z</time>
      </trkpt>
      <trkpt lat="45.23631" lon="6.10856">
        <ele>2667</ele>
        <time>2021-02-27T12:15:46Z</time>
      </trkpt>
      <trkpt lat="45.23626" lon="6.10856">
        <ele>2664.6</ele>
        <time>2021-02-27T12:15:47Z</time>
      </trkpt>
      <trkpt lat="45.23626" lon="6.10856">
        <ele>2662.8</ele>
        <time>2021-02-27T12:15:48Z</time>
      </trkpt>
      <trkpt lat="45.23627" lon="6.10855">
        <ele>2662</ele>
        <time>2021-02-27T12:15:49Z</time>
      </trkpt>
      <trkpt lat="45.23628" lon="6.10854">
        <ele>2660.6</ele>
        <time>2021-02-27T12:15:50Z</time>
      </trkpt>
      <trkpt lat="45.23628" lon="6.10853">
        <ele>2659</ele>
        <time>2021-02-27T12:15:51Z</time>
      </trkpt>
      <trkpt lat="45.23629" lon="6.10852">
        <ele>2658.2</ele>
        <time>2021-02-27T12:15:52Z</time>
      </trkpt>
      <trkpt lat="45.2363" lon="6.10851">
        <ele>2657.4</ele>
        <time>2021-02-27T12:15:53Z</time>
      </trkpt>
      <trkpt lat="45.2363" lon="6.1085">
        <ele>2656.6</ele>
        <time>2021-02-27T12:15:54Z</time>
      </trkpt>
      <trkpt lat="45.23631" lon="6.10849">
        <ele>2656.2</ele>
        <time>2021-02-27T12:15:55Z</time>
      </trkpt>
      <trkpt lat="45.23632" lon="6.10848">
        <ele>2655.8</ele>
        <time>2021-02-27T12:15:56Z</time>
      </trkpt>
      <trkpt lat="45.23632" lon="6.10847">
        <ele>2655.6</ele>
        <time>2021-02-27T12:15:57Z</time>
      </trkpt>
      <trkpt lat="45.23633" lon="6.10846">
        <ele>2655.6</ele>
        <time>2021-02-27T12:15:58Z</time>
      </trkpt>
      <trkpt lat="45.23633" lon="6.10846">
        <ele>2655</ele>
        <time>2021-02-27T12:15:59Z</time>
      </trkpt>
      <trkpt lat="45.23634" lon="6.10846">
        <ele>2654.8</ele>
        <time>2021-02-27T12:16:00Z</time>
      </trkpt>
      <trkpt lat="45.23634" lon="6.10846">
        <ele>2654.6</ele>
        <time>2021-02-27T12:16:01Z</time>
      </trkpt>
      <trkpt lat="45.23635" lon="6.10845">
        <ele>2654.6</ele>
        <time>2021-02-27T12:16:02Z</time>
      </trkpt>
      <trkpt lat="45.23635" lon="6.10845">
        <ele>2654.6</ele>
        <time>2021-02-27T12:16:03Z</time>
      </trkpt>
      <trkpt lat="45.23635" lon="6.10845">
        <ele>2654.6</ele>
        <time>2021-02-27T12:16:04Z</time>
      </trkpt>
      <trkpt lat="45.23636" lon="6.10845">
        <ele>2654.6</ele>
        <time>2021-02-27T12:16:05Z</time>
      </trkpt>
      <trkpt lat="45.23636" lon="6.10845">
        <ele>2654.6</ele>
        <time>2021-02-27T12:16:06Z</time>
      </trkpt>
      <trkpt lat="45.23636" lon="6.10845">
        <ele>2654.8</ele>
        <time>2021-02-27T12:16:07Z</time>
      </trkpt>
      <trkpt lat="45.23637" lon="6.10844">
        <ele>2654.8</ele>
        <time>2021-02-27T12:16:08Z</time>
      </trkpt>
      <trkpt lat="45.23637" lon="6.10844">
        <ele>2654.8</ele>
        <time>2021-02-27T12:16:09Z</time>
      </trkpt>
      <trkpt lat="45.23637" lon="6.10844">
        <ele>2655</ele>
        <time>2021-02-27T12:16:10Z</time>
      </trkpt>
      <trkpt lat="45.23638" lon="6.10844">
        <ele>2654.8</ele>
        <time>2021-02-27T12:16:11Z</time>
      </trkpt>
      <trkpt lat="45.23638" lon="6.10844">
        <ele>2654.8</ele>
        <time>2021-02-27T12:16:12Z</time>
      </trkpt>
      <trkpt lat="45.23638" lon="6.10844">
        <ele>2655.4</ele>
        <time>2021-02-27T12:16:13Z</time>
      </trkpt>
      <trkpt lat="45.23639" lon="6.10844">
        <ele>2655.4</ele>
        <time>2021-02-27T12:16:14Z</time>
      </trkpt>
      <trkpt lat="45.23639" lon="6.10843">
        <ele>2655.4</ele>
        <time>2021-02-27T12:16:15Z</time>
      </trkpt>
      <trkpt lat="45.23639" lon="6.10843">
        <ele>2655</ele>
        <time>2021-02-27T12:16:16Z</time>
      </trkpt>
      <trkpt lat="45.23639" lon="6.10843">
        <ele>2654.8</ele>
        <time>2021-02-27T12:16:17Z</time>
      </trkpt>
      <trkpt lat="45.23639" lon="6.10843">
        <ele>2654.6</ele>
        <time>2021-02-27T12:16:18Z</time>
      </trkpt>
      <trkpt lat="45.23641" lon="6.10841">
        <ele>2654.6</ele>
        <time>2021-02-27T12:16:19Z</time>
      </trkpt>
      <trkpt lat="45.23641" lon="6.10841">
        <ele>2654.6</ele>
        <time>2021-02-27T12:16:20Z</time>
      </trkpt>
      <trkpt lat="45.23641" lon="6.10841">
        <ele>2654.4</ele>
        <time>2021-02-27T12:16:21Z</time>
      </trkpt>
      <trkpt lat="45.23641" lon="6.10841">
        <ele>2654.6</ele>
        <time>2021-02-27T12:16:22Z</time>
      </trkpt>
      <trkpt lat="45.23642" lon="6.10838">
        <ele>2655</ele>
        <time>2021-02-27T12:16:23Z</time>
      </trkpt>
      <trkpt lat="45.23642" lon="6.10838">
        <ele>2655.2</ele>
        <time>2021-02-27T12:16:24Z</time>
      </trkpt>
      <trkpt lat="45.23642" lon="6.10838">
        <ele>2655.2</ele>
        <time>2021-02-27T12:16:25Z</time>
      </trkpt>
      <trkpt lat="45.23641" lon="6.10838">
        <ele>2655</ele>
        <time>2021-02-27T12:16:26Z</time>
      </trkpt>
      <trkpt lat="45.23641" lon="6.10838">
        <ele>2654.8</ele>
        <time>2021-02-27T12:16:27Z</time>
      </trkpt>
      <trkpt lat="45.23641" lon="6.10838">
        <ele>2655</ele>
        <time>2021-02-27T12:16:28Z</time>
      </trkpt>
      <trkpt lat="45.23641" lon="6.10837">
        <ele>2654.8</ele>
        <time>2021-02-27T12:16:29Z</time>
      </trkpt>
      <trkpt lat="45.23641" lon="6.10837">
        <ele>2654.6</ele>
        <time>2021-02-27T12:16:30Z</time>
      </trkpt>
      <trkpt lat="45.23641" lon="6.10837">
        <ele>2654.4</ele>
        <time>2021-02-27T12:16:31Z</time>
      </trkpt>
      <trkpt lat="45.23641" lon="6.10837">
        <ele>2654.8</ele>
        <time>2021-02-27T12:16:32Z</time>
      </trkpt>
      <trkpt lat="45.23641" lon="6.10837">
        <ele>2655</ele>
        <time>2021-02-27T12:16:33Z</time>
      </trkpt>
      <trkpt lat="45.2364" lon="6.10837">
        <ele>2655.2</ele>
        <time>2021-02-27T12:16:34Z</time>
      </trkpt>
      <trkpt lat="45.2364" lon="6.10837">
        <ele>2654.8</ele>
        <time>2021-02-27T12:16:35Z</time>
      </trkpt>
      <trkpt lat="45.2364" lon="6.10837">
        <ele>2654.4</ele>
        <time>2021-02-27T12:16:36Z</time>
      </trkpt>
      <trkpt lat="45.2364" lon="6.10837">
        <ele>2654.2</ele>
        <time>2021-02-27T12:16:37Z</time>
      </trkpt>
      <trkpt lat="45.2364" lon="6.10836">
        <ele>2654</ele>
        <time>2021-02-27T12:16:38Z</time>
      </trkpt>
      <trkpt lat="45.2364" lon="6.10836">
        <ele>2653.6</ele>
        <time>2021-02-27T12:16:39Z</time>
      </trkpt>
      <trkpt lat="45.2364" lon="6.10836">
        <ele>2653.6</ele>
        <time>2021-02-27T12:16:40Z</time>
      </trkpt>
      <trkpt lat="45.2364" lon="6.10836">
        <ele>2653.6</ele>
        <time>2021-02-27T12:16:41Z</time>
      </trkpt>
      <trkpt lat="45.23639" lon="6.10836">
        <ele>2653.8</ele>
        <time>2021-02-27T12:16:42Z</time>
      </trkpt>
      <trkpt lat="45.23639" lon="6.10836">
        <ele>2653.8</ele>
        <time>2021-02-27T12:16:43Z</time>
      </trkpt>
      <trkpt lat="45.23639" lon="6.10836">
        <ele>2654.2</ele>
        <time>2021-02-27T12:16:44Z</time>
      </trkpt>
      <trkpt lat="45.23639" lon="6.10836">
        <ele>2654</ele>
        <time>2021-02-27T12:16:45Z</time>
      </trkpt>
      <trkpt lat="45.23639" lon="6.10836">
        <ele>2654</ele>
        <time>2021-02-27T12:16:46Z</time>
      </trkpt>
      <trkpt lat="45.23639" lon="6.10835">
        <ele>2654.4</ele>
        <time>2021-02-27T12:16:47Z</time>
      </trkpt>
      <trkpt lat="45.23639" lon="6.10835">
        <ele>2654.6</ele>
        <time>2021-02-27T12:16:48Z</time>
      </trkpt>
      <trkpt lat="45.23639" lon="6.10835">
        <ele>2654.4</ele>
        <time>2021-02-27T12:16:49Z</time>
      </trkpt>
      <trkpt lat="45.23639" lon="6.10835">
        <ele>2654.6</ele>
        <time>2021-02-27T12:16:50Z</time>
      </trkpt>
      <trkpt lat="45.23638" lon="6.10835">
        <ele>2654.6</ele>
        <time>2021-02-27T12:16:51Z</time>
      </trkpt>
      <trkpt lat="45.23638" lon="6.10835">
        <ele>2654.8</ele>
        <time>2021-02-27T12:16:52Z</time>
      </trkpt>
      <trkpt lat="45.23638" lon="6.10835">
        <ele>2654.6</ele>
        <time>2021-02-27T12:16:53Z</time>
      </trkpt>
      <trkpt lat="45.23638" lon="6.10835">
        <ele>2654.6</ele>
        <time>2021-02-27T12:16:54Z</time>
      </trkpt>
      <trkpt lat="45.23638" lon="6.10835">
        <ele>2654.6</ele>
        <time>2021-02-27T12:16:55Z</time>
      </trkpt>
      <trkpt lat="45.23638" lon="6.10834">
        <ele>2654.6</ele>
        <time>2021-02-27T12:16:56Z</time>
      </trkpt>
      <trkpt lat="45.23638" lon="6.10834">
        <ele>2654.8</ele>
        <time>2021-02-27T12:16:57Z</time>
      </trkpt>
      <trkpt lat="45.23638" lon="6.10834">
        <ele>2654.4</ele>
        <time>2021-02-27T12:16:58Z</time>
      </trkpt>
      <trkpt lat="45.23637" lon="6.10834">
        <ele>2654.4</ele>
        <time>2021-02-27T12:16:59Z</time>
      </trkpt>
      <trkpt lat="45.23637" lon="6.10834">
        <ele>2654.6</ele>
        <time>2021-02-27T12:17:00Z</time>
      </trkpt>
      <trkpt lat="45.23637" lon="6.10834">
        <ele>2654.4</ele>
        <time>2021-02-27T12:17:01Z</time>
      </trkpt>
      <trkpt lat="45.23637" lon="6.10834">
        <ele>2654</ele>
        <time>2021-02-27T12:17:02Z</time>
      </trkpt>
      <trkpt lat="45.23637" lon="6.10834">
        <ele>2654</ele>
        <time>2021-02-27T12:17:03Z</time>
      </trkpt>
      <trkpt lat="45.23637" lon="6.10834">
        <ele>2653.6</ele>
        <time>2021-02-27T12:17:04Z</time>
      </trkpt>
      <trkpt lat="45.23637" lon="6.10833">
        <ele>2653.6</ele>
        <time>2021-02-27T12:17:05Z</time>
      </trkpt>
      <trkpt lat="45.23637" lon="6.10833">
        <ele>2653.4</ele>
        <time>2021-02-27T12:17:06Z</time>
      </trkpt>
      <trkpt lat="45.23636" lon="6.10833">
        <ele>2653.2</ele>
        <time>2021-02-27T12:17:07Z</time>
      </trkpt>
      <trkpt lat="45.23636" lon="6.10833">
        <ele>2653</ele>
        <time>2021-02-27T12:17:08Z</time>
      </trkpt>
      <trkpt lat="45.23636" lon="6.10833">
        <ele>2652.6</ele>
        <time>2021-02-27T12:17:09Z</time>
      </trkpt>
      <trkpt lat="45.23636" lon="6.10833">
        <ele>2652.6</ele>
        <time>2021-02-27T12:17:10Z</time>
      </trkpt>
      <trkpt lat="45.23636" lon="6.10833">
        <ele>2652.4</ele>
        <time>2021-02-27T12:17:11Z</time>
      </trkpt>
      <trkpt lat="45.23636" lon="6.10833">
        <ele>2652.6</ele>
        <time>2021-02-27T12:17:12Z</time>
      </trkpt>
      <trkpt lat="45.23636" lon="6.10833">
        <ele>2652.6</ele>
        <time>2021-02-27T12:17:13Z</time>
      </trkpt>
      <trkpt lat="45.23636" lon="6.10832">
        <ele>2652.6</ele>
        <time>2021-02-27T12:17:14Z</time>
      </trkpt>
      <trkpt lat="45.23636" lon="6.10832">
        <ele>2652.4</ele>
        <time>2021-02-27T12:17:15Z</time>
      </trkpt>
      <trkpt lat="45.23635" lon="6.10832">
        <ele>2652.4</ele>
        <time>2021-02-27T12:17:16Z</time>
      </trkpt>
      <trkpt lat="45.23635" lon="6.10832">
        <ele>2652.2</ele>
        <time>2021-02-27T12:17:17Z</time>
      </trkpt>
      <trkpt lat="45.23635" lon="6.10832">
        <ele>2651.8</ele>
        <time>2021-02-27T12:17:18Z</time>
      </trkpt>
      <trkpt lat="45.23635" lon="6.10832">
        <ele>2651.6</ele>
        <time>2021-02-27T12:17:19Z</time>
      </trkpt>
      <trkpt lat="45.23635" lon="6.10832">
        <ele>2651.4</ele>
        <time>2021-02-27T12:17:20Z</time>
      </trkpt>
      <trkpt lat="45.23635" lon="6.10832">
        <ele>2651</ele>
        <time>2021-02-27T12:17:21Z</time>
      </trkpt>
      <trkpt lat="45.23635" lon="6.10832">
        <ele>2650.6</ele>
        <time>2021-02-27T12:17:22Z</time>
      </trkpt>
      <trkpt lat="45.23635" lon="6.10831">
        <ele>2650.4</ele>
        <time>2021-02-27T12:17:23Z</time>
      </trkpt>
      <trkpt lat="45.23634" lon="6.10831">
        <ele>2650</ele>
        <time>2021-02-27T12:17:24Z</time>
      </trkpt>
      <trkpt lat="45.23634" lon="6.10831">
        <ele>2650.2</ele>
        <time>2021-02-27T12:17:25Z</time>
      </trkpt>
      <trkpt lat="45.23634" lon="6.10831">
        <ele>2650.4</ele>
        <time>2021-02-27T12:17:26Z</time>
      </trkpt>
      <trkpt lat="45.23634" lon="6.10831">
        <ele>2650.4</ele>
        <time>2021-02-27T12:17:27Z</time>
      </trkpt>
      <trkpt lat="45.23634" lon="6.10831">
        <ele>2650.2</ele>
        <time>2021-02-27T12:17:28Z</time>
      </trkpt>
      <trkpt lat="45.23634" lon="6.10831">
        <ele>2650.2</ele>
        <time>2021-02-27T12:17:29Z</time>
      </trkpt>
      <trkpt lat="45.23634" lon="6.10831">
        <ele>2650.6</ele>
        <time>2021-02-27T12:17:30Z</time>
      </trkpt>
      <trkpt lat="45.23634" lon="6.10831">
        <ele>2650.4</ele>
        <time>2021-02-27T12:17:31Z</time>
      </trkpt>
      <trkpt lat="45.23634" lon="6.1083">
        <ele>2650.2</ele>
        <time>2021-02-27T12:17:32Z</time>
      </trkpt>
      <trkpt lat="45.23633" lon="6.1083">
        <ele>2650.4</ele>
        <time>2021-02-27T12:17:33Z</time>
      </trkpt>
      <trkpt lat="45.23633" lon="6.1083">
        <ele>2650.2</ele>
        <time>2021-02-27T12:17:34Z</time>
      </trkpt>
      <trkpt lat="45.23633" lon="6.1083">
        <ele>2650</ele>
        <time>2021-02-27T12:17:35Z</time>
      </trkpt>
      <trkpt lat="45.23633" lon="6.1083">
        <ele>2650</ele>
        <time>2021-02-27T12:17:36Z</time>
      </trkpt>
      <trkpt lat="45.23633" lon="6.1083">
        <ele>2650.2</ele>
        <time>2021-02-27T12:17:37Z</time>
      </trkpt>
      <trkpt lat="45.23633" lon="6.1083">
        <ele>2650</ele>
        <time>2021-02-27T12:17:38Z</time>
      </trkpt>
      <trkpt lat="45.23633" lon="6.1083">
        <ele>2650.2</ele>
        <time>2021-02-27T12:17:39Z</time>
      </trkpt>
      <trkpt lat="45.23633" lon="6.1083">
        <ele>2650.2</ele>
        <time>2021-02-27T12:17:40Z</time>
      </trkpt>
      <trkpt lat="45.23632" lon="6.10829">
        <ele>2650.4</ele>
        <time>2021-02-27T12:17:41Z</time>
      </trkpt>
      <trkpt lat="45.23632" lon="6.10829">
        <ele>2650.2</ele>
        <time>2021-02-27T12:17:42Z</time>
      </trkpt>
      <trkpt lat="45.23632" lon="6.10829">
        <ele>2650.4</ele>
        <time>2021-02-27T12:17:43Z</time>
      </trkpt>
      <trkpt lat="45.23632" lon="6.10829">
        <ele>2650.2</ele>
        <time>2021-02-27T12:17:44Z</time>
      </trkpt>
      <trkpt lat="45.23632" lon="6.10829">
        <ele>2650.2</ele>
        <time>2021-02-27T12:17:45Z</time>
      </trkpt>
      <trkpt lat="45.23632" lon="6.10829">
        <ele>2650</ele>
        <time>2021-02-27T12:17:46Z</time>
      </trkpt>
      <trkpt lat="45.23632" lon="6.10829">
        <ele>2650.2</ele>
        <time>2021-02-27T12:17:47Z</time>
      </trkpt>
      <trkpt lat="45.23632" lon="6.10829">
        <ele>2650.2</ele>
        <time>2021-02-27T12:17:48Z</time>
      </trkpt>
      <trkpt lat="45.23631" lon="6.10829">
        <ele>2650.2</ele>
        <time>2021-02-27T12:17:49Z</time>
      </trkpt>
      <trkpt lat="45.23631" lon="6.10828">
        <ele>2649.8</ele>
        <time>2021-02-27T12:17:50Z</time>
      </trkpt>
      <trkpt lat="45.23631" lon="6.10828">
        <ele>2649.6</ele>
        <time>2021-02-27T12:17:51Z</time>
      </trkpt>
      <trkpt lat="45.23631" lon="6.10828">
        <ele>2649.4</ele>
        <time>2021-02-27T12:17:52Z</time>
      </trkpt>
      <trkpt lat="45.23631" lon="6.10828">
        <ele>2649.2</ele>
        <time>2021-02-27T12:17:53Z</time>
      </trkpt>
      <trkpt lat="45.23631" lon="6.10828">
        <ele>2649.2</ele>
        <time>2021-02-27T12:17:54Z</time>
      </trkpt>
      <trkpt lat="45.23631" lon="6.10828">
        <ele>2649.4</ele>
        <time>2021-02-27T12:17:55Z</time>
      </trkpt>
      <trkpt lat="45.23631" lon="6.10828">
        <ele>2649.4</ele>
        <time>2021-02-27T12:17:56Z</time>
      </trkpt>
      <trkpt lat="45.23631" lon="6.10828">
        <ele>2649.2</ele>
        <time>2021-02-27T12:17:57Z</time>
      </trkpt>
      <trkpt lat="45.2363" lon="6.10827">
        <ele>2649</ele>
        <time>2021-02-27T12:17:58Z</time>
      </trkpt>
      <trkpt lat="45.2363" lon="6.10827">
        <ele>2649</ele>
        <time>2021-02-27T12:17:59Z</time>
      </trkpt>
      <trkpt lat="45.2363" lon="6.10827">
        <ele>2648.8</ele>
        <time>2021-02-27T12:18:00Z</time>
      </trkpt>
      <trkpt lat="45.2363" lon="6.10827">
        <ele>2648.8</ele>
        <time>2021-02-27T12:18:01Z</time>
      </trkpt>
      <trkpt lat="45.2363" lon="6.10827">
        <ele>2648.8</ele>
        <time>2021-02-27T12:18:02Z</time>
      </trkpt>
      <trkpt lat="45.2363" lon="6.10827">
        <ele>2649</ele>
        <time>2021-02-27T12:18:03Z</time>
      </trkpt>
      <trkpt lat="45.2363" lon="6.10827">
        <ele>2649</ele>
        <time>2021-02-27T12:18:04Z</time>
      </trkpt>
      <trkpt lat="45.2363" lon="6.10827">
        <ele>2649</ele>
        <time>2021-02-27T12:18:05Z</time>
      </trkpt>
      <trkpt lat="45.23629" lon="6.10827">
        <ele>2649</ele>
        <time>2021-02-27T12:18:06Z</time>
      </trkpt>
      <trkpt lat="45.23629" lon="6.10826">
        <ele>2649</ele>
        <time>2021-02-27T12:18:07Z</time>
      </trkpt>
      <trkpt lat="45.23629" lon="6.10826">
        <ele>2649</ele>
        <time>2021-02-27T12:18:08Z</time>
      </trkpt>
      <trkpt lat="45.23629" lon="6.10826">
        <ele>2648.8</ele>
        <time>2021-02-27T12:18:09Z</time>
      </trkpt>
      <trkpt lat="45.23629" lon="6.10826">
        <ele>2649.4</ele>
        <time>2021-02-27T12:18:10Z</time>
      </trkpt>
      <trkpt lat="45.23629" lon="6.10826">
        <ele>2649.2</ele>
        <time>2021-02-27T12:18:11Z</time>
      </trkpt>
      <trkpt lat="45.23629" lon="6.10826">
        <ele>2649.2</ele>
        <time>2021-02-27T12:18:12Z</time>
      </trkpt>
      <trkpt lat="45.23629" lon="6.10826">
        <ele>2649.2</ele>
        <time>2021-02-27T12:18:13Z</time>
      </trkpt>
      <trkpt lat="45.2363" lon="6.10826">
        <ele>2649.2</ele>
        <time>2021-02-27T12:18:14Z</time>
      </trkpt>
      <trkpt lat="45.2363" lon="6.10826">
        <ele>2649</ele>
        <time>2021-02-27T12:18:15Z</time>
      </trkpt>
      <trkpt lat="45.2363" lon="6.10826">
        <ele>2649.2</ele>
        <time>2021-02-27T12:18:16Z</time>
      </trkpt>
      <trkpt lat="45.2363" lon="6.10826">
        <ele>2649</ele>
        <time>2021-02-27T12:18:17Z</time>
      </trkpt>
      <trkpt lat="45.2363" lon="6.10826">
        <ele>2649</ele>
        <time>2021-02-27T12:18:18Z</time>
      </trkpt>
      <trkpt lat="45.2363" lon="6.10826">
        <ele>2648.8</ele>
        <time>2021-02-27T12:18:19Z</time>
      </trkpt>
      <trkpt lat="45.2363" lon="6.10826">
        <ele>2648.8</ele>
        <time>2021-02-27T12:18:20Z</time>
      </trkpt>
      <trkpt lat="45.23631" lon="6.10826">
        <ele>2649</ele>
        <time>2021-02-27T12:18:21Z</time>
      </trkpt>
      <trkpt lat="45.23631" lon="6.10826">
        <ele>2649.2</ele>
        <time>2021-02-27T12:18:22Z</time>
      </trkpt>
      <trkpt lat="45.23631" lon="6.10826">
        <ele>2649</ele>
        <time>2021-02-27T12:18:23Z</time>
      </trkpt>
      <trkpt lat="45.23631" lon="6.10827">
        <ele>2648.6</ele>
        <time>2021-02-27T12:18:24Z</time>
      </trkpt>
      <trkpt lat="45.23631" lon="6.10827">
        <ele>2648.6</ele>
        <time>2021-02-27T12:18:25Z</time>
      </trkpt>
      <trkpt lat="45.23631" lon="6.10827">
        <ele>2648.6</ele>
        <time>2021-02-27T12:18:26Z</time>
      </trkpt>
      <trkpt lat="45.23632" lon="6.10827">
        <ele>2648.8</ele>
        <time>2021-02-27T12:18:27Z</time>
      </trkpt>
      <trkpt lat="45.23632" lon="6.10827">
        <ele>2649</ele>
        <time>2021-02-27T12:18:28Z</time>
      </trkpt>
      <trkpt lat="45.23632" lon="6.10827">
        <ele>2649.2</ele>
        <time>2021-02-27T12:18:29Z</time>
      </trkpt>
      <trkpt lat="45.23632" lon="6.10827">
        <ele>2649.2</ele>
        <time>2021-02-27T12:18:30Z</time>
      </trkpt>
      <trkpt lat="45.23632" lon="6.10827">
        <ele>2649.4</ele>
        <time>2021-02-27T12:18:31Z</time>
      </trkpt>
      <trkpt lat="45.23632" lon="6.10827">
        <ele>2649.6</ele>
        <time>2021-02-27T12:18:32Z</time>
      </trkpt>
      <trkpt lat="45.23632" lon="6.10827">
        <ele>2649.6</ele>
        <time>2021-02-27T12:18:33Z</time>
      </trkpt>
      <trkpt lat="45.23633" lon="6.10827">
        <ele>2649.6</ele>
        <time>2021-02-27T12:18:34Z</time>
      </trkpt>
      <trkpt lat="45.23633" lon="6.10827">
        <ele>2649.8</ele>
        <time>2021-02-27T12:18:35Z</time>
      </trkpt>
      <trkpt lat="45.23633" lon="6.10827">
        <ele>2649.8</ele>
        <time>2021-02-27T12:18:36Z</time>
      </trkpt>
      <trkpt lat="45.23633" lon="6.10827">
        <ele>2649.8</ele>
        <time>2021-02-27T12:18:37Z</time>
      </trkpt>
      <trkpt lat="45.23633" lon="6.10827">
        <ele>2650</ele>
        <time>2021-02-27T12:18:38Z</time>
      </trkpt>
      <trkpt lat="45.23633" lon="6.10827">
        <ele>2650</ele>
        <time>2021-02-27T12:18:39Z</time>
      </trkpt>
      <trkpt lat="45.23634" lon="6.10827">
        <ele>2650.2</ele>
        <time>2021-02-27T12:18:40Z</time>
      </trkpt>
      <trkpt lat="45.23634" lon="6.10827">
        <ele>2650.4</ele>
        <time>2021-02-27T12:18:41Z</time>
      </trkpt>
      <trkpt lat="45.23634" lon="6.10827">
        <ele>2650.2</ele>
        <time>2021-02-27T12:18:42Z</time>
      </trkpt>
      <trkpt lat="45.23634" lon="6.10827">
        <ele>2650.4</ele>
        <time>2021-02-27T12:18:43Z</time>
      </trkpt>
      <trkpt lat="45.23634" lon="6.10827">
        <ele>2650.4</ele>
        <time>2021-02-27T12:18:44Z</time>
      </trkpt>
      <trkpt lat="45.23634" lon="6.10827">
        <ele>2650.2</ele>
        <time>2021-02-27T12:18:45Z</time>
      </trkpt>
      <trkpt lat="45.23634" lon="6.10827">
        <ele>2650.2</ele>
        <time>2021-02-27T12:18:46Z</time>
      </trkpt>
      <trkpt lat="45.23635" lon="6.10827">
        <ele>2650.4</ele>
        <time>2021-02-27T12:18:47Z</time>
      </trkpt>
      <trkpt lat="45.23635" lon="6.10827">
        <ele>2650.4</ele>
        <time>2021-02-27T12:18:48Z</time>
      </trkpt>
      <trkpt lat="45.23635" lon="6.10827">
        <ele>2650.2</ele>
        <time>2021-02-27T12:18:49Z</time>
      </trkpt>
      <trkpt lat="45.23635" lon="6.10827">
        <ele>2650.2</ele>
        <time>2021-02-27T12:18:50Z</time>
      </trkpt>
      <trkpt lat="45.23635" lon="6.10827">
        <ele>2650.2</ele>
        <time>2021-02-27T12:18:51Z</time>
      </trkpt>
      <trkpt lat="45.23635" lon="6.10827">
        <ele>2650.2</ele>
        <time>2021-02-27T12:18:52Z</time>
      </trkpt>
      <trkpt lat="45.23635" lon="6.10827">
        <ele>2650.2</ele>
        <time>2021-02-27T12:18:53Z</time>
      </trkpt>
      <trkpt lat="45.23636" lon="6.10827">
        <ele>2650.2</ele>
        <time>2021-02-27T12:18:54Z</time>
      </trkpt>
      <trkpt lat="45.23636" lon="6.10827">
        <ele>2650.2</ele>
        <time>2021-02-27T12:18:55Z</time>
      </trkpt>
      <trkpt lat="45.23636" lon="6.10827">
        <ele>2650.2</ele>
        <time>2021-02-27T12:18:56Z</time>
      </trkpt>
      <trkpt lat="45.23636" lon="6.10827">
        <ele>2650.2</ele>
        <time>2021-02-27T12:18:57Z</time>
      </trkpt>
      <trkpt lat="45.23636" lon="6.10827">
        <ele>2650.2</ele>
        <time>2021-02-27T12:18:58Z</time>
      </trkpt>
      <trkpt lat="45.23636" lon="6.10827">
        <ele>2650.4</ele>
        <time>2021-02-27T12:18:59Z</time>
      </trkpt>
      <trkpt lat="45.23637" lon="6.10827">
        <ele>2650.4</ele>
        <time>2021-02-27T12:19:00Z</time>
      </trkpt>
      <trkpt lat="45.23637" lon="6.10827">
        <ele>2650.4</ele>
        <time>2021-02-27T12:19:01Z</time>
      </trkpt>
      <trkpt lat="45.23637" lon="6.10828">
        <ele>2650.4</ele>
        <time>2021-02-27T12:19:02Z</time>
      </trkpt>
      <trkpt lat="45.23637" lon="6.10828">
        <ele>2650.4</ele>
        <time>2021-02-27T12:19:03Z</time>
      </trkpt>
      <trkpt lat="45.23637" lon="6.10828">
        <ele>2650.4</ele>
        <time>2021-02-27T12:19:04Z</time>
      </trkpt>
      <trkpt lat="45.23637" lon="6.10828">
        <ele>2650.4</ele>
        <time>2021-02-27T12:19:05Z</time>
      </trkpt>
      <trkpt lat="45.23637" lon="6.10828">
        <ele>2650.4</ele>
        <time>2021-02-27T12:19:06Z</time>
      </trkpt>
      <trkpt lat="45.23638" lon="6.10828">
        <ele>2650.4</ele>
        <time>2021-02-27T12:19:07Z</time>
      </trkpt>
      <trkpt lat="45.23638" lon="6.10828">
        <ele>2650.8</ele>
        <time>2021-02-27T12:19:08Z</time>
      </trkpt>
      <trkpt lat="45.23638" lon="6.10828">
        <ele>2650.8</ele>
        <time>2021-02-27T12:19:09Z</time>
      </trkpt>
      <trkpt lat="45.23638" lon="6.10828">
        <ele>2650.8</ele>
        <time>2021-02-27T12:19:10Z</time>
      </trkpt>
      <trkpt lat="45.23638" lon="6.10828">
        <ele>2650.8</ele>
        <time>2021-02-27T12:19:11Z</time>
      </trkpt>
      <trkpt lat="45.23638" lon="6.10828">
        <ele>2651</ele>
        <time>2021-02-27T12:19:12Z</time>
      </trkpt>
      <trkpt lat="45.23639" lon="6.10828">
        <ele>2650.8</ele>
        <time>2021-02-27T12:19:13Z</time>
      </trkpt>
      <trkpt lat="45.23639" lon="6.10828">
        <ele>2650.8</ele>
        <time>2021-02-27T12:19:14Z</time>
      </trkpt>
      <trkpt lat="45.23639" lon="6.10828">
        <ele>2650.8</ele>
        <time>2021-02-27T12:19:15Z</time>
      </trkpt>
      <trkpt lat="45.23639" lon="6.10828">
        <ele>2650.8</ele>
        <time>2021-02-27T12:19:16Z</time>
      </trkpt>
      <trkpt lat="45.23639" lon="6.10828">
        <ele>2650.8</ele>
        <time>2021-02-27T12:19:17Z</time>
      </trkpt>
      <trkpt lat="45.23639" lon="6.10828">
        <ele>2651</ele>
        <time>2021-02-27T12:19:18Z</time>
      </trkpt>
      <trkpt lat="45.23639" lon="6.10828">
        <ele>2651</ele>
        <time>2021-02-27T12:19:19Z</time>
      </trkpt>
      <trkpt lat="45.2364" lon="6.10828">
        <ele>2651.2</ele>
        <time>2021-02-27T12:19:20Z</time>
      </trkpt>
      <trkpt lat="45.2364" lon="6.10828">
        <ele>2650.8</ele>
        <time>2021-02-27T12:19:21Z</time>
      </trkpt>
      <trkpt lat="45.2364" lon="6.10828">
        <ele>2651</ele>
        <time>2021-02-27T12:19:22Z</time>
      </trkpt>
      <trkpt lat="45.2364" lon="6.10828">
        <ele>2650.8</ele>
        <time>2021-02-27T12:19:23Z</time>
      </trkpt>
      <trkpt lat="45.2364" lon="6.10828">
        <ele>2651</ele>
        <time>2021-02-27T12:19:24Z</time>
      </trkpt>
      <trkpt lat="45.2364" lon="6.10828">
        <ele>2651</ele>
        <time>2021-02-27T12:19:25Z</time>
      </trkpt>
      <trkpt lat="45.23641" lon="6.10828">
        <ele>2650.8</ele>
        <time>2021-02-27T12:19:26Z</time>
      </trkpt>
      <trkpt lat="45.23641" lon="6.10828">
        <ele>2650.8</ele>
        <time>2021-02-27T12:19:27Z</time>
      </trkpt>
      <trkpt lat="45.23641" lon="6.10828">
        <ele>2651</ele>
        <time>2021-02-27T12:19:28Z</time>
      </trkpt>
      <trkpt lat="45.23641" lon="6.10828">
        <ele>2651</ele>
        <time>2021-02-27T12:19:29Z</time>
      </trkpt>
      <trkpt lat="45.23641" lon="6.10828">
        <ele>2651</ele>
        <time>2021-02-27T12:19:30Z</time>
      </trkpt>
      <trkpt lat="45.23641" lon="6.10828">
        <ele>2651.2</ele>
        <time>2021-02-27T12:19:31Z</time>
      </trkpt>
      <trkpt lat="45.23641" lon="6.10828">
        <ele>2651.2</ele>
        <time>2021-02-27T12:19:32Z</time>
      </trkpt>
      <trkpt lat="45.23642" lon="6.10828">
        <ele>2651</ele>
        <time>2021-02-27T12:19:33Z</time>
      </trkpt>
      <trkpt lat="45.23642" lon="6.10828">
        <ele>2651.4</ele>
        <time>2021-02-27T12:19:34Z</time>
      </trkpt>
      <trkpt lat="45.23642" lon="6.10828">
        <ele>2651.2</ele>
        <time>2021-02-27T12:19:35Z</time>
      </trkpt>
      <trkpt lat="45.23642" lon="6.10828">
        <ele>2651.2</ele>
        <time>2021-02-27T12:19:36Z</time>
      </trkpt>
      <trkpt lat="45.23642" lon="6.10828">
        <ele>2651</ele>
        <time>2021-02-27T12:19:37Z</time>
      </trkpt>
      <trkpt lat="45.23642" lon="6.10828">
        <ele>2651</ele>
        <time>2021-02-27T12:19:38Z</time>
      </trkpt>
      <trkpt lat="45.23642" lon="6.10829">
        <ele>2651</ele>
        <time>2021-02-27T12:19:39Z</time>
      </trkpt>
      <trkpt lat="45.23641" lon="6.1083">
        <ele>2651.4</ele>
        <time>2021-02-27T12:19:40Z</time>
      </trkpt>
      <trkpt lat="45.2364" lon="6.10831">
        <ele>2651.2</ele>
        <time>2021-02-27T12:19:41Z</time>
      </trkpt>
      <trkpt lat="45.23639" lon="6.10832">
        <ele>2650.8</ele>
        <time>2021-02-27T12:19:42Z</time>
      </trkpt>
      <trkpt lat="45.23638" lon="6.10833">
        <ele>2650.2</ele>
        <time>2021-02-27T12:19:43Z</time>
      </trkpt>
      <trkpt lat="45.23637" lon="6.10834">
        <ele>2650</ele>
        <time>2021-02-27T12:19:44Z</time>
      </trkpt>
      <trkpt lat="45.23636" lon="6.10835">
        <ele>2650</ele>
        <time>2021-02-27T12:19:45Z</time>
      </trkpt>
      <trkpt lat="45.23636" lon="6.10836">
        <ele>2649.6</ele>
        <time>2021-02-27T12:19:46Z</time>
      </trkpt>
      <trkpt lat="45.23635" lon="6.10837">
        <ele>2649.6</ele>
        <time>2021-02-27T12:19:47Z</time>
      </trkpt>
      <trkpt lat="45.23634" lon="6.10838">
        <ele>2649.4</ele>
        <time>2021-02-27T12:19:48Z</time>
      </trkpt>
      <trkpt lat="45.23634" lon="6.10838">
        <ele>2649.8</ele>
        <time>2021-02-27T12:19:49Z</time>
      </trkpt>
      <trkpt lat="45.23633" lon="6.10839">
        <ele>2650</ele>
        <time>2021-02-27T12:19:50Z</time>
      </trkpt>
      <trkpt lat="45.23633" lon="6.10839">
        <ele>2650</ele>
        <time>2021-02-27T12:19:51Z</time>
      </trkpt>
      <trkpt lat="45.23633" lon="6.10839">
        <ele>2649.8</ele>
        <time>2021-02-27T12:19:52Z</time>
      </trkpt>
      <trkpt lat="45.23633" lon="6.1084">
        <ele>2649.6</ele>
        <time>2021-02-27T12:19:53Z</time>
      </trkpt>
      <trkpt lat="45.23632" lon="6.1084">
        <ele>2649.6</ele>
        <time>2021-02-27T12:19:54Z</time>
      </trkpt>
      <trkpt lat="45.23632" lon="6.1084">
        <ele>2649.6</ele>
        <time>2021-02-27T12:19:55Z</time>
      </trkpt>
      <trkpt lat="45.23632" lon="6.10841">
        <ele>2649.8</ele>
        <time>2021-02-27T12:19:56Z</time>
      </trkpt>
      <trkpt lat="45.23632" lon="6.10841">
        <ele>2649.8</ele>
        <time>2021-02-27T12:19:57Z</time>
      </trkpt>
      <trkpt lat="45.23631" lon="6.10841">
        <ele>2651</ele>
        <time>2021-02-27T12:19:58Z</time>
      </trkpt>
      <trkpt lat="45.23631" lon="6.10842">
        <ele>2651.2</ele>
        <time>2021-02-27T12:19:59Z</time>
      </trkpt>
      <trkpt lat="45.23631" lon="6.10842">
        <ele>2650.8</ele>
        <time>2021-02-27T12:20:00Z</time>
      </trkpt>
      <trkpt lat="45.23631" lon="6.10842">
        <ele>2650.6</ele>
        <time>2021-02-27T12:20:01Z</time>
      </trkpt>
      <trkpt lat="45.2363" lon="6.10843">
        <ele>2651.4</ele>
        <time>2021-02-27T12:20:02Z</time>
      </trkpt>
      <trkpt lat="45.2363" lon="6.10843">
        <ele>2651.6</ele>
        <time>2021-02-27T12:20:03Z</time>
      </trkpt>
      <trkpt lat="45.2363" lon="6.10843">
        <ele>2651.6</ele>
        <time>2021-02-27T12:20:04Z</time>
      </trkpt>
      <trkpt lat="45.2363" lon="6.10843">
        <ele>2652.4</ele>
        <time>2021-02-27T12:20:05Z</time>
      </trkpt>
      <trkpt lat="45.2363" lon="6.10843">
        <ele>2652</ele>
        <time>2021-02-27T12:20:06Z</time>
      </trkpt>
      <trkpt lat="45.2363" lon="6.10843">
        <ele>2651.6</ele>
        <time>2021-02-27T12:20:07Z</time>
      </trkpt>
      <trkpt lat="45.2363" lon="6.10843">
        <ele>2651.4</ele>
        <time>2021-02-27T12:20:08Z</time>
      </trkpt>
      <trkpt lat="45.23632" lon="6.10841">
        <ele>2651.8</ele>
        <time>2021-02-27T12:20:09Z</time>
      </trkpt>
      <trkpt lat="45.23632" lon="6.10841">
        <ele>2652.6</ele>
        <time>2021-02-27T12:20:10Z</time>
      </trkpt>
      <trkpt lat="45.23632" lon="6.10841">
        <ele>2652</ele>
        <time>2021-02-27T12:20:11Z</time>
      </trkpt>
      <trkpt lat="45.23632" lon="6.10841">
        <ele>2651.6</ele>
        <time>2021-02-27T12:20:12Z</time>
      </trkpt>
      <trkpt lat="45.23632" lon="6.10841">
        <ele>2651</ele>
        <time>2021-02-27T12:20:13Z</time>
      </trkpt>
      <trkpt lat="45.23635" lon="6.10841">
        <ele>2650.8</ele>
        <time>2021-02-27T12:20:14Z</time>
      </trkpt>
      <trkpt lat="45.23635" lon="6.10841">
        <ele>2650.4</ele>
        <time>2021-02-27T12:20:15Z</time>
      </trkpt>
      <trkpt lat="45.23635" lon="6.10841">
        <ele>2649.8</ele>
        <time>2021-02-27T12:20:16Z</time>
      </trkpt>
      <trkpt lat="45.23635" lon="6.10841">
        <ele>2649.4</ele>
        <time>2021-02-27T12:20:17Z</time>
      </trkpt>
      <trkpt lat="45.23635" lon="6.10841">
        <ele>2649.2</ele>
        <time>2021-02-27T12:20:18Z</time>
      </trkpt>
      <trkpt lat="45.23635" lon="6.10841">
        <ele>2649</ele>
        <time>2021-02-27T12:20:19Z</time>
      </trkpt>
      <trkpt lat="45.23635" lon="6.10841">
        <ele>2649</ele>
        <time>2021-02-27T12:20:20Z</time>
      </trkpt>
      <trkpt lat="45.23635" lon="6.10841">
        <ele>2649</ele>
        <time>2021-02-27T12:20:21Z</time>
      </trkpt>
      <trkpt lat="45.23635" lon="6.10841">
        <ele>2648.8</ele>
        <time>2021-02-27T12:20:22Z</time>
      </trkpt>
      <trkpt lat="45.23635" lon="6.10841">
        <ele>2648.8</ele>
        <time>2021-02-27T12:20:23Z</time>
      </trkpt>
      <trkpt lat="45.23635" lon="6.10841">
        <ele>2649</ele>
        <time>2021-02-27T12:20:24Z</time>
      </trkpt>
      <trkpt lat="45.23635" lon="6.10841">
        <ele>2649</ele>
        <time>2021-02-27T12:20:25Z</time>
      </trkpt>
      <trkpt lat="45.23635" lon="6.10841">
        <ele>2648.8</ele>
        <time>2021-02-27T12:20:26Z</time>
      </trkpt>
      <trkpt lat="45.23639" lon="6.1084">
        <ele>2648.8</ele>
        <time>2021-02-27T12:20:27Z</time>
      </trkpt>
      <trkpt lat="45.23639" lon="6.1084">
        <ele>2649.2</ele>
        <time>2021-02-27T12:20:28Z</time>
      </trkpt>
      <trkpt lat="45.23639" lon="6.1084">
        <ele>2649.6</ele>
        <time>2021-02-27T12:20:29Z</time>
      </trkpt>
      <trkpt lat="45.23639" lon="6.1084">
        <ele>2650</ele>
        <time>2021-02-27T12:20:30Z</time>
      </trkpt>
      <trkpt lat="45.23639" lon="6.1084">
        <ele>2649.8</ele>
        <time>2021-02-27T12:20:31Z</time>
      </trkpt>
      <trkpt lat="45.2364" lon="6.10839">
        <ele>2649.8</ele>
        <time>2021-02-27T12:20:32Z</time>
      </trkpt>
      <trkpt lat="45.2364" lon="6.10839">
        <ele>2649.6</ele>
        <time>2021-02-27T12:20:33Z</time>
      </trkpt>
      <trkpt lat="45.2364" lon="6.10839">
        <ele>2649.8</ele>
        <time>2021-02-27T12:20:34Z</time>
      </trkpt>
      <trkpt lat="45.2364" lon="6.10839">
        <ele>2649.8</ele>
        <time>2021-02-27T12:20:35Z</time>
      </trkpt>
      <trkpt lat="45.2364" lon="6.10839">
        <ele>2649.8</ele>
        <time>2021-02-27T12:20:36Z</time>
      </trkpt>
      <trkpt lat="45.23641" lon="6.10838">
        <ele>2649.6</ele>
        <time>2021-02-27T12:20:37Z</time>
      </trkpt>
      <trkpt lat="45.23641" lon="6.10838">
        <ele>2649.8</ele>
        <time>2021-02-27T12:20:38Z</time>
      </trkpt>
      <trkpt lat="45.23641" lon="6.10838">
        <ele>2649.6</ele>
        <time>2021-02-27T12:20:39Z</time>
      </trkpt>
      <trkpt lat="45.23641" lon="6.10838">
        <ele>2649.8</ele>
        <time>2021-02-27T12:20:40Z</time>
      </trkpt>
      <trkpt lat="45.23641" lon="6.10838">
        <ele>2650</ele>
        <time>2021-02-27T12:20:41Z</time>
      </trkpt>
      <trkpt lat="45.23642" lon="6.10838">
        <ele>2650.2</ele>
        <time>2021-02-27T12:20:42Z</time>
      </trkpt>
      <trkpt lat="45.23642" lon="6.10837">
        <ele>2650.6</ele>
        <time>2021-02-27T12:20:43Z</time>
      </trkpt>
      <trkpt lat="45.23642" lon="6.10837">
        <ele>2651.2</ele>
        <time>2021-02-27T12:20:44Z</time>
      </trkpt>
      <trkpt lat="45.23642" lon="6.10837">
        <ele>2651.4</ele>
        <time>2021-02-27T12:20:45Z</time>
      </trkpt>
      <trkpt lat="45.23643" lon="6.10837">
        <ele>2651.2</ele>
        <time>2021-02-27T12:20:46Z</time>
      </trkpt>
      <trkpt lat="45.23643" lon="6.10837">
        <ele>2651.2</ele>
        <time>2021-02-27T12:20:47Z</time>
      </trkpt>
      <trkpt lat="45.23643" lon="6.10837">
        <ele>2650.4</ele>
        <time>2021-02-27T12:20:48Z</time>
      </trkpt>
      <trkpt lat="45.23643" lon="6.10836">
        <ele>2651</ele>
        <time>2021-02-27T12:20:49Z</time>
      </trkpt>
      <trkpt lat="45.23643" lon="6.10836">
        <ele>2651.2</ele>
        <time>2021-02-27T12:20:50Z</time>
      </trkpt>
      <trkpt lat="45.23644" lon="6.10836">
        <ele>2651.6</ele>
        <time>2021-02-27T12:20:51Z</time>
      </trkpt>
      <trkpt lat="45.23644" lon="6.10836">
        <ele>2650.6</ele>
        <time>2021-02-27T12:20:52Z</time>
      </trkpt>
      <trkpt lat="45.23644" lon="6.10836">
        <ele>2650.4</ele>
        <time>2021-02-27T12:20:53Z</time>
      </trkpt>
      <trkpt lat="45.23644" lon="6.10836">
        <ele>2650</ele>
        <time>2021-02-27T12:20:54Z</time>
      </trkpt>
      <trkpt lat="45.23644" lon="6.10836">
        <ele>2650.2</ele>
        <time>2021-02-27T12:20:55Z</time>
      </trkpt>
      <trkpt lat="45.23644" lon="6.10836">
        <ele>2650.4</ele>
        <time>2021-02-27T12:20:56Z</time>
      </trkpt>
      <trkpt lat="45.23645" lon="6.10836">
        <ele>2650.6</ele>
        <time>2021-02-27T12:20:57Z</time>
      </trkpt>
      <trkpt lat="45.23645" lon="6.10836">
        <ele>2650.8</ele>
        <time>2021-02-27T12:20:58Z</time>
      </trkpt>
      <trkpt lat="45.23645" lon="6.10835">
        <ele>2651</ele>
        <time>2021-02-27T12:20:59Z</time>
      </trkpt>
      <trkpt lat="45.23645" lon="6.10835">
        <ele>2651.2</ele>
        <time>2021-02-27T12:21:00Z</time>
      </trkpt>
      <trkpt lat="45.23645" lon="6.10835">
        <ele>2651.4</ele>
        <time>2021-02-27T12:21:01Z</time>
      </trkpt>
      <trkpt lat="45.23646" lon="6.10835">
        <ele>2652</ele>
        <time>2021-02-27T12:21:02Z</time>
      </trkpt>
      <trkpt lat="45.23646" lon="6.10835">
        <ele>2652.2</ele>
        <time>2021-02-27T12:21:03Z</time>
      </trkpt>
      <trkpt lat="45.23646" lon="6.10835">
        <ele>2651.8</ele>
        <time>2021-02-27T12:21:04Z</time>
      </trkpt>
      <trkpt lat="45.23646" lon="6.10835">
        <ele>2651.6</ele>
        <time>2021-02-27T12:21:05Z</time>
      </trkpt>
      <trkpt lat="45.23646" lon="6.10835">
        <ele>2651.2</ele>
        <time>2021-02-27T12:21:06Z</time>
      </trkpt>
      <trkpt lat="45.23646" lon="6.10835">
        <ele>2651.2</ele>
        <time>2021-02-27T12:21:07Z</time>
      </trkpt>
      <trkpt lat="45.23647" lon="6.10835">
        <ele>2651.6</ele>
        <time>2021-02-27T12:21:08Z</time>
      </trkpt>
      <trkpt lat="45.23647" lon="6.10835">
        <ele>2651.4</ele>
        <time>2021-02-27T12:21:09Z</time>
      </trkpt>
      <trkpt lat="45.23647" lon="6.10835">
        <ele>2651.4</ele>
        <time>2021-02-27T12:21:10Z</time>
      </trkpt>
      <trkpt lat="45.23647" lon="6.10834">
        <ele>2651</ele>
        <time>2021-02-27T12:21:11Z</time>
      </trkpt>
      <trkpt lat="45.23647" lon="6.10834">
        <ele>2651</ele>
        <time>2021-02-27T12:21:12Z</time>
      </trkpt>
      <trkpt lat="45.23648" lon="6.10834">
        <ele>2651</ele>
        <time>2021-02-27T12:21:13Z</time>
      </trkpt>
      <trkpt lat="45.23648" lon="6.10834">
        <ele>2651</ele>
        <time>2021-02-27T12:21:14Z</time>
      </trkpt>
      <trkpt lat="45.23648" lon="6.10834">
        <ele>2650.8</ele>
        <time>2021-02-27T12:21:15Z</time>
      </trkpt>
      <trkpt lat="45.23648" lon="6.10834">
        <ele>2650.6</ele>
        <time>2021-02-27T12:21:16Z</time>
      </trkpt>
      <trkpt lat="45.23648" lon="6.10834">
        <ele>2650.8</ele>
        <time>2021-02-27T12:21:17Z</time>
      </trkpt>
      <trkpt lat="45.23648" lon="6.10834">
        <ele>2650.6</ele>
        <time>2021-02-27T12:21:18Z</time>
      </trkpt>
      <trkpt lat="45.23649" lon="6.10834">
        <ele>2650.4</ele>
        <time>2021-02-27T12:21:19Z</time>
      </trkpt>
      <trkpt lat="45.23649" lon="6.10834">
        <ele>2649.6</ele>
        <time>2021-02-27T12:21:20Z</time>
      </trkpt>
      <trkpt lat="45.23649" lon="6.10834">
        <ele>2650.4</ele>
        <time>2021-02-27T12:21:21Z</time>
      </trkpt>
      <trkpt lat="45.23649" lon="6.10834">
        <ele>2650.2</ele>
        <time>2021-02-27T12:21:22Z</time>
      </trkpt>
      <trkpt lat="45.23649" lon="6.10834">
        <ele>2650.4</ele>
        <time>2021-02-27T12:21:23Z</time>
      </trkpt>
      <trkpt lat="45.23649" lon="6.10834">
        <ele>2650.6</ele>
        <time>2021-02-27T12:21:24Z</time>
      </trkpt>
      <trkpt lat="45.23649" lon="6.10834">
        <ele>2650.2</ele>
        <time>2021-02-27T12:21:25Z</time>
      </trkpt>
      <trkpt lat="45.23649" lon="6.10834">
        <ele>2651</ele>
        <time>2021-02-27T12:21:26Z</time>
      </trkpt>
      <trkpt lat="45.23649" lon="6.10834">
        <ele>2649.8</ele>
        <time>2021-02-27T12:21:27Z</time>
      </trkpt>
      <trkpt lat="45.23649" lon="6.10834">
        <ele>2649.8</ele>
        <time>2021-02-27T12:21:28Z</time>
      </trkpt>
      <trkpt lat="45.23649" lon="6.10834">
        <ele>2649.4</ele>
        <time>2021-02-27T12:21:29Z</time>
      </trkpt>
      <trkpt lat="45.23649" lon="6.10834">
        <ele>2649</ele>
        <time>2021-02-27T12:21:30Z</time>
      </trkpt>
      <trkpt lat="45.23649" lon="6.10834">
        <ele>2649</ele>
        <time>2021-02-27T12:21:31Z</time>
      </trkpt>
      <trkpt lat="45.23649" lon="6.10834">
        <ele>2648.6</ele>
        <time>2021-02-27T12:21:32Z</time>
      </trkpt>
      <trkpt lat="45.23647" lon="6.10834">
        <ele>2649.2</ele>
        <time>2021-02-27T12:21:33Z</time>
      </trkpt>
      <trkpt lat="45.23647" lon="6.10834">
        <ele>2649</ele>
        <time>2021-02-27T12:21:34Z</time>
      </trkpt>
      <trkpt lat="45.23647" lon="6.10834">
        <ele>2649.2</ele>
        <time>2021-02-27T12:21:35Z</time>
      </trkpt>
      <trkpt lat="45.23647" lon="6.10834">
        <ele>2649.6</ele>
        <time>2021-02-27T12:21:36Z</time>
      </trkpt>
      <trkpt lat="45.23647" lon="6.10834">
        <ele>2649.8</ele>
        <time>2021-02-27T12:21:37Z</time>
      </trkpt>
      <trkpt lat="45.23647" lon="6.10834">
        <ele>2650</ele>
        <time>2021-02-27T12:21:38Z</time>
      </trkpt>
      <trkpt lat="45.23648" lon="6.10833">
        <ele>2650</ele>
        <time>2021-02-27T12:21:39Z</time>
      </trkpt>
      <trkpt lat="45.23648" lon="6.10833">
        <ele>2650</ele>
        <time>2021-02-27T12:21:40Z</time>
      </trkpt>
      <trkpt lat="45.23648" lon="6.10833">
        <ele>2650</ele>
        <time>2021-02-27T12:21:41Z</time>
      </trkpt>
      <trkpt lat="45.23648" lon="6.10833">
        <ele>2650</ele>
        <time>2021-02-27T12:21:42Z</time>
      </trkpt>
      <trkpt lat="45.23648" lon="6.10833">
        <ele>2649.6</ele>
        <time>2021-02-27T12:21:43Z</time>
      </trkpt>
      <trkpt lat="45.23648" lon="6.10833">
        <ele>2649.6</ele>
        <time>2021-02-27T12:21:44Z</time>
      </trkpt>
      <trkpt lat="45.23648" lon="6.10833">
        <ele>2649.4</ele>
        <time>2021-02-27T12:21:45Z</time>
      </trkpt>
      <trkpt lat="45.23649" lon="6.10833">
        <ele>2649.2</ele>
        <time>2021-02-27T12:21:46Z</time>
      </trkpt>
      <trkpt lat="45.23649" lon="6.10833">
        <ele>2649.2</ele>
        <time>2021-02-27T12:21:47Z</time>
      </trkpt>
      <trkpt lat="45.23649" lon="6.10833">
        <ele>2649.2</ele>
        <time>2021-02-27T12:21:48Z</time>
      </trkpt>
      <trkpt lat="45.23649" lon="6.10833">
        <ele>2649</ele>
        <time>2021-02-27T12:21:49Z</time>
      </trkpt>
      <trkpt lat="45.23649" lon="6.10833">
        <ele>2648.8</ele>
        <time>2021-02-27T12:21:50Z</time>
      </trkpt>
      <trkpt lat="45.23649" lon="6.10833">
        <ele>2648.8</ele>
        <time>2021-02-27T12:21:51Z</time>
      </trkpt>
      <trkpt lat="45.23649" lon="6.10832">
        <ele>2648.6</ele>
        <time>2021-02-27T12:21:52Z</time>
      </trkpt>
      <trkpt lat="45.2365" lon="6.10832">
        <ele>2648.8</ele>
        <time>2021-02-27T12:21:53Z</time>
      </trkpt>
      <trkpt lat="45.2365" lon="6.10832">
        <ele>2648.6</ele>
        <time>2021-02-27T12:21:54Z</time>
      </trkpt>
      <trkpt lat="45.2365" lon="6.10832">
        <ele>2648.6</ele>
        <time>2021-02-27T12:21:55Z</time>
      </trkpt>
      <trkpt lat="45.2365" lon="6.10832">
        <ele>2648.6</ele>
        <time>2021-02-27T12:21:56Z</time>
      </trkpt>
      <trkpt lat="45.2365" lon="6.10832">
        <ele>2648.4</ele>
        <time>2021-02-27T12:21:57Z</time>
      </trkpt>
      <trkpt lat="45.2365" lon="6.10832">
        <ele>2648.4</ele>
        <time>2021-02-27T12:21:58Z</time>
      </trkpt>
      <trkpt lat="45.23651" lon="6.10832">
        <ele>2648.6</ele>
        <time>2021-02-27T12:21:59Z</time>
      </trkpt>
      <trkpt lat="45.23651" lon="6.10832">
        <ele>2648.4</ele>
        <time>2021-02-27T12:22:00Z</time>
      </trkpt>
      <trkpt lat="45.23651" lon="6.10832">
        <ele>2648.2</ele>
        <time>2021-02-27T12:22:01Z</time>
      </trkpt>
      <trkpt lat="45.23651" lon="6.10832">
        <ele>2648</ele>
        <time>2021-02-27T12:22:02Z</time>
      </trkpt>
      <trkpt lat="45.23651" lon="6.10832">
        <ele>2648</ele>
        <time>2021-02-27T12:22:03Z</time>
      </trkpt>
      <trkpt lat="45.23651" lon="6.10832">
        <ele>2647.8</ele>
        <time>2021-02-27T12:22:04Z</time>
      </trkpt>
      <trkpt lat="45.23651" lon="6.10831">
        <ele>2647.8</ele>
        <time>2021-02-27T12:22:05Z</time>
      </trkpt>
      <trkpt lat="45.23652" lon="6.10831">
        <ele>2648</ele>
        <time>2021-02-27T12:22:06Z</time>
      </trkpt>
      <trkpt lat="45.23652" lon="6.10831">
        <ele>2647.8</ele>
        <time>2021-02-27T12:22:07Z</time>
      </trkpt>
      <trkpt lat="45.23652" lon="6.10831">
        <ele>2647.6</ele>
        <time>2021-02-27T12:22:08Z</time>
      </trkpt>
      <trkpt lat="45.23652" lon="6.10831">
        <ele>2647.8</ele>
        <time>2021-02-27T12:22:09Z</time>
      </trkpt>
      <trkpt lat="45.23652" lon="6.10831">
        <ele>2647.8</ele>
        <time>2021-02-27T12:22:10Z</time>
      </trkpt>
      <trkpt lat="45.23652" lon="6.10831">
        <ele>2647.6</ele>
        <time>2021-02-27T12:22:11Z</time>
      </trkpt>
      <trkpt lat="45.23652" lon="6.10831">
        <ele>2648.2</ele>
        <time>2021-02-27T12:22:12Z</time>
      </trkpt>
      <trkpt lat="45.23653" lon="6.10831">
        <ele>2648.6</ele>
        <time>2021-02-27T12:22:13Z</time>
      </trkpt>
      <trkpt lat="45.23653" lon="6.10831">
        <ele>2648.4</ele>
        <time>2021-02-27T12:22:14Z</time>
      </trkpt>
      <trkpt lat="45.23653" lon="6.10831">
        <ele>2648.4</ele>
        <time>2021-02-27T12:22:15Z</time>
      </trkpt>
      <trkpt lat="45.23653" lon="6.10831">
        <ele>2648.8</ele>
        <time>2021-02-27T12:22:16Z</time>
      </trkpt>
      <trkpt lat="45.23653" lon="6.10831">
        <ele>2649</ele>
        <time>2021-02-27T12:22:17Z</time>
      </trkpt>
      <trkpt lat="45.23653" lon="6.10831">
        <ele>2649.4</ele>
        <time>2021-02-27T12:22:18Z</time>
      </trkpt>
      <trkpt lat="45.23653" lon="6.10831">
        <ele>2649.6</ele>
        <time>2021-02-27T12:22:19Z</time>
      </trkpt>
      <trkpt lat="45.23653" lon="6.10831">
        <ele>2649.8</ele>
        <time>2021-02-27T12:22:20Z</time>
      </trkpt>
      <trkpt lat="45.23651" lon="6.10833">
        <ele>2650</ele>
        <time>2021-02-27T12:22:21Z</time>
      </trkpt>
      <trkpt lat="45.23651" lon="6.10833">
        <ele>2650.2</ele>
        <time>2021-02-27T12:22:22Z</time>
      </trkpt>
      <trkpt lat="45.23651" lon="6.10836">
        <ele>2650.4</ele>
        <time>2021-02-27T12:22:23Z</time>
      </trkpt>
      <trkpt lat="45.23652" lon="6.1084">
        <ele>2650.6</ele>
        <time>2021-02-27T12:22:24Z</time>
      </trkpt>
      <trkpt lat="45.23653" lon="6.10845">
        <ele>2650</ele>
        <time>2021-02-27T12:22:25Z</time>
      </trkpt>
      <trkpt lat="45.23654" lon="6.10852">
        <ele>2649.8</ele>
        <time>2021-02-27T12:22:26Z</time>
      </trkpt>
      <trkpt lat="45.23656" lon="6.10858">
        <ele>2649.8</ele>
        <time>2021-02-27T12:22:27Z</time>
      </trkpt>
      <trkpt lat="45.23658" lon="6.10865">
        <ele>2649.4</ele>
        <time>2021-02-27T12:22:28Z</time>
      </trkpt>
      <trkpt lat="45.23659" lon="6.10871">
        <ele>2648.8</ele>
        <time>2021-02-27T12:22:29Z</time>
      </trkpt>
      <trkpt lat="45.23661" lon="6.10878">
        <ele>2648.4</ele>
        <time>2021-02-27T12:22:30Z</time>
      </trkpt>
      <trkpt lat="45.23662" lon="6.10887">
        <ele>2647.8</ele>
        <time>2021-02-27T12:22:31Z</time>
      </trkpt>
      <trkpt lat="45.23663" lon="6.10897">
        <ele>2647.2</ele>
        <time>2021-02-27T12:22:32Z</time>
      </trkpt>
      <trkpt lat="45.23663" lon="6.10908">
        <ele>2646.4</ele>
        <time>2021-02-27T12:22:33Z</time>
      </trkpt>
      <trkpt lat="45.23664" lon="6.10921">
        <ele>2646</ele>
        <time>2021-02-27T12:22:34Z</time>
      </trkpt>
      <trkpt lat="45.23665" lon="6.10933">
        <ele>2644.6</ele>
        <time>2021-02-27T12:22:35Z</time>
      </trkpt>
      <trkpt lat="45.23666" lon="6.10944">
        <ele>2643</ele>
        <time>2021-02-27T12:22:36Z</time>
      </trkpt>
      <trkpt lat="45.23666" lon="6.10953">
        <ele>2641.8</ele>
        <time>2021-02-27T12:22:37Z</time>
      </trkpt>
      <trkpt lat="45.23666" lon="6.10953">
        <ele>2640.4</ele>
        <time>2021-02-27T12:22:38Z</time>
      </trkpt>
      <trkpt lat="45.23662" lon="6.10966">
        <ele>2640</ele>
        <time>2021-02-27T12:22:39Z</time>
      </trkpt>
      <trkpt lat="45.23662" lon="6.10966">
        <ele>2639</ele>
        <time>2021-02-27T12:22:40Z</time>
      </trkpt>
      <trkpt lat="45.2365" lon="6.10983">
        <ele>2637.8</ele>
        <time>2021-02-27T12:22:41Z</time>
      </trkpt>
      <trkpt lat="45.23646" lon="6.10987">
        <ele>2636.6</ele>
        <time>2021-02-27T12:22:42Z</time>
      </trkpt>
      <trkpt lat="45.23637" lon="6.10996">
        <ele>2635</ele>
        <time>2021-02-27T12:22:43Z</time>
      </trkpt>
      <trkpt lat="45.23635" lon="6.10998">
        <ele>2633.4</ele>
        <time>2021-02-27T12:22:44Z</time>
      </trkpt>
      <trkpt lat="45.23632" lon="6.11002">
        <ele>2631.6</ele>
        <time>2021-02-27T12:22:45Z</time>
      </trkpt>
      <trkpt lat="45.23623" lon="6.11032">
        <ele>2629.8</ele>
        <time>2021-02-27T12:22:46Z</time>
      </trkpt>
      <trkpt lat="45.2362" lon="6.11038">
        <ele>2628.2</ele>
        <time>2021-02-27T12:22:47Z</time>
      </trkpt>
      <trkpt lat="45.23614" lon="6.1105">
        <ele>2626</ele>
        <time>2021-02-27T12:22:48Z</time>
      </trkpt>
      <trkpt lat="45.23614" lon="6.1105">
        <ele>2624.2</ele>
        <time>2021-02-27T12:22:49Z</time>
      </trkpt>
      <trkpt lat="45.23605" lon="6.11073">
        <ele>2622.2</ele>
        <time>2021-02-27T12:22:50Z</time>
      </trkpt>
      <trkpt lat="45.23603" lon="6.11076">
        <ele>2620.8</ele>
        <time>2021-02-27T12:22:51Z</time>
      </trkpt>
      <trkpt lat="45.23598" lon="6.11086">
        <ele>2619.6</ele>
        <time>2021-02-27T12:22:52Z</time>
      </trkpt>
      <trkpt lat="45.23598" lon="6.1109">
        <ele>2618.4</ele>
        <time>2021-02-27T12:22:53Z</time>
      </trkpt>
      <trkpt lat="45.23597" lon="6.111">
        <ele>2616.8</ele>
        <time>2021-02-27T12:22:54Z</time>
      </trkpt>
      <trkpt lat="45.23599" lon="6.11104">
        <ele>2615.8</ele>
        <time>2021-02-27T12:22:55Z</time>
      </trkpt>
      <trkpt lat="45.23601" lon="6.11115">
        <ele>2614.8</ele>
        <time>2021-02-27T12:22:56Z</time>
      </trkpt>
      <trkpt lat="45.23602" lon="6.1112">
        <ele>2612.8</ele>
        <time>2021-02-27T12:22:57Z</time>
      </trkpt>
      <trkpt lat="45.236" lon="6.1113">
        <ele>2611.6</ele>
        <time>2021-02-27T12:22:58Z</time>
      </trkpt>
      <trkpt lat="45.23598" lon="6.11131">
        <ele>2610.6</ele>
        <time>2021-02-27T12:22:59Z</time>
      </trkpt>
      <trkpt lat="45.23593" lon="6.11133">
        <ele>2610</ele>
        <time>2021-02-27T12:23:00Z</time>
      </trkpt>
      <trkpt lat="45.23593" lon="6.11133">
        <ele>2607.8</ele>
        <time>2021-02-27T12:23:01Z</time>
      </trkpt>
      <trkpt lat="45.23579" lon="6.11126">
        <ele>2604.4</ele>
        <time>2021-02-27T12:23:02Z</time>
      </trkpt>
      <trkpt lat="45.23577" lon="6.11128">
        <ele>2602</ele>
        <time>2021-02-27T12:23:03Z</time>
      </trkpt>
      <trkpt lat="45.2357" lon="6.11134">
        <ele>2600.6</ele>
        <time>2021-02-27T12:23:04Z</time>
      </trkpt>
      <trkpt lat="45.23567" lon="6.11136">
        <ele>2598</ele>
        <time>2021-02-27T12:23:05Z</time>
      </trkpt>
      <trkpt lat="45.23567" lon="6.11136">
        <ele>2595.2</ele>
        <time>2021-02-27T12:23:06Z</time>
      </trkpt>
      <trkpt lat="45.23558" lon="6.11141">
        <ele>2592.4</ele>
        <time>2021-02-27T12:23:07Z</time>
      </trkpt>
      <trkpt lat="45.23558" lon="6.11141">
        <ele>2590.8</ele>
        <time>2021-02-27T12:23:08Z</time>
      </trkpt>
      <trkpt lat="45.23547" lon="6.11158">
        <ele>2588.2</ele>
        <time>2021-02-27T12:23:09Z</time>
      </trkpt>
      <trkpt lat="45.23546" lon="6.11163">
        <ele>2585</ele>
        <time>2021-02-27T12:23:10Z</time>
      </trkpt>
      <trkpt lat="45.23545" lon="6.11178">
        <ele>2581.2</ele>
        <time>2021-02-27T12:23:11Z</time>
      </trkpt>
      <trkpt lat="45.23547" lon="6.11183">
        <ele>2579</ele>
        <time>2021-02-27T12:23:12Z</time>
      </trkpt>
      <trkpt lat="45.23552" lon="6.11195">
        <ele>2575.8</ele>
        <time>2021-02-27T12:23:13Z</time>
      </trkpt>
      <trkpt lat="45.23552" lon="6.11195">
        <ele>2571.8</ele>
        <time>2021-02-27T12:23:14Z</time>
      </trkpt>
      <trkpt lat="45.23559" lon="6.11215">
        <ele>2569.2</ele>
        <time>2021-02-27T12:23:15Z</time>
      </trkpt>
      <trkpt lat="45.23559" lon="6.11219">
        <ele>2567.2</ele>
        <time>2021-02-27T12:23:16Z</time>
      </trkpt>
      <trkpt lat="45.23559" lon="6.11228">
        <ele>2565.2</ele>
        <time>2021-02-27T12:23:17Z</time>
      </trkpt>
      <trkpt lat="45.23553" lon="6.11231">
        <ele>2563.6</ele>
        <time>2021-02-27T12:23:18Z</time>
      </trkpt>
      <trkpt lat="45.23545" lon="6.1123">
        <ele>2561.2</ele>
        <time>2021-02-27T12:23:19Z</time>
      </trkpt>
      <trkpt lat="45.23537" lon="6.11229">
        <ele>2559</ele>
        <time>2021-02-27T12:23:20Z</time>
      </trkpt>
      <trkpt lat="45.2353" lon="6.11227">
        <ele>2556.6</ele>
        <time>2021-02-27T12:23:21Z</time>
      </trkpt>
      <trkpt lat="45.23527" lon="6.11223">
        <ele>2554.6</ele>
        <time>2021-02-27T12:23:22Z</time>
      </trkpt>
      <trkpt lat="45.23526" lon="6.1122">
        <ele>2552.4</ele>
        <time>2021-02-27T12:23:23Z</time>
      </trkpt>
      <trkpt lat="45.23526" lon="6.1122">
        <ele>2551.2</ele>
        <time>2021-02-27T12:23:24Z</time>
      </trkpt>
      <trkpt lat="45.23524" lon="6.11219">
        <ele>2550.4</ele>
        <time>2021-02-27T12:23:25Z</time>
      </trkpt>
      <trkpt lat="45.23524" lon="6.11219">
        <ele>2549.8</ele>
        <time>2021-02-27T12:23:26Z</time>
      </trkpt>
      <trkpt lat="45.23524" lon="6.11219">
        <ele>2549.2</ele>
        <time>2021-02-27T12:23:27Z</time>
      </trkpt>
      <trkpt lat="45.23524" lon="6.11219">
        <ele>2548.2</ele>
        <time>2021-02-27T12:23:28Z</time>
      </trkpt>
      <trkpt lat="45.23524" lon="6.11219">
        <ele>2547.6</ele>
        <time>2021-02-27T12:23:29Z</time>
      </trkpt>
      <trkpt lat="45.23523" lon="6.11217">
        <ele>2547.4</ele>
        <time>2021-02-27T12:23:30Z</time>
      </trkpt>
      <trkpt lat="45.23523" lon="6.11217">
        <ele>2547.6</ele>
        <time>2021-02-27T12:23:31Z</time>
      </trkpt>
      <trkpt lat="45.23523" lon="6.11217">
        <ele>2547.4</ele>
        <time>2021-02-27T12:23:32Z</time>
      </trkpt>
      <trkpt lat="45.23523" lon="6.11217">
        <ele>2547</ele>
        <time>2021-02-27T12:23:33Z</time>
      </trkpt>
      <trkpt lat="45.23523" lon="6.11217">
        <ele>2546.8</ele>
        <time>2021-02-27T12:23:34Z</time>
      </trkpt>
      <trkpt lat="45.23523" lon="6.11217">
        <ele>2546.6</ele>
        <time>2021-02-27T12:23:35Z</time>
      </trkpt>
      <trkpt lat="45.23523" lon="6.11217">
        <ele>2547.4</ele>
        <time>2021-02-27T12:23:36Z</time>
      </trkpt>
      <trkpt lat="45.23523" lon="6.11217">
        <ele>2547.6</ele>
        <time>2021-02-27T12:23:37Z</time>
      </trkpt>
      <trkpt lat="45.23523" lon="6.11217">
        <ele>2547.8</ele>
        <time>2021-02-27T12:23:38Z</time>
      </trkpt>
      <trkpt lat="45.23523" lon="6.11217">
        <ele>2548</ele>
        <time>2021-02-27T12:23:39Z</time>
      </trkpt>
      <trkpt lat="45.23524" lon="6.11214">
        <ele>2548</ele>
        <time>2021-02-27T12:23:40Z</time>
      </trkpt>
      <trkpt lat="45.23524" lon="6.11214">
        <ele>2548</ele>
        <time>2021-02-27T12:23:41Z</time>
      </trkpt>
      <trkpt lat="45.23524" lon="6.11217">
        <ele>2548.2</ele>
        <time>2021-02-27T12:23:42Z</time>
      </trkpt>
      <trkpt lat="45.23524" lon="6.11217">
        <ele>2548.2</ele>
        <time>2021-02-27T12:23:43Z</time>
      </trkpt>
      <trkpt lat="45.23524" lon="6.11217">
        <ele>2548.2</ele>
        <time>2021-02-27T12:23:44Z</time>
      </trkpt>
      <trkpt lat="45.23524" lon="6.11217">
        <ele>2548.4</ele>
        <time>2021-02-27T12:23:45Z</time>
      </trkpt>
      <trkpt lat="45.23526" lon="6.11217">
        <ele>2547.8</ele>
        <time>2021-02-27T12:23:46Z</time>
      </trkpt>
      <trkpt lat="45.23526" lon="6.11217">
        <ele>2548.2</ele>
        <time>2021-02-27T12:23:47Z</time>
      </trkpt>
      <trkpt lat="45.23528" lon="6.11222">
        <ele>2548</ele>
        <time>2021-02-27T12:23:48Z</time>
      </trkpt>
      <trkpt lat="45.23529" lon="6.11227">
        <ele>2548.2</ele>
        <time>2021-02-27T12:23:49Z</time>
      </trkpt>
      <trkpt lat="45.23532" lon="6.11233">
        <ele>2547.6</ele>
        <time>2021-02-27T12:23:50Z</time>
      </trkpt>
      <trkpt lat="45.23534" lon="6.11238">
        <ele>2547</ele>
        <time>2021-02-27T12:23:51Z</time>
      </trkpt>
      <trkpt lat="45.23537" lon="6.11242">
        <ele>2547</ele>
        <time>2021-02-27T12:23:52Z</time>
      </trkpt>
      <trkpt lat="45.23541" lon="6.11248">
        <ele>2547</ele>
        <time>2021-02-27T12:23:53Z</time>
      </trkpt>
      <trkpt lat="45.23544" lon="6.11254">
        <ele>2546.8</ele>
        <time>2021-02-27T12:23:54Z</time>
      </trkpt>
      <trkpt lat="45.23547" lon="6.11261">
        <ele>2545.8</ele>
        <time>2021-02-27T12:23:55Z</time>
      </trkpt>
      <trkpt lat="45.2355" lon="6.1127">
        <ele>2546.2</ele>
        <time>2021-02-27T12:23:56Z</time>
      </trkpt>
      <trkpt lat="45.23553" lon="6.11279">
        <ele>2545.2</ele>
        <time>2021-02-27T12:23:57Z</time>
      </trkpt>
      <trkpt lat="45.23556" lon="6.11289">
        <ele>2544</ele>
        <time>2021-02-27T12:23:58Z</time>
      </trkpt>
      <trkpt lat="45.23559" lon="6.11299">
        <ele>2543</ele>
        <time>2021-02-27T12:23:59Z</time>
      </trkpt>
      <trkpt lat="45.23562" lon="6.1131">
        <ele>2541.6</ele>
        <time>2021-02-27T12:24:00Z</time>
      </trkpt>
      <trkpt lat="45.23565" lon="6.1132">
        <ele>2540</ele>
        <time>2021-02-27T12:24:01Z</time>
      </trkpt>
      <trkpt lat="45.23566" lon="6.1133">
        <ele>2538.6</ele>
        <time>2021-02-27T12:24:02Z</time>
      </trkpt>
      <trkpt lat="45.23567" lon="6.11341">
        <ele>2538</ele>
        <time>2021-02-27T12:24:03Z</time>
      </trkpt>
      <trkpt lat="45.23568" lon="6.11351">
        <ele>2537</ele>
        <time>2021-02-27T12:24:04Z</time>
      </trkpt>
      <trkpt lat="45.23569" lon="6.11363">
        <ele>2536</ele>
        <time>2021-02-27T12:24:05Z</time>
      </trkpt>
      <trkpt lat="45.23569" lon="6.11363">
        <ele>2534.8</ele>
        <time>2021-02-27T12:24:06Z</time>
      </trkpt>
      <trkpt lat="45.2357" lon="6.11394">
        <ele>2533.6</ele>
        <time>2021-02-27T12:24:07Z</time>
      </trkpt>
      <trkpt lat="45.23569" lon="6.11401">
        <ele>2532.2</ele>
        <time>2021-02-27T12:24:08Z</time>
      </trkpt>
      <trkpt lat="45.23567" lon="6.11413">
        <ele>2530.2</ele>
        <time>2021-02-27T12:24:09Z</time>
      </trkpt>
      <trkpt lat="45.23567" lon="6.11413">
        <ele>2528.2</ele>
        <time>2021-02-27T12:24:10Z</time>
      </trkpt>
      <trkpt lat="45.23556" lon="6.11435">
        <ele>2527</ele>
        <time>2021-02-27T12:24:11Z</time>
      </trkpt>
      <trkpt lat="45.23555" lon="6.11438">
        <ele>2525.4</ele>
        <time>2021-02-27T12:24:12Z</time>
      </trkpt>
      <trkpt lat="45.2355" lon="6.11449">
        <ele>2524.2</ele>
        <time>2021-02-27T12:24:13Z</time>
      </trkpt>
      <trkpt lat="45.23548" lon="6.11453">
        <ele>2523.2</ele>
        <time>2021-02-27T12:24:14Z</time>
      </trkpt>
      <trkpt lat="45.23545" lon="6.11464">
        <ele>2522.4</ele>
        <time>2021-02-27T12:24:15Z</time>
      </trkpt>
      <trkpt lat="45.23544" lon="6.11467">
        <ele>2521.6</ele>
        <time>2021-02-27T12:24:16Z</time>
      </trkpt>
      <trkpt lat="45.23542" lon="6.11474">
        <ele>2520.6</ele>
        <time>2021-02-27T12:24:17Z</time>
      </trkpt>
      <trkpt lat="45.2354" lon="6.11481">
        <ele>2519.8</ele>
        <time>2021-02-27T12:24:18Z</time>
      </trkpt>
      <trkpt lat="45.23539" lon="6.11486">
        <ele>2519.2</ele>
        <time>2021-02-27T12:24:19Z</time>
      </trkpt>
      <trkpt lat="45.23539" lon="6.11486">
        <ele>2518.6</ele>
        <time>2021-02-27T12:24:20Z</time>
      </trkpt>
      <trkpt lat="45.23539" lon="6.11499">
        <ele>2518.2</ele>
        <time>2021-02-27T12:24:21Z</time>
      </trkpt>
      <trkpt lat="45.23539" lon="6.11502">
        <ele>2517.6</ele>
        <time>2021-02-27T12:24:22Z</time>
      </trkpt>
      <trkpt lat="45.2354" lon="6.11507">
        <ele>2517.2</ele>
        <time>2021-02-27T12:24:23Z</time>
      </trkpt>
      <trkpt lat="45.2354" lon="6.11514">
        <ele>2516.6</ele>
        <time>2021-02-27T12:24:24Z</time>
      </trkpt>
      <trkpt lat="45.23541" lon="6.11521">
        <ele>2516.2</ele>
        <time>2021-02-27T12:24:25Z</time>
      </trkpt>
      <trkpt lat="45.23542" lon="6.11529">
        <ele>2515.6</ele>
        <time>2021-02-27T12:24:26Z</time>
      </trkpt>
      <trkpt lat="45.23544" lon="6.11536">
        <ele>2514.8</ele>
        <time>2021-02-27T12:24:27Z</time>
      </trkpt>
      <trkpt lat="45.23545" lon="6.11544">
        <ele>2514.2</ele>
        <time>2021-02-27T12:24:28Z</time>
      </trkpt>
      <trkpt lat="45.23546" lon="6.11554">
        <ele>2513.6</ele>
        <time>2021-02-27T12:24:29Z</time>
      </trkpt>
      <trkpt lat="45.23547" lon="6.11565">
        <ele>2512.6</ele>
        <time>2021-02-27T12:24:30Z</time>
      </trkpt>
      <trkpt lat="45.23547" lon="6.11576">
        <ele>2511.2</ele>
        <time>2021-02-27T12:24:31Z</time>
      </trkpt>
      <trkpt lat="45.23547" lon="6.11587">
        <ele>2510.6</ele>
        <time>2021-02-27T12:24:32Z</time>
      </trkpt>
      <trkpt lat="45.23547" lon="6.11597">
        <ele>2510</ele>
        <time>2021-02-27T12:24:33Z</time>
      </trkpt>
      <trkpt lat="45.23547" lon="6.11606">
        <ele>2509.2</ele>
        <time>2021-02-27T12:24:34Z</time>
      </trkpt>
      <trkpt lat="45.23547" lon="6.11613">
        <ele>2508</ele>
        <time>2021-02-27T12:24:35Z</time>
      </trkpt>
      <trkpt lat="45.23547" lon="6.11619">
        <ele>2507</ele>
        <time>2021-02-27T12:24:36Z</time>
      </trkpt>
      <trkpt lat="45.23547" lon="6.11625">
        <ele>2506</ele>
        <time>2021-02-27T12:24:37Z</time>
      </trkpt>
      <trkpt lat="45.23547" lon="6.1163">
        <ele>2505.2</ele>
        <time>2021-02-27T12:24:38Z</time>
      </trkpt>
      <trkpt lat="45.23546" lon="6.11636">
        <ele>2504</ele>
        <time>2021-02-27T12:24:39Z</time>
      </trkpt>
      <trkpt lat="45.23546" lon="6.11642">
        <ele>2503.8</ele>
        <time>2021-02-27T12:24:40Z</time>
      </trkpt>
      <trkpt lat="45.23545" lon="6.11647">
        <ele>2503.4</ele>
        <time>2021-02-27T12:24:41Z</time>
      </trkpt>
      <trkpt lat="45.23545" lon="6.11651">
        <ele>2503</ele>
        <time>2021-02-27T12:24:42Z</time>
      </trkpt>
      <trkpt lat="45.23545" lon="6.11655">
        <ele>2502.8</ele>
        <time>2021-02-27T12:24:43Z</time>
      </trkpt>
      <trkpt lat="45.23546" lon="6.11658">
        <ele>2502.6</ele>
        <time>2021-02-27T12:24:44Z</time>
      </trkpt>
      <trkpt lat="45.23546" lon="6.11661">
        <ele>2502.4</ele>
        <time>2021-02-27T12:24:45Z</time>
      </trkpt>
      <trkpt lat="45.23547" lon="6.11663">
        <ele>2502</ele>
        <time>2021-02-27T12:24:46Z</time>
      </trkpt>
      <trkpt lat="45.23547" lon="6.11663">
        <ele>2502.2</ele>
        <time>2021-02-27T12:24:47Z</time>
      </trkpt>
      <trkpt lat="45.23548" lon="6.11667">
        <ele>2502.2</ele>
        <time>2021-02-27T12:24:48Z</time>
      </trkpt>
      <trkpt lat="45.23548" lon="6.1167">
        <ele>2502.2</ele>
        <time>2021-02-27T12:24:49Z</time>
      </trkpt>
      <trkpt lat="45.23549" lon="6.11674">
        <ele>2502</ele>
        <time>2021-02-27T12:24:50Z</time>
      </trkpt>
      <trkpt lat="45.2355" lon="6.11678">
        <ele>2501.6</ele>
        <time>2021-02-27T12:24:51Z</time>
      </trkpt>
      <trkpt lat="45.23551" lon="6.11682">
        <ele>2501.8</ele>
        <time>2021-02-27T12:24:52Z</time>
      </trkpt>
      <trkpt lat="45.23552" lon="6.11686">
        <ele>2501.2</ele>
        <time>2021-02-27T12:24:53Z</time>
      </trkpt>
      <trkpt lat="45.23553" lon="6.11691">
        <ele>2501</ele>
        <time>2021-02-27T12:24:54Z</time>
      </trkpt>
      <trkpt lat="45.23554" lon="6.11697">
        <ele>2500.2</ele>
        <time>2021-02-27T12:24:55Z</time>
      </trkpt>
      <trkpt lat="45.23555" lon="6.11703">
        <ele>2500</ele>
        <time>2021-02-27T12:24:56Z</time>
      </trkpt>
      <trkpt lat="45.23556" lon="6.11709">
        <ele>2499.8</ele>
        <time>2021-02-27T12:24:57Z</time>
      </trkpt>
      <trkpt lat="45.23556" lon="6.11714">
        <ele>2499.2</ele>
        <time>2021-02-27T12:24:58Z</time>
      </trkpt>
      <trkpt lat="45.23557" lon="6.11718">
        <ele>2498.6</ele>
        <time>2021-02-27T12:24:59Z</time>
      </trkpt>
      <trkpt lat="45.23558" lon="6.11723">
        <ele>2498.6</ele>
        <time>2021-02-27T12:25:00Z</time>
      </trkpt>
      <trkpt lat="45.23558" lon="6.11727">
        <ele>2498.2</ele>
        <time>2021-02-27T12:25:01Z</time>
      </trkpt>
      <trkpt lat="45.23558" lon="6.1173">
        <ele>2498.2</ele>
        <time>2021-02-27T12:25:02Z</time>
      </trkpt>
      <trkpt lat="45.23558" lon="6.11735">
        <ele>2498.4</ele>
        <time>2021-02-27T12:25:03Z</time>
      </trkpt>
      <trkpt lat="45.23559" lon="6.11739">
        <ele>2498.2</ele>
        <time>2021-02-27T12:25:04Z</time>
      </trkpt>
      <trkpt lat="45.2356" lon="6.11743">
        <ele>2497.8</ele>
        <time>2021-02-27T12:25:05Z</time>
      </trkpt>
      <trkpt lat="45.23561" lon="6.11747">
        <ele>2497.4</ele>
        <time>2021-02-27T12:25:06Z</time>
      </trkpt>
      <trkpt lat="45.23563" lon="6.11751">
        <ele>2497</ele>
        <time>2021-02-27T12:25:07Z</time>
      </trkpt>
      <trkpt lat="45.23564" lon="6.11753">
        <ele>2496</ele>
        <time>2021-02-27T12:25:08Z</time>
      </trkpt>
      <trkpt lat="45.23566" lon="6.11755">
        <ele>2495.8</ele>
        <time>2021-02-27T12:25:09Z</time>
      </trkpt>
      <trkpt lat="45.23567" lon="6.11758">
        <ele>2496.2</ele>
        <time>2021-02-27T12:25:10Z</time>
      </trkpt>
      <trkpt lat="45.23569" lon="6.11763">
        <ele>2496.4</ele>
        <time>2021-02-27T12:25:11Z</time>
      </trkpt>
      <trkpt lat="45.23571" lon="6.11766">
        <ele>2496.4</ele>
        <time>2021-02-27T12:25:12Z</time>
      </trkpt>
      <trkpt lat="45.23573" lon="6.11771">
        <ele>2496.2</ele>
        <time>2021-02-27T12:25:13Z</time>
      </trkpt>
      <trkpt lat="45.23574" lon="6.11774">
        <ele>2496.4</ele>
        <time>2021-02-27T12:25:14Z</time>
      </trkpt>
      <trkpt lat="45.23575" lon="6.11778">
        <ele>2496.4</ele>
        <time>2021-02-27T12:25:15Z</time>
      </trkpt>
      <trkpt lat="45.23576" lon="6.11782">
        <ele>2496.4</ele>
        <time>2021-02-27T12:25:16Z</time>
      </trkpt>
      <trkpt lat="45.23577" lon="6.11785">
        <ele>2496</ele>
        <time>2021-02-27T12:25:17Z</time>
      </trkpt>
      <trkpt lat="45.23578" lon="6.1179">
        <ele>2496</ele>
        <time>2021-02-27T12:25:18Z</time>
      </trkpt>
      <trkpt lat="45.23579" lon="6.11794">
        <ele>2495.8</ele>
        <time>2021-02-27T12:25:19Z</time>
      </trkpt>
      <trkpt lat="45.2358" lon="6.11799">
        <ele>2495.6</ele>
        <time>2021-02-27T12:25:20Z</time>
      </trkpt>
      <trkpt lat="45.23581" lon="6.11803">
        <ele>2495.4</ele>
        <time>2021-02-27T12:25:21Z</time>
      </trkpt>
      <trkpt lat="45.23582" lon="6.11809">
        <ele>2495</ele>
        <time>2021-02-27T12:25:22Z</time>
      </trkpt>
      <trkpt lat="45.23584" lon="6.11815">
        <ele>2494.6</ele>
        <time>2021-02-27T12:25:23Z</time>
      </trkpt>
      <trkpt lat="45.23586" lon="6.11822">
        <ele>2494</ele>
        <time>2021-02-27T12:25:24Z</time>
      </trkpt>
      <trkpt lat="45.23588" lon="6.1183">
        <ele>2493.6</ele>
        <time>2021-02-27T12:25:25Z</time>
      </trkpt>
      <trkpt lat="45.23589" lon="6.11839">
        <ele>2493.2</ele>
        <time>2021-02-27T12:25:26Z</time>
      </trkpt>
      <trkpt lat="45.2359" lon="6.11849">
        <ele>2492.6</ele>
        <time>2021-02-27T12:25:27Z</time>
      </trkpt>
      <trkpt lat="45.23591" lon="6.11858">
        <ele>2491.8</ele>
        <time>2021-02-27T12:25:28Z</time>
      </trkpt>
      <trkpt lat="45.2359" lon="6.11866">
        <ele>2491</ele>
        <time>2021-02-27T12:25:29Z</time>
      </trkpt>
      <trkpt lat="45.23589" lon="6.11873">
        <ele>2490.4</ele>
        <time>2021-02-27T12:25:30Z</time>
      </trkpt>
      <trkpt lat="45.23588" lon="6.11878">
        <ele>2490</ele>
        <time>2021-02-27T12:25:31Z</time>
      </trkpt>
      <trkpt lat="45.23588" lon="6.11881">
        <ele>2489.8</ele>
        <time>2021-02-27T12:25:32Z</time>
      </trkpt>
      <trkpt lat="45.23587" lon="6.11883">
        <ele>2490</ele>
        <time>2021-02-27T12:25:33Z</time>
      </trkpt>
      <trkpt lat="45.23587" lon="6.11886">
        <ele>2490</ele>
        <time>2021-02-27T12:25:34Z</time>
      </trkpt>
      <trkpt lat="45.23587" lon="6.11889">
        <ele>2489.6</ele>
        <time>2021-02-27T12:25:35Z</time>
      </trkpt>
      <trkpt lat="45.23586" lon="6.11892">
        <ele>2490</ele>
        <time>2021-02-27T12:25:36Z</time>
      </trkpt>
      <trkpt lat="45.23586" lon="6.11892">
        <ele>2489.8</ele>
        <time>2021-02-27T12:25:37Z</time>
      </trkpt>
      <trkpt lat="45.23586" lon="6.11896">
        <ele>2490</ele>
        <time>2021-02-27T12:25:38Z</time>
      </trkpt>
      <trkpt lat="45.23586" lon="6.11896">
        <ele>2489.4</ele>
        <time>2021-02-27T12:25:39Z</time>
      </trkpt>
      <trkpt lat="45.23587" lon="6.11902">
        <ele>2489.6</ele>
        <time>2021-02-27T12:25:40Z</time>
      </trkpt>
      <trkpt lat="45.23587" lon="6.11905">
        <ele>2490</ele>
        <time>2021-02-27T12:25:41Z</time>
      </trkpt>
      <trkpt lat="45.23587" lon="6.11905">
        <ele>2490.4</ele>
        <time>2021-02-27T12:25:42Z</time>
      </trkpt>
      <trkpt lat="45.23588" lon="6.11914">
        <ele>2489.8</ele>
        <time>2021-02-27T12:25:43Z</time>
      </trkpt>
      <trkpt lat="45.23588" lon="6.11916">
        <ele>2490</ele>
        <time>2021-02-27T12:25:44Z</time>
      </trkpt>
      <trkpt lat="45.23588" lon="6.11922">
        <ele>2489.4</ele>
        <time>2021-02-27T12:25:45Z</time>
      </trkpt>
      <trkpt lat="45.23588" lon="6.11929">
        <ele>2488.6</ele>
        <time>2021-02-27T12:25:46Z</time>
      </trkpt>
      <trkpt lat="45.23588" lon="6.11935">
        <ele>2487.6</ele>
        <time>2021-02-27T12:25:47Z</time>
      </trkpt>
      <trkpt lat="45.23588" lon="6.11942">
        <ele>2487.2</ele>
        <time>2021-02-27T12:25:48Z</time>
      </trkpt>
      <trkpt lat="45.23588" lon="6.11948">
        <ele>2486.6</ele>
        <time>2021-02-27T12:25:49Z</time>
      </trkpt>
      <trkpt lat="45.23588" lon="6.11953">
        <ele>2486</ele>
        <time>2021-02-27T12:25:50Z</time>
      </trkpt>
      <trkpt lat="45.23588" lon="6.11957">
        <ele>2485.2</ele>
        <time>2021-02-27T12:25:51Z</time>
      </trkpt>
      <trkpt lat="45.23588" lon="6.11957">
        <ele>2485.2</ele>
        <time>2021-02-27T12:25:52Z</time>
      </trkpt>
      <trkpt lat="45.23587" lon="6.11961">
        <ele>2485.4</ele>
        <time>2021-02-27T12:25:53Z</time>
      </trkpt>
      <trkpt lat="45.23587" lon="6.11965">
        <ele>2485</ele>
        <time>2021-02-27T12:25:54Z</time>
      </trkpt>
      <trkpt lat="45.23587" lon="6.11969">
        <ele>2484.8</ele>
        <time>2021-02-27T12:25:55Z</time>
      </trkpt>
      <trkpt lat="45.23586" lon="6.11972">
        <ele>2485.6</ele>
        <time>2021-02-27T12:25:56Z</time>
      </trkpt>
      <trkpt lat="45.23586" lon="6.11977">
        <ele>2486</ele>
        <time>2021-02-27T12:25:57Z</time>
      </trkpt>
      <trkpt lat="45.23587" lon="6.11982">
        <ele>2485.6</ele>
        <time>2021-02-27T12:25:58Z</time>
      </trkpt>
      <trkpt lat="45.23587" lon="6.11986">
        <ele>2486</ele>
        <time>2021-02-27T12:25:59Z</time>
      </trkpt>
      <trkpt lat="45.23587" lon="6.11991">
        <ele>2486.2</ele>
        <time>2021-02-27T12:26:00Z</time>
      </trkpt>
      <trkpt lat="45.23588" lon="6.11996">
        <ele>2486.2</ele>
        <time>2021-02-27T12:26:01Z</time>
      </trkpt>
      <trkpt lat="45.23589" lon="6.12001">
        <ele>2486</ele>
        <time>2021-02-27T12:26:02Z</time>
      </trkpt>
      <trkpt lat="45.2359" lon="6.12007">
        <ele>2485.6</ele>
        <time>2021-02-27T12:26:03Z</time>
      </trkpt>
      <trkpt lat="45.2359" lon="6.12013">
        <ele>2485.4</ele>
        <time>2021-02-27T12:26:04Z</time>
      </trkpt>
      <trkpt lat="45.2359" lon="6.12018">
        <ele>2484.8</ele>
        <time>2021-02-27T12:26:05Z</time>
      </trkpt>
      <trkpt lat="45.2359" lon="6.12021">
        <ele>2484.2</ele>
        <time>2021-02-27T12:26:06Z</time>
      </trkpt>
      <trkpt lat="45.2359" lon="6.12024">
        <ele>2484</ele>
        <time>2021-02-27T12:26:07Z</time>
      </trkpt>
      <trkpt lat="45.2359" lon="6.12024">
        <ele>2484.2</ele>
        <time>2021-02-27T12:26:08Z</time>
      </trkpt>
      <trkpt lat="45.2359" lon="6.12028">
        <ele>2484</ele>
        <time>2021-02-27T12:26:09Z</time>
      </trkpt>
      <trkpt lat="45.2359" lon="6.12031">
        <ele>2483.8</ele>
        <time>2021-02-27T12:26:10Z</time>
      </trkpt>
      <trkpt lat="45.23591" lon="6.12034">
        <ele>2483.8</ele>
        <time>2021-02-27T12:26:11Z</time>
      </trkpt>
      <trkpt lat="45.23591" lon="6.12037">
        <ele>2483.6</ele>
        <time>2021-02-27T12:26:12Z</time>
      </trkpt>
      <trkpt lat="45.23591" lon="6.12041">
        <ele>2484</ele>
        <time>2021-02-27T12:26:13Z</time>
      </trkpt>
      <trkpt lat="45.23591" lon="6.12044">
        <ele>2484.2</ele>
        <time>2021-02-27T12:26:14Z</time>
      </trkpt>
      <trkpt lat="45.23591" lon="6.12049">
        <ele>2484.2</ele>
        <time>2021-02-27T12:26:15Z</time>
      </trkpt>
      <trkpt lat="45.23592" lon="6.12052">
        <ele>2484.2</ele>
        <time>2021-02-27T12:26:16Z</time>
      </trkpt>
      <trkpt lat="45.23593" lon="6.12055">
        <ele>2483.8</ele>
        <time>2021-02-27T12:26:17Z</time>
      </trkpt>
      <trkpt lat="45.23594" lon="6.12057">
        <ele>2483.2</ele>
        <time>2021-02-27T12:26:18Z</time>
      </trkpt>
      <trkpt lat="45.23594" lon="6.1206">
        <ele>2483.2</ele>
        <time>2021-02-27T12:26:19Z</time>
      </trkpt>
      <trkpt lat="45.23594" lon="6.1206">
        <ele>2483.4</ele>
        <time>2021-02-27T12:26:20Z</time>
      </trkpt>
      <trkpt lat="45.23596" lon="6.12064">
        <ele>2484</ele>
        <time>2021-02-27T12:26:21Z</time>
      </trkpt>
      <trkpt lat="45.23596" lon="6.12064">
        <ele>2484.2</ele>
        <time>2021-02-27T12:26:22Z</time>
      </trkpt>
      <trkpt lat="45.23597" lon="6.12069">
        <ele>2484.4</ele>
        <time>2021-02-27T12:26:23Z</time>
      </trkpt>
      <trkpt lat="45.23597" lon="6.12071">
        <ele>2484.4</ele>
        <time>2021-02-27T12:26:24Z</time>
      </trkpt>
      <trkpt lat="45.23598" lon="6.12074">
        <ele>2484.4</ele>
        <time>2021-02-27T12:26:25Z</time>
      </trkpt>
      <trkpt lat="45.236" lon="6.12076">
        <ele>2484.2</ele>
        <time>2021-02-27T12:26:26Z</time>
      </trkpt>
      <trkpt lat="45.23602" lon="6.12079">
        <ele>2484</ele>
        <time>2021-02-27T12:26:27Z</time>
      </trkpt>
      <trkpt lat="45.23604" lon="6.12082">
        <ele>2484.2</ele>
        <time>2021-02-27T12:26:28Z</time>
      </trkpt>
      <trkpt lat="45.23606" lon="6.12084">
        <ele>2484.2</ele>
        <time>2021-02-27T12:26:29Z</time>
      </trkpt>
      <trkpt lat="45.23608" lon="6.12087">
        <ele>2483.8</ele>
        <time>2021-02-27T12:26:30Z</time>
      </trkpt>
      <trkpt lat="45.23611" lon="6.12091">
        <ele>2484</ele>
        <time>2021-02-27T12:26:31Z</time>
      </trkpt>
      <trkpt lat="45.23614" lon="6.12096">
        <ele>2483.4</ele>
        <time>2021-02-27T12:26:32Z</time>
      </trkpt>
      <trkpt lat="45.23618" lon="6.12102">
        <ele>2482.8</ele>
        <time>2021-02-27T12:26:33Z</time>
      </trkpt>
      <trkpt lat="45.23622" lon="6.12109">
        <ele>2482.4</ele>
        <time>2021-02-27T12:26:34Z</time>
      </trkpt>
      <trkpt lat="45.23627" lon="6.12115">
        <ele>2481.6</ele>
        <time>2021-02-27T12:26:35Z</time>
      </trkpt>
      <trkpt lat="45.2363" lon="6.12121">
        <ele>2480.4</ele>
        <time>2021-02-27T12:26:36Z</time>
      </trkpt>
      <trkpt lat="45.23634" lon="6.12127">
        <ele>2479.2</ele>
        <time>2021-02-27T12:26:37Z</time>
      </trkpt>
      <trkpt lat="45.23636" lon="6.12133">
        <ele>2478</ele>
        <time>2021-02-27T12:26:38Z</time>
      </trkpt>
      <trkpt lat="45.23636" lon="6.12139">
        <ele>2477.4</ele>
        <time>2021-02-27T12:26:39Z</time>
      </trkpt>
      <trkpt lat="45.23633" lon="6.12142">
        <ele>2477.2</ele>
        <time>2021-02-27T12:26:40Z</time>
      </trkpt>
      <trkpt lat="45.23629" lon="6.12146">
        <ele>2475.6</ele>
        <time>2021-02-27T12:26:41Z</time>
      </trkpt>
      <trkpt lat="45.23627" lon="6.12153">
        <ele>2474.4</ele>
        <time>2021-02-27T12:26:42Z</time>
      </trkpt>
      <trkpt lat="45.23624" lon="6.12156">
        <ele>2472.4</ele>
        <time>2021-02-27T12:26:43Z</time>
      </trkpt>
      <trkpt lat="45.23619" lon="6.12155">
        <ele>2471.2</ele>
        <time>2021-02-27T12:26:44Z</time>
      </trkpt>
      <trkpt lat="45.23613" lon="6.12155">
        <ele>2469.4</ele>
        <time>2021-02-27T12:26:45Z</time>
      </trkpt>
      <trkpt lat="45.23606" lon="6.12155">
        <ele>2467.8</ele>
        <time>2021-02-27T12:26:46Z</time>
      </trkpt>
      <trkpt lat="45.23601" lon="6.12156">
        <ele>2466</ele>
        <time>2021-02-27T12:26:47Z</time>
      </trkpt>
      <trkpt lat="45.236" lon="6.12158">
        <ele>2463.8</ele>
        <time>2021-02-27T12:26:48Z</time>
      </trkpt>
      <trkpt lat="45.23604" lon="6.12163">
        <ele>2462.8</ele>
        <time>2021-02-27T12:26:49Z</time>
      </trkpt>
      <trkpt lat="45.23609" lon="6.12169">
        <ele>2461.4</ele>
        <time>2021-02-27T12:26:50Z</time>
      </trkpt>
      <trkpt lat="45.23614" lon="6.12175">
        <ele>2460</ele>
        <time>2021-02-27T12:26:51Z</time>
      </trkpt>
      <trkpt lat="45.23618" lon="6.1218">
        <ele>2458.6</ele>
        <time>2021-02-27T12:26:52Z</time>
      </trkpt>
      <trkpt lat="45.23618" lon="6.1218">
        <ele>2457.4</ele>
        <time>2021-02-27T12:26:53Z</time>
      </trkpt>
      <trkpt lat="45.23617" lon="6.12184">
        <ele>2456.4</ele>
        <time>2021-02-27T12:26:54Z</time>
      </trkpt>
      <trkpt lat="45.23616" lon="6.12188">
        <ele>2455.2</ele>
        <time>2021-02-27T12:26:55Z</time>
      </trkpt>
      <trkpt lat="45.23615" lon="6.12192">
        <ele>2454.2</ele>
        <time>2021-02-27T12:26:56Z</time>
      </trkpt>
      <trkpt lat="45.23614" lon="6.12196">
        <ele>2452.6</ele>
        <time>2021-02-27T12:26:57Z</time>
      </trkpt>
      <trkpt lat="45.23614" lon="6.12196">
        <ele>2450.8</ele>
        <time>2021-02-27T12:26:58Z</time>
      </trkpt>
      <trkpt lat="45.23608" lon="6.122">
        <ele>2449.6</ele>
        <time>2021-02-27T12:26:59Z</time>
      </trkpt>
      <trkpt lat="45.23608" lon="6.122">
        <ele>2447.6</ele>
        <time>2021-02-27T12:27:00Z</time>
      </trkpt>
      <trkpt lat="45.23601" lon="6.12206">
        <ele>2446.2</ele>
        <time>2021-02-27T12:27:01Z</time>
      </trkpt>
      <trkpt lat="45.23601" lon="6.12208">
        <ele>2444.8</ele>
        <time>2021-02-27T12:27:02Z</time>
      </trkpt>
      <trkpt lat="45.23601" lon="6.12208">
        <ele>2443.6</ele>
        <time>2021-02-27T12:27:03Z</time>
      </trkpt>
      <trkpt lat="45.23606" lon="6.1223">
        <ele>2442</ele>
        <time>2021-02-27T12:27:04Z</time>
      </trkpt>
      <trkpt lat="45.23605" lon="6.12236">
        <ele>2440.2</ele>
        <time>2021-02-27T12:27:05Z</time>
      </trkpt>
      <trkpt lat="45.23604" lon="6.12254">
        <ele>2438.6</ele>
        <time>2021-02-27T12:27:06Z</time>
      </trkpt>
      <trkpt lat="45.23604" lon="6.1226">
        <ele>2436.4</ele>
        <time>2021-02-27T12:27:07Z</time>
      </trkpt>
      <trkpt lat="45.23604" lon="6.12272">
        <ele>2434.4</ele>
        <time>2021-02-27T12:27:08Z</time>
      </trkpt>
      <trkpt lat="45.23605" lon="6.12285">
        <ele>2433</ele>
        <time>2021-02-27T12:27:09Z</time>
      </trkpt>
      <trkpt lat="45.23606" lon="6.12298">
        <ele>2431.2</ele>
        <time>2021-02-27T12:27:10Z</time>
      </trkpt>
      <trkpt lat="45.23606" lon="6.12298">
        <ele>2430</ele>
        <time>2021-02-27T12:27:11Z</time>
      </trkpt>
      <trkpt lat="45.23603" lon="6.1232">
        <ele>2428.4</ele>
        <time>2021-02-27T12:27:12Z</time>
      </trkpt>
      <trkpt lat="45.23603" lon="6.12323">
        <ele>2426.6</ele>
        <time>2021-02-27T12:27:13Z</time>
      </trkpt>
      <trkpt lat="45.23602" lon="6.12329">
        <ele>2425</ele>
        <time>2021-02-27T12:27:14Z</time>
      </trkpt>
      <trkpt lat="45.23604" lon="6.12337">
        <ele>2424.2</ele>
        <time>2021-02-27T12:27:15Z</time>
      </trkpt>
      <trkpt lat="45.23608" lon="6.12346">
        <ele>2423</ele>
        <time>2021-02-27T12:27:16Z</time>
      </trkpt>
      <trkpt lat="45.23616" lon="6.12356">
        <ele>2421.2</ele>
        <time>2021-02-27T12:27:17Z</time>
      </trkpt>
      <trkpt lat="45.23624" lon="6.12364">
        <ele>2419.6</ele>
        <time>2021-02-27T12:27:18Z</time>
      </trkpt>
      <trkpt lat="45.23633" lon="6.12371">
        <ele>2417.6</ele>
        <time>2021-02-27T12:27:19Z</time>
      </trkpt>
      <trkpt lat="45.23642" lon="6.12374">
        <ele>2415.8</ele>
        <time>2021-02-27T12:27:20Z</time>
      </trkpt>
      <trkpt lat="45.23651" lon="6.12379">
        <ele>2414.4</ele>
        <time>2021-02-27T12:27:21Z</time>
      </trkpt>
      <trkpt lat="45.2366" lon="6.12384">
        <ele>2413</ele>
        <time>2021-02-27T12:27:22Z</time>
      </trkpt>
      <trkpt lat="45.23667" lon="6.1239">
        <ele>2411.4</ele>
        <time>2021-02-27T12:27:23Z</time>
      </trkpt>
      <trkpt lat="45.23673" lon="6.12397">
        <ele>2409.6</ele>
        <time>2021-02-27T12:27:24Z</time>
      </trkpt>
      <trkpt lat="45.23677" lon="6.12403">
        <ele>2408.8</ele>
        <time>2021-02-27T12:27:25Z</time>
      </trkpt>
      <trkpt lat="45.23681" lon="6.1241">
        <ele>2408.2</ele>
        <time>2021-02-27T12:27:26Z</time>
      </trkpt>
      <trkpt lat="45.23684" lon="6.12418">
        <ele>2406.8</ele>
        <time>2021-02-27T12:27:27Z</time>
      </trkpt>
      <trkpt lat="45.23687" lon="6.12426">
        <ele>2406</ele>
        <time>2021-02-27T12:27:28Z</time>
      </trkpt>
      <trkpt lat="45.2369" lon="6.12432">
        <ele>2405</ele>
        <time>2021-02-27T12:27:29Z</time>
      </trkpt>
      <trkpt lat="45.23692" lon="6.12439">
        <ele>2404</ele>
        <time>2021-02-27T12:27:30Z</time>
      </trkpt>
      <trkpt lat="45.23694" lon="6.12445">
        <ele>2403.6</ele>
        <time>2021-02-27T12:27:31Z</time>
      </trkpt>
      <trkpt lat="45.23697" lon="6.12451">
        <ele>2403.2</ele>
        <time>2021-02-27T12:27:32Z</time>
      </trkpt>
      <trkpt lat="45.237" lon="6.12459">
        <ele>2402.6</ele>
        <time>2021-02-27T12:27:33Z</time>
      </trkpt>
      <trkpt lat="45.23703" lon="6.12467">
        <ele>2402</ele>
        <time>2021-02-27T12:27:34Z</time>
      </trkpt>
      <trkpt lat="45.23706" lon="6.12476">
        <ele>2401.4</ele>
        <time>2021-02-27T12:27:35Z</time>
      </trkpt>
      <trkpt lat="45.23708" lon="6.12485">
        <ele>2400.6</ele>
        <time>2021-02-27T12:27:36Z</time>
      </trkpt>
      <trkpt lat="45.2371" lon="6.12494">
        <ele>2399.8</ele>
        <time>2021-02-27T12:27:37Z</time>
      </trkpt>
      <trkpt lat="45.23711" lon="6.12503">
        <ele>2399.2</ele>
        <time>2021-02-27T12:27:38Z</time>
      </trkpt>
      <trkpt lat="45.23712" lon="6.12511">
        <ele>2398.4</ele>
        <time>2021-02-27T12:27:39Z</time>
      </trkpt>
      <trkpt lat="45.23713" lon="6.12517">
        <ele>2398</ele>
        <time>2021-02-27T12:27:40Z</time>
      </trkpt>
      <trkpt lat="45.23713" lon="6.12521">
        <ele>2397.6</ele>
        <time>2021-02-27T12:27:41Z</time>
      </trkpt>
      <trkpt lat="45.23713" lon="6.12526">
        <ele>2397.2</ele>
        <time>2021-02-27T12:27:42Z</time>
      </trkpt>
      <trkpt lat="45.23713" lon="6.12531">
        <ele>2397.2</ele>
        <time>2021-02-27T12:27:43Z</time>
      </trkpt>
      <trkpt lat="45.23713" lon="6.12537">
        <ele>2397</ele>
        <time>2021-02-27T12:27:44Z</time>
      </trkpt>
      <trkpt lat="45.23713" lon="6.12544">
        <ele>2396.8</ele>
        <time>2021-02-27T12:27:45Z</time>
      </trkpt>
      <trkpt lat="45.23713" lon="6.12553">
        <ele>2396.4</ele>
        <time>2021-02-27T12:27:46Z</time>
      </trkpt>
      <trkpt lat="45.23712" lon="6.12564">
        <ele>2396</ele>
        <time>2021-02-27T12:27:47Z</time>
      </trkpt>
      <trkpt lat="45.23711" lon="6.12573">
        <ele>2395.4</ele>
        <time>2021-02-27T12:27:48Z</time>
      </trkpt>
      <trkpt lat="45.2371" lon="6.12582">
        <ele>2394.6</ele>
        <time>2021-02-27T12:27:49Z</time>
      </trkpt>
      <trkpt lat="45.23711" lon="6.12589">
        <ele>2393.8</ele>
        <time>2021-02-27T12:27:50Z</time>
      </trkpt>
      <trkpt lat="45.23712" lon="6.12593">
        <ele>2393</ele>
        <time>2021-02-27T12:27:51Z</time>
      </trkpt>
      <trkpt lat="45.23712" lon="6.12597">
        <ele>2392.6</ele>
        <time>2021-02-27T12:27:52Z</time>
      </trkpt>
      <trkpt lat="45.23711" lon="6.12603">
        <ele>2392.4</ele>
        <time>2021-02-27T12:27:53Z</time>
      </trkpt>
      <trkpt lat="45.23708" lon="6.12608">
        <ele>2392.2</ele>
        <time>2021-02-27T12:27:54Z</time>
      </trkpt>
      <trkpt lat="45.23706" lon="6.12612">
        <ele>2392.2</ele>
        <time>2021-02-27T12:27:55Z</time>
      </trkpt>
      <trkpt lat="45.23703" lon="6.12618">
        <ele>2391.8</ele>
        <time>2021-02-27T12:27:56Z</time>
      </trkpt>
      <trkpt lat="45.23699" lon="6.12623">
        <ele>2391.2</ele>
        <time>2021-02-27T12:27:57Z</time>
      </trkpt>
      <trkpt lat="45.23695" lon="6.12629">
        <ele>2390.8</ele>
        <time>2021-02-27T12:27:58Z</time>
      </trkpt>
      <trkpt lat="45.23692" lon="6.12634">
        <ele>2390.2</ele>
        <time>2021-02-27T12:27:59Z</time>
      </trkpt>
      <trkpt lat="45.2369" lon="6.12638">
        <ele>2390</ele>
        <time>2021-02-27T12:28:00Z</time>
      </trkpt>
      <trkpt lat="45.23688" lon="6.12641">
        <ele>2389.8</ele>
        <time>2021-02-27T12:28:01Z</time>
      </trkpt>
      <trkpt lat="45.23686" lon="6.12643">
        <ele>2389.4</ele>
        <time>2021-02-27T12:28:02Z</time>
      </trkpt>
      <trkpt lat="45.23685" lon="6.12646">
        <ele>2389</ele>
        <time>2021-02-27T12:28:03Z</time>
      </trkpt>
      <trkpt lat="45.23682" lon="6.12651">
        <ele>2388.8</ele>
        <time>2021-02-27T12:28:04Z</time>
      </trkpt>
      <trkpt lat="45.2368" lon="6.12656">
        <ele>2388.6</ele>
        <time>2021-02-27T12:28:05Z</time>
      </trkpt>
      <trkpt lat="45.23678" lon="6.12661">
        <ele>2388.4</ele>
        <time>2021-02-27T12:28:06Z</time>
      </trkpt>
      <trkpt lat="45.23675" lon="6.12666">
        <ele>2388.2</ele>
        <time>2021-02-27T12:28:07Z</time>
      </trkpt>
      <trkpt lat="45.23673" lon="6.12671">
        <ele>2388</ele>
        <time>2021-02-27T12:28:08Z</time>
      </trkpt>
      <trkpt lat="45.23673" lon="6.12674">
        <ele>2387.6</ele>
        <time>2021-02-27T12:28:09Z</time>
      </trkpt>
      <trkpt lat="45.23673" lon="6.12674">
        <ele>2387.2</ele>
        <time>2021-02-27T12:28:10Z</time>
      </trkpt>
      <trkpt lat="45.23673" lon="6.12674">
        <ele>2386.8</ele>
        <time>2021-02-27T12:28:11Z</time>
      </trkpt>
      <trkpt lat="45.23673" lon="6.12674">
        <ele>2386.8</ele>
        <time>2021-02-27T12:28:12Z</time>
      </trkpt>
      <trkpt lat="45.23673" lon="6.12674">
        <ele>2387.4</ele>
        <time>2021-02-27T12:28:13Z</time>
      </trkpt>
      <trkpt lat="45.23673" lon="6.12674">
        <ele>2387.4</ele>
        <time>2021-02-27T12:28:14Z</time>
      </trkpt>
      <trkpt lat="45.23673" lon="6.12674">
        <ele>2387.6</ele>
        <time>2021-02-27T12:28:15Z</time>
      </trkpt>
      <trkpt lat="45.23673" lon="6.12674">
        <ele>2387.8</ele>
        <time>2021-02-27T12:28:16Z</time>
      </trkpt>
      <trkpt lat="45.23673" lon="6.12674">
        <ele>2388</ele>
        <time>2021-02-27T12:28:17Z</time>
      </trkpt>
      <trkpt lat="45.23673" lon="6.12674">
        <ele>2388</ele>
        <time>2021-02-27T12:28:18Z</time>
      </trkpt>
      <trkpt lat="45.23673" lon="6.12674">
        <ele>2388.2</ele>
        <time>2021-02-27T12:28:19Z</time>
      </trkpt>
      <trkpt lat="45.23673" lon="6.12674">
        <ele>2388.2</ele>
        <time>2021-02-27T12:28:20Z</time>
      </trkpt>
      <trkpt lat="45.23673" lon="6.12674">
        <ele>2388.6</ele>
        <time>2021-02-27T12:28:21Z</time>
      </trkpt>
      <trkpt lat="45.23673" lon="6.12674">
        <ele>2388</ele>
        <time>2021-02-27T12:28:22Z</time>
      </trkpt>
      <trkpt lat="45.23673" lon="6.12674">
        <ele>2387.8</ele>
        <time>2021-02-27T12:28:23Z</time>
      </trkpt>
      <trkpt lat="45.23673" lon="6.12674">
        <ele>2388</ele>
        <time>2021-02-27T12:28:24Z</time>
      </trkpt>
      <trkpt lat="45.23673" lon="6.12674">
        <ele>2388.2</ele>
        <time>2021-02-27T12:28:25Z</time>
      </trkpt>
      <trkpt lat="45.23673" lon="6.12674">
        <ele>2388.2</ele>
        <time>2021-02-27T12:28:26Z</time>
      </trkpt>
      <trkpt lat="45.23673" lon="6.12674">
        <ele>2388.2</ele>
        <time>2021-02-27T12:28:27Z</time>
      </trkpt>
      <trkpt lat="45.23673" lon="6.12674">
        <ele>2388.2</ele>
        <time>2021-02-27T12:28:28Z</time>
      </trkpt>
      <trkpt lat="45.23673" lon="6.12674">
        <ele>2388.2</ele>
        <time>2021-02-27T12:28:29Z</time>
      </trkpt>
      <trkpt lat="45.23673" lon="6.12674">
        <ele>2388.4</ele>
        <time>2021-02-27T12:28:30Z</time>
      </trkpt>
      <trkpt lat="45.23673" lon="6.12674">
        <ele>2388.4</ele>
        <time>2021-02-27T12:28:31Z</time>
      </trkpt>
      <trkpt lat="45.23673" lon="6.12674">
        <ele>2388.2</ele>
        <time>2021-02-27T12:28:32Z</time>
      </trkpt>
      <trkpt lat="45.23673" lon="6.12674">
        <ele>2388.4</ele>
        <time>2021-02-27T12:28:33Z</time>
      </trkpt>
      <trkpt lat="45.23675" lon="6.12672">
        <ele>2388.6</ele>
        <time>2021-02-27T12:28:34Z</time>
      </trkpt>
      <trkpt lat="45.23675" lon="6.12672">
        <ele>2388.6</ele>
        <time>2021-02-27T12:28:35Z</time>
      </trkpt>
      <trkpt lat="45.23675" lon="6.12672">
        <ele>2389.4</ele>
        <time>2021-02-27T12:28:36Z</time>
      </trkpt>
      <trkpt lat="45.23674" lon="6.12673">
        <ele>2389.6</ele>
        <time>2021-02-27T12:28:37Z</time>
      </trkpt>
      <trkpt lat="45.23674" lon="6.12673">
        <ele>2389.8</ele>
        <time>2021-02-27T12:28:38Z</time>
      </trkpt>
      <trkpt lat="45.23674" lon="6.12673">
        <ele>2390</ele>
        <time>2021-02-27T12:28:39Z</time>
      </trkpt>
      <trkpt lat="45.23673" lon="6.12673">
        <ele>2389.8</ele>
        <time>2021-02-27T12:28:40Z</time>
      </trkpt>
      <trkpt lat="45.23673" lon="6.12674">
        <ele>2389.8</ele>
        <time>2021-02-27T12:28:41Z</time>
      </trkpt>
      <trkpt lat="45.23673" lon="6.12674">
        <ele>2389.8</ele>
        <time>2021-02-27T12:28:42Z</time>
      </trkpt>
      <trkpt lat="45.23672" lon="6.12674">
        <ele>2389.8</ele>
        <time>2021-02-27T12:28:43Z</time>
      </trkpt>
      <trkpt lat="45.23672" lon="6.12675">
        <ele>2389.8</ele>
        <time>2021-02-27T12:28:44Z</time>
      </trkpt>
      <trkpt lat="45.23672" lon="6.12675">
        <ele>2389.8</ele>
        <time>2021-02-27T12:28:45Z</time>
      </trkpt>
      <trkpt lat="45.23671" lon="6.12675">
        <ele>2389.8</ele>
        <time>2021-02-27T12:28:46Z</time>
      </trkpt>
      <trkpt lat="45.23671" lon="6.12676">
        <ele>2389.8</ele>
        <time>2021-02-27T12:28:47Z</time>
      </trkpt>
      <trkpt lat="45.23671" lon="6.12676">
        <ele>2389.4</ele>
        <time>2021-02-27T12:28:48Z</time>
      </trkpt>
      <trkpt lat="45.2367" lon="6.12676">
        <ele>2389.8</ele>
        <time>2021-02-27T12:28:49Z</time>
      </trkpt>
      <trkpt lat="45.2367" lon="6.12677">
        <ele>2389.8</ele>
        <time>2021-02-27T12:28:50Z</time>
      </trkpt>
      <trkpt lat="45.2367" lon="6.12677">
        <ele>2389.6</ele>
        <time>2021-02-27T12:28:51Z</time>
      </trkpt>
      <trkpt lat="45.23669" lon="6.12677">
        <ele>2389.8</ele>
        <time>2021-02-27T12:28:52Z</time>
      </trkpt>
      <trkpt lat="45.23669" lon="6.12678">
        <ele>2389.4</ele>
        <time>2021-02-27T12:28:53Z</time>
      </trkpt>
      <trkpt lat="45.23669" lon="6.12678">
        <ele>2389.2</ele>
        <time>2021-02-27T12:28:54Z</time>
      </trkpt>
      <trkpt lat="45.23668" lon="6.12678">
        <ele>2389.2</ele>
        <time>2021-02-27T12:28:55Z</time>
      </trkpt>
      <trkpt lat="45.23668" lon="6.12678">
        <ele>2388.6</ele>
        <time>2021-02-27T12:28:56Z</time>
      </trkpt>
      <trkpt lat="45.23668" lon="6.12679">
        <ele>2388.4</ele>
        <time>2021-02-27T12:28:57Z</time>
      </trkpt>
      <trkpt lat="45.23663" lon="6.12678">
        <ele>2388</ele>
        <time>2021-02-27T12:28:58Z</time>
      </trkpt>
      <trkpt lat="45.23663" lon="6.12678">
        <ele>2387</ele>
        <time>2021-02-27T12:28:59Z</time>
      </trkpt>
      <trkpt lat="45.23651" lon="6.12676">
        <ele>2385.8</ele>
        <time>2021-02-27T12:29:00Z</time>
      </trkpt>
      <trkpt lat="45.23649" lon="6.12678">
        <ele>2384.6</ele>
        <time>2021-02-27T12:29:01Z</time>
      </trkpt>
      <trkpt lat="45.23642" lon="6.12678">
        <ele>2383</ele>
        <time>2021-02-27T12:29:02Z</time>
      </trkpt>
      <trkpt lat="45.23636" lon="6.12678">
        <ele>2381.2</ele>
        <time>2021-02-27T12:29:03Z</time>
      </trkpt>
      <trkpt lat="45.23636" lon="6.12678">
        <ele>2379</ele>
        <time>2021-02-27T12:29:04Z</time>
      </trkpt>
      <trkpt lat="45.23628" lon="6.12699">
        <ele>2376.4</ele>
        <time>2021-02-27T12:29:05Z</time>
      </trkpt>
      <trkpt lat="45.23627" lon="6.12702">
        <ele>2373.8</ele>
        <time>2021-02-27T12:29:06Z</time>
      </trkpt>
      <trkpt lat="45.23626" lon="6.12708">
        <ele>2371.2</ele>
        <time>2021-02-27T12:29:07Z</time>
      </trkpt>
      <trkpt lat="45.23623" lon="6.1273">
        <ele>2369</ele>
        <time>2021-02-27T12:29:08Z</time>
      </trkpt>
      <trkpt lat="45.23622" lon="6.12734">
        <ele>2367.6</ele>
        <time>2021-02-27T12:29:09Z</time>
      </trkpt>
      <trkpt lat="45.23621" lon="6.12742">
        <ele>2366.4</ele>
        <time>2021-02-27T12:29:10Z</time>
      </trkpt>
      <trkpt lat="45.2362" lon="6.1275">
        <ele>2365.4</ele>
        <time>2021-02-27T12:29:11Z</time>
      </trkpt>
      <trkpt lat="45.2362" lon="6.12758">
        <ele>2364.4</ele>
        <time>2021-02-27T12:29:12Z</time>
      </trkpt>
      <trkpt lat="45.23617" lon="6.12765">
        <ele>2363.4</ele>
        <time>2021-02-27T12:29:13Z</time>
      </trkpt>
      <trkpt lat="45.23611" lon="6.12769">
        <ele>2362.8</ele>
        <time>2021-02-27T12:29:14Z</time>
      </trkpt>
      <trkpt lat="45.23602" lon="6.12771">
        <ele>2362.2</ele>
        <time>2021-02-27T12:29:15Z</time>
      </trkpt>
      <trkpt lat="45.23592" lon="6.12773">
        <ele>2361.2</ele>
        <time>2021-02-27T12:29:16Z</time>
      </trkpt>
      <trkpt lat="45.23582" lon="6.12773">
        <ele>2359.8</ele>
        <time>2021-02-27T12:29:17Z</time>
      </trkpt>
      <trkpt lat="45.23573" lon="6.12772">
        <ele>2358.2</ele>
        <time>2021-02-27T12:29:18Z</time>
      </trkpt>
      <trkpt lat="45.23573" lon="6.12772">
        <ele>2356.6</ele>
        <time>2021-02-27T12:29:19Z</time>
      </trkpt>
      <trkpt lat="45.23552" lon="6.12778">
        <ele>2355</ele>
        <time>2021-02-27T12:29:20Z</time>
      </trkpt>
      <trkpt lat="45.23548" lon="6.12778">
        <ele>2353</ele>
        <time>2021-02-27T12:29:21Z</time>
      </trkpt>
      <trkpt lat="45.23541" lon="6.1278">
        <ele>2351</ele>
        <time>2021-02-27T12:29:22Z</time>
      </trkpt>
      <trkpt lat="45.23541" lon="6.1278">
        <ele>2349.2</ele>
        <time>2021-02-27T12:29:23Z</time>
      </trkpt>
      <trkpt lat="45.2354" lon="6.1278">
        <ele>2348.2</ele>
        <time>2021-02-27T12:29:24Z</time>
      </trkpt>
      <trkpt lat="45.2354" lon="6.1278">
        <ele>2347.2</ele>
        <time>2021-02-27T12:29:25Z</time>
      </trkpt>
      <trkpt lat="45.2354" lon="6.1278">
        <ele>2346.4</ele>
        <time>2021-02-27T12:29:26Z</time>
      </trkpt>
      <trkpt lat="45.23539" lon="6.1278">
        <ele>2344.8</ele>
        <time>2021-02-27T12:29:27Z</time>
      </trkpt>
      <trkpt lat="45.23539" lon="6.1278">
        <ele>2344.4</ele>
        <time>2021-02-27T12:29:28Z</time>
      </trkpt>
      <trkpt lat="45.23538" lon="6.1278">
        <ele>2343.6</ele>
        <time>2021-02-27T12:29:29Z</time>
      </trkpt>
      <trkpt lat="45.23538" lon="6.1278">
        <ele>2343.2</ele>
        <time>2021-02-27T12:29:30Z</time>
      </trkpt>
      <trkpt lat="45.23538" lon="6.1278">
        <ele>2342.8</ele>
        <time>2021-02-27T12:29:31Z</time>
      </trkpt>
      <trkpt lat="45.23537" lon="6.1278">
        <ele>2342.6</ele>
        <time>2021-02-27T12:29:32Z</time>
      </trkpt>
      <trkpt lat="45.23537" lon="6.1278">
        <ele>2342</ele>
        <time>2021-02-27T12:29:33Z</time>
      </trkpt>
      <trkpt lat="45.23537" lon="6.12781">
        <ele>2342</ele>
        <time>2021-02-27T12:29:34Z</time>
      </trkpt>
      <trkpt lat="45.23536" lon="6.12781">
        <ele>2341.8</ele>
        <time>2021-02-27T12:29:35Z</time>
      </trkpt>
      <trkpt lat="45.23536" lon="6.12781">
        <ele>2341.6</ele>
        <time>2021-02-27T12:29:36Z</time>
      </trkpt>
      <trkpt lat="45.23536" lon="6.12781">
        <ele>2341.4</ele>
        <time>2021-02-27T12:29:37Z</time>
      </trkpt>
      <trkpt lat="45.23535" lon="6.12781">
        <ele>2341.6</ele>
        <time>2021-02-27T12:29:38Z</time>
      </trkpt>
      <trkpt lat="45.23535" lon="6.12781">
        <ele>2341.6</ele>
        <time>2021-02-27T12:29:39Z</time>
      </trkpt>
      <trkpt lat="45.23535" lon="6.12781">
        <ele>2341.6</ele>
        <time>2021-02-27T12:29:40Z</time>
      </trkpt>
      <trkpt lat="45.23534" lon="6.12781">
        <ele>2341.4</ele>
        <time>2021-02-27T12:29:41Z</time>
      </trkpt>
      <trkpt lat="45.23534" lon="6.12781">
        <ele>2341.4</ele>
        <time>2021-02-27T12:29:42Z</time>
      </trkpt>
      <trkpt lat="45.23534" lon="6.12781">
        <ele>2341.4</ele>
        <time>2021-02-27T12:29:43Z</time>
      </trkpt>
      <trkpt lat="45.23533" lon="6.12781">
        <ele>2341</ele>
        <time>2021-02-27T12:29:44Z</time>
      </trkpt>
      <trkpt lat="45.23533" lon="6.12782">
        <ele>2340.8</ele>
        <time>2021-02-27T12:29:45Z</time>
      </trkpt>
      <trkpt lat="45.23533" lon="6.12782">
        <ele>2340.8</ele>
        <time>2021-02-27T12:29:46Z</time>
      </trkpt>
      <trkpt lat="45.23532" lon="6.12782">
        <ele>2340.6</ele>
        <time>2021-02-27T12:29:47Z</time>
      </trkpt>
      <trkpt lat="45.23532" lon="6.12782">
        <ele>2340.4</ele>
        <time>2021-02-27T12:29:48Z</time>
      </trkpt>
      <trkpt lat="45.23532" lon="6.12782">
        <ele>2340.6</ele>
        <time>2021-02-27T12:29:49Z</time>
      </trkpt>
      <trkpt lat="45.23531" lon="6.12782">
        <ele>2340.4</ele>
        <time>2021-02-27T12:29:50Z</time>
      </trkpt>
      <trkpt lat="45.23531" lon="6.12782">
        <ele>2340.6</ele>
        <time>2021-02-27T12:29:51Z</time>
      </trkpt>
      <trkpt lat="45.23531" lon="6.12782">
        <ele>2340.8</ele>
        <time>2021-02-27T12:29:52Z</time>
      </trkpt>
      <trkpt lat="45.2353" lon="6.12782">
        <ele>2341</ele>
        <time>2021-02-27T12:29:53Z</time>
      </trkpt>
      <trkpt lat="45.2353" lon="6.12782">
        <ele>2340.2</ele>
        <time>2021-02-27T12:29:54Z</time>
      </trkpt>
      <trkpt lat="45.2353" lon="6.12782">
        <ele>2340</ele>
        <time>2021-02-27T12:29:55Z</time>
      </trkpt>
      <trkpt lat="45.23529" lon="6.12782">
        <ele>2338.6</ele>
        <time>2021-02-27T12:29:56Z</time>
      </trkpt>
      <trkpt lat="45.23527" lon="6.1278">
        <ele>2337.6</ele>
        <time>2021-02-27T12:29:57Z</time>
      </trkpt>
      <trkpt lat="45.23524" lon="6.12778">
        <ele>2335.6</ele>
        <time>2021-02-27T12:29:58Z</time>
      </trkpt>
      <trkpt lat="45.23522" lon="6.12776">
        <ele>2333.8</ele>
        <time>2021-02-27T12:29:59Z</time>
      </trkpt>
      <trkpt lat="45.23512" lon="6.12765">
        <ele>2332.4</ele>
        <time>2021-02-27T12:30:00Z</time>
      </trkpt>
      <trkpt lat="45.23509" lon="6.12766">
        <ele>2331.2</ele>
        <time>2021-02-27T12:30:01Z</time>
      </trkpt>
      <trkpt lat="45.235" lon="6.12769">
        <ele>2329</ele>
        <time>2021-02-27T12:30:02Z</time>
      </trkpt>
      <trkpt lat="45.23497" lon="6.12769">
        <ele>2326.8</ele>
        <time>2021-02-27T12:30:03Z</time>
      </trkpt>
      <trkpt lat="45.23488" lon="6.12769">
        <ele>2325</ele>
        <time>2021-02-27T12:30:04Z</time>
      </trkpt>
      <trkpt lat="45.23485" lon="6.12771">
        <ele>2322</ele>
        <time>2021-02-27T12:30:05Z</time>
      </trkpt>
      <trkpt lat="45.23476" lon="6.12776">
        <ele>2319.4</ele>
        <time>2021-02-27T12:30:06Z</time>
      </trkpt>
      <trkpt lat="45.23474" lon="6.12779">
        <ele>2316</ele>
        <time>2021-02-27T12:30:07Z</time>
      </trkpt>
      <trkpt lat="45.2347" lon="6.12785">
        <ele>2313</ele>
        <time>2021-02-27T12:30:08Z</time>
      </trkpt>
      <trkpt lat="45.2347" lon="6.12785">
        <ele>2310</ele>
        <time>2021-02-27T12:30:09Z</time>
      </trkpt>
      <trkpt lat="45.23466" lon="6.12785">
        <ele>2307.4</ele>
        <time>2021-02-27T12:30:10Z</time>
      </trkpt>
      <trkpt lat="45.23463" lon="6.12785">
        <ele>2305.2</ele>
        <time>2021-02-27T12:30:11Z</time>
      </trkpt>
      <trkpt lat="45.2346" lon="6.12785">
        <ele>2302.8</ele>
        <time>2021-02-27T12:30:12Z</time>
      </trkpt>
      <trkpt lat="45.23451" lon="6.12777">
        <ele>2301.4</ele>
        <time>2021-02-27T12:30:13Z</time>
      </trkpt>
      <trkpt lat="45.23451" lon="6.12777">
        <ele>2298.6</ele>
        <time>2021-02-27T12:30:14Z</time>
      </trkpt>
      <trkpt lat="45.23432" lon="6.12786">
        <ele>2296</ele>
        <time>2021-02-27T12:30:15Z</time>
      </trkpt>
      <trkpt lat="45.23429" lon="6.12789">
        <ele>2293.2</ele>
        <time>2021-02-27T12:30:16Z</time>
      </trkpt>
      <trkpt lat="45.2342" lon="6.12797">
        <ele>2290.4</ele>
        <time>2021-02-27T12:30:17Z</time>
      </trkpt>
      <trkpt lat="45.23417" lon="6.128">
        <ele>2288.4</ele>
        <time>2021-02-27T12:30:18Z</time>
      </trkpt>
      <trkpt lat="45.23407" lon="6.12807">
        <ele>2286.8</ele>
        <time>2021-02-27T12:30:19Z</time>
      </trkpt>
      <trkpt lat="45.23403" lon="6.1281">
        <ele>2285</ele>
        <time>2021-02-27T12:30:20Z</time>
      </trkpt>
      <trkpt lat="45.23391" lon="6.12816">
        <ele>2282.2</ele>
        <time>2021-02-27T12:30:21Z</time>
      </trkpt>
      <trkpt lat="45.23386" lon="6.12817">
        <ele>2279.2</ele>
        <time>2021-02-27T12:30:22Z</time>
      </trkpt>
      <trkpt lat="45.23375" lon="6.12822">
        <ele>2276.4</ele>
        <time>2021-02-27T12:30:23Z</time>
      </trkpt>
      <trkpt lat="45.23371" lon="6.12823">
        <ele>2273.8</ele>
        <time>2021-02-27T12:30:24Z</time>
      </trkpt>
      <trkpt lat="45.23365" lon="6.12825">
        <ele>2271.8</ele>
        <time>2021-02-27T12:30:25Z</time>
      </trkpt>
      <trkpt lat="45.23365" lon="6.12825">
        <ele>2269.4</ele>
        <time>2021-02-27T12:30:26Z</time>
      </trkpt>
      <trkpt lat="45.2336" lon="6.12828">
        <ele>2268</ele>
        <time>2021-02-27T12:30:27Z</time>
      </trkpt>
      <trkpt lat="45.23354" lon="6.12831">
        <ele>2265.8</ele>
        <time>2021-02-27T12:30:28Z</time>
      </trkpt>
      <trkpt lat="45.23349" lon="6.12833">
        <ele>2264</ele>
        <time>2021-02-27T12:30:29Z</time>
      </trkpt>
      <trkpt lat="45.23341" lon="6.12838">
        <ele>2262.6</ele>
        <time>2021-02-27T12:30:30Z</time>
      </trkpt>
      <trkpt lat="45.23339" lon="6.1284">
        <ele>2261.4</ele>
        <time>2021-02-27T12:30:31Z</time>
      </trkpt>
      <trkpt lat="45.23332" lon="6.12849">
        <ele>2259.6</ele>
        <time>2021-02-27T12:30:32Z</time>
      </trkpt>
      <trkpt lat="45.2333" lon="6.12853">
        <ele>2257.6</ele>
        <time>2021-02-27T12:30:33Z</time>
      </trkpt>
      <trkpt lat="45.23324" lon="6.12863">
        <ele>2255.8</ele>
        <time>2021-02-27T12:30:34Z</time>
      </trkpt>
      <trkpt lat="45.23322" lon="6.12865">
        <ele>2253.8</ele>
        <time>2021-02-27T12:30:35Z</time>
      </trkpt>
      <trkpt lat="45.23313" lon="6.12867">
        <ele>2252.2</ele>
        <time>2021-02-27T12:30:36Z</time>
      </trkpt>
      <trkpt lat="45.2331" lon="6.12865">
        <ele>2250.4</ele>
        <time>2021-02-27T12:30:37Z</time>
      </trkpt>
      <trkpt lat="45.23301" lon="6.12863">
        <ele>2248.8</ele>
        <time>2021-02-27T12:30:38Z</time>
      </trkpt>
      <trkpt lat="45.23298" lon="6.12865">
        <ele>2245.8</ele>
        <time>2021-02-27T12:30:39Z</time>
      </trkpt>
      <trkpt lat="45.23292" lon="6.12867">
        <ele>2243.2</ele>
        <time>2021-02-27T12:30:40Z</time>
      </trkpt>
      <trkpt lat="45.23292" lon="6.12867">
        <ele>2240.6</ele>
        <time>2021-02-27T12:30:41Z</time>
      </trkpt>
      <trkpt lat="45.23294" lon="6.12858">
        <ele>2238.8</ele>
        <time>2021-02-27T12:30:42Z</time>
      </trkpt>
      <trkpt lat="45.23296" lon="6.12849">
        <ele>2235.4</ele>
        <time>2021-02-27T12:30:43Z</time>
      </trkpt>
      <trkpt lat="45.23298" lon="6.1284">
        <ele>2232.6</ele>
        <time>2021-02-27T12:30:44Z</time>
      </trkpt>
      <trkpt lat="45.233" lon="6.12828">
        <ele>2230.4</ele>
        <time>2021-02-27T12:30:45Z</time>
      </trkpt>
      <trkpt lat="45.233" lon="6.12825">
        <ele>2228.2</ele>
        <time>2021-02-27T12:30:46Z</time>
      </trkpt>
      <trkpt lat="45.23299" lon="6.12819">
        <ele>2227.4</ele>
        <time>2021-02-27T12:30:47Z</time>
      </trkpt>
      <trkpt lat="45.23299" lon="6.12819">
        <ele>2225.4</ele>
        <time>2021-02-27T12:30:48Z</time>
      </trkpt>
      <trkpt lat="45.23286" lon="6.12813">
        <ele>2224.2</ele>
        <time>2021-02-27T12:30:49Z</time>
      </trkpt>
      <trkpt lat="45.23284" lon="6.12811">
        <ele>2222.4</ele>
        <time>2021-02-27T12:30:50Z</time>
      </trkpt>
      <trkpt lat="45.2328" lon="6.12807">
        <ele>2220.4</ele>
        <time>2021-02-27T12:30:51Z</time>
      </trkpt>
      <trkpt lat="45.2328" lon="6.12807">
        <ele>2219</ele>
        <time>2021-02-27T12:30:52Z</time>
      </trkpt>
      <trkpt lat="45.23271" lon="6.12808">
        <ele>2216.4</ele>
        <time>2021-02-27T12:30:53Z</time>
      </trkpt>
      <trkpt lat="45.23271" lon="6.12808">
        <ele>2213.8</ele>
        <time>2021-02-27T12:30:54Z</time>
      </trkpt>
      <trkpt lat="45.23262" lon="6.12795">
        <ele>2211.6</ele>
        <time>2021-02-27T12:30:55Z</time>
      </trkpt>
      <trkpt lat="45.2326" lon="6.12796">
        <ele>2208.6</ele>
        <time>2021-02-27T12:30:56Z</time>
      </trkpt>
      <trkpt lat="45.23255" lon="6.12797">
        <ele>2206.4</ele>
        <time>2021-02-27T12:30:57Z</time>
      </trkpt>
      <trkpt lat="45.23255" lon="6.12797">
        <ele>2204</ele>
        <time>2021-02-27T12:30:58Z</time>
      </trkpt>
      <trkpt lat="45.23252" lon="6.12794">
        <ele>2201.2</ele>
        <time>2021-02-27T12:30:59Z</time>
      </trkpt>
      <trkpt lat="45.23248" lon="6.12791">
        <ele>2198.2</ele>
        <time>2021-02-27T12:31:00Z</time>
      </trkpt>
      <trkpt lat="45.23245" lon="6.12788">
        <ele>2196</ele>
        <time>2021-02-27T12:31:01Z</time>
      </trkpt>
      <trkpt lat="45.23242" lon="6.12788">
        <ele>2193.2</ele>
        <time>2021-02-27T12:31:02Z</time>
      </trkpt>
      <trkpt lat="45.23239" lon="6.12788">
        <ele>2191.4</ele>
        <time>2021-02-27T12:31:03Z</time>
      </trkpt>
      <trkpt lat="45.23235" lon="6.12788">
        <ele>2188.8</ele>
        <time>2021-02-27T12:31:04Z</time>
      </trkpt>
      <trkpt lat="45.23236" lon="6.12799">
        <ele>2186.2</ele>
        <time>2021-02-27T12:31:05Z</time>
      </trkpt>
      <trkpt lat="45.23236" lon="6.1281">
        <ele>2183.8</ele>
        <time>2021-02-27T12:31:06Z</time>
      </trkpt>
      <trkpt lat="45.23237" lon="6.12822">
        <ele>2181.8</ele>
        <time>2021-02-27T12:31:07Z</time>
      </trkpt>
      <trkpt lat="45.23237" lon="6.12833">
        <ele>2179.4</ele>
        <time>2021-02-27T12:31:08Z</time>
      </trkpt>
      <trkpt lat="45.23237" lon="6.1284">
        <ele>2177.4</ele>
        <time>2021-02-27T12:31:09Z</time>
      </trkpt>
      <trkpt lat="45.23234" lon="6.12837">
        <ele>2175.2</ele>
        <time>2021-02-27T12:31:10Z</time>
      </trkpt>
      <trkpt lat="45.23231" lon="6.12835">
        <ele>2172.8</ele>
        <time>2021-02-27T12:31:11Z</time>
      </trkpt>
      <trkpt lat="45.23228" lon="6.12832">
        <ele>2171.4</ele>
        <time>2021-02-27T12:31:12Z</time>
      </trkpt>
      <trkpt lat="45.23226" lon="6.1283">
        <ele>2170.2</ele>
        <time>2021-02-27T12:31:13Z</time>
      </trkpt>
      <trkpt lat="45.23224" lon="6.12828">
        <ele>2168.8</ele>
        <time>2021-02-27T12:31:14Z</time>
      </trkpt>
      <trkpt lat="45.23222" lon="6.12825">
        <ele>2167.4</ele>
        <time>2021-02-27T12:31:15Z</time>
      </trkpt>
      <trkpt lat="45.2322" lon="6.12823">
        <ele>2165.4</ele>
        <time>2021-02-27T12:31:16Z</time>
      </trkpt>
      <trkpt lat="45.2322" lon="6.12819">
        <ele>2163.8</ele>
        <time>2021-02-27T12:31:17Z</time>
      </trkpt>
      <trkpt lat="45.23219" lon="6.12815">
        <ele>2161.4</ele>
        <time>2021-02-27T12:31:18Z</time>
      </trkpt>
      <trkpt lat="45.23219" lon="6.1281">
        <ele>2159.6</ele>
        <time>2021-02-27T12:31:19Z</time>
      </trkpt>
      <trkpt lat="45.23214" lon="6.12805">
        <ele>2157.4</ele>
        <time>2021-02-27T12:31:20Z</time>
      </trkpt>
      <trkpt lat="45.2321" lon="6.128">
        <ele>2155.4</ele>
        <time>2021-02-27T12:31:21Z</time>
      </trkpt>
      <trkpt lat="45.23206" lon="6.12795">
        <ele>2152.4</ele>
        <time>2021-02-27T12:31:22Z</time>
      </trkpt>
      <trkpt lat="45.23201" lon="6.12791">
        <ele>2150</ele>
        <time>2021-02-27T12:31:23Z</time>
      </trkpt>
      <trkpt lat="45.23201" lon="6.12791">
        <ele>2147.4</ele>
        <time>2021-02-27T12:31:24Z</time>
      </trkpt>
      <trkpt lat="45.23202" lon="6.12785">
        <ele>2145.2</ele>
        <time>2021-02-27T12:31:25Z</time>
      </trkpt>
      <trkpt lat="45.23203" lon="6.12779">
        <ele>2142.6</ele>
        <time>2021-02-27T12:31:26Z</time>
      </trkpt>
      <trkpt lat="45.23204" lon="6.12773">
        <ele>2140</ele>
        <time>2021-02-27T12:31:27Z</time>
      </trkpt>
      <trkpt lat="45.23203" lon="6.12771">
        <ele>2137.6</ele>
        <time>2021-02-27T12:31:28Z</time>
      </trkpt>
      <trkpt lat="45.23201" lon="6.1277">
        <ele>2135.2</ele>
        <time>2021-02-27T12:31:29Z</time>
      </trkpt>
      <trkpt lat="45.232" lon="6.12768">
        <ele>2133.2</ele>
        <time>2021-02-27T12:31:30Z</time>
      </trkpt>
      <trkpt lat="45.23198" lon="6.12766">
        <ele>2132.6</ele>
        <time>2021-02-27T12:31:31Z</time>
      </trkpt>
      <trkpt lat="45.23197" lon="6.12764">
        <ele>2131</ele>
        <time>2021-02-27T12:31:32Z</time>
      </trkpt>
      <trkpt lat="45.23194" lon="6.12752">
        <ele>2128.6</ele>
        <time>2021-02-27T12:31:33Z</time>
      </trkpt>
      <trkpt lat="45.23194" lon="6.12752">
        <ele>2125.8</ele>
        <time>2021-02-27T12:31:34Z</time>
      </trkpt>
      <trkpt lat="45.2318" lon="6.12749">
        <ele>2123.2</ele>
        <time>2021-02-27T12:31:35Z</time>
      </trkpt>
      <trkpt lat="45.23178" lon="6.12747">
        <ele>2121</ele>
        <time>2021-02-27T12:31:36Z</time>
      </trkpt>
      <trkpt lat="45.2317" lon="6.12741">
        <ele>2118.6</ele>
        <time>2021-02-27T12:31:37Z</time>
      </trkpt>
      <trkpt lat="45.23167" lon="6.12739">
        <ele>2115.8</ele>
        <time>2021-02-27T12:31:38Z</time>
      </trkpt>
      <trkpt lat="45.23158" lon="6.12732">
        <ele>2112.6</ele>
        <time>2021-02-27T12:31:39Z</time>
      </trkpt>
      <trkpt lat="45.23154" lon="6.12729">
        <ele>2109.6</ele>
        <time>2021-02-27T12:31:40Z</time>
      </trkpt>
      <trkpt lat="45.23143" lon="6.12722">
        <ele>2106.8</ele>
        <time>2021-02-27T12:31:41Z</time>
      </trkpt>
      <trkpt lat="45.23139" lon="6.1272">
        <ele>2103.6</ele>
        <time>2021-02-27T12:31:42Z</time>
      </trkpt>
      <trkpt lat="45.23127" lon="6.12718">
        <ele>2100.2</ele>
        <time>2021-02-27T12:31:43Z</time>
      </trkpt>
      <trkpt lat="45.23124" lon="6.12718">
        <ele>2096.6</ele>
        <time>2021-02-27T12:31:44Z</time>
      </trkpt>
      <trkpt lat="45.23117" lon="6.1272">
        <ele>2094</ele>
        <time>2021-02-27T12:31:45Z</time>
      </trkpt>
      <trkpt lat="45.23117" lon="6.1272">
        <ele>2091.4</ele>
        <time>2021-02-27T12:31:46Z</time>
      </trkpt>
      <trkpt lat="45.23117" lon="6.12715">
        <ele>2088.8</ele>
        <time>2021-02-27T12:31:47Z</time>
      </trkpt>
      <trkpt lat="45.23118" lon="6.12711">
        <ele>2086.4</ele>
        <time>2021-02-27T12:31:48Z</time>
      </trkpt>
      <trkpt lat="45.23118" lon="6.12706">
        <ele>2084.6</ele>
        <time>2021-02-27T12:31:49Z</time>
      </trkpt>
      <trkpt lat="45.2312" lon="6.12707">
        <ele>2083</ele>
        <time>2021-02-27T12:31:50Z</time>
      </trkpt>
      <trkpt lat="45.23122" lon="6.12708">
        <ele>2081.6</ele>
        <time>2021-02-27T12:31:51Z</time>
      </trkpt>
      <trkpt lat="45.23124" lon="6.12708">
        <ele>2080.6</ele>
        <time>2021-02-27T12:31:52Z</time>
      </trkpt>
      <trkpt lat="45.23126" lon="6.12709">
        <ele>2080.2</ele>
        <time>2021-02-27T12:31:53Z</time>
      </trkpt>
      <trkpt lat="45.23127" lon="6.1271">
        <ele>2080</ele>
        <time>2021-02-27T12:31:54Z</time>
      </trkpt>
      <trkpt lat="45.23129" lon="6.1271">
        <ele>2079.6</ele>
        <time>2021-02-27T12:31:55Z</time>
      </trkpt>
      <trkpt lat="45.23131" lon="6.12711">
        <ele>2079.6</ele>
        <time>2021-02-27T12:31:56Z</time>
      </trkpt>
      <trkpt lat="45.23131" lon="6.12711">
        <ele>2079.6</ele>
        <time>2021-02-27T12:31:57Z</time>
      </trkpt>
      <trkpt lat="45.23132" lon="6.12711">
        <ele>2079.4</ele>
        <time>2021-02-27T12:31:58Z</time>
      </trkpt>
      <trkpt lat="45.23132" lon="6.12711">
        <ele>2079.2</ele>
        <time>2021-02-27T12:31:59Z</time>
      </trkpt>
      <trkpt lat="45.23132" lon="6.12711">
        <ele>2079.2</ele>
        <time>2021-02-27T12:32:00Z</time>
      </trkpt>
      <trkpt lat="45.23133" lon="6.12711">
        <ele>2079</ele>
        <time>2021-02-27T12:32:01Z</time>
      </trkpt>
      <trkpt lat="45.23133" lon="6.12711">
        <ele>2079</ele>
        <time>2021-02-27T12:32:02Z</time>
      </trkpt>
      <trkpt lat="45.23134" lon="6.1271">
        <ele>2078.8</ele>
        <time>2021-02-27T12:32:03Z</time>
      </trkpt>
      <trkpt lat="45.23134" lon="6.1271">
        <ele>2078.8</ele>
        <time>2021-02-27T12:32:04Z</time>
      </trkpt>
      <trkpt lat="45.23134" lon="6.1271">
        <ele>2078.6</ele>
        <time>2021-02-27T12:32:05Z</time>
      </trkpt>
      <trkpt lat="45.23135" lon="6.1271">
        <ele>2078.6</ele>
        <time>2021-02-27T12:32:06Z</time>
      </trkpt>
      <trkpt lat="45.23135" lon="6.1271">
        <ele>2078.6</ele>
        <time>2021-02-27T12:32:07Z</time>
      </trkpt>
      <trkpt lat="45.23136" lon="6.1271">
        <ele>2078.4</ele>
        <time>2021-02-27T12:32:08Z</time>
      </trkpt>
      <trkpt lat="45.23136" lon="6.1271">
        <ele>2078.4</ele>
        <time>2021-02-27T12:32:09Z</time>
      </trkpt>
      <trkpt lat="45.23136" lon="6.1271">
        <ele>2078.2</ele>
        <time>2021-02-27T12:32:10Z</time>
      </trkpt>
      <trkpt lat="45.23137" lon="6.1271">
        <ele>2078.6</ele>
        <time>2021-02-27T12:32:11Z</time>
      </trkpt>
      <trkpt lat="45.23137" lon="6.1271">
        <ele>2078.4</ele>
        <time>2021-02-27T12:32:12Z</time>
      </trkpt>
      <trkpt lat="45.23137" lon="6.1271">
        <ele>2078.2</ele>
        <time>2021-02-27T12:32:13Z</time>
      </trkpt>
      <trkpt lat="45.23138" lon="6.12709">
        <ele>2078.2</ele>
        <time>2021-02-27T12:32:14Z</time>
      </trkpt>
      <trkpt lat="45.23138" lon="6.12709">
        <ele>2077.8</ele>
        <time>2021-02-27T12:32:15Z</time>
      </trkpt>
      <trkpt lat="45.23139" lon="6.12709">
        <ele>2078.2</ele>
        <time>2021-02-27T12:32:16Z</time>
      </trkpt>
      <trkpt lat="45.23138" lon="6.12709">
        <ele>2078.2</ele>
        <time>2021-02-27T12:32:17Z</time>
      </trkpt>
      <trkpt lat="45.23138" lon="6.12708">
        <ele>2078.2</ele>
        <time>2021-02-27T12:32:18Z</time>
      </trkpt>
      <trkpt lat="45.23137" lon="6.12708">
        <ele>2078.2</ele>
        <time>2021-02-27T12:32:19Z</time>
      </trkpt>
      <trkpt lat="45.23137" lon="6.12708">
        <ele>2078</ele>
        <time>2021-02-27T12:32:20Z</time>
      </trkpt>
      <trkpt lat="45.23136" lon="6.12707">
        <ele>2078</ele>
        <time>2021-02-27T12:32:21Z</time>
      </trkpt>
      <trkpt lat="45.23136" lon="6.12707">
        <ele>2078.2</ele>
        <time>2021-02-27T12:32:22Z</time>
      </trkpt>
      <trkpt lat="45.23135" lon="6.12706">
        <ele>2078</ele>
        <time>2021-02-27T12:32:23Z</time>
      </trkpt>
      <trkpt lat="45.23135" lon="6.12706">
        <ele>2078</ele>
        <time>2021-02-27T12:32:24Z</time>
      </trkpt>
      <trkpt lat="45.23135" lon="6.12705">
        <ele>2077.8</ele>
        <time>2021-02-27T12:32:25Z</time>
      </trkpt>
      <trkpt lat="45.23134" lon="6.12705">
        <ele>2077.6</ele>
        <time>2021-02-27T12:32:26Z</time>
      </trkpt>
      <trkpt lat="45.23134" lon="6.12705">
        <ele>2077.4</ele>
        <time>2021-02-27T12:32:27Z</time>
      </trkpt>
      <trkpt lat="45.23133" lon="6.12704">
        <ele>2077.4</ele>
        <time>2021-02-27T12:32:28Z</time>
      </trkpt>
      <trkpt lat="45.23133" lon="6.12704">
        <ele>2077.6</ele>
        <time>2021-02-27T12:32:29Z</time>
      </trkpt>
      <trkpt lat="45.23132" lon="6.12703">
        <ele>2077.4</ele>
        <time>2021-02-27T12:32:30Z</time>
      </trkpt>
      <trkpt lat="45.23132" lon="6.12703">
        <ele>2077.8</ele>
        <time>2021-02-27T12:32:31Z</time>
      </trkpt>
      <trkpt lat="45.23131" lon="6.12703">
        <ele>2077.6</ele>
        <time>2021-02-27T12:32:32Z</time>
      </trkpt>
      <trkpt lat="45.23131" lon="6.12702">
        <ele>2077.6</ele>
        <time>2021-02-27T12:32:33Z</time>
      </trkpt>
      <trkpt lat="45.23131" lon="6.12702">
        <ele>2077</ele>
        <time>2021-02-27T12:32:34Z</time>
      </trkpt>
      <trkpt lat="45.23119" lon="6.12686">
        <ele>2076.6</ele>
        <time>2021-02-27T12:32:35Z</time>
      </trkpt>
      <trkpt lat="45.23116" lon="6.12681">
        <ele>2076</ele>
        <time>2021-02-27T12:32:36Z</time>
      </trkpt>
      <trkpt lat="45.2311" lon="6.12667">
        <ele>2075.4</ele>
        <time>2021-02-27T12:32:37Z</time>
      </trkpt>
      <trkpt lat="45.23109" lon="6.12662">
        <ele>2074.2</ele>
        <time>2021-02-27T12:32:38Z</time>
      </trkpt>
      <trkpt lat="45.23105" lon="6.1265">
        <ele>2073.8</ele>
        <time>2021-02-27T12:32:39Z</time>
      </trkpt>
      <trkpt lat="45.23103" lon="6.12647">
        <ele>2073.4</ele>
        <time>2021-02-27T12:32:40Z</time>
      </trkpt>
      <trkpt lat="45.231" lon="6.12642">
        <ele>2072.4</ele>
        <time>2021-02-27T12:32:41Z</time>
      </trkpt>
      <trkpt lat="45.231" lon="6.12642">
        <ele>2072</ele>
        <time>2021-02-27T12:32:42Z</time>
      </trkpt>
      <trkpt lat="45.231" lon="6.12642">
        <ele>2071.6</ele>
        <time>2021-02-27T12:32:43Z</time>
      </trkpt>
      <trkpt lat="45.231" lon="6.12643">
        <ele>2071</ele>
        <time>2021-02-27T12:32:44Z</time>
      </trkpt>
      <trkpt lat="45.23099" lon="6.12643">
        <ele>2070.6</ele>
        <time>2021-02-27T12:32:45Z</time>
      </trkpt>
      <trkpt lat="45.23099" lon="6.12643">
        <ele>2070</ele>
        <time>2021-02-27T12:32:46Z</time>
      </trkpt>
      <trkpt lat="45.23099" lon="6.12644">
        <ele>2069.8</ele>
        <time>2021-02-27T12:32:47Z</time>
      </trkpt>
      <trkpt lat="45.23098" lon="6.12644">
        <ele>2069.8</ele>
        <time>2021-02-27T12:32:48Z</time>
      </trkpt>
      <trkpt lat="45.23098" lon="6.12645">
        <ele>2069.4</ele>
        <time>2021-02-27T12:32:49Z</time>
      </trkpt>
      <trkpt lat="45.23098" lon="6.12645">
        <ele>2069.6</ele>
        <time>2021-02-27T12:32:50Z</time>
      </trkpt>
      <trkpt lat="45.23097" lon="6.12645">
        <ele>2069.4</ele>
        <time>2021-02-27T12:32:51Z</time>
      </trkpt>
      <trkpt lat="45.23097" lon="6.12646">
        <ele>2069.6</ele>
        <time>2021-02-27T12:32:52Z</time>
      </trkpt>
      <trkpt lat="45.23097" lon="6.12646">
        <ele>2069.6</ele>
        <time>2021-02-27T12:32:53Z</time>
      </trkpt>
      <trkpt lat="45.23096" lon="6.12647">
        <ele>2069.4</ele>
        <time>2021-02-27T12:32:54Z</time>
      </trkpt>
      <trkpt lat="45.23096" lon="6.12647">
        <ele>2069.2</ele>
        <time>2021-02-27T12:32:55Z</time>
      </trkpt>
      <trkpt lat="45.23096" lon="6.12647">
        <ele>2069</ele>
        <time>2021-02-27T12:32:56Z</time>
      </trkpt>
      <trkpt lat="45.23095" lon="6.12648">
        <ele>2069.2</ele>
        <time>2021-02-27T12:32:57Z</time>
      </trkpt>
      <trkpt lat="45.23095" lon="6.12648">
        <ele>2069</ele>
        <time>2021-02-27T12:32:58Z</time>
      </trkpt>
      <trkpt lat="45.23095" lon="6.12649">
        <ele>2069</ele>
        <time>2021-02-27T12:32:59Z</time>
      </trkpt>
      <trkpt lat="45.23094" lon="6.12649">
        <ele>2069.2</ele>
        <time>2021-02-27T12:33:00Z</time>
      </trkpt>
      <trkpt lat="45.23094" lon="6.12649">
        <ele>2069.2</ele>
        <time>2021-02-27T12:33:01Z</time>
      </trkpt>
      <trkpt lat="45.23094" lon="6.1265">
        <ele>2069.2</ele>
        <time>2021-02-27T12:33:02Z</time>
      </trkpt>
      <trkpt lat="45.23094" lon="6.1265">
        <ele>2069</ele>
        <time>2021-02-27T12:33:03Z</time>
      </trkpt>
      <trkpt lat="45.23093" lon="6.1265">
        <ele>2068.6</ele>
        <time>2021-02-27T12:33:04Z</time>
      </trkpt>
      <trkpt lat="45.23093" lon="6.12651">
        <ele>2067.8</ele>
        <time>2021-02-27T12:33:05Z</time>
      </trkpt>
      <trkpt lat="45.23093" lon="6.12651">
        <ele>2067.8</ele>
        <time>2021-02-27T12:33:06Z</time>
      </trkpt>
      <trkpt lat="45.23093" lon="6.12652">
        <ele>2067.8</ele>
        <time>2021-02-27T12:33:07Z</time>
      </trkpt>
      <trkpt lat="45.23092" lon="6.12653">
        <ele>2067.8</ele>
        <time>2021-02-27T12:33:08Z</time>
      </trkpt>
      <trkpt lat="45.23092" lon="6.12653">
        <ele>2068</ele>
        <time>2021-02-27T12:33:09Z</time>
      </trkpt>
      <trkpt lat="45.23092" lon="6.12654">
        <ele>2068</ele>
        <time>2021-02-27T12:33:10Z</time>
      </trkpt>
      <trkpt lat="45.23092" lon="6.12654">
        <ele>2067.8</ele>
        <time>2021-02-27T12:33:11Z</time>
      </trkpt>
      <trkpt lat="45.23092" lon="6.12655">
        <ele>2067.8</ele>
        <time>2021-02-27T12:33:12Z</time>
      </trkpt>
      <trkpt lat="45.23091" lon="6.12656">
        <ele>2067.6</ele>
        <time>2021-02-27T12:33:13Z</time>
      </trkpt>
      <trkpt lat="45.23091" lon="6.12656">
        <ele>2067.2</ele>
        <time>2021-02-27T12:33:14Z</time>
      </trkpt>
      <trkpt lat="45.23091" lon="6.12657">
        <ele>2066.4</ele>
        <time>2021-02-27T12:33:15Z</time>
      </trkpt>
      <trkpt lat="45.23091" lon="6.12657">
        <ele>2066</ele>
        <time>2021-02-27T12:33:16Z</time>
      </trkpt>
      <trkpt lat="45.23091" lon="6.12658">
        <ele>2065.4</ele>
        <time>2021-02-27T12:33:17Z</time>
      </trkpt>
      <trkpt lat="45.23091" lon="6.12658">
        <ele>2065.6</ele>
        <time>2021-02-27T12:33:18Z</time>
      </trkpt>
      <trkpt lat="45.2309" lon="6.12659">
        <ele>2065.2</ele>
        <time>2021-02-27T12:33:19Z</time>
      </trkpt>
      <trkpt lat="45.2309" lon="6.1266">
        <ele>2065.2</ele>
        <time>2021-02-27T12:33:20Z</time>
      </trkpt>
      <trkpt lat="45.2309" lon="6.1266">
        <ele>2065.2</ele>
        <time>2021-02-27T12:33:21Z</time>
      </trkpt>
      <trkpt lat="45.2309" lon="6.12661">
        <ele>2065</ele>
        <time>2021-02-27T12:33:22Z</time>
      </trkpt>
      <trkpt lat="45.2309" lon="6.12661">
        <ele>2065.2</ele>
        <time>2021-02-27T12:33:23Z</time>
      </trkpt>
      <trkpt lat="45.2309" lon="6.12662">
        <ele>2065</ele>
        <time>2021-02-27T12:33:24Z</time>
      </trkpt>
      <trkpt lat="45.23089" lon="6.12663">
        <ele>2065.2</ele>
        <time>2021-02-27T12:33:25Z</time>
      </trkpt>
      <trkpt lat="45.23089" lon="6.12663">
        <ele>2065.2</ele>
        <time>2021-02-27T12:33:26Z</time>
      </trkpt>
      <trkpt lat="45.23089" lon="6.12664">
        <ele>2065.4</ele>
        <time>2021-02-27T12:33:27Z</time>
      </trkpt>
      <trkpt lat="45.23088" lon="6.12666">
        <ele>2065.4</ele>
        <time>2021-02-27T12:33:28Z</time>
      </trkpt>
      <trkpt lat="45.23088" lon="6.12667">
        <ele>2064.8</ele>
        <time>2021-02-27T12:33:29Z</time>
      </trkpt>
      <trkpt lat="45.23087" lon="6.12669">
        <ele>2065</ele>
        <time>2021-02-27T12:33:30Z</time>
      </trkpt>
      <trkpt lat="45.23086" lon="6.12671">
        <ele>2064.8</ele>
        <time>2021-02-27T12:33:31Z</time>
      </trkpt>
      <trkpt lat="45.23085" lon="6.12673">
        <ele>2064.8</ele>
        <time>2021-02-27T12:33:32Z</time>
      </trkpt>
      <trkpt lat="45.23084" lon="6.12675">
        <ele>2065</ele>
        <time>2021-02-27T12:33:33Z</time>
      </trkpt>
      <trkpt lat="45.23084" lon="6.12677">
        <ele>2064.8</ele>
        <time>2021-02-27T12:33:34Z</time>
      </trkpt>
      <trkpt lat="45.23082" lon="6.1268">
        <ele>2064.8</ele>
        <time>2021-02-27T12:33:35Z</time>
      </trkpt>
      <trkpt lat="45.23081" lon="6.12683">
        <ele>2064.8</ele>
        <time>2021-02-27T12:33:36Z</time>
      </trkpt>
      <trkpt lat="45.2308" lon="6.12686">
        <ele>2064.6</ele>
        <time>2021-02-27T12:33:37Z</time>
      </trkpt>
      <trkpt lat="45.23079" lon="6.12689">
        <ele>2064.4</ele>
        <time>2021-02-27T12:33:38Z</time>
      </trkpt>
      <trkpt lat="45.23078" lon="6.12692">
        <ele>2064.8</ele>
        <time>2021-02-27T12:33:39Z</time>
      </trkpt>
      <trkpt lat="45.23077" lon="6.12696">
        <ele>2064.6</ele>
        <time>2021-02-27T12:33:40Z</time>
      </trkpt>
      <trkpt lat="45.23076" lon="6.12699">
        <ele>2064.2</ele>
        <time>2021-02-27T12:33:41Z</time>
      </trkpt>
      <trkpt lat="45.23076" lon="6.12703">
        <ele>2063.8</ele>
        <time>2021-02-27T12:33:42Z</time>
      </trkpt>
      <trkpt lat="45.23074" lon="6.12707">
        <ele>2063.4</ele>
        <time>2021-02-27T12:33:43Z</time>
      </trkpt>
      <trkpt lat="45.23072" lon="6.12711">
        <ele>2063.2</ele>
        <time>2021-02-27T12:33:44Z</time>
      </trkpt>
      <trkpt lat="45.2307" lon="6.12715">
        <ele>2062.8</ele>
        <time>2021-02-27T12:33:45Z</time>
      </trkpt>
      <trkpt lat="45.23068" lon="6.12719">
        <ele>2062.6</ele>
        <time>2021-02-27T12:33:46Z</time>
      </trkpt>
      <trkpt lat="45.23065" lon="6.12723">
        <ele>2062.4</ele>
        <time>2021-02-27T12:33:47Z</time>
      </trkpt>
      <trkpt lat="45.23063" lon="6.12726">
        <ele>2062.2</ele>
        <time>2021-02-27T12:33:48Z</time>
      </trkpt>
      <trkpt lat="45.23062" lon="6.1273">
        <ele>2062</ele>
        <time>2021-02-27T12:33:49Z</time>
      </trkpt>
      <trkpt lat="45.23061" lon="6.12733">
        <ele>2062</ele>
        <time>2021-02-27T12:33:50Z</time>
      </trkpt>
      <trkpt lat="45.2306" lon="6.12736">
        <ele>2061.6</ele>
        <time>2021-02-27T12:33:51Z</time>
      </trkpt>
      <trkpt lat="45.23059" lon="6.12739">
        <ele>2061.4</ele>
        <time>2021-02-27T12:33:52Z</time>
      </trkpt>
      <trkpt lat="45.23057" lon="6.12741">
        <ele>2061.6</ele>
        <time>2021-02-27T12:33:53Z</time>
      </trkpt>
      <trkpt lat="45.23056" lon="6.12743">
        <ele>2061.4</ele>
        <time>2021-02-27T12:33:54Z</time>
      </trkpt>
      <trkpt lat="45.23055" lon="6.12746">
        <ele>2061.6</ele>
        <time>2021-02-27T12:33:55Z</time>
      </trkpt>
      <trkpt lat="45.23053" lon="6.12748">
        <ele>2061.4</ele>
        <time>2021-02-27T12:33:56Z</time>
      </trkpt>
      <trkpt lat="45.23052" lon="6.1275">
        <ele>2061.4</ele>
        <time>2021-02-27T12:33:57Z</time>
      </trkpt>
      <trkpt lat="45.23051" lon="6.12753">
        <ele>2061</ele>
        <time>2021-02-27T12:33:58Z</time>
      </trkpt>
      <trkpt lat="45.2305" lon="6.12756">
        <ele>2061.2</ele>
        <time>2021-02-27T12:33:59Z</time>
      </trkpt>
      <trkpt lat="45.23049" lon="6.12758">
        <ele>2061.2</ele>
        <time>2021-02-27T12:34:00Z</time>
      </trkpt>
      <trkpt lat="45.23048" lon="6.12761">
        <ele>2061.6</ele>
        <time>2021-02-27T12:34:01Z</time>
      </trkpt>
      <trkpt lat="45.23047" lon="6.12764">
        <ele>2061.4</ele>
        <time>2021-02-27T12:34:02Z</time>
      </trkpt>
      <trkpt lat="45.23041" lon="6.1277">
        <ele>2061</ele>
        <time>2021-02-27T12:34:03Z</time>
      </trkpt>
      <trkpt lat="45.23035" lon="6.12777">
        <ele>2060.6</ele>
        <time>2021-02-27T12:34:04Z</time>
      </trkpt>
      <trkpt lat="45.23028" lon="6.12783">
        <ele>2060.2</ele>
        <time>2021-02-27T12:34:05Z</time>
      </trkpt>
      <trkpt lat="45.23021" lon="6.12793">
        <ele>2059.6</ele>
        <time>2021-02-27T12:34:06Z</time>
      </trkpt>
      <trkpt lat="45.2302" lon="6.12796">
        <ele>2058.6</ele>
        <time>2021-02-27T12:34:07Z</time>
      </trkpt>
      <trkpt lat="45.23017" lon="6.12801">
        <ele>2057.6</ele>
        <time>2021-02-27T12:34:08Z</time>
      </trkpt>
      <trkpt lat="45.23006" lon="6.12827">
        <ele>2056.2</ele>
        <time>2021-02-27T12:34:09Z</time>
      </trkpt>
      <trkpt lat="45.23004" lon="6.12833">
        <ele>2054.6</ele>
        <time>2021-02-27T12:34:10Z</time>
      </trkpt>
      <trkpt lat="45.23" lon="6.12847">
        <ele>2053.6</ele>
        <time>2021-02-27T12:34:11Z</time>
      </trkpt>
      <trkpt lat="45.22998" lon="6.12852">
        <ele>2052.4</ele>
        <time>2021-02-27T12:34:12Z</time>
      </trkpt>
      <trkpt lat="45.22994" lon="6.12864">
        <ele>2051.6</ele>
        <time>2021-02-27T12:34:13Z</time>
      </trkpt>
      <trkpt lat="45.22992" lon="6.12868">
        <ele>2050.4</ele>
        <time>2021-02-27T12:34:14Z</time>
      </trkpt>
      <trkpt lat="45.22985" lon="6.1288">
        <ele>2049.6</ele>
        <time>2021-02-27T12:34:15Z</time>
      </trkpt>
      <trkpt lat="45.22983" lon="6.12884">
        <ele>2048.4</ele>
        <time>2021-02-27T12:34:16Z</time>
      </trkpt>
      <trkpt lat="45.22977" lon="6.12894">
        <ele>2047.4</ele>
        <time>2021-02-27T12:34:17Z</time>
      </trkpt>
      <trkpt lat="45.22975" lon="6.12896">
        <ele>2046.2</ele>
        <time>2021-02-27T12:34:18Z</time>
      </trkpt>
      <trkpt lat="45.22972" lon="6.12902">
        <ele>2045.4</ele>
        <time>2021-02-27T12:34:19Z</time>
      </trkpt>
      <trkpt lat="45.22972" lon="6.12902">
        <ele>2045.6</ele>
        <time>2021-02-27T12:34:20Z</time>
      </trkpt>
      <trkpt lat="45.22971" lon="6.12907">
        <ele>2045.4</ele>
        <time>2021-02-27T12:34:21Z</time>
      </trkpt>
      <trkpt lat="45.2297" lon="6.12913">
        <ele>2045.2</ele>
        <time>2021-02-27T12:34:22Z</time>
      </trkpt>
      <trkpt lat="45.22968" lon="6.12918">
        <ele>2044.8</ele>
        <time>2021-02-27T12:34:23Z</time>
      </trkpt>
      <trkpt lat="45.22967" lon="6.12923">
        <ele>2044.2</ele>
        <time>2021-02-27T12:34:24Z</time>
      </trkpt>
      <trkpt lat="45.22965" lon="6.12928">
        <ele>2043.8</ele>
        <time>2021-02-27T12:34:25Z</time>
      </trkpt>
      <trkpt lat="45.22963" lon="6.12934">
        <ele>2043</ele>
        <time>2021-02-27T12:34:26Z</time>
      </trkpt>
      <trkpt lat="45.22962" lon="6.12937">
        <ele>2042.2</ele>
        <time>2021-02-27T12:34:27Z</time>
      </trkpt>
      <trkpt lat="45.22961" lon="6.1294">
        <ele>2042.4</ele>
        <time>2021-02-27T12:34:28Z</time>
      </trkpt>
      <trkpt lat="45.22959" lon="6.12944">
        <ele>2042.4</ele>
        <time>2021-02-27T12:34:29Z</time>
      </trkpt>
      <trkpt lat="45.22958" lon="6.12947">
        <ele>2042.6</ele>
        <time>2021-02-27T12:34:30Z</time>
      </trkpt>
      <trkpt lat="45.22957" lon="6.12952">
        <ele>2042.6</ele>
        <time>2021-02-27T12:34:31Z</time>
      </trkpt>
      <trkpt lat="45.22957" lon="6.12957">
        <ele>2042.6</ele>
        <time>2021-02-27T12:34:32Z</time>
      </trkpt>
      <trkpt lat="45.22957" lon="6.12962">
        <ele>2042.6</ele>
        <time>2021-02-27T12:34:33Z</time>
      </trkpt>
      <trkpt lat="45.22955" lon="6.12966">
        <ele>2042.4</ele>
        <time>2021-02-27T12:34:34Z</time>
      </trkpt>
      <trkpt lat="45.22953" lon="6.1297">
        <ele>2042.4</ele>
        <time>2021-02-27T12:34:35Z</time>
      </trkpt>
      <trkpt lat="45.22951" lon="6.12974">
        <ele>2041.6</ele>
        <time>2021-02-27T12:34:36Z</time>
      </trkpt>
      <trkpt lat="45.2295" lon="6.12979">
        <ele>2041.2</ele>
        <time>2021-02-27T12:34:37Z</time>
      </trkpt>
      <trkpt lat="45.22948" lon="6.12984">
        <ele>2041.4</ele>
        <time>2021-02-27T12:34:38Z</time>
      </trkpt>
      <trkpt lat="45.22947" lon="6.12988">
        <ele>2041.2</ele>
        <time>2021-02-27T12:34:39Z</time>
      </trkpt>
      <trkpt lat="45.22944" lon="6.12996">
        <ele>2040.8</ele>
        <time>2021-02-27T12:34:40Z</time>
      </trkpt>
      <trkpt lat="45.22941" lon="6.13003">
        <ele>2040.6</ele>
        <time>2021-02-27T12:34:41Z</time>
      </trkpt>
      <trkpt lat="45.22939" lon="6.13011">
        <ele>2040.4</ele>
        <time>2021-02-27T12:34:42Z</time>
      </trkpt>
      <trkpt lat="45.22937" lon="6.13018">
        <ele>2039.6</ele>
        <time>2021-02-27T12:34:43Z</time>
      </trkpt>
      <trkpt lat="45.22936" lon="6.1302">
        <ele>2039.2</ele>
        <time>2021-02-27T12:34:44Z</time>
      </trkpt>
      <trkpt lat="45.22936" lon="6.13023">
        <ele>2039.2</ele>
        <time>2021-02-27T12:34:45Z</time>
      </trkpt>
      <trkpt lat="45.22935" lon="6.13026">
        <ele>2039</ele>
        <time>2021-02-27T12:34:46Z</time>
      </trkpt>
      <trkpt lat="45.22935" lon="6.13029">
        <ele>2039.4</ele>
        <time>2021-02-27T12:34:47Z</time>
      </trkpt>
      <trkpt lat="45.22935" lon="6.13032">
        <ele>2039.6</ele>
        <time>2021-02-27T12:34:48Z</time>
      </trkpt>
      <trkpt lat="45.22934" lon="6.13036">
        <ele>2039.2</ele>
        <time>2021-02-27T12:34:49Z</time>
      </trkpt>
      <trkpt lat="45.22934" lon="6.13041">
        <ele>2039</ele>
        <time>2021-02-27T12:34:50Z</time>
      </trkpt>
      <trkpt lat="45.22933" lon="6.13047">
        <ele>2039</ele>
        <time>2021-02-27T12:34:51Z</time>
      </trkpt>
      <trkpt lat="45.22933" lon="6.13047">
        <ele>2038.8</ele>
        <time>2021-02-27T12:34:52Z</time>
      </trkpt>
      <trkpt lat="45.22931" lon="6.13046">
        <ele>2038.6</ele>
        <time>2021-02-27T12:34:53Z</time>
      </trkpt>
      <trkpt lat="45.2293" lon="6.13046">
        <ele>2038</ele>
        <time>2021-02-27T12:34:54Z</time>
      </trkpt>
      <trkpt lat="45.22928" lon="6.13046">
        <ele>2037.6</ele>
        <time>2021-02-27T12:34:55Z</time>
      </trkpt>
      <trkpt lat="45.22927" lon="6.13046">
        <ele>2037.2</ele>
        <time>2021-02-27T12:34:56Z</time>
      </trkpt>
      <trkpt lat="45.22925" lon="6.13046">
        <ele>2036.6</ele>
        <time>2021-02-27T12:34:57Z</time>
      </trkpt>
      <trkpt lat="45.22924" lon="6.13046">
        <ele>2036.6</ele>
        <time>2021-02-27T12:34:58Z</time>
      </trkpt>
      <trkpt lat="45.22924" lon="6.13046">
        <ele>2036.2</ele>
        <time>2021-02-27T12:34:59Z</time>
      </trkpt>
      <trkpt lat="45.22924" lon="6.13046">
        <ele>2036.6</ele>
        <time>2021-02-27T12:35:00Z</time>
      </trkpt>
      <trkpt lat="45.22924" lon="6.13046">
        <ele>2036.6</ele>
        <time>2021-02-27T12:35:01Z</time>
      </trkpt>
      <trkpt lat="45.22924" lon="6.13046">
        <ele>2036.8</ele>
        <time>2021-02-27T12:35:02Z</time>
      </trkpt>
      <trkpt lat="45.22924" lon="6.13046">
        <ele>2036.6</ele>
        <time>2021-02-27T12:35:03Z</time>
      </trkpt>
      <trkpt lat="45.22924" lon="6.13046">
        <ele>2037</ele>
        <time>2021-02-27T12:35:04Z</time>
      </trkpt>
      <trkpt lat="45.22921" lon="6.13043">
        <ele>2037</ele>
        <time>2021-02-27T12:35:05Z</time>
      </trkpt>
      <trkpt lat="45.22921" lon="6.13043">
        <ele>2036.8</ele>
        <time>2021-02-27T12:35:06Z</time>
      </trkpt>
      <trkpt lat="45.22921" lon="6.13043">
        <ele>2037.2</ele>
        <time>2021-02-27T12:35:07Z</time>
      </trkpt>
      <trkpt lat="45.22921" lon="6.13043">
        <ele>2037.4</ele>
        <time>2021-02-27T12:35:08Z</time>
      </trkpt>
      <trkpt lat="45.22918" lon="6.13041">
        <ele>2037.6</ele>
        <time>2021-02-27T12:35:09Z</time>
      </trkpt>
      <trkpt lat="45.22918" lon="6.13041">
        <ele>2037.6</ele>
        <time>2021-02-27T12:35:10Z</time>
      </trkpt>
      <trkpt lat="45.22918" lon="6.13041">
        <ele>2037.6</ele>
        <time>2021-02-27T12:35:11Z</time>
      </trkpt>
      <trkpt lat="45.22918" lon="6.13041">
        <ele>2038.2</ele>
        <time>2021-02-27T12:35:12Z</time>
      </trkpt>
      <trkpt lat="45.22918" lon="6.13041">
        <ele>2038.2</ele>
        <time>2021-02-27T12:35:13Z</time>
      </trkpt>
      <trkpt lat="45.22918" lon="6.13041">
        <ele>2038.4</ele>
        <time>2021-02-27T12:35:14Z</time>
      </trkpt>
      <trkpt lat="45.22918" lon="6.13041">
        <ele>2038.6</ele>
        <time>2021-02-27T12:35:15Z</time>
      </trkpt>
      <trkpt lat="45.22916" lon="6.13039">
        <ele>2039</ele>
        <time>2021-02-27T12:35:16Z</time>
      </trkpt>
      <trkpt lat="45.22916" lon="6.13039">
        <ele>2039.2</ele>
        <time>2021-02-27T12:35:17Z</time>
      </trkpt>
      <trkpt lat="45.22916" lon="6.13039">
        <ele>2039.2</ele>
        <time>2021-02-27T12:35:18Z</time>
      </trkpt>
      <trkpt lat="45.22913" lon="6.13042">
        <ele>2039.2</ele>
        <time>2021-02-27T12:35:19Z</time>
      </trkpt>
      <trkpt lat="45.2291" lon="6.13044">
        <ele>2039</ele>
        <time>2021-02-27T12:35:20Z</time>
      </trkpt>
      <trkpt lat="45.22909" lon="6.13046">
        <ele>2038.6</ele>
        <time>2021-02-27T12:35:21Z</time>
      </trkpt>
      <trkpt lat="45.22907" lon="6.13049">
        <ele>2037.4</ele>
        <time>2021-02-27T12:35:22Z</time>
      </trkpt>
      <trkpt lat="45.22908" lon="6.13052">
        <ele>2035.8</ele>
        <time>2021-02-27T12:35:23Z</time>
      </trkpt>
      <trkpt lat="45.22909" lon="6.13055">
        <ele>2034</ele>
        <time>2021-02-27T12:35:24Z</time>
      </trkpt>
      <trkpt lat="45.22909" lon="6.13055">
        <ele>2032.8</ele>
        <time>2021-02-27T12:35:25Z</time>
      </trkpt>
      <trkpt lat="45.22908" lon="6.13059">
        <ele>2031.8</ele>
        <time>2021-02-27T12:35:26Z</time>
      </trkpt>
      <trkpt lat="45.22907" lon="6.13063">
        <ele>2030.2</ele>
        <time>2021-02-27T12:35:27Z</time>
      </trkpt>
      <trkpt lat="45.22907" lon="6.13068">
        <ele>2028.2</ele>
        <time>2021-02-27T12:35:28Z</time>
      </trkpt>
      <trkpt lat="45.22906" lon="6.13068">
        <ele>2026.8</ele>
        <time>2021-02-27T12:35:29Z</time>
      </trkpt>
      <trkpt lat="45.22906" lon="6.13069">
        <ele>2025.6</ele>
        <time>2021-02-27T12:35:30Z</time>
      </trkpt>
      <trkpt lat="45.22906" lon="6.13069">
        <ele>2024.8</ele>
        <time>2021-02-27T12:35:31Z</time>
      </trkpt>
      <trkpt lat="45.22906" lon="6.13069">
        <ele>2023.8</ele>
        <time>2021-02-27T12:35:32Z</time>
      </trkpt>
      <trkpt lat="45.22906" lon="6.1307">
        <ele>2023</ele>
        <time>2021-02-27T12:35:33Z</time>
      </trkpt>
      <trkpt lat="45.22906" lon="6.1307">
        <ele>2022.4</ele>
        <time>2021-02-27T12:35:34Z</time>
      </trkpt>
      <trkpt lat="45.22905" lon="6.13071">
        <ele>2022</ele>
        <time>2021-02-27T12:35:35Z</time>
      </trkpt>
      <trkpt lat="45.22905" lon="6.13071">
        <ele>2021.8</ele>
        <time>2021-02-27T12:35:36Z</time>
      </trkpt>
      <trkpt lat="45.22905" lon="6.13072">
        <ele>2021.2</ele>
        <time>2021-02-27T12:35:37Z</time>
      </trkpt>
      <trkpt lat="45.22905" lon="6.13072">
        <ele>2021</ele>
        <time>2021-02-27T12:35:38Z</time>
      </trkpt>
      <trkpt lat="45.22905" lon="6.13073">
        <ele>2020.8</ele>
        <time>2021-02-27T12:35:39Z</time>
      </trkpt>
      <trkpt lat="45.22905" lon="6.13073">
        <ele>2020.8</ele>
        <time>2021-02-27T12:35:40Z</time>
      </trkpt>
      <trkpt lat="45.22904" lon="6.13074">
        <ele>2020.6</ele>
        <time>2021-02-27T12:35:41Z</time>
      </trkpt>
      <trkpt lat="45.22904" lon="6.13074">
        <ele>2020.6</ele>
        <time>2021-02-27T12:35:42Z</time>
      </trkpt>
      <trkpt lat="45.22904" lon="6.13075">
        <ele>2020.4</ele>
        <time>2021-02-27T12:35:43Z</time>
      </trkpt>
      <trkpt lat="45.22904" lon="6.13075">
        <ele>2020.4</ele>
        <time>2021-02-27T12:35:44Z</time>
      </trkpt>
      <trkpt lat="45.22904" lon="6.13076">
        <ele>2020.2</ele>
        <time>2021-02-27T12:35:45Z</time>
      </trkpt>
      <trkpt lat="45.22904" lon="6.13076">
        <ele>2020.2</ele>
        <time>2021-02-27T12:35:46Z</time>
      </trkpt>
      <trkpt lat="45.22903" lon="6.13077">
        <ele>2020.2</ele>
        <time>2021-02-27T12:35:47Z</time>
      </trkpt>
      <trkpt lat="45.22903" lon="6.13077">
        <ele>2020.4</ele>
        <time>2021-02-27T12:35:48Z</time>
      </trkpt>
      <trkpt lat="45.22903" lon="6.13078">
        <ele>2020.6</ele>
        <time>2021-02-27T12:35:49Z</time>
      </trkpt>
      <trkpt lat="45.22903" lon="6.13078">
        <ele>2021</ele>
        <time>2021-02-27T12:35:50Z</time>
      </trkpt>
      <trkpt lat="45.22903" lon="6.13079">
        <ele>2021</ele>
        <time>2021-02-27T12:35:51Z</time>
      </trkpt>
      <trkpt lat="45.22903" lon="6.13079">
        <ele>2020.8</ele>
        <time>2021-02-27T12:35:52Z</time>
      </trkpt>
      <trkpt lat="45.22902" lon="6.13079">
        <ele>2020.4</ele>
        <time>2021-02-27T12:35:53Z</time>
      </trkpt>
      <trkpt lat="45.22902" lon="6.1308">
        <ele>2020.4</ele>
        <time>2021-02-27T12:35:54Z</time>
      </trkpt>
      <trkpt lat="45.22903" lon="6.13082">
        <ele>2020.6</ele>
        <time>2021-02-27T12:35:55Z</time>
      </trkpt>
      <trkpt lat="45.22903" lon="6.13084">
        <ele>2020</ele>
        <time>2021-02-27T12:35:56Z</time>
      </trkpt>
      <trkpt lat="45.22904" lon="6.13085">
        <ele>2020</ele>
        <time>2021-02-27T12:35:57Z</time>
      </trkpt>
      <trkpt lat="45.22904" lon="6.13087">
        <ele>2019.4</ele>
        <time>2021-02-27T12:35:58Z</time>
      </trkpt>
      <trkpt lat="45.22904" lon="6.13089">
        <ele>2018.4</ele>
        <time>2021-02-27T12:35:59Z</time>
      </trkpt>
      <trkpt lat="45.22905" lon="6.13091">
        <ele>2017.6</ele>
        <time>2021-02-27T12:36:00Z</time>
      </trkpt>
      <trkpt lat="45.22905" lon="6.13092">
        <ele>2016.4</ele>
        <time>2021-02-27T12:36:01Z</time>
      </trkpt>
      <trkpt lat="45.22906" lon="6.13094">
        <ele>2015.6</ele>
        <time>2021-02-27T12:36:02Z</time>
      </trkpt>
      <trkpt lat="45.22906" lon="6.13096">
        <ele>2015</ele>
        <time>2021-02-27T12:36:03Z</time>
      </trkpt>
      <trkpt lat="45.22907" lon="6.13098">
        <ele>2014.4</ele>
        <time>2021-02-27T12:36:04Z</time>
      </trkpt>
      <trkpt lat="45.22907" lon="6.131">
        <ele>2013.8</ele>
        <time>2021-02-27T12:36:05Z</time>
      </trkpt>
      <trkpt lat="45.22907" lon="6.13101">
        <ele>2013.6</ele>
        <time>2021-02-27T12:36:06Z</time>
      </trkpt>
      <trkpt lat="45.22908" lon="6.13103">
        <ele>2013.2</ele>
        <time>2021-02-27T12:36:07Z</time>
      </trkpt>
      <trkpt lat="45.22908" lon="6.1311">
        <ele>2012.2</ele>
        <time>2021-02-27T12:36:08Z</time>
      </trkpt>
      <trkpt lat="45.22908" lon="6.1311">
        <ele>2011.6</ele>
        <time>2021-02-27T12:36:09Z</time>
      </trkpt>
      <trkpt lat="45.22907" lon="6.13114">
        <ele>2011</ele>
        <time>2021-02-27T12:36:10Z</time>
      </trkpt>
      <trkpt lat="45.22907" lon="6.13119">
        <ele>2010.4</ele>
        <time>2021-02-27T12:36:11Z</time>
      </trkpt>
      <trkpt lat="45.22906" lon="6.13123">
        <ele>2009.6</ele>
        <time>2021-02-27T12:36:12Z</time>
      </trkpt>
      <trkpt lat="45.22886" lon="6.13124">
        <ele>2009</ele>
        <time>2021-02-27T12:36:13Z</time>
      </trkpt>
      <trkpt lat="45.22883" lon="6.13125">
        <ele>2008.4</ele>
        <time>2021-02-27T12:36:14Z</time>
      </trkpt>
      <trkpt lat="45.22876" lon="6.13129">
        <ele>2007.8</ele>
        <time>2021-02-27T12:36:15Z</time>
      </trkpt>
      <trkpt lat="45.22874" lon="6.13131">
        <ele>2007.4</ele>
        <time>2021-02-27T12:36:16Z</time>
      </trkpt>
      <trkpt lat="45.22871" lon="6.13134">
        <ele>2006.6</ele>
        <time>2021-02-27T12:36:17Z</time>
      </trkpt>
      <trkpt lat="45.22869" lon="6.13136">
        <ele>2006.2</ele>
        <time>2021-02-27T12:36:18Z</time>
      </trkpt>
      <trkpt lat="45.22866" lon="6.13139">
        <ele>2005.4</ele>
        <time>2021-02-27T12:36:19Z</time>
      </trkpt>
      <trkpt lat="45.22864" lon="6.13143">
        <ele>2005</ele>
        <time>2021-02-27T12:36:20Z</time>
      </trkpt>
      <trkpt lat="45.22862" lon="6.13147">
        <ele>2004.6</ele>
        <time>2021-02-27T12:36:21Z</time>
      </trkpt>
      <trkpt lat="45.22861" lon="6.13151">
        <ele>2003.8</ele>
        <time>2021-02-27T12:36:22Z</time>
      </trkpt>
      <trkpt lat="45.2286" lon="6.13154">
        <ele>2003.2</ele>
        <time>2021-02-27T12:36:23Z</time>
      </trkpt>
      <trkpt lat="45.2286" lon="6.13154">
        <ele>2002.6</ele>
        <time>2021-02-27T12:36:24Z</time>
      </trkpt>
      <trkpt lat="45.22858" lon="6.13158">
        <ele>2002</ele>
        <time>2021-02-27T12:36:25Z</time>
      </trkpt>
      <trkpt lat="45.22857" lon="6.13161">
        <ele>2001.6</ele>
        <time>2021-02-27T12:36:26Z</time>
      </trkpt>
      <trkpt lat="45.22856" lon="6.13164">
        <ele>2001.4</ele>
        <time>2021-02-27T12:36:27Z</time>
      </trkpt>
      <trkpt lat="45.22854" lon="6.13167">
        <ele>2001</ele>
        <time>2021-02-27T12:36:28Z</time>
      </trkpt>
      <trkpt lat="45.22848" lon="6.13181">
        <ele>2000.4</ele>
        <time>2021-02-27T12:36:29Z</time>
      </trkpt>
      <trkpt lat="45.22847" lon="6.13184">
        <ele>2000.2</ele>
        <time>2021-02-27T12:36:30Z</time>
      </trkpt>
      <trkpt lat="45.22847" lon="6.13184">
        <ele>1999.2</ele>
        <time>2021-02-27T12:36:31Z</time>
      </trkpt>
      <trkpt lat="45.22843" lon="6.132">
        <ele>1998.2</ele>
        <time>2021-02-27T12:36:32Z</time>
      </trkpt>
      <trkpt lat="45.22842" lon="6.13202">
        <ele>1997.4</ele>
        <time>2021-02-27T12:36:33Z</time>
      </trkpt>
      <trkpt lat="45.22839" lon="6.13204">
        <ele>1996</ele>
        <time>2021-02-27T12:36:34Z</time>
      </trkpt>
      <trkpt lat="45.22839" lon="6.13204">
        <ele>1995.8</ele>
        <time>2021-02-27T12:36:35Z</time>
      </trkpt>
      <trkpt lat="45.22837" lon="6.13211">
        <ele>1994.6</ele>
        <time>2021-02-27T12:36:36Z</time>
      </trkpt>
      <trkpt lat="45.22834" lon="6.13219">
        <ele>1993.4</ele>
        <time>2021-02-27T12:36:37Z</time>
      </trkpt>
      <trkpt lat="45.22831" lon="6.13227">
        <ele>1992.8</ele>
        <time>2021-02-27T12:36:38Z</time>
      </trkpt>
      <trkpt lat="45.22829" lon="6.13235">
        <ele>1992</ele>
        <time>2021-02-27T12:36:39Z</time>
      </trkpt>
      <trkpt lat="45.22827" lon="6.13242">
        <ele>1991.2</ele>
        <time>2021-02-27T12:36:40Z</time>
      </trkpt>
      <trkpt lat="45.22826" lon="6.13249">
        <ele>1989.8</ele>
        <time>2021-02-27T12:36:41Z</time>
      </trkpt>
      <trkpt lat="45.22825" lon="6.13255">
        <ele>1988.8</ele>
        <time>2021-02-27T12:36:42Z</time>
      </trkpt>
      <trkpt lat="45.22825" lon="6.13262">
        <ele>1987.6</ele>
        <time>2021-02-27T12:36:43Z</time>
      </trkpt>
      <trkpt lat="45.22824" lon="6.13269">
        <ele>1986.8</ele>
        <time>2021-02-27T12:36:44Z</time>
      </trkpt>
      <trkpt lat="45.22824" lon="6.13275">
        <ele>1986.4</ele>
        <time>2021-02-27T12:36:45Z</time>
      </trkpt>
      <trkpt lat="45.22824" lon="6.1328">
        <ele>1985.2</ele>
        <time>2021-02-27T12:36:46Z</time>
      </trkpt>
      <trkpt lat="45.22824" lon="6.13285">
        <ele>1984.2</ele>
        <time>2021-02-27T12:36:47Z</time>
      </trkpt>
      <trkpt lat="45.22825" lon="6.1329">
        <ele>1983.4</ele>
        <time>2021-02-27T12:36:48Z</time>
      </trkpt>
      <trkpt lat="45.22826" lon="6.13296">
        <ele>1982.8</ele>
        <time>2021-02-27T12:36:49Z</time>
      </trkpt>
      <trkpt lat="45.22828" lon="6.13303">
        <ele>1982</ele>
        <time>2021-02-27T12:36:50Z</time>
      </trkpt>
      <trkpt lat="45.2283" lon="6.1331">
        <ele>1980.8</ele>
        <time>2021-02-27T12:36:51Z</time>
      </trkpt>
      <trkpt lat="45.22832" lon="6.13316">
        <ele>1979.8</ele>
        <time>2021-02-27T12:36:52Z</time>
      </trkpt>
      <trkpt lat="45.2283" lon="6.13321">
        <ele>1978.6</ele>
        <time>2021-02-27T12:36:53Z</time>
      </trkpt>
      <trkpt lat="45.22825" lon="6.13322">
        <ele>1978</ele>
        <time>2021-02-27T12:36:54Z</time>
      </trkpt>
      <trkpt lat="45.22822" lon="6.13326">
        <ele>1976.4</ele>
        <time>2021-02-27T12:36:55Z</time>
      </trkpt>
      <trkpt lat="45.22818" lon="6.13333">
        <ele>1975.6</ele>
        <time>2021-02-27T12:36:56Z</time>
      </trkpt>
      <trkpt lat="45.22813" lon="6.13335">
        <ele>1973.4</ele>
        <time>2021-02-27T12:36:57Z</time>
      </trkpt>
      <trkpt lat="45.22808" lon="6.13336">
        <ele>1970.6</ele>
        <time>2021-02-27T12:36:58Z</time>
      </trkpt>
      <trkpt lat="45.22804" lon="6.13339">
        <ele>1968</ele>
        <time>2021-02-27T12:36:59Z</time>
      </trkpt>
      <trkpt lat="45.22804" lon="6.13339">
        <ele>1966.2</ele>
        <time>2021-02-27T12:37:00Z</time>
      </trkpt>
      <trkpt lat="45.22804" lon="6.13351">
        <ele>1964.2</ele>
        <time>2021-02-27T12:37:01Z</time>
      </trkpt>
      <trkpt lat="45.22804" lon="6.13362">
        <ele>1962.2</ele>
        <time>2021-02-27T12:37:02Z</time>
      </trkpt>
      <trkpt lat="45.22804" lon="6.13373">
        <ele>1959.6</ele>
        <time>2021-02-27T12:37:03Z</time>
      </trkpt>
      <trkpt lat="45.22806" lon="6.13387">
        <ele>1957.4</ele>
        <time>2021-02-27T12:37:04Z</time>
      </trkpt>
      <trkpt lat="45.2281" lon="6.134">
        <ele>1954.8</ele>
        <time>2021-02-27T12:37:05Z</time>
      </trkpt>
      <trkpt lat="45.22813" lon="6.13412">
        <ele>1952.2</ele>
        <time>2021-02-27T12:37:06Z</time>
      </trkpt>
      <trkpt lat="45.22815" lon="6.13422">
        <ele>1950.4</ele>
        <time>2021-02-27T12:37:07Z</time>
      </trkpt>
      <trkpt lat="45.22816" lon="6.1343">
        <ele>1948.2</ele>
        <time>2021-02-27T12:37:08Z</time>
      </trkpt>
      <trkpt lat="45.22817" lon="6.13438">
        <ele>1946.6</ele>
        <time>2021-02-27T12:37:09Z</time>
      </trkpt>
      <trkpt lat="45.22818" lon="6.13446">
        <ele>1945.2</ele>
        <time>2021-02-27T12:37:10Z</time>
      </trkpt>
      <trkpt lat="45.22818" lon="6.13453">
        <ele>1944.2</ele>
        <time>2021-02-27T12:37:11Z</time>
      </trkpt>
      <trkpt lat="45.22816" lon="6.13458">
        <ele>1943</ele>
        <time>2021-02-27T12:37:12Z</time>
      </trkpt>
      <trkpt lat="45.22814" lon="6.13458">
        <ele>1942</ele>
        <time>2021-02-27T12:37:13Z</time>
      </trkpt>
      <trkpt lat="45.22814" lon="6.13458">
        <ele>1940.6</ele>
        <time>2021-02-27T12:37:14Z</time>
      </trkpt>
      <trkpt lat="45.22813" lon="6.13454">
        <ele>1939.4</ele>
        <time>2021-02-27T12:37:15Z</time>
      </trkpt>
      <trkpt lat="45.22812" lon="6.13451">
        <ele>1938.4</ele>
        <time>2021-02-27T12:37:16Z</time>
      </trkpt>
      <trkpt lat="45.2281" lon="6.13447">
        <ele>1938.2</ele>
        <time>2021-02-27T12:37:17Z</time>
      </trkpt>
      <trkpt lat="45.2281" lon="6.13444">
        <ele>1937.6</ele>
        <time>2021-02-27T12:37:18Z</time>
      </trkpt>
      <trkpt lat="45.2281" lon="6.13444">
        <ele>1937.2</ele>
        <time>2021-02-27T12:37:19Z</time>
      </trkpt>
      <trkpt lat="45.2281" lon="6.13444">
        <ele>1937</ele>
        <time>2021-02-27T12:37:20Z</time>
      </trkpt>
      <trkpt lat="45.2281" lon="6.13444">
        <ele>1936.8</ele>
        <time>2021-02-27T12:37:21Z</time>
      </trkpt>
      <trkpt lat="45.2281" lon="6.13444">
        <ele>1936.6</ele>
        <time>2021-02-27T12:37:22Z</time>
      </trkpt>
      <trkpt lat="45.2281" lon="6.13444">
        <ele>1936.4</ele>
        <time>2021-02-27T12:37:23Z</time>
      </trkpt>
      <trkpt lat="45.2281" lon="6.13444">
        <ele>1936.2</ele>
        <time>2021-02-27T12:37:24Z</time>
      </trkpt>
      <trkpt lat="45.2281" lon="6.13444">
        <ele>1936.2</ele>
        <time>2021-02-27T12:37:25Z</time>
      </trkpt>
      <trkpt lat="45.2281" lon="6.13444">
        <ele>1936.2</ele>
        <time>2021-02-27T12:37:26Z</time>
      </trkpt>
      <trkpt lat="45.2281" lon="6.13444">
        <ele>1936.4</ele>
        <time>2021-02-27T12:37:27Z</time>
      </trkpt>
      <trkpt lat="45.2281" lon="6.13444">
        <ele>1936.4</ele>
        <time>2021-02-27T12:37:28Z</time>
      </trkpt>
      <trkpt lat="45.2281" lon="6.13444">
        <ele>1936.4</ele>
        <time>2021-02-27T12:37:29Z</time>
      </trkpt>
      <trkpt lat="45.2281" lon="6.13444">
        <ele>1936.4</ele>
        <time>2021-02-27T12:37:30Z</time>
      </trkpt>
      <trkpt lat="45.2281" lon="6.13444">
        <ele>1936.4</ele>
        <time>2021-02-27T12:37:31Z</time>
      </trkpt>
      <trkpt lat="45.2281" lon="6.13444">
        <ele>1936.4</ele>
        <time>2021-02-27T12:37:32Z</time>
      </trkpt>
      <trkpt lat="45.2281" lon="6.13444">
        <ele>1936.6</ele>
        <time>2021-02-27T12:37:33Z</time>
      </trkpt>
      <trkpt lat="45.2281" lon="6.13444">
        <ele>1936.4</ele>
        <time>2021-02-27T12:37:34Z</time>
      </trkpt>
      <trkpt lat="45.2281" lon="6.13444">
        <ele>1936.4</ele>
        <time>2021-02-27T12:37:35Z</time>
      </trkpt>
      <trkpt lat="45.2281" lon="6.13444">
        <ele>1936.4</ele>
        <time>2021-02-27T12:37:36Z</time>
      </trkpt>
      <trkpt lat="45.2281" lon="6.13444">
        <ele>1936.4</ele>
        <time>2021-02-27T12:37:37Z</time>
      </trkpt>
      <trkpt lat="45.2281" lon="6.13444">
        <ele>1936.6</ele>
        <time>2021-02-27T12:37:38Z</time>
      </trkpt>
      <trkpt lat="45.2281" lon="6.13444">
        <ele>1936.8</ele>
        <time>2021-02-27T12:37:39Z</time>
      </trkpt>
      <trkpt lat="45.2281" lon="6.13444">
        <ele>1937</ele>
        <time>2021-02-27T12:37:40Z</time>
      </trkpt>
      <trkpt lat="45.2281" lon="6.13444">
        <ele>1936.6</ele>
        <time>2021-02-27T12:37:41Z</time>
      </trkpt>
      <trkpt lat="45.2281" lon="6.13444">
        <ele>1936.4</ele>
        <time>2021-02-27T12:37:42Z</time>
      </trkpt>
      <trkpt lat="45.2281" lon="6.13444">
        <ele>1936.4</ele>
        <time>2021-02-27T12:37:43Z</time>
      </trkpt>
      <trkpt lat="45.2281" lon="6.13444">
        <ele>1936.4</ele>
        <time>2021-02-27T12:37:44Z</time>
      </trkpt>
      <trkpt lat="45.2281" lon="6.13444">
        <ele>1936.6</ele>
        <time>2021-02-27T12:37:45Z</time>
      </trkpt>
      <trkpt lat="45.2281" lon="6.13444">
        <ele>1936.8</ele>
        <time>2021-02-27T12:37:46Z</time>
      </trkpt>
      <trkpt lat="45.2281" lon="6.13444">
        <ele>1937</ele>
        <time>2021-02-27T12:37:47Z</time>
      </trkpt>
      <trkpt lat="45.2281" lon="6.13444">
        <ele>1937.2</ele>
        <time>2021-02-27T12:37:48Z</time>
      </trkpt>
      <trkpt lat="45.2281" lon="6.13444">
        <ele>1937.2</ele>
        <time>2021-02-27T12:37:49Z</time>
      </trkpt>
      <trkpt lat="45.2281" lon="6.13444">
        <ele>1937.4</ele>
        <time>2021-02-27T12:37:50Z</time>
      </trkpt>
      <trkpt lat="45.2281" lon="6.13444">
        <ele>1937.4</ele>
        <time>2021-02-27T12:37:51Z</time>
      </trkpt>
      <trkpt lat="45.2281" lon="6.13444">
        <ele>1937.8</ele>
        <time>2021-02-27T12:37:52Z</time>
      </trkpt>
      <trkpt lat="45.2281" lon="6.13444">
        <ele>1937.8</ele>
        <time>2021-02-27T12:37:53Z</time>
      </trkpt>
      <trkpt lat="45.2281" lon="6.13444">
        <ele>1937.8</ele>
        <time>2021-02-27T12:37:54Z</time>
      </trkpt>
      <trkpt lat="45.2281" lon="6.13444">
        <ele>1937.8</ele>
        <time>2021-02-27T12:37:55Z</time>
      </trkpt>
      <trkpt lat="45.2281" lon="6.13444">
        <ele>1937.8</ele>
        <time>2021-02-27T12:37:56Z</time>
      </trkpt>
      <trkpt lat="45.2281" lon="6.13444">
        <ele>1938</ele>
        <time>2021-02-27T12:37:57Z</time>
      </trkpt>
      <trkpt lat="45.2281" lon="6.13444">
        <ele>1938</ele>
        <time>2021-02-27T12:37:58Z</time>
      </trkpt>
      <trkpt lat="45.2281" lon="6.13444">
        <ele>1937.8</ele>
        <time>2021-02-27T12:37:59Z</time>
      </trkpt>
      <trkpt lat="45.2281" lon="6.13444">
        <ele>1937.8</ele>
        <time>2021-02-27T12:38:00Z</time>
      </trkpt>
      <trkpt lat="45.2281" lon="6.13444">
        <ele>1937.8</ele>
        <time>2021-02-27T12:38:01Z</time>
      </trkpt>
      <trkpt lat="45.2281" lon="6.13444">
        <ele>1938</ele>
        <time>2021-02-27T12:38:02Z</time>
      </trkpt>
      <trkpt lat="45.2281" lon="6.13444">
        <ele>1937.8</ele>
        <time>2021-02-27T12:38:03Z</time>
      </trkpt>
      <trkpt lat="45.2281" lon="6.13444">
        <ele>1938</ele>
        <time>2021-02-27T12:38:04Z</time>
      </trkpt>
      <trkpt lat="45.2281" lon="6.13444">
        <ele>1938</ele>
        <time>2021-02-27T12:38:05Z</time>
      </trkpt>
      <trkpt lat="45.2281" lon="6.13444">
        <ele>1937.8</ele>
        <time>2021-02-27T12:38:06Z</time>
      </trkpt>
      <trkpt lat="45.2281" lon="6.13444">
        <ele>1938</ele>
        <time>2021-02-27T12:38:07Z</time>
      </trkpt>
      <trkpt lat="45.2281" lon="6.13444">
        <ele>1938</ele>
        <time>2021-02-27T12:38:08Z</time>
      </trkpt>
      <trkpt lat="45.2281" lon="6.13444">
        <ele>1938.2</ele>
        <time>2021-02-27T12:38:09Z</time>
      </trkpt>
      <trkpt lat="45.2281" lon="6.13444">
        <ele>1938</ele>
        <time>2021-02-27T12:38:10Z</time>
      </trkpt>
      <trkpt lat="45.2281" lon="6.13444">
        <ele>1938</ele>
        <time>2021-02-27T12:38:11Z</time>
      </trkpt>
      <trkpt lat="45.2281" lon="6.13444">
        <ele>1938</ele>
        <time>2021-02-27T12:38:12Z</time>
      </trkpt>
      <trkpt lat="45.2281" lon="6.13444">
        <ele>1938</ele>
        <time>2021-02-27T12:38:13Z</time>
      </trkpt>
      <trkpt lat="45.2281" lon="6.13444">
        <ele>1938.2</ele>
        <time>2021-02-27T12:38:14Z</time>
      </trkpt>
      <trkpt lat="45.2281" lon="6.13444">
        <ele>1938.4</ele>
        <time>2021-02-27T12:38:15Z</time>
      </trkpt>
      <trkpt lat="45.2281" lon="6.13444">
        <ele>1938.4</ele>
        <time>2021-02-27T12:38:16Z</time>
      </trkpt>
      <trkpt lat="45.2281" lon="6.13444">
        <ele>1938.6</ele>
        <time>2021-02-27T12:38:17Z</time>
      </trkpt>
      <trkpt lat="45.2281" lon="6.13444">
        <ele>1938.8</ele>
        <time>2021-02-27T12:38:18Z</time>
      </trkpt>
      <trkpt lat="45.2281" lon="6.13444">
        <ele>1938.8</ele>
        <time>2021-02-27T12:38:19Z</time>
      </trkpt>
      <trkpt lat="45.2281" lon="6.13444">
        <ele>1938.6</ele>
        <time>2021-02-27T12:38:20Z</time>
      </trkpt>
      <trkpt lat="45.2281" lon="6.13444">
        <ele>1938.6</ele>
        <time>2021-02-27T12:38:21Z</time>
      </trkpt>
      <trkpt lat="45.2281" lon="6.13444">
        <ele>1938.8</ele>
        <time>2021-02-27T12:38:22Z</time>
      </trkpt>
      <trkpt lat="45.2281" lon="6.13444">
        <ele>1939</ele>
        <time>2021-02-27T12:38:23Z</time>
      </trkpt>
      <trkpt lat="45.2281" lon="6.13444">
        <ele>1939</ele>
        <time>2021-02-27T12:38:24Z</time>
      </trkpt>
      <trkpt lat="45.2281" lon="6.13444">
        <ele>1939.4</ele>
        <time>2021-02-27T12:38:25Z</time>
      </trkpt>
      <trkpt lat="45.2281" lon="6.13444">
        <ele>1939</ele>
        <time>2021-02-27T12:38:26Z</time>
      </trkpt>
      <trkpt lat="45.2281" lon="6.13444">
        <ele>1939</ele>
        <time>2021-02-27T12:38:27Z</time>
      </trkpt>
      <trkpt lat="45.2281" lon="6.13444">
        <ele>1939</ele>
        <time>2021-02-27T12:38:28Z</time>
      </trkpt>
      <trkpt lat="45.2281" lon="6.13444">
        <ele>1939.2</ele>
        <time>2021-02-27T12:38:29Z</time>
      </trkpt>
      <trkpt lat="45.2281" lon="6.13444">
        <ele>1939.2</ele>
        <time>2021-02-27T12:38:30Z</time>
      </trkpt>
      <trkpt lat="45.2281" lon="6.13444">
        <ele>1939.2</ele>
        <time>2021-02-27T12:38:31Z</time>
      </trkpt>
      <trkpt lat="45.2281" lon="6.13444">
        <ele>1939.4</ele>
        <time>2021-02-27T12:38:32Z</time>
      </trkpt>
      <trkpt lat="45.2281" lon="6.13444">
        <ele>1939.4</ele>
        <time>2021-02-27T12:38:33Z</time>
      </trkpt>
      <trkpt lat="45.22808" lon="6.13442">
        <ele>1939.2</ele>
        <time>2021-02-27T12:38:34Z</time>
      </trkpt>
      <trkpt lat="45.22808" lon="6.13442">
        <ele>1939.2</ele>
        <time>2021-02-27T12:38:35Z</time>
      </trkpt>
      <trkpt lat="45.22808" lon="6.13442">
        <ele>1939.4</ele>
        <time>2021-02-27T12:38:36Z</time>
      </trkpt>
      <trkpt lat="45.22808" lon="6.13442">
        <ele>1939.4</ele>
        <time>2021-02-27T12:38:37Z</time>
      </trkpt>
      <trkpt lat="45.22808" lon="6.13442">
        <ele>1939.4</ele>
        <time>2021-02-27T12:38:38Z</time>
      </trkpt>
      <trkpt lat="45.22808" lon="6.13442">
        <ele>1939.2</ele>
        <time>2021-02-27T12:38:39Z</time>
      </trkpt>
      <trkpt lat="45.22808" lon="6.13442">
        <ele>1939.4</ele>
        <time>2021-02-27T12:38:40Z</time>
      </trkpt>
      <trkpt lat="45.22808" lon="6.13442">
        <ele>1939.4</ele>
        <time>2021-02-27T12:38:41Z</time>
      </trkpt>
      <trkpt lat="45.22808" lon="6.13442">
        <ele>1939.4</ele>
        <time>2021-02-27T12:38:42Z</time>
      </trkpt>
      <trkpt lat="45.22808" lon="6.13442">
        <ele>1939.6</ele>
        <time>2021-02-27T12:38:43Z</time>
      </trkpt>
      <trkpt lat="45.22808" lon="6.13442">
        <ele>1939.6</ele>
        <time>2021-02-27T12:38:44Z</time>
      </trkpt>
      <trkpt lat="45.22808" lon="6.13442">
        <ele>1939.8</ele>
        <time>2021-02-27T12:38:45Z</time>
      </trkpt>
      <trkpt lat="45.22808" lon="6.13442">
        <ele>1939.8</ele>
        <time>2021-02-27T12:38:46Z</time>
      </trkpt>
      <trkpt lat="45.22808" lon="6.13442">
        <ele>1939.6</ele>
        <time>2021-02-27T12:38:47Z</time>
      </trkpt>
      <trkpt lat="45.22808" lon="6.13442">
        <ele>1939.4</ele>
        <time>2021-02-27T12:38:48Z</time>
      </trkpt>
      <trkpt lat="45.22805" lon="6.13441">
        <ele>1939.4</ele>
        <time>2021-02-27T12:38:49Z</time>
      </trkpt>
      <trkpt lat="45.22803" lon="6.13445">
        <ele>1939.2</ele>
        <time>2021-02-27T12:38:50Z</time>
      </trkpt>
      <trkpt lat="45.22803" lon="6.13451">
        <ele>1939.2</ele>
        <time>2021-02-27T12:38:51Z</time>
      </trkpt>
      <trkpt lat="45.22803" lon="6.13457">
        <ele>1938.2</ele>
        <time>2021-02-27T12:38:52Z</time>
      </trkpt>
      <trkpt lat="45.22799" lon="6.13459">
        <ele>1937.4</ele>
        <time>2021-02-27T12:38:53Z</time>
      </trkpt>
      <trkpt lat="45.22795" lon="6.13457">
        <ele>1936</ele>
        <time>2021-02-27T12:38:54Z</time>
      </trkpt>
      <trkpt lat="45.22791" lon="6.13458">
        <ele>1934.6</ele>
        <time>2021-02-27T12:38:55Z</time>
      </trkpt>
      <trkpt lat="45.22789" lon="6.13463">
        <ele>1933.4</ele>
        <time>2021-02-27T12:38:56Z</time>
      </trkpt>
      <trkpt lat="45.22788" lon="6.13471">
        <ele>1932.4</ele>
        <time>2021-02-27T12:38:57Z</time>
      </trkpt>
      <trkpt lat="45.22786" lon="6.13477">
        <ele>1930.6</ele>
        <time>2021-02-27T12:38:58Z</time>
      </trkpt>
      <trkpt lat="45.22782" lon="6.13478">
        <ele>1929.6</ele>
        <time>2021-02-27T12:38:59Z</time>
      </trkpt>
      <trkpt lat="45.22776" lon="6.13477">
        <ele>1927.6</ele>
        <time>2021-02-27T12:39:00Z</time>
      </trkpt>
      <trkpt lat="45.22776" lon="6.13477">
        <ele>1925.2</ele>
        <time>2021-02-27T12:39:01Z</time>
      </trkpt>
      <trkpt lat="45.22769" lon="6.13494">
        <ele>1923.6</ele>
        <time>2021-02-27T12:39:02Z</time>
      </trkpt>
      <trkpt lat="45.22767" lon="6.13497">
        <ele>1921.4</ele>
        <time>2021-02-27T12:39:03Z</time>
      </trkpt>
      <trkpt lat="45.22763" lon="6.13502">
        <ele>1919</ele>
        <time>2021-02-27T12:39:04Z</time>
      </trkpt>
      <trkpt lat="45.22756" lon="6.13496">
        <ele>1916.6</ele>
        <time>2021-02-27T12:39:05Z</time>
      </trkpt>
      <trkpt lat="45.22749" lon="6.13488">
        <ele>1914.4</ele>
        <time>2021-02-27T12:39:06Z</time>
      </trkpt>
      <trkpt lat="45.22744" lon="6.13483">
        <ele>1911.8</ele>
        <time>2021-02-27T12:39:07Z</time>
      </trkpt>
      <trkpt lat="45.22738" lon="6.13485">
        <ele>1909.2</ele>
        <time>2021-02-27T12:39:08Z</time>
      </trkpt>
      <trkpt lat="45.22738" lon="6.13485">
        <ele>1907.4</ele>
        <time>2021-02-27T12:39:09Z</time>
      </trkpt>
      <trkpt lat="45.22732" lon="6.13507">
        <ele>1905.2</ele>
        <time>2021-02-27T12:39:10Z</time>
      </trkpt>
      <trkpt lat="45.22729" lon="6.13509">
        <ele>1902.6</ele>
        <time>2021-02-27T12:39:11Z</time>
      </trkpt>
      <trkpt lat="45.22723" lon="6.13514">
        <ele>1900</ele>
        <time>2021-02-27T12:39:12Z</time>
      </trkpt>
      <trkpt lat="45.22721" lon="6.13517">
        <ele>1897.6</ele>
        <time>2021-02-27T12:39:13Z</time>
      </trkpt>
      <trkpt lat="45.22716" lon="6.13524">
        <ele>1895</ele>
        <time>2021-02-27T12:39:14Z</time>
      </trkpt>
      <trkpt lat="45.22715" lon="6.13526">
        <ele>1892.2</ele>
        <time>2021-02-27T12:39:15Z</time>
      </trkpt>
      <trkpt lat="45.22714" lon="6.13529">
        <ele>1889.4</ele>
        <time>2021-02-27T12:39:16Z</time>
      </trkpt>
      <trkpt lat="45.22703" lon="6.13537">
        <ele>1887.2</ele>
        <time>2021-02-27T12:39:17Z</time>
      </trkpt>
      <trkpt lat="45.22702" lon="6.1354">
        <ele>1885</ele>
        <time>2021-02-27T12:39:18Z</time>
      </trkpt>
      <trkpt lat="45.22702" lon="6.1354">
        <ele>1882</ele>
        <time>2021-02-27T12:39:19Z</time>
      </trkpt>
      <trkpt lat="45.22699" lon="6.13556">
        <ele>1879.2</ele>
        <time>2021-02-27T12:39:20Z</time>
      </trkpt>
      <trkpt lat="45.22698" lon="6.13559">
        <ele>1877</ele>
        <time>2021-02-27T12:39:21Z</time>
      </trkpt>
      <trkpt lat="45.22695" lon="6.13561">
        <ele>1874.2</ele>
        <time>2021-02-27T12:39:22Z</time>
      </trkpt>
      <trkpt lat="45.2269" lon="6.13563">
        <ele>1872</ele>
        <time>2021-02-27T12:39:23Z</time>
      </trkpt>
      <trkpt lat="45.22685" lon="6.13564">
        <ele>1869.8</ele>
        <time>2021-02-27T12:39:24Z</time>
      </trkpt>
      <trkpt lat="45.22679" lon="6.13563">
        <ele>1867.8</ele>
        <time>2021-02-27T12:39:25Z</time>
      </trkpt>
      <trkpt lat="45.22673" lon="6.13565">
        <ele>1866</ele>
        <time>2021-02-27T12:39:26Z</time>
      </trkpt>
      <trkpt lat="45.22666" lon="6.13568">
        <ele>1863</ele>
        <time>2021-02-27T12:39:27Z</time>
      </trkpt>
      <trkpt lat="45.22661" lon="6.13572">
        <ele>1860.6</ele>
        <time>2021-02-27T12:39:28Z</time>
      </trkpt>
      <trkpt lat="45.22661" lon="6.1358">
        <ele>1858</ele>
        <time>2021-02-27T12:39:29Z</time>
      </trkpt>
      <trkpt lat="45.22662" lon="6.13588">
        <ele>1855</ele>
        <time>2021-02-27T12:39:30Z</time>
      </trkpt>
      <trkpt lat="45.22664" lon="6.13596">
        <ele>1852.6</ele>
        <time>2021-02-27T12:39:31Z</time>
      </trkpt>
      <trkpt lat="45.22664" lon="6.13604">
        <ele>1851.2</ele>
        <time>2021-02-27T12:39:32Z</time>
      </trkpt>
      <trkpt lat="45.22665" lon="6.13611">
        <ele>1849.4</ele>
        <time>2021-02-27T12:39:33Z</time>
      </trkpt>
      <trkpt lat="45.22667" lon="6.13618">
        <ele>1848</ele>
        <time>2021-02-27T12:39:34Z</time>
      </trkpt>
      <trkpt lat="45.2267" lon="6.13624">
        <ele>1846.4</ele>
        <time>2021-02-27T12:39:35Z</time>
      </trkpt>
      <trkpt lat="45.22672" lon="6.1363">
        <ele>1845.2</ele>
        <time>2021-02-27T12:39:36Z</time>
      </trkpt>
      <trkpt lat="45.22674" lon="6.13636">
        <ele>1844.2</ele>
        <time>2021-02-27T12:39:37Z</time>
      </trkpt>
      <trkpt lat="45.22676" lon="6.13643">
        <ele>1843.2</ele>
        <time>2021-02-27T12:39:38Z</time>
      </trkpt>
      <trkpt lat="45.22678" lon="6.1365">
        <ele>1842.4</ele>
        <time>2021-02-27T12:39:39Z</time>
      </trkpt>
      <trkpt lat="45.22679" lon="6.13658">
        <ele>1842</ele>
        <time>2021-02-27T12:39:40Z</time>
      </trkpt>
      <trkpt lat="45.22679" lon="6.13667">
        <ele>1841.8</ele>
        <time>2021-02-27T12:39:41Z</time>
      </trkpt>
      <trkpt lat="45.22679" lon="6.13675">
        <ele>1840.8</ele>
        <time>2021-02-27T12:39:42Z</time>
      </trkpt>
      <trkpt lat="45.22676" lon="6.13679">
        <ele>1840</ele>
        <time>2021-02-27T12:39:43Z</time>
      </trkpt>
      <trkpt lat="45.2267" lon="6.13682">
        <ele>1839</ele>
        <time>2021-02-27T12:39:44Z</time>
      </trkpt>
      <trkpt lat="45.22667" lon="6.1369">
        <ele>1837.6</ele>
        <time>2021-02-27T12:39:45Z</time>
      </trkpt>
      <trkpt lat="45.22667" lon="6.137">
        <ele>1835.8</ele>
        <time>2021-02-27T12:39:46Z</time>
      </trkpt>
      <trkpt lat="45.22667" lon="6.13711">
        <ele>1833.8</ele>
        <time>2021-02-27T12:39:47Z</time>
      </trkpt>
      <trkpt lat="45.22667" lon="6.13722">
        <ele>1831.4</ele>
        <time>2021-02-27T12:39:48Z</time>
      </trkpt>
      <trkpt lat="45.22664" lon="6.13731">
        <ele>1829.8</ele>
        <time>2021-02-27T12:39:49Z</time>
      </trkpt>
      <trkpt lat="45.22659" lon="6.13736">
        <ele>1828.6</ele>
        <time>2021-02-27T12:39:50Z</time>
      </trkpt>
      <trkpt lat="45.22653" lon="6.1374">
        <ele>1827.4</ele>
        <time>2021-02-27T12:39:51Z</time>
      </trkpt>
      <trkpt lat="45.22648" lon="6.13748">
        <ele>1826</ele>
        <time>2021-02-27T12:39:52Z</time>
      </trkpt>
      <trkpt lat="45.22645" lon="6.13758">
        <ele>1824.2</ele>
        <time>2021-02-27T12:39:53Z</time>
      </trkpt>
      <trkpt lat="45.22642" lon="6.13769">
        <ele>1822.4</ele>
        <time>2021-02-27T12:39:54Z</time>
      </trkpt>
      <trkpt lat="45.2264" lon="6.13779">
        <ele>1820.4</ele>
        <time>2021-02-27T12:39:55Z</time>
      </trkpt>
      <trkpt lat="45.22638" lon="6.13789">
        <ele>1818.6</ele>
        <time>2021-02-27T12:39:56Z</time>
      </trkpt>
      <trkpt lat="45.22635" lon="6.13797">
        <ele>1817.4</ele>
        <time>2021-02-27T12:39:57Z</time>
      </trkpt>
      <trkpt lat="45.22633" lon="6.13804">
        <ele>1816</ele>
        <time>2021-02-27T12:39:58Z</time>
      </trkpt>
      <trkpt lat="45.2263" lon="6.1381">
        <ele>1814.8</ele>
        <time>2021-02-27T12:39:59Z</time>
      </trkpt>
      <trkpt lat="45.22628" lon="6.13816">
        <ele>1813.6</ele>
        <time>2021-02-27T12:40:00Z</time>
      </trkpt>
      <trkpt lat="45.22627" lon="6.13822">
        <ele>1812.6</ele>
        <time>2021-02-27T12:40:01Z</time>
      </trkpt>
      <trkpt lat="45.22626" lon="6.13827">
        <ele>1812</ele>
        <time>2021-02-27T12:40:02Z</time>
      </trkpt>
      <trkpt lat="45.22624" lon="6.13832">
        <ele>1811.8</ele>
        <time>2021-02-27T12:40:03Z</time>
      </trkpt>
      <trkpt lat="45.22623" lon="6.13837">
        <ele>1811</ele>
        <time>2021-02-27T12:40:04Z</time>
      </trkpt>
      <trkpt lat="45.22622" lon="6.13842">
        <ele>1810.2</ele>
        <time>2021-02-27T12:40:05Z</time>
      </trkpt>
      <trkpt lat="45.22621" lon="6.13846">
        <ele>1809.8</ele>
        <time>2021-02-27T12:40:06Z</time>
      </trkpt>
      <trkpt lat="45.2262" lon="6.13851">
        <ele>1809</ele>
        <time>2021-02-27T12:40:07Z</time>
      </trkpt>
      <trkpt lat="45.22619" lon="6.13855">
        <ele>1808.2</ele>
        <time>2021-02-27T12:40:08Z</time>
      </trkpt>
      <trkpt lat="45.22618" lon="6.1386">
        <ele>1808</ele>
        <time>2021-02-27T12:40:09Z</time>
      </trkpt>
      <trkpt lat="45.22618" lon="6.13864">
        <ele>1807.6</ele>
        <time>2021-02-27T12:40:10Z</time>
      </trkpt>
      <trkpt lat="45.22617" lon="6.13867">
        <ele>1807.2</ele>
        <time>2021-02-27T12:40:11Z</time>
      </trkpt>
      <trkpt lat="45.22617" lon="6.13871">
        <ele>1806.8</ele>
        <time>2021-02-27T12:40:12Z</time>
      </trkpt>
      <trkpt lat="45.22616" lon="6.13875">
        <ele>1806.6</ele>
        <time>2021-02-27T12:40:13Z</time>
      </trkpt>
      <trkpt lat="45.22615" lon="6.13879">
        <ele>1806.4</ele>
        <time>2021-02-27T12:40:14Z</time>
      </trkpt>
      <trkpt lat="45.22612" lon="6.13883">
        <ele>1805.8</ele>
        <time>2021-02-27T12:40:15Z</time>
      </trkpt>
      <trkpt lat="45.22608" lon="6.13889">
        <ele>1805.6</ele>
        <time>2021-02-27T12:40:16Z</time>
      </trkpt>
      <trkpt lat="45.22605" lon="6.13895">
        <ele>1804.8</ele>
        <time>2021-02-27T12:40:17Z</time>
      </trkpt>
      <trkpt lat="45.22601" lon="6.13902">
        <ele>1803.6</ele>
        <time>2021-02-27T12:40:18Z</time>
      </trkpt>
      <trkpt lat="45.22598" lon="6.1391">
        <ele>1802.6</ele>
        <time>2021-02-27T12:40:19Z</time>
      </trkpt>
      <trkpt lat="45.22595" lon="6.13917">
        <ele>1801.6</ele>
        <time>2021-02-27T12:40:20Z</time>
      </trkpt>
      <trkpt lat="45.22591" lon="6.13923">
        <ele>1800</ele>
        <time>2021-02-27T12:40:21Z</time>
      </trkpt>
      <trkpt lat="45.22588" lon="6.13931">
        <ele>1799</ele>
        <time>2021-02-27T12:40:22Z</time>
      </trkpt>
      <trkpt lat="45.22587" lon="6.13941">
        <ele>1797.6</ele>
        <time>2021-02-27T12:40:23Z</time>
      </trkpt>
      <trkpt lat="45.22586" lon="6.1395">
        <ele>1796</ele>
        <time>2021-02-27T12:40:24Z</time>
      </trkpt>
      <trkpt lat="45.22585" lon="6.1396">
        <ele>1794.4</ele>
        <time>2021-02-27T12:40:25Z</time>
      </trkpt>
      <trkpt lat="45.22584" lon="6.13969">
        <ele>1792.8</ele>
        <time>2021-02-27T12:40:26Z</time>
      </trkpt>
      <trkpt lat="45.22582" lon="6.13978">
        <ele>1791.4</ele>
        <time>2021-02-27T12:40:27Z</time>
      </trkpt>
      <trkpt lat="45.2258" lon="6.13986">
        <ele>1789.6</ele>
        <time>2021-02-27T12:40:28Z</time>
      </trkpt>
      <trkpt lat="45.22579" lon="6.13995">
        <ele>1787.6</ele>
        <time>2021-02-27T12:40:29Z</time>
      </trkpt>
      <trkpt lat="45.22577" lon="6.14005">
        <ele>1786</ele>
        <time>2021-02-27T12:40:30Z</time>
      </trkpt>
      <trkpt lat="45.22575" lon="6.14015">
        <ele>1784.6</ele>
        <time>2021-02-27T12:40:31Z</time>
      </trkpt>
      <trkpt lat="45.22574" lon="6.14026">
        <ele>1783.2</ele>
        <time>2021-02-27T12:40:32Z</time>
      </trkpt>
      <trkpt lat="45.22573" lon="6.14036">
        <ele>1781.8</ele>
        <time>2021-02-27T12:40:33Z</time>
      </trkpt>
      <trkpt lat="45.22572" lon="6.14045">
        <ele>1780.8</ele>
        <time>2021-02-27T12:40:34Z</time>
      </trkpt>
      <trkpt lat="45.22571" lon="6.14051">
        <ele>1780</ele>
        <time>2021-02-27T12:40:35Z</time>
      </trkpt>
      <trkpt lat="45.22571" lon="6.14057">
        <ele>1778.6</ele>
        <time>2021-02-27T12:40:36Z</time>
      </trkpt>
      <trkpt lat="45.2257" lon="6.14062">
        <ele>1777.4</ele>
        <time>2021-02-27T12:40:37Z</time>
      </trkpt>
      <trkpt lat="45.22569" lon="6.14068">
        <ele>1776.6</ele>
        <time>2021-02-27T12:40:38Z</time>
      </trkpt>
      <trkpt lat="45.22569" lon="6.14073">
        <ele>1775.8</ele>
        <time>2021-02-27T12:40:39Z</time>
      </trkpt>
      <trkpt lat="45.22568" lon="6.14079">
        <ele>1775.2</ele>
        <time>2021-02-27T12:40:40Z</time>
      </trkpt>
      <trkpt lat="45.22567" lon="6.14085">
        <ele>1774.4</ele>
        <time>2021-02-27T12:40:41Z</time>
      </trkpt>
      <trkpt lat="45.22565" lon="6.14091">
        <ele>1773.6</ele>
        <time>2021-02-27T12:40:42Z</time>
      </trkpt>
      <trkpt lat="45.22562" lon="6.14097">
        <ele>1773.2</ele>
        <time>2021-02-27T12:40:43Z</time>
      </trkpt>
      <trkpt lat="45.22559" lon="6.14104">
        <ele>1772</ele>
        <time>2021-02-27T12:40:44Z</time>
      </trkpt>
      <trkpt lat="45.22557" lon="6.14112">
        <ele>1771</ele>
        <time>2021-02-27T12:40:45Z</time>
      </trkpt>
      <trkpt lat="45.22555" lon="6.14118">
        <ele>1769.8</ele>
        <time>2021-02-27T12:40:46Z</time>
      </trkpt>
      <trkpt lat="45.22553" lon="6.14125">
        <ele>1768.8</ele>
        <time>2021-02-27T12:40:47Z</time>
      </trkpt>
      <trkpt lat="45.22552" lon="6.14131">
        <ele>1768.2</ele>
        <time>2021-02-27T12:40:48Z</time>
      </trkpt>
      <trkpt lat="45.22551" lon="6.14139">
        <ele>1767.2</ele>
        <time>2021-02-27T12:40:49Z</time>
      </trkpt>
      <trkpt lat="45.22551" lon="6.14146">
        <ele>1766.4</ele>
        <time>2021-02-27T12:40:50Z</time>
      </trkpt>
      <trkpt lat="45.22551" lon="6.14153">
        <ele>1765.4</ele>
        <time>2021-02-27T12:40:51Z</time>
      </trkpt>
      <trkpt lat="45.22552" lon="6.14159">
        <ele>1764.4</ele>
        <time>2021-02-27T12:40:52Z</time>
      </trkpt>
      <trkpt lat="45.22553" lon="6.14164">
        <ele>1763.6</ele>
        <time>2021-02-27T12:40:53Z</time>
      </trkpt>
      <trkpt lat="45.22554" lon="6.14169">
        <ele>1763.2</ele>
        <time>2021-02-27T12:40:54Z</time>
      </trkpt>
      <trkpt lat="45.22554" lon="6.14173">
        <ele>1762.4</ele>
        <time>2021-02-27T12:40:55Z</time>
      </trkpt>
      <trkpt lat="45.22554" lon="6.14173">
        <ele>1761.6</ele>
        <time>2021-02-27T12:40:56Z</time>
      </trkpt>
      <trkpt lat="45.22555" lon="6.14174">
        <ele>1761.8</ele>
        <time>2021-02-27T12:40:57Z</time>
      </trkpt>
      <trkpt lat="45.22556" lon="6.14175">
        <ele>1761.8</ele>
        <time>2021-02-27T12:40:58Z</time>
      </trkpt>
      <trkpt lat="45.22556" lon="6.14177">
        <ele>1761.8</ele>
        <time>2021-02-27T12:40:59Z</time>
      </trkpt>
      <trkpt lat="45.22557" lon="6.14178">
        <ele>1761.6</ele>
        <time>2021-02-27T12:41:00Z</time>
      </trkpt>
      <trkpt lat="45.22558" lon="6.14179">
        <ele>1761.2</ele>
        <time>2021-02-27T12:41:01Z</time>
      </trkpt>
      <trkpt lat="45.22558" lon="6.14181">
        <ele>1761.4</ele>
        <time>2021-02-27T12:41:02Z</time>
      </trkpt>
      <trkpt lat="45.22558" lon="6.14182">
        <ele>1761.2</ele>
        <time>2021-02-27T12:41:03Z</time>
      </trkpt>
      <trkpt lat="45.22559" lon="6.14183">
        <ele>1761.8</ele>
        <time>2021-02-27T12:41:04Z</time>
      </trkpt>
      <trkpt lat="45.22559" lon="6.14185">
        <ele>1762.2</ele>
        <time>2021-02-27T12:41:05Z</time>
      </trkpt>
      <trkpt lat="45.2256" lon="6.14186">
        <ele>1762.2</ele>
        <time>2021-02-27T12:41:06Z</time>
      </trkpt>
      <trkpt lat="45.2256" lon="6.14187">
        <ele>1762.2</ele>
        <time>2021-02-27T12:41:07Z</time>
      </trkpt>
      <trkpt lat="45.2256" lon="6.14189">
        <ele>1762.2</ele>
        <time>2021-02-27T12:41:08Z</time>
      </trkpt>
      <trkpt lat="45.22561" lon="6.1419">
        <ele>1762.4</ele>
        <time>2021-02-27T12:41:09Z</time>
      </trkpt>
      <trkpt lat="45.22561" lon="6.14191">
        <ele>1762.8</ele>
        <time>2021-02-27T12:41:10Z</time>
      </trkpt>
      <trkpt lat="45.22561" lon="6.14193">
        <ele>1763</ele>
        <time>2021-02-27T12:41:11Z</time>
      </trkpt>
      <trkpt lat="45.22562" lon="6.14196">
        <ele>1762.8</ele>
        <time>2021-02-27T12:41:12Z</time>
      </trkpt>
      <trkpt lat="45.22562" lon="6.142">
        <ele>1762.8</ele>
        <time>2021-02-27T12:41:13Z</time>
      </trkpt>
      <trkpt lat="45.22562" lon="6.14203">
        <ele>1762.2</ele>
        <time>2021-02-27T12:41:14Z</time>
      </trkpt>
      <trkpt lat="45.22562" lon="6.14207">
        <ele>1761.8</ele>
        <time>2021-02-27T12:41:15Z</time>
      </trkpt>
      <trkpt lat="45.22558" lon="6.1422">
        <ele>1761</ele>
        <time>2021-02-27T12:41:16Z</time>
      </trkpt>
      <trkpt lat="45.22558" lon="6.1422">
        <ele>1759.6</ele>
        <time>2021-02-27T12:41:17Z</time>
      </trkpt>
      <trkpt lat="45.22561" lon="6.14245">
        <ele>1757.6</ele>
        <time>2021-02-27T12:41:18Z</time>
      </trkpt>
      <trkpt lat="45.22562" lon="6.1425">
        <ele>1755.8</ele>
        <time>2021-02-27T12:41:19Z</time>
      </trkpt>
      <trkpt lat="45.22565" lon="6.14261">
        <ele>1754.2</ele>
        <time>2021-02-27T12:41:20Z</time>
      </trkpt>
      <trkpt lat="45.22566" lon="6.14264">
        <ele>1752.8</ele>
        <time>2021-02-27T12:41:21Z</time>
      </trkpt>
      <trkpt lat="45.22568" lon="6.1427">
        <ele>1751.6</ele>
        <time>2021-02-27T12:41:22Z</time>
      </trkpt>
      <trkpt lat="45.22568" lon="6.1427">
        <ele>1750.8</ele>
        <time>2021-02-27T12:41:23Z</time>
      </trkpt>
      <trkpt lat="45.22569" lon="6.14274">
        <ele>1750.4</ele>
        <time>2021-02-27T12:41:24Z</time>
      </trkpt>
      <trkpt lat="45.22571" lon="6.14278">
        <ele>1749.6</ele>
        <time>2021-02-27T12:41:25Z</time>
      </trkpt>
      <trkpt lat="45.22572" lon="6.14282">
        <ele>1748.8</ele>
        <time>2021-02-27T12:41:26Z</time>
      </trkpt>
      <trkpt lat="45.22574" lon="6.14285">
        <ele>1748.2</ele>
        <time>2021-02-27T12:41:27Z</time>
      </trkpt>
      <trkpt lat="45.22575" lon="6.14287">
        <ele>1748.2</ele>
        <time>2021-02-27T12:41:28Z</time>
      </trkpt>
      <trkpt lat="45.22576" lon="6.1429">
        <ele>1748</ele>
        <time>2021-02-27T12:41:29Z</time>
      </trkpt>
      <trkpt lat="45.22578" lon="6.14293">
        <ele>1748</ele>
        <time>2021-02-27T12:41:30Z</time>
      </trkpt>
      <trkpt lat="45.22579" lon="6.14295">
        <ele>1747.4</ele>
        <time>2021-02-27T12:41:31Z</time>
      </trkpt>
      <trkpt lat="45.2258" lon="6.14298">
        <ele>1747.4</ele>
        <time>2021-02-27T12:41:32Z</time>
      </trkpt>
      <trkpt lat="45.22582" lon="6.14301">
        <ele>1747</ele>
        <time>2021-02-27T12:41:33Z</time>
      </trkpt>
      <trkpt lat="45.22583" lon="6.14303">
        <ele>1747</ele>
        <time>2021-02-27T12:41:34Z</time>
      </trkpt>
      <trkpt lat="45.22584" lon="6.14305">
        <ele>1747</ele>
        <time>2021-02-27T12:41:35Z</time>
      </trkpt>
      <trkpt lat="45.22585" lon="6.14308">
        <ele>1747</ele>
        <time>2021-02-27T12:41:36Z</time>
      </trkpt>
      <trkpt lat="45.22585" lon="6.1431">
        <ele>1746.8</ele>
        <time>2021-02-27T12:41:37Z</time>
      </trkpt>
      <trkpt lat="45.22586" lon="6.14312">
        <ele>1746.8</ele>
        <time>2021-02-27T12:41:38Z</time>
      </trkpt>
      <trkpt lat="45.22587" lon="6.14314">
        <ele>1747</ele>
        <time>2021-02-27T12:41:39Z</time>
      </trkpt>
      <trkpt lat="45.22588" lon="6.14317">
        <ele>1747.2</ele>
        <time>2021-02-27T12:41:40Z</time>
      </trkpt>
      <trkpt lat="45.22588" lon="6.1432">
        <ele>1747.4</ele>
        <time>2021-02-27T12:41:41Z</time>
      </trkpt>
      <trkpt lat="45.22589" lon="6.14322">
        <ele>1746.6</ele>
        <time>2021-02-27T12:41:42Z</time>
      </trkpt>
      <trkpt lat="45.2259" lon="6.14325">
        <ele>1746.6</ele>
        <time>2021-02-27T12:41:43Z</time>
      </trkpt>
      <trkpt lat="45.2259" lon="6.14328">
        <ele>1746.4</ele>
        <time>2021-02-27T12:41:44Z</time>
      </trkpt>
      <trkpt lat="45.22591" lon="6.14331">
        <ele>1746.4</ele>
        <time>2021-02-27T12:41:45Z</time>
      </trkpt>
      <trkpt lat="45.22592" lon="6.14334">
        <ele>1745.8</ele>
        <time>2021-02-27T12:41:46Z</time>
      </trkpt>
      <trkpt lat="45.22593" lon="6.14336">
        <ele>1746</ele>
        <time>2021-02-27T12:41:47Z</time>
      </trkpt>
      <trkpt lat="45.22593" lon="6.14338">
        <ele>1746</ele>
        <time>2021-02-27T12:41:48Z</time>
      </trkpt>
      <trkpt lat="45.22594" lon="6.14341">
        <ele>1745.8</ele>
        <time>2021-02-27T12:41:49Z</time>
      </trkpt>
      <trkpt lat="45.22595" lon="6.14343">
        <ele>1745.8</ele>
        <time>2021-02-27T12:41:50Z</time>
      </trkpt>
      <trkpt lat="45.22597" lon="6.14346">
        <ele>1745.6</ele>
        <time>2021-02-27T12:41:51Z</time>
      </trkpt>
      <trkpt lat="45.22598" lon="6.14349">
        <ele>1745.4</ele>
        <time>2021-02-27T12:41:52Z</time>
      </trkpt>
      <trkpt lat="45.22599" lon="6.14352">
        <ele>1745.4</ele>
        <time>2021-02-27T12:41:53Z</time>
      </trkpt>
      <trkpt lat="45.22601" lon="6.14355">
        <ele>1745.6</ele>
        <time>2021-02-27T12:41:54Z</time>
      </trkpt>
      <trkpt lat="45.22602" lon="6.14358">
        <ele>1745.4</ele>
        <time>2021-02-27T12:41:55Z</time>
      </trkpt>
      <trkpt lat="45.22603" lon="6.14361">
        <ele>1745</ele>
        <time>2021-02-27T12:41:56Z</time>
      </trkpt>
      <trkpt lat="45.22604" lon="6.14364">
        <ele>1745</ele>
        <time>2021-02-27T12:41:57Z</time>
      </trkpt>
      <trkpt lat="45.22605" lon="6.14367">
        <ele>1744.4</ele>
        <time>2021-02-27T12:41:58Z</time>
      </trkpt>
      <trkpt lat="45.22606" lon="6.14371">
        <ele>1744.6</ele>
        <time>2021-02-27T12:41:59Z</time>
      </trkpt>
      <trkpt lat="45.22608" lon="6.14374">
        <ele>1744.2</ele>
        <time>2021-02-27T12:42:00Z</time>
      </trkpt>
      <trkpt lat="45.22609" lon="6.14377">
        <ele>1744.4</ele>
        <time>2021-02-27T12:42:01Z</time>
      </trkpt>
      <trkpt lat="45.2261" lon="6.1438">
        <ele>1744.2</ele>
        <time>2021-02-27T12:42:02Z</time>
      </trkpt>
      <trkpt lat="45.22611" lon="6.14383">
        <ele>1743.8</ele>
        <time>2021-02-27T12:42:03Z</time>
      </trkpt>
      <trkpt lat="45.22612" lon="6.14386">
        <ele>1743.6</ele>
        <time>2021-02-27T12:42:04Z</time>
      </trkpt>
      <trkpt lat="45.22614" lon="6.14389">
        <ele>1743</ele>
        <time>2021-02-27T12:42:05Z</time>
      </trkpt>
      <trkpt lat="45.22615" lon="6.14392">
        <ele>1743.4</ele>
        <time>2021-02-27T12:42:06Z</time>
      </trkpt>
      <trkpt lat="45.22615" lon="6.14395">
        <ele>1743.8</ele>
        <time>2021-02-27T12:42:07Z</time>
      </trkpt>
      <trkpt lat="45.22616" lon="6.14398">
        <ele>1744</ele>
        <time>2021-02-27T12:42:08Z</time>
      </trkpt>
      <trkpt lat="45.22617" lon="6.14402">
        <ele>1744</ele>
        <time>2021-02-27T12:42:09Z</time>
      </trkpt>
      <trkpt lat="45.22617" lon="6.14405">
        <ele>1743.8</ele>
        <time>2021-02-27T12:42:10Z</time>
      </trkpt>
      <trkpt lat="45.22618" lon="6.14408">
        <ele>1744</ele>
        <time>2021-02-27T12:42:11Z</time>
      </trkpt>
      <trkpt lat="45.22619" lon="6.14411">
        <ele>1743.8</ele>
        <time>2021-02-27T12:42:12Z</time>
      </trkpt>
      <trkpt lat="45.22619" lon="6.14414">
        <ele>1743.2</ele>
        <time>2021-02-27T12:42:13Z</time>
      </trkpt>
      <trkpt lat="45.2262" lon="6.14417">
        <ele>1743.2</ele>
        <time>2021-02-27T12:42:14Z</time>
      </trkpt>
      <trkpt lat="45.22621" lon="6.1442">
        <ele>1742.6</ele>
        <time>2021-02-27T12:42:15Z</time>
      </trkpt>
      <trkpt lat="45.22622" lon="6.14423">
        <ele>1742.6</ele>
        <time>2021-02-27T12:42:16Z</time>
      </trkpt>
      <trkpt lat="45.22623" lon="6.14426">
        <ele>1742.8</ele>
        <time>2021-02-27T12:42:17Z</time>
      </trkpt>
      <trkpt lat="45.22624" lon="6.14429">
        <ele>1742.8</ele>
        <time>2021-02-27T12:42:18Z</time>
      </trkpt>
      <trkpt lat="45.22625" lon="6.14433">
        <ele>1742.4</ele>
        <time>2021-02-27T12:42:19Z</time>
      </trkpt>
      <trkpt lat="45.22626" lon="6.14436">
        <ele>1742.2</ele>
        <time>2021-02-27T12:42:20Z</time>
      </trkpt>
      <trkpt lat="45.22627" lon="6.14439">
        <ele>1742</ele>
        <time>2021-02-27T12:42:21Z</time>
      </trkpt>
      <trkpt lat="45.22629" lon="6.14442">
        <ele>1741.8</ele>
        <time>2021-02-27T12:42:22Z</time>
      </trkpt>
      <trkpt lat="45.2263" lon="6.14445">
        <ele>1742.2</ele>
        <time>2021-02-27T12:42:23Z</time>
      </trkpt>
      <trkpt lat="45.22631" lon="6.14448">
        <ele>1742</ele>
        <time>2021-02-27T12:42:24Z</time>
      </trkpt>
      <trkpt lat="45.22632" lon="6.14451">
        <ele>1742.2</ele>
        <time>2021-02-27T12:42:25Z</time>
      </trkpt>
      <trkpt lat="45.22633" lon="6.14454">
        <ele>1742.2</ele>
        <time>2021-02-27T12:42:26Z</time>
      </trkpt>
      <trkpt lat="45.22634" lon="6.14456">
        <ele>1742</ele>
        <time>2021-02-27T12:42:27Z</time>
      </trkpt>
      <trkpt lat="45.22635" lon="6.14459">
        <ele>1741.8</ele>
        <time>2021-02-27T12:42:28Z</time>
      </trkpt>
      <trkpt lat="45.22636" lon="6.14462">
        <ele>1741.8</ele>
        <time>2021-02-27T12:42:29Z</time>
      </trkpt>
      <trkpt lat="45.22637" lon="6.14465">
        <ele>1741.6</ele>
        <time>2021-02-27T12:42:30Z</time>
      </trkpt>
      <trkpt lat="45.22638" lon="6.14468">
        <ele>1741.8</ele>
        <time>2021-02-27T12:42:31Z</time>
      </trkpt>
      <trkpt lat="45.22639" lon="6.14472">
        <ele>1741.2</ele>
        <time>2021-02-27T12:42:32Z</time>
      </trkpt>
      <trkpt lat="45.2264" lon="6.14475">
        <ele>1741.2</ele>
        <time>2021-02-27T12:42:33Z</time>
      </trkpt>
      <trkpt lat="45.22641" lon="6.14478">
        <ele>1741.2</ele>
        <time>2021-02-27T12:42:34Z</time>
      </trkpt>
      <trkpt lat="45.22642" lon="6.14481">
        <ele>1741.4</ele>
        <time>2021-02-27T12:42:35Z</time>
      </trkpt>
      <trkpt lat="45.22644" lon="6.14486">
        <ele>1741.4</ele>
        <time>2021-02-27T12:42:36Z</time>
      </trkpt>
      <trkpt lat="45.22646" lon="6.1449">
        <ele>1741.2</ele>
        <time>2021-02-27T12:42:37Z</time>
      </trkpt>
      <trkpt lat="45.22648" lon="6.14495">
        <ele>1741</ele>
        <time>2021-02-27T12:42:38Z</time>
      </trkpt>
      <trkpt lat="45.22649" lon="6.14498">
        <ele>1740.8</ele>
        <time>2021-02-27T12:42:39Z</time>
      </trkpt>
      <trkpt lat="45.22649" lon="6.14498">
        <ele>1740.4</ele>
        <time>2021-02-27T12:42:40Z</time>
      </trkpt>
      <trkpt lat="45.2265" lon="6.14502">
        <ele>1740.8</ele>
        <time>2021-02-27T12:42:41Z</time>
      </trkpt>
      <trkpt lat="45.22651" lon="6.14505">
        <ele>1740.2</ele>
        <time>2021-02-27T12:42:42Z</time>
      </trkpt>
      <trkpt lat="45.22652" lon="6.14508">
        <ele>1740</ele>
        <time>2021-02-27T12:42:43Z</time>
      </trkpt>
      <trkpt lat="45.22652" lon="6.14512">
        <ele>1740</ele>
        <time>2021-02-27T12:42:44Z</time>
      </trkpt>
      <trkpt lat="45.22653" lon="6.14515">
        <ele>1739.6</ele>
        <time>2021-02-27T12:42:45Z</time>
      </trkpt>
      <trkpt lat="45.22654" lon="6.14518">
        <ele>1739.2</ele>
        <time>2021-02-27T12:42:46Z</time>
      </trkpt>
      <trkpt lat="45.22654" lon="6.14522">
        <ele>1739.2</ele>
        <time>2021-02-27T12:42:47Z</time>
      </trkpt>
      <trkpt lat="45.22655" lon="6.14525">
        <ele>1739</ele>
        <time>2021-02-27T12:42:48Z</time>
      </trkpt>
      <trkpt lat="45.22655" lon="6.1453">
        <ele>1739.2</ele>
        <time>2021-02-27T12:42:49Z</time>
      </trkpt>
      <trkpt lat="45.22654" lon="6.14535">
        <ele>1739.2</ele>
        <time>2021-02-27T12:42:50Z</time>
      </trkpt>
      <trkpt lat="45.22654" lon="6.14539">
        <ele>1739.4</ele>
        <time>2021-02-27T12:42:51Z</time>
      </trkpt>
      <trkpt lat="45.22654" lon="6.14543">
        <ele>1739.4</ele>
        <time>2021-02-27T12:42:52Z</time>
      </trkpt>
      <trkpt lat="45.22655" lon="6.14547">
        <ele>1739.2</ele>
        <time>2021-02-27T12:42:53Z</time>
      </trkpt>
      <trkpt lat="45.22655" lon="6.1455">
        <ele>1739.2</ele>
        <time>2021-02-27T12:42:54Z</time>
      </trkpt>
      <trkpt lat="45.22655" lon="6.14554">
        <ele>1738.8</ele>
        <time>2021-02-27T12:42:55Z</time>
      </trkpt>
      <trkpt lat="45.22655" lon="6.14558">
        <ele>1738.6</ele>
        <time>2021-02-27T12:42:56Z</time>
      </trkpt>
      <trkpt lat="45.22656" lon="6.14562">
        <ele>1738.6</ele>
        <time>2021-02-27T12:42:57Z</time>
      </trkpt>
      <trkpt lat="45.22657" lon="6.14566">
        <ele>1738.8</ele>
        <time>2021-02-27T12:42:58Z</time>
      </trkpt>
      <trkpt lat="45.22657" lon="6.1457">
        <ele>1738.4</ele>
        <time>2021-02-27T12:42:59Z</time>
      </trkpt>
      <trkpt lat="45.22657" lon="6.14573">
        <ele>1738.2</ele>
        <time>2021-02-27T12:43:00Z</time>
      </trkpt>
      <trkpt lat="45.22657" lon="6.14577">
        <ele>1738</ele>
        <time>2021-02-27T12:43:01Z</time>
      </trkpt>
      <trkpt lat="45.22657" lon="6.14581">
        <ele>1737.8</ele>
        <time>2021-02-27T12:43:02Z</time>
      </trkpt>
      <trkpt lat="45.22658" lon="6.14585">
        <ele>1737.6</ele>
        <time>2021-02-27T12:43:03Z</time>
      </trkpt>
      <trkpt lat="45.22659" lon="6.14589">
        <ele>1737.6</ele>
        <time>2021-02-27T12:43:04Z</time>
      </trkpt>
      <trkpt lat="45.2266" lon="6.14593">
        <ele>1737.6</ele>
        <time>2021-02-27T12:43:05Z</time>
      </trkpt>
      <trkpt lat="45.2266" lon="6.14597">
        <ele>1737.4</ele>
        <time>2021-02-27T12:43:06Z</time>
      </trkpt>
      <trkpt lat="45.22661" lon="6.14601">
        <ele>1737</ele>
        <time>2021-02-27T12:43:07Z</time>
      </trkpt>
      <trkpt lat="45.22661" lon="6.14606">
        <ele>1736.8</ele>
        <time>2021-02-27T12:43:08Z</time>
      </trkpt>
      <trkpt lat="45.22662" lon="6.1461">
        <ele>1736.4</ele>
        <time>2021-02-27T12:43:09Z</time>
      </trkpt>
      <trkpt lat="45.22663" lon="6.14614">
        <ele>1736</ele>
        <time>2021-02-27T12:43:10Z</time>
      </trkpt>
      <trkpt lat="45.22663" lon="6.14618">
        <ele>1736.2</ele>
        <time>2021-02-27T12:43:11Z</time>
      </trkpt>
      <trkpt lat="45.22664" lon="6.14623">
        <ele>1736.2</ele>
        <time>2021-02-27T12:43:12Z</time>
      </trkpt>
      <trkpt lat="45.22664" lon="6.14627">
        <ele>1736</ele>
        <time>2021-02-27T12:43:13Z</time>
      </trkpt>
      <trkpt lat="45.22664" lon="6.14632">
        <ele>1735.8</ele>
        <time>2021-02-27T12:43:14Z</time>
      </trkpt>
      <trkpt lat="45.22663" lon="6.14636">
        <ele>1735.6</ele>
        <time>2021-02-27T12:43:15Z</time>
      </trkpt>
      <trkpt lat="45.22663" lon="6.14641">
        <ele>1735.4</ele>
        <time>2021-02-27T12:43:16Z</time>
      </trkpt>
      <trkpt lat="45.22663" lon="6.14645">
        <ele>1735.2</ele>
        <time>2021-02-27T12:43:17Z</time>
      </trkpt>
      <trkpt lat="45.22663" lon="6.14649">
        <ele>1734.8</ele>
        <time>2021-02-27T12:43:18Z</time>
      </trkpt>
      <trkpt lat="45.22663" lon="6.14653">
        <ele>1735.2</ele>
        <time>2021-02-27T12:43:19Z</time>
      </trkpt>
      <trkpt lat="45.22664" lon="6.14656">
        <ele>1735.2</ele>
        <time>2021-02-27T12:43:20Z</time>
      </trkpt>
      <trkpt lat="45.22664" lon="6.14661">
        <ele>1734.8</ele>
        <time>2021-02-27T12:43:21Z</time>
      </trkpt>
      <trkpt lat="45.22663" lon="6.14665">
        <ele>1734.6</ele>
        <time>2021-02-27T12:43:22Z</time>
      </trkpt>
      <trkpt lat="45.22664" lon="6.14667">
        <ele>1734.2</ele>
        <time>2021-02-27T12:43:23Z</time>
      </trkpt>
      <trkpt lat="45.22664" lon="6.14671">
        <ele>1734</ele>
        <time>2021-02-27T12:43:24Z</time>
      </trkpt>
      <trkpt lat="45.22664" lon="6.14675">
        <ele>1734.2</ele>
        <time>2021-02-27T12:43:25Z</time>
      </trkpt>
      <trkpt lat="45.22664" lon="6.14679">
        <ele>1734.6</ele>
        <time>2021-02-27T12:43:26Z</time>
      </trkpt>
      <trkpt lat="45.22664" lon="6.14684">
        <ele>1734.6</ele>
        <time>2021-02-27T12:43:27Z</time>
      </trkpt>
      <trkpt lat="45.22665" lon="6.14688">
        <ele>1734.4</ele>
        <time>2021-02-27T12:43:28Z</time>
      </trkpt>
      <trkpt lat="45.22666" lon="6.14692">
        <ele>1734.4</ele>
        <time>2021-02-27T12:43:29Z</time>
      </trkpt>
      <trkpt lat="45.22667" lon="6.14696">
        <ele>1734.4</ele>
        <time>2021-02-27T12:43:30Z</time>
      </trkpt>
      <trkpt lat="45.22667" lon="6.14701">
        <ele>1733.8</ele>
        <time>2021-02-27T12:43:31Z</time>
      </trkpt>
      <trkpt lat="45.22668" lon="6.14704">
        <ele>1733.8</ele>
        <time>2021-02-27T12:43:32Z</time>
      </trkpt>
      <trkpt lat="45.22668" lon="6.14708">
        <ele>1733.6</ele>
        <time>2021-02-27T12:43:33Z</time>
      </trkpt>
      <trkpt lat="45.22668" lon="6.14711">
        <ele>1732.8</ele>
        <time>2021-02-27T12:43:34Z</time>
      </trkpt>
      <trkpt lat="45.22669" lon="6.14715">
        <ele>1732.6</ele>
        <time>2021-02-27T12:43:35Z</time>
      </trkpt>
      <trkpt lat="45.22669" lon="6.14719">
        <ele>1732.4</ele>
        <time>2021-02-27T12:43:36Z</time>
      </trkpt>
      <trkpt lat="45.22669" lon="6.14725">
        <ele>1732.4</ele>
        <time>2021-02-27T12:43:37Z</time>
      </trkpt>
      <trkpt lat="45.2267" lon="6.1473">
        <ele>1732.2</ele>
        <time>2021-02-27T12:43:38Z</time>
      </trkpt>
      <trkpt lat="45.22671" lon="6.14734">
        <ele>1731.8</ele>
        <time>2021-02-27T12:43:39Z</time>
      </trkpt>
      <trkpt lat="45.22671" lon="6.14738">
        <ele>1731.4</ele>
        <time>2021-02-27T12:43:40Z</time>
      </trkpt>
      <trkpt lat="45.22671" lon="6.1474">
        <ele>1730.6</ele>
        <time>2021-02-27T12:43:41Z</time>
      </trkpt>
      <trkpt lat="45.22672" lon="6.14743">
        <ele>1730.6</ele>
        <time>2021-02-27T12:43:42Z</time>
      </trkpt>
      <trkpt lat="45.22672" lon="6.14746">
        <ele>1730.6</ele>
        <time>2021-02-27T12:43:43Z</time>
      </trkpt>
      <trkpt lat="45.22672" lon="6.1475">
        <ele>1731</ele>
        <time>2021-02-27T12:43:44Z</time>
      </trkpt>
      <trkpt lat="45.22671" lon="6.14754">
        <ele>1731</ele>
        <time>2021-02-27T12:43:45Z</time>
      </trkpt>
      <trkpt lat="45.22672" lon="6.14756">
        <ele>1731</ele>
        <time>2021-02-27T12:43:46Z</time>
      </trkpt>
      <trkpt lat="45.22672" lon="6.14759">
        <ele>1730.8</ele>
        <time>2021-02-27T12:43:47Z</time>
      </trkpt>
      <trkpt lat="45.22671" lon="6.14762">
        <ele>1730.8</ele>
        <time>2021-02-27T12:43:48Z</time>
      </trkpt>
      <trkpt lat="45.22672" lon="6.14765">
        <ele>1731.2</ele>
        <time>2021-02-27T12:43:49Z</time>
      </trkpt>
      <trkpt lat="45.22672" lon="6.14769">
        <ele>1731</ele>
        <time>2021-02-27T12:43:50Z</time>
      </trkpt>
      <trkpt lat="45.22672" lon="6.14772">
        <ele>1731.2</ele>
        <time>2021-02-27T12:43:51Z</time>
      </trkpt>
      <trkpt lat="45.22671" lon="6.14775">
        <ele>1730.8</ele>
        <time>2021-02-27T12:43:52Z</time>
      </trkpt>
      <trkpt lat="45.22671" lon="6.14779">
        <ele>1730.2</ele>
        <time>2021-02-27T12:43:53Z</time>
      </trkpt>
      <trkpt lat="45.22672" lon="6.14783">
        <ele>1729.6</ele>
        <time>2021-02-27T12:43:54Z</time>
      </trkpt>
      <trkpt lat="45.22672" lon="6.14787">
        <ele>1730.2</ele>
        <time>2021-02-27T12:43:55Z</time>
      </trkpt>
      <trkpt lat="45.22672" lon="6.14791">
        <ele>1729.8</ele>
        <time>2021-02-27T12:43:56Z</time>
      </trkpt>
      <trkpt lat="45.22671" lon="6.14794">
        <ele>1729.6</ele>
        <time>2021-02-27T12:43:57Z</time>
      </trkpt>
      <trkpt lat="45.22671" lon="6.14799">
        <ele>1729.6</ele>
        <time>2021-02-27T12:43:58Z</time>
      </trkpt>
      <trkpt lat="45.22671" lon="6.14803">
        <ele>1729.4</ele>
        <time>2021-02-27T12:43:59Z</time>
      </trkpt>
      <trkpt lat="45.22671" lon="6.14808">
        <ele>1729</ele>
        <time>2021-02-27T12:44:00Z</time>
      </trkpt>
      <trkpt lat="45.2267" lon="6.14813">
        <ele>1729</ele>
        <time>2021-02-27T12:44:01Z</time>
      </trkpt>
      <trkpt lat="45.2267" lon="6.14817">
        <ele>1728.2</ele>
        <time>2021-02-27T12:44:02Z</time>
      </trkpt>
      <trkpt lat="45.22669" lon="6.14822">
        <ele>1728.4</ele>
        <time>2021-02-27T12:44:03Z</time>
      </trkpt>
      <trkpt lat="45.2267" lon="6.14827">
        <ele>1729</ele>
        <time>2021-02-27T12:44:04Z</time>
      </trkpt>
      <trkpt lat="45.2267" lon="6.14832">
        <ele>1728.8</ele>
        <time>2021-02-27T12:44:05Z</time>
      </trkpt>
      <trkpt lat="45.22671" lon="6.14836">
        <ele>1728.6</ele>
        <time>2021-02-27T12:44:06Z</time>
      </trkpt>
      <trkpt lat="45.22671" lon="6.14839">
        <ele>1728.4</ele>
        <time>2021-02-27T12:44:07Z</time>
      </trkpt>
      <trkpt lat="45.22671" lon="6.14843">
        <ele>1728.2</ele>
        <time>2021-02-27T12:44:08Z</time>
      </trkpt>
      <trkpt lat="45.22671" lon="6.14847">
        <ele>1728.2</ele>
        <time>2021-02-27T12:44:09Z</time>
      </trkpt>
      <trkpt lat="45.22672" lon="6.1485">
        <ele>1728</ele>
        <time>2021-02-27T12:44:10Z</time>
      </trkpt>
      <trkpt lat="45.22672" lon="6.14853">
        <ele>1728</ele>
        <time>2021-02-27T12:44:11Z</time>
      </trkpt>
      <trkpt lat="45.22673" lon="6.14856">
        <ele>1728</ele>
        <time>2021-02-27T12:44:12Z</time>
      </trkpt>
      <trkpt lat="45.22673" lon="6.1486">
        <ele>1728.2</ele>
        <time>2021-02-27T12:44:13Z</time>
      </trkpt>
      <trkpt lat="45.22673" lon="6.14864">
        <ele>1728.4</ele>
        <time>2021-02-27T12:44:14Z</time>
      </trkpt>
      <trkpt lat="45.22673" lon="6.14867">
        <ele>1728.6</ele>
        <time>2021-02-27T12:44:15Z</time>
      </trkpt>
      <trkpt lat="45.22673" lon="6.14871">
        <ele>1728.4</ele>
        <time>2021-02-27T12:44:16Z</time>
      </trkpt>
      <trkpt lat="45.22673" lon="6.14874">
        <ele>1728.8</ele>
        <time>2021-02-27T12:44:17Z</time>
      </trkpt>
      <trkpt lat="45.22673" lon="6.14877">
        <ele>1728.8</ele>
        <time>2021-02-27T12:44:18Z</time>
      </trkpt>
      <trkpt lat="45.22673" lon="6.1488">
        <ele>1728.4</ele>
        <time>2021-02-27T12:44:19Z</time>
      </trkpt>
      <trkpt lat="45.22673" lon="6.14883">
        <ele>1728.6</ele>
        <time>2021-02-27T12:44:20Z</time>
      </trkpt>
      <trkpt lat="45.22673" lon="6.14886">
        <ele>1728</ele>
        <time>2021-02-27T12:44:21Z</time>
      </trkpt>
      <trkpt lat="45.22673" lon="6.1489">
        <ele>1728.2</ele>
        <time>2021-02-27T12:44:22Z</time>
      </trkpt>
      <trkpt lat="45.22674" lon="6.14893">
        <ele>1727.6</ele>
        <time>2021-02-27T12:44:23Z</time>
      </trkpt>
      <trkpt lat="45.22674" lon="6.14896">
        <ele>1727.4</ele>
        <time>2021-02-27T12:44:24Z</time>
      </trkpt>
      <trkpt lat="45.22675" lon="6.14899">
        <ele>1727.6</ele>
        <time>2021-02-27T12:44:25Z</time>
      </trkpt>
      <trkpt lat="45.22676" lon="6.14903">
        <ele>1727.4</ele>
        <time>2021-02-27T12:44:26Z</time>
      </trkpt>
      <trkpt lat="45.22676" lon="6.14906">
        <ele>1727.4</ele>
        <time>2021-02-27T12:44:27Z</time>
      </trkpt>
      <trkpt lat="45.22677" lon="6.14908">
        <ele>1727.4</ele>
        <time>2021-02-27T12:44:28Z</time>
      </trkpt>
      <trkpt lat="45.22678" lon="6.14911">
        <ele>1727.8</ele>
        <time>2021-02-27T12:44:29Z</time>
      </trkpt>
      <trkpt lat="45.22679" lon="6.14914">
        <ele>1727.2</ele>
        <time>2021-02-27T12:44:30Z</time>
      </trkpt>
      <trkpt lat="45.22681" lon="6.14917">
        <ele>1727.4</ele>
        <time>2021-02-27T12:44:31Z</time>
      </trkpt>
      <trkpt lat="45.22682" lon="6.14921">
        <ele>1727</ele>
        <time>2021-02-27T12:44:32Z</time>
      </trkpt>
      <trkpt lat="45.22684" lon="6.14925">
        <ele>1727</ele>
        <time>2021-02-27T12:44:33Z</time>
      </trkpt>
      <trkpt lat="45.22685" lon="6.14928">
        <ele>1727</ele>
        <time>2021-02-27T12:44:34Z</time>
      </trkpt>
      <trkpt lat="45.22686" lon="6.14932">
        <ele>1727.2</ele>
        <time>2021-02-27T12:44:35Z</time>
      </trkpt>
      <trkpt lat="45.22688" lon="6.14936">
        <ele>1727.2</ele>
        <time>2021-02-27T12:44:36Z</time>
      </trkpt>
      <trkpt lat="45.2269" lon="6.1494">
        <ele>1726.6</ele>
        <time>2021-02-27T12:44:37Z</time>
      </trkpt>
      <trkpt lat="45.22692" lon="6.14943">
        <ele>1726.2</ele>
        <time>2021-02-27T12:44:38Z</time>
      </trkpt>
      <trkpt lat="45.22694" lon="6.14947">
        <ele>1726.2</ele>
        <time>2021-02-27T12:44:39Z</time>
      </trkpt>
      <trkpt lat="45.22696" lon="6.14951">
        <ele>1725.8</ele>
        <time>2021-02-27T12:44:40Z</time>
      </trkpt>
      <trkpt lat="45.22698" lon="6.14954">
        <ele>1725.6</ele>
        <time>2021-02-27T12:44:41Z</time>
      </trkpt>
      <trkpt lat="45.227" lon="6.14958">
        <ele>1725.6</ele>
        <time>2021-02-27T12:44:42Z</time>
      </trkpt>
      <trkpt lat="45.22702" lon="6.14961">
        <ele>1725.4</ele>
        <time>2021-02-27T12:44:43Z</time>
      </trkpt>
      <trkpt lat="45.22704" lon="6.14964">
        <ele>1724.8</ele>
        <time>2021-02-27T12:44:44Z</time>
      </trkpt>
      <trkpt lat="45.22706" lon="6.14966">
        <ele>1724</ele>
        <time>2021-02-27T12:44:45Z</time>
      </trkpt>
      <trkpt lat="45.22708" lon="6.14968">
        <ele>1724.2</ele>
        <time>2021-02-27T12:44:46Z</time>
      </trkpt>
      <trkpt lat="45.22711" lon="6.1497">
        <ele>1724</ele>
        <time>2021-02-27T12:44:47Z</time>
      </trkpt>
      <trkpt lat="45.22713" lon="6.14972">
        <ele>1723.4</ele>
        <time>2021-02-27T12:44:48Z</time>
      </trkpt>
      <trkpt lat="45.22714" lon="6.14975">
        <ele>1722.8</ele>
        <time>2021-02-27T12:44:49Z</time>
      </trkpt>
      <trkpt lat="45.22716" lon="6.14977">
        <ele>1722.4</ele>
        <time>2021-02-27T12:44:50Z</time>
      </trkpt>
      <trkpt lat="45.22716" lon="6.14977">
        <ele>1722.8</ele>
        <time>2021-02-27T12:44:51Z</time>
      </trkpt>
      <trkpt lat="45.22719" lon="6.14981">
        <ele>1722.8</ele>
        <time>2021-02-27T12:44:52Z</time>
      </trkpt>
      <trkpt lat="45.22719" lon="6.14981">
        <ele>1723</ele>
        <time>2021-02-27T12:44:53Z</time>
      </trkpt>
      <trkpt lat="45.22721" lon="6.14984">
        <ele>1722.6</ele>
        <time>2021-02-27T12:44:54Z</time>
      </trkpt>
      <trkpt lat="45.22723" lon="6.14986">
        <ele>1722.6</ele>
        <time>2021-02-27T12:44:55Z</time>
      </trkpt>
      <trkpt lat="45.22725" lon="6.14989">
        <ele>1722.8</ele>
        <time>2021-02-27T12:44:56Z</time>
      </trkpt>
      <trkpt lat="45.22727" lon="6.14991">
        <ele>1721.6</ele>
        <time>2021-02-27T12:44:57Z</time>
      </trkpt>
      <trkpt lat="45.22729" lon="6.14996">
        <ele>1721.8</ele>
        <time>2021-02-27T12:44:58Z</time>
      </trkpt>
      <trkpt lat="45.22731" lon="6.15">
        <ele>1721.6</ele>
        <time>2021-02-27T12:44:59Z</time>
      </trkpt>
      <trkpt lat="45.22733" lon="6.15004">
        <ele>1721.4</ele>
        <time>2021-02-27T12:45:00Z</time>
      </trkpt>
      <trkpt lat="45.22735" lon="6.15009">
        <ele>1721.4</ele>
        <time>2021-02-27T12:45:01Z</time>
      </trkpt>
      <trkpt lat="45.22736" lon="6.15013">
        <ele>1721.2</ele>
        <time>2021-02-27T12:45:02Z</time>
      </trkpt>
      <trkpt lat="45.22737" lon="6.15016">
        <ele>1720.6</ele>
        <time>2021-02-27T12:45:03Z</time>
      </trkpt>
      <trkpt lat="45.22738" lon="6.1502">
        <ele>1720.8</ele>
        <time>2021-02-27T12:45:04Z</time>
      </trkpt>
      <trkpt lat="45.22739" lon="6.15023">
        <ele>1720.8</ele>
        <time>2021-02-27T12:45:05Z</time>
      </trkpt>
      <trkpt lat="45.22739" lon="6.15027">
        <ele>1720.6</ele>
        <time>2021-02-27T12:45:06Z</time>
      </trkpt>
      <trkpt lat="45.2274" lon="6.1503">
        <ele>1720.8</ele>
        <time>2021-02-27T12:45:07Z</time>
      </trkpt>
      <trkpt lat="45.22741" lon="6.15033">
        <ele>1720.8</ele>
        <time>2021-02-27T12:45:08Z</time>
      </trkpt>
      <trkpt lat="45.22741" lon="6.15037">
        <ele>1720.6</ele>
        <time>2021-02-27T12:45:09Z</time>
      </trkpt>
      <trkpt lat="45.22742" lon="6.1504">
        <ele>1720.6</ele>
        <time>2021-02-27T12:45:10Z</time>
      </trkpt>
      <trkpt lat="45.22742" lon="6.15043">
        <ele>1720.6</ele>
        <time>2021-02-27T12:45:11Z</time>
      </trkpt>
      <trkpt lat="45.22742" lon="6.15047">
        <ele>1720.6</ele>
        <time>2021-02-27T12:45:12Z</time>
      </trkpt>
      <trkpt lat="45.22743" lon="6.1505">
        <ele>1720.4</ele>
        <time>2021-02-27T12:45:13Z</time>
      </trkpt>
      <trkpt lat="45.22743" lon="6.15053">
        <ele>1720.4</ele>
        <time>2021-02-27T12:45:14Z</time>
      </trkpt>
      <trkpt lat="45.22743" lon="6.15056">
        <ele>1720.6</ele>
        <time>2021-02-27T12:45:15Z</time>
      </trkpt>
      <trkpt lat="45.22744" lon="6.15059">
        <ele>1720.6</ele>
        <time>2021-02-27T12:45:16Z</time>
      </trkpt>
      <trkpt lat="45.22744" lon="6.15062">
        <ele>1720.4</ele>
        <time>2021-02-27T12:45:17Z</time>
      </trkpt>
      <trkpt lat="45.22744" lon="6.15066">
        <ele>1720.4</ele>
        <time>2021-02-27T12:45:18Z</time>
      </trkpt>
      <trkpt lat="45.22745" lon="6.15069">
        <ele>1720.4</ele>
        <time>2021-02-27T12:45:19Z</time>
      </trkpt>
      <trkpt lat="45.22745" lon="6.15072">
        <ele>1720.6</ele>
        <time>2021-02-27T12:45:20Z</time>
      </trkpt>
      <trkpt lat="45.22745" lon="6.15076">
        <ele>1720.6</ele>
        <time>2021-02-27T12:45:21Z</time>
      </trkpt>
      <trkpt lat="45.22745" lon="6.15079">
        <ele>1720.4</ele>
        <time>2021-02-27T12:45:22Z</time>
      </trkpt>
      <trkpt lat="45.22746" lon="6.15083">
        <ele>1719.8</ele>
        <time>2021-02-27T12:45:23Z</time>
      </trkpt>
      <trkpt lat="45.22746" lon="6.15086">
        <ele>1720</ele>
        <time>2021-02-27T12:45:24Z</time>
      </trkpt>
      <trkpt lat="45.22747" lon="6.15089">
        <ele>1720.2</ele>
        <time>2021-02-27T12:45:25Z</time>
      </trkpt>
      <trkpt lat="45.22747" lon="6.15092">
        <ele>1720.4</ele>
        <time>2021-02-27T12:45:26Z</time>
      </trkpt>
      <trkpt lat="45.22747" lon="6.15096">
        <ele>1720.2</ele>
        <time>2021-02-27T12:45:27Z</time>
      </trkpt>
      <trkpt lat="45.22748" lon="6.15099">
        <ele>1720.4</ele>
        <time>2021-02-27T12:45:28Z</time>
      </trkpt>
      <trkpt lat="45.22749" lon="6.15103">
        <ele>1720.6</ele>
        <time>2021-02-27T12:45:29Z</time>
      </trkpt>
      <trkpt lat="45.2275" lon="6.15106">
        <ele>1720.4</ele>
        <time>2021-02-27T12:45:30Z</time>
      </trkpt>
      <trkpt lat="45.22751" lon="6.15109">
        <ele>1720</ele>
        <time>2021-02-27T12:45:31Z</time>
      </trkpt>
      <trkpt lat="45.22751" lon="6.15112">
        <ele>1719.8</ele>
        <time>2021-02-27T12:45:32Z</time>
      </trkpt>
      <trkpt lat="45.22752" lon="6.15114">
        <ele>1720</ele>
        <time>2021-02-27T12:45:33Z</time>
      </trkpt>
      <trkpt lat="45.22754" lon="6.15117">
        <ele>1720</ele>
        <time>2021-02-27T12:45:34Z</time>
      </trkpt>
      <trkpt lat="45.22755" lon="6.1512">
        <ele>1720</ele>
        <time>2021-02-27T12:45:35Z</time>
      </trkpt>
      <trkpt lat="45.22755" lon="6.1512">
        <ele>1719.8</ele>
        <time>2021-02-27T12:45:36Z</time>
      </trkpt>
      <trkpt lat="45.22756" lon="6.15124">
        <ele>1719.6</ele>
        <time>2021-02-27T12:45:37Z</time>
      </trkpt>
      <trkpt lat="45.22756" lon="6.15124">
        <ele>1719.4</ele>
        <time>2021-02-27T12:45:38Z</time>
      </trkpt>
      <trkpt lat="45.22756" lon="6.15128">
        <ele>1719.6</ele>
        <time>2021-02-27T12:45:39Z</time>
      </trkpt>
      <trkpt lat="45.22756" lon="6.15128">
        <ele>1719.4</ele>
        <time>2021-02-27T12:45:40Z</time>
      </trkpt>
      <trkpt lat="45.22757" lon="6.15131">
        <ele>1719.4</ele>
        <time>2021-02-27T12:45:41Z</time>
      </trkpt>
      <trkpt lat="45.22757" lon="6.15131">
        <ele>1719</ele>
        <time>2021-02-27T12:45:42Z</time>
      </trkpt>
      <trkpt lat="45.22757" lon="6.15134">
        <ele>1719.2</ele>
        <time>2021-02-27T12:45:43Z</time>
      </trkpt>
      <trkpt lat="45.22757" lon="6.15134">
        <ele>1718.8</ele>
        <time>2021-02-27T12:45:44Z</time>
      </trkpt>
      <trkpt lat="45.22757" lon="6.15134">
        <ele>1718.6</ele>
        <time>2021-02-27T12:45:45Z</time>
      </trkpt>
      <trkpt lat="45.22757" lon="6.15134">
        <ele>1718.6</ele>
        <time>2021-02-27T12:45:46Z</time>
      </trkpt>
      <trkpt lat="45.22757" lon="6.15134">
        <ele>1718.4</ele>
        <time>2021-02-27T12:45:47Z</time>
      </trkpt>
      <trkpt lat="45.22757" lon="6.15134">
        <ele>1718.4</ele>
        <time>2021-02-27T12:45:48Z</time>
      </trkpt>
      <trkpt lat="45.22757" lon="6.15134">
        <ele>1718.4</ele>
        <time>2021-02-27T12:45:49Z</time>
      </trkpt>
      <trkpt lat="45.22757" lon="6.15134">
        <ele>1718.8</ele>
        <time>2021-02-27T12:45:50Z</time>
      </trkpt>
      <trkpt lat="45.22757" lon="6.15134">
        <ele>1719.2</ele>
        <time>2021-02-27T12:45:51Z</time>
      </trkpt>
      <trkpt lat="45.22757" lon="6.15134">
        <ele>1719</ele>
        <time>2021-02-27T12:45:52Z</time>
      </trkpt>
      <trkpt lat="45.22757" lon="6.15134">
        <ele>1719.4</ele>
        <time>2021-02-27T12:45:53Z</time>
      </trkpt>
      <trkpt lat="45.22757" lon="6.15134">
        <ele>1719.6</ele>
        <time>2021-02-27T12:45:54Z</time>
      </trkpt>
      <trkpt lat="45.22757" lon="6.15134">
        <ele>1719.2</ele>
        <time>2021-02-27T12:45:55Z</time>
      </trkpt>
      <trkpt lat="45.22757" lon="6.15134">
        <ele>1719.4</ele>
        <time>2021-02-27T12:45:56Z</time>
      </trkpt>
      <trkpt lat="45.22756" lon="6.15136">
        <ele>1720.4</ele>
        <time>2021-02-27T12:45:57Z</time>
      </trkpt>
      <trkpt lat="45.22756" lon="6.15136">
        <ele>1719.8</ele>
        <time>2021-02-27T12:45:58Z</time>
      </trkpt>
      <trkpt lat="45.22756" lon="6.15136">
        <ele>1719.8</ele>
        <time>2021-02-27T12:45:59Z</time>
      </trkpt>
      <trkpt lat="45.22756" lon="6.15136">
        <ele>1719.4</ele>
        <time>2021-02-27T12:46:00Z</time>
      </trkpt>
      <trkpt lat="45.22756" lon="6.15136">
        <ele>1719.6</ele>
        <time>2021-02-27T12:46:01Z</time>
      </trkpt>
      <trkpt lat="45.22756" lon="6.15136">
        <ele>1719.6</ele>
        <time>2021-02-27T12:46:02Z</time>
      </trkpt>
      <trkpt lat="45.22756" lon="6.15136">
        <ele>1719.2</ele>
        <time>2021-02-27T12:46:03Z</time>
      </trkpt>
      <trkpt lat="45.22756" lon="6.15136">
        <ele>1719</ele>
        <time>2021-02-27T12:46:04Z</time>
      </trkpt>
      <trkpt lat="45.22756" lon="6.15136">
        <ele>1719.2</ele>
        <time>2021-02-27T12:46:05Z</time>
      </trkpt>
      <trkpt lat="45.22756" lon="6.15136">
        <ele>1718.6</ele>
        <time>2021-02-27T12:46:06Z</time>
      </trkpt>
      <trkpt lat="45.22756" lon="6.15136">
        <ele>1718.6</ele>
        <time>2021-02-27T12:46:07Z</time>
      </trkpt>
      <trkpt lat="45.22756" lon="6.15136">
        <ele>1718.2</ele>
        <time>2021-02-27T12:46:08Z</time>
      </trkpt>
      <trkpt lat="45.22756" lon="6.15136">
        <ele>1718.2</ele>
        <time>2021-02-27T12:46:09Z</time>
      </trkpt>
      <trkpt lat="45.22756" lon="6.15136">
        <ele>1718.4</ele>
        <time>2021-02-27T12:46:10Z</time>
      </trkpt>
      <trkpt lat="45.22756" lon="6.15136">
        <ele>1718.4</ele>
        <time>2021-02-27T12:46:11Z</time>
      </trkpt>
      <trkpt lat="45.22756" lon="6.15136">
        <ele>1718.8</ele>
        <time>2021-02-27T12:46:12Z</time>
      </trkpt>
      <trkpt lat="45.22756" lon="6.15136">
        <ele>1718.6</ele>
        <time>2021-02-27T12:46:13Z</time>
      </trkpt>
      <trkpt lat="45.22756" lon="6.15136">
        <ele>1718.6</ele>
        <time>2021-02-27T12:46:14Z</time>
      </trkpt>
      <trkpt lat="45.22756" lon="6.15136">
        <ele>1718.8</ele>
        <time>2021-02-27T12:46:15Z</time>
      </trkpt>
      <trkpt lat="45.22756" lon="6.15136">
        <ele>1718.6</ele>
        <time>2021-02-27T12:46:16Z</time>
      </trkpt>
      <trkpt lat="45.22756" lon="6.15136">
        <ele>1718.8</ele>
        <time>2021-02-27T12:46:17Z</time>
      </trkpt>
      <trkpt lat="45.22756" lon="6.15136">
        <ele>1719.4</ele>
        <time>2021-02-27T12:46:18Z</time>
      </trkpt>
      <trkpt lat="45.22756" lon="6.15136">
        <ele>1719</ele>
        <time>2021-02-27T12:46:19Z</time>
      </trkpt>
      <trkpt lat="45.22756" lon="6.15136">
        <ele>1719.2</ele>
        <time>2021-02-27T12:46:20Z</time>
      </trkpt>
      <trkpt lat="45.22756" lon="6.15136">
        <ele>1719.6</ele>
        <time>2021-02-27T12:46:21Z</time>
      </trkpt>
      <trkpt lat="45.22756" lon="6.15136">
        <ele>1720</ele>
        <time>2021-02-27T12:46:22Z</time>
      </trkpt>
      <trkpt lat="45.22756" lon="6.15136">
        <ele>1720.2</ele>
        <time>2021-02-27T12:46:23Z</time>
      </trkpt>
      <trkpt lat="45.22756" lon="6.15136">
        <ele>1719.8</ele>
        <time>2021-02-27T12:46:24Z</time>
      </trkpt>
      <trkpt lat="45.22756" lon="6.15136">
        <ele>1719.8</ele>
        <time>2021-02-27T12:46:25Z</time>
      </trkpt>
      <trkpt lat="45.22756" lon="6.15136">
        <ele>1720</ele>
        <time>2021-02-27T12:46:26Z</time>
      </trkpt>
      <trkpt lat="45.22756" lon="6.15136">
        <ele>1720.2</ele>
        <time>2021-02-27T12:46:27Z</time>
      </trkpt>
      <trkpt lat="45.22756" lon="6.15136">
        <ele>1720</ele>
        <time>2021-02-27T12:46:28Z</time>
      </trkpt>
      <trkpt lat="45.22756" lon="6.15136">
        <ele>1720</ele>
        <time>2021-02-27T12:46:29Z</time>
      </trkpt>
      <trkpt lat="45.22756" lon="6.15136">
        <ele>1719.6</ele>
        <time>2021-02-27T12:46:30Z</time>
      </trkpt>
      <trkpt lat="45.22756" lon="6.15136">
        <ele>1719.4</ele>
        <time>2021-02-27T12:46:31Z</time>
      </trkpt>
      <trkpt lat="45.22756" lon="6.15136">
        <ele>1719.6</ele>
        <time>2021-02-27T12:46:32Z</time>
      </trkpt>
      <trkpt lat="45.22756" lon="6.15136">
        <ele>1719.6</ele>
        <time>2021-02-27T12:46:33Z</time>
      </trkpt>
      <trkpt lat="45.22756" lon="6.15136">
        <ele>1719.6</ele>
        <time>2021-02-27T12:46:34Z</time>
      </trkpt>
      <trkpt lat="45.22756" lon="6.15136">
        <ele>1720</ele>
        <time>2021-02-27T12:46:35Z</time>
      </trkpt>
      <trkpt lat="45.22756" lon="6.15136">
        <ele>1720</ele>
        <time>2021-02-27T12:46:36Z</time>
      </trkpt>
      <trkpt lat="45.22756" lon="6.15136">
        <ele>1720.2</ele>
        <time>2021-02-27T12:46:37Z</time>
      </trkpt>
      <trkpt lat="45.22756" lon="6.15136">
        <ele>1720.4</ele>
        <time>2021-02-27T12:46:38Z</time>
      </trkpt>
      <trkpt lat="45.22756" lon="6.15136">
        <ele>1720.6</ele>
        <time>2021-02-27T12:46:39Z</time>
      </trkpt>
      <trkpt lat="45.22756" lon="6.15136">
        <ele>1720.6</ele>
        <time>2021-02-27T12:46:40Z</time>
      </trkpt>
      <trkpt lat="45.22756" lon="6.15136">
        <ele>1720.4</ele>
        <time>2021-02-27T12:46:41Z</time>
      </trkpt>
      <trkpt lat="45.22756" lon="6.15136">
        <ele>1720.2</ele>
        <time>2021-02-27T12:46:42Z</time>
      </trkpt>
      <trkpt lat="45.22756" lon="6.15136">
        <ele>1720.2</ele>
        <time>2021-02-27T12:46:43Z</time>
      </trkpt>
      <trkpt lat="45.22756" lon="6.15136">
        <ele>1720</ele>
        <time>2021-02-27T12:46:44Z</time>
      </trkpt>
      <trkpt lat="45.22756" lon="6.15136">
        <ele>1720</ele>
        <time>2021-02-27T12:46:45Z</time>
      </trkpt>
      <trkpt lat="45.22757" lon="6.15136">
        <ele>1719.6</ele>
        <time>2021-02-27T12:46:46Z</time>
      </trkpt>
      <trkpt lat="45.22757" lon="6.15136">
        <ele>1719</ele>
        <time>2021-02-27T12:46:47Z</time>
      </trkpt>
      <trkpt lat="45.22757" lon="6.15136">
        <ele>1719</ele>
        <time>2021-02-27T12:46:48Z</time>
      </trkpt>
      <trkpt lat="45.22757" lon="6.15136">
        <ele>1719</ele>
        <time>2021-02-27T12:46:49Z</time>
      </trkpt>
      <trkpt lat="45.22757" lon="6.15136">
        <ele>1719.2</ele>
        <time>2021-02-27T12:46:50Z</time>
      </trkpt>
      <trkpt lat="45.22757" lon="6.15136">
        <ele>1719.2</ele>
        <time>2021-02-27T12:46:51Z</time>
      </trkpt>
      <trkpt lat="45.22757" lon="6.15136">
        <ele>1719.6</ele>
        <time>2021-02-27T12:46:52Z</time>
      </trkpt>
      <trkpt lat="45.22757" lon="6.15136">
        <ele>1720</ele>
        <time>2021-02-27T12:46:53Z</time>
      </trkpt>
      <trkpt lat="45.22757" lon="6.15136">
        <ele>1720.2</ele>
        <time>2021-02-27T12:46:54Z</time>
      </trkpt>
      <trkpt lat="45.22757" lon="6.15136">
        <ele>1720</ele>
        <time>2021-02-27T12:46:55Z</time>
      </trkpt>
      <trkpt lat="45.22757" lon="6.15136">
        <ele>1720</ele>
        <time>2021-02-27T12:46:56Z</time>
      </trkpt>
      <trkpt lat="45.22757" lon="6.15136">
        <ele>1719.8</ele>
        <time>2021-02-27T12:46:57Z</time>
      </trkpt>
      <trkpt lat="45.22757" lon="6.15136">
        <ele>1719.6</ele>
        <time>2021-02-27T12:46:58Z</time>
      </trkpt>
      <trkpt lat="45.22757" lon="6.15136">
        <ele>1719.8</ele>
        <time>2021-02-27T12:46:59Z</time>
      </trkpt>
      <trkpt lat="45.22757" lon="6.15136">
        <ele>1719.6</ele>
        <time>2021-02-27T12:47:00Z</time>
      </trkpt>
      <trkpt lat="45.22757" lon="6.15136">
        <ele>1719.6</ele>
        <time>2021-02-27T12:47:01Z</time>
      </trkpt>
      <trkpt lat="45.22757" lon="6.15136">
        <ele>1720</ele>
        <time>2021-02-27T12:47:02Z</time>
      </trkpt>
      <trkpt lat="45.22757" lon="6.15136">
        <ele>1719.8</ele>
        <time>2021-02-27T12:47:03Z</time>
      </trkpt>
      <trkpt lat="45.22757" lon="6.15136">
        <ele>1720</ele>
        <time>2021-02-27T12:47:04Z</time>
      </trkpt>
      <trkpt lat="45.22757" lon="6.15136">
        <ele>1719.8</ele>
        <time>2021-02-27T12:47:05Z</time>
      </trkpt>
      <trkpt lat="45.22757" lon="6.15136">
        <ele>1719.8</ele>
        <time>2021-02-27T12:47:06Z</time>
      </trkpt>
      <trkpt lat="45.22757" lon="6.15136">
        <ele>1719.6</ele>
        <time>2021-02-27T12:47:07Z</time>
      </trkpt>
      <trkpt lat="45.22757" lon="6.15136">
        <ele>1719.4</ele>
        <time>2021-02-27T12:47:08Z</time>
      </trkpt>
      <trkpt lat="45.22757" lon="6.15136">
        <ele>1719.6</ele>
        <time>2021-02-27T12:47:09Z</time>
      </trkpt>
      <trkpt lat="45.22757" lon="6.15136">
        <ele>1719.8</ele>
        <time>2021-02-27T12:47:10Z</time>
      </trkpt>
      <trkpt lat="45.22757" lon="6.15136">
        <ele>1719.6</ele>
        <time>2021-02-27T12:47:11Z</time>
      </trkpt>
      <trkpt lat="45.22757" lon="6.15136">
        <ele>1720</ele>
        <time>2021-02-27T12:47:12Z</time>
      </trkpt>
      <trkpt lat="45.22757" lon="6.15136">
        <ele>1720.4</ele>
        <time>2021-02-27T12:47:13Z</time>
      </trkpt>
      <trkpt lat="45.22757" lon="6.15136">
        <ele>1720.4</ele>
        <time>2021-02-27T12:47:14Z</time>
      </trkpt>
      <trkpt lat="45.22757" lon="6.15136">
        <ele>1720</ele>
        <time>2021-02-27T12:47:15Z</time>
      </trkpt>
      <trkpt lat="45.22757" lon="6.15136">
        <ele>1720.4</ele>
        <time>2021-02-27T12:47:16Z</time>
      </trkpt>
      <trkpt lat="45.22757" lon="6.15136">
        <ele>1720.6</ele>
        <time>2021-02-27T12:47:17Z</time>
      </trkpt>
      <trkpt lat="45.22757" lon="6.15136">
        <ele>1720.8</ele>
        <time>2021-02-27T12:47:18Z</time>
      </trkpt>
      <trkpt lat="45.22757" lon="6.15136">
        <ele>1721</ele>
        <time>2021-02-27T12:47:19Z</time>
      </trkpt>
      <trkpt lat="45.22757" lon="6.15136">
        <ele>1721.4</ele>
        <time>2021-02-27T12:47:20Z</time>
      </trkpt>
      <trkpt lat="45.22757" lon="6.15136">
        <ele>1721.2</ele>
        <time>2021-02-27T12:47:21Z</time>
      </trkpt>
      <trkpt lat="45.22757" lon="6.15136">
        <ele>1721.4</ele>
        <time>2021-02-27T12:47:22Z</time>
      </trkpt>
      <trkpt lat="45.22757" lon="6.15136">
        <ele>1721.4</ele>
        <time>2021-02-27T12:47:23Z</time>
      </trkpt>
      <trkpt lat="45.22757" lon="6.15136">
        <ele>1721.2</ele>
        <time>2021-02-27T12:47:24Z</time>
      </trkpt>
      <trkpt lat="45.22757" lon="6.15136">
        <ele>1721.2</ele>
        <time>2021-02-27T12:47:25Z</time>
      </trkpt>
      <trkpt lat="45.22757" lon="6.15136">
        <ele>1721.2</ele>
        <time>2021-02-27T12:47:26Z</time>
      </trkpt>
      <trkpt lat="45.22757" lon="6.15136">
        <ele>1721</ele>
        <time>2021-02-27T12:47:27Z</time>
      </trkpt>
      <trkpt lat="45.22757" lon="6.15136">
        <ele>1721</ele>
        <time>2021-02-27T12:47:28Z</time>
      </trkpt>
      <trkpt lat="45.22757" lon="6.15136">
        <ele>1720.8</ele>
        <time>2021-02-27T12:47:29Z</time>
      </trkpt>
      <trkpt lat="45.22757" lon="6.15136">
        <ele>1721</ele>
        <time>2021-02-27T12:47:30Z</time>
      </trkpt>
      <trkpt lat="45.22756" lon="6.15137">
        <ele>1720.4</ele>
        <time>2021-02-27T12:47:31Z</time>
      </trkpt>
      <trkpt lat="45.22756" lon="6.15137">
        <ele>1720.2</ele>
        <time>2021-02-27T12:47:32Z</time>
      </trkpt>
      <trkpt lat="45.22756" lon="6.15137">
        <ele>1720.2</ele>
        <time>2021-02-27T12:47:33Z</time>
      </trkpt>
      <trkpt lat="45.22756" lon="6.15137">
        <ele>1720.8</ele>
        <time>2021-02-27T12:47:34Z</time>
      </trkpt>
      <trkpt lat="45.22756" lon="6.15137">
        <ele>1720.8</ele>
        <time>2021-02-27T12:47:35Z</time>
      </trkpt>
      <trkpt lat="45.22756" lon="6.15137">
        <ele>1720.8</ele>
        <time>2021-02-27T12:47:36Z</time>
      </trkpt>
      <trkpt lat="45.22756" lon="6.15137">
        <ele>1721.2</ele>
        <time>2021-02-27T12:47:37Z</time>
      </trkpt>
      <trkpt lat="45.22756" lon="6.15137">
        <ele>1720.8</ele>
        <time>2021-02-27T12:47:38Z</time>
      </trkpt>
      <trkpt lat="45.22756" lon="6.15137">
        <ele>1721</ele>
        <time>2021-02-27T12:47:39Z</time>
      </trkpt>
      <trkpt lat="45.22756" lon="6.15137">
        <ele>1720.8</ele>
        <time>2021-02-27T12:47:40Z</time>
      </trkpt>
      <trkpt lat="45.22756" lon="6.15137">
        <ele>1720.8</ele>
        <time>2021-02-27T12:47:41Z</time>
      </trkpt>
      <trkpt lat="45.22756" lon="6.15137">
        <ele>1720.6</ele>
        <time>2021-02-27T12:47:42Z</time>
      </trkpt>
      <trkpt lat="45.22756" lon="6.15137">
        <ele>1720.8</ele>
        <time>2021-02-27T12:47:43Z</time>
      </trkpt>
      <trkpt lat="45.22756" lon="6.15137">
        <ele>1720.8</ele>
        <time>2021-02-27T12:47:44Z</time>
      </trkpt>
      <trkpt lat="45.22756" lon="6.15137">
        <ele>1720.8</ele>
        <time>2021-02-27T12:47:45Z</time>
      </trkpt>
      <trkpt lat="45.22756" lon="6.15137">
        <ele>1721</ele>
        <time>2021-02-27T12:47:46Z</time>
      </trkpt>
      <trkpt lat="45.22756" lon="6.15137">
        <ele>1721.2</ele>
        <time>2021-02-27T12:47:47Z</time>
      </trkpt>
      <trkpt lat="45.22756" lon="6.15137">
        <ele>1721.2</ele>
        <time>2021-02-27T12:47:48Z</time>
      </trkpt>
      <trkpt lat="45.22756" lon="6.15137">
        <ele>1721.2</ele>
        <time>2021-02-27T12:47:49Z</time>
      </trkpt>
      <trkpt lat="45.22756" lon="6.15137">
        <ele>1721.2</ele>
        <time>2021-02-27T12:47:50Z</time>
      </trkpt>
      <trkpt lat="45.22756" lon="6.15137">
        <ele>1721</ele>
        <time>2021-02-27T12:47:51Z</time>
      </trkpt>
      <trkpt lat="45.22756" lon="6.15137">
        <ele>1721</ele>
        <time>2021-02-27T12:47:52Z</time>
      </trkpt>
      <trkpt lat="45.22756" lon="6.15137">
        <ele>1721.4</ele>
        <time>2021-02-27T12:47:53Z</time>
      </trkpt>
      <trkpt lat="45.22756" lon="6.15137">
        <ele>1721.4</ele>
        <time>2021-02-27T12:47:54Z</time>
      </trkpt>
      <trkpt lat="45.22756" lon="6.15137">
        <ele>1721.4</ele>
        <time>2021-02-27T12:47:55Z</time>
      </trkpt>
      <trkpt lat="45.22756" lon="6.15137">
        <ele>1721.4</ele>
        <time>2021-02-27T12:47:56Z</time>
      </trkpt>
      <trkpt lat="45.22756" lon="6.15137">
        <ele>1721.4</ele>
        <time>2021-02-27T12:47:57Z</time>
      </trkpt>
      <trkpt lat="45.22756" lon="6.15137">
        <ele>1721.2</ele>
        <time>2021-02-27T12:47:58Z</time>
      </trkpt>
      <trkpt lat="45.22756" lon="6.15137">
        <ele>1721.4</ele>
        <time>2021-02-27T12:47:59Z</time>
      </trkpt>
      <trkpt lat="45.22756" lon="6.15137">
        <ele>1721.6</ele>
        <time>2021-02-27T12:48:00Z</time>
      </trkpt>
      <trkpt lat="45.22756" lon="6.15137">
        <ele>1721.6</ele>
        <time>2021-02-27T12:48:01Z</time>
      </trkpt>
      <trkpt lat="45.22756" lon="6.15137">
        <ele>1721.8</ele>
        <time>2021-02-27T12:48:02Z</time>
      </trkpt>
      <trkpt lat="45.22756" lon="6.15137">
        <ele>1721.8</ele>
        <time>2021-02-27T12:48:03Z</time>
      </trkpt>
      <trkpt lat="45.22756" lon="6.15137">
        <ele>1721.8</ele>
        <time>2021-02-27T12:48:04Z</time>
      </trkpt>
      <trkpt lat="45.22756" lon="6.15137">
        <ele>1722</ele>
        <time>2021-02-27T12:48:05Z</time>
      </trkpt>
      <trkpt lat="45.22756" lon="6.15137">
        <ele>1721.8</ele>
        <time>2021-02-27T12:48:06Z</time>
      </trkpt>
      <trkpt lat="45.22756" lon="6.15137">
        <ele>1722</ele>
        <time>2021-02-27T12:48:07Z</time>
      </trkpt>
      <trkpt lat="45.22756" lon="6.15137">
        <ele>1721.4</ele>
        <time>2021-02-27T12:48:08Z</time>
      </trkpt>
      <trkpt lat="45.22756" lon="6.15137">
        <ele>1721.2</ele>
        <time>2021-02-27T12:48:09Z</time>
      </trkpt>
      <trkpt lat="45.22756" lon="6.15137">
        <ele>1721.4</ele>
        <time>2021-02-27T12:48:10Z</time>
      </trkpt>
      <trkpt lat="45.22757" lon="6.15135">
        <ele>1721.2</ele>
        <time>2021-02-27T12:48:11Z</time>
      </trkpt>
      <trkpt lat="45.22757" lon="6.15135">
        <ele>1721.6</ele>
        <time>2021-02-27T12:48:12Z</time>
      </trkpt>
      <trkpt lat="45.22757" lon="6.15135">
        <ele>1721.6</ele>
        <time>2021-02-27T12:48:13Z</time>
      </trkpt>
      <trkpt lat="45.22757" lon="6.15135">
        <ele>1721.6</ele>
        <time>2021-02-27T12:48:14Z</time>
      </trkpt>
      <trkpt lat="45.22757" lon="6.15135">
        <ele>1722</ele>
        <time>2021-02-27T12:48:15Z</time>
      </trkpt>
      <trkpt lat="45.22757" lon="6.15135">
        <ele>1722</ele>
        <time>2021-02-27T12:48:16Z</time>
      </trkpt>
      <trkpt lat="45.22757" lon="6.15135">
        <ele>1722.4</ele>
        <time>2021-02-27T12:48:17Z</time>
      </trkpt>
      <trkpt lat="45.22757" lon="6.15135">
        <ele>1722.6</ele>
        <time>2021-02-27T12:48:18Z</time>
      </trkpt>
      <trkpt lat="45.22757" lon="6.15135">
        <ele>1723</ele>
        <time>2021-02-27T12:48:19Z</time>
      </trkpt>
      <trkpt lat="45.22757" lon="6.15135">
        <ele>1722.8</ele>
        <time>2021-02-27T12:48:20Z</time>
      </trkpt>
      <trkpt lat="45.22757" lon="6.15135">
        <ele>1723</ele>
        <time>2021-02-27T12:48:21Z</time>
      </trkpt>
      <trkpt lat="45.22757" lon="6.15135">
        <ele>1723.2</ele>
        <time>2021-02-27T12:48:22Z</time>
      </trkpt>
      <trkpt lat="45.22757" lon="6.15135">
        <ele>1723.4</ele>
        <time>2021-02-27T12:48:23Z</time>
      </trkpt>
      <trkpt lat="45.22757" lon="6.15135">
        <ele>1723.6</ele>
        <time>2021-02-27T12:48:24Z</time>
      </trkpt>
      <trkpt lat="45.22757" lon="6.15135">
        <ele>1723.8</ele>
        <time>2021-02-27T12:48:25Z</time>
      </trkpt>
      <trkpt lat="45.22757" lon="6.15135">
        <ele>1723.6</ele>
        <time>2021-02-27T12:48:26Z</time>
      </trkpt>
      <trkpt lat="45.22757" lon="6.15135">
        <ele>1724</ele>
        <time>2021-02-27T12:48:27Z</time>
      </trkpt>
      <trkpt lat="45.22757" lon="6.15135">
        <ele>1723.8</ele>
        <time>2021-02-27T12:48:28Z</time>
      </trkpt>
      <trkpt lat="45.22757" lon="6.15135">
        <ele>1723.8</ele>
        <time>2021-02-27T12:48:29Z</time>
      </trkpt>
      <trkpt lat="45.22757" lon="6.15135">
        <ele>1723.6</ele>
        <time>2021-02-27T12:48:30Z</time>
      </trkpt>
      <trkpt lat="45.22757" lon="6.15135">
        <ele>1723.8</ele>
        <time>2021-02-27T12:48:31Z</time>
      </trkpt>
      <trkpt lat="45.22757" lon="6.15135">
        <ele>1723.6</ele>
        <time>2021-02-27T12:48:32Z</time>
      </trkpt>
      <trkpt lat="45.22757" lon="6.15135">
        <ele>1723.8</ele>
        <time>2021-02-27T12:48:33Z</time>
      </trkpt>
      <trkpt lat="45.22757" lon="6.15135">
        <ele>1723.8</ele>
        <time>2021-02-27T12:48:34Z</time>
      </trkpt>
      <trkpt lat="45.22757" lon="6.15135">
        <ele>1723.8</ele>
        <time>2021-02-27T12:48:35Z</time>
      </trkpt>
      <trkpt lat="45.22757" lon="6.15135">
        <ele>1723.6</ele>
        <time>2021-02-27T12:48:36Z</time>
      </trkpt>
      <trkpt lat="45.22757" lon="6.15135">
        <ele>1723.8</ele>
        <time>2021-02-27T12:48:37Z</time>
      </trkpt>
      <trkpt lat="45.22757" lon="6.15135">
        <ele>1723.8</ele>
        <time>2021-02-27T12:48:38Z</time>
      </trkpt>
      <trkpt lat="45.22757" lon="6.15135">
        <ele>1723.6</ele>
        <time>2021-02-27T12:48:39Z</time>
      </trkpt>
      <trkpt lat="45.22757" lon="6.15135">
        <ele>1723.4</ele>
        <time>2021-02-27T12:48:40Z</time>
      </trkpt>
      <trkpt lat="45.22757" lon="6.15135">
        <ele>1723.2</ele>
        <time>2021-02-27T12:48:41Z</time>
      </trkpt>
      <trkpt lat="45.22757" lon="6.15135">
        <ele>1723.4</ele>
        <time>2021-02-27T12:48:42Z</time>
      </trkpt>
      <trkpt lat="45.22757" lon="6.15135">
        <ele>1723.6</ele>
        <time>2021-02-27T12:48:43Z</time>
      </trkpt>
      <trkpt lat="45.22757" lon="6.15135">
        <ele>1723.2</ele>
        <time>2021-02-27T12:48:44Z</time>
      </trkpt>
      <trkpt lat="45.22757" lon="6.15135">
        <ele>1723</ele>
        <time>2021-02-27T12:48:45Z</time>
      </trkpt>
      <trkpt lat="45.22757" lon="6.15135">
        <ele>1723</ele>
        <time>2021-02-27T12:48:46Z</time>
      </trkpt>
      <trkpt lat="45.22757" lon="6.15135">
        <ele>1723.2</ele>
        <time>2021-02-27T12:48:47Z</time>
      </trkpt>
      <trkpt lat="45.22757" lon="6.15135">
        <ele>1723.2</ele>
        <time>2021-02-27T12:48:48Z</time>
      </trkpt>
      <trkpt lat="45.22757" lon="6.15135">
        <ele>1722.8</ele>
        <time>2021-02-27T12:48:49Z</time>
      </trkpt>
      <trkpt lat="45.22757" lon="6.15135">
        <ele>1723.2</ele>
        <time>2021-02-27T12:48:50Z</time>
      </trkpt>
      <trkpt lat="45.22757" lon="6.15135">
        <ele>1723.4</ele>
        <time>2021-02-27T12:48:51Z</time>
      </trkpt>
      <trkpt lat="45.22757" lon="6.15135">
        <ele>1723.4</ele>
        <time>2021-02-27T12:48:52Z</time>
      </trkpt>
      <trkpt lat="45.22757" lon="6.15135">
        <ele>1723.4</ele>
        <time>2021-02-27T12:48:53Z</time>
      </trkpt>
      <trkpt lat="45.22757" lon="6.15135">
        <ele>1723.4</ele>
        <time>2021-02-27T12:48:54Z</time>
      </trkpt>
      <trkpt lat="45.22757" lon="6.15135">
        <ele>1722.8</ele>
        <time>2021-02-27T12:48:55Z</time>
      </trkpt>
      <trkpt lat="45.22757" lon="6.15135">
        <ele>1722.6</ele>
        <time>2021-02-27T12:48:56Z</time>
      </trkpt>
      <trkpt lat="45.22757" lon="6.15135">
        <ele>1723</ele>
        <time>2021-02-27T12:48:57Z</time>
      </trkpt>
      <trkpt lat="45.22757" lon="6.15135">
        <ele>1723.6</ele>
        <time>2021-02-27T12:48:58Z</time>
      </trkpt>
      <trkpt lat="45.22757" lon="6.15135">
        <ele>1723.6</ele>
        <time>2021-02-27T12:48:59Z</time>
      </trkpt>
      <trkpt lat="45.22757" lon="6.15135">
        <ele>1723.8</ele>
        <time>2021-02-27T12:49:00Z</time>
      </trkpt>
      <trkpt lat="45.22757" lon="6.15135">
        <ele>1723.8</ele>
        <time>2021-02-27T12:49:01Z</time>
      </trkpt>
      <trkpt lat="45.22757" lon="6.15135">
        <ele>1723.6</ele>
        <time>2021-02-27T12:49:02Z</time>
      </trkpt>
      <trkpt lat="45.22757" lon="6.15135">
        <ele>1723.8</ele>
        <time>2021-02-27T12:49:03Z</time>
      </trkpt>
      <trkpt lat="45.22757" lon="6.15135">
        <ele>1724.2</ele>
        <time>2021-02-27T12:49:04Z</time>
      </trkpt>
      <trkpt lat="45.22757" lon="6.15135">
        <ele>1724</ele>
        <time>2021-02-27T12:49:05Z</time>
      </trkpt>
      <trkpt lat="45.22757" lon="6.15135">
        <ele>1723.4</ele>
        <time>2021-02-27T12:49:06Z</time>
      </trkpt>
      <trkpt lat="45.22757" lon="6.15135">
        <ele>1723.4</ele>
        <time>2021-02-27T12:49:07Z</time>
      </trkpt>
      <trkpt lat="45.22757" lon="6.15135">
        <ele>1723.4</ele>
        <time>2021-02-27T12:49:08Z</time>
      </trkpt>
      <trkpt lat="45.22757" lon="6.15135">
        <ele>1722.8</ele>
        <time>2021-02-27T12:49:09Z</time>
      </trkpt>
      <trkpt lat="45.22757" lon="6.15135">
        <ele>1722.8</ele>
        <time>2021-02-27T12:49:10Z</time>
      </trkpt>
      <trkpt lat="45.22757" lon="6.15135">
        <ele>1722.8</ele>
        <time>2021-02-27T12:49:11Z</time>
      </trkpt>
      <trkpt lat="45.22757" lon="6.15135">
        <ele>1722.4</ele>
        <time>2021-02-27T12:49:12Z</time>
      </trkpt>
      <trkpt lat="45.22757" lon="6.15135">
        <ele>1722.2</ele>
        <time>2021-02-27T12:49:13Z</time>
      </trkpt>
      <trkpt lat="45.22757" lon="6.15135">
        <ele>1722.8</ele>
        <time>2021-02-27T12:49:14Z</time>
      </trkpt>
      <trkpt lat="45.22757" lon="6.15135">
        <ele>1723</ele>
        <time>2021-02-27T12:49:15Z</time>
      </trkpt>
      <trkpt lat="45.22757" lon="6.15135">
        <ele>1723.2</ele>
        <time>2021-02-27T12:49:16Z</time>
      </trkpt>
      <trkpt lat="45.22757" lon="6.15135">
        <ele>1723</ele>
        <time>2021-02-27T12:49:17Z</time>
      </trkpt>
      <trkpt lat="45.22757" lon="6.15135">
        <ele>1723.4</ele>
        <time>2021-02-27T12:49:18Z</time>
      </trkpt>
      <trkpt lat="45.22757" lon="6.15135">
        <ele>1723.2</ele>
        <time>2021-02-27T12:49:19Z</time>
      </trkpt>
      <trkpt lat="45.22757" lon="6.15135">
        <ele>1723</ele>
        <time>2021-02-27T12:49:20Z</time>
      </trkpt>
      <trkpt lat="45.22757" lon="6.15135">
        <ele>1723</ele>
        <time>2021-02-27T12:49:21Z</time>
      </trkpt>
      <trkpt lat="45.22757" lon="6.15135">
        <ele>1723.4</ele>
        <time>2021-02-27T12:49:22Z</time>
      </trkpt>
      <trkpt lat="45.22757" lon="6.15135">
        <ele>1723.6</ele>
        <time>2021-02-27T12:49:23Z</time>
      </trkpt>
      <trkpt lat="45.22757" lon="6.15135">
        <ele>1723.6</ele>
        <time>2021-02-27T12:49:24Z</time>
      </trkpt>
      <trkpt lat="45.22757" lon="6.15135">
        <ele>1723.6</ele>
        <time>2021-02-27T12:49:25Z</time>
      </trkpt>
      <trkpt lat="45.22757" lon="6.15135">
        <ele>1723.4</ele>
        <time>2021-02-27T12:49:26Z</time>
      </trkpt>
      <trkpt lat="45.22757" lon="6.15135">
        <ele>1723.4</ele>
        <time>2021-02-27T12:49:27Z</time>
      </trkpt>
      <trkpt lat="45.22757" lon="6.15135">
        <ele>1723.2</ele>
        <time>2021-02-27T12:49:28Z</time>
      </trkpt>
      <trkpt lat="45.22757" lon="6.15135">
        <ele>1723.4</ele>
        <time>2021-02-27T12:49:29Z</time>
      </trkpt>
      <trkpt lat="45.22757" lon="6.15135">
        <ele>1723.4</ele>
        <time>2021-02-27T12:49:30Z</time>
      </trkpt>
      <trkpt lat="45.22757" lon="6.15135">
        <ele>1723.2</ele>
        <time>2021-02-27T12:49:31Z</time>
      </trkpt>
      <trkpt lat="45.22757" lon="6.15135">
        <ele>1723.4</ele>
        <time>2021-02-27T12:49:32Z</time>
      </trkpt>
      <trkpt lat="45.22757" lon="6.15135">
        <ele>1723</ele>
        <time>2021-02-27T12:49:33Z</time>
      </trkpt>
      <trkpt lat="45.22757" lon="6.15135">
        <ele>1722.8</ele>
        <time>2021-02-27T12:49:34Z</time>
      </trkpt>
      <trkpt lat="45.22757" lon="6.15135">
        <ele>1722.8</ele>
        <time>2021-02-27T12:49:35Z</time>
      </trkpt>
      <trkpt lat="45.22757" lon="6.15135">
        <ele>1722.6</ele>
        <time>2021-02-27T12:49:36Z</time>
      </trkpt>
      <trkpt lat="45.22757" lon="6.15135">
        <ele>1722.8</ele>
        <time>2021-02-27T12:49:37Z</time>
      </trkpt>
      <trkpt lat="45.22757" lon="6.15135">
        <ele>1722.6</ele>
        <time>2021-02-27T12:49:38Z</time>
      </trkpt>
      <trkpt lat="45.22757" lon="6.15135">
        <ele>1722.6</ele>
        <time>2021-02-27T12:49:39Z</time>
      </trkpt>
      <trkpt lat="45.22757" lon="6.15135">
        <ele>1722.6</ele>
        <time>2021-02-27T12:49:40Z</time>
      </trkpt>
      <trkpt lat="45.22757" lon="6.15135">
        <ele>1722.4</ele>
        <time>2021-02-27T12:49:41Z</time>
      </trkpt>
      <trkpt lat="45.22757" lon="6.15135">
        <ele>1722.6</ele>
        <time>2021-02-27T12:49:42Z</time>
      </trkpt>
      <trkpt lat="45.22757" lon="6.15135">
        <ele>1723</ele>
        <time>2021-02-27T12:49:43Z</time>
      </trkpt>
      <trkpt lat="45.22757" lon="6.15135">
        <ele>1722.8</ele>
        <time>2021-02-27T12:49:44Z</time>
      </trkpt>
      <trkpt lat="45.22757" lon="6.15135">
        <ele>1723</ele>
        <time>2021-02-27T12:49:45Z</time>
      </trkpt>
      <trkpt lat="45.22757" lon="6.15135">
        <ele>1723.4</ele>
        <time>2021-02-27T12:49:46Z</time>
      </trkpt>
      <trkpt lat="45.22757" lon="6.15135">
        <ele>1723.4</ele>
        <time>2021-02-27T12:49:47Z</time>
      </trkpt>
      <trkpt lat="45.22757" lon="6.15135">
        <ele>1723.6</ele>
        <time>2021-02-27T12:49:48Z</time>
      </trkpt>
      <trkpt lat="45.22757" lon="6.15135">
        <ele>1723.6</ele>
        <time>2021-02-27T12:49:49Z</time>
      </trkpt>
      <trkpt lat="45.22757" lon="6.15135">
        <ele>1723.6</ele>
        <time>2021-02-27T12:49:50Z</time>
      </trkpt>
      <trkpt lat="45.22757" lon="6.15135">
        <ele>1723.8</ele>
        <time>2021-02-27T12:49:51Z</time>
      </trkpt>
      <trkpt lat="45.22757" lon="6.15135">
        <ele>1723.8</ele>
        <time>2021-02-27T12:49:52Z</time>
      </trkpt>
      <trkpt lat="45.22757" lon="6.15135">
        <ele>1723.8</ele>
        <time>2021-02-27T12:49:53Z</time>
      </trkpt>
      <trkpt lat="45.22757" lon="6.15135">
        <ele>1723.8</ele>
        <time>2021-02-27T12:49:54Z</time>
      </trkpt>
      <trkpt lat="45.22757" lon="6.15135">
        <ele>1723.8</ele>
        <time>2021-02-27T12:49:55Z</time>
      </trkpt>
      <trkpt lat="45.22757" lon="6.15135">
        <ele>1723.6</ele>
        <time>2021-02-27T12:49:56Z</time>
      </trkpt>
      <trkpt lat="45.22757" lon="6.15135">
        <ele>1723.6</ele>
        <time>2021-02-27T12:49:57Z</time>
      </trkpt>
      <trkpt lat="45.22757" lon="6.15135">
        <ele>1723.6</ele>
        <time>2021-02-27T12:49:58Z</time>
      </trkpt>
      <trkpt lat="45.22757" lon="6.15135">
        <ele>1723.8</ele>
        <time>2021-02-27T12:49:59Z</time>
      </trkpt>
      <trkpt lat="45.22757" lon="6.15135">
        <ele>1723.8</ele>
        <time>2021-02-27T12:50:00Z</time>
      </trkpt>
      <trkpt lat="45.22757" lon="6.15135">
        <ele>1724</ele>
        <time>2021-02-27T12:50:01Z</time>
      </trkpt>
      <trkpt lat="45.22757" lon="6.15135">
        <ele>1723.8</ele>
        <time>2021-02-27T12:50:02Z</time>
      </trkpt>
      <trkpt lat="45.22757" lon="6.15135">
        <ele>1724.4</ele>
        <time>2021-02-27T12:50:03Z</time>
      </trkpt>
      <trkpt lat="45.22757" lon="6.15135">
        <ele>1724.4</ele>
        <time>2021-02-27T12:50:04Z</time>
      </trkpt>
      <trkpt lat="45.22757" lon="6.15135">
        <ele>1725</ele>
        <time>2021-02-27T12:50:05Z</time>
      </trkpt>
      <trkpt lat="45.22757" lon="6.15135">
        <ele>1724.8</ele>
        <time>2021-02-27T12:50:06Z</time>
      </trkpt>
      <trkpt lat="45.22757" lon="6.15135">
        <ele>1724.4</ele>
        <time>2021-02-27T12:50:07Z</time>
      </trkpt>
      <trkpt lat="45.22757" lon="6.15135">
        <ele>1724.2</ele>
        <time>2021-02-27T12:50:08Z</time>
      </trkpt>
      <trkpt lat="45.22757" lon="6.15135">
        <ele>1723.8</ele>
        <time>2021-02-27T12:50:09Z</time>
      </trkpt>
      <trkpt lat="45.22757" lon="6.15135">
        <ele>1723.8</ele>
        <time>2021-02-27T12:50:10Z</time>
      </trkpt>
      <trkpt lat="45.22757" lon="6.15135">
        <ele>1723.8</ele>
        <time>2021-02-27T12:50:11Z</time>
      </trkpt>
      <trkpt lat="45.22757" lon="6.15135">
        <ele>1723.8</ele>
        <time>2021-02-27T12:50:12Z</time>
      </trkpt>
      <trkpt lat="45.22757" lon="6.15135">
        <ele>1723.8</ele>
        <time>2021-02-27T12:50:13Z</time>
      </trkpt>
      <trkpt lat="45.22757" lon="6.15135">
        <ele>1723.8</ele>
        <time>2021-02-27T12:50:14Z</time>
      </trkpt>
      <trkpt lat="45.22757" lon="6.15135">
        <ele>1723.6</ele>
        <time>2021-02-27T12:50:15Z</time>
      </trkpt>
      <trkpt lat="45.22757" lon="6.15135">
        <ele>1723.8</ele>
        <time>2021-02-27T12:50:16Z</time>
      </trkpt>
      <trkpt lat="45.22757" lon="6.15135">
        <ele>1723.6</ele>
        <time>2021-02-27T12:50:17Z</time>
      </trkpt>
      <trkpt lat="45.22757" lon="6.15135">
        <ele>1723.4</ele>
        <time>2021-02-27T12:50:18Z</time>
      </trkpt>
      <trkpt lat="45.22757" lon="6.15135">
        <ele>1723.2</ele>
        <time>2021-02-27T12:50:19Z</time>
      </trkpt>
      <trkpt lat="45.22757" lon="6.15135">
        <ele>1723</ele>
        <time>2021-02-27T12:50:20Z</time>
      </trkpt>
      <trkpt lat="45.22757" lon="6.15135">
        <ele>1723</ele>
        <time>2021-02-27T12:50:21Z</time>
      </trkpt>
      <trkpt lat="45.22757" lon="6.15135">
        <ele>1723</ele>
        <time>2021-02-27T12:50:22Z</time>
      </trkpt>
      <trkpt lat="45.22757" lon="6.15135">
        <ele>1723</ele>
        <time>2021-02-27T12:50:23Z</time>
      </trkpt>
      <trkpt lat="45.22757" lon="6.15135">
        <ele>1722.8</ele>
        <time>2021-02-27T12:50:24Z</time>
      </trkpt>
      <trkpt lat="45.22757" lon="6.15135">
        <ele>1722.6</ele>
        <time>2021-02-27T12:50:25Z</time>
      </trkpt>
      <trkpt lat="45.22757" lon="6.15135">
        <ele>1722.6</ele>
        <time>2021-02-27T12:50:26Z</time>
      </trkpt>
      <trkpt lat="45.22757" lon="6.15135">
        <ele>1722.4</ele>
        <time>2021-02-27T12:50:27Z</time>
      </trkpt>
      <trkpt lat="45.22757" lon="6.15135">
        <ele>1722.8</ele>
        <time>2021-02-27T12:50:28Z</time>
      </trkpt>
      <trkpt lat="45.22757" lon="6.15135">
        <ele>1723</ele>
        <time>2021-02-27T12:50:29Z</time>
      </trkpt>
      <trkpt lat="45.22757" lon="6.15135">
        <ele>1723</ele>
        <time>2021-02-27T12:50:30Z</time>
      </trkpt>
      <trkpt lat="45.22757" lon="6.15135">
        <ele>1723</ele>
        <time>2021-02-27T12:50:31Z</time>
      </trkpt>
      <trkpt lat="45.22757" lon="6.15135">
        <ele>1723</ele>
        <time>2021-02-27T12:50:32Z</time>
      </trkpt>
      <trkpt lat="45.22757" lon="6.15135">
        <ele>1723</ele>
        <time>2021-02-27T12:50:33Z</time>
      </trkpt>
      <trkpt lat="45.22757" lon="6.15135">
        <ele>1722.6</ele>
        <time>2021-02-27T12:50:34Z</time>
      </trkpt>
      <trkpt lat="45.22757" lon="6.15135">
        <ele>1722.4</ele>
        <time>2021-02-27T12:50:35Z</time>
      </trkpt>
      <trkpt lat="45.22757" lon="6.15135">
        <ele>1722.2</ele>
        <time>2021-02-27T12:50:36Z</time>
      </trkpt>
      <trkpt lat="45.22757" lon="6.15135">
        <ele>1722.2</ele>
        <time>2021-02-27T12:50:37Z</time>
      </trkpt>
      <trkpt lat="45.22757" lon="6.15135">
        <ele>1722.4</ele>
        <time>2021-02-27T12:50:38Z</time>
      </trkpt>
      <trkpt lat="45.22757" lon="6.15135">
        <ele>1722.2</ele>
        <time>2021-02-27T12:50:39Z</time>
      </trkpt>
      <trkpt lat="45.22757" lon="6.15135">
        <ele>1722.2</ele>
        <time>2021-02-27T12:50:40Z</time>
      </trkpt>
      <trkpt lat="45.22757" lon="6.15135">
        <ele>1722.2</ele>
        <time>2021-02-27T12:50:41Z</time>
      </trkpt>
      <trkpt lat="45.22757" lon="6.15135">
        <ele>1721.8</ele>
        <time>2021-02-27T12:50:42Z</time>
      </trkpt>
      <trkpt lat="45.22757" lon="6.15135">
        <ele>1721.4</ele>
        <time>2021-02-27T12:50:43Z</time>
      </trkpt>
      <trkpt lat="45.22757" lon="6.15135">
        <ele>1721.6</ele>
        <time>2021-02-27T12:50:44Z</time>
      </trkpt>
      <trkpt lat="45.22757" lon="6.15135">
        <ele>1721.8</ele>
        <time>2021-02-27T12:50:45Z</time>
      </trkpt>
      <trkpt lat="45.22757" lon="6.15135">
        <ele>1721.8</ele>
        <time>2021-02-27T12:50:46Z</time>
      </trkpt>
      <trkpt lat="45.22757" lon="6.15135">
        <ele>1722</ele>
        <time>2021-02-27T12:50:47Z</time>
      </trkpt>
      <trkpt lat="45.22757" lon="6.15135">
        <ele>1722</ele>
        <time>2021-02-27T12:50:48Z</time>
      </trkpt>
      <trkpt lat="45.22757" lon="6.15135">
        <ele>1722</ele>
        <time>2021-02-27T12:50:49Z</time>
      </trkpt>
      <trkpt lat="45.22757" lon="6.15135">
        <ele>1721.8</ele>
        <time>2021-02-27T12:50:50Z</time>
      </trkpt>
      <trkpt lat="45.22757" lon="6.15135">
        <ele>1722</ele>
        <time>2021-02-27T12:50:51Z</time>
      </trkpt>
      <trkpt lat="45.22757" lon="6.15135">
        <ele>1722</ele>
        <time>2021-02-27T12:50:52Z</time>
      </trkpt>
      <trkpt lat="45.22757" lon="6.15135">
        <ele>1722.4</ele>
        <time>2021-02-27T12:50:53Z</time>
      </trkpt>
      <trkpt lat="45.22757" lon="6.15135">
        <ele>1722.8</ele>
        <time>2021-02-27T12:50:54Z</time>
      </trkpt>
      <trkpt lat="45.22757" lon="6.15135">
        <ele>1722.8</ele>
        <time>2021-02-27T12:50:55Z</time>
      </trkpt>
      <trkpt lat="45.22757" lon="6.15135">
        <ele>1722.8</ele>
        <time>2021-02-27T12:50:56Z</time>
      </trkpt>
      <trkpt lat="45.22757" lon="6.15135">
        <ele>1722.6</ele>
        <time>2021-02-27T12:50:57Z</time>
      </trkpt>
      <trkpt lat="45.22757" lon="6.15135">
        <ele>1722.8</ele>
        <time>2021-02-27T12:50:58Z</time>
      </trkpt>
      <trkpt lat="45.22757" lon="6.15135">
        <ele>1723</ele>
        <time>2021-02-27T12:50:59Z</time>
      </trkpt>
      <trkpt lat="45.22757" lon="6.15135">
        <ele>1722.8</ele>
        <time>2021-02-27T12:51:00Z</time>
      </trkpt>
      <trkpt lat="45.22757" lon="6.15135">
        <ele>1722.8</ele>
        <time>2021-02-27T12:51:01Z</time>
      </trkpt>
      <trkpt lat="45.22757" lon="6.15135">
        <ele>1723</ele>
        <time>2021-02-27T12:51:02Z</time>
      </trkpt>
      <trkpt lat="45.22757" lon="6.15135">
        <ele>1722.8</ele>
        <time>2021-02-27T12:51:03Z</time>
      </trkpt>
      <trkpt lat="45.22757" lon="6.15135">
        <ele>1723</ele>
        <time>2021-02-27T12:51:04Z</time>
      </trkpt>
      <trkpt lat="45.22757" lon="6.15135">
        <ele>1722.8</ele>
        <time>2021-02-27T12:51:05Z</time>
      </trkpt>
      <trkpt lat="45.22757" lon="6.15135">
        <ele>1722.8</ele>
        <time>2021-02-27T12:51:06Z</time>
      </trkpt>
      <trkpt lat="45.22757" lon="6.15135">
        <ele>1722.8</ele>
        <time>2021-02-27T12:51:07Z</time>
      </trkpt>
      <trkpt lat="45.22757" lon="6.15135">
        <ele>1722.4</ele>
        <time>2021-02-27T12:51:08Z</time>
      </trkpt>
      <trkpt lat="45.22757" lon="6.15135">
        <ele>1722.4</ele>
        <time>2021-02-27T12:51:09Z</time>
      </trkpt>
      <trkpt lat="45.22757" lon="6.15135">
        <ele>1722.4</ele>
        <time>2021-02-27T12:51:10Z</time>
      </trkpt>
      <trkpt lat="45.22757" lon="6.15135">
        <ele>1722.4</ele>
        <time>2021-02-27T12:51:11Z</time>
      </trkpt>
      <trkpt lat="45.22757" lon="6.15135">
        <ele>1722.2</ele>
        <time>2021-02-27T12:51:13Z</time>
      </trkpt>
      <trkpt lat="45.22757" lon="6.15135">
        <ele>1722</ele>
        <time>2021-02-27T12:51:14Z</time>
      </trkpt>
      <trkpt lat="45.22757" lon="6.15135">
        <ele>1722</ele>
        <time>2021-02-27T12:51:15Z</time>
      </trkpt>
      <trkpt lat="45.22757" lon="6.15135">
        <ele>1722</ele>
        <time>2021-02-27T12:51:16Z</time>
      </trkpt>
      <trkpt lat="45.22757" lon="6.15135">
        <ele>1722.2</ele>
        <time>2021-02-27T12:51:17Z</time>
      </trkpt>
      <trkpt lat="45.22757" lon="6.15135">
        <ele>1722.2</ele>
        <time>2021-02-27T12:51:18Z</time>
      </trkpt>
      <trkpt lat="45.22757" lon="6.15135">
        <ele>1722.4</ele>
        <time>2021-02-27T12:51:19Z</time>
      </trkpt>
      <trkpt lat="45.22757" lon="6.15135">
        <ele>1722.4</ele>
        <time>2021-02-27T12:51:20Z</time>
      </trkpt>
      <trkpt lat="45.22757" lon="6.15135">
        <ele>1722.2</ele>
        <time>2021-02-27T12:51:21Z</time>
      </trkpt>
      <trkpt lat="45.22757" lon="6.15135">
        <ele>1722.2</ele>
        <time>2021-02-27T12:51:22Z</time>
      </trkpt>
      <trkpt lat="45.22757" lon="6.15135">
        <ele>1722</ele>
        <time>2021-02-27T12:51:23Z</time>
      </trkpt>
      <trkpt lat="45.22757" lon="6.15135">
        <ele>1722</ele>
        <time>2021-02-27T12:51:24Z</time>
      </trkpt>
      <trkpt lat="45.22759" lon="6.15135">
        <ele>1721.8</ele>
        <time>2021-02-27T12:51:25Z</time>
      </trkpt>
      <trkpt lat="45.22759" lon="6.15135">
        <ele>1721.8</ele>
        <time>2021-02-27T12:51:26Z</time>
      </trkpt>
      <trkpt lat="45.22759" lon="6.15135">
        <ele>1721.8</ele>
        <time>2021-02-27T12:51:27Z</time>
      </trkpt>
      <trkpt lat="45.22759" lon="6.15135">
        <ele>1722</ele>
        <time>2021-02-27T12:51:28Z</time>
      </trkpt>
      <trkpt lat="45.22759" lon="6.15135">
        <ele>1722</ele>
        <time>2021-02-27T12:51:29Z</time>
      </trkpt>
      <trkpt lat="45.22759" lon="6.15135">
        <ele>1722</ele>
        <time>2021-02-27T12:51:30Z</time>
      </trkpt>
      <trkpt lat="45.22759" lon="6.15135">
        <ele>1722</ele>
        <time>2021-02-27T12:51:31Z</time>
      </trkpt>
      <trkpt lat="45.22759" lon="6.15135">
        <ele>1722.2</ele>
        <time>2021-02-27T12:51:32Z</time>
      </trkpt>
      <trkpt lat="45.22759" lon="6.15135">
        <ele>1722</ele>
        <time>2021-02-27T12:51:33Z</time>
      </trkpt>
      <trkpt lat="45.22759" lon="6.15135">
        <ele>1721.8</ele>
        <time>2021-02-27T12:51:34Z</time>
      </trkpt>
      <trkpt lat="45.22759" lon="6.15135">
        <ele>1721.6</ele>
        <time>2021-02-27T12:51:35Z</time>
      </trkpt>
      <trkpt lat="45.22758" lon="6.15136">
        <ele>1722</ele>
        <time>2021-02-27T12:51:36Z</time>
      </trkpt>
      <trkpt lat="45.22758" lon="6.15136">
        <ele>1721.8</ele>
        <time>2021-02-27T12:51:37Z</time>
      </trkpt>
      <trkpt lat="45.22758" lon="6.15136">
        <ele>1722</ele>
        <time>2021-02-27T12:51:38Z</time>
      </trkpt>
      <trkpt lat="45.22758" lon="6.15136">
        <ele>1722.2</ele>
        <time>2021-02-27T12:51:39Z</time>
      </trkpt>
      <trkpt lat="45.22758" lon="6.15136">
        <ele>1722.2</ele>
        <time>2021-02-27T12:51:40Z</time>
      </trkpt>
      <trkpt lat="45.22758" lon="6.15136">
        <ele>1722.4</ele>
        <time>2021-02-27T12:51:41Z</time>
      </trkpt>
      <trkpt lat="45.22758" lon="6.15136">
        <ele>1722.4</ele>
        <time>2021-02-27T12:51:42Z</time>
      </trkpt>
      <trkpt lat="45.22758" lon="6.15136">
        <ele>1722.2</ele>
        <time>2021-02-27T12:51:43Z</time>
      </trkpt>
      <trkpt lat="45.22758" lon="6.15136">
        <ele>1722</ele>
        <time>2021-02-27T12:51:44Z</time>
      </trkpt>
      <trkpt lat="45.22758" lon="6.15136">
        <ele>1721.2</ele>
        <time>2021-02-27T12:51:45Z</time>
      </trkpt>
      <trkpt lat="45.22758" lon="6.15136">
        <ele>1721.4</ele>
        <time>2021-02-27T12:51:46Z</time>
      </trkpt>
      <trkpt lat="45.22758" lon="6.15136">
        <ele>1721.6</ele>
        <time>2021-02-27T12:51:47Z</time>
      </trkpt>
      <trkpt lat="45.22758" lon="6.15136">
        <ele>1722</ele>
        <time>2021-02-27T12:51:48Z</time>
      </trkpt>
      <trkpt lat="45.22758" lon="6.15136">
        <ele>1722</ele>
        <time>2021-02-27T12:51:49Z</time>
      </trkpt>
      <trkpt lat="45.22758" lon="6.15136">
        <ele>1722.2</ele>
        <time>2021-02-27T12:51:50Z</time>
      </trkpt>
      <trkpt lat="45.22758" lon="6.15136">
        <ele>1722.2</ele>
        <time>2021-02-27T12:51:51Z</time>
      </trkpt>
      <trkpt lat="45.22758" lon="6.15136">
        <ele>1722.4</ele>
        <time>2021-02-27T12:51:52Z</time>
      </trkpt>
      <trkpt lat="45.22758" lon="6.15136">
        <ele>1722.6</ele>
        <time>2021-02-27T12:51:53Z</time>
      </trkpt>
      <trkpt lat="45.22758" lon="6.15136">
        <ele>1722.2</ele>
        <time>2021-02-27T12:51:54Z</time>
      </trkpt>
      <trkpt lat="45.22758" lon="6.15136">
        <ele>1722</ele>
        <time>2021-02-27T12:51:55Z</time>
      </trkpt>
      <trkpt lat="45.22758" lon="6.15136">
        <ele>1721.8</ele>
        <time>2021-02-27T12:51:56Z</time>
      </trkpt>
      <trkpt lat="45.22758" lon="6.15136">
        <ele>1722</ele>
        <time>2021-02-27T12:51:57Z</time>
      </trkpt>
      <trkpt lat="45.22758" lon="6.15136">
        <ele>1722</ele>
        <time>2021-02-27T12:51:58Z</time>
      </trkpt>
      <trkpt lat="45.22758" lon="6.15136">
        <ele>1721.8</ele>
        <time>2021-02-27T12:51:59Z</time>
      </trkpt>
      <trkpt lat="45.22758" lon="6.15136">
        <ele>1721.8</ele>
        <time>2021-02-27T12:52:00Z</time>
      </trkpt>
      <trkpt lat="45.22758" lon="6.15136">
        <ele>1721.6</ele>
        <time>2021-02-27T12:52:01Z</time>
      </trkpt>
      <trkpt lat="45.22758" lon="6.15136">
        <ele>1721.6</ele>
        <time>2021-02-27T12:52:02Z</time>
      </trkpt>
      <trkpt lat="45.22758" lon="6.15136">
        <ele>1721.8</ele>
        <time>2021-02-27T12:52:03Z</time>
      </trkpt>
      <trkpt lat="45.22758" lon="6.15136">
        <ele>1721.6</ele>
        <time>2021-02-27T12:52:04Z</time>
      </trkpt>
      <trkpt lat="45.22758" lon="6.15136">
        <ele>1721.8</ele>
        <time>2021-02-27T12:52:05Z</time>
      </trkpt>
      <trkpt lat="45.22758" lon="6.15136">
        <ele>1721.8</ele>
        <time>2021-02-27T12:52:06Z</time>
      </trkpt>
      <trkpt lat="45.22758" lon="6.15136">
        <ele>1721.6</ele>
        <time>2021-02-27T12:52:07Z</time>
      </trkpt>
      <trkpt lat="45.22758" lon="6.15136">
        <ele>1721.6</ele>
        <time>2021-02-27T12:52:08Z</time>
      </trkpt>
      <trkpt lat="45.22758" lon="6.15136">
        <ele>1721.8</ele>
        <time>2021-02-27T12:52:09Z</time>
      </trkpt>
      <trkpt lat="45.22758" lon="6.15136">
        <ele>1721.8</ele>
        <time>2021-02-27T12:52:10Z</time>
      </trkpt>
      <trkpt lat="45.22758" lon="6.15136">
        <ele>1721.6</ele>
        <time>2021-02-27T12:52:11Z</time>
      </trkpt>
      <trkpt lat="45.22758" lon="6.15136">
        <ele>1721.8</ele>
        <time>2021-02-27T12:52:12Z</time>
      </trkpt>
      <trkpt lat="45.22758" lon="6.15136">
        <ele>1721.2</ele>
        <time>2021-02-27T12:52:13Z</time>
      </trkpt>
      <trkpt lat="45.22758" lon="6.15136">
        <ele>1721.4</ele>
        <time>2021-02-27T12:52:14Z</time>
      </trkpt>
      <trkpt lat="45.22758" lon="6.15136">
        <ele>1721.2</ele>
        <time>2021-02-27T12:52:15Z</time>
      </trkpt>
      <trkpt lat="45.22758" lon="6.15136">
        <ele>1721.2</ele>
        <time>2021-02-27T12:52:16Z</time>
      </trkpt>
      <trkpt lat="45.22758" lon="6.15136">
        <ele>1721.4</ele>
        <time>2021-02-27T12:52:17Z</time>
      </trkpt>
      <trkpt lat="45.22758" lon="6.15136">
        <ele>1721.2</ele>
        <time>2021-02-27T12:52:18Z</time>
      </trkpt>
      <trkpt lat="45.22758" lon="6.15136">
        <ele>1721.4</ele>
        <time>2021-02-27T12:52:19Z</time>
      </trkpt>
      <trkpt lat="45.22758" lon="6.15136">
        <ele>1721.6</ele>
        <time>2021-02-27T12:52:20Z</time>
      </trkpt>
      <trkpt lat="45.22758" lon="6.15136">
        <ele>1721.4</ele>
        <time>2021-02-27T12:52:21Z</time>
      </trkpt>
      <trkpt lat="45.22758" lon="6.15136">
        <ele>1721.2</ele>
        <time>2021-02-27T12:52:22Z</time>
      </trkpt>
      <trkpt lat="45.22758" lon="6.15136">
        <ele>1721</ele>
        <time>2021-02-27T12:52:23Z</time>
      </trkpt>
      <trkpt lat="45.22758" lon="6.15136">
        <ele>1721</ele>
        <time>2021-02-27T12:52:24Z</time>
      </trkpt>
      <trkpt lat="45.22758" lon="6.15136">
        <ele>1721</ele>
        <time>2021-02-27T12:52:25Z</time>
      </trkpt>
      <trkpt lat="45.22758" lon="6.15136">
        <ele>1720.8</ele>
        <time>2021-02-27T12:52:26Z</time>
      </trkpt>
      <trkpt lat="45.22758" lon="6.15136">
        <ele>1721</ele>
        <time>2021-02-27T12:52:27Z</time>
      </trkpt>
      <trkpt lat="45.22758" lon="6.15136">
        <ele>1721.2</ele>
        <time>2021-02-27T12:52:28Z</time>
      </trkpt>
      <trkpt lat="45.22758" lon="6.15136">
        <ele>1721.2</ele>
        <time>2021-02-27T12:52:29Z</time>
      </trkpt>
      <trkpt lat="45.22758" lon="6.15136">
        <ele>1721.4</ele>
        <time>2021-02-27T12:52:30Z</time>
      </trkpt>
      <trkpt lat="45.22758" lon="6.15136">
        <ele>1721.2</ele>
        <time>2021-02-27T12:52:31Z</time>
      </trkpt>
      <trkpt lat="45.22758" lon="6.15136">
        <ele>1721.2</ele>
        <time>2021-02-27T12:52:32Z</time>
      </trkpt>
      <trkpt lat="45.22758" lon="6.15136">
        <ele>1721.6</ele>
        <time>2021-02-27T12:52:33Z</time>
      </trkpt>
      <trkpt lat="45.22758" lon="6.15136">
        <ele>1721.6</ele>
        <time>2021-02-27T12:52:34Z</time>
      </trkpt>
      <trkpt lat="45.22758" lon="6.15136">
        <ele>1721.8</ele>
        <time>2021-02-27T12:52:35Z</time>
      </trkpt>
      <trkpt lat="45.22758" lon="6.15136">
        <ele>1721.8</ele>
        <time>2021-02-27T12:52:36Z</time>
      </trkpt>
      <trkpt lat="45.22758" lon="6.15136">
        <ele>1722.2</ele>
        <time>2021-02-27T12:52:37Z</time>
      </trkpt>
      <trkpt lat="45.22758" lon="6.15136">
        <ele>1722.2</ele>
        <time>2021-02-27T12:52:38Z</time>
      </trkpt>
      <trkpt lat="45.22758" lon="6.15136">
        <ele>1722.4</ele>
        <time>2021-02-27T12:52:39Z</time>
      </trkpt>
      <trkpt lat="45.22758" lon="6.15136">
        <ele>1722.6</ele>
        <time>2021-02-27T12:52:40Z</time>
      </trkpt>
      <trkpt lat="45.22758" lon="6.15136">
        <ele>1722</ele>
        <time>2021-02-27T12:52:41Z</time>
      </trkpt>
      <trkpt lat="45.22758" lon="6.15136">
        <ele>1722.2</ele>
        <time>2021-02-27T12:52:42Z</time>
      </trkpt>
      <trkpt lat="45.22758" lon="6.15136">
        <ele>1722.4</ele>
        <time>2021-02-27T12:52:43Z</time>
      </trkpt>
      <trkpt lat="45.22758" lon="6.15136">
        <ele>1722</ele>
        <time>2021-02-27T12:52:44Z</time>
      </trkpt>
      <trkpt lat="45.22758" lon="6.15136">
        <ele>1722.8</ele>
        <time>2021-02-27T12:52:45Z</time>
      </trkpt>
      <trkpt lat="45.22758" lon="6.15136">
        <ele>1723.4</ele>
        <time>2021-02-27T12:52:46Z</time>
      </trkpt>
      <trkpt lat="45.22758" lon="6.15136">
        <ele>1724</ele>
        <time>2021-02-27T12:52:47Z</time>
      </trkpt>
      <trkpt lat="45.22758" lon="6.15136">
        <ele>1724</ele>
        <time>2021-02-27T12:52:48Z</time>
      </trkpt>
      <trkpt lat="45.22758" lon="6.15136">
        <ele>1724.2</ele>
        <time>2021-02-27T12:52:49Z</time>
      </trkpt>
      <trkpt lat="45.22758" lon="6.15136">
        <ele>1724.2</ele>
        <time>2021-02-27T12:52:50Z</time>
      </trkpt>
      <trkpt lat="45.22758" lon="6.15136">
        <ele>1724.4</ele>
        <time>2021-02-27T12:52:51Z</time>
      </trkpt>
      <trkpt lat="45.22758" lon="6.15136">
        <ele>1724.4</ele>
        <time>2021-02-27T12:52:52Z</time>
      </trkpt>
      <trkpt lat="45.22758" lon="6.15136">
        <ele>1724.4</ele>
        <time>2021-02-27T12:52:53Z</time>
      </trkpt>
      <trkpt lat="45.22758" lon="6.15136">
        <ele>1724.4</ele>
        <time>2021-02-27T12:52:54Z</time>
      </trkpt>
      <trkpt lat="45.22758" lon="6.15136">
        <ele>1724</ele>
        <time>2021-02-27T12:52:55Z</time>
      </trkpt>
      <trkpt lat="45.22758" lon="6.15136">
        <ele>1723.8</ele>
        <time>2021-02-27T12:52:56Z</time>
      </trkpt>
      <trkpt lat="45.22758" lon="6.15136">
        <ele>1723.6</ele>
        <time>2021-02-27T12:52:57Z</time>
      </trkpt>
      <trkpt lat="45.22758" lon="6.15136">
        <ele>1723.6</ele>
        <time>2021-02-27T12:52:58Z</time>
      </trkpt>
      <trkpt lat="45.22758" lon="6.15136">
        <ele>1723.6</ele>
        <time>2021-02-27T12:52:59Z</time>
      </trkpt>
      <trkpt lat="45.22758" lon="6.15136">
        <ele>1723.2</ele>
        <time>2021-02-27T12:53:00Z</time>
      </trkpt>
      <trkpt lat="45.22758" lon="6.15136">
        <ele>1723</ele>
        <time>2021-02-27T12:53:01Z</time>
      </trkpt>
      <trkpt lat="45.22758" lon="6.15136">
        <ele>1722.8</ele>
        <time>2021-02-27T12:53:02Z</time>
      </trkpt>
      <trkpt lat="45.22758" lon="6.15136">
        <ele>1722.8</ele>
        <time>2021-02-27T12:53:03Z</time>
      </trkpt>
      <trkpt lat="45.22758" lon="6.15136">
        <ele>1723</ele>
        <time>2021-02-27T12:53:04Z</time>
      </trkpt>
      <trkpt lat="45.22758" lon="6.15136">
        <ele>1722.8</ele>
        <time>2021-02-27T12:53:05Z</time>
      </trkpt>
      <trkpt lat="45.22758" lon="6.15136">
        <ele>1722.8</ele>
        <time>2021-02-27T12:53:06Z</time>
      </trkpt>
      <trkpt lat="45.22758" lon="6.15136">
        <ele>1722.6</ele>
        <time>2021-02-27T12:53:07Z</time>
      </trkpt>
      <trkpt lat="45.22758" lon="6.15136">
        <ele>1722.6</ele>
        <time>2021-02-27T12:53:08Z</time>
      </trkpt>
      <trkpt lat="45.22758" lon="6.15136">
        <ele>1722.6</ele>
        <time>2021-02-27T12:53:09Z</time>
      </trkpt>
      <trkpt lat="45.22758" lon="6.15136">
        <ele>1722.4</ele>
        <time>2021-02-27T12:53:10Z</time>
      </trkpt>
      <trkpt lat="45.22758" lon="6.15136">
        <ele>1722.4</ele>
        <time>2021-02-27T12:53:11Z</time>
      </trkpt>
      <trkpt lat="45.22758" lon="6.15136">
        <ele>1722.4</ele>
        <time>2021-02-27T12:53:12Z</time>
      </trkpt>
      <trkpt lat="45.22758" lon="6.15136">
        <ele>1722.6</ele>
        <time>2021-02-27T12:53:13Z</time>
      </trkpt>
      <trkpt lat="45.22758" lon="6.15136">
        <ele>1722.6</ele>
        <time>2021-02-27T12:53:14Z</time>
      </trkpt>
      <trkpt lat="45.22758" lon="6.15136">
        <ele>1723</ele>
        <time>2021-02-27T12:53:15Z</time>
      </trkpt>
      <trkpt lat="45.22758" lon="6.15136">
        <ele>1722.6</ele>
        <time>2021-02-27T12:53:16Z</time>
      </trkpt>
      <trkpt lat="45.22758" lon="6.15136">
        <ele>1722.2</ele>
        <time>2021-02-27T12:53:17Z</time>
      </trkpt>
      <trkpt lat="45.22758" lon="6.15136">
        <ele>1721.8</ele>
        <time>2021-02-27T12:53:18Z</time>
      </trkpt>
      <trkpt lat="45.22758" lon="6.15136">
        <ele>1721.6</ele>
        <time>2021-02-27T12:53:19Z</time>
      </trkpt>
      <trkpt lat="45.22756" lon="6.15134">
        <ele>1721.8</ele>
        <time>2021-02-27T12:53:20Z</time>
      </trkpt>
      <trkpt lat="45.22756" lon="6.15134">
        <ele>1722</ele>
        <time>2021-02-27T12:53:21Z</time>
      </trkpt>
      <trkpt lat="45.22756" lon="6.15134">
        <ele>1722.2</ele>
        <time>2021-02-27T12:53:22Z</time>
      </trkpt>
      <trkpt lat="45.22756" lon="6.15134">
        <ele>1722.6</ele>
        <time>2021-02-27T12:53:23Z</time>
      </trkpt>
      <trkpt lat="45.22756" lon="6.15134">
        <ele>1722.6</ele>
        <time>2021-02-27T12:53:24Z</time>
      </trkpt>
      <trkpt lat="45.22758" lon="6.15135">
        <ele>1722.8</ele>
        <time>2021-02-27T12:53:25Z</time>
      </trkpt>
      <trkpt lat="45.22758" lon="6.15135">
        <ele>1723</ele>
        <time>2021-02-27T12:53:26Z</time>
      </trkpt>
      <trkpt lat="45.2276" lon="6.15137">
        <ele>1722.8</ele>
        <time>2021-02-27T12:53:27Z</time>
      </trkpt>
      <trkpt lat="45.2276" lon="6.15137">
        <ele>1722.8</ele>
        <time>2021-02-27T12:53:28Z</time>
      </trkpt>
      <trkpt lat="45.22762" lon="6.15138">
        <ele>1723.2</ele>
        <time>2021-02-27T12:53:29Z</time>
      </trkpt>
      <trkpt lat="45.22762" lon="6.15138">
        <ele>1723.2</ele>
        <time>2021-02-27T12:53:30Z</time>
      </trkpt>
      <trkpt lat="45.22762" lon="6.15138">
        <ele>1723.2</ele>
        <time>2021-02-27T12:53:31Z</time>
      </trkpt>
      <trkpt lat="45.22764" lon="6.1514">
        <ele>1723.4</ele>
        <time>2021-02-27T12:53:32Z</time>
      </trkpt>
      <trkpt lat="45.22764" lon="6.1514">
        <ele>1723</ele>
        <time>2021-02-27T12:53:33Z</time>
      </trkpt>
      <trkpt lat="45.22764" lon="6.1514">
        <ele>1723</ele>
        <time>2021-02-27T12:53:34Z</time>
      </trkpt>
      <trkpt lat="45.22766" lon="6.15142">
        <ele>1722.8</ele>
        <time>2021-02-27T12:53:35Z</time>
      </trkpt>
      <trkpt lat="45.22766" lon="6.15142">
        <ele>1723</ele>
        <time>2021-02-27T12:53:36Z</time>
      </trkpt>
      <trkpt lat="45.22766" lon="6.15142">
        <ele>1723</ele>
        <time>2021-02-27T12:53:37Z</time>
      </trkpt>
      <trkpt lat="45.22767" lon="6.15143">
        <ele>1723</ele>
        <time>2021-02-27T12:53:38Z</time>
      </trkpt>
      <trkpt lat="45.22767" lon="6.15143">
        <ele>1722.8</ele>
        <time>2021-02-27T12:53:39Z</time>
      </trkpt>
      <trkpt lat="45.22769" lon="6.15145">
        <ele>1723</ele>
        <time>2021-02-27T12:53:40Z</time>
      </trkpt>
      <trkpt lat="45.22769" lon="6.15145">
        <ele>1723.2</ele>
        <time>2021-02-27T12:53:41Z</time>
      </trkpt>
      <trkpt lat="45.2277" lon="6.15147">
        <ele>1723</ele>
        <time>2021-02-27T12:53:42Z</time>
      </trkpt>
      <trkpt lat="45.2277" lon="6.15147">
        <ele>1722.6</ele>
        <time>2021-02-27T12:53:43Z</time>
      </trkpt>
      <trkpt lat="45.22771" lon="6.15149">
        <ele>1722.6</ele>
        <time>2021-02-27T12:53:44Z</time>
      </trkpt>
      <trkpt lat="45.22771" lon="6.15149">
        <ele>1722.2</ele>
        <time>2021-02-27T12:53:45Z</time>
      </trkpt>
      <trkpt lat="45.22771" lon="6.15149">
        <ele>1722.2</ele>
        <time>2021-02-27T12:53:46Z</time>
      </trkpt>
      <trkpt lat="45.22774" lon="6.15152">
        <ele>1722.2</ele>
        <time>2021-02-27T12:53:47Z</time>
      </trkpt>
      <trkpt lat="45.22774" lon="6.15152">
        <ele>1722.2</ele>
        <time>2021-02-27T12:53:48Z</time>
      </trkpt>
      <trkpt lat="45.22775" lon="6.15154">
        <ele>1722.2</ele>
        <time>2021-02-27T12:53:49Z</time>
      </trkpt>
      <trkpt lat="45.22775" lon="6.15154">
        <ele>1722.2</ele>
        <time>2021-02-27T12:53:50Z</time>
      </trkpt>
      <trkpt lat="45.22775" lon="6.15154">
        <ele>1722</ele>
        <time>2021-02-27T12:53:51Z</time>
      </trkpt>
      <trkpt lat="45.22775" lon="6.15154">
        <ele>1722</ele>
        <time>2021-02-27T12:53:52Z</time>
      </trkpt>
      <trkpt lat="45.22775" lon="6.15154">
        <ele>1721.8</ele>
        <time>2021-02-27T12:53:53Z</time>
      </trkpt>
      <trkpt lat="45.22775" lon="6.15154">
        <ele>1722.2</ele>
        <time>2021-02-27T12:53:54Z</time>
      </trkpt>
      <trkpt lat="45.22775" lon="6.15154">
        <ele>1722.4</ele>
        <time>2021-02-27T12:53:55Z</time>
      </trkpt>
      <trkpt lat="45.22775" lon="6.15154">
        <ele>1722.2</ele>
        <time>2021-02-27T12:53:56Z</time>
      </trkpt>
      <trkpt lat="45.22775" lon="6.15154">
        <ele>1722</ele>
        <time>2021-02-27T12:53:57Z</time>
      </trkpt>
      <trkpt lat="45.22775" lon="6.15154">
        <ele>1721.6</ele>
        <time>2021-02-27T12:53:58Z</time>
      </trkpt>
      <trkpt lat="45.22775" lon="6.15154">
        <ele>1721.6</ele>
        <time>2021-02-27T12:53:59Z</time>
      </trkpt>
      <trkpt lat="45.22777" lon="6.15157">
        <ele>1721.6</ele>
        <time>2021-02-27T12:54:00Z</time>
      </trkpt>
      <trkpt lat="45.22777" lon="6.15157">
        <ele>1721.6</ele>
        <time>2021-02-27T12:54:01Z</time>
      </trkpt>
      <trkpt lat="45.22778" lon="6.15158">
        <ele>1721.6</ele>
        <time>2021-02-27T12:54:02Z</time>
      </trkpt>
      <trkpt lat="45.22778" lon="6.15158">
        <ele>1721.8</ele>
        <time>2021-02-27T12:54:03Z</time>
      </trkpt>
      <trkpt lat="45.2278" lon="6.1516">
        <ele>1721.6</ele>
        <time>2021-02-27T12:54:04Z</time>
      </trkpt>
      <trkpt lat="45.2278" lon="6.1516">
        <ele>1721.4</ele>
        <time>2021-02-27T12:54:05Z</time>
      </trkpt>
      <trkpt lat="45.2278" lon="6.1516">
        <ele>1721.4</ele>
        <time>2021-02-27T12:54:06Z</time>
      </trkpt>
      <trkpt lat="45.22782" lon="6.15162">
        <ele>1721.4</ele>
        <time>2021-02-27T12:54:07Z</time>
      </trkpt>
      <trkpt lat="45.22782" lon="6.15162">
        <ele>1721.4</ele>
        <time>2021-02-27T12:54:08Z</time>
      </trkpt>
      <trkpt lat="45.22782" lon="6.15162">
        <ele>1721.6</ele>
        <time>2021-02-27T12:54:09Z</time>
      </trkpt>
      <trkpt lat="45.22783" lon="6.15165">
        <ele>1721.8</ele>
        <time>2021-02-27T12:54:10Z</time>
      </trkpt>
      <trkpt lat="45.22783" lon="6.15165">
        <ele>1721.8</ele>
        <time>2021-02-27T12:54:11Z</time>
      </trkpt>
      <trkpt lat="45.22785" lon="6.15167">
        <ele>1721.8</ele>
        <time>2021-02-27T12:54:12Z</time>
      </trkpt>
      <trkpt lat="45.22785" lon="6.15167">
        <ele>1721.4</ele>
        <time>2021-02-27T12:54:13Z</time>
      </trkpt>
      <trkpt lat="45.22787" lon="6.15169">
        <ele>1721.2</ele>
        <time>2021-02-27T12:54:14Z</time>
      </trkpt>
      <trkpt lat="45.22787" lon="6.15169">
        <ele>1721.4</ele>
        <time>2021-02-27T12:54:15Z</time>
      </trkpt>
      <trkpt lat="45.22788" lon="6.15171">
        <ele>1721.8</ele>
        <time>2021-02-27T12:54:16Z</time>
      </trkpt>
      <trkpt lat="45.22788" lon="6.15171">
        <ele>1721.6</ele>
        <time>2021-02-27T12:54:17Z</time>
      </trkpt>
      <trkpt lat="45.22789" lon="6.15173">
        <ele>1721.8</ele>
        <time>2021-02-27T12:54:18Z</time>
      </trkpt>
      <trkpt lat="45.22789" lon="6.15173">
        <ele>1721.6</ele>
        <time>2021-02-27T12:54:19Z</time>
      </trkpt>
      <trkpt lat="45.22791" lon="6.15176">
        <ele>1721.8</ele>
        <time>2021-02-27T12:54:20Z</time>
      </trkpt>
      <trkpt lat="45.22791" lon="6.15176">
        <ele>1721.8</ele>
        <time>2021-02-27T12:54:21Z</time>
      </trkpt>
      <trkpt lat="45.22792" lon="6.15178">
        <ele>1721.6</ele>
        <time>2021-02-27T12:54:22Z</time>
      </trkpt>
      <trkpt lat="45.22792" lon="6.15178">
        <ele>1721.8</ele>
        <time>2021-02-27T12:54:23Z</time>
      </trkpt>
      <trkpt lat="45.22794" lon="6.1518">
        <ele>1722</ele>
        <time>2021-02-27T12:54:24Z</time>
      </trkpt>
      <trkpt lat="45.22794" lon="6.1518">
        <ele>1721.8</ele>
        <time>2021-02-27T12:54:25Z</time>
      </trkpt>
      <trkpt lat="45.22795" lon="6.15183">
        <ele>1721.8</ele>
        <time>2021-02-27T12:54:26Z</time>
      </trkpt>
      <trkpt lat="45.22795" lon="6.15183">
        <ele>1722</ele>
        <time>2021-02-27T12:54:27Z</time>
      </trkpt>
      <trkpt lat="45.22795" lon="6.15183">
        <ele>1722</ele>
        <time>2021-02-27T12:54:28Z</time>
      </trkpt>
      <trkpt lat="45.22796" lon="6.15187">
        <ele>1722</ele>
        <time>2021-02-27T12:54:29Z</time>
      </trkpt>
      <trkpt lat="45.22796" lon="6.15187">
        <ele>1722.2</ele>
        <time>2021-02-27T12:54:30Z</time>
      </trkpt>
      <trkpt lat="45.22796" lon="6.15187">
        <ele>1722.4</ele>
        <time>2021-02-27T12:54:31Z</time>
      </trkpt>
      <trkpt lat="45.22797" lon="6.15191">
        <ele>1722</ele>
        <time>2021-02-27T12:54:32Z</time>
      </trkpt>
      <trkpt lat="45.22797" lon="6.15191">
        <ele>1722.2</ele>
        <time>2021-02-27T12:54:33Z</time>
      </trkpt>
      <trkpt lat="45.22798" lon="6.15193">
        <ele>1721.6</ele>
        <time>2021-02-27T12:54:34Z</time>
      </trkpt>
      <trkpt lat="45.22798" lon="6.15193">
        <ele>1721.8</ele>
        <time>2021-02-27T12:54:35Z</time>
      </trkpt>
      <trkpt lat="45.22798" lon="6.15196">
        <ele>1722</ele>
        <time>2021-02-27T12:54:36Z</time>
      </trkpt>
      <trkpt lat="45.22798" lon="6.15196">
        <ele>1722.2</ele>
        <time>2021-02-27T12:54:37Z</time>
      </trkpt>
      <trkpt lat="45.22798" lon="6.152">
        <ele>1722.2</ele>
        <time>2021-02-27T12:54:38Z</time>
      </trkpt>
      <trkpt lat="45.22798" lon="6.152">
        <ele>1722.6</ele>
        <time>2021-02-27T12:54:39Z</time>
      </trkpt>
      <trkpt lat="45.22798" lon="6.15203">
        <ele>1722.8</ele>
        <time>2021-02-27T12:54:40Z</time>
      </trkpt>
      <trkpt lat="45.22798" lon="6.15203">
        <ele>1722.8</ele>
        <time>2021-02-27T12:54:41Z</time>
      </trkpt>
      <trkpt lat="45.22799" lon="6.15207">
        <ele>1722.8</ele>
        <time>2021-02-27T12:54:42Z</time>
      </trkpt>
      <trkpt lat="45.22799" lon="6.15207">
        <ele>1722.6</ele>
        <time>2021-02-27T12:54:43Z</time>
      </trkpt>
      <trkpt lat="45.22799" lon="6.15211">
        <ele>1722.4</ele>
        <time>2021-02-27T12:54:44Z</time>
      </trkpt>
      <trkpt lat="45.22799" lon="6.15211">
        <ele>1722.4</ele>
        <time>2021-02-27T12:54:45Z</time>
      </trkpt>
      <trkpt lat="45.228" lon="6.15214">
        <ele>1722.4</ele>
        <time>2021-02-27T12:54:46Z</time>
      </trkpt>
      <trkpt lat="45.228" lon="6.15214">
        <ele>1722.2</ele>
        <time>2021-02-27T12:54:47Z</time>
      </trkpt>
      <trkpt lat="45.228" lon="6.15218">
        <ele>1721.8</ele>
        <time>2021-02-27T12:54:48Z</time>
      </trkpt>
      <trkpt lat="45.228" lon="6.15218">
        <ele>1721.8</ele>
        <time>2021-02-27T12:54:49Z</time>
      </trkpt>
      <trkpt lat="45.228" lon="6.15221">
        <ele>1721.6</ele>
        <time>2021-02-27T12:54:50Z</time>
      </trkpt>
      <trkpt lat="45.228" lon="6.15221">
        <ele>1721.6</ele>
        <time>2021-02-27T12:54:51Z</time>
      </trkpt>
      <trkpt lat="45.228" lon="6.15224">
        <ele>1721.8</ele>
        <time>2021-02-27T12:54:52Z</time>
      </trkpt>
      <trkpt lat="45.228" lon="6.15224">
        <ele>1722.2</ele>
        <time>2021-02-27T12:54:53Z</time>
      </trkpt>
      <trkpt lat="45.228" lon="6.15227">
        <ele>1722.2</ele>
        <time>2021-02-27T12:54:54Z</time>
      </trkpt>
      <trkpt lat="45.228" lon="6.15227">
        <ele>1722.4</ele>
        <time>2021-02-27T12:54:55Z</time>
      </trkpt>
      <trkpt lat="45.228" lon="6.1523">
        <ele>1722.6</ele>
        <time>2021-02-27T12:54:56Z</time>
      </trkpt>
      <trkpt lat="45.228" lon="6.1523">
        <ele>1722.4</ele>
        <time>2021-02-27T12:54:57Z</time>
      </trkpt>
      <trkpt lat="45.228" lon="6.15234">
        <ele>1722.2</ele>
        <time>2021-02-27T12:54:58Z</time>
      </trkpt>
      <trkpt lat="45.228" lon="6.15234">
        <ele>1722.2</ele>
        <time>2021-02-27T12:54:59Z</time>
      </trkpt>
      <trkpt lat="45.228" lon="6.15237">
        <ele>1722</ele>
        <time>2021-02-27T12:55:00Z</time>
      </trkpt>
      <trkpt lat="45.228" lon="6.15237">
        <ele>1722</ele>
        <time>2021-02-27T12:55:01Z</time>
      </trkpt>
      <trkpt lat="45.228" lon="6.15242">
        <ele>1721.8</ele>
        <time>2021-02-27T12:55:02Z</time>
      </trkpt>
      <trkpt lat="45.228" lon="6.15242">
        <ele>1721.8</ele>
        <time>2021-02-27T12:55:03Z</time>
      </trkpt>
      <trkpt lat="45.228" lon="6.15245">
        <ele>1721.8</ele>
        <time>2021-02-27T12:55:04Z</time>
      </trkpt>
      <trkpt lat="45.228" lon="6.15245">
        <ele>1721.8</ele>
        <time>2021-02-27T12:55:05Z</time>
      </trkpt>
      <trkpt lat="45.22801" lon="6.15249">
        <ele>1721.6</ele>
        <time>2021-02-27T12:55:06Z</time>
      </trkpt>
      <trkpt lat="45.22801" lon="6.15249">
        <ele>1721.8</ele>
        <time>2021-02-27T12:55:07Z</time>
      </trkpt>
      <trkpt lat="45.22801" lon="6.15252">
        <ele>1721.8</ele>
        <time>2021-02-27T12:55:08Z</time>
      </trkpt>
      <trkpt lat="45.22801" lon="6.15252">
        <ele>1722</ele>
        <time>2021-02-27T12:55:09Z</time>
      </trkpt>
      <trkpt lat="45.22802" lon="6.15255">
        <ele>1721.4</ele>
        <time>2021-02-27T12:55:10Z</time>
      </trkpt>
      <trkpt lat="45.22802" lon="6.15255">
        <ele>1722.2</ele>
        <time>2021-02-27T12:55:11Z</time>
      </trkpt>
      <trkpt lat="45.22803" lon="6.15258">
        <ele>1722.4</ele>
        <time>2021-02-27T12:55:12Z</time>
      </trkpt>
      <trkpt lat="45.22803" lon="6.15258">
        <ele>1722.8</ele>
        <time>2021-02-27T12:55:13Z</time>
      </trkpt>
      <trkpt lat="45.22804" lon="6.15261">
        <ele>1723.2</ele>
        <time>2021-02-27T12:55:14Z</time>
      </trkpt>
      <trkpt lat="45.22804" lon="6.15261">
        <ele>1723.2</ele>
        <time>2021-02-27T12:55:15Z</time>
      </trkpt>
      <trkpt lat="45.22806" lon="6.15263">
        <ele>1723.4</ele>
        <time>2021-02-27T12:55:16Z</time>
      </trkpt>
      <trkpt lat="45.22806" lon="6.15263">
        <ele>1723.2</ele>
        <time>2021-02-27T12:55:17Z</time>
      </trkpt>
      <trkpt lat="45.22807" lon="6.15265">
        <ele>1723</ele>
        <time>2021-02-27T12:55:18Z</time>
      </trkpt>
      <trkpt lat="45.22807" lon="6.15265">
        <ele>1723.2</ele>
        <time>2021-02-27T12:55:19Z</time>
      </trkpt>
      <trkpt lat="45.22807" lon="6.15265">
        <ele>1723.2</ele>
        <time>2021-02-27T12:55:20Z</time>
      </trkpt>
      <trkpt lat="45.22809" lon="6.15269">
        <ele>1723.2</ele>
        <time>2021-02-27T12:55:21Z</time>
      </trkpt>
      <trkpt lat="45.22809" lon="6.15269">
        <ele>1723.4</ele>
        <time>2021-02-27T12:55:22Z</time>
      </trkpt>
      <trkpt lat="45.2281" lon="6.15271">
        <ele>1723.2</ele>
        <time>2021-02-27T12:55:23Z</time>
      </trkpt>
      <trkpt lat="45.2281" lon="6.15271">
        <ele>1723.2</ele>
        <time>2021-02-27T12:55:24Z</time>
      </trkpt>
      <trkpt lat="45.22811" lon="6.15274">
        <ele>1723.6</ele>
        <time>2021-02-27T12:55:25Z</time>
      </trkpt>
      <trkpt lat="45.22811" lon="6.15274">
        <ele>1724</ele>
        <time>2021-02-27T12:55:26Z</time>
      </trkpt>
      <trkpt lat="45.22812" lon="6.15276">
        <ele>1724.2</ele>
        <time>2021-02-27T12:55:27Z</time>
      </trkpt>
      <trkpt lat="45.22812" lon="6.15276">
        <ele>1723.8</ele>
        <time>2021-02-27T12:55:28Z</time>
      </trkpt>
      <trkpt lat="45.22813" lon="6.1528">
        <ele>1724.4</ele>
        <time>2021-02-27T12:55:29Z</time>
      </trkpt>
      <trkpt lat="45.22813" lon="6.1528">
        <ele>1724.6</ele>
        <time>2021-02-27T12:55:30Z</time>
      </trkpt>
      <trkpt lat="45.22813" lon="6.15283">
        <ele>1724.6</ele>
        <time>2021-02-27T12:55:31Z</time>
      </trkpt>
      <trkpt lat="45.22813" lon="6.15283">
        <ele>1724.8</ele>
        <time>2021-02-27T12:55:32Z</time>
      </trkpt>
      <trkpt lat="45.22814" lon="6.15287">
        <ele>1724.4</ele>
        <time>2021-02-27T12:55:33Z</time>
      </trkpt>
      <trkpt lat="45.22814" lon="6.15287">
        <ele>1724.4</ele>
        <time>2021-02-27T12:55:34Z</time>
      </trkpt>
      <trkpt lat="45.22816" lon="6.15289">
        <ele>1724.4</ele>
        <time>2021-02-27T12:55:35Z</time>
      </trkpt>
      <trkpt lat="45.22816" lon="6.15289">
        <ele>1724.4</ele>
        <time>2021-02-27T12:55:36Z</time>
      </trkpt>
      <trkpt lat="45.22817" lon="6.15292">
        <ele>1724.6</ele>
        <time>2021-02-27T12:55:37Z</time>
      </trkpt>
      <trkpt lat="45.22817" lon="6.15292">
        <ele>1724.6</ele>
        <time>2021-02-27T12:55:38Z</time>
      </trkpt>
      <trkpt lat="45.22818" lon="6.15294">
        <ele>1724.6</ele>
        <time>2021-02-27T12:55:39Z</time>
      </trkpt>
      <trkpt lat="45.22818" lon="6.15294">
        <ele>1724.4</ele>
        <time>2021-02-27T12:55:40Z</time>
      </trkpt>
      <trkpt lat="45.22819" lon="6.15297">
        <ele>1724.8</ele>
        <time>2021-02-27T12:55:41Z</time>
      </trkpt>
      <trkpt lat="45.22819" lon="6.15297">
        <ele>1724.6</ele>
        <time>2021-02-27T12:55:42Z</time>
      </trkpt>
      <trkpt lat="45.22821" lon="6.15299">
        <ele>1724.6</ele>
        <time>2021-02-27T12:55:43Z</time>
      </trkpt>
      <trkpt lat="45.22821" lon="6.15299">
        <ele>1724.6</ele>
        <time>2021-02-27T12:55:44Z</time>
      </trkpt>
      <trkpt lat="45.22822" lon="6.15302">
        <ele>1724.4</ele>
        <time>2021-02-27T12:55:45Z</time>
      </trkpt>
      <trkpt lat="45.22822" lon="6.15302">
        <ele>1724.8</ele>
        <time>2021-02-27T12:55:46Z</time>
      </trkpt>
      <trkpt lat="45.22824" lon="6.15305">
        <ele>1725</ele>
        <time>2021-02-27T12:55:47Z</time>
      </trkpt>
      <trkpt lat="45.22824" lon="6.15305">
        <ele>1725.2</ele>
        <time>2021-02-27T12:55:48Z</time>
      </trkpt>
      <trkpt lat="45.22825" lon="6.15307">
        <ele>1725.2</ele>
        <time>2021-02-27T12:55:49Z</time>
      </trkpt>
      <trkpt lat="45.22825" lon="6.15307">
        <ele>1725.4</ele>
        <time>2021-02-27T12:55:50Z</time>
      </trkpt>
      <trkpt lat="45.22826" lon="6.1531">
        <ele>1725.4</ele>
        <time>2021-02-27T12:55:51Z</time>
      </trkpt>
      <trkpt lat="45.22826" lon="6.1531">
        <ele>1725.4</ele>
        <time>2021-02-27T12:55:52Z</time>
      </trkpt>
      <trkpt lat="45.22826" lon="6.15313">
        <ele>1725.8</ele>
        <time>2021-02-27T12:55:53Z</time>
      </trkpt>
      <trkpt lat="45.22826" lon="6.15313">
        <ele>1725.8</ele>
        <time>2021-02-27T12:55:54Z</time>
      </trkpt>
      <trkpt lat="45.22827" lon="6.15316">
        <ele>1726.2</ele>
        <time>2021-02-27T12:55:55Z</time>
      </trkpt>
      <trkpt lat="45.22827" lon="6.15316">
        <ele>1726.2</ele>
        <time>2021-02-27T12:55:56Z</time>
      </trkpt>
      <trkpt lat="45.22829" lon="6.15319">
        <ele>1726.2</ele>
        <time>2021-02-27T12:55:57Z</time>
      </trkpt>
      <trkpt lat="45.22829" lon="6.15319">
        <ele>1726.6</ele>
        <time>2021-02-27T12:55:58Z</time>
      </trkpt>
      <trkpt lat="45.2283" lon="6.15322">
        <ele>1726.8</ele>
        <time>2021-02-27T12:55:59Z</time>
      </trkpt>
      <trkpt lat="45.2283" lon="6.15322">
        <ele>1726.8</ele>
        <time>2021-02-27T12:56:00Z</time>
      </trkpt>
      <trkpt lat="45.22831" lon="6.15325">
        <ele>1726.6</ele>
        <time>2021-02-27T12:56:01Z</time>
      </trkpt>
      <trkpt lat="45.22831" lon="6.15325">
        <ele>1727</ele>
        <time>2021-02-27T12:56:02Z</time>
      </trkpt>
      <trkpt lat="45.22832" lon="6.15328">
        <ele>1727</ele>
        <time>2021-02-27T12:56:03Z</time>
      </trkpt>
      <trkpt lat="45.22832" lon="6.15328">
        <ele>1727</ele>
        <time>2021-02-27T12:56:04Z</time>
      </trkpt>
      <trkpt lat="45.22834" lon="6.15331">
        <ele>1727.2</ele>
        <time>2021-02-27T12:56:05Z</time>
      </trkpt>
      <trkpt lat="45.22834" lon="6.15331">
        <ele>1727</ele>
        <time>2021-02-27T12:56:06Z</time>
      </trkpt>
      <trkpt lat="45.22835" lon="6.15333">
        <ele>1727.2</ele>
        <time>2021-02-27T12:56:07Z</time>
      </trkpt>
      <trkpt lat="45.22835" lon="6.15333">
        <ele>1727.4</ele>
        <time>2021-02-27T12:56:08Z</time>
      </trkpt>
      <trkpt lat="45.22836" lon="6.15336">
        <ele>1727.4</ele>
        <time>2021-02-27T12:56:09Z</time>
      </trkpt>
      <trkpt lat="45.22836" lon="6.15336">
        <ele>1727.4</ele>
        <time>2021-02-27T12:56:10Z</time>
      </trkpt>
      <trkpt lat="45.22837" lon="6.15339">
        <ele>1727.2</ele>
        <time>2021-02-27T12:56:11Z</time>
      </trkpt>
      <trkpt lat="45.22837" lon="6.15339">
        <ele>1727.4</ele>
        <time>2021-02-27T12:56:12Z</time>
      </trkpt>
      <trkpt lat="45.22838" lon="6.15343">
        <ele>1727.6</ele>
        <time>2021-02-27T12:56:13Z</time>
      </trkpt>
      <trkpt lat="45.22838" lon="6.15343">
        <ele>1728.2</ele>
        <time>2021-02-27T12:56:14Z</time>
      </trkpt>
      <trkpt lat="45.22839" lon="6.15346">
        <ele>1727.8</ele>
        <time>2021-02-27T12:56:15Z</time>
      </trkpt>
      <trkpt lat="45.22839" lon="6.15346">
        <ele>1727.8</ele>
        <time>2021-02-27T12:56:16Z</time>
      </trkpt>
      <trkpt lat="45.2284" lon="6.15349">
        <ele>1727.6</ele>
        <time>2021-02-27T12:56:17Z</time>
      </trkpt>
      <trkpt lat="45.2284" lon="6.15349">
        <ele>1727.8</ele>
        <time>2021-02-27T12:56:18Z</time>
      </trkpt>
      <trkpt lat="45.22841" lon="6.15351">
        <ele>1727.8</ele>
        <time>2021-02-27T12:56:19Z</time>
      </trkpt>
      <trkpt lat="45.22841" lon="6.15351">
        <ele>1728</ele>
        <time>2021-02-27T12:56:20Z</time>
      </trkpt>
      <trkpt lat="45.22842" lon="6.15354">
        <ele>1728.2</ele>
        <time>2021-02-27T12:56:21Z</time>
      </trkpt>
      <trkpt lat="45.22842" lon="6.15354">
        <ele>1728.4</ele>
        <time>2021-02-27T12:56:22Z</time>
      </trkpt>
      <trkpt lat="45.22843" lon="6.15357">
        <ele>1728.8</ele>
        <time>2021-02-27T12:56:23Z</time>
      </trkpt>
      <trkpt lat="45.22843" lon="6.15357">
        <ele>1728.4</ele>
        <time>2021-02-27T12:56:24Z</time>
      </trkpt>
      <trkpt lat="45.22844" lon="6.15359">
        <ele>1728.4</ele>
        <time>2021-02-27T12:56:25Z</time>
      </trkpt>
      <trkpt lat="45.22844" lon="6.15359">
        <ele>1728.6</ele>
        <time>2021-02-27T12:56:26Z</time>
      </trkpt>
      <trkpt lat="45.22845" lon="6.15362">
        <ele>1728.4</ele>
        <time>2021-02-27T12:56:27Z</time>
      </trkpt>
      <trkpt lat="45.22845" lon="6.15362">
        <ele>1728.6</ele>
        <time>2021-02-27T12:56:28Z</time>
      </trkpt>
      <trkpt lat="45.22846" lon="6.15365">
        <ele>1728.4</ele>
        <time>2021-02-27T12:56:29Z</time>
      </trkpt>
      <trkpt lat="45.22846" lon="6.15365">
        <ele>1728.4</ele>
        <time>2021-02-27T12:56:30Z</time>
      </trkpt>
      <trkpt lat="45.22847" lon="6.15368">
        <ele>1729</ele>
        <time>2021-02-27T12:56:31Z</time>
      </trkpt>
      <trkpt lat="45.22847" lon="6.15368">
        <ele>1729.2</ele>
        <time>2021-02-27T12:56:32Z</time>
      </trkpt>
      <trkpt lat="45.22847" lon="6.15371">
        <ele>1729.6</ele>
        <time>2021-02-27T12:56:33Z</time>
      </trkpt>
      <trkpt lat="45.22847" lon="6.15371">
        <ele>1729.6</ele>
        <time>2021-02-27T12:56:34Z</time>
      </trkpt>
      <trkpt lat="45.22848" lon="6.15374">
        <ele>1729.6</ele>
        <time>2021-02-27T12:56:35Z</time>
      </trkpt>
      <trkpt lat="45.22848" lon="6.15374">
        <ele>1729.4</ele>
        <time>2021-02-27T12:56:36Z</time>
      </trkpt>
      <trkpt lat="45.22849" lon="6.15377">
        <ele>1729.4</ele>
        <time>2021-02-27T12:56:37Z</time>
      </trkpt>
      <trkpt lat="45.22849" lon="6.15377">
        <ele>1729.8</ele>
        <time>2021-02-27T12:56:38Z</time>
      </trkpt>
      <trkpt lat="45.2285" lon="6.1538">
        <ele>1729.6</ele>
        <time>2021-02-27T12:56:39Z</time>
      </trkpt>
      <trkpt lat="45.2285" lon="6.1538">
        <ele>1729.6</ele>
        <time>2021-02-27T12:56:40Z</time>
      </trkpt>
      <trkpt lat="45.22852" lon="6.15383">
        <ele>1730</ele>
        <time>2021-02-27T12:56:41Z</time>
      </trkpt>
      <trkpt lat="45.22852" lon="6.15383">
        <ele>1730</ele>
        <time>2021-02-27T12:56:42Z</time>
      </trkpt>
      <trkpt lat="45.22852" lon="6.15385">
        <ele>1730</ele>
        <time>2021-02-27T12:56:43Z</time>
      </trkpt>
      <trkpt lat="45.22852" lon="6.15385">
        <ele>1730.4</ele>
        <time>2021-02-27T12:56:44Z</time>
      </trkpt>
      <trkpt lat="45.22853" lon="6.15388">
        <ele>1730.6</ele>
        <time>2021-02-27T12:56:45Z</time>
      </trkpt>
      <trkpt lat="45.22853" lon="6.15388">
        <ele>1731</ele>
        <time>2021-02-27T12:56:46Z</time>
      </trkpt>
      <trkpt lat="45.22854" lon="6.15391">
        <ele>1731.2</ele>
        <time>2021-02-27T12:56:47Z</time>
      </trkpt>
      <trkpt lat="45.22854" lon="6.15391">
        <ele>1731</ele>
        <time>2021-02-27T12:56:48Z</time>
      </trkpt>
      <trkpt lat="45.22855" lon="6.15393">
        <ele>1731</ele>
        <time>2021-02-27T12:56:49Z</time>
      </trkpt>
      <trkpt lat="45.22855" lon="6.15393">
        <ele>1731.2</ele>
        <time>2021-02-27T12:56:50Z</time>
      </trkpt>
      <trkpt lat="45.22856" lon="6.15396">
        <ele>1731.4</ele>
        <time>2021-02-27T12:56:51Z</time>
      </trkpt>
      <trkpt lat="45.22856" lon="6.15396">
        <ele>1731.8</ele>
        <time>2021-02-27T12:56:52Z</time>
      </trkpt>
      <trkpt lat="45.22856" lon="6.15396">
        <ele>1732.2</ele>
        <time>2021-02-27T12:56:53Z</time>
      </trkpt>
      <trkpt lat="45.22857" lon="6.15399">
        <ele>1732.2</ele>
        <time>2021-02-27T12:56:54Z</time>
      </trkpt>
      <trkpt lat="45.22857" lon="6.15399">
        <ele>1732.8</ele>
        <time>2021-02-27T12:56:55Z</time>
      </trkpt>
      <trkpt lat="45.22857" lon="6.15399">
        <ele>1733</ele>
        <time>2021-02-27T12:56:56Z</time>
      </trkpt>
      <trkpt lat="45.22857" lon="6.15403">
        <ele>1733</ele>
        <time>2021-02-27T12:56:57Z</time>
      </trkpt>
      <trkpt lat="45.22857" lon="6.15403">
        <ele>1733.2</ele>
        <time>2021-02-27T12:56:58Z</time>
      </trkpt>
      <trkpt lat="45.22858" lon="6.15406">
        <ele>1733.4</ele>
        <time>2021-02-27T12:56:59Z</time>
      </trkpt>
      <trkpt lat="45.22858" lon="6.15406">
        <ele>1733.8</ele>
        <time>2021-02-27T12:57:00Z</time>
      </trkpt>
      <trkpt lat="45.22858" lon="6.15409">
        <ele>1733.8</ele>
        <time>2021-02-27T12:57:01Z</time>
      </trkpt>
      <trkpt lat="45.22858" lon="6.15409">
        <ele>1734</ele>
        <time>2021-02-27T12:57:02Z</time>
      </trkpt>
      <trkpt lat="45.22858" lon="6.15413">
        <ele>1734.2</ele>
        <time>2021-02-27T12:57:03Z</time>
      </trkpt>
      <trkpt lat="45.22858" lon="6.15413">
        <ele>1734.2</ele>
        <time>2021-02-27T12:57:04Z</time>
      </trkpt>
      <trkpt lat="45.22857" lon="6.15417">
        <ele>1734.4</ele>
        <time>2021-02-27T12:57:05Z</time>
      </trkpt>
      <trkpt lat="45.22857" lon="6.15417">
        <ele>1734.4</ele>
        <time>2021-02-27T12:57:06Z</time>
      </trkpt>
      <trkpt lat="45.22858" lon="6.1542">
        <ele>1734.2</ele>
        <time>2021-02-27T12:57:07Z</time>
      </trkpt>
      <trkpt lat="45.22858" lon="6.1542">
        <ele>1734</ele>
        <time>2021-02-27T12:57:08Z</time>
      </trkpt>
      <trkpt lat="45.22859" lon="6.15423">
        <ele>1734.4</ele>
        <time>2021-02-27T12:57:09Z</time>
      </trkpt>
      <trkpt lat="45.22859" lon="6.15423">
        <ele>1734.4</ele>
        <time>2021-02-27T12:57:10Z</time>
      </trkpt>
      <trkpt lat="45.22859" lon="6.15426">
        <ele>1734.6</ele>
        <time>2021-02-27T12:57:11Z</time>
      </trkpt>
      <trkpt lat="45.22859" lon="6.15426">
        <ele>1734.8</ele>
        <time>2021-02-27T12:57:12Z</time>
      </trkpt>
      <trkpt lat="45.22858" lon="6.1543">
        <ele>1735</ele>
        <time>2021-02-27T12:57:13Z</time>
      </trkpt>
      <trkpt lat="45.22858" lon="6.1543">
        <ele>1734.6</ele>
        <time>2021-02-27T12:57:14Z</time>
      </trkpt>
      <trkpt lat="45.22857" lon="6.15434">
        <ele>1734.8</ele>
        <time>2021-02-27T12:57:15Z</time>
      </trkpt>
      <trkpt lat="45.22857" lon="6.15434">
        <ele>1734.8</ele>
        <time>2021-02-27T12:57:16Z</time>
      </trkpt>
      <trkpt lat="45.22857" lon="6.15437">
        <ele>1735.4</ele>
        <time>2021-02-27T12:57:17Z</time>
      </trkpt>
      <trkpt lat="45.22857" lon="6.15437">
        <ele>1735</ele>
        <time>2021-02-27T12:57:18Z</time>
      </trkpt>
      <trkpt lat="45.22857" lon="6.1544">
        <ele>1735.2</ele>
        <time>2021-02-27T12:57:19Z</time>
      </trkpt>
      <trkpt lat="45.22857" lon="6.1544">
        <ele>1735.6</ele>
        <time>2021-02-27T12:57:20Z</time>
      </trkpt>
      <trkpt lat="45.22856" lon="6.15443">
        <ele>1735.8</ele>
        <time>2021-02-27T12:57:21Z</time>
      </trkpt>
      <trkpt lat="45.22856" lon="6.15443">
        <ele>1735.8</ele>
        <time>2021-02-27T12:57:22Z</time>
      </trkpt>
      <trkpt lat="45.22856" lon="6.15447">
        <ele>1736.2</ele>
        <time>2021-02-27T12:57:23Z</time>
      </trkpt>
      <trkpt lat="45.22856" lon="6.15447">
        <ele>1736.2</ele>
        <time>2021-02-27T12:57:24Z</time>
      </trkpt>
      <trkpt lat="45.22856" lon="6.15451">
        <ele>1735.8</ele>
        <time>2021-02-27T12:57:25Z</time>
      </trkpt>
      <trkpt lat="45.22856" lon="6.15451">
        <ele>1736</ele>
        <time>2021-02-27T12:57:26Z</time>
      </trkpt>
      <trkpt lat="45.22856" lon="6.15454">
        <ele>1736.2</ele>
        <time>2021-02-27T12:57:27Z</time>
      </trkpt>
      <trkpt lat="45.22856" lon="6.15454">
        <ele>1736</ele>
        <time>2021-02-27T12:57:28Z</time>
      </trkpt>
      <trkpt lat="45.22855" lon="6.15459">
        <ele>1736.2</ele>
        <time>2021-02-27T12:57:29Z</time>
      </trkpt>
      <trkpt lat="45.22855" lon="6.15459">
        <ele>1736.2</ele>
        <time>2021-02-27T12:57:30Z</time>
      </trkpt>
      <trkpt lat="45.22854" lon="6.15463">
        <ele>1736</ele>
        <time>2021-02-27T12:57:31Z</time>
      </trkpt>
      <trkpt lat="45.22854" lon="6.15463">
        <ele>1736</ele>
        <time>2021-02-27T12:57:32Z</time>
      </trkpt>
      <trkpt lat="45.22854" lon="6.15467">
        <ele>1736.6</ele>
        <time>2021-02-27T12:57:33Z</time>
      </trkpt>
      <trkpt lat="45.22854" lon="6.15467">
        <ele>1736.6</ele>
        <time>2021-02-27T12:57:34Z</time>
      </trkpt>
      <trkpt lat="45.22853" lon="6.1547">
        <ele>1736.2</ele>
        <time>2021-02-27T12:57:35Z</time>
      </trkpt>
      <trkpt lat="45.22853" lon="6.1547">
        <ele>1736.4</ele>
        <time>2021-02-27T12:57:36Z</time>
      </trkpt>
      <trkpt lat="45.22852" lon="6.15474">
        <ele>1736.6</ele>
        <time>2021-02-27T12:57:37Z</time>
      </trkpt>
      <trkpt lat="45.22852" lon="6.15474">
        <ele>1736.6</ele>
        <time>2021-02-27T12:57:38Z</time>
      </trkpt>
      <trkpt lat="45.22852" lon="6.15477">
        <ele>1736.6</ele>
        <time>2021-02-27T12:57:39Z</time>
      </trkpt>
      <trkpt lat="45.22852" lon="6.15477">
        <ele>1736.8</ele>
        <time>2021-02-27T12:57:40Z</time>
      </trkpt>
      <trkpt lat="45.22851" lon="6.1548">
        <ele>1736.8</ele>
        <time>2021-02-27T12:57:41Z</time>
      </trkpt>
      <trkpt lat="45.22851" lon="6.1548">
        <ele>1736.8</ele>
        <time>2021-02-27T12:57:42Z</time>
      </trkpt>
      <trkpt lat="45.22851" lon="6.15483">
        <ele>1737</ele>
        <time>2021-02-27T12:57:43Z</time>
      </trkpt>
      <trkpt lat="45.22851" lon="6.15483">
        <ele>1737.2</ele>
        <time>2021-02-27T12:57:44Z</time>
      </trkpt>
      <trkpt lat="45.22851" lon="6.15487">
        <ele>1737.2</ele>
        <time>2021-02-27T12:57:45Z</time>
      </trkpt>
      <trkpt lat="45.22851" lon="6.15487">
        <ele>1737.2</ele>
        <time>2021-02-27T12:57:46Z</time>
      </trkpt>
      <trkpt lat="45.2285" lon="6.1549">
        <ele>1737.2</ele>
        <time>2021-02-27T12:57:47Z</time>
      </trkpt>
      <trkpt lat="45.2285" lon="6.1549">
        <ele>1737.4</ele>
        <time>2021-02-27T12:57:48Z</time>
      </trkpt>
      <trkpt lat="45.22849" lon="6.15493">
        <ele>1737.8</ele>
        <time>2021-02-27T12:57:49Z</time>
      </trkpt>
      <trkpt lat="45.22849" lon="6.15493">
        <ele>1738</ele>
        <time>2021-02-27T12:57:50Z</time>
      </trkpt>
      <trkpt lat="45.22849" lon="6.15497">
        <ele>1738.2</ele>
        <time>2021-02-27T12:57:51Z</time>
      </trkpt>
      <trkpt lat="45.22849" lon="6.15497">
        <ele>1738.2</ele>
        <time>2021-02-27T12:57:52Z</time>
      </trkpt>
      <trkpt lat="45.22849" lon="6.155">
        <ele>1737.8</ele>
        <time>2021-02-27T12:57:53Z</time>
      </trkpt>
      <trkpt lat="45.22849" lon="6.155">
        <ele>1738</ele>
        <time>2021-02-27T12:57:54Z</time>
      </trkpt>
      <trkpt lat="45.22848" lon="6.15503">
        <ele>1738.2</ele>
        <time>2021-02-27T12:57:55Z</time>
      </trkpt>
      <trkpt lat="45.22848" lon="6.15503">
        <ele>1738.2</ele>
        <time>2021-02-27T12:57:56Z</time>
      </trkpt>
      <trkpt lat="45.22848" lon="6.15506">
        <ele>1738.4</ele>
        <time>2021-02-27T12:57:57Z</time>
      </trkpt>
      <trkpt lat="45.22848" lon="6.15506">
        <ele>1738.4</ele>
        <time>2021-02-27T12:57:58Z</time>
      </trkpt>
      <trkpt lat="45.22847" lon="6.1551">
        <ele>1738.6</ele>
        <time>2021-02-27T12:57:59Z</time>
      </trkpt>
      <trkpt lat="45.22847" lon="6.1551">
        <ele>1738.8</ele>
        <time>2021-02-27T12:58:00Z</time>
      </trkpt>
      <trkpt lat="45.22847" lon="6.15513">
        <ele>1739</ele>
        <time>2021-02-27T12:58:01Z</time>
      </trkpt>
      <trkpt lat="45.22847" lon="6.15513">
        <ele>1739</ele>
        <time>2021-02-27T12:58:02Z</time>
      </trkpt>
      <trkpt lat="45.22847" lon="6.15516">
        <ele>1738.8</ele>
        <time>2021-02-27T12:58:03Z</time>
      </trkpt>
      <trkpt lat="45.22847" lon="6.15516">
        <ele>1739</ele>
        <time>2021-02-27T12:58:04Z</time>
      </trkpt>
      <trkpt lat="45.22847" lon="6.1552">
        <ele>1739.2</ele>
        <time>2021-02-27T12:58:05Z</time>
      </trkpt>
      <trkpt lat="45.22847" lon="6.1552">
        <ele>1739.2</ele>
        <time>2021-02-27T12:58:06Z</time>
      </trkpt>
      <trkpt lat="45.22847" lon="6.15523">
        <ele>1739</ele>
        <time>2021-02-27T12:58:07Z</time>
      </trkpt>
      <trkpt lat="45.22847" lon="6.15523">
        <ele>1739.2</ele>
        <time>2021-02-27T12:58:08Z</time>
      </trkpt>
      <trkpt lat="45.22847" lon="6.15527">
        <ele>1739.6</ele>
        <time>2021-02-27T12:58:09Z</time>
      </trkpt>
      <trkpt lat="45.22847" lon="6.15527">
        <ele>1739.2</ele>
        <time>2021-02-27T12:58:10Z</time>
      </trkpt>
      <trkpt lat="45.22848" lon="6.1553">
        <ele>1739.4</ele>
        <time>2021-02-27T12:58:11Z</time>
      </trkpt>
      <trkpt lat="45.22848" lon="6.1553">
        <ele>1739.4</ele>
        <time>2021-02-27T12:58:12Z</time>
      </trkpt>
      <trkpt lat="45.22848" lon="6.15533">
        <ele>1739.8</ele>
        <time>2021-02-27T12:58:13Z</time>
      </trkpt>
      <trkpt lat="45.22848" lon="6.15533">
        <ele>1740</ele>
        <time>2021-02-27T12:58:14Z</time>
      </trkpt>
      <trkpt lat="45.22849" lon="6.15537">
        <ele>1740.2</ele>
        <time>2021-02-27T12:58:15Z</time>
      </trkpt>
      <trkpt lat="45.22849" lon="6.15537">
        <ele>1740.2</ele>
        <time>2021-02-27T12:58:16Z</time>
      </trkpt>
      <trkpt lat="45.2285" lon="6.1554">
        <ele>1740.8</ele>
        <time>2021-02-27T12:58:17Z</time>
      </trkpt>
      <trkpt lat="45.2285" lon="6.1554">
        <ele>1740.4</ele>
        <time>2021-02-27T12:58:18Z</time>
      </trkpt>
      <trkpt lat="45.22851" lon="6.15543">
        <ele>1740.6</ele>
        <time>2021-02-27T12:58:19Z</time>
      </trkpt>
      <trkpt lat="45.22851" lon="6.15543">
        <ele>1740.8</ele>
        <time>2021-02-27T12:58:20Z</time>
      </trkpt>
      <trkpt lat="45.22852" lon="6.15545">
        <ele>1740.6</ele>
        <time>2021-02-27T12:58:21Z</time>
      </trkpt>
      <trkpt lat="45.22852" lon="6.15545">
        <ele>1740.6</ele>
        <time>2021-02-27T12:58:22Z</time>
      </trkpt>
      <trkpt lat="45.22853" lon="6.15547">
        <ele>1740.8</ele>
        <time>2021-02-27T12:58:23Z</time>
      </trkpt>
      <trkpt lat="45.22853" lon="6.15547">
        <ele>1740.6</ele>
        <time>2021-02-27T12:58:24Z</time>
      </trkpt>
      <trkpt lat="45.22854" lon="6.15549">
        <ele>1740.4</ele>
        <time>2021-02-27T12:58:25Z</time>
      </trkpt>
      <trkpt lat="45.22855" lon="6.1555">
        <ele>1740.8</ele>
        <time>2021-02-27T12:58:26Z</time>
      </trkpt>
      <trkpt lat="45.22856" lon="6.15551">
        <ele>1741.4</ele>
        <time>2021-02-27T12:58:27Z</time>
      </trkpt>
      <trkpt lat="45.22857" lon="6.15553">
        <ele>1741.6</ele>
        <time>2021-02-27T12:58:28Z</time>
      </trkpt>
      <trkpt lat="45.22858" lon="6.15554">
        <ele>1741.8</ele>
        <time>2021-02-27T12:58:29Z</time>
      </trkpt>
      <trkpt lat="45.22859" lon="6.15555">
        <ele>1741.6</ele>
        <time>2021-02-27T12:58:30Z</time>
      </trkpt>
      <trkpt lat="45.2286" lon="6.15558">
        <ele>1741.6</ele>
        <time>2021-02-27T12:58:31Z</time>
      </trkpt>
      <trkpt lat="45.2286" lon="6.15558">
        <ele>1741.6</ele>
        <time>2021-02-27T12:58:32Z</time>
      </trkpt>
      <trkpt lat="45.22862" lon="6.15561">
        <ele>1742</ele>
        <time>2021-02-27T12:58:33Z</time>
      </trkpt>
      <trkpt lat="45.22862" lon="6.15561">
        <ele>1742.2</ele>
        <time>2021-02-27T12:58:34Z</time>
      </trkpt>
      <trkpt lat="45.22863" lon="6.15564">
        <ele>1742.4</ele>
        <time>2021-02-27T12:58:35Z</time>
      </trkpt>
      <trkpt lat="45.22863" lon="6.15564">
        <ele>1742.6</ele>
        <time>2021-02-27T12:58:36Z</time>
      </trkpt>
      <trkpt lat="45.22864" lon="6.15567">
        <ele>1743.2</ele>
        <time>2021-02-27T12:58:37Z</time>
      </trkpt>
      <trkpt lat="45.22864" lon="6.15567">
        <ele>1743.2</ele>
        <time>2021-02-27T12:58:38Z</time>
      </trkpt>
      <trkpt lat="45.22865" lon="6.1557">
        <ele>1743.2</ele>
        <time>2021-02-27T12:58:39Z</time>
      </trkpt>
      <trkpt lat="45.22865" lon="6.1557">
        <ele>1743.4</ele>
        <time>2021-02-27T12:58:40Z</time>
      </trkpt>
      <trkpt lat="45.22867" lon="6.15573">
        <ele>1743</ele>
        <time>2021-02-27T12:58:41Z</time>
      </trkpt>
      <trkpt lat="45.22867" lon="6.15573">
        <ele>1743.2</ele>
        <time>2021-02-27T12:58:42Z</time>
      </trkpt>
      <trkpt lat="45.22868" lon="6.15576">
        <ele>1743.2</ele>
        <time>2021-02-27T12:58:43Z</time>
      </trkpt>
      <trkpt lat="45.22868" lon="6.15576">
        <ele>1743.6</ele>
        <time>2021-02-27T12:58:44Z</time>
      </trkpt>
      <trkpt lat="45.2287" lon="6.15579">
        <ele>1743.8</ele>
        <time>2021-02-27T12:58:45Z</time>
      </trkpt>
      <trkpt lat="45.2287" lon="6.15579">
        <ele>1743.8</ele>
        <time>2021-02-27T12:58:46Z</time>
      </trkpt>
      <trkpt lat="45.22871" lon="6.15581">
        <ele>1744.2</ele>
        <time>2021-02-27T12:58:47Z</time>
      </trkpt>
      <trkpt lat="45.22871" lon="6.15581">
        <ele>1744.2</ele>
        <time>2021-02-27T12:58:48Z</time>
      </trkpt>
      <trkpt lat="45.22872" lon="6.15584">
        <ele>1743.8</ele>
        <time>2021-02-27T12:58:49Z</time>
      </trkpt>
      <trkpt lat="45.22872" lon="6.15584">
        <ele>1744.2</ele>
        <time>2021-02-27T12:58:50Z</time>
      </trkpt>
      <trkpt lat="45.22873" lon="6.15587">
        <ele>1744.4</ele>
        <time>2021-02-27T12:58:51Z</time>
      </trkpt>
      <trkpt lat="45.22873" lon="6.15587">
        <ele>1744.6</ele>
        <time>2021-02-27T12:58:52Z</time>
      </trkpt>
      <trkpt lat="45.22875" lon="6.1559">
        <ele>1744.6</ele>
        <time>2021-02-27T12:58:53Z</time>
      </trkpt>
      <trkpt lat="45.22875" lon="6.1559">
        <ele>1744.6</ele>
        <time>2021-02-27T12:58:54Z</time>
      </trkpt>
      <trkpt lat="45.22876" lon="6.15593">
        <ele>1744.8</ele>
        <time>2021-02-27T12:58:55Z</time>
      </trkpt>
      <trkpt lat="45.22876" lon="6.15593">
        <ele>1745</ele>
        <time>2021-02-27T12:58:56Z</time>
      </trkpt>
      <trkpt lat="45.22878" lon="6.15596">
        <ele>1745</ele>
        <time>2021-02-27T12:58:57Z</time>
      </trkpt>
      <trkpt lat="45.22878" lon="6.15596">
        <ele>1744.8</ele>
        <time>2021-02-27T12:58:58Z</time>
      </trkpt>
      <trkpt lat="45.22879" lon="6.15599">
        <ele>1744.8</ele>
        <time>2021-02-27T12:58:59Z</time>
      </trkpt>
      <trkpt lat="45.22879" lon="6.15599">
        <ele>1745</ele>
        <time>2021-02-27T12:59:00Z</time>
      </trkpt>
      <trkpt lat="45.22881" lon="6.15603">
        <ele>1745.4</ele>
        <time>2021-02-27T12:59:01Z</time>
      </trkpt>
      <trkpt lat="45.22881" lon="6.15603">
        <ele>1745.4</ele>
        <time>2021-02-27T12:59:02Z</time>
      </trkpt>
      <trkpt lat="45.22882" lon="6.15606">
        <ele>1745.4</ele>
        <time>2021-02-27T12:59:03Z</time>
      </trkpt>
      <trkpt lat="45.22882" lon="6.15606">
        <ele>1745.4</ele>
        <time>2021-02-27T12:59:04Z</time>
      </trkpt>
      <trkpt lat="45.22884" lon="6.15609">
        <ele>1745.6</ele>
        <time>2021-02-27T12:59:05Z</time>
      </trkpt>
      <trkpt lat="45.22884" lon="6.15609">
        <ele>1746</ele>
        <time>2021-02-27T12:59:06Z</time>
      </trkpt>
      <trkpt lat="45.22885" lon="6.15612">
        <ele>1746.2</ele>
        <time>2021-02-27T12:59:07Z</time>
      </trkpt>
      <trkpt lat="45.22885" lon="6.15612">
        <ele>1746</ele>
        <time>2021-02-27T12:59:08Z</time>
      </trkpt>
      <trkpt lat="45.22887" lon="6.15616">
        <ele>1746.2</ele>
        <time>2021-02-27T12:59:09Z</time>
      </trkpt>
      <trkpt lat="45.22887" lon="6.15616">
        <ele>1746.6</ele>
        <time>2021-02-27T12:59:10Z</time>
      </trkpt>
      <trkpt lat="45.22888" lon="6.15619">
        <ele>1746.6</ele>
        <time>2021-02-27T12:59:11Z</time>
      </trkpt>
      <trkpt lat="45.22888" lon="6.15619">
        <ele>1747</ele>
        <time>2021-02-27T12:59:12Z</time>
      </trkpt>
      <trkpt lat="45.22889" lon="6.15622">
        <ele>1747</ele>
        <time>2021-02-27T12:59:13Z</time>
      </trkpt>
      <trkpt lat="45.22889" lon="6.15622">
        <ele>1746.6</ele>
        <time>2021-02-27T12:59:14Z</time>
      </trkpt>
      <trkpt lat="45.2289" lon="6.15625">
        <ele>1746.8</ele>
        <time>2021-02-27T12:59:15Z</time>
      </trkpt>
      <trkpt lat="45.2289" lon="6.15625">
        <ele>1746.8</ele>
        <time>2021-02-27T12:59:16Z</time>
      </trkpt>
      <trkpt lat="45.22891" lon="6.15627">
        <ele>1747</ele>
        <time>2021-02-27T12:59:17Z</time>
      </trkpt>
      <trkpt lat="45.22891" lon="6.15627">
        <ele>1747</ele>
        <time>2021-02-27T12:59:18Z</time>
      </trkpt>
      <trkpt lat="45.22893" lon="6.15629">
        <ele>1747.8</ele>
        <time>2021-02-27T12:59:19Z</time>
      </trkpt>
      <trkpt lat="45.22893" lon="6.15629">
        <ele>1747.8</ele>
        <time>2021-02-27T12:59:20Z</time>
      </trkpt>
      <trkpt lat="45.22895" lon="6.15632">
        <ele>1747.8</ele>
        <time>2021-02-27T12:59:21Z</time>
      </trkpt>
      <trkpt lat="45.22895" lon="6.15632">
        <ele>1748.2</ele>
        <time>2021-02-27T12:59:22Z</time>
      </trkpt>
      <trkpt lat="45.22896" lon="6.15635">
        <ele>1748</ele>
        <time>2021-02-27T12:59:23Z</time>
      </trkpt>
      <trkpt lat="45.22896" lon="6.15635">
        <ele>1748.2</ele>
        <time>2021-02-27T12:59:24Z</time>
      </trkpt>
      <trkpt lat="45.22897" lon="6.15636">
        <ele>1748.8</ele>
        <time>2021-02-27T12:59:25Z</time>
      </trkpt>
      <trkpt lat="45.22898" lon="6.15638">
        <ele>1749.2</ele>
        <time>2021-02-27T12:59:26Z</time>
      </trkpt>
      <trkpt lat="45.22898" lon="6.15639">
        <ele>1749</ele>
        <time>2021-02-27T12:59:27Z</time>
      </trkpt>
      <trkpt lat="45.22899" lon="6.1564">
        <ele>1749.4</ele>
        <time>2021-02-27T12:59:28Z</time>
      </trkpt>
      <trkpt lat="45.229" lon="6.15641">
        <ele>1749.2</ele>
        <time>2021-02-27T12:59:29Z</time>
      </trkpt>
      <trkpt lat="45.22901" lon="6.15644">
        <ele>1749.4</ele>
        <time>2021-02-27T12:59:30Z</time>
      </trkpt>
      <trkpt lat="45.22901" lon="6.15644">
        <ele>1749.4</ele>
        <time>2021-02-27T12:59:31Z</time>
      </trkpt>
      <trkpt lat="45.22903" lon="6.15647">
        <ele>1749.4</ele>
        <time>2021-02-27T12:59:32Z</time>
      </trkpt>
      <trkpt lat="45.22903" lon="6.15647">
        <ele>1749.8</ele>
        <time>2021-02-27T12:59:33Z</time>
      </trkpt>
      <trkpt lat="45.22905" lon="6.15649">
        <ele>1750.2</ele>
        <time>2021-02-27T12:59:34Z</time>
      </trkpt>
      <trkpt lat="45.22905" lon="6.15649">
        <ele>1749.6</ele>
        <time>2021-02-27T12:59:35Z</time>
      </trkpt>
      <trkpt lat="45.22907" lon="6.15652">
        <ele>1750</ele>
        <time>2021-02-27T12:59:36Z</time>
      </trkpt>
      <trkpt lat="45.22907" lon="6.15652">
        <ele>1750.2</ele>
        <time>2021-02-27T12:59:37Z</time>
      </trkpt>
      <trkpt lat="45.22908" lon="6.15655">
        <ele>1750.2</ele>
        <time>2021-02-27T12:59:38Z</time>
      </trkpt>
      <trkpt lat="45.22908" lon="6.15655">
        <ele>1750.2</ele>
        <time>2021-02-27T12:59:39Z</time>
      </trkpt>
      <trkpt lat="45.22909" lon="6.15658">
        <ele>1750.4</ele>
        <time>2021-02-27T12:59:40Z</time>
      </trkpt>
      <trkpt lat="45.22909" lon="6.15658">
        <ele>1750</ele>
        <time>2021-02-27T12:59:41Z</time>
      </trkpt>
      <trkpt lat="45.22911" lon="6.1566">
        <ele>1750</ele>
        <time>2021-02-27T12:59:42Z</time>
      </trkpt>
      <trkpt lat="45.22911" lon="6.1566">
        <ele>1750.4</ele>
        <time>2021-02-27T12:59:43Z</time>
      </trkpt>
      <trkpt lat="45.22913" lon="6.15662">
        <ele>1750.6</ele>
        <time>2021-02-27T12:59:44Z</time>
      </trkpt>
      <trkpt lat="45.22913" lon="6.15662">
        <ele>1750.8</ele>
        <time>2021-02-27T12:59:45Z</time>
      </trkpt>
      <trkpt lat="45.22914" lon="6.15665">
        <ele>1750.6</ele>
        <time>2021-02-27T12:59:46Z</time>
      </trkpt>
      <trkpt lat="45.22914" lon="6.15665">
        <ele>1750.6</ele>
        <time>2021-02-27T12:59:47Z</time>
      </trkpt>
      <trkpt lat="45.22916" lon="6.15667">
        <ele>1750.6</ele>
        <time>2021-02-27T12:59:48Z</time>
      </trkpt>
      <trkpt lat="45.22916" lon="6.15667">
        <ele>1751.2</ele>
        <time>2021-02-27T12:59:49Z</time>
      </trkpt>
      <trkpt lat="45.22918" lon="6.1567">
        <ele>1751.2</ele>
        <time>2021-02-27T12:59:50Z</time>
      </trkpt>
      <trkpt lat="45.22918" lon="6.1567">
        <ele>1751</ele>
        <time>2021-02-27T12:59:51Z</time>
      </trkpt>
      <trkpt lat="45.2292" lon="6.15672">
        <ele>1751.2</ele>
        <time>2021-02-27T12:59:52Z</time>
      </trkpt>
      <trkpt lat="45.2292" lon="6.15672">
        <ele>1751.2</ele>
        <time>2021-02-27T12:59:53Z</time>
      </trkpt>
      <trkpt lat="45.22922" lon="6.15675">
        <ele>1751.6</ele>
        <time>2021-02-27T12:59:54Z</time>
      </trkpt>
      <trkpt lat="45.22922" lon="6.15675">
        <ele>1751.6</ele>
        <time>2021-02-27T12:59:55Z</time>
      </trkpt>
      <trkpt lat="45.22924" lon="6.15678">
        <ele>1751.4</ele>
        <time>2021-02-27T12:59:56Z</time>
      </trkpt>
      <trkpt lat="45.22924" lon="6.15678">
        <ele>1751.8</ele>
        <time>2021-02-27T12:59:57Z</time>
      </trkpt>
      <trkpt lat="45.22925" lon="6.15681">
        <ele>1751.8</ele>
        <time>2021-02-27T12:59:58Z</time>
      </trkpt>
      <trkpt lat="45.22925" lon="6.15681">
        <ele>1751.6</ele>
        <time>2021-02-27T12:59:59Z</time>
      </trkpt>
      <trkpt lat="45.22927" lon="6.15684">
        <ele>1751.6</ele>
        <time>2021-02-27T13:00:00Z</time>
      </trkpt>
      <trkpt lat="45.22927" lon="6.15684">
        <ele>1751.8</ele>
        <time>2021-02-27T13:00:01Z</time>
      </trkpt>
      <trkpt lat="45.22929" lon="6.15686">
        <ele>1752.2</ele>
        <time>2021-02-27T13:00:02Z</time>
      </trkpt>
      <trkpt lat="45.22929" lon="6.15686">
        <ele>1752</ele>
        <time>2021-02-27T13:00:03Z</time>
      </trkpt>
      <trkpt lat="45.2293" lon="6.15689">
        <ele>1752</ele>
        <time>2021-02-27T13:00:04Z</time>
      </trkpt>
      <trkpt lat="45.2293" lon="6.15689">
        <ele>1752</ele>
        <time>2021-02-27T13:00:05Z</time>
      </trkpt>
      <trkpt lat="45.22932" lon="6.15691">
        <ele>1752.4</ele>
        <time>2021-02-27T13:00:06Z</time>
      </trkpt>
      <trkpt lat="45.22932" lon="6.15691">
        <ele>1752.6</ele>
        <time>2021-02-27T13:00:07Z</time>
      </trkpt>
      <trkpt lat="45.22934" lon="6.15694">
        <ele>1753</ele>
        <time>2021-02-27T13:00:08Z</time>
      </trkpt>
      <trkpt lat="45.22934" lon="6.15694">
        <ele>1753</ele>
        <time>2021-02-27T13:00:09Z</time>
      </trkpt>
      <trkpt lat="45.22935" lon="6.15697">
        <ele>1752.6</ele>
        <time>2021-02-27T13:00:10Z</time>
      </trkpt>
      <trkpt lat="45.22935" lon="6.15697">
        <ele>1753</ele>
        <time>2021-02-27T13:00:11Z</time>
      </trkpt>
      <trkpt lat="45.22937" lon="6.15699">
        <ele>1752.8</ele>
        <time>2021-02-27T13:00:12Z</time>
      </trkpt>
      <trkpt lat="45.22937" lon="6.15699">
        <ele>1752.8</ele>
        <time>2021-02-27T13:00:13Z</time>
      </trkpt>
      <trkpt lat="45.22939" lon="6.15702">
        <ele>1753.4</ele>
        <time>2021-02-27T13:00:14Z</time>
      </trkpt>
      <trkpt lat="45.22939" lon="6.15702">
        <ele>1753.4</ele>
        <time>2021-02-27T13:00:15Z</time>
      </trkpt>
      <trkpt lat="45.22941" lon="6.15705">
        <ele>1753.4</ele>
        <time>2021-02-27T13:00:16Z</time>
      </trkpt>
      <trkpt lat="45.22941" lon="6.15705">
        <ele>1753.2</ele>
        <time>2021-02-27T13:00:17Z</time>
      </trkpt>
      <trkpt lat="45.22941" lon="6.15705">
        <ele>1753.8</ele>
        <time>2021-02-27T13:00:18Z</time>
      </trkpt>
      <trkpt lat="45.22943" lon="6.15709">
        <ele>1754.2</ele>
        <time>2021-02-27T13:00:19Z</time>
      </trkpt>
      <trkpt lat="45.22943" lon="6.15709">
        <ele>1754.2</ele>
        <time>2021-02-27T13:00:20Z</time>
      </trkpt>
      <trkpt lat="45.22943" lon="6.15709">
        <ele>1754.2</ele>
        <time>2021-02-27T13:00:21Z</time>
      </trkpt>
      <trkpt lat="45.22945" lon="6.15713">
        <ele>1754</ele>
        <time>2021-02-27T13:00:22Z</time>
      </trkpt>
      <trkpt lat="45.22945" lon="6.15713">
        <ele>1754</ele>
        <time>2021-02-27T13:00:23Z</time>
      </trkpt>
      <trkpt lat="45.22946" lon="6.15715">
        <ele>1754.6</ele>
        <time>2021-02-27T13:00:24Z</time>
      </trkpt>
      <trkpt lat="45.22946" lon="6.15715">
        <ele>1754.6</ele>
        <time>2021-02-27T13:00:25Z</time>
      </trkpt>
      <trkpt lat="45.22948" lon="6.15718">
        <ele>1754.8</ele>
        <time>2021-02-27T13:00:26Z</time>
      </trkpt>
      <trkpt lat="45.22948" lon="6.15718">
        <ele>1754.8</ele>
        <time>2021-02-27T13:00:27Z</time>
      </trkpt>
      <trkpt lat="45.2295" lon="6.1572">
        <ele>1755.2</ele>
        <time>2021-02-27T13:00:28Z</time>
      </trkpt>
      <trkpt lat="45.2295" lon="6.1572">
        <ele>1755.4</ele>
        <time>2021-02-27T13:00:29Z</time>
      </trkpt>
      <trkpt lat="45.22952" lon="6.15722">
        <ele>1755.6</ele>
        <time>2021-02-27T13:00:30Z</time>
      </trkpt>
      <trkpt lat="45.22952" lon="6.15722">
        <ele>1755.6</ele>
        <time>2021-02-27T13:00:31Z</time>
      </trkpt>
      <trkpt lat="45.22954" lon="6.15725">
        <ele>1755.6</ele>
        <time>2021-02-27T13:00:32Z</time>
      </trkpt>
      <trkpt lat="45.22954" lon="6.15725">
        <ele>1755.8</ele>
        <time>2021-02-27T13:00:33Z</time>
      </trkpt>
      <trkpt lat="45.22955" lon="6.15727">
        <ele>1755.8</ele>
        <time>2021-02-27T13:00:34Z</time>
      </trkpt>
      <trkpt lat="45.22955" lon="6.15727">
        <ele>1755.8</ele>
        <time>2021-02-27T13:00:35Z</time>
      </trkpt>
      <trkpt lat="45.22956" lon="6.1573">
        <ele>1756.2</ele>
        <time>2021-02-27T13:00:36Z</time>
      </trkpt>
      <trkpt lat="45.22956" lon="6.1573">
        <ele>1756.2</ele>
        <time>2021-02-27T13:00:37Z</time>
      </trkpt>
      <trkpt lat="45.22958" lon="6.15733">
        <ele>1756</ele>
        <time>2021-02-27T13:00:38Z</time>
      </trkpt>
      <trkpt lat="45.22958" lon="6.15733">
        <ele>1756.4</ele>
        <time>2021-02-27T13:00:39Z</time>
      </trkpt>
      <trkpt lat="45.22959" lon="6.15736">
        <ele>1756.2</ele>
        <time>2021-02-27T13:00:40Z</time>
      </trkpt>
      <trkpt lat="45.22959" lon="6.15736">
        <ele>1756.4</ele>
        <time>2021-02-27T13:00:41Z</time>
      </trkpt>
      <trkpt lat="45.22961" lon="6.15739">
        <ele>1756.6</ele>
        <time>2021-02-27T13:00:42Z</time>
      </trkpt>
      <trkpt lat="45.22961" lon="6.15739">
        <ele>1756.6</ele>
        <time>2021-02-27T13:00:43Z</time>
      </trkpt>
      <trkpt lat="45.22962" lon="6.15742">
        <ele>1757.4</ele>
        <time>2021-02-27T13:00:44Z</time>
      </trkpt>
      <trkpt lat="45.22962" lon="6.15742">
        <ele>1757</ele>
        <time>2021-02-27T13:00:45Z</time>
      </trkpt>
      <trkpt lat="45.22964" lon="6.15746">
        <ele>1757</ele>
        <time>2021-02-27T13:00:46Z</time>
      </trkpt>
      <trkpt lat="45.22964" lon="6.15746">
        <ele>1756.8</ele>
        <time>2021-02-27T13:00:47Z</time>
      </trkpt>
      <trkpt lat="45.22965" lon="6.15749">
        <ele>1757.2</ele>
        <time>2021-02-27T13:00:48Z</time>
      </trkpt>
      <trkpt lat="45.22965" lon="6.15749">
        <ele>1757</ele>
        <time>2021-02-27T13:00:49Z</time>
      </trkpt>
      <trkpt lat="45.22966" lon="6.15752">
        <ele>1757.2</ele>
        <time>2021-02-27T13:00:50Z</time>
      </trkpt>
      <trkpt lat="45.22966" lon="6.15752">
        <ele>1757.4</ele>
        <time>2021-02-27T13:00:51Z</time>
      </trkpt>
      <trkpt lat="45.22967" lon="6.15754">
        <ele>1757.8</ele>
        <time>2021-02-27T13:00:52Z</time>
      </trkpt>
      <trkpt lat="45.22967" lon="6.15754">
        <ele>1757.8</ele>
        <time>2021-02-27T13:00:53Z</time>
      </trkpt>
      <trkpt lat="45.22968" lon="6.15757">
        <ele>1758</ele>
        <time>2021-02-27T13:00:54Z</time>
      </trkpt>
      <trkpt lat="45.22968" lon="6.15757">
        <ele>1758.2</ele>
        <time>2021-02-27T13:00:55Z</time>
      </trkpt>
      <trkpt lat="45.22969" lon="6.1576">
        <ele>1758.4</ele>
        <time>2021-02-27T13:00:56Z</time>
      </trkpt>
      <trkpt lat="45.22969" lon="6.1576">
        <ele>1759</ele>
        <time>2021-02-27T13:00:57Z</time>
      </trkpt>
      <trkpt lat="45.22969" lon="6.15763">
        <ele>1758.8</ele>
        <time>2021-02-27T13:00:58Z</time>
      </trkpt>
      <trkpt lat="45.22969" lon="6.15763">
        <ele>1758</ele>
        <time>2021-02-27T13:00:59Z</time>
      </trkpt>
      <trkpt lat="45.2297" lon="6.15767">
        <ele>1758.8</ele>
        <time>2021-02-27T13:01:00Z</time>
      </trkpt>
      <trkpt lat="45.2297" lon="6.15767">
        <ele>1758.4</ele>
        <time>2021-02-27T13:01:01Z</time>
      </trkpt>
      <trkpt lat="45.22971" lon="6.1577">
        <ele>1758.6</ele>
        <time>2021-02-27T13:01:02Z</time>
      </trkpt>
      <trkpt lat="45.22971" lon="6.1577">
        <ele>1758.8</ele>
        <time>2021-02-27T13:01:03Z</time>
      </trkpt>
      <trkpt lat="45.22971" lon="6.15774">
        <ele>1759</ele>
        <time>2021-02-27T13:01:04Z</time>
      </trkpt>
      <trkpt lat="45.22971" lon="6.15774">
        <ele>1759.6</ele>
        <time>2021-02-27T13:01:05Z</time>
      </trkpt>
      <trkpt lat="45.22971" lon="6.15777">
        <ele>1760</ele>
        <time>2021-02-27T13:01:06Z</time>
      </trkpt>
      <trkpt lat="45.22971" lon="6.15777">
        <ele>1760</ele>
        <time>2021-02-27T13:01:07Z</time>
      </trkpt>
      <trkpt lat="45.22972" lon="6.15781">
        <ele>1760</ele>
        <time>2021-02-27T13:01:08Z</time>
      </trkpt>
      <trkpt lat="45.22972" lon="6.15781">
        <ele>1759.8</ele>
        <time>2021-02-27T13:01:09Z</time>
      </trkpt>
      <trkpt lat="45.22973" lon="6.15784">
        <ele>1760</ele>
        <time>2021-02-27T13:01:10Z</time>
      </trkpt>
      <trkpt lat="45.22973" lon="6.15784">
        <ele>1760</ele>
        <time>2021-02-27T13:01:11Z</time>
      </trkpt>
      <trkpt lat="45.22973" lon="6.15787">
        <ele>1760.2</ele>
        <time>2021-02-27T13:01:12Z</time>
      </trkpt>
      <trkpt lat="45.22973" lon="6.15787">
        <ele>1760.4</ele>
        <time>2021-02-27T13:01:13Z</time>
      </trkpt>
      <trkpt lat="45.22974" lon="6.15789">
        <ele>1760.6</ele>
        <time>2021-02-27T13:01:14Z</time>
      </trkpt>
      <trkpt lat="45.22974" lon="6.15791">
        <ele>1760.4</ele>
        <time>2021-02-27T13:01:15Z</time>
      </trkpt>
      <trkpt lat="45.22974" lon="6.15792">
        <ele>1760.8</ele>
        <time>2021-02-27T13:01:16Z</time>
      </trkpt>
      <trkpt lat="45.22975" lon="6.15794">
        <ele>1761</ele>
        <time>2021-02-27T13:01:17Z</time>
      </trkpt>
      <trkpt lat="45.22975" lon="6.15796">
        <ele>1761.4</ele>
        <time>2021-02-27T13:01:18Z</time>
      </trkpt>
      <trkpt lat="45.22976" lon="6.15799">
        <ele>1761.6</ele>
        <time>2021-02-27T13:01:19Z</time>
      </trkpt>
      <trkpt lat="45.22976" lon="6.15799">
        <ele>1761.8</ele>
        <time>2021-02-27T13:01:20Z</time>
      </trkpt>
      <trkpt lat="45.22978" lon="6.15802">
        <ele>1761.6</ele>
        <time>2021-02-27T13:01:21Z</time>
      </trkpt>
      <trkpt lat="45.22978" lon="6.15802">
        <ele>1761.8</ele>
        <time>2021-02-27T13:01:22Z</time>
      </trkpt>
      <trkpt lat="45.22979" lon="6.15805">
        <ele>1761.8</ele>
        <time>2021-02-27T13:01:23Z</time>
      </trkpt>
      <trkpt lat="45.22979" lon="6.15805">
        <ele>1762</ele>
        <time>2021-02-27T13:01:24Z</time>
      </trkpt>
      <trkpt lat="45.22979" lon="6.15808">
        <ele>1762.2</ele>
        <time>2021-02-27T13:01:25Z</time>
      </trkpt>
      <trkpt lat="45.22979" lon="6.15808">
        <ele>1762.4</ele>
        <time>2021-02-27T13:01:26Z</time>
      </trkpt>
      <trkpt lat="45.2298" lon="6.15811">
        <ele>1762.6</ele>
        <time>2021-02-27T13:01:27Z</time>
      </trkpt>
      <trkpt lat="45.2298" lon="6.15811">
        <ele>1762.6</ele>
        <time>2021-02-27T13:01:28Z</time>
      </trkpt>
      <trkpt lat="45.22981" lon="6.15814">
        <ele>1763</ele>
        <time>2021-02-27T13:01:29Z</time>
      </trkpt>
      <trkpt lat="45.22981" lon="6.15814">
        <ele>1762.4</ele>
        <time>2021-02-27T13:01:30Z</time>
      </trkpt>
      <trkpt lat="45.22981" lon="6.15816">
        <ele>1762.8</ele>
        <time>2021-02-27T13:01:31Z</time>
      </trkpt>
      <trkpt lat="45.22981" lon="6.15818">
        <ele>1762.8</ele>
        <time>2021-02-27T13:01:32Z</time>
      </trkpt>
      <trkpt lat="45.22982" lon="6.15819">
        <ele>1762.8</ele>
        <time>2021-02-27T13:01:33Z</time>
      </trkpt>
      <trkpt lat="45.22982" lon="6.15821">
        <ele>1763</ele>
        <time>2021-02-27T13:01:34Z</time>
      </trkpt>
      <trkpt lat="45.22982" lon="6.15823">
        <ele>1763</ele>
        <time>2021-02-27T13:01:35Z</time>
      </trkpt>
      <trkpt lat="45.22983" lon="6.15825">
        <ele>1763.4</ele>
        <time>2021-02-27T13:01:36Z</time>
      </trkpt>
      <trkpt lat="45.22984" lon="6.15827">
        <ele>1763.4</ele>
        <time>2021-02-27T13:01:37Z</time>
      </trkpt>
      <trkpt lat="45.22984" lon="6.15829">
        <ele>1763.6</ele>
        <time>2021-02-27T13:01:38Z</time>
      </trkpt>
      <trkpt lat="45.22985" lon="6.1583">
        <ele>1763.6</ele>
        <time>2021-02-27T13:01:39Z</time>
      </trkpt>
      <trkpt lat="45.22985" lon="6.15832">
        <ele>1763.6</ele>
        <time>2021-02-27T13:01:40Z</time>
      </trkpt>
      <trkpt lat="45.22986" lon="6.15834">
        <ele>1764</ele>
        <time>2021-02-27T13:01:41Z</time>
      </trkpt>
      <trkpt lat="45.22987" lon="6.15837">
        <ele>1764.2</ele>
        <time>2021-02-27T13:01:42Z</time>
      </trkpt>
      <trkpt lat="45.22987" lon="6.15837">
        <ele>1764.2</ele>
        <time>2021-02-27T13:01:43Z</time>
      </trkpt>
      <trkpt lat="45.22988" lon="6.15841">
        <ele>1764.2</ele>
        <time>2021-02-27T13:01:44Z</time>
      </trkpt>
      <trkpt lat="45.22988" lon="6.15841">
        <ele>1764.6</ele>
        <time>2021-02-27T13:01:45Z</time>
      </trkpt>
      <trkpt lat="45.2299" lon="6.15843">
        <ele>1764.4</ele>
        <time>2021-02-27T13:01:46Z</time>
      </trkpt>
      <trkpt lat="45.2299" lon="6.15843">
        <ele>1764.6</ele>
        <time>2021-02-27T13:01:47Z</time>
      </trkpt>
      <trkpt lat="45.22992" lon="6.15847">
        <ele>1764.6</ele>
        <time>2021-02-27T13:01:48Z</time>
      </trkpt>
      <trkpt lat="45.22992" lon="6.15847">
        <ele>1764.8</ele>
        <time>2021-02-27T13:01:49Z</time>
      </trkpt>
      <trkpt lat="45.22993" lon="6.1585">
        <ele>1764.8</ele>
        <time>2021-02-27T13:01:50Z</time>
      </trkpt>
      <trkpt lat="45.22993" lon="6.1585">
        <ele>1764.6</ele>
        <time>2021-02-27T13:01:51Z</time>
      </trkpt>
      <trkpt lat="45.22994" lon="6.15853">
        <ele>1764.8</ele>
        <time>2021-02-27T13:01:52Z</time>
      </trkpt>
      <trkpt lat="45.22994" lon="6.15853">
        <ele>1765</ele>
        <time>2021-02-27T13:01:53Z</time>
      </trkpt>
      <trkpt lat="45.22995" lon="6.15855">
        <ele>1764.6</ele>
        <time>2021-02-27T13:01:54Z</time>
      </trkpt>
      <trkpt lat="45.22995" lon="6.15856">
        <ele>1765</ele>
        <time>2021-02-27T13:01:55Z</time>
      </trkpt>
      <trkpt lat="45.22996" lon="6.15858">
        <ele>1765.4</ele>
        <time>2021-02-27T13:01:56Z</time>
      </trkpt>
      <trkpt lat="45.22996" lon="6.15859">
        <ele>1765.6</ele>
        <time>2021-02-27T13:01:57Z</time>
      </trkpt>
      <trkpt lat="45.22997" lon="6.15861">
        <ele>1765.4</ele>
        <time>2021-02-27T13:01:58Z</time>
      </trkpt>
      <trkpt lat="45.22998" lon="6.15863">
        <ele>1765.8</ele>
        <time>2021-02-27T13:01:59Z</time>
      </trkpt>
      <trkpt lat="45.22998" lon="6.15864">
        <ele>1766</ele>
        <time>2021-02-27T13:02:00Z</time>
      </trkpt>
      <trkpt lat="45.22999" lon="6.15866">
        <ele>1766</ele>
        <time>2021-02-27T13:02:01Z</time>
      </trkpt>
      <trkpt lat="45.22999" lon="6.15868">
        <ele>1766.2</ele>
        <time>2021-02-27T13:02:02Z</time>
      </trkpt>
      <trkpt lat="45.23" lon="6.15869">
        <ele>1766.8</ele>
        <time>2021-02-27T13:02:03Z</time>
      </trkpt>
      <trkpt lat="45.23001" lon="6.15871">
        <ele>1767</ele>
        <time>2021-02-27T13:02:04Z</time>
      </trkpt>
      <trkpt lat="45.23001" lon="6.15872">
        <ele>1766.8</ele>
        <time>2021-02-27T13:02:05Z</time>
      </trkpt>
      <trkpt lat="45.23002" lon="6.15874">
        <ele>1766.6</ele>
        <time>2021-02-27T13:02:06Z</time>
      </trkpt>
      <trkpt lat="45.23002" lon="6.15876">
        <ele>1766.8</ele>
        <time>2021-02-27T13:02:07Z</time>
      </trkpt>
      <trkpt lat="45.23003" lon="6.15879">
        <ele>1767</ele>
        <time>2021-02-27T13:02:08Z</time>
      </trkpt>
      <trkpt lat="45.23003" lon="6.15879">
        <ele>1767</ele>
        <time>2021-02-27T13:02:09Z</time>
      </trkpt>
      <trkpt lat="45.23005" lon="6.15882">
        <ele>1767.2</ele>
        <time>2021-02-27T13:02:10Z</time>
      </trkpt>
      <trkpt lat="45.23005" lon="6.15882">
        <ele>1767.6</ele>
        <time>2021-02-27T13:02:11Z</time>
      </trkpt>
      <trkpt lat="45.23006" lon="6.15885">
        <ele>1767.4</ele>
        <time>2021-02-27T13:02:12Z</time>
      </trkpt>
      <trkpt lat="45.23006" lon="6.15885">
        <ele>1767.6</ele>
        <time>2021-02-27T13:02:13Z</time>
      </trkpt>
      <trkpt lat="45.23007" lon="6.15888">
        <ele>1768</ele>
        <time>2021-02-27T13:02:14Z</time>
      </trkpt>
      <trkpt lat="45.23007" lon="6.15888">
        <ele>1768.2</ele>
        <time>2021-02-27T13:02:15Z</time>
      </trkpt>
      <trkpt lat="45.23008" lon="6.15891">
        <ele>1768.4</ele>
        <time>2021-02-27T13:02:16Z</time>
      </trkpt>
      <trkpt lat="45.23008" lon="6.15891">
        <ele>1768.6</ele>
        <time>2021-02-27T13:02:17Z</time>
      </trkpt>
      <trkpt lat="45.23009" lon="6.15894">
        <ele>1768.2</ele>
        <time>2021-02-27T13:02:18Z</time>
      </trkpt>
      <trkpt lat="45.23009" lon="6.15894">
        <ele>1768.2</ele>
        <time>2021-02-27T13:02:19Z</time>
      </trkpt>
      <trkpt lat="45.23011" lon="6.15897">
        <ele>1768.6</ele>
        <time>2021-02-27T13:02:20Z</time>
      </trkpt>
      <trkpt lat="45.23011" lon="6.15897">
        <ele>1768.6</ele>
        <time>2021-02-27T13:02:21Z</time>
      </trkpt>
      <trkpt lat="45.23012" lon="6.15901">
        <ele>1769</ele>
        <time>2021-02-27T13:02:22Z</time>
      </trkpt>
      <trkpt lat="45.23012" lon="6.15901">
        <ele>1769.2</ele>
        <time>2021-02-27T13:02:23Z</time>
      </trkpt>
      <trkpt lat="45.23013" lon="6.15903">
        <ele>1769.2</ele>
        <time>2021-02-27T13:02:24Z</time>
      </trkpt>
      <trkpt lat="45.23013" lon="6.15903">
        <ele>1768.8</ele>
        <time>2021-02-27T13:02:25Z</time>
      </trkpt>
      <trkpt lat="45.23014" lon="6.15907">
        <ele>1769.2</ele>
        <time>2021-02-27T13:02:26Z</time>
      </trkpt>
      <trkpt lat="45.23014" lon="6.15907">
        <ele>1769.6</ele>
        <time>2021-02-27T13:02:27Z</time>
      </trkpt>
      <trkpt lat="45.23015" lon="6.1591">
        <ele>1769.6</ele>
        <time>2021-02-27T13:02:28Z</time>
      </trkpt>
      <trkpt lat="45.23015" lon="6.1591">
        <ele>1770</ele>
        <time>2021-02-27T13:02:29Z</time>
      </trkpt>
      <trkpt lat="45.23015" lon="6.1591">
        <ele>1770.2</ele>
        <time>2021-02-27T13:02:30Z</time>
      </trkpt>
      <trkpt lat="45.23017" lon="6.15913">
        <ele>1770.4</ele>
        <time>2021-02-27T13:02:31Z</time>
      </trkpt>
      <trkpt lat="45.23017" lon="6.15913">
        <ele>1770.4</ele>
        <time>2021-02-27T13:02:32Z</time>
      </trkpt>
      <trkpt lat="45.23019" lon="6.15916">
        <ele>1770.8</ele>
        <time>2021-02-27T13:02:33Z</time>
      </trkpt>
      <trkpt lat="45.23019" lon="6.15916">
        <ele>1771</ele>
        <time>2021-02-27T13:02:34Z</time>
      </trkpt>
      <trkpt lat="45.23021" lon="6.15919">
        <ele>1770.6</ele>
        <time>2021-02-27T13:02:35Z</time>
      </trkpt>
      <trkpt lat="45.23021" lon="6.15919">
        <ele>1770.8</ele>
        <time>2021-02-27T13:02:36Z</time>
      </trkpt>
      <trkpt lat="45.23023" lon="6.15922">
        <ele>1771.2</ele>
        <time>2021-02-27T13:02:37Z</time>
      </trkpt>
      <trkpt lat="45.23023" lon="6.15922">
        <ele>1771</ele>
        <time>2021-02-27T13:02:38Z</time>
      </trkpt>
      <trkpt lat="45.23023" lon="6.15922">
        <ele>1771</ele>
        <time>2021-02-27T13:02:39Z</time>
      </trkpt>
      <trkpt lat="45.23024" lon="6.15926">
        <ele>1771.4</ele>
        <time>2021-02-27T13:02:40Z</time>
      </trkpt>
      <trkpt lat="45.23024" lon="6.15926">
        <ele>1771.4</ele>
        <time>2021-02-27T13:02:41Z</time>
      </trkpt>
      <trkpt lat="45.23026" lon="6.15928">
        <ele>1771.4</ele>
        <time>2021-02-27T13:02:42Z</time>
      </trkpt>
      <trkpt lat="45.23026" lon="6.15928">
        <ele>1772</ele>
        <time>2021-02-27T13:02:43Z</time>
      </trkpt>
      <trkpt lat="45.23027" lon="6.1593">
        <ele>1771.8</ele>
        <time>2021-02-27T13:02:44Z</time>
      </trkpt>
      <trkpt lat="45.23027" lon="6.1593">
        <ele>1771.4</ele>
        <time>2021-02-27T13:02:45Z</time>
      </trkpt>
      <trkpt lat="45.23029" lon="6.15932">
        <ele>1771.8</ele>
        <time>2021-02-27T13:02:46Z</time>
      </trkpt>
      <trkpt lat="45.23029" lon="6.15932">
        <ele>1772.2</ele>
        <time>2021-02-27T13:02:47Z</time>
      </trkpt>
      <trkpt lat="45.23031" lon="6.15934">
        <ele>1772</ele>
        <time>2021-02-27T13:02:48Z</time>
      </trkpt>
      <trkpt lat="45.23031" lon="6.15934">
        <ele>1772</ele>
        <time>2021-02-27T13:02:49Z</time>
      </trkpt>
      <trkpt lat="45.23032" lon="6.15936">
        <ele>1772.4</ele>
        <time>2021-02-27T13:02:50Z</time>
      </trkpt>
      <trkpt lat="45.23032" lon="6.15936">
        <ele>1772.6</ele>
        <time>2021-02-27T13:02:51Z</time>
      </trkpt>
      <trkpt lat="45.23032" lon="6.15936">
        <ele>1772.8</ele>
        <time>2021-02-27T13:02:52Z</time>
      </trkpt>
      <trkpt lat="45.23034" lon="6.15938">
        <ele>1773</ele>
        <time>2021-02-27T13:02:53Z</time>
      </trkpt>
      <trkpt lat="45.23034" lon="6.15938">
        <ele>1773</ele>
        <time>2021-02-27T13:02:54Z</time>
      </trkpt>
      <trkpt lat="45.23036" lon="6.1594">
        <ele>1773.2</ele>
        <time>2021-02-27T13:02:55Z</time>
      </trkpt>
      <trkpt lat="45.23036" lon="6.1594">
        <ele>1773.2</ele>
        <time>2021-02-27T13:02:56Z</time>
      </trkpt>
      <trkpt lat="45.23038" lon="6.15942">
        <ele>1773.2</ele>
        <time>2021-02-27T13:02:57Z</time>
      </trkpt>
      <trkpt lat="45.23038" lon="6.15942">
        <ele>1773.4</ele>
        <time>2021-02-27T13:02:58Z</time>
      </trkpt>
      <trkpt lat="45.23039" lon="6.15944">
        <ele>1773.4</ele>
        <time>2021-02-27T13:02:59Z</time>
      </trkpt>
      <trkpt lat="45.23039" lon="6.15944">
        <ele>1774</ele>
        <time>2021-02-27T13:03:00Z</time>
      </trkpt>
      <trkpt lat="45.23041" lon="6.15945">
        <ele>1774</ele>
        <time>2021-02-27T13:03:01Z</time>
      </trkpt>
      <trkpt lat="45.23041" lon="6.15945">
        <ele>1774</ele>
        <time>2021-02-27T13:03:02Z</time>
      </trkpt>
      <trkpt lat="45.23043" lon="6.15946">
        <ele>1773.6</ele>
        <time>2021-02-27T13:03:03Z</time>
      </trkpt>
      <trkpt lat="45.23043" lon="6.15946">
        <ele>1773.6</ele>
        <time>2021-02-27T13:03:04Z</time>
      </trkpt>
      <trkpt lat="45.23046" lon="6.15948">
        <ele>1773.6</ele>
        <time>2021-02-27T13:03:05Z</time>
      </trkpt>
      <trkpt lat="45.23046" lon="6.15948">
        <ele>1773.4</ele>
        <time>2021-02-27T13:03:06Z</time>
      </trkpt>
      <trkpt lat="45.23048" lon="6.1595">
        <ele>1773.4</ele>
        <time>2021-02-27T13:03:07Z</time>
      </trkpt>
      <trkpt lat="45.23048" lon="6.1595">
        <ele>1773.6</ele>
        <time>2021-02-27T13:03:08Z</time>
      </trkpt>
      <trkpt lat="45.2305" lon="6.15951">
        <ele>1773.4</ele>
        <time>2021-02-27T13:03:09Z</time>
      </trkpt>
      <trkpt lat="45.2305" lon="6.15951">
        <ele>1773.2</ele>
        <time>2021-02-27T13:03:10Z</time>
      </trkpt>
      <trkpt lat="45.23051" lon="6.15954">
        <ele>1773.4</ele>
        <time>2021-02-27T13:03:11Z</time>
      </trkpt>
      <trkpt lat="45.23051" lon="6.15954">
        <ele>1773.4</ele>
        <time>2021-02-27T13:03:12Z</time>
      </trkpt>
      <trkpt lat="45.23053" lon="6.15955">
        <ele>1773.8</ele>
        <time>2021-02-27T13:03:13Z</time>
      </trkpt>
      <trkpt lat="45.23053" lon="6.15955">
        <ele>1773.8</ele>
        <time>2021-02-27T13:03:14Z</time>
      </trkpt>
      <trkpt lat="45.23056" lon="6.15957">
        <ele>1773.4</ele>
        <time>2021-02-27T13:03:15Z</time>
      </trkpt>
      <trkpt lat="45.23056" lon="6.15957">
        <ele>1773.6</ele>
        <time>2021-02-27T13:03:16Z</time>
      </trkpt>
      <trkpt lat="45.23058" lon="6.15959">
        <ele>1773.6</ele>
        <time>2021-02-27T13:03:17Z</time>
      </trkpt>
      <trkpt lat="45.23058" lon="6.15959">
        <ele>1773.4</ele>
        <time>2021-02-27T13:03:18Z</time>
      </trkpt>
      <trkpt lat="45.2306" lon="6.15962">
        <ele>1773.6</ele>
        <time>2021-02-27T13:03:19Z</time>
      </trkpt>
      <trkpt lat="45.2306" lon="6.15962">
        <ele>1773.8</ele>
        <time>2021-02-27T13:03:20Z</time>
      </trkpt>
      <trkpt lat="45.23062" lon="6.15964">
        <ele>1773.6</ele>
        <time>2021-02-27T13:03:21Z</time>
      </trkpt>
      <trkpt lat="45.23062" lon="6.15964">
        <ele>1773.8</ele>
        <time>2021-02-27T13:03:22Z</time>
      </trkpt>
      <trkpt lat="45.23062" lon="6.15964">
        <ele>1773.8</ele>
        <time>2021-02-27T13:03:23Z</time>
      </trkpt>
      <trkpt lat="45.23064" lon="6.15967">
        <ele>1774</ele>
        <time>2021-02-27T13:03:24Z</time>
      </trkpt>
      <trkpt lat="45.23064" lon="6.15967">
        <ele>1774.2</ele>
        <time>2021-02-27T13:03:25Z</time>
      </trkpt>
      <trkpt lat="45.23066" lon="6.15969">
        <ele>1774.2</ele>
        <time>2021-02-27T13:03:26Z</time>
      </trkpt>
      <trkpt lat="45.23066" lon="6.15969">
        <ele>1774.4</ele>
        <time>2021-02-27T13:03:27Z</time>
      </trkpt>
      <trkpt lat="45.23068" lon="6.15971">
        <ele>1774</ele>
        <time>2021-02-27T13:03:28Z</time>
      </trkpt>
      <trkpt lat="45.23068" lon="6.15971">
        <ele>1774</ele>
        <time>2021-02-27T13:03:29Z</time>
      </trkpt>
      <trkpt lat="45.23068" lon="6.15971">
        <ele>1774.2</ele>
        <time>2021-02-27T13:03:30Z</time>
      </trkpt>
      <trkpt lat="45.23071" lon="6.15974">
        <ele>1774.8</ele>
        <time>2021-02-27T13:03:31Z</time>
      </trkpt>
      <trkpt lat="45.23071" lon="6.15974">
        <ele>1774.8</ele>
        <time>2021-02-27T13:03:32Z</time>
      </trkpt>
      <trkpt lat="45.23072" lon="6.15977">
        <ele>1775</ele>
        <time>2021-02-27T13:03:33Z</time>
      </trkpt>
      <trkpt lat="45.23072" lon="6.15977">
        <ele>1775</ele>
        <time>2021-02-27T13:03:34Z</time>
      </trkpt>
      <trkpt lat="45.23073" lon="6.15979">
        <ele>1775</ele>
        <time>2021-02-27T13:03:35Z</time>
      </trkpt>
      <trkpt lat="45.23074" lon="6.1598">
        <ele>1775.4</ele>
        <time>2021-02-27T13:03:36Z</time>
      </trkpt>
      <trkpt lat="45.23074" lon="6.15982">
        <ele>1775.6</ele>
        <time>2021-02-27T13:03:37Z</time>
      </trkpt>
      <trkpt lat="45.23075" lon="6.15983">
        <ele>1775.2</ele>
        <time>2021-02-27T13:03:38Z</time>
      </trkpt>
      <trkpt lat="45.23077" lon="6.15986">
        <ele>1775.2</ele>
        <time>2021-02-27T13:03:39Z</time>
      </trkpt>
      <trkpt lat="45.23077" lon="6.15986">
        <ele>1775.6</ele>
        <time>2021-02-27T13:03:40Z</time>
      </trkpt>
      <trkpt lat="45.23077" lon="6.15988">
        <ele>1775.6</ele>
        <time>2021-02-27T13:03:41Z</time>
      </trkpt>
      <trkpt lat="45.23078" lon="6.15989">
        <ele>1775.8</ele>
        <time>2021-02-27T13:03:42Z</time>
      </trkpt>
      <trkpt lat="45.23079" lon="6.15991">
        <ele>1775.8</ele>
        <time>2021-02-27T13:03:43Z</time>
      </trkpt>
      <trkpt lat="45.2308" lon="6.15992">
        <ele>1776</ele>
        <time>2021-02-27T13:03:44Z</time>
      </trkpt>
      <trkpt lat="45.2308" lon="6.15993">
        <ele>1776</ele>
        <time>2021-02-27T13:03:45Z</time>
      </trkpt>
      <trkpt lat="45.23081" lon="6.15995">
        <ele>1776.2</ele>
        <time>2021-02-27T13:03:46Z</time>
      </trkpt>
      <trkpt lat="45.23082" lon="6.15997">
        <ele>1776.2</ele>
        <time>2021-02-27T13:03:47Z</time>
      </trkpt>
      <trkpt lat="45.23083" lon="6.15998">
        <ele>1776.6</ele>
        <time>2021-02-27T13:03:48Z</time>
      </trkpt>
      <trkpt lat="45.23084" lon="6.16">
        <ele>1776.4</ele>
        <time>2021-02-27T13:03:49Z</time>
      </trkpt>
      <trkpt lat="45.23085" lon="6.16002">
        <ele>1776.2</ele>
        <time>2021-02-27T13:03:50Z</time>
      </trkpt>
      <trkpt lat="45.23086" lon="6.16003">
        <ele>1776.2</ele>
        <time>2021-02-27T13:03:51Z</time>
      </trkpt>
      <trkpt lat="45.23087" lon="6.16005">
        <ele>1776.4</ele>
        <time>2021-02-27T13:03:52Z</time>
      </trkpt>
      <trkpt lat="45.23087" lon="6.16006">
        <ele>1777</ele>
        <time>2021-02-27T13:03:53Z</time>
      </trkpt>
      <trkpt lat="45.23087" lon="6.16008">
        <ele>1777</ele>
        <time>2021-02-27T13:03:54Z</time>
      </trkpt>
      <trkpt lat="45.23087" lon="6.16009">
        <ele>1777</ele>
        <time>2021-02-27T13:03:55Z</time>
      </trkpt>
      <trkpt lat="45.23088" lon="6.1601">
        <ele>1777.2</ele>
        <time>2021-02-27T13:03:56Z</time>
      </trkpt>
      <trkpt lat="45.23088" lon="6.16012">
        <ele>1777.4</ele>
        <time>2021-02-27T13:03:57Z</time>
      </trkpt>
      <trkpt lat="45.23088" lon="6.16013">
        <ele>1777.6</ele>
        <time>2021-02-27T13:03:58Z</time>
      </trkpt>
      <trkpt lat="45.23088" lon="6.16014">
        <ele>1777.6</ele>
        <time>2021-02-27T13:03:59Z</time>
      </trkpt>
      <trkpt lat="45.23088" lon="6.16016">
        <ele>1777.8</ele>
        <time>2021-02-27T13:04:00Z</time>
      </trkpt>
      <trkpt lat="45.23089" lon="6.16017">
        <ele>1777.6</ele>
        <time>2021-02-27T13:04:01Z</time>
      </trkpt>
      <trkpt lat="45.23089" lon="6.16018">
        <ele>1777.8</ele>
        <time>2021-02-27T13:04:02Z</time>
      </trkpt>
      <trkpt lat="45.2309" lon="6.1602">
        <ele>1778</ele>
        <time>2021-02-27T13:04:03Z</time>
      </trkpt>
      <trkpt lat="45.23091" lon="6.16021">
        <ele>1778.2</ele>
        <time>2021-02-27T13:04:04Z</time>
      </trkpt>
      <trkpt lat="45.23092" lon="6.16022">
        <ele>1778.2</ele>
        <time>2021-02-27T13:04:05Z</time>
      </trkpt>
      <trkpt lat="45.23093" lon="6.16024">
        <ele>1778.2</ele>
        <time>2021-02-27T13:04:06Z</time>
      </trkpt>
      <trkpt lat="45.23094" lon="6.16025">
        <ele>1778.4</ele>
        <time>2021-02-27T13:04:07Z</time>
      </trkpt>
      <trkpt lat="45.23095" lon="6.16027">
        <ele>1778.6</ele>
        <time>2021-02-27T13:04:08Z</time>
      </trkpt>
      <trkpt lat="45.23096" lon="6.16028">
        <ele>1778.6</ele>
        <time>2021-02-27T13:04:09Z</time>
      </trkpt>
      <trkpt lat="45.23097" lon="6.1603">
        <ele>1779</ele>
        <time>2021-02-27T13:04:10Z</time>
      </trkpt>
      <trkpt lat="45.23099" lon="6.16031">
        <ele>1778.8</ele>
        <time>2021-02-27T13:04:11Z</time>
      </trkpt>
      <trkpt lat="45.231" lon="6.16033">
        <ele>1779.2</ele>
        <time>2021-02-27T13:04:12Z</time>
      </trkpt>
      <trkpt lat="45.23101" lon="6.16034">
        <ele>1779.4</ele>
        <time>2021-02-27T13:04:13Z</time>
      </trkpt>
      <trkpt lat="45.23101" lon="6.16036">
        <ele>1779.6</ele>
        <time>2021-02-27T13:04:14Z</time>
      </trkpt>
      <trkpt lat="45.23102" lon="6.16037">
        <ele>1779.4</ele>
        <time>2021-02-27T13:04:15Z</time>
      </trkpt>
      <trkpt lat="45.23103" lon="6.16039">
        <ele>1779.8</ele>
        <time>2021-02-27T13:04:16Z</time>
      </trkpt>
      <trkpt lat="45.23103" lon="6.1604">
        <ele>1779.6</ele>
        <time>2021-02-27T13:04:17Z</time>
      </trkpt>
      <trkpt lat="45.23104" lon="6.16042">
        <ele>1779.6</ele>
        <time>2021-02-27T13:04:18Z</time>
      </trkpt>
      <trkpt lat="45.23105" lon="6.16043">
        <ele>1779.4</ele>
        <time>2021-02-27T13:04:19Z</time>
      </trkpt>
      <trkpt lat="45.23106" lon="6.16045">
        <ele>1779.6</ele>
        <time>2021-02-27T13:04:20Z</time>
      </trkpt>
      <trkpt lat="45.23106" lon="6.16046">
        <ele>1779.4</ele>
        <time>2021-02-27T13:04:21Z</time>
      </trkpt>
      <trkpt lat="45.23107" lon="6.16048">
        <ele>1779.4</ele>
        <time>2021-02-27T13:04:22Z</time>
      </trkpt>
      <trkpt lat="45.23108" lon="6.16049">
        <ele>1779.2</ele>
        <time>2021-02-27T13:04:23Z</time>
      </trkpt>
      <trkpt lat="45.23109" lon="6.16051">
        <ele>1779.4</ele>
        <time>2021-02-27T13:04:24Z</time>
      </trkpt>
      <trkpt lat="45.23109" lon="6.16052">
        <ele>1780</ele>
        <time>2021-02-27T13:04:25Z</time>
      </trkpt>
      <trkpt lat="45.2311" lon="6.16054">
        <ele>1780</ele>
        <time>2021-02-27T13:04:26Z</time>
      </trkpt>
      <trkpt lat="45.23111" lon="6.16055">
        <ele>1779.8</ele>
        <time>2021-02-27T13:04:27Z</time>
      </trkpt>
      <trkpt lat="45.23111" lon="6.16056">
        <ele>1780.2</ele>
        <time>2021-02-27T13:04:28Z</time>
      </trkpt>
      <trkpt lat="45.23114" lon="6.1606">
        <ele>1779.6</ele>
        <time>2021-02-27T13:04:29Z</time>
      </trkpt>
      <trkpt lat="45.23114" lon="6.1606">
        <ele>1779.8</ele>
        <time>2021-02-27T13:04:30Z</time>
      </trkpt>
      <trkpt lat="45.23115" lon="6.16061">
        <ele>1780</ele>
        <time>2021-02-27T13:04:31Z</time>
      </trkpt>
      <trkpt lat="45.23115" lon="6.16063">
        <ele>1780.4</ele>
        <time>2021-02-27T13:04:32Z</time>
      </trkpt>
      <trkpt lat="45.23116" lon="6.16064">
        <ele>1780.6</ele>
        <time>2021-02-27T13:04:33Z</time>
      </trkpt>
      <trkpt lat="45.23117" lon="6.16066">
        <ele>1780.4</ele>
        <time>2021-02-27T13:04:34Z</time>
      </trkpt>
      <trkpt lat="45.23119" lon="6.16069">
        <ele>1780.4</ele>
        <time>2021-02-27T13:04:35Z</time>
      </trkpt>
      <trkpt lat="45.23119" lon="6.16069">
        <ele>1780.8</ele>
        <time>2021-02-27T13:04:36Z</time>
      </trkpt>
      <trkpt lat="45.23121" lon="6.16072">
        <ele>1780.8</ele>
        <time>2021-02-27T13:04:37Z</time>
      </trkpt>
      <trkpt lat="45.23121" lon="6.16072">
        <ele>1780.8</ele>
        <time>2021-02-27T13:04:38Z</time>
      </trkpt>
      <trkpt lat="45.23123" lon="6.16075">
        <ele>1780.8</ele>
        <time>2021-02-27T13:04:39Z</time>
      </trkpt>
      <trkpt lat="45.23123" lon="6.16075">
        <ele>1781</ele>
        <time>2021-02-27T13:04:40Z</time>
      </trkpt>
      <trkpt lat="45.23124" lon="6.16078">
        <ele>1781</ele>
        <time>2021-02-27T13:04:41Z</time>
      </trkpt>
      <trkpt lat="45.23124" lon="6.16078">
        <ele>1781.2</ele>
        <time>2021-02-27T13:04:42Z</time>
      </trkpt>
      <trkpt lat="45.23125" lon="6.16082">
        <ele>1781</ele>
        <time>2021-02-27T13:04:43Z</time>
      </trkpt>
      <trkpt lat="45.23125" lon="6.16082">
        <ele>1781.2</ele>
        <time>2021-02-27T13:04:44Z</time>
      </trkpt>
      <trkpt lat="45.23126" lon="6.16085">
        <ele>1781.4</ele>
        <time>2021-02-27T13:04:45Z</time>
      </trkpt>
      <trkpt lat="45.23126" lon="6.16085">
        <ele>1781.6</ele>
        <time>2021-02-27T13:04:46Z</time>
      </trkpt>
      <trkpt lat="45.23126" lon="6.16085">
        <ele>1781.8</ele>
        <time>2021-02-27T13:04:47Z</time>
      </trkpt>
      <trkpt lat="45.23127" lon="6.1609">
        <ele>1781.8</ele>
        <time>2021-02-27T13:04:48Z</time>
      </trkpt>
      <trkpt lat="45.23127" lon="6.1609">
        <ele>1782</ele>
        <time>2021-02-27T13:04:49Z</time>
      </trkpt>
      <trkpt lat="45.23128" lon="6.16092">
        <ele>1782</ele>
        <time>2021-02-27T13:04:50Z</time>
      </trkpt>
      <trkpt lat="45.23128" lon="6.16092">
        <ele>1782</ele>
        <time>2021-02-27T13:04:51Z</time>
      </trkpt>
      <trkpt lat="45.23129" lon="6.16095">
        <ele>1782</ele>
        <time>2021-02-27T13:04:52Z</time>
      </trkpt>
      <trkpt lat="45.23129" lon="6.16095">
        <ele>1782.4</ele>
        <time>2021-02-27T13:04:53Z</time>
      </trkpt>
      <trkpt lat="45.23131" lon="6.16098">
        <ele>1782</ele>
        <time>2021-02-27T13:04:54Z</time>
      </trkpt>
      <trkpt lat="45.23131" lon="6.16098">
        <ele>1782.6</ele>
        <time>2021-02-27T13:04:55Z</time>
      </trkpt>
      <trkpt lat="45.23132" lon="6.16101">
        <ele>1783.2</ele>
        <time>2021-02-27T13:04:56Z</time>
      </trkpt>
      <trkpt lat="45.23132" lon="6.16101">
        <ele>1783.4</ele>
        <time>2021-02-27T13:04:57Z</time>
      </trkpt>
      <trkpt lat="45.23133" lon="6.16104">
        <ele>1783.4</ele>
        <time>2021-02-27T13:04:58Z</time>
      </trkpt>
      <trkpt lat="45.23133" lon="6.16104">
        <ele>1783.4</ele>
        <time>2021-02-27T13:04:59Z</time>
      </trkpt>
      <trkpt lat="45.23135" lon="6.16107">
        <ele>1783.2</ele>
        <time>2021-02-27T13:05:00Z</time>
      </trkpt>
      <trkpt lat="45.23135" lon="6.16107">
        <ele>1783.4</ele>
        <time>2021-02-27T13:05:01Z</time>
      </trkpt>
      <trkpt lat="45.23136" lon="6.16109">
        <ele>1783.4</ele>
        <time>2021-02-27T13:05:02Z</time>
      </trkpt>
      <trkpt lat="45.23136" lon="6.16109">
        <ele>1784</ele>
        <time>2021-02-27T13:05:03Z</time>
      </trkpt>
      <trkpt lat="45.23138" lon="6.16112">
        <ele>1783.8</ele>
        <time>2021-02-27T13:05:04Z</time>
      </trkpt>
      <trkpt lat="45.23138" lon="6.16112">
        <ele>1784</ele>
        <time>2021-02-27T13:05:05Z</time>
      </trkpt>
      <trkpt lat="45.23139" lon="6.16113">
        <ele>1784.4</ele>
        <time>2021-02-27T13:05:06Z</time>
      </trkpt>
      <trkpt lat="45.2314" lon="6.16114">
        <ele>1784.8</ele>
        <time>2021-02-27T13:05:07Z</time>
      </trkpt>
      <trkpt lat="45.23141" lon="6.16115">
        <ele>1784.6</ele>
        <time>2021-02-27T13:05:08Z</time>
      </trkpt>
      <trkpt lat="45.23142" lon="6.16117">
        <ele>1784.2</ele>
        <time>2021-02-27T13:05:09Z</time>
      </trkpt>
      <trkpt lat="45.23142" lon="6.16118">
        <ele>1784.6</ele>
        <time>2021-02-27T13:05:10Z</time>
      </trkpt>
      <trkpt lat="45.23143" lon="6.16119">
        <ele>1785</ele>
        <time>2021-02-27T13:05:11Z</time>
      </trkpt>
      <trkpt lat="45.23144" lon="6.1612">
        <ele>1785.4</ele>
        <time>2021-02-27T13:05:12Z</time>
      </trkpt>
      <trkpt lat="45.23145" lon="6.16121">
        <ele>1785.2</ele>
        <time>2021-02-27T13:05:13Z</time>
      </trkpt>
      <trkpt lat="45.23148" lon="6.16124">
        <ele>1785.6</ele>
        <time>2021-02-27T13:05:14Z</time>
      </trkpt>
      <trkpt lat="45.2315" lon="6.16125">
        <ele>1786</ele>
        <time>2021-02-27T13:05:15Z</time>
      </trkpt>
      <trkpt lat="45.2315" lon="6.16125">
        <ele>1786</ele>
        <time>2021-02-27T13:05:16Z</time>
      </trkpt>
      <trkpt lat="45.23151" lon="6.16125">
        <ele>1786</ele>
        <time>2021-02-27T13:05:17Z</time>
      </trkpt>
      <trkpt lat="45.23153" lon="6.16126">
        <ele>1786.2</ele>
        <time>2021-02-27T13:05:18Z</time>
      </trkpt>
      <trkpt lat="45.23154" lon="6.16127">
        <ele>1785.8</ele>
        <time>2021-02-27T13:05:19Z</time>
      </trkpt>
      <trkpt lat="45.23155" lon="6.16128">
        <ele>1786.2</ele>
        <time>2021-02-27T13:05:20Z</time>
      </trkpt>
      <trkpt lat="45.23156" lon="6.16129">
        <ele>1786.2</ele>
        <time>2021-02-27T13:05:21Z</time>
      </trkpt>
      <trkpt lat="45.23158" lon="6.1613">
        <ele>1786.4</ele>
        <time>2021-02-27T13:05:22Z</time>
      </trkpt>
      <trkpt lat="45.23159" lon="6.16131">
        <ele>1786.4</ele>
        <time>2021-02-27T13:05:23Z</time>
      </trkpt>
      <trkpt lat="45.23161" lon="6.16132">
        <ele>1786.2</ele>
        <time>2021-02-27T13:05:24Z</time>
      </trkpt>
      <trkpt lat="45.23161" lon="6.16132">
        <ele>1786.2</ele>
        <time>2021-02-27T13:05:25Z</time>
      </trkpt>
      <trkpt lat="45.23162" lon="6.16135">
        <ele>1786.4</ele>
        <time>2021-02-27T13:05:26Z</time>
      </trkpt>
      <trkpt lat="45.23162" lon="6.16135">
        <ele>1786.2</ele>
        <time>2021-02-27T13:05:27Z</time>
      </trkpt>
      <trkpt lat="45.23164" lon="6.16137">
        <ele>1786.4</ele>
        <time>2021-02-27T13:05:28Z</time>
      </trkpt>
      <trkpt lat="45.23164" lon="6.16137">
        <ele>1786.4</ele>
        <time>2021-02-27T13:05:29Z</time>
      </trkpt>
      <trkpt lat="45.23166" lon="6.1614">
        <ele>1786.8</ele>
        <time>2021-02-27T13:05:30Z</time>
      </trkpt>
      <trkpt lat="45.23166" lon="6.1614">
        <ele>1786.8</ele>
        <time>2021-02-27T13:05:31Z</time>
      </trkpt>
      <trkpt lat="45.23168" lon="6.16142">
        <ele>1786.6</ele>
        <time>2021-02-27T13:05:32Z</time>
      </trkpt>
      <trkpt lat="45.23168" lon="6.16142">
        <ele>1786.8</ele>
        <time>2021-02-27T13:05:33Z</time>
      </trkpt>
      <trkpt lat="45.2317" lon="6.16145">
        <ele>1787.2</ele>
        <time>2021-02-27T13:05:34Z</time>
      </trkpt>
      <trkpt lat="45.2317" lon="6.16145">
        <ele>1787</ele>
        <time>2021-02-27T13:05:35Z</time>
      </trkpt>
      <trkpt lat="45.23172" lon="6.16148">
        <ele>1787</ele>
        <time>2021-02-27T13:05:36Z</time>
      </trkpt>
      <trkpt lat="45.23173" lon="6.1615">
        <ele>1787.2</ele>
        <time>2021-02-27T13:05:37Z</time>
      </trkpt>
      <trkpt lat="45.23173" lon="6.1615">
        <ele>1787.4</ele>
        <time>2021-02-27T13:05:38Z</time>
      </trkpt>
      <trkpt lat="45.23174" lon="6.16153">
        <ele>1787.4</ele>
        <time>2021-02-27T13:05:39Z</time>
      </trkpt>
      <trkpt lat="45.23174" lon="6.16153">
        <ele>1787.6</ele>
        <time>2021-02-27T13:05:40Z</time>
      </trkpt>
      <trkpt lat="45.23175" lon="6.16156">
        <ele>1787.8</ele>
        <time>2021-02-27T13:05:41Z</time>
      </trkpt>
      <trkpt lat="45.23175" lon="6.16156">
        <ele>1788.4</ele>
        <time>2021-02-27T13:05:42Z</time>
      </trkpt>
      <trkpt lat="45.23177" lon="6.16159">
        <ele>1788</ele>
        <time>2021-02-27T13:05:43Z</time>
      </trkpt>
      <trkpt lat="45.23177" lon="6.16159">
        <ele>1788</ele>
        <time>2021-02-27T13:05:44Z</time>
      </trkpt>
      <trkpt lat="45.23178" lon="6.16163">
        <ele>1788.4</ele>
        <time>2021-02-27T13:05:45Z</time>
      </trkpt>
      <trkpt lat="45.23178" lon="6.16163">
        <ele>1788.8</ele>
        <time>2021-02-27T13:05:46Z</time>
      </trkpt>
      <trkpt lat="45.2318" lon="6.16166">
        <ele>1788.8</ele>
        <time>2021-02-27T13:05:47Z</time>
      </trkpt>
      <trkpt lat="45.2318" lon="6.16166">
        <ele>1788.6</ele>
        <time>2021-02-27T13:05:48Z</time>
      </trkpt>
      <trkpt lat="45.23181" lon="6.16169">
        <ele>1788.8</ele>
        <time>2021-02-27T13:05:49Z</time>
      </trkpt>
      <trkpt lat="45.23181" lon="6.16169">
        <ele>1789.8</ele>
        <time>2021-02-27T13:05:50Z</time>
      </trkpt>
      <trkpt lat="45.23182" lon="6.16172">
        <ele>1790</ele>
        <time>2021-02-27T13:05:51Z</time>
      </trkpt>
      <trkpt lat="45.23182" lon="6.16172">
        <ele>1789.6</ele>
        <time>2021-02-27T13:05:52Z</time>
      </trkpt>
      <trkpt lat="45.23182" lon="6.16175">
        <ele>1789.8</ele>
        <time>2021-02-27T13:05:53Z</time>
      </trkpt>
      <trkpt lat="45.23182" lon="6.16175">
        <ele>1790</ele>
        <time>2021-02-27T13:05:54Z</time>
      </trkpt>
      <trkpt lat="45.23182" lon="6.16178">
        <ele>1790.2</ele>
        <time>2021-02-27T13:05:55Z</time>
      </trkpt>
      <trkpt lat="45.23182" lon="6.16178">
        <ele>1790.2</ele>
        <time>2021-02-27T13:05:56Z</time>
      </trkpt>
      <trkpt lat="45.23182" lon="6.16178">
        <ele>1790.4</ele>
        <time>2021-02-27T13:05:57Z</time>
      </trkpt>
      <trkpt lat="45.23183" lon="6.16183">
        <ele>1790.4</ele>
        <time>2021-02-27T13:05:58Z</time>
      </trkpt>
      <trkpt lat="45.23183" lon="6.16183">
        <ele>1790.2</ele>
        <time>2021-02-27T13:05:59Z</time>
      </trkpt>
      <trkpt lat="45.23185" lon="6.16186">
        <ele>1790.4</ele>
        <time>2021-02-27T13:06:00Z</time>
      </trkpt>
      <trkpt lat="45.23185" lon="6.16186">
        <ele>1790.4</ele>
        <time>2021-02-27T13:06:01Z</time>
      </trkpt>
      <trkpt lat="45.23186" lon="6.16188">
        <ele>1790.4</ele>
        <time>2021-02-27T13:06:02Z</time>
      </trkpt>
      <trkpt lat="45.23186" lon="6.16188">
        <ele>1790.6</ele>
        <time>2021-02-27T13:06:03Z</time>
      </trkpt>
      <trkpt lat="45.23186" lon="6.16191">
        <ele>1791.2</ele>
        <time>2021-02-27T13:06:04Z</time>
      </trkpt>
      <trkpt lat="45.23186" lon="6.16191">
        <ele>1791.2</ele>
        <time>2021-02-27T13:06:05Z</time>
      </trkpt>
      <trkpt lat="45.23187" lon="6.16194">
        <ele>1791.4</ele>
        <time>2021-02-27T13:06:06Z</time>
      </trkpt>
      <trkpt lat="45.23187" lon="6.16194">
        <ele>1791.4</ele>
        <time>2021-02-27T13:06:07Z</time>
      </trkpt>
      <trkpt lat="45.23187" lon="6.16197">
        <ele>1791</ele>
        <time>2021-02-27T13:06:08Z</time>
      </trkpt>
      <trkpt lat="45.23187" lon="6.16197">
        <ele>1791.2</ele>
        <time>2021-02-27T13:06:09Z</time>
      </trkpt>
      <trkpt lat="45.23188" lon="6.162">
        <ele>1791.2</ele>
        <time>2021-02-27T13:06:10Z</time>
      </trkpt>
      <trkpt lat="45.23188" lon="6.162">
        <ele>1791.2</ele>
        <time>2021-02-27T13:06:11Z</time>
      </trkpt>
      <trkpt lat="45.23189" lon="6.16203">
        <ele>1791.4</ele>
        <time>2021-02-27T13:06:12Z</time>
      </trkpt>
      <trkpt lat="45.23189" lon="6.16203">
        <ele>1791.6</ele>
        <time>2021-02-27T13:06:13Z</time>
      </trkpt>
      <trkpt lat="45.2319" lon="6.16206">
        <ele>1791.6</ele>
        <time>2021-02-27T13:06:14Z</time>
      </trkpt>
      <trkpt lat="45.2319" lon="6.16206">
        <ele>1791.6</ele>
        <time>2021-02-27T13:06:15Z</time>
      </trkpt>
      <trkpt lat="45.2319" lon="6.1621">
        <ele>1792</ele>
        <time>2021-02-27T13:06:16Z</time>
      </trkpt>
      <trkpt lat="45.2319" lon="6.1621">
        <ele>1792</ele>
        <time>2021-02-27T13:06:17Z</time>
      </trkpt>
      <trkpt lat="45.23191" lon="6.16213">
        <ele>1791.8</ele>
        <time>2021-02-27T13:06:18Z</time>
      </trkpt>
      <trkpt lat="45.23191" lon="6.16213">
        <ele>1791.4</ele>
        <time>2021-02-27T13:06:19Z</time>
      </trkpt>
      <trkpt lat="45.23192" lon="6.16216">
        <ele>1791.6</ele>
        <time>2021-02-27T13:06:20Z</time>
      </trkpt>
      <trkpt lat="45.23192" lon="6.16216">
        <ele>1792.2</ele>
        <time>2021-02-27T13:06:21Z</time>
      </trkpt>
      <trkpt lat="45.23194" lon="6.1622">
        <ele>1792.2</ele>
        <time>2021-02-27T13:06:22Z</time>
      </trkpt>
      <trkpt lat="45.23194" lon="6.1622">
        <ele>1792.2</ele>
        <time>2021-02-27T13:06:23Z</time>
      </trkpt>
      <trkpt lat="45.23195" lon="6.16222">
        <ele>1792.2</ele>
        <time>2021-02-27T13:06:24Z</time>
      </trkpt>
      <trkpt lat="45.23195" lon="6.16222">
        <ele>1792</ele>
        <time>2021-02-27T13:06:25Z</time>
      </trkpt>
      <trkpt lat="45.23196" lon="6.16226">
        <ele>1792.4</ele>
        <time>2021-02-27T13:06:26Z</time>
      </trkpt>
      <trkpt lat="45.23196" lon="6.16226">
        <ele>1792.2</ele>
        <time>2021-02-27T13:06:27Z</time>
      </trkpt>
      <trkpt lat="45.23196" lon="6.16229">
        <ele>1792.2</ele>
        <time>2021-02-27T13:06:28Z</time>
      </trkpt>
      <trkpt lat="45.23196" lon="6.16229">
        <ele>1792.6</ele>
        <time>2021-02-27T13:06:29Z</time>
      </trkpt>
      <trkpt lat="45.23197" lon="6.16233">
        <ele>1792.6</ele>
        <time>2021-02-27T13:06:30Z</time>
      </trkpt>
      <trkpt lat="45.23197" lon="6.16233">
        <ele>1792.8</ele>
        <time>2021-02-27T13:06:31Z</time>
      </trkpt>
      <trkpt lat="45.23198" lon="6.16236">
        <ele>1793</ele>
        <time>2021-02-27T13:06:32Z</time>
      </trkpt>
      <trkpt lat="45.23198" lon="6.16236">
        <ele>1793.4</ele>
        <time>2021-02-27T13:06:33Z</time>
      </trkpt>
      <trkpt lat="45.23198" lon="6.16239">
        <ele>1793.4</ele>
        <time>2021-02-27T13:06:34Z</time>
      </trkpt>
      <trkpt lat="45.23198" lon="6.16239">
        <ele>1793.4</ele>
        <time>2021-02-27T13:06:35Z</time>
      </trkpt>
      <trkpt lat="45.23199" lon="6.16243">
        <ele>1793.6</ele>
        <time>2021-02-27T13:06:36Z</time>
      </trkpt>
      <trkpt lat="45.23199" lon="6.16243">
        <ele>1793.8</ele>
        <time>2021-02-27T13:06:37Z</time>
      </trkpt>
      <trkpt lat="45.232" lon="6.16246">
        <ele>1794</ele>
        <time>2021-02-27T13:06:38Z</time>
      </trkpt>
      <trkpt lat="45.232" lon="6.16246">
        <ele>1793.8</ele>
        <time>2021-02-27T13:06:39Z</time>
      </trkpt>
      <trkpt lat="45.23201" lon="6.16249">
        <ele>1794</ele>
        <time>2021-02-27T13:06:40Z</time>
      </trkpt>
      <trkpt lat="45.23201" lon="6.16249">
        <ele>1793.8</ele>
        <time>2021-02-27T13:06:41Z</time>
      </trkpt>
      <trkpt lat="45.23202" lon="6.16252">
        <ele>1794.2</ele>
        <time>2021-02-27T13:06:42Z</time>
      </trkpt>
      <trkpt lat="45.23202" lon="6.16252">
        <ele>1794.2</ele>
        <time>2021-02-27T13:06:43Z</time>
      </trkpt>
      <trkpt lat="45.23202" lon="6.16256">
        <ele>1794.6</ele>
        <time>2021-02-27T13:06:44Z</time>
      </trkpt>
      <trkpt lat="45.23202" lon="6.16256">
        <ele>1794.6</ele>
        <time>2021-02-27T13:06:45Z</time>
      </trkpt>
      <trkpt lat="45.23202" lon="6.16259">
        <ele>1794.6</ele>
        <time>2021-02-27T13:06:46Z</time>
      </trkpt>
      <trkpt lat="45.23202" lon="6.16259">
        <ele>1794.6</ele>
        <time>2021-02-27T13:06:47Z</time>
      </trkpt>
      <trkpt lat="45.23203" lon="6.16262">
        <ele>1795</ele>
        <time>2021-02-27T13:06:48Z</time>
      </trkpt>
      <trkpt lat="45.23203" lon="6.16262">
        <ele>1795</ele>
        <time>2021-02-27T13:06:49Z</time>
      </trkpt>
      <trkpt lat="45.23203" lon="6.16266">
        <ele>1795</ele>
        <time>2021-02-27T13:06:50Z</time>
      </trkpt>
      <trkpt lat="45.23203" lon="6.16266">
        <ele>1795.4</ele>
        <time>2021-02-27T13:06:51Z</time>
      </trkpt>
      <trkpt lat="45.23204" lon="6.16269">
        <ele>1795.4</ele>
        <time>2021-02-27T13:06:52Z</time>
      </trkpt>
      <trkpt lat="45.23204" lon="6.16269">
        <ele>1795.4</ele>
        <time>2021-02-27T13:06:53Z</time>
      </trkpt>
      <trkpt lat="45.23205" lon="6.16272">
        <ele>1795.4</ele>
        <time>2021-02-27T13:06:54Z</time>
      </trkpt>
      <trkpt lat="45.23205" lon="6.16272">
        <ele>1795.6</ele>
        <time>2021-02-27T13:06:55Z</time>
      </trkpt>
      <trkpt lat="45.23205" lon="6.16275">
        <ele>1795.6</ele>
        <time>2021-02-27T13:06:56Z</time>
      </trkpt>
      <trkpt lat="45.23205" lon="6.16275">
        <ele>1795.6</ele>
        <time>2021-02-27T13:06:57Z</time>
      </trkpt>
      <trkpt lat="45.23206" lon="6.16279">
        <ele>1795.8</ele>
        <time>2021-02-27T13:06:58Z</time>
      </trkpt>
      <trkpt lat="45.23206" lon="6.16279">
        <ele>1796</ele>
        <time>2021-02-27T13:06:59Z</time>
      </trkpt>
      <trkpt lat="45.23207" lon="6.16283">
        <ele>1796.2</ele>
        <time>2021-02-27T13:07:00Z</time>
      </trkpt>
      <trkpt lat="45.23207" lon="6.16283">
        <ele>1796.4</ele>
        <time>2021-02-27T13:07:01Z</time>
      </trkpt>
      <trkpt lat="45.23208" lon="6.16286">
        <ele>1796.4</ele>
        <time>2021-02-27T13:07:02Z</time>
      </trkpt>
      <trkpt lat="45.23208" lon="6.16286">
        <ele>1796.6</ele>
        <time>2021-02-27T13:07:03Z</time>
      </trkpt>
      <trkpt lat="45.23208" lon="6.1629">
        <ele>1796.8</ele>
        <time>2021-02-27T13:07:04Z</time>
      </trkpt>
      <trkpt lat="45.23208" lon="6.1629">
        <ele>1797.2</ele>
        <time>2021-02-27T13:07:05Z</time>
      </trkpt>
      <trkpt lat="45.23208" lon="6.16293">
        <ele>1797.2</ele>
        <time>2021-02-27T13:07:06Z</time>
      </trkpt>
      <trkpt lat="45.23208" lon="6.16293">
        <ele>1797.6</ele>
        <time>2021-02-27T13:07:07Z</time>
      </trkpt>
      <trkpt lat="45.23209" lon="6.16296">
        <ele>1797.6</ele>
        <time>2021-02-27T13:07:08Z</time>
      </trkpt>
      <trkpt lat="45.23209" lon="6.16296">
        <ele>1797.6</ele>
        <time>2021-02-27T13:07:09Z</time>
      </trkpt>
      <trkpt lat="45.23209" lon="6.163">
        <ele>1797.8</ele>
        <time>2021-02-27T13:07:10Z</time>
      </trkpt>
      <trkpt lat="45.23209" lon="6.163">
        <ele>1797.6</ele>
        <time>2021-02-27T13:07:11Z</time>
      </trkpt>
      <trkpt lat="45.2321" lon="6.16304">
        <ele>1797.8</ele>
        <time>2021-02-27T13:07:12Z</time>
      </trkpt>
      <trkpt lat="45.2321" lon="6.16304">
        <ele>1798</ele>
        <time>2021-02-27T13:07:13Z</time>
      </trkpt>
      <trkpt lat="45.23211" lon="6.16307">
        <ele>1797.8</ele>
        <time>2021-02-27T13:07:14Z</time>
      </trkpt>
      <trkpt lat="45.23211" lon="6.16307">
        <ele>1798</ele>
        <time>2021-02-27T13:07:15Z</time>
      </trkpt>
      <trkpt lat="45.23211" lon="6.16311">
        <ele>1798.4</ele>
        <time>2021-02-27T13:07:16Z</time>
      </trkpt>
      <trkpt lat="45.23211" lon="6.16311">
        <ele>1798.4</ele>
        <time>2021-02-27T13:07:17Z</time>
      </trkpt>
      <trkpt lat="45.23212" lon="6.16314">
        <ele>1798.6</ele>
        <time>2021-02-27T13:07:18Z</time>
      </trkpt>
      <trkpt lat="45.23212" lon="6.16314">
        <ele>1798.6</ele>
        <time>2021-02-27T13:07:19Z</time>
      </trkpt>
      <trkpt lat="45.23213" lon="6.16317">
        <ele>1798.4</ele>
        <time>2021-02-27T13:07:20Z</time>
      </trkpt>
      <trkpt lat="45.23213" lon="6.16317">
        <ele>1798.8</ele>
        <time>2021-02-27T13:07:21Z</time>
      </trkpt>
      <trkpt lat="45.23213" lon="6.16321">
        <ele>1799.4</ele>
        <time>2021-02-27T13:07:22Z</time>
      </trkpt>
      <trkpt lat="45.23213" lon="6.16321">
        <ele>1799.2</ele>
        <time>2021-02-27T13:07:23Z</time>
      </trkpt>
      <trkpt lat="45.23214" lon="6.16325">
        <ele>1799.4</ele>
        <time>2021-02-27T13:07:24Z</time>
      </trkpt>
      <trkpt lat="45.23214" lon="6.16325">
        <ele>1799.8</ele>
        <time>2021-02-27T13:07:25Z</time>
      </trkpt>
      <trkpt lat="45.23215" lon="6.16328">
        <ele>1799.6</ele>
        <time>2021-02-27T13:07:26Z</time>
      </trkpt>
      <trkpt lat="45.23215" lon="6.16328">
        <ele>1799.6</ele>
        <time>2021-02-27T13:07:27Z</time>
      </trkpt>
      <trkpt lat="45.23216" lon="6.16332">
        <ele>1799.8</ele>
        <time>2021-02-27T13:07:28Z</time>
      </trkpt>
      <trkpt lat="45.23216" lon="6.16332">
        <ele>1799.8</ele>
        <time>2021-02-27T13:07:29Z</time>
      </trkpt>
      <trkpt lat="45.23216" lon="6.16336">
        <ele>1799.6</ele>
        <time>2021-02-27T13:07:30Z</time>
      </trkpt>
      <trkpt lat="45.23216" lon="6.16336">
        <ele>1799.8</ele>
        <time>2021-02-27T13:07:31Z</time>
      </trkpt>
      <trkpt lat="45.23216" lon="6.16339">
        <ele>1800</ele>
        <time>2021-02-27T13:07:32Z</time>
      </trkpt>
      <trkpt lat="45.23216" lon="6.16339">
        <ele>1800.4</ele>
        <time>2021-02-27T13:07:33Z</time>
      </trkpt>
      <trkpt lat="45.23217" lon="6.16343">
        <ele>1800.6</ele>
        <time>2021-02-27T13:07:34Z</time>
      </trkpt>
      <trkpt lat="45.23217" lon="6.16343">
        <ele>1800.8</ele>
        <time>2021-02-27T13:07:35Z</time>
      </trkpt>
      <trkpt lat="45.23218" lon="6.16346">
        <ele>1801</ele>
        <time>2021-02-27T13:07:36Z</time>
      </trkpt>
      <trkpt lat="45.23218" lon="6.16346">
        <ele>1801.4</ele>
        <time>2021-02-27T13:07:37Z</time>
      </trkpt>
      <trkpt lat="45.23219" lon="6.16349">
        <ele>1801.4</ele>
        <time>2021-02-27T13:07:38Z</time>
      </trkpt>
      <trkpt lat="45.23219" lon="6.16349">
        <ele>1801.4</ele>
        <time>2021-02-27T13:07:39Z</time>
      </trkpt>
      <trkpt lat="45.2322" lon="6.16354">
        <ele>1801.6</ele>
        <time>2021-02-27T13:07:40Z</time>
      </trkpt>
      <trkpt lat="45.2322" lon="6.16354">
        <ele>1801.8</ele>
        <time>2021-02-27T13:07:41Z</time>
      </trkpt>
      <trkpt lat="45.2322" lon="6.16357">
        <ele>1801.6</ele>
        <time>2021-02-27T13:07:42Z</time>
      </trkpt>
      <trkpt lat="45.2322" lon="6.16357">
        <ele>1801.6</ele>
        <time>2021-02-27T13:07:43Z</time>
      </trkpt>
      <trkpt lat="45.23221" lon="6.16361">
        <ele>1802</ele>
        <time>2021-02-27T13:07:44Z</time>
      </trkpt>
      <trkpt lat="45.23221" lon="6.16361">
        <ele>1801.8</ele>
        <time>2021-02-27T13:07:45Z</time>
      </trkpt>
      <trkpt lat="45.23221" lon="6.16364">
        <ele>1801.8</ele>
        <time>2021-02-27T13:07:46Z</time>
      </trkpt>
      <trkpt lat="45.23221" lon="6.16364">
        <ele>1802</ele>
        <time>2021-02-27T13:07:47Z</time>
      </trkpt>
      <trkpt lat="45.23221" lon="6.16368">
        <ele>1802.2</ele>
        <time>2021-02-27T13:07:48Z</time>
      </trkpt>
      <trkpt lat="45.23221" lon="6.16368">
        <ele>1802.2</ele>
        <time>2021-02-27T13:07:49Z</time>
      </trkpt>
      <trkpt lat="45.23222" lon="6.16372">
        <ele>1802.2</ele>
        <time>2021-02-27T13:07:50Z</time>
      </trkpt>
      <trkpt lat="45.23222" lon="6.16372">
        <ele>1802.2</ele>
        <time>2021-02-27T13:07:51Z</time>
      </trkpt>
      <trkpt lat="45.23222" lon="6.16376">
        <ele>1802</ele>
        <time>2021-02-27T13:07:52Z</time>
      </trkpt>
      <trkpt lat="45.23222" lon="6.16376">
        <ele>1802</ele>
        <time>2021-02-27T13:07:53Z</time>
      </trkpt>
      <trkpt lat="45.23222" lon="6.1638">
        <ele>1802</ele>
        <time>2021-02-27T13:07:54Z</time>
      </trkpt>
      <trkpt lat="45.23222" lon="6.1638">
        <ele>1801.8</ele>
        <time>2021-02-27T13:07:55Z</time>
      </trkpt>
      <trkpt lat="45.23223" lon="6.16382">
        <ele>1802.4</ele>
        <time>2021-02-27T13:07:56Z</time>
      </trkpt>
      <trkpt lat="45.23223" lon="6.16382">
        <ele>1802.4</ele>
        <time>2021-02-27T13:07:57Z</time>
      </trkpt>
      <trkpt lat="45.23223" lon="6.16385">
        <ele>1802.6</ele>
        <time>2021-02-27T13:07:58Z</time>
      </trkpt>
      <trkpt lat="45.23223" lon="6.16385">
        <ele>1803</ele>
        <time>2021-02-27T13:07:59Z</time>
      </trkpt>
      <trkpt lat="45.23224" lon="6.16388">
        <ele>1803.4</ele>
        <time>2021-02-27T13:08:00Z</time>
      </trkpt>
      <trkpt lat="45.23224" lon="6.16388">
        <ele>1804.4</ele>
        <time>2021-02-27T13:08:01Z</time>
      </trkpt>
      <trkpt lat="45.23225" lon="6.16392">
        <ele>1804.2</ele>
        <time>2021-02-27T13:08:02Z</time>
      </trkpt>
      <trkpt lat="45.23225" lon="6.16392">
        <ele>1804</ele>
        <time>2021-02-27T13:08:03Z</time>
      </trkpt>
      <trkpt lat="45.23226" lon="6.16395">
        <ele>1803.8</ele>
        <time>2021-02-27T13:08:04Z</time>
      </trkpt>
      <trkpt lat="45.23226" lon="6.16395">
        <ele>1803.8</ele>
        <time>2021-02-27T13:08:05Z</time>
      </trkpt>
      <trkpt lat="45.23226" lon="6.16399">
        <ele>1803.8</ele>
        <time>2021-02-27T13:08:06Z</time>
      </trkpt>
      <trkpt lat="45.23226" lon="6.16399">
        <ele>1804</ele>
        <time>2021-02-27T13:08:07Z</time>
      </trkpt>
      <trkpt lat="45.23226" lon="6.16403">
        <ele>1803.6</ele>
        <time>2021-02-27T13:08:08Z</time>
      </trkpt>
      <trkpt lat="45.23226" lon="6.16403">
        <ele>1804</ele>
        <time>2021-02-27T13:08:09Z</time>
      </trkpt>
      <trkpt lat="45.23227" lon="6.16406">
        <ele>1804</ele>
        <time>2021-02-27T13:08:10Z</time>
      </trkpt>
      <trkpt lat="45.23227" lon="6.16406">
        <ele>1804.4</ele>
        <time>2021-02-27T13:08:11Z</time>
      </trkpt>
      <trkpt lat="45.23228" lon="6.16409">
        <ele>1804.6</ele>
        <time>2021-02-27T13:08:12Z</time>
      </trkpt>
      <trkpt lat="45.23228" lon="6.16409">
        <ele>1804.6</ele>
        <time>2021-02-27T13:08:13Z</time>
      </trkpt>
      <trkpt lat="45.23229" lon="6.16412">
        <ele>1804.8</ele>
        <time>2021-02-27T13:08:14Z</time>
      </trkpt>
      <trkpt lat="45.23229" lon="6.16412">
        <ele>1805.2</ele>
        <time>2021-02-27T13:08:15Z</time>
      </trkpt>
      <trkpt lat="45.2323" lon="6.16414">
        <ele>1805.4</ele>
        <time>2021-02-27T13:08:16Z</time>
      </trkpt>
      <trkpt lat="45.2323" lon="6.16414">
        <ele>1805.2</ele>
        <time>2021-02-27T13:08:17Z</time>
      </trkpt>
      <trkpt lat="45.23231" lon="6.16418">
        <ele>1805</ele>
        <time>2021-02-27T13:08:18Z</time>
      </trkpt>
      <trkpt lat="45.23231" lon="6.16418">
        <ele>1805.4</ele>
        <time>2021-02-27T13:08:19Z</time>
      </trkpt>
      <trkpt lat="45.23232" lon="6.16421">
        <ele>1805.2</ele>
        <time>2021-02-27T13:08:20Z</time>
      </trkpt>
      <trkpt lat="45.23232" lon="6.16421">
        <ele>1805.2</ele>
        <time>2021-02-27T13:08:21Z</time>
      </trkpt>
      <trkpt lat="45.23233" lon="6.16425">
        <ele>1805.2</ele>
        <time>2021-02-27T13:08:22Z</time>
      </trkpt>
      <trkpt lat="45.23233" lon="6.16425">
        <ele>1805.6</ele>
        <time>2021-02-27T13:08:23Z</time>
      </trkpt>
      <trkpt lat="45.23234" lon="6.16428">
        <ele>1806</ele>
        <time>2021-02-27T13:08:24Z</time>
      </trkpt>
      <trkpt lat="45.23234" lon="6.16428">
        <ele>1805.8</ele>
        <time>2021-02-27T13:08:25Z</time>
      </trkpt>
      <trkpt lat="45.23235" lon="6.16431">
        <ele>1805.4</ele>
        <time>2021-02-27T13:08:26Z</time>
      </trkpt>
      <trkpt lat="45.23235" lon="6.16431">
        <ele>1805.8</ele>
        <time>2021-02-27T13:08:27Z</time>
      </trkpt>
      <trkpt lat="45.23236" lon="6.16435">
        <ele>1805.8</ele>
        <time>2021-02-27T13:08:28Z</time>
      </trkpt>
      <trkpt lat="45.23236" lon="6.16435">
        <ele>1805.8</ele>
        <time>2021-02-27T13:08:29Z</time>
      </trkpt>
      <trkpt lat="45.23238" lon="6.16439">
        <ele>1806</ele>
        <time>2021-02-27T13:08:30Z</time>
      </trkpt>
      <trkpt lat="45.23238" lon="6.16439">
        <ele>1806</ele>
        <time>2021-02-27T13:08:31Z</time>
      </trkpt>
      <trkpt lat="45.23238" lon="6.16442">
        <ele>1806</ele>
        <time>2021-02-27T13:08:32Z</time>
      </trkpt>
      <trkpt lat="45.23238" lon="6.16442">
        <ele>1806.4</ele>
        <time>2021-02-27T13:08:33Z</time>
      </trkpt>
      <trkpt lat="45.23239" lon="6.16445">
        <ele>1806.2</ele>
        <time>2021-02-27T13:08:34Z</time>
      </trkpt>
      <trkpt lat="45.23239" lon="6.16445">
        <ele>1806.4</ele>
        <time>2021-02-27T13:08:35Z</time>
      </trkpt>
      <trkpt lat="45.2324" lon="6.16449">
        <ele>1806.2</ele>
        <time>2021-02-27T13:08:36Z</time>
      </trkpt>
      <trkpt lat="45.2324" lon="6.16449">
        <ele>1806.6</ele>
        <time>2021-02-27T13:08:37Z</time>
      </trkpt>
      <trkpt lat="45.23242" lon="6.16451">
        <ele>1806.6</ele>
        <time>2021-02-27T13:08:38Z</time>
      </trkpt>
      <trkpt lat="45.23242" lon="6.16451">
        <ele>1806.8</ele>
        <time>2021-02-27T13:08:39Z</time>
      </trkpt>
      <trkpt lat="45.23243" lon="6.16455">
        <ele>1806.4</ele>
        <time>2021-02-27T13:08:40Z</time>
      </trkpt>
      <trkpt lat="45.23243" lon="6.16455">
        <ele>1806.6</ele>
        <time>2021-02-27T13:08:41Z</time>
      </trkpt>
      <trkpt lat="45.23244" lon="6.16457">
        <ele>1806.6</ele>
        <time>2021-02-27T13:08:42Z</time>
      </trkpt>
      <trkpt lat="45.23244" lon="6.16457">
        <ele>1806.8</ele>
        <time>2021-02-27T13:08:43Z</time>
      </trkpt>
      <trkpt lat="45.23245" lon="6.1646">
        <ele>1806.8</ele>
        <time>2021-02-27T13:08:44Z</time>
      </trkpt>
      <trkpt lat="45.23245" lon="6.1646">
        <ele>1807</ele>
        <time>2021-02-27T13:08:45Z</time>
      </trkpt>
      <trkpt lat="45.23246" lon="6.16464">
        <ele>1807.2</ele>
        <time>2021-02-27T13:08:46Z</time>
      </trkpt>
      <trkpt lat="45.23246" lon="6.16464">
        <ele>1807.4</ele>
        <time>2021-02-27T13:08:47Z</time>
      </trkpt>
      <trkpt lat="45.23247" lon="6.16467">
        <ele>1807.6</ele>
        <time>2021-02-27T13:08:48Z</time>
      </trkpt>
      <trkpt lat="45.23247" lon="6.16467">
        <ele>1807.8</ele>
        <time>2021-02-27T13:08:49Z</time>
      </trkpt>
      <trkpt lat="45.23248" lon="6.1647">
        <ele>1807.6</ele>
        <time>2021-02-27T13:08:50Z</time>
      </trkpt>
      <trkpt lat="45.23248" lon="6.1647">
        <ele>1808</ele>
        <time>2021-02-27T13:08:51Z</time>
      </trkpt>
      <trkpt lat="45.23249" lon="6.16473">
        <ele>1808.2</ele>
        <time>2021-02-27T13:08:52Z</time>
      </trkpt>
      <trkpt lat="45.23249" lon="6.16473">
        <ele>1808.4</ele>
        <time>2021-02-27T13:08:53Z</time>
      </trkpt>
      <trkpt lat="45.2325" lon="6.16476">
        <ele>1808.6</ele>
        <time>2021-02-27T13:08:54Z</time>
      </trkpt>
      <trkpt lat="45.2325" lon="6.16476">
        <ele>1808.4</ele>
        <time>2021-02-27T13:08:55Z</time>
      </trkpt>
      <trkpt lat="45.23252" lon="6.16478">
        <ele>1808.8</ele>
        <time>2021-02-27T13:08:56Z</time>
      </trkpt>
      <trkpt lat="45.23252" lon="6.16478">
        <ele>1809</ele>
        <time>2021-02-27T13:08:57Z</time>
      </trkpt>
      <trkpt lat="45.23253" lon="6.16482">
        <ele>1809</ele>
        <time>2021-02-27T13:08:58Z</time>
      </trkpt>
      <trkpt lat="45.23253" lon="6.16482">
        <ele>1809</ele>
        <time>2021-02-27T13:08:59Z</time>
      </trkpt>
      <trkpt lat="45.23254" lon="6.16485">
        <ele>1809.2</ele>
        <time>2021-02-27T13:09:00Z</time>
      </trkpt>
      <trkpt lat="45.23254" lon="6.16485">
        <ele>1809.4</ele>
        <time>2021-02-27T13:09:01Z</time>
      </trkpt>
      <trkpt lat="45.23255" lon="6.16488">
        <ele>1809.2</ele>
        <time>2021-02-27T13:09:02Z</time>
      </trkpt>
      <trkpt lat="45.23255" lon="6.16488">
        <ele>1809.4</ele>
        <time>2021-02-27T13:09:03Z</time>
      </trkpt>
      <trkpt lat="45.23257" lon="6.16492">
        <ele>1809.8</ele>
        <time>2021-02-27T13:09:04Z</time>
      </trkpt>
      <trkpt lat="45.23257" lon="6.16492">
        <ele>1810.2</ele>
        <time>2021-02-27T13:09:05Z</time>
      </trkpt>
      <trkpt lat="45.23258" lon="6.16495">
        <ele>1810.4</ele>
        <time>2021-02-27T13:09:06Z</time>
      </trkpt>
      <trkpt lat="45.23258" lon="6.16495">
        <ele>1810.4</ele>
        <time>2021-02-27T13:09:07Z</time>
      </trkpt>
      <trkpt lat="45.23259" lon="6.16498">
        <ele>1810.2</ele>
        <time>2021-02-27T13:09:08Z</time>
      </trkpt>
      <trkpt lat="45.23259" lon="6.16498">
        <ele>1810.4</ele>
        <time>2021-02-27T13:09:09Z</time>
      </trkpt>
      <trkpt lat="45.2326" lon="6.16502">
        <ele>1810.8</ele>
        <time>2021-02-27T13:09:10Z</time>
      </trkpt>
      <trkpt lat="45.2326" lon="6.16502">
        <ele>1811</ele>
        <time>2021-02-27T13:09:11Z</time>
      </trkpt>
      <trkpt lat="45.2326" lon="6.16505">
        <ele>1811</ele>
        <time>2021-02-27T13:09:12Z</time>
      </trkpt>
      <trkpt lat="45.2326" lon="6.16505">
        <ele>1811.2</ele>
        <time>2021-02-27T13:09:13Z</time>
      </trkpt>
      <trkpt lat="45.23261" lon="6.1651">
        <ele>1811</ele>
        <time>2021-02-27T13:09:14Z</time>
      </trkpt>
      <trkpt lat="45.23261" lon="6.1651">
        <ele>1811</ele>
        <time>2021-02-27T13:09:15Z</time>
      </trkpt>
      <trkpt lat="45.23262" lon="6.16514">
        <ele>1811.2</ele>
        <time>2021-02-27T13:09:16Z</time>
      </trkpt>
      <trkpt lat="45.23262" lon="6.16514">
        <ele>1811.2</ele>
        <time>2021-02-27T13:09:17Z</time>
      </trkpt>
      <trkpt lat="45.23263" lon="6.16517">
        <ele>1811.4</ele>
        <time>2021-02-27T13:09:18Z</time>
      </trkpt>
      <trkpt lat="45.23263" lon="6.16517">
        <ele>1811.6</ele>
        <time>2021-02-27T13:09:19Z</time>
      </trkpt>
      <trkpt lat="45.23264" lon="6.16521">
        <ele>1811.6</ele>
        <time>2021-02-27T13:09:20Z</time>
      </trkpt>
      <trkpt lat="45.23264" lon="6.16521">
        <ele>1811.6</ele>
        <time>2021-02-27T13:09:21Z</time>
      </trkpt>
      <trkpt lat="45.23264" lon="6.16525">
        <ele>1811.8</ele>
        <time>2021-02-27T13:09:22Z</time>
      </trkpt>
      <trkpt lat="45.23264" lon="6.16525">
        <ele>1812</ele>
        <time>2021-02-27T13:09:23Z</time>
      </trkpt>
      <trkpt lat="45.23265" lon="6.16529">
        <ele>1811.8</ele>
        <time>2021-02-27T13:09:24Z</time>
      </trkpt>
      <trkpt lat="45.23265" lon="6.16529">
        <ele>1812.2</ele>
        <time>2021-02-27T13:09:25Z</time>
      </trkpt>
      <trkpt lat="45.23266" lon="6.16533">
        <ele>1812</ele>
        <time>2021-02-27T13:09:26Z</time>
      </trkpt>
      <trkpt lat="45.23266" lon="6.16533">
        <ele>1812.2</ele>
        <time>2021-02-27T13:09:27Z</time>
      </trkpt>
      <trkpt lat="45.23267" lon="6.16536">
        <ele>1812.4</ele>
        <time>2021-02-27T13:09:28Z</time>
      </trkpt>
      <trkpt lat="45.23267" lon="6.16536">
        <ele>1812.4</ele>
        <time>2021-02-27T13:09:29Z</time>
      </trkpt>
      <trkpt lat="45.23268" lon="6.16539">
        <ele>1812.4</ele>
        <time>2021-02-27T13:09:30Z</time>
      </trkpt>
      <trkpt lat="45.23268" lon="6.16539">
        <ele>1812.6</ele>
        <time>2021-02-27T13:09:31Z</time>
      </trkpt>
      <trkpt lat="45.23269" lon="6.16542">
        <ele>1812.6</ele>
        <time>2021-02-27T13:09:32Z</time>
      </trkpt>
      <trkpt lat="45.23269" lon="6.16542">
        <ele>1812.8</ele>
        <time>2021-02-27T13:09:33Z</time>
      </trkpt>
      <trkpt lat="45.2327" lon="6.16546">
        <ele>1813</ele>
        <time>2021-02-27T13:09:34Z</time>
      </trkpt>
      <trkpt lat="45.2327" lon="6.16546">
        <ele>1813</ele>
        <time>2021-02-27T13:09:35Z</time>
      </trkpt>
      <trkpt lat="45.2327" lon="6.16549">
        <ele>1813.4</ele>
        <time>2021-02-27T13:09:36Z</time>
      </trkpt>
      <trkpt lat="45.2327" lon="6.16549">
        <ele>1813.4</ele>
        <time>2021-02-27T13:09:37Z</time>
      </trkpt>
      <trkpt lat="45.23271" lon="6.16552">
        <ele>1813.2</ele>
        <time>2021-02-27T13:09:38Z</time>
      </trkpt>
      <trkpt lat="45.23271" lon="6.16552">
        <ele>1813.2</ele>
        <time>2021-02-27T13:09:39Z</time>
      </trkpt>
      <trkpt lat="45.23272" lon="6.16556">
        <ele>1813.2</ele>
        <time>2021-02-27T13:09:40Z</time>
      </trkpt>
      <trkpt lat="45.23272" lon="6.16556">
        <ele>1813.4</ele>
        <time>2021-02-27T13:09:41Z</time>
      </trkpt>
      <trkpt lat="45.23273" lon="6.16559">
        <ele>1814</ele>
        <time>2021-02-27T13:09:42Z</time>
      </trkpt>
      <trkpt lat="45.23273" lon="6.16559">
        <ele>1814.4</ele>
        <time>2021-02-27T13:09:43Z</time>
      </trkpt>
      <trkpt lat="45.23274" lon="6.16563">
        <ele>1814.4</ele>
        <time>2021-02-27T13:09:44Z</time>
      </trkpt>
      <trkpt lat="45.23274" lon="6.16563">
        <ele>1814.4</ele>
        <time>2021-02-27T13:09:45Z</time>
      </trkpt>
      <trkpt lat="45.23275" lon="6.16566">
        <ele>1814.4</ele>
        <time>2021-02-27T13:09:46Z</time>
      </trkpt>
      <trkpt lat="45.23275" lon="6.16566">
        <ele>1815.2</ele>
        <time>2021-02-27T13:09:47Z</time>
      </trkpt>
      <trkpt lat="45.23276" lon="6.16569">
        <ele>1815.2</ele>
        <time>2021-02-27T13:09:48Z</time>
      </trkpt>
      <trkpt lat="45.23276" lon="6.16569">
        <ele>1815.2</ele>
        <time>2021-02-27T13:09:49Z</time>
      </trkpt>
      <trkpt lat="45.23277" lon="6.16573">
        <ele>1815.6</ele>
        <time>2021-02-27T13:09:50Z</time>
      </trkpt>
      <trkpt lat="45.23277" lon="6.16573">
        <ele>1815.6</ele>
        <time>2021-02-27T13:09:51Z</time>
      </trkpt>
      <trkpt lat="45.23278" lon="6.16576">
        <ele>1815.6</ele>
        <time>2021-02-27T13:09:52Z</time>
      </trkpt>
      <trkpt lat="45.23278" lon="6.16576">
        <ele>1816.2</ele>
        <time>2021-02-27T13:09:53Z</time>
      </trkpt>
      <trkpt lat="45.23279" lon="6.16579">
        <ele>1816.6</ele>
        <time>2021-02-27T13:09:54Z</time>
      </trkpt>
      <trkpt lat="45.23279" lon="6.16579">
        <ele>1817</ele>
        <time>2021-02-27T13:09:55Z</time>
      </trkpt>
      <trkpt lat="45.23279" lon="6.16582">
        <ele>1817.4</ele>
        <time>2021-02-27T13:09:56Z</time>
      </trkpt>
      <trkpt lat="45.23279" lon="6.16582">
        <ele>1817.6</ele>
        <time>2021-02-27T13:09:57Z</time>
      </trkpt>
      <trkpt lat="45.2328" lon="6.16585">
        <ele>1817.8</ele>
        <time>2021-02-27T13:09:58Z</time>
      </trkpt>
      <trkpt lat="45.2328" lon="6.16585">
        <ele>1817.6</ele>
        <time>2021-02-27T13:09:59Z</time>
      </trkpt>
      <trkpt lat="45.23281" lon="6.16588">
        <ele>1817.4</ele>
        <time>2021-02-27T13:10:00Z</time>
      </trkpt>
      <trkpt lat="45.23281" lon="6.16588">
        <ele>1817.4</ele>
        <time>2021-02-27T13:10:01Z</time>
      </trkpt>
      <trkpt lat="45.23282" lon="6.16591">
        <ele>1817.6</ele>
        <time>2021-02-27T13:10:02Z</time>
      </trkpt>
      <trkpt lat="45.23282" lon="6.16591">
        <ele>1817.4</ele>
        <time>2021-02-27T13:10:03Z</time>
      </trkpt>
      <trkpt lat="45.23284" lon="6.16594">
        <ele>1817.2</ele>
        <time>2021-02-27T13:10:04Z</time>
      </trkpt>
      <trkpt lat="45.23284" lon="6.16594">
        <ele>1817.6</ele>
        <time>2021-02-27T13:10:05Z</time>
      </trkpt>
      <trkpt lat="45.23285" lon="6.16597">
        <ele>1818</ele>
        <time>2021-02-27T13:10:06Z</time>
      </trkpt>
      <trkpt lat="45.23285" lon="6.16597">
        <ele>1818</ele>
        <time>2021-02-27T13:10:07Z</time>
      </trkpt>
      <trkpt lat="45.23286" lon="6.16601">
        <ele>1818</ele>
        <time>2021-02-27T13:10:08Z</time>
      </trkpt>
      <trkpt lat="45.23286" lon="6.16601">
        <ele>1818.4</ele>
        <time>2021-02-27T13:10:09Z</time>
      </trkpt>
      <trkpt lat="45.23287" lon="6.16604">
        <ele>1818.4</ele>
        <time>2021-02-27T13:10:10Z</time>
      </trkpt>
      <trkpt lat="45.23287" lon="6.16604">
        <ele>1818.6</ele>
        <time>2021-02-27T13:10:11Z</time>
      </trkpt>
      <trkpt lat="45.23289" lon="6.16607">
        <ele>1818.8</ele>
        <time>2021-02-27T13:10:12Z</time>
      </trkpt>
      <trkpt lat="45.23289" lon="6.16607">
        <ele>1818.6</ele>
        <time>2021-02-27T13:10:13Z</time>
      </trkpt>
      <trkpt lat="45.23291" lon="6.1661">
        <ele>1818.8</ele>
        <time>2021-02-27T13:10:14Z</time>
      </trkpt>
      <trkpt lat="45.23291" lon="6.1661">
        <ele>1818.8</ele>
        <time>2021-02-27T13:10:15Z</time>
      </trkpt>
      <trkpt lat="45.23292" lon="6.16614">
        <ele>1818.6</ele>
        <time>2021-02-27T13:10:16Z</time>
      </trkpt>
      <trkpt lat="45.23292" lon="6.16614">
        <ele>1819</ele>
        <time>2021-02-27T13:10:17Z</time>
      </trkpt>
      <trkpt lat="45.23293" lon="6.16617">
        <ele>1818.6</ele>
        <time>2021-02-27T13:10:18Z</time>
      </trkpt>
      <trkpt lat="45.23293" lon="6.16617">
        <ele>1819</ele>
        <time>2021-02-27T13:10:19Z</time>
      </trkpt>
      <trkpt lat="45.23294" lon="6.16621">
        <ele>1818.8</ele>
        <time>2021-02-27T13:10:20Z</time>
      </trkpt>
      <trkpt lat="45.23294" lon="6.16621">
        <ele>1818.6</ele>
        <time>2021-02-27T13:10:21Z</time>
      </trkpt>
      <trkpt lat="45.23295" lon="6.16623">
        <ele>1818.4</ele>
        <time>2021-02-27T13:10:22Z</time>
      </trkpt>
      <trkpt lat="45.23295" lon="6.16623">
        <ele>1818.6</ele>
        <time>2021-02-27T13:10:23Z</time>
      </trkpt>
      <trkpt lat="45.23295" lon="6.16623">
        <ele>1818.8</ele>
        <time>2021-02-27T13:10:24Z</time>
      </trkpt>
      <trkpt lat="45.23295" lon="6.16623">
        <ele>1818.8</ele>
        <time>2021-02-27T13:10:25Z</time>
      </trkpt>
      <trkpt lat="45.23295" lon="6.16623">
        <ele>1818.8</ele>
        <time>2021-02-27T13:10:26Z</time>
      </trkpt>
      <trkpt lat="45.23295" lon="6.16623">
        <ele>1819</ele>
        <time>2021-02-27T13:10:27Z</time>
      </trkpt>
      <trkpt lat="45.23295" lon="6.16623">
        <ele>1819.2</ele>
        <time>2021-02-27T13:10:28Z</time>
      </trkpt>
      <trkpt lat="45.23295" lon="6.16623">
        <ele>1819.2</ele>
        <time>2021-02-27T13:10:29Z</time>
      </trkpt>
      <trkpt lat="45.23295" lon="6.16623">
        <ele>1819.4</ele>
        <time>2021-02-27T13:10:30Z</time>
      </trkpt>
      <trkpt lat="45.23295" lon="6.16623">
        <ele>1819.4</ele>
        <time>2021-02-27T13:10:31Z</time>
      </trkpt>
      <trkpt lat="45.23295" lon="6.16623">
        <ele>1819.4</ele>
        <time>2021-02-27T13:10:32Z</time>
      </trkpt>
      <trkpt lat="45.23295" lon="6.16623">
        <ele>1819.4</ele>
        <time>2021-02-27T13:10:33Z</time>
      </trkpt>
      <trkpt lat="45.23295" lon="6.16623">
        <ele>1819.2</ele>
        <time>2021-02-27T13:10:34Z</time>
      </trkpt>
      <trkpt lat="45.23296" lon="6.16625">
        <ele>1819</ele>
        <time>2021-02-27T13:10:35Z</time>
      </trkpt>
      <trkpt lat="45.23296" lon="6.16625">
        <ele>1819.4</ele>
        <time>2021-02-27T13:10:36Z</time>
      </trkpt>
      <trkpt lat="45.23298" lon="6.16626">
        <ele>1819</ele>
        <time>2021-02-27T13:10:37Z</time>
      </trkpt>
      <trkpt lat="45.23298" lon="6.16626">
        <ele>1819</ele>
        <time>2021-02-27T13:10:38Z</time>
      </trkpt>
      <trkpt lat="45.23298" lon="6.16626">
        <ele>1819</ele>
        <time>2021-02-27T13:10:39Z</time>
      </trkpt>
      <trkpt lat="45.23299" lon="6.16628">
        <ele>1818.8</ele>
        <time>2021-02-27T13:10:40Z</time>
      </trkpt>
      <trkpt lat="45.23299" lon="6.16628">
        <ele>1818.8</ele>
        <time>2021-02-27T13:10:41Z</time>
      </trkpt>
      <trkpt lat="45.233" lon="6.16631">
        <ele>1819</ele>
        <time>2021-02-27T13:10:42Z</time>
      </trkpt>
      <trkpt lat="45.233" lon="6.16631">
        <ele>1819.2</ele>
        <time>2021-02-27T13:10:43Z</time>
      </trkpt>
      <trkpt lat="45.23301" lon="6.16635">
        <ele>1818.8</ele>
        <time>2021-02-27T13:10:44Z</time>
      </trkpt>
      <trkpt lat="45.23301" lon="6.16635">
        <ele>1819</ele>
        <time>2021-02-27T13:10:45Z</time>
      </trkpt>
      <trkpt lat="45.23302" lon="6.16638">
        <ele>1819.6</ele>
        <time>2021-02-27T13:10:46Z</time>
      </trkpt>
      <trkpt lat="45.23302" lon="6.16638">
        <ele>1819</ele>
        <time>2021-02-27T13:10:47Z</time>
      </trkpt>
      <trkpt lat="45.23303" lon="6.16641">
        <ele>1818.8</ele>
        <time>2021-02-27T13:10:48Z</time>
      </trkpt>
      <trkpt lat="45.23303" lon="6.16641">
        <ele>1818.8</ele>
        <time>2021-02-27T13:10:49Z</time>
      </trkpt>
      <trkpt lat="45.23304" lon="6.16646">
        <ele>1819</ele>
        <time>2021-02-27T13:10:50Z</time>
      </trkpt>
      <trkpt lat="45.23304" lon="6.16646">
        <ele>1819</ele>
        <time>2021-02-27T13:10:51Z</time>
      </trkpt>
      <trkpt lat="45.23305" lon="6.16649">
        <ele>1818.8</ele>
        <time>2021-02-27T13:10:52Z</time>
      </trkpt>
      <trkpt lat="45.23305" lon="6.16649">
        <ele>1819</ele>
        <time>2021-02-27T13:10:53Z</time>
      </trkpt>
      <trkpt lat="45.23306" lon="6.16653">
        <ele>1819.2</ele>
        <time>2021-02-27T13:10:54Z</time>
      </trkpt>
      <trkpt lat="45.23306" lon="6.16653">
        <ele>1819.2</ele>
        <time>2021-02-27T13:10:55Z</time>
      </trkpt>
      <trkpt lat="45.23306" lon="6.16656">
        <ele>1819.2</ele>
        <time>2021-02-27T13:10:56Z</time>
      </trkpt>
      <trkpt lat="45.23306" lon="6.16656">
        <ele>1819.4</ele>
        <time>2021-02-27T13:10:57Z</time>
      </trkpt>
      <trkpt lat="45.23308" lon="6.1666">
        <ele>1819.8</ele>
        <time>2021-02-27T13:10:58Z</time>
      </trkpt>
      <trkpt lat="45.23308" lon="6.1666">
        <ele>1819.4</ele>
        <time>2021-02-27T13:10:59Z</time>
      </trkpt>
      <trkpt lat="45.23309" lon="6.16663">
        <ele>1819.4</ele>
        <time>2021-02-27T13:11:00Z</time>
      </trkpt>
      <trkpt lat="45.23309" lon="6.16663">
        <ele>1819.4</ele>
        <time>2021-02-27T13:11:01Z</time>
      </trkpt>
      <trkpt lat="45.23309" lon="6.16667">
        <ele>1819.8</ele>
        <time>2021-02-27T13:11:02Z</time>
      </trkpt>
      <trkpt lat="45.23309" lon="6.16667">
        <ele>1819.6</ele>
        <time>2021-02-27T13:11:03Z</time>
      </trkpt>
      <trkpt lat="45.23309" lon="6.16671">
        <ele>1819.6</ele>
        <time>2021-02-27T13:11:04Z</time>
      </trkpt>
      <trkpt lat="45.23309" lon="6.16671">
        <ele>1819.8</ele>
        <time>2021-02-27T13:11:05Z</time>
      </trkpt>
      <trkpt lat="45.2331" lon="6.16675">
        <ele>1820</ele>
        <time>2021-02-27T13:11:06Z</time>
      </trkpt>
      <trkpt lat="45.2331" lon="6.16675">
        <ele>1820</ele>
        <time>2021-02-27T13:11:07Z</time>
      </trkpt>
      <trkpt lat="45.2331" lon="6.16678">
        <ele>1820.2</ele>
        <time>2021-02-27T13:11:08Z</time>
      </trkpt>
      <trkpt lat="45.2331" lon="6.16678">
        <ele>1820.2</ele>
        <time>2021-02-27T13:11:09Z</time>
      </trkpt>
      <trkpt lat="45.2331" lon="6.16682">
        <ele>1819.6</ele>
        <time>2021-02-27T13:11:10Z</time>
      </trkpt>
      <trkpt lat="45.2331" lon="6.16682">
        <ele>1819.8</ele>
        <time>2021-02-27T13:11:11Z</time>
      </trkpt>
      <trkpt lat="45.2331" lon="6.16685">
        <ele>1820.2</ele>
        <time>2021-02-27T13:11:12Z</time>
      </trkpt>
      <trkpt lat="45.2331" lon="6.16685">
        <ele>1820.4</ele>
        <time>2021-02-27T13:11:13Z</time>
      </trkpt>
      <trkpt lat="45.23311" lon="6.16689">
        <ele>1820.4</ele>
        <time>2021-02-27T13:11:14Z</time>
      </trkpt>
      <trkpt lat="45.23311" lon="6.16689">
        <ele>1820.8</ele>
        <time>2021-02-27T13:11:15Z</time>
      </trkpt>
      <trkpt lat="45.23311" lon="6.16692">
        <ele>1821</ele>
        <time>2021-02-27T13:11:16Z</time>
      </trkpt>
      <trkpt lat="45.23311" lon="6.16692">
        <ele>1821.2</ele>
        <time>2021-02-27T13:11:17Z</time>
      </trkpt>
      <trkpt lat="45.23312" lon="6.16695">
        <ele>1821.2</ele>
        <time>2021-02-27T13:11:18Z</time>
      </trkpt>
      <trkpt lat="45.23312" lon="6.16695">
        <ele>1821.6</ele>
        <time>2021-02-27T13:11:19Z</time>
      </trkpt>
      <trkpt lat="45.23312" lon="6.16699">
        <ele>1821.8</ele>
        <time>2021-02-27T13:11:20Z</time>
      </trkpt>
      <trkpt lat="45.23312" lon="6.16699">
        <ele>1822</ele>
        <time>2021-02-27T13:11:21Z</time>
      </trkpt>
      <trkpt lat="45.23312" lon="6.16699">
        <ele>1821.8</ele>
        <time>2021-02-27T13:11:22Z</time>
      </trkpt>
      <trkpt lat="45.23312" lon="6.16702">
        <ele>1821.4</ele>
        <time>2021-02-27T13:11:23Z</time>
      </trkpt>
      <trkpt lat="45.23312" lon="6.16702">
        <ele>1821.6</ele>
        <time>2021-02-27T13:11:24Z</time>
      </trkpt>
      <trkpt lat="45.23312" lon="6.16702">
        <ele>1821.4</ele>
        <time>2021-02-27T13:11:25Z</time>
      </trkpt>
      <trkpt lat="45.23313" lon="6.16706">
        <ele>1821.6</ele>
        <time>2021-02-27T13:11:26Z</time>
      </trkpt>
      <trkpt lat="45.23313" lon="6.16706">
        <ele>1821.6</ele>
        <time>2021-02-27T13:11:27Z</time>
      </trkpt>
      <trkpt lat="45.23313" lon="6.16709">
        <ele>1821.6</ele>
        <time>2021-02-27T13:11:28Z</time>
      </trkpt>
      <trkpt lat="45.23313" lon="6.16709">
        <ele>1821.6</ele>
        <time>2021-02-27T13:11:29Z</time>
      </trkpt>
      <trkpt lat="45.23313" lon="6.16712">
        <ele>1822</ele>
        <time>2021-02-27T13:11:30Z</time>
      </trkpt>
      <trkpt lat="45.23313" lon="6.16712">
        <ele>1822.4</ele>
        <time>2021-02-27T13:11:31Z</time>
      </trkpt>
      <trkpt lat="45.23314" lon="6.16715">
        <ele>1822.2</ele>
        <time>2021-02-27T13:11:32Z</time>
      </trkpt>
      <trkpt lat="45.23314" lon="6.16715">
        <ele>1822.2</ele>
        <time>2021-02-27T13:11:33Z</time>
      </trkpt>
      <trkpt lat="45.23314" lon="6.16718">
        <ele>1822.2</ele>
        <time>2021-02-27T13:11:34Z</time>
      </trkpt>
      <trkpt lat="45.23314" lon="6.16718">
        <ele>1822.4</ele>
        <time>2021-02-27T13:11:35Z</time>
      </trkpt>
      <trkpt lat="45.23315" lon="6.16721">
        <ele>1822.4</ele>
        <time>2021-02-27T13:11:36Z</time>
      </trkpt>
      <trkpt lat="45.23315" lon="6.16721">
        <ele>1822.4</ele>
        <time>2021-02-27T13:11:37Z</time>
      </trkpt>
      <trkpt lat="45.23316" lon="6.16724">
        <ele>1822.4</ele>
        <time>2021-02-27T13:11:38Z</time>
      </trkpt>
      <trkpt lat="45.23316" lon="6.16724">
        <ele>1822.6</ele>
        <time>2021-02-27T13:11:39Z</time>
      </trkpt>
      <trkpt lat="45.23317" lon="6.16727">
        <ele>1822.6</ele>
        <time>2021-02-27T13:11:40Z</time>
      </trkpt>
      <trkpt lat="45.23317" lon="6.16727">
        <ele>1822.8</ele>
        <time>2021-02-27T13:11:41Z</time>
      </trkpt>
      <trkpt lat="45.23318" lon="6.1673">
        <ele>1823.4</ele>
        <time>2021-02-27T13:11:42Z</time>
      </trkpt>
      <trkpt lat="45.23318" lon="6.1673">
        <ele>1823.2</ele>
        <time>2021-02-27T13:11:43Z</time>
      </trkpt>
      <trkpt lat="45.23319" lon="6.16733">
        <ele>1823.6</ele>
        <time>2021-02-27T13:11:44Z</time>
      </trkpt>
      <trkpt lat="45.23319" lon="6.16733">
        <ele>1823.8</ele>
        <time>2021-02-27T13:11:45Z</time>
      </trkpt>
      <trkpt lat="45.2332" lon="6.16736">
        <ele>1824</ele>
        <time>2021-02-27T13:11:46Z</time>
      </trkpt>
      <trkpt lat="45.2332" lon="6.16736">
        <ele>1824</ele>
        <time>2021-02-27T13:11:47Z</time>
      </trkpt>
      <trkpt lat="45.23321" lon="6.16739">
        <ele>1824</ele>
        <time>2021-02-27T13:11:48Z</time>
      </trkpt>
      <trkpt lat="45.23321" lon="6.16739">
        <ele>1824.4</ele>
        <time>2021-02-27T13:11:49Z</time>
      </trkpt>
      <trkpt lat="45.23321" lon="6.16742">
        <ele>1824.4</ele>
        <time>2021-02-27T13:11:50Z</time>
      </trkpt>
      <trkpt lat="45.23321" lon="6.16742">
        <ele>1824.2</ele>
        <time>2021-02-27T13:11:51Z</time>
      </trkpt>
      <trkpt lat="45.23322" lon="6.16746">
        <ele>1824.4</ele>
        <time>2021-02-27T13:11:52Z</time>
      </trkpt>
      <trkpt lat="45.23322" lon="6.16746">
        <ele>1824.8</ele>
        <time>2021-02-27T13:11:53Z</time>
      </trkpt>
      <trkpt lat="45.23323" lon="6.16748">
        <ele>1824.6</ele>
        <time>2021-02-27T13:11:54Z</time>
      </trkpt>
      <trkpt lat="45.23323" lon="6.16748">
        <ele>1824.6</ele>
        <time>2021-02-27T13:11:55Z</time>
      </trkpt>
      <trkpt lat="45.23323" lon="6.16751">
        <ele>1824.8</ele>
        <time>2021-02-27T13:11:56Z</time>
      </trkpt>
      <trkpt lat="45.23323" lon="6.16751">
        <ele>1825</ele>
        <time>2021-02-27T13:11:57Z</time>
      </trkpt>
      <trkpt lat="45.23323" lon="6.16754">
        <ele>1824.8</ele>
        <time>2021-02-27T13:11:58Z</time>
      </trkpt>
      <trkpt lat="45.23323" lon="6.16754">
        <ele>1825.2</ele>
        <time>2021-02-27T13:11:59Z</time>
      </trkpt>
      <trkpt lat="45.23324" lon="6.16758">
        <ele>1825.4</ele>
        <time>2021-02-27T13:12:00Z</time>
      </trkpt>
      <trkpt lat="45.23324" lon="6.16758">
        <ele>1825</ele>
        <time>2021-02-27T13:12:01Z</time>
      </trkpt>
      <trkpt lat="45.23325" lon="6.1676">
        <ele>1825</ele>
        <time>2021-02-27T13:12:02Z</time>
      </trkpt>
      <trkpt lat="45.23325" lon="6.1676">
        <ele>1824.8</ele>
        <time>2021-02-27T13:12:03Z</time>
      </trkpt>
      <trkpt lat="45.23326" lon="6.16763">
        <ele>1824.8</ele>
        <time>2021-02-27T13:12:04Z</time>
      </trkpt>
      <trkpt lat="45.23326" lon="6.16763">
        <ele>1824.8</ele>
        <time>2021-02-27T13:12:05Z</time>
      </trkpt>
      <trkpt lat="45.23326" lon="6.16766">
        <ele>1825</ele>
        <time>2021-02-27T13:12:06Z</time>
      </trkpt>
      <trkpt lat="45.23326" lon="6.16766">
        <ele>1825.4</ele>
        <time>2021-02-27T13:12:07Z</time>
      </trkpt>
      <trkpt lat="45.23327" lon="6.16768">
        <ele>1825</ele>
        <time>2021-02-27T13:12:08Z</time>
      </trkpt>
      <trkpt lat="45.23327" lon="6.16768">
        <ele>1825.6</ele>
        <time>2021-02-27T13:12:09Z</time>
      </trkpt>
      <trkpt lat="45.23327" lon="6.16768">
        <ele>1825.8</ele>
        <time>2021-02-27T13:12:10Z</time>
      </trkpt>
      <trkpt lat="45.23328" lon="6.16771">
        <ele>1826</ele>
        <time>2021-02-27T13:12:11Z</time>
      </trkpt>
      <trkpt lat="45.23328" lon="6.16771">
        <ele>1826</ele>
        <time>2021-02-27T13:12:12Z</time>
      </trkpt>
      <trkpt lat="45.23328" lon="6.16771">
        <ele>1826.2</ele>
        <time>2021-02-27T13:12:13Z</time>
      </trkpt>
      <trkpt lat="45.23328" lon="6.16771">
        <ele>1826.2</ele>
        <time>2021-02-27T13:12:14Z</time>
      </trkpt>
      <trkpt lat="45.23328" lon="6.16771">
        <ele>1826.6</ele>
        <time>2021-02-27T13:12:15Z</time>
      </trkpt>
      <trkpt lat="45.23328" lon="6.16771">
        <ele>1826.8</ele>
        <time>2021-02-27T13:12:16Z</time>
      </trkpt>
      <trkpt lat="45.23328" lon="6.16771">
        <ele>1827</ele>
        <time>2021-02-27T13:12:17Z</time>
      </trkpt>
      <trkpt lat="45.23329" lon="6.16775">
        <ele>1827</ele>
        <time>2021-02-27T13:12:18Z</time>
      </trkpt>
      <trkpt lat="45.23329" lon="6.16775">
        <ele>1826.6</ele>
        <time>2021-02-27T13:12:19Z</time>
      </trkpt>
      <trkpt lat="45.2333" lon="6.16778">
        <ele>1826.6</ele>
        <time>2021-02-27T13:12:20Z</time>
      </trkpt>
      <trkpt lat="45.2333" lon="6.16778">
        <ele>1826.4</ele>
        <time>2021-02-27T13:12:21Z</time>
      </trkpt>
      <trkpt lat="45.23332" lon="6.16781">
        <ele>1826.4</ele>
        <time>2021-02-27T13:12:22Z</time>
      </trkpt>
      <trkpt lat="45.23332" lon="6.16781">
        <ele>1826.4</ele>
        <time>2021-02-27T13:12:23Z</time>
      </trkpt>
      <trkpt lat="45.23333" lon="6.16783">
        <ele>1826.2</ele>
        <time>2021-02-27T13:12:24Z</time>
      </trkpt>
      <trkpt lat="45.23333" lon="6.16783">
        <ele>1826.6</ele>
        <time>2021-02-27T13:12:25Z</time>
      </trkpt>
      <trkpt lat="45.23335" lon="6.16786">
        <ele>1826.4</ele>
        <time>2021-02-27T13:12:26Z</time>
      </trkpt>
      <trkpt lat="45.23335" lon="6.16786">
        <ele>1826.4</ele>
        <time>2021-02-27T13:12:27Z</time>
      </trkpt>
      <trkpt lat="45.23336" lon="6.16788">
        <ele>1826.6</ele>
        <time>2021-02-27T13:12:28Z</time>
      </trkpt>
      <trkpt lat="45.23336" lon="6.16788">
        <ele>1827</ele>
        <time>2021-02-27T13:12:29Z</time>
      </trkpt>
      <trkpt lat="45.23337" lon="6.16791">
        <ele>1826.8</ele>
        <time>2021-02-27T13:12:30Z</time>
      </trkpt>
      <trkpt lat="45.23337" lon="6.16791">
        <ele>1827</ele>
        <time>2021-02-27T13:12:31Z</time>
      </trkpt>
      <trkpt lat="45.23338" lon="6.16794">
        <ele>1827.4</ele>
        <time>2021-02-27T13:12:32Z</time>
      </trkpt>
      <trkpt lat="45.23338" lon="6.16794">
        <ele>1827.8</ele>
        <time>2021-02-27T13:12:33Z</time>
      </trkpt>
      <trkpt lat="45.2334" lon="6.16797">
        <ele>1827.6</ele>
        <time>2021-02-27T13:12:34Z</time>
      </trkpt>
      <trkpt lat="45.2334" lon="6.16797">
        <ele>1827.8</ele>
        <time>2021-02-27T13:12:35Z</time>
      </trkpt>
      <trkpt lat="45.23342" lon="6.168">
        <ele>1828</ele>
        <time>2021-02-27T13:12:36Z</time>
      </trkpt>
      <trkpt lat="45.23342" lon="6.168">
        <ele>1828.4</ele>
        <time>2021-02-27T13:12:37Z</time>
      </trkpt>
      <trkpt lat="45.23344" lon="6.16803">
        <ele>1828</ele>
        <time>2021-02-27T13:12:38Z</time>
      </trkpt>
      <trkpt lat="45.23344" lon="6.16803">
        <ele>1828</ele>
        <time>2021-02-27T13:12:39Z</time>
      </trkpt>
      <trkpt lat="45.23345" lon="6.16806">
        <ele>1828.2</ele>
        <time>2021-02-27T13:12:40Z</time>
      </trkpt>
      <trkpt lat="45.23345" lon="6.16806">
        <ele>1828.8</ele>
        <time>2021-02-27T13:12:41Z</time>
      </trkpt>
      <trkpt lat="45.23346" lon="6.16808">
        <ele>1829</ele>
        <time>2021-02-27T13:12:42Z</time>
      </trkpt>
      <trkpt lat="45.23346" lon="6.16808">
        <ele>1829.2</ele>
        <time>2021-02-27T13:12:43Z</time>
      </trkpt>
      <trkpt lat="45.23346" lon="6.16812">
        <ele>1829.4</ele>
        <time>2021-02-27T13:12:44Z</time>
      </trkpt>
      <trkpt lat="45.23346" lon="6.16812">
        <ele>1829.6</ele>
        <time>2021-02-27T13:12:45Z</time>
      </trkpt>
      <trkpt lat="45.23347" lon="6.16814">
        <ele>1829.4</ele>
        <time>2021-02-27T13:12:46Z</time>
      </trkpt>
      <trkpt lat="45.23347" lon="6.16814">
        <ele>1829.6</ele>
        <time>2021-02-27T13:12:47Z</time>
      </trkpt>
      <trkpt lat="45.23348" lon="6.16818">
        <ele>1829.8</ele>
        <time>2021-02-27T13:12:48Z</time>
      </trkpt>
      <trkpt lat="45.23348" lon="6.16818">
        <ele>1829.4</ele>
        <time>2021-02-27T13:12:49Z</time>
      </trkpt>
      <trkpt lat="45.23348" lon="6.16821">
        <ele>1829</ele>
        <time>2021-02-27T13:12:50Z</time>
      </trkpt>
      <trkpt lat="45.23348" lon="6.16821">
        <ele>1829</ele>
        <time>2021-02-27T13:12:51Z</time>
      </trkpt>
      <trkpt lat="45.23349" lon="6.16824">
        <ele>1829</ele>
        <time>2021-02-27T13:12:52Z</time>
      </trkpt>
      <trkpt lat="45.23349" lon="6.16824">
        <ele>1829.2</ele>
        <time>2021-02-27T13:12:53Z</time>
      </trkpt>
      <trkpt lat="45.23349" lon="6.16827">
        <ele>1829.6</ele>
        <time>2021-02-27T13:12:54Z</time>
      </trkpt>
      <trkpt lat="45.23349" lon="6.16827">
        <ele>1829.4</ele>
        <time>2021-02-27T13:12:55Z</time>
      </trkpt>
      <trkpt lat="45.2335" lon="6.1683">
        <ele>1829.8</ele>
        <time>2021-02-27T13:12:56Z</time>
      </trkpt>
      <trkpt lat="45.2335" lon="6.1683">
        <ele>1829.8</ele>
        <time>2021-02-27T13:12:57Z</time>
      </trkpt>
      <trkpt lat="45.23351" lon="6.16833">
        <ele>1830.4</ele>
        <time>2021-02-27T13:12:58Z</time>
      </trkpt>
      <trkpt lat="45.23351" lon="6.16833">
        <ele>1830.6</ele>
        <time>2021-02-27T13:12:59Z</time>
      </trkpt>
      <trkpt lat="45.23352" lon="6.16835">
        <ele>1830.6</ele>
        <time>2021-02-27T13:13:00Z</time>
      </trkpt>
      <trkpt lat="45.23352" lon="6.16835">
        <ele>1830.4</ele>
        <time>2021-02-27T13:13:01Z</time>
      </trkpt>
      <trkpt lat="45.23353" lon="6.16838">
        <ele>1830.2</ele>
        <time>2021-02-27T13:13:02Z</time>
      </trkpt>
      <trkpt lat="45.23353" lon="6.16838">
        <ele>1830.4</ele>
        <time>2021-02-27T13:13:03Z</time>
      </trkpt>
      <trkpt lat="45.23353" lon="6.16842">
        <ele>1830.4</ele>
        <time>2021-02-27T13:13:04Z</time>
      </trkpt>
      <trkpt lat="45.23353" lon="6.16842">
        <ele>1830.6</ele>
        <time>2021-02-27T13:13:05Z</time>
      </trkpt>
      <trkpt lat="45.23354" lon="6.16845">
        <ele>1830.8</ele>
        <time>2021-02-27T13:13:06Z</time>
      </trkpt>
      <trkpt lat="45.23354" lon="6.16845">
        <ele>1831.2</ele>
        <time>2021-02-27T13:13:07Z</time>
      </trkpt>
      <trkpt lat="45.23355" lon="6.16847">
        <ele>1831</ele>
        <time>2021-02-27T13:13:08Z</time>
      </trkpt>
      <trkpt lat="45.23355" lon="6.16847">
        <ele>1831.2</ele>
        <time>2021-02-27T13:13:09Z</time>
      </trkpt>
      <trkpt lat="45.23355" lon="6.16851">
        <ele>1831.2</ele>
        <time>2021-02-27T13:13:10Z</time>
      </trkpt>
      <trkpt lat="45.23355" lon="6.16851">
        <ele>1831</ele>
        <time>2021-02-27T13:13:11Z</time>
      </trkpt>
      <trkpt lat="45.23355" lon="6.16853">
        <ele>1831.4</ele>
        <time>2021-02-27T13:13:12Z</time>
      </trkpt>
      <trkpt lat="45.23355" lon="6.16853">
        <ele>1831.6</ele>
        <time>2021-02-27T13:13:13Z</time>
      </trkpt>
      <trkpt lat="45.23356" lon="6.16856">
        <ele>1831.8</ele>
        <time>2021-02-27T13:13:14Z</time>
      </trkpt>
      <trkpt lat="45.23356" lon="6.16856">
        <ele>1831.6</ele>
        <time>2021-02-27T13:13:15Z</time>
      </trkpt>
      <trkpt lat="45.23356" lon="6.16856">
        <ele>1831.6</ele>
        <time>2021-02-27T13:13:16Z</time>
      </trkpt>
      <trkpt lat="45.23357" lon="6.1686">
        <ele>1831.6</ele>
        <time>2021-02-27T13:13:17Z</time>
      </trkpt>
      <trkpt lat="45.23357" lon="6.1686">
        <ele>1831.6</ele>
        <time>2021-02-27T13:13:18Z</time>
      </trkpt>
      <trkpt lat="45.23357" lon="6.16863">
        <ele>1831.4</ele>
        <time>2021-02-27T13:13:19Z</time>
      </trkpt>
      <trkpt lat="45.23357" lon="6.16863">
        <ele>1831.8</ele>
        <time>2021-02-27T13:13:20Z</time>
      </trkpt>
      <trkpt lat="45.23358" lon="6.16866">
        <ele>1831.8</ele>
        <time>2021-02-27T13:13:21Z</time>
      </trkpt>
      <trkpt lat="45.23358" lon="6.16866">
        <ele>1832.2</ele>
        <time>2021-02-27T13:13:22Z</time>
      </trkpt>
      <trkpt lat="45.23358" lon="6.16869">
        <ele>1832.4</ele>
        <time>2021-02-27T13:13:23Z</time>
      </trkpt>
      <trkpt lat="45.23358" lon="6.16869">
        <ele>1832.2</ele>
        <time>2021-02-27T13:13:24Z</time>
      </trkpt>
      <trkpt lat="45.23359" lon="6.16871">
        <ele>1832.6</ele>
        <time>2021-02-27T13:13:25Z</time>
      </trkpt>
      <trkpt lat="45.23359" lon="6.16871">
        <ele>1832.6</ele>
        <time>2021-02-27T13:13:26Z</time>
      </trkpt>
      <trkpt lat="45.23359" lon="6.16874">
        <ele>1832.6</ele>
        <time>2021-02-27T13:13:27Z</time>
      </trkpt>
      <trkpt lat="45.23359" lon="6.16874">
        <ele>1832.8</ele>
        <time>2021-02-27T13:13:28Z</time>
      </trkpt>
      <trkpt lat="45.2336" lon="6.16877">
        <ele>1833.2</ele>
        <time>2021-02-27T13:13:29Z</time>
      </trkpt>
      <trkpt lat="45.2336" lon="6.16877">
        <ele>1833.4</ele>
        <time>2021-02-27T13:13:30Z</time>
      </trkpt>
      <trkpt lat="45.23361" lon="6.1688">
        <ele>1833.6</ele>
        <time>2021-02-27T13:13:31Z</time>
      </trkpt>
      <trkpt lat="45.23361" lon="6.1688">
        <ele>1833.8</ele>
        <time>2021-02-27T13:13:32Z</time>
      </trkpt>
      <trkpt lat="45.23362" lon="6.16883">
        <ele>1833.8</ele>
        <time>2021-02-27T13:13:33Z</time>
      </trkpt>
      <trkpt lat="45.23362" lon="6.16883">
        <ele>1834</ele>
        <time>2021-02-27T13:13:34Z</time>
      </trkpt>
      <trkpt lat="45.23363" lon="6.16885">
        <ele>1834</ele>
        <time>2021-02-27T13:13:35Z</time>
      </trkpt>
      <trkpt lat="45.23363" lon="6.16885">
        <ele>1833.8</ele>
        <time>2021-02-27T13:13:36Z</time>
      </trkpt>
      <trkpt lat="45.23364" lon="6.16887">
        <ele>1834.2</ele>
        <time>2021-02-27T13:13:37Z</time>
      </trkpt>
      <trkpt lat="45.23364" lon="6.16887">
        <ele>1834</ele>
        <time>2021-02-27T13:13:38Z</time>
      </trkpt>
      <trkpt lat="45.23365" lon="6.1689">
        <ele>1834.2</ele>
        <time>2021-02-27T13:13:39Z</time>
      </trkpt>
      <trkpt lat="45.23365" lon="6.1689">
        <ele>1834.2</ele>
        <time>2021-02-27T13:13:40Z</time>
      </trkpt>
      <trkpt lat="45.23367" lon="6.16893">
        <ele>1834.4</ele>
        <time>2021-02-27T13:13:41Z</time>
      </trkpt>
      <trkpt lat="45.23367" lon="6.16893">
        <ele>1834.6</ele>
        <time>2021-02-27T13:13:42Z</time>
      </trkpt>
      <trkpt lat="45.23367" lon="6.16896">
        <ele>1834.8</ele>
        <time>2021-02-27T13:13:43Z</time>
      </trkpt>
      <trkpt lat="45.23367" lon="6.16896">
        <ele>1835.2</ele>
        <time>2021-02-27T13:13:44Z</time>
      </trkpt>
      <trkpt lat="45.23368" lon="6.16898">
        <ele>1835.4</ele>
        <time>2021-02-27T13:13:45Z</time>
      </trkpt>
      <trkpt lat="45.23368" lon="6.16898">
        <ele>1835</ele>
        <time>2021-02-27T13:13:46Z</time>
      </trkpt>
      <trkpt lat="45.23369" lon="6.16902">
        <ele>1835</ele>
        <time>2021-02-27T13:13:47Z</time>
      </trkpt>
      <trkpt lat="45.23369" lon="6.16902">
        <ele>1834.8</ele>
        <time>2021-02-27T13:13:48Z</time>
      </trkpt>
      <trkpt lat="45.2337" lon="6.16905">
        <ele>1835.4</ele>
        <time>2021-02-27T13:13:49Z</time>
      </trkpt>
      <trkpt lat="45.2337" lon="6.16905">
        <ele>1835.4</ele>
        <time>2021-02-27T13:13:50Z</time>
      </trkpt>
      <trkpt lat="45.23371" lon="6.16908">
        <ele>1835.4</ele>
        <time>2021-02-27T13:13:51Z</time>
      </trkpt>
      <trkpt lat="45.23371" lon="6.16908">
        <ele>1835.4</ele>
        <time>2021-02-27T13:13:52Z</time>
      </trkpt>
      <trkpt lat="45.23373" lon="6.1691">
        <ele>1835.6</ele>
        <time>2021-02-27T13:13:53Z</time>
      </trkpt>
      <trkpt lat="45.23373" lon="6.1691">
        <ele>1835.8</ele>
        <time>2021-02-27T13:13:54Z</time>
      </trkpt>
      <trkpt lat="45.23374" lon="6.16912">
        <ele>1835.6</ele>
        <time>2021-02-27T13:13:55Z</time>
      </trkpt>
      <trkpt lat="45.23374" lon="6.16912">
        <ele>1835.8</ele>
        <time>2021-02-27T13:13:56Z</time>
      </trkpt>
      <trkpt lat="45.23375" lon="6.16915">
        <ele>1835.8</ele>
        <time>2021-02-27T13:13:57Z</time>
      </trkpt>
      <trkpt lat="45.23375" lon="6.16915">
        <ele>1836</ele>
        <time>2021-02-27T13:13:58Z</time>
      </trkpt>
      <trkpt lat="45.23377" lon="6.16917">
        <ele>1836</ele>
        <time>2021-02-27T13:13:59Z</time>
      </trkpt>
      <trkpt lat="45.23377" lon="6.16917">
        <ele>1836.2</ele>
        <time>2021-02-27T13:14:00Z</time>
      </trkpt>
      <trkpt lat="45.23377" lon="6.1692">
        <ele>1836.2</ele>
        <time>2021-02-27T13:14:01Z</time>
      </trkpt>
      <trkpt lat="45.23377" lon="6.1692">
        <ele>1836.6</ele>
        <time>2021-02-27T13:14:02Z</time>
      </trkpt>
      <trkpt lat="45.23378" lon="6.16923">
        <ele>1836.4</ele>
        <time>2021-02-27T13:14:03Z</time>
      </trkpt>
      <trkpt lat="45.23378" lon="6.16923">
        <ele>1837</ele>
        <time>2021-02-27T13:14:04Z</time>
      </trkpt>
      <trkpt lat="45.23379" lon="6.16926">
        <ele>1837</ele>
        <time>2021-02-27T13:14:05Z</time>
      </trkpt>
      <trkpt lat="45.23379" lon="6.16926">
        <ele>1837.4</ele>
        <time>2021-02-27T13:14:06Z</time>
      </trkpt>
      <trkpt lat="45.2338" lon="6.16928">
        <ele>1837.2</ele>
        <time>2021-02-27T13:14:07Z</time>
      </trkpt>
      <trkpt lat="45.2338" lon="6.16928">
        <ele>1837.2</ele>
        <time>2021-02-27T13:14:08Z</time>
      </trkpt>
      <trkpt lat="45.23381" lon="6.16931">
        <ele>1837.4</ele>
        <time>2021-02-27T13:14:09Z</time>
      </trkpt>
      <trkpt lat="45.23381" lon="6.16931">
        <ele>1837.4</ele>
        <time>2021-02-27T13:14:10Z</time>
      </trkpt>
      <trkpt lat="45.23381" lon="6.16934">
        <ele>1837</ele>
        <time>2021-02-27T13:14:11Z</time>
      </trkpt>
      <trkpt lat="45.23381" lon="6.16934">
        <ele>1837.2</ele>
        <time>2021-02-27T13:14:12Z</time>
      </trkpt>
      <trkpt lat="45.23383" lon="6.16937">
        <ele>1837.6</ele>
        <time>2021-02-27T13:14:13Z</time>
      </trkpt>
      <trkpt lat="45.23383" lon="6.16937">
        <ele>1837.4</ele>
        <time>2021-02-27T13:14:14Z</time>
      </trkpt>
      <trkpt lat="45.23384" lon="6.16939">
        <ele>1837.8</ele>
        <time>2021-02-27T13:14:15Z</time>
      </trkpt>
      <trkpt lat="45.23384" lon="6.16939">
        <ele>1838.2</ele>
        <time>2021-02-27T13:14:16Z</time>
      </trkpt>
      <trkpt lat="45.23386" lon="6.16942">
        <ele>1838</ele>
        <time>2021-02-27T13:14:17Z</time>
      </trkpt>
      <trkpt lat="45.23386" lon="6.16942">
        <ele>1838.4</ele>
        <time>2021-02-27T13:14:18Z</time>
      </trkpt>
      <trkpt lat="45.23386" lon="6.16942">
        <ele>1838.4</ele>
        <time>2021-02-27T13:14:19Z</time>
      </trkpt>
      <trkpt lat="45.23388" lon="6.16945">
        <ele>1838.6</ele>
        <time>2021-02-27T13:14:20Z</time>
      </trkpt>
      <trkpt lat="45.23388" lon="6.16945">
        <ele>1838.6</ele>
        <time>2021-02-27T13:14:21Z</time>
      </trkpt>
      <trkpt lat="45.23389" lon="6.16948">
        <ele>1838.4</ele>
        <time>2021-02-27T13:14:22Z</time>
      </trkpt>
      <trkpt lat="45.23389" lon="6.16948">
        <ele>1838.4</ele>
        <time>2021-02-27T13:14:23Z</time>
      </trkpt>
      <trkpt lat="45.23391" lon="6.1695">
        <ele>1838.8</ele>
        <time>2021-02-27T13:14:24Z</time>
      </trkpt>
      <trkpt lat="45.23391" lon="6.1695">
        <ele>1839.6</ele>
        <time>2021-02-27T13:14:25Z</time>
      </trkpt>
      <trkpt lat="45.23392" lon="6.16953">
        <ele>1839.4</ele>
        <time>2021-02-27T13:14:26Z</time>
      </trkpt>
      <trkpt lat="45.23392" lon="6.16953">
        <ele>1839.6</ele>
        <time>2021-02-27T13:14:27Z</time>
      </trkpt>
      <trkpt lat="45.23393" lon="6.16955">
        <ele>1839.8</ele>
        <time>2021-02-27T13:14:28Z</time>
      </trkpt>
      <trkpt lat="45.23393" lon="6.16955">
        <ele>1839.6</ele>
        <time>2021-02-27T13:14:29Z</time>
      </trkpt>
      <trkpt lat="45.23394" lon="6.16958">
        <ele>1839.6</ele>
        <time>2021-02-27T13:14:30Z</time>
      </trkpt>
      <trkpt lat="45.23394" lon="6.16958">
        <ele>1839.8</ele>
        <time>2021-02-27T13:14:31Z</time>
      </trkpt>
      <trkpt lat="45.23395" lon="6.1696">
        <ele>1839.8</ele>
        <time>2021-02-27T13:14:32Z</time>
      </trkpt>
      <trkpt lat="45.23395" lon="6.1696">
        <ele>1839.6</ele>
        <time>2021-02-27T13:14:33Z</time>
      </trkpt>
      <trkpt lat="45.23397" lon="6.16962">
        <ele>1839.4</ele>
        <time>2021-02-27T13:14:34Z</time>
      </trkpt>
      <trkpt lat="45.23397" lon="6.16962">
        <ele>1839.4</ele>
        <time>2021-02-27T13:14:35Z</time>
      </trkpt>
      <trkpt lat="45.23397" lon="6.16962">
        <ele>1839.4</ele>
        <time>2021-02-27T13:14:36Z</time>
      </trkpt>
      <trkpt lat="45.23398" lon="6.16964">
        <ele>1840.2</ele>
        <time>2021-02-27T13:14:37Z</time>
      </trkpt>
      <trkpt lat="45.23398" lon="6.16964">
        <ele>1840.4</ele>
        <time>2021-02-27T13:14:38Z</time>
      </trkpt>
      <trkpt lat="45.23398" lon="6.16964">
        <ele>1840.4</ele>
        <time>2021-02-27T13:14:39Z</time>
      </trkpt>
      <trkpt lat="45.234" lon="6.16967">
        <ele>1840.6</ele>
        <time>2021-02-27T13:14:40Z</time>
      </trkpt>
      <trkpt lat="45.234" lon="6.16967">
        <ele>1840.6</ele>
        <time>2021-02-27T13:14:41Z</time>
      </trkpt>
      <trkpt lat="45.234" lon="6.16967">
        <ele>1840.8</ele>
        <time>2021-02-27T13:14:42Z</time>
      </trkpt>
      <trkpt lat="45.23402" lon="6.1697">
        <ele>1841</ele>
        <time>2021-02-27T13:14:43Z</time>
      </trkpt>
      <trkpt lat="45.23402" lon="6.1697">
        <ele>1841.4</ele>
        <time>2021-02-27T13:14:44Z</time>
      </trkpt>
      <trkpt lat="45.23403" lon="6.16972">
        <ele>1841</ele>
        <time>2021-02-27T13:14:45Z</time>
      </trkpt>
      <trkpt lat="45.23403" lon="6.16972">
        <ele>1841.2</ele>
        <time>2021-02-27T13:14:46Z</time>
      </trkpt>
      <trkpt lat="45.23405" lon="6.16975">
        <ele>1841.2</ele>
        <time>2021-02-27T13:14:47Z</time>
      </trkpt>
      <trkpt lat="45.23405" lon="6.16975">
        <ele>1841</ele>
        <time>2021-02-27T13:14:48Z</time>
      </trkpt>
      <trkpt lat="45.23406" lon="6.16978">
        <ele>1841.2</ele>
        <time>2021-02-27T13:14:49Z</time>
      </trkpt>
      <trkpt lat="45.23406" lon="6.16978">
        <ele>1841</ele>
        <time>2021-02-27T13:14:50Z</time>
      </trkpt>
      <trkpt lat="45.23407" lon="6.1698">
        <ele>1841.2</ele>
        <time>2021-02-27T13:14:51Z</time>
      </trkpt>
      <trkpt lat="45.23407" lon="6.1698">
        <ele>1841.4</ele>
        <time>2021-02-27T13:14:52Z</time>
      </trkpt>
      <trkpt lat="45.23408" lon="6.16984">
        <ele>1841.6</ele>
        <time>2021-02-27T13:14:53Z</time>
      </trkpt>
      <trkpt lat="45.23408" lon="6.16984">
        <ele>1841.8</ele>
        <time>2021-02-27T13:14:54Z</time>
      </trkpt>
      <trkpt lat="45.2341" lon="6.16988">
        <ele>1841.6</ele>
        <time>2021-02-27T13:14:55Z</time>
      </trkpt>
      <trkpt lat="45.2341" lon="6.16988">
        <ele>1841.4</ele>
        <time>2021-02-27T13:14:56Z</time>
      </trkpt>
      <trkpt lat="45.23411" lon="6.16991">
        <ele>1841.6</ele>
        <time>2021-02-27T13:14:57Z</time>
      </trkpt>
      <trkpt lat="45.23411" lon="6.16991">
        <ele>1841.6</ele>
        <time>2021-02-27T13:14:58Z</time>
      </trkpt>
      <trkpt lat="45.23412" lon="6.16995">
        <ele>1841.8</ele>
        <time>2021-02-27T13:14:59Z</time>
      </trkpt>
      <trkpt lat="45.23412" lon="6.16995">
        <ele>1842.2</ele>
        <time>2021-02-27T13:15:00Z</time>
      </trkpt>
      <trkpt lat="45.23413" lon="6.16999">
        <ele>1842.2</ele>
        <time>2021-02-27T13:15:01Z</time>
      </trkpt>
      <trkpt lat="45.23413" lon="6.16999">
        <ele>1841.8</ele>
        <time>2021-02-27T13:15:02Z</time>
      </trkpt>
      <trkpt lat="45.23414" lon="6.17002">
        <ele>1841.6</ele>
        <time>2021-02-27T13:15:03Z</time>
      </trkpt>
      <trkpt lat="45.23414" lon="6.17002">
        <ele>1841.6</ele>
        <time>2021-02-27T13:15:04Z</time>
      </trkpt>
      <trkpt lat="45.23414" lon="6.17005">
        <ele>1841.6</ele>
        <time>2021-02-27T13:15:05Z</time>
      </trkpt>
      <trkpt lat="45.23414" lon="6.17005">
        <ele>1842</ele>
        <time>2021-02-27T13:15:06Z</time>
      </trkpt>
      <trkpt lat="45.23415" lon="6.17008">
        <ele>1842</ele>
        <time>2021-02-27T13:15:07Z</time>
      </trkpt>
      <trkpt lat="45.23415" lon="6.17008">
        <ele>1842</ele>
        <time>2021-02-27T13:15:08Z</time>
      </trkpt>
      <trkpt lat="45.23417" lon="6.17011">
        <ele>1842.6</ele>
        <time>2021-02-27T13:15:09Z</time>
      </trkpt>
      <trkpt lat="45.23417" lon="6.17011">
        <ele>1842.2</ele>
        <time>2021-02-27T13:15:10Z</time>
      </trkpt>
      <trkpt lat="45.23418" lon="6.17014">
        <ele>1842.2</ele>
        <time>2021-02-27T13:15:11Z</time>
      </trkpt>
      <trkpt lat="45.23418" lon="6.17014">
        <ele>1842.6</ele>
        <time>2021-02-27T13:15:12Z</time>
      </trkpt>
      <trkpt lat="45.23419" lon="6.17017">
        <ele>1843</ele>
        <time>2021-02-27T13:15:13Z</time>
      </trkpt>
      <trkpt lat="45.23419" lon="6.17017">
        <ele>1842.6</ele>
        <time>2021-02-27T13:15:14Z</time>
      </trkpt>
      <trkpt lat="45.2342" lon="6.1702">
        <ele>1842.6</ele>
        <time>2021-02-27T13:15:15Z</time>
      </trkpt>
      <trkpt lat="45.2342" lon="6.1702">
        <ele>1842.8</ele>
        <time>2021-02-27T13:15:16Z</time>
      </trkpt>
      <trkpt lat="45.23421" lon="6.17024">
        <ele>1842.8</ele>
        <time>2021-02-27T13:15:17Z</time>
      </trkpt>
      <trkpt lat="45.23421" lon="6.17024">
        <ele>1842.8</ele>
        <time>2021-02-27T13:15:18Z</time>
      </trkpt>
      <trkpt lat="45.23422" lon="6.17027">
        <ele>1842.6</ele>
        <time>2021-02-27T13:15:19Z</time>
      </trkpt>
      <trkpt lat="45.23422" lon="6.17027">
        <ele>1842.8</ele>
        <time>2021-02-27T13:15:20Z</time>
      </trkpt>
      <trkpt lat="45.23423" lon="6.1703">
        <ele>1843.4</ele>
        <time>2021-02-27T13:15:21Z</time>
      </trkpt>
      <trkpt lat="45.23423" lon="6.1703">
        <ele>1843.6</ele>
        <time>2021-02-27T13:15:22Z</time>
      </trkpt>
      <trkpt lat="45.23424" lon="6.17033">
        <ele>1843.6</ele>
        <time>2021-02-27T13:15:23Z</time>
      </trkpt>
      <trkpt lat="45.23424" lon="6.17033">
        <ele>1843.6</ele>
        <time>2021-02-27T13:15:24Z</time>
      </trkpt>
      <trkpt lat="45.23424" lon="6.17036">
        <ele>1843.6</ele>
        <time>2021-02-27T13:15:25Z</time>
      </trkpt>
      <trkpt lat="45.23424" lon="6.17036">
        <ele>1843.8</ele>
        <time>2021-02-27T13:15:26Z</time>
      </trkpt>
      <trkpt lat="45.23425" lon="6.17039">
        <ele>1844</ele>
        <time>2021-02-27T13:15:27Z</time>
      </trkpt>
      <trkpt lat="45.23425" lon="6.17039">
        <ele>1844.2</ele>
        <time>2021-02-27T13:15:28Z</time>
      </trkpt>
      <trkpt lat="45.23426" lon="6.17042">
        <ele>1844.4</ele>
        <time>2021-02-27T13:15:29Z</time>
      </trkpt>
      <trkpt lat="45.23426" lon="6.17042">
        <ele>1844.4</ele>
        <time>2021-02-27T13:15:30Z</time>
      </trkpt>
      <trkpt lat="45.23426" lon="6.17046">
        <ele>1844.6</ele>
        <time>2021-02-27T13:15:31Z</time>
      </trkpt>
      <trkpt lat="45.23426" lon="6.17046">
        <ele>1844.4</ele>
        <time>2021-02-27T13:15:32Z</time>
      </trkpt>
      <trkpt lat="45.23428" lon="6.17049">
        <ele>1844.8</ele>
        <time>2021-02-27T13:15:33Z</time>
      </trkpt>
      <trkpt lat="45.23428" lon="6.17049">
        <ele>1845</ele>
        <time>2021-02-27T13:15:34Z</time>
      </trkpt>
      <trkpt lat="45.23429" lon="6.17053">
        <ele>1845.6</ele>
        <time>2021-02-27T13:15:35Z</time>
      </trkpt>
      <trkpt lat="45.23429" lon="6.17053">
        <ele>1846.2</ele>
        <time>2021-02-27T13:15:36Z</time>
      </trkpt>
      <trkpt lat="45.2343" lon="6.17056">
        <ele>1846</ele>
        <time>2021-02-27T13:15:37Z</time>
      </trkpt>
      <trkpt lat="45.2343" lon="6.17056">
        <ele>1846</ele>
        <time>2021-02-27T13:15:38Z</time>
      </trkpt>
      <trkpt lat="45.23431" lon="6.17059">
        <ele>1845.8</ele>
        <time>2021-02-27T13:15:39Z</time>
      </trkpt>
      <trkpt lat="45.23431" lon="6.17059">
        <ele>1846</ele>
        <time>2021-02-27T13:15:40Z</time>
      </trkpt>
      <trkpt lat="45.23431" lon="6.17062">
        <ele>1845.8</ele>
        <time>2021-02-27T13:15:41Z</time>
      </trkpt>
      <trkpt lat="45.23431" lon="6.17062">
        <ele>1845.4</ele>
        <time>2021-02-27T13:15:42Z</time>
      </trkpt>
      <trkpt lat="45.23432" lon="6.17065">
        <ele>1846</ele>
        <time>2021-02-27T13:15:43Z</time>
      </trkpt>
      <trkpt lat="45.23432" lon="6.17065">
        <ele>1845.6</ele>
        <time>2021-02-27T13:15:44Z</time>
      </trkpt>
      <trkpt lat="45.23433" lon="6.17068">
        <ele>1846</ele>
        <time>2021-02-27T13:15:45Z</time>
      </trkpt>
      <trkpt lat="45.23433" lon="6.17068">
        <ele>1846</ele>
        <time>2021-02-27T13:15:46Z</time>
      </trkpt>
      <trkpt lat="45.23434" lon="6.17071">
        <ele>1846</ele>
        <time>2021-02-27T13:15:47Z</time>
      </trkpt>
      <trkpt lat="45.23434" lon="6.17071">
        <ele>1845.8</ele>
        <time>2021-02-27T13:15:48Z</time>
      </trkpt>
      <trkpt lat="45.23435" lon="6.17074">
        <ele>1846</ele>
        <time>2021-02-27T13:15:49Z</time>
      </trkpt>
      <trkpt lat="45.23435" lon="6.17074">
        <ele>1846.6</ele>
        <time>2021-02-27T13:15:50Z</time>
      </trkpt>
      <trkpt lat="45.23436" lon="6.17077">
        <ele>1846.8</ele>
        <time>2021-02-27T13:15:51Z</time>
      </trkpt>
      <trkpt lat="45.23436" lon="6.17077">
        <ele>1847</ele>
        <time>2021-02-27T13:15:52Z</time>
      </trkpt>
      <trkpt lat="45.23437" lon="6.17081">
        <ele>1846.6</ele>
        <time>2021-02-27T13:15:53Z</time>
      </trkpt>
      <trkpt lat="45.23437" lon="6.17081">
        <ele>1846.6</ele>
        <time>2021-02-27T13:15:54Z</time>
      </trkpt>
      <trkpt lat="45.23438" lon="6.17084">
        <ele>1846.4</ele>
        <time>2021-02-27T13:15:55Z</time>
      </trkpt>
      <trkpt lat="45.23438" lon="6.17084">
        <ele>1846.6</ele>
        <time>2021-02-27T13:15:56Z</time>
      </trkpt>
      <trkpt lat="45.23439" lon="6.17087">
        <ele>1846.8</ele>
        <time>2021-02-27T13:15:57Z</time>
      </trkpt>
      <trkpt lat="45.23439" lon="6.17087">
        <ele>1846.8</ele>
        <time>2021-02-27T13:15:58Z</time>
      </trkpt>
      <trkpt lat="45.2344" lon="6.17091">
        <ele>1847</ele>
        <time>2021-02-27T13:15:59Z</time>
      </trkpt>
      <trkpt lat="45.2344" lon="6.17091">
        <ele>1847.4</ele>
        <time>2021-02-27T13:16:00Z</time>
      </trkpt>
      <trkpt lat="45.23441" lon="6.17094">
        <ele>1847.2</ele>
        <time>2021-02-27T13:16:01Z</time>
      </trkpt>
      <trkpt lat="45.23441" lon="6.17094">
        <ele>1847.4</ele>
        <time>2021-02-27T13:16:02Z</time>
      </trkpt>
      <trkpt lat="45.23442" lon="6.17098">
        <ele>1847.6</ele>
        <time>2021-02-27T13:16:03Z</time>
      </trkpt>
      <trkpt lat="45.23442" lon="6.17098">
        <ele>1847.8</ele>
        <time>2021-02-27T13:16:04Z</time>
      </trkpt>
      <trkpt lat="45.23443" lon="6.17101">
        <ele>1847.6</ele>
        <time>2021-02-27T13:16:05Z</time>
      </trkpt>
      <trkpt lat="45.23443" lon="6.17101">
        <ele>1847.4</ele>
        <time>2021-02-27T13:16:06Z</time>
      </trkpt>
      <trkpt lat="45.23444" lon="6.17104">
        <ele>1848</ele>
        <time>2021-02-27T13:16:07Z</time>
      </trkpt>
      <trkpt lat="45.23444" lon="6.17104">
        <ele>1848.2</ele>
        <time>2021-02-27T13:16:08Z</time>
      </trkpt>
      <trkpt lat="45.23446" lon="6.17107">
        <ele>1848.6</ele>
        <time>2021-02-27T13:16:09Z</time>
      </trkpt>
      <trkpt lat="45.23446" lon="6.17107">
        <ele>1848.6</ele>
        <time>2021-02-27T13:16:10Z</time>
      </trkpt>
      <trkpt lat="45.23446" lon="6.1711">
        <ele>1848.6</ele>
        <time>2021-02-27T13:16:11Z</time>
      </trkpt>
      <trkpt lat="45.23446" lon="6.1711">
        <ele>1848.6</ele>
        <time>2021-02-27T13:16:12Z</time>
      </trkpt>
      <trkpt lat="45.23447" lon="6.17112">
        <ele>1848.6</ele>
        <time>2021-02-27T13:16:13Z</time>
      </trkpt>
      <trkpt lat="45.23447" lon="6.17112">
        <ele>1848.4</ele>
        <time>2021-02-27T13:16:14Z</time>
      </trkpt>
      <trkpt lat="45.23448" lon="6.17115">
        <ele>1848.4</ele>
        <time>2021-02-27T13:16:15Z</time>
      </trkpt>
      <trkpt lat="45.23448" lon="6.17115">
        <ele>1848.6</ele>
        <time>2021-02-27T13:16:16Z</time>
      </trkpt>
      <trkpt lat="45.2345" lon="6.17117">
        <ele>1848.6</ele>
        <time>2021-02-27T13:16:17Z</time>
      </trkpt>
      <trkpt lat="45.2345" lon="6.17117">
        <ele>1848.8</ele>
        <time>2021-02-27T13:16:18Z</time>
      </trkpt>
      <trkpt lat="45.23451" lon="6.1712">
        <ele>1848.8</ele>
        <time>2021-02-27T13:16:19Z</time>
      </trkpt>
      <trkpt lat="45.23451" lon="6.1712">
        <ele>1848.8</ele>
        <time>2021-02-27T13:16:20Z</time>
      </trkpt>
      <trkpt lat="45.23452" lon="6.17123">
        <ele>1849</ele>
        <time>2021-02-27T13:16:21Z</time>
      </trkpt>
      <trkpt lat="45.23452" lon="6.17123">
        <ele>1849.2</ele>
        <time>2021-02-27T13:16:22Z</time>
      </trkpt>
      <trkpt lat="45.23453" lon="6.17125">
        <ele>1850.2</ele>
        <time>2021-02-27T13:16:23Z</time>
      </trkpt>
      <trkpt lat="45.23453" lon="6.17125">
        <ele>1850.4</ele>
        <time>2021-02-27T13:16:24Z</time>
      </trkpt>
      <trkpt lat="45.23454" lon="6.17128">
        <ele>1850.4</ele>
        <time>2021-02-27T13:16:25Z</time>
      </trkpt>
      <trkpt lat="45.23454" lon="6.17128">
        <ele>1850.4</ele>
        <time>2021-02-27T13:16:26Z</time>
      </trkpt>
      <trkpt lat="45.23456" lon="6.17131">
        <ele>1850.8</ele>
        <time>2021-02-27T13:16:27Z</time>
      </trkpt>
      <trkpt lat="45.23456" lon="6.17131">
        <ele>1851</ele>
        <time>2021-02-27T13:16:28Z</time>
      </trkpt>
      <trkpt lat="45.23458" lon="6.17134">
        <ele>1851</ele>
        <time>2021-02-27T13:16:29Z</time>
      </trkpt>
      <trkpt lat="45.23458" lon="6.17134">
        <ele>1850.6</ele>
        <time>2021-02-27T13:16:30Z</time>
      </trkpt>
      <trkpt lat="45.23459" lon="6.17137">
        <ele>1850.6</ele>
        <time>2021-02-27T13:16:31Z</time>
      </trkpt>
      <trkpt lat="45.23459" lon="6.17137">
        <ele>1850.4</ele>
        <time>2021-02-27T13:16:32Z</time>
      </trkpt>
      <trkpt lat="45.2346" lon="6.1714">
        <ele>1850.6</ele>
        <time>2021-02-27T13:16:33Z</time>
      </trkpt>
      <trkpt lat="45.2346" lon="6.1714">
        <ele>1851</ele>
        <time>2021-02-27T13:16:34Z</time>
      </trkpt>
      <trkpt lat="45.23461" lon="6.17143">
        <ele>1851.6</ele>
        <time>2021-02-27T13:16:35Z</time>
      </trkpt>
      <trkpt lat="45.23461" lon="6.17143">
        <ele>1851.6</ele>
        <time>2021-02-27T13:16:36Z</time>
      </trkpt>
      <trkpt lat="45.23462" lon="6.17146">
        <ele>1851.6</ele>
        <time>2021-02-27T13:16:37Z</time>
      </trkpt>
      <trkpt lat="45.23462" lon="6.17146">
        <ele>1852.2</ele>
        <time>2021-02-27T13:16:38Z</time>
      </trkpt>
      <trkpt lat="45.23463" lon="6.1715">
        <ele>1852.4</ele>
        <time>2021-02-27T13:16:39Z</time>
      </trkpt>
      <trkpt lat="45.23463" lon="6.1715">
        <ele>1852.6</ele>
        <time>2021-02-27T13:16:40Z</time>
      </trkpt>
      <trkpt lat="45.23464" lon="6.17152">
        <ele>1852.6</ele>
        <time>2021-02-27T13:16:41Z</time>
      </trkpt>
      <trkpt lat="45.23464" lon="6.17152">
        <ele>1852.8</ele>
        <time>2021-02-27T13:16:42Z</time>
      </trkpt>
      <trkpt lat="45.23465" lon="6.17155">
        <ele>1853.2</ele>
        <time>2021-02-27T13:16:43Z</time>
      </trkpt>
      <trkpt lat="45.23465" lon="6.17155">
        <ele>1853.2</ele>
        <time>2021-02-27T13:16:44Z</time>
      </trkpt>
      <trkpt lat="45.23467" lon="6.17158">
        <ele>1853.4</ele>
        <time>2021-02-27T13:16:45Z</time>
      </trkpt>
      <trkpt lat="45.23467" lon="6.17158">
        <ele>1853.8</ele>
        <time>2021-02-27T13:16:46Z</time>
      </trkpt>
      <trkpt lat="45.23468" lon="6.17162">
        <ele>1854</ele>
        <time>2021-02-27T13:16:47Z</time>
      </trkpt>
      <trkpt lat="45.23468" lon="6.17162">
        <ele>1853.8</ele>
        <time>2021-02-27T13:16:48Z</time>
      </trkpt>
      <trkpt lat="45.23469" lon="6.17164">
        <ele>1853.8</ele>
        <time>2021-02-27T13:16:49Z</time>
      </trkpt>
      <trkpt lat="45.23469" lon="6.17164">
        <ele>1854</ele>
        <time>2021-02-27T13:16:50Z</time>
      </trkpt>
      <trkpt lat="45.23471" lon="6.17167">
        <ele>1854.2</ele>
        <time>2021-02-27T13:16:51Z</time>
      </trkpt>
      <trkpt lat="45.23471" lon="6.17167">
        <ele>1854.2</ele>
        <time>2021-02-27T13:16:52Z</time>
      </trkpt>
      <trkpt lat="45.23473" lon="6.17169">
        <ele>1854</ele>
        <time>2021-02-27T13:16:53Z</time>
      </trkpt>
      <trkpt lat="45.23473" lon="6.17169">
        <ele>1854.4</ele>
        <time>2021-02-27T13:16:54Z</time>
      </trkpt>
      <trkpt lat="45.23475" lon="6.17171">
        <ele>1854.8</ele>
        <time>2021-02-27T13:16:55Z</time>
      </trkpt>
      <trkpt lat="45.23475" lon="6.17171">
        <ele>1855.2</ele>
        <time>2021-02-27T13:16:56Z</time>
      </trkpt>
      <trkpt lat="45.23476" lon="6.17174">
        <ele>1855</ele>
        <time>2021-02-27T13:16:57Z</time>
      </trkpt>
      <trkpt lat="45.23476" lon="6.17174">
        <ele>1855.2</ele>
        <time>2021-02-27T13:16:58Z</time>
      </trkpt>
      <trkpt lat="45.23477" lon="6.17177">
        <ele>1855.8</ele>
        <time>2021-02-27T13:16:59Z</time>
      </trkpt>
      <trkpt lat="45.23477" lon="6.17177">
        <ele>1855.6</ele>
        <time>2021-02-27T13:17:00Z</time>
      </trkpt>
      <trkpt lat="45.23479" lon="6.1718">
        <ele>1855.6</ele>
        <time>2021-02-27T13:17:01Z</time>
      </trkpt>
      <trkpt lat="45.23479" lon="6.1718">
        <ele>1855.6</ele>
        <time>2021-02-27T13:17:02Z</time>
      </trkpt>
      <trkpt lat="45.23481" lon="6.17183">
        <ele>1856</ele>
        <time>2021-02-27T13:17:03Z</time>
      </trkpt>
      <trkpt lat="45.23481" lon="6.17183">
        <ele>1856</ele>
        <time>2021-02-27T13:17:04Z</time>
      </trkpt>
      <trkpt lat="45.23482" lon="6.17185">
        <ele>1856</ele>
        <time>2021-02-27T13:17:05Z</time>
      </trkpt>
      <trkpt lat="45.23482" lon="6.17185">
        <ele>1856.2</ele>
        <time>2021-02-27T13:17:06Z</time>
      </trkpt>
      <trkpt lat="45.23484" lon="6.17188">
        <ele>1856.4</ele>
        <time>2021-02-27T13:17:07Z</time>
      </trkpt>
      <trkpt lat="45.23484" lon="6.17188">
        <ele>1856.4</ele>
        <time>2021-02-27T13:17:08Z</time>
      </trkpt>
      <trkpt lat="45.23485" lon="6.17191">
        <ele>1856.6</ele>
        <time>2021-02-27T13:17:09Z</time>
      </trkpt>
      <trkpt lat="45.23485" lon="6.17191">
        <ele>1856.6</ele>
        <time>2021-02-27T13:17:10Z</time>
      </trkpt>
      <trkpt lat="45.23487" lon="6.17194">
        <ele>1856.6</ele>
        <time>2021-02-27T13:17:11Z</time>
      </trkpt>
      <trkpt lat="45.23487" lon="6.17194">
        <ele>1856.2</ele>
        <time>2021-02-27T13:17:12Z</time>
      </trkpt>
      <trkpt lat="45.23488" lon="6.17196">
        <ele>1856.2</ele>
        <time>2021-02-27T13:17:13Z</time>
      </trkpt>
      <trkpt lat="45.23488" lon="6.17196">
        <ele>1856.6</ele>
        <time>2021-02-27T13:17:14Z</time>
      </trkpt>
      <trkpt lat="45.23489" lon="6.17199">
        <ele>1856.8</ele>
        <time>2021-02-27T13:17:15Z</time>
      </trkpt>
      <trkpt lat="45.23489" lon="6.17199">
        <ele>1857</ele>
        <time>2021-02-27T13:17:16Z</time>
      </trkpt>
      <trkpt lat="45.23491" lon="6.17201">
        <ele>1857.2</ele>
        <time>2021-02-27T13:17:17Z</time>
      </trkpt>
      <trkpt lat="45.23491" lon="6.17201">
        <ele>1857.2</ele>
        <time>2021-02-27T13:17:18Z</time>
      </trkpt>
      <trkpt lat="45.23493" lon="6.17204">
        <ele>1857</ele>
        <time>2021-02-27T13:17:19Z</time>
      </trkpt>
      <trkpt lat="45.23493" lon="6.17204">
        <ele>1857.4</ele>
        <time>2021-02-27T13:17:20Z</time>
      </trkpt>
      <trkpt lat="45.23495" lon="6.17206">
        <ele>1857.4</ele>
        <time>2021-02-27T13:17:21Z</time>
      </trkpt>
      <trkpt lat="45.23495" lon="6.17206">
        <ele>1857.8</ele>
        <time>2021-02-27T13:17:22Z</time>
      </trkpt>
      <trkpt lat="45.23497" lon="6.17208">
        <ele>1858</ele>
        <time>2021-02-27T13:17:23Z</time>
      </trkpt>
      <trkpt lat="45.23497" lon="6.17208">
        <ele>1858</ele>
        <time>2021-02-27T13:17:24Z</time>
      </trkpt>
      <trkpt lat="45.23497" lon="6.17208">
        <ele>1858</ele>
        <time>2021-02-27T13:17:25Z</time>
      </trkpt>
      <trkpt lat="45.23498" lon="6.17211">
        <ele>1858.2</ele>
        <time>2021-02-27T13:17:26Z</time>
      </trkpt>
      <trkpt lat="45.23498" lon="6.17211">
        <ele>1858.2</ele>
        <time>2021-02-27T13:17:27Z</time>
      </trkpt>
      <trkpt lat="45.235" lon="6.17213">
        <ele>1858.2</ele>
        <time>2021-02-27T13:17:28Z</time>
      </trkpt>
      <trkpt lat="45.235" lon="6.17213">
        <ele>1858.4</ele>
        <time>2021-02-27T13:17:29Z</time>
      </trkpt>
      <trkpt lat="45.23503" lon="6.17215">
        <ele>1858.8</ele>
        <time>2021-02-27T13:17:30Z</time>
      </trkpt>
      <trkpt lat="45.23503" lon="6.17215">
        <ele>1859</ele>
        <time>2021-02-27T13:17:31Z</time>
      </trkpt>
      <trkpt lat="45.23505" lon="6.17217">
        <ele>1859</ele>
        <time>2021-02-27T13:17:32Z</time>
      </trkpt>
      <trkpt lat="45.23505" lon="6.17217">
        <ele>1859.2</ele>
        <time>2021-02-27T13:17:33Z</time>
      </trkpt>
      <trkpt lat="45.23507" lon="6.17219">
        <ele>1858.6</ele>
        <time>2021-02-27T13:17:34Z</time>
      </trkpt>
      <trkpt lat="45.23507" lon="6.17219">
        <ele>1858.6</ele>
        <time>2021-02-27T13:17:35Z</time>
      </trkpt>
      <trkpt lat="45.23509" lon="6.17221">
        <ele>1858.4</ele>
        <time>2021-02-27T13:17:36Z</time>
      </trkpt>
      <trkpt lat="45.23509" lon="6.17221">
        <ele>1858.8</ele>
        <time>2021-02-27T13:17:37Z</time>
      </trkpt>
      <trkpt lat="45.23512" lon="6.17222">
        <ele>1859.4</ele>
        <time>2021-02-27T13:17:38Z</time>
      </trkpt>
      <trkpt lat="45.23512" lon="6.17222">
        <ele>1859.2</ele>
        <time>2021-02-27T13:17:39Z</time>
      </trkpt>
      <trkpt lat="45.23512" lon="6.17222">
        <ele>1859.4</ele>
        <time>2021-02-27T13:17:40Z</time>
      </trkpt>
      <trkpt lat="45.23514" lon="6.17224">
        <ele>1859.4</ele>
        <time>2021-02-27T13:17:41Z</time>
      </trkpt>
      <trkpt lat="45.23514" lon="6.17224">
        <ele>1859.4</ele>
        <time>2021-02-27T13:17:42Z</time>
      </trkpt>
      <trkpt lat="45.23516" lon="6.17226">
        <ele>1859.6</ele>
        <time>2021-02-27T13:17:43Z</time>
      </trkpt>
      <trkpt lat="45.23516" lon="6.17226">
        <ele>1859.8</ele>
        <time>2021-02-27T13:17:44Z</time>
      </trkpt>
      <trkpt lat="45.23519" lon="6.17228">
        <ele>1859.6</ele>
        <time>2021-02-27T13:17:45Z</time>
      </trkpt>
      <trkpt lat="45.23519" lon="6.17228">
        <ele>1859.6</ele>
        <time>2021-02-27T13:17:46Z</time>
      </trkpt>
      <trkpt lat="45.23521" lon="6.17229">
        <ele>1859.8</ele>
        <time>2021-02-27T13:17:47Z</time>
      </trkpt>
      <trkpt lat="45.23521" lon="6.17229">
        <ele>1860.2</ele>
        <time>2021-02-27T13:17:48Z</time>
      </trkpt>
      <trkpt lat="45.23524" lon="6.17231">
        <ele>1860</ele>
        <time>2021-02-27T13:17:49Z</time>
      </trkpt>
      <trkpt lat="45.23524" lon="6.17231">
        <ele>1859.6</ele>
        <time>2021-02-27T13:17:50Z</time>
      </trkpt>
      <trkpt lat="45.23527" lon="6.17233">
        <ele>1859.8</ele>
        <time>2021-02-27T13:17:51Z</time>
      </trkpt>
      <trkpt lat="45.23529" lon="6.17233">
        <ele>1860</ele>
        <time>2021-02-27T13:17:52Z</time>
      </trkpt>
      <trkpt lat="45.23529" lon="6.17233">
        <ele>1860</ele>
        <time>2021-02-27T13:17:53Z</time>
      </trkpt>
      <trkpt lat="45.23531" lon="6.17235">
        <ele>1860</ele>
        <time>2021-02-27T13:17:54Z</time>
      </trkpt>
      <trkpt lat="45.23532" lon="6.17236">
        <ele>1860</ele>
        <time>2021-02-27T13:17:55Z</time>
      </trkpt>
      <trkpt lat="45.23534" lon="6.17236">
        <ele>1859.6</ele>
        <time>2021-02-27T13:17:56Z</time>
      </trkpt>
      <trkpt lat="45.23534" lon="6.17236">
        <ele>1859.6</ele>
        <time>2021-02-27T13:17:57Z</time>
      </trkpt>
      <trkpt lat="45.23537" lon="6.17238">
        <ele>1859.8</ele>
        <time>2021-02-27T13:17:58Z</time>
      </trkpt>
      <trkpt lat="45.23537" lon="6.17238">
        <ele>1860.2</ele>
        <time>2021-02-27T13:17:59Z</time>
      </trkpt>
      <trkpt lat="45.23537" lon="6.17238">
        <ele>1860</ele>
        <time>2021-02-27T13:18:00Z</time>
      </trkpt>
      <trkpt lat="45.23539" lon="6.17239">
        <ele>1860.2</ele>
        <time>2021-02-27T13:18:01Z</time>
      </trkpt>
      <trkpt lat="45.23539" lon="6.17239">
        <ele>1860.2</ele>
        <time>2021-02-27T13:18:02Z</time>
      </trkpt>
      <trkpt lat="45.2354" lon="6.17241">
        <ele>1860.2</ele>
        <time>2021-02-27T13:18:03Z</time>
      </trkpt>
      <trkpt lat="45.2354" lon="6.17241">
        <ele>1860.4</ele>
        <time>2021-02-27T13:18:04Z</time>
      </trkpt>
      <trkpt lat="45.23541" lon="6.17244">
        <ele>1860.4</ele>
        <time>2021-02-27T13:18:05Z</time>
      </trkpt>
      <trkpt lat="45.23541" lon="6.17244">
        <ele>1860.6</ele>
        <time>2021-02-27T13:18:06Z</time>
      </trkpt>
      <trkpt lat="45.23543" lon="6.17246">
        <ele>1860.6</ele>
        <time>2021-02-27T13:18:07Z</time>
      </trkpt>
      <trkpt lat="45.23543" lon="6.17246">
        <ele>1860.6</ele>
        <time>2021-02-27T13:18:08Z</time>
      </trkpt>
      <trkpt lat="45.23544" lon="6.17248">
        <ele>1860.8</ele>
        <time>2021-02-27T13:18:09Z</time>
      </trkpt>
      <trkpt lat="45.23544" lon="6.17248">
        <ele>1860.8</ele>
        <time>2021-02-27T13:18:10Z</time>
      </trkpt>
      <trkpt lat="45.23545" lon="6.1725">
        <ele>1860.8</ele>
        <time>2021-02-27T13:18:11Z</time>
      </trkpt>
      <trkpt lat="45.23545" lon="6.1725">
        <ele>1860.8</ele>
        <time>2021-02-27T13:18:12Z</time>
      </trkpt>
      <trkpt lat="45.23547" lon="6.17253">
        <ele>1861</ele>
        <time>2021-02-27T13:18:13Z</time>
      </trkpt>
      <trkpt lat="45.23547" lon="6.17253">
        <ele>1860.6</ele>
        <time>2021-02-27T13:18:14Z</time>
      </trkpt>
      <trkpt lat="45.23549" lon="6.17255">
        <ele>1861</ele>
        <time>2021-02-27T13:18:15Z</time>
      </trkpt>
      <trkpt lat="45.23549" lon="6.17255">
        <ele>1860.8</ele>
        <time>2021-02-27T13:18:16Z</time>
      </trkpt>
      <trkpt lat="45.23551" lon="6.17257">
        <ele>1861</ele>
        <time>2021-02-27T13:18:17Z</time>
      </trkpt>
      <trkpt lat="45.23551" lon="6.17257">
        <ele>1861</ele>
        <time>2021-02-27T13:18:18Z</time>
      </trkpt>
      <trkpt lat="45.23554" lon="6.17259">
        <ele>1861</ele>
        <time>2021-02-27T13:18:19Z</time>
      </trkpt>
      <trkpt lat="45.23554" lon="6.17259">
        <ele>1861</ele>
        <time>2021-02-27T13:18:20Z</time>
      </trkpt>
      <trkpt lat="45.23556" lon="6.17261">
        <ele>1861.2</ele>
        <time>2021-02-27T13:18:21Z</time>
      </trkpt>
      <trkpt lat="45.23556" lon="6.17261">
        <ele>1861</ele>
        <time>2021-02-27T13:18:22Z</time>
      </trkpt>
      <trkpt lat="45.23559" lon="6.17263">
        <ele>1861</ele>
        <time>2021-02-27T13:18:23Z</time>
      </trkpt>
      <trkpt lat="45.23559" lon="6.17263">
        <ele>1861</ele>
        <time>2021-02-27T13:18:24Z</time>
      </trkpt>
      <trkpt lat="45.23561" lon="6.17264">
        <ele>1861.2</ele>
        <time>2021-02-27T13:18:25Z</time>
      </trkpt>
      <trkpt lat="45.23561" lon="6.17264">
        <ele>1861.6</ele>
        <time>2021-02-27T13:18:26Z</time>
      </trkpt>
      <trkpt lat="45.23563" lon="6.17266">
        <ele>1861.6</ele>
        <time>2021-02-27T13:18:27Z</time>
      </trkpt>
      <trkpt lat="45.23563" lon="6.17266">
        <ele>1861.8</ele>
        <time>2021-02-27T13:18:28Z</time>
      </trkpt>
      <trkpt lat="45.23564" lon="6.17267">
        <ele>1862</ele>
        <time>2021-02-27T13:18:29Z</time>
      </trkpt>
      <trkpt lat="45.23564" lon="6.17267">
        <ele>1861.8</ele>
        <time>2021-02-27T13:18:30Z</time>
      </trkpt>
      <trkpt lat="45.23567" lon="6.1727">
        <ele>1862</ele>
        <time>2021-02-27T13:18:31Z</time>
      </trkpt>
      <trkpt lat="45.23567" lon="6.1727">
        <ele>1862.4</ele>
        <time>2021-02-27T13:18:32Z</time>
      </trkpt>
      <trkpt lat="45.23568" lon="6.17272">
        <ele>1862.6</ele>
        <time>2021-02-27T13:18:33Z</time>
      </trkpt>
      <trkpt lat="45.23568" lon="6.17272">
        <ele>1862.4</ele>
        <time>2021-02-27T13:18:34Z</time>
      </trkpt>
      <trkpt lat="45.2357" lon="6.17275">
        <ele>1862.6</ele>
        <time>2021-02-27T13:18:35Z</time>
      </trkpt>
      <trkpt lat="45.2357" lon="6.17275">
        <ele>1862.6</ele>
        <time>2021-02-27T13:18:36Z</time>
      </trkpt>
      <trkpt lat="45.23572" lon="6.17277">
        <ele>1862.4</ele>
        <time>2021-02-27T13:18:37Z</time>
      </trkpt>
      <trkpt lat="45.23572" lon="6.17277">
        <ele>1862.4</ele>
        <time>2021-02-27T13:18:38Z</time>
      </trkpt>
      <trkpt lat="45.23574" lon="6.17279">
        <ele>1862.6</ele>
        <time>2021-02-27T13:18:39Z</time>
      </trkpt>
      <trkpt lat="45.23574" lon="6.17279">
        <ele>1862.6</ele>
        <time>2021-02-27T13:18:40Z</time>
      </trkpt>
      <trkpt lat="45.23575" lon="6.17282">
        <ele>1862.6</ele>
        <time>2021-02-27T13:18:41Z</time>
      </trkpt>
      <trkpt lat="45.23575" lon="6.17282">
        <ele>1862.6</ele>
        <time>2021-02-27T13:18:42Z</time>
      </trkpt>
      <trkpt lat="45.23577" lon="6.17285">
        <ele>1862.6</ele>
        <time>2021-02-27T13:18:43Z</time>
      </trkpt>
      <trkpt lat="45.23577" lon="6.17285">
        <ele>1862.8</ele>
        <time>2021-02-27T13:18:44Z</time>
      </trkpt>
      <trkpt lat="45.23577" lon="6.17285">
        <ele>1862.8</ele>
        <time>2021-02-27T13:18:45Z</time>
      </trkpt>
      <trkpt lat="45.23579" lon="6.17288">
        <ele>1863.2</ele>
        <time>2021-02-27T13:18:46Z</time>
      </trkpt>
      <trkpt lat="45.23579" lon="6.17288">
        <ele>1863.6</ele>
        <time>2021-02-27T13:18:47Z</time>
      </trkpt>
      <trkpt lat="45.2358" lon="6.1729">
        <ele>1863.6</ele>
        <time>2021-02-27T13:18:48Z</time>
      </trkpt>
      <trkpt lat="45.2358" lon="6.1729">
        <ele>1864</ele>
        <time>2021-02-27T13:18:49Z</time>
      </trkpt>
      <trkpt lat="45.23582" lon="6.17293">
        <ele>1864.2</ele>
        <time>2021-02-27T13:18:50Z</time>
      </trkpt>
      <trkpt lat="45.23582" lon="6.17293">
        <ele>1864.6</ele>
        <time>2021-02-27T13:18:51Z</time>
      </trkpt>
      <trkpt lat="45.23583" lon="6.17295">
        <ele>1864.8</ele>
        <time>2021-02-27T13:18:52Z</time>
      </trkpt>
      <trkpt lat="45.23583" lon="6.17295">
        <ele>1864.8</ele>
        <time>2021-02-27T13:18:53Z</time>
      </trkpt>
      <trkpt lat="45.23585" lon="6.17297">
        <ele>1865</ele>
        <time>2021-02-27T13:18:54Z</time>
      </trkpt>
      <trkpt lat="45.23585" lon="6.17297">
        <ele>1865.2</ele>
        <time>2021-02-27T13:18:55Z</time>
      </trkpt>
      <trkpt lat="45.23587" lon="6.173">
        <ele>1865.2</ele>
        <time>2021-02-27T13:18:56Z</time>
      </trkpt>
      <trkpt lat="45.23587" lon="6.173">
        <ele>1865.4</ele>
        <time>2021-02-27T13:18:57Z</time>
      </trkpt>
      <trkpt lat="45.23588" lon="6.17303">
        <ele>1864.6</ele>
        <time>2021-02-27T13:18:58Z</time>
      </trkpt>
      <trkpt lat="45.23588" lon="6.17303">
        <ele>1865.2</ele>
        <time>2021-02-27T13:18:59Z</time>
      </trkpt>
      <trkpt lat="45.23589" lon="6.17306">
        <ele>1865</ele>
        <time>2021-02-27T13:19:00Z</time>
      </trkpt>
      <trkpt lat="45.23589" lon="6.17306">
        <ele>1865.2</ele>
        <time>2021-02-27T13:19:01Z</time>
      </trkpt>
      <trkpt lat="45.23591" lon="6.17309">
        <ele>1865.4</ele>
        <time>2021-02-27T13:19:02Z</time>
      </trkpt>
      <trkpt lat="45.23591" lon="6.17309">
        <ele>1865.2</ele>
        <time>2021-02-27T13:19:03Z</time>
      </trkpt>
      <trkpt lat="45.23592" lon="6.17312">
        <ele>1865.4</ele>
        <time>2021-02-27T13:19:04Z</time>
      </trkpt>
      <trkpt lat="45.23592" lon="6.17312">
        <ele>1865.8</ele>
        <time>2021-02-27T13:19:05Z</time>
      </trkpt>
      <trkpt lat="45.23593" lon="6.17314">
        <ele>1865.4</ele>
        <time>2021-02-27T13:19:06Z</time>
      </trkpt>
      <trkpt lat="45.23593" lon="6.17314">
        <ele>1865.4</ele>
        <time>2021-02-27T13:19:07Z</time>
      </trkpt>
      <trkpt lat="45.23596" lon="6.17317">
        <ele>1866</ele>
        <time>2021-02-27T13:19:08Z</time>
      </trkpt>
      <trkpt lat="45.23596" lon="6.17317">
        <ele>1865.8</ele>
        <time>2021-02-27T13:19:09Z</time>
      </trkpt>
      <trkpt lat="45.23597" lon="6.17319">
        <ele>1865.8</ele>
        <time>2021-02-27T13:19:10Z</time>
      </trkpt>
      <trkpt lat="45.23597" lon="6.17319">
        <ele>1866.2</ele>
        <time>2021-02-27T13:19:11Z</time>
      </trkpt>
      <trkpt lat="45.23598" lon="6.17323">
        <ele>1866.2</ele>
        <time>2021-02-27T13:19:12Z</time>
      </trkpt>
      <trkpt lat="45.23598" lon="6.17323">
        <ele>1866.4</ele>
        <time>2021-02-27T13:19:13Z</time>
      </trkpt>
      <trkpt lat="45.23599" lon="6.17327">
        <ele>1866.6</ele>
        <time>2021-02-27T13:19:14Z</time>
      </trkpt>
      <trkpt lat="45.23599" lon="6.17327">
        <ele>1866.4</ele>
        <time>2021-02-27T13:19:15Z</time>
      </trkpt>
      <trkpt lat="45.236" lon="6.1733">
        <ele>1866.8</ele>
        <time>2021-02-27T13:19:16Z</time>
      </trkpt>
      <trkpt lat="45.236" lon="6.1733">
        <ele>1867</ele>
        <time>2021-02-27T13:19:17Z</time>
      </trkpt>
      <trkpt lat="45.23601" lon="6.17332">
        <ele>1867</ele>
        <time>2021-02-27T13:19:18Z</time>
      </trkpt>
      <trkpt lat="45.23601" lon="6.17332">
        <ele>1867</ele>
        <time>2021-02-27T13:19:19Z</time>
      </trkpt>
      <trkpt lat="45.23602" lon="6.17335">
        <ele>1867.4</ele>
        <time>2021-02-27T13:19:20Z</time>
      </trkpt>
      <trkpt lat="45.23602" lon="6.17335">
        <ele>1867.2</ele>
        <time>2021-02-27T13:19:21Z</time>
      </trkpt>
      <trkpt lat="45.23604" lon="6.17338">
        <ele>1867.4</ele>
        <time>2021-02-27T13:19:22Z</time>
      </trkpt>
      <trkpt lat="45.23604" lon="6.17338">
        <ele>1867.4</ele>
        <time>2021-02-27T13:19:23Z</time>
      </trkpt>
      <trkpt lat="45.23606" lon="6.17339">
        <ele>1867.2</ele>
        <time>2021-02-27T13:19:24Z</time>
      </trkpt>
      <trkpt lat="45.23606" lon="6.17339">
        <ele>1867.4</ele>
        <time>2021-02-27T13:19:25Z</time>
      </trkpt>
      <trkpt lat="45.23608" lon="6.17343">
        <ele>1867.8</ele>
        <time>2021-02-27T13:19:26Z</time>
      </trkpt>
      <trkpt lat="45.23608" lon="6.17343">
        <ele>1867.8</ele>
        <time>2021-02-27T13:19:27Z</time>
      </trkpt>
      <trkpt lat="45.2361" lon="6.17344">
        <ele>1868</ele>
        <time>2021-02-27T13:19:28Z</time>
      </trkpt>
      <trkpt lat="45.2361" lon="6.17344">
        <ele>1868.4</ele>
        <time>2021-02-27T13:19:29Z</time>
      </trkpt>
      <trkpt lat="45.2361" lon="6.17344">
        <ele>1868.6</ele>
        <time>2021-02-27T13:19:30Z</time>
      </trkpt>
      <trkpt lat="45.23612" lon="6.17346">
        <ele>1868.8</ele>
        <time>2021-02-27T13:19:31Z</time>
      </trkpt>
      <trkpt lat="45.23612" lon="6.17346">
        <ele>1868.8</ele>
        <time>2021-02-27T13:19:32Z</time>
      </trkpt>
      <trkpt lat="45.23614" lon="6.17348">
        <ele>1869</ele>
        <time>2021-02-27T13:19:33Z</time>
      </trkpt>
      <trkpt lat="45.23614" lon="6.17348">
        <ele>1869.2</ele>
        <time>2021-02-27T13:19:34Z</time>
      </trkpt>
      <trkpt lat="45.23616" lon="6.17349">
        <ele>1869.2</ele>
        <time>2021-02-27T13:19:35Z</time>
      </trkpt>
      <trkpt lat="45.23616" lon="6.17349">
        <ele>1869.6</ele>
        <time>2021-02-27T13:19:36Z</time>
      </trkpt>
      <trkpt lat="45.23617" lon="6.17351">
        <ele>1869.4</ele>
        <time>2021-02-27T13:19:37Z</time>
      </trkpt>
      <trkpt lat="45.23617" lon="6.17351">
        <ele>1869.8</ele>
        <time>2021-02-27T13:19:38Z</time>
      </trkpt>
      <trkpt lat="45.23619" lon="6.17354">
        <ele>1870</ele>
        <time>2021-02-27T13:19:39Z</time>
      </trkpt>
      <trkpt lat="45.23619" lon="6.17354">
        <ele>1870.2</ele>
        <time>2021-02-27T13:19:40Z</time>
      </trkpt>
      <trkpt lat="45.23622" lon="6.17356">
        <ele>1870</ele>
        <time>2021-02-27T13:19:41Z</time>
      </trkpt>
      <trkpt lat="45.23622" lon="6.17356">
        <ele>1870</ele>
        <time>2021-02-27T13:19:42Z</time>
      </trkpt>
      <trkpt lat="45.23624" lon="6.17358">
        <ele>1870.2</ele>
        <time>2021-02-27T13:19:43Z</time>
      </trkpt>
      <trkpt lat="45.23624" lon="6.17358">
        <ele>1870.2</ele>
        <time>2021-02-27T13:19:44Z</time>
      </trkpt>
      <trkpt lat="45.23624" lon="6.17358">
        <ele>1870.8</ele>
        <time>2021-02-27T13:19:45Z</time>
      </trkpt>
      <trkpt lat="45.23626" lon="6.1736">
        <ele>1871</ele>
        <time>2021-02-27T13:19:46Z</time>
      </trkpt>
      <trkpt lat="45.23626" lon="6.1736">
        <ele>1871</ele>
        <time>2021-02-27T13:19:47Z</time>
      </trkpt>
      <trkpt lat="45.23626" lon="6.1736">
        <ele>1871.2</ele>
        <time>2021-02-27T13:19:48Z</time>
      </trkpt>
      <trkpt lat="45.23628" lon="6.17362">
        <ele>1871.2</ele>
        <time>2021-02-27T13:19:49Z</time>
      </trkpt>
      <trkpt lat="45.23628" lon="6.17362">
        <ele>1871.2</ele>
        <time>2021-02-27T13:19:50Z</time>
      </trkpt>
      <trkpt lat="45.2363" lon="6.17363">
        <ele>1871.4</ele>
        <time>2021-02-27T13:19:51Z</time>
      </trkpt>
      <trkpt lat="45.2363" lon="6.17363">
        <ele>1871.4</ele>
        <time>2021-02-27T13:19:52Z</time>
      </trkpt>
      <trkpt lat="45.23632" lon="6.17364">
        <ele>1871.6</ele>
        <time>2021-02-27T13:19:53Z</time>
      </trkpt>
      <trkpt lat="45.23632" lon="6.17364">
        <ele>1871.6</ele>
        <time>2021-02-27T13:19:54Z</time>
      </trkpt>
      <trkpt lat="45.23635" lon="6.17365">
        <ele>1871.6</ele>
        <time>2021-02-27T13:19:55Z</time>
      </trkpt>
      <trkpt lat="45.23635" lon="6.17365">
        <ele>1871.4</ele>
        <time>2021-02-27T13:19:56Z</time>
      </trkpt>
      <trkpt lat="45.23636" lon="6.17366">
        <ele>1871.4</ele>
        <time>2021-02-27T13:19:57Z</time>
      </trkpt>
      <trkpt lat="45.23638" lon="6.17367">
        <ele>1871.6</ele>
        <time>2021-02-27T13:19:58Z</time>
      </trkpt>
      <trkpt lat="45.23639" lon="6.17369">
        <ele>1872</ele>
        <time>2021-02-27T13:19:59Z</time>
      </trkpt>
      <trkpt lat="45.2364" lon="6.1737">
        <ele>1872.6</ele>
        <time>2021-02-27T13:20:00Z</time>
      </trkpt>
      <trkpt lat="45.23641" lon="6.17372">
        <ele>1872.8</ele>
        <time>2021-02-27T13:20:01Z</time>
      </trkpt>
      <trkpt lat="45.23641" lon="6.17374">
        <ele>1872.4</ele>
        <time>2021-02-27T13:20:02Z</time>
      </trkpt>
      <trkpt lat="45.23642" lon="6.17376">
        <ele>1872</ele>
        <time>2021-02-27T13:20:03Z</time>
      </trkpt>
      <trkpt lat="45.23642" lon="6.17378">
        <ele>1872.4</ele>
        <time>2021-02-27T13:20:04Z</time>
      </trkpt>
      <trkpt lat="45.23643" lon="6.1738">
        <ele>1872.8</ele>
        <time>2021-02-27T13:20:05Z</time>
      </trkpt>
      <trkpt lat="45.23643" lon="6.17382">
        <ele>1873</ele>
        <time>2021-02-27T13:20:06Z</time>
      </trkpt>
      <trkpt lat="45.23643" lon="6.17382">
        <ele>1873.4</ele>
        <time>2021-02-27T13:20:07Z</time>
      </trkpt>
      <trkpt lat="45.23644" lon="6.17387">
        <ele>1873.4</ele>
        <time>2021-02-27T13:20:08Z</time>
      </trkpt>
      <trkpt lat="45.23644" lon="6.17387">
        <ele>1873</ele>
        <time>2021-02-27T13:20:09Z</time>
      </trkpt>
      <trkpt lat="45.23645" lon="6.1739">
        <ele>1873.4</ele>
        <time>2021-02-27T13:20:10Z</time>
      </trkpt>
      <trkpt lat="45.23645" lon="6.1739">
        <ele>1873.4</ele>
        <time>2021-02-27T13:20:11Z</time>
      </trkpt>
      <trkpt lat="45.23647" lon="6.17394">
        <ele>1873.6</ele>
        <time>2021-02-27T13:20:12Z</time>
      </trkpt>
      <trkpt lat="45.23647" lon="6.17394">
        <ele>1873.4</ele>
        <time>2021-02-27T13:20:13Z</time>
      </trkpt>
      <trkpt lat="45.23649" lon="6.17397">
        <ele>1873.4</ele>
        <time>2021-02-27T13:20:14Z</time>
      </trkpt>
      <trkpt lat="45.23649" lon="6.17397">
        <ele>1873.8</ele>
        <time>2021-02-27T13:20:15Z</time>
      </trkpt>
      <trkpt lat="45.23649" lon="6.17401">
        <ele>1874.2</ele>
        <time>2021-02-27T13:20:16Z</time>
      </trkpt>
      <trkpt lat="45.23649" lon="6.17401">
        <ele>1874</ele>
        <time>2021-02-27T13:20:17Z</time>
      </trkpt>
      <trkpt lat="45.2365" lon="6.17403">
        <ele>1874.2</ele>
        <time>2021-02-27T13:20:18Z</time>
      </trkpt>
      <trkpt lat="45.2365" lon="6.17403">
        <ele>1874.4</ele>
        <time>2021-02-27T13:20:19Z</time>
      </trkpt>
      <trkpt lat="45.23652" lon="6.17406">
        <ele>1874.6</ele>
        <time>2021-02-27T13:20:20Z</time>
      </trkpt>
      <trkpt lat="45.23652" lon="6.17406">
        <ele>1874.2</ele>
        <time>2021-02-27T13:20:21Z</time>
      </trkpt>
      <trkpt lat="45.23654" lon="6.17409">
        <ele>1874.2</ele>
        <time>2021-02-27T13:20:22Z</time>
      </trkpt>
      <trkpt lat="45.23654" lon="6.17409">
        <ele>1874.4</ele>
        <time>2021-02-27T13:20:23Z</time>
      </trkpt>
      <trkpt lat="45.23655" lon="6.17411">
        <ele>1874.6</ele>
        <time>2021-02-27T13:20:24Z</time>
      </trkpt>
      <trkpt lat="45.23655" lon="6.17411">
        <ele>1874.6</ele>
        <time>2021-02-27T13:20:25Z</time>
      </trkpt>
      <trkpt lat="45.23655" lon="6.17411">
        <ele>1874.8</ele>
        <time>2021-02-27T13:20:26Z</time>
      </trkpt>
      <trkpt lat="45.23655" lon="6.17414">
        <ele>1875</ele>
        <time>2021-02-27T13:20:27Z</time>
      </trkpt>
      <trkpt lat="45.23655" lon="6.17414">
        <ele>1875</ele>
        <time>2021-02-27T13:20:28Z</time>
      </trkpt>
      <trkpt lat="45.23655" lon="6.17414">
        <ele>1875.2</ele>
        <time>2021-02-27T13:20:29Z</time>
      </trkpt>
      <trkpt lat="45.23657" lon="6.17418">
        <ele>1875.2</ele>
        <time>2021-02-27T13:20:30Z</time>
      </trkpt>
      <trkpt lat="45.23657" lon="6.17418">
        <ele>1875.4</ele>
        <time>2021-02-27T13:20:31Z</time>
      </trkpt>
      <trkpt lat="45.23657" lon="6.17418">
        <ele>1875.4</ele>
        <time>2021-02-27T13:20:32Z</time>
      </trkpt>
      <trkpt lat="45.23658" lon="6.17421">
        <ele>1875.4</ele>
        <time>2021-02-27T13:20:33Z</time>
      </trkpt>
      <trkpt lat="45.23658" lon="6.17421">
        <ele>1875.8</ele>
        <time>2021-02-27T13:20:34Z</time>
      </trkpt>
      <trkpt lat="45.23659" lon="6.17423">
        <ele>1876</ele>
        <time>2021-02-27T13:20:35Z</time>
      </trkpt>
      <trkpt lat="45.23659" lon="6.17423">
        <ele>1875.8</ele>
        <time>2021-02-27T13:20:36Z</time>
      </trkpt>
      <trkpt lat="45.23659" lon="6.17423">
        <ele>1875.8</ele>
        <time>2021-02-27T13:20:37Z</time>
      </trkpt>
      <trkpt lat="45.2366" lon="6.17427">
        <ele>1876</ele>
        <time>2021-02-27T13:20:38Z</time>
      </trkpt>
      <trkpt lat="45.2366" lon="6.17427">
        <ele>1876.4</ele>
        <time>2021-02-27T13:20:39Z</time>
      </trkpt>
      <trkpt lat="45.23661" lon="6.1743">
        <ele>1876.6</ele>
        <time>2021-02-27T13:20:40Z</time>
      </trkpt>
      <trkpt lat="45.23661" lon="6.1743">
        <ele>1876.4</ele>
        <time>2021-02-27T13:20:41Z</time>
      </trkpt>
      <trkpt lat="45.23663" lon="6.17433">
        <ele>1876.6</ele>
        <time>2021-02-27T13:20:42Z</time>
      </trkpt>
      <trkpt lat="45.23663" lon="6.17433">
        <ele>1877</ele>
        <time>2021-02-27T13:20:43Z</time>
      </trkpt>
      <trkpt lat="45.23664" lon="6.17435">
        <ele>1877.4</ele>
        <time>2021-02-27T13:20:44Z</time>
      </trkpt>
      <trkpt lat="45.23664" lon="6.17435">
        <ele>1877.6</ele>
        <time>2021-02-27T13:20:45Z</time>
      </trkpt>
      <trkpt lat="45.23665" lon="6.17438">
        <ele>1877.6</ele>
        <time>2021-02-27T13:20:46Z</time>
      </trkpt>
      <trkpt lat="45.23665" lon="6.17438">
        <ele>1878</ele>
        <time>2021-02-27T13:20:47Z</time>
      </trkpt>
      <trkpt lat="45.23667" lon="6.17441">
        <ele>1877.8</ele>
        <time>2021-02-27T13:20:48Z</time>
      </trkpt>
      <trkpt lat="45.23667" lon="6.17441">
        <ele>1877.6</ele>
        <time>2021-02-27T13:20:49Z</time>
      </trkpt>
      <trkpt lat="45.23668" lon="6.17444">
        <ele>1877.6</ele>
        <time>2021-02-27T13:20:50Z</time>
      </trkpt>
      <trkpt lat="45.23668" lon="6.17444">
        <ele>1877.8</ele>
        <time>2021-02-27T13:20:51Z</time>
      </trkpt>
      <trkpt lat="45.2367" lon="6.17446">
        <ele>1877.8</ele>
        <time>2021-02-27T13:20:52Z</time>
      </trkpt>
      <trkpt lat="45.2367" lon="6.17446">
        <ele>1878</ele>
        <time>2021-02-27T13:20:53Z</time>
      </trkpt>
      <trkpt lat="45.23672" lon="6.17449">
        <ele>1878</ele>
        <time>2021-02-27T13:20:54Z</time>
      </trkpt>
      <trkpt lat="45.23672" lon="6.17449">
        <ele>1877.8</ele>
        <time>2021-02-27T13:20:55Z</time>
      </trkpt>
      <trkpt lat="45.23673" lon="6.17451">
        <ele>1877.8</ele>
        <time>2021-02-27T13:20:56Z</time>
      </trkpt>
      <trkpt lat="45.23673" lon="6.17451">
        <ele>1878</ele>
        <time>2021-02-27T13:20:57Z</time>
      </trkpt>
      <trkpt lat="45.23674" lon="6.17454">
        <ele>1878.6</ele>
        <time>2021-02-27T13:20:58Z</time>
      </trkpt>
      <trkpt lat="45.23674" lon="6.17454">
        <ele>1878.6</ele>
        <time>2021-02-27T13:20:59Z</time>
      </trkpt>
      <trkpt lat="45.23675" lon="6.17456">
        <ele>1878.6</ele>
        <time>2021-02-27T13:21:00Z</time>
      </trkpt>
      <trkpt lat="45.23675" lon="6.17456">
        <ele>1878.8</ele>
        <time>2021-02-27T13:21:01Z</time>
      </trkpt>
      <trkpt lat="45.23677" lon="6.17458">
        <ele>1879.2</ele>
        <time>2021-02-27T13:21:02Z</time>
      </trkpt>
      <trkpt lat="45.23677" lon="6.17458">
        <ele>1879.4</ele>
        <time>2021-02-27T13:21:03Z</time>
      </trkpt>
      <trkpt lat="45.23679" lon="6.1746">
        <ele>1879.6</ele>
        <time>2021-02-27T13:21:04Z</time>
      </trkpt>
      <trkpt lat="45.23679" lon="6.1746">
        <ele>1879.6</ele>
        <time>2021-02-27T13:21:05Z</time>
      </trkpt>
      <trkpt lat="45.23681" lon="6.17462">
        <ele>1879.4</ele>
        <time>2021-02-27T13:21:06Z</time>
      </trkpt>
      <trkpt lat="45.23681" lon="6.17462">
        <ele>1879.6</ele>
        <time>2021-02-27T13:21:07Z</time>
      </trkpt>
      <trkpt lat="45.23684" lon="6.17465">
        <ele>1879.8</ele>
        <time>2021-02-27T13:21:08Z</time>
      </trkpt>
      <trkpt lat="45.23684" lon="6.17465">
        <ele>1880.2</ele>
        <time>2021-02-27T13:21:09Z</time>
      </trkpt>
      <trkpt lat="45.23685" lon="6.17466">
        <ele>1880</ele>
        <time>2021-02-27T13:21:10Z</time>
      </trkpt>
      <trkpt lat="45.23685" lon="6.17466">
        <ele>1880</ele>
        <time>2021-02-27T13:21:11Z</time>
      </trkpt>
      <trkpt lat="45.23688" lon="6.17469">
        <ele>1880.4</ele>
        <time>2021-02-27T13:21:12Z</time>
      </trkpt>
      <trkpt lat="45.23688" lon="6.17469">
        <ele>1881</ele>
        <time>2021-02-27T13:21:13Z</time>
      </trkpt>
      <trkpt lat="45.23689" lon="6.1747">
        <ele>1881</ele>
        <time>2021-02-27T13:21:14Z</time>
      </trkpt>
      <trkpt lat="45.2369" lon="6.17471">
        <ele>1880.8</ele>
        <time>2021-02-27T13:21:15Z</time>
      </trkpt>
      <trkpt lat="45.23691" lon="6.17472">
        <ele>1881</ele>
        <time>2021-02-27T13:21:16Z</time>
      </trkpt>
      <trkpt lat="45.23691" lon="6.17472">
        <ele>1880.8</ele>
        <time>2021-02-27T13:21:17Z</time>
      </trkpt>
      <trkpt lat="45.23692" lon="6.17473">
        <ele>1880.8</ele>
        <time>2021-02-27T13:21:18Z</time>
      </trkpt>
      <trkpt lat="45.23693" lon="6.17474">
        <ele>1881</ele>
        <time>2021-02-27T13:21:19Z</time>
      </trkpt>
      <trkpt lat="45.23694" lon="6.17475">
        <ele>1881.2</ele>
        <time>2021-02-27T13:21:20Z</time>
      </trkpt>
      <trkpt lat="45.23695" lon="6.17476">
        <ele>1881.6</ele>
        <time>2021-02-27T13:21:21Z</time>
      </trkpt>
      <trkpt lat="45.23695" lon="6.17476">
        <ele>1881.6</ele>
        <time>2021-02-27T13:21:22Z</time>
      </trkpt>
      <trkpt lat="45.23695" lon="6.17476">
        <ele>1882.2</ele>
        <time>2021-02-27T13:21:23Z</time>
      </trkpt>
      <trkpt lat="45.23697" lon="6.17478">
        <ele>1882</ele>
        <time>2021-02-27T13:21:24Z</time>
      </trkpt>
      <trkpt lat="45.23697" lon="6.17478">
        <ele>1881.8</ele>
        <time>2021-02-27T13:21:25Z</time>
      </trkpt>
      <trkpt lat="45.23697" lon="6.17478">
        <ele>1882.2</ele>
        <time>2021-02-27T13:21:26Z</time>
      </trkpt>
      <trkpt lat="45.237" lon="6.1748">
        <ele>1881.4</ele>
        <time>2021-02-27T13:21:27Z</time>
      </trkpt>
      <trkpt lat="45.237" lon="6.1748">
        <ele>1881</ele>
        <time>2021-02-27T13:21:28Z</time>
      </trkpt>
      <trkpt lat="45.23702" lon="6.1748">
        <ele>1881.2</ele>
        <time>2021-02-27T13:21:29Z</time>
      </trkpt>
      <trkpt lat="45.23702" lon="6.1748">
        <ele>1881.2</ele>
        <time>2021-02-27T13:21:30Z</time>
      </trkpt>
      <trkpt lat="45.23702" lon="6.1748">
        <ele>1881.6</ele>
        <time>2021-02-27T13:21:31Z</time>
      </trkpt>
      <trkpt lat="45.23702" lon="6.1748">
        <ele>1881.6</ele>
        <time>2021-02-27T13:21:32Z</time>
      </trkpt>
      <trkpt lat="45.23705" lon="6.17482">
        <ele>1882.2</ele>
        <time>2021-02-27T13:21:33Z</time>
      </trkpt>
      <trkpt lat="45.23705" lon="6.17482">
        <ele>1882.4</ele>
        <time>2021-02-27T13:21:34Z</time>
      </trkpt>
      <trkpt lat="45.23706" lon="6.17482">
        <ele>1882.6</ele>
        <time>2021-02-27T13:21:35Z</time>
      </trkpt>
      <trkpt lat="45.23706" lon="6.17482">
        <ele>1883</ele>
        <time>2021-02-27T13:21:36Z</time>
      </trkpt>
      <trkpt lat="45.23709" lon="6.17483">
        <ele>1883.4</ele>
        <time>2021-02-27T13:21:37Z</time>
      </trkpt>
      <trkpt lat="45.23709" lon="6.17483">
        <ele>1884</ele>
        <time>2021-02-27T13:21:38Z</time>
      </trkpt>
      <trkpt lat="45.23712" lon="6.17483">
        <ele>1884.4</ele>
        <time>2021-02-27T13:21:39Z</time>
      </trkpt>
      <trkpt lat="45.23712" lon="6.17483">
        <ele>1884.6</ele>
        <time>2021-02-27T13:21:40Z</time>
      </trkpt>
      <trkpt lat="45.23714" lon="6.17484">
        <ele>1884.8</ele>
        <time>2021-02-27T13:21:41Z</time>
      </trkpt>
      <trkpt lat="45.23714" lon="6.17484">
        <ele>1884.6</ele>
        <time>2021-02-27T13:21:42Z</time>
      </trkpt>
      <trkpt lat="45.23717" lon="6.17485">
        <ele>1885</ele>
        <time>2021-02-27T13:21:43Z</time>
      </trkpt>
      <trkpt lat="45.23717" lon="6.17485">
        <ele>1885.6</ele>
        <time>2021-02-27T13:21:44Z</time>
      </trkpt>
      <trkpt lat="45.2372" lon="6.17486">
        <ele>1885.8</ele>
        <time>2021-02-27T13:21:45Z</time>
      </trkpt>
      <trkpt lat="45.2372" lon="6.17486">
        <ele>1885.6</ele>
        <time>2021-02-27T13:21:46Z</time>
      </trkpt>
      <trkpt lat="45.23723" lon="6.17487">
        <ele>1885.4</ele>
        <time>2021-02-27T13:21:47Z</time>
      </trkpt>
      <trkpt lat="45.23723" lon="6.17487">
        <ele>1885.6</ele>
        <time>2021-02-27T13:21:48Z</time>
      </trkpt>
      <trkpt lat="45.23725" lon="6.17489">
        <ele>1885.6</ele>
        <time>2021-02-27T13:21:49Z</time>
      </trkpt>
      <trkpt lat="45.23725" lon="6.17489">
        <ele>1886</ele>
        <time>2021-02-27T13:21:50Z</time>
      </trkpt>
      <trkpt lat="45.23727" lon="6.1749">
        <ele>1886.4</ele>
        <time>2021-02-27T13:21:51Z</time>
      </trkpt>
      <trkpt lat="45.23727" lon="6.1749">
        <ele>1886.4</ele>
        <time>2021-02-27T13:21:52Z</time>
      </trkpt>
      <trkpt lat="45.23729" lon="6.17492">
        <ele>1886.6</ele>
        <time>2021-02-27T13:21:53Z</time>
      </trkpt>
      <trkpt lat="45.23729" lon="6.17492">
        <ele>1886.4</ele>
        <time>2021-02-27T13:21:54Z</time>
      </trkpt>
      <trkpt lat="45.2373" lon="6.17494">
        <ele>1886.2</ele>
        <time>2021-02-27T13:21:55Z</time>
      </trkpt>
      <trkpt lat="45.2373" lon="6.17494">
        <ele>1886.8</ele>
        <time>2021-02-27T13:21:56Z</time>
      </trkpt>
      <trkpt lat="45.23732" lon="6.17496">
        <ele>1886.8</ele>
        <time>2021-02-27T13:21:57Z</time>
      </trkpt>
      <trkpt lat="45.23732" lon="6.17496">
        <ele>1887</ele>
        <time>2021-02-27T13:21:58Z</time>
      </trkpt>
      <trkpt lat="45.23734" lon="6.17498">
        <ele>1887</ele>
        <time>2021-02-27T13:21:59Z</time>
      </trkpt>
      <trkpt lat="45.23734" lon="6.17498">
        <ele>1887.4</ele>
        <time>2021-02-27T13:22:00Z</time>
      </trkpt>
      <trkpt lat="45.23734" lon="6.17498">
        <ele>1887.4</ele>
        <time>2021-02-27T13:22:01Z</time>
      </trkpt>
      <trkpt lat="45.23736" lon="6.17501">
        <ele>1887.2</ele>
        <time>2021-02-27T13:22:02Z</time>
      </trkpt>
      <trkpt lat="45.23736" lon="6.17501">
        <ele>1887</ele>
        <time>2021-02-27T13:22:03Z</time>
      </trkpt>
      <trkpt lat="45.23739" lon="6.17502">
        <ele>1887</ele>
        <time>2021-02-27T13:22:04Z</time>
      </trkpt>
      <trkpt lat="45.23739" lon="6.17502">
        <ele>1887</ele>
        <time>2021-02-27T13:22:05Z</time>
      </trkpt>
      <trkpt lat="45.23741" lon="6.17504">
        <ele>1886.6</ele>
        <time>2021-02-27T13:22:06Z</time>
      </trkpt>
      <trkpt lat="45.23743" lon="6.17505">
        <ele>1886.8</ele>
        <time>2021-02-27T13:22:07Z</time>
      </trkpt>
      <trkpt lat="45.23743" lon="6.17505">
        <ele>1886.8</ele>
        <time>2021-02-27T13:22:08Z</time>
      </trkpt>
      <trkpt lat="45.23745" lon="6.17507">
        <ele>1887</ele>
        <time>2021-02-27T13:22:09Z</time>
      </trkpt>
      <trkpt lat="45.23745" lon="6.17507">
        <ele>1887.2</ele>
        <time>2021-02-27T13:22:10Z</time>
      </trkpt>
      <trkpt lat="45.23748" lon="6.17509">
        <ele>1887.6</ele>
        <time>2021-02-27T13:22:11Z</time>
      </trkpt>
      <trkpt lat="45.23748" lon="6.17509">
        <ele>1887.8</ele>
        <time>2021-02-27T13:22:12Z</time>
      </trkpt>
      <trkpt lat="45.23748" lon="6.17509">
        <ele>1888</ele>
        <time>2021-02-27T13:22:13Z</time>
      </trkpt>
      <trkpt lat="45.23752" lon="6.17511">
        <ele>1888.2</ele>
        <time>2021-02-27T13:22:14Z</time>
      </trkpt>
      <trkpt lat="45.23752" lon="6.17511">
        <ele>1888.2</ele>
        <time>2021-02-27T13:22:15Z</time>
      </trkpt>
      <trkpt lat="45.23753" lon="6.17512">
        <ele>1888.8</ele>
        <time>2021-02-27T13:22:16Z</time>
      </trkpt>
      <trkpt lat="45.23753" lon="6.17512">
        <ele>1888.6</ele>
        <time>2021-02-27T13:22:17Z</time>
      </trkpt>
      <trkpt lat="45.23753" lon="6.17512">
        <ele>1889</ele>
        <time>2021-02-27T13:22:18Z</time>
      </trkpt>
      <trkpt lat="45.23753" lon="6.17512">
        <ele>1889.2</ele>
        <time>2021-02-27T13:22:19Z</time>
      </trkpt>
      <trkpt lat="45.23756" lon="6.17513">
        <ele>1889.2</ele>
        <time>2021-02-27T13:22:20Z</time>
      </trkpt>
      <trkpt lat="45.23756" lon="6.17513">
        <ele>1889.2</ele>
        <time>2021-02-27T13:22:21Z</time>
      </trkpt>
      <trkpt lat="45.23759" lon="6.17514">
        <ele>1889.6</ele>
        <time>2021-02-27T13:22:22Z</time>
      </trkpt>
      <trkpt lat="45.23759" lon="6.17514">
        <ele>1889.6</ele>
        <time>2021-02-27T13:22:23Z</time>
      </trkpt>
      <trkpt lat="45.23761" lon="6.17515">
        <ele>1889.8</ele>
        <time>2021-02-27T13:22:24Z</time>
      </trkpt>
      <trkpt lat="45.23761" lon="6.17515">
        <ele>1889.6</ele>
        <time>2021-02-27T13:22:25Z</time>
      </trkpt>
      <trkpt lat="45.23763" lon="6.17516">
        <ele>1890</ele>
        <time>2021-02-27T13:22:26Z</time>
      </trkpt>
      <trkpt lat="45.23763" lon="6.17516">
        <ele>1890.4</ele>
        <time>2021-02-27T13:22:27Z</time>
      </trkpt>
      <trkpt lat="45.23765" lon="6.17516">
        <ele>1890.4</ele>
        <time>2021-02-27T13:22:28Z</time>
      </trkpt>
      <trkpt lat="45.23765" lon="6.17516">
        <ele>1890.4</ele>
        <time>2021-02-27T13:22:29Z</time>
      </trkpt>
      <trkpt lat="45.23767" lon="6.17517">
        <ele>1890.4</ele>
        <time>2021-02-27T13:22:30Z</time>
      </trkpt>
      <trkpt lat="45.23767" lon="6.17517">
        <ele>1890.8</ele>
        <time>2021-02-27T13:22:31Z</time>
      </trkpt>
      <trkpt lat="45.2377" lon="6.17518">
        <ele>1890.8</ele>
        <time>2021-02-27T13:22:32Z</time>
      </trkpt>
      <trkpt lat="45.2377" lon="6.17518">
        <ele>1890.8</ele>
        <time>2021-02-27T13:22:33Z</time>
      </trkpt>
      <trkpt lat="45.2377" lon="6.17518">
        <ele>1890.8</ele>
        <time>2021-02-27T13:22:34Z</time>
      </trkpt>
      <trkpt lat="45.2377" lon="6.17518">
        <ele>1891.4</ele>
        <time>2021-02-27T13:22:35Z</time>
      </trkpt>
      <trkpt lat="45.23772" lon="6.17519">
        <ele>1891.2</ele>
        <time>2021-02-27T13:22:36Z</time>
      </trkpt>
      <trkpt lat="45.23772" lon="6.17519">
        <ele>1891.2</ele>
        <time>2021-02-27T13:22:37Z</time>
      </trkpt>
      <trkpt lat="45.23772" lon="6.17519">
        <ele>1891.4</ele>
        <time>2021-02-27T13:22:38Z</time>
      </trkpt>
      <trkpt lat="45.23774" lon="6.17519">
        <ele>1891.8</ele>
        <time>2021-02-27T13:22:39Z</time>
      </trkpt>
      <trkpt lat="45.23774" lon="6.17519">
        <ele>1891.8</ele>
        <time>2021-02-27T13:22:40Z</time>
      </trkpt>
      <trkpt lat="45.23777" lon="6.1752">
        <ele>1892.4</ele>
        <time>2021-02-27T13:22:41Z</time>
      </trkpt>
      <trkpt lat="45.23777" lon="6.1752">
        <ele>1892.6</ele>
        <time>2021-02-27T13:22:42Z</time>
      </trkpt>
      <trkpt lat="45.23778" lon="6.17521">
        <ele>1892.6</ele>
        <time>2021-02-27T13:22:43Z</time>
      </trkpt>
      <trkpt lat="45.23778" lon="6.17521">
        <ele>1892.8</ele>
        <time>2021-02-27T13:22:44Z</time>
      </trkpt>
      <trkpt lat="45.23781" lon="6.17521">
        <ele>1893.2</ele>
        <time>2021-02-27T13:22:45Z</time>
      </trkpt>
      <trkpt lat="45.23781" lon="6.17521">
        <ele>1893</ele>
        <time>2021-02-27T13:22:46Z</time>
      </trkpt>
      <trkpt lat="45.23783" lon="6.17522">
        <ele>1893</ele>
        <time>2021-02-27T13:22:47Z</time>
      </trkpt>
      <trkpt lat="45.23783" lon="6.17522">
        <ele>1893.2</ele>
        <time>2021-02-27T13:22:48Z</time>
      </trkpt>
      <trkpt lat="45.23785" lon="6.17523">
        <ele>1893.8</ele>
        <time>2021-02-27T13:22:49Z</time>
      </trkpt>
      <trkpt lat="45.23785" lon="6.17523">
        <ele>1893.6</ele>
        <time>2021-02-27T13:22:50Z</time>
      </trkpt>
      <trkpt lat="45.23788" lon="6.17524">
        <ele>1893.4</ele>
        <time>2021-02-27T13:22:51Z</time>
      </trkpt>
      <trkpt lat="45.23788" lon="6.17524">
        <ele>1893.2</ele>
        <time>2021-02-27T13:22:52Z</time>
      </trkpt>
      <trkpt lat="45.2379" lon="6.17525">
        <ele>1892.8</ele>
        <time>2021-02-27T13:22:53Z</time>
      </trkpt>
      <trkpt lat="45.2379" lon="6.17525">
        <ele>1893</ele>
        <time>2021-02-27T13:22:54Z</time>
      </trkpt>
      <trkpt lat="45.23792" lon="6.17526">
        <ele>1893.2</ele>
        <time>2021-02-27T13:22:55Z</time>
      </trkpt>
      <trkpt lat="45.23792" lon="6.17526">
        <ele>1893.4</ele>
        <time>2021-02-27T13:22:56Z</time>
      </trkpt>
      <trkpt lat="45.23795" lon="6.17528">
        <ele>1893.6</ele>
        <time>2021-02-27T13:22:57Z</time>
      </trkpt>
      <trkpt lat="45.23795" lon="6.17528">
        <ele>1893.2</ele>
        <time>2021-02-27T13:22:58Z</time>
      </trkpt>
      <trkpt lat="45.23797" lon="6.17529">
        <ele>1893.4</ele>
        <time>2021-02-27T13:22:59Z</time>
      </trkpt>
      <trkpt lat="45.23797" lon="6.17529">
        <ele>1893.6</ele>
        <time>2021-02-27T13:23:00Z</time>
      </trkpt>
      <trkpt lat="45.238" lon="6.17531">
        <ele>1893.6</ele>
        <time>2021-02-27T13:23:01Z</time>
      </trkpt>
      <trkpt lat="45.238" lon="6.17531">
        <ele>1894</ele>
        <time>2021-02-27T13:23:02Z</time>
      </trkpt>
      <trkpt lat="45.23802" lon="6.17532">
        <ele>1894</ele>
        <time>2021-02-27T13:23:03Z</time>
      </trkpt>
      <trkpt lat="45.23802" lon="6.17532">
        <ele>1894</ele>
        <time>2021-02-27T13:23:04Z</time>
      </trkpt>
      <trkpt lat="45.23803" lon="6.17533">
        <ele>1894.2</ele>
        <time>2021-02-27T13:23:05Z</time>
      </trkpt>
      <trkpt lat="45.23803" lon="6.17533">
        <ele>1894.6</ele>
        <time>2021-02-27T13:23:06Z</time>
      </trkpt>
      <trkpt lat="45.23805" lon="6.17534">
        <ele>1894.4</ele>
        <time>2021-02-27T13:23:07Z</time>
      </trkpt>
      <trkpt lat="45.23805" lon="6.17534">
        <ele>1894.4</ele>
        <time>2021-02-27T13:23:08Z</time>
      </trkpt>
      <trkpt lat="45.23807" lon="6.17536">
        <ele>1894.6</ele>
        <time>2021-02-27T13:23:09Z</time>
      </trkpt>
      <trkpt lat="45.23807" lon="6.17536">
        <ele>1894.6</ele>
        <time>2021-02-27T13:23:10Z</time>
      </trkpt>
      <trkpt lat="45.2381" lon="6.17537">
        <ele>1894.4</ele>
        <time>2021-02-27T13:23:11Z</time>
      </trkpt>
      <trkpt lat="45.2381" lon="6.17537">
        <ele>1894.6</ele>
        <time>2021-02-27T13:23:12Z</time>
      </trkpt>
      <trkpt lat="45.23812" lon="6.17538">
        <ele>1894.8</ele>
        <time>2021-02-27T13:23:13Z</time>
      </trkpt>
      <trkpt lat="45.23812" lon="6.17538">
        <ele>1895</ele>
        <time>2021-02-27T13:23:14Z</time>
      </trkpt>
      <trkpt lat="45.23816" lon="6.17539">
        <ele>1895</ele>
        <time>2021-02-27T13:23:15Z</time>
      </trkpt>
      <trkpt lat="45.23818" lon="6.1754">
        <ele>1895</ele>
        <time>2021-02-27T13:23:16Z</time>
      </trkpt>
      <trkpt lat="45.23818" lon="6.1754">
        <ele>1895.2</ele>
        <time>2021-02-27T13:23:17Z</time>
      </trkpt>
      <trkpt lat="45.23821" lon="6.17541">
        <ele>1895.4</ele>
        <time>2021-02-27T13:23:18Z</time>
      </trkpt>
      <trkpt lat="45.23821" lon="6.17541">
        <ele>1895.8</ele>
        <time>2021-02-27T13:23:19Z</time>
      </trkpt>
      <trkpt lat="45.23823" lon="6.17542">
        <ele>1895.4</ele>
        <time>2021-02-27T13:23:20Z</time>
      </trkpt>
      <trkpt lat="45.23823" lon="6.17542">
        <ele>1895.4</ele>
        <time>2021-02-27T13:23:21Z</time>
      </trkpt>
      <trkpt lat="45.23825" lon="6.17544">
        <ele>1895.6</ele>
        <time>2021-02-27T13:23:22Z</time>
      </trkpt>
      <trkpt lat="45.23825" lon="6.17544">
        <ele>1895.6</ele>
        <time>2021-02-27T13:23:23Z</time>
      </trkpt>
      <trkpt lat="45.23825" lon="6.17544">
        <ele>1895.6</ele>
        <time>2021-02-27T13:23:24Z</time>
      </trkpt>
      <trkpt lat="45.23826" lon="6.17547">
        <ele>1896</ele>
        <time>2021-02-27T13:23:25Z</time>
      </trkpt>
      <trkpt lat="45.23826" lon="6.17547">
        <ele>1896</ele>
        <time>2021-02-27T13:23:26Z</time>
      </trkpt>
      <trkpt lat="45.23828" lon="6.17549">
        <ele>1896</ele>
        <time>2021-02-27T13:23:27Z</time>
      </trkpt>
      <trkpt lat="45.2383" lon="6.1755">
        <ele>1896.2</ele>
        <time>2021-02-27T13:23:28Z</time>
      </trkpt>
      <trkpt lat="45.23833" lon="6.17551">
        <ele>1896.4</ele>
        <time>2021-02-27T13:23:29Z</time>
      </trkpt>
      <trkpt lat="45.23833" lon="6.17551">
        <ele>1896.6</ele>
        <time>2021-02-27T13:23:30Z</time>
      </trkpt>
      <trkpt lat="45.23834" lon="6.17552">
        <ele>1896.6</ele>
        <time>2021-02-27T13:23:31Z</time>
      </trkpt>
      <trkpt lat="45.23835" lon="6.17553">
        <ele>1896.8</ele>
        <time>2021-02-27T13:23:32Z</time>
      </trkpt>
      <trkpt lat="45.23835" lon="6.17554">
        <ele>1896.8</ele>
        <time>2021-02-27T13:23:33Z</time>
      </trkpt>
      <trkpt lat="45.23836" lon="6.17555">
        <ele>1897</ele>
        <time>2021-02-27T13:23:34Z</time>
      </trkpt>
      <trkpt lat="45.23837" lon="6.17556">
        <ele>1897</ele>
        <time>2021-02-27T13:23:35Z</time>
      </trkpt>
      <trkpt lat="45.23838" lon="6.17558">
        <ele>1897.4</ele>
        <time>2021-02-27T13:23:36Z</time>
      </trkpt>
      <trkpt lat="45.23838" lon="6.17558">
        <ele>1897.4</ele>
        <time>2021-02-27T13:23:37Z</time>
      </trkpt>
      <trkpt lat="45.23839" lon="6.1756">
        <ele>1897.2</ele>
        <time>2021-02-27T13:23:38Z</time>
      </trkpt>
      <trkpt lat="45.23839" lon="6.17561">
        <ele>1897.2</ele>
        <time>2021-02-27T13:23:39Z</time>
      </trkpt>
      <trkpt lat="45.2384" lon="6.17562">
        <ele>1897.4</ele>
        <time>2021-02-27T13:23:40Z</time>
      </trkpt>
      <trkpt lat="45.23841" lon="6.17563">
        <ele>1897.4</ele>
        <time>2021-02-27T13:23:41Z</time>
      </trkpt>
      <trkpt lat="45.23841" lon="6.17564">
        <ele>1897.4</ele>
        <time>2021-02-27T13:23:42Z</time>
      </trkpt>
      <trkpt lat="45.23842" lon="6.17565">
        <ele>1897.4</ele>
        <time>2021-02-27T13:23:43Z</time>
      </trkpt>
      <trkpt lat="45.23842" lon="6.17567">
        <ele>1897.8</ele>
        <time>2021-02-27T13:23:44Z</time>
      </trkpt>
      <trkpt lat="45.23843" lon="6.17568">
        <ele>1897.6</ele>
        <time>2021-02-27T13:23:45Z</time>
      </trkpt>
      <trkpt lat="45.23843" lon="6.17569">
        <ele>1897.6</ele>
        <time>2021-02-27T13:23:46Z</time>
      </trkpt>
      <trkpt lat="45.23844" lon="6.1757">
        <ele>1897.8</ele>
        <time>2021-02-27T13:23:47Z</time>
      </trkpt>
      <trkpt lat="45.23845" lon="6.17571">
        <ele>1897.6</ele>
        <time>2021-02-27T13:23:48Z</time>
      </trkpt>
      <trkpt lat="45.23845" lon="6.17573">
        <ele>1897.8</ele>
        <time>2021-02-27T13:23:49Z</time>
      </trkpt>
      <trkpt lat="45.23845" lon="6.17574">
        <ele>1898</ele>
        <time>2021-02-27T13:23:50Z</time>
      </trkpt>
      <trkpt lat="45.23846" lon="6.17575">
        <ele>1898.4</ele>
        <time>2021-02-27T13:23:51Z</time>
      </trkpt>
      <trkpt lat="45.23848" lon="6.17578">
        <ele>1898.2</ele>
        <time>2021-02-27T13:23:52Z</time>
      </trkpt>
      <trkpt lat="45.23848" lon="6.17578">
        <ele>1898.2</ele>
        <time>2021-02-27T13:23:53Z</time>
      </trkpt>
      <trkpt lat="45.23849" lon="6.1758">
        <ele>1898.2</ele>
        <time>2021-02-27T13:23:54Z</time>
      </trkpt>
      <trkpt lat="45.2385" lon="6.17581">
        <ele>1898</ele>
        <time>2021-02-27T13:23:55Z</time>
      </trkpt>
      <trkpt lat="45.2385" lon="6.17583">
        <ele>1898.4</ele>
        <time>2021-02-27T13:23:56Z</time>
      </trkpt>
      <trkpt lat="45.23851" lon="6.17585">
        <ele>1898.4</ele>
        <time>2021-02-27T13:23:57Z</time>
      </trkpt>
      <trkpt lat="45.23852" lon="6.17588">
        <ele>1899</ele>
        <time>2021-02-27T13:23:58Z</time>
      </trkpt>
      <trkpt lat="45.23852" lon="6.17588">
        <ele>1899</ele>
        <time>2021-02-27T13:23:59Z</time>
      </trkpt>
      <trkpt lat="45.23851" lon="6.17591">
        <ele>1899.2</ele>
        <time>2021-02-27T13:24:00Z</time>
      </trkpt>
      <trkpt lat="45.23851" lon="6.17591">
        <ele>1899.4</ele>
        <time>2021-02-27T13:24:01Z</time>
      </trkpt>
      <trkpt lat="45.23851" lon="6.17594">
        <ele>1899.8</ele>
        <time>2021-02-27T13:24:02Z</time>
      </trkpt>
      <trkpt lat="45.23851" lon="6.17594">
        <ele>1900</ele>
        <time>2021-02-27T13:24:03Z</time>
      </trkpt>
      <trkpt lat="45.23851" lon="6.17597">
        <ele>1900</ele>
        <time>2021-02-27T13:24:04Z</time>
      </trkpt>
      <trkpt lat="45.23851" lon="6.17597">
        <ele>1900</ele>
        <time>2021-02-27T13:24:05Z</time>
      </trkpt>
      <trkpt lat="45.23851" lon="6.17597">
        <ele>1900.4</ele>
        <time>2021-02-27T13:24:06Z</time>
      </trkpt>
      <trkpt lat="45.23851" lon="6.176">
        <ele>1900.6</ele>
        <time>2021-02-27T13:24:07Z</time>
      </trkpt>
      <trkpt lat="45.23851" lon="6.176">
        <ele>1901</ele>
        <time>2021-02-27T13:24:08Z</time>
      </trkpt>
      <trkpt lat="45.23851" lon="6.176">
        <ele>1900.8</ele>
        <time>2021-02-27T13:24:09Z</time>
      </trkpt>
      <trkpt lat="45.23851" lon="6.176">
        <ele>1901</ele>
        <time>2021-02-27T13:24:10Z</time>
      </trkpt>
      <trkpt lat="45.23851" lon="6.176">
        <ele>1901.2</ele>
        <time>2021-02-27T13:24:11Z</time>
      </trkpt>
      <trkpt lat="45.23851" lon="6.176">
        <ele>1901.4</ele>
        <time>2021-02-27T13:24:12Z</time>
      </trkpt>
      <trkpt lat="45.23851" lon="6.176">
        <ele>1901.6</ele>
        <time>2021-02-27T13:24:13Z</time>
      </trkpt>
      <trkpt lat="45.23851" lon="6.176">
        <ele>1901.8</ele>
        <time>2021-02-27T13:24:14Z</time>
      </trkpt>
      <trkpt lat="45.23851" lon="6.176">
        <ele>1902</ele>
        <time>2021-02-27T13:24:15Z</time>
      </trkpt>
      <trkpt lat="45.23851" lon="6.176">
        <ele>1902.2</ele>
        <time>2021-02-27T13:24:16Z</time>
      </trkpt>
      <trkpt lat="45.23851" lon="6.176">
        <ele>1902.2</ele>
        <time>2021-02-27T13:24:17Z</time>
      </trkpt>
      <trkpt lat="45.23851" lon="6.176">
        <ele>1902.2</ele>
        <time>2021-02-27T13:24:18Z</time>
      </trkpt>
      <trkpt lat="45.23851" lon="6.176">
        <ele>1902.2</ele>
        <time>2021-02-27T13:24:19Z</time>
      </trkpt>
      <trkpt lat="45.23851" lon="6.176">
        <ele>1902.4</ele>
        <time>2021-02-27T13:24:20Z</time>
      </trkpt>
      <trkpt lat="45.23851" lon="6.176">
        <ele>1902.4</ele>
        <time>2021-02-27T13:24:21Z</time>
      </trkpt>
      <trkpt lat="45.23851" lon="6.176">
        <ele>1902.4</ele>
        <time>2021-02-27T13:24:22Z</time>
      </trkpt>
      <trkpt lat="45.23851" lon="6.176">
        <ele>1902.4</ele>
        <time>2021-02-27T13:24:23Z</time>
      </trkpt>
      <trkpt lat="45.23851" lon="6.176">
        <ele>1902.2</ele>
        <time>2021-02-27T13:24:24Z</time>
      </trkpt>
      <trkpt lat="45.23851" lon="6.176">
        <ele>1902.4</ele>
        <time>2021-02-27T13:24:25Z</time>
      </trkpt>
      <trkpt lat="45.23851" lon="6.176">
        <ele>1902.6</ele>
        <time>2021-02-27T13:24:26Z</time>
      </trkpt>
      <trkpt lat="45.23851" lon="6.176">
        <ele>1902.4</ele>
        <time>2021-02-27T13:24:27Z</time>
      </trkpt>
      <trkpt lat="45.23851" lon="6.176">
        <ele>1902.4</ele>
        <time>2021-02-27T13:24:28Z</time>
      </trkpt>
      <trkpt lat="45.23851" lon="6.176">
        <ele>1902.6</ele>
        <time>2021-02-27T13:24:29Z</time>
      </trkpt>
      <trkpt lat="45.23851" lon="6.176">
        <ele>1902.8</ele>
        <time>2021-02-27T13:24:30Z</time>
      </trkpt>
      <trkpt lat="45.23851" lon="6.176">
        <ele>1903</ele>
        <time>2021-02-27T13:24:31Z</time>
      </trkpt>
      <trkpt lat="45.23851" lon="6.176">
        <ele>1902.6</ele>
        <time>2021-02-27T13:24:32Z</time>
      </trkpt>
      <trkpt lat="45.23851" lon="6.17603">
        <ele>1902.4</ele>
        <time>2021-02-27T13:24:33Z</time>
      </trkpt>
      <trkpt lat="45.23851" lon="6.17603">
        <ele>1902.2</ele>
        <time>2021-02-27T13:24:34Z</time>
      </trkpt>
      <trkpt lat="45.23851" lon="6.17603">
        <ele>1902</ele>
        <time>2021-02-27T13:24:35Z</time>
      </trkpt>
      <trkpt lat="45.23851" lon="6.17603">
        <ele>1902</ele>
        <time>2021-02-27T13:24:36Z</time>
      </trkpt>
      <trkpt lat="45.23851" lon="6.17603">
        <ele>1901.8</ele>
        <time>2021-02-27T13:24:37Z</time>
      </trkpt>
      <trkpt lat="45.23851" lon="6.17603">
        <ele>1902.2</ele>
        <time>2021-02-27T13:24:38Z</time>
      </trkpt>
      <trkpt lat="45.23851" lon="6.17603">
        <ele>1902</ele>
        <time>2021-02-27T13:24:39Z</time>
      </trkpt>
      <trkpt lat="45.23851" lon="6.17603">
        <ele>1902</ele>
        <time>2021-02-27T13:24:40Z</time>
      </trkpt>
      <trkpt lat="45.23851" lon="6.17603">
        <ele>1901.8</ele>
        <time>2021-02-27T13:24:41Z</time>
      </trkpt>
      <trkpt lat="45.23851" lon="6.17603">
        <ele>1901.6</ele>
        <time>2021-02-27T13:24:42Z</time>
      </trkpt>
      <trkpt lat="45.23851" lon="6.17603">
        <ele>1901.8</ele>
        <time>2021-02-27T13:24:43Z</time>
      </trkpt>
      <trkpt lat="45.23851" lon="6.17603">
        <ele>1901.8</ele>
        <time>2021-02-27T13:24:44Z</time>
      </trkpt>
      <trkpt lat="45.23851" lon="6.17603">
        <ele>1902</ele>
        <time>2021-02-27T13:24:45Z</time>
      </trkpt>
      <trkpt lat="45.23851" lon="6.17603">
        <ele>1901.8</ele>
        <time>2021-02-27T13:24:46Z</time>
      </trkpt>
      <trkpt lat="45.23851" lon="6.17603">
        <ele>1901.8</ele>
        <time>2021-02-27T13:24:47Z</time>
      </trkpt>
      <trkpt lat="45.23851" lon="6.17603">
        <ele>1901.8</ele>
        <time>2021-02-27T13:24:48Z</time>
      </trkpt>
      <trkpt lat="45.23851" lon="6.17603">
        <ele>1901.8</ele>
        <time>2021-02-27T13:24:49Z</time>
      </trkpt>
      <trkpt lat="45.23851" lon="6.17603">
        <ele>1902</ele>
        <time>2021-02-27T13:24:50Z</time>
      </trkpt>
      <trkpt lat="45.23851" lon="6.17603">
        <ele>1901.6</ele>
        <time>2021-02-27T13:24:51Z</time>
      </trkpt>
      <trkpt lat="45.23851" lon="6.17603">
        <ele>1901.8</ele>
        <time>2021-02-27T13:24:52Z</time>
      </trkpt>
      <trkpt lat="45.23851" lon="6.17603">
        <ele>1901.8</ele>
        <time>2021-02-27T13:24:53Z</time>
      </trkpt>
      <trkpt lat="45.23851" lon="6.17603">
        <ele>1902</ele>
        <time>2021-02-27T13:24:54Z</time>
      </trkpt>
      <trkpt lat="45.23851" lon="6.17603">
        <ele>1901.8</ele>
        <time>2021-02-27T13:24:55Z</time>
      </trkpt>
      <trkpt lat="45.23851" lon="6.17603">
        <ele>1901.8</ele>
        <time>2021-02-27T13:24:56Z</time>
      </trkpt>
      <trkpt lat="45.23851" lon="6.17603">
        <ele>1901.8</ele>
        <time>2021-02-27T13:24:57Z</time>
      </trkpt>
      <trkpt lat="45.23851" lon="6.17603">
        <ele>1901.8</ele>
        <time>2021-02-27T13:24:58Z</time>
      </trkpt>
      <trkpt lat="45.23851" lon="6.17603">
        <ele>1901.8</ele>
        <time>2021-02-27T13:24:59Z</time>
      </trkpt>
      <trkpt lat="45.23851" lon="6.17603">
        <ele>1901.6</ele>
        <time>2021-02-27T13:25:00Z</time>
      </trkpt>
      <trkpt lat="45.23852" lon="6.17606">
        <ele>1901.8</ele>
        <time>2021-02-27T13:25:01Z</time>
      </trkpt>
      <trkpt lat="45.23852" lon="6.17606">
        <ele>1902</ele>
        <time>2021-02-27T13:25:02Z</time>
      </trkpt>
      <trkpt lat="45.23852" lon="6.17606">
        <ele>1902.2</ele>
        <time>2021-02-27T13:25:03Z</time>
      </trkpt>
      <trkpt lat="45.23853" lon="6.17609">
        <ele>1902</ele>
        <time>2021-02-27T13:25:04Z</time>
      </trkpt>
      <trkpt lat="45.23853" lon="6.17609">
        <ele>1902</ele>
        <time>2021-02-27T13:25:05Z</time>
      </trkpt>
      <trkpt lat="45.23853" lon="6.17612">
        <ele>1902.2</ele>
        <time>2021-02-27T13:25:06Z</time>
      </trkpt>
      <trkpt lat="45.23853" lon="6.17612">
        <ele>1902.2</ele>
        <time>2021-02-27T13:25:07Z</time>
      </trkpt>
      <trkpt lat="45.23853" lon="6.17615">
        <ele>1902.2</ele>
        <time>2021-02-27T13:25:08Z</time>
      </trkpt>
      <trkpt lat="45.23853" lon="6.17615">
        <ele>1902.2</ele>
        <time>2021-02-27T13:25:09Z</time>
      </trkpt>
      <trkpt lat="45.23854" lon="6.17618">
        <ele>1902.2</ele>
        <time>2021-02-27T13:25:10Z</time>
      </trkpt>
      <trkpt lat="45.23854" lon="6.17618">
        <ele>1902.2</ele>
        <time>2021-02-27T13:25:11Z</time>
      </trkpt>
      <trkpt lat="45.23854" lon="6.17618">
        <ele>1902.2</ele>
        <time>2021-02-27T13:25:12Z</time>
      </trkpt>
      <trkpt lat="45.23854" lon="6.17622">
        <ele>1902.4</ele>
        <time>2021-02-27T13:25:13Z</time>
      </trkpt>
      <trkpt lat="45.23854" lon="6.17622">
        <ele>1902.4</ele>
        <time>2021-02-27T13:25:14Z</time>
      </trkpt>
      <trkpt lat="45.23854" lon="6.17625">
        <ele>1902.4</ele>
        <time>2021-02-27T13:25:15Z</time>
      </trkpt>
      <trkpt lat="45.23854" lon="6.17625">
        <ele>1902.6</ele>
        <time>2021-02-27T13:25:16Z</time>
      </trkpt>
      <trkpt lat="45.23854" lon="6.17625">
        <ele>1902.8</ele>
        <time>2021-02-27T13:25:17Z</time>
      </trkpt>
      <trkpt lat="45.23854" lon="6.17629">
        <ele>1902.8</ele>
        <time>2021-02-27T13:25:18Z</time>
      </trkpt>
      <trkpt lat="45.23854" lon="6.17629">
        <ele>1902.8</ele>
        <time>2021-02-27T13:25:19Z</time>
      </trkpt>
      <trkpt lat="45.23855" lon="6.17632">
        <ele>1903.2</ele>
        <time>2021-02-27T13:25:20Z</time>
      </trkpt>
      <trkpt lat="45.23855" lon="6.17632">
        <ele>1903.2</ele>
        <time>2021-02-27T13:25:21Z</time>
      </trkpt>
      <trkpt lat="45.23855" lon="6.17635">
        <ele>1903.4</ele>
        <time>2021-02-27T13:25:22Z</time>
      </trkpt>
      <trkpt lat="45.23855" lon="6.17635">
        <ele>1903.4</ele>
        <time>2021-02-27T13:25:23Z</time>
      </trkpt>
      <trkpt lat="45.23856" lon="6.17637">
        <ele>1903.4</ele>
        <time>2021-02-27T13:25:24Z</time>
      </trkpt>
      <trkpt lat="45.23856" lon="6.17637">
        <ele>1903.4</ele>
        <time>2021-02-27T13:25:25Z</time>
      </trkpt>
      <trkpt lat="45.23857" lon="6.1764">
        <ele>1903.6</ele>
        <time>2021-02-27T13:25:26Z</time>
      </trkpt>
      <trkpt lat="45.23857" lon="6.1764">
        <ele>1903.4</ele>
        <time>2021-02-27T13:25:27Z</time>
      </trkpt>
      <trkpt lat="45.23857" lon="6.17643">
        <ele>1903.2</ele>
        <time>2021-02-27T13:25:28Z</time>
      </trkpt>
      <trkpt lat="45.23857" lon="6.17643">
        <ele>1903.4</ele>
        <time>2021-02-27T13:25:29Z</time>
      </trkpt>
      <trkpt lat="45.23858" lon="6.17646">
        <ele>1903.6</ele>
        <time>2021-02-27T13:25:30Z</time>
      </trkpt>
      <trkpt lat="45.23858" lon="6.17646">
        <ele>1903.4</ele>
        <time>2021-02-27T13:25:31Z</time>
      </trkpt>
      <trkpt lat="45.23859" lon="6.17648">
        <ele>1903.8</ele>
        <time>2021-02-27T13:25:32Z</time>
      </trkpt>
      <trkpt lat="45.23859" lon="6.17648">
        <ele>1904</ele>
        <time>2021-02-27T13:25:33Z</time>
      </trkpt>
      <trkpt lat="45.23859" lon="6.17651">
        <ele>1904.2</ele>
        <time>2021-02-27T13:25:34Z</time>
      </trkpt>
      <trkpt lat="45.23859" lon="6.17651">
        <ele>1904.2</ele>
        <time>2021-02-27T13:25:35Z</time>
      </trkpt>
      <trkpt lat="45.23859" lon="6.17651">
        <ele>1903.8</ele>
        <time>2021-02-27T13:25:36Z</time>
      </trkpt>
      <trkpt lat="45.2386" lon="6.17654">
        <ele>1903.8</ele>
        <time>2021-02-27T13:25:37Z</time>
      </trkpt>
      <trkpt lat="45.2386" lon="6.17654">
        <ele>1904.2</ele>
        <time>2021-02-27T13:25:38Z</time>
      </trkpt>
      <trkpt lat="45.23861" lon="6.17656">
        <ele>1904.2</ele>
        <time>2021-02-27T13:25:39Z</time>
      </trkpt>
      <trkpt lat="45.23861" lon="6.17656">
        <ele>1904.4</ele>
        <time>2021-02-27T13:25:40Z</time>
      </trkpt>
      <trkpt lat="45.23861" lon="6.17659">
        <ele>1904</ele>
        <time>2021-02-27T13:25:41Z</time>
      </trkpt>
      <trkpt lat="45.23861" lon="6.17659">
        <ele>1904</ele>
        <time>2021-02-27T13:25:42Z</time>
      </trkpt>
      <trkpt lat="45.23862" lon="6.17663">
        <ele>1904.4</ele>
        <time>2021-02-27T13:25:43Z</time>
      </trkpt>
      <trkpt lat="45.23862" lon="6.17663">
        <ele>1903.8</ele>
        <time>2021-02-27T13:25:44Z</time>
      </trkpt>
      <trkpt lat="45.23863" lon="6.17666">
        <ele>1903.8</ele>
        <time>2021-02-27T13:25:45Z</time>
      </trkpt>
      <trkpt lat="45.23863" lon="6.17666">
        <ele>1904</ele>
        <time>2021-02-27T13:25:46Z</time>
      </trkpt>
      <trkpt lat="45.23864" lon="6.17669">
        <ele>1904.2</ele>
        <time>2021-02-27T13:25:47Z</time>
      </trkpt>
      <trkpt lat="45.23864" lon="6.17669">
        <ele>1904.4</ele>
        <time>2021-02-27T13:25:48Z</time>
      </trkpt>
      <trkpt lat="45.23865" lon="6.17672">
        <ele>1904.8</ele>
        <time>2021-02-27T13:25:49Z</time>
      </trkpt>
      <trkpt lat="45.23865" lon="6.17672">
        <ele>1904.4</ele>
        <time>2021-02-27T13:25:50Z</time>
      </trkpt>
      <trkpt lat="45.23865" lon="6.17675">
        <ele>1904.6</ele>
        <time>2021-02-27T13:25:51Z</time>
      </trkpt>
      <trkpt lat="45.23865" lon="6.17675">
        <ele>1904.8</ele>
        <time>2021-02-27T13:25:52Z</time>
      </trkpt>
      <trkpt lat="45.23866" lon="6.17678">
        <ele>1904.8</ele>
        <time>2021-02-27T13:25:53Z</time>
      </trkpt>
      <trkpt lat="45.23866" lon="6.17678">
        <ele>1904.8</ele>
        <time>2021-02-27T13:25:54Z</time>
      </trkpt>
      <trkpt lat="45.23867" lon="6.17681">
        <ele>1905.2</ele>
        <time>2021-02-27T13:25:55Z</time>
      </trkpt>
      <trkpt lat="45.23867" lon="6.17681">
        <ele>1905.4</ele>
        <time>2021-02-27T13:25:56Z</time>
      </trkpt>
      <trkpt lat="45.23867" lon="6.17684">
        <ele>1905.2</ele>
        <time>2021-02-27T13:25:57Z</time>
      </trkpt>
      <trkpt lat="45.23867" lon="6.17684">
        <ele>1905.2</ele>
        <time>2021-02-27T13:25:58Z</time>
      </trkpt>
      <trkpt lat="45.23868" lon="6.17688">
        <ele>1905.6</ele>
        <time>2021-02-27T13:25:59Z</time>
      </trkpt>
      <trkpt lat="45.23868" lon="6.17688">
        <ele>1905.8</ele>
        <time>2021-02-27T13:26:00Z</time>
      </trkpt>
      <trkpt lat="45.23868" lon="6.17691">
        <ele>1905.8</ele>
        <time>2021-02-27T13:26:01Z</time>
      </trkpt>
      <trkpt lat="45.23868" lon="6.17691">
        <ele>1906</ele>
        <time>2021-02-27T13:26:02Z</time>
      </trkpt>
      <trkpt lat="45.23869" lon="6.17694">
        <ele>1906.2</ele>
        <time>2021-02-27T13:26:03Z</time>
      </trkpt>
      <trkpt lat="45.23869" lon="6.17694">
        <ele>1906.4</ele>
        <time>2021-02-27T13:26:04Z</time>
      </trkpt>
      <trkpt lat="45.23869" lon="6.17697">
        <ele>1906.8</ele>
        <time>2021-02-27T13:26:05Z</time>
      </trkpt>
      <trkpt lat="45.23869" lon="6.17697">
        <ele>1906.8</ele>
        <time>2021-02-27T13:26:06Z</time>
      </trkpt>
      <trkpt lat="45.2387" lon="6.177">
        <ele>1906.8</ele>
        <time>2021-02-27T13:26:07Z</time>
      </trkpt>
      <trkpt lat="45.2387" lon="6.177">
        <ele>1906.8</ele>
        <time>2021-02-27T13:26:08Z</time>
      </trkpt>
      <trkpt lat="45.23871" lon="6.17703">
        <ele>1907</ele>
        <time>2021-02-27T13:26:09Z</time>
      </trkpt>
      <trkpt lat="45.23871" lon="6.17703">
        <ele>1907.8</ele>
        <time>2021-02-27T13:26:10Z</time>
      </trkpt>
      <trkpt lat="45.23871" lon="6.17707">
        <ele>1907.8</ele>
        <time>2021-02-27T13:26:11Z</time>
      </trkpt>
      <trkpt lat="45.23871" lon="6.17707">
        <ele>1907.8</ele>
        <time>2021-02-27T13:26:12Z</time>
      </trkpt>
      <trkpt lat="45.23872" lon="6.17711">
        <ele>1907.8</ele>
        <time>2021-02-27T13:26:13Z</time>
      </trkpt>
      <trkpt lat="45.23872" lon="6.17711">
        <ele>1907.8</ele>
        <time>2021-02-27T13:26:14Z</time>
      </trkpt>
      <trkpt lat="45.23872" lon="6.17714">
        <ele>1907.6</ele>
        <time>2021-02-27T13:26:15Z</time>
      </trkpt>
      <trkpt lat="45.23872" lon="6.17714">
        <ele>1908</ele>
        <time>2021-02-27T13:26:16Z</time>
      </trkpt>
      <trkpt lat="45.23872" lon="6.17717">
        <ele>1908.2</ele>
        <time>2021-02-27T13:26:17Z</time>
      </trkpt>
      <trkpt lat="45.23872" lon="6.17717">
        <ele>1908.4</ele>
        <time>2021-02-27T13:26:18Z</time>
      </trkpt>
      <trkpt lat="45.23872" lon="6.1772">
        <ele>1908.6</ele>
        <time>2021-02-27T13:26:19Z</time>
      </trkpt>
      <trkpt lat="45.23872" lon="6.1772">
        <ele>1909</ele>
        <time>2021-02-27T13:26:20Z</time>
      </trkpt>
      <trkpt lat="45.23873" lon="6.17723">
        <ele>1909.2</ele>
        <time>2021-02-27T13:26:21Z</time>
      </trkpt>
      <trkpt lat="45.23873" lon="6.17723">
        <ele>1909.4</ele>
        <time>2021-02-27T13:26:22Z</time>
      </trkpt>
      <trkpt lat="45.23873" lon="6.17726">
        <ele>1909.8</ele>
        <time>2021-02-27T13:26:23Z</time>
      </trkpt>
      <trkpt lat="45.23873" lon="6.17726">
        <ele>1910</ele>
        <time>2021-02-27T13:26:24Z</time>
      </trkpt>
      <trkpt lat="45.23872" lon="6.17729">
        <ele>1910</ele>
        <time>2021-02-27T13:26:25Z</time>
      </trkpt>
      <trkpt lat="45.23872" lon="6.17729">
        <ele>1909.8</ele>
        <time>2021-02-27T13:26:26Z</time>
      </trkpt>
      <trkpt lat="45.23871" lon="6.17732">
        <ele>1910.2</ele>
        <time>2021-02-27T13:26:27Z</time>
      </trkpt>
      <trkpt lat="45.23871" lon="6.17732">
        <ele>1910.4</ele>
        <time>2021-02-27T13:26:28Z</time>
      </trkpt>
      <trkpt lat="45.2387" lon="6.17735">
        <ele>1911</ele>
        <time>2021-02-27T13:26:29Z</time>
      </trkpt>
      <trkpt lat="45.2387" lon="6.17735">
        <ele>1911</ele>
        <time>2021-02-27T13:26:30Z</time>
      </trkpt>
      <trkpt lat="45.2387" lon="6.17735">
        <ele>1911</ele>
        <time>2021-02-27T13:26:31Z</time>
      </trkpt>
      <trkpt lat="45.23869" lon="6.17738">
        <ele>1911.2</ele>
        <time>2021-02-27T13:26:32Z</time>
      </trkpt>
      <trkpt lat="45.23869" lon="6.17738">
        <ele>1911</ele>
        <time>2021-02-27T13:26:33Z</time>
      </trkpt>
      <trkpt lat="45.23869" lon="6.17741">
        <ele>1911.2</ele>
        <time>2021-02-27T13:26:34Z</time>
      </trkpt>
      <trkpt lat="45.23869" lon="6.17741">
        <ele>1911.6</ele>
        <time>2021-02-27T13:26:35Z</time>
      </trkpt>
      <trkpt lat="45.23869" lon="6.17741">
        <ele>1911.6</ele>
        <time>2021-02-27T13:26:36Z</time>
      </trkpt>
      <trkpt lat="45.2387" lon="6.17744">
        <ele>1911.4</ele>
        <time>2021-02-27T13:26:37Z</time>
      </trkpt>
      <trkpt lat="45.2387" lon="6.17744">
        <ele>1911.6</ele>
        <time>2021-02-27T13:26:38Z</time>
      </trkpt>
      <trkpt lat="45.2387" lon="6.17744">
        <ele>1911.8</ele>
        <time>2021-02-27T13:26:39Z</time>
      </trkpt>
      <trkpt lat="45.2387" lon="6.17747">
        <ele>1911.6</ele>
        <time>2021-02-27T13:26:40Z</time>
      </trkpt>
      <trkpt lat="45.2387" lon="6.17747">
        <ele>1911.8</ele>
        <time>2021-02-27T13:26:41Z</time>
      </trkpt>
      <trkpt lat="45.2387" lon="6.17747">
        <ele>1911.8</ele>
        <time>2021-02-27T13:26:42Z</time>
      </trkpt>
      <trkpt lat="45.2387" lon="6.1775">
        <ele>1912</ele>
        <time>2021-02-27T13:26:43Z</time>
      </trkpt>
      <trkpt lat="45.2387" lon="6.1775">
        <ele>1912</ele>
        <time>2021-02-27T13:26:44Z</time>
      </trkpt>
      <trkpt lat="45.2387" lon="6.1775">
        <ele>1912.2</ele>
        <time>2021-02-27T13:26:45Z</time>
      </trkpt>
      <trkpt lat="45.23871" lon="6.17754">
        <ele>1912.4</ele>
        <time>2021-02-27T13:26:46Z</time>
      </trkpt>
      <trkpt lat="45.23871" lon="6.17754">
        <ele>1912.8</ele>
        <time>2021-02-27T13:26:47Z</time>
      </trkpt>
      <trkpt lat="45.23872" lon="6.17757">
        <ele>1912.8</ele>
        <time>2021-02-27T13:26:48Z</time>
      </trkpt>
      <trkpt lat="45.23872" lon="6.17757">
        <ele>1912.8</ele>
        <time>2021-02-27T13:26:49Z</time>
      </trkpt>
      <trkpt lat="45.23873" lon="6.1776">
        <ele>1913</ele>
        <time>2021-02-27T13:26:50Z</time>
      </trkpt>
      <trkpt lat="45.23873" lon="6.1776">
        <ele>1912.8</ele>
        <time>2021-02-27T13:26:51Z</time>
      </trkpt>
      <trkpt lat="45.23873" lon="6.17762">
        <ele>1912.6</ele>
        <time>2021-02-27T13:26:52Z</time>
      </trkpt>
      <trkpt lat="45.23873" lon="6.17762">
        <ele>1912.4</ele>
        <time>2021-02-27T13:26:53Z</time>
      </trkpt>
      <trkpt lat="45.23873" lon="6.17765">
        <ele>1912.2</ele>
        <time>2021-02-27T13:26:54Z</time>
      </trkpt>
      <trkpt lat="45.23873" lon="6.17765">
        <ele>1912.2</ele>
        <time>2021-02-27T13:26:55Z</time>
      </trkpt>
      <trkpt lat="45.23873" lon="6.17769">
        <ele>1912</ele>
        <time>2021-02-27T13:26:56Z</time>
      </trkpt>
      <trkpt lat="45.23873" lon="6.17769">
        <ele>1912</ele>
        <time>2021-02-27T13:26:57Z</time>
      </trkpt>
      <trkpt lat="45.23873" lon="6.17773">
        <ele>1911.8</ele>
        <time>2021-02-27T13:26:58Z</time>
      </trkpt>
      <trkpt lat="45.23873" lon="6.17773">
        <ele>1912</ele>
        <time>2021-02-27T13:26:59Z</time>
      </trkpt>
      <trkpt lat="45.23873" lon="6.17776">
        <ele>1912</ele>
        <time>2021-02-27T13:27:00Z</time>
      </trkpt>
      <trkpt lat="45.23873" lon="6.17776">
        <ele>1911.8</ele>
        <time>2021-02-27T13:27:01Z</time>
      </trkpt>
      <trkpt lat="45.23873" lon="6.17779">
        <ele>1911.8</ele>
        <time>2021-02-27T13:27:02Z</time>
      </trkpt>
      <trkpt lat="45.23873" lon="6.17779">
        <ele>1911.8</ele>
        <time>2021-02-27T13:27:03Z</time>
      </trkpt>
      <trkpt lat="45.23873" lon="6.17779">
        <ele>1911.6</ele>
        <time>2021-02-27T13:27:04Z</time>
      </trkpt>
      <trkpt lat="45.23874" lon="6.17783">
        <ele>1911.8</ele>
        <time>2021-02-27T13:27:05Z</time>
      </trkpt>
      <trkpt lat="45.23874" lon="6.17783">
        <ele>1911.8</ele>
        <time>2021-02-27T13:27:06Z</time>
      </trkpt>
      <trkpt lat="45.23874" lon="6.17783">
        <ele>1911.8</ele>
        <time>2021-02-27T13:27:07Z</time>
      </trkpt>
      <trkpt lat="45.23874" lon="6.17787">
        <ele>1912</ele>
        <time>2021-02-27T13:27:08Z</time>
      </trkpt>
      <trkpt lat="45.23874" lon="6.17787">
        <ele>1912.4</ele>
        <time>2021-02-27T13:27:09Z</time>
      </trkpt>
      <trkpt lat="45.23875" lon="6.17789">
        <ele>1912.6</ele>
        <time>2021-02-27T13:27:10Z</time>
      </trkpt>
      <trkpt lat="45.23875" lon="6.17789">
        <ele>1912.8</ele>
        <time>2021-02-27T13:27:11Z</time>
      </trkpt>
      <trkpt lat="45.23875" lon="6.17792">
        <ele>1912.4</ele>
        <time>2021-02-27T13:27:12Z</time>
      </trkpt>
      <trkpt lat="45.23875" lon="6.17792">
        <ele>1912.6</ele>
        <time>2021-02-27T13:27:13Z</time>
      </trkpt>
      <trkpt lat="45.23875" lon="6.17792">
        <ele>1912.4</ele>
        <time>2021-02-27T13:27:14Z</time>
      </trkpt>
      <trkpt lat="45.23876" lon="6.17795">
        <ele>1912.4</ele>
        <time>2021-02-27T13:27:15Z</time>
      </trkpt>
      <trkpt lat="45.23876" lon="6.17795">
        <ele>1912.6</ele>
        <time>2021-02-27T13:27:16Z</time>
      </trkpt>
      <trkpt lat="45.23876" lon="6.17795">
        <ele>1912.8</ele>
        <time>2021-02-27T13:27:17Z</time>
      </trkpt>
      <trkpt lat="45.23877" lon="6.17798">
        <ele>1912.8</ele>
        <time>2021-02-27T13:27:18Z</time>
      </trkpt>
      <trkpt lat="45.23877" lon="6.17798">
        <ele>1912.8</ele>
        <time>2021-02-27T13:27:19Z</time>
      </trkpt>
      <trkpt lat="45.23878" lon="6.17801">
        <ele>1912.8</ele>
        <time>2021-02-27T13:27:20Z</time>
      </trkpt>
      <trkpt lat="45.23878" lon="6.17801">
        <ele>1913.2</ele>
        <time>2021-02-27T13:27:21Z</time>
      </trkpt>
      <trkpt lat="45.23878" lon="6.17801">
        <ele>1913</ele>
        <time>2021-02-27T13:27:22Z</time>
      </trkpt>
      <trkpt lat="45.2388" lon="6.17804">
        <ele>1913.4</ele>
        <time>2021-02-27T13:27:23Z</time>
      </trkpt>
      <trkpt lat="45.2388" lon="6.17804">
        <ele>1914</ele>
        <time>2021-02-27T13:27:24Z</time>
      </trkpt>
      <trkpt lat="45.2388" lon="6.17807">
        <ele>1913.8</ele>
        <time>2021-02-27T13:27:25Z</time>
      </trkpt>
      <trkpt lat="45.2388" lon="6.17807">
        <ele>1913.6</ele>
        <time>2021-02-27T13:27:26Z</time>
      </trkpt>
      <trkpt lat="45.2388" lon="6.1781">
        <ele>1914.2</ele>
        <time>2021-02-27T13:27:27Z</time>
      </trkpt>
      <trkpt lat="45.2388" lon="6.1781">
        <ele>1914</ele>
        <time>2021-02-27T13:27:28Z</time>
      </trkpt>
      <trkpt lat="45.2388" lon="6.1781">
        <ele>1913.8</ele>
        <time>2021-02-27T13:27:29Z</time>
      </trkpt>
      <trkpt lat="45.23881" lon="6.17813">
        <ele>1913.8</ele>
        <time>2021-02-27T13:27:30Z</time>
      </trkpt>
      <trkpt lat="45.23881" lon="6.17813">
        <ele>1913.8</ele>
        <time>2021-02-27T13:27:31Z</time>
      </trkpt>
      <trkpt lat="45.23882" lon="6.17816">
        <ele>1913.8</ele>
        <time>2021-02-27T13:27:32Z</time>
      </trkpt>
      <trkpt lat="45.23882" lon="6.17816">
        <ele>1914.2</ele>
        <time>2021-02-27T13:27:33Z</time>
      </trkpt>
      <trkpt lat="45.23883" lon="6.17819">
        <ele>1914</ele>
        <time>2021-02-27T13:27:34Z</time>
      </trkpt>
      <trkpt lat="45.23883" lon="6.17819">
        <ele>1914.4</ele>
        <time>2021-02-27T13:27:35Z</time>
      </trkpt>
      <trkpt lat="45.23883" lon="6.17823">
        <ele>1914.4</ele>
        <time>2021-02-27T13:27:36Z</time>
      </trkpt>
      <trkpt lat="45.23883" lon="6.17823">
        <ele>1914</ele>
        <time>2021-02-27T13:27:37Z</time>
      </trkpt>
      <trkpt lat="45.23884" lon="6.17826">
        <ele>1914.2</ele>
        <time>2021-02-27T13:27:38Z</time>
      </trkpt>
      <trkpt lat="45.23884" lon="6.17826">
        <ele>1914.2</ele>
        <time>2021-02-27T13:27:39Z</time>
      </trkpt>
      <trkpt lat="45.23885" lon="6.17829">
        <ele>1914</ele>
        <time>2021-02-27T13:27:40Z</time>
      </trkpt>
      <trkpt lat="45.23885" lon="6.17829">
        <ele>1914.4</ele>
        <time>2021-02-27T13:27:41Z</time>
      </trkpt>
      <trkpt lat="45.23886" lon="6.17833">
        <ele>1914.4</ele>
        <time>2021-02-27T13:27:42Z</time>
      </trkpt>
      <trkpt lat="45.23886" lon="6.17833">
        <ele>1914.4</ele>
        <time>2021-02-27T13:27:43Z</time>
      </trkpt>
      <trkpt lat="45.23886" lon="6.17837">
        <ele>1914.4</ele>
        <time>2021-02-27T13:27:44Z</time>
      </trkpt>
      <trkpt lat="45.23886" lon="6.17837">
        <ele>1914.6</ele>
        <time>2021-02-27T13:27:45Z</time>
      </trkpt>
      <trkpt lat="45.23887" lon="6.1784">
        <ele>1914.6</ele>
        <time>2021-02-27T13:27:46Z</time>
      </trkpt>
      <trkpt lat="45.23887" lon="6.1784">
        <ele>1914.8</ele>
        <time>2021-02-27T13:27:47Z</time>
      </trkpt>
      <trkpt lat="45.23888" lon="6.17844">
        <ele>1914.6</ele>
        <time>2021-02-27T13:27:48Z</time>
      </trkpt>
      <trkpt lat="45.23888" lon="6.17844">
        <ele>1914.6</ele>
        <time>2021-02-27T13:27:49Z</time>
      </trkpt>
      <trkpt lat="45.23889" lon="6.17847">
        <ele>1915</ele>
        <time>2021-02-27T13:27:50Z</time>
      </trkpt>
      <trkpt lat="45.23889" lon="6.17847">
        <ele>1914.8</ele>
        <time>2021-02-27T13:27:51Z</time>
      </trkpt>
      <trkpt lat="45.23889" lon="6.17851">
        <ele>1915</ele>
        <time>2021-02-27T13:27:52Z</time>
      </trkpt>
      <trkpt lat="45.23889" lon="6.17851">
        <ele>1915</ele>
        <time>2021-02-27T13:27:53Z</time>
      </trkpt>
      <trkpt lat="45.2389" lon="6.17855">
        <ele>1915.2</ele>
        <time>2021-02-27T13:27:54Z</time>
      </trkpt>
      <trkpt lat="45.2389" lon="6.17855">
        <ele>1915.2</ele>
        <time>2021-02-27T13:27:55Z</time>
      </trkpt>
      <trkpt lat="45.2389" lon="6.17858">
        <ele>1915</ele>
        <time>2021-02-27T13:27:56Z</time>
      </trkpt>
      <trkpt lat="45.2389" lon="6.17858">
        <ele>1915.2</ele>
        <time>2021-02-27T13:27:57Z</time>
      </trkpt>
      <trkpt lat="45.23891" lon="6.17861">
        <ele>1915.4</ele>
        <time>2021-02-27T13:27:58Z</time>
      </trkpt>
      <trkpt lat="45.23891" lon="6.17861">
        <ele>1915.4</ele>
        <time>2021-02-27T13:27:59Z</time>
      </trkpt>
      <trkpt lat="45.23892" lon="6.17865">
        <ele>1915.8</ele>
        <time>2021-02-27T13:28:00Z</time>
      </trkpt>
      <trkpt lat="45.23892" lon="6.17865">
        <ele>1915.8</ele>
        <time>2021-02-27T13:28:01Z</time>
      </trkpt>
      <trkpt lat="45.23893" lon="6.17868">
        <ele>1916</ele>
        <time>2021-02-27T13:28:02Z</time>
      </trkpt>
      <trkpt lat="45.23893" lon="6.17868">
        <ele>1916.2</ele>
        <time>2021-02-27T13:28:03Z</time>
      </trkpt>
      <trkpt lat="45.23894" lon="6.17872">
        <ele>1916.2</ele>
        <time>2021-02-27T13:28:04Z</time>
      </trkpt>
      <trkpt lat="45.23894" lon="6.17872">
        <ele>1915.6</ele>
        <time>2021-02-27T13:28:05Z</time>
      </trkpt>
      <trkpt lat="45.23895" lon="6.17875">
        <ele>1916.2</ele>
        <time>2021-02-27T13:28:06Z</time>
      </trkpt>
      <trkpt lat="45.23895" lon="6.17875">
        <ele>1915.8</ele>
        <time>2021-02-27T13:28:07Z</time>
      </trkpt>
      <trkpt lat="45.23895" lon="6.17879">
        <ele>1915.8</ele>
        <time>2021-02-27T13:28:08Z</time>
      </trkpt>
      <trkpt lat="45.23895" lon="6.17879">
        <ele>1916.2</ele>
        <time>2021-02-27T13:28:09Z</time>
      </trkpt>
      <trkpt lat="45.23896" lon="6.17882">
        <ele>1916.2</ele>
        <time>2021-02-27T13:28:10Z</time>
      </trkpt>
      <trkpt lat="45.23896" lon="6.17882">
        <ele>1916</ele>
        <time>2021-02-27T13:28:11Z</time>
      </trkpt>
      <trkpt lat="45.23896" lon="6.17886">
        <ele>1916.6</ele>
        <time>2021-02-27T13:28:12Z</time>
      </trkpt>
      <trkpt lat="45.23896" lon="6.17886">
        <ele>1916.8</ele>
        <time>2021-02-27T13:28:13Z</time>
      </trkpt>
      <trkpt lat="45.23896" lon="6.1789">
        <ele>1917.2</ele>
        <time>2021-02-27T13:28:14Z</time>
      </trkpt>
      <trkpt lat="45.23896" lon="6.1789">
        <ele>1917.4</ele>
        <time>2021-02-27T13:28:15Z</time>
      </trkpt>
      <trkpt lat="45.23897" lon="6.17893">
        <ele>1917.4</ele>
        <time>2021-02-27T13:28:16Z</time>
      </trkpt>
      <trkpt lat="45.23897" lon="6.17893">
        <ele>1917.4</ele>
        <time>2021-02-27T13:28:17Z</time>
      </trkpt>
      <trkpt lat="45.23898" lon="6.17896">
        <ele>1917.4</ele>
        <time>2021-02-27T13:28:18Z</time>
      </trkpt>
      <trkpt lat="45.23898" lon="6.17898">
        <ele>1917.2</ele>
        <time>2021-02-27T13:28:19Z</time>
      </trkpt>
      <trkpt lat="45.23898" lon="6.17898">
        <ele>1917.4</ele>
        <time>2021-02-27T13:28:20Z</time>
      </trkpt>
      <trkpt lat="45.23898" lon="6.17902">
        <ele>1917.4</ele>
        <time>2021-02-27T13:28:21Z</time>
      </trkpt>
      <trkpt lat="45.23898" lon="6.17902">
        <ele>1917</ele>
        <time>2021-02-27T13:28:22Z</time>
      </trkpt>
      <trkpt lat="45.23898" lon="6.17906">
        <ele>1917.2</ele>
        <time>2021-02-27T13:28:23Z</time>
      </trkpt>
      <trkpt lat="45.23898" lon="6.17906">
        <ele>1916.8</ele>
        <time>2021-02-27T13:28:24Z</time>
      </trkpt>
      <trkpt lat="45.23899" lon="6.17909">
        <ele>1917</ele>
        <time>2021-02-27T13:28:25Z</time>
      </trkpt>
      <trkpt lat="45.23899" lon="6.17909">
        <ele>1917</ele>
        <time>2021-02-27T13:28:26Z</time>
      </trkpt>
      <trkpt lat="45.239" lon="6.17912">
        <ele>1917.2</ele>
        <time>2021-02-27T13:28:27Z</time>
      </trkpt>
      <trkpt lat="45.239" lon="6.17912">
        <ele>1917.4</ele>
        <time>2021-02-27T13:28:28Z</time>
      </trkpt>
      <trkpt lat="45.23901" lon="6.17915">
        <ele>1917.4</ele>
        <time>2021-02-27T13:28:29Z</time>
      </trkpt>
      <trkpt lat="45.23901" lon="6.17915">
        <ele>1917.8</ele>
        <time>2021-02-27T13:28:30Z</time>
      </trkpt>
      <trkpt lat="45.23901" lon="6.17917">
        <ele>1918.2</ele>
        <time>2021-02-27T13:28:31Z</time>
      </trkpt>
      <trkpt lat="45.23901" lon="6.17919">
        <ele>1918.2</ele>
        <time>2021-02-27T13:28:32Z</time>
      </trkpt>
      <trkpt lat="45.23901" lon="6.17921">
        <ele>1918.2</ele>
        <time>2021-02-27T13:28:33Z</time>
      </trkpt>
      <trkpt lat="45.23901" lon="6.17922">
        <ele>1918.4</ele>
        <time>2021-02-27T13:28:34Z</time>
      </trkpt>
      <trkpt lat="45.23901" lon="6.17924">
        <ele>1918.4</ele>
        <time>2021-02-27T13:28:35Z</time>
      </trkpt>
      <trkpt lat="45.23902" lon="6.17926">
        <ele>1918.2</ele>
        <time>2021-02-27T13:28:36Z</time>
      </trkpt>
      <trkpt lat="45.23902" lon="6.17928">
        <ele>1918.4</ele>
        <time>2021-02-27T13:28:37Z</time>
      </trkpt>
      <trkpt lat="45.23903" lon="6.1793">
        <ele>1918.6</ele>
        <time>2021-02-27T13:28:38Z</time>
      </trkpt>
      <trkpt lat="45.23903" lon="6.17931">
        <ele>1918.6</ele>
        <time>2021-02-27T13:28:39Z</time>
      </trkpt>
      <trkpt lat="45.23904" lon="6.17933">
        <ele>1918.8</ele>
        <time>2021-02-27T13:28:40Z</time>
      </trkpt>
      <trkpt lat="45.23905" lon="6.17935">
        <ele>1919</ele>
        <time>2021-02-27T13:28:41Z</time>
      </trkpt>
      <trkpt lat="45.23905" lon="6.17937">
        <ele>1919.2</ele>
        <time>2021-02-27T13:28:42Z</time>
      </trkpt>
      <trkpt lat="45.23905" lon="6.17937">
        <ele>1919.4</ele>
        <time>2021-02-27T13:28:43Z</time>
      </trkpt>
      <trkpt lat="45.23905" lon="6.17941">
        <ele>1919.6</ele>
        <time>2021-02-27T13:28:44Z</time>
      </trkpt>
      <trkpt lat="45.23905" lon="6.17941">
        <ele>1919.4</ele>
        <time>2021-02-27T13:28:45Z</time>
      </trkpt>
      <trkpt lat="45.23905" lon="6.17943">
        <ele>1919.2</ele>
        <time>2021-02-27T13:28:46Z</time>
      </trkpt>
      <trkpt lat="45.23905" lon="6.17945">
        <ele>1919</ele>
        <time>2021-02-27T13:28:47Z</time>
      </trkpt>
      <trkpt lat="45.23904" lon="6.17947">
        <ele>1919.4</ele>
        <time>2021-02-27T13:28:48Z</time>
      </trkpt>
      <trkpt lat="45.23904" lon="6.17949">
        <ele>1919.4</ele>
        <time>2021-02-27T13:28:49Z</time>
      </trkpt>
      <trkpt lat="45.23904" lon="6.17951">
        <ele>1920</ele>
        <time>2021-02-27T13:28:50Z</time>
      </trkpt>
      <trkpt lat="45.23904" lon="6.17955">
        <ele>1920.4</ele>
        <time>2021-02-27T13:28:51Z</time>
      </trkpt>
      <trkpt lat="45.23904" lon="6.17955">
        <ele>1920.2</ele>
        <time>2021-02-27T13:28:52Z</time>
      </trkpt>
      <trkpt lat="45.23904" lon="6.17957">
        <ele>1920</ele>
        <time>2021-02-27T13:28:53Z</time>
      </trkpt>
      <trkpt lat="45.23904" lon="6.17959">
        <ele>1920</ele>
        <time>2021-02-27T13:28:54Z</time>
      </trkpt>
      <trkpt lat="45.23904" lon="6.17962">
        <ele>1919.8</ele>
        <time>2021-02-27T13:28:55Z</time>
      </trkpt>
      <trkpt lat="45.23905" lon="6.17964">
        <ele>1919.8</ele>
        <time>2021-02-27T13:28:56Z</time>
      </trkpt>
      <trkpt lat="45.23905" lon="6.17966">
        <ele>1920</ele>
        <time>2021-02-27T13:28:57Z</time>
      </trkpt>
      <trkpt lat="45.23905" lon="6.17967">
        <ele>1920.2</ele>
        <time>2021-02-27T13:28:58Z</time>
      </trkpt>
      <trkpt lat="45.23905" lon="6.17969">
        <ele>1920</ele>
        <time>2021-02-27T13:28:59Z</time>
      </trkpt>
      <trkpt lat="45.23905" lon="6.17971">
        <ele>1920.4</ele>
        <time>2021-02-27T13:29:00Z</time>
      </trkpt>
      <trkpt lat="45.23905" lon="6.17973">
        <ele>1920.8</ele>
        <time>2021-02-27T13:29:01Z</time>
      </trkpt>
      <trkpt lat="45.23905" lon="6.17975">
        <ele>1920.8</ele>
        <time>2021-02-27T13:29:02Z</time>
      </trkpt>
      <trkpt lat="45.23904" lon="6.17977">
        <ele>1921</ele>
        <time>2021-02-27T13:29:03Z</time>
      </trkpt>
      <trkpt lat="45.23904" lon="6.17979">
        <ele>1920.8</ele>
        <time>2021-02-27T13:29:04Z</time>
      </trkpt>
      <trkpt lat="45.23904" lon="6.17981">
        <ele>1920.8</ele>
        <time>2021-02-27T13:29:05Z</time>
      </trkpt>
      <trkpt lat="45.23904" lon="6.17983">
        <ele>1921</ele>
        <time>2021-02-27T13:29:06Z</time>
      </trkpt>
      <trkpt lat="45.23904" lon="6.17985">
        <ele>1921</ele>
        <time>2021-02-27T13:29:07Z</time>
      </trkpt>
      <trkpt lat="45.23904" lon="6.17987">
        <ele>1921</ele>
        <time>2021-02-27T13:29:08Z</time>
      </trkpt>
      <trkpt lat="45.23904" lon="6.17989">
        <ele>1921.4</ele>
        <time>2021-02-27T13:29:09Z</time>
      </trkpt>
      <trkpt lat="45.23904" lon="6.17991">
        <ele>1921.4</ele>
        <time>2021-02-27T13:29:10Z</time>
      </trkpt>
      <trkpt lat="45.23904" lon="6.17992">
        <ele>1921.4</ele>
        <time>2021-02-27T13:29:11Z</time>
      </trkpt>
      <trkpt lat="45.23904" lon="6.17994">
        <ele>1921.4</ele>
        <time>2021-02-27T13:29:12Z</time>
      </trkpt>
      <trkpt lat="45.23904" lon="6.17995">
        <ele>1921.2</ele>
        <time>2021-02-27T13:29:13Z</time>
      </trkpt>
      <trkpt lat="45.23904" lon="6.17997">
        <ele>1921.2</ele>
        <time>2021-02-27T13:29:14Z</time>
      </trkpt>
      <trkpt lat="45.23904" lon="6.17998">
        <ele>1921.2</ele>
        <time>2021-02-27T13:29:15Z</time>
      </trkpt>
      <trkpt lat="45.23904" lon="6.18">
        <ele>1921.4</ele>
        <time>2021-02-27T13:29:16Z</time>
      </trkpt>
      <trkpt lat="45.23904" lon="6.18001">
        <ele>1921.4</ele>
        <time>2021-02-27T13:29:17Z</time>
      </trkpt>
      <trkpt lat="45.23904" lon="6.18003">
        <ele>1921.8</ele>
        <time>2021-02-27T13:29:18Z</time>
      </trkpt>
      <trkpt lat="45.23904" lon="6.18004">
        <ele>1921.8</ele>
        <time>2021-02-27T13:29:19Z</time>
      </trkpt>
      <trkpt lat="45.23905" lon="6.18006">
        <ele>1922.2</ele>
        <time>2021-02-27T13:29:20Z</time>
      </trkpt>
      <trkpt lat="45.23905" lon="6.18009">
        <ele>1922.2</ele>
        <time>2021-02-27T13:29:21Z</time>
      </trkpt>
      <trkpt lat="45.23905" lon="6.18011">
        <ele>1922.2</ele>
        <time>2021-02-27T13:29:22Z</time>
      </trkpt>
      <trkpt lat="45.23905" lon="6.18013">
        <ele>1922.2</ele>
        <time>2021-02-27T13:29:23Z</time>
      </trkpt>
      <trkpt lat="45.23905" lon="6.18017">
        <ele>1922.6</ele>
        <time>2021-02-27T13:29:24Z</time>
      </trkpt>
      <trkpt lat="45.23905" lon="6.18017">
        <ele>1922.6</ele>
        <time>2021-02-27T13:29:25Z</time>
      </trkpt>
      <trkpt lat="45.23905" lon="6.18017">
        <ele>1922.4</ele>
        <time>2021-02-27T13:29:26Z</time>
      </trkpt>
      <trkpt lat="45.23904" lon="6.18021">
        <ele>1922.8</ele>
        <time>2021-02-27T13:29:27Z</time>
      </trkpt>
      <trkpt lat="45.23904" lon="6.18021">
        <ele>1922.8</ele>
        <time>2021-02-27T13:29:28Z</time>
      </trkpt>
      <trkpt lat="45.23904" lon="6.18025">
        <ele>1923</ele>
        <time>2021-02-27T13:29:29Z</time>
      </trkpt>
      <trkpt lat="45.23904" lon="6.18025">
        <ele>1923.2</ele>
        <time>2021-02-27T13:29:30Z</time>
      </trkpt>
      <trkpt lat="45.23904" lon="6.1803">
        <ele>1923.4</ele>
        <time>2021-02-27T13:29:31Z</time>
      </trkpt>
      <trkpt lat="45.23904" lon="6.1803">
        <ele>1923.6</ele>
        <time>2021-02-27T13:29:32Z</time>
      </trkpt>
      <trkpt lat="45.23905" lon="6.18033">
        <ele>1923.8</ele>
        <time>2021-02-27T13:29:33Z</time>
      </trkpt>
      <trkpt lat="45.23906" lon="6.18036">
        <ele>1923.4</ele>
        <time>2021-02-27T13:29:35Z</time>
      </trkpt>
      <trkpt lat="45.23906" lon="6.18036">
        <ele>1923.6</ele>
        <time>2021-02-27T13:29:36Z</time>
      </trkpt>
      <trkpt lat="45.23907" lon="6.1804">
        <ele>1923.6</ele>
        <time>2021-02-27T13:29:37Z</time>
      </trkpt>
      <trkpt lat="45.23907" lon="6.1804">
        <ele>1923.4</ele>
        <time>2021-02-27T13:29:38Z</time>
      </trkpt>
      <trkpt lat="45.23907" lon="6.18042">
        <ele>1923.4</ele>
        <time>2021-02-27T13:29:39Z</time>
      </trkpt>
      <trkpt lat="45.23907" lon="6.18045">
        <ele>1923.6</ele>
        <time>2021-02-27T13:29:40Z</time>
      </trkpt>
      <trkpt lat="45.23907" lon="6.18047">
        <ele>1923.8</ele>
        <time>2021-02-27T13:29:41Z</time>
      </trkpt>
      <trkpt lat="45.23908" lon="6.18049">
        <ele>1924</ele>
        <time>2021-02-27T13:29:42Z</time>
      </trkpt>
      <trkpt lat="45.23908" lon="6.18051">
        <ele>1923.8</ele>
        <time>2021-02-27T13:29:43Z</time>
      </trkpt>
      <trkpt lat="45.23908" lon="6.18053">
        <ele>1923.4</ele>
        <time>2021-02-27T13:29:44Z</time>
      </trkpt>
      <trkpt lat="45.23909" lon="6.18055">
        <ele>1923.2</ele>
        <time>2021-02-27T13:29:45Z</time>
      </trkpt>
      <trkpt lat="45.23909" lon="6.18057">
        <ele>1923</ele>
        <time>2021-02-27T13:29:46Z</time>
      </trkpt>
      <trkpt lat="45.2391" lon="6.18059">
        <ele>1923.4</ele>
        <time>2021-02-27T13:29:47Z</time>
      </trkpt>
      <trkpt lat="45.2391" lon="6.18061">
        <ele>1923</ele>
        <time>2021-02-27T13:29:48Z</time>
      </trkpt>
      <trkpt lat="45.23911" lon="6.18063">
        <ele>1923.4</ele>
        <time>2021-02-27T13:29:49Z</time>
      </trkpt>
      <trkpt lat="45.23911" lon="6.18065">
        <ele>1923.8</ele>
        <time>2021-02-27T13:29:50Z</time>
      </trkpt>
      <trkpt lat="45.23912" lon="6.18066">
        <ele>1924</ele>
        <time>2021-02-27T13:29:51Z</time>
      </trkpt>
      <trkpt lat="45.23912" lon="6.18068">
        <ele>1924.2</ele>
        <time>2021-02-27T13:29:52Z</time>
      </trkpt>
      <trkpt lat="45.23913" lon="6.1807">
        <ele>1924.2</ele>
        <time>2021-02-27T13:29:53Z</time>
      </trkpt>
      <trkpt lat="45.23913" lon="6.18072">
        <ele>1924.4</ele>
        <time>2021-02-27T13:29:54Z</time>
      </trkpt>
      <trkpt lat="45.23913" lon="6.18074">
        <ele>1924.6</ele>
        <time>2021-02-27T13:29:55Z</time>
      </trkpt>
      <trkpt lat="45.23914" lon="6.18076">
        <ele>1924.8</ele>
        <time>2021-02-27T13:29:56Z</time>
      </trkpt>
      <trkpt lat="45.23914" lon="6.18078">
        <ele>1924.8</ele>
        <time>2021-02-27T13:29:57Z</time>
      </trkpt>
      <trkpt lat="45.23914" lon="6.1808">
        <ele>1924.6</ele>
        <time>2021-02-27T13:29:58Z</time>
      </trkpt>
      <trkpt lat="45.23914" lon="6.18082">
        <ele>1925</ele>
        <time>2021-02-27T13:29:59Z</time>
      </trkpt>
      <trkpt lat="45.23914" lon="6.18084">
        <ele>1924.8</ele>
        <time>2021-02-27T13:30:00Z</time>
      </trkpt>
      <trkpt lat="45.23914" lon="6.18086">
        <ele>1925.2</ele>
        <time>2021-02-27T13:30:01Z</time>
      </trkpt>
      <trkpt lat="45.23914" lon="6.18088">
        <ele>1925</ele>
        <time>2021-02-27T13:30:02Z</time>
      </trkpt>
      <trkpt lat="45.23914" lon="6.1809">
        <ele>1925.2</ele>
        <time>2021-02-27T13:30:03Z</time>
      </trkpt>
      <trkpt lat="45.23913" lon="6.18092">
        <ele>1925.6</ele>
        <time>2021-02-27T13:30:04Z</time>
      </trkpt>
      <trkpt lat="45.23913" lon="6.18094">
        <ele>1925.8</ele>
        <time>2021-02-27T13:30:05Z</time>
      </trkpt>
      <trkpt lat="45.23913" lon="6.18096">
        <ele>1925.4</ele>
        <time>2021-02-27T13:30:06Z</time>
      </trkpt>
      <trkpt lat="45.23913" lon="6.18097">
        <ele>1925.8</ele>
        <time>2021-02-27T13:30:07Z</time>
      </trkpt>
      <trkpt lat="45.23912" lon="6.18099">
        <ele>1925.6</ele>
        <time>2021-02-27T13:30:08Z</time>
      </trkpt>
      <trkpt lat="45.23912" lon="6.18101">
        <ele>1925.6</ele>
        <time>2021-02-27T13:30:09Z</time>
      </trkpt>
      <trkpt lat="45.23912" lon="6.18103">
        <ele>1925.8</ele>
        <time>2021-02-27T13:30:10Z</time>
      </trkpt>
      <trkpt lat="45.23912" lon="6.18105">
        <ele>1925.8</ele>
        <time>2021-02-27T13:30:11Z</time>
      </trkpt>
      <trkpt lat="45.23912" lon="6.18107">
        <ele>1926</ele>
        <time>2021-02-27T13:30:12Z</time>
      </trkpt>
      <trkpt lat="45.23912" lon="6.18109">
        <ele>1926</ele>
        <time>2021-02-27T13:30:13Z</time>
      </trkpt>
      <trkpt lat="45.23912" lon="6.18111">
        <ele>1926.2</ele>
        <time>2021-02-27T13:30:14Z</time>
      </trkpt>
      <trkpt lat="45.23912" lon="6.18113">
        <ele>1926.2</ele>
        <time>2021-02-27T13:30:15Z</time>
      </trkpt>
      <trkpt lat="45.23912" lon="6.18116">
        <ele>1926.6</ele>
        <time>2021-02-27T13:30:16Z</time>
      </trkpt>
      <trkpt lat="45.23912" lon="6.18118">
        <ele>1926.6</ele>
        <time>2021-02-27T13:30:17Z</time>
      </trkpt>
      <trkpt lat="45.23912" lon="6.1812">
        <ele>1926.4</ele>
        <time>2021-02-27T13:30:18Z</time>
      </trkpt>
      <trkpt lat="45.23912" lon="6.18124">
        <ele>1926.8</ele>
        <time>2021-02-27T13:30:19Z</time>
      </trkpt>
      <trkpt lat="45.23912" lon="6.18124">
        <ele>1927.2</ele>
        <time>2021-02-27T13:30:20Z</time>
      </trkpt>
      <trkpt lat="45.23912" lon="6.18127">
        <ele>1927.4</ele>
        <time>2021-02-27T13:30:21Z</time>
      </trkpt>
      <trkpt lat="45.23912" lon="6.18127">
        <ele>1927.2</ele>
        <time>2021-02-27T13:30:22Z</time>
      </trkpt>
      <trkpt lat="45.23912" lon="6.18129">
        <ele>1927.4</ele>
        <time>2021-02-27T13:30:23Z</time>
      </trkpt>
      <trkpt lat="45.23912" lon="6.18131">
        <ele>1927.8</ele>
        <time>2021-02-27T13:30:24Z</time>
      </trkpt>
      <trkpt lat="45.23912" lon="6.18133">
        <ele>1927.8</ele>
        <time>2021-02-27T13:30:25Z</time>
      </trkpt>
      <trkpt lat="45.23912" lon="6.18135">
        <ele>1928</ele>
        <time>2021-02-27T13:30:26Z</time>
      </trkpt>
      <trkpt lat="45.23913" lon="6.18136">
        <ele>1928</ele>
        <time>2021-02-27T13:30:27Z</time>
      </trkpt>
      <trkpt lat="45.23913" lon="6.18138">
        <ele>1928</ele>
        <time>2021-02-27T13:30:28Z</time>
      </trkpt>
      <trkpt lat="45.23913" lon="6.1814">
        <ele>1927.6</ele>
        <time>2021-02-27T13:30:29Z</time>
      </trkpt>
      <trkpt lat="45.23913" lon="6.18142">
        <ele>1927.8</ele>
        <time>2021-02-27T13:30:30Z</time>
      </trkpt>
      <trkpt lat="45.23913" lon="6.18144">
        <ele>1928.2</ele>
        <time>2021-02-27T13:30:31Z</time>
      </trkpt>
      <trkpt lat="45.23913" lon="6.18147">
        <ele>1928.8</ele>
        <time>2021-02-27T13:30:32Z</time>
      </trkpt>
      <trkpt lat="45.23913" lon="6.18149">
        <ele>1929</ele>
        <time>2021-02-27T13:30:33Z</time>
      </trkpt>
      <trkpt lat="45.23913" lon="6.18151">
        <ele>1929.2</ele>
        <time>2021-02-27T13:30:34Z</time>
      </trkpt>
      <trkpt lat="45.23913" lon="6.18153">
        <ele>1929.2</ele>
        <time>2021-02-27T13:30:35Z</time>
      </trkpt>
      <trkpt lat="45.23912" lon="6.18155">
        <ele>1929.6</ele>
        <time>2021-02-27T13:30:36Z</time>
      </trkpt>
      <trkpt lat="45.23912" lon="6.18156">
        <ele>1929.4</ele>
        <time>2021-02-27T13:30:37Z</time>
      </trkpt>
      <trkpt lat="45.23911" lon="6.18158">
        <ele>1929.2</ele>
        <time>2021-02-27T13:30:38Z</time>
      </trkpt>
      <trkpt lat="45.23911" lon="6.1816">
        <ele>1929.8</ele>
        <time>2021-02-27T13:30:39Z</time>
      </trkpt>
      <trkpt lat="45.23911" lon="6.18161">
        <ele>1929.8</ele>
        <time>2021-02-27T13:30:40Z</time>
      </trkpt>
      <trkpt lat="45.2391" lon="6.18163">
        <ele>1929.6</ele>
        <time>2021-02-27T13:30:41Z</time>
      </trkpt>
      <trkpt lat="45.23909" lon="6.18167">
        <ele>1929.6</ele>
        <time>2021-02-27T13:30:42Z</time>
      </trkpt>
      <trkpt lat="45.23909" lon="6.18167">
        <ele>1929.6</ele>
        <time>2021-02-27T13:30:43Z</time>
      </trkpt>
      <trkpt lat="45.23908" lon="6.18171">
        <ele>1929.6</ele>
        <time>2021-02-27T13:30:44Z</time>
      </trkpt>
      <trkpt lat="45.23908" lon="6.18171">
        <ele>1929.8</ele>
        <time>2021-02-27T13:30:45Z</time>
      </trkpt>
      <trkpt lat="45.23908" lon="6.18172">
        <ele>1930</ele>
        <time>2021-02-27T13:30:46Z</time>
      </trkpt>
      <trkpt lat="45.23907" lon="6.18174">
        <ele>1930.4</ele>
        <time>2021-02-27T13:30:47Z</time>
      </trkpt>
      <trkpt lat="45.23907" lon="6.18176">
        <ele>1930</ele>
        <time>2021-02-27T13:30:48Z</time>
      </trkpt>
      <trkpt lat="45.23906" lon="6.18179">
        <ele>1930.2</ele>
        <time>2021-02-27T13:30:49Z</time>
      </trkpt>
      <trkpt lat="45.23906" lon="6.18179">
        <ele>1930.6</ele>
        <time>2021-02-27T13:30:50Z</time>
      </trkpt>
      <trkpt lat="45.23906" lon="6.18181">
        <ele>1930.4</ele>
        <time>2021-02-27T13:30:51Z</time>
      </trkpt>
      <trkpt lat="45.23905" lon="6.18183">
        <ele>1930.2</ele>
        <time>2021-02-27T13:30:52Z</time>
      </trkpt>
      <trkpt lat="45.23905" lon="6.18185">
        <ele>1930.4</ele>
        <time>2021-02-27T13:30:53Z</time>
      </trkpt>
      <trkpt lat="45.23905" lon="6.18187">
        <ele>1930.2</ele>
        <time>2021-02-27T13:30:54Z</time>
      </trkpt>
      <trkpt lat="45.23905" lon="6.18189">
        <ele>1930.6</ele>
        <time>2021-02-27T13:30:55Z</time>
      </trkpt>
      <trkpt lat="45.23905" lon="6.18192">
        <ele>1930.8</ele>
        <time>2021-02-27T13:30:56Z</time>
      </trkpt>
      <trkpt lat="45.23905" lon="6.18192">
        <ele>1931.4</ele>
        <time>2021-02-27T13:30:57Z</time>
      </trkpt>
      <trkpt lat="45.23905" lon="6.18195">
        <ele>1931.8</ele>
        <time>2021-02-27T13:30:58Z</time>
      </trkpt>
      <trkpt lat="45.23905" lon="6.18195">
        <ele>1931.8</ele>
        <time>2021-02-27T13:30:59Z</time>
      </trkpt>
      <trkpt lat="45.23904" lon="6.18199">
        <ele>1932.2</ele>
        <time>2021-02-27T13:31:00Z</time>
      </trkpt>
      <trkpt lat="45.23904" lon="6.18199">
        <ele>1932.4</ele>
        <time>2021-02-27T13:31:01Z</time>
      </trkpt>
      <trkpt lat="45.23903" lon="6.18202">
        <ele>1932.6</ele>
        <time>2021-02-27T13:31:02Z</time>
      </trkpt>
      <trkpt lat="45.23903" lon="6.18202">
        <ele>1932.8</ele>
        <time>2021-02-27T13:31:03Z</time>
      </trkpt>
      <trkpt lat="45.23903" lon="6.18203">
        <ele>1932.6</ele>
        <time>2021-02-27T13:31:04Z</time>
      </trkpt>
      <trkpt lat="45.23902" lon="6.18205">
        <ele>1932.6</ele>
        <time>2021-02-27T13:31:05Z</time>
      </trkpt>
      <trkpt lat="45.23902" lon="6.18207">
        <ele>1932.8</ele>
        <time>2021-02-27T13:31:06Z</time>
      </trkpt>
      <trkpt lat="45.23901" lon="6.18208">
        <ele>1932.8</ele>
        <time>2021-02-27T13:31:07Z</time>
      </trkpt>
      <trkpt lat="45.239" lon="6.18212">
        <ele>1932.8</ele>
        <time>2021-02-27T13:31:08Z</time>
      </trkpt>
      <trkpt lat="45.239" lon="6.18212">
        <ele>1932.8</ele>
        <time>2021-02-27T13:31:09Z</time>
      </trkpt>
      <trkpt lat="45.23899" lon="6.18215">
        <ele>1933.2</ele>
        <time>2021-02-27T13:31:10Z</time>
      </trkpt>
      <trkpt lat="45.23899" lon="6.18215">
        <ele>1933.2</ele>
        <time>2021-02-27T13:31:11Z</time>
      </trkpt>
      <trkpt lat="45.23898" lon="6.18218">
        <ele>1933.4</ele>
        <time>2021-02-27T13:31:12Z</time>
      </trkpt>
      <trkpt lat="45.23898" lon="6.18218">
        <ele>1933.4</ele>
        <time>2021-02-27T13:31:13Z</time>
      </trkpt>
      <trkpt lat="45.23898" lon="6.18221">
        <ele>1933.6</ele>
        <time>2021-02-27T13:31:14Z</time>
      </trkpt>
      <trkpt lat="45.23898" lon="6.18221">
        <ele>1933.8</ele>
        <time>2021-02-27T13:31:15Z</time>
      </trkpt>
      <trkpt lat="45.23897" lon="6.18224">
        <ele>1934</ele>
        <time>2021-02-27T13:31:16Z</time>
      </trkpt>
      <trkpt lat="45.23897" lon="6.18224">
        <ele>1934.4</ele>
        <time>2021-02-27T13:31:17Z</time>
      </trkpt>
      <trkpt lat="45.23897" lon="6.18227">
        <ele>1934.2</ele>
        <time>2021-02-27T13:31:18Z</time>
      </trkpt>
      <trkpt lat="45.23897" lon="6.18227">
        <ele>1934.2</ele>
        <time>2021-02-27T13:31:19Z</time>
      </trkpt>
      <trkpt lat="45.23897" lon="6.18231">
        <ele>1934.4</ele>
        <time>2021-02-27T13:31:20Z</time>
      </trkpt>
      <trkpt lat="45.23897" lon="6.18231">
        <ele>1934.4</ele>
        <time>2021-02-27T13:31:21Z</time>
      </trkpt>
      <trkpt lat="45.23896" lon="6.18234">
        <ele>1934.4</ele>
        <time>2021-02-27T13:31:22Z</time>
      </trkpt>
      <trkpt lat="45.23896" lon="6.18234">
        <ele>1934.4</ele>
        <time>2021-02-27T13:31:23Z</time>
      </trkpt>
      <trkpt lat="45.23895" lon="6.18237">
        <ele>1934.8</ele>
        <time>2021-02-27T13:31:24Z</time>
      </trkpt>
      <trkpt lat="45.23895" lon="6.18237">
        <ele>1935</ele>
        <time>2021-02-27T13:31:25Z</time>
      </trkpt>
      <trkpt lat="45.23895" lon="6.1824">
        <ele>1935</ele>
        <time>2021-02-27T13:31:26Z</time>
      </trkpt>
      <trkpt lat="45.23895" lon="6.1824">
        <ele>1934.8</ele>
        <time>2021-02-27T13:31:27Z</time>
      </trkpt>
      <trkpt lat="45.23894" lon="6.18243">
        <ele>1935</ele>
        <time>2021-02-27T13:31:28Z</time>
      </trkpt>
      <trkpt lat="45.23894" lon="6.18243">
        <ele>1935.2</ele>
        <time>2021-02-27T13:31:29Z</time>
      </trkpt>
      <trkpt lat="45.23894" lon="6.18246">
        <ele>1935</ele>
        <time>2021-02-27T13:31:30Z</time>
      </trkpt>
      <trkpt lat="45.23894" lon="6.18246">
        <ele>1935.2</ele>
        <time>2021-02-27T13:31:31Z</time>
      </trkpt>
      <trkpt lat="45.23894" lon="6.1825">
        <ele>1935.2</ele>
        <time>2021-02-27T13:31:32Z</time>
      </trkpt>
      <trkpt lat="45.23894" lon="6.1825">
        <ele>1935</ele>
        <time>2021-02-27T13:31:33Z</time>
      </trkpt>
      <trkpt lat="45.23894" lon="6.18253">
        <ele>1934.6</ele>
        <time>2021-02-27T13:31:34Z</time>
      </trkpt>
      <trkpt lat="45.23894" lon="6.18253">
        <ele>1934.4</ele>
        <time>2021-02-27T13:31:35Z</time>
      </trkpt>
      <trkpt lat="45.23894" lon="6.18257">
        <ele>1934.4</ele>
        <time>2021-02-27T13:31:36Z</time>
      </trkpt>
      <trkpt lat="45.23894" lon="6.18257">
        <ele>1934.4</ele>
        <time>2021-02-27T13:31:37Z</time>
      </trkpt>
      <trkpt lat="45.23893" lon="6.1826">
        <ele>1934.4</ele>
        <time>2021-02-27T13:31:38Z</time>
      </trkpt>
      <trkpt lat="45.23893" lon="6.1826">
        <ele>1934.2</ele>
        <time>2021-02-27T13:31:39Z</time>
      </trkpt>
      <trkpt lat="45.23894" lon="6.18263">
        <ele>1934.2</ele>
        <time>2021-02-27T13:31:40Z</time>
      </trkpt>
      <trkpt lat="45.23894" lon="6.18263">
        <ele>1934.2</ele>
        <time>2021-02-27T13:31:41Z</time>
      </trkpt>
      <trkpt lat="45.23894" lon="6.18267">
        <ele>1934.4</ele>
        <time>2021-02-27T13:31:42Z</time>
      </trkpt>
      <trkpt lat="45.23894" lon="6.18267">
        <ele>1934.6</ele>
        <time>2021-02-27T13:31:43Z</time>
      </trkpt>
      <trkpt lat="45.23894" lon="6.1827">
        <ele>1934.6</ele>
        <time>2021-02-27T13:31:44Z</time>
      </trkpt>
      <trkpt lat="45.23894" lon="6.1827">
        <ele>1935</ele>
        <time>2021-02-27T13:31:45Z</time>
      </trkpt>
      <trkpt lat="45.23894" lon="6.18274">
        <ele>1935.4</ele>
        <time>2021-02-27T13:31:46Z</time>
      </trkpt>
      <trkpt lat="45.23894" lon="6.18274">
        <ele>1935.2</ele>
        <time>2021-02-27T13:31:47Z</time>
      </trkpt>
      <trkpt lat="45.23894" lon="6.18278">
        <ele>1935.2</ele>
        <time>2021-02-27T13:31:48Z</time>
      </trkpt>
      <trkpt lat="45.23894" lon="6.18278">
        <ele>1935.4</ele>
        <time>2021-02-27T13:31:49Z</time>
      </trkpt>
      <trkpt lat="45.23895" lon="6.18282">
        <ele>1935.6</ele>
        <time>2021-02-27T13:31:50Z</time>
      </trkpt>
      <trkpt lat="45.23895" lon="6.18282">
        <ele>1935.6</ele>
        <time>2021-02-27T13:31:51Z</time>
      </trkpt>
      <trkpt lat="45.23895" lon="6.18285">
        <ele>1935.8</ele>
        <time>2021-02-27T13:31:52Z</time>
      </trkpt>
      <trkpt lat="45.23895" lon="6.18285">
        <ele>1936</ele>
        <time>2021-02-27T13:31:53Z</time>
      </trkpt>
      <trkpt lat="45.23896" lon="6.18289">
        <ele>1935.6</ele>
        <time>2021-02-27T13:31:54Z</time>
      </trkpt>
      <trkpt lat="45.23896" lon="6.18289">
        <ele>1935.8</ele>
        <time>2021-02-27T13:31:55Z</time>
      </trkpt>
      <trkpt lat="45.23896" lon="6.18293">
        <ele>1936</ele>
        <time>2021-02-27T13:31:56Z</time>
      </trkpt>
      <trkpt lat="45.23896" lon="6.18293">
        <ele>1936.6</ele>
        <time>2021-02-27T13:31:57Z</time>
      </trkpt>
      <trkpt lat="45.23896" lon="6.18296">
        <ele>1936.4</ele>
        <time>2021-02-27T13:31:58Z</time>
      </trkpt>
      <trkpt lat="45.23896" lon="6.18296">
        <ele>1937</ele>
        <time>2021-02-27T13:31:59Z</time>
      </trkpt>
      <trkpt lat="45.23895" lon="6.18301">
        <ele>1937</ele>
        <time>2021-02-27T13:32:00Z</time>
      </trkpt>
      <trkpt lat="45.23895" lon="6.18301">
        <ele>1937.2</ele>
        <time>2021-02-27T13:32:01Z</time>
      </trkpt>
      <trkpt lat="45.23895" lon="6.18304">
        <ele>1937.6</ele>
        <time>2021-02-27T13:32:02Z</time>
      </trkpt>
      <trkpt lat="45.23895" lon="6.18304">
        <ele>1937.6</ele>
        <time>2021-02-27T13:32:03Z</time>
      </trkpt>
      <trkpt lat="45.23895" lon="6.18308">
        <ele>1937.6</ele>
        <time>2021-02-27T13:32:04Z</time>
      </trkpt>
      <trkpt lat="45.23895" lon="6.18308">
        <ele>1937.6</ele>
        <time>2021-02-27T13:32:05Z</time>
      </trkpt>
      <trkpt lat="45.23895" lon="6.18312">
        <ele>1937.4</ele>
        <time>2021-02-27T13:32:06Z</time>
      </trkpt>
      <trkpt lat="45.23895" lon="6.18312">
        <ele>1937.4</ele>
        <time>2021-02-27T13:32:07Z</time>
      </trkpt>
      <trkpt lat="45.23896" lon="6.18316">
        <ele>1937.6</ele>
        <time>2021-02-27T13:32:08Z</time>
      </trkpt>
      <trkpt lat="45.23896" lon="6.18316">
        <ele>1937.8</ele>
        <time>2021-02-27T13:32:09Z</time>
      </trkpt>
      <trkpt lat="45.23896" lon="6.18319">
        <ele>1938.2</ele>
        <time>2021-02-27T13:32:10Z</time>
      </trkpt>
      <trkpt lat="45.23896" lon="6.18319">
        <ele>1937.8</ele>
        <time>2021-02-27T13:32:11Z</time>
      </trkpt>
      <trkpt lat="45.23897" lon="6.18322">
        <ele>1937.4</ele>
        <time>2021-02-27T13:32:12Z</time>
      </trkpt>
      <trkpt lat="45.23897" lon="6.18322">
        <ele>1937.8</ele>
        <time>2021-02-27T13:32:13Z</time>
      </trkpt>
      <trkpt lat="45.23897" lon="6.18325">
        <ele>1937.6</ele>
        <time>2021-02-27T13:32:14Z</time>
      </trkpt>
      <trkpt lat="45.23897" lon="6.18325">
        <ele>1937.6</ele>
        <time>2021-02-27T13:32:15Z</time>
      </trkpt>
      <trkpt lat="45.23897" lon="6.18328">
        <ele>1937.6</ele>
        <time>2021-02-27T13:32:16Z</time>
      </trkpt>
      <trkpt lat="45.23897" lon="6.18328">
        <ele>1938.2</ele>
        <time>2021-02-27T13:32:17Z</time>
      </trkpt>
      <trkpt lat="45.23897" lon="6.18331">
        <ele>1938.4</ele>
        <time>2021-02-27T13:32:18Z</time>
      </trkpt>
      <trkpt lat="45.23897" lon="6.18331">
        <ele>1938.2</ele>
        <time>2021-02-27T13:32:19Z</time>
      </trkpt>
      <trkpt lat="45.23897" lon="6.18335">
        <ele>1938.2</ele>
        <time>2021-02-27T13:32:20Z</time>
      </trkpt>
      <trkpt lat="45.23897" lon="6.18335">
        <ele>1938</ele>
        <time>2021-02-27T13:32:21Z</time>
      </trkpt>
      <trkpt lat="45.23897" lon="6.18338">
        <ele>1938.2</ele>
        <time>2021-02-27T13:32:22Z</time>
      </trkpt>
      <trkpt lat="45.23897" lon="6.18338">
        <ele>1938.2</ele>
        <time>2021-02-27T13:32:23Z</time>
      </trkpt>
      <trkpt lat="45.23897" lon="6.18343">
        <ele>1938.2</ele>
        <time>2021-02-27T13:32:24Z</time>
      </trkpt>
      <trkpt lat="45.23897" lon="6.18343">
        <ele>1938.2</ele>
        <time>2021-02-27T13:32:25Z</time>
      </trkpt>
      <trkpt lat="45.23897" lon="6.18347">
        <ele>1938.2</ele>
        <time>2021-02-27T13:32:26Z</time>
      </trkpt>
      <trkpt lat="45.23897" lon="6.18347">
        <ele>1938.4</ele>
        <time>2021-02-27T13:32:27Z</time>
      </trkpt>
      <trkpt lat="45.23897" lon="6.18351">
        <ele>1938.8</ele>
        <time>2021-02-27T13:32:28Z</time>
      </trkpt>
      <trkpt lat="45.23897" lon="6.18351">
        <ele>1939</ele>
        <time>2021-02-27T13:32:29Z</time>
      </trkpt>
      <trkpt lat="45.23897" lon="6.18355">
        <ele>1939</ele>
        <time>2021-02-27T13:32:30Z</time>
      </trkpt>
      <trkpt lat="45.23897" lon="6.18355">
        <ele>1939.4</ele>
        <time>2021-02-27T13:32:31Z</time>
      </trkpt>
      <trkpt lat="45.23896" lon="6.18359">
        <ele>1939.6</ele>
        <time>2021-02-27T13:32:32Z</time>
      </trkpt>
      <trkpt lat="45.23896" lon="6.18359">
        <ele>1940</ele>
        <time>2021-02-27T13:32:33Z</time>
      </trkpt>
      <trkpt lat="45.23896" lon="6.18363">
        <ele>1940</ele>
        <time>2021-02-27T13:32:34Z</time>
      </trkpt>
      <trkpt lat="45.23896" lon="6.18363">
        <ele>1939.8</ele>
        <time>2021-02-27T13:32:35Z</time>
      </trkpt>
      <trkpt lat="45.23896" lon="6.18367">
        <ele>1940.2</ele>
        <time>2021-02-27T13:32:36Z</time>
      </trkpt>
      <trkpt lat="45.23896" lon="6.18367">
        <ele>1940.2</ele>
        <time>2021-02-27T13:32:37Z</time>
      </trkpt>
      <trkpt lat="45.23896" lon="6.18371">
        <ele>1940.2</ele>
        <time>2021-02-27T13:32:38Z</time>
      </trkpt>
      <trkpt lat="45.23896" lon="6.18371">
        <ele>1940.4</ele>
        <time>2021-02-27T13:32:39Z</time>
      </trkpt>
      <trkpt lat="45.23896" lon="6.18375">
        <ele>1940.8</ele>
        <time>2021-02-27T13:32:40Z</time>
      </trkpt>
      <trkpt lat="45.23896" lon="6.18375">
        <ele>1941</ele>
        <time>2021-02-27T13:32:41Z</time>
      </trkpt>
      <trkpt lat="45.23896" lon="6.18378">
        <ele>1941.4</ele>
        <time>2021-02-27T13:32:42Z</time>
      </trkpt>
      <trkpt lat="45.23896" lon="6.18378">
        <ele>1941.6</ele>
        <time>2021-02-27T13:32:43Z</time>
      </trkpt>
      <trkpt lat="45.23896" lon="6.18381">
        <ele>1941.6</ele>
        <time>2021-02-27T13:32:44Z</time>
      </trkpt>
      <trkpt lat="45.23896" lon="6.18381">
        <ele>1941.6</ele>
        <time>2021-02-27T13:32:45Z</time>
      </trkpt>
      <trkpt lat="45.23895" lon="6.18385">
        <ele>1941.4</ele>
        <time>2021-02-27T13:32:46Z</time>
      </trkpt>
      <trkpt lat="45.23895" lon="6.18385">
        <ele>1941.2</ele>
        <time>2021-02-27T13:32:47Z</time>
      </trkpt>
      <trkpt lat="45.23895" lon="6.18388">
        <ele>1941.6</ele>
        <time>2021-02-27T13:32:48Z</time>
      </trkpt>
      <trkpt lat="45.23895" lon="6.18388">
        <ele>1941.4</ele>
        <time>2021-02-27T13:32:49Z</time>
      </trkpt>
      <trkpt lat="45.23894" lon="6.18391">
        <ele>1941.4</ele>
        <time>2021-02-27T13:32:50Z</time>
      </trkpt>
      <trkpt lat="45.23894" lon="6.18391">
        <ele>1941.2</ele>
        <time>2021-02-27T13:32:51Z</time>
      </trkpt>
      <trkpt lat="45.23894" lon="6.18394">
        <ele>1941.6</ele>
        <time>2021-02-27T13:32:52Z</time>
      </trkpt>
      <trkpt lat="45.23894" lon="6.18394">
        <ele>1941.4</ele>
        <time>2021-02-27T13:32:53Z</time>
      </trkpt>
      <trkpt lat="45.23894" lon="6.18398">
        <ele>1941.6</ele>
        <time>2021-02-27T13:32:54Z</time>
      </trkpt>
      <trkpt lat="45.23894" lon="6.18398">
        <ele>1942</ele>
        <time>2021-02-27T13:32:55Z</time>
      </trkpt>
      <trkpt lat="45.23894" lon="6.18402">
        <ele>1941.4</ele>
        <time>2021-02-27T13:32:56Z</time>
      </trkpt>
      <trkpt lat="45.23894" lon="6.18402">
        <ele>1942</ele>
        <time>2021-02-27T13:32:57Z</time>
      </trkpt>
      <trkpt lat="45.23893" lon="6.18405">
        <ele>1942.4</ele>
        <time>2021-02-27T13:32:58Z</time>
      </trkpt>
      <trkpt lat="45.23893" lon="6.18405">
        <ele>1942.4</ele>
        <time>2021-02-27T13:32:59Z</time>
      </trkpt>
      <trkpt lat="45.23892" lon="6.18409">
        <ele>1942.2</ele>
        <time>2021-02-27T13:33:00Z</time>
      </trkpt>
      <trkpt lat="45.23892" lon="6.18409">
        <ele>1942.4</ele>
        <time>2021-02-27T13:33:01Z</time>
      </trkpt>
      <trkpt lat="45.23892" lon="6.18413">
        <ele>1942.6</ele>
        <time>2021-02-27T13:33:02Z</time>
      </trkpt>
      <trkpt lat="45.23892" lon="6.18413">
        <ele>1942.8</ele>
        <time>2021-02-27T13:33:03Z</time>
      </trkpt>
      <trkpt lat="45.23892" lon="6.18416">
        <ele>1942.4</ele>
        <time>2021-02-27T13:33:04Z</time>
      </trkpt>
      <trkpt lat="45.23892" lon="6.18416">
        <ele>1942.8</ele>
        <time>2021-02-27T13:33:05Z</time>
      </trkpt>
      <trkpt lat="45.23892" lon="6.1842">
        <ele>1943.2</ele>
        <time>2021-02-27T13:33:06Z</time>
      </trkpt>
      <trkpt lat="45.23892" lon="6.1842">
        <ele>1942.8</ele>
        <time>2021-02-27T13:33:07Z</time>
      </trkpt>
      <trkpt lat="45.23892" lon="6.18423">
        <ele>1943.2</ele>
        <time>2021-02-27T13:33:08Z</time>
      </trkpt>
      <trkpt lat="45.23892" lon="6.18423">
        <ele>1943.4</ele>
        <time>2021-02-27T13:33:09Z</time>
      </trkpt>
      <trkpt lat="45.23892" lon="6.18427">
        <ele>1943.2</ele>
        <time>2021-02-27T13:33:10Z</time>
      </trkpt>
      <trkpt lat="45.23892" lon="6.18427">
        <ele>1943.6</ele>
        <time>2021-02-27T13:33:11Z</time>
      </trkpt>
      <trkpt lat="45.23892" lon="6.1843">
        <ele>1943.2</ele>
        <time>2021-02-27T13:33:12Z</time>
      </trkpt>
      <trkpt lat="45.23892" lon="6.1843">
        <ele>1943.4</ele>
        <time>2021-02-27T13:33:13Z</time>
      </trkpt>
      <trkpt lat="45.23893" lon="6.18434">
        <ele>1943.6</ele>
        <time>2021-02-27T13:33:14Z</time>
      </trkpt>
      <trkpt lat="45.23893" lon="6.18434">
        <ele>1943.4</ele>
        <time>2021-02-27T13:33:15Z</time>
      </trkpt>
      <trkpt lat="45.23893" lon="6.18438">
        <ele>1943.4</ele>
        <time>2021-02-27T13:33:16Z</time>
      </trkpt>
      <trkpt lat="45.23893" lon="6.18438">
        <ele>1943.6</ele>
        <time>2021-02-27T13:33:17Z</time>
      </trkpt>
      <trkpt lat="45.23892" lon="6.18441">
        <ele>1943.8</ele>
        <time>2021-02-27T13:33:18Z</time>
      </trkpt>
      <trkpt lat="45.23892" lon="6.18441">
        <ele>1943.6</ele>
        <time>2021-02-27T13:33:19Z</time>
      </trkpt>
      <trkpt lat="45.23892" lon="6.18441">
        <ele>1943.6</ele>
        <time>2021-02-27T13:33:20Z</time>
      </trkpt>
      <trkpt lat="45.23892" lon="6.18446">
        <ele>1943.8</ele>
        <time>2021-02-27T13:33:21Z</time>
      </trkpt>
      <trkpt lat="45.23892" lon="6.18446">
        <ele>1943.8</ele>
        <time>2021-02-27T13:33:22Z</time>
      </trkpt>
      <trkpt lat="45.23893" lon="6.1845">
        <ele>1944</ele>
        <time>2021-02-27T13:33:23Z</time>
      </trkpt>
      <trkpt lat="45.23893" lon="6.1845">
        <ele>1943.8</ele>
        <time>2021-02-27T13:33:24Z</time>
      </trkpt>
      <trkpt lat="45.23894" lon="6.18453">
        <ele>1944</ele>
        <time>2021-02-27T13:33:25Z</time>
      </trkpt>
      <trkpt lat="45.23894" lon="6.18453">
        <ele>1943.8</ele>
        <time>2021-02-27T13:33:26Z</time>
      </trkpt>
      <trkpt lat="45.23894" lon="6.18457">
        <ele>1944</ele>
        <time>2021-02-27T13:33:27Z</time>
      </trkpt>
      <trkpt lat="45.23894" lon="6.18457">
        <ele>1943.8</ele>
        <time>2021-02-27T13:33:28Z</time>
      </trkpt>
      <trkpt lat="45.23896" lon="6.1846">
        <ele>1943.8</ele>
        <time>2021-02-27T13:33:29Z</time>
      </trkpt>
      <trkpt lat="45.23896" lon="6.1846">
        <ele>1943.8</ele>
        <time>2021-02-27T13:33:30Z</time>
      </trkpt>
      <trkpt lat="45.23898" lon="6.18464">
        <ele>1943.8</ele>
        <time>2021-02-27T13:33:31Z</time>
      </trkpt>
      <trkpt lat="45.23898" lon="6.18464">
        <ele>1943.6</ele>
        <time>2021-02-27T13:33:32Z</time>
      </trkpt>
      <trkpt lat="45.239" lon="6.18467">
        <ele>1943.6</ele>
        <time>2021-02-27T13:33:33Z</time>
      </trkpt>
      <trkpt lat="45.239" lon="6.18467">
        <ele>1943.8</ele>
        <time>2021-02-27T13:33:34Z</time>
      </trkpt>
      <trkpt lat="45.23901" lon="6.1847">
        <ele>1944.4</ele>
        <time>2021-02-27T13:33:35Z</time>
      </trkpt>
      <trkpt lat="45.23901" lon="6.1847">
        <ele>1944.4</ele>
        <time>2021-02-27T13:33:36Z</time>
      </trkpt>
      <trkpt lat="45.23902" lon="6.18472">
        <ele>1944.6</ele>
        <time>2021-02-27T13:33:37Z</time>
      </trkpt>
      <trkpt lat="45.23902" lon="6.18472">
        <ele>1944.8</ele>
        <time>2021-02-27T13:33:38Z</time>
      </trkpt>
      <trkpt lat="45.23903" lon="6.18475">
        <ele>1944.4</ele>
        <time>2021-02-27T13:33:39Z</time>
      </trkpt>
      <trkpt lat="45.23903" lon="6.18475">
        <ele>1944.8</ele>
        <time>2021-02-27T13:33:40Z</time>
      </trkpt>
      <trkpt lat="45.23905" lon="6.18478">
        <ele>1944.8</ele>
        <time>2021-02-27T13:33:41Z</time>
      </trkpt>
      <trkpt lat="45.23905" lon="6.18478">
        <ele>1944.8</ele>
        <time>2021-02-27T13:33:42Z</time>
      </trkpt>
      <trkpt lat="45.23905" lon="6.1848">
        <ele>1945</ele>
        <time>2021-02-27T13:33:43Z</time>
      </trkpt>
      <trkpt lat="45.23905" lon="6.1848">
        <ele>1945.4</ele>
        <time>2021-02-27T13:33:44Z</time>
      </trkpt>
      <trkpt lat="45.23906" lon="6.18483">
        <ele>1945.4</ele>
        <time>2021-02-27T13:33:45Z</time>
      </trkpt>
      <trkpt lat="45.23906" lon="6.18483">
        <ele>1945.4</ele>
        <time>2021-02-27T13:33:46Z</time>
      </trkpt>
      <trkpt lat="45.23907" lon="6.18485">
        <ele>1945.4</ele>
        <time>2021-02-27T13:33:47Z</time>
      </trkpt>
      <trkpt lat="45.23907" lon="6.18485">
        <ele>1945.4</ele>
        <time>2021-02-27T13:33:48Z</time>
      </trkpt>
      <trkpt lat="45.23909" lon="6.18488">
        <ele>1945.8</ele>
        <time>2021-02-27T13:33:49Z</time>
      </trkpt>
      <trkpt lat="45.23909" lon="6.18488">
        <ele>1945.8</ele>
        <time>2021-02-27T13:33:50Z</time>
      </trkpt>
      <trkpt lat="45.23911" lon="6.18491">
        <ele>1945.8</ele>
        <time>2021-02-27T13:33:51Z</time>
      </trkpt>
      <trkpt lat="45.23911" lon="6.18491">
        <ele>1945.8</ele>
        <time>2021-02-27T13:33:52Z</time>
      </trkpt>
      <trkpt lat="45.23913" lon="6.18493">
        <ele>1945.8</ele>
        <time>2021-02-27T13:33:53Z</time>
      </trkpt>
      <trkpt lat="45.23913" lon="6.18493">
        <ele>1945.8</ele>
        <time>2021-02-27T13:33:54Z</time>
      </trkpt>
      <trkpt lat="45.23915" lon="6.18496">
        <ele>1946</ele>
        <time>2021-02-27T13:33:55Z</time>
      </trkpt>
      <trkpt lat="45.23915" lon="6.18496">
        <ele>1946</ele>
        <time>2021-02-27T13:33:56Z</time>
      </trkpt>
      <trkpt lat="45.23917" lon="6.18498">
        <ele>1945.8</ele>
        <time>2021-02-27T13:33:57Z</time>
      </trkpt>
      <trkpt lat="45.23917" lon="6.18498">
        <ele>1945.8</ele>
        <time>2021-02-27T13:33:58Z</time>
      </trkpt>
      <trkpt lat="45.23919" lon="6.18501">
        <ele>1946.2</ele>
        <time>2021-02-27T13:33:59Z</time>
      </trkpt>
      <trkpt lat="45.23919" lon="6.18501">
        <ele>1946.4</ele>
        <time>2021-02-27T13:34:00Z</time>
      </trkpt>
      <trkpt lat="45.2392" lon="6.18502">
        <ele>1946.4</ele>
        <time>2021-02-27T13:34:01Z</time>
      </trkpt>
      <trkpt lat="45.2392" lon="6.18504">
        <ele>1946.6</ele>
        <time>2021-02-27T13:34:02Z</time>
      </trkpt>
      <trkpt lat="45.23921" lon="6.18505">
        <ele>1946.6</ele>
        <time>2021-02-27T13:34:03Z</time>
      </trkpt>
      <trkpt lat="45.23922" lon="6.18506">
        <ele>1946.2</ele>
        <time>2021-02-27T13:34:04Z</time>
      </trkpt>
      <trkpt lat="45.23923" lon="6.1851">
        <ele>1946.4</ele>
        <time>2021-02-27T13:34:05Z</time>
      </trkpt>
      <trkpt lat="45.23923" lon="6.1851">
        <ele>1946.6</ele>
        <time>2021-02-27T13:34:06Z</time>
      </trkpt>
      <trkpt lat="45.23924" lon="6.18513">
        <ele>1946.8</ele>
        <time>2021-02-27T13:34:07Z</time>
      </trkpt>
      <trkpt lat="45.23924" lon="6.18513">
        <ele>1947.2</ele>
        <time>2021-02-27T13:34:08Z</time>
      </trkpt>
      <trkpt lat="45.23925" lon="6.18516">
        <ele>1947.2</ele>
        <time>2021-02-27T13:34:09Z</time>
      </trkpt>
      <trkpt lat="45.23925" lon="6.18516">
        <ele>1947.4</ele>
        <time>2021-02-27T13:34:10Z</time>
      </trkpt>
      <trkpt lat="45.23926" lon="6.1852">
        <ele>1947.6</ele>
        <time>2021-02-27T13:34:11Z</time>
      </trkpt>
      <trkpt lat="45.23926" lon="6.1852">
        <ele>1947.2</ele>
        <time>2021-02-27T13:34:12Z</time>
      </trkpt>
      <trkpt lat="45.23927" lon="6.18523">
        <ele>1947.2</ele>
        <time>2021-02-27T13:34:13Z</time>
      </trkpt>
      <trkpt lat="45.23927" lon="6.18523">
        <ele>1947.4</ele>
        <time>2021-02-27T13:34:14Z</time>
      </trkpt>
      <trkpt lat="45.23927" lon="6.18526">
        <ele>1947.2</ele>
        <time>2021-02-27T13:34:15Z</time>
      </trkpt>
      <trkpt lat="45.23927" lon="6.18526">
        <ele>1947.2</ele>
        <time>2021-02-27T13:34:16Z</time>
      </trkpt>
      <trkpt lat="45.23927" lon="6.1853">
        <ele>1947.4</ele>
        <time>2021-02-27T13:34:17Z</time>
      </trkpt>
      <trkpt lat="45.23927" lon="6.1853">
        <ele>1947.4</ele>
        <time>2021-02-27T13:34:18Z</time>
      </trkpt>
      <trkpt lat="45.23927" lon="6.18533">
        <ele>1947.6</ele>
        <time>2021-02-27T13:34:19Z</time>
      </trkpt>
      <trkpt lat="45.23927" lon="6.18533">
        <ele>1947.8</ele>
        <time>2021-02-27T13:34:20Z</time>
      </trkpt>
      <trkpt lat="45.23927" lon="6.18537">
        <ele>1948</ele>
        <time>2021-02-27T13:34:21Z</time>
      </trkpt>
      <trkpt lat="45.23927" lon="6.18537">
        <ele>1948</ele>
        <time>2021-02-27T13:34:22Z</time>
      </trkpt>
      <trkpt lat="45.23927" lon="6.1854">
        <ele>1948</ele>
        <time>2021-02-27T13:34:23Z</time>
      </trkpt>
      <trkpt lat="45.23927" lon="6.1854">
        <ele>1948.4</ele>
        <time>2021-02-27T13:34:24Z</time>
      </trkpt>
      <trkpt lat="45.23926" lon="6.18544">
        <ele>1948.8</ele>
        <time>2021-02-27T13:34:25Z</time>
      </trkpt>
      <trkpt lat="45.23926" lon="6.18544">
        <ele>1948.6</ele>
        <time>2021-02-27T13:34:26Z</time>
      </trkpt>
      <trkpt lat="45.23925" lon="6.18548">
        <ele>1948.8</ele>
        <time>2021-02-27T13:34:27Z</time>
      </trkpt>
      <trkpt lat="45.23925" lon="6.18548">
        <ele>1948.6</ele>
        <time>2021-02-27T13:34:28Z</time>
      </trkpt>
      <trkpt lat="45.23925" lon="6.18551">
        <ele>1948.8</ele>
        <time>2021-02-27T13:34:29Z</time>
      </trkpt>
      <trkpt lat="45.23925" lon="6.18551">
        <ele>1948.8</ele>
        <time>2021-02-27T13:34:30Z</time>
      </trkpt>
      <trkpt lat="45.23924" lon="6.18554">
        <ele>1949</ele>
        <time>2021-02-27T13:34:31Z</time>
      </trkpt>
      <trkpt lat="45.23924" lon="6.18554">
        <ele>1949</ele>
        <time>2021-02-27T13:34:32Z</time>
      </trkpt>
      <trkpt lat="45.23922" lon="6.18557">
        <ele>1949.2</ele>
        <time>2021-02-27T13:34:33Z</time>
      </trkpt>
      <trkpt lat="45.23922" lon="6.18557">
        <ele>1949.4</ele>
        <time>2021-02-27T13:34:34Z</time>
      </trkpt>
      <trkpt lat="45.23921" lon="6.1856">
        <ele>1949.6</ele>
        <time>2021-02-27T13:34:35Z</time>
      </trkpt>
      <trkpt lat="45.23921" lon="6.1856">
        <ele>1949.4</ele>
        <time>2021-02-27T13:34:36Z</time>
      </trkpt>
      <trkpt lat="45.23919" lon="6.18562">
        <ele>1949.6</ele>
        <time>2021-02-27T13:34:37Z</time>
      </trkpt>
      <trkpt lat="45.23919" lon="6.18562">
        <ele>1949.6</ele>
        <time>2021-02-27T13:34:38Z</time>
      </trkpt>
      <trkpt lat="45.23918" lon="6.18564">
        <ele>1949.6</ele>
        <time>2021-02-27T13:34:39Z</time>
      </trkpt>
      <trkpt lat="45.23918" lon="6.18564">
        <ele>1949.6</ele>
        <time>2021-02-27T13:34:40Z</time>
      </trkpt>
      <trkpt lat="45.23916" lon="6.18566">
        <ele>1949.6</ele>
        <time>2021-02-27T13:34:41Z</time>
      </trkpt>
      <trkpt lat="45.23916" lon="6.18566">
        <ele>1950</ele>
        <time>2021-02-27T13:34:42Z</time>
      </trkpt>
      <trkpt lat="45.23914" lon="6.18567">
        <ele>1950.2</ele>
        <time>2021-02-27T13:34:43Z</time>
      </trkpt>
      <trkpt lat="45.23914" lon="6.18567">
        <ele>1951</ele>
        <time>2021-02-27T13:34:44Z</time>
      </trkpt>
      <trkpt lat="45.23912" lon="6.18569">
        <ele>1951</ele>
        <time>2021-02-27T13:34:45Z</time>
      </trkpt>
      <trkpt lat="45.23912" lon="6.18569">
        <ele>1951.4</ele>
        <time>2021-02-27T13:34:46Z</time>
      </trkpt>
      <trkpt lat="45.2391" lon="6.18571">
        <ele>1951.6</ele>
        <time>2021-02-27T13:34:47Z</time>
      </trkpt>
      <trkpt lat="45.2391" lon="6.18571">
        <ele>1951.4</ele>
        <time>2021-02-27T13:34:48Z</time>
      </trkpt>
      <trkpt lat="45.23908" lon="6.18572">
        <ele>1952</ele>
        <time>2021-02-27T13:34:49Z</time>
      </trkpt>
      <trkpt lat="45.23908" lon="6.18572">
        <ele>1952.2</ele>
        <time>2021-02-27T13:34:50Z</time>
      </trkpt>
      <trkpt lat="45.23905" lon="6.18574">
        <ele>1952</ele>
        <time>2021-02-27T13:34:51Z</time>
      </trkpt>
      <trkpt lat="45.23905" lon="6.18574">
        <ele>1952</ele>
        <time>2021-02-27T13:34:52Z</time>
      </trkpt>
      <trkpt lat="45.23902" lon="6.18575">
        <ele>1952.2</ele>
        <time>2021-02-27T13:34:53Z</time>
      </trkpt>
      <trkpt lat="45.23902" lon="6.18575">
        <ele>1952.2</ele>
        <time>2021-02-27T13:34:54Z</time>
      </trkpt>
      <trkpt lat="45.239" lon="6.18576">
        <ele>1952</ele>
        <time>2021-02-27T13:34:55Z</time>
      </trkpt>
      <trkpt lat="45.239" lon="6.18576">
        <ele>1952.2</ele>
        <time>2021-02-27T13:34:56Z</time>
      </trkpt>
      <trkpt lat="45.23897" lon="6.18577">
        <ele>1952.6</ele>
        <time>2021-02-27T13:34:57Z</time>
      </trkpt>
      <trkpt lat="45.23897" lon="6.18577">
        <ele>1952.8</ele>
        <time>2021-02-27T13:34:58Z</time>
      </trkpt>
      <trkpt lat="45.23895" lon="6.18577">
        <ele>1953</ele>
        <time>2021-02-27T13:34:59Z</time>
      </trkpt>
      <trkpt lat="45.23895" lon="6.18577">
        <ele>1953</ele>
        <time>2021-02-27T13:35:00Z</time>
      </trkpt>
      <trkpt lat="45.23892" lon="6.18577">
        <ele>1953</ele>
        <time>2021-02-27T13:35:01Z</time>
      </trkpt>
      <trkpt lat="45.23892" lon="6.18577">
        <ele>1953</ele>
        <time>2021-02-27T13:35:02Z</time>
      </trkpt>
      <trkpt lat="45.2389" lon="6.18577">
        <ele>1953.4</ele>
        <time>2021-02-27T13:35:03Z</time>
      </trkpt>
      <trkpt lat="45.2389" lon="6.18577">
        <ele>1953.6</ele>
        <time>2021-02-27T13:35:04Z</time>
      </trkpt>
      <trkpt lat="45.23888" lon="6.18577">
        <ele>1953.8</ele>
        <time>2021-02-27T13:35:05Z</time>
      </trkpt>
      <trkpt lat="45.23888" lon="6.18577">
        <ele>1953.6</ele>
        <time>2021-02-27T13:35:06Z</time>
      </trkpt>
      <trkpt lat="45.23885" lon="6.18578">
        <ele>1953.8</ele>
        <time>2021-02-27T13:35:07Z</time>
      </trkpt>
      <trkpt lat="45.23885" lon="6.18578">
        <ele>1953.8</ele>
        <time>2021-02-27T13:35:08Z</time>
      </trkpt>
      <trkpt lat="45.23883" lon="6.1858">
        <ele>1953.8</ele>
        <time>2021-02-27T13:35:09Z</time>
      </trkpt>
      <trkpt lat="45.23883" lon="6.1858">
        <ele>1954</ele>
        <time>2021-02-27T13:35:10Z</time>
      </trkpt>
      <trkpt lat="45.23881" lon="6.18582">
        <ele>1954</ele>
        <time>2021-02-27T13:35:11Z</time>
      </trkpt>
      <trkpt lat="45.23881" lon="6.18582">
        <ele>1953.8</ele>
        <time>2021-02-27T13:35:12Z</time>
      </trkpt>
      <trkpt lat="45.23878" lon="6.18584">
        <ele>1954</ele>
        <time>2021-02-27T13:35:13Z</time>
      </trkpt>
      <trkpt lat="45.23878" lon="6.18584">
        <ele>1954.2</ele>
        <time>2021-02-27T13:35:14Z</time>
      </trkpt>
      <trkpt lat="45.23876" lon="6.18586">
        <ele>1954.2</ele>
        <time>2021-02-27T13:35:15Z</time>
      </trkpt>
      <trkpt lat="45.23876" lon="6.18586">
        <ele>1954.2</ele>
        <time>2021-02-27T13:35:16Z</time>
      </trkpt>
      <trkpt lat="45.23874" lon="6.18588">
        <ele>1954.4</ele>
        <time>2021-02-27T13:35:17Z</time>
      </trkpt>
      <trkpt lat="45.23874" lon="6.18588">
        <ele>1954.2</ele>
        <time>2021-02-27T13:35:18Z</time>
      </trkpt>
      <trkpt lat="45.23872" lon="6.18589">
        <ele>1954</ele>
        <time>2021-02-27T13:35:19Z</time>
      </trkpt>
      <trkpt lat="45.23872" lon="6.18589">
        <ele>1954.4</ele>
        <time>2021-02-27T13:35:20Z</time>
      </trkpt>
      <trkpt lat="45.2387" lon="6.18589">
        <ele>1954.6</ele>
        <time>2021-02-27T13:35:21Z</time>
      </trkpt>
      <trkpt lat="45.2387" lon="6.18589">
        <ele>1955</ele>
        <time>2021-02-27T13:35:22Z</time>
      </trkpt>
      <trkpt lat="45.23868" lon="6.18591">
        <ele>1955.2</ele>
        <time>2021-02-27T13:35:23Z</time>
      </trkpt>
      <trkpt lat="45.23868" lon="6.18591">
        <ele>1955.2</ele>
        <time>2021-02-27T13:35:24Z</time>
      </trkpt>
      <trkpt lat="45.23866" lon="6.18593">
        <ele>1955.4</ele>
        <time>2021-02-27T13:35:25Z</time>
      </trkpt>
      <trkpt lat="45.23866" lon="6.18593">
        <ele>1955.4</ele>
        <time>2021-02-27T13:35:26Z</time>
      </trkpt>
      <trkpt lat="45.23863" lon="6.18595">
        <ele>1955.4</ele>
        <time>2021-02-27T13:35:27Z</time>
      </trkpt>
      <trkpt lat="45.23863" lon="6.18595">
        <ele>1955.4</ele>
        <time>2021-02-27T13:35:28Z</time>
      </trkpt>
      <trkpt lat="45.23861" lon="6.18596">
        <ele>1955.4</ele>
        <time>2021-02-27T13:35:29Z</time>
      </trkpt>
      <trkpt lat="45.23861" lon="6.18596">
        <ele>1955.4</ele>
        <time>2021-02-27T13:35:30Z</time>
      </trkpt>
      <trkpt lat="45.23859" lon="6.18598">
        <ele>1955.6</ele>
        <time>2021-02-27T13:35:31Z</time>
      </trkpt>
      <trkpt lat="45.23859" lon="6.18598">
        <ele>1955.4</ele>
        <time>2021-02-27T13:35:32Z</time>
      </trkpt>
      <trkpt lat="45.23857" lon="6.186">
        <ele>1955.6</ele>
        <time>2021-02-27T13:35:33Z</time>
      </trkpt>
      <trkpt lat="45.23857" lon="6.186">
        <ele>1956</ele>
        <time>2021-02-27T13:35:34Z</time>
      </trkpt>
      <trkpt lat="45.23855" lon="6.18603">
        <ele>1956</ele>
        <time>2021-02-27T13:35:35Z</time>
      </trkpt>
      <trkpt lat="45.23855" lon="6.18603">
        <ele>1955.6</ele>
        <time>2021-02-27T13:35:36Z</time>
      </trkpt>
      <trkpt lat="45.23853" lon="6.18606">
        <ele>1955.4</ele>
        <time>2021-02-27T13:35:37Z</time>
      </trkpt>
      <trkpt lat="45.23853" lon="6.18606">
        <ele>1955.6</ele>
        <time>2021-02-27T13:35:38Z</time>
      </trkpt>
      <trkpt lat="45.23852" lon="6.18609">
        <ele>1955.8</ele>
        <time>2021-02-27T13:35:39Z</time>
      </trkpt>
      <trkpt lat="45.23852" lon="6.18609">
        <ele>1955.8</ele>
        <time>2021-02-27T13:35:40Z</time>
      </trkpt>
      <trkpt lat="45.2385" lon="6.18611">
        <ele>1956</ele>
        <time>2021-02-27T13:35:41Z</time>
      </trkpt>
      <trkpt lat="45.2385" lon="6.18611">
        <ele>1956</ele>
        <time>2021-02-27T13:35:42Z</time>
      </trkpt>
      <trkpt lat="45.23848" lon="6.18612">
        <ele>1956</ele>
        <time>2021-02-27T13:35:43Z</time>
      </trkpt>
      <trkpt lat="45.23848" lon="6.18612">
        <ele>1956.2</ele>
        <time>2021-02-27T13:35:44Z</time>
      </trkpt>
      <trkpt lat="45.23846" lon="6.18614">
        <ele>1956.4</ele>
        <time>2021-02-27T13:35:45Z</time>
      </trkpt>
      <trkpt lat="45.23846" lon="6.18614">
        <ele>1956.6</ele>
        <time>2021-02-27T13:35:46Z</time>
      </trkpt>
      <trkpt lat="45.23845" lon="6.18618">
        <ele>1956.4</ele>
        <time>2021-02-27T13:35:47Z</time>
      </trkpt>
      <trkpt lat="45.23845" lon="6.18618">
        <ele>1956.6</ele>
        <time>2021-02-27T13:35:48Z</time>
      </trkpt>
      <trkpt lat="45.23844" lon="6.1862">
        <ele>1956.6</ele>
        <time>2021-02-27T13:35:49Z</time>
      </trkpt>
      <trkpt lat="45.23844" lon="6.1862">
        <ele>1956.6</ele>
        <time>2021-02-27T13:35:50Z</time>
      </trkpt>
      <trkpt lat="45.23842" lon="6.18623">
        <ele>1956.8</ele>
        <time>2021-02-27T13:35:51Z</time>
      </trkpt>
      <trkpt lat="45.23842" lon="6.18623">
        <ele>1956.8</ele>
        <time>2021-02-27T13:35:52Z</time>
      </trkpt>
      <trkpt lat="45.23841" lon="6.18626">
        <ele>1957</ele>
        <time>2021-02-27T13:35:53Z</time>
      </trkpt>
      <trkpt lat="45.23841" lon="6.18626">
        <ele>1957</ele>
        <time>2021-02-27T13:35:54Z</time>
      </trkpt>
      <trkpt lat="45.23839" lon="6.18629">
        <ele>1957.4</ele>
        <time>2021-02-27T13:35:55Z</time>
      </trkpt>
      <trkpt lat="45.23839" lon="6.18629">
        <ele>1957.4</ele>
        <time>2021-02-27T13:35:56Z</time>
      </trkpt>
      <trkpt lat="45.23838" lon="6.18632">
        <ele>1957.4</ele>
        <time>2021-02-27T13:35:57Z</time>
      </trkpt>
      <trkpt lat="45.23838" lon="6.18632">
        <ele>1957.6</ele>
        <time>2021-02-27T13:35:58Z</time>
      </trkpt>
      <trkpt lat="45.23837" lon="6.18636">
        <ele>1957.6</ele>
        <time>2021-02-27T13:35:59Z</time>
      </trkpt>
      <trkpt lat="45.23837" lon="6.18636">
        <ele>1957.4</ele>
        <time>2021-02-27T13:36:00Z</time>
      </trkpt>
      <trkpt lat="45.23836" lon="6.18639">
        <ele>1957.4</ele>
        <time>2021-02-27T13:36:01Z</time>
      </trkpt>
      <trkpt lat="45.23836" lon="6.18639">
        <ele>1957.2</ele>
        <time>2021-02-27T13:36:02Z</time>
      </trkpt>
      <trkpt lat="45.23836" lon="6.18642">
        <ele>1957.8</ele>
        <time>2021-02-27T13:36:03Z</time>
      </trkpt>
      <trkpt lat="45.23836" lon="6.18642">
        <ele>1957.8</ele>
        <time>2021-02-27T13:36:04Z</time>
      </trkpt>
      <trkpt lat="45.23835" lon="6.18645">
        <ele>1958.2</ele>
        <time>2021-02-27T13:36:05Z</time>
      </trkpt>
      <trkpt lat="45.23835" lon="6.18645">
        <ele>1958.6</ele>
        <time>2021-02-27T13:36:06Z</time>
      </trkpt>
      <trkpt lat="45.23834" lon="6.18647">
        <ele>1958.2</ele>
        <time>2021-02-27T13:36:07Z</time>
      </trkpt>
      <trkpt lat="45.23834" lon="6.18647">
        <ele>1958</ele>
        <time>2021-02-27T13:36:08Z</time>
      </trkpt>
      <trkpt lat="45.23832" lon="6.1865">
        <ele>1958.6</ele>
        <time>2021-02-27T13:36:09Z</time>
      </trkpt>
      <trkpt lat="45.23832" lon="6.1865">
        <ele>1958.6</ele>
        <time>2021-02-27T13:36:10Z</time>
      </trkpt>
      <trkpt lat="45.23831" lon="6.18653">
        <ele>1958.6</ele>
        <time>2021-02-27T13:36:11Z</time>
      </trkpt>
      <trkpt lat="45.23831" lon="6.18653">
        <ele>1958.8</ele>
        <time>2021-02-27T13:36:12Z</time>
      </trkpt>
      <trkpt lat="45.2383" lon="6.18655">
        <ele>1959</ele>
        <time>2021-02-27T13:36:13Z</time>
      </trkpt>
      <trkpt lat="45.2383" lon="6.18655">
        <ele>1959</ele>
        <time>2021-02-27T13:36:14Z</time>
      </trkpt>
      <trkpt lat="45.23828" lon="6.18658">
        <ele>1959.2</ele>
        <time>2021-02-27T13:36:15Z</time>
      </trkpt>
      <trkpt lat="45.23828" lon="6.18658">
        <ele>1959.6</ele>
        <time>2021-02-27T13:36:16Z</time>
      </trkpt>
      <trkpt lat="45.23827" lon="6.1866">
        <ele>1959.2</ele>
        <time>2021-02-27T13:36:17Z</time>
      </trkpt>
      <trkpt lat="45.23827" lon="6.1866">
        <ele>1959.2</ele>
        <time>2021-02-27T13:36:18Z</time>
      </trkpt>
      <trkpt lat="45.23827" lon="6.18663">
        <ele>1959.6</ele>
        <time>2021-02-27T13:36:19Z</time>
      </trkpt>
      <trkpt lat="45.23827" lon="6.18663">
        <ele>1959.6</ele>
        <time>2021-02-27T13:36:20Z</time>
      </trkpt>
      <trkpt lat="45.23825" lon="6.18667">
        <ele>1959.6</ele>
        <time>2021-02-27T13:36:21Z</time>
      </trkpt>
      <trkpt lat="45.23825" lon="6.18667">
        <ele>1959.8</ele>
        <time>2021-02-27T13:36:22Z</time>
      </trkpt>
      <trkpt lat="45.23824" lon="6.18671">
        <ele>1959.6</ele>
        <time>2021-02-27T13:36:23Z</time>
      </trkpt>
      <trkpt lat="45.23824" lon="6.18671">
        <ele>1959.6</ele>
        <time>2021-02-27T13:36:24Z</time>
      </trkpt>
      <trkpt lat="45.23822" lon="6.18674">
        <ele>1959.2</ele>
        <time>2021-02-27T13:36:25Z</time>
      </trkpt>
      <trkpt lat="45.23822" lon="6.18674">
        <ele>1959.4</ele>
        <time>2021-02-27T13:36:26Z</time>
      </trkpt>
      <trkpt lat="45.23821" lon="6.18677">
        <ele>1959.4</ele>
        <time>2021-02-27T13:36:27Z</time>
      </trkpt>
      <trkpt lat="45.23821" lon="6.18677">
        <ele>1959.4</ele>
        <time>2021-02-27T13:36:28Z</time>
      </trkpt>
      <trkpt lat="45.2382" lon="6.18681">
        <ele>1959.8</ele>
        <time>2021-02-27T13:36:29Z</time>
      </trkpt>
      <trkpt lat="45.2382" lon="6.18681">
        <ele>1960</ele>
        <time>2021-02-27T13:36:30Z</time>
      </trkpt>
      <trkpt lat="45.23819" lon="6.18684">
        <ele>1960.2</ele>
        <time>2021-02-27T13:36:31Z</time>
      </trkpt>
      <trkpt lat="45.23819" lon="6.18684">
        <ele>1960.2</ele>
        <time>2021-02-27T13:36:32Z</time>
      </trkpt>
      <trkpt lat="45.23818" lon="6.18687">
        <ele>1960.2</ele>
        <time>2021-02-27T13:36:33Z</time>
      </trkpt>
      <trkpt lat="45.23818" lon="6.18687">
        <ele>1960.2</ele>
        <time>2021-02-27T13:36:34Z</time>
      </trkpt>
      <trkpt lat="45.23816" lon="6.1869">
        <ele>1960.4</ele>
        <time>2021-02-27T13:36:35Z</time>
      </trkpt>
      <trkpt lat="45.23816" lon="6.1869">
        <ele>1960.4</ele>
        <time>2021-02-27T13:36:36Z</time>
      </trkpt>
      <trkpt lat="45.23813" lon="6.18692">
        <ele>1960.6</ele>
        <time>2021-02-27T13:36:37Z</time>
      </trkpt>
      <trkpt lat="45.23813" lon="6.18692">
        <ele>1961</ele>
        <time>2021-02-27T13:36:38Z</time>
      </trkpt>
      <trkpt lat="45.23812" lon="6.18695">
        <ele>1961.2</ele>
        <time>2021-02-27T13:36:39Z</time>
      </trkpt>
      <trkpt lat="45.23812" lon="6.18695">
        <ele>1961</ele>
        <time>2021-02-27T13:36:40Z</time>
      </trkpt>
      <trkpt lat="45.23811" lon="6.18699">
        <ele>1961</ele>
        <time>2021-02-27T13:36:41Z</time>
      </trkpt>
      <trkpt lat="45.23811" lon="6.18699">
        <ele>1961.4</ele>
        <time>2021-02-27T13:36:42Z</time>
      </trkpt>
      <trkpt lat="45.23809" lon="6.18701">
        <ele>1961.2</ele>
        <time>2021-02-27T13:36:43Z</time>
      </trkpt>
      <trkpt lat="45.23809" lon="6.18701">
        <ele>1961</ele>
        <time>2021-02-27T13:36:44Z</time>
      </trkpt>
      <trkpt lat="45.23808" lon="6.18704">
        <ele>1961</ele>
        <time>2021-02-27T13:36:45Z</time>
      </trkpt>
      <trkpt lat="45.23808" lon="6.18704">
        <ele>1961.4</ele>
        <time>2021-02-27T13:36:46Z</time>
      </trkpt>
      <trkpt lat="45.23806" lon="6.18708">
        <ele>1961.2</ele>
        <time>2021-02-27T13:36:47Z</time>
      </trkpt>
      <trkpt lat="45.23806" lon="6.18708">
        <ele>1961.4</ele>
        <time>2021-02-27T13:36:48Z</time>
      </trkpt>
      <trkpt lat="45.23805" lon="6.18711">
        <ele>1961.6</ele>
        <time>2021-02-27T13:36:49Z</time>
      </trkpt>
      <trkpt lat="45.23805" lon="6.18711">
        <ele>1961.6</ele>
        <time>2021-02-27T13:36:50Z</time>
      </trkpt>
      <trkpt lat="45.23803" lon="6.18714">
        <ele>1962</ele>
        <time>2021-02-27T13:36:51Z</time>
      </trkpt>
      <trkpt lat="45.23803" lon="6.18714">
        <ele>1962.6</ele>
        <time>2021-02-27T13:36:52Z</time>
      </trkpt>
      <trkpt lat="45.23802" lon="6.18716">
        <ele>1962.6</ele>
        <time>2021-02-27T13:36:53Z</time>
      </trkpt>
      <trkpt lat="45.23802" lon="6.18716">
        <ele>1962.6</ele>
        <time>2021-02-27T13:36:54Z</time>
      </trkpt>
      <trkpt lat="45.23801" lon="6.18719">
        <ele>1962.6</ele>
        <time>2021-02-27T13:36:55Z</time>
      </trkpt>
      <trkpt lat="45.23801" lon="6.18719">
        <ele>1962.8</ele>
        <time>2021-02-27T13:36:56Z</time>
      </trkpt>
      <trkpt lat="45.23799" lon="6.18722">
        <ele>1963.2</ele>
        <time>2021-02-27T13:36:57Z</time>
      </trkpt>
      <trkpt lat="45.23799" lon="6.18722">
        <ele>1963.2</ele>
        <time>2021-02-27T13:36:58Z</time>
      </trkpt>
      <trkpt lat="45.23798" lon="6.18725">
        <ele>1963.4</ele>
        <time>2021-02-27T13:36:59Z</time>
      </trkpt>
      <trkpt lat="45.23798" lon="6.18725">
        <ele>1963.6</ele>
        <time>2021-02-27T13:37:00Z</time>
      </trkpt>
      <trkpt lat="45.23797" lon="6.18728">
        <ele>1963.4</ele>
        <time>2021-02-27T13:37:01Z</time>
      </trkpt>
      <trkpt lat="45.23797" lon="6.18728">
        <ele>1963</ele>
        <time>2021-02-27T13:37:02Z</time>
      </trkpt>
      <trkpt lat="45.23797" lon="6.18731">
        <ele>1963.4</ele>
        <time>2021-02-27T13:37:03Z</time>
      </trkpt>
      <trkpt lat="45.23797" lon="6.18731">
        <ele>1963.2</ele>
        <time>2021-02-27T13:37:04Z</time>
      </trkpt>
      <trkpt lat="45.23795" lon="6.18734">
        <ele>1963</ele>
        <time>2021-02-27T13:37:05Z</time>
      </trkpt>
      <trkpt lat="45.23795" lon="6.18734">
        <ele>1963</ele>
        <time>2021-02-27T13:37:06Z</time>
      </trkpt>
      <trkpt lat="45.23795" lon="6.18738">
        <ele>1963</ele>
        <time>2021-02-27T13:37:07Z</time>
      </trkpt>
      <trkpt lat="45.23795" lon="6.18738">
        <ele>1963.2</ele>
        <time>2021-02-27T13:37:08Z</time>
      </trkpt>
      <trkpt lat="45.23794" lon="6.18741">
        <ele>1963.2</ele>
        <time>2021-02-27T13:37:09Z</time>
      </trkpt>
      <trkpt lat="45.23794" lon="6.18741">
        <ele>1963.4</ele>
        <time>2021-02-27T13:37:10Z</time>
      </trkpt>
      <trkpt lat="45.23793" lon="6.18745">
        <ele>1963</ele>
        <time>2021-02-27T13:37:11Z</time>
      </trkpt>
      <trkpt lat="45.23793" lon="6.18745">
        <ele>1963.2</ele>
        <time>2021-02-27T13:37:12Z</time>
      </trkpt>
      <trkpt lat="45.23791" lon="6.18749">
        <ele>1963.8</ele>
        <time>2021-02-27T13:37:13Z</time>
      </trkpt>
      <trkpt lat="45.23791" lon="6.18749">
        <ele>1964</ele>
        <time>2021-02-27T13:37:14Z</time>
      </trkpt>
      <trkpt lat="45.2379" lon="6.18752">
        <ele>1964.4</ele>
        <time>2021-02-27T13:37:15Z</time>
      </trkpt>
      <trkpt lat="45.2379" lon="6.18752">
        <ele>1964.4</ele>
        <time>2021-02-27T13:37:16Z</time>
      </trkpt>
      <trkpt lat="45.23789" lon="6.18755">
        <ele>1964.4</ele>
        <time>2021-02-27T13:37:17Z</time>
      </trkpt>
      <trkpt lat="45.23789" lon="6.18755">
        <ele>1964.8</ele>
        <time>2021-02-27T13:37:18Z</time>
      </trkpt>
      <trkpt lat="45.23788" lon="6.18758">
        <ele>1964.4</ele>
        <time>2021-02-27T13:37:19Z</time>
      </trkpt>
      <trkpt lat="45.23788" lon="6.18758">
        <ele>1964.6</ele>
        <time>2021-02-27T13:37:20Z</time>
      </trkpt>
      <trkpt lat="45.23787" lon="6.18761">
        <ele>1965</ele>
        <time>2021-02-27T13:37:21Z</time>
      </trkpt>
      <trkpt lat="45.23787" lon="6.18761">
        <ele>1964.6</ele>
        <time>2021-02-27T13:37:22Z</time>
      </trkpt>
      <trkpt lat="45.23785" lon="6.18763">
        <ele>1964.6</ele>
        <time>2021-02-27T13:37:23Z</time>
      </trkpt>
      <trkpt lat="45.23785" lon="6.18763">
        <ele>1964.8</ele>
        <time>2021-02-27T13:37:24Z</time>
      </trkpt>
      <trkpt lat="45.23784" lon="6.18766">
        <ele>1964.6</ele>
        <time>2021-02-27T13:37:25Z</time>
      </trkpt>
      <trkpt lat="45.23784" lon="6.18766">
        <ele>1964.6</ele>
        <time>2021-02-27T13:37:26Z</time>
      </trkpt>
      <trkpt lat="45.23782" lon="6.18768">
        <ele>1965</ele>
        <time>2021-02-27T13:37:27Z</time>
      </trkpt>
      <trkpt lat="45.23782" lon="6.18768">
        <ele>1965</ele>
        <time>2021-02-27T13:37:28Z</time>
      </trkpt>
      <trkpt lat="45.2378" lon="6.18771">
        <ele>1965.2</ele>
        <time>2021-02-27T13:37:29Z</time>
      </trkpt>
      <trkpt lat="45.2378" lon="6.18771">
        <ele>1965.6</ele>
        <time>2021-02-27T13:37:30Z</time>
      </trkpt>
      <trkpt lat="45.23779" lon="6.18773">
        <ele>1965.4</ele>
        <time>2021-02-27T13:37:31Z</time>
      </trkpt>
      <trkpt lat="45.23779" lon="6.18773">
        <ele>1965.4</ele>
        <time>2021-02-27T13:37:32Z</time>
      </trkpt>
      <trkpt lat="45.23778" lon="6.18776">
        <ele>1965.4</ele>
        <time>2021-02-27T13:37:33Z</time>
      </trkpt>
      <trkpt lat="45.23778" lon="6.18776">
        <ele>1965.6</ele>
        <time>2021-02-27T13:37:34Z</time>
      </trkpt>
      <trkpt lat="45.23776" lon="6.18779">
        <ele>1965.6</ele>
        <time>2021-02-27T13:37:35Z</time>
      </trkpt>
      <trkpt lat="45.23776" lon="6.18779">
        <ele>1965.8</ele>
        <time>2021-02-27T13:37:36Z</time>
      </trkpt>
      <trkpt lat="45.23775" lon="6.18781">
        <ele>1965.8</ele>
        <time>2021-02-27T13:37:37Z</time>
      </trkpt>
      <trkpt lat="45.23775" lon="6.18781">
        <ele>1966</ele>
        <time>2021-02-27T13:37:38Z</time>
      </trkpt>
      <trkpt lat="45.23773" lon="6.18784">
        <ele>1965.8</ele>
        <time>2021-02-27T13:37:39Z</time>
      </trkpt>
      <trkpt lat="45.23773" lon="6.18784">
        <ele>1966</ele>
        <time>2021-02-27T13:37:40Z</time>
      </trkpt>
      <trkpt lat="45.23772" lon="6.18787">
        <ele>1966.4</ele>
        <time>2021-02-27T13:37:41Z</time>
      </trkpt>
      <trkpt lat="45.23772" lon="6.18787">
        <ele>1966.6</ele>
        <time>2021-02-27T13:37:42Z</time>
      </trkpt>
      <trkpt lat="45.2377" lon="6.1879">
        <ele>1966.6</ele>
        <time>2021-02-27T13:37:43Z</time>
      </trkpt>
      <trkpt lat="45.2377" lon="6.1879">
        <ele>1966.6</ele>
        <time>2021-02-27T13:37:44Z</time>
      </trkpt>
      <trkpt lat="45.23768" lon="6.18793">
        <ele>1966.8</ele>
        <time>2021-02-27T13:37:45Z</time>
      </trkpt>
      <trkpt lat="45.23768" lon="6.18793">
        <ele>1967.2</ele>
        <time>2021-02-27T13:37:46Z</time>
      </trkpt>
      <trkpt lat="45.23767" lon="6.18796">
        <ele>1967</ele>
        <time>2021-02-27T13:37:47Z</time>
      </trkpt>
      <trkpt lat="45.23767" lon="6.18796">
        <ele>1966.8</ele>
        <time>2021-02-27T13:37:48Z</time>
      </trkpt>
      <trkpt lat="45.23766" lon="6.18798">
        <ele>1967.2</ele>
        <time>2021-02-27T13:37:49Z</time>
      </trkpt>
      <trkpt lat="45.23766" lon="6.18798">
        <ele>1967.6</ele>
        <time>2021-02-27T13:37:50Z</time>
      </trkpt>
      <trkpt lat="45.23765" lon="6.18801">
        <ele>1967.4</ele>
        <time>2021-02-27T13:37:51Z</time>
      </trkpt>
      <trkpt lat="45.23765" lon="6.18801">
        <ele>1967.4</ele>
        <time>2021-02-27T13:37:52Z</time>
      </trkpt>
      <trkpt lat="45.23765" lon="6.18805">
        <ele>1967</ele>
        <time>2021-02-27T13:37:53Z</time>
      </trkpt>
      <trkpt lat="45.23765" lon="6.18805">
        <ele>1967.2</ele>
        <time>2021-02-27T13:37:54Z</time>
      </trkpt>
      <trkpt lat="45.23763" lon="6.18808">
        <ele>1967.6</ele>
        <time>2021-02-27T13:37:55Z</time>
      </trkpt>
      <trkpt lat="45.23763" lon="6.18808">
        <ele>1967.2</ele>
        <time>2021-02-27T13:37:56Z</time>
      </trkpt>
      <trkpt lat="45.23762" lon="6.18811">
        <ele>1967.6</ele>
        <time>2021-02-27T13:37:57Z</time>
      </trkpt>
      <trkpt lat="45.23762" lon="6.18811">
        <ele>1968</ele>
        <time>2021-02-27T13:37:58Z</time>
      </trkpt>
      <trkpt lat="45.23761" lon="6.18814">
        <ele>1967.8</ele>
        <time>2021-02-27T13:37:59Z</time>
      </trkpt>
      <trkpt lat="45.23761" lon="6.18814">
        <ele>1967.8</ele>
        <time>2021-02-27T13:38:00Z</time>
      </trkpt>
      <trkpt lat="45.23761" lon="6.18817">
        <ele>1968.2</ele>
        <time>2021-02-27T13:38:01Z</time>
      </trkpt>
      <trkpt lat="45.23761" lon="6.18817">
        <ele>1968.2</ele>
        <time>2021-02-27T13:38:02Z</time>
      </trkpt>
      <trkpt lat="45.2376" lon="6.1882">
        <ele>1967.8</ele>
        <time>2021-02-27T13:38:03Z</time>
      </trkpt>
      <trkpt lat="45.2376" lon="6.1882">
        <ele>1968.4</ele>
        <time>2021-02-27T13:38:04Z</time>
      </trkpt>
      <trkpt lat="45.23759" lon="6.18823">
        <ele>1968.2</ele>
        <time>2021-02-27T13:38:05Z</time>
      </trkpt>
      <trkpt lat="45.23759" lon="6.18823">
        <ele>1968.2</ele>
        <time>2021-02-27T13:38:06Z</time>
      </trkpt>
      <trkpt lat="45.23758" lon="6.18827">
        <ele>1968.2</ele>
        <time>2021-02-27T13:38:07Z</time>
      </trkpt>
      <trkpt lat="45.23758" lon="6.18827">
        <ele>1967.8</ele>
        <time>2021-02-27T13:38:08Z</time>
      </trkpt>
      <trkpt lat="45.23757" lon="6.1883">
        <ele>1968</ele>
        <time>2021-02-27T13:38:09Z</time>
      </trkpt>
      <trkpt lat="45.23757" lon="6.1883">
        <ele>1968.2</ele>
        <time>2021-02-27T13:38:10Z</time>
      </trkpt>
      <trkpt lat="45.23757" lon="6.18833">
        <ele>1968.4</ele>
        <time>2021-02-27T13:38:11Z</time>
      </trkpt>
      <trkpt lat="45.23757" lon="6.18833">
        <ele>1968.8</ele>
        <time>2021-02-27T13:38:12Z</time>
      </trkpt>
      <trkpt lat="45.23756" lon="6.18837">
        <ele>1968.8</ele>
        <time>2021-02-27T13:38:13Z</time>
      </trkpt>
      <trkpt lat="45.23756" lon="6.18837">
        <ele>1968.8</ele>
        <time>2021-02-27T13:38:14Z</time>
      </trkpt>
      <trkpt lat="45.23756" lon="6.1884">
        <ele>1969.4</ele>
        <time>2021-02-27T13:38:15Z</time>
      </trkpt>
      <trkpt lat="45.23756" lon="6.1884">
        <ele>1969.6</ele>
        <time>2021-02-27T13:38:16Z</time>
      </trkpt>
      <trkpt lat="45.23756" lon="6.18844">
        <ele>1969.4</ele>
        <time>2021-02-27T13:38:17Z</time>
      </trkpt>
      <trkpt lat="45.23756" lon="6.18844">
        <ele>1969.2</ele>
        <time>2021-02-27T13:38:18Z</time>
      </trkpt>
      <trkpt lat="45.23755" lon="6.18848">
        <ele>1969.2</ele>
        <time>2021-02-27T13:38:19Z</time>
      </trkpt>
      <trkpt lat="45.23755" lon="6.18848">
        <ele>1969.2</ele>
        <time>2021-02-27T13:38:20Z</time>
      </trkpt>
      <trkpt lat="45.23756" lon="6.18851">
        <ele>1969.4</ele>
        <time>2021-02-27T13:38:21Z</time>
      </trkpt>
      <trkpt lat="45.23756" lon="6.18851">
        <ele>1969.6</ele>
        <time>2021-02-27T13:38:22Z</time>
      </trkpt>
      <trkpt lat="45.23756" lon="6.18855">
        <ele>1969.8</ele>
        <time>2021-02-27T13:38:23Z</time>
      </trkpt>
      <trkpt lat="45.23756" lon="6.18855">
        <ele>1970</ele>
        <time>2021-02-27T13:38:24Z</time>
      </trkpt>
      <trkpt lat="45.23755" lon="6.18859">
        <ele>1970</ele>
        <time>2021-02-27T13:38:25Z</time>
      </trkpt>
      <trkpt lat="45.23755" lon="6.18859">
        <ele>1969.8</ele>
        <time>2021-02-27T13:38:26Z</time>
      </trkpt>
      <trkpt lat="45.23754" lon="6.18862">
        <ele>1970.2</ele>
        <time>2021-02-27T13:38:27Z</time>
      </trkpt>
      <trkpt lat="45.23754" lon="6.18862">
        <ele>1970.2</ele>
        <time>2021-02-27T13:38:28Z</time>
      </trkpt>
      <trkpt lat="45.23754" lon="6.18865">
        <ele>1970.6</ele>
        <time>2021-02-27T13:38:29Z</time>
      </trkpt>
      <trkpt lat="45.23754" lon="6.18865">
        <ele>1970.4</ele>
        <time>2021-02-27T13:38:30Z</time>
      </trkpt>
      <trkpt lat="45.23753" lon="6.18867">
        <ele>1970.4</ele>
        <time>2021-02-27T13:38:31Z</time>
      </trkpt>
      <trkpt lat="45.23752" lon="6.18868">
        <ele>1971</ele>
        <time>2021-02-27T13:38:32Z</time>
      </trkpt>
      <trkpt lat="45.23752" lon="6.1887">
        <ele>1971</ele>
        <time>2021-02-27T13:38:33Z</time>
      </trkpt>
      <trkpt lat="45.23751" lon="6.18875">
        <ele>1970.6</ele>
        <time>2021-02-27T13:38:34Z</time>
      </trkpt>
      <trkpt lat="45.23751" lon="6.18875">
        <ele>1971.2</ele>
        <time>2021-02-27T13:38:35Z</time>
      </trkpt>
      <trkpt lat="45.2375" lon="6.18878">
        <ele>1971.4</ele>
        <time>2021-02-27T13:38:36Z</time>
      </trkpt>
      <trkpt lat="45.2375" lon="6.18878">
        <ele>1971.4</ele>
        <time>2021-02-27T13:38:37Z</time>
      </trkpt>
      <trkpt lat="45.23749" lon="6.18881">
        <ele>1971.2</ele>
        <time>2021-02-27T13:38:38Z</time>
      </trkpt>
      <trkpt lat="45.23749" lon="6.18881">
        <ele>1971</ele>
        <time>2021-02-27T13:38:39Z</time>
      </trkpt>
      <trkpt lat="45.23748" lon="6.18886">
        <ele>1971</ele>
        <time>2021-02-27T13:38:40Z</time>
      </trkpt>
      <trkpt lat="45.23748" lon="6.18886">
        <ele>1971.2</ele>
        <time>2021-02-27T13:38:41Z</time>
      </trkpt>
      <trkpt lat="45.23747" lon="6.18889">
        <ele>1971.2</ele>
        <time>2021-02-27T13:38:42Z</time>
      </trkpt>
      <trkpt lat="45.23747" lon="6.18889">
        <ele>1971.2</ele>
        <time>2021-02-27T13:38:43Z</time>
      </trkpt>
      <trkpt lat="45.23746" lon="6.18892">
        <ele>1971.2</ele>
        <time>2021-02-27T13:38:44Z</time>
      </trkpt>
      <trkpt lat="45.23746" lon="6.18892">
        <ele>1971.4</ele>
        <time>2021-02-27T13:38:45Z</time>
      </trkpt>
      <trkpt lat="45.23745" lon="6.18895">
        <ele>1971.2</ele>
        <time>2021-02-27T13:38:46Z</time>
      </trkpt>
      <trkpt lat="45.23745" lon="6.18895">
        <ele>1971.4</ele>
        <time>2021-02-27T13:38:47Z</time>
      </trkpt>
      <trkpt lat="45.23744" lon="6.18898">
        <ele>1971.6</ele>
        <time>2021-02-27T13:38:48Z</time>
      </trkpt>
      <trkpt lat="45.23744" lon="6.18898">
        <ele>1971.6</ele>
        <time>2021-02-27T13:38:49Z</time>
      </trkpt>
      <trkpt lat="45.23743" lon="6.18901">
        <ele>1971.6</ele>
        <time>2021-02-27T13:38:50Z</time>
      </trkpt>
      <trkpt lat="45.23743" lon="6.18901">
        <ele>1972</ele>
        <time>2021-02-27T13:38:51Z</time>
      </trkpt>
      <trkpt lat="45.23742" lon="6.18904">
        <ele>1971.8</ele>
        <time>2021-02-27T13:38:52Z</time>
      </trkpt>
      <trkpt lat="45.23742" lon="6.18904">
        <ele>1971.8</ele>
        <time>2021-02-27T13:38:53Z</time>
      </trkpt>
      <trkpt lat="45.2374" lon="6.18906">
        <ele>1972.2</ele>
        <time>2021-02-27T13:38:54Z</time>
      </trkpt>
      <trkpt lat="45.2374" lon="6.18906">
        <ele>1972</ele>
        <time>2021-02-27T13:38:55Z</time>
      </trkpt>
      <trkpt lat="45.2374" lon="6.18908">
        <ele>1972.2</ele>
        <time>2021-02-27T13:38:56Z</time>
      </trkpt>
      <trkpt lat="45.23739" lon="6.18909">
        <ele>1972.4</ele>
        <time>2021-02-27T13:38:57Z</time>
      </trkpt>
      <trkpt lat="45.23738" lon="6.18911">
        <ele>1972.4</ele>
        <time>2021-02-27T13:38:58Z</time>
      </trkpt>
      <trkpt lat="45.23737" lon="6.18912">
        <ele>1972.4</ele>
        <time>2021-02-27T13:38:59Z</time>
      </trkpt>
      <trkpt lat="45.23736" lon="6.18915">
        <ele>1973</ele>
        <time>2021-02-27T13:39:00Z</time>
      </trkpt>
      <trkpt lat="45.23736" lon="6.18915">
        <ele>1972.6</ele>
        <time>2021-02-27T13:39:01Z</time>
      </trkpt>
      <trkpt lat="45.23735" lon="6.18918">
        <ele>1972.8</ele>
        <time>2021-02-27T13:39:02Z</time>
      </trkpt>
      <trkpt lat="45.23735" lon="6.18918">
        <ele>1972.6</ele>
        <time>2021-02-27T13:39:03Z</time>
      </trkpt>
      <trkpt lat="45.23734" lon="6.18922">
        <ele>1972.6</ele>
        <time>2021-02-27T13:39:04Z</time>
      </trkpt>
      <trkpt lat="45.23734" lon="6.18922">
        <ele>1972.6</ele>
        <time>2021-02-27T13:39:05Z</time>
      </trkpt>
      <trkpt lat="45.23732" lon="6.18925">
        <ele>1972.8</ele>
        <time>2021-02-27T13:39:06Z</time>
      </trkpt>
      <trkpt lat="45.23732" lon="6.18925">
        <ele>1972.8</ele>
        <time>2021-02-27T13:39:07Z</time>
      </trkpt>
      <trkpt lat="45.23732" lon="6.18928">
        <ele>1972.8</ele>
        <time>2021-02-27T13:39:08Z</time>
      </trkpt>
      <trkpt lat="45.23732" lon="6.18928">
        <ele>1973</ele>
        <time>2021-02-27T13:39:09Z</time>
      </trkpt>
      <trkpt lat="45.23732" lon="6.18928">
        <ele>1973.2</ele>
        <time>2021-02-27T13:39:10Z</time>
      </trkpt>
      <trkpt lat="45.23731" lon="6.1893">
        <ele>1973.2</ele>
        <time>2021-02-27T13:39:11Z</time>
      </trkpt>
      <trkpt lat="45.23731" lon="6.1893">
        <ele>1973.4</ele>
        <time>2021-02-27T13:39:12Z</time>
      </trkpt>
      <trkpt lat="45.23731" lon="6.1893">
        <ele>1973.6</ele>
        <time>2021-02-27T13:39:13Z</time>
      </trkpt>
      <trkpt lat="45.23731" lon="6.1893">
        <ele>1974</ele>
        <time>2021-02-27T13:39:14Z</time>
      </trkpt>
      <trkpt lat="45.23731" lon="6.1893">
        <ele>1974.4</ele>
        <time>2021-02-27T13:39:15Z</time>
      </trkpt>
      <trkpt lat="45.23731" lon="6.1893">
        <ele>1974.6</ele>
        <time>2021-02-27T13:39:16Z</time>
      </trkpt>
      <trkpt lat="45.23731" lon="6.1893">
        <ele>1974.6</ele>
        <time>2021-02-27T13:39:17Z</time>
      </trkpt>
      <trkpt lat="45.23731" lon="6.1893">
        <ele>1974.8</ele>
        <time>2021-02-27T13:39:18Z</time>
      </trkpt>
      <trkpt lat="45.23731" lon="6.1893">
        <ele>1974.6</ele>
        <time>2021-02-27T13:39:19Z</time>
      </trkpt>
      <trkpt lat="45.23731" lon="6.1893">
        <ele>1974.6</ele>
        <time>2021-02-27T13:39:20Z</time>
      </trkpt>
      <trkpt lat="45.23731" lon="6.1893">
        <ele>1974.6</ele>
        <time>2021-02-27T13:39:21Z</time>
      </trkpt>
      <trkpt lat="45.23731" lon="6.1893">
        <ele>1974.6</ele>
        <time>2021-02-27T13:39:22Z</time>
      </trkpt>
      <trkpt lat="45.23731" lon="6.1893">
        <ele>1974.8</ele>
        <time>2021-02-27T13:39:23Z</time>
      </trkpt>
      <trkpt lat="45.23731" lon="6.1893">
        <ele>1974.8</ele>
        <time>2021-02-27T13:39:24Z</time>
      </trkpt>
      <trkpt lat="45.23731" lon="6.1893">
        <ele>1975</ele>
        <time>2021-02-27T13:39:25Z</time>
      </trkpt>
      <trkpt lat="45.23731" lon="6.1893">
        <ele>1974.8</ele>
        <time>2021-02-27T13:39:26Z</time>
      </trkpt>
      <trkpt lat="45.23731" lon="6.1893">
        <ele>1974.6</ele>
        <time>2021-02-27T13:39:27Z</time>
      </trkpt>
      <trkpt lat="45.23731" lon="6.1893">
        <ele>1974.6</ele>
        <time>2021-02-27T13:39:28Z</time>
      </trkpt>
      <trkpt lat="45.23731" lon="6.1893">
        <ele>1974.6</ele>
        <time>2021-02-27T13:39:29Z</time>
      </trkpt>
      <trkpt lat="45.23731" lon="6.1893">
        <ele>1974.8</ele>
        <time>2021-02-27T13:39:30Z</time>
      </trkpt>
      <trkpt lat="45.23731" lon="6.1893">
        <ele>1974.6</ele>
        <time>2021-02-27T13:39:31Z</time>
      </trkpt>
      <trkpt lat="45.23732" lon="6.18932">
        <ele>1974.6</ele>
        <time>2021-02-27T13:39:32Z</time>
      </trkpt>
      <trkpt lat="45.23732" lon="6.18932">
        <ele>1974.4</ele>
        <time>2021-02-27T13:39:33Z</time>
      </trkpt>
      <trkpt lat="45.23732" lon="6.18932">
        <ele>1974.4</ele>
        <time>2021-02-27T13:39:34Z</time>
      </trkpt>
      <trkpt lat="45.23732" lon="6.18932">
        <ele>1974.4</ele>
        <time>2021-02-27T13:39:35Z</time>
      </trkpt>
      <trkpt lat="45.23732" lon="6.18932">
        <ele>1974.2</ele>
        <time>2021-02-27T13:39:36Z</time>
      </trkpt>
      <trkpt lat="45.23732" lon="6.18932">
        <ele>1974</ele>
        <time>2021-02-27T13:39:37Z</time>
      </trkpt>
      <trkpt lat="45.23732" lon="6.18932">
        <ele>1974.2</ele>
        <time>2021-02-27T13:39:38Z</time>
      </trkpt>
      <trkpt lat="45.23732" lon="6.18932">
        <ele>1974</ele>
        <time>2021-02-27T13:39:39Z</time>
      </trkpt>
      <trkpt lat="45.23732" lon="6.18932">
        <ele>1974.2</ele>
        <time>2021-02-27T13:39:40Z</time>
      </trkpt>
      <trkpt lat="45.23732" lon="6.18932">
        <ele>1974.2</ele>
        <time>2021-02-27T13:39:41Z</time>
      </trkpt>
      <trkpt lat="45.23732" lon="6.18932">
        <ele>1974.2</ele>
        <time>2021-02-27T13:39:42Z</time>
      </trkpt>
      <trkpt lat="45.23732" lon="6.18932">
        <ele>1974.4</ele>
        <time>2021-02-27T13:39:43Z</time>
      </trkpt>
      <trkpt lat="45.23732" lon="6.18932">
        <ele>1974.2</ele>
        <time>2021-02-27T13:39:44Z</time>
      </trkpt>
      <trkpt lat="45.23732" lon="6.18932">
        <ele>1974</ele>
        <time>2021-02-27T13:39:45Z</time>
      </trkpt>
      <trkpt lat="45.23732" lon="6.18932">
        <ele>1974</ele>
        <time>2021-02-27T13:39:46Z</time>
      </trkpt>
      <trkpt lat="45.23732" lon="6.18932">
        <ele>1974</ele>
        <time>2021-02-27T13:39:47Z</time>
      </trkpt>
      <trkpt lat="45.23732" lon="6.18932">
        <ele>1974</ele>
        <time>2021-02-27T13:39:48Z</time>
      </trkpt>
      <trkpt lat="45.23732" lon="6.18932">
        <ele>1974.2</ele>
        <time>2021-02-27T13:39:49Z</time>
      </trkpt>
      <trkpt lat="45.23732" lon="6.18932">
        <ele>1973.8</ele>
        <time>2021-02-27T13:39:50Z</time>
      </trkpt>
      <trkpt lat="45.23732" lon="6.18932">
        <ele>1973.8</ele>
        <time>2021-02-27T13:39:51Z</time>
      </trkpt>
      <trkpt lat="45.23732" lon="6.18932">
        <ele>1973.8</ele>
        <time>2021-02-27T13:39:52Z</time>
      </trkpt>
      <trkpt lat="45.23732" lon="6.18932">
        <ele>1973.8</ele>
        <time>2021-02-27T13:39:53Z</time>
      </trkpt>
      <trkpt lat="45.23732" lon="6.18932">
        <ele>1973.8</ele>
        <time>2021-02-27T13:39:54Z</time>
      </trkpt>
      <trkpt lat="45.23732" lon="6.18932">
        <ele>1973.8</ele>
        <time>2021-02-27T13:39:55Z</time>
      </trkpt>
      <trkpt lat="45.23732" lon="6.18932">
        <ele>1973.6</ele>
        <time>2021-02-27T13:39:56Z</time>
      </trkpt>
      <trkpt lat="45.23732" lon="6.18932">
        <ele>1973.6</ele>
        <time>2021-02-27T13:39:57Z</time>
      </trkpt>
      <trkpt lat="45.23732" lon="6.18932">
        <ele>1973.8</ele>
        <time>2021-02-27T13:39:58Z</time>
      </trkpt>
      <trkpt lat="45.23732" lon="6.18932">
        <ele>1974</ele>
        <time>2021-02-27T13:39:59Z</time>
      </trkpt>
      <trkpt lat="45.23732" lon="6.18932">
        <ele>1974</ele>
        <time>2021-02-27T13:40:00Z</time>
      </trkpt>
      <trkpt lat="45.23732" lon="6.18932">
        <ele>1974</ele>
        <time>2021-02-27T13:40:01Z</time>
      </trkpt>
      <trkpt lat="45.23732" lon="6.18932">
        <ele>1974</ele>
        <time>2021-02-27T13:40:02Z</time>
      </trkpt>
      <trkpt lat="45.23732" lon="6.18932">
        <ele>1974</ele>
        <time>2021-02-27T13:40:03Z</time>
      </trkpt>
      <trkpt lat="45.23732" lon="6.18932">
        <ele>1974</ele>
        <time>2021-02-27T13:40:04Z</time>
      </trkpt>
      <trkpt lat="45.23732" lon="6.18932">
        <ele>1974.2</ele>
        <time>2021-02-27T13:40:05Z</time>
      </trkpt>
      <trkpt lat="45.23732" lon="6.18932">
        <ele>1973.8</ele>
        <time>2021-02-27T13:40:06Z</time>
      </trkpt>
      <trkpt lat="45.23732" lon="6.18932">
        <ele>1974</ele>
        <time>2021-02-27T13:40:07Z</time>
      </trkpt>
      <trkpt lat="45.23732" lon="6.18932">
        <ele>1974</ele>
        <time>2021-02-27T13:40:08Z</time>
      </trkpt>
      <trkpt lat="45.23732" lon="6.18932">
        <ele>1973.8</ele>
        <time>2021-02-27T13:40:09Z</time>
      </trkpt>
      <trkpt lat="45.23732" lon="6.18932">
        <ele>1974</ele>
        <time>2021-02-27T13:40:10Z</time>
      </trkpt>
      <trkpt lat="45.23732" lon="6.18932">
        <ele>1974</ele>
        <time>2021-02-27T13:40:11Z</time>
      </trkpt>
      <trkpt lat="45.23732" lon="6.18932">
        <ele>1974.2</ele>
        <time>2021-02-27T13:40:12Z</time>
      </trkpt>
      <trkpt lat="45.23732" lon="6.18932">
        <ele>1974.4</ele>
        <time>2021-02-27T13:40:13Z</time>
      </trkpt>
      <trkpt lat="45.23732" lon="6.18932">
        <ele>1974.2</ele>
        <time>2021-02-27T13:40:14Z</time>
      </trkpt>
      <trkpt lat="45.23732" lon="6.18932">
        <ele>1974.4</ele>
        <time>2021-02-27T13:40:15Z</time>
      </trkpt>
      <trkpt lat="45.23732" lon="6.18932">
        <ele>1974.4</ele>
        <time>2021-02-27T13:40:16Z</time>
      </trkpt>
      <trkpt lat="45.23732" lon="6.18932">
        <ele>1974.2</ele>
        <time>2021-02-27T13:40:17Z</time>
      </trkpt>
      <trkpt lat="45.23732" lon="6.18932">
        <ele>1974.4</ele>
        <time>2021-02-27T13:40:18Z</time>
      </trkpt>
      <trkpt lat="45.23732" lon="6.18932">
        <ele>1974.4</ele>
        <time>2021-02-27T13:40:19Z</time>
      </trkpt>
      <trkpt lat="45.23732" lon="6.18932">
        <ele>1974.4</ele>
        <time>2021-02-27T13:40:20Z</time>
      </trkpt>
      <trkpt lat="45.23732" lon="6.18932">
        <ele>1974.4</ele>
        <time>2021-02-27T13:40:21Z</time>
      </trkpt>
      <trkpt lat="45.23732" lon="6.18932">
        <ele>1974.4</ele>
        <time>2021-02-27T13:40:22Z</time>
      </trkpt>
      <trkpt lat="45.23734" lon="6.18931">
        <ele>1974.2</ele>
        <time>2021-02-27T13:40:23Z</time>
      </trkpt>
      <trkpt lat="45.23734" lon="6.18931">
        <ele>1974.2</ele>
        <time>2021-02-27T13:40:24Z</time>
      </trkpt>
      <trkpt lat="45.23734" lon="6.18931">
        <ele>1974.6</ele>
        <time>2021-02-27T13:40:25Z</time>
      </trkpt>
      <trkpt lat="45.23734" lon="6.18931">
        <ele>1975</ele>
        <time>2021-02-27T13:40:26Z</time>
      </trkpt>
      <trkpt lat="45.23734" lon="6.18931">
        <ele>1974.6</ele>
        <time>2021-02-27T13:40:27Z</time>
      </trkpt>
      <trkpt lat="45.23734" lon="6.18931">
        <ele>1975</ele>
        <time>2021-02-27T13:40:28Z</time>
      </trkpt>
      <trkpt lat="45.23734" lon="6.18931">
        <ele>1975.4</ele>
        <time>2021-02-27T13:40:29Z</time>
      </trkpt>
      <trkpt lat="45.23733" lon="6.18933">
        <ele>1975.2</ele>
        <time>2021-02-27T13:40:30Z</time>
      </trkpt>
      <trkpt lat="45.23733" lon="6.18933">
        <ele>1975</ele>
        <time>2021-02-27T13:40:31Z</time>
      </trkpt>
      <trkpt lat="45.23731" lon="6.18934">
        <ele>1974.8</ele>
        <time>2021-02-27T13:40:32Z</time>
      </trkpt>
      <trkpt lat="45.23731" lon="6.18934">
        <ele>1974.6</ele>
        <time>2021-02-27T13:40:33Z</time>
      </trkpt>
      <trkpt lat="45.23729" lon="6.18935">
        <ele>1974.4</ele>
        <time>2021-02-27T13:40:34Z</time>
      </trkpt>
      <trkpt lat="45.23729" lon="6.18935">
        <ele>1974.2</ele>
        <time>2021-02-27T13:40:35Z</time>
      </trkpt>
      <trkpt lat="45.23729" lon="6.18935">
        <ele>1974.4</ele>
        <time>2021-02-27T13:40:36Z</time>
      </trkpt>
      <trkpt lat="45.23729" lon="6.18935">
        <ele>1974.8</ele>
        <time>2021-02-27T13:40:37Z</time>
      </trkpt>
      <trkpt lat="45.23727" lon="6.18935">
        <ele>1974.8</ele>
        <time>2021-02-27T13:40:38Z</time>
      </trkpt>
      <trkpt lat="45.23727" lon="6.18935">
        <ele>1975</ele>
        <time>2021-02-27T13:40:39Z</time>
      </trkpt>
      <trkpt lat="45.23727" lon="6.18935">
        <ele>1975.2</ele>
        <time>2021-02-27T13:40:40Z</time>
      </trkpt>
      <trkpt lat="45.23727" lon="6.18935">
        <ele>1975.2</ele>
        <time>2021-02-27T13:40:41Z</time>
      </trkpt>
      <trkpt lat="45.23727" lon="6.18935">
        <ele>1975.2</ele>
        <time>2021-02-27T13:40:42Z</time>
      </trkpt>
      <trkpt lat="45.23727" lon="6.18935">
        <ele>1975.4</ele>
        <time>2021-02-27T13:40:43Z</time>
      </trkpt>
      <trkpt lat="45.23727" lon="6.18935">
        <ele>1975.4</ele>
        <time>2021-02-27T13:40:44Z</time>
      </trkpt>
      <trkpt lat="45.23727" lon="6.18935">
        <ele>1975.2</ele>
        <time>2021-02-27T13:40:45Z</time>
      </trkpt>
      <trkpt lat="45.23727" lon="6.18935">
        <ele>1975</ele>
        <time>2021-02-27T13:40:46Z</time>
      </trkpt>
      <trkpt lat="45.23727" lon="6.18935">
        <ele>1975</ele>
        <time>2021-02-27T13:40:47Z</time>
      </trkpt>
      <trkpt lat="45.23727" lon="6.18935">
        <ele>1975</ele>
        <time>2021-02-27T13:40:48Z</time>
      </trkpt>
      <trkpt lat="45.23727" lon="6.18935">
        <ele>1974.6</ele>
        <time>2021-02-27T13:40:49Z</time>
      </trkpt>
      <trkpt lat="45.23727" lon="6.18935">
        <ele>1975.2</ele>
        <time>2021-02-27T13:40:50Z</time>
      </trkpt>
      <trkpt lat="45.23727" lon="6.18935">
        <ele>1975.4</ele>
        <time>2021-02-27T13:40:51Z</time>
      </trkpt>
      <trkpt lat="45.23727" lon="6.18935">
        <ele>1975.4</ele>
        <time>2021-02-27T13:40:52Z</time>
      </trkpt>
      <trkpt lat="45.23727" lon="6.18935">
        <ele>1975.2</ele>
        <time>2021-02-27T13:40:53Z</time>
      </trkpt>
      <trkpt lat="45.23727" lon="6.18935">
        <ele>1975.2</ele>
        <time>2021-02-27T13:40:54Z</time>
      </trkpt>
      <trkpt lat="45.23727" lon="6.18935">
        <ele>1975</ele>
        <time>2021-02-27T13:40:55Z</time>
      </trkpt>
      <trkpt lat="45.23727" lon="6.18935">
        <ele>1975</ele>
        <time>2021-02-27T13:40:56Z</time>
      </trkpt>
      <trkpt lat="45.23727" lon="6.18935">
        <ele>1975</ele>
        <time>2021-02-27T13:40:57Z</time>
      </trkpt>
      <trkpt lat="45.23727" lon="6.18935">
        <ele>1974.8</ele>
        <time>2021-02-27T13:40:58Z</time>
      </trkpt>
      <trkpt lat="45.23727" lon="6.18935">
        <ele>1974.8</ele>
        <time>2021-02-27T13:40:59Z</time>
      </trkpt>
      <trkpt lat="45.23727" lon="6.18935">
        <ele>1975</ele>
        <time>2021-02-27T13:41:00Z</time>
      </trkpt>
      <trkpt lat="45.23727" lon="6.18935">
        <ele>1974.8</ele>
        <time>2021-02-27T13:41:01Z</time>
      </trkpt>
      <trkpt lat="45.23727" lon="6.18935">
        <ele>1974.8</ele>
        <time>2021-02-27T13:41:02Z</time>
      </trkpt>
      <trkpt lat="45.23727" lon="6.18935">
        <ele>1974.6</ele>
        <time>2021-02-27T13:41:03Z</time>
      </trkpt>
      <trkpt lat="45.23727" lon="6.18935">
        <ele>1974.4</ele>
        <time>2021-02-27T13:41:04Z</time>
      </trkpt>
      <trkpt lat="45.23727" lon="6.18935">
        <ele>1974.6</ele>
        <time>2021-02-27T13:41:05Z</time>
      </trkpt>
      <trkpt lat="45.23727" lon="6.18935">
        <ele>1974.4</ele>
        <time>2021-02-27T13:41:06Z</time>
      </trkpt>
      <trkpt lat="45.23727" lon="6.18935">
        <ele>1974.6</ele>
        <time>2021-02-27T13:41:07Z</time>
      </trkpt>
      <trkpt lat="45.23727" lon="6.18935">
        <ele>1974.4</ele>
        <time>2021-02-27T13:41:08Z</time>
      </trkpt>
      <trkpt lat="45.23727" lon="6.18935">
        <ele>1974.4</ele>
        <time>2021-02-27T13:41:09Z</time>
      </trkpt>
      <trkpt lat="45.23727" lon="6.18935">
        <ele>1974.6</ele>
        <time>2021-02-27T13:41:10Z</time>
      </trkpt>
      <trkpt lat="45.23727" lon="6.18935">
        <ele>1974.4</ele>
        <time>2021-02-27T13:41:11Z</time>
      </trkpt>
      <trkpt lat="45.23727" lon="6.18935">
        <ele>1974.6</ele>
        <time>2021-02-27T13:41:12Z</time>
      </trkpt>
      <trkpt lat="45.23727" lon="6.18935">
        <ele>1974.6</ele>
        <time>2021-02-27T13:41:13Z</time>
      </trkpt>
      <trkpt lat="45.23727" lon="6.18935">
        <ele>1974.6</ele>
        <time>2021-02-27T13:41:14Z</time>
      </trkpt>
      <trkpt lat="45.23727" lon="6.18935">
        <ele>1974.6</ele>
        <time>2021-02-27T13:41:15Z</time>
      </trkpt>
      <trkpt lat="45.23727" lon="6.18935">
        <ele>1974.8</ele>
        <time>2021-02-27T13:41:16Z</time>
      </trkpt>
      <trkpt lat="45.23727" lon="6.18935">
        <ele>1974.8</ele>
        <time>2021-02-27T13:41:17Z</time>
      </trkpt>
      <trkpt lat="45.23727" lon="6.18935">
        <ele>1974.6</ele>
        <time>2021-02-27T13:41:18Z</time>
      </trkpt>
      <trkpt lat="45.23727" lon="6.18935">
        <ele>1974.6</ele>
        <time>2021-02-27T13:41:19Z</time>
      </trkpt>
      <trkpt lat="45.23727" lon="6.18935">
        <ele>1974.4</ele>
        <time>2021-02-27T13:41:20Z</time>
      </trkpt>
      <trkpt lat="45.23727" lon="6.18935">
        <ele>1974.2</ele>
        <time>2021-02-27T13:41:21Z</time>
      </trkpt>
      <trkpt lat="45.23727" lon="6.18935">
        <ele>1974.4</ele>
        <time>2021-02-27T13:41:22Z</time>
      </trkpt>
      <trkpt lat="45.23727" lon="6.18935">
        <ele>1974.2</ele>
        <time>2021-02-27T13:41:23Z</time>
      </trkpt>
      <trkpt lat="45.23727" lon="6.18935">
        <ele>1974.2</ele>
        <time>2021-02-27T13:41:24Z</time>
      </trkpt>
      <trkpt lat="45.23727" lon="6.18935">
        <ele>1974.2</ele>
        <time>2021-02-27T13:41:25Z</time>
      </trkpt>
      <trkpt lat="45.23727" lon="6.18935">
        <ele>1974.2</ele>
        <time>2021-02-27T13:41:26Z</time>
      </trkpt>
      <trkpt lat="45.23727" lon="6.18935">
        <ele>1974.4</ele>
        <time>2021-02-27T13:41:27Z</time>
      </trkpt>
      <trkpt lat="45.23727" lon="6.18935">
        <ele>1974.2</ele>
        <time>2021-02-27T13:41:28Z</time>
      </trkpt>
      <trkpt lat="45.23727" lon="6.18935">
        <ele>1974</ele>
        <time>2021-02-27T13:41:29Z</time>
      </trkpt>
      <trkpt lat="45.23727" lon="6.18935">
        <ele>1974</ele>
        <time>2021-02-27T13:41:30Z</time>
      </trkpt>
      <trkpt lat="45.23727" lon="6.18935">
        <ele>1974</ele>
        <time>2021-02-27T13:41:31Z</time>
      </trkpt>
      <trkpt lat="45.23727" lon="6.18935">
        <ele>1974</ele>
        <time>2021-02-27T13:41:32Z</time>
      </trkpt>
      <trkpt lat="45.23727" lon="6.18935">
        <ele>1974.2</ele>
        <time>2021-02-27T13:41:33Z</time>
      </trkpt>
      <trkpt lat="45.23727" lon="6.18935">
        <ele>1974</ele>
        <time>2021-02-27T13:41:34Z</time>
      </trkpt>
      <trkpt lat="45.23727" lon="6.18935">
        <ele>1974.2</ele>
        <time>2021-02-27T13:41:35Z</time>
      </trkpt>
      <trkpt lat="45.23727" lon="6.18935">
        <ele>1974.2</ele>
        <time>2021-02-27T13:41:36Z</time>
      </trkpt>
      <trkpt lat="45.23727" lon="6.18935">
        <ele>1974.2</ele>
        <time>2021-02-27T13:41:37Z</time>
      </trkpt>
      <trkpt lat="45.23727" lon="6.18935">
        <ele>1974.2</ele>
        <time>2021-02-27T13:41:38Z</time>
      </trkpt>
      <trkpt lat="45.23727" lon="6.18935">
        <ele>1974.2</ele>
        <time>2021-02-27T13:41:39Z</time>
      </trkpt>
      <trkpt lat="45.23727" lon="6.18935">
        <ele>1974.2</ele>
        <time>2021-02-27T13:41:40Z</time>
      </trkpt>
      <trkpt lat="45.23727" lon="6.18935">
        <ele>1974.2</ele>
        <time>2021-02-27T13:41:41Z</time>
      </trkpt>
      <trkpt lat="45.23727" lon="6.18935">
        <ele>1974</ele>
        <time>2021-02-27T13:41:42Z</time>
      </trkpt>
      <trkpt lat="45.23727" lon="6.18935">
        <ele>1973.8</ele>
        <time>2021-02-27T13:41:43Z</time>
      </trkpt>
      <trkpt lat="45.23727" lon="6.18935">
        <ele>1974</ele>
        <time>2021-02-27T13:41:44Z</time>
      </trkpt>
      <trkpt lat="45.23727" lon="6.18938">
        <ele>1974.2</ele>
        <time>2021-02-27T13:41:45Z</time>
      </trkpt>
      <trkpt lat="45.23727" lon="6.18938">
        <ele>1974.4</ele>
        <time>2021-02-27T13:41:46Z</time>
      </trkpt>
      <trkpt lat="45.23727" lon="6.18941">
        <ele>1974.2</ele>
        <time>2021-02-27T13:41:47Z</time>
      </trkpt>
      <trkpt lat="45.23727" lon="6.18941">
        <ele>1974.4</ele>
        <time>2021-02-27T13:41:48Z</time>
      </trkpt>
      <trkpt lat="45.23727" lon="6.18941">
        <ele>1974.6</ele>
        <time>2021-02-27T13:41:49Z</time>
      </trkpt>
      <trkpt lat="45.23727" lon="6.18945">
        <ele>1974.8</ele>
        <time>2021-02-27T13:41:50Z</time>
      </trkpt>
      <trkpt lat="45.23727" lon="6.18945">
        <ele>1974.6</ele>
        <time>2021-02-27T13:41:51Z</time>
      </trkpt>
      <trkpt lat="45.23726" lon="6.18947">
        <ele>1974.2</ele>
        <time>2021-02-27T13:41:52Z</time>
      </trkpt>
      <trkpt lat="45.23726" lon="6.18947">
        <ele>1974.6</ele>
        <time>2021-02-27T13:41:53Z</time>
      </trkpt>
      <trkpt lat="45.23725" lon="6.1895">
        <ele>1974.4</ele>
        <time>2021-02-27T13:41:54Z</time>
      </trkpt>
      <trkpt lat="45.23725" lon="6.1895">
        <ele>1974.4</ele>
        <time>2021-02-27T13:41:55Z</time>
      </trkpt>
      <trkpt lat="45.23725" lon="6.18953">
        <ele>1974.2</ele>
        <time>2021-02-27T13:41:56Z</time>
      </trkpt>
      <trkpt lat="45.23725" lon="6.18953">
        <ele>1974.2</ele>
        <time>2021-02-27T13:41:57Z</time>
      </trkpt>
      <trkpt lat="45.23724" lon="6.18956">
        <ele>1974.2</ele>
        <time>2021-02-27T13:41:58Z</time>
      </trkpt>
      <trkpt lat="45.23724" lon="6.18956">
        <ele>1974.2</ele>
        <time>2021-02-27T13:41:59Z</time>
      </trkpt>
      <trkpt lat="45.23722" lon="6.18959">
        <ele>1974.4</ele>
        <time>2021-02-27T13:42:00Z</time>
      </trkpt>
      <trkpt lat="45.23722" lon="6.18959">
        <ele>1974.6</ele>
        <time>2021-02-27T13:42:01Z</time>
      </trkpt>
      <trkpt lat="45.23721" lon="6.18962">
        <ele>1974.6</ele>
        <time>2021-02-27T13:42:02Z</time>
      </trkpt>
      <trkpt lat="45.23721" lon="6.18962">
        <ele>1974.4</ele>
        <time>2021-02-27T13:42:03Z</time>
      </trkpt>
      <trkpt lat="45.2372" lon="6.18965">
        <ele>1974.4</ele>
        <time>2021-02-27T13:42:04Z</time>
      </trkpt>
      <trkpt lat="45.2372" lon="6.18965">
        <ele>1974.6</ele>
        <time>2021-02-27T13:42:05Z</time>
      </trkpt>
      <trkpt lat="45.2372" lon="6.18968">
        <ele>1974.6</ele>
        <time>2021-02-27T13:42:06Z</time>
      </trkpt>
      <trkpt lat="45.2372" lon="6.18968">
        <ele>1974.6</ele>
        <time>2021-02-27T13:42:07Z</time>
      </trkpt>
      <trkpt lat="45.2372" lon="6.18968">
        <ele>1974.8</ele>
        <time>2021-02-27T13:42:08Z</time>
      </trkpt>
      <trkpt lat="45.23719" lon="6.18972">
        <ele>1974.6</ele>
        <time>2021-02-27T13:42:09Z</time>
      </trkpt>
      <trkpt lat="45.23719" lon="6.18972">
        <ele>1974.4</ele>
        <time>2021-02-27T13:42:10Z</time>
      </trkpt>
      <trkpt lat="45.23719" lon="6.18972">
        <ele>1974.6</ele>
        <time>2021-02-27T13:42:11Z</time>
      </trkpt>
      <trkpt lat="45.23719" lon="6.18972">
        <ele>1974.8</ele>
        <time>2021-02-27T13:42:12Z</time>
      </trkpt>
      <trkpt lat="45.23719" lon="6.18972">
        <ele>1975</ele>
        <time>2021-02-27T13:42:13Z</time>
      </trkpt>
      <trkpt lat="45.2372" lon="6.18975">
        <ele>1975.4</ele>
        <time>2021-02-27T13:42:14Z</time>
      </trkpt>
      <trkpt lat="45.2372" lon="6.18975">
        <ele>1975.6</ele>
        <time>2021-02-27T13:42:15Z</time>
      </trkpt>
      <trkpt lat="45.2372" lon="6.18975">
        <ele>1975.8</ele>
        <time>2021-02-27T13:42:16Z</time>
      </trkpt>
      <trkpt lat="45.23719" lon="6.18979">
        <ele>1975.8</ele>
        <time>2021-02-27T13:42:17Z</time>
      </trkpt>
      <trkpt lat="45.23719" lon="6.18979">
        <ele>1975.6</ele>
        <time>2021-02-27T13:42:18Z</time>
      </trkpt>
      <trkpt lat="45.23718" lon="6.18982">
        <ele>1975.8</ele>
        <time>2021-02-27T13:42:19Z</time>
      </trkpt>
      <trkpt lat="45.23718" lon="6.18982">
        <ele>1975.4</ele>
        <time>2021-02-27T13:42:20Z</time>
      </trkpt>
      <trkpt lat="45.23716" lon="6.18985">
        <ele>1975.4</ele>
        <time>2021-02-27T13:42:21Z</time>
      </trkpt>
      <trkpt lat="45.23716" lon="6.18985">
        <ele>1975.8</ele>
        <time>2021-02-27T13:42:22Z</time>
      </trkpt>
      <trkpt lat="45.23715" lon="6.18988">
        <ele>1975.6</ele>
        <time>2021-02-27T13:42:23Z</time>
      </trkpt>
      <trkpt lat="45.23715" lon="6.18988">
        <ele>1975.6</ele>
        <time>2021-02-27T13:42:24Z</time>
      </trkpt>
      <trkpt lat="45.23715" lon="6.18991">
        <ele>1976</ele>
        <time>2021-02-27T13:42:25Z</time>
      </trkpt>
      <trkpt lat="45.23715" lon="6.18991">
        <ele>1976</ele>
        <time>2021-02-27T13:42:26Z</time>
      </trkpt>
      <trkpt lat="45.23715" lon="6.18994">
        <ele>1975.8</ele>
        <time>2021-02-27T13:42:27Z</time>
      </trkpt>
      <trkpt lat="45.23715" lon="6.18994">
        <ele>1975.8</ele>
        <time>2021-02-27T13:42:28Z</time>
      </trkpt>
      <trkpt lat="45.23714" lon="6.18997">
        <ele>1975.8</ele>
        <time>2021-02-27T13:42:29Z</time>
      </trkpt>
      <trkpt lat="45.23714" lon="6.18997">
        <ele>1975.6</ele>
        <time>2021-02-27T13:42:30Z</time>
      </trkpt>
      <trkpt lat="45.23714" lon="6.19">
        <ele>1976</ele>
        <time>2021-02-27T13:42:31Z</time>
      </trkpt>
      <trkpt lat="45.23714" lon="6.19">
        <ele>1976</ele>
        <time>2021-02-27T13:42:32Z</time>
      </trkpt>
      <trkpt lat="45.23714" lon="6.19004">
        <ele>1976</ele>
        <time>2021-02-27T13:42:33Z</time>
      </trkpt>
      <trkpt lat="45.23714" lon="6.19004">
        <ele>1976.2</ele>
        <time>2021-02-27T13:42:34Z</time>
      </trkpt>
      <trkpt lat="45.23712" lon="6.19006">
        <ele>1976.6</ele>
        <time>2021-02-27T13:42:35Z</time>
      </trkpt>
      <trkpt lat="45.23712" lon="6.19006">
        <ele>1976.4</ele>
        <time>2021-02-27T13:42:36Z</time>
      </trkpt>
      <trkpt lat="45.23711" lon="6.19009">
        <ele>1976.4</ele>
        <time>2021-02-27T13:42:37Z</time>
      </trkpt>
      <trkpt lat="45.23711" lon="6.19009">
        <ele>1976.6</ele>
        <time>2021-02-27T13:42:38Z</time>
      </trkpt>
      <trkpt lat="45.23711" lon="6.19009">
        <ele>1976.4</ele>
        <time>2021-02-27T13:42:39Z</time>
      </trkpt>
      <trkpt lat="45.23711" lon="6.19012">
        <ele>1976.6</ele>
        <time>2021-02-27T13:42:40Z</time>
      </trkpt>
      <trkpt lat="45.23711" lon="6.19012">
        <ele>1977</ele>
        <time>2021-02-27T13:42:41Z</time>
      </trkpt>
      <trkpt lat="45.23711" lon="6.19012">
        <ele>1977.2</ele>
        <time>2021-02-27T13:42:42Z</time>
      </trkpt>
      <trkpt lat="45.23711" lon="6.19016">
        <ele>1977.4</ele>
        <time>2021-02-27T13:42:43Z</time>
      </trkpt>
      <trkpt lat="45.23711" lon="6.19016">
        <ele>1977.4</ele>
        <time>2021-02-27T13:42:44Z</time>
      </trkpt>
      <trkpt lat="45.2371" lon="6.19018">
        <ele>1977.4</ele>
        <time>2021-02-27T13:42:45Z</time>
      </trkpt>
      <trkpt lat="45.2371" lon="6.19018">
        <ele>1977.4</ele>
        <time>2021-02-27T13:42:46Z</time>
      </trkpt>
      <trkpt lat="45.23709" lon="6.19021">
        <ele>1977.8</ele>
        <time>2021-02-27T13:42:47Z</time>
      </trkpt>
      <trkpt lat="45.23709" lon="6.19021">
        <ele>1977.6</ele>
        <time>2021-02-27T13:42:48Z</time>
      </trkpt>
      <trkpt lat="45.23708" lon="6.19024">
        <ele>1977.6</ele>
        <time>2021-02-27T13:42:49Z</time>
      </trkpt>
      <trkpt lat="45.23708" lon="6.19024">
        <ele>1977.6</ele>
        <time>2021-02-27T13:42:50Z</time>
      </trkpt>
      <trkpt lat="45.23707" lon="6.19027">
        <ele>1977.6</ele>
        <time>2021-02-27T13:42:51Z</time>
      </trkpt>
      <trkpt lat="45.23707" lon="6.19027">
        <ele>1977.8</ele>
        <time>2021-02-27T13:42:52Z</time>
      </trkpt>
      <trkpt lat="45.23706" lon="6.19031">
        <ele>1978</ele>
        <time>2021-02-27T13:42:53Z</time>
      </trkpt>
      <trkpt lat="45.23706" lon="6.19031">
        <ele>1978.2</ele>
        <time>2021-02-27T13:42:54Z</time>
      </trkpt>
      <trkpt lat="45.23705" lon="6.19034">
        <ele>1978.2</ele>
        <time>2021-02-27T13:42:55Z</time>
      </trkpt>
      <trkpt lat="45.23705" lon="6.19034">
        <ele>1978.4</ele>
        <time>2021-02-27T13:42:56Z</time>
      </trkpt>
      <trkpt lat="45.23704" lon="6.19037">
        <ele>1978.4</ele>
        <time>2021-02-27T13:42:57Z</time>
      </trkpt>
      <trkpt lat="45.23704" lon="6.19037">
        <ele>1978.4</ele>
        <time>2021-02-27T13:42:58Z</time>
      </trkpt>
      <trkpt lat="45.23702" lon="6.1904">
        <ele>1978.4</ele>
        <time>2021-02-27T13:42:59Z</time>
      </trkpt>
      <trkpt lat="45.23702" lon="6.1904">
        <ele>1978.6</ele>
        <time>2021-02-27T13:43:00Z</time>
      </trkpt>
      <trkpt lat="45.23701" lon="6.19043">
        <ele>1978.6</ele>
        <time>2021-02-27T13:43:01Z</time>
      </trkpt>
      <trkpt lat="45.23701" lon="6.19043">
        <ele>1978.8</ele>
        <time>2021-02-27T13:43:02Z</time>
      </trkpt>
      <trkpt lat="45.237" lon="6.19044">
        <ele>1978.8</ele>
        <time>2021-02-27T13:43:03Z</time>
      </trkpt>
      <trkpt lat="45.237" lon="6.19046">
        <ele>1979.2</ele>
        <time>2021-02-27T13:43:04Z</time>
      </trkpt>
      <trkpt lat="45.237" lon="6.19048">
        <ele>1979.2</ele>
        <time>2021-02-27T13:43:05Z</time>
      </trkpt>
      <trkpt lat="45.23699" lon="6.19049">
        <ele>1979.2</ele>
        <time>2021-02-27T13:43:06Z</time>
      </trkpt>
      <trkpt lat="45.23699" lon="6.19052">
        <ele>1979.6</ele>
        <time>2021-02-27T13:43:07Z</time>
      </trkpt>
      <trkpt lat="45.23699" lon="6.19052">
        <ele>1979.8</ele>
        <time>2021-02-27T13:43:08Z</time>
      </trkpt>
      <trkpt lat="45.23699" lon="6.19056">
        <ele>1979.4</ele>
        <time>2021-02-27T13:43:09Z</time>
      </trkpt>
      <trkpt lat="45.23699" lon="6.19056">
        <ele>1979.6</ele>
        <time>2021-02-27T13:43:10Z</time>
      </trkpt>
      <trkpt lat="45.23699" lon="6.19056">
        <ele>1979.8</ele>
        <time>2021-02-27T13:43:11Z</time>
      </trkpt>
      <trkpt lat="45.23698" lon="6.1906">
        <ele>1979.4</ele>
        <time>2021-02-27T13:43:12Z</time>
      </trkpt>
      <trkpt lat="45.23698" lon="6.1906">
        <ele>1979.8</ele>
        <time>2021-02-27T13:43:13Z</time>
      </trkpt>
      <trkpt lat="45.23698" lon="6.19064">
        <ele>1980.2</ele>
        <time>2021-02-27T13:43:14Z</time>
      </trkpt>
      <trkpt lat="45.23698" lon="6.19064">
        <ele>1980.2</ele>
        <time>2021-02-27T13:43:15Z</time>
      </trkpt>
      <trkpt lat="45.23697" lon="6.19067">
        <ele>1980.2</ele>
        <time>2021-02-27T13:43:16Z</time>
      </trkpt>
      <trkpt lat="45.23697" lon="6.19067">
        <ele>1980.8</ele>
        <time>2021-02-27T13:43:17Z</time>
      </trkpt>
      <trkpt lat="45.23696" lon="6.19071">
        <ele>1981</ele>
        <time>2021-02-27T13:43:18Z</time>
      </trkpt>
      <trkpt lat="45.23696" lon="6.19071">
        <ele>1980.8</ele>
        <time>2021-02-27T13:43:19Z</time>
      </trkpt>
      <trkpt lat="45.23696" lon="6.19071">
        <ele>1980.4</ele>
        <time>2021-02-27T13:43:20Z</time>
      </trkpt>
      <trkpt lat="45.23695" lon="6.19075">
        <ele>1980.8</ele>
        <time>2021-02-27T13:43:21Z</time>
      </trkpt>
      <trkpt lat="45.23695" lon="6.19075">
        <ele>1980.6</ele>
        <time>2021-02-27T13:43:22Z</time>
      </trkpt>
      <trkpt lat="45.23694" lon="6.19078">
        <ele>1980.8</ele>
        <time>2021-02-27T13:43:23Z</time>
      </trkpt>
      <trkpt lat="45.23694" lon="6.19078">
        <ele>1981</ele>
        <time>2021-02-27T13:43:24Z</time>
      </trkpt>
      <trkpt lat="45.23693" lon="6.1908">
        <ele>1981.2</ele>
        <time>2021-02-27T13:43:25Z</time>
      </trkpt>
      <trkpt lat="45.23693" lon="6.1908">
        <ele>1981.2</ele>
        <time>2021-02-27T13:43:26Z</time>
      </trkpt>
      <trkpt lat="45.23692" lon="6.19082">
        <ele>1981.2</ele>
        <time>2021-02-27T13:43:27Z</time>
      </trkpt>
      <trkpt lat="45.23692" lon="6.19082">
        <ele>1981.4</ele>
        <time>2021-02-27T13:43:28Z</time>
      </trkpt>
      <trkpt lat="45.2369" lon="6.19084">
        <ele>1981</ele>
        <time>2021-02-27T13:43:29Z</time>
      </trkpt>
      <trkpt lat="45.2369" lon="6.19084">
        <ele>1981.2</ele>
        <time>2021-02-27T13:43:30Z</time>
      </trkpt>
      <trkpt lat="45.23689" lon="6.19087">
        <ele>1981.2</ele>
        <time>2021-02-27T13:43:31Z</time>
      </trkpt>
      <trkpt lat="45.23689" lon="6.19087">
        <ele>1981.6</ele>
        <time>2021-02-27T13:43:32Z</time>
      </trkpt>
      <trkpt lat="45.23688" lon="6.1909">
        <ele>1981.4</ele>
        <time>2021-02-27T13:43:33Z</time>
      </trkpt>
      <trkpt lat="45.23688" lon="6.1909">
        <ele>1981.6</ele>
        <time>2021-02-27T13:43:34Z</time>
      </trkpt>
      <trkpt lat="45.23688" lon="6.1909">
        <ele>1981.8</ele>
        <time>2021-02-27T13:43:35Z</time>
      </trkpt>
      <trkpt lat="45.23686" lon="6.19094">
        <ele>1981.8</ele>
        <time>2021-02-27T13:43:36Z</time>
      </trkpt>
      <trkpt lat="45.23686" lon="6.19094">
        <ele>1982</ele>
        <time>2021-02-27T13:43:37Z</time>
      </trkpt>
      <trkpt lat="45.23684" lon="6.19095">
        <ele>1982</ele>
        <time>2021-02-27T13:43:38Z</time>
      </trkpt>
      <trkpt lat="45.23684" lon="6.19095">
        <ele>1982</ele>
        <time>2021-02-27T13:43:39Z</time>
      </trkpt>
      <trkpt lat="45.23681" lon="6.19098">
        <ele>1982.2</ele>
        <time>2021-02-27T13:43:40Z</time>
      </trkpt>
      <trkpt lat="45.23681" lon="6.19098">
        <ele>1982.6</ele>
        <time>2021-02-27T13:43:41Z</time>
      </trkpt>
      <trkpt lat="45.2368" lon="6.191">
        <ele>1982.4</ele>
        <time>2021-02-27T13:43:42Z</time>
      </trkpt>
      <trkpt lat="45.2368" lon="6.191">
        <ele>1982.4</ele>
        <time>2021-02-27T13:43:43Z</time>
      </trkpt>
      <trkpt lat="45.23678" lon="6.19103">
        <ele>1983</ele>
        <time>2021-02-27T13:43:44Z</time>
      </trkpt>
      <trkpt lat="45.23678" lon="6.19103">
        <ele>1982.8</ele>
        <time>2021-02-27T13:43:45Z</time>
      </trkpt>
      <trkpt lat="45.23676" lon="6.19106">
        <ele>1982.6</ele>
        <time>2021-02-27T13:43:46Z</time>
      </trkpt>
      <trkpt lat="45.23676" lon="6.19106">
        <ele>1982.8</ele>
        <time>2021-02-27T13:43:47Z</time>
      </trkpt>
      <trkpt lat="45.23675" lon="6.19108">
        <ele>1982.8</ele>
        <time>2021-02-27T13:43:48Z</time>
      </trkpt>
      <trkpt lat="45.23675" lon="6.19108">
        <ele>1982.8</ele>
        <time>2021-02-27T13:43:49Z</time>
      </trkpt>
      <trkpt lat="45.23673" lon="6.1911">
        <ele>1982.6</ele>
        <time>2021-02-27T13:43:50Z</time>
      </trkpt>
      <trkpt lat="45.23673" lon="6.1911">
        <ele>1982.8</ele>
        <time>2021-02-27T13:43:51Z</time>
      </trkpt>
      <trkpt lat="45.23672" lon="6.19112">
        <ele>1982.8</ele>
        <time>2021-02-27T13:43:52Z</time>
      </trkpt>
      <trkpt lat="45.23672" lon="6.19112">
        <ele>1982.6</ele>
        <time>2021-02-27T13:43:53Z</time>
      </trkpt>
      <trkpt lat="45.23671" lon="6.19115">
        <ele>1983.2</ele>
        <time>2021-02-27T13:43:54Z</time>
      </trkpt>
      <trkpt lat="45.23671" lon="6.19115">
        <ele>1983.2</ele>
        <time>2021-02-27T13:43:55Z</time>
      </trkpt>
      <trkpt lat="45.23669" lon="6.19117">
        <ele>1983.2</ele>
        <time>2021-02-27T13:43:56Z</time>
      </trkpt>
      <trkpt lat="45.23669" lon="6.19117">
        <ele>1983.2</ele>
        <time>2021-02-27T13:43:57Z</time>
      </trkpt>
      <trkpt lat="45.23668" lon="6.19119">
        <ele>1983.2</ele>
        <time>2021-02-27T13:43:58Z</time>
      </trkpt>
      <trkpt lat="45.23668" lon="6.19119">
        <ele>1983</ele>
        <time>2021-02-27T13:43:59Z</time>
      </trkpt>
      <trkpt lat="45.23666" lon="6.19121">
        <ele>1983</ele>
        <time>2021-02-27T13:44:00Z</time>
      </trkpt>
      <trkpt lat="45.23666" lon="6.19121">
        <ele>1983.4</ele>
        <time>2021-02-27T13:44:01Z</time>
      </trkpt>
      <trkpt lat="45.23664" lon="6.19123">
        <ele>1983.4</ele>
        <time>2021-02-27T13:44:02Z</time>
      </trkpt>
      <trkpt lat="45.23664" lon="6.19123">
        <ele>1983.2</ele>
        <time>2021-02-27T13:44:03Z</time>
      </trkpt>
      <trkpt lat="45.23663" lon="6.19125">
        <ele>1983.6</ele>
        <time>2021-02-27T13:44:04Z</time>
      </trkpt>
      <trkpt lat="45.23663" lon="6.19125">
        <ele>1983.6</ele>
        <time>2021-02-27T13:44:05Z</time>
      </trkpt>
      <trkpt lat="45.23661" lon="6.19127">
        <ele>1983.8</ele>
        <time>2021-02-27T13:44:06Z</time>
      </trkpt>
      <trkpt lat="45.23661" lon="6.19127">
        <ele>1983.8</ele>
        <time>2021-02-27T13:44:07Z</time>
      </trkpt>
      <trkpt lat="45.23659" lon="6.1913">
        <ele>1983.8</ele>
        <time>2021-02-27T13:44:08Z</time>
      </trkpt>
      <trkpt lat="45.23659" lon="6.1913">
        <ele>1984.4</ele>
        <time>2021-02-27T13:44:09Z</time>
      </trkpt>
      <trkpt lat="45.23658" lon="6.19133">
        <ele>1984.4</ele>
        <time>2021-02-27T13:44:10Z</time>
      </trkpt>
      <trkpt lat="45.23658" lon="6.19133">
        <ele>1984.4</ele>
        <time>2021-02-27T13:44:11Z</time>
      </trkpt>
      <trkpt lat="45.23657" lon="6.19135">
        <ele>1984.8</ele>
        <time>2021-02-27T13:44:12Z</time>
      </trkpt>
      <trkpt lat="45.23657" lon="6.19135">
        <ele>1984.8</ele>
        <time>2021-02-27T13:44:13Z</time>
      </trkpt>
      <trkpt lat="45.23656" lon="6.19138">
        <ele>1984.8</ele>
        <time>2021-02-27T13:44:14Z</time>
      </trkpt>
      <trkpt lat="45.23656" lon="6.19138">
        <ele>1984.8</ele>
        <time>2021-02-27T13:44:15Z</time>
      </trkpt>
      <trkpt lat="45.23655" lon="6.19141">
        <ele>1984.8</ele>
        <time>2021-02-27T13:44:16Z</time>
      </trkpt>
      <trkpt lat="45.23655" lon="6.19141">
        <ele>1984.6</ele>
        <time>2021-02-27T13:44:17Z</time>
      </trkpt>
      <trkpt lat="45.23654" lon="6.19143">
        <ele>1984.8</ele>
        <time>2021-02-27T13:44:18Z</time>
      </trkpt>
      <trkpt lat="45.23654" lon="6.19143">
        <ele>1985.2</ele>
        <time>2021-02-27T13:44:19Z</time>
      </trkpt>
      <trkpt lat="45.23652" lon="6.19146">
        <ele>1985</ele>
        <time>2021-02-27T13:44:20Z</time>
      </trkpt>
      <trkpt lat="45.23652" lon="6.19146">
        <ele>1985.2</ele>
        <time>2021-02-27T13:44:21Z</time>
      </trkpt>
      <trkpt lat="45.23651" lon="6.19148">
        <ele>1985.2</ele>
        <time>2021-02-27T13:44:22Z</time>
      </trkpt>
      <trkpt lat="45.23651" lon="6.19148">
        <ele>1985.4</ele>
        <time>2021-02-27T13:44:23Z</time>
      </trkpt>
      <trkpt lat="45.2365" lon="6.19151">
        <ele>1985.6</ele>
        <time>2021-02-27T13:44:24Z</time>
      </trkpt>
      <trkpt lat="45.2365" lon="6.19151">
        <ele>1985.6</ele>
        <time>2021-02-27T13:44:25Z</time>
      </trkpt>
      <trkpt lat="45.2365" lon="6.19151">
        <ele>1985.6</ele>
        <time>2021-02-27T13:44:26Z</time>
      </trkpt>
      <trkpt lat="45.23649" lon="6.19155">
        <ele>1985.4</ele>
        <time>2021-02-27T13:44:27Z</time>
      </trkpt>
      <trkpt lat="45.23649" lon="6.19155">
        <ele>1985.4</ele>
        <time>2021-02-27T13:44:28Z</time>
      </trkpt>
      <trkpt lat="45.23647" lon="6.19158">
        <ele>1985.4</ele>
        <time>2021-02-27T13:44:29Z</time>
      </trkpt>
      <trkpt lat="45.23647" lon="6.19158">
        <ele>1985.6</ele>
        <time>2021-02-27T13:44:30Z</time>
      </trkpt>
      <trkpt lat="45.23646" lon="6.1916">
        <ele>1985.8</ele>
        <time>2021-02-27T13:44:31Z</time>
      </trkpt>
      <trkpt lat="45.23646" lon="6.1916">
        <ele>1986</ele>
        <time>2021-02-27T13:44:32Z</time>
      </trkpt>
      <trkpt lat="45.23645" lon="6.19162">
        <ele>1986</ele>
        <time>2021-02-27T13:44:33Z</time>
      </trkpt>
      <trkpt lat="45.23645" lon="6.19162">
        <ele>1986.4</ele>
        <time>2021-02-27T13:44:34Z</time>
      </trkpt>
      <trkpt lat="45.23643" lon="6.19164">
        <ele>1986.8</ele>
        <time>2021-02-27T13:44:35Z</time>
      </trkpt>
      <trkpt lat="45.23643" lon="6.19164">
        <ele>1986.8</ele>
        <time>2021-02-27T13:44:36Z</time>
      </trkpt>
      <trkpt lat="45.2364" lon="6.19166">
        <ele>1987.2</ele>
        <time>2021-02-27T13:44:37Z</time>
      </trkpt>
      <trkpt lat="45.2364" lon="6.19166">
        <ele>1987.6</ele>
        <time>2021-02-27T13:44:38Z</time>
      </trkpt>
      <trkpt lat="45.23638" lon="6.19168">
        <ele>1987.6</ele>
        <time>2021-02-27T13:44:39Z</time>
      </trkpt>
      <trkpt lat="45.23638" lon="6.19168">
        <ele>1987.6</ele>
        <time>2021-02-27T13:44:40Z</time>
      </trkpt>
      <trkpt lat="45.23636" lon="6.19169">
        <ele>1987.6</ele>
        <time>2021-02-27T13:44:41Z</time>
      </trkpt>
      <trkpt lat="45.23636" lon="6.19169">
        <ele>1987.6</ele>
        <time>2021-02-27T13:44:42Z</time>
      </trkpt>
      <trkpt lat="45.23634" lon="6.19171">
        <ele>1987.4</ele>
        <time>2021-02-27T13:44:43Z</time>
      </trkpt>
      <trkpt lat="45.23634" lon="6.19171">
        <ele>1987.4</ele>
        <time>2021-02-27T13:44:44Z</time>
      </trkpt>
      <trkpt lat="45.23632" lon="6.19173">
        <ele>1987.2</ele>
        <time>2021-02-27T13:44:45Z</time>
      </trkpt>
      <trkpt lat="45.23632" lon="6.19173">
        <ele>1987.4</ele>
        <time>2021-02-27T13:44:46Z</time>
      </trkpt>
      <trkpt lat="45.23631" lon="6.19175">
        <ele>1987.2</ele>
        <time>2021-02-27T13:44:47Z</time>
      </trkpt>
      <trkpt lat="45.23631" lon="6.19175">
        <ele>1987</ele>
        <time>2021-02-27T13:44:48Z</time>
      </trkpt>
      <trkpt lat="45.23629" lon="6.19178">
        <ele>1987</ele>
        <time>2021-02-27T13:44:49Z</time>
      </trkpt>
      <trkpt lat="45.23629" lon="6.19178">
        <ele>1987.4</ele>
        <time>2021-02-27T13:44:50Z</time>
      </trkpt>
      <trkpt lat="45.23628" lon="6.1918">
        <ele>1987.4</ele>
        <time>2021-02-27T13:44:51Z</time>
      </trkpt>
      <trkpt lat="45.23628" lon="6.1918">
        <ele>1987.4</ele>
        <time>2021-02-27T13:44:52Z</time>
      </trkpt>
      <trkpt lat="45.23626" lon="6.19183">
        <ele>1987.8</ele>
        <time>2021-02-27T13:44:53Z</time>
      </trkpt>
      <trkpt lat="45.23626" lon="6.19183">
        <ele>1987.8</ele>
        <time>2021-02-27T13:44:54Z</time>
      </trkpt>
      <trkpt lat="45.23624" lon="6.19185">
        <ele>1988</ele>
        <time>2021-02-27T13:44:55Z</time>
      </trkpt>
      <trkpt lat="45.23624" lon="6.19185">
        <ele>1988.4</ele>
        <time>2021-02-27T13:44:56Z</time>
      </trkpt>
      <trkpt lat="45.23622" lon="6.19188">
        <ele>1988.2</ele>
        <time>2021-02-27T13:44:57Z</time>
      </trkpt>
      <trkpt lat="45.23622" lon="6.19188">
        <ele>1988.6</ele>
        <time>2021-02-27T13:44:58Z</time>
      </trkpt>
      <trkpt lat="45.2362" lon="6.1919">
        <ele>1988.6</ele>
        <time>2021-02-27T13:44:59Z</time>
      </trkpt>
      <trkpt lat="45.2362" lon="6.1919">
        <ele>1988.8</ele>
        <time>2021-02-27T13:45:00Z</time>
      </trkpt>
      <trkpt lat="45.23619" lon="6.19192">
        <ele>1988.8</ele>
        <time>2021-02-27T13:45:01Z</time>
      </trkpt>
      <trkpt lat="45.23619" lon="6.19192">
        <ele>1988.8</ele>
        <time>2021-02-27T13:45:02Z</time>
      </trkpt>
      <trkpt lat="45.23617" lon="6.19195">
        <ele>1988.8</ele>
        <time>2021-02-27T13:45:03Z</time>
      </trkpt>
      <trkpt lat="45.23617" lon="6.19195">
        <ele>1988.6</ele>
        <time>2021-02-27T13:45:04Z</time>
      </trkpt>
      <trkpt lat="45.23616" lon="6.19197">
        <ele>1988.8</ele>
        <time>2021-02-27T13:45:05Z</time>
      </trkpt>
      <trkpt lat="45.23616" lon="6.19197">
        <ele>1988.8</ele>
        <time>2021-02-27T13:45:06Z</time>
      </trkpt>
      <trkpt lat="45.23614" lon="6.19199">
        <ele>1988.6</ele>
        <time>2021-02-27T13:45:07Z</time>
      </trkpt>
      <trkpt lat="45.23614" lon="6.19199">
        <ele>1988.6</ele>
        <time>2021-02-27T13:45:08Z</time>
      </trkpt>
      <trkpt lat="45.23612" lon="6.19202">
        <ele>1988.4</ele>
        <time>2021-02-27T13:45:09Z</time>
      </trkpt>
      <trkpt lat="45.23612" lon="6.19202">
        <ele>1988.8</ele>
        <time>2021-02-27T13:45:10Z</time>
      </trkpt>
      <trkpt lat="45.23611" lon="6.19204">
        <ele>1988.8</ele>
        <time>2021-02-27T13:45:11Z</time>
      </trkpt>
      <trkpt lat="45.23611" lon="6.19204">
        <ele>1989</ele>
        <time>2021-02-27T13:45:12Z</time>
      </trkpt>
      <trkpt lat="45.23609" lon="6.19207">
        <ele>1989.6</ele>
        <time>2021-02-27T13:45:13Z</time>
      </trkpt>
      <trkpt lat="45.23609" lon="6.19207">
        <ele>1990</ele>
        <time>2021-02-27T13:45:14Z</time>
      </trkpt>
      <trkpt lat="45.23608" lon="6.19209">
        <ele>1990</ele>
        <time>2021-02-27T13:45:15Z</time>
      </trkpt>
      <trkpt lat="45.23608" lon="6.19209">
        <ele>1990</ele>
        <time>2021-02-27T13:45:16Z</time>
      </trkpt>
      <trkpt lat="45.23606" lon="6.19211">
        <ele>1989.8</ele>
        <time>2021-02-27T13:45:17Z</time>
      </trkpt>
      <trkpt lat="45.23606" lon="6.19211">
        <ele>1989.8</ele>
        <time>2021-02-27T13:45:18Z</time>
      </trkpt>
      <trkpt lat="45.23604" lon="6.19214">
        <ele>1989.8</ele>
        <time>2021-02-27T13:45:19Z</time>
      </trkpt>
      <trkpt lat="45.23604" lon="6.19214">
        <ele>1990.4</ele>
        <time>2021-02-27T13:45:20Z</time>
      </trkpt>
      <trkpt lat="45.23603" lon="6.19216">
        <ele>1990.2</ele>
        <time>2021-02-27T13:45:21Z</time>
      </trkpt>
      <trkpt lat="45.23603" lon="6.19216">
        <ele>1990.4</ele>
        <time>2021-02-27T13:45:22Z</time>
      </trkpt>
      <trkpt lat="45.23601" lon="6.19218">
        <ele>1990.2</ele>
        <time>2021-02-27T13:45:23Z</time>
      </trkpt>
      <trkpt lat="45.23601" lon="6.19218">
        <ele>1990.2</ele>
        <time>2021-02-27T13:45:24Z</time>
      </trkpt>
      <trkpt lat="45.236" lon="6.1922">
        <ele>1990.2</ele>
        <time>2021-02-27T13:45:25Z</time>
      </trkpt>
      <trkpt lat="45.236" lon="6.1922">
        <ele>1990.2</ele>
        <time>2021-02-27T13:45:26Z</time>
      </trkpt>
      <trkpt lat="45.23598" lon="6.19223">
        <ele>1990.4</ele>
        <time>2021-02-27T13:45:27Z</time>
      </trkpt>
      <trkpt lat="45.23598" lon="6.19223">
        <ele>1990.4</ele>
        <time>2021-02-27T13:45:28Z</time>
      </trkpt>
      <trkpt lat="45.23597" lon="6.19225">
        <ele>1990.2</ele>
        <time>2021-02-27T13:45:29Z</time>
      </trkpt>
      <trkpt lat="45.23597" lon="6.19225">
        <ele>1990.6</ele>
        <time>2021-02-27T13:45:30Z</time>
      </trkpt>
      <trkpt lat="45.23595" lon="6.19228">
        <ele>1990.6</ele>
        <time>2021-02-27T13:45:31Z</time>
      </trkpt>
      <trkpt lat="45.23595" lon="6.19228">
        <ele>1990.6</ele>
        <time>2021-02-27T13:45:32Z</time>
      </trkpt>
      <trkpt lat="45.23594" lon="6.1923">
        <ele>1991</ele>
        <time>2021-02-27T13:45:33Z</time>
      </trkpt>
      <trkpt lat="45.23594" lon="6.1923">
        <ele>1991.2</ele>
        <time>2021-02-27T13:45:34Z</time>
      </trkpt>
      <trkpt lat="45.23592" lon="6.19232">
        <ele>1991.6</ele>
        <time>2021-02-27T13:45:35Z</time>
      </trkpt>
      <trkpt lat="45.23592" lon="6.19232">
        <ele>1991.2</ele>
        <time>2021-02-27T13:45:36Z</time>
      </trkpt>
      <trkpt lat="45.23591" lon="6.19234">
        <ele>1991.2</ele>
        <time>2021-02-27T13:45:37Z</time>
      </trkpt>
      <trkpt lat="45.23591" lon="6.19234">
        <ele>1991.4</ele>
        <time>2021-02-27T13:45:38Z</time>
      </trkpt>
      <trkpt lat="45.23589" lon="6.19236">
        <ele>1991.6</ele>
        <time>2021-02-27T13:45:39Z</time>
      </trkpt>
      <trkpt lat="45.23589" lon="6.19236">
        <ele>1991.8</ele>
        <time>2021-02-27T13:45:40Z</time>
      </trkpt>
      <trkpt lat="45.23588" lon="6.19238">
        <ele>1992</ele>
        <time>2021-02-27T13:45:41Z</time>
      </trkpt>
      <trkpt lat="45.23588" lon="6.19238">
        <ele>1992.4</ele>
        <time>2021-02-27T13:45:42Z</time>
      </trkpt>
      <trkpt lat="45.23586" lon="6.19241">
        <ele>1992.4</ele>
        <time>2021-02-27T13:45:43Z</time>
      </trkpt>
      <trkpt lat="45.23586" lon="6.19241">
        <ele>1992.4</ele>
        <time>2021-02-27T13:45:44Z</time>
      </trkpt>
      <trkpt lat="45.23584" lon="6.19243">
        <ele>1992.8</ele>
        <time>2021-02-27T13:45:45Z</time>
      </trkpt>
      <trkpt lat="45.23584" lon="6.19243">
        <ele>1993</ele>
        <time>2021-02-27T13:45:46Z</time>
      </trkpt>
      <trkpt lat="45.23582" lon="6.19245">
        <ele>1993</ele>
        <time>2021-02-27T13:45:47Z</time>
      </trkpt>
      <trkpt lat="45.23582" lon="6.19245">
        <ele>1993</ele>
        <time>2021-02-27T13:45:48Z</time>
      </trkpt>
      <trkpt lat="45.23581" lon="6.19247">
        <ele>1993.2</ele>
        <time>2021-02-27T13:45:49Z</time>
      </trkpt>
      <trkpt lat="45.23581" lon="6.19247">
        <ele>1993.4</ele>
        <time>2021-02-27T13:45:50Z</time>
      </trkpt>
      <trkpt lat="45.23579" lon="6.19248">
        <ele>1993.2</ele>
        <time>2021-02-27T13:45:51Z</time>
      </trkpt>
      <trkpt lat="45.23579" lon="6.19248">
        <ele>1993.2</ele>
        <time>2021-02-27T13:45:52Z</time>
      </trkpt>
      <trkpt lat="45.23578" lon="6.19251">
        <ele>1993.4</ele>
        <time>2021-02-27T13:45:53Z</time>
      </trkpt>
      <trkpt lat="45.23578" lon="6.19251">
        <ele>1993.2</ele>
        <time>2021-02-27T13:45:54Z</time>
      </trkpt>
      <trkpt lat="45.23576" lon="6.19253">
        <ele>1993.2</ele>
        <time>2021-02-27T13:45:55Z</time>
      </trkpt>
      <trkpt lat="45.23576" lon="6.19253">
        <ele>1993.2</ele>
        <time>2021-02-27T13:45:56Z</time>
      </trkpt>
      <trkpt lat="45.23574" lon="6.19256">
        <ele>1993.2</ele>
        <time>2021-02-27T13:45:57Z</time>
      </trkpt>
      <trkpt lat="45.23574" lon="6.19256">
        <ele>1993.4</ele>
        <time>2021-02-27T13:45:58Z</time>
      </trkpt>
      <trkpt lat="45.23572" lon="6.19258">
        <ele>1993.2</ele>
        <time>2021-02-27T13:45:59Z</time>
      </trkpt>
      <trkpt lat="45.23572" lon="6.19258">
        <ele>1993.2</ele>
        <time>2021-02-27T13:46:00Z</time>
      </trkpt>
      <trkpt lat="45.2357" lon="6.1926">
        <ele>1993.4</ele>
        <time>2021-02-27T13:46:01Z</time>
      </trkpt>
      <trkpt lat="45.2357" lon="6.1926">
        <ele>1993.4</ele>
        <time>2021-02-27T13:46:02Z</time>
      </trkpt>
      <trkpt lat="45.23568" lon="6.19262">
        <ele>1993.4</ele>
        <time>2021-02-27T13:46:03Z</time>
      </trkpt>
      <trkpt lat="45.23568" lon="6.19262">
        <ele>1993.6</ele>
        <time>2021-02-27T13:46:04Z</time>
      </trkpt>
      <trkpt lat="45.23566" lon="6.19264">
        <ele>1993.8</ele>
        <time>2021-02-27T13:46:05Z</time>
      </trkpt>
      <trkpt lat="45.23566" lon="6.19264">
        <ele>1994</ele>
        <time>2021-02-27T13:46:06Z</time>
      </trkpt>
      <trkpt lat="45.23565" lon="6.19267">
        <ele>1994</ele>
        <time>2021-02-27T13:46:07Z</time>
      </trkpt>
      <trkpt lat="45.23565" lon="6.19267">
        <ele>1994.6</ele>
        <time>2021-02-27T13:46:08Z</time>
      </trkpt>
      <trkpt lat="45.23564" lon="6.19269">
        <ele>1994.6</ele>
        <time>2021-02-27T13:46:09Z</time>
      </trkpt>
      <trkpt lat="45.23564" lon="6.19269">
        <ele>1994.8</ele>
        <time>2021-02-27T13:46:10Z</time>
      </trkpt>
      <trkpt lat="45.23562" lon="6.19272">
        <ele>1995</ele>
        <time>2021-02-27T13:46:11Z</time>
      </trkpt>
      <trkpt lat="45.23562" lon="6.19272">
        <ele>1995.2</ele>
        <time>2021-02-27T13:46:12Z</time>
      </trkpt>
      <trkpt lat="45.23561" lon="6.19275">
        <ele>1995</ele>
        <time>2021-02-27T13:46:13Z</time>
      </trkpt>
      <trkpt lat="45.23561" lon="6.19275">
        <ele>1995.2</ele>
        <time>2021-02-27T13:46:14Z</time>
      </trkpt>
      <trkpt lat="45.23559" lon="6.19278">
        <ele>1995.2</ele>
        <time>2021-02-27T13:46:15Z</time>
      </trkpt>
      <trkpt lat="45.23559" lon="6.19278">
        <ele>1995.4</ele>
        <time>2021-02-27T13:46:16Z</time>
      </trkpt>
      <trkpt lat="45.23557" lon="6.19281">
        <ele>1995.8</ele>
        <time>2021-02-27T13:46:17Z</time>
      </trkpt>
      <trkpt lat="45.23557" lon="6.19281">
        <ele>1996</ele>
        <time>2021-02-27T13:46:18Z</time>
      </trkpt>
      <trkpt lat="45.23555" lon="6.19282">
        <ele>1995.8</ele>
        <time>2021-02-27T13:46:19Z</time>
      </trkpt>
      <trkpt lat="45.23555" lon="6.19282">
        <ele>1995.8</ele>
        <time>2021-02-27T13:46:20Z</time>
      </trkpt>
      <trkpt lat="45.23553" lon="6.19284">
        <ele>1996</ele>
        <time>2021-02-27T13:46:21Z</time>
      </trkpt>
      <trkpt lat="45.23553" lon="6.19284">
        <ele>1996</ele>
        <time>2021-02-27T13:46:22Z</time>
      </trkpt>
      <trkpt lat="45.23551" lon="6.19286">
        <ele>1996</ele>
        <time>2021-02-27T13:46:23Z</time>
      </trkpt>
      <trkpt lat="45.23551" lon="6.19286">
        <ele>1995.8</ele>
        <time>2021-02-27T13:46:24Z</time>
      </trkpt>
      <trkpt lat="45.23549" lon="6.19287">
        <ele>1995.8</ele>
        <time>2021-02-27T13:46:25Z</time>
      </trkpt>
      <trkpt lat="45.23549" lon="6.19287">
        <ele>1995.8</ele>
        <time>2021-02-27T13:46:26Z</time>
      </trkpt>
      <trkpt lat="45.23547" lon="6.19289">
        <ele>1995.6</ele>
        <time>2021-02-27T13:46:27Z</time>
      </trkpt>
      <trkpt lat="45.23547" lon="6.19289">
        <ele>1995.6</ele>
        <time>2021-02-27T13:46:28Z</time>
      </trkpt>
      <trkpt lat="45.23545" lon="6.1929">
        <ele>1996</ele>
        <time>2021-02-27T13:46:29Z</time>
      </trkpt>
      <trkpt lat="45.23545" lon="6.1929">
        <ele>1996.2</ele>
        <time>2021-02-27T13:46:30Z</time>
      </trkpt>
      <trkpt lat="45.23543" lon="6.19291">
        <ele>1996.4</ele>
        <time>2021-02-27T13:46:31Z</time>
      </trkpt>
      <trkpt lat="45.23543" lon="6.19291">
        <ele>1996.6</ele>
        <time>2021-02-27T13:46:32Z</time>
      </trkpt>
      <trkpt lat="45.23541" lon="6.19293">
        <ele>1996.2</ele>
        <time>2021-02-27T13:46:33Z</time>
      </trkpt>
      <trkpt lat="45.23541" lon="6.19293">
        <ele>1996.4</ele>
        <time>2021-02-27T13:46:34Z</time>
      </trkpt>
      <trkpt lat="45.23538" lon="6.19294">
        <ele>1996.8</ele>
        <time>2021-02-27T13:46:35Z</time>
      </trkpt>
      <trkpt lat="45.23538" lon="6.19294">
        <ele>1996.8</ele>
        <time>2021-02-27T13:46:36Z</time>
      </trkpt>
      <trkpt lat="45.23536" lon="6.19296">
        <ele>1996.8</ele>
        <time>2021-02-27T13:46:37Z</time>
      </trkpt>
      <trkpt lat="45.23536" lon="6.19296">
        <ele>1996.8</ele>
        <time>2021-02-27T13:46:38Z</time>
      </trkpt>
      <trkpt lat="45.23534" lon="6.19297">
        <ele>1997</ele>
        <time>2021-02-27T13:46:39Z</time>
      </trkpt>
      <trkpt lat="45.23534" lon="6.19297">
        <ele>1997</ele>
        <time>2021-02-27T13:46:40Z</time>
      </trkpt>
      <trkpt lat="45.23532" lon="6.19298">
        <ele>1997.2</ele>
        <time>2021-02-27T13:46:41Z</time>
      </trkpt>
      <trkpt lat="45.23532" lon="6.19298">
        <ele>1997.4</ele>
        <time>2021-02-27T13:46:42Z</time>
      </trkpt>
      <trkpt lat="45.2353" lon="6.19298">
        <ele>1997.4</ele>
        <time>2021-02-27T13:46:43Z</time>
      </trkpt>
      <trkpt lat="45.2353" lon="6.19298">
        <ele>1997.6</ele>
        <time>2021-02-27T13:46:44Z</time>
      </trkpt>
      <trkpt lat="45.23527" lon="6.19299">
        <ele>1997.6</ele>
        <time>2021-02-27T13:46:45Z</time>
      </trkpt>
      <trkpt lat="45.23527" lon="6.19299">
        <ele>1997.6</ele>
        <time>2021-02-27T13:46:46Z</time>
      </trkpt>
      <trkpt lat="45.23525" lon="6.193">
        <ele>1997.4</ele>
        <time>2021-02-27T13:46:47Z</time>
      </trkpt>
      <trkpt lat="45.23525" lon="6.193">
        <ele>1997.6</ele>
        <time>2021-02-27T13:46:48Z</time>
      </trkpt>
      <trkpt lat="45.23523" lon="6.19301">
        <ele>1997.6</ele>
        <time>2021-02-27T13:46:49Z</time>
      </trkpt>
      <trkpt lat="45.23523" lon="6.19301">
        <ele>1997.6</ele>
        <time>2021-02-27T13:46:50Z</time>
      </trkpt>
      <trkpt lat="45.2352" lon="6.19301">
        <ele>1997.6</ele>
        <time>2021-02-27T13:46:51Z</time>
      </trkpt>
      <trkpt lat="45.2352" lon="6.19301">
        <ele>1997.8</ele>
        <time>2021-02-27T13:46:52Z</time>
      </trkpt>
      <trkpt lat="45.23517" lon="6.19303">
        <ele>1997.8</ele>
        <time>2021-02-27T13:46:53Z</time>
      </trkpt>
      <trkpt lat="45.23517" lon="6.19303">
        <ele>1997.6</ele>
        <time>2021-02-27T13:46:54Z</time>
      </trkpt>
      <trkpt lat="45.23514" lon="6.19304">
        <ele>1997.4</ele>
        <time>2021-02-27T13:46:55Z</time>
      </trkpt>
      <trkpt lat="45.23514" lon="6.19304">
        <ele>1997.6</ele>
        <time>2021-02-27T13:46:56Z</time>
      </trkpt>
      <trkpt lat="45.23512" lon="6.19304">
        <ele>1997.6</ele>
        <time>2021-02-27T13:46:57Z</time>
      </trkpt>
      <trkpt lat="45.23512" lon="6.19304">
        <ele>1997.6</ele>
        <time>2021-02-27T13:46:58Z</time>
      </trkpt>
      <trkpt lat="45.2351" lon="6.19306">
        <ele>1997.8</ele>
        <time>2021-02-27T13:46:59Z</time>
      </trkpt>
      <trkpt lat="45.2351" lon="6.19306">
        <ele>1998.2</ele>
        <time>2021-02-27T13:47:00Z</time>
      </trkpt>
      <trkpt lat="45.23508" lon="6.19307">
        <ele>1998.4</ele>
        <time>2021-02-27T13:47:01Z</time>
      </trkpt>
      <trkpt lat="45.23508" lon="6.19307">
        <ele>1998.4</ele>
        <time>2021-02-27T13:47:02Z</time>
      </trkpt>
      <trkpt lat="45.23505" lon="6.19308">
        <ele>1998.4</ele>
        <time>2021-02-27T13:47:03Z</time>
      </trkpt>
      <trkpt lat="45.23505" lon="6.19308">
        <ele>1998.6</ele>
        <time>2021-02-27T13:47:04Z</time>
      </trkpt>
      <trkpt lat="45.23504" lon="6.19309">
        <ele>1998.6</ele>
        <time>2021-02-27T13:47:05Z</time>
      </trkpt>
      <trkpt lat="45.23504" lon="6.19309">
        <ele>1998.8</ele>
        <time>2021-02-27T13:47:06Z</time>
      </trkpt>
      <trkpt lat="45.23501" lon="6.19311">
        <ele>1999</ele>
        <time>2021-02-27T13:47:07Z</time>
      </trkpt>
      <trkpt lat="45.23501" lon="6.19311">
        <ele>1999.2</ele>
        <time>2021-02-27T13:47:08Z</time>
      </trkpt>
      <trkpt lat="45.23499" lon="6.19312">
        <ele>1999.2</ele>
        <time>2021-02-27T13:47:09Z</time>
      </trkpt>
      <trkpt lat="45.23499" lon="6.19312">
        <ele>1999.6</ele>
        <time>2021-02-27T13:47:10Z</time>
      </trkpt>
      <trkpt lat="45.23497" lon="6.19315">
        <ele>1999.6</ele>
        <time>2021-02-27T13:47:11Z</time>
      </trkpt>
      <trkpt lat="45.23497" lon="6.19315">
        <ele>1999.6</ele>
        <time>2021-02-27T13:47:12Z</time>
      </trkpt>
      <trkpt lat="45.23494" lon="6.19316">
        <ele>1999.2</ele>
        <time>2021-02-27T13:47:13Z</time>
      </trkpt>
      <trkpt lat="45.23494" lon="6.19316">
        <ele>1999.2</ele>
        <time>2021-02-27T13:47:14Z</time>
      </trkpt>
      <trkpt lat="45.23492" lon="6.19318">
        <ele>1999</ele>
        <time>2021-02-27T13:47:15Z</time>
      </trkpt>
      <trkpt lat="45.23492" lon="6.19318">
        <ele>1999</ele>
        <time>2021-02-27T13:47:16Z</time>
      </trkpt>
      <trkpt lat="45.23489" lon="6.19319">
        <ele>1999</ele>
        <time>2021-02-27T13:47:17Z</time>
      </trkpt>
      <trkpt lat="45.23489" lon="6.19319">
        <ele>1999.4</ele>
        <time>2021-02-27T13:47:18Z</time>
      </trkpt>
      <trkpt lat="45.23487" lon="6.1932">
        <ele>1999.6</ele>
        <time>2021-02-27T13:47:19Z</time>
      </trkpt>
      <trkpt lat="45.23487" lon="6.1932">
        <ele>2000</ele>
        <time>2021-02-27T13:47:20Z</time>
      </trkpt>
      <trkpt lat="45.23485" lon="6.19321">
        <ele>2000</ele>
        <time>2021-02-27T13:47:21Z</time>
      </trkpt>
      <trkpt lat="45.23485" lon="6.19321">
        <ele>2000.2</ele>
        <time>2021-02-27T13:47:22Z</time>
      </trkpt>
      <trkpt lat="45.23482" lon="6.19322">
        <ele>1999.8</ele>
        <time>2021-02-27T13:47:23Z</time>
      </trkpt>
      <trkpt lat="45.23482" lon="6.19322">
        <ele>1999.6</ele>
        <time>2021-02-27T13:47:24Z</time>
      </trkpt>
      <trkpt lat="45.2348" lon="6.19323">
        <ele>1999.6</ele>
        <time>2021-02-27T13:47:25Z</time>
      </trkpt>
      <trkpt lat="45.2348" lon="6.19323">
        <ele>1999.6</ele>
        <time>2021-02-27T13:47:26Z</time>
      </trkpt>
      <trkpt lat="45.23478" lon="6.19324">
        <ele>2000</ele>
        <time>2021-02-27T13:47:27Z</time>
      </trkpt>
      <trkpt lat="45.23478" lon="6.19324">
        <ele>2000</ele>
        <time>2021-02-27T13:47:28Z</time>
      </trkpt>
      <trkpt lat="45.23475" lon="6.19324">
        <ele>2000.4</ele>
        <time>2021-02-27T13:47:29Z</time>
      </trkpt>
      <trkpt lat="45.23475" lon="6.19324">
        <ele>2000.2</ele>
        <time>2021-02-27T13:47:30Z</time>
      </trkpt>
      <trkpt lat="45.23473" lon="6.19324">
        <ele>2000.2</ele>
        <time>2021-02-27T13:47:31Z</time>
      </trkpt>
      <trkpt lat="45.23473" lon="6.19324">
        <ele>2000.4</ele>
        <time>2021-02-27T13:47:32Z</time>
      </trkpt>
      <trkpt lat="45.23471" lon="6.19324">
        <ele>2000.8</ele>
        <time>2021-02-27T13:47:33Z</time>
      </trkpt>
      <trkpt lat="45.23471" lon="6.19324">
        <ele>2000.8</ele>
        <time>2021-02-27T13:47:34Z</time>
      </trkpt>
      <trkpt lat="45.23469" lon="6.19324">
        <ele>2000.8</ele>
        <time>2021-02-27T13:47:35Z</time>
      </trkpt>
      <trkpt lat="45.23469" lon="6.19324">
        <ele>2001</ele>
        <time>2021-02-27T13:47:36Z</time>
      </trkpt>
      <trkpt lat="45.23466" lon="6.19325">
        <ele>2001</ele>
        <time>2021-02-27T13:47:37Z</time>
      </trkpt>
      <trkpt lat="45.23466" lon="6.19325">
        <ele>2001.2</ele>
        <time>2021-02-27T13:47:38Z</time>
      </trkpt>
      <trkpt lat="45.23464" lon="6.19324">
        <ele>2001.2</ele>
        <time>2021-02-27T13:47:39Z</time>
      </trkpt>
      <trkpt lat="45.23464" lon="6.19324">
        <ele>2001.2</ele>
        <time>2021-02-27T13:47:40Z</time>
      </trkpt>
      <trkpt lat="45.23461" lon="6.19324">
        <ele>2001.2</ele>
        <time>2021-02-27T13:47:41Z</time>
      </trkpt>
      <trkpt lat="45.23461" lon="6.19324">
        <ele>2001.4</ele>
        <time>2021-02-27T13:47:42Z</time>
      </trkpt>
      <trkpt lat="45.23459" lon="6.19324">
        <ele>2001.2</ele>
        <time>2021-02-27T13:47:43Z</time>
      </trkpt>
      <trkpt lat="45.23459" lon="6.19324">
        <ele>2001.2</ele>
        <time>2021-02-27T13:47:44Z</time>
      </trkpt>
      <trkpt lat="45.23456" lon="6.19324">
        <ele>2000.8</ele>
        <time>2021-02-27T13:47:45Z</time>
      </trkpt>
      <trkpt lat="45.23456" lon="6.19324">
        <ele>2001</ele>
        <time>2021-02-27T13:47:46Z</time>
      </trkpt>
      <trkpt lat="45.23454" lon="6.19325">
        <ele>2001</ele>
        <time>2021-02-27T13:47:47Z</time>
      </trkpt>
      <trkpt lat="45.23454" lon="6.19325">
        <ele>2001.2</ele>
        <time>2021-02-27T13:47:48Z</time>
      </trkpt>
      <trkpt lat="45.23452" lon="6.19326">
        <ele>2001.2</ele>
        <time>2021-02-27T13:47:49Z</time>
      </trkpt>
      <trkpt lat="45.23452" lon="6.19326">
        <ele>2001.8</ele>
        <time>2021-02-27T13:47:50Z</time>
      </trkpt>
      <trkpt lat="45.2345" lon="6.19327">
        <ele>2001.8</ele>
        <time>2021-02-27T13:47:51Z</time>
      </trkpt>
      <trkpt lat="45.2345" lon="6.19327">
        <ele>2002.2</ele>
        <time>2021-02-27T13:47:52Z</time>
      </trkpt>
      <trkpt lat="45.23448" lon="6.19328">
        <ele>2001.8</ele>
        <time>2021-02-27T13:47:53Z</time>
      </trkpt>
      <trkpt lat="45.23448" lon="6.19328">
        <ele>2001.8</ele>
        <time>2021-02-27T13:47:54Z</time>
      </trkpt>
      <trkpt lat="45.23445" lon="6.19328">
        <ele>2001.8</ele>
        <time>2021-02-27T13:47:55Z</time>
      </trkpt>
      <trkpt lat="45.23445" lon="6.19328">
        <ele>2002.2</ele>
        <time>2021-02-27T13:47:56Z</time>
      </trkpt>
      <trkpt lat="45.23443" lon="6.19329">
        <ele>2002.4</ele>
        <time>2021-02-27T13:47:57Z</time>
      </trkpt>
      <trkpt lat="45.23443" lon="6.19329">
        <ele>2002.6</ele>
        <time>2021-02-27T13:47:58Z</time>
      </trkpt>
      <trkpt lat="45.2344" lon="6.19329">
        <ele>2002.4</ele>
        <time>2021-02-27T13:47:59Z</time>
      </trkpt>
      <trkpt lat="45.2344" lon="6.19329">
        <ele>2002.4</ele>
        <time>2021-02-27T13:48:00Z</time>
      </trkpt>
      <trkpt lat="45.23438" lon="6.19329">
        <ele>2002.8</ele>
        <time>2021-02-27T13:48:01Z</time>
      </trkpt>
      <trkpt lat="45.23438" lon="6.19329">
        <ele>2002.8</ele>
        <time>2021-02-27T13:48:02Z</time>
      </trkpt>
      <trkpt lat="45.23436" lon="6.19329">
        <ele>2003</ele>
        <time>2021-02-27T13:48:03Z</time>
      </trkpt>
      <trkpt lat="45.23436" lon="6.19329">
        <ele>2002.8</ele>
        <time>2021-02-27T13:48:04Z</time>
      </trkpt>
      <trkpt lat="45.23434" lon="6.19329">
        <ele>2003.2</ele>
        <time>2021-02-27T13:48:05Z</time>
      </trkpt>
      <trkpt lat="45.23434" lon="6.19329">
        <ele>2003.2</ele>
        <time>2021-02-27T13:48:06Z</time>
      </trkpt>
      <trkpt lat="45.23432" lon="6.19329">
        <ele>2003.6</ele>
        <time>2021-02-27T13:48:07Z</time>
      </trkpt>
      <trkpt lat="45.23432" lon="6.19329">
        <ele>2004</ele>
        <time>2021-02-27T13:48:08Z</time>
      </trkpt>
      <trkpt lat="45.2343" lon="6.19329">
        <ele>2003.8</ele>
        <time>2021-02-27T13:48:09Z</time>
      </trkpt>
      <trkpt lat="45.2343" lon="6.19329">
        <ele>2004.2</ele>
        <time>2021-02-27T13:48:10Z</time>
      </trkpt>
      <trkpt lat="45.23428" lon="6.19329">
        <ele>2004.4</ele>
        <time>2021-02-27T13:48:11Z</time>
      </trkpt>
      <trkpt lat="45.23428" lon="6.19329">
        <ele>2004.6</ele>
        <time>2021-02-27T13:48:12Z</time>
      </trkpt>
      <trkpt lat="45.23428" lon="6.19329">
        <ele>2004.8</ele>
        <time>2021-02-27T13:48:13Z</time>
      </trkpt>
      <trkpt lat="45.23425" lon="6.1933">
        <ele>2004.8</ele>
        <time>2021-02-27T13:48:14Z</time>
      </trkpt>
      <trkpt lat="45.23425" lon="6.1933">
        <ele>2004.6</ele>
        <time>2021-02-27T13:48:15Z</time>
      </trkpt>
      <trkpt lat="45.23423" lon="6.1933">
        <ele>2004.8</ele>
        <time>2021-02-27T13:48:16Z</time>
      </trkpt>
      <trkpt lat="45.23423" lon="6.1933">
        <ele>2004.4</ele>
        <time>2021-02-27T13:48:17Z</time>
      </trkpt>
      <trkpt lat="45.23421" lon="6.19331">
        <ele>2004.4</ele>
        <time>2021-02-27T13:48:18Z</time>
      </trkpt>
      <trkpt lat="45.23421" lon="6.19331">
        <ele>2004.8</ele>
        <time>2021-02-27T13:48:19Z</time>
      </trkpt>
      <trkpt lat="45.2342" lon="6.19333">
        <ele>2004.4</ele>
        <time>2021-02-27T13:48:20Z</time>
      </trkpt>
      <trkpt lat="45.2342" lon="6.19333">
        <ele>2004.6</ele>
        <time>2021-02-27T13:48:21Z</time>
      </trkpt>
      <trkpt lat="45.23418" lon="6.19335">
        <ele>2005.2</ele>
        <time>2021-02-27T13:48:22Z</time>
      </trkpt>
      <trkpt lat="45.23418" lon="6.19335">
        <ele>2005.2</ele>
        <time>2021-02-27T13:48:23Z</time>
      </trkpt>
      <trkpt lat="45.23417" lon="6.19337">
        <ele>2005.4</ele>
        <time>2021-02-27T13:48:24Z</time>
      </trkpt>
      <trkpt lat="45.23417" lon="6.19337">
        <ele>2005.6</ele>
        <time>2021-02-27T13:48:25Z</time>
      </trkpt>
      <trkpt lat="45.23416" lon="6.1934">
        <ele>2005.8</ele>
        <time>2021-02-27T13:48:26Z</time>
      </trkpt>
      <trkpt lat="45.23416" lon="6.1934">
        <ele>2005.4</ele>
        <time>2021-02-27T13:48:27Z</time>
      </trkpt>
      <trkpt lat="45.23414" lon="6.19343">
        <ele>2005.6</ele>
        <time>2021-02-27T13:48:28Z</time>
      </trkpt>
      <trkpt lat="45.23414" lon="6.19343">
        <ele>2005.6</ele>
        <time>2021-02-27T13:48:29Z</time>
      </trkpt>
      <trkpt lat="45.23412" lon="6.19346">
        <ele>2005.6</ele>
        <time>2021-02-27T13:48:30Z</time>
      </trkpt>
      <trkpt lat="45.23412" lon="6.19346">
        <ele>2005.4</ele>
        <time>2021-02-27T13:48:31Z</time>
      </trkpt>
      <trkpt lat="45.23411" lon="6.19349">
        <ele>2005.6</ele>
        <time>2021-02-27T13:48:32Z</time>
      </trkpt>
      <trkpt lat="45.23411" lon="6.19349">
        <ele>2005.6</ele>
        <time>2021-02-27T13:48:33Z</time>
      </trkpt>
      <trkpt lat="45.2341" lon="6.19351">
        <ele>2005.4</ele>
        <time>2021-02-27T13:48:34Z</time>
      </trkpt>
      <trkpt lat="45.2341" lon="6.19351">
        <ele>2005.4</ele>
        <time>2021-02-27T13:48:35Z</time>
      </trkpt>
      <trkpt lat="45.23408" lon="6.19355">
        <ele>2005.4</ele>
        <time>2021-02-27T13:48:36Z</time>
      </trkpt>
      <trkpt lat="45.23408" lon="6.19355">
        <ele>2005.6</ele>
        <time>2021-02-27T13:48:37Z</time>
      </trkpt>
      <trkpt lat="45.23406" lon="6.19358">
        <ele>2005.6</ele>
        <time>2021-02-27T13:48:38Z</time>
      </trkpt>
      <trkpt lat="45.23406" lon="6.19358">
        <ele>2005.8</ele>
        <time>2021-02-27T13:48:39Z</time>
      </trkpt>
      <trkpt lat="45.23405" lon="6.19361">
        <ele>2005.2</ele>
        <time>2021-02-27T13:48:40Z</time>
      </trkpt>
      <trkpt lat="45.23405" lon="6.19361">
        <ele>2005.2</ele>
        <time>2021-02-27T13:48:41Z</time>
      </trkpt>
      <trkpt lat="45.23404" lon="6.19364">
        <ele>2005.6</ele>
        <time>2021-02-27T13:48:42Z</time>
      </trkpt>
      <trkpt lat="45.23404" lon="6.19364">
        <ele>2005.2</ele>
        <time>2021-02-27T13:48:43Z</time>
      </trkpt>
      <trkpt lat="45.23403" lon="6.19367">
        <ele>2005</ele>
        <time>2021-02-27T13:48:44Z</time>
      </trkpt>
      <trkpt lat="45.23403" lon="6.19367">
        <ele>2005.4</ele>
        <time>2021-02-27T13:48:45Z</time>
      </trkpt>
      <trkpt lat="45.23402" lon="6.1937">
        <ele>2005</ele>
        <time>2021-02-27T13:48:46Z</time>
      </trkpt>
      <trkpt lat="45.23402" lon="6.1937">
        <ele>2004.8</ele>
        <time>2021-02-27T13:48:47Z</time>
      </trkpt>
      <trkpt lat="45.23401" lon="6.19373">
        <ele>2004.4</ele>
        <time>2021-02-27T13:48:48Z</time>
      </trkpt>
      <trkpt lat="45.23401" lon="6.19373">
        <ele>2004.2</ele>
        <time>2021-02-27T13:48:49Z</time>
      </trkpt>
      <trkpt lat="45.234" lon="6.19376">
        <ele>2004.2</ele>
        <time>2021-02-27T13:48:50Z</time>
      </trkpt>
      <trkpt lat="45.234" lon="6.19376">
        <ele>2004.6</ele>
        <time>2021-02-27T13:48:51Z</time>
      </trkpt>
      <trkpt lat="45.234" lon="6.19379">
        <ele>2004.8</ele>
        <time>2021-02-27T13:48:52Z</time>
      </trkpt>
      <trkpt lat="45.234" lon="6.19379">
        <ele>2005</ele>
        <time>2021-02-27T13:48:53Z</time>
      </trkpt>
      <trkpt lat="45.234" lon="6.19382">
        <ele>2005.4</ele>
        <time>2021-02-27T13:48:54Z</time>
      </trkpt>
      <trkpt lat="45.234" lon="6.19382">
        <ele>2005.6</ele>
        <time>2021-02-27T13:48:55Z</time>
      </trkpt>
      <trkpt lat="45.23399" lon="6.19384">
        <ele>2005.4</ele>
        <time>2021-02-27T13:48:56Z</time>
      </trkpt>
      <trkpt lat="45.23399" lon="6.19384">
        <ele>2005.4</ele>
        <time>2021-02-27T13:48:57Z</time>
      </trkpt>
      <trkpt lat="45.23398" lon="6.19388">
        <ele>2005.8</ele>
        <time>2021-02-27T13:48:58Z</time>
      </trkpt>
      <trkpt lat="45.23398" lon="6.19388">
        <ele>2005.8</ele>
        <time>2021-02-27T13:48:59Z</time>
      </trkpt>
      <trkpt lat="45.23397" lon="6.1939">
        <ele>2006</ele>
        <time>2021-02-27T13:49:00Z</time>
      </trkpt>
      <trkpt lat="45.23397" lon="6.1939">
        <ele>2005.8</ele>
        <time>2021-02-27T13:49:01Z</time>
      </trkpt>
      <trkpt lat="45.23397" lon="6.19394">
        <ele>2005.8</ele>
        <time>2021-02-27T13:49:02Z</time>
      </trkpt>
      <trkpt lat="45.23397" lon="6.19394">
        <ele>2005.8</ele>
        <time>2021-02-27T13:49:03Z</time>
      </trkpt>
      <trkpt lat="45.23396" lon="6.19397">
        <ele>2005.8</ele>
        <time>2021-02-27T13:49:04Z</time>
      </trkpt>
      <trkpt lat="45.23396" lon="6.19397">
        <ele>2006</ele>
        <time>2021-02-27T13:49:05Z</time>
      </trkpt>
      <trkpt lat="45.23396" lon="6.19401">
        <ele>2006.2</ele>
        <time>2021-02-27T13:49:06Z</time>
      </trkpt>
      <trkpt lat="45.23396" lon="6.19401">
        <ele>2006.2</ele>
        <time>2021-02-27T13:49:07Z</time>
      </trkpt>
      <trkpt lat="45.23396" lon="6.19403">
        <ele>2006.2</ele>
        <time>2021-02-27T13:49:08Z</time>
      </trkpt>
      <trkpt lat="45.23396" lon="6.19403">
        <ele>2006.2</ele>
        <time>2021-02-27T13:49:09Z</time>
      </trkpt>
      <trkpt lat="45.23396" lon="6.19407">
        <ele>2006.6</ele>
        <time>2021-02-27T13:49:10Z</time>
      </trkpt>
      <trkpt lat="45.23396" lon="6.19407">
        <ele>2006.4</ele>
        <time>2021-02-27T13:49:11Z</time>
      </trkpt>
      <trkpt lat="45.23397" lon="6.19409">
        <ele>2006.4</ele>
        <time>2021-02-27T13:49:12Z</time>
      </trkpt>
      <trkpt lat="45.23397" lon="6.19409">
        <ele>2006.2</ele>
        <time>2021-02-27T13:49:13Z</time>
      </trkpt>
      <trkpt lat="45.23398" lon="6.19412">
        <ele>2006.2</ele>
        <time>2021-02-27T13:49:14Z</time>
      </trkpt>
      <trkpt lat="45.23398" lon="6.19412">
        <ele>2006.4</ele>
        <time>2021-02-27T13:49:15Z</time>
      </trkpt>
      <trkpt lat="45.23398" lon="6.19412">
        <ele>2006.6</ele>
        <time>2021-02-27T13:49:16Z</time>
      </trkpt>
      <trkpt lat="45.23399" lon="6.19415">
        <ele>2007</ele>
        <time>2021-02-27T13:49:17Z</time>
      </trkpt>
      <trkpt lat="45.23399" lon="6.19415">
        <ele>2007</ele>
        <time>2021-02-27T13:49:18Z</time>
      </trkpt>
      <trkpt lat="45.23399" lon="6.19415">
        <ele>2007.4</ele>
        <time>2021-02-27T13:49:19Z</time>
      </trkpt>
      <trkpt lat="45.234" lon="6.19417">
        <ele>2007.6</ele>
        <time>2021-02-27T13:49:20Z</time>
      </trkpt>
      <trkpt lat="45.234" lon="6.19417">
        <ele>2007.8</ele>
        <time>2021-02-27T13:49:21Z</time>
      </trkpt>
      <trkpt lat="45.23402" lon="6.19419">
        <ele>2008</ele>
        <time>2021-02-27T13:49:22Z</time>
      </trkpt>
      <trkpt lat="45.23402" lon="6.19419">
        <ele>2008.2</ele>
        <time>2021-02-27T13:49:23Z</time>
      </trkpt>
      <trkpt lat="45.23406" lon="6.19421">
        <ele>2008.6</ele>
        <time>2021-02-27T13:49:24Z</time>
      </trkpt>
      <trkpt lat="45.23406" lon="6.19421">
        <ele>2009</ele>
        <time>2021-02-27T13:49:25Z</time>
      </trkpt>
      <trkpt lat="45.23406" lon="6.19421">
        <ele>2009.2</ele>
        <time>2021-02-27T13:49:26Z</time>
      </trkpt>
      <trkpt lat="45.23408" lon="6.19423">
        <ele>2009.2</ele>
        <time>2021-02-27T13:49:27Z</time>
      </trkpt>
      <trkpt lat="45.23408" lon="6.19423">
        <ele>2009.4</ele>
        <time>2021-02-27T13:49:28Z</time>
      </trkpt>
      <trkpt lat="45.23408" lon="6.19423">
        <ele>2009.4</ele>
        <time>2021-02-27T13:49:29Z</time>
      </trkpt>
      <trkpt lat="45.23409" lon="6.19426">
        <ele>2009.6</ele>
        <time>2021-02-27T13:49:30Z</time>
      </trkpt>
      <trkpt lat="45.23409" lon="6.19426">
        <ele>2009.8</ele>
        <time>2021-02-27T13:49:31Z</time>
      </trkpt>
      <trkpt lat="45.23409" lon="6.19426">
        <ele>2009.2</ele>
        <time>2021-02-27T13:49:32Z</time>
      </trkpt>
      <trkpt lat="45.23411" lon="6.19428">
        <ele>2009</ele>
        <time>2021-02-27T13:49:33Z</time>
      </trkpt>
      <trkpt lat="45.23411" lon="6.19428">
        <ele>2009.2</ele>
        <time>2021-02-27T13:49:34Z</time>
      </trkpt>
      <trkpt lat="45.23413" lon="6.1943">
        <ele>2008.4</ele>
        <time>2021-02-27T13:49:35Z</time>
      </trkpt>
      <trkpt lat="45.23413" lon="6.1943">
        <ele>2008.6</ele>
        <time>2021-02-27T13:49:36Z</time>
      </trkpt>
      <trkpt lat="45.23414" lon="6.19433">
        <ele>2008.8</ele>
        <time>2021-02-27T13:49:37Z</time>
      </trkpt>
      <trkpt lat="45.23414" lon="6.19433">
        <ele>2009.6</ele>
        <time>2021-02-27T13:49:38Z</time>
      </trkpt>
      <trkpt lat="45.23415" lon="6.19436">
        <ele>2009.8</ele>
        <time>2021-02-27T13:49:39Z</time>
      </trkpt>
      <trkpt lat="45.23415" lon="6.19436">
        <ele>2009.8</ele>
        <time>2021-02-27T13:49:40Z</time>
      </trkpt>
      <trkpt lat="45.23416" lon="6.19438">
        <ele>2009.4</ele>
        <time>2021-02-27T13:49:41Z</time>
      </trkpt>
      <trkpt lat="45.23416" lon="6.19438">
        <ele>2009.8</ele>
        <time>2021-02-27T13:49:42Z</time>
      </trkpt>
      <trkpt lat="45.23417" lon="6.1944">
        <ele>2009.6</ele>
        <time>2021-02-27T13:49:43Z</time>
      </trkpt>
      <trkpt lat="45.23417" lon="6.1944">
        <ele>2009.8</ele>
        <time>2021-02-27T13:49:44Z</time>
      </trkpt>
      <trkpt lat="45.23418" lon="6.19442">
        <ele>2010.2</ele>
        <time>2021-02-27T13:49:45Z</time>
      </trkpt>
      <trkpt lat="45.23418" lon="6.19442">
        <ele>2010.2</ele>
        <time>2021-02-27T13:49:46Z</time>
      </trkpt>
      <trkpt lat="45.23419" lon="6.19445">
        <ele>2010.2</ele>
        <time>2021-02-27T13:49:47Z</time>
      </trkpt>
      <trkpt lat="45.23419" lon="6.19445">
        <ele>2010.4</ele>
        <time>2021-02-27T13:49:48Z</time>
      </trkpt>
      <trkpt lat="45.2342" lon="6.19447">
        <ele>2010.6</ele>
        <time>2021-02-27T13:49:49Z</time>
      </trkpt>
      <trkpt lat="45.2342" lon="6.19447">
        <ele>2010.8</ele>
        <time>2021-02-27T13:49:50Z</time>
      </trkpt>
      <trkpt lat="45.23421" lon="6.19449">
        <ele>2011.2</ele>
        <time>2021-02-27T13:49:51Z</time>
      </trkpt>
      <trkpt lat="45.23421" lon="6.19449">
        <ele>2011.4</ele>
        <time>2021-02-27T13:49:52Z</time>
      </trkpt>
      <trkpt lat="45.23423" lon="6.19453">
        <ele>2011.6</ele>
        <time>2021-02-27T13:49:53Z</time>
      </trkpt>
      <trkpt lat="45.23423" lon="6.19453">
        <ele>2011.8</ele>
        <time>2021-02-27T13:49:54Z</time>
      </trkpt>
      <trkpt lat="45.23423" lon="6.19453">
        <ele>2011.6</ele>
        <time>2021-02-27T13:49:55Z</time>
      </trkpt>
      <trkpt lat="45.23424" lon="6.19456">
        <ele>2012</ele>
        <time>2021-02-27T13:49:56Z</time>
      </trkpt>
      <trkpt lat="45.23424" lon="6.19456">
        <ele>2012.2</ele>
        <time>2021-02-27T13:49:57Z</time>
      </trkpt>
      <trkpt lat="45.23424" lon="6.19456">
        <ele>2012</ele>
        <time>2021-02-27T13:49:58Z</time>
      </trkpt>
      <trkpt lat="45.23426" lon="6.19458">
        <ele>2012.4</ele>
        <time>2021-02-27T13:49:59Z</time>
      </trkpt>
      <trkpt lat="45.23426" lon="6.19458">
        <ele>2012.4</ele>
        <time>2021-02-27T13:50:00Z</time>
      </trkpt>
      <trkpt lat="45.23427" lon="6.1946">
        <ele>2012.2</ele>
        <time>2021-02-27T13:50:01Z</time>
      </trkpt>
      <trkpt lat="45.23427" lon="6.1946">
        <ele>2012</ele>
        <time>2021-02-27T13:50:02Z</time>
      </trkpt>
      <trkpt lat="45.23429" lon="6.19462">
        <ele>2011.6</ele>
        <time>2021-02-27T13:50:03Z</time>
      </trkpt>
      <trkpt lat="45.23429" lon="6.19462">
        <ele>2012</ele>
        <time>2021-02-27T13:50:04Z</time>
      </trkpt>
      <trkpt lat="45.23429" lon="6.19462">
        <ele>2011.6</ele>
        <time>2021-02-27T13:50:05Z</time>
      </trkpt>
      <trkpt lat="45.2343" lon="6.19465">
        <ele>2011.8</ele>
        <time>2021-02-27T13:50:06Z</time>
      </trkpt>
      <trkpt lat="45.2343" lon="6.19465">
        <ele>2011.8</ele>
        <time>2021-02-27T13:50:07Z</time>
      </trkpt>
      <trkpt lat="45.2343" lon="6.19465">
        <ele>2011.8</ele>
        <time>2021-02-27T13:50:08Z</time>
      </trkpt>
      <trkpt lat="45.23432" lon="6.19468">
        <ele>2012</ele>
        <time>2021-02-27T13:50:09Z</time>
      </trkpt>
      <trkpt lat="45.23432" lon="6.19468">
        <ele>2012.2</ele>
        <time>2021-02-27T13:50:10Z</time>
      </trkpt>
      <trkpt lat="45.23433" lon="6.19471">
        <ele>2012.8</ele>
        <time>2021-02-27T13:50:11Z</time>
      </trkpt>
      <trkpt lat="45.23433" lon="6.19471">
        <ele>2013</ele>
        <time>2021-02-27T13:50:12Z</time>
      </trkpt>
      <trkpt lat="45.23434" lon="6.19473">
        <ele>2013.2</ele>
        <time>2021-02-27T13:50:13Z</time>
      </trkpt>
      <trkpt lat="45.23434" lon="6.19473">
        <ele>2013.4</ele>
        <time>2021-02-27T13:50:14Z</time>
      </trkpt>
      <trkpt lat="45.23435" lon="6.19476">
        <ele>2013.6</ele>
        <time>2021-02-27T13:50:15Z</time>
      </trkpt>
      <trkpt lat="45.23435" lon="6.19476">
        <ele>2013.8</ele>
        <time>2021-02-27T13:50:16Z</time>
      </trkpt>
      <trkpt lat="45.23435" lon="6.19478">
        <ele>2013.4</ele>
        <time>2021-02-27T13:50:17Z</time>
      </trkpt>
      <trkpt lat="45.23435" lon="6.19478">
        <ele>2013.6</ele>
        <time>2021-02-27T13:50:18Z</time>
      </trkpt>
      <trkpt lat="45.23436" lon="6.19481">
        <ele>2013.2</ele>
        <time>2021-02-27T13:50:19Z</time>
      </trkpt>
      <trkpt lat="45.23436" lon="6.19481">
        <ele>2013.4</ele>
        <time>2021-02-27T13:50:20Z</time>
      </trkpt>
      <trkpt lat="45.23438" lon="6.19483">
        <ele>2013.8</ele>
        <time>2021-02-27T13:50:21Z</time>
      </trkpt>
      <trkpt lat="45.23438" lon="6.19483">
        <ele>2013.8</ele>
        <time>2021-02-27T13:50:22Z</time>
      </trkpt>
      <trkpt lat="45.23439" lon="6.19485">
        <ele>2014.4</ele>
        <time>2021-02-27T13:50:23Z</time>
      </trkpt>
      <trkpt lat="45.23439" lon="6.19485">
        <ele>2014.6</ele>
        <time>2021-02-27T13:50:24Z</time>
      </trkpt>
      <trkpt lat="45.2344" lon="6.19487">
        <ele>2014.8</ele>
        <time>2021-02-27T13:50:25Z</time>
      </trkpt>
      <trkpt lat="45.2344" lon="6.19487">
        <ele>2015.2</ele>
        <time>2021-02-27T13:50:26Z</time>
      </trkpt>
      <trkpt lat="45.23441" lon="6.19489">
        <ele>2015</ele>
        <time>2021-02-27T13:50:27Z</time>
      </trkpt>
      <trkpt lat="45.23441" lon="6.19489">
        <ele>2015.2</ele>
        <time>2021-02-27T13:50:28Z</time>
      </trkpt>
      <trkpt lat="45.23443" lon="6.19491">
        <ele>2015.6</ele>
        <time>2021-02-27T13:50:29Z</time>
      </trkpt>
      <trkpt lat="45.23443" lon="6.19491">
        <ele>2015.6</ele>
        <time>2021-02-27T13:50:30Z</time>
      </trkpt>
      <trkpt lat="45.23445" lon="6.19493">
        <ele>2015.6</ele>
        <time>2021-02-27T13:50:31Z</time>
      </trkpt>
      <trkpt lat="45.23445" lon="6.19493">
        <ele>2015.8</ele>
        <time>2021-02-27T13:50:32Z</time>
      </trkpt>
      <trkpt lat="45.23446" lon="6.19495">
        <ele>2015.8</ele>
        <time>2021-02-27T13:50:33Z</time>
      </trkpt>
      <trkpt lat="45.23446" lon="6.19495">
        <ele>2016.2</ele>
        <time>2021-02-27T13:50:34Z</time>
      </trkpt>
      <trkpt lat="45.23446" lon="6.19495">
        <ele>2016.4</ele>
        <time>2021-02-27T13:50:35Z</time>
      </trkpt>
      <trkpt lat="45.23448" lon="6.19499">
        <ele>2016.4</ele>
        <time>2021-02-27T13:50:36Z</time>
      </trkpt>
      <trkpt lat="45.23448" lon="6.19499">
        <ele>2016.4</ele>
        <time>2021-02-27T13:50:37Z</time>
      </trkpt>
      <trkpt lat="45.23448" lon="6.19499">
        <ele>2016.2</ele>
        <time>2021-02-27T13:50:38Z</time>
      </trkpt>
      <trkpt lat="45.2345" lon="6.19502">
        <ele>2016.4</ele>
        <time>2021-02-27T13:50:39Z</time>
      </trkpt>
      <trkpt lat="45.2345" lon="6.19502">
        <ele>2016.2</ele>
        <time>2021-02-27T13:50:40Z</time>
      </trkpt>
      <trkpt lat="45.23451" lon="6.19504">
        <ele>2016.4</ele>
        <time>2021-02-27T13:50:41Z</time>
      </trkpt>
      <trkpt lat="45.23451" lon="6.19504">
        <ele>2016.2</ele>
        <time>2021-02-27T13:50:42Z</time>
      </trkpt>
      <trkpt lat="45.23452" lon="6.19506">
        <ele>2016.2</ele>
        <time>2021-02-27T13:50:43Z</time>
      </trkpt>
      <trkpt lat="45.23452" lon="6.19506">
        <ele>2016.2</ele>
        <time>2021-02-27T13:50:44Z</time>
      </trkpt>
      <trkpt lat="45.23453" lon="6.19508">
        <ele>2016.4</ele>
        <time>2021-02-27T13:50:45Z</time>
      </trkpt>
      <trkpt lat="45.23453" lon="6.19508">
        <ele>2016.8</ele>
        <time>2021-02-27T13:50:46Z</time>
      </trkpt>
      <trkpt lat="45.23453" lon="6.19508">
        <ele>2016.8</ele>
        <time>2021-02-27T13:50:47Z</time>
      </trkpt>
      <trkpt lat="45.23456" lon="6.19511">
        <ele>2017</ele>
        <time>2021-02-27T13:50:48Z</time>
      </trkpt>
      <trkpt lat="45.23456" lon="6.19511">
        <ele>2017.2</ele>
        <time>2021-02-27T13:50:49Z</time>
      </trkpt>
      <trkpt lat="45.23457" lon="6.19513">
        <ele>2018</ele>
        <time>2021-02-27T13:50:50Z</time>
      </trkpt>
      <trkpt lat="45.23457" lon="6.19513">
        <ele>2017.8</ele>
        <time>2021-02-27T13:50:51Z</time>
      </trkpt>
      <trkpt lat="45.23458" lon="6.19515">
        <ele>2017.8</ele>
        <time>2021-02-27T13:50:52Z</time>
      </trkpt>
      <trkpt lat="45.23458" lon="6.19515">
        <ele>2017.6</ele>
        <time>2021-02-27T13:50:53Z</time>
      </trkpt>
      <trkpt lat="45.2346" lon="6.19517">
        <ele>2017.6</ele>
        <time>2021-02-27T13:50:54Z</time>
      </trkpt>
      <trkpt lat="45.2346" lon="6.19517">
        <ele>2017.6</ele>
        <time>2021-02-27T13:50:55Z</time>
      </trkpt>
      <trkpt lat="45.2346" lon="6.19517">
        <ele>2017.8</ele>
        <time>2021-02-27T13:50:56Z</time>
      </trkpt>
      <trkpt lat="45.23462" lon="6.19519">
        <ele>2018</ele>
        <time>2021-02-27T13:50:57Z</time>
      </trkpt>
      <trkpt lat="45.23462" lon="6.19519">
        <ele>2019</ele>
        <time>2021-02-27T13:50:59Z</time>
      </trkpt>
      <trkpt lat="45.23463" lon="6.19522">
        <ele>2019.2</ele>
        <time>2021-02-27T13:51:00Z</time>
      </trkpt>
      <trkpt lat="45.23463" lon="6.19522">
        <ele>2019.2</ele>
        <time>2021-02-27T13:51:01Z</time>
      </trkpt>
      <trkpt lat="45.23463" lon="6.19522">
        <ele>2019.6</ele>
        <time>2021-02-27T13:51:02Z</time>
      </trkpt>
      <trkpt lat="45.23465" lon="6.19524">
        <ele>2019.4</ele>
        <time>2021-02-27T13:51:03Z</time>
      </trkpt>
      <trkpt lat="45.23465" lon="6.19524">
        <ele>2019.4</ele>
        <time>2021-02-27T13:51:04Z</time>
      </trkpt>
      <trkpt lat="45.23465" lon="6.19524">
        <ele>2019</ele>
        <time>2021-02-27T13:51:05Z</time>
      </trkpt>
      <trkpt lat="45.23467" lon="6.19527">
        <ele>2019</ele>
        <time>2021-02-27T13:51:06Z</time>
      </trkpt>
      <trkpt lat="45.23467" lon="6.19527">
        <ele>2018.8</ele>
        <time>2021-02-27T13:51:07Z</time>
      </trkpt>
      <trkpt lat="45.23469" lon="6.19529">
        <ele>2019.2</ele>
        <time>2021-02-27T13:51:08Z</time>
      </trkpt>
      <trkpt lat="45.23469" lon="6.19529">
        <ele>2019.6</ele>
        <time>2021-02-27T13:51:09Z</time>
      </trkpt>
      <trkpt lat="45.23471" lon="6.19531">
        <ele>2019.8</ele>
        <time>2021-02-27T13:51:10Z</time>
      </trkpt>
      <trkpt lat="45.23471" lon="6.19531">
        <ele>2020.2</ele>
        <time>2021-02-27T13:51:11Z</time>
      </trkpt>
      <trkpt lat="45.23471" lon="6.19531">
        <ele>2020.2</ele>
        <time>2021-02-27T13:51:12Z</time>
      </trkpt>
      <trkpt lat="45.23473" lon="6.19532">
        <ele>2020.2</ele>
        <time>2021-02-27T13:51:13Z</time>
      </trkpt>
      <trkpt lat="45.23473" lon="6.19532">
        <ele>2020.6</ele>
        <time>2021-02-27T13:51:14Z</time>
      </trkpt>
      <trkpt lat="45.23473" lon="6.19532">
        <ele>2020.6</ele>
        <time>2021-02-27T13:51:15Z</time>
      </trkpt>
      <trkpt lat="45.23476" lon="6.19535">
        <ele>2021</ele>
        <time>2021-02-27T13:51:16Z</time>
      </trkpt>
      <trkpt lat="45.23476" lon="6.19535">
        <ele>2021.4</ele>
        <time>2021-02-27T13:51:17Z</time>
      </trkpt>
      <trkpt lat="45.23476" lon="6.19535">
        <ele>2021.6</ele>
        <time>2021-02-27T13:51:18Z</time>
      </trkpt>
      <trkpt lat="45.23478" lon="6.19537">
        <ele>2021.8</ele>
        <time>2021-02-27T13:51:19Z</time>
      </trkpt>
      <trkpt lat="45.23478" lon="6.19537">
        <ele>2021.8</ele>
        <time>2021-02-27T13:51:20Z</time>
      </trkpt>
      <trkpt lat="45.23478" lon="6.19537">
        <ele>2021.8</ele>
        <time>2021-02-27T13:51:21Z</time>
      </trkpt>
      <trkpt lat="45.23479" lon="6.1954">
        <ele>2022</ele>
        <time>2021-02-27T13:51:22Z</time>
      </trkpt>
      <trkpt lat="45.23479" lon="6.1954">
        <ele>2021.8</ele>
        <time>2021-02-27T13:51:23Z</time>
      </trkpt>
      <trkpt lat="45.23479" lon="6.1954">
        <ele>2022</ele>
        <time>2021-02-27T13:51:24Z</time>
      </trkpt>
      <trkpt lat="45.23481" lon="6.19542">
        <ele>2022.2</ele>
        <time>2021-02-27T13:51:25Z</time>
      </trkpt>
      <trkpt lat="45.23481" lon="6.19542">
        <ele>2022.2</ele>
        <time>2021-02-27T13:51:26Z</time>
      </trkpt>
      <trkpt lat="45.23482" lon="6.19543">
        <ele>2022.2</ele>
        <time>2021-02-27T13:51:27Z</time>
      </trkpt>
      <trkpt lat="45.23482" lon="6.19543">
        <ele>2022.4</ele>
        <time>2021-02-27T13:51:28Z</time>
      </trkpt>
      <trkpt lat="45.23484" lon="6.19545">
        <ele>2022.6</ele>
        <time>2021-02-27T13:51:29Z</time>
      </trkpt>
      <trkpt lat="45.23484" lon="6.19545">
        <ele>2022.8</ele>
        <time>2021-02-27T13:51:30Z</time>
      </trkpt>
      <trkpt lat="45.23484" lon="6.19545">
        <ele>2023</ele>
        <time>2021-02-27T13:51:31Z</time>
      </trkpt>
      <trkpt lat="45.23486" lon="6.19547">
        <ele>2023</ele>
        <time>2021-02-27T13:51:32Z</time>
      </trkpt>
      <trkpt lat="45.23486" lon="6.19547">
        <ele>2023.6</ele>
        <time>2021-02-27T13:51:33Z</time>
      </trkpt>
      <trkpt lat="45.23487" lon="6.19549">
        <ele>2023.6</ele>
        <time>2021-02-27T13:51:34Z</time>
      </trkpt>
      <trkpt lat="45.23487" lon="6.19549">
        <ele>2023.4</ele>
        <time>2021-02-27T13:51:35Z</time>
      </trkpt>
      <trkpt lat="45.23487" lon="6.19549">
        <ele>2023.6</ele>
        <time>2021-02-27T13:51:36Z</time>
      </trkpt>
      <trkpt lat="45.23489" lon="6.19551">
        <ele>2024</ele>
        <time>2021-02-27T13:51:37Z</time>
      </trkpt>
      <trkpt lat="45.23489" lon="6.19551">
        <ele>2024</ele>
        <time>2021-02-27T13:51:38Z</time>
      </trkpt>
      <trkpt lat="45.23489" lon="6.19551">
        <ele>2024</ele>
        <time>2021-02-27T13:51:39Z</time>
      </trkpt>
      <trkpt lat="45.23491" lon="6.19554">
        <ele>2024.4</ele>
        <time>2021-02-27T13:51:40Z</time>
      </trkpt>
      <trkpt lat="45.23491" lon="6.19554">
        <ele>2024.6</ele>
        <time>2021-02-27T13:51:41Z</time>
      </trkpt>
      <trkpt lat="45.23491" lon="6.19554">
        <ele>2024.8</ele>
        <time>2021-02-27T13:51:42Z</time>
      </trkpt>
      <trkpt lat="45.23493" lon="6.19556">
        <ele>2024.8</ele>
        <time>2021-02-27T13:51:43Z</time>
      </trkpt>
      <trkpt lat="45.23493" lon="6.19556">
        <ele>2025.2</ele>
        <time>2021-02-27T13:51:44Z</time>
      </trkpt>
      <trkpt lat="45.23493" lon="6.19556">
        <ele>2025.4</ele>
        <time>2021-02-27T13:51:45Z</time>
      </trkpt>
      <trkpt lat="45.23495" lon="6.19559">
        <ele>2025.4</ele>
        <time>2021-02-27T13:51:46Z</time>
      </trkpt>
      <trkpt lat="45.23495" lon="6.19559">
        <ele>2026</ele>
        <time>2021-02-27T13:51:47Z</time>
      </trkpt>
      <trkpt lat="45.23495" lon="6.19559">
        <ele>2026.4</ele>
        <time>2021-02-27T13:51:48Z</time>
      </trkpt>
      <trkpt lat="45.23497" lon="6.19561">
        <ele>2026.2</ele>
        <time>2021-02-27T13:51:49Z</time>
      </trkpt>
      <trkpt lat="45.23497" lon="6.19561">
        <ele>2026.6</ele>
        <time>2021-02-27T13:51:50Z</time>
      </trkpt>
      <trkpt lat="45.23497" lon="6.19561">
        <ele>2026.8</ele>
        <time>2021-02-27T13:51:51Z</time>
      </trkpt>
      <trkpt lat="45.23499" lon="6.19563">
        <ele>2027</ele>
        <time>2021-02-27T13:51:52Z</time>
      </trkpt>
      <trkpt lat="45.23499" lon="6.19563">
        <ele>2027.2</ele>
        <time>2021-02-27T13:51:53Z</time>
      </trkpt>
      <trkpt lat="45.23499" lon="6.19563">
        <ele>2027.2</ele>
        <time>2021-02-27T13:51:54Z</time>
      </trkpt>
      <trkpt lat="45.23499" lon="6.19563">
        <ele>2027.4</ele>
        <time>2021-02-27T13:51:55Z</time>
      </trkpt>
      <trkpt lat="45.235" lon="6.19565">
        <ele>2027.6</ele>
        <time>2021-02-27T13:51:56Z</time>
      </trkpt>
      <trkpt lat="45.235" lon="6.19565">
        <ele>2027.8</ele>
        <time>2021-02-27T13:51:57Z</time>
      </trkpt>
      <trkpt lat="45.235" lon="6.19565">
        <ele>2028</ele>
        <time>2021-02-27T13:51:58Z</time>
      </trkpt>
      <trkpt lat="45.235" lon="6.19565">
        <ele>2028.2</ele>
        <time>2021-02-27T13:51:59Z</time>
      </trkpt>
      <trkpt lat="45.235" lon="6.19565">
        <ele>2028</ele>
        <time>2021-02-27T13:52:00Z</time>
      </trkpt>
      <trkpt lat="45.23503" lon="6.19567">
        <ele>2027.8</ele>
        <time>2021-02-27T13:52:01Z</time>
      </trkpt>
      <trkpt lat="45.23503" lon="6.19567">
        <ele>2028</ele>
        <time>2021-02-27T13:52:02Z</time>
      </trkpt>
      <trkpt lat="45.23505" lon="6.19568">
        <ele>2028</ele>
        <time>2021-02-27T13:52:03Z</time>
      </trkpt>
      <trkpt lat="45.23505" lon="6.19568">
        <ele>2028.2</ele>
        <time>2021-02-27T13:52:04Z</time>
      </trkpt>
      <trkpt lat="45.23507" lon="6.1957">
        <ele>2028</ele>
        <time>2021-02-27T13:52:05Z</time>
      </trkpt>
      <trkpt lat="45.23507" lon="6.1957">
        <ele>2028</ele>
        <time>2021-02-27T13:52:06Z</time>
      </trkpt>
      <trkpt lat="45.23507" lon="6.1957">
        <ele>2028.4</ele>
        <time>2021-02-27T13:52:07Z</time>
      </trkpt>
      <trkpt lat="45.23509" lon="6.19572">
        <ele>2028.6</ele>
        <time>2021-02-27T13:52:08Z</time>
      </trkpt>
      <trkpt lat="45.23509" lon="6.19572">
        <ele>2028.6</ele>
        <time>2021-02-27T13:52:09Z</time>
      </trkpt>
      <trkpt lat="45.23509" lon="6.19572">
        <ele>2029</ele>
        <time>2021-02-27T13:52:10Z</time>
      </trkpt>
      <trkpt lat="45.23509" lon="6.19572">
        <ele>2029.2</ele>
        <time>2021-02-27T13:52:11Z</time>
      </trkpt>
      <trkpt lat="45.23511" lon="6.19573">
        <ele>2029.6</ele>
        <time>2021-02-27T13:52:12Z</time>
      </trkpt>
      <trkpt lat="45.23511" lon="6.19573">
        <ele>2030</ele>
        <time>2021-02-27T13:52:13Z</time>
      </trkpt>
      <trkpt lat="45.23511" lon="6.19573">
        <ele>2029.8</ele>
        <time>2021-02-27T13:52:14Z</time>
      </trkpt>
      <trkpt lat="45.23513" lon="6.19575">
        <ele>2029.8</ele>
        <time>2021-02-27T13:52:15Z</time>
      </trkpt>
      <trkpt lat="45.23513" lon="6.19575">
        <ele>2030</ele>
        <time>2021-02-27T13:52:16Z</time>
      </trkpt>
      <trkpt lat="45.23513" lon="6.19575">
        <ele>2030.2</ele>
        <time>2021-02-27T13:52:17Z</time>
      </trkpt>
      <trkpt lat="45.23513" lon="6.19575">
        <ele>2030.4</ele>
        <time>2021-02-27T13:52:18Z</time>
      </trkpt>
      <trkpt lat="45.23515" lon="6.19577">
        <ele>2031</ele>
        <time>2021-02-27T13:52:19Z</time>
      </trkpt>
      <trkpt lat="45.23515" lon="6.19577">
        <ele>2031.4</ele>
        <time>2021-02-27T13:52:20Z</time>
      </trkpt>
      <trkpt lat="45.23515" lon="6.19577">
        <ele>2031.6</ele>
        <time>2021-02-27T13:52:21Z</time>
      </trkpt>
      <trkpt lat="45.23515" lon="6.19577">
        <ele>2031.4</ele>
        <time>2021-02-27T13:52:22Z</time>
      </trkpt>
      <trkpt lat="45.23517" lon="6.19578">
        <ele>2031.2</ele>
        <time>2021-02-27T13:52:23Z</time>
      </trkpt>
      <trkpt lat="45.23517" lon="6.19578">
        <ele>2031.6</ele>
        <time>2021-02-27T13:52:24Z</time>
      </trkpt>
      <trkpt lat="45.23517" lon="6.19578">
        <ele>2031.8</ele>
        <time>2021-02-27T13:52:25Z</time>
      </trkpt>
      <trkpt lat="45.2352" lon="6.1958">
        <ele>2031.8</ele>
        <time>2021-02-27T13:52:26Z</time>
      </trkpt>
      <trkpt lat="45.2352" lon="6.1958">
        <ele>2032.4</ele>
        <time>2021-02-27T13:52:27Z</time>
      </trkpt>
      <trkpt lat="45.2352" lon="6.1958">
        <ele>2033</ele>
        <time>2021-02-27T13:52:28Z</time>
      </trkpt>
      <trkpt lat="45.23522" lon="6.19582">
        <ele>2033</ele>
        <time>2021-02-27T13:52:29Z</time>
      </trkpt>
      <trkpt lat="45.23522" lon="6.19582">
        <ele>2033.2</ele>
        <time>2021-02-27T13:52:30Z</time>
      </trkpt>
      <trkpt lat="45.23522" lon="6.19582">
        <ele>2033.4</ele>
        <time>2021-02-27T13:52:31Z</time>
      </trkpt>
      <trkpt lat="45.23522" lon="6.19582">
        <ele>2033.2</ele>
        <time>2021-02-27T13:52:32Z</time>
      </trkpt>
      <trkpt lat="45.23524" lon="6.19583">
        <ele>2033.4</ele>
        <time>2021-02-27T13:52:33Z</time>
      </trkpt>
      <trkpt lat="45.23524" lon="6.19583">
        <ele>2033.2</ele>
        <time>2021-02-27T13:52:34Z</time>
      </trkpt>
      <trkpt lat="45.23524" lon="6.19583">
        <ele>2033.6</ele>
        <time>2021-02-27T13:52:35Z</time>
      </trkpt>
      <trkpt lat="45.23525" lon="6.19584">
        <ele>2033.6</ele>
        <time>2021-02-27T13:52:36Z</time>
      </trkpt>
      <trkpt lat="45.23525" lon="6.19584">
        <ele>2033.8</ele>
        <time>2021-02-27T13:52:37Z</time>
      </trkpt>
      <trkpt lat="45.23525" lon="6.19584">
        <ele>2033.8</ele>
        <time>2021-02-27T13:52:38Z</time>
      </trkpt>
      <trkpt lat="45.23526" lon="6.19586">
        <ele>2034.2</ele>
        <time>2021-02-27T13:52:39Z</time>
      </trkpt>
      <trkpt lat="45.23526" lon="6.19586">
        <ele>2034.4</ele>
        <time>2021-02-27T13:52:40Z</time>
      </trkpt>
      <trkpt lat="45.23526" lon="6.19586">
        <ele>2034.4</ele>
        <time>2021-02-27T13:52:41Z</time>
      </trkpt>
      <trkpt lat="45.23528" lon="6.19588">
        <ele>2034.8</ele>
        <time>2021-02-27T13:52:42Z</time>
      </trkpt>
      <trkpt lat="45.23528" lon="6.19588">
        <ele>2035</ele>
        <time>2021-02-27T13:52:43Z</time>
      </trkpt>
      <trkpt lat="45.23528" lon="6.19588">
        <ele>2035.2</ele>
        <time>2021-02-27T13:52:44Z</time>
      </trkpt>
      <trkpt lat="45.23531" lon="6.1959">
        <ele>2035.4</ele>
        <time>2021-02-27T13:52:45Z</time>
      </trkpt>
      <trkpt lat="45.23531" lon="6.1959">
        <ele>2035.6</ele>
        <time>2021-02-27T13:52:46Z</time>
      </trkpt>
      <trkpt lat="45.23532" lon="6.19591">
        <ele>2036</ele>
        <time>2021-02-27T13:52:47Z</time>
      </trkpt>
      <trkpt lat="45.23532" lon="6.19591">
        <ele>2036.4</ele>
        <time>2021-02-27T13:52:48Z</time>
      </trkpt>
      <trkpt lat="45.23533" lon="6.19593">
        <ele>2036.8</ele>
        <time>2021-02-27T13:52:49Z</time>
      </trkpt>
      <trkpt lat="45.23533" lon="6.19593">
        <ele>2037</ele>
        <time>2021-02-27T13:52:50Z</time>
      </trkpt>
      <trkpt lat="45.23533" lon="6.19593">
        <ele>2037.4</ele>
        <time>2021-02-27T13:52:51Z</time>
      </trkpt>
      <trkpt lat="45.23535" lon="6.19596">
        <ele>2037.6</ele>
        <time>2021-02-27T13:52:52Z</time>
      </trkpt>
      <trkpt lat="45.23535" lon="6.19596">
        <ele>2038</ele>
        <time>2021-02-27T13:52:53Z</time>
      </trkpt>
      <trkpt lat="45.23535" lon="6.19596">
        <ele>2038.2</ele>
        <time>2021-02-27T13:52:54Z</time>
      </trkpt>
      <trkpt lat="45.23536" lon="6.19598">
        <ele>2038</ele>
        <time>2021-02-27T13:52:55Z</time>
      </trkpt>
      <trkpt lat="45.23536" lon="6.19598">
        <ele>2038.2</ele>
        <time>2021-02-27T13:52:56Z</time>
      </trkpt>
      <trkpt lat="45.23534" lon="6.19599">
        <ele>2038</ele>
        <time>2021-02-27T13:52:57Z</time>
      </trkpt>
      <trkpt lat="45.23534" lon="6.19599">
        <ele>2038</ele>
        <time>2021-02-27T13:52:58Z</time>
      </trkpt>
      <trkpt lat="45.23532" lon="6.196">
        <ele>2038.6</ele>
        <time>2021-02-27T13:52:59Z</time>
      </trkpt>
      <trkpt lat="45.23532" lon="6.196">
        <ele>2039.4</ele>
        <time>2021-02-27T13:53:00Z</time>
      </trkpt>
      <trkpt lat="45.23532" lon="6.196">
        <ele>2039.6</ele>
        <time>2021-02-27T13:53:01Z</time>
      </trkpt>
      <trkpt lat="45.2353" lon="6.19602">
        <ele>2039.8</ele>
        <time>2021-02-27T13:53:02Z</time>
      </trkpt>
      <trkpt lat="45.2353" lon="6.19602">
        <ele>2040.4</ele>
        <time>2021-02-27T13:53:03Z</time>
      </trkpt>
      <trkpt lat="45.2353" lon="6.19602">
        <ele>2040</ele>
        <time>2021-02-27T13:53:04Z</time>
      </trkpt>
      <trkpt lat="45.23528" lon="6.19604">
        <ele>2040.2</ele>
        <time>2021-02-27T13:53:05Z</time>
      </trkpt>
      <trkpt lat="45.23528" lon="6.19604">
        <ele>2040.8</ele>
        <time>2021-02-27T13:53:06Z</time>
      </trkpt>
      <trkpt lat="45.23528" lon="6.19604">
        <ele>2040.6</ele>
        <time>2021-02-27T13:53:07Z</time>
      </trkpt>
      <trkpt lat="45.23527" lon="6.19606">
        <ele>2040.8</ele>
        <time>2021-02-27T13:53:08Z</time>
      </trkpt>
      <trkpt lat="45.23527" lon="6.19606">
        <ele>2041.4</ele>
        <time>2021-02-27T13:53:09Z</time>
      </trkpt>
      <trkpt lat="45.23527" lon="6.19606">
        <ele>2041.4</ele>
        <time>2021-02-27T13:53:10Z</time>
      </trkpt>
      <trkpt lat="45.23525" lon="6.19609">
        <ele>2041.8</ele>
        <time>2021-02-27T13:53:11Z</time>
      </trkpt>
      <trkpt lat="45.23525" lon="6.19609">
        <ele>2042.4</ele>
        <time>2021-02-27T13:53:12Z</time>
      </trkpt>
      <trkpt lat="45.23525" lon="6.19609">
        <ele>2042.6</ele>
        <time>2021-02-27T13:53:13Z</time>
      </trkpt>
      <trkpt lat="45.23524" lon="6.19612">
        <ele>2042.4</ele>
        <time>2021-02-27T13:53:14Z</time>
      </trkpt>
      <trkpt lat="45.23524" lon="6.19612">
        <ele>2042.6</ele>
        <time>2021-02-27T13:53:15Z</time>
      </trkpt>
      <trkpt lat="45.23524" lon="6.19612">
        <ele>2042.6</ele>
        <time>2021-02-27T13:53:16Z</time>
      </trkpt>
      <trkpt lat="45.23524" lon="6.19612">
        <ele>2043</ele>
        <time>2021-02-27T13:53:17Z</time>
      </trkpt>
      <trkpt lat="45.23525" lon="6.19615">
        <ele>2042.8</ele>
        <time>2021-02-27T13:53:18Z</time>
      </trkpt>
      <trkpt lat="45.23525" lon="6.19615">
        <ele>2043</ele>
        <time>2021-02-27T13:53:19Z</time>
      </trkpt>
      <trkpt lat="45.23525" lon="6.19615">
        <ele>2043.2</ele>
        <time>2021-02-27T13:53:20Z</time>
      </trkpt>
      <trkpt lat="45.23526" lon="6.19617">
        <ele>2043.2</ele>
        <time>2021-02-27T13:53:21Z</time>
      </trkpt>
      <trkpt lat="45.23526" lon="6.19617">
        <ele>2043</ele>
        <time>2021-02-27T13:53:22Z</time>
      </trkpt>
      <trkpt lat="45.23528" lon="6.19618">
        <ele>2042.8</ele>
        <time>2021-02-27T13:53:23Z</time>
      </trkpt>
      <trkpt lat="45.23528" lon="6.19618">
        <ele>2043.2</ele>
        <time>2021-02-27T13:53:24Z</time>
      </trkpt>
      <trkpt lat="45.23528" lon="6.19618">
        <ele>2043.2</ele>
        <time>2021-02-27T13:53:25Z</time>
      </trkpt>
      <trkpt lat="45.23531" lon="6.1962">
        <ele>2043.4</ele>
        <time>2021-02-27T13:53:26Z</time>
      </trkpt>
      <trkpt lat="45.23531" lon="6.1962">
        <ele>2043.6</ele>
        <time>2021-02-27T13:53:27Z</time>
      </trkpt>
      <trkpt lat="45.23531" lon="6.1962">
        <ele>2043.8</ele>
        <time>2021-02-27T13:53:28Z</time>
      </trkpt>
      <trkpt lat="45.23531" lon="6.19623">
        <ele>2044.2</ele>
        <time>2021-02-27T13:53:29Z</time>
      </trkpt>
      <trkpt lat="45.23531" lon="6.19623">
        <ele>2044.4</ele>
        <time>2021-02-27T13:53:30Z</time>
      </trkpt>
      <trkpt lat="45.23531" lon="6.19623">
        <ele>2044.4</ele>
        <time>2021-02-27T13:53:31Z</time>
      </trkpt>
      <trkpt lat="45.2353" lon="6.19625">
        <ele>2045</ele>
        <time>2021-02-27T13:53:32Z</time>
      </trkpt>
      <trkpt lat="45.2353" lon="6.19625">
        <ele>2045.8</ele>
        <time>2021-02-27T13:53:33Z</time>
      </trkpt>
      <trkpt lat="45.23529" lon="6.19627">
        <ele>2045.6</ele>
        <time>2021-02-27T13:53:34Z</time>
      </trkpt>
      <trkpt lat="45.23529" lon="6.19627">
        <ele>2046.2</ele>
        <time>2021-02-27T13:53:35Z</time>
      </trkpt>
      <trkpt lat="45.23529" lon="6.19627">
        <ele>2046.6</ele>
        <time>2021-02-27T13:53:36Z</time>
      </trkpt>
      <trkpt lat="45.23527" lon="6.1963">
        <ele>2046.2</ele>
        <time>2021-02-27T13:53:37Z</time>
      </trkpt>
      <trkpt lat="45.23527" lon="6.1963">
        <ele>2046.4</ele>
        <time>2021-02-27T13:53:38Z</time>
      </trkpt>
      <trkpt lat="45.23527" lon="6.1963">
        <ele>2047</ele>
        <time>2021-02-27T13:53:39Z</time>
      </trkpt>
      <trkpt lat="45.23525" lon="6.19633">
        <ele>2047.2</ele>
        <time>2021-02-27T13:53:40Z</time>
      </trkpt>
      <trkpt lat="45.23525" lon="6.19633">
        <ele>2047.4</ele>
        <time>2021-02-27T13:53:41Z</time>
      </trkpt>
      <trkpt lat="45.23525" lon="6.19633">
        <ele>2047.8</ele>
        <time>2021-02-27T13:53:42Z</time>
      </trkpt>
      <trkpt lat="45.23524" lon="6.19635">
        <ele>2047.8</ele>
        <time>2021-02-27T13:53:43Z</time>
      </trkpt>
      <trkpt lat="45.23524" lon="6.19635">
        <ele>2048</ele>
        <time>2021-02-27T13:53:44Z</time>
      </trkpt>
      <trkpt lat="45.23524" lon="6.19635">
        <ele>2048.4</ele>
        <time>2021-02-27T13:53:45Z</time>
      </trkpt>
      <trkpt lat="45.23524" lon="6.19635">
        <ele>2048.6</ele>
        <time>2021-02-27T13:53:46Z</time>
      </trkpt>
      <trkpt lat="45.23525" lon="6.19638">
        <ele>2048.6</ele>
        <time>2021-02-27T13:53:47Z</time>
      </trkpt>
      <trkpt lat="45.23525" lon="6.19638">
        <ele>2048.4</ele>
        <time>2021-02-27T13:53:48Z</time>
      </trkpt>
      <trkpt lat="45.23525" lon="6.19638">
        <ele>2048.6</ele>
        <time>2021-02-27T13:53:49Z</time>
      </trkpt>
      <trkpt lat="45.23526" lon="6.1964">
        <ele>2048.8</ele>
        <time>2021-02-27T13:53:50Z</time>
      </trkpt>
      <trkpt lat="45.23526" lon="6.1964">
        <ele>2048.8</ele>
        <time>2021-02-27T13:53:51Z</time>
      </trkpt>
      <trkpt lat="45.23526" lon="6.1964">
        <ele>2049.2</ele>
        <time>2021-02-27T13:53:52Z</time>
      </trkpt>
      <trkpt lat="45.23528" lon="6.19642">
        <ele>2049.4</ele>
        <time>2021-02-27T13:53:53Z</time>
      </trkpt>
      <trkpt lat="45.23528" lon="6.19642">
        <ele>2049.8</ele>
        <time>2021-02-27T13:53:54Z</time>
      </trkpt>
      <trkpt lat="45.23528" lon="6.19642">
        <ele>2050</ele>
        <time>2021-02-27T13:53:55Z</time>
      </trkpt>
      <trkpt lat="45.23529" lon="6.19645">
        <ele>2050</ele>
        <time>2021-02-27T13:53:56Z</time>
      </trkpt>
      <trkpt lat="45.23529" lon="6.19645">
        <ele>2050.2</ele>
        <time>2021-02-27T13:53:57Z</time>
      </trkpt>
      <trkpt lat="45.23529" lon="6.19645">
        <ele>2050.6</ele>
        <time>2021-02-27T13:53:58Z</time>
      </trkpt>
      <trkpt lat="45.23527" lon="6.19648">
        <ele>2050.8</ele>
        <time>2021-02-27T13:53:59Z</time>
      </trkpt>
      <trkpt lat="45.23527" lon="6.19648">
        <ele>2051</ele>
        <time>2021-02-27T13:54:00Z</time>
      </trkpt>
      <trkpt lat="45.23526" lon="6.1965">
        <ele>2051.2</ele>
        <time>2021-02-27T13:54:01Z</time>
      </trkpt>
      <trkpt lat="45.23526" lon="6.1965">
        <ele>2051.6</ele>
        <time>2021-02-27T13:54:02Z</time>
      </trkpt>
      <trkpt lat="45.23524" lon="6.19651">
        <ele>2052.2</ele>
        <time>2021-02-27T13:54:03Z</time>
      </trkpt>
      <trkpt lat="45.23524" lon="6.19651">
        <ele>2052.2</ele>
        <time>2021-02-27T13:54:04Z</time>
      </trkpt>
      <trkpt lat="45.23523" lon="6.19653">
        <ele>2052.4</ele>
        <time>2021-02-27T13:54:05Z</time>
      </trkpt>
      <trkpt lat="45.23523" lon="6.19653">
        <ele>2052.4</ele>
        <time>2021-02-27T13:54:06Z</time>
      </trkpt>
      <trkpt lat="45.23523" lon="6.19653">
        <ele>2053.4</ele>
        <time>2021-02-27T13:54:07Z</time>
      </trkpt>
      <trkpt lat="45.23521" lon="6.19655">
        <ele>2053.6</ele>
        <time>2021-02-27T13:54:08Z</time>
      </trkpt>
      <trkpt lat="45.23521" lon="6.19655">
        <ele>2053.8</ele>
        <time>2021-02-27T13:54:09Z</time>
      </trkpt>
      <trkpt lat="45.23521" lon="6.19655">
        <ele>2054</ele>
        <time>2021-02-27T13:54:10Z</time>
      </trkpt>
      <trkpt lat="45.23519" lon="6.19658">
        <ele>2054.4</ele>
        <time>2021-02-27T13:54:11Z</time>
      </trkpt>
      <trkpt lat="45.23519" lon="6.19658">
        <ele>2054.6</ele>
        <time>2021-02-27T13:54:12Z</time>
      </trkpt>
      <trkpt lat="45.23519" lon="6.19658">
        <ele>2055</ele>
        <time>2021-02-27T13:54:13Z</time>
      </trkpt>
      <trkpt lat="45.23517" lon="6.19661">
        <ele>2055</ele>
        <time>2021-02-27T13:54:14Z</time>
      </trkpt>
      <trkpt lat="45.23517" lon="6.19661">
        <ele>2055</ele>
        <time>2021-02-27T13:54:15Z</time>
      </trkpt>
      <trkpt lat="45.23517" lon="6.19661">
        <ele>2055.4</ele>
        <time>2021-02-27T13:54:16Z</time>
      </trkpt>
      <trkpt lat="45.23515" lon="6.19664">
        <ele>2055.2</ele>
        <time>2021-02-27T13:54:17Z</time>
      </trkpt>
      <trkpt lat="45.23515" lon="6.19664">
        <ele>2055.4</ele>
        <time>2021-02-27T13:54:18Z</time>
      </trkpt>
      <trkpt lat="45.23515" lon="6.19664">
        <ele>2055.6</ele>
        <time>2021-02-27T13:54:19Z</time>
      </trkpt>
      <trkpt lat="45.23513" lon="6.19666">
        <ele>2055.6</ele>
        <time>2021-02-27T13:54:20Z</time>
      </trkpt>
      <trkpt lat="45.23513" lon="6.19666">
        <ele>2056</ele>
        <time>2021-02-27T13:54:21Z</time>
      </trkpt>
      <trkpt lat="45.23513" lon="6.19666">
        <ele>2056.4</ele>
        <time>2021-02-27T13:54:22Z</time>
      </trkpt>
      <trkpt lat="45.23511" lon="6.19669">
        <ele>2056.4</ele>
        <time>2021-02-27T13:54:23Z</time>
      </trkpt>
      <trkpt lat="45.23511" lon="6.19669">
        <ele>2056.8</ele>
        <time>2021-02-27T13:54:24Z</time>
      </trkpt>
      <trkpt lat="45.23511" lon="6.19669">
        <ele>2057.6</ele>
        <time>2021-02-27T13:54:25Z</time>
      </trkpt>
      <trkpt lat="45.23509" lon="6.19671">
        <ele>2057.8</ele>
        <time>2021-02-27T13:54:26Z</time>
      </trkpt>
      <trkpt lat="45.23509" lon="6.19671">
        <ele>2057.6</ele>
        <time>2021-02-27T13:54:27Z</time>
      </trkpt>
      <trkpt lat="45.23509" lon="6.19671">
        <ele>2058</ele>
        <time>2021-02-27T13:54:28Z</time>
      </trkpt>
      <trkpt lat="45.23507" lon="6.19673">
        <ele>2058</ele>
        <time>2021-02-27T13:54:29Z</time>
      </trkpt>
      <trkpt lat="45.23507" lon="6.19673">
        <ele>2058</ele>
        <time>2021-02-27T13:54:30Z</time>
      </trkpt>
      <trkpt lat="45.23507" lon="6.19673">
        <ele>2058.2</ele>
        <time>2021-02-27T13:54:31Z</time>
      </trkpt>
      <trkpt lat="45.23505" lon="6.19675">
        <ele>2058.4</ele>
        <time>2021-02-27T13:54:32Z</time>
      </trkpt>
      <trkpt lat="45.23505" lon="6.19675">
        <ele>2058.2</ele>
        <time>2021-02-27T13:54:33Z</time>
      </trkpt>
      <trkpt lat="45.23505" lon="6.19675">
        <ele>2058.2</ele>
        <time>2021-02-27T13:54:34Z</time>
      </trkpt>
      <trkpt lat="45.23505" lon="6.19675">
        <ele>2058.8</ele>
        <time>2021-02-27T13:54:35Z</time>
      </trkpt>
      <trkpt lat="45.23505" lon="6.19675">
        <ele>2059</ele>
        <time>2021-02-27T13:54:36Z</time>
      </trkpt>
      <trkpt lat="45.23505" lon="6.19677">
        <ele>2059.4</ele>
        <time>2021-02-27T13:54:37Z</time>
      </trkpt>
      <trkpt lat="45.23505" lon="6.19677">
        <ele>2059.4</ele>
        <time>2021-02-27T13:54:38Z</time>
      </trkpt>
      <trkpt lat="45.23505" lon="6.19677">
        <ele>2059.6</ele>
        <time>2021-02-27T13:54:39Z</time>
      </trkpt>
      <trkpt lat="45.23505" lon="6.19677">
        <ele>2059.6</ele>
        <time>2021-02-27T13:54:40Z</time>
      </trkpt>
      <trkpt lat="45.23507" lon="6.1968">
        <ele>2059.6</ele>
        <time>2021-02-27T13:54:41Z</time>
      </trkpt>
      <trkpt lat="45.23507" lon="6.1968">
        <ele>2060</ele>
        <time>2021-02-27T13:54:42Z</time>
      </trkpt>
      <trkpt lat="45.23507" lon="6.1968">
        <ele>2060.4</ele>
        <time>2021-02-27T13:54:43Z</time>
      </trkpt>
      <trkpt lat="45.23508" lon="6.19682">
        <ele>2060.6</ele>
        <time>2021-02-27T13:54:44Z</time>
      </trkpt>
      <trkpt lat="45.23508" lon="6.19682">
        <ele>2060.6</ele>
        <time>2021-02-27T13:54:45Z</time>
      </trkpt>
      <trkpt lat="45.23508" lon="6.19682">
        <ele>2060.6</ele>
        <time>2021-02-27T13:54:46Z</time>
      </trkpt>
      <trkpt lat="45.2351" lon="6.19684">
        <ele>2060.8</ele>
        <time>2021-02-27T13:54:47Z</time>
      </trkpt>
      <trkpt lat="45.2351" lon="6.19684">
        <ele>2060.8</ele>
        <time>2021-02-27T13:54:48Z</time>
      </trkpt>
      <trkpt lat="45.2351" lon="6.19684">
        <ele>2061</ele>
        <time>2021-02-27T13:54:49Z</time>
      </trkpt>
      <trkpt lat="45.23511" lon="6.19687">
        <ele>2061.4</ele>
        <time>2021-02-27T13:54:50Z</time>
      </trkpt>
      <trkpt lat="45.23511" lon="6.19687">
        <ele>2061.6</ele>
        <time>2021-02-27T13:54:51Z</time>
      </trkpt>
      <trkpt lat="45.23511" lon="6.19687">
        <ele>2061.4</ele>
        <time>2021-02-27T13:54:52Z</time>
      </trkpt>
      <trkpt lat="45.23511" lon="6.19687">
        <ele>2062</ele>
        <time>2021-02-27T13:54:53Z</time>
      </trkpt>
      <trkpt lat="45.23513" lon="6.19688">
        <ele>2062.4</ele>
        <time>2021-02-27T13:54:54Z</time>
      </trkpt>
      <trkpt lat="45.23513" lon="6.19688">
        <ele>2062.6</ele>
        <time>2021-02-27T13:54:55Z</time>
      </trkpt>
      <trkpt lat="45.23513" lon="6.19688">
        <ele>2063.2</ele>
        <time>2021-02-27T13:54:56Z</time>
      </trkpt>
      <trkpt lat="45.23515" lon="6.19691">
        <ele>2063.6</ele>
        <time>2021-02-27T13:54:57Z</time>
      </trkpt>
      <trkpt lat="45.23515" lon="6.19691">
        <ele>2063.6</ele>
        <time>2021-02-27T13:54:58Z</time>
      </trkpt>
      <trkpt lat="45.23517" lon="6.19693">
        <ele>2064</ele>
        <time>2021-02-27T13:54:59Z</time>
      </trkpt>
      <trkpt lat="45.23517" lon="6.19693">
        <ele>2064.2</ele>
        <time>2021-02-27T13:55:00Z</time>
      </trkpt>
      <trkpt lat="45.23517" lon="6.19693">
        <ele>2064.6</ele>
        <time>2021-02-27T13:55:01Z</time>
      </trkpt>
      <trkpt lat="45.23519" lon="6.19695">
        <ele>2064.6</ele>
        <time>2021-02-27T13:55:02Z</time>
      </trkpt>
      <trkpt lat="45.23519" lon="6.19695">
        <ele>2065</ele>
        <time>2021-02-27T13:55:03Z</time>
      </trkpt>
      <trkpt lat="45.23519" lon="6.19695">
        <ele>2065</ele>
        <time>2021-02-27T13:55:04Z</time>
      </trkpt>
      <trkpt lat="45.23519" lon="6.19695">
        <ele>2065.4</ele>
        <time>2021-02-27T13:55:05Z</time>
      </trkpt>
      <trkpt lat="45.23519" lon="6.19695">
        <ele>2065.4</ele>
        <time>2021-02-27T13:55:06Z</time>
      </trkpt>
      <trkpt lat="45.23521" lon="6.19697">
        <ele>2065.8</ele>
        <time>2021-02-27T13:55:07Z</time>
      </trkpt>
      <trkpt lat="45.23521" lon="6.19697">
        <ele>2065.8</ele>
        <time>2021-02-27T13:55:08Z</time>
      </trkpt>
      <trkpt lat="45.23521" lon="6.19697">
        <ele>2066</ele>
        <time>2021-02-27T13:55:09Z</time>
      </trkpt>
      <trkpt lat="45.23522" lon="6.19698">
        <ele>2066.4</ele>
        <time>2021-02-27T13:55:10Z</time>
      </trkpt>
      <trkpt lat="45.23522" lon="6.19698">
        <ele>2066.4</ele>
        <time>2021-02-27T13:55:11Z</time>
      </trkpt>
      <trkpt lat="45.23522" lon="6.19698">
        <ele>2066.6</ele>
        <time>2021-02-27T13:55:12Z</time>
      </trkpt>
      <trkpt lat="45.23524" lon="6.197">
        <ele>2067</ele>
        <time>2021-02-27T13:55:13Z</time>
      </trkpt>
      <trkpt lat="45.23524" lon="6.197">
        <ele>2067.4</ele>
        <time>2021-02-27T13:55:14Z</time>
      </trkpt>
      <trkpt lat="45.23524" lon="6.197">
        <ele>2067.6</ele>
        <time>2021-02-27T13:55:15Z</time>
      </trkpt>
      <trkpt lat="45.23526" lon="6.19701">
        <ele>2068.2</ele>
        <time>2021-02-27T13:55:16Z</time>
      </trkpt>
      <trkpt lat="45.23526" lon="6.19701">
        <ele>2067.8</ele>
        <time>2021-02-27T13:55:17Z</time>
      </trkpt>
      <trkpt lat="45.23526" lon="6.19701">
        <ele>2068</ele>
        <time>2021-02-27T13:55:18Z</time>
      </trkpt>
      <trkpt lat="45.23528" lon="6.19703">
        <ele>2068</ele>
        <time>2021-02-27T13:55:19Z</time>
      </trkpt>
      <trkpt lat="45.23528" lon="6.19703">
        <ele>2068</ele>
        <time>2021-02-27T13:55:20Z</time>
      </trkpt>
      <trkpt lat="45.23529" lon="6.19705">
        <ele>2068.4</ele>
        <time>2021-02-27T13:55:21Z</time>
      </trkpt>
      <trkpt lat="45.23529" lon="6.19705">
        <ele>2068.6</ele>
        <time>2021-02-27T13:55:22Z</time>
      </trkpt>
      <trkpt lat="45.23531" lon="6.19707">
        <ele>2068.6</ele>
        <time>2021-02-27T13:55:23Z</time>
      </trkpt>
      <trkpt lat="45.23531" lon="6.19707">
        <ele>2069.2</ele>
        <time>2021-02-27T13:55:24Z</time>
      </trkpt>
      <trkpt lat="45.23533" lon="6.19709">
        <ele>2069.4</ele>
        <time>2021-02-27T13:55:25Z</time>
      </trkpt>
      <trkpt lat="45.23533" lon="6.19709">
        <ele>2069.6</ele>
        <time>2021-02-27T13:55:26Z</time>
      </trkpt>
      <trkpt lat="45.23536" lon="6.19712">
        <ele>2070</ele>
        <time>2021-02-27T13:55:27Z</time>
      </trkpt>
      <trkpt lat="45.23536" lon="6.19712">
        <ele>2070.2</ele>
        <time>2021-02-27T13:55:28Z</time>
      </trkpt>
      <trkpt lat="45.23538" lon="6.19714">
        <ele>2070.4</ele>
        <time>2021-02-27T13:55:29Z</time>
      </trkpt>
      <trkpt lat="45.23538" lon="6.19714">
        <ele>2070.4</ele>
        <time>2021-02-27T13:55:30Z</time>
      </trkpt>
      <trkpt lat="45.23538" lon="6.19714">
        <ele>2070.8</ele>
        <time>2021-02-27T13:55:31Z</time>
      </trkpt>
      <trkpt lat="45.23538" lon="6.19714">
        <ele>2071</ele>
        <time>2021-02-27T13:55:32Z</time>
      </trkpt>
      <trkpt lat="45.23538" lon="6.19714">
        <ele>2071</ele>
        <time>2021-02-27T13:55:33Z</time>
      </trkpt>
      <trkpt lat="45.23539" lon="6.19716">
        <ele>2071.4</ele>
        <time>2021-02-27T13:55:34Z</time>
      </trkpt>
      <trkpt lat="45.23539" lon="6.19716">
        <ele>2071.4</ele>
        <time>2021-02-27T13:55:35Z</time>
      </trkpt>
      <trkpt lat="45.23539" lon="6.19716">
        <ele>2071.8</ele>
        <time>2021-02-27T13:55:36Z</time>
      </trkpt>
      <trkpt lat="45.23541" lon="6.19718">
        <ele>2072</ele>
        <time>2021-02-27T13:55:37Z</time>
      </trkpt>
      <trkpt lat="45.23541" lon="6.19718">
        <ele>2072.2</ele>
        <time>2021-02-27T13:55:38Z</time>
      </trkpt>
      <trkpt lat="45.23541" lon="6.19718">
        <ele>2072.6</ele>
        <time>2021-02-27T13:55:39Z</time>
      </trkpt>
      <trkpt lat="45.23542" lon="6.19719">
        <ele>2072.8</ele>
        <time>2021-02-27T13:55:40Z</time>
      </trkpt>
      <trkpt lat="45.23542" lon="6.19719">
        <ele>2072.8</ele>
        <time>2021-02-27T13:55:41Z</time>
      </trkpt>
      <trkpt lat="45.23542" lon="6.19719">
        <ele>2073</ele>
        <time>2021-02-27T13:55:42Z</time>
      </trkpt>
      <trkpt lat="45.23544" lon="6.19721">
        <ele>2073.2</ele>
        <time>2021-02-27T13:55:43Z</time>
      </trkpt>
      <trkpt lat="45.23544" lon="6.19721">
        <ele>2073.2</ele>
        <time>2021-02-27T13:55:44Z</time>
      </trkpt>
      <trkpt lat="45.23546" lon="6.19723">
        <ele>2073.4</ele>
        <time>2021-02-27T13:55:45Z</time>
      </trkpt>
      <trkpt lat="45.23546" lon="6.19723">
        <ele>2073.6</ele>
        <time>2021-02-27T13:55:46Z</time>
      </trkpt>
      <trkpt lat="45.23546" lon="6.19723">
        <ele>2073.8</ele>
        <time>2021-02-27T13:55:47Z</time>
      </trkpt>
      <trkpt lat="45.23548" lon="6.19726">
        <ele>2073.6</ele>
        <time>2021-02-27T13:55:48Z</time>
      </trkpt>
      <trkpt lat="45.23548" lon="6.19726">
        <ele>2074</ele>
        <time>2021-02-27T13:55:49Z</time>
      </trkpt>
      <trkpt lat="45.23548" lon="6.19726">
        <ele>2074</ele>
        <time>2021-02-27T13:55:50Z</time>
      </trkpt>
      <trkpt lat="45.23549" lon="6.19728">
        <ele>2074.4</ele>
        <time>2021-02-27T13:55:51Z</time>
      </trkpt>
      <trkpt lat="45.23549" lon="6.19728">
        <ele>2074.6</ele>
        <time>2021-02-27T13:55:52Z</time>
      </trkpt>
      <trkpt lat="45.23549" lon="6.19728">
        <ele>2074.6</ele>
        <time>2021-02-27T13:55:53Z</time>
      </trkpt>
      <trkpt lat="45.23551" lon="6.19731">
        <ele>2074.8</ele>
        <time>2021-02-27T13:55:54Z</time>
      </trkpt>
      <trkpt lat="45.23551" lon="6.19731">
        <ele>2075.4</ele>
        <time>2021-02-27T13:55:55Z</time>
      </trkpt>
      <trkpt lat="45.23551" lon="6.19731">
        <ele>2075.6</ele>
        <time>2021-02-27T13:55:56Z</time>
      </trkpt>
      <trkpt lat="45.23552" lon="6.19733">
        <ele>2076</ele>
        <time>2021-02-27T13:55:57Z</time>
      </trkpt>
      <trkpt lat="45.23552" lon="6.19733">
        <ele>2076.4</ele>
        <time>2021-02-27T13:55:58Z</time>
      </trkpt>
      <trkpt lat="45.23552" lon="6.19733">
        <ele>2076.4</ele>
        <time>2021-02-27T13:55:59Z</time>
      </trkpt>
      <trkpt lat="45.23554" lon="6.19735">
        <ele>2076.8</ele>
        <time>2021-02-27T13:56:00Z</time>
      </trkpt>
      <trkpt lat="45.23554" lon="6.19735">
        <ele>2077</ele>
        <time>2021-02-27T13:56:01Z</time>
      </trkpt>
      <trkpt lat="45.23554" lon="6.19735">
        <ele>2077.6</ele>
        <time>2021-02-27T13:56:02Z</time>
      </trkpt>
      <trkpt lat="45.23555" lon="6.19737">
        <ele>2077.6</ele>
        <time>2021-02-27T13:56:03Z</time>
      </trkpt>
      <trkpt lat="45.23555" lon="6.19737">
        <ele>2077.4</ele>
        <time>2021-02-27T13:56:04Z</time>
      </trkpt>
      <trkpt lat="45.23556" lon="6.1974">
        <ele>2077.2</ele>
        <time>2021-02-27T13:56:05Z</time>
      </trkpt>
      <trkpt lat="45.23556" lon="6.1974">
        <ele>2077.2</ele>
        <time>2021-02-27T13:56:06Z</time>
      </trkpt>
      <trkpt lat="45.23556" lon="6.1974">
        <ele>2077.4</ele>
        <time>2021-02-27T13:56:07Z</time>
      </trkpt>
      <trkpt lat="45.23554" lon="6.19742">
        <ele>2077.8</ele>
        <time>2021-02-27T13:56:08Z</time>
      </trkpt>
      <trkpt lat="45.23554" lon="6.19742">
        <ele>2078.2</ele>
        <time>2021-02-27T13:56:09Z</time>
      </trkpt>
      <trkpt lat="45.23554" lon="6.19742">
        <ele>2079.2</ele>
        <time>2021-02-27T13:56:10Z</time>
      </trkpt>
      <trkpt lat="45.23552" lon="6.19742">
        <ele>2080</ele>
        <time>2021-02-27T13:56:11Z</time>
      </trkpt>
      <trkpt lat="45.23552" lon="6.19742">
        <ele>2080.6</ele>
        <time>2021-02-27T13:56:12Z</time>
      </trkpt>
      <trkpt lat="45.2355" lon="6.19742">
        <ele>2081</ele>
        <time>2021-02-27T13:56:13Z</time>
      </trkpt>
      <trkpt lat="45.2355" lon="6.19742">
        <ele>2081</ele>
        <time>2021-02-27T13:56:14Z</time>
      </trkpt>
      <trkpt lat="45.2355" lon="6.19742">
        <ele>2081.2</ele>
        <time>2021-02-27T13:56:15Z</time>
      </trkpt>
      <trkpt lat="45.23548" lon="6.19743">
        <ele>2081.2</ele>
        <time>2021-02-27T13:56:16Z</time>
      </trkpt>
      <trkpt lat="45.23548" lon="6.19743">
        <ele>2081.8</ele>
        <time>2021-02-27T13:56:17Z</time>
      </trkpt>
      <trkpt lat="45.23548" lon="6.19743">
        <ele>2081.6</ele>
        <time>2021-02-27T13:56:18Z</time>
      </trkpt>
      <trkpt lat="45.23548" lon="6.19743">
        <ele>2081.6</ele>
        <time>2021-02-27T13:56:19Z</time>
      </trkpt>
      <trkpt lat="45.23548" lon="6.19743">
        <ele>2081.8</ele>
        <time>2021-02-27T13:56:20Z</time>
      </trkpt>
      <trkpt lat="45.23547" lon="6.19746">
        <ele>2082</ele>
        <time>2021-02-27T13:56:21Z</time>
      </trkpt>
      <trkpt lat="45.23547" lon="6.19746">
        <ele>2082</ele>
        <time>2021-02-27T13:56:22Z</time>
      </trkpt>
      <trkpt lat="45.23547" lon="6.19746">
        <ele>2081.8</ele>
        <time>2021-02-27T13:56:23Z</time>
      </trkpt>
      <trkpt lat="45.23549" lon="6.19747">
        <ele>2081.6</ele>
        <time>2021-02-27T13:56:24Z</time>
      </trkpt>
      <trkpt lat="45.23549" lon="6.19747">
        <ele>2081.4</ele>
        <time>2021-02-27T13:56:25Z</time>
      </trkpt>
      <trkpt lat="45.23549" lon="6.19747">
        <ele>2081.8</ele>
        <time>2021-02-27T13:56:26Z</time>
      </trkpt>
      <trkpt lat="45.2355" lon="6.1975">
        <ele>2081.8</ele>
        <time>2021-02-27T13:56:27Z</time>
      </trkpt>
      <trkpt lat="45.2355" lon="6.1975">
        <ele>2081.8</ele>
        <time>2021-02-27T13:56:28Z</time>
      </trkpt>
      <trkpt lat="45.2355" lon="6.1975">
        <ele>2081.8</ele>
        <time>2021-02-27T13:56:29Z</time>
      </trkpt>
      <trkpt lat="45.23552" lon="6.19752">
        <ele>2082.4</ele>
        <time>2021-02-27T13:56:30Z</time>
      </trkpt>
      <trkpt lat="45.23552" lon="6.19752">
        <ele>2082.2</ele>
        <time>2021-02-27T13:56:31Z</time>
      </trkpt>
      <trkpt lat="45.23552" lon="6.19752">
        <ele>2082.6</ele>
        <time>2021-02-27T13:56:32Z</time>
      </trkpt>
      <trkpt lat="45.23553" lon="6.19755">
        <ele>2083</ele>
        <time>2021-02-27T13:56:33Z</time>
      </trkpt>
      <trkpt lat="45.23553" lon="6.19755">
        <ele>2083</ele>
        <time>2021-02-27T13:56:34Z</time>
      </trkpt>
      <trkpt lat="45.23553" lon="6.19755">
        <ele>2083.6</ele>
        <time>2021-02-27T13:56:35Z</time>
      </trkpt>
      <trkpt lat="45.23555" lon="6.19757">
        <ele>2083.6</ele>
        <time>2021-02-27T13:56:36Z</time>
      </trkpt>
      <trkpt lat="45.23555" lon="6.19757">
        <ele>2083.8</ele>
        <time>2021-02-27T13:56:37Z</time>
      </trkpt>
      <trkpt lat="45.23557" lon="6.1976">
        <ele>2083.8</ele>
        <time>2021-02-27T13:56:38Z</time>
      </trkpt>
      <trkpt lat="45.23557" lon="6.1976">
        <ele>2084</ele>
        <time>2021-02-27T13:56:39Z</time>
      </trkpt>
      <trkpt lat="45.23559" lon="6.19762">
        <ele>2084.2</ele>
        <time>2021-02-27T13:56:40Z</time>
      </trkpt>
      <trkpt lat="45.23559" lon="6.19762">
        <ele>2084.6</ele>
        <time>2021-02-27T13:56:41Z</time>
      </trkpt>
      <trkpt lat="45.2356" lon="6.19764">
        <ele>2084.6</ele>
        <time>2021-02-27T13:56:42Z</time>
      </trkpt>
      <trkpt lat="45.2356" lon="6.19764">
        <ele>2084.4</ele>
        <time>2021-02-27T13:56:43Z</time>
      </trkpt>
      <trkpt lat="45.23562" lon="6.19766">
        <ele>2084.8</ele>
        <time>2021-02-27T13:56:44Z</time>
      </trkpt>
      <trkpt lat="45.23562" lon="6.19766">
        <ele>2084.6</ele>
        <time>2021-02-27T13:56:45Z</time>
      </trkpt>
      <trkpt lat="45.23564" lon="6.19768">
        <ele>2085</ele>
        <time>2021-02-27T13:56:46Z</time>
      </trkpt>
      <trkpt lat="45.23564" lon="6.19768">
        <ele>2085</ele>
        <time>2021-02-27T13:56:47Z</time>
      </trkpt>
      <trkpt lat="45.23566" lon="6.19771">
        <ele>2084.8</ele>
        <time>2021-02-27T13:56:48Z</time>
      </trkpt>
      <trkpt lat="45.23566" lon="6.19771">
        <ele>2085</ele>
        <time>2021-02-27T13:56:49Z</time>
      </trkpt>
      <trkpt lat="45.23567" lon="6.19773">
        <ele>2085.2</ele>
        <time>2021-02-27T13:56:50Z</time>
      </trkpt>
      <trkpt lat="45.23567" lon="6.19773">
        <ele>2085</ele>
        <time>2021-02-27T13:56:51Z</time>
      </trkpt>
      <trkpt lat="45.23567" lon="6.19773">
        <ele>2085</ele>
        <time>2021-02-27T13:56:52Z</time>
      </trkpt>
      <trkpt lat="45.23569" lon="6.19776">
        <ele>2085.2</ele>
        <time>2021-02-27T13:56:53Z</time>
      </trkpt>
      <trkpt lat="45.23569" lon="6.19776">
        <ele>2085.2</ele>
        <time>2021-02-27T13:56:54Z</time>
      </trkpt>
      <trkpt lat="45.2357" lon="6.19779">
        <ele>2085.6</ele>
        <time>2021-02-27T13:56:55Z</time>
      </trkpt>
      <trkpt lat="45.2357" lon="6.19779">
        <ele>2085.8</ele>
        <time>2021-02-27T13:56:56Z</time>
      </trkpt>
      <trkpt lat="45.23571" lon="6.1978">
        <ele>2086.2</ele>
        <time>2021-02-27T13:56:57Z</time>
      </trkpt>
      <trkpt lat="45.23571" lon="6.1978">
        <ele>2086.2</ele>
        <time>2021-02-27T13:56:58Z</time>
      </trkpt>
      <trkpt lat="45.23573" lon="6.19782">
        <ele>2086.8</ele>
        <time>2021-02-27T13:56:59Z</time>
      </trkpt>
      <trkpt lat="45.23573" lon="6.19782">
        <ele>2086.8</ele>
        <time>2021-02-27T13:57:00Z</time>
      </trkpt>
      <trkpt lat="45.23573" lon="6.19782">
        <ele>2086.8</ele>
        <time>2021-02-27T13:57:01Z</time>
      </trkpt>
      <trkpt lat="45.23575" lon="6.19784">
        <ele>2086.8</ele>
        <time>2021-02-27T13:57:02Z</time>
      </trkpt>
      <trkpt lat="45.23575" lon="6.19784">
        <ele>2087.4</ele>
        <time>2021-02-27T13:57:03Z</time>
      </trkpt>
      <trkpt lat="45.23577" lon="6.19786">
        <ele>2087.4</ele>
        <time>2021-02-27T13:57:04Z</time>
      </trkpt>
      <trkpt lat="45.23577" lon="6.19786">
        <ele>2087.6</ele>
        <time>2021-02-27T13:57:05Z</time>
      </trkpt>
      <trkpt lat="45.23578" lon="6.19787">
        <ele>2087.6</ele>
        <time>2021-02-27T13:57:06Z</time>
      </trkpt>
      <trkpt lat="45.23578" lon="6.19787">
        <ele>2087.6</ele>
        <time>2021-02-27T13:57:07Z</time>
      </trkpt>
      <trkpt lat="45.23578" lon="6.19787">
        <ele>2087.8</ele>
        <time>2021-02-27T13:57:08Z</time>
      </trkpt>
      <trkpt lat="45.2358" lon="6.19789">
        <ele>2087.6</ele>
        <time>2021-02-27T13:57:09Z</time>
      </trkpt>
      <trkpt lat="45.2358" lon="6.19789">
        <ele>2087.6</ele>
        <time>2021-02-27T13:57:10Z</time>
      </trkpt>
      <trkpt lat="45.23582" lon="6.19791">
        <ele>2087.8</ele>
        <time>2021-02-27T13:57:11Z</time>
      </trkpt>
      <trkpt lat="45.23582" lon="6.19791">
        <ele>2088</ele>
        <time>2021-02-27T13:57:12Z</time>
      </trkpt>
      <trkpt lat="45.23582" lon="6.19791">
        <ele>2088</ele>
        <time>2021-02-27T13:57:13Z</time>
      </trkpt>
      <trkpt lat="45.23583" lon="6.19793">
        <ele>2088.2</ele>
        <time>2021-02-27T13:57:14Z</time>
      </trkpt>
      <trkpt lat="45.23583" lon="6.19793">
        <ele>2088.4</ele>
        <time>2021-02-27T13:57:15Z</time>
      </trkpt>
      <trkpt lat="45.23585" lon="6.19795">
        <ele>2088.2</ele>
        <time>2021-02-27T13:57:16Z</time>
      </trkpt>
      <trkpt lat="45.23585" lon="6.19795">
        <ele>2088.6</ele>
        <time>2021-02-27T13:57:17Z</time>
      </trkpt>
      <trkpt lat="45.23587" lon="6.19797">
        <ele>2089</ele>
        <time>2021-02-27T13:57:18Z</time>
      </trkpt>
      <trkpt lat="45.23587" lon="6.19797">
        <ele>2089.2</ele>
        <time>2021-02-27T13:57:19Z</time>
      </trkpt>
      <trkpt lat="45.23589" lon="6.19799">
        <ele>2089.6</ele>
        <time>2021-02-27T13:57:20Z</time>
      </trkpt>
      <trkpt lat="45.23589" lon="6.19799">
        <ele>2090.4</ele>
        <time>2021-02-27T13:57:21Z</time>
      </trkpt>
      <trkpt lat="45.2359" lon="6.19801">
        <ele>2090.2</ele>
        <time>2021-02-27T13:57:22Z</time>
      </trkpt>
      <trkpt lat="45.2359" lon="6.19801">
        <ele>2090.6</ele>
        <time>2021-02-27T13:57:23Z</time>
      </trkpt>
      <trkpt lat="45.23593" lon="6.19804">
        <ele>2091</ele>
        <time>2021-02-27T13:57:24Z</time>
      </trkpt>
      <trkpt lat="45.23593" lon="6.19804">
        <ele>2090.6</ele>
        <time>2021-02-27T13:57:25Z</time>
      </trkpt>
      <trkpt lat="45.23595" lon="6.19806">
        <ele>2090.8</ele>
        <time>2021-02-27T13:57:26Z</time>
      </trkpt>
      <trkpt lat="45.23595" lon="6.19806">
        <ele>2090.8</ele>
        <time>2021-02-27T13:57:27Z</time>
      </trkpt>
      <trkpt lat="45.23596" lon="6.19809">
        <ele>2090.4</ele>
        <time>2021-02-27T13:57:28Z</time>
      </trkpt>
      <trkpt lat="45.23596" lon="6.19809">
        <ele>2090.4</ele>
        <time>2021-02-27T13:57:29Z</time>
      </trkpt>
      <trkpt lat="45.23597" lon="6.19811">
        <ele>2090.6</ele>
        <time>2021-02-27T13:57:30Z</time>
      </trkpt>
      <trkpt lat="45.23597" lon="6.19811">
        <ele>2091.2</ele>
        <time>2021-02-27T13:57:31Z</time>
      </trkpt>
      <trkpt lat="45.23597" lon="6.19811">
        <ele>2091.4</ele>
        <time>2021-02-27T13:57:32Z</time>
      </trkpt>
      <trkpt lat="45.23599" lon="6.19814">
        <ele>2091.4</ele>
        <time>2021-02-27T13:57:33Z</time>
      </trkpt>
      <trkpt lat="45.23599" lon="6.19814">
        <ele>2091.6</ele>
        <time>2021-02-27T13:57:34Z</time>
      </trkpt>
      <trkpt lat="45.236" lon="6.19816">
        <ele>2092</ele>
        <time>2021-02-27T13:57:35Z</time>
      </trkpt>
      <trkpt lat="45.236" lon="6.19816">
        <ele>2091.4</ele>
        <time>2021-02-27T13:57:36Z</time>
      </trkpt>
      <trkpt lat="45.23602" lon="6.19818">
        <ele>2091.8</ele>
        <time>2021-02-27T13:57:37Z</time>
      </trkpt>
      <trkpt lat="45.23602" lon="6.19818">
        <ele>2092.2</ele>
        <time>2021-02-27T13:57:38Z</time>
      </trkpt>
      <trkpt lat="45.23602" lon="6.19818">
        <ele>2092.2</ele>
        <time>2021-02-27T13:57:39Z</time>
      </trkpt>
      <trkpt lat="45.23603" lon="6.19821">
        <ele>2092.2</ele>
        <time>2021-02-27T13:57:40Z</time>
      </trkpt>
      <trkpt lat="45.23603" lon="6.19821">
        <ele>2092.2</ele>
        <time>2021-02-27T13:57:41Z</time>
      </trkpt>
      <trkpt lat="45.23605" lon="6.19822">
        <ele>2092.6</ele>
        <time>2021-02-27T13:57:42Z</time>
      </trkpt>
      <trkpt lat="45.23605" lon="6.19822">
        <ele>2092.8</ele>
        <time>2021-02-27T13:57:43Z</time>
      </trkpt>
      <trkpt lat="45.23605" lon="6.19822">
        <ele>2093</ele>
        <time>2021-02-27T13:57:44Z</time>
      </trkpt>
      <trkpt lat="45.23606" lon="6.19825">
        <ele>2092.8</ele>
        <time>2021-02-27T13:57:45Z</time>
      </trkpt>
      <trkpt lat="45.23606" lon="6.19825">
        <ele>2092.8</ele>
        <time>2021-02-27T13:57:46Z</time>
      </trkpt>
      <trkpt lat="45.23608" lon="6.19827">
        <ele>2093.8</ele>
        <time>2021-02-27T13:57:47Z</time>
      </trkpt>
      <trkpt lat="45.23608" lon="6.19827">
        <ele>2094</ele>
        <time>2021-02-27T13:57:48Z</time>
      </trkpt>
      <trkpt lat="45.23609" lon="6.19829">
        <ele>2093.8</ele>
        <time>2021-02-27T13:57:49Z</time>
      </trkpt>
      <trkpt lat="45.23609" lon="6.19829">
        <ele>2094.8</ele>
        <time>2021-02-27T13:57:50Z</time>
      </trkpt>
      <trkpt lat="45.23611" lon="6.19831">
        <ele>2094.6</ele>
        <time>2021-02-27T13:57:51Z</time>
      </trkpt>
      <trkpt lat="45.23611" lon="6.19831">
        <ele>2094.6</ele>
        <time>2021-02-27T13:57:52Z</time>
      </trkpt>
      <trkpt lat="45.23612" lon="6.19833">
        <ele>2094.8</ele>
        <time>2021-02-27T13:57:53Z</time>
      </trkpt>
      <trkpt lat="45.23612" lon="6.19833">
        <ele>2095</ele>
        <time>2021-02-27T13:57:54Z</time>
      </trkpt>
      <trkpt lat="45.23614" lon="6.19836">
        <ele>2095</ele>
        <time>2021-02-27T13:57:55Z</time>
      </trkpt>
      <trkpt lat="45.23614" lon="6.19836">
        <ele>2095.2</ele>
        <time>2021-02-27T13:57:56Z</time>
      </trkpt>
      <trkpt lat="45.23614" lon="6.19836">
        <ele>2095.2</ele>
        <time>2021-02-27T13:57:57Z</time>
      </trkpt>
      <trkpt lat="45.23615" lon="6.19838">
        <ele>2095.2</ele>
        <time>2021-02-27T13:57:58Z</time>
      </trkpt>
      <trkpt lat="45.23615" lon="6.19838">
        <ele>2095.4</ele>
        <time>2021-02-27T13:57:59Z</time>
      </trkpt>
      <trkpt lat="45.23615" lon="6.19838">
        <ele>2095.2</ele>
        <time>2021-02-27T13:58:00Z</time>
      </trkpt>
      <trkpt lat="45.23617" lon="6.19841">
        <ele>2095.8</ele>
        <time>2021-02-27T13:58:01Z</time>
      </trkpt>
      <trkpt lat="45.23617" lon="6.19841">
        <ele>2096</ele>
        <time>2021-02-27T13:58:02Z</time>
      </trkpt>
      <trkpt lat="45.23618" lon="6.19844">
        <ele>2096.2</ele>
        <time>2021-02-27T13:58:03Z</time>
      </trkpt>
      <trkpt lat="45.23618" lon="6.19844">
        <ele>2096</ele>
        <time>2021-02-27T13:58:04Z</time>
      </trkpt>
      <trkpt lat="45.2362" lon="6.19846">
        <ele>2095.8</ele>
        <time>2021-02-27T13:58:05Z</time>
      </trkpt>
      <trkpt lat="45.2362" lon="6.19846">
        <ele>2095.4</ele>
        <time>2021-02-27T13:58:06Z</time>
      </trkpt>
      <trkpt lat="45.2362" lon="6.19846">
        <ele>2095.6</ele>
        <time>2021-02-27T13:58:07Z</time>
      </trkpt>
      <trkpt lat="45.23621" lon="6.19848">
        <ele>2095.4</ele>
        <time>2021-02-27T13:58:08Z</time>
      </trkpt>
      <trkpt lat="45.23621" lon="6.19848">
        <ele>2095.2</ele>
        <time>2021-02-27T13:58:09Z</time>
      </trkpt>
      <trkpt lat="45.23623" lon="6.1985">
        <ele>2096</ele>
        <time>2021-02-27T13:58:10Z</time>
      </trkpt>
      <trkpt lat="45.23623" lon="6.1985">
        <ele>2095.8</ele>
        <time>2021-02-27T13:58:11Z</time>
      </trkpt>
      <trkpt lat="45.23624" lon="6.19852">
        <ele>2096</ele>
        <time>2021-02-27T13:58:12Z</time>
      </trkpt>
      <trkpt lat="45.23624" lon="6.19852">
        <ele>2096.2</ele>
        <time>2021-02-27T13:58:13Z</time>
      </trkpt>
      <trkpt lat="45.23624" lon="6.19852">
        <ele>2096.4</ele>
        <time>2021-02-27T13:58:14Z</time>
      </trkpt>
      <trkpt lat="45.23626" lon="6.19855">
        <ele>2096.4</ele>
        <time>2021-02-27T13:58:15Z</time>
      </trkpt>
      <trkpt lat="45.23626" lon="6.19855">
        <ele>2097</ele>
        <time>2021-02-27T13:58:16Z</time>
      </trkpt>
      <trkpt lat="45.23626" lon="6.19855">
        <ele>2097.2</ele>
        <time>2021-02-27T13:58:17Z</time>
      </trkpt>
      <trkpt lat="45.23628" lon="6.19858">
        <ele>2097.6</ele>
        <time>2021-02-27T13:58:18Z</time>
      </trkpt>
      <trkpt lat="45.23628" lon="6.19858">
        <ele>2097.8</ele>
        <time>2021-02-27T13:58:19Z</time>
      </trkpt>
      <trkpt lat="45.23629" lon="6.1986">
        <ele>2097.8</ele>
        <time>2021-02-27T13:58:20Z</time>
      </trkpt>
      <trkpt lat="45.23629" lon="6.1986">
        <ele>2097.8</ele>
        <time>2021-02-27T13:58:21Z</time>
      </trkpt>
      <trkpt lat="45.23631" lon="6.19862">
        <ele>2098</ele>
        <time>2021-02-27T13:58:22Z</time>
      </trkpt>
      <trkpt lat="45.23631" lon="6.19862">
        <ele>2097.8</ele>
        <time>2021-02-27T13:58:23Z</time>
      </trkpt>
      <trkpt lat="45.23632" lon="6.19864">
        <ele>2097.6</ele>
        <time>2021-02-27T13:58:24Z</time>
      </trkpt>
      <trkpt lat="45.23632" lon="6.19864">
        <ele>2097.6</ele>
        <time>2021-02-27T13:58:25Z</time>
      </trkpt>
      <trkpt lat="45.23632" lon="6.19864">
        <ele>2097.6</ele>
        <time>2021-02-27T13:58:26Z</time>
      </trkpt>
      <trkpt lat="45.23633" lon="6.19867">
        <ele>2097.6</ele>
        <time>2021-02-27T13:58:27Z</time>
      </trkpt>
      <trkpt lat="45.23633" lon="6.19867">
        <ele>2098</ele>
        <time>2021-02-27T13:58:28Z</time>
      </trkpt>
      <trkpt lat="45.23633" lon="6.19867">
        <ele>2098.4</ele>
        <time>2021-02-27T13:58:29Z</time>
      </trkpt>
      <trkpt lat="45.23634" lon="6.1987">
        <ele>2098.8</ele>
        <time>2021-02-27T13:58:30Z</time>
      </trkpt>
      <trkpt lat="45.23634" lon="6.1987">
        <ele>2099</ele>
        <time>2021-02-27T13:58:31Z</time>
      </trkpt>
      <trkpt lat="45.23634" lon="6.1987">
        <ele>2099.2</ele>
        <time>2021-02-27T13:58:32Z</time>
      </trkpt>
      <trkpt lat="45.23635" lon="6.19873">
        <ele>2099.2</ele>
        <time>2021-02-27T13:58:33Z</time>
      </trkpt>
      <trkpt lat="45.23635" lon="6.19873">
        <ele>2099.2</ele>
        <time>2021-02-27T13:58:34Z</time>
      </trkpt>
      <trkpt lat="45.23636" lon="6.19875">
        <ele>2099.4</ele>
        <time>2021-02-27T13:58:35Z</time>
      </trkpt>
      <trkpt lat="45.23636" lon="6.19875">
        <ele>2099</ele>
        <time>2021-02-27T13:58:36Z</time>
      </trkpt>
      <trkpt lat="45.23637" lon="6.19877">
        <ele>2099</ele>
        <time>2021-02-27T13:58:37Z</time>
      </trkpt>
      <trkpt lat="45.23637" lon="6.19877">
        <ele>2099.6</ele>
        <time>2021-02-27T13:58:38Z</time>
      </trkpt>
      <trkpt lat="45.23637" lon="6.19877">
        <ele>2099.6</ele>
        <time>2021-02-27T13:58:39Z</time>
      </trkpt>
      <trkpt lat="45.23638" lon="6.1988">
        <ele>2099.8</ele>
        <time>2021-02-27T13:58:40Z</time>
      </trkpt>
      <trkpt lat="45.23638" lon="6.1988">
        <ele>2100</ele>
        <time>2021-02-27T13:58:41Z</time>
      </trkpt>
      <trkpt lat="45.23638" lon="6.1988">
        <ele>2100.2</ele>
        <time>2021-02-27T13:58:42Z</time>
      </trkpt>
      <trkpt lat="45.23639" lon="6.19883">
        <ele>2100.8</ele>
        <time>2021-02-27T13:58:43Z</time>
      </trkpt>
      <trkpt lat="45.23639" lon="6.19883">
        <ele>2101.2</ele>
        <time>2021-02-27T13:58:44Z</time>
      </trkpt>
      <trkpt lat="45.2364" lon="6.19886">
        <ele>2101</ele>
        <time>2021-02-27T13:58:45Z</time>
      </trkpt>
      <trkpt lat="45.2364" lon="6.19886">
        <ele>2101.2</ele>
        <time>2021-02-27T13:58:46Z</time>
      </trkpt>
      <trkpt lat="45.23641" lon="6.19888">
        <ele>2101.2</ele>
        <time>2021-02-27T13:58:47Z</time>
      </trkpt>
      <trkpt lat="45.23641" lon="6.19888">
        <ele>2101</ele>
        <time>2021-02-27T13:58:48Z</time>
      </trkpt>
      <trkpt lat="45.23642" lon="6.19891">
        <ele>2101.6</ele>
        <time>2021-02-27T13:58:49Z</time>
      </trkpt>
      <trkpt lat="45.23642" lon="6.19891">
        <ele>2101.8</ele>
        <time>2021-02-27T13:58:50Z</time>
      </trkpt>
      <trkpt lat="45.23642" lon="6.19891">
        <ele>2102</ele>
        <time>2021-02-27T13:58:51Z</time>
      </trkpt>
      <trkpt lat="45.23644" lon="6.19895">
        <ele>2102.2</ele>
        <time>2021-02-27T13:58:52Z</time>
      </trkpt>
      <trkpt lat="45.23644" lon="6.19895">
        <ele>2102.6</ele>
        <time>2021-02-27T13:58:53Z</time>
      </trkpt>
      <trkpt lat="45.23644" lon="6.19895">
        <ele>2102.6</ele>
        <time>2021-02-27T13:58:54Z</time>
      </trkpt>
      <trkpt lat="45.23645" lon="6.19898">
        <ele>2102.8</ele>
        <time>2021-02-27T13:58:55Z</time>
      </trkpt>
      <trkpt lat="45.23645" lon="6.19898">
        <ele>2103.4</ele>
        <time>2021-02-27T13:58:56Z</time>
      </trkpt>
      <trkpt lat="45.23646" lon="6.199">
        <ele>2103.4</ele>
        <time>2021-02-27T13:58:57Z</time>
      </trkpt>
      <trkpt lat="45.23646" lon="6.199">
        <ele>2103.8</ele>
        <time>2021-02-27T13:58:58Z</time>
      </trkpt>
      <trkpt lat="45.23647" lon="6.19903">
        <ele>2104</ele>
        <time>2021-02-27T13:58:59Z</time>
      </trkpt>
      <trkpt lat="45.23647" lon="6.19903">
        <ele>2104.2</ele>
        <time>2021-02-27T13:59:00Z</time>
      </trkpt>
      <trkpt lat="45.23648" lon="6.19905">
        <ele>2104.6</ele>
        <time>2021-02-27T13:59:01Z</time>
      </trkpt>
      <trkpt lat="45.23648" lon="6.19905">
        <ele>2104.8</ele>
        <time>2021-02-27T13:59:02Z</time>
      </trkpt>
      <trkpt lat="45.23649" lon="6.19907">
        <ele>2105</ele>
        <time>2021-02-27T13:59:03Z</time>
      </trkpt>
      <trkpt lat="45.23649" lon="6.19907">
        <ele>2105.2</ele>
        <time>2021-02-27T13:59:04Z</time>
      </trkpt>
      <trkpt lat="45.2365" lon="6.1991">
        <ele>2105.2</ele>
        <time>2021-02-27T13:59:05Z</time>
      </trkpt>
      <trkpt lat="45.2365" lon="6.1991">
        <ele>2105.4</ele>
        <time>2021-02-27T13:59:06Z</time>
      </trkpt>
      <trkpt lat="45.23651" lon="6.19912">
        <ele>2106</ele>
        <time>2021-02-27T13:59:07Z</time>
      </trkpt>
      <trkpt lat="45.23651" lon="6.19912">
        <ele>2106</ele>
        <time>2021-02-27T13:59:08Z</time>
      </trkpt>
      <trkpt lat="45.23652" lon="6.19915">
        <ele>2106</ele>
        <time>2021-02-27T13:59:09Z</time>
      </trkpt>
      <trkpt lat="45.23652" lon="6.19915">
        <ele>2106.2</ele>
        <time>2021-02-27T13:59:10Z</time>
      </trkpt>
      <trkpt lat="45.23652" lon="6.19915">
        <ele>2106.8</ele>
        <time>2021-02-27T13:59:11Z</time>
      </trkpt>
      <trkpt lat="45.23653" lon="6.19917">
        <ele>2106.6</ele>
        <time>2021-02-27T13:59:12Z</time>
      </trkpt>
      <trkpt lat="45.23653" lon="6.19917">
        <ele>2107.2</ele>
        <time>2021-02-27T13:59:13Z</time>
      </trkpt>
      <trkpt lat="45.23653" lon="6.19917">
        <ele>2106.8</ele>
        <time>2021-02-27T13:59:14Z</time>
      </trkpt>
      <trkpt lat="45.23653" lon="6.1992">
        <ele>2107</ele>
        <time>2021-02-27T13:59:15Z</time>
      </trkpt>
      <trkpt lat="45.23653" lon="6.1992">
        <ele>2107.2</ele>
        <time>2021-02-27T13:59:16Z</time>
      </trkpt>
      <trkpt lat="45.23653" lon="6.1992">
        <ele>2107.2</ele>
        <time>2021-02-27T13:59:17Z</time>
      </trkpt>
      <trkpt lat="45.23654" lon="6.19923">
        <ele>2107.2</ele>
        <time>2021-02-27T13:59:18Z</time>
      </trkpt>
      <trkpt lat="45.23654" lon="6.19923">
        <ele>2107.4</ele>
        <time>2021-02-27T13:59:19Z</time>
      </trkpt>
      <trkpt lat="45.23654" lon="6.19923">
        <ele>2107.2</ele>
        <time>2021-02-27T13:59:20Z</time>
      </trkpt>
      <trkpt lat="45.23655" lon="6.19925">
        <ele>2107.4</ele>
        <time>2021-02-27T13:59:21Z</time>
      </trkpt>
      <trkpt lat="45.23655" lon="6.19925">
        <ele>2107.6</ele>
        <time>2021-02-27T13:59:22Z</time>
      </trkpt>
      <trkpt lat="45.23655" lon="6.19925">
        <ele>2107.6</ele>
        <time>2021-02-27T13:59:23Z</time>
      </trkpt>
      <trkpt lat="45.23656" lon="6.19928">
        <ele>2108.2</ele>
        <time>2021-02-27T13:59:24Z</time>
      </trkpt>
      <trkpt lat="45.23656" lon="6.19928">
        <ele>2108.2</ele>
        <time>2021-02-27T13:59:25Z</time>
      </trkpt>
      <trkpt lat="45.23656" lon="6.19928">
        <ele>2108.4</ele>
        <time>2021-02-27T13:59:26Z</time>
      </trkpt>
      <trkpt lat="45.23656" lon="6.19931">
        <ele>2108.6</ele>
        <time>2021-02-27T13:59:27Z</time>
      </trkpt>
      <trkpt lat="45.23656" lon="6.19931">
        <ele>2108.8</ele>
        <time>2021-02-27T13:59:28Z</time>
      </trkpt>
      <trkpt lat="45.23656" lon="6.19931">
        <ele>2109.2</ele>
        <time>2021-02-27T13:59:29Z</time>
      </trkpt>
      <trkpt lat="45.23658" lon="6.19935">
        <ele>2109.6</ele>
        <time>2021-02-27T13:59:30Z</time>
      </trkpt>
      <trkpt lat="45.23658" lon="6.19935">
        <ele>2109.8</ele>
        <time>2021-02-27T13:59:31Z</time>
      </trkpt>
      <trkpt lat="45.23658" lon="6.19935">
        <ele>2109.6</ele>
        <time>2021-02-27T13:59:32Z</time>
      </trkpt>
      <trkpt lat="45.23659" lon="6.19938">
        <ele>2109.8</ele>
        <time>2021-02-27T13:59:33Z</time>
      </trkpt>
      <trkpt lat="45.23659" lon="6.19938">
        <ele>2109.8</ele>
        <time>2021-02-27T13:59:34Z</time>
      </trkpt>
      <trkpt lat="45.23661" lon="6.1994">
        <ele>2109.6</ele>
        <time>2021-02-27T13:59:35Z</time>
      </trkpt>
      <trkpt lat="45.23661" lon="6.1994">
        <ele>2110</ele>
        <time>2021-02-27T13:59:36Z</time>
      </trkpt>
      <trkpt lat="45.23661" lon="6.1994">
        <ele>2110.2</ele>
        <time>2021-02-27T13:59:37Z</time>
      </trkpt>
      <trkpt lat="45.23662" lon="6.19943">
        <ele>2110</ele>
        <time>2021-02-27T13:59:38Z</time>
      </trkpt>
      <trkpt lat="45.23662" lon="6.19943">
        <ele>2110.4</ele>
        <time>2021-02-27T13:59:39Z</time>
      </trkpt>
      <trkpt lat="45.23662" lon="6.19943">
        <ele>2111</ele>
        <time>2021-02-27T13:59:40Z</time>
      </trkpt>
      <trkpt lat="45.23663" lon="6.19945">
        <ele>2111.4</ele>
        <time>2021-02-27T13:59:41Z</time>
      </trkpt>
      <trkpt lat="45.23663" lon="6.19945">
        <ele>2111.8</ele>
        <time>2021-02-27T13:59:42Z</time>
      </trkpt>
      <trkpt lat="45.23663" lon="6.19945">
        <ele>2111.8</ele>
        <time>2021-02-27T13:59:43Z</time>
      </trkpt>
      <trkpt lat="45.23665" lon="6.19948">
        <ele>2112</ele>
        <time>2021-02-27T13:59:44Z</time>
      </trkpt>
      <trkpt lat="45.23665" lon="6.19948">
        <ele>2112.4</ele>
        <time>2021-02-27T13:59:45Z</time>
      </trkpt>
      <trkpt lat="45.23665" lon="6.19948">
        <ele>2112.4</ele>
        <time>2021-02-27T13:59:46Z</time>
      </trkpt>
      <trkpt lat="45.23667" lon="6.1995">
        <ele>2112.6</ele>
        <time>2021-02-27T13:59:47Z</time>
      </trkpt>
      <trkpt lat="45.23667" lon="6.1995">
        <ele>2113.2</ele>
        <time>2021-02-27T13:59:48Z</time>
      </trkpt>
      <trkpt lat="45.23668" lon="6.19953">
        <ele>2113.2</ele>
        <time>2021-02-27T13:59:49Z</time>
      </trkpt>
      <trkpt lat="45.23668" lon="6.19953">
        <ele>2113.4</ele>
        <time>2021-02-27T13:59:50Z</time>
      </trkpt>
      <trkpt lat="45.23669" lon="6.19955">
        <ele>2113.4</ele>
        <time>2021-02-27T13:59:51Z</time>
      </trkpt>
      <trkpt lat="45.23669" lon="6.19955">
        <ele>2113.6</ele>
        <time>2021-02-27T13:59:52Z</time>
      </trkpt>
      <trkpt lat="45.23669" lon="6.19955">
        <ele>2113.8</ele>
        <time>2021-02-27T13:59:53Z</time>
      </trkpt>
      <trkpt lat="45.2367" lon="6.19959">
        <ele>2114</ele>
        <time>2021-02-27T13:59:54Z</time>
      </trkpt>
      <trkpt lat="45.2367" lon="6.19959">
        <ele>2114.2</ele>
        <time>2021-02-27T13:59:55Z</time>
      </trkpt>
      <trkpt lat="45.23671" lon="6.19961">
        <ele>2114.2</ele>
        <time>2021-02-27T13:59:56Z</time>
      </trkpt>
      <trkpt lat="45.23671" lon="6.19961">
        <ele>2114</ele>
        <time>2021-02-27T13:59:57Z</time>
      </trkpt>
      <trkpt lat="45.23672" lon="6.19963">
        <ele>2114.4</ele>
        <time>2021-02-27T13:59:58Z</time>
      </trkpt>
      <trkpt lat="45.23672" lon="6.19963">
        <ele>2114.4</ele>
        <time>2021-02-27T13:59:59Z</time>
      </trkpt>
      <trkpt lat="45.23674" lon="6.19965">
        <ele>2114.8</ele>
        <time>2021-02-27T14:00:00Z</time>
      </trkpt>
      <trkpt lat="45.23674" lon="6.19965">
        <ele>2114.8</ele>
        <time>2021-02-27T14:00:01Z</time>
      </trkpt>
      <trkpt lat="45.23674" lon="6.19965">
        <ele>2114.8</ele>
        <time>2021-02-27T14:00:02Z</time>
      </trkpt>
      <trkpt lat="45.23674" lon="6.19965">
        <ele>2115.4</ele>
        <time>2021-02-27T14:00:03Z</time>
      </trkpt>
      <trkpt lat="45.23675" lon="6.19969">
        <ele>2115.6</ele>
        <time>2021-02-27T14:00:04Z</time>
      </trkpt>
      <trkpt lat="45.23675" lon="6.19969">
        <ele>2115.8</ele>
        <time>2021-02-27T14:00:05Z</time>
      </trkpt>
      <trkpt lat="45.23676" lon="6.19971">
        <ele>2115.8</ele>
        <time>2021-02-27T14:00:06Z</time>
      </trkpt>
      <trkpt lat="45.23676" lon="6.19971">
        <ele>2115.8</ele>
        <time>2021-02-27T14:00:07Z</time>
      </trkpt>
      <trkpt lat="45.23676" lon="6.19971">
        <ele>2116</ele>
        <time>2021-02-27T14:00:08Z</time>
      </trkpt>
      <trkpt lat="45.23677" lon="6.19975">
        <ele>2116.2</ele>
        <time>2021-02-27T14:00:09Z</time>
      </trkpt>
      <trkpt lat="45.23677" lon="6.19975">
        <ele>2116</ele>
        <time>2021-02-27T14:00:10Z</time>
      </trkpt>
      <trkpt lat="45.23677" lon="6.19975">
        <ele>2116.4</ele>
        <time>2021-02-27T14:00:11Z</time>
      </trkpt>
      <trkpt lat="45.23678" lon="6.19978">
        <ele>2116.8</ele>
        <time>2021-02-27T14:00:12Z</time>
      </trkpt>
      <trkpt lat="45.23678" lon="6.19978">
        <ele>2117</ele>
        <time>2021-02-27T14:00:13Z</time>
      </trkpt>
      <trkpt lat="45.23678" lon="6.19978">
        <ele>2117.4</ele>
        <time>2021-02-27T14:00:14Z</time>
      </trkpt>
      <trkpt lat="45.23679" lon="6.19981">
        <ele>2117.8</ele>
        <time>2021-02-27T14:00:15Z</time>
      </trkpt>
      <trkpt lat="45.23679" lon="6.19981">
        <ele>2117.8</ele>
        <time>2021-02-27T14:00:16Z</time>
      </trkpt>
      <trkpt lat="45.23679" lon="6.19981">
        <ele>2118</ele>
        <time>2021-02-27T14:00:17Z</time>
      </trkpt>
      <trkpt lat="45.2368" lon="6.19984">
        <ele>2118.6</ele>
        <time>2021-02-27T14:00:18Z</time>
      </trkpt>
      <trkpt lat="45.2368" lon="6.19984">
        <ele>2118.6</ele>
        <time>2021-02-27T14:00:19Z</time>
      </trkpt>
      <trkpt lat="45.2368" lon="6.19984">
        <ele>2118.6</ele>
        <time>2021-02-27T14:00:20Z</time>
      </trkpt>
      <trkpt lat="45.2368" lon="6.19987">
        <ele>2118.8</ele>
        <time>2021-02-27T14:00:21Z</time>
      </trkpt>
      <trkpt lat="45.2368" lon="6.19987">
        <ele>2118.8</ele>
        <time>2021-02-27T14:00:22Z</time>
      </trkpt>
      <trkpt lat="45.2368" lon="6.19987">
        <ele>2119</ele>
        <time>2021-02-27T14:00:23Z</time>
      </trkpt>
      <trkpt lat="45.2368" lon="6.1999">
        <ele>2119.2</ele>
        <time>2021-02-27T14:00:24Z</time>
      </trkpt>
      <trkpt lat="45.2368" lon="6.1999">
        <ele>2119.2</ele>
        <time>2021-02-27T14:00:25Z</time>
      </trkpt>
      <trkpt lat="45.2368" lon="6.1999">
        <ele>2119.6</ele>
        <time>2021-02-27T14:00:26Z</time>
      </trkpt>
      <trkpt lat="45.23682" lon="6.19993">
        <ele>2119.8</ele>
        <time>2021-02-27T14:00:27Z</time>
      </trkpt>
      <trkpt lat="45.23682" lon="6.19993">
        <ele>2120</ele>
        <time>2021-02-27T14:00:28Z</time>
      </trkpt>
      <trkpt lat="45.23682" lon="6.19993">
        <ele>2120.2</ele>
        <time>2021-02-27T14:00:29Z</time>
      </trkpt>
      <trkpt lat="45.23682" lon="6.19996">
        <ele>2120.6</ele>
        <time>2021-02-27T14:00:30Z</time>
      </trkpt>
      <trkpt lat="45.23682" lon="6.19996">
        <ele>2121.2</ele>
        <time>2021-02-27T14:00:31Z</time>
      </trkpt>
      <trkpt lat="45.23682" lon="6.19996">
        <ele>2121</ele>
        <time>2021-02-27T14:00:32Z</time>
      </trkpt>
      <trkpt lat="45.23684" lon="6.19998">
        <ele>2121.4</ele>
        <time>2021-02-27T14:00:33Z</time>
      </trkpt>
      <trkpt lat="45.23684" lon="6.19998">
        <ele>2121.8</ele>
        <time>2021-02-27T14:00:34Z</time>
      </trkpt>
      <trkpt lat="45.23685" lon="6.2">
        <ele>2122</ele>
        <time>2021-02-27T14:00:35Z</time>
      </trkpt>
      <trkpt lat="45.23685" lon="6.2">
        <ele>2122.2</ele>
        <time>2021-02-27T14:00:36Z</time>
      </trkpt>
      <trkpt lat="45.23687" lon="6.20003">
        <ele>2122.6</ele>
        <time>2021-02-27T14:00:37Z</time>
      </trkpt>
      <trkpt lat="45.23687" lon="6.20003">
        <ele>2122.6</ele>
        <time>2021-02-27T14:00:38Z</time>
      </trkpt>
      <trkpt lat="45.23689" lon="6.20006">
        <ele>2122.6</ele>
        <time>2021-02-27T14:00:39Z</time>
      </trkpt>
      <trkpt lat="45.23689" lon="6.20006">
        <ele>2122.8</ele>
        <time>2021-02-27T14:00:40Z</time>
      </trkpt>
      <trkpt lat="45.23689" lon="6.20006">
        <ele>2123</ele>
        <time>2021-02-27T14:00:41Z</time>
      </trkpt>
      <trkpt lat="45.23691" lon="6.20009">
        <ele>2123</ele>
        <time>2021-02-27T14:00:42Z</time>
      </trkpt>
      <trkpt lat="45.23691" lon="6.20009">
        <ele>2123</ele>
        <time>2021-02-27T14:00:43Z</time>
      </trkpt>
      <trkpt lat="45.23692" lon="6.2001">
        <ele>2122.4</ele>
        <time>2021-02-27T14:00:44Z</time>
      </trkpt>
      <trkpt lat="45.23693" lon="6.20011">
        <ele>2123</ele>
        <time>2021-02-27T14:00:45Z</time>
      </trkpt>
      <trkpt lat="45.23693" lon="6.20012">
        <ele>2123.4</ele>
        <time>2021-02-27T14:00:46Z</time>
      </trkpt>
      <trkpt lat="45.23694" lon="6.20013">
        <ele>2123.4</ele>
        <time>2021-02-27T14:00:47Z</time>
      </trkpt>
      <trkpt lat="45.23695" lon="6.20013">
        <ele>2123.8</ele>
        <time>2021-02-27T14:00:48Z</time>
      </trkpt>
      <trkpt lat="45.23695" lon="6.20014">
        <ele>2123.8</ele>
        <time>2021-02-27T14:00:49Z</time>
      </trkpt>
      <trkpt lat="45.23696" lon="6.20015">
        <ele>2124</ele>
        <time>2021-02-27T14:00:50Z</time>
      </trkpt>
      <trkpt lat="45.23696" lon="6.20016">
        <ele>2124.2</ele>
        <time>2021-02-27T14:00:51Z</time>
      </trkpt>
      <trkpt lat="45.23697" lon="6.20019">
        <ele>2124.6</ele>
        <time>2021-02-27T14:00:52Z</time>
      </trkpt>
      <trkpt lat="45.23697" lon="6.20019">
        <ele>2124.6</ele>
        <time>2021-02-27T14:00:53Z</time>
      </trkpt>
      <trkpt lat="45.23697" lon="6.20019">
        <ele>2125</ele>
        <time>2021-02-27T14:00:54Z</time>
      </trkpt>
      <trkpt lat="45.23697" lon="6.20019">
        <ele>2125.2</ele>
        <time>2021-02-27T14:00:55Z</time>
      </trkpt>
      <trkpt lat="45.23698" lon="6.20022">
        <ele>2125.6</ele>
        <time>2021-02-27T14:00:56Z</time>
      </trkpt>
      <trkpt lat="45.23698" lon="6.20022">
        <ele>2125.8</ele>
        <time>2021-02-27T14:00:57Z</time>
      </trkpt>
      <trkpt lat="45.23699" lon="6.20024">
        <ele>2126.4</ele>
        <time>2021-02-27T14:00:58Z</time>
      </trkpt>
      <trkpt lat="45.23699" lon="6.20024">
        <ele>2126.4</ele>
        <time>2021-02-27T14:00:59Z</time>
      </trkpt>
      <trkpt lat="45.23701" lon="6.20026">
        <ele>2126.4</ele>
        <time>2021-02-27T14:01:00Z</time>
      </trkpt>
      <trkpt lat="45.23703" lon="6.20028">
        <ele>2126.6</ele>
        <time>2021-02-27T14:01:01Z</time>
      </trkpt>
      <trkpt lat="45.23703" lon="6.20028">
        <ele>2127</ele>
        <time>2021-02-27T14:01:02Z</time>
      </trkpt>
      <trkpt lat="45.23704" lon="6.20031">
        <ele>2127</ele>
        <time>2021-02-27T14:01:03Z</time>
      </trkpt>
      <trkpt lat="45.23704" lon="6.20031">
        <ele>2127.4</ele>
        <time>2021-02-27T14:01:04Z</time>
      </trkpt>
      <trkpt lat="45.23706" lon="6.20032">
        <ele>2127.6</ele>
        <time>2021-02-27T14:01:05Z</time>
      </trkpt>
      <trkpt lat="45.23706" lon="6.20032">
        <ele>2127.8</ele>
        <time>2021-02-27T14:01:06Z</time>
      </trkpt>
      <trkpt lat="45.23706" lon="6.20032">
        <ele>2127.8</ele>
        <time>2021-02-27T14:01:07Z</time>
      </trkpt>
      <trkpt lat="45.23707" lon="6.20035">
        <ele>2128</ele>
        <time>2021-02-27T14:01:08Z</time>
      </trkpt>
      <trkpt lat="45.23707" lon="6.20035">
        <ele>2127.8</ele>
        <time>2021-02-27T14:01:09Z</time>
      </trkpt>
      <trkpt lat="45.23707" lon="6.20035">
        <ele>2128.2</ele>
        <time>2021-02-27T14:01:10Z</time>
      </trkpt>
      <trkpt lat="45.23708" lon="6.20037">
        <ele>2129</ele>
        <time>2021-02-27T14:01:11Z</time>
      </trkpt>
      <trkpt lat="45.23708" lon="6.20037">
        <ele>2129</ele>
        <time>2021-02-27T14:01:12Z</time>
      </trkpt>
      <trkpt lat="45.23709" lon="6.2004">
        <ele>2129</ele>
        <time>2021-02-27T14:01:13Z</time>
      </trkpt>
      <trkpt lat="45.23709" lon="6.2004">
        <ele>2129.2</ele>
        <time>2021-02-27T14:01:14Z</time>
      </trkpt>
      <trkpt lat="45.23709" lon="6.2004">
        <ele>2129</ele>
        <time>2021-02-27T14:01:15Z</time>
      </trkpt>
      <trkpt lat="45.2371" lon="6.20042">
        <ele>2129</ele>
        <time>2021-02-27T14:01:16Z</time>
      </trkpt>
      <trkpt lat="45.2371" lon="6.20042">
        <ele>2129</ele>
        <time>2021-02-27T14:01:17Z</time>
      </trkpt>
      <trkpt lat="45.2371" lon="6.20042">
        <ele>2129.2</ele>
        <time>2021-02-27T14:01:18Z</time>
      </trkpt>
      <trkpt lat="45.23711" lon="6.20046">
        <ele>2129.4</ele>
        <time>2021-02-27T14:01:19Z</time>
      </trkpt>
      <trkpt lat="45.23711" lon="6.20046">
        <ele>2129.6</ele>
        <time>2021-02-27T14:01:20Z</time>
      </trkpt>
      <trkpt lat="45.23713" lon="6.20049">
        <ele>2129.8</ele>
        <time>2021-02-27T14:01:21Z</time>
      </trkpt>
      <trkpt lat="45.23713" lon="6.20049">
        <ele>2130.2</ele>
        <time>2021-02-27T14:01:22Z</time>
      </trkpt>
      <trkpt lat="45.23714" lon="6.20052">
        <ele>2130.6</ele>
        <time>2021-02-27T14:01:23Z</time>
      </trkpt>
      <trkpt lat="45.23714" lon="6.20052">
        <ele>2131</ele>
        <time>2021-02-27T14:01:24Z</time>
      </trkpt>
      <trkpt lat="45.23715" lon="6.20054">
        <ele>2131</ele>
        <time>2021-02-27T14:01:25Z</time>
      </trkpt>
      <trkpt lat="45.23715" lon="6.20054">
        <ele>2131.2</ele>
        <time>2021-02-27T14:01:26Z</time>
      </trkpt>
      <trkpt lat="45.23716" lon="6.20057">
        <ele>2131.4</ele>
        <time>2021-02-27T14:01:27Z</time>
      </trkpt>
      <trkpt lat="45.23716" lon="6.20057">
        <ele>2131.8</ele>
        <time>2021-02-27T14:01:28Z</time>
      </trkpt>
      <trkpt lat="45.23716" lon="6.20057">
        <ele>2132</ele>
        <time>2021-02-27T14:01:29Z</time>
      </trkpt>
      <trkpt lat="45.23718" lon="6.2006">
        <ele>2132</ele>
        <time>2021-02-27T14:01:30Z</time>
      </trkpt>
      <trkpt lat="45.23718" lon="6.2006">
        <ele>2132.4</ele>
        <time>2021-02-27T14:01:31Z</time>
      </trkpt>
      <trkpt lat="45.23718" lon="6.2006">
        <ele>2132.4</ele>
        <time>2021-02-27T14:01:32Z</time>
      </trkpt>
      <trkpt lat="45.2372" lon="6.20063">
        <ele>2132.6</ele>
        <time>2021-02-27T14:01:33Z</time>
      </trkpt>
      <trkpt lat="45.2372" lon="6.20063">
        <ele>2132.8</ele>
        <time>2021-02-27T14:01:34Z</time>
      </trkpt>
      <trkpt lat="45.2372" lon="6.20063">
        <ele>2133.2</ele>
        <time>2021-02-27T14:01:35Z</time>
      </trkpt>
      <trkpt lat="45.23721" lon="6.20066">
        <ele>2133</ele>
        <time>2021-02-27T14:01:36Z</time>
      </trkpt>
      <trkpt lat="45.23721" lon="6.20066">
        <ele>2133.4</ele>
        <time>2021-02-27T14:01:37Z</time>
      </trkpt>
      <trkpt lat="45.23721" lon="6.20066">
        <ele>2133.8</ele>
        <time>2021-02-27T14:01:38Z</time>
      </trkpt>
      <trkpt lat="45.23722" lon="6.20068">
        <ele>2133.8</ele>
        <time>2021-02-27T14:01:39Z</time>
      </trkpt>
      <trkpt lat="45.23722" lon="6.20068">
        <ele>2134</ele>
        <time>2021-02-27T14:01:40Z</time>
      </trkpt>
      <trkpt lat="45.23722" lon="6.20068">
        <ele>2133.8</ele>
        <time>2021-02-27T14:01:41Z</time>
      </trkpt>
      <trkpt lat="45.23722" lon="6.20072">
        <ele>2133.6</ele>
        <time>2021-02-27T14:01:42Z</time>
      </trkpt>
      <trkpt lat="45.23722" lon="6.20072">
        <ele>2133.6</ele>
        <time>2021-02-27T14:01:43Z</time>
      </trkpt>
      <trkpt lat="45.23722" lon="6.20072">
        <ele>2133.6</ele>
        <time>2021-02-27T14:01:44Z</time>
      </trkpt>
      <trkpt lat="45.23722" lon="6.20072">
        <ele>2134</ele>
        <time>2021-02-27T14:01:45Z</time>
      </trkpt>
      <trkpt lat="45.23722" lon="6.20072">
        <ele>2133.8</ele>
        <time>2021-02-27T14:01:46Z</time>
      </trkpt>
      <trkpt lat="45.23722" lon="6.20072">
        <ele>2133.8</ele>
        <time>2021-02-27T14:01:47Z</time>
      </trkpt>
      <trkpt lat="45.23722" lon="6.20072">
        <ele>2134</ele>
        <time>2021-02-27T14:01:48Z</time>
      </trkpt>
      <trkpt lat="45.23722" lon="6.20072">
        <ele>2134.2</ele>
        <time>2021-02-27T14:01:49Z</time>
      </trkpt>
      <trkpt lat="45.23722" lon="6.20075">
        <ele>2134.8</ele>
        <time>2021-02-27T14:01:50Z</time>
      </trkpt>
      <trkpt lat="45.23722" lon="6.20075">
        <ele>2134.8</ele>
        <time>2021-02-27T14:01:51Z</time>
      </trkpt>
      <trkpt lat="45.23722" lon="6.20075">
        <ele>2134.8</ele>
        <time>2021-02-27T14:01:52Z</time>
      </trkpt>
      <trkpt lat="45.23723" lon="6.20077">
        <ele>2135</ele>
        <time>2021-02-27T14:01:53Z</time>
      </trkpt>
      <trkpt lat="45.23723" lon="6.20077">
        <ele>2135.2</ele>
        <time>2021-02-27T14:01:54Z</time>
      </trkpt>
      <trkpt lat="45.23723" lon="6.20077">
        <ele>2135.4</ele>
        <time>2021-02-27T14:01:55Z</time>
      </trkpt>
      <trkpt lat="45.23725" lon="6.2008">
        <ele>2135.6</ele>
        <time>2021-02-27T14:01:56Z</time>
      </trkpt>
      <trkpt lat="45.23725" lon="6.2008">
        <ele>2135.8</ele>
        <time>2021-02-27T14:01:57Z</time>
      </trkpt>
      <trkpt lat="45.23725" lon="6.2008">
        <ele>2135.6</ele>
        <time>2021-02-27T14:01:58Z</time>
      </trkpt>
      <trkpt lat="45.23726" lon="6.20083">
        <ele>2135.8</ele>
        <time>2021-02-27T14:01:59Z</time>
      </trkpt>
      <trkpt lat="45.23726" lon="6.20083">
        <ele>2136</ele>
        <time>2021-02-27T14:02:00Z</time>
      </trkpt>
      <trkpt lat="45.23726" lon="6.20083">
        <ele>2136</ele>
        <time>2021-02-27T14:02:01Z</time>
      </trkpt>
      <trkpt lat="45.23727" lon="6.20087">
        <ele>2136.2</ele>
        <time>2021-02-27T14:02:02Z</time>
      </trkpt>
      <trkpt lat="45.23727" lon="6.20087">
        <ele>2136.2</ele>
        <time>2021-02-27T14:02:03Z</time>
      </trkpt>
      <trkpt lat="45.23729" lon="6.20089">
        <ele>2136.2</ele>
        <time>2021-02-27T14:02:04Z</time>
      </trkpt>
      <trkpt lat="45.23729" lon="6.20089">
        <ele>2136.6</ele>
        <time>2021-02-27T14:02:05Z</time>
      </trkpt>
      <trkpt lat="45.23729" lon="6.20092">
        <ele>2136.8</ele>
        <time>2021-02-27T14:02:06Z</time>
      </trkpt>
      <trkpt lat="45.23729" lon="6.20092">
        <ele>2136.8</ele>
        <time>2021-02-27T14:02:07Z</time>
      </trkpt>
      <trkpt lat="45.23729" lon="6.20092">
        <ele>2137</ele>
        <time>2021-02-27T14:02:08Z</time>
      </trkpt>
      <trkpt lat="45.23729" lon="6.20092">
        <ele>2137.4</ele>
        <time>2021-02-27T14:02:09Z</time>
      </trkpt>
      <trkpt lat="45.2373" lon="6.20096">
        <ele>2137</ele>
        <time>2021-02-27T14:02:10Z</time>
      </trkpt>
      <trkpt lat="45.2373" lon="6.20096">
        <ele>2137.2</ele>
        <time>2021-02-27T14:02:11Z</time>
      </trkpt>
      <trkpt lat="45.23733" lon="6.20098">
        <ele>2138</ele>
        <time>2021-02-27T14:02:12Z</time>
      </trkpt>
      <trkpt lat="45.23733" lon="6.20098">
        <ele>2138</ele>
        <time>2021-02-27T14:02:13Z</time>
      </trkpt>
      <trkpt lat="45.23735" lon="6.20099">
        <ele>2138.6</ele>
        <time>2021-02-27T14:02:14Z</time>
      </trkpt>
      <trkpt lat="45.23735" lon="6.20099">
        <ele>2139</ele>
        <time>2021-02-27T14:02:15Z</time>
      </trkpt>
      <trkpt lat="45.23735" lon="6.20099">
        <ele>2139.6</ele>
        <time>2021-02-27T14:02:16Z</time>
      </trkpt>
      <trkpt lat="45.23737" lon="6.20102">
        <ele>2139.6</ele>
        <time>2021-02-27T14:02:17Z</time>
      </trkpt>
      <trkpt lat="45.23737" lon="6.20102">
        <ele>2139.6</ele>
        <time>2021-02-27T14:02:18Z</time>
      </trkpt>
      <trkpt lat="45.23738" lon="6.20104">
        <ele>2140.2</ele>
        <time>2021-02-27T14:02:19Z</time>
      </trkpt>
      <trkpt lat="45.23738" lon="6.20104">
        <ele>2139.8</ele>
        <time>2021-02-27T14:02:20Z</time>
      </trkpt>
      <trkpt lat="45.23738" lon="6.20104">
        <ele>2140</ele>
        <time>2021-02-27T14:02:21Z</time>
      </trkpt>
      <trkpt lat="45.23739" lon="6.20107">
        <ele>2140.2</ele>
        <time>2021-02-27T14:02:22Z</time>
      </trkpt>
      <trkpt lat="45.23739" lon="6.20107">
        <ele>2140.2</ele>
        <time>2021-02-27T14:02:23Z</time>
      </trkpt>
      <trkpt lat="45.2374" lon="6.2011">
        <ele>2140.4</ele>
        <time>2021-02-27T14:02:24Z</time>
      </trkpt>
      <trkpt lat="45.2374" lon="6.2011">
        <ele>2140.6</ele>
        <time>2021-02-27T14:02:25Z</time>
      </trkpt>
      <trkpt lat="45.23741" lon="6.20113">
        <ele>2140.2</ele>
        <time>2021-02-27T14:02:26Z</time>
      </trkpt>
      <trkpt lat="45.23741" lon="6.20113">
        <ele>2140.4</ele>
        <time>2021-02-27T14:02:27Z</time>
      </trkpt>
      <trkpt lat="45.23741" lon="6.20116">
        <ele>2140.8</ele>
        <time>2021-02-27T14:02:28Z</time>
      </trkpt>
      <trkpt lat="45.23741" lon="6.20116">
        <ele>2141</ele>
        <time>2021-02-27T14:02:29Z</time>
      </trkpt>
      <trkpt lat="45.23742" lon="6.20118">
        <ele>2141.4</ele>
        <time>2021-02-27T14:02:30Z</time>
      </trkpt>
      <trkpt lat="45.23742" lon="6.20118">
        <ele>2141.6</ele>
        <time>2021-02-27T14:02:31Z</time>
      </trkpt>
      <trkpt lat="45.23742" lon="6.20118">
        <ele>2141.8</ele>
        <time>2021-02-27T14:02:32Z</time>
      </trkpt>
      <trkpt lat="45.23744" lon="6.20121">
        <ele>2142</ele>
        <time>2021-02-27T14:02:33Z</time>
      </trkpt>
      <trkpt lat="45.23744" lon="6.20121">
        <ele>2142.4</ele>
        <time>2021-02-27T14:02:34Z</time>
      </trkpt>
      <trkpt lat="45.23746" lon="6.20123">
        <ele>2142.4</ele>
        <time>2021-02-27T14:02:35Z</time>
      </trkpt>
      <trkpt lat="45.23746" lon="6.20123">
        <ele>2142.6</ele>
        <time>2021-02-27T14:02:36Z</time>
      </trkpt>
      <trkpt lat="45.23746" lon="6.20123">
        <ele>2143</ele>
        <time>2021-02-27T14:02:37Z</time>
      </trkpt>
      <trkpt lat="45.23748" lon="6.20125">
        <ele>2143.2</ele>
        <time>2021-02-27T14:02:38Z</time>
      </trkpt>
      <trkpt lat="45.23748" lon="6.20125">
        <ele>2143</ele>
        <time>2021-02-27T14:02:39Z</time>
      </trkpt>
      <trkpt lat="45.23749" lon="6.20127">
        <ele>2143.4</ele>
        <time>2021-02-27T14:02:40Z</time>
      </trkpt>
      <trkpt lat="45.23749" lon="6.20127">
        <ele>2143.4</ele>
        <time>2021-02-27T14:02:41Z</time>
      </trkpt>
      <trkpt lat="45.23751" lon="6.20128">
        <ele>2143.6</ele>
        <time>2021-02-27T14:02:42Z</time>
      </trkpt>
      <trkpt lat="45.23751" lon="6.20128">
        <ele>2144</ele>
        <time>2021-02-27T14:02:43Z</time>
      </trkpt>
      <trkpt lat="45.23751" lon="6.20128">
        <ele>2144.2</ele>
        <time>2021-02-27T14:02:44Z</time>
      </trkpt>
      <trkpt lat="45.23752" lon="6.20132">
        <ele>2144.4</ele>
        <time>2021-02-27T14:02:45Z</time>
      </trkpt>
      <trkpt lat="45.23752" lon="6.20132">
        <ele>2144.6</ele>
        <time>2021-02-27T14:02:46Z</time>
      </trkpt>
      <trkpt lat="45.23753" lon="6.20134">
        <ele>2144.8</ele>
        <time>2021-02-27T14:02:47Z</time>
      </trkpt>
      <trkpt lat="45.23753" lon="6.20134">
        <ele>2145</ele>
        <time>2021-02-27T14:02:48Z</time>
      </trkpt>
      <trkpt lat="45.23755" lon="6.20136">
        <ele>2145</ele>
        <time>2021-02-27T14:02:49Z</time>
      </trkpt>
      <trkpt lat="45.23755" lon="6.20136">
        <ele>2145.2</ele>
        <time>2021-02-27T14:02:50Z</time>
      </trkpt>
      <trkpt lat="45.23756" lon="6.20139">
        <ele>2145.4</ele>
        <time>2021-02-27T14:02:51Z</time>
      </trkpt>
      <trkpt lat="45.23756" lon="6.20139">
        <ele>2145.6</ele>
        <time>2021-02-27T14:02:52Z</time>
      </trkpt>
      <trkpt lat="45.23756" lon="6.20139">
        <ele>2146</ele>
        <time>2021-02-27T14:02:53Z</time>
      </trkpt>
      <trkpt lat="45.23758" lon="6.20141">
        <ele>2146</ele>
        <time>2021-02-27T14:02:54Z</time>
      </trkpt>
      <trkpt lat="45.23758" lon="6.20141">
        <ele>2145.8</ele>
        <time>2021-02-27T14:02:55Z</time>
      </trkpt>
      <trkpt lat="45.23759" lon="6.20143">
        <ele>2145.8</ele>
        <time>2021-02-27T14:02:56Z</time>
      </trkpt>
      <trkpt lat="45.23759" lon="6.20143">
        <ele>2146.6</ele>
        <time>2021-02-27T14:02:57Z</time>
      </trkpt>
      <trkpt lat="45.23759" lon="6.20143">
        <ele>2146.2</ele>
        <time>2021-02-27T14:02:58Z</time>
      </trkpt>
      <trkpt lat="45.23761" lon="6.20146">
        <ele>2146.2</ele>
        <time>2021-02-27T14:02:59Z</time>
      </trkpt>
      <trkpt lat="45.23761" lon="6.20146">
        <ele>2146.6</ele>
        <time>2021-02-27T14:03:00Z</time>
      </trkpt>
      <trkpt lat="45.23761" lon="6.20146">
        <ele>2146.6</ele>
        <time>2021-02-27T14:03:01Z</time>
      </trkpt>
      <trkpt lat="45.23763" lon="6.20148">
        <ele>2146.8</ele>
        <time>2021-02-27T14:03:02Z</time>
      </trkpt>
      <trkpt lat="45.23763" lon="6.20148">
        <ele>2147</ele>
        <time>2021-02-27T14:03:03Z</time>
      </trkpt>
      <trkpt lat="45.23763" lon="6.20148">
        <ele>2147</ele>
        <time>2021-02-27T14:03:04Z</time>
      </trkpt>
      <trkpt lat="45.23764" lon="6.20151">
        <ele>2147.4</ele>
        <time>2021-02-27T14:03:05Z</time>
      </trkpt>
      <trkpt lat="45.23764" lon="6.20151">
        <ele>2147.8</ele>
        <time>2021-02-27T14:03:06Z</time>
      </trkpt>
      <trkpt lat="45.23764" lon="6.20151">
        <ele>2148.2</ele>
        <time>2021-02-27T14:03:07Z</time>
      </trkpt>
      <trkpt lat="45.23766" lon="6.20153">
        <ele>2148.4</ele>
        <time>2021-02-27T14:03:08Z</time>
      </trkpt>
      <trkpt lat="45.23766" lon="6.20153">
        <ele>2148.8</ele>
        <time>2021-02-27T14:03:09Z</time>
      </trkpt>
      <trkpt lat="45.23766" lon="6.20153">
        <ele>2148.4</ele>
        <time>2021-02-27T14:03:10Z</time>
      </trkpt>
      <trkpt lat="45.23768" lon="6.20156">
        <ele>2148.6</ele>
        <time>2021-02-27T14:03:11Z</time>
      </trkpt>
      <trkpt lat="45.23768" lon="6.20156">
        <ele>2148.8</ele>
        <time>2021-02-27T14:03:12Z</time>
      </trkpt>
      <trkpt lat="45.23768" lon="6.20156">
        <ele>2148.8</ele>
        <time>2021-02-27T14:03:13Z</time>
      </trkpt>
      <trkpt lat="45.23769" lon="6.20159">
        <ele>2149.2</ele>
        <time>2021-02-27T14:03:14Z</time>
      </trkpt>
      <trkpt lat="45.23769" lon="6.20159">
        <ele>2149.4</ele>
        <time>2021-02-27T14:03:15Z</time>
      </trkpt>
      <trkpt lat="45.23769" lon="6.20159">
        <ele>2149.6</ele>
        <time>2021-02-27T14:03:16Z</time>
      </trkpt>
      <trkpt lat="45.2377" lon="6.20162">
        <ele>2149.6</ele>
        <time>2021-02-27T14:03:17Z</time>
      </trkpt>
      <trkpt lat="45.2377" lon="6.20162">
        <ele>2150</ele>
        <time>2021-02-27T14:03:18Z</time>
      </trkpt>
      <trkpt lat="45.2377" lon="6.20162">
        <ele>2150.2</ele>
        <time>2021-02-27T14:03:19Z</time>
      </trkpt>
      <trkpt lat="45.23772" lon="6.20165">
        <ele>2150.2</ele>
        <time>2021-02-27T14:03:20Z</time>
      </trkpt>
      <trkpt lat="45.23772" lon="6.20165">
        <ele>2150.8</ele>
        <time>2021-02-27T14:03:21Z</time>
      </trkpt>
      <trkpt lat="45.23772" lon="6.20165">
        <ele>2150.8</ele>
        <time>2021-02-27T14:03:22Z</time>
      </trkpt>
      <trkpt lat="45.23774" lon="6.20168">
        <ele>2150.6</ele>
        <time>2021-02-27T14:03:23Z</time>
      </trkpt>
      <trkpt lat="45.23774" lon="6.20168">
        <ele>2150.8</ele>
        <time>2021-02-27T14:03:24Z</time>
      </trkpt>
      <trkpt lat="45.23774" lon="6.20168">
        <ele>2150.8</ele>
        <time>2021-02-27T14:03:25Z</time>
      </trkpt>
      <trkpt lat="45.23776" lon="6.20171">
        <ele>2151.2</ele>
        <time>2021-02-27T14:03:26Z</time>
      </trkpt>
      <trkpt lat="45.23776" lon="6.20171">
        <ele>2151.6</ele>
        <time>2021-02-27T14:03:27Z</time>
      </trkpt>
      <trkpt lat="45.23777" lon="6.20173">
        <ele>2151.8</ele>
        <time>2021-02-27T14:03:28Z</time>
      </trkpt>
      <trkpt lat="45.23777" lon="6.20173">
        <ele>2151.8</ele>
        <time>2021-02-27T14:03:29Z</time>
      </trkpt>
      <trkpt lat="45.23779" lon="6.20175">
        <ele>2152</ele>
        <time>2021-02-27T14:03:30Z</time>
      </trkpt>
      <trkpt lat="45.23779" lon="6.20175">
        <ele>2152.2</ele>
        <time>2021-02-27T14:03:31Z</time>
      </trkpt>
      <trkpt lat="45.2378" lon="6.20177">
        <ele>2152.4</ele>
        <time>2021-02-27T14:03:32Z</time>
      </trkpt>
      <trkpt lat="45.2378" lon="6.20177">
        <ele>2152.4</ele>
        <time>2021-02-27T14:03:33Z</time>
      </trkpt>
      <trkpt lat="45.2378" lon="6.20177">
        <ele>2152.6</ele>
        <time>2021-02-27T14:03:34Z</time>
      </trkpt>
      <trkpt lat="45.23782" lon="6.20179">
        <ele>2152.8</ele>
        <time>2021-02-27T14:03:35Z</time>
      </trkpt>
      <trkpt lat="45.23782" lon="6.20179">
        <ele>2153</ele>
        <time>2021-02-27T14:03:36Z</time>
      </trkpt>
      <trkpt lat="45.23783" lon="6.20181">
        <ele>2153</ele>
        <time>2021-02-27T14:03:37Z</time>
      </trkpt>
      <trkpt lat="45.23783" lon="6.20181">
        <ele>2153.4</ele>
        <time>2021-02-27T14:03:38Z</time>
      </trkpt>
      <trkpt lat="45.23783" lon="6.20181">
        <ele>2153.6</ele>
        <time>2021-02-27T14:03:39Z</time>
      </trkpt>
      <trkpt lat="45.23786" lon="6.20184">
        <ele>2153.8</ele>
        <time>2021-02-27T14:03:40Z</time>
      </trkpt>
      <trkpt lat="45.23786" lon="6.20184">
        <ele>2153.8</ele>
        <time>2021-02-27T14:03:41Z</time>
      </trkpt>
      <trkpt lat="45.23787" lon="6.20186">
        <ele>2154</ele>
        <time>2021-02-27T14:03:42Z</time>
      </trkpt>
      <trkpt lat="45.23787" lon="6.20186">
        <ele>2154.2</ele>
        <time>2021-02-27T14:03:43Z</time>
      </trkpt>
      <trkpt lat="45.23789" lon="6.20188">
        <ele>2154.4</ele>
        <time>2021-02-27T14:03:44Z</time>
      </trkpt>
      <trkpt lat="45.23789" lon="6.20188">
        <ele>2154.4</ele>
        <time>2021-02-27T14:03:45Z</time>
      </trkpt>
      <trkpt lat="45.2379" lon="6.2019">
        <ele>2154.8</ele>
        <time>2021-02-27T14:03:46Z</time>
      </trkpt>
      <trkpt lat="45.2379" lon="6.2019">
        <ele>2155.2</ele>
        <time>2021-02-27T14:03:47Z</time>
      </trkpt>
      <trkpt lat="45.23792" lon="6.20192">
        <ele>2155.2</ele>
        <time>2021-02-27T14:03:48Z</time>
      </trkpt>
      <trkpt lat="45.23792" lon="6.20192">
        <ele>2155.4</ele>
        <time>2021-02-27T14:03:49Z</time>
      </trkpt>
      <trkpt lat="45.23793" lon="6.20194">
        <ele>2155.4</ele>
        <time>2021-02-27T14:03:50Z</time>
      </trkpt>
      <trkpt lat="45.23793" lon="6.20194">
        <ele>2155.4</ele>
        <time>2021-02-27T14:03:51Z</time>
      </trkpt>
      <trkpt lat="45.23795" lon="6.20196">
        <ele>2155.6</ele>
        <time>2021-02-27T14:03:52Z</time>
      </trkpt>
      <trkpt lat="45.23795" lon="6.20196">
        <ele>2155.8</ele>
        <time>2021-02-27T14:03:53Z</time>
      </trkpt>
      <trkpt lat="45.23795" lon="6.20196">
        <ele>2156.2</ele>
        <time>2021-02-27T14:03:54Z</time>
      </trkpt>
      <trkpt lat="45.23797" lon="6.20198">
        <ele>2156.4</ele>
        <time>2021-02-27T14:03:55Z</time>
      </trkpt>
      <trkpt lat="45.23797" lon="6.20198">
        <ele>2156.4</ele>
        <time>2021-02-27T14:03:56Z</time>
      </trkpt>
      <trkpt lat="45.23797" lon="6.20198">
        <ele>2156.6</ele>
        <time>2021-02-27T14:03:57Z</time>
      </trkpt>
      <trkpt lat="45.23798" lon="6.202">
        <ele>2156.8</ele>
        <time>2021-02-27T14:03:58Z</time>
      </trkpt>
      <trkpt lat="45.23798" lon="6.202">
        <ele>2156.8</ele>
        <time>2021-02-27T14:03:59Z</time>
      </trkpt>
      <trkpt lat="45.23799" lon="6.20202">
        <ele>2157</ele>
        <time>2021-02-27T14:04:00Z</time>
      </trkpt>
      <trkpt lat="45.23799" lon="6.20202">
        <ele>2157.2</ele>
        <time>2021-02-27T14:04:01Z</time>
      </trkpt>
      <trkpt lat="45.23799" lon="6.20202">
        <ele>2157</ele>
        <time>2021-02-27T14:04:02Z</time>
      </trkpt>
      <trkpt lat="45.23801" lon="6.20205">
        <ele>2157.4</ele>
        <time>2021-02-27T14:04:03Z</time>
      </trkpt>
      <trkpt lat="45.23801" lon="6.20205">
        <ele>2157.6</ele>
        <time>2021-02-27T14:04:04Z</time>
      </trkpt>
      <trkpt lat="45.23801" lon="6.20205">
        <ele>2157.8</ele>
        <time>2021-02-27T14:04:05Z</time>
      </trkpt>
      <trkpt lat="45.23803" lon="6.20208">
        <ele>2158</ele>
        <time>2021-02-27T14:04:06Z</time>
      </trkpt>
      <trkpt lat="45.23803" lon="6.20208">
        <ele>2158.4</ele>
        <time>2021-02-27T14:04:07Z</time>
      </trkpt>
      <trkpt lat="45.23803" lon="6.20208">
        <ele>2158.8</ele>
        <time>2021-02-27T14:04:08Z</time>
      </trkpt>
      <trkpt lat="45.23805" lon="6.2021">
        <ele>2158.6</ele>
        <time>2021-02-27T14:04:09Z</time>
      </trkpt>
      <trkpt lat="45.23805" lon="6.2021">
        <ele>2158.6</ele>
        <time>2021-02-27T14:04:10Z</time>
      </trkpt>
      <trkpt lat="45.23805" lon="6.2021">
        <ele>2158.8</ele>
        <time>2021-02-27T14:04:11Z</time>
      </trkpt>
      <trkpt lat="45.23806" lon="6.20213">
        <ele>2158.8</ele>
        <time>2021-02-27T14:04:12Z</time>
      </trkpt>
      <trkpt lat="45.23806" lon="6.20213">
        <ele>2159.4</ele>
        <time>2021-02-27T14:04:13Z</time>
      </trkpt>
      <trkpt lat="45.23807" lon="6.20215">
        <ele>2159.6</ele>
        <time>2021-02-27T14:04:14Z</time>
      </trkpt>
      <trkpt lat="45.23807" lon="6.20215">
        <ele>2159.4</ele>
        <time>2021-02-27T14:04:15Z</time>
      </trkpt>
      <trkpt lat="45.23808" lon="6.20217">
        <ele>2159.8</ele>
        <time>2021-02-27T14:04:16Z</time>
      </trkpt>
      <trkpt lat="45.23808" lon="6.20217">
        <ele>2160</ele>
        <time>2021-02-27T14:04:17Z</time>
      </trkpt>
      <trkpt lat="45.23808" lon="6.20217">
        <ele>2160.2</ele>
        <time>2021-02-27T14:04:18Z</time>
      </trkpt>
      <trkpt lat="45.2381" lon="6.2022">
        <ele>2160.4</ele>
        <time>2021-02-27T14:04:19Z</time>
      </trkpt>
      <trkpt lat="45.2381" lon="6.2022">
        <ele>2160.2</ele>
        <time>2021-02-27T14:04:20Z</time>
      </trkpt>
      <trkpt lat="45.2381" lon="6.2022">
        <ele>2160.2</ele>
        <time>2021-02-27T14:04:21Z</time>
      </trkpt>
      <trkpt lat="45.23812" lon="6.20222">
        <ele>2160.6</ele>
        <time>2021-02-27T14:04:22Z</time>
      </trkpt>
      <trkpt lat="45.23812" lon="6.20222">
        <ele>2160.6</ele>
        <time>2021-02-27T14:04:23Z</time>
      </trkpt>
      <trkpt lat="45.23812" lon="6.20222">
        <ele>2160.6</ele>
        <time>2021-02-27T14:04:24Z</time>
      </trkpt>
      <trkpt lat="45.23813" lon="6.20225">
        <ele>2160.4</ele>
        <time>2021-02-27T14:04:25Z</time>
      </trkpt>
      <trkpt lat="45.23813" lon="6.20225">
        <ele>2160.8</ele>
        <time>2021-02-27T14:04:26Z</time>
      </trkpt>
      <trkpt lat="45.23813" lon="6.20225">
        <ele>2161.2</ele>
        <time>2021-02-27T14:04:27Z</time>
      </trkpt>
      <trkpt lat="45.23813" lon="6.20225">
        <ele>2161.2</ele>
        <time>2021-02-27T14:04:28Z</time>
      </trkpt>
      <trkpt lat="45.23817" lon="6.20228">
        <ele>2161.4</ele>
        <time>2021-02-27T14:04:29Z</time>
      </trkpt>
      <trkpt lat="45.23817" lon="6.20228">
        <ele>2161.6</ele>
        <time>2021-02-27T14:04:30Z</time>
      </trkpt>
      <trkpt lat="45.23818" lon="6.2023">
        <ele>2161.8</ele>
        <time>2021-02-27T14:04:31Z</time>
      </trkpt>
      <trkpt lat="45.23818" lon="6.2023">
        <ele>2161.6</ele>
        <time>2021-02-27T14:04:32Z</time>
      </trkpt>
      <trkpt lat="45.23818" lon="6.2023">
        <ele>2162.2</ele>
        <time>2021-02-27T14:04:33Z</time>
      </trkpt>
      <trkpt lat="45.23818" lon="6.2023">
        <ele>2162.4</ele>
        <time>2021-02-27T14:04:34Z</time>
      </trkpt>
      <trkpt lat="45.23819" lon="6.20232">
        <ele>2162.4</ele>
        <time>2021-02-27T14:04:35Z</time>
      </trkpt>
      <trkpt lat="45.23819" lon="6.20232">
        <ele>2162.6</ele>
        <time>2021-02-27T14:04:36Z</time>
      </trkpt>
      <trkpt lat="45.23821" lon="6.20234">
        <ele>2162.8</ele>
        <time>2021-02-27T14:04:37Z</time>
      </trkpt>
      <trkpt lat="45.23821" lon="6.20234">
        <ele>2163</ele>
        <time>2021-02-27T14:04:38Z</time>
      </trkpt>
      <trkpt lat="45.23821" lon="6.20234">
        <ele>2163.2</ele>
        <time>2021-02-27T14:04:39Z</time>
      </trkpt>
      <trkpt lat="45.23822" lon="6.20237">
        <ele>2163.4</ele>
        <time>2021-02-27T14:04:40Z</time>
      </trkpt>
      <trkpt lat="45.23822" lon="6.20237">
        <ele>2163.6</ele>
        <time>2021-02-27T14:04:41Z</time>
      </trkpt>
      <trkpt lat="45.23822" lon="6.20237">
        <ele>2163.8</ele>
        <time>2021-02-27T14:04:42Z</time>
      </trkpt>
      <trkpt lat="45.23824" lon="6.2024">
        <ele>2163.6</ele>
        <time>2021-02-27T14:04:43Z</time>
      </trkpt>
      <trkpt lat="45.23824" lon="6.2024">
        <ele>2163.8</ele>
        <time>2021-02-27T14:04:44Z</time>
      </trkpt>
      <trkpt lat="45.23825" lon="6.20241">
        <ele>2164</ele>
        <time>2021-02-27T14:04:45Z</time>
      </trkpt>
      <trkpt lat="45.23825" lon="6.20241">
        <ele>2164</ele>
        <time>2021-02-27T14:04:46Z</time>
      </trkpt>
      <trkpt lat="45.23825" lon="6.20241">
        <ele>2164.6</ele>
        <time>2021-02-27T14:04:47Z</time>
      </trkpt>
      <trkpt lat="45.23826" lon="6.20244">
        <ele>2164.8</ele>
        <time>2021-02-27T14:04:48Z</time>
      </trkpt>
      <trkpt lat="45.23826" lon="6.20244">
        <ele>2164.8</ele>
        <time>2021-02-27T14:04:49Z</time>
      </trkpt>
      <trkpt lat="45.23828" lon="6.20246">
        <ele>2165</ele>
        <time>2021-02-27T14:04:50Z</time>
      </trkpt>
      <trkpt lat="45.23828" lon="6.20246">
        <ele>2164.8</ele>
        <time>2021-02-27T14:04:51Z</time>
      </trkpt>
      <trkpt lat="45.23829" lon="6.20249">
        <ele>2165</ele>
        <time>2021-02-27T14:04:52Z</time>
      </trkpt>
      <trkpt lat="45.23829" lon="6.20249">
        <ele>2165.4</ele>
        <time>2021-02-27T14:04:53Z</time>
      </trkpt>
      <trkpt lat="45.2383" lon="6.2025">
        <ele>2165.2</ele>
        <time>2021-02-27T14:04:54Z</time>
      </trkpt>
      <trkpt lat="45.2383" lon="6.2025">
        <ele>2165.2</ele>
        <time>2021-02-27T14:04:55Z</time>
      </trkpt>
      <trkpt lat="45.23832" lon="6.20252">
        <ele>2165.6</ele>
        <time>2021-02-27T14:04:56Z</time>
      </trkpt>
      <trkpt lat="45.23832" lon="6.20252">
        <ele>2165.6</ele>
        <time>2021-02-27T14:04:57Z</time>
      </trkpt>
      <trkpt lat="45.23832" lon="6.20252">
        <ele>2165.8</ele>
        <time>2021-02-27T14:04:58Z</time>
      </trkpt>
      <trkpt lat="45.23834" lon="6.20255">
        <ele>2166.2</ele>
        <time>2021-02-27T14:04:59Z</time>
      </trkpt>
      <trkpt lat="45.23834" lon="6.20255">
        <ele>2166.2</ele>
        <time>2021-02-27T14:05:00Z</time>
      </trkpt>
      <trkpt lat="45.23835" lon="6.20257">
        <ele>2166.6</ele>
        <time>2021-02-27T14:05:01Z</time>
      </trkpt>
      <trkpt lat="45.23835" lon="6.20257">
        <ele>2167</ele>
        <time>2021-02-27T14:05:02Z</time>
      </trkpt>
      <trkpt lat="45.23836" lon="6.20259">
        <ele>2167.2</ele>
        <time>2021-02-27T14:05:03Z</time>
      </trkpt>
      <trkpt lat="45.23836" lon="6.20259">
        <ele>2167.4</ele>
        <time>2021-02-27T14:05:04Z</time>
      </trkpt>
      <trkpt lat="45.23836" lon="6.20259">
        <ele>2167.8</ele>
        <time>2021-02-27T14:05:05Z</time>
      </trkpt>
      <trkpt lat="45.23838" lon="6.20262">
        <ele>2168</ele>
        <time>2021-02-27T14:05:06Z</time>
      </trkpt>
      <trkpt lat="45.23838" lon="6.20262">
        <ele>2168</ele>
        <time>2021-02-27T14:05:07Z</time>
      </trkpt>
      <trkpt lat="45.23839" lon="6.20264">
        <ele>2168</ele>
        <time>2021-02-27T14:05:08Z</time>
      </trkpt>
      <trkpt lat="45.23839" lon="6.20264">
        <ele>2168.4</ele>
        <time>2021-02-27T14:05:09Z</time>
      </trkpt>
      <trkpt lat="45.23839" lon="6.20264">
        <ele>2168.6</ele>
        <time>2021-02-27T14:05:10Z</time>
      </trkpt>
      <trkpt lat="45.23841" lon="6.20267">
        <ele>2169</ele>
        <time>2021-02-27T14:05:11Z</time>
      </trkpt>
      <trkpt lat="45.23841" lon="6.20267">
        <ele>2169</ele>
        <time>2021-02-27T14:05:12Z</time>
      </trkpt>
      <trkpt lat="45.23842" lon="6.20269">
        <ele>2169.6</ele>
        <time>2021-02-27T14:05:13Z</time>
      </trkpt>
      <trkpt lat="45.23842" lon="6.20269">
        <ele>2169.8</ele>
        <time>2021-02-27T14:05:14Z</time>
      </trkpt>
      <trkpt lat="45.23842" lon="6.20269">
        <ele>2170</ele>
        <time>2021-02-27T14:05:15Z</time>
      </trkpt>
      <trkpt lat="45.23844" lon="6.20272">
        <ele>2170</ele>
        <time>2021-02-27T14:05:16Z</time>
      </trkpt>
      <trkpt lat="45.23844" lon="6.20272">
        <ele>2170.4</ele>
        <time>2021-02-27T14:05:17Z</time>
      </trkpt>
      <trkpt lat="45.23844" lon="6.20272">
        <ele>2170.4</ele>
        <time>2021-02-27T14:05:18Z</time>
      </trkpt>
      <trkpt lat="45.23845" lon="6.20275">
        <ele>2170.6</ele>
        <time>2021-02-27T14:05:19Z</time>
      </trkpt>
      <trkpt lat="45.23845" lon="6.20275">
        <ele>2170.6</ele>
        <time>2021-02-27T14:05:20Z</time>
      </trkpt>
      <trkpt lat="45.23847" lon="6.20277">
        <ele>2170.2</ele>
        <time>2021-02-27T14:05:21Z</time>
      </trkpt>
      <trkpt lat="45.23847" lon="6.20277">
        <ele>2170.6</ele>
        <time>2021-02-27T14:05:22Z</time>
      </trkpt>
      <trkpt lat="45.23849" lon="6.2028">
        <ele>2170.8</ele>
        <time>2021-02-27T14:05:23Z</time>
      </trkpt>
      <trkpt lat="45.23849" lon="6.2028">
        <ele>2170.8</ele>
        <time>2021-02-27T14:05:24Z</time>
      </trkpt>
      <trkpt lat="45.2385" lon="6.20282">
        <ele>2171</ele>
        <time>2021-02-27T14:05:25Z</time>
      </trkpt>
      <trkpt lat="45.2385" lon="6.20282">
        <ele>2171.2</ele>
        <time>2021-02-27T14:05:26Z</time>
      </trkpt>
      <trkpt lat="45.23852" lon="6.20284">
        <ele>2171.2</ele>
        <time>2021-02-27T14:05:27Z</time>
      </trkpt>
      <trkpt lat="45.23852" lon="6.20284">
        <ele>2171.6</ele>
        <time>2021-02-27T14:05:28Z</time>
      </trkpt>
      <trkpt lat="45.23853" lon="6.20286">
        <ele>2171.6</ele>
        <time>2021-02-27T14:05:29Z</time>
      </trkpt>
      <trkpt lat="45.23853" lon="6.20286">
        <ele>2171.6</ele>
        <time>2021-02-27T14:05:30Z</time>
      </trkpt>
      <trkpt lat="45.23854" lon="6.20288">
        <ele>2172</ele>
        <time>2021-02-27T14:05:31Z</time>
      </trkpt>
      <trkpt lat="45.23854" lon="6.20288">
        <ele>2172</ele>
        <time>2021-02-27T14:05:32Z</time>
      </trkpt>
      <trkpt lat="45.23856" lon="6.2029">
        <ele>2172.4</ele>
        <time>2021-02-27T14:05:33Z</time>
      </trkpt>
      <trkpt lat="45.23856" lon="6.2029">
        <ele>2172.4</ele>
        <time>2021-02-27T14:05:34Z</time>
      </trkpt>
      <trkpt lat="45.23857" lon="6.20293">
        <ele>2172.4</ele>
        <time>2021-02-27T14:05:35Z</time>
      </trkpt>
      <trkpt lat="45.23857" lon="6.20293">
        <ele>2172.6</ele>
        <time>2021-02-27T14:05:36Z</time>
      </trkpt>
      <trkpt lat="45.23858" lon="6.20295">
        <ele>2172.8</ele>
        <time>2021-02-27T14:05:37Z</time>
      </trkpt>
      <trkpt lat="45.23858" lon="6.20295">
        <ele>2173</ele>
        <time>2021-02-27T14:05:38Z</time>
      </trkpt>
      <trkpt lat="45.2386" lon="6.20297">
        <ele>2173.2</ele>
        <time>2021-02-27T14:05:39Z</time>
      </trkpt>
      <trkpt lat="45.2386" lon="6.20297">
        <ele>2173</ele>
        <time>2021-02-27T14:05:40Z</time>
      </trkpt>
      <trkpt lat="45.23861" lon="6.20299">
        <ele>2173.2</ele>
        <time>2021-02-27T14:05:41Z</time>
      </trkpt>
      <trkpt lat="45.23861" lon="6.20299">
        <ele>2173.2</ele>
        <time>2021-02-27T14:05:42Z</time>
      </trkpt>
      <trkpt lat="45.23862" lon="6.20302">
        <ele>2173.4</ele>
        <time>2021-02-27T14:05:43Z</time>
      </trkpt>
      <trkpt lat="45.23862" lon="6.20302">
        <ele>2173.6</ele>
        <time>2021-02-27T14:05:44Z</time>
      </trkpt>
      <trkpt lat="45.23864" lon="6.20304">
        <ele>2173.6</ele>
        <time>2021-02-27T14:05:45Z</time>
      </trkpt>
      <trkpt lat="45.23864" lon="6.20304">
        <ele>2173.4</ele>
        <time>2021-02-27T14:05:46Z</time>
      </trkpt>
      <trkpt lat="45.23865" lon="6.20307">
        <ele>2173.4</ele>
        <time>2021-02-27T14:05:47Z</time>
      </trkpt>
      <trkpt lat="45.23865" lon="6.20307">
        <ele>2173.8</ele>
        <time>2021-02-27T14:05:48Z</time>
      </trkpt>
      <trkpt lat="45.23867" lon="6.20309">
        <ele>2173.6</ele>
        <time>2021-02-27T14:05:49Z</time>
      </trkpt>
      <trkpt lat="45.23867" lon="6.20309">
        <ele>2173.6</ele>
        <time>2021-02-27T14:05:50Z</time>
      </trkpt>
      <trkpt lat="45.23868" lon="6.20312">
        <ele>2173.8</ele>
        <time>2021-02-27T14:05:51Z</time>
      </trkpt>
      <trkpt lat="45.23868" lon="6.20312">
        <ele>2173.8</ele>
        <time>2021-02-27T14:05:52Z</time>
      </trkpt>
      <trkpt lat="45.23869" lon="6.20313">
        <ele>2173.8</ele>
        <time>2021-02-27T14:05:53Z</time>
      </trkpt>
      <trkpt lat="45.2387" lon="6.20314">
        <ele>2173.8</ele>
        <time>2021-02-27T14:05:54Z</time>
      </trkpt>
      <trkpt lat="45.2387" lon="6.20315">
        <ele>2173.8</ele>
        <time>2021-02-27T14:05:55Z</time>
      </trkpt>
      <trkpt lat="45.23871" lon="6.20316">
        <ele>2174</ele>
        <time>2021-02-27T14:05:56Z</time>
      </trkpt>
      <trkpt lat="45.23871" lon="6.20317">
        <ele>2174</ele>
        <time>2021-02-27T14:05:57Z</time>
      </trkpt>
      <trkpt lat="45.23872" lon="6.20318">
        <ele>2174</ele>
        <time>2021-02-27T14:05:58Z</time>
      </trkpt>
      <trkpt lat="45.23872" lon="6.20319">
        <ele>2174.2</ele>
        <time>2021-02-27T14:05:59Z</time>
      </trkpt>
      <trkpt lat="45.23873" lon="6.2032">
        <ele>2174</ele>
        <time>2021-02-27T14:06:00Z</time>
      </trkpt>
      <trkpt lat="45.23873" lon="6.20321">
        <ele>2174.2</ele>
        <time>2021-02-27T14:06:01Z</time>
      </trkpt>
      <trkpt lat="45.23873" lon="6.20321">
        <ele>2174.6</ele>
        <time>2021-02-27T14:06:02Z</time>
      </trkpt>
      <trkpt lat="45.23873" lon="6.20321">
        <ele>2174.4</ele>
        <time>2021-02-27T14:06:03Z</time>
      </trkpt>
      <trkpt lat="45.23873" lon="6.20321">
        <ele>2174.6</ele>
        <time>2021-02-27T14:06:04Z</time>
      </trkpt>
      <trkpt lat="45.23874" lon="6.20326">
        <ele>2175</ele>
        <time>2021-02-27T14:06:05Z</time>
      </trkpt>
      <trkpt lat="45.23874" lon="6.20326">
        <ele>2174.8</ele>
        <time>2021-02-27T14:06:06Z</time>
      </trkpt>
      <trkpt lat="45.23874" lon="6.20326">
        <ele>2175.2</ele>
        <time>2021-02-27T14:06:07Z</time>
      </trkpt>
      <trkpt lat="45.23875" lon="6.20329">
        <ele>2175.2</ele>
        <time>2021-02-27T14:06:08Z</time>
      </trkpt>
      <trkpt lat="45.23875" lon="6.20329">
        <ele>2175.6</ele>
        <time>2021-02-27T14:06:09Z</time>
      </trkpt>
      <trkpt lat="45.23875" lon="6.20329">
        <ele>2176</ele>
        <time>2021-02-27T14:06:10Z</time>
      </trkpt>
      <trkpt lat="45.23876" lon="6.20332">
        <ele>2175.8</ele>
        <time>2021-02-27T14:06:11Z</time>
      </trkpt>
      <trkpt lat="45.23876" lon="6.20332">
        <ele>2175.8</ele>
        <time>2021-02-27T14:06:12Z</time>
      </trkpt>
      <trkpt lat="45.23877" lon="6.20334">
        <ele>2176</ele>
        <time>2021-02-27T14:06:13Z</time>
      </trkpt>
      <trkpt lat="45.23877" lon="6.20334">
        <ele>2175.8</ele>
        <time>2021-02-27T14:06:14Z</time>
      </trkpt>
      <trkpt lat="45.23878" lon="6.20336">
        <ele>2176.2</ele>
        <time>2021-02-27T14:06:15Z</time>
      </trkpt>
      <trkpt lat="45.23878" lon="6.20336">
        <ele>2176.6</ele>
        <time>2021-02-27T14:06:16Z</time>
      </trkpt>
      <trkpt lat="45.23878" lon="6.20336">
        <ele>2176.4</ele>
        <time>2021-02-27T14:06:17Z</time>
      </trkpt>
      <trkpt lat="45.2388" lon="6.20339">
        <ele>2176.4</ele>
        <time>2021-02-27T14:06:18Z</time>
      </trkpt>
      <trkpt lat="45.2388" lon="6.20339">
        <ele>2176.8</ele>
        <time>2021-02-27T14:06:19Z</time>
      </trkpt>
      <trkpt lat="45.23881" lon="6.20342">
        <ele>2176.8</ele>
        <time>2021-02-27T14:06:20Z</time>
      </trkpt>
      <trkpt lat="45.23881" lon="6.20342">
        <ele>2177</ele>
        <time>2021-02-27T14:06:21Z</time>
      </trkpt>
      <trkpt lat="45.23882" lon="6.20344">
        <ele>2177.4</ele>
        <time>2021-02-27T14:06:22Z</time>
      </trkpt>
      <trkpt lat="45.23882" lon="6.20344">
        <ele>2177.2</ele>
        <time>2021-02-27T14:06:23Z</time>
      </trkpt>
      <trkpt lat="45.23883" lon="6.20346">
        <ele>2177.2</ele>
        <time>2021-02-27T14:06:24Z</time>
      </trkpt>
      <trkpt lat="45.23883" lon="6.20346">
        <ele>2177.2</ele>
        <time>2021-02-27T14:06:25Z</time>
      </trkpt>
      <trkpt lat="45.23884" lon="6.20349">
        <ele>2177.4</ele>
        <time>2021-02-27T14:06:26Z</time>
      </trkpt>
      <trkpt lat="45.23884" lon="6.20349">
        <ele>2177.4</ele>
        <time>2021-02-27T14:06:27Z</time>
      </trkpt>
      <trkpt lat="45.23885" lon="6.20351">
        <ele>2177.8</ele>
        <time>2021-02-27T14:06:28Z</time>
      </trkpt>
      <trkpt lat="45.23885" lon="6.20351">
        <ele>2178</ele>
        <time>2021-02-27T14:06:29Z</time>
      </trkpt>
      <trkpt lat="45.23885" lon="6.20351">
        <ele>2177.8</ele>
        <time>2021-02-27T14:06:30Z</time>
      </trkpt>
      <trkpt lat="45.23886" lon="6.20354">
        <ele>2178.4</ele>
        <time>2021-02-27T14:06:31Z</time>
      </trkpt>
      <trkpt lat="45.23886" lon="6.20354">
        <ele>2178.6</ele>
        <time>2021-02-27T14:06:32Z</time>
      </trkpt>
      <trkpt lat="45.23888" lon="6.20356">
        <ele>2178.8</ele>
        <time>2021-02-27T14:06:33Z</time>
      </trkpt>
      <trkpt lat="45.23888" lon="6.20356">
        <ele>2178.8</ele>
        <time>2021-02-27T14:06:34Z</time>
      </trkpt>
      <trkpt lat="45.23888" lon="6.20356">
        <ele>2178.8</ele>
        <time>2021-02-27T14:06:35Z</time>
      </trkpt>
      <trkpt lat="45.23889" lon="6.20359">
        <ele>2178.8</ele>
        <time>2021-02-27T14:06:36Z</time>
      </trkpt>
      <trkpt lat="45.23889" lon="6.20359">
        <ele>2179</ele>
        <time>2021-02-27T14:06:37Z</time>
      </trkpt>
      <trkpt lat="45.2389" lon="6.20361">
        <ele>2179.2</ele>
        <time>2021-02-27T14:06:38Z</time>
      </trkpt>
      <trkpt lat="45.2389" lon="6.20361">
        <ele>2179.4</ele>
        <time>2021-02-27T14:06:39Z</time>
      </trkpt>
      <trkpt lat="45.23893" lon="6.20364">
        <ele>2179.6</ele>
        <time>2021-02-27T14:06:40Z</time>
      </trkpt>
      <trkpt lat="45.23893" lon="6.20364">
        <ele>2179.6</ele>
        <time>2021-02-27T14:06:41Z</time>
      </trkpt>
      <trkpt lat="45.23893" lon="6.20364">
        <ele>2180</ele>
        <time>2021-02-27T14:06:42Z</time>
      </trkpt>
      <trkpt lat="45.23894" lon="6.20367">
        <ele>2180.2</ele>
        <time>2021-02-27T14:06:43Z</time>
      </trkpt>
      <trkpt lat="45.23894" lon="6.20367">
        <ele>2180.2</ele>
        <time>2021-02-27T14:06:44Z</time>
      </trkpt>
      <trkpt lat="45.23894" lon="6.20367">
        <ele>2180.6</ele>
        <time>2021-02-27T14:06:45Z</time>
      </trkpt>
      <trkpt lat="45.23895" lon="6.2037">
        <ele>2180.2</ele>
        <time>2021-02-27T14:06:46Z</time>
      </trkpt>
      <trkpt lat="45.23895" lon="6.2037">
        <ele>2180.2</ele>
        <time>2021-02-27T14:06:47Z</time>
      </trkpt>
      <trkpt lat="45.23895" lon="6.2037">
        <ele>2180.6</ele>
        <time>2021-02-27T14:06:48Z</time>
      </trkpt>
      <trkpt lat="45.23897" lon="6.20373">
        <ele>2180.8</ele>
        <time>2021-02-27T14:06:49Z</time>
      </trkpt>
      <trkpt lat="45.23897" lon="6.20373">
        <ele>2181</ele>
        <time>2021-02-27T14:06:50Z</time>
      </trkpt>
      <trkpt lat="45.23898" lon="6.20374">
        <ele>2181.2</ele>
        <time>2021-02-27T14:06:51Z</time>
      </trkpt>
      <trkpt lat="45.23898" lon="6.20374">
        <ele>2181.6</ele>
        <time>2021-02-27T14:06:52Z</time>
      </trkpt>
      <trkpt lat="45.23899" lon="6.20376">
        <ele>2181.6</ele>
        <time>2021-02-27T14:06:53Z</time>
      </trkpt>
      <trkpt lat="45.23899" lon="6.20376">
        <ele>2181.8</ele>
        <time>2021-02-27T14:06:54Z</time>
      </trkpt>
      <trkpt lat="45.23901" lon="6.20379">
        <ele>2181.8</ele>
        <time>2021-02-27T14:06:55Z</time>
      </trkpt>
      <trkpt lat="45.23901" lon="6.20379">
        <ele>2182.2</ele>
        <time>2021-02-27T14:06:56Z</time>
      </trkpt>
      <trkpt lat="45.23901" lon="6.20379">
        <ele>2182.4</ele>
        <time>2021-02-27T14:06:57Z</time>
      </trkpt>
      <trkpt lat="45.23902" lon="6.20382">
        <ele>2182.6</ele>
        <time>2021-02-27T14:06:58Z</time>
      </trkpt>
      <trkpt lat="45.23902" lon="6.20382">
        <ele>2182.8</ele>
        <time>2021-02-27T14:06:59Z</time>
      </trkpt>
      <trkpt lat="45.23904" lon="6.20384">
        <ele>2182.8</ele>
        <time>2021-02-27T14:07:00Z</time>
      </trkpt>
      <trkpt lat="45.23904" lon="6.20384">
        <ele>2182.8</ele>
        <time>2021-02-27T14:07:01Z</time>
      </trkpt>
      <trkpt lat="45.23905" lon="6.20387">
        <ele>2182.8</ele>
        <time>2021-02-27T14:07:02Z</time>
      </trkpt>
      <trkpt lat="45.23905" lon="6.20387">
        <ele>2182.6</ele>
        <time>2021-02-27T14:07:03Z</time>
      </trkpt>
      <trkpt lat="45.23905" lon="6.20387">
        <ele>2182.2</ele>
        <time>2021-02-27T14:07:04Z</time>
      </trkpt>
      <trkpt lat="45.23905" lon="6.2039">
        <ele>2182.8</ele>
        <time>2021-02-27T14:07:05Z</time>
      </trkpt>
      <trkpt lat="45.23905" lon="6.2039">
        <ele>2182.4</ele>
        <time>2021-02-27T14:07:06Z</time>
      </trkpt>
      <trkpt lat="45.23907" lon="6.20393">
        <ele>2182.6</ele>
        <time>2021-02-27T14:07:07Z</time>
      </trkpt>
      <trkpt lat="45.23907" lon="6.20393">
        <ele>2182.6</ele>
        <time>2021-02-27T14:07:08Z</time>
      </trkpt>
      <trkpt lat="45.23907" lon="6.20393">
        <ele>2182.8</ele>
        <time>2021-02-27T14:07:09Z</time>
      </trkpt>
      <trkpt lat="45.23907" lon="6.20393">
        <ele>2183.2</ele>
        <time>2021-02-27T14:07:10Z</time>
      </trkpt>
      <trkpt lat="45.23906" lon="6.20396">
        <ele>2183</ele>
        <time>2021-02-27T14:07:11Z</time>
      </trkpt>
      <trkpt lat="45.23906" lon="6.20396">
        <ele>2183</ele>
        <time>2021-02-27T14:07:12Z</time>
      </trkpt>
      <trkpt lat="45.23906" lon="6.20396">
        <ele>2183</ele>
        <time>2021-02-27T14:07:13Z</time>
      </trkpt>
      <trkpt lat="45.23907" lon="6.20399">
        <ele>2183</ele>
        <time>2021-02-27T14:07:14Z</time>
      </trkpt>
      <trkpt lat="45.23907" lon="6.20399">
        <ele>2183.6</ele>
        <time>2021-02-27T14:07:15Z</time>
      </trkpt>
      <trkpt lat="45.23907" lon="6.20399">
        <ele>2183.6</ele>
        <time>2021-02-27T14:07:16Z</time>
      </trkpt>
      <trkpt lat="45.23908" lon="6.20402">
        <ele>2184.2</ele>
        <time>2021-02-27T14:07:17Z</time>
      </trkpt>
      <trkpt lat="45.23908" lon="6.20402">
        <ele>2184.4</ele>
        <time>2021-02-27T14:07:18Z</time>
      </trkpt>
      <trkpt lat="45.2391" lon="6.20405">
        <ele>2184.6</ele>
        <time>2021-02-27T14:07:19Z</time>
      </trkpt>
      <trkpt lat="45.2391" lon="6.20405">
        <ele>2184.6</ele>
        <time>2021-02-27T14:07:20Z</time>
      </trkpt>
      <trkpt lat="45.23911" lon="6.20406">
        <ele>2184.8</ele>
        <time>2021-02-27T14:07:21Z</time>
      </trkpt>
      <trkpt lat="45.23911" lon="6.20406">
        <ele>2184.8</ele>
        <time>2021-02-27T14:07:22Z</time>
      </trkpt>
      <trkpt lat="45.23911" lon="6.20406">
        <ele>2185</ele>
        <time>2021-02-27T14:07:23Z</time>
      </trkpt>
      <trkpt lat="45.23913" lon="6.20409">
        <ele>2185.2</ele>
        <time>2021-02-27T14:07:24Z</time>
      </trkpt>
      <trkpt lat="45.23913" lon="6.20409">
        <ele>2184.8</ele>
        <time>2021-02-27T14:07:25Z</time>
      </trkpt>
      <trkpt lat="45.23913" lon="6.20409">
        <ele>2185.4</ele>
        <time>2021-02-27T14:07:26Z</time>
      </trkpt>
      <trkpt lat="45.23914" lon="6.20411">
        <ele>2185.4</ele>
        <time>2021-02-27T14:07:27Z</time>
      </trkpt>
      <trkpt lat="45.23914" lon="6.20411">
        <ele>2185.2</ele>
        <time>2021-02-27T14:07:28Z</time>
      </trkpt>
      <trkpt lat="45.23914" lon="6.20411">
        <ele>2185.6</ele>
        <time>2021-02-27T14:07:29Z</time>
      </trkpt>
      <trkpt lat="45.23915" lon="6.20414">
        <ele>2185.8</ele>
        <time>2021-02-27T14:07:30Z</time>
      </trkpt>
      <trkpt lat="45.23915" lon="6.20414">
        <ele>2185.8</ele>
        <time>2021-02-27T14:07:31Z</time>
      </trkpt>
      <trkpt lat="45.23915" lon="6.20414">
        <ele>2186</ele>
        <time>2021-02-27T14:07:32Z</time>
      </trkpt>
      <trkpt lat="45.23914" lon="6.20416">
        <ele>2186</ele>
        <time>2021-02-27T14:07:33Z</time>
      </trkpt>
      <trkpt lat="45.23914" lon="6.20416">
        <ele>2186.2</ele>
        <time>2021-02-27T14:07:34Z</time>
      </trkpt>
      <trkpt lat="45.23912" lon="6.20417">
        <ele>2186.6</ele>
        <time>2021-02-27T14:07:35Z</time>
      </trkpt>
      <trkpt lat="45.23912" lon="6.20417">
        <ele>2187.6</ele>
        <time>2021-02-27T14:07:36Z</time>
      </trkpt>
      <trkpt lat="45.23909" lon="6.20417">
        <ele>2188</ele>
        <time>2021-02-27T14:07:37Z</time>
      </trkpt>
      <trkpt lat="45.23909" lon="6.20417">
        <ele>2188.2</ele>
        <time>2021-02-27T14:07:38Z</time>
      </trkpt>
      <trkpt lat="45.23909" lon="6.20417">
        <ele>2188.8</ele>
        <time>2021-02-27T14:07:39Z</time>
      </trkpt>
      <trkpt lat="45.23907" lon="6.20417">
        <ele>2189</ele>
        <time>2021-02-27T14:07:40Z</time>
      </trkpt>
      <trkpt lat="45.23907" lon="6.20417">
        <ele>2188.8</ele>
        <time>2021-02-27T14:07:41Z</time>
      </trkpt>
      <trkpt lat="45.23907" lon="6.20417">
        <ele>2189</ele>
        <time>2021-02-27T14:07:42Z</time>
      </trkpt>
      <trkpt lat="45.23905" lon="6.20418">
        <ele>2189</ele>
        <time>2021-02-27T14:07:43Z</time>
      </trkpt>
      <trkpt lat="45.23905" lon="6.20418">
        <ele>2188.8</ele>
        <time>2021-02-27T14:07:44Z</time>
      </trkpt>
      <trkpt lat="45.23905" lon="6.20418">
        <ele>2189</ele>
        <time>2021-02-27T14:07:45Z</time>
      </trkpt>
      <trkpt lat="45.23902" lon="6.20418">
        <ele>2189.2</ele>
        <time>2021-02-27T14:07:46Z</time>
      </trkpt>
      <trkpt lat="45.23902" lon="6.20418">
        <ele>2189</ele>
        <time>2021-02-27T14:07:47Z</time>
      </trkpt>
      <trkpt lat="45.23902" lon="6.20418">
        <ele>2189.4</ele>
        <time>2021-02-27T14:07:48Z</time>
      </trkpt>
      <trkpt lat="45.239" lon="6.20418">
        <ele>2189.2</ele>
        <time>2021-02-27T14:07:49Z</time>
      </trkpt>
      <trkpt lat="45.239" lon="6.20418">
        <ele>2189.6</ele>
        <time>2021-02-27T14:07:50Z</time>
      </trkpt>
      <trkpt lat="45.239" lon="6.20418">
        <ele>2190.2</ele>
        <time>2021-02-27T14:07:51Z</time>
      </trkpt>
      <trkpt lat="45.23897" lon="6.20419">
        <ele>2190.2</ele>
        <time>2021-02-27T14:07:52Z</time>
      </trkpt>
      <trkpt lat="45.23897" lon="6.20419">
        <ele>2190.4</ele>
        <time>2021-02-27T14:07:53Z</time>
      </trkpt>
      <trkpt lat="45.23895" lon="6.20419">
        <ele>2190.8</ele>
        <time>2021-02-27T14:07:54Z</time>
      </trkpt>
      <trkpt lat="45.23895" lon="6.20419">
        <ele>2190.4</ele>
        <time>2021-02-27T14:07:55Z</time>
      </trkpt>
      <trkpt lat="45.23895" lon="6.20419">
        <ele>2190.6</ele>
        <time>2021-02-27T14:07:56Z</time>
      </trkpt>
      <trkpt lat="45.23893" lon="6.2042">
        <ele>2191</ele>
        <time>2021-02-27T14:07:57Z</time>
      </trkpt>
      <trkpt lat="45.23893" lon="6.2042">
        <ele>2191.6</ele>
        <time>2021-02-27T14:07:58Z</time>
      </trkpt>
      <trkpt lat="45.23893" lon="6.2042">
        <ele>2191.8</ele>
        <time>2021-02-27T14:07:59Z</time>
      </trkpt>
      <trkpt lat="45.23893" lon="6.2042">
        <ele>2192.2</ele>
        <time>2021-02-27T14:08:00Z</time>
      </trkpt>
      <trkpt lat="45.23891" lon="6.20419">
        <ele>2192.6</ele>
        <time>2021-02-27T14:08:01Z</time>
      </trkpt>
      <trkpt lat="45.23891" lon="6.20419">
        <ele>2192.6</ele>
        <time>2021-02-27T14:08:02Z</time>
      </trkpt>
      <trkpt lat="45.23891" lon="6.20419">
        <ele>2192.8</ele>
        <time>2021-02-27T14:08:03Z</time>
      </trkpt>
      <trkpt lat="45.23891" lon="6.20419">
        <ele>2193.2</ele>
        <time>2021-02-27T14:08:04Z</time>
      </trkpt>
      <trkpt lat="45.23891" lon="6.20419">
        <ele>2193.6</ele>
        <time>2021-02-27T14:08:05Z</time>
      </trkpt>
      <trkpt lat="45.23891" lon="6.20419">
        <ele>2193.8</ele>
        <time>2021-02-27T14:08:06Z</time>
      </trkpt>
      <trkpt lat="45.23891" lon="6.20419">
        <ele>2194</ele>
        <time>2021-02-27T14:08:07Z</time>
      </trkpt>
      <trkpt lat="45.23891" lon="6.20419">
        <ele>2194.2</ele>
        <time>2021-02-27T14:08:08Z</time>
      </trkpt>
      <trkpt lat="45.23891" lon="6.20419">
        <ele>2194.2</ele>
        <time>2021-02-27T14:08:09Z</time>
      </trkpt>
      <trkpt lat="45.23891" lon="6.20419">
        <ele>2194.4</ele>
        <time>2021-02-27T14:08:10Z</time>
      </trkpt>
      <trkpt lat="45.23891" lon="6.20419">
        <ele>2194.4</ele>
        <time>2021-02-27T14:08:11Z</time>
      </trkpt>
      <trkpt lat="45.23891" lon="6.20419">
        <ele>2194.4</ele>
        <time>2021-02-27T14:08:12Z</time>
      </trkpt>
      <trkpt lat="45.23891" lon="6.20419">
        <ele>2194.6</ele>
        <time>2021-02-27T14:08:13Z</time>
      </trkpt>
      <trkpt lat="45.23891" lon="6.20419">
        <ele>2195</ele>
        <time>2021-02-27T14:08:14Z</time>
      </trkpt>
      <trkpt lat="45.23891" lon="6.20419">
        <ele>2195.2</ele>
        <time>2021-02-27T14:08:15Z</time>
      </trkpt>
      <trkpt lat="45.23891" lon="6.20419">
        <ele>2195.2</ele>
        <time>2021-02-27T14:08:16Z</time>
      </trkpt>
      <trkpt lat="45.23891" lon="6.20419">
        <ele>2195.4</ele>
        <time>2021-02-27T14:08:17Z</time>
      </trkpt>
      <trkpt lat="45.23889" lon="6.20419">
        <ele>2195.6</ele>
        <time>2021-02-27T14:08:18Z</time>
      </trkpt>
      <trkpt lat="45.23889" lon="6.20419">
        <ele>2195.6</ele>
        <time>2021-02-27T14:08:19Z</time>
      </trkpt>
      <trkpt lat="45.23889" lon="6.20419">
        <ele>2195.6</ele>
        <time>2021-02-27T14:08:20Z</time>
      </trkpt>
      <trkpt lat="45.23889" lon="6.20419">
        <ele>2195.4</ele>
        <time>2021-02-27T14:08:21Z</time>
      </trkpt>
      <trkpt lat="45.23887" lon="6.2042">
        <ele>2195</ele>
        <time>2021-02-27T14:08:22Z</time>
      </trkpt>
      <trkpt lat="45.23887" lon="6.2042">
        <ele>2194.8</ele>
        <time>2021-02-27T14:08:23Z</time>
      </trkpt>
      <trkpt lat="45.23885" lon="6.2042">
        <ele>2195</ele>
        <time>2021-02-27T14:08:24Z</time>
      </trkpt>
      <trkpt lat="45.23885" lon="6.2042">
        <ele>2195.2</ele>
        <time>2021-02-27T14:08:25Z</time>
      </trkpt>
      <trkpt lat="45.23882" lon="6.20421">
        <ele>2195.6</ele>
        <time>2021-02-27T14:08:26Z</time>
      </trkpt>
      <trkpt lat="45.23882" lon="6.20421">
        <ele>2196</ele>
        <time>2021-02-27T14:08:27Z</time>
      </trkpt>
      <trkpt lat="45.23882" lon="6.20421">
        <ele>2196.6</ele>
        <time>2021-02-27T14:08:28Z</time>
      </trkpt>
      <trkpt lat="45.2388" lon="6.20422">
        <ele>2196.6</ele>
        <time>2021-02-27T14:08:29Z</time>
      </trkpt>
      <trkpt lat="45.2388" lon="6.20422">
        <ele>2196.8</ele>
        <time>2021-02-27T14:08:30Z</time>
      </trkpt>
      <trkpt lat="45.23878" lon="6.20423">
        <ele>2197</ele>
        <time>2021-02-27T14:08:31Z</time>
      </trkpt>
      <trkpt lat="45.23878" lon="6.20423">
        <ele>2197.2</ele>
        <time>2021-02-27T14:08:32Z</time>
      </trkpt>
      <trkpt lat="45.23877" lon="6.20423">
        <ele>2197.2</ele>
        <time>2021-02-27T14:08:33Z</time>
      </trkpt>
      <trkpt lat="45.23876" lon="6.20424">
        <ele>2197.4</ele>
        <time>2021-02-27T14:08:34Z</time>
      </trkpt>
      <trkpt lat="45.23875" lon="6.20424">
        <ele>2197.4</ele>
        <time>2021-02-27T14:08:35Z</time>
      </trkpt>
      <trkpt lat="45.23873" lon="6.20424">
        <ele>2197.4</ele>
        <time>2021-02-27T14:08:36Z</time>
      </trkpt>
      <trkpt lat="45.23872" lon="6.20425">
        <ele>2197.6</ele>
        <time>2021-02-27T14:08:37Z</time>
      </trkpt>
      <trkpt lat="45.23871" lon="6.20426">
        <ele>2197.4</ele>
        <time>2021-02-27T14:08:38Z</time>
      </trkpt>
      <trkpt lat="45.23871" lon="6.20426">
        <ele>2197.4</ele>
        <time>2021-02-27T14:08:39Z</time>
      </trkpt>
      <trkpt lat="45.2387" lon="6.20427">
        <ele>2197.6</ele>
        <time>2021-02-27T14:08:40Z</time>
      </trkpt>
      <trkpt lat="45.23869" lon="6.20428">
        <ele>2197.8</ele>
        <time>2021-02-27T14:08:41Z</time>
      </trkpt>
      <trkpt lat="45.23868" lon="6.20429">
        <ele>2197.8</ele>
        <time>2021-02-27T14:08:42Z</time>
      </trkpt>
      <trkpt lat="45.23867" lon="6.20429">
        <ele>2197.6</ele>
        <time>2021-02-27T14:08:43Z</time>
      </trkpt>
      <trkpt lat="45.23867" lon="6.2043">
        <ele>2197.8</ele>
        <time>2021-02-27T14:08:44Z</time>
      </trkpt>
      <trkpt lat="45.23867" lon="6.2043">
        <ele>2197.8</ele>
        <time>2021-02-27T14:08:45Z</time>
      </trkpt>
      <trkpt lat="45.23865" lon="6.20432">
        <ele>2197.8</ele>
        <time>2021-02-27T14:08:46Z</time>
      </trkpt>
      <trkpt lat="45.23865" lon="6.20432">
        <ele>2198.2</ele>
        <time>2021-02-27T14:08:47Z</time>
      </trkpt>
      <trkpt lat="45.23865" lon="6.20432">
        <ele>2198.2</ele>
        <time>2021-02-27T14:08:48Z</time>
      </trkpt>
      <trkpt lat="45.23865" lon="6.20436">
        <ele>2198.4</ele>
        <time>2021-02-27T14:08:49Z</time>
      </trkpt>
      <trkpt lat="45.23865" lon="6.20436">
        <ele>2198.6</ele>
        <time>2021-02-27T14:08:50Z</time>
      </trkpt>
      <trkpt lat="45.23865" lon="6.20436">
        <ele>2198.6</ele>
        <time>2021-02-27T14:08:51Z</time>
      </trkpt>
      <trkpt lat="45.23865" lon="6.2044">
        <ele>2199</ele>
        <time>2021-02-27T14:08:52Z</time>
      </trkpt>
      <trkpt lat="45.23865" lon="6.2044">
        <ele>2199.2</ele>
        <time>2021-02-27T14:08:53Z</time>
      </trkpt>
      <trkpt lat="45.23865" lon="6.2044">
        <ele>2199.2</ele>
        <time>2021-02-27T14:08:54Z</time>
      </trkpt>
      <trkpt lat="45.23865" lon="6.20443">
        <ele>2199.6</ele>
        <time>2021-02-27T14:08:55Z</time>
      </trkpt>
      <trkpt lat="45.23865" lon="6.20443">
        <ele>2199.8</ele>
        <time>2021-02-27T14:08:56Z</time>
      </trkpt>
      <trkpt lat="45.23865" lon="6.20443">
        <ele>2200</ele>
        <time>2021-02-27T14:08:57Z</time>
      </trkpt>
      <trkpt lat="45.23865" lon="6.20446">
        <ele>2200.6</ele>
        <time>2021-02-27T14:08:58Z</time>
      </trkpt>
      <trkpt lat="45.23865" lon="6.20446">
        <ele>2200.8</ele>
        <time>2021-02-27T14:08:59Z</time>
      </trkpt>
      <trkpt lat="45.23865" lon="6.20446">
        <ele>2200.8</ele>
        <time>2021-02-27T14:09:00Z</time>
      </trkpt>
      <trkpt lat="45.23866" lon="6.20449">
        <ele>2201.4</ele>
        <time>2021-02-27T14:09:01Z</time>
      </trkpt>
      <trkpt lat="45.23866" lon="6.20449">
        <ele>2201.4</ele>
        <time>2021-02-27T14:09:02Z</time>
      </trkpt>
      <trkpt lat="45.23868" lon="6.20451">
        <ele>2201.6</ele>
        <time>2021-02-27T14:09:03Z</time>
      </trkpt>
      <trkpt lat="45.23868" lon="6.20451">
        <ele>2201.8</ele>
        <time>2021-02-27T14:09:04Z</time>
      </trkpt>
      <trkpt lat="45.23869" lon="6.20454">
        <ele>2202</ele>
        <time>2021-02-27T14:09:05Z</time>
      </trkpt>
      <trkpt lat="45.23869" lon="6.20454">
        <ele>2202.2</ele>
        <time>2021-02-27T14:09:06Z</time>
      </trkpt>
      <trkpt lat="45.23869" lon="6.20454">
        <ele>2202.6</ele>
        <time>2021-02-27T14:09:07Z</time>
      </trkpt>
      <trkpt lat="45.23869" lon="6.20457">
        <ele>2203.2</ele>
        <time>2021-02-27T14:09:08Z</time>
      </trkpt>
      <trkpt lat="45.23869" lon="6.20457">
        <ele>2203.4</ele>
        <time>2021-02-27T14:09:09Z</time>
      </trkpt>
      <trkpt lat="45.23869" lon="6.20457">
        <ele>2203.8</ele>
        <time>2021-02-27T14:09:10Z</time>
      </trkpt>
      <trkpt lat="45.23871" lon="6.20459">
        <ele>2204.2</ele>
        <time>2021-02-27T14:09:11Z</time>
      </trkpt>
      <trkpt lat="45.23871" lon="6.20459">
        <ele>2204.6</ele>
        <time>2021-02-27T14:09:12Z</time>
      </trkpt>
      <trkpt lat="45.23871" lon="6.20459">
        <ele>2204.6</ele>
        <time>2021-02-27T14:09:13Z</time>
      </trkpt>
      <trkpt lat="45.23871" lon="6.20462">
        <ele>2205</ele>
        <time>2021-02-27T14:09:14Z</time>
      </trkpt>
      <trkpt lat="45.23871" lon="6.20462">
        <ele>2205.2</ele>
        <time>2021-02-27T14:09:15Z</time>
      </trkpt>
      <trkpt lat="45.23871" lon="6.20462">
        <ele>2205.4</ele>
        <time>2021-02-27T14:09:16Z</time>
      </trkpt>
      <trkpt lat="45.23871" lon="6.20465">
        <ele>2205.8</ele>
        <time>2021-02-27T14:09:17Z</time>
      </trkpt>
      <trkpt lat="45.23871" lon="6.20465">
        <ele>2206.2</ele>
        <time>2021-02-27T14:09:18Z</time>
      </trkpt>
      <trkpt lat="45.23871" lon="6.20465">
        <ele>2206.2</ele>
        <time>2021-02-27T14:09:19Z</time>
      </trkpt>
      <trkpt lat="45.23872" lon="6.20468">
        <ele>2206.4</ele>
        <time>2021-02-27T14:09:20Z</time>
      </trkpt>
      <trkpt lat="45.23872" lon="6.20468">
        <ele>2206.6</ele>
        <time>2021-02-27T14:09:21Z</time>
      </trkpt>
      <trkpt lat="45.23872" lon="6.20468">
        <ele>2206.8</ele>
        <time>2021-02-27T14:09:22Z</time>
      </trkpt>
      <trkpt lat="45.23873" lon="6.20471">
        <ele>2207.4</ele>
        <time>2021-02-27T14:09:23Z</time>
      </trkpt>
      <trkpt lat="45.23873" lon="6.20471">
        <ele>2207.4</ele>
        <time>2021-02-27T14:09:24Z</time>
      </trkpt>
      <trkpt lat="45.23874" lon="6.20473">
        <ele>2207.6</ele>
        <time>2021-02-27T14:09:25Z</time>
      </trkpt>
      <trkpt lat="45.23874" lon="6.20473">
        <ele>2207.8</ele>
        <time>2021-02-27T14:09:26Z</time>
      </trkpt>
      <trkpt lat="45.23874" lon="6.20473">
        <ele>2208.2</ele>
        <time>2021-02-27T14:09:27Z</time>
      </trkpt>
      <trkpt lat="45.23876" lon="6.20475">
        <ele>2208.4</ele>
        <time>2021-02-27T14:09:28Z</time>
      </trkpt>
      <trkpt lat="45.23876" lon="6.20475">
        <ele>2208.6</ele>
        <time>2021-02-27T14:09:29Z</time>
      </trkpt>
      <trkpt lat="45.23876" lon="6.20475">
        <ele>2208.8</ele>
        <time>2021-02-27T14:09:30Z</time>
      </trkpt>
      <trkpt lat="45.23876" lon="6.20475">
        <ele>2209.2</ele>
        <time>2021-02-27T14:09:31Z</time>
      </trkpt>
      <trkpt lat="45.23878" lon="6.20478">
        <ele>2209.8</ele>
        <time>2021-02-27T14:09:32Z</time>
      </trkpt>
      <trkpt lat="45.23878" lon="6.20478">
        <ele>2210</ele>
        <time>2021-02-27T14:09:33Z</time>
      </trkpt>
      <trkpt lat="45.23878" lon="6.20478">
        <ele>2210.2</ele>
        <time>2021-02-27T14:09:34Z</time>
      </trkpt>
      <trkpt lat="45.23879" lon="6.20482">
        <ele>2210.4</ele>
        <time>2021-02-27T14:09:35Z</time>
      </trkpt>
      <trkpt lat="45.23879" lon="6.20482">
        <ele>2210.2</ele>
        <time>2021-02-27T14:09:36Z</time>
      </trkpt>
      <trkpt lat="45.2388" lon="6.20484">
        <ele>2209.8</ele>
        <time>2021-02-27T14:09:37Z</time>
      </trkpt>
      <trkpt lat="45.2388" lon="6.20484">
        <ele>2210.4</ele>
        <time>2021-02-27T14:09:38Z</time>
      </trkpt>
      <trkpt lat="45.2388" lon="6.20487">
        <ele>2210.4</ele>
        <time>2021-02-27T14:09:39Z</time>
      </trkpt>
      <trkpt lat="45.2388" lon="6.20487">
        <ele>2210.4</ele>
        <time>2021-02-27T14:09:40Z</time>
      </trkpt>
      <trkpt lat="45.2388" lon="6.20487">
        <ele>2210.6</ele>
        <time>2021-02-27T14:09:41Z</time>
      </trkpt>
      <trkpt lat="45.2388" lon="6.20491">
        <ele>2210.4</ele>
        <time>2021-02-27T14:09:42Z</time>
      </trkpt>
      <trkpt lat="45.2388" lon="6.20491">
        <ele>2210.2</ele>
        <time>2021-02-27T14:09:43Z</time>
      </trkpt>
      <trkpt lat="45.2388" lon="6.20493">
        <ele>2210.8</ele>
        <time>2021-02-27T14:09:44Z</time>
      </trkpt>
      <trkpt lat="45.2388" lon="6.20493">
        <ele>2210.8</ele>
        <time>2021-02-27T14:09:45Z</time>
      </trkpt>
      <trkpt lat="45.23879" lon="6.20496">
        <ele>2210.8</ele>
        <time>2021-02-27T14:09:46Z</time>
      </trkpt>
      <trkpt lat="45.23879" lon="6.20496">
        <ele>2211</ele>
        <time>2021-02-27T14:09:47Z</time>
      </trkpt>
      <trkpt lat="45.23879" lon="6.20499">
        <ele>2211.2</ele>
        <time>2021-02-27T14:09:48Z</time>
      </trkpt>
      <trkpt lat="45.23879" lon="6.20499">
        <ele>2211.2</ele>
        <time>2021-02-27T14:09:49Z</time>
      </trkpt>
      <trkpt lat="45.2388" lon="6.20502">
        <ele>2211.6</ele>
        <time>2021-02-27T14:09:50Z</time>
      </trkpt>
      <trkpt lat="45.2388" lon="6.20502">
        <ele>2211.8</ele>
        <time>2021-02-27T14:09:51Z</time>
      </trkpt>
      <trkpt lat="45.2388" lon="6.20502">
        <ele>2212</ele>
        <time>2021-02-27T14:09:52Z</time>
      </trkpt>
      <trkpt lat="45.2388" lon="6.20505">
        <ele>2212.2</ele>
        <time>2021-02-27T14:09:53Z</time>
      </trkpt>
      <trkpt lat="45.2388" lon="6.20505">
        <ele>2212.4</ele>
        <time>2021-02-27T14:09:54Z</time>
      </trkpt>
      <trkpt lat="45.23881" lon="6.20509">
        <ele>2212.4</ele>
        <time>2021-02-27T14:09:55Z</time>
      </trkpt>
      <trkpt lat="45.23881" lon="6.20509">
        <ele>2212.6</ele>
        <time>2021-02-27T14:09:56Z</time>
      </trkpt>
      <trkpt lat="45.23883" lon="6.2051">
        <ele>2212.6</ele>
        <time>2021-02-27T14:09:57Z</time>
      </trkpt>
      <trkpt lat="45.23884" lon="6.20512">
        <ele>2212.8</ele>
        <time>2021-02-27T14:09:58Z</time>
      </trkpt>
      <trkpt lat="45.23885" lon="6.20514">
        <ele>2212.8</ele>
        <time>2021-02-27T14:09:59Z</time>
      </trkpt>
      <trkpt lat="45.23886" lon="6.20516">
        <ele>2213</ele>
        <time>2021-02-27T14:10:00Z</time>
      </trkpt>
      <trkpt lat="45.23887" lon="6.20517">
        <ele>2213.4</ele>
        <time>2021-02-27T14:10:01Z</time>
      </trkpt>
      <trkpt lat="45.23889" lon="6.20519">
        <ele>2213.6</ele>
        <time>2021-02-27T14:10:02Z</time>
      </trkpt>
      <trkpt lat="45.23889" lon="6.20519">
        <ele>2213.8</ele>
        <time>2021-02-27T14:10:03Z</time>
      </trkpt>
      <trkpt lat="45.23889" lon="6.20519">
        <ele>2214</ele>
        <time>2021-02-27T14:10:04Z</time>
      </trkpt>
      <trkpt lat="45.2389" lon="6.20522">
        <ele>2214</ele>
        <time>2021-02-27T14:10:05Z</time>
      </trkpt>
      <trkpt lat="45.2389" lon="6.20522">
        <ele>2214</ele>
        <time>2021-02-27T14:10:06Z</time>
      </trkpt>
      <trkpt lat="45.2389" lon="6.20524">
        <ele>2214.2</ele>
        <time>2021-02-27T14:10:07Z</time>
      </trkpt>
      <trkpt lat="45.2389" lon="6.20524">
        <ele>2214.4</ele>
        <time>2021-02-27T14:10:08Z</time>
      </trkpt>
      <trkpt lat="45.2389" lon="6.20524">
        <ele>2214.6</ele>
        <time>2021-02-27T14:10:09Z</time>
      </trkpt>
      <trkpt lat="45.2389" lon="6.20528">
        <ele>2214.4</ele>
        <time>2021-02-27T14:10:10Z</time>
      </trkpt>
      <trkpt lat="45.2389" lon="6.20528">
        <ele>2214.8</ele>
        <time>2021-02-27T14:10:11Z</time>
      </trkpt>
      <trkpt lat="45.2389" lon="6.20528">
        <ele>2214.8</ele>
        <time>2021-02-27T14:10:12Z</time>
      </trkpt>
      <trkpt lat="45.23891" lon="6.20531">
        <ele>2215.2</ele>
        <time>2021-02-27T14:10:13Z</time>
      </trkpt>
      <trkpt lat="45.23891" lon="6.20531">
        <ele>2215.4</ele>
        <time>2021-02-27T14:10:14Z</time>
      </trkpt>
      <trkpt lat="45.23891" lon="6.20531">
        <ele>2215.8</ele>
        <time>2021-02-27T14:10:15Z</time>
      </trkpt>
      <trkpt lat="45.23893" lon="6.20534">
        <ele>2216</ele>
        <time>2021-02-27T14:10:16Z</time>
      </trkpt>
      <trkpt lat="45.23893" lon="6.20534">
        <ele>2216.4</ele>
        <time>2021-02-27T14:10:17Z</time>
      </trkpt>
      <trkpt lat="45.23894" lon="6.20535">
        <ele>2216.4</ele>
        <time>2021-02-27T14:10:18Z</time>
      </trkpt>
      <trkpt lat="45.23894" lon="6.20535">
        <ele>2216.6</ele>
        <time>2021-02-27T14:10:19Z</time>
      </trkpt>
      <trkpt lat="45.23895" lon="6.20538">
        <ele>2216.6</ele>
        <time>2021-02-27T14:10:20Z</time>
      </trkpt>
      <trkpt lat="45.23895" lon="6.20538">
        <ele>2216.6</ele>
        <time>2021-02-27T14:10:21Z</time>
      </trkpt>
      <trkpt lat="45.23895" lon="6.20538">
        <ele>2216.8</ele>
        <time>2021-02-27T14:10:22Z</time>
      </trkpt>
      <trkpt lat="45.23896" lon="6.20541">
        <ele>2217</ele>
        <time>2021-02-27T14:10:23Z</time>
      </trkpt>
      <trkpt lat="45.23896" lon="6.20541">
        <ele>2217</ele>
        <time>2021-02-27T14:10:24Z</time>
      </trkpt>
      <trkpt lat="45.23896" lon="6.20541">
        <ele>2217.2</ele>
        <time>2021-02-27T14:10:25Z</time>
      </trkpt>
      <trkpt lat="45.23897" lon="6.20545">
        <ele>2217.6</ele>
        <time>2021-02-27T14:10:26Z</time>
      </trkpt>
      <trkpt lat="45.23897" lon="6.20545">
        <ele>2217.8</ele>
        <time>2021-02-27T14:10:27Z</time>
      </trkpt>
      <trkpt lat="45.23897" lon="6.20545">
        <ele>2217.8</ele>
        <time>2021-02-27T14:10:28Z</time>
      </trkpt>
      <trkpt lat="45.23899" lon="6.20547">
        <ele>2218.2</ele>
        <time>2021-02-27T14:10:29Z</time>
      </trkpt>
      <trkpt lat="45.23899" lon="6.20547">
        <ele>2218.6</ele>
        <time>2021-02-27T14:10:30Z</time>
      </trkpt>
      <trkpt lat="45.23899" lon="6.20547">
        <ele>2219</ele>
        <time>2021-02-27T14:10:31Z</time>
      </trkpt>
      <trkpt lat="45.239" lon="6.20551">
        <ele>2219</ele>
        <time>2021-02-27T14:10:32Z</time>
      </trkpt>
      <trkpt lat="45.239" lon="6.20551">
        <ele>2219.4</ele>
        <time>2021-02-27T14:10:33Z</time>
      </trkpt>
      <trkpt lat="45.239" lon="6.20551">
        <ele>2219.6</ele>
        <time>2021-02-27T14:10:34Z</time>
      </trkpt>
      <trkpt lat="45.23902" lon="6.20554">
        <ele>2220</ele>
        <time>2021-02-27T14:10:35Z</time>
      </trkpt>
      <trkpt lat="45.23902" lon="6.20554">
        <ele>2220.2</ele>
        <time>2021-02-27T14:10:36Z</time>
      </trkpt>
      <trkpt lat="45.23902" lon="6.20554">
        <ele>2220.2</ele>
        <time>2021-02-27T14:10:37Z</time>
      </trkpt>
      <trkpt lat="45.23902" lon="6.20557">
        <ele>2220.6</ele>
        <time>2021-02-27T14:10:38Z</time>
      </trkpt>
      <trkpt lat="45.23902" lon="6.20557">
        <ele>2220.6</ele>
        <time>2021-02-27T14:10:39Z</time>
      </trkpt>
      <trkpt lat="45.23902" lon="6.20557">
        <ele>2220.6</ele>
        <time>2021-02-27T14:10:40Z</time>
      </trkpt>
      <trkpt lat="45.23903" lon="6.20561">
        <ele>2220.8</ele>
        <time>2021-02-27T14:10:41Z</time>
      </trkpt>
      <trkpt lat="45.23903" lon="6.20561">
        <ele>2220.8</ele>
        <time>2021-02-27T14:10:42Z</time>
      </trkpt>
      <trkpt lat="45.23905" lon="6.20564">
        <ele>2221</ele>
        <time>2021-02-27T14:10:43Z</time>
      </trkpt>
      <trkpt lat="45.23905" lon="6.20564">
        <ele>2221.2</ele>
        <time>2021-02-27T14:10:44Z</time>
      </trkpt>
      <trkpt lat="45.23907" lon="6.20567">
        <ele>2221</ele>
        <time>2021-02-27T14:10:45Z</time>
      </trkpt>
      <trkpt lat="45.23907" lon="6.20567">
        <ele>2221.4</ele>
        <time>2021-02-27T14:10:46Z</time>
      </trkpt>
      <trkpt lat="45.23907" lon="6.2057">
        <ele>2221.6</ele>
        <time>2021-02-27T14:10:47Z</time>
      </trkpt>
      <trkpt lat="45.23907" lon="6.2057">
        <ele>2221.6</ele>
        <time>2021-02-27T14:10:48Z</time>
      </trkpt>
      <trkpt lat="45.23907" lon="6.2057">
        <ele>2221.8</ele>
        <time>2021-02-27T14:10:49Z</time>
      </trkpt>
      <trkpt lat="45.23908" lon="6.20572">
        <ele>2222</ele>
        <time>2021-02-27T14:10:50Z</time>
      </trkpt>
      <trkpt lat="45.23908" lon="6.20572">
        <ele>2222.2</ele>
        <time>2021-02-27T14:10:51Z</time>
      </trkpt>
      <trkpt lat="45.23908" lon="6.20572">
        <ele>2222.4</ele>
        <time>2021-02-27T14:10:52Z</time>
      </trkpt>
      <trkpt lat="45.23909" lon="6.20574">
        <ele>2222.6</ele>
        <time>2021-02-27T14:10:53Z</time>
      </trkpt>
      <trkpt lat="45.23909" lon="6.20574">
        <ele>2222.8</ele>
        <time>2021-02-27T14:10:54Z</time>
      </trkpt>
      <trkpt lat="45.23909" lon="6.20574">
        <ele>2223</ele>
        <time>2021-02-27T14:10:55Z</time>
      </trkpt>
      <trkpt lat="45.23909" lon="6.20574">
        <ele>2223</ele>
        <time>2021-02-27T14:10:56Z</time>
      </trkpt>
      <trkpt lat="45.23909" lon="6.20574">
        <ele>2223</ele>
        <time>2021-02-27T14:10:57Z</time>
      </trkpt>
      <trkpt lat="45.23909" lon="6.20574">
        <ele>2223</ele>
        <time>2021-02-27T14:10:58Z</time>
      </trkpt>
      <trkpt lat="45.23909" lon="6.20574">
        <ele>2223</ele>
        <time>2021-02-27T14:10:59Z</time>
      </trkpt>
      <trkpt lat="45.23909" lon="6.20574">
        <ele>2222.8</ele>
        <time>2021-02-27T14:11:00Z</time>
      </trkpt>
      <trkpt lat="45.23909" lon="6.20574">
        <ele>2223</ele>
        <time>2021-02-27T14:11:01Z</time>
      </trkpt>
      <trkpt lat="45.23909" lon="6.20574">
        <ele>2222.8</ele>
        <time>2021-02-27T14:11:02Z</time>
      </trkpt>
      <trkpt lat="45.23909" lon="6.20574">
        <ele>2223</ele>
        <time>2021-02-27T14:11:03Z</time>
      </trkpt>
      <trkpt lat="45.23909" lon="6.20574">
        <ele>2223.2</ele>
        <time>2021-02-27T14:11:04Z</time>
      </trkpt>
      <trkpt lat="45.23909" lon="6.20574">
        <ele>2223.2</ele>
        <time>2021-02-27T14:11:05Z</time>
      </trkpt>
      <trkpt lat="45.23909" lon="6.20574">
        <ele>2223</ele>
        <time>2021-02-27T14:11:06Z</time>
      </trkpt>
      <trkpt lat="45.23909" lon="6.20574">
        <ele>2223</ele>
        <time>2021-02-27T14:11:07Z</time>
      </trkpt>
      <trkpt lat="45.23909" lon="6.20574">
        <ele>2223</ele>
        <time>2021-02-27T14:11:08Z</time>
      </trkpt>
      <trkpt lat="45.23909" lon="6.20574">
        <ele>2223</ele>
        <time>2021-02-27T14:11:09Z</time>
      </trkpt>
      <trkpt lat="45.23909" lon="6.20574">
        <ele>2223</ele>
        <time>2021-02-27T14:11:10Z</time>
      </trkpt>
      <trkpt lat="45.23909" lon="6.20574">
        <ele>2223.2</ele>
        <time>2021-02-27T14:11:11Z</time>
      </trkpt>
      <trkpt lat="45.23909" lon="6.20574">
        <ele>2223.2</ele>
        <time>2021-02-27T14:11:12Z</time>
      </trkpt>
      <trkpt lat="45.23909" lon="6.20574">
        <ele>2223.2</ele>
        <time>2021-02-27T14:11:13Z</time>
      </trkpt>
      <trkpt lat="45.23909" lon="6.20574">
        <ele>2223.4</ele>
        <time>2021-02-27T14:11:14Z</time>
      </trkpt>
      <trkpt lat="45.23909" lon="6.20574">
        <ele>2223.4</ele>
        <time>2021-02-27T14:11:15Z</time>
      </trkpt>
      <trkpt lat="45.23909" lon="6.20574">
        <ele>2223.2</ele>
        <time>2021-02-27T14:11:16Z</time>
      </trkpt>
      <trkpt lat="45.23909" lon="6.20574">
        <ele>2223.2</ele>
        <time>2021-02-27T14:11:17Z</time>
      </trkpt>
      <trkpt lat="45.23909" lon="6.20574">
        <ele>2223.2</ele>
        <time>2021-02-27T14:11:18Z</time>
      </trkpt>
      <trkpt lat="45.23909" lon="6.20574">
        <ele>2223.4</ele>
        <time>2021-02-27T14:11:19Z</time>
      </trkpt>
      <trkpt lat="45.23909" lon="6.20574">
        <ele>2223.6</ele>
        <time>2021-02-27T14:11:20Z</time>
      </trkpt>
      <trkpt lat="45.23909" lon="6.20574">
        <ele>2223.2</ele>
        <time>2021-02-27T14:11:21Z</time>
      </trkpt>
      <trkpt lat="45.23909" lon="6.20574">
        <ele>2223.6</ele>
        <time>2021-02-27T14:11:22Z</time>
      </trkpt>
      <trkpt lat="45.23909" lon="6.20574">
        <ele>2223.6</ele>
        <time>2021-02-27T14:11:23Z</time>
      </trkpt>
      <trkpt lat="45.23909" lon="6.20574">
        <ele>2223.4</ele>
        <time>2021-02-27T14:11:24Z</time>
      </trkpt>
      <trkpt lat="45.23909" lon="6.20574">
        <ele>2223.4</ele>
        <time>2021-02-27T14:11:25Z</time>
      </trkpt>
      <trkpt lat="45.23909" lon="6.20574">
        <ele>2223.4</ele>
        <time>2021-02-27T14:11:26Z</time>
      </trkpt>
      <trkpt lat="45.23909" lon="6.20574">
        <ele>2223.4</ele>
        <time>2021-02-27T14:11:27Z</time>
      </trkpt>
      <trkpt lat="45.23909" lon="6.20574">
        <ele>2223.4</ele>
        <time>2021-02-27T14:11:28Z</time>
      </trkpt>
      <trkpt lat="45.23909" lon="6.20574">
        <ele>2223.6</ele>
        <time>2021-02-27T14:11:29Z</time>
      </trkpt>
      <trkpt lat="45.23909" lon="6.20574">
        <ele>2223.6</ele>
        <time>2021-02-27T14:11:30Z</time>
      </trkpt>
      <trkpt lat="45.23909" lon="6.20574">
        <ele>2223.4</ele>
        <time>2021-02-27T14:11:31Z</time>
      </trkpt>
      <trkpt lat="45.23909" lon="6.20574">
        <ele>2223.4</ele>
        <time>2021-02-27T14:11:32Z</time>
      </trkpt>
      <trkpt lat="45.23909" lon="6.20574">
        <ele>2223.4</ele>
        <time>2021-02-27T14:11:33Z</time>
      </trkpt>
      <trkpt lat="45.23909" lon="6.20574">
        <ele>2223.2</ele>
        <time>2021-02-27T14:11:34Z</time>
      </trkpt>
      <trkpt lat="45.23909" lon="6.20574">
        <ele>2223.2</ele>
        <time>2021-02-27T14:11:35Z</time>
      </trkpt>
      <trkpt lat="45.23908" lon="6.20576">
        <ele>2223.4</ele>
        <time>2021-02-27T14:11:36Z</time>
      </trkpt>
      <trkpt lat="45.23908" lon="6.20576">
        <ele>2223.2</ele>
        <time>2021-02-27T14:11:37Z</time>
      </trkpt>
      <trkpt lat="45.23908" lon="6.20576">
        <ele>2223</ele>
        <time>2021-02-27T14:11:38Z</time>
      </trkpt>
      <trkpt lat="45.23906" lon="6.20578">
        <ele>2223</ele>
        <time>2021-02-27T14:11:39Z</time>
      </trkpt>
      <trkpt lat="45.23906" lon="6.20578">
        <ele>2223</ele>
        <time>2021-02-27T14:11:40Z</time>
      </trkpt>
      <trkpt lat="45.23906" lon="6.20578">
        <ele>2223</ele>
        <time>2021-02-27T14:11:41Z</time>
      </trkpt>
      <trkpt lat="45.23906" lon="6.20578">
        <ele>2223</ele>
        <time>2021-02-27T14:11:42Z</time>
      </trkpt>
      <trkpt lat="45.23906" lon="6.20578">
        <ele>2223.2</ele>
        <time>2021-02-27T14:11:43Z</time>
      </trkpt>
      <trkpt lat="45.23906" lon="6.20578">
        <ele>2223.2</ele>
        <time>2021-02-27T14:11:44Z</time>
      </trkpt>
      <trkpt lat="45.23906" lon="6.20578">
        <ele>2223</ele>
        <time>2021-02-27T14:11:45Z</time>
      </trkpt>
      <trkpt lat="45.23906" lon="6.20578">
        <ele>2223.2</ele>
        <time>2021-02-27T14:11:46Z</time>
      </trkpt>
      <trkpt lat="45.23906" lon="6.20578">
        <ele>2223.2</ele>
        <time>2021-02-27T14:11:47Z</time>
      </trkpt>
      <trkpt lat="45.23906" lon="6.20578">
        <ele>2223</ele>
        <time>2021-02-27T14:11:48Z</time>
      </trkpt>
      <trkpt lat="45.23906" lon="6.20578">
        <ele>2223</ele>
        <time>2021-02-27T14:11:49Z</time>
      </trkpt>
      <trkpt lat="45.23906" lon="6.20578">
        <ele>2223</ele>
        <time>2021-02-27T14:11:50Z</time>
      </trkpt>
      <trkpt lat="45.23906" lon="6.20578">
        <ele>2222.8</ele>
        <time>2021-02-27T14:11:51Z</time>
      </trkpt>
      <trkpt lat="45.23906" lon="6.20578">
        <ele>2222.8</ele>
        <time>2021-02-27T14:11:52Z</time>
      </trkpt>
      <trkpt lat="45.23906" lon="6.20578">
        <ele>2222.8</ele>
        <time>2021-02-27T14:11:53Z</time>
      </trkpt>
      <trkpt lat="45.23906" lon="6.20578">
        <ele>2222.6</ele>
        <time>2021-02-27T14:11:54Z</time>
      </trkpt>
      <trkpt lat="45.23906" lon="6.20578">
        <ele>2222.8</ele>
        <time>2021-02-27T14:11:55Z</time>
      </trkpt>
      <trkpt lat="45.23906" lon="6.20578">
        <ele>2222.8</ele>
        <time>2021-02-27T14:11:56Z</time>
      </trkpt>
      <trkpt lat="45.23906" lon="6.20578">
        <ele>2222.6</ele>
        <time>2021-02-27T14:11:57Z</time>
      </trkpt>
      <trkpt lat="45.23906" lon="6.20578">
        <ele>2222.8</ele>
        <time>2021-02-27T14:11:58Z</time>
      </trkpt>
      <trkpt lat="45.23906" lon="6.20578">
        <ele>2222.8</ele>
        <time>2021-02-27T14:11:59Z</time>
      </trkpt>
      <trkpt lat="45.23906" lon="6.20578">
        <ele>2222.8</ele>
        <time>2021-02-27T14:12:00Z</time>
      </trkpt>
      <trkpt lat="45.23906" lon="6.20578">
        <ele>2222.8</ele>
        <time>2021-02-27T14:12:01Z</time>
      </trkpt>
      <trkpt lat="45.23906" lon="6.20578">
        <ele>2222.6</ele>
        <time>2021-02-27T14:12:02Z</time>
      </trkpt>
      <trkpt lat="45.23906" lon="6.20578">
        <ele>2222.4</ele>
        <time>2021-02-27T14:12:03Z</time>
      </trkpt>
      <trkpt lat="45.23906" lon="6.20578">
        <ele>2222.2</ele>
        <time>2021-02-27T14:12:04Z</time>
      </trkpt>
      <trkpt lat="45.23906" lon="6.20578">
        <ele>2222.4</ele>
        <time>2021-02-27T14:12:05Z</time>
      </trkpt>
      <trkpt lat="45.23906" lon="6.20578">
        <ele>2222.4</ele>
        <time>2021-02-27T14:12:06Z</time>
      </trkpt>
      <trkpt lat="45.23906" lon="6.20578">
        <ele>2222.4</ele>
        <time>2021-02-27T14:12:07Z</time>
      </trkpt>
      <trkpt lat="45.23906" lon="6.20578">
        <ele>2222.4</ele>
        <time>2021-02-27T14:12:08Z</time>
      </trkpt>
      <trkpt lat="45.23906" lon="6.20578">
        <ele>2222.4</ele>
        <time>2021-02-27T14:12:09Z</time>
      </trkpt>
      <trkpt lat="45.23906" lon="6.20578">
        <ele>2222.4</ele>
        <time>2021-02-27T14:12:10Z</time>
      </trkpt>
      <trkpt lat="45.23906" lon="6.20578">
        <ele>2222.4</ele>
        <time>2021-02-27T14:12:11Z</time>
      </trkpt>
      <trkpt lat="45.23906" lon="6.20578">
        <ele>2222.4</ele>
        <time>2021-02-27T14:12:12Z</time>
      </trkpt>
      <trkpt lat="45.23906" lon="6.20578">
        <ele>2222.6</ele>
        <time>2021-02-27T14:12:13Z</time>
      </trkpt>
      <trkpt lat="45.23906" lon="6.20578">
        <ele>2222.8</ele>
        <time>2021-02-27T14:12:14Z</time>
      </trkpt>
      <trkpt lat="45.23906" lon="6.20578">
        <ele>2222.8</ele>
        <time>2021-02-27T14:12:15Z</time>
      </trkpt>
      <trkpt lat="45.23906" lon="6.20578">
        <ele>2222.8</ele>
        <time>2021-02-27T14:12:16Z</time>
      </trkpt>
      <trkpt lat="45.23906" lon="6.20578">
        <ele>2222.6</ele>
        <time>2021-02-27T14:12:17Z</time>
      </trkpt>
      <trkpt lat="45.23907" lon="6.20575">
        <ele>2222.6</ele>
        <time>2021-02-27T14:12:18Z</time>
      </trkpt>
      <trkpt lat="45.23907" lon="6.20575">
        <ele>2222.8</ele>
        <time>2021-02-27T14:12:19Z</time>
      </trkpt>
      <trkpt lat="45.23907" lon="6.20575">
        <ele>2222.6</ele>
        <time>2021-02-27T14:12:20Z</time>
      </trkpt>
      <trkpt lat="45.23907" lon="6.20575">
        <ele>2222.4</ele>
        <time>2021-02-27T14:12:21Z</time>
      </trkpt>
      <trkpt lat="45.23907" lon="6.20575">
        <ele>2222.2</ele>
        <time>2021-02-27T14:12:22Z</time>
      </trkpt>
      <trkpt lat="45.23907" lon="6.20575">
        <ele>2222.4</ele>
        <time>2021-02-27T14:12:23Z</time>
      </trkpt>
      <trkpt lat="45.23907" lon="6.20575">
        <ele>2222.4</ele>
        <time>2021-02-27T14:12:24Z</time>
      </trkpt>
      <trkpt lat="45.23907" lon="6.20575">
        <ele>2222.6</ele>
        <time>2021-02-27T14:12:25Z</time>
      </trkpt>
      <trkpt lat="45.23907" lon="6.20575">
        <ele>2222.4</ele>
        <time>2021-02-27T14:12:26Z</time>
      </trkpt>
      <trkpt lat="45.23907" lon="6.20575">
        <ele>2222.4</ele>
        <time>2021-02-27T14:12:27Z</time>
      </trkpt>
      <trkpt lat="45.23907" lon="6.20575">
        <ele>2222.6</ele>
        <time>2021-02-27T14:12:28Z</time>
      </trkpt>
      <trkpt lat="45.23907" lon="6.20575">
        <ele>2222.8</ele>
        <time>2021-02-27T14:12:29Z</time>
      </trkpt>
      <trkpt lat="45.23907" lon="6.20575">
        <ele>2222.8</ele>
        <time>2021-02-27T14:12:30Z</time>
      </trkpt>
      <trkpt lat="45.23907" lon="6.20575">
        <ele>2222.8</ele>
        <time>2021-02-27T14:12:31Z</time>
      </trkpt>
      <trkpt lat="45.23907" lon="6.20575">
        <ele>2222.8</ele>
        <time>2021-02-27T14:12:32Z</time>
      </trkpt>
      <trkpt lat="45.23907" lon="6.20575">
        <ele>2222.8</ele>
        <time>2021-02-27T14:12:33Z</time>
      </trkpt>
      <trkpt lat="45.23907" lon="6.20575">
        <ele>2222.8</ele>
        <time>2021-02-27T14:12:34Z</time>
      </trkpt>
      <trkpt lat="45.23907" lon="6.20575">
        <ele>2222.6</ele>
        <time>2021-02-27T14:12:35Z</time>
      </trkpt>
      <trkpt lat="45.23907" lon="6.20575">
        <ele>2222.6</ele>
        <time>2021-02-27T14:12:36Z</time>
      </trkpt>
      <trkpt lat="45.23907" lon="6.20575">
        <ele>2222.6</ele>
        <time>2021-02-27T14:12:37Z</time>
      </trkpt>
      <trkpt lat="45.23907" lon="6.20575">
        <ele>2222.6</ele>
        <time>2021-02-27T14:12:38Z</time>
      </trkpt>
      <trkpt lat="45.23907" lon="6.20575">
        <ele>2222.6</ele>
        <time>2021-02-27T14:12:39Z</time>
      </trkpt>
      <trkpt lat="45.23907" lon="6.20575">
        <ele>2223</ele>
        <time>2021-02-27T14:12:40Z</time>
      </trkpt>
      <trkpt lat="45.23907" lon="6.20575">
        <ele>2222.8</ele>
        <time>2021-02-27T14:12:41Z</time>
      </trkpt>
      <trkpt lat="45.23907" lon="6.20575">
        <ele>2222.6</ele>
        <time>2021-02-27T14:12:42Z</time>
      </trkpt>
      <trkpt lat="45.23907" lon="6.20575">
        <ele>2222.6</ele>
        <time>2021-02-27T14:12:43Z</time>
      </trkpt>
      <trkpt lat="45.23907" lon="6.20575">
        <ele>2222.6</ele>
        <time>2021-02-27T14:12:44Z</time>
      </trkpt>
      <trkpt lat="45.23907" lon="6.20575">
        <ele>2222.8</ele>
        <time>2021-02-27T14:12:45Z</time>
      </trkpt>
      <trkpt lat="45.23907" lon="6.20575">
        <ele>2223</ele>
        <time>2021-02-27T14:12:46Z</time>
      </trkpt>
      <trkpt lat="45.23907" lon="6.20575">
        <ele>2222.8</ele>
        <time>2021-02-27T14:12:47Z</time>
      </trkpt>
      <trkpt lat="45.23907" lon="6.20575">
        <ele>2223</ele>
        <time>2021-02-27T14:12:48Z</time>
      </trkpt>
      <trkpt lat="45.23907" lon="6.20575">
        <ele>2222.8</ele>
        <time>2021-02-27T14:12:49Z</time>
      </trkpt>
      <trkpt lat="45.23907" lon="6.20575">
        <ele>2222.6</ele>
        <time>2021-02-27T14:12:50Z</time>
      </trkpt>
      <trkpt lat="45.23907" lon="6.20575">
        <ele>2222.8</ele>
        <time>2021-02-27T14:12:51Z</time>
      </trkpt>
      <trkpt lat="45.23907" lon="6.20575">
        <ele>2222.8</ele>
        <time>2021-02-27T14:12:52Z</time>
      </trkpt>
      <trkpt lat="45.23907" lon="6.20575">
        <ele>2222.6</ele>
        <time>2021-02-27T14:12:53Z</time>
      </trkpt>
      <trkpt lat="45.23907" lon="6.20575">
        <ele>2222.6</ele>
        <time>2021-02-27T14:12:54Z</time>
      </trkpt>
      <trkpt lat="45.23907" lon="6.20575">
        <ele>2222.4</ele>
        <time>2021-02-27T14:12:55Z</time>
      </trkpt>
      <trkpt lat="45.23907" lon="6.20575">
        <ele>2222.4</ele>
        <time>2021-02-27T14:12:56Z</time>
      </trkpt>
      <trkpt lat="45.23907" lon="6.20575">
        <ele>2222.4</ele>
        <time>2021-02-27T14:12:57Z</time>
      </trkpt>
      <trkpt lat="45.23907" lon="6.20575">
        <ele>2222.6</ele>
        <time>2021-02-27T14:12:58Z</time>
      </trkpt>
      <trkpt lat="45.23907" lon="6.20575">
        <ele>2222.8</ele>
        <time>2021-02-27T14:12:59Z</time>
      </trkpt>
      <trkpt lat="45.23907" lon="6.20575">
        <ele>2222.8</ele>
        <time>2021-02-27T14:13:00Z</time>
      </trkpt>
      <trkpt lat="45.23907" lon="6.20575">
        <ele>2222.6</ele>
        <time>2021-02-27T14:13:01Z</time>
      </trkpt>
      <trkpt lat="45.23907" lon="6.20575">
        <ele>2222.6</ele>
        <time>2021-02-27T14:13:02Z</time>
      </trkpt>
      <trkpt lat="45.23907" lon="6.20575">
        <ele>2222.6</ele>
        <time>2021-02-27T14:13:03Z</time>
      </trkpt>
      <trkpt lat="45.23907" lon="6.20575">
        <ele>2222.4</ele>
        <time>2021-02-27T14:13:04Z</time>
      </trkpt>
      <trkpt lat="45.23907" lon="6.20575">
        <ele>2222.6</ele>
        <time>2021-02-27T14:13:05Z</time>
      </trkpt>
      <trkpt lat="45.23907" lon="6.20575">
        <ele>2222.4</ele>
        <time>2021-02-27T14:13:06Z</time>
      </trkpt>
      <trkpt lat="45.23907" lon="6.20575">
        <ele>2222.4</ele>
        <time>2021-02-27T14:13:07Z</time>
      </trkpt>
      <trkpt lat="45.23907" lon="6.20575">
        <ele>2222.4</ele>
        <time>2021-02-27T14:13:08Z</time>
      </trkpt>
      <trkpt lat="45.23907" lon="6.20575">
        <ele>2222.4</ele>
        <time>2021-02-27T14:13:09Z</time>
      </trkpt>
      <trkpt lat="45.23907" lon="6.20575">
        <ele>2222.6</ele>
        <time>2021-02-27T14:13:10Z</time>
      </trkpt>
      <trkpt lat="45.23907" lon="6.20575">
        <ele>2222.4</ele>
        <time>2021-02-27T14:13:11Z</time>
      </trkpt>
      <trkpt lat="45.23907" lon="6.20575">
        <ele>2222.6</ele>
        <time>2021-02-27T14:13:12Z</time>
      </trkpt>
      <trkpt lat="45.23907" lon="6.20575">
        <ele>2222.6</ele>
        <time>2021-02-27T14:13:13Z</time>
      </trkpt>
      <trkpt lat="45.23907" lon="6.20575">
        <ele>2222.6</ele>
        <time>2021-02-27T14:13:14Z</time>
      </trkpt>
      <trkpt lat="45.23907" lon="6.20575">
        <ele>2222.8</ele>
        <time>2021-02-27T14:13:15Z</time>
      </trkpt>
      <trkpt lat="45.23907" lon="6.20575">
        <ele>2223</ele>
        <time>2021-02-27T14:13:16Z</time>
      </trkpt>
      <trkpt lat="45.23907" lon="6.20575">
        <ele>2223.2</ele>
        <time>2021-02-27T14:13:17Z</time>
      </trkpt>
      <trkpt lat="45.23907" lon="6.20575">
        <ele>2223</ele>
        <time>2021-02-27T14:13:18Z</time>
      </trkpt>
      <trkpt lat="45.23907" lon="6.20575">
        <ele>2222.6</ele>
        <time>2021-02-27T14:13:19Z</time>
      </trkpt>
      <trkpt lat="45.23907" lon="6.20575">
        <ele>2222.6</ele>
        <time>2021-02-27T14:13:20Z</time>
      </trkpt>
      <trkpt lat="45.23907" lon="6.20575">
        <ele>2222.4</ele>
        <time>2021-02-27T14:13:21Z</time>
      </trkpt>
      <trkpt lat="45.23907" lon="6.20575">
        <ele>2222.4</ele>
        <time>2021-02-27T14:13:22Z</time>
      </trkpt>
      <trkpt lat="45.23907" lon="6.20575">
        <ele>2222.4</ele>
        <time>2021-02-27T14:13:23Z</time>
      </trkpt>
      <trkpt lat="45.23907" lon="6.20575">
        <ele>2222.6</ele>
        <time>2021-02-27T14:13:24Z</time>
      </trkpt>
      <trkpt lat="45.23907" lon="6.20575">
        <ele>2222.8</ele>
        <time>2021-02-27T14:13:25Z</time>
      </trkpt>
      <trkpt lat="45.23907" lon="6.20575">
        <ele>2222.8</ele>
        <time>2021-02-27T14:13:26Z</time>
      </trkpt>
      <trkpt lat="45.23907" lon="6.20575">
        <ele>2222.8</ele>
        <time>2021-02-27T14:13:27Z</time>
      </trkpt>
      <trkpt lat="45.23907" lon="6.20575">
        <ele>2222.6</ele>
        <time>2021-02-27T14:13:28Z</time>
      </trkpt>
      <trkpt lat="45.23907" lon="6.20575">
        <ele>2222.6</ele>
        <time>2021-02-27T14:13:29Z</time>
      </trkpt>
      <trkpt lat="45.23907" lon="6.20575">
        <ele>2222.6</ele>
        <time>2021-02-27T14:13:30Z</time>
      </trkpt>
      <trkpt lat="45.23907" lon="6.20575">
        <ele>2223</ele>
        <time>2021-02-27T14:13:31Z</time>
      </trkpt>
      <trkpt lat="45.23907" lon="6.20575">
        <ele>2223</ele>
        <time>2021-02-27T14:13:32Z</time>
      </trkpt>
      <trkpt lat="45.23907" lon="6.20575">
        <ele>2223.2</ele>
        <time>2021-02-27T14:13:33Z</time>
      </trkpt>
      <trkpt lat="45.23907" lon="6.20575">
        <ele>2223.6</ele>
        <time>2021-02-27T14:13:34Z</time>
      </trkpt>
      <trkpt lat="45.23907" lon="6.20575">
        <ele>2223.6</ele>
        <time>2021-02-27T14:13:35Z</time>
      </trkpt>
      <trkpt lat="45.23907" lon="6.20575">
        <ele>2223.6</ele>
        <time>2021-02-27T14:13:36Z</time>
      </trkpt>
      <trkpt lat="45.23907" lon="6.20575">
        <ele>2223.8</ele>
        <time>2021-02-27T14:13:37Z</time>
      </trkpt>
      <trkpt lat="45.23907" lon="6.20575">
        <ele>2223.6</ele>
        <time>2021-02-27T14:13:38Z</time>
      </trkpt>
      <trkpt lat="45.23907" lon="6.20575">
        <ele>2223.6</ele>
        <time>2021-02-27T14:13:39Z</time>
      </trkpt>
      <trkpt lat="45.23907" lon="6.20575">
        <ele>2223.4</ele>
        <time>2021-02-27T14:13:40Z</time>
      </trkpt>
      <trkpt lat="45.23907" lon="6.20575">
        <ele>2223.8</ele>
        <time>2021-02-27T14:13:41Z</time>
      </trkpt>
      <trkpt lat="45.23907" lon="6.20575">
        <ele>2224</ele>
        <time>2021-02-27T14:13:42Z</time>
      </trkpt>
      <trkpt lat="45.23907" lon="6.20575">
        <ele>2224.2</ele>
        <time>2021-02-27T14:13:43Z</time>
      </trkpt>
      <trkpt lat="45.23907" lon="6.20575">
        <ele>2224.2</ele>
        <time>2021-02-27T14:13:44Z</time>
      </trkpt>
      <trkpt lat="45.23907" lon="6.20575">
        <ele>2224.2</ele>
        <time>2021-02-27T14:13:45Z</time>
      </trkpt>
      <trkpt lat="45.23907" lon="6.20575">
        <ele>2224</ele>
        <time>2021-02-27T14:13:46Z</time>
      </trkpt>
      <trkpt lat="45.23907" lon="6.20575">
        <ele>2224</ele>
        <time>2021-02-27T14:13:47Z</time>
      </trkpt>
      <trkpt lat="45.23907" lon="6.20575">
        <ele>2224</ele>
        <time>2021-02-27T14:13:48Z</time>
      </trkpt>
      <trkpt lat="45.23909" lon="6.20575">
        <ele>2224.4</ele>
        <time>2021-02-27T14:13:49Z</time>
      </trkpt>
      <trkpt lat="45.23909" lon="6.20575">
        <ele>2224.4</ele>
        <time>2021-02-27T14:13:50Z</time>
      </trkpt>
      <trkpt lat="45.23909" lon="6.20575">
        <ele>2224.4</ele>
        <time>2021-02-27T14:13:51Z</time>
      </trkpt>
      <trkpt lat="45.23909" lon="6.20575">
        <ele>2224.4</ele>
        <time>2021-02-27T14:13:52Z</time>
      </trkpt>
      <trkpt lat="45.2391" lon="6.20578">
        <ele>2224.4</ele>
        <time>2021-02-27T14:13:53Z</time>
      </trkpt>
      <trkpt lat="45.2391" lon="6.20578">
        <ele>2224.2</ele>
        <time>2021-02-27T14:13:54Z</time>
      </trkpt>
      <trkpt lat="45.2391" lon="6.20578">
        <ele>2224</ele>
        <time>2021-02-27T14:13:55Z</time>
      </trkpt>
      <trkpt lat="45.2391" lon="6.20578">
        <ele>2224.4</ele>
        <time>2021-02-27T14:13:56Z</time>
      </trkpt>
      <trkpt lat="45.2391" lon="6.20581">
        <ele>2224.4</ele>
        <time>2021-02-27T14:13:57Z</time>
      </trkpt>
      <trkpt lat="45.2391" lon="6.20581">
        <ele>2224.4</ele>
        <time>2021-02-27T14:13:58Z</time>
      </trkpt>
      <trkpt lat="45.2391" lon="6.20581">
        <ele>2224.4</ele>
        <time>2021-02-27T14:13:59Z</time>
      </trkpt>
      <trkpt lat="45.23911" lon="6.20584">
        <ele>2224.4</ele>
        <time>2021-02-27T14:14:00Z</time>
      </trkpt>
      <trkpt lat="45.23911" lon="6.20584">
        <ele>2224.6</ele>
        <time>2021-02-27T14:14:01Z</time>
      </trkpt>
      <trkpt lat="45.23911" lon="6.20584">
        <ele>2224.6</ele>
        <time>2021-02-27T14:14:02Z</time>
      </trkpt>
      <trkpt lat="45.23912" lon="6.20587">
        <ele>2224.8</ele>
        <time>2021-02-27T14:14:03Z</time>
      </trkpt>
      <trkpt lat="45.23912" lon="6.20587">
        <ele>2224.6</ele>
        <time>2021-02-27T14:14:04Z</time>
      </trkpt>
      <trkpt lat="45.23912" lon="6.20587">
        <ele>2224.6</ele>
        <time>2021-02-27T14:14:05Z</time>
      </trkpt>
      <trkpt lat="45.23913" lon="6.2059">
        <ele>2224.8</ele>
        <time>2021-02-27T14:14:06Z</time>
      </trkpt>
      <trkpt lat="45.23913" lon="6.2059">
        <ele>2225</ele>
        <time>2021-02-27T14:14:07Z</time>
      </trkpt>
      <trkpt lat="45.23914" lon="6.20592">
        <ele>2225.2</ele>
        <time>2021-02-27T14:14:08Z</time>
      </trkpt>
      <trkpt lat="45.23914" lon="6.20592">
        <ele>2225.4</ele>
        <time>2021-02-27T14:14:09Z</time>
      </trkpt>
      <trkpt lat="45.23915" lon="6.20595">
        <ele>2225.8</ele>
        <time>2021-02-27T14:14:10Z</time>
      </trkpt>
      <trkpt lat="45.23915" lon="6.20595">
        <ele>2225.8</ele>
        <time>2021-02-27T14:14:11Z</time>
      </trkpt>
      <trkpt lat="45.23916" lon="6.20598">
        <ele>2226</ele>
        <time>2021-02-27T14:14:12Z</time>
      </trkpt>
      <trkpt lat="45.23916" lon="6.20598">
        <ele>2226</ele>
        <time>2021-02-27T14:14:13Z</time>
      </trkpt>
      <trkpt lat="45.23917" lon="6.206">
        <ele>2226.2</ele>
        <time>2021-02-27T14:14:14Z</time>
      </trkpt>
      <trkpt lat="45.23917" lon="6.206">
        <ele>2226.4</ele>
        <time>2021-02-27T14:14:15Z</time>
      </trkpt>
      <trkpt lat="45.23918" lon="6.20603">
        <ele>2226.6</ele>
        <time>2021-02-27T14:14:16Z</time>
      </trkpt>
      <trkpt lat="45.23918" lon="6.20603">
        <ele>2226.6</ele>
        <time>2021-02-27T14:14:17Z</time>
      </trkpt>
      <trkpt lat="45.23919" lon="6.20606">
        <ele>2226.8</ele>
        <time>2021-02-27T14:14:18Z</time>
      </trkpt>
      <trkpt lat="45.23919" lon="6.20606">
        <ele>2226.8</ele>
        <time>2021-02-27T14:14:19Z</time>
      </trkpt>
      <trkpt lat="45.23919" lon="6.20608">
        <ele>2226.4</ele>
        <time>2021-02-27T14:14:20Z</time>
      </trkpt>
      <trkpt lat="45.23919" lon="6.20608">
        <ele>2226.6</ele>
        <time>2021-02-27T14:14:21Z</time>
      </trkpt>
      <trkpt lat="45.2392" lon="6.20611">
        <ele>2227</ele>
        <time>2021-02-27T14:14:22Z</time>
      </trkpt>
      <trkpt lat="45.2392" lon="6.20611">
        <ele>2227</ele>
        <time>2021-02-27T14:14:23Z</time>
      </trkpt>
      <trkpt lat="45.23922" lon="6.20614">
        <ele>2226.4</ele>
        <time>2021-02-27T14:14:24Z</time>
      </trkpt>
      <trkpt lat="45.23922" lon="6.20614">
        <ele>2227.4</ele>
        <time>2021-02-27T14:14:25Z</time>
      </trkpt>
      <trkpt lat="45.23923" lon="6.20617">
        <ele>2227.6</ele>
        <time>2021-02-27T14:14:26Z</time>
      </trkpt>
      <trkpt lat="45.23923" lon="6.20617">
        <ele>2226.8</ele>
        <time>2021-02-27T14:14:27Z</time>
      </trkpt>
      <trkpt lat="45.23923" lon="6.20621">
        <ele>2226.8</ele>
        <time>2021-02-27T14:14:28Z</time>
      </trkpt>
      <trkpt lat="45.23923" lon="6.20621">
        <ele>2227.2</ele>
        <time>2021-02-27T14:14:29Z</time>
      </trkpt>
      <trkpt lat="45.23924" lon="6.20624">
        <ele>2226.4</ele>
        <time>2021-02-27T14:14:30Z</time>
      </trkpt>
      <trkpt lat="45.23924" lon="6.20624">
        <ele>2227.2</ele>
        <time>2021-02-27T14:14:31Z</time>
      </trkpt>
      <trkpt lat="45.23925" lon="6.20627">
        <ele>2227.4</ele>
        <time>2021-02-27T14:14:32Z</time>
      </trkpt>
      <trkpt lat="45.23925" lon="6.20627">
        <ele>2227.4</ele>
        <time>2021-02-27T14:14:33Z</time>
      </trkpt>
      <trkpt lat="45.23926" lon="6.20629">
        <ele>2227.6</ele>
        <time>2021-02-27T14:14:34Z</time>
      </trkpt>
      <trkpt lat="45.23926" lon="6.20629">
        <ele>2227.8</ele>
        <time>2021-02-27T14:14:35Z</time>
      </trkpt>
      <trkpt lat="45.23927" lon="6.20632">
        <ele>2227.4</ele>
        <time>2021-02-27T14:14:36Z</time>
      </trkpt>
      <trkpt lat="45.23927" lon="6.20632">
        <ele>2227.8</ele>
        <time>2021-02-27T14:14:37Z</time>
      </trkpt>
      <trkpt lat="45.23927" lon="6.20635">
        <ele>2227.6</ele>
        <time>2021-02-27T14:14:38Z</time>
      </trkpt>
      <trkpt lat="45.23927" lon="6.20635">
        <ele>2227.2</ele>
        <time>2021-02-27T14:14:39Z</time>
      </trkpt>
      <trkpt lat="45.23928" lon="6.20637">
        <ele>2227.4</ele>
        <time>2021-02-27T14:14:40Z</time>
      </trkpt>
      <trkpt lat="45.23928" lon="6.20637">
        <ele>2227.6</ele>
        <time>2021-02-27T14:14:41Z</time>
      </trkpt>
      <trkpt lat="45.23929" lon="6.20641">
        <ele>2227.6</ele>
        <time>2021-02-27T14:14:42Z</time>
      </trkpt>
      <trkpt lat="45.23929" lon="6.20641">
        <ele>2227.2</ele>
        <time>2021-02-27T14:14:43Z</time>
      </trkpt>
      <trkpt lat="45.23929" lon="6.20641">
        <ele>2227.6</ele>
        <time>2021-02-27T14:14:44Z</time>
      </trkpt>
      <trkpt lat="45.23929" lon="6.20645">
        <ele>2227.8</ele>
        <time>2021-02-27T14:14:45Z</time>
      </trkpt>
      <trkpt lat="45.23929" lon="6.20645">
        <ele>2228</ele>
        <time>2021-02-27T14:14:46Z</time>
      </trkpt>
      <trkpt lat="45.23929" lon="6.20648">
        <ele>2228.2</ele>
        <time>2021-02-27T14:14:47Z</time>
      </trkpt>
      <trkpt lat="45.23929" lon="6.20648">
        <ele>2228.4</ele>
        <time>2021-02-27T14:14:48Z</time>
      </trkpt>
      <trkpt lat="45.23931" lon="6.2065">
        <ele>2228.6</ele>
        <time>2021-02-27T14:14:49Z</time>
      </trkpt>
      <trkpt lat="45.23931" lon="6.2065">
        <ele>2228.8</ele>
        <time>2021-02-27T14:14:50Z</time>
      </trkpt>
      <trkpt lat="45.23932" lon="6.20652">
        <ele>2229</ele>
        <time>2021-02-27T14:14:51Z</time>
      </trkpt>
      <trkpt lat="45.23932" lon="6.20652">
        <ele>2228.8</ele>
        <time>2021-02-27T14:14:52Z</time>
      </trkpt>
      <trkpt lat="45.23933" lon="6.20655">
        <ele>2228.2</ele>
        <time>2021-02-27T14:14:53Z</time>
      </trkpt>
      <trkpt lat="45.23933" lon="6.20655">
        <ele>2228.6</ele>
        <time>2021-02-27T14:14:54Z</time>
      </trkpt>
      <trkpt lat="45.23934" lon="6.20658">
        <ele>2228.8</ele>
        <time>2021-02-27T14:14:55Z</time>
      </trkpt>
      <trkpt lat="45.23934" lon="6.20658">
        <ele>2228.6</ele>
        <time>2021-02-27T14:14:56Z</time>
      </trkpt>
      <trkpt lat="45.23935" lon="6.2066">
        <ele>2228.6</ele>
        <time>2021-02-27T14:14:57Z</time>
      </trkpt>
      <trkpt lat="45.23935" lon="6.2066">
        <ele>2229.2</ele>
        <time>2021-02-27T14:14:58Z</time>
      </trkpt>
      <trkpt lat="45.23936" lon="6.20663">
        <ele>2229</ele>
        <time>2021-02-27T14:14:59Z</time>
      </trkpt>
      <trkpt lat="45.23936" lon="6.20663">
        <ele>2229</ele>
        <time>2021-02-27T14:15:00Z</time>
      </trkpt>
      <trkpt lat="45.23937" lon="6.20665">
        <ele>2229.4</ele>
        <time>2021-02-27T14:15:01Z</time>
      </trkpt>
      <trkpt lat="45.23937" lon="6.20665">
        <ele>2229.6</ele>
        <time>2021-02-27T14:15:02Z</time>
      </trkpt>
      <trkpt lat="45.23938" lon="6.20668">
        <ele>2229.8</ele>
        <time>2021-02-27T14:15:03Z</time>
      </trkpt>
      <trkpt lat="45.23938" lon="6.20668">
        <ele>2229.8</ele>
        <time>2021-02-27T14:15:04Z</time>
      </trkpt>
      <trkpt lat="45.23938" lon="6.20668">
        <ele>2230</ele>
        <time>2021-02-27T14:15:05Z</time>
      </trkpt>
      <trkpt lat="45.2394" lon="6.20671">
        <ele>2230.2</ele>
        <time>2021-02-27T14:15:06Z</time>
      </trkpt>
      <trkpt lat="45.2394" lon="6.20671">
        <ele>2230.2</ele>
        <time>2021-02-27T14:15:07Z</time>
      </trkpt>
      <trkpt lat="45.2394" lon="6.20671">
        <ele>2230.4</ele>
        <time>2021-02-27T14:15:08Z</time>
      </trkpt>
      <trkpt lat="45.23941" lon="6.20675">
        <ele>2230.6</ele>
        <time>2021-02-27T14:15:09Z</time>
      </trkpt>
      <trkpt lat="45.23941" lon="6.20675">
        <ele>2230.6</ele>
        <time>2021-02-27T14:15:10Z</time>
      </trkpt>
      <trkpt lat="45.23942" lon="6.20677">
        <ele>2230.2</ele>
        <time>2021-02-27T14:15:11Z</time>
      </trkpt>
      <trkpt lat="45.23942" lon="6.20677">
        <ele>2230.8</ele>
        <time>2021-02-27T14:15:12Z</time>
      </trkpt>
      <trkpt lat="45.23942" lon="6.20677">
        <ele>2231.2</ele>
        <time>2021-02-27T14:15:13Z</time>
      </trkpt>
      <trkpt lat="45.23943" lon="6.2068">
        <ele>2230.8</ele>
        <time>2021-02-27T14:15:14Z</time>
      </trkpt>
      <trkpt lat="45.23943" lon="6.2068">
        <ele>2231.2</ele>
        <time>2021-02-27T14:15:15Z</time>
      </trkpt>
      <trkpt lat="45.23944" lon="6.20683">
        <ele>2231.6</ele>
        <time>2021-02-27T14:15:16Z</time>
      </trkpt>
      <trkpt lat="45.23944" lon="6.20683">
        <ele>2231.4</ele>
        <time>2021-02-27T14:15:17Z</time>
      </trkpt>
      <trkpt lat="45.23944" lon="6.20683">
        <ele>2231.8</ele>
        <time>2021-02-27T14:15:18Z</time>
      </trkpt>
      <trkpt lat="45.23945" lon="6.20686">
        <ele>2232</ele>
        <time>2021-02-27T14:15:19Z</time>
      </trkpt>
      <trkpt lat="45.23945" lon="6.20686">
        <ele>2231.8</ele>
        <time>2021-02-27T14:15:20Z</time>
      </trkpt>
      <trkpt lat="45.23945" lon="6.20686">
        <ele>2232</ele>
        <time>2021-02-27T14:15:21Z</time>
      </trkpt>
      <trkpt lat="45.23947" lon="6.20689">
        <ele>2232.4</ele>
        <time>2021-02-27T14:15:22Z</time>
      </trkpt>
      <trkpt lat="45.23947" lon="6.20689">
        <ele>2232.4</ele>
        <time>2021-02-27T14:15:23Z</time>
      </trkpt>
      <trkpt lat="45.23947" lon="6.20689">
        <ele>2232.4</ele>
        <time>2021-02-27T14:15:24Z</time>
      </trkpt>
      <trkpt lat="45.23948" lon="6.20693">
        <ele>2232.8</ele>
        <time>2021-02-27T14:15:25Z</time>
      </trkpt>
      <trkpt lat="45.23948" lon="6.20693">
        <ele>2233</ele>
        <time>2021-02-27T14:15:26Z</time>
      </trkpt>
      <trkpt lat="45.23948" lon="6.20693">
        <ele>2233</ele>
        <time>2021-02-27T14:15:27Z</time>
      </trkpt>
      <trkpt lat="45.23949" lon="6.20696">
        <ele>2233.4</ele>
        <time>2021-02-27T14:15:28Z</time>
      </trkpt>
      <trkpt lat="45.23949" lon="6.20696">
        <ele>2233.4</ele>
        <time>2021-02-27T14:15:29Z</time>
      </trkpt>
      <trkpt lat="45.23949" lon="6.20696">
        <ele>2233.8</ele>
        <time>2021-02-27T14:15:30Z</time>
      </trkpt>
      <trkpt lat="45.2395" lon="6.20699">
        <ele>2234.2</ele>
        <time>2021-02-27T14:15:31Z</time>
      </trkpt>
      <trkpt lat="45.2395" lon="6.20699">
        <ele>2233.8</ele>
        <time>2021-02-27T14:15:32Z</time>
      </trkpt>
      <trkpt lat="45.2395" lon="6.20699">
        <ele>2233.6</ele>
        <time>2021-02-27T14:15:33Z</time>
      </trkpt>
      <trkpt lat="45.23951" lon="6.20703">
        <ele>2234.2</ele>
        <time>2021-02-27T14:15:34Z</time>
      </trkpt>
      <trkpt lat="45.23951" lon="6.20703">
        <ele>2234.4</ele>
        <time>2021-02-27T14:15:35Z</time>
      </trkpt>
      <trkpt lat="45.23951" lon="6.20703">
        <ele>2234.6</ele>
        <time>2021-02-27T14:15:36Z</time>
      </trkpt>
      <trkpt lat="45.23953" lon="6.20706">
        <ele>2235</ele>
        <time>2021-02-27T14:15:37Z</time>
      </trkpt>
      <trkpt lat="45.23953" lon="6.20706">
        <ele>2234.8</ele>
        <time>2021-02-27T14:15:38Z</time>
      </trkpt>
      <trkpt lat="45.23954" lon="6.20708">
        <ele>2234.8</ele>
        <time>2021-02-27T14:15:39Z</time>
      </trkpt>
      <trkpt lat="45.23954" lon="6.20708">
        <ele>2234.6</ele>
        <time>2021-02-27T14:15:40Z</time>
      </trkpt>
      <trkpt lat="45.23955" lon="6.20711">
        <ele>2234.8</ele>
        <time>2021-02-27T14:15:41Z</time>
      </trkpt>
      <trkpt lat="45.23955" lon="6.20711">
        <ele>2235</ele>
        <time>2021-02-27T14:15:42Z</time>
      </trkpt>
      <trkpt lat="45.23955" lon="6.20711">
        <ele>2235</ele>
        <time>2021-02-27T14:15:43Z</time>
      </trkpt>
      <trkpt lat="45.23956" lon="6.20714">
        <ele>2234.8</ele>
        <time>2021-02-27T14:15:44Z</time>
      </trkpt>
      <trkpt lat="45.23956" lon="6.20714">
        <ele>2235.6</ele>
        <time>2021-02-27T14:15:45Z</time>
      </trkpt>
      <trkpt lat="45.23957" lon="6.20716">
        <ele>2235.8</ele>
        <time>2021-02-27T14:15:46Z</time>
      </trkpt>
      <trkpt lat="45.23957" lon="6.20716">
        <ele>2236.2</ele>
        <time>2021-02-27T14:15:47Z</time>
      </trkpt>
      <trkpt lat="45.23958" lon="6.20719">
        <ele>2236.4</ele>
        <time>2021-02-27T14:15:48Z</time>
      </trkpt>
      <trkpt lat="45.23958" lon="6.20719">
        <ele>2236.8</ele>
        <time>2021-02-27T14:15:49Z</time>
      </trkpt>
      <trkpt lat="45.23958" lon="6.20721">
        <ele>2237</ele>
        <time>2021-02-27T14:15:50Z</time>
      </trkpt>
      <trkpt lat="45.23958" lon="6.20721">
        <ele>2237.2</ele>
        <time>2021-02-27T14:15:51Z</time>
      </trkpt>
      <trkpt lat="45.23959" lon="6.20724">
        <ele>2237.4</ele>
        <time>2021-02-27T14:15:52Z</time>
      </trkpt>
      <trkpt lat="45.23959" lon="6.20724">
        <ele>2237.2</ele>
        <time>2021-02-27T14:15:53Z</time>
      </trkpt>
      <trkpt lat="45.23959" lon="6.20724">
        <ele>2237.6</ele>
        <time>2021-02-27T14:15:54Z</time>
      </trkpt>
      <trkpt lat="45.23961" lon="6.20727">
        <ele>2237.6</ele>
        <time>2021-02-27T14:15:55Z</time>
      </trkpt>
      <trkpt lat="45.23961" lon="6.20727">
        <ele>2237.6</ele>
        <time>2021-02-27T14:15:56Z</time>
      </trkpt>
      <trkpt lat="45.23961" lon="6.20727">
        <ele>2237.8</ele>
        <time>2021-02-27T14:15:57Z</time>
      </trkpt>
      <trkpt lat="45.23962" lon="6.2073">
        <ele>2238.2</ele>
        <time>2021-02-27T14:15:58Z</time>
      </trkpt>
      <trkpt lat="45.23962" lon="6.2073">
        <ele>2237.8</ele>
        <time>2021-02-27T14:15:59Z</time>
      </trkpt>
      <trkpt lat="45.23962" lon="6.2073">
        <ele>2238.2</ele>
        <time>2021-02-27T14:16:00Z</time>
      </trkpt>
      <trkpt lat="45.23963" lon="6.20734">
        <ele>2238.2</ele>
        <time>2021-02-27T14:16:01Z</time>
      </trkpt>
      <trkpt lat="45.23963" lon="6.20734">
        <ele>2238.4</ele>
        <time>2021-02-27T14:16:02Z</time>
      </trkpt>
      <trkpt lat="45.23963" lon="6.20734">
        <ele>2238.6</ele>
        <time>2021-02-27T14:16:03Z</time>
      </trkpt>
      <trkpt lat="45.23964" lon="6.20736">
        <ele>2239.2</ele>
        <time>2021-02-27T14:16:04Z</time>
      </trkpt>
      <trkpt lat="45.23964" lon="6.20736">
        <ele>2239.2</ele>
        <time>2021-02-27T14:16:05Z</time>
      </trkpt>
      <trkpt lat="45.23964" lon="6.20736">
        <ele>2239.6</ele>
        <time>2021-02-27T14:16:06Z</time>
      </trkpt>
      <trkpt lat="45.23965" lon="6.2074">
        <ele>2239.4</ele>
        <time>2021-02-27T14:16:07Z</time>
      </trkpt>
      <trkpt lat="45.23965" lon="6.2074">
        <ele>2239.4</ele>
        <time>2021-02-27T14:16:08Z</time>
      </trkpt>
      <trkpt lat="45.23965" lon="6.2074">
        <ele>2239.6</ele>
        <time>2021-02-27T14:16:09Z</time>
      </trkpt>
      <trkpt lat="45.23966" lon="6.20743">
        <ele>2239.4</ele>
        <time>2021-02-27T14:16:10Z</time>
      </trkpt>
      <trkpt lat="45.23966" lon="6.20743">
        <ele>2239.4</ele>
        <time>2021-02-27T14:16:11Z</time>
      </trkpt>
      <trkpt lat="45.23966" lon="6.20743">
        <ele>2239.6</ele>
        <time>2021-02-27T14:16:12Z</time>
      </trkpt>
      <trkpt lat="45.23967" lon="6.20745">
        <ele>2239.8</ele>
        <time>2021-02-27T14:16:13Z</time>
      </trkpt>
      <trkpt lat="45.23967" lon="6.20745">
        <ele>2239.8</ele>
        <time>2021-02-27T14:16:14Z</time>
      </trkpt>
      <trkpt lat="45.23967" lon="6.20745">
        <ele>2240</ele>
        <time>2021-02-27T14:16:15Z</time>
      </trkpt>
      <trkpt lat="45.23969" lon="6.20748">
        <ele>2240.2</ele>
        <time>2021-02-27T14:16:16Z</time>
      </trkpt>
      <trkpt lat="45.23969" lon="6.20748">
        <ele>2240.2</ele>
        <time>2021-02-27T14:16:17Z</time>
      </trkpt>
      <trkpt lat="45.23969" lon="6.20748">
        <ele>2240.4</ele>
        <time>2021-02-27T14:16:18Z</time>
      </trkpt>
      <trkpt lat="45.2397" lon="6.20751">
        <ele>2240.6</ele>
        <time>2021-02-27T14:16:19Z</time>
      </trkpt>
      <trkpt lat="45.2397" lon="6.20751">
        <ele>2241</ele>
        <time>2021-02-27T14:16:20Z</time>
      </trkpt>
      <trkpt lat="45.2397" lon="6.20751">
        <ele>2241</ele>
        <time>2021-02-27T14:16:21Z</time>
      </trkpt>
      <trkpt lat="45.2397" lon="6.20754">
        <ele>2241.2</ele>
        <time>2021-02-27T14:16:22Z</time>
      </trkpt>
      <trkpt lat="45.2397" lon="6.20754">
        <ele>2241.6</ele>
        <time>2021-02-27T14:16:23Z</time>
      </trkpt>
      <trkpt lat="45.2397" lon="6.20754">
        <ele>2241.6</ele>
        <time>2021-02-27T14:16:24Z</time>
      </trkpt>
      <trkpt lat="45.23971" lon="6.20756">
        <ele>2242</ele>
        <time>2021-02-27T14:16:25Z</time>
      </trkpt>
      <trkpt lat="45.23971" lon="6.20756">
        <ele>2242.2</ele>
        <time>2021-02-27T14:16:26Z</time>
      </trkpt>
      <trkpt lat="45.23971" lon="6.20756">
        <ele>2242</ele>
        <time>2021-02-27T14:16:27Z</time>
      </trkpt>
      <trkpt lat="45.23973" lon="6.20759">
        <ele>2242.2</ele>
        <time>2021-02-27T14:16:28Z</time>
      </trkpt>
      <trkpt lat="45.23973" lon="6.20759">
        <ele>2242.2</ele>
        <time>2021-02-27T14:16:29Z</time>
      </trkpt>
      <trkpt lat="45.23974" lon="6.20761">
        <ele>2242.4</ele>
        <time>2021-02-27T14:16:30Z</time>
      </trkpt>
      <trkpt lat="45.23974" lon="6.20761">
        <ele>2242.4</ele>
        <time>2021-02-27T14:16:31Z</time>
      </trkpt>
      <trkpt lat="45.23974" lon="6.20761">
        <ele>2242.6</ele>
        <time>2021-02-27T14:16:32Z</time>
      </trkpt>
      <trkpt lat="45.23974" lon="6.20761">
        <ele>2242.6</ele>
        <time>2021-02-27T14:16:33Z</time>
      </trkpt>
      <trkpt lat="45.23975" lon="6.20764">
        <ele>2242.8</ele>
        <time>2021-02-27T14:16:34Z</time>
      </trkpt>
      <trkpt lat="45.23975" lon="6.20764">
        <ele>2243</ele>
        <time>2021-02-27T14:16:35Z</time>
      </trkpt>
      <trkpt lat="45.23975" lon="6.20764">
        <ele>2243.2</ele>
        <time>2021-02-27T14:16:36Z</time>
      </trkpt>
      <trkpt lat="45.23976" lon="6.20767">
        <ele>2243.8</ele>
        <time>2021-02-27T14:16:37Z</time>
      </trkpt>
      <trkpt lat="45.23976" lon="6.20767">
        <ele>2243.8</ele>
        <time>2021-02-27T14:16:38Z</time>
      </trkpt>
      <trkpt lat="45.23976" lon="6.20767">
        <ele>2244</ele>
        <time>2021-02-27T14:16:39Z</time>
      </trkpt>
      <trkpt lat="45.23976" lon="6.20767">
        <ele>2244</ele>
        <time>2021-02-27T14:16:40Z</time>
      </trkpt>
      <trkpt lat="45.23979" lon="6.20771">
        <ele>2244.2</ele>
        <time>2021-02-27T14:16:41Z</time>
      </trkpt>
      <trkpt lat="45.23979" lon="6.20771">
        <ele>2244.4</ele>
        <time>2021-02-27T14:16:42Z</time>
      </trkpt>
      <trkpt lat="45.23979" lon="6.20771">
        <ele>2244.4</ele>
        <time>2021-02-27T14:16:43Z</time>
      </trkpt>
      <trkpt lat="45.2398" lon="6.20774">
        <ele>2244.4</ele>
        <time>2021-02-27T14:16:44Z</time>
      </trkpt>
      <trkpt lat="45.2398" lon="6.20774">
        <ele>2244.6</ele>
        <time>2021-02-27T14:16:45Z</time>
      </trkpt>
      <trkpt lat="45.2398" lon="6.20774">
        <ele>2244.6</ele>
        <time>2021-02-27T14:16:46Z</time>
      </trkpt>
      <trkpt lat="45.23981" lon="6.20776">
        <ele>2244.8</ele>
        <time>2021-02-27T14:16:47Z</time>
      </trkpt>
      <trkpt lat="45.23981" lon="6.20776">
        <ele>2244.8</ele>
        <time>2021-02-27T14:16:48Z</time>
      </trkpt>
      <trkpt lat="45.23981" lon="6.20776">
        <ele>2244.8</ele>
        <time>2021-02-27T14:16:49Z</time>
      </trkpt>
      <trkpt lat="45.23982" lon="6.20779">
        <ele>2245</ele>
        <time>2021-02-27T14:16:50Z</time>
      </trkpt>
      <trkpt lat="45.23982" lon="6.20779">
        <ele>2245.2</ele>
        <time>2021-02-27T14:16:51Z</time>
      </trkpt>
      <trkpt lat="45.23982" lon="6.20779">
        <ele>2245.4</ele>
        <time>2021-02-27T14:16:52Z</time>
      </trkpt>
      <trkpt lat="45.23983" lon="6.20781">
        <ele>2245.4</ele>
        <time>2021-02-27T14:16:53Z</time>
      </trkpt>
      <trkpt lat="45.23983" lon="6.20781">
        <ele>2245.4</ele>
        <time>2021-02-27T14:16:54Z</time>
      </trkpt>
      <trkpt lat="45.23983" lon="6.20781">
        <ele>2245.4</ele>
        <time>2021-02-27T14:16:55Z</time>
      </trkpt>
      <trkpt lat="45.23985" lon="6.20784">
        <ele>2245.4</ele>
        <time>2021-02-27T14:16:56Z</time>
      </trkpt>
      <trkpt lat="45.23985" lon="6.20784">
        <ele>2245.6</ele>
        <time>2021-02-27T14:16:57Z</time>
      </trkpt>
      <trkpt lat="45.23985" lon="6.20784">
        <ele>2245.8</ele>
        <time>2021-02-27T14:16:58Z</time>
      </trkpt>
      <trkpt lat="45.23985" lon="6.20784">
        <ele>2246</ele>
        <time>2021-02-27T14:16:59Z</time>
      </trkpt>
      <trkpt lat="45.23987" lon="6.20787">
        <ele>2246.2</ele>
        <time>2021-02-27T14:17:00Z</time>
      </trkpt>
      <trkpt lat="45.23987" lon="6.20787">
        <ele>2246.4</ele>
        <time>2021-02-27T14:17:01Z</time>
      </trkpt>
      <trkpt lat="45.23987" lon="6.20787">
        <ele>2246.8</ele>
        <time>2021-02-27T14:17:02Z</time>
      </trkpt>
      <trkpt lat="45.23988" lon="6.20789">
        <ele>2246.6</ele>
        <time>2021-02-27T14:17:03Z</time>
      </trkpt>
      <trkpt lat="45.23988" lon="6.20789">
        <ele>2246.6</ele>
        <time>2021-02-27T14:17:04Z</time>
      </trkpt>
      <trkpt lat="45.23988" lon="6.20789">
        <ele>2246.4</ele>
        <time>2021-02-27T14:17:05Z</time>
      </trkpt>
      <trkpt lat="45.2399" lon="6.20791">
        <ele>2246.6</ele>
        <time>2021-02-27T14:17:06Z</time>
      </trkpt>
      <trkpt lat="45.2399" lon="6.20791">
        <ele>2246.8</ele>
        <time>2021-02-27T14:17:07Z</time>
      </trkpt>
      <trkpt lat="45.2399" lon="6.20791">
        <ele>2247</ele>
        <time>2021-02-27T14:17:08Z</time>
      </trkpt>
      <trkpt lat="45.23991" lon="6.20794">
        <ele>2247.2</ele>
        <time>2021-02-27T14:17:09Z</time>
      </trkpt>
      <trkpt lat="45.23991" lon="6.20794">
        <ele>2247.4</ele>
        <time>2021-02-27T14:17:10Z</time>
      </trkpt>
      <trkpt lat="45.23993" lon="6.20796">
        <ele>2247.4</ele>
        <time>2021-02-27T14:17:11Z</time>
      </trkpt>
      <trkpt lat="45.23993" lon="6.20796">
        <ele>2247.6</ele>
        <time>2021-02-27T14:17:12Z</time>
      </trkpt>
      <trkpt lat="45.23993" lon="6.20796">
        <ele>2247.8</ele>
        <time>2021-02-27T14:17:13Z</time>
      </trkpt>
      <trkpt lat="45.23994" lon="6.20798">
        <ele>2248</ele>
        <time>2021-02-27T14:17:14Z</time>
      </trkpt>
      <trkpt lat="45.23994" lon="6.20798">
        <ele>2248.2</ele>
        <time>2021-02-27T14:17:15Z</time>
      </trkpt>
      <trkpt lat="45.23994" lon="6.20798">
        <ele>2248.4</ele>
        <time>2021-02-27T14:17:16Z</time>
      </trkpt>
      <trkpt lat="45.23996" lon="6.20801">
        <ele>2248.6</ele>
        <time>2021-02-27T14:17:17Z</time>
      </trkpt>
      <trkpt lat="45.23996" lon="6.20801">
        <ele>2248.4</ele>
        <time>2021-02-27T14:17:18Z</time>
      </trkpt>
      <trkpt lat="45.23997" lon="6.20803">
        <ele>2248.6</ele>
        <time>2021-02-27T14:17:19Z</time>
      </trkpt>
      <trkpt lat="45.23997" lon="6.20803">
        <ele>2248.6</ele>
        <time>2021-02-27T14:17:20Z</time>
      </trkpt>
      <trkpt lat="45.23997" lon="6.20803">
        <ele>2248.8</ele>
        <time>2021-02-27T14:17:21Z</time>
      </trkpt>
      <trkpt lat="45.23999" lon="6.20805">
        <ele>2248.8</ele>
        <time>2021-02-27T14:17:22Z</time>
      </trkpt>
      <trkpt lat="45.23999" lon="6.20805">
        <ele>2248.8</ele>
        <time>2021-02-27T14:17:23Z</time>
      </trkpt>
      <trkpt lat="45.23999" lon="6.20805">
        <ele>2249.2</ele>
        <time>2021-02-27T14:17:24Z</time>
      </trkpt>
      <trkpt lat="45.24001" lon="6.20807">
        <ele>2249.2</ele>
        <time>2021-02-27T14:17:25Z</time>
      </trkpt>
      <trkpt lat="45.24001" lon="6.20807">
        <ele>2249.2</ele>
        <time>2021-02-27T14:17:26Z</time>
      </trkpt>
      <trkpt lat="45.24001" lon="6.20807">
        <ele>2249.4</ele>
        <time>2021-02-27T14:17:27Z</time>
      </trkpt>
      <trkpt lat="45.24002" lon="6.20809">
        <ele>2249.6</ele>
        <time>2021-02-27T14:17:28Z</time>
      </trkpt>
      <trkpt lat="45.24002" lon="6.20809">
        <ele>2249.8</ele>
        <time>2021-02-27T14:17:29Z</time>
      </trkpt>
      <trkpt lat="45.24002" lon="6.20809">
        <ele>2249.8</ele>
        <time>2021-02-27T14:17:30Z</time>
      </trkpt>
      <trkpt lat="45.24003" lon="6.20812">
        <ele>2250</ele>
        <time>2021-02-27T14:17:31Z</time>
      </trkpt>
      <trkpt lat="45.24003" lon="6.20812">
        <ele>2249.8</ele>
        <time>2021-02-27T14:17:32Z</time>
      </trkpt>
      <trkpt lat="45.24003" lon="6.20812">
        <ele>2250.2</ele>
        <time>2021-02-27T14:17:33Z</time>
      </trkpt>
      <trkpt lat="45.24005" lon="6.20814">
        <ele>2250.2</ele>
        <time>2021-02-27T14:17:34Z</time>
      </trkpt>
      <trkpt lat="45.24005" lon="6.20814">
        <ele>2250.2</ele>
        <time>2021-02-27T14:17:35Z</time>
      </trkpt>
      <trkpt lat="45.24005" lon="6.20814">
        <ele>2250.2</ele>
        <time>2021-02-27T14:17:36Z</time>
      </trkpt>
      <trkpt lat="45.24006" lon="6.20817">
        <ele>2250.4</ele>
        <time>2021-02-27T14:17:37Z</time>
      </trkpt>
      <trkpt lat="45.24006" lon="6.20817">
        <ele>2250.4</ele>
        <time>2021-02-27T14:17:38Z</time>
      </trkpt>
      <trkpt lat="45.24006" lon="6.20817">
        <ele>2251</ele>
        <time>2021-02-27T14:17:39Z</time>
      </trkpt>
      <trkpt lat="45.24006" lon="6.2082">
        <ele>2251</ele>
        <time>2021-02-27T14:17:40Z</time>
      </trkpt>
      <trkpt lat="45.24006" lon="6.2082">
        <ele>2251</ele>
        <time>2021-02-27T14:17:41Z</time>
      </trkpt>
      <trkpt lat="45.24006" lon="6.2082">
        <ele>2251</ele>
        <time>2021-02-27T14:17:42Z</time>
      </trkpt>
      <trkpt lat="45.24006" lon="6.2082">
        <ele>2251.2</ele>
        <time>2021-02-27T14:17:43Z</time>
      </trkpt>
      <trkpt lat="45.24006" lon="6.20823">
        <ele>2251.2</ele>
        <time>2021-02-27T14:17:44Z</time>
      </trkpt>
      <trkpt lat="45.24006" lon="6.20823">
        <ele>2251.6</ele>
        <time>2021-02-27T14:17:45Z</time>
      </trkpt>
      <trkpt lat="45.24006" lon="6.20823">
        <ele>2251.8</ele>
        <time>2021-02-27T14:17:46Z</time>
      </trkpt>
      <trkpt lat="45.24006" lon="6.20827">
        <ele>2252</ele>
        <time>2021-02-27T14:17:47Z</time>
      </trkpt>
      <trkpt lat="45.24006" lon="6.20827">
        <ele>2252</ele>
        <time>2021-02-27T14:17:48Z</time>
      </trkpt>
      <trkpt lat="45.24007" lon="6.2083">
        <ele>2252</ele>
        <time>2021-02-27T14:17:49Z</time>
      </trkpt>
      <trkpt lat="45.24007" lon="6.2083">
        <ele>2252</ele>
        <time>2021-02-27T14:17:50Z</time>
      </trkpt>
      <trkpt lat="45.24007" lon="6.2083">
        <ele>2252.2</ele>
        <time>2021-02-27T14:17:51Z</time>
      </trkpt>
      <trkpt lat="45.24008" lon="6.20833">
        <ele>2252.4</ele>
        <time>2021-02-27T14:17:52Z</time>
      </trkpt>
      <trkpt lat="45.24008" lon="6.20833">
        <ele>2252.6</ele>
        <time>2021-02-27T14:17:53Z</time>
      </trkpt>
      <trkpt lat="45.24008" lon="6.20833">
        <ele>2252.6</ele>
        <time>2021-02-27T14:17:54Z</time>
      </trkpt>
      <trkpt lat="45.24009" lon="6.20836">
        <ele>2252.8</ele>
        <time>2021-02-27T14:17:55Z</time>
      </trkpt>
      <trkpt lat="45.24009" lon="6.20836">
        <ele>2253</ele>
        <time>2021-02-27T14:17:56Z</time>
      </trkpt>
      <trkpt lat="45.2401" lon="6.20838">
        <ele>2253</ele>
        <time>2021-02-27T14:17:57Z</time>
      </trkpt>
      <trkpt lat="45.2401" lon="6.20838">
        <ele>2253</ele>
        <time>2021-02-27T14:17:58Z</time>
      </trkpt>
      <trkpt lat="45.24012" lon="6.20841">
        <ele>2253</ele>
        <time>2021-02-27T14:17:59Z</time>
      </trkpt>
      <trkpt lat="45.24012" lon="6.20841">
        <ele>2253.4</ele>
        <time>2021-02-27T14:18:00Z</time>
      </trkpt>
      <trkpt lat="45.24013" lon="6.20843">
        <ele>2253.2</ele>
        <time>2021-02-27T14:18:01Z</time>
      </trkpt>
      <trkpt lat="45.24013" lon="6.20843">
        <ele>2253.2</ele>
        <time>2021-02-27T14:18:02Z</time>
      </trkpt>
      <trkpt lat="45.24014" lon="6.20845">
        <ele>2253.4</ele>
        <time>2021-02-27T14:18:03Z</time>
      </trkpt>
      <trkpt lat="45.24014" lon="6.20845">
        <ele>2253.4</ele>
        <time>2021-02-27T14:18:04Z</time>
      </trkpt>
      <trkpt lat="45.24015" lon="6.20848">
        <ele>2253.6</ele>
        <time>2021-02-27T14:18:05Z</time>
      </trkpt>
      <trkpt lat="45.24015" lon="6.20848">
        <ele>2253.8</ele>
        <time>2021-02-27T14:18:06Z</time>
      </trkpt>
      <trkpt lat="45.24015" lon="6.20848">
        <ele>2254</ele>
        <time>2021-02-27T14:18:07Z</time>
      </trkpt>
      <trkpt lat="45.24016" lon="6.20851">
        <ele>2254.4</ele>
        <time>2021-02-27T14:18:08Z</time>
      </trkpt>
      <trkpt lat="45.24016" lon="6.20851">
        <ele>2254.4</ele>
        <time>2021-02-27T14:18:09Z</time>
      </trkpt>
      <trkpt lat="45.24017" lon="6.20854">
        <ele>2254.2</ele>
        <time>2021-02-27T14:18:10Z</time>
      </trkpt>
      <trkpt lat="45.24017" lon="6.20854">
        <ele>2254.2</ele>
        <time>2021-02-27T14:18:11Z</time>
      </trkpt>
      <trkpt lat="45.24017" lon="6.20856">
        <ele>2254.4</ele>
        <time>2021-02-27T14:18:12Z</time>
      </trkpt>
      <trkpt lat="45.24017" lon="6.20856">
        <ele>2254.6</ele>
        <time>2021-02-27T14:18:13Z</time>
      </trkpt>
      <trkpt lat="45.24017" lon="6.20856">
        <ele>2254.8</ele>
        <time>2021-02-27T14:18:14Z</time>
      </trkpt>
      <trkpt lat="45.24018" lon="6.2086">
        <ele>2254.8</ele>
        <time>2021-02-27T14:18:15Z</time>
      </trkpt>
      <trkpt lat="45.24018" lon="6.2086">
        <ele>2254.8</ele>
        <time>2021-02-27T14:18:16Z</time>
      </trkpt>
      <trkpt lat="45.24018" lon="6.2086">
        <ele>2254.8</ele>
        <time>2021-02-27T14:18:17Z</time>
      </trkpt>
      <trkpt lat="45.2402" lon="6.20862">
        <ele>2254.8</ele>
        <time>2021-02-27T14:18:18Z</time>
      </trkpt>
      <trkpt lat="45.2402" lon="6.20862">
        <ele>2254.8</ele>
        <time>2021-02-27T14:18:19Z</time>
      </trkpt>
      <trkpt lat="45.2402" lon="6.20862">
        <ele>2254.8</ele>
        <time>2021-02-27T14:18:20Z</time>
      </trkpt>
      <trkpt lat="45.24021" lon="6.20866">
        <ele>2255</ele>
        <time>2021-02-27T14:18:21Z</time>
      </trkpt>
      <trkpt lat="45.24021" lon="6.20866">
        <ele>2255.2</ele>
        <time>2021-02-27T14:18:22Z</time>
      </trkpt>
      <trkpt lat="45.24021" lon="6.20866">
        <ele>2255.4</ele>
        <time>2021-02-27T14:18:23Z</time>
      </trkpt>
      <trkpt lat="45.24022" lon="6.20869">
        <ele>2255.8</ele>
        <time>2021-02-27T14:18:24Z</time>
      </trkpt>
      <trkpt lat="45.24022" lon="6.20869">
        <ele>2255.8</ele>
        <time>2021-02-27T14:18:25Z</time>
      </trkpt>
      <trkpt lat="45.24022" lon="6.20869">
        <ele>2255.6</ele>
        <time>2021-02-27T14:18:26Z</time>
      </trkpt>
      <trkpt lat="45.24022" lon="6.20872">
        <ele>2255.8</ele>
        <time>2021-02-27T14:18:27Z</time>
      </trkpt>
      <trkpt lat="45.24022" lon="6.20872">
        <ele>2255.8</ele>
        <time>2021-02-27T14:18:28Z</time>
      </trkpt>
      <trkpt lat="45.24022" lon="6.20872">
        <ele>2255.8</ele>
        <time>2021-02-27T14:18:29Z</time>
      </trkpt>
      <trkpt lat="45.24024" lon="6.20874">
        <ele>2256</ele>
        <time>2021-02-27T14:18:30Z</time>
      </trkpt>
      <trkpt lat="45.24024" lon="6.20874">
        <ele>2256</ele>
        <time>2021-02-27T14:18:31Z</time>
      </trkpt>
      <trkpt lat="45.24024" lon="6.20877">
        <ele>2256.2</ele>
        <time>2021-02-27T14:18:32Z</time>
      </trkpt>
      <trkpt lat="45.24024" lon="6.20877">
        <ele>2256.2</ele>
        <time>2021-02-27T14:18:33Z</time>
      </trkpt>
      <trkpt lat="45.24024" lon="6.2088">
        <ele>2256.4</ele>
        <time>2021-02-27T14:18:34Z</time>
      </trkpt>
      <trkpt lat="45.24024" lon="6.2088">
        <ele>2256.4</ele>
        <time>2021-02-27T14:18:35Z</time>
      </trkpt>
      <trkpt lat="45.24024" lon="6.2088">
        <ele>2256.8</ele>
        <time>2021-02-27T14:18:36Z</time>
      </trkpt>
      <trkpt lat="45.24026" lon="6.20883">
        <ele>2256.8</ele>
        <time>2021-02-27T14:18:37Z</time>
      </trkpt>
      <trkpt lat="45.24026" lon="6.20883">
        <ele>2257</ele>
        <time>2021-02-27T14:18:38Z</time>
      </trkpt>
      <trkpt lat="45.24026" lon="6.20883">
        <ele>2257.4</ele>
        <time>2021-02-27T14:18:39Z</time>
      </trkpt>
      <trkpt lat="45.24027" lon="6.20887">
        <ele>2257.6</ele>
        <time>2021-02-27T14:18:40Z</time>
      </trkpt>
      <trkpt lat="45.24027" lon="6.20887">
        <ele>2257.8</ele>
        <time>2021-02-27T14:18:41Z</time>
      </trkpt>
      <trkpt lat="45.24028" lon="6.20889">
        <ele>2257.6</ele>
        <time>2021-02-27T14:18:42Z</time>
      </trkpt>
      <trkpt lat="45.24028" lon="6.20889">
        <ele>2257.6</ele>
        <time>2021-02-27T14:18:43Z</time>
      </trkpt>
      <trkpt lat="45.24028" lon="6.20889">
        <ele>2257.8</ele>
        <time>2021-02-27T14:18:44Z</time>
      </trkpt>
      <trkpt lat="45.24029" lon="6.20892">
        <ele>2257.6</ele>
        <time>2021-02-27T14:18:45Z</time>
      </trkpt>
      <trkpt lat="45.24029" lon="6.20892">
        <ele>2258</ele>
        <time>2021-02-27T14:18:46Z</time>
      </trkpt>
      <trkpt lat="45.24029" lon="6.20892">
        <ele>2258.4</ele>
        <time>2021-02-27T14:18:47Z</time>
      </trkpt>
      <trkpt lat="45.24031" lon="6.20895">
        <ele>2258.6</ele>
        <time>2021-02-27T14:18:48Z</time>
      </trkpt>
      <trkpt lat="45.24031" lon="6.20895">
        <ele>2258.8</ele>
        <time>2021-02-27T14:18:49Z</time>
      </trkpt>
      <trkpt lat="45.24031" lon="6.20895">
        <ele>2258.4</ele>
        <time>2021-02-27T14:18:50Z</time>
      </trkpt>
      <trkpt lat="45.24033" lon="6.20898">
        <ele>2258.6</ele>
        <time>2021-02-27T14:18:51Z</time>
      </trkpt>
      <trkpt lat="45.24033" lon="6.20898">
        <ele>2258.6</ele>
        <time>2021-02-27T14:18:52Z</time>
      </trkpt>
      <trkpt lat="45.24034" lon="6.209">
        <ele>2259</ele>
        <time>2021-02-27T14:18:53Z</time>
      </trkpt>
      <trkpt lat="45.24034" lon="6.209">
        <ele>2259.4</ele>
        <time>2021-02-27T14:18:54Z</time>
      </trkpt>
      <trkpt lat="45.24036" lon="6.20902">
        <ele>2259</ele>
        <time>2021-02-27T14:18:55Z</time>
      </trkpt>
      <trkpt lat="45.24036" lon="6.20902">
        <ele>2258.8</ele>
        <time>2021-02-27T14:18:56Z</time>
      </trkpt>
      <trkpt lat="45.24037" lon="6.20904">
        <ele>2258.8</ele>
        <time>2021-02-27T14:18:57Z</time>
      </trkpt>
      <trkpt lat="45.24038" lon="6.20906">
        <ele>2259.2</ele>
        <time>2021-02-27T14:18:59Z</time>
      </trkpt>
      <trkpt lat="45.24038" lon="6.20906">
        <ele>2259.6</ele>
        <time>2021-02-27T14:19:00Z</time>
      </trkpt>
      <trkpt lat="45.2404" lon="6.20909">
        <ele>2259.6</ele>
        <time>2021-02-27T14:19:01Z</time>
      </trkpt>
      <trkpt lat="45.24041" lon="6.20909">
        <ele>2259.6</ele>
        <time>2021-02-27T14:19:03Z</time>
      </trkpt>
      <trkpt lat="45.24042" lon="6.2091">
        <ele>2259.8</ele>
        <time>2021-02-27T14:19:04Z</time>
      </trkpt>
      <trkpt lat="45.24043" lon="6.20913">
        <ele>2259.6</ele>
        <time>2021-02-27T14:19:05Z</time>
      </trkpt>
      <trkpt lat="45.24043" lon="6.20913">
        <ele>2259.8</ele>
        <time>2021-02-27T14:19:06Z</time>
      </trkpt>
      <trkpt lat="45.24044" lon="6.20914">
        <ele>2260</ele>
        <time>2021-02-27T14:19:07Z</time>
      </trkpt>
      <trkpt lat="45.24044" lon="6.20914">
        <ele>2260.2</ele>
        <time>2021-02-27T14:19:08Z</time>
      </trkpt>
      <trkpt lat="45.24046" lon="6.20916">
        <ele>2260.4</ele>
        <time>2021-02-27T14:19:09Z</time>
      </trkpt>
      <trkpt lat="45.24046" lon="6.20916">
        <ele>2260.8</ele>
        <time>2021-02-27T14:19:10Z</time>
      </trkpt>
      <trkpt lat="45.24047" lon="6.20918">
        <ele>2260.8</ele>
        <time>2021-02-27T14:19:11Z</time>
      </trkpt>
      <trkpt lat="45.24047" lon="6.20918">
        <ele>2261</ele>
        <time>2021-02-27T14:19:12Z</time>
      </trkpt>
      <trkpt lat="45.24049" lon="6.2092">
        <ele>2261.2</ele>
        <time>2021-02-27T14:19:13Z</time>
      </trkpt>
      <trkpt lat="45.24049" lon="6.2092">
        <ele>2261.4</ele>
        <time>2021-02-27T14:19:14Z</time>
      </trkpt>
      <trkpt lat="45.2405" lon="6.20921">
        <ele>2261.6</ele>
        <time>2021-02-27T14:19:15Z</time>
      </trkpt>
      <trkpt lat="45.2405" lon="6.20921">
        <ele>2261.4</ele>
        <time>2021-02-27T14:19:16Z</time>
      </trkpt>
      <trkpt lat="45.24051" lon="6.20923">
        <ele>2261.6</ele>
        <time>2021-02-27T14:19:17Z</time>
      </trkpt>
      <trkpt lat="45.24051" lon="6.20923">
        <ele>2261.6</ele>
        <time>2021-02-27T14:19:18Z</time>
      </trkpt>
      <trkpt lat="45.24051" lon="6.20923">
        <ele>2261.8</ele>
        <time>2021-02-27T14:19:19Z</time>
      </trkpt>
      <trkpt lat="45.24052" lon="6.20926">
        <ele>2261.8</ele>
        <time>2021-02-27T14:19:20Z</time>
      </trkpt>
      <trkpt lat="45.24052" lon="6.20926">
        <ele>2262</ele>
        <time>2021-02-27T14:19:21Z</time>
      </trkpt>
      <trkpt lat="45.24053" lon="6.20928">
        <ele>2262.2</ele>
        <time>2021-02-27T14:19:22Z</time>
      </trkpt>
      <trkpt lat="45.24053" lon="6.20928">
        <ele>2262.2</ele>
        <time>2021-02-27T14:19:23Z</time>
      </trkpt>
      <trkpt lat="45.24054" lon="6.2093">
        <ele>2262.4</ele>
        <time>2021-02-27T14:19:24Z</time>
      </trkpt>
      <trkpt lat="45.24054" lon="6.2093">
        <ele>2262.6</ele>
        <time>2021-02-27T14:19:25Z</time>
      </trkpt>
      <trkpt lat="45.24054" lon="6.2093">
        <ele>2262.8</ele>
        <time>2021-02-27T14:19:26Z</time>
      </trkpt>
      <trkpt lat="45.24056" lon="6.20933">
        <ele>2263.2</ele>
        <time>2021-02-27T14:19:27Z</time>
      </trkpt>
      <trkpt lat="45.24056" lon="6.20933">
        <ele>2263</ele>
        <time>2021-02-27T14:19:28Z</time>
      </trkpt>
      <trkpt lat="45.24056" lon="6.20933">
        <ele>2263.4</ele>
        <time>2021-02-27T14:19:29Z</time>
      </trkpt>
      <trkpt lat="45.24058" lon="6.20936">
        <ele>2263.8</ele>
        <time>2021-02-27T14:19:30Z</time>
      </trkpt>
      <trkpt lat="45.24058" lon="6.20936">
        <ele>2263.6</ele>
        <time>2021-02-27T14:19:31Z</time>
      </trkpt>
      <trkpt lat="45.24058" lon="6.20936">
        <ele>2263.6</ele>
        <time>2021-02-27T14:19:32Z</time>
      </trkpt>
      <trkpt lat="45.2406" lon="6.20938">
        <ele>2263.4</ele>
        <time>2021-02-27T14:19:33Z</time>
      </trkpt>
      <trkpt lat="45.2406" lon="6.20938">
        <ele>2263.4</ele>
        <time>2021-02-27T14:19:34Z</time>
      </trkpt>
      <trkpt lat="45.24062" lon="6.2094">
        <ele>2263.4</ele>
        <time>2021-02-27T14:19:35Z</time>
      </trkpt>
      <trkpt lat="45.24062" lon="6.2094">
        <ele>2263.4</ele>
        <time>2021-02-27T14:19:36Z</time>
      </trkpt>
      <trkpt lat="45.24062" lon="6.2094">
        <ele>2263.4</ele>
        <time>2021-02-27T14:19:37Z</time>
      </trkpt>
      <trkpt lat="45.24062" lon="6.2094">
        <ele>2263.8</ele>
        <time>2021-02-27T14:19:38Z</time>
      </trkpt>
      <trkpt lat="45.24062" lon="6.2094">
        <ele>2264</ele>
        <time>2021-02-27T14:19:39Z</time>
      </trkpt>
      <trkpt lat="45.24063" lon="6.20944">
        <ele>2264.2</ele>
        <time>2021-02-27T14:19:40Z</time>
      </trkpt>
      <trkpt lat="45.24063" lon="6.20944">
        <ele>2264.2</ele>
        <time>2021-02-27T14:19:41Z</time>
      </trkpt>
      <trkpt lat="45.24063" lon="6.20944">
        <ele>2264.4</ele>
        <time>2021-02-27T14:19:42Z</time>
      </trkpt>
      <trkpt lat="45.24064" lon="6.20947">
        <ele>2264.4</ele>
        <time>2021-02-27T14:19:43Z</time>
      </trkpt>
      <trkpt lat="45.24064" lon="6.20947">
        <ele>2264.4</ele>
        <time>2021-02-27T14:19:44Z</time>
      </trkpt>
      <trkpt lat="45.24064" lon="6.20947">
        <ele>2264.6</ele>
        <time>2021-02-27T14:19:45Z</time>
      </trkpt>
      <trkpt lat="45.24065" lon="6.2095">
        <ele>2264.6</ele>
        <time>2021-02-27T14:19:46Z</time>
      </trkpt>
      <trkpt lat="45.24065" lon="6.2095">
        <ele>2264.6</ele>
        <time>2021-02-27T14:19:47Z</time>
      </trkpt>
      <trkpt lat="45.24066" lon="6.20952">
        <ele>2265</ele>
        <time>2021-02-27T14:19:48Z</time>
      </trkpt>
      <trkpt lat="45.24066" lon="6.20952">
        <ele>2264.8</ele>
        <time>2021-02-27T14:19:49Z</time>
      </trkpt>
      <trkpt lat="45.24066" lon="6.20952">
        <ele>2265</ele>
        <time>2021-02-27T14:19:50Z</time>
      </trkpt>
      <trkpt lat="45.24068" lon="6.20955">
        <ele>2265.4</ele>
        <time>2021-02-27T14:19:51Z</time>
      </trkpt>
      <trkpt lat="45.24068" lon="6.20955">
        <ele>2265.4</ele>
        <time>2021-02-27T14:19:52Z</time>
      </trkpt>
      <trkpt lat="45.24068" lon="6.20955">
        <ele>2265.8</ele>
        <time>2021-02-27T14:19:53Z</time>
      </trkpt>
      <trkpt lat="45.24069" lon="6.20958">
        <ele>2266</ele>
        <time>2021-02-27T14:19:54Z</time>
      </trkpt>
      <trkpt lat="45.24069" lon="6.20958">
        <ele>2266.2</ele>
        <time>2021-02-27T14:19:55Z</time>
      </trkpt>
      <trkpt lat="45.2407" lon="6.20961">
        <ele>2266.6</ele>
        <time>2021-02-27T14:19:56Z</time>
      </trkpt>
      <trkpt lat="45.2407" lon="6.20961">
        <ele>2266.8</ele>
        <time>2021-02-27T14:19:57Z</time>
      </trkpt>
      <trkpt lat="45.24072" lon="6.20963">
        <ele>2267</ele>
        <time>2021-02-27T14:19:58Z</time>
      </trkpt>
      <trkpt lat="45.24072" lon="6.20963">
        <ele>2267</ele>
        <time>2021-02-27T14:19:59Z</time>
      </trkpt>
      <trkpt lat="45.24073" lon="6.20965">
        <ele>2267.2</ele>
        <time>2021-02-27T14:20:00Z</time>
      </trkpt>
      <trkpt lat="45.24073" lon="6.20965">
        <ele>2267.2</ele>
        <time>2021-02-27T14:20:01Z</time>
      </trkpt>
      <trkpt lat="45.24076" lon="6.20967">
        <ele>2267.4</ele>
        <time>2021-02-27T14:20:02Z</time>
      </trkpt>
      <trkpt lat="45.24076" lon="6.20967">
        <ele>2267.6</ele>
        <time>2021-02-27T14:20:03Z</time>
      </trkpt>
      <trkpt lat="45.24078" lon="6.20969">
        <ele>2268</ele>
        <time>2021-02-27T14:20:04Z</time>
      </trkpt>
      <trkpt lat="45.24078" lon="6.20969">
        <ele>2268.4</ele>
        <time>2021-02-27T14:20:05Z</time>
      </trkpt>
      <trkpt lat="45.24078" lon="6.20969">
        <ele>2268.6</ele>
        <time>2021-02-27T14:20:06Z</time>
      </trkpt>
      <trkpt lat="45.24078" lon="6.20969">
        <ele>2268.6</ele>
        <time>2021-02-27T14:20:07Z</time>
      </trkpt>
      <trkpt lat="45.2408" lon="6.20972">
        <ele>2268.8</ele>
        <time>2021-02-27T14:20:08Z</time>
      </trkpt>
      <trkpt lat="45.2408" lon="6.20972">
        <ele>2268.8</ele>
        <time>2021-02-27T14:20:09Z</time>
      </trkpt>
      <trkpt lat="45.24082" lon="6.20974">
        <ele>2269.2</ele>
        <time>2021-02-27T14:20:10Z</time>
      </trkpt>
      <trkpt lat="45.24082" lon="6.20974">
        <ele>2269.2</ele>
        <time>2021-02-27T14:20:11Z</time>
      </trkpt>
      <trkpt lat="45.24082" lon="6.20974">
        <ele>2269.2</ele>
        <time>2021-02-27T14:20:12Z</time>
      </trkpt>
      <trkpt lat="45.24084" lon="6.20976">
        <ele>2269.4</ele>
        <time>2021-02-27T14:20:13Z</time>
      </trkpt>
      <trkpt lat="45.24084" lon="6.20976">
        <ele>2269.4</ele>
        <time>2021-02-27T14:20:14Z</time>
      </trkpt>
      <trkpt lat="45.24084" lon="6.20976">
        <ele>2269.6</ele>
        <time>2021-02-27T14:20:15Z</time>
      </trkpt>
      <trkpt lat="45.24085" lon="6.20979">
        <ele>2269.8</ele>
        <time>2021-02-27T14:20:16Z</time>
      </trkpt>
      <trkpt lat="45.24085" lon="6.20979">
        <ele>2269.8</ele>
        <time>2021-02-27T14:20:17Z</time>
      </trkpt>
      <trkpt lat="45.24085" lon="6.20979">
        <ele>2270.2</ele>
        <time>2021-02-27T14:20:18Z</time>
      </trkpt>
      <trkpt lat="45.24085" lon="6.20979">
        <ele>2270.4</ele>
        <time>2021-02-27T14:20:19Z</time>
      </trkpt>
      <trkpt lat="45.24087" lon="6.2098">
        <ele>2270.4</ele>
        <time>2021-02-27T14:20:20Z</time>
      </trkpt>
      <trkpt lat="45.24087" lon="6.2098">
        <ele>2270.6</ele>
        <time>2021-02-27T14:20:21Z</time>
      </trkpt>
      <trkpt lat="45.24087" lon="6.2098">
        <ele>2270.8</ele>
        <time>2021-02-27T14:20:22Z</time>
      </trkpt>
      <trkpt lat="45.24089" lon="6.20983">
        <ele>2271</ele>
        <time>2021-02-27T14:20:23Z</time>
      </trkpt>
      <trkpt lat="45.24089" lon="6.20983">
        <ele>2271.2</ele>
        <time>2021-02-27T14:20:24Z</time>
      </trkpt>
      <trkpt lat="45.24089" lon="6.20983">
        <ele>2271.4</ele>
        <time>2021-02-27T14:20:25Z</time>
      </trkpt>
      <trkpt lat="45.24091" lon="6.20986">
        <ele>2272</ele>
        <time>2021-02-27T14:20:26Z</time>
      </trkpt>
      <trkpt lat="45.24091" lon="6.20986">
        <ele>2272</ele>
        <time>2021-02-27T14:20:27Z</time>
      </trkpt>
      <trkpt lat="45.24091" lon="6.20986">
        <ele>2272</ele>
        <time>2021-02-27T14:20:28Z</time>
      </trkpt>
      <trkpt lat="45.24093" lon="6.20989">
        <ele>2272</ele>
        <time>2021-02-27T14:20:29Z</time>
      </trkpt>
      <trkpt lat="45.24093" lon="6.20989">
        <ele>2272.2</ele>
        <time>2021-02-27T14:20:30Z</time>
      </trkpt>
      <trkpt lat="45.24093" lon="6.20989">
        <ele>2272.4</ele>
        <time>2021-02-27T14:20:31Z</time>
      </trkpt>
      <trkpt lat="45.24094" lon="6.20991">
        <ele>2272.4</ele>
        <time>2021-02-27T14:20:32Z</time>
      </trkpt>
      <trkpt lat="45.24094" lon="6.20991">
        <ele>2272.6</ele>
        <time>2021-02-27T14:20:33Z</time>
      </trkpt>
      <trkpt lat="45.24094" lon="6.20991">
        <ele>2272.8</ele>
        <time>2021-02-27T14:20:34Z</time>
      </trkpt>
      <trkpt lat="45.24096" lon="6.20993">
        <ele>2272.8</ele>
        <time>2021-02-27T14:20:35Z</time>
      </trkpt>
      <trkpt lat="45.24096" lon="6.20993">
        <ele>2272.6</ele>
        <time>2021-02-27T14:20:36Z</time>
      </trkpt>
      <trkpt lat="45.24097" lon="6.20996">
        <ele>2273.2</ele>
        <time>2021-02-27T14:20:37Z</time>
      </trkpt>
      <trkpt lat="45.24097" lon="6.20996">
        <ele>2273.2</ele>
        <time>2021-02-27T14:20:38Z</time>
      </trkpt>
      <trkpt lat="45.24097" lon="6.20996">
        <ele>2273.4</ele>
        <time>2021-02-27T14:20:39Z</time>
      </trkpt>
      <trkpt lat="45.24099" lon="6.20999">
        <ele>2273.4</ele>
        <time>2021-02-27T14:20:40Z</time>
      </trkpt>
      <trkpt lat="45.24099" lon="6.20999">
        <ele>2273.6</ele>
        <time>2021-02-27T14:20:41Z</time>
      </trkpt>
      <trkpt lat="45.24099" lon="6.20999">
        <ele>2273.8</ele>
        <time>2021-02-27T14:20:42Z</time>
      </trkpt>
      <trkpt lat="45.241" lon="6.21002">
        <ele>2274</ele>
        <time>2021-02-27T14:20:43Z</time>
      </trkpt>
      <trkpt lat="45.241" lon="6.21002">
        <ele>2274</ele>
        <time>2021-02-27T14:20:44Z</time>
      </trkpt>
      <trkpt lat="45.24101" lon="6.21004">
        <ele>2274.4</ele>
        <time>2021-02-27T14:20:45Z</time>
      </trkpt>
      <trkpt lat="45.24101" lon="6.21004">
        <ele>2274.2</ele>
        <time>2021-02-27T14:20:46Z</time>
      </trkpt>
      <trkpt lat="45.24101" lon="6.21004">
        <ele>2274</ele>
        <time>2021-02-27T14:20:47Z</time>
      </trkpt>
      <trkpt lat="45.24103" lon="6.21006">
        <ele>2274.6</ele>
        <time>2021-02-27T14:20:48Z</time>
      </trkpt>
      <trkpt lat="45.24103" lon="6.21006">
        <ele>2274.8</ele>
        <time>2021-02-27T14:20:49Z</time>
      </trkpt>
      <trkpt lat="45.24103" lon="6.21006">
        <ele>2274.8</ele>
        <time>2021-02-27T14:20:50Z</time>
      </trkpt>
      <trkpt lat="45.24104" lon="6.21009">
        <ele>2275</ele>
        <time>2021-02-27T14:20:51Z</time>
      </trkpt>
      <trkpt lat="45.24104" lon="6.21009">
        <ele>2275</ele>
        <time>2021-02-27T14:20:52Z</time>
      </trkpt>
      <trkpt lat="45.24104" lon="6.21009">
        <ele>2275.4</ele>
        <time>2021-02-27T14:20:53Z</time>
      </trkpt>
      <trkpt lat="45.24106" lon="6.21011">
        <ele>2275.6</ele>
        <time>2021-02-27T14:20:54Z</time>
      </trkpt>
      <trkpt lat="45.24106" lon="6.21011">
        <ele>2276</ele>
        <time>2021-02-27T14:20:55Z</time>
      </trkpt>
      <trkpt lat="45.24106" lon="6.21011">
        <ele>2276</ele>
        <time>2021-02-27T14:20:56Z</time>
      </trkpt>
      <trkpt lat="45.24107" lon="6.21014">
        <ele>2276.2</ele>
        <time>2021-02-27T14:20:57Z</time>
      </trkpt>
      <trkpt lat="45.24107" lon="6.21014">
        <ele>2276</ele>
        <time>2021-02-27T14:20:58Z</time>
      </trkpt>
      <trkpt lat="45.24107" lon="6.21014">
        <ele>2276.2</ele>
        <time>2021-02-27T14:20:59Z</time>
      </trkpt>
      <trkpt lat="45.24108" lon="6.21017">
        <ele>2276.2</ele>
        <time>2021-02-27T14:21:00Z</time>
      </trkpt>
      <trkpt lat="45.24108" lon="6.21017">
        <ele>2276.2</ele>
        <time>2021-02-27T14:21:01Z</time>
      </trkpt>
      <trkpt lat="45.24108" lon="6.21017">
        <ele>2276.6</ele>
        <time>2021-02-27T14:21:02Z</time>
      </trkpt>
      <trkpt lat="45.2411" lon="6.2102">
        <ele>2276.6</ele>
        <time>2021-02-27T14:21:03Z</time>
      </trkpt>
      <trkpt lat="45.2411" lon="6.2102">
        <ele>2276.8</ele>
        <time>2021-02-27T14:21:04Z</time>
      </trkpt>
      <trkpt lat="45.2411" lon="6.2102">
        <ele>2277.2</ele>
        <time>2021-02-27T14:21:05Z</time>
      </trkpt>
      <trkpt lat="45.24111" lon="6.21022">
        <ele>2277.2</ele>
        <time>2021-02-27T14:21:06Z</time>
      </trkpt>
      <trkpt lat="45.24111" lon="6.21022">
        <ele>2277.4</ele>
        <time>2021-02-27T14:21:07Z</time>
      </trkpt>
      <trkpt lat="45.24112" lon="6.21024">
        <ele>2277.6</ele>
        <time>2021-02-27T14:21:08Z</time>
      </trkpt>
      <trkpt lat="45.24112" lon="6.21024">
        <ele>2277.8</ele>
        <time>2021-02-27T14:21:09Z</time>
      </trkpt>
      <trkpt lat="45.24112" lon="6.21024">
        <ele>2278</ele>
        <time>2021-02-27T14:21:10Z</time>
      </trkpt>
      <trkpt lat="45.24114" lon="6.21027">
        <ele>2278.2</ele>
        <time>2021-02-27T14:21:11Z</time>
      </trkpt>
      <trkpt lat="45.24114" lon="6.21027">
        <ele>2278.2</ele>
        <time>2021-02-27T14:21:12Z</time>
      </trkpt>
      <trkpt lat="45.24114" lon="6.21027">
        <ele>2278.2</ele>
        <time>2021-02-27T14:21:13Z</time>
      </trkpt>
      <trkpt lat="45.24116" lon="6.21029">
        <ele>2278.6</ele>
        <time>2021-02-27T14:21:14Z</time>
      </trkpt>
      <trkpt lat="45.24116" lon="6.21029">
        <ele>2278.8</ele>
        <time>2021-02-27T14:21:15Z</time>
      </trkpt>
      <trkpt lat="45.24118" lon="6.21031">
        <ele>2278.8</ele>
        <time>2021-02-27T14:21:16Z</time>
      </trkpt>
      <trkpt lat="45.24118" lon="6.21031">
        <ele>2278.6</ele>
        <time>2021-02-27T14:21:18Z</time>
      </trkpt>
      <trkpt lat="45.2412" lon="6.21034">
        <ele>2278.6</ele>
        <time>2021-02-27T14:21:19Z</time>
      </trkpt>
      <trkpt lat="45.2412" lon="6.21034">
        <ele>2279</ele>
        <time>2021-02-27T14:21:20Z</time>
      </trkpt>
      <trkpt lat="45.24122" lon="6.21036">
        <ele>2279.2</ele>
        <time>2021-02-27T14:21:21Z</time>
      </trkpt>
      <trkpt lat="45.24122" lon="6.21036">
        <ele>2279.4</ele>
        <time>2021-02-27T14:21:22Z</time>
      </trkpt>
      <trkpt lat="45.24123" lon="6.21038">
        <ele>2279.8</ele>
        <time>2021-02-27T14:21:23Z</time>
      </trkpt>
      <trkpt lat="45.24123" lon="6.21038">
        <ele>2279.8</ele>
        <time>2021-02-27T14:21:24Z</time>
      </trkpt>
      <trkpt lat="45.24123" lon="6.21038">
        <ele>2279.8</ele>
        <time>2021-02-27T14:21:25Z</time>
      </trkpt>
      <trkpt lat="45.24125" lon="6.21041">
        <ele>2279.8</ele>
        <time>2021-02-27T14:21:26Z</time>
      </trkpt>
      <trkpt lat="45.24125" lon="6.21041">
        <ele>2280</ele>
        <time>2021-02-27T14:21:27Z</time>
      </trkpt>
      <trkpt lat="45.24125" lon="6.21041">
        <ele>2280</ele>
        <time>2021-02-27T14:21:28Z</time>
      </trkpt>
      <trkpt lat="45.24127" lon="6.21044">
        <ele>2279.8</ele>
        <time>2021-02-27T14:21:29Z</time>
      </trkpt>
      <trkpt lat="45.24127" lon="6.21044">
        <ele>2280</ele>
        <time>2021-02-27T14:21:30Z</time>
      </trkpt>
      <trkpt lat="45.24128" lon="6.21046">
        <ele>2280.2</ele>
        <time>2021-02-27T14:21:31Z</time>
      </trkpt>
      <trkpt lat="45.24128" lon="6.21046">
        <ele>2280.6</ele>
        <time>2021-02-27T14:21:32Z</time>
      </trkpt>
      <trkpt lat="45.2413" lon="6.21048">
        <ele>2280.6</ele>
        <time>2021-02-27T14:21:33Z</time>
      </trkpt>
      <trkpt lat="45.2413" lon="6.21048">
        <ele>2280.6</ele>
        <time>2021-02-27T14:21:34Z</time>
      </trkpt>
      <trkpt lat="45.2413" lon="6.21049">
        <ele>2280.6</ele>
        <time>2021-02-27T14:21:35Z</time>
      </trkpt>
      <trkpt lat="45.24131" lon="6.21049">
        <ele>2280.8</ele>
        <time>2021-02-27T14:21:36Z</time>
      </trkpt>
      <trkpt lat="45.24131" lon="6.2105">
        <ele>2280.8</ele>
        <time>2021-02-27T14:21:37Z</time>
      </trkpt>
      <trkpt lat="45.24132" lon="6.21051">
        <ele>2281.2</ele>
        <time>2021-02-27T14:21:38Z</time>
      </trkpt>
      <trkpt lat="45.24132" lon="6.21052">
        <ele>2281.2</ele>
        <time>2021-02-27T14:21:39Z</time>
      </trkpt>
      <trkpt lat="45.24133" lon="6.21053">
        <ele>2281.6</ele>
        <time>2021-02-27T14:21:40Z</time>
      </trkpt>
      <trkpt lat="45.24134" lon="6.21054">
        <ele>2281.6</ele>
        <time>2021-02-27T14:21:41Z</time>
      </trkpt>
      <trkpt lat="45.24134" lon="6.21054">
        <ele>2282</ele>
        <time>2021-02-27T14:21:42Z</time>
      </trkpt>
      <trkpt lat="45.24134" lon="6.21054">
        <ele>2282.2</ele>
        <time>2021-02-27T14:21:43Z</time>
      </trkpt>
      <trkpt lat="45.24135" lon="6.21057">
        <ele>2282.4</ele>
        <time>2021-02-27T14:21:44Z</time>
      </trkpt>
      <trkpt lat="45.24135" lon="6.21057">
        <ele>2282.6</ele>
        <time>2021-02-27T14:21:45Z</time>
      </trkpt>
      <trkpt lat="45.24135" lon="6.21057">
        <ele>2282.4</ele>
        <time>2021-02-27T14:21:46Z</time>
      </trkpt>
      <trkpt lat="45.24137" lon="6.21059">
        <ele>2282.8</ele>
        <time>2021-02-27T14:21:47Z</time>
      </trkpt>
      <trkpt lat="45.24137" lon="6.21059">
        <ele>2283</ele>
        <time>2021-02-27T14:21:48Z</time>
      </trkpt>
      <trkpt lat="45.24137" lon="6.21059">
        <ele>2283</ele>
        <time>2021-02-27T14:21:49Z</time>
      </trkpt>
      <trkpt lat="45.24139" lon="6.21061">
        <ele>2283.2</ele>
        <time>2021-02-27T14:21:50Z</time>
      </trkpt>
      <trkpt lat="45.24139" lon="6.21061">
        <ele>2283.2</ele>
        <time>2021-02-27T14:21:51Z</time>
      </trkpt>
      <trkpt lat="45.24141" lon="6.21062">
        <ele>2283.2</ele>
        <time>2021-02-27T14:21:52Z</time>
      </trkpt>
      <trkpt lat="45.24141" lon="6.21062">
        <ele>2283.4</ele>
        <time>2021-02-27T14:21:53Z</time>
      </trkpt>
      <trkpt lat="45.24143" lon="6.21064">
        <ele>2283.8</ele>
        <time>2021-02-27T14:21:54Z</time>
      </trkpt>
      <trkpt lat="45.24143" lon="6.21064">
        <ele>2284</ele>
        <time>2021-02-27T14:21:55Z</time>
      </trkpt>
      <trkpt lat="45.24145" lon="6.21066">
        <ele>2284.2</ele>
        <time>2021-02-27T14:21:56Z</time>
      </trkpt>
      <trkpt lat="45.24145" lon="6.21066">
        <ele>2284.2</ele>
        <time>2021-02-27T14:21:57Z</time>
      </trkpt>
      <trkpt lat="45.24146" lon="6.21068">
        <ele>2284.2</ele>
        <time>2021-02-27T14:21:58Z</time>
      </trkpt>
      <trkpt lat="45.24146" lon="6.21068">
        <ele>2284.2</ele>
        <time>2021-02-27T14:21:59Z</time>
      </trkpt>
      <trkpt lat="45.24148" lon="6.2107">
        <ele>2284.4</ele>
        <time>2021-02-27T14:22:00Z</time>
      </trkpt>
      <trkpt lat="45.24148" lon="6.2107">
        <ele>2284.4</ele>
        <time>2021-02-27T14:22:01Z</time>
      </trkpt>
      <trkpt lat="45.2415" lon="6.21071">
        <ele>2284.6</ele>
        <time>2021-02-27T14:22:02Z</time>
      </trkpt>
      <trkpt lat="45.2415" lon="6.21071">
        <ele>2284.8</ele>
        <time>2021-02-27T14:22:03Z</time>
      </trkpt>
      <trkpt lat="45.24151" lon="6.21072">
        <ele>2285</ele>
        <time>2021-02-27T14:22:04Z</time>
      </trkpt>
      <trkpt lat="45.24152" lon="6.21073">
        <ele>2285.2</ele>
        <time>2021-02-27T14:22:05Z</time>
      </trkpt>
      <trkpt lat="45.24152" lon="6.21074">
        <ele>2285.4</ele>
        <time>2021-02-27T14:22:06Z</time>
      </trkpt>
      <trkpt lat="45.24153" lon="6.21075">
        <ele>2285.6</ele>
        <time>2021-02-27T14:22:07Z</time>
      </trkpt>
      <trkpt lat="45.24154" lon="6.21076">
        <ele>2285.8</ele>
        <time>2021-02-27T14:22:08Z</time>
      </trkpt>
      <trkpt lat="45.24154" lon="6.21076">
        <ele>2285.6</ele>
        <time>2021-02-27T14:22:09Z</time>
      </trkpt>
      <trkpt lat="45.24155" lon="6.21077">
        <ele>2286</ele>
        <time>2021-02-27T14:22:10Z</time>
      </trkpt>
      <trkpt lat="45.24156" lon="6.21078">
        <ele>2286</ele>
        <time>2021-02-27T14:22:11Z</time>
      </trkpt>
      <trkpt lat="45.24156" lon="6.21079">
        <ele>2286.6</ele>
        <time>2021-02-27T14:22:12Z</time>
      </trkpt>
      <trkpt lat="45.24156" lon="6.21079">
        <ele>2286.6</ele>
        <time>2021-02-27T14:22:13Z</time>
      </trkpt>
      <trkpt lat="45.24158" lon="6.21082">
        <ele>2286.6</ele>
        <time>2021-02-27T14:22:14Z</time>
      </trkpt>
      <trkpt lat="45.24158" lon="6.21082">
        <ele>2286.8</ele>
        <time>2021-02-27T14:22:15Z</time>
      </trkpt>
      <trkpt lat="45.2416" lon="6.21083">
        <ele>2287.2</ele>
        <time>2021-02-27T14:22:16Z</time>
      </trkpt>
      <trkpt lat="45.2416" lon="6.21083">
        <ele>2287.2</ele>
        <time>2021-02-27T14:22:17Z</time>
      </trkpt>
      <trkpt lat="45.24162" lon="6.21085">
        <ele>2287.4</ele>
        <time>2021-02-27T14:22:18Z</time>
      </trkpt>
      <trkpt lat="45.24162" lon="6.21085">
        <ele>2287.8</ele>
        <time>2021-02-27T14:22:19Z</time>
      </trkpt>
      <trkpt lat="45.24162" lon="6.21085">
        <ele>2287.8</ele>
        <time>2021-02-27T14:22:20Z</time>
      </trkpt>
      <trkpt lat="45.24164" lon="6.21088">
        <ele>2288</ele>
        <time>2021-02-27T14:22:21Z</time>
      </trkpt>
      <trkpt lat="45.24164" lon="6.21088">
        <ele>2288</ele>
        <time>2021-02-27T14:22:22Z</time>
      </trkpt>
      <trkpt lat="45.24164" lon="6.21088">
        <ele>2288.2</ele>
        <time>2021-02-27T14:22:23Z</time>
      </trkpt>
      <trkpt lat="45.24166" lon="6.21089">
        <ele>2288.4</ele>
        <time>2021-02-27T14:22:24Z</time>
      </trkpt>
      <trkpt lat="45.24166" lon="6.21089">
        <ele>2288.2</ele>
        <time>2021-02-27T14:22:25Z</time>
      </trkpt>
      <trkpt lat="45.24168" lon="6.2109">
        <ele>2288.4</ele>
        <time>2021-02-27T14:22:26Z</time>
      </trkpt>
      <trkpt lat="45.24168" lon="6.2109">
        <ele>2288.6</ele>
        <time>2021-02-27T14:22:27Z</time>
      </trkpt>
      <trkpt lat="45.24168" lon="6.2109">
        <ele>2288.6</ele>
        <time>2021-02-27T14:22:28Z</time>
      </trkpt>
      <trkpt lat="45.2417" lon="6.21092">
        <ele>2288.8</ele>
        <time>2021-02-27T14:22:29Z</time>
      </trkpt>
      <trkpt lat="45.2417" lon="6.21092">
        <ele>2288.8</ele>
        <time>2021-02-27T14:22:30Z</time>
      </trkpt>
      <trkpt lat="45.24171" lon="6.21093">
        <ele>2289</ele>
        <time>2021-02-27T14:22:31Z</time>
      </trkpt>
      <trkpt lat="45.24171" lon="6.21093">
        <ele>2289</ele>
        <time>2021-02-27T14:22:32Z</time>
      </trkpt>
      <trkpt lat="45.24171" lon="6.21093">
        <ele>2289.2</ele>
        <time>2021-02-27T14:22:33Z</time>
      </trkpt>
      <trkpt lat="45.24171" lon="6.21093">
        <ele>2289.4</ele>
        <time>2021-02-27T14:22:34Z</time>
      </trkpt>
      <trkpt lat="45.24171" lon="6.21093">
        <ele>2289.8</ele>
        <time>2021-02-27T14:22:35Z</time>
      </trkpt>
      <trkpt lat="45.24174" lon="6.21095">
        <ele>2289.8</ele>
        <time>2021-02-27T14:22:36Z</time>
      </trkpt>
      <trkpt lat="45.24174" lon="6.21095">
        <ele>2290</ele>
        <time>2021-02-27T14:22:37Z</time>
      </trkpt>
      <trkpt lat="45.24174" lon="6.21095">
        <ele>2290</ele>
        <time>2021-02-27T14:22:38Z</time>
      </trkpt>
      <trkpt lat="45.24174" lon="6.21095">
        <ele>2290</ele>
        <time>2021-02-27T14:22:39Z</time>
      </trkpt>
      <trkpt lat="45.24173" lon="6.21098">
        <ele>2290.2</ele>
        <time>2021-02-27T14:22:40Z</time>
      </trkpt>
      <trkpt lat="45.24173" lon="6.21098">
        <ele>2290.4</ele>
        <time>2021-02-27T14:22:41Z</time>
      </trkpt>
      <trkpt lat="45.24171" lon="6.21099">
        <ele>2290.8</ele>
        <time>2021-02-27T14:22:42Z</time>
      </trkpt>
      <trkpt lat="45.24171" lon="6.21099">
        <ele>2291.2</ele>
        <time>2021-02-27T14:22:43Z</time>
      </trkpt>
      <trkpt lat="45.24169" lon="6.21099">
        <ele>2291.4</ele>
        <time>2021-02-27T14:22:44Z</time>
      </trkpt>
      <trkpt lat="45.24169" lon="6.21099">
        <ele>2291.2</ele>
        <time>2021-02-27T14:22:45Z</time>
      </trkpt>
      <trkpt lat="45.24168" lon="6.211">
        <ele>2291.4</ele>
        <time>2021-02-27T14:22:46Z</time>
      </trkpt>
      <trkpt lat="45.24167" lon="6.211">
        <ele>2291.8</ele>
        <time>2021-02-27T14:22:47Z</time>
      </trkpt>
      <trkpt lat="45.24166" lon="6.21101">
        <ele>2291.8</ele>
        <time>2021-02-27T14:22:48Z</time>
      </trkpt>
      <trkpt lat="45.24164" lon="6.21101">
        <ele>2292.4</ele>
        <time>2021-02-27T14:22:49Z</time>
      </trkpt>
      <trkpt lat="45.24163" lon="6.21102">
        <ele>2292.4</ele>
        <time>2021-02-27T14:22:50Z</time>
      </trkpt>
      <trkpt lat="45.24162" lon="6.21102">
        <ele>2292.6</ele>
        <time>2021-02-27T14:22:51Z</time>
      </trkpt>
      <trkpt lat="45.24161" lon="6.21103">
        <ele>2293.2</ele>
        <time>2021-02-27T14:22:52Z</time>
      </trkpt>
      <trkpt lat="45.24159" lon="6.21103">
        <ele>2293.2</ele>
        <time>2021-02-27T14:22:53Z</time>
      </trkpt>
      <trkpt lat="45.24159" lon="6.21103">
        <ele>2293.2</ele>
        <time>2021-02-27T14:22:54Z</time>
      </trkpt>
      <trkpt lat="45.24158" lon="6.21103">
        <ele>2293.6</ele>
        <time>2021-02-27T14:22:55Z</time>
      </trkpt>
      <trkpt lat="45.24157" lon="6.21103">
        <ele>2293.6</ele>
        <time>2021-02-27T14:22:56Z</time>
      </trkpt>
      <trkpt lat="45.24156" lon="6.21103">
        <ele>2293.6</ele>
        <time>2021-02-27T14:22:57Z</time>
      </trkpt>
      <trkpt lat="45.24156" lon="6.21102">
        <ele>2294</ele>
        <time>2021-02-27T14:22:58Z</time>
      </trkpt>
      <trkpt lat="45.24155" lon="6.21102">
        <ele>2294</ele>
        <time>2021-02-27T14:22:59Z</time>
      </trkpt>
      <trkpt lat="45.24154" lon="6.21102">
        <ele>2294</ele>
        <time>2021-02-27T14:23:00Z</time>
      </trkpt>
      <trkpt lat="45.24153" lon="6.21102">
        <ele>2294.6</ele>
        <time>2021-02-27T14:23:01Z</time>
      </trkpt>
      <trkpt lat="45.24153" lon="6.21102">
        <ele>2295</ele>
        <time>2021-02-27T14:23:02Z</time>
      </trkpt>
      <trkpt lat="45.24152" lon="6.21102">
        <ele>2295</ele>
        <time>2021-02-27T14:23:03Z</time>
      </trkpt>
      <trkpt lat="45.24151" lon="6.21102">
        <ele>2295.2</ele>
        <time>2021-02-27T14:23:04Z</time>
      </trkpt>
      <trkpt lat="45.2415" lon="6.21102">
        <ele>2295.4</ele>
        <time>2021-02-27T14:23:05Z</time>
      </trkpt>
      <trkpt lat="45.2415" lon="6.21102">
        <ele>2295.8</ele>
        <time>2021-02-27T14:23:06Z</time>
      </trkpt>
      <trkpt lat="45.24149" lon="6.21102">
        <ele>2296.2</ele>
        <time>2021-02-27T14:23:07Z</time>
      </trkpt>
      <trkpt lat="45.24148" lon="6.21102">
        <ele>2296</ele>
        <time>2021-02-27T14:23:08Z</time>
      </trkpt>
      <trkpt lat="45.24147" lon="6.21102">
        <ele>2296.6</ele>
        <time>2021-02-27T14:23:09Z</time>
      </trkpt>
      <trkpt lat="45.24146" lon="6.21102">
        <ele>2296.8</ele>
        <time>2021-02-27T14:23:10Z</time>
      </trkpt>
      <trkpt lat="45.24146" lon="6.21103">
        <ele>2296.8</ele>
        <time>2021-02-27T14:23:11Z</time>
      </trkpt>
      <trkpt lat="45.24145" lon="6.21103">
        <ele>2297.4</ele>
        <time>2021-02-27T14:23:12Z</time>
      </trkpt>
      <trkpt lat="45.24144" lon="6.21103">
        <ele>2297.4</ele>
        <time>2021-02-27T14:23:13Z</time>
      </trkpt>
      <trkpt lat="45.24143" lon="6.21103">
        <ele>2297.2</ele>
        <time>2021-02-27T14:23:14Z</time>
      </trkpt>
      <trkpt lat="45.24142" lon="6.21103">
        <ele>2297.2</ele>
        <time>2021-02-27T14:23:15Z</time>
      </trkpt>
      <trkpt lat="45.24142" lon="6.21104">
        <ele>2297.6</ele>
        <time>2021-02-27T14:23:16Z</time>
      </trkpt>
      <trkpt lat="45.24139" lon="6.21103">
        <ele>2297.4</ele>
        <time>2021-02-27T14:23:17Z</time>
      </trkpt>
      <trkpt lat="45.24139" lon="6.21103">
        <ele>2297.6</ele>
        <time>2021-02-27T14:23:18Z</time>
      </trkpt>
      <trkpt lat="45.24138" lon="6.21103">
        <ele>2298</ele>
        <time>2021-02-27T14:23:19Z</time>
      </trkpt>
      <trkpt lat="45.24137" lon="6.21103">
        <ele>2298.2</ele>
        <time>2021-02-27T14:23:20Z</time>
      </trkpt>
      <trkpt lat="45.24136" lon="6.21103">
        <ele>2298.2</ele>
        <time>2021-02-27T14:23:21Z</time>
      </trkpt>
      <trkpt lat="45.24136" lon="6.21103">
        <ele>2298.6</ele>
        <time>2021-02-27T14:23:22Z</time>
      </trkpt>
      <trkpt lat="45.24135" lon="6.21103">
        <ele>2298.8</ele>
        <time>2021-02-27T14:23:23Z</time>
      </trkpt>
      <trkpt lat="45.24134" lon="6.21103">
        <ele>2298.8</ele>
        <time>2021-02-27T14:23:24Z</time>
      </trkpt>
      <trkpt lat="45.24133" lon="6.21103">
        <ele>2299.2</ele>
        <time>2021-02-27T14:23:25Z</time>
      </trkpt>
      <trkpt lat="45.24133" lon="6.21103">
        <ele>2299.6</ele>
        <time>2021-02-27T14:23:26Z</time>
      </trkpt>
      <trkpt lat="45.24131" lon="6.21102">
        <ele>2300.2</ele>
        <time>2021-02-27T14:23:27Z</time>
      </trkpt>
      <trkpt lat="45.24131" lon="6.21102">
        <ele>2300</ele>
        <time>2021-02-27T14:23:28Z</time>
      </trkpt>
      <trkpt lat="45.24131" lon="6.21102">
        <ele>2300</ele>
        <time>2021-02-27T14:23:29Z</time>
      </trkpt>
      <trkpt lat="45.24129" lon="6.21101">
        <ele>2300</ele>
        <time>2021-02-27T14:23:30Z</time>
      </trkpt>
      <trkpt lat="45.24129" lon="6.21101">
        <ele>2300.2</ele>
        <time>2021-02-27T14:23:31Z</time>
      </trkpt>
      <trkpt lat="45.24129" lon="6.21101">
        <ele>2300.2</ele>
        <time>2021-02-27T14:23:32Z</time>
      </trkpt>
      <trkpt lat="45.24129" lon="6.21101">
        <ele>2300.6</ele>
        <time>2021-02-27T14:23:33Z</time>
      </trkpt>
      <trkpt lat="45.24126" lon="6.211">
        <ele>2300.8</ele>
        <time>2021-02-27T14:23:34Z</time>
      </trkpt>
      <trkpt lat="45.24126" lon="6.211">
        <ele>2300.4</ele>
        <time>2021-02-27T14:23:35Z</time>
      </trkpt>
      <trkpt lat="45.24126" lon="6.211">
        <ele>2301.4</ele>
        <time>2021-02-27T14:23:37Z</time>
      </trkpt>
      <trkpt lat="45.24126" lon="6.211">
        <ele>2301.2</ele>
        <time>2021-02-27T14:23:38Z</time>
      </trkpt>
      <trkpt lat="45.24124" lon="6.211">
        <ele>2301.2</ele>
        <time>2021-02-27T14:23:39Z</time>
      </trkpt>
      <trkpt lat="45.24124" lon="6.211">
        <ele>2301.8</ele>
        <time>2021-02-27T14:23:40Z</time>
      </trkpt>
      <trkpt lat="45.24124" lon="6.211">
        <ele>2302.2</ele>
        <time>2021-02-27T14:23:41Z</time>
      </trkpt>
      <trkpt lat="45.24124" lon="6.211">
        <ele>2302.2</ele>
        <time>2021-02-27T14:23:42Z</time>
      </trkpt>
      <trkpt lat="45.24122" lon="6.21101">
        <ele>2301.8</ele>
        <time>2021-02-27T14:23:43Z</time>
      </trkpt>
      <trkpt lat="45.24122" lon="6.21101">
        <ele>2301.8</ele>
        <time>2021-02-27T14:23:44Z</time>
      </trkpt>
      <trkpt lat="45.24122" lon="6.21101">
        <ele>2302</ele>
        <time>2021-02-27T14:23:45Z</time>
      </trkpt>
      <trkpt lat="45.24122" lon="6.21101">
        <ele>2302.2</ele>
        <time>2021-02-27T14:23:46Z</time>
      </trkpt>
      <trkpt lat="45.24122" lon="6.21101">
        <ele>2302.2</ele>
        <time>2021-02-27T14:23:47Z</time>
      </trkpt>
      <trkpt lat="45.24122" lon="6.21101">
        <ele>2302.4</ele>
        <time>2021-02-27T14:23:48Z</time>
      </trkpt>
      <trkpt lat="45.24122" lon="6.21101">
        <ele>2302.4</ele>
        <time>2021-02-27T14:23:49Z</time>
      </trkpt>
      <trkpt lat="45.24122" lon="6.21101">
        <ele>2302.4</ele>
        <time>2021-02-27T14:23:50Z</time>
      </trkpt>
      <trkpt lat="45.24122" lon="6.21103">
        <ele>2302.4</ele>
        <time>2021-02-27T14:23:51Z</time>
      </trkpt>
      <trkpt lat="45.24122" lon="6.21103">
        <ele>2302.8</ele>
        <time>2021-02-27T14:23:52Z</time>
      </trkpt>
      <trkpt lat="45.24124" lon="6.21105">
        <ele>2302.8</ele>
        <time>2021-02-27T14:23:53Z</time>
      </trkpt>
      <trkpt lat="45.24124" lon="6.21105">
        <ele>2303</ele>
        <time>2021-02-27T14:23:54Z</time>
      </trkpt>
      <trkpt lat="45.24125" lon="6.21108">
        <ele>2303.2</ele>
        <time>2021-02-27T14:23:55Z</time>
      </trkpt>
      <trkpt lat="45.24125" lon="6.21108">
        <ele>2303.2</ele>
        <time>2021-02-27T14:23:56Z</time>
      </trkpt>
      <trkpt lat="45.24125" lon="6.21108">
        <ele>2303.6</ele>
        <time>2021-02-27T14:23:57Z</time>
      </trkpt>
      <trkpt lat="45.24126" lon="6.21111">
        <ele>2303.8</ele>
        <time>2021-02-27T14:23:58Z</time>
      </trkpt>
      <trkpt lat="45.24126" lon="6.21111">
        <ele>2304</ele>
        <time>2021-02-27T14:23:59Z</time>
      </trkpt>
      <trkpt lat="45.24126" lon="6.21111">
        <ele>2304</ele>
        <time>2021-02-27T14:24:00Z</time>
      </trkpt>
      <trkpt lat="45.24128" lon="6.21113">
        <ele>2304.4</ele>
        <time>2021-02-27T14:24:01Z</time>
      </trkpt>
      <trkpt lat="45.24128" lon="6.21113">
        <ele>2304.4</ele>
        <time>2021-02-27T14:24:02Z</time>
      </trkpt>
      <trkpt lat="45.24128" lon="6.21113">
        <ele>2304.4</ele>
        <time>2021-02-27T14:24:03Z</time>
      </trkpt>
      <trkpt lat="45.2413" lon="6.21115">
        <ele>2304.6</ele>
        <time>2021-02-27T14:24:04Z</time>
      </trkpt>
      <trkpt lat="45.2413" lon="6.21115">
        <ele>2304.6</ele>
        <time>2021-02-27T14:24:05Z</time>
      </trkpt>
      <trkpt lat="45.24132" lon="6.21117">
        <ele>2304.8</ele>
        <time>2021-02-27T14:24:06Z</time>
      </trkpt>
      <trkpt lat="45.24132" lon="6.21117">
        <ele>2304.8</ele>
        <time>2021-02-27T14:24:07Z</time>
      </trkpt>
      <trkpt lat="45.24133" lon="6.21118">
        <ele>2305</ele>
        <time>2021-02-27T14:24:08Z</time>
      </trkpt>
      <trkpt lat="45.24133" lon="6.21118">
        <ele>2305.4</ele>
        <time>2021-02-27T14:24:09Z</time>
      </trkpt>
      <trkpt lat="45.24135" lon="6.21119">
        <ele>2305.4</ele>
        <time>2021-02-27T14:24:10Z</time>
      </trkpt>
      <trkpt lat="45.24135" lon="6.21119">
        <ele>2305.8</ele>
        <time>2021-02-27T14:24:11Z</time>
      </trkpt>
      <trkpt lat="45.24135" lon="6.21119">
        <ele>2306.2</ele>
        <time>2021-02-27T14:24:12Z</time>
      </trkpt>
      <trkpt lat="45.24137" lon="6.21122">
        <ele>2306.2</ele>
        <time>2021-02-27T14:24:13Z</time>
      </trkpt>
      <trkpt lat="45.24137" lon="6.21122">
        <ele>2306.6</ele>
        <time>2021-02-27T14:24:14Z</time>
      </trkpt>
      <trkpt lat="45.24138" lon="6.21123">
        <ele>2306.6</ele>
        <time>2021-02-27T14:24:15Z</time>
      </trkpt>
      <trkpt lat="45.24138" lon="6.21123">
        <ele>2306.6</ele>
        <time>2021-02-27T14:24:16Z</time>
      </trkpt>
      <trkpt lat="45.2414" lon="6.21125">
        <ele>2306.6</ele>
        <time>2021-02-27T14:24:17Z</time>
      </trkpt>
      <trkpt lat="45.2414" lon="6.21125">
        <ele>2307.2</ele>
        <time>2021-02-27T14:24:18Z</time>
      </trkpt>
      <trkpt lat="45.24141" lon="6.21127">
        <ele>2307</ele>
        <time>2021-02-27T14:24:19Z</time>
      </trkpt>
      <trkpt lat="45.24141" lon="6.21127">
        <ele>2307.4</ele>
        <time>2021-02-27T14:24:20Z</time>
      </trkpt>
      <trkpt lat="45.24143" lon="6.21128">
        <ele>2307.4</ele>
        <time>2021-02-27T14:24:21Z</time>
      </trkpt>
      <trkpt lat="45.24143" lon="6.21128">
        <ele>2307.8</ele>
        <time>2021-02-27T14:24:22Z</time>
      </trkpt>
      <trkpt lat="45.24145" lon="6.2113">
        <ele>2308.2</ele>
        <time>2021-02-27T14:24:23Z</time>
      </trkpt>
      <trkpt lat="45.24145" lon="6.2113">
        <ele>2308.4</ele>
        <time>2021-02-27T14:24:24Z</time>
      </trkpt>
      <trkpt lat="45.24146" lon="6.21131">
        <ele>2308.2</ele>
        <time>2021-02-27T14:24:25Z</time>
      </trkpt>
      <trkpt lat="45.24146" lon="6.21131">
        <ele>2308.6</ele>
        <time>2021-02-27T14:24:26Z</time>
      </trkpt>
      <trkpt lat="45.24146" lon="6.21131">
        <ele>2308.8</ele>
        <time>2021-02-27T14:24:27Z</time>
      </trkpt>
      <trkpt lat="45.24148" lon="6.21133">
        <ele>2309</ele>
        <time>2021-02-27T14:24:28Z</time>
      </trkpt>
      <trkpt lat="45.24148" lon="6.21133">
        <ele>2309.2</ele>
        <time>2021-02-27T14:24:29Z</time>
      </trkpt>
      <trkpt lat="45.24148" lon="6.21133">
        <ele>2309.2</ele>
        <time>2021-02-27T14:24:30Z</time>
      </trkpt>
      <trkpt lat="45.24151" lon="6.21135">
        <ele>2309.4</ele>
        <time>2021-02-27T14:24:31Z</time>
      </trkpt>
      <trkpt lat="45.24151" lon="6.21135">
        <ele>2309.4</ele>
        <time>2021-02-27T14:24:32Z</time>
      </trkpt>
      <trkpt lat="45.24152" lon="6.21136">
        <ele>2309.6</ele>
        <time>2021-02-27T14:24:33Z</time>
      </trkpt>
      <trkpt lat="45.24152" lon="6.21136">
        <ele>2309.6</ele>
        <time>2021-02-27T14:24:34Z</time>
      </trkpt>
      <trkpt lat="45.24154" lon="6.21138">
        <ele>2309.6</ele>
        <time>2021-02-27T14:24:35Z</time>
      </trkpt>
      <trkpt lat="45.24154" lon="6.21138">
        <ele>2309.6</ele>
        <time>2021-02-27T14:24:36Z</time>
      </trkpt>
      <trkpt lat="45.24156" lon="6.21139">
        <ele>2309.8</ele>
        <time>2021-02-27T14:24:37Z</time>
      </trkpt>
      <trkpt lat="45.24156" lon="6.21139">
        <ele>2310</ele>
        <time>2021-02-27T14:24:38Z</time>
      </trkpt>
      <trkpt lat="45.24156" lon="6.21139">
        <ele>2310</ele>
        <time>2021-02-27T14:24:39Z</time>
      </trkpt>
      <trkpt lat="45.24159" lon="6.2114">
        <ele>2310.2</ele>
        <time>2021-02-27T14:24:40Z</time>
      </trkpt>
      <trkpt lat="45.24159" lon="6.2114">
        <ele>2310.8</ele>
        <time>2021-02-27T14:24:41Z</time>
      </trkpt>
      <trkpt lat="45.24162" lon="6.21142">
        <ele>2311</ele>
        <time>2021-02-27T14:24:42Z</time>
      </trkpt>
      <trkpt lat="45.24162" lon="6.21142">
        <ele>2311</ele>
        <time>2021-02-27T14:24:43Z</time>
      </trkpt>
      <trkpt lat="45.24164" lon="6.21144">
        <ele>2311.2</ele>
        <time>2021-02-27T14:24:44Z</time>
      </trkpt>
      <trkpt lat="45.24164" lon="6.21144">
        <ele>2311.2</ele>
        <time>2021-02-27T14:24:45Z</time>
      </trkpt>
      <trkpt lat="45.24166" lon="6.21144">
        <ele>2311.6</ele>
        <time>2021-02-27T14:24:46Z</time>
      </trkpt>
      <trkpt lat="45.24166" lon="6.21144">
        <ele>2311.6</ele>
        <time>2021-02-27T14:24:47Z</time>
      </trkpt>
      <trkpt lat="45.24167" lon="6.21145">
        <ele>2311.8</ele>
        <time>2021-02-27T14:24:48Z</time>
      </trkpt>
      <trkpt lat="45.24167" lon="6.21145">
        <ele>2311.8</ele>
        <time>2021-02-27T14:24:49Z</time>
      </trkpt>
      <trkpt lat="45.24167" lon="6.21145">
        <ele>2312.4</ele>
        <time>2021-02-27T14:24:50Z</time>
      </trkpt>
      <trkpt lat="45.2417" lon="6.21147">
        <ele>2312.4</ele>
        <time>2021-02-27T14:24:51Z</time>
      </trkpt>
      <trkpt lat="45.2417" lon="6.21147">
        <ele>2312.6</ele>
        <time>2021-02-27T14:24:52Z</time>
      </trkpt>
      <trkpt lat="45.2417" lon="6.21147">
        <ele>2312.4</ele>
        <time>2021-02-27T14:24:53Z</time>
      </trkpt>
      <trkpt lat="45.24172" lon="6.21148">
        <ele>2312.8</ele>
        <time>2021-02-27T14:24:54Z</time>
      </trkpt>
      <trkpt lat="45.24172" lon="6.21148">
        <ele>2313</ele>
        <time>2021-02-27T14:24:55Z</time>
      </trkpt>
      <trkpt lat="45.24172" lon="6.21148">
        <ele>2313</ele>
        <time>2021-02-27T14:24:56Z</time>
      </trkpt>
      <trkpt lat="45.24174" lon="6.2115">
        <ele>2313.2</ele>
        <time>2021-02-27T14:24:57Z</time>
      </trkpt>
      <trkpt lat="45.24174" lon="6.2115">
        <ele>2313.4</ele>
        <time>2021-02-27T14:24:58Z</time>
      </trkpt>
      <trkpt lat="45.24174" lon="6.2115">
        <ele>2313.6</ele>
        <time>2021-02-27T14:24:59Z</time>
      </trkpt>
      <trkpt lat="45.24176" lon="6.21152">
        <ele>2313.8</ele>
        <time>2021-02-27T14:25:00Z</time>
      </trkpt>
      <trkpt lat="45.24176" lon="6.21152">
        <ele>2314</ele>
        <time>2021-02-27T14:25:01Z</time>
      </trkpt>
      <trkpt lat="45.24176" lon="6.21152">
        <ele>2314</ele>
        <time>2021-02-27T14:25:02Z</time>
      </trkpt>
      <trkpt lat="45.24178" lon="6.21153">
        <ele>2314.2</ele>
        <time>2021-02-27T14:25:03Z</time>
      </trkpt>
      <trkpt lat="45.24178" lon="6.21153">
        <ele>2314.6</ele>
        <time>2021-02-27T14:25:04Z</time>
      </trkpt>
      <trkpt lat="45.24178" lon="6.21153">
        <ele>2314.8</ele>
        <time>2021-02-27T14:25:05Z</time>
      </trkpt>
      <trkpt lat="45.2418" lon="6.21155">
        <ele>2314.8</ele>
        <time>2021-02-27T14:25:06Z</time>
      </trkpt>
      <trkpt lat="45.2418" lon="6.21155">
        <ele>2315</ele>
        <time>2021-02-27T14:25:07Z</time>
      </trkpt>
      <trkpt lat="45.24182" lon="6.21156">
        <ele>2315.2</ele>
        <time>2021-02-27T14:25:08Z</time>
      </trkpt>
      <trkpt lat="45.24182" lon="6.21156">
        <ele>2315.4</ele>
        <time>2021-02-27T14:25:09Z</time>
      </trkpt>
      <trkpt lat="45.24182" lon="6.21156">
        <ele>2315.6</ele>
        <time>2021-02-27T14:25:10Z</time>
      </trkpt>
      <trkpt lat="45.24184" lon="6.21158">
        <ele>2316</ele>
        <time>2021-02-27T14:25:11Z</time>
      </trkpt>
      <trkpt lat="45.24184" lon="6.21158">
        <ele>2315.8</ele>
        <time>2021-02-27T14:25:12Z</time>
      </trkpt>
      <trkpt lat="45.24184" lon="6.21158">
        <ele>2316</ele>
        <time>2021-02-27T14:25:13Z</time>
      </trkpt>
      <trkpt lat="45.24186" lon="6.2116">
        <ele>2316</ele>
        <time>2021-02-27T14:25:14Z</time>
      </trkpt>
      <trkpt lat="45.24186" lon="6.2116">
        <ele>2316.4</ele>
        <time>2021-02-27T14:25:15Z</time>
      </trkpt>
      <trkpt lat="45.24186" lon="6.2116">
        <ele>2316.4</ele>
        <time>2021-02-27T14:25:16Z</time>
      </trkpt>
      <trkpt lat="45.24188" lon="6.21162">
        <ele>2316.8</ele>
        <time>2021-02-27T14:25:17Z</time>
      </trkpt>
      <trkpt lat="45.24188" lon="6.21162">
        <ele>2317.2</ele>
        <time>2021-02-27T14:25:18Z</time>
      </trkpt>
      <trkpt lat="45.24188" lon="6.21162">
        <ele>2317.4</ele>
        <time>2021-02-27T14:25:19Z</time>
      </trkpt>
      <trkpt lat="45.2419" lon="6.21164">
        <ele>2317.8</ele>
        <time>2021-02-27T14:25:20Z</time>
      </trkpt>
      <trkpt lat="45.2419" lon="6.21164">
        <ele>2317.8</ele>
        <time>2021-02-27T14:25:21Z</time>
      </trkpt>
      <trkpt lat="45.2419" lon="6.21164">
        <ele>2318</ele>
        <time>2021-02-27T14:25:22Z</time>
      </trkpt>
      <trkpt lat="45.24192" lon="6.21167">
        <ele>2318.2</ele>
        <time>2021-02-27T14:25:23Z</time>
      </trkpt>
      <trkpt lat="45.24192" lon="6.21167">
        <ele>2318.4</ele>
        <time>2021-02-27T14:25:24Z</time>
      </trkpt>
      <trkpt lat="45.24193" lon="6.21168">
        <ele>2318.6</ele>
        <time>2021-02-27T14:25:25Z</time>
      </trkpt>
      <trkpt lat="45.24193" lon="6.21168">
        <ele>2318.8</ele>
        <time>2021-02-27T14:25:26Z</time>
      </trkpt>
      <trkpt lat="45.24195" lon="6.21169">
        <ele>2318.8</ele>
        <time>2021-02-27T14:25:27Z</time>
      </trkpt>
      <trkpt lat="45.24195" lon="6.21169">
        <ele>2318.8</ele>
        <time>2021-02-27T14:25:28Z</time>
      </trkpt>
      <trkpt lat="45.24195" lon="6.21169">
        <ele>2318.8</ele>
        <time>2021-02-27T14:25:29Z</time>
      </trkpt>
      <trkpt lat="45.24197" lon="6.21172">
        <ele>2319.2</ele>
        <time>2021-02-27T14:25:30Z</time>
      </trkpt>
      <trkpt lat="45.24197" lon="6.21172">
        <ele>2319.4</ele>
        <time>2021-02-27T14:25:31Z</time>
      </trkpt>
      <trkpt lat="45.24199" lon="6.21173">
        <ele>2319.2</ele>
        <time>2021-02-27T14:25:32Z</time>
      </trkpt>
      <trkpt lat="45.24199" lon="6.21173">
        <ele>2319.4</ele>
        <time>2021-02-27T14:25:33Z</time>
      </trkpt>
      <trkpt lat="45.242" lon="6.21175">
        <ele>2319.6</ele>
        <time>2021-02-27T14:25:34Z</time>
      </trkpt>
      <trkpt lat="45.242" lon="6.21175">
        <ele>2319.8</ele>
        <time>2021-02-27T14:25:35Z</time>
      </trkpt>
      <trkpt lat="45.242" lon="6.21175">
        <ele>2320.2</ele>
        <time>2021-02-27T14:25:36Z</time>
      </trkpt>
      <trkpt lat="45.24202" lon="6.21178">
        <ele>2320.6</ele>
        <time>2021-02-27T14:25:37Z</time>
      </trkpt>
      <trkpt lat="45.24202" lon="6.21178">
        <ele>2320.6</ele>
        <time>2021-02-27T14:25:38Z</time>
      </trkpt>
      <trkpt lat="45.24202" lon="6.21178">
        <ele>2321</ele>
        <time>2021-02-27T14:25:39Z</time>
      </trkpt>
      <trkpt lat="45.24204" lon="6.21181">
        <ele>2321</ele>
        <time>2021-02-27T14:25:40Z</time>
      </trkpt>
      <trkpt lat="45.24204" lon="6.21181">
        <ele>2321.2</ele>
        <time>2021-02-27T14:25:41Z</time>
      </trkpt>
      <trkpt lat="45.24204" lon="6.21181">
        <ele>2321.4</ele>
        <time>2021-02-27T14:25:42Z</time>
      </trkpt>
      <trkpt lat="45.24206" lon="6.21184">
        <ele>2321.6</ele>
        <time>2021-02-27T14:25:43Z</time>
      </trkpt>
      <trkpt lat="45.24206" lon="6.21184">
        <ele>2321.8</ele>
        <time>2021-02-27T14:25:44Z</time>
      </trkpt>
      <trkpt lat="45.24206" lon="6.21184">
        <ele>2321.8</ele>
        <time>2021-02-27T14:25:45Z</time>
      </trkpt>
      <trkpt lat="45.24207" lon="6.21187">
        <ele>2322.2</ele>
        <time>2021-02-27T14:25:46Z</time>
      </trkpt>
      <trkpt lat="45.24207" lon="6.21187">
        <ele>2322.4</ele>
        <time>2021-02-27T14:25:47Z</time>
      </trkpt>
      <trkpt lat="45.24207" lon="6.21187">
        <ele>2322.6</ele>
        <time>2021-02-27T14:25:48Z</time>
      </trkpt>
      <trkpt lat="45.24209" lon="6.21189">
        <ele>2323</ele>
        <time>2021-02-27T14:25:49Z</time>
      </trkpt>
      <trkpt lat="45.24209" lon="6.21189">
        <ele>2323</ele>
        <time>2021-02-27T14:25:50Z</time>
      </trkpt>
      <trkpt lat="45.24209" lon="6.21189">
        <ele>2323.2</ele>
        <time>2021-02-27T14:25:51Z</time>
      </trkpt>
      <trkpt lat="45.24211" lon="6.21191">
        <ele>2323.6</ele>
        <time>2021-02-27T14:25:52Z</time>
      </trkpt>
      <trkpt lat="45.24211" lon="6.21191">
        <ele>2323.8</ele>
        <time>2021-02-27T14:25:53Z</time>
      </trkpt>
      <trkpt lat="45.24214" lon="6.21193">
        <ele>2323.8</ele>
        <time>2021-02-27T14:25:54Z</time>
      </trkpt>
      <trkpt lat="45.24214" lon="6.21193">
        <ele>2324</ele>
        <time>2021-02-27T14:25:55Z</time>
      </trkpt>
      <trkpt lat="45.24217" lon="6.21194">
        <ele>2324.4</ele>
        <time>2021-02-27T14:25:56Z</time>
      </trkpt>
      <trkpt lat="45.24217" lon="6.21194">
        <ele>2324.6</ele>
        <time>2021-02-27T14:25:57Z</time>
      </trkpt>
      <trkpt lat="45.24218" lon="6.21195">
        <ele>2325.2</ele>
        <time>2021-02-27T14:25:58Z</time>
      </trkpt>
      <trkpt lat="45.24218" lon="6.21195">
        <ele>2325.4</ele>
        <time>2021-02-27T14:25:59Z</time>
      </trkpt>
      <trkpt lat="45.24218" lon="6.21195">
        <ele>2325.6</ele>
        <time>2021-02-27T14:26:00Z</time>
      </trkpt>
      <trkpt lat="45.2422" lon="6.21197">
        <ele>2326</ele>
        <time>2021-02-27T14:26:01Z</time>
      </trkpt>
      <trkpt lat="45.2422" lon="6.21197">
        <ele>2326.2</ele>
        <time>2021-02-27T14:26:02Z</time>
      </trkpt>
      <trkpt lat="45.2422" lon="6.21197">
        <ele>2326.4</ele>
        <time>2021-02-27T14:26:03Z</time>
      </trkpt>
      <trkpt lat="45.24222" lon="6.21199">
        <ele>2326.4</ele>
        <time>2021-02-27T14:26:04Z</time>
      </trkpt>
      <trkpt lat="45.24222" lon="6.21199">
        <ele>2326.8</ele>
        <time>2021-02-27T14:26:05Z</time>
      </trkpt>
      <trkpt lat="45.24224" lon="6.21201">
        <ele>2327</ele>
        <time>2021-02-27T14:26:06Z</time>
      </trkpt>
      <trkpt lat="45.24224" lon="6.21201">
        <ele>2327</ele>
        <time>2021-02-27T14:26:07Z</time>
      </trkpt>
      <trkpt lat="45.24224" lon="6.21201">
        <ele>2327.2</ele>
        <time>2021-02-27T14:26:08Z</time>
      </trkpt>
      <trkpt lat="45.24226" lon="6.21202">
        <ele>2327.6</ele>
        <time>2021-02-27T14:26:09Z</time>
      </trkpt>
      <trkpt lat="45.24226" lon="6.21202">
        <ele>2327.8</ele>
        <time>2021-02-27T14:26:10Z</time>
      </trkpt>
      <trkpt lat="45.24226" lon="6.21202">
        <ele>2328.2</ele>
        <time>2021-02-27T14:26:11Z</time>
      </trkpt>
      <trkpt lat="45.24227" lon="6.21203">
        <ele>2328.2</ele>
        <time>2021-02-27T14:26:12Z</time>
      </trkpt>
      <trkpt lat="45.24227" lon="6.21203">
        <ele>2328</ele>
        <time>2021-02-27T14:26:13Z</time>
      </trkpt>
      <trkpt lat="45.24228" lon="6.21204">
        <ele>2328.2</ele>
        <time>2021-02-27T14:26:14Z</time>
      </trkpt>
      <trkpt lat="45.24228" lon="6.21205">
        <ele>2328.6</ele>
        <time>2021-02-27T14:26:15Z</time>
      </trkpt>
      <trkpt lat="45.24229" lon="6.21205">
        <ele>2329</ele>
        <time>2021-02-27T14:26:16Z</time>
      </trkpt>
      <trkpt lat="45.24229" lon="6.21206">
        <ele>2329.2</ele>
        <time>2021-02-27T14:26:17Z</time>
      </trkpt>
      <trkpt lat="45.2423" lon="6.21206">
        <ele>2329.2</ele>
        <time>2021-02-27T14:26:18Z</time>
      </trkpt>
      <trkpt lat="45.2423" lon="6.21207">
        <ele>2329.2</ele>
        <time>2021-02-27T14:26:19Z</time>
      </trkpt>
      <trkpt lat="45.24231" lon="6.21208">
        <ele>2329.8</ele>
        <time>2021-02-27T14:26:20Z</time>
      </trkpt>
      <trkpt lat="45.24231" lon="6.21208">
        <ele>2330.2</ele>
        <time>2021-02-27T14:26:21Z</time>
      </trkpt>
      <trkpt lat="45.24232" lon="6.21209">
        <ele>2330.4</ele>
        <time>2021-02-27T14:26:22Z</time>
      </trkpt>
      <trkpt lat="45.24232" lon="6.21209">
        <ele>2330.4</ele>
        <time>2021-02-27T14:26:23Z</time>
      </trkpt>
      <trkpt lat="45.24232" lon="6.21212">
        <ele>2330.4</ele>
        <time>2021-02-27T14:26:24Z</time>
      </trkpt>
      <trkpt lat="45.24232" lon="6.21212">
        <ele>2330.8</ele>
        <time>2021-02-27T14:26:25Z</time>
      </trkpt>
      <trkpt lat="45.24233" lon="6.21213">
        <ele>2331</ele>
        <time>2021-02-27T14:26:26Z</time>
      </trkpt>
      <trkpt lat="45.24233" lon="6.21214">
        <ele>2331.2</ele>
        <time>2021-02-27T14:26:27Z</time>
      </trkpt>
      <trkpt lat="45.24234" lon="6.21215">
        <ele>2331.6</ele>
        <time>2021-02-27T14:26:28Z</time>
      </trkpt>
      <trkpt lat="45.24234" lon="6.21216">
        <ele>2331.8</ele>
        <time>2021-02-27T14:26:29Z</time>
      </trkpt>
      <trkpt lat="45.24234" lon="6.21217">
        <ele>2331.8</ele>
        <time>2021-02-27T14:26:30Z</time>
      </trkpt>
      <trkpt lat="45.24235" lon="6.21218">
        <ele>2332.2</ele>
        <time>2021-02-27T14:26:31Z</time>
      </trkpt>
      <trkpt lat="45.24235" lon="6.21219">
        <ele>2332.4</ele>
        <time>2021-02-27T14:26:32Z</time>
      </trkpt>
      <trkpt lat="45.24235" lon="6.21221">
        <ele>2332.8</ele>
        <time>2021-02-27T14:26:33Z</time>
      </trkpt>
      <trkpt lat="45.24235" lon="6.21221">
        <ele>2333</ele>
        <time>2021-02-27T14:26:34Z</time>
      </trkpt>
      <trkpt lat="45.24235" lon="6.21221">
        <ele>2333.4</ele>
        <time>2021-02-27T14:26:35Z</time>
      </trkpt>
      <trkpt lat="45.24236" lon="6.21225">
        <ele>2333.6</ele>
        <time>2021-02-27T14:26:36Z</time>
      </trkpt>
      <trkpt lat="45.24236" lon="6.21225">
        <ele>2333.6</ele>
        <time>2021-02-27T14:26:37Z</time>
      </trkpt>
      <trkpt lat="45.24236" lon="6.21225">
        <ele>2333.6</ele>
        <time>2021-02-27T14:26:38Z</time>
      </trkpt>
      <trkpt lat="45.24237" lon="6.21228">
        <ele>2333.8</ele>
        <time>2021-02-27T14:26:39Z</time>
      </trkpt>
      <trkpt lat="45.24237" lon="6.21228">
        <ele>2334.2</ele>
        <time>2021-02-27T14:26:40Z</time>
      </trkpt>
      <trkpt lat="45.24237" lon="6.21228">
        <ele>2334.4</ele>
        <time>2021-02-27T14:26:41Z</time>
      </trkpt>
      <trkpt lat="45.24237" lon="6.21231">
        <ele>2334.6</ele>
        <time>2021-02-27T14:26:42Z</time>
      </trkpt>
      <trkpt lat="45.24237" lon="6.21231">
        <ele>2335</ele>
        <time>2021-02-27T14:26:43Z</time>
      </trkpt>
      <trkpt lat="45.24238" lon="6.21234">
        <ele>2335</ele>
        <time>2021-02-27T14:26:44Z</time>
      </trkpt>
      <trkpt lat="45.24238" lon="6.21234">
        <ele>2335</ele>
        <time>2021-02-27T14:26:45Z</time>
      </trkpt>
      <trkpt lat="45.24238" lon="6.21234">
        <ele>2335.6</ele>
        <time>2021-02-27T14:26:46Z</time>
      </trkpt>
      <trkpt lat="45.24238" lon="6.21237">
        <ele>2336</ele>
        <time>2021-02-27T14:26:47Z</time>
      </trkpt>
      <trkpt lat="45.24238" lon="6.21237">
        <ele>2336.2</ele>
        <time>2021-02-27T14:26:48Z</time>
      </trkpt>
      <trkpt lat="45.24238" lon="6.21237">
        <ele>2336.2</ele>
        <time>2021-02-27T14:26:49Z</time>
      </trkpt>
      <trkpt lat="45.24239" lon="6.2124">
        <ele>2336.6</ele>
        <time>2021-02-27T14:26:50Z</time>
      </trkpt>
      <trkpt lat="45.24239" lon="6.2124">
        <ele>2336.8</ele>
        <time>2021-02-27T14:26:51Z</time>
      </trkpt>
      <trkpt lat="45.24239" lon="6.2124">
        <ele>2337.4</ele>
        <time>2021-02-27T14:26:52Z</time>
      </trkpt>
      <trkpt lat="45.2424" lon="6.21243">
        <ele>2337.4</ele>
        <time>2021-02-27T14:26:53Z</time>
      </trkpt>
      <trkpt lat="45.2424" lon="6.21243">
        <ele>2337.4</ele>
        <time>2021-02-27T14:26:54Z</time>
      </trkpt>
      <trkpt lat="45.2424" lon="6.21243">
        <ele>2337.8</ele>
        <time>2021-02-27T14:26:55Z</time>
      </trkpt>
      <trkpt lat="45.2424" lon="6.21246">
        <ele>2338</ele>
        <time>2021-02-27T14:26:56Z</time>
      </trkpt>
      <trkpt lat="45.2424" lon="6.21246">
        <ele>2338.2</ele>
        <time>2021-02-27T14:26:57Z</time>
      </trkpt>
      <trkpt lat="45.2424" lon="6.21246">
        <ele>2338.2</ele>
        <time>2021-02-27T14:26:58Z</time>
      </trkpt>
      <trkpt lat="45.24241" lon="6.21249">
        <ele>2338.6</ele>
        <time>2021-02-27T14:26:59Z</time>
      </trkpt>
      <trkpt lat="45.24241" lon="6.21249">
        <ele>2338.4</ele>
        <time>2021-02-27T14:27:00Z</time>
      </trkpt>
      <trkpt lat="45.24241" lon="6.21249">
        <ele>2338.6</ele>
        <time>2021-02-27T14:27:01Z</time>
      </trkpt>
      <trkpt lat="45.24241" lon="6.21253">
        <ele>2339</ele>
        <time>2021-02-27T14:27:02Z</time>
      </trkpt>
      <trkpt lat="45.24241" lon="6.21253">
        <ele>2339.2</ele>
        <time>2021-02-27T14:27:03Z</time>
      </trkpt>
      <trkpt lat="45.24241" lon="6.21253">
        <ele>2339.6</ele>
        <time>2021-02-27T14:27:04Z</time>
      </trkpt>
      <trkpt lat="45.24242" lon="6.21255">
        <ele>2339.8</ele>
        <time>2021-02-27T14:27:05Z</time>
      </trkpt>
      <trkpt lat="45.24242" lon="6.21255">
        <ele>2339.8</ele>
        <time>2021-02-27T14:27:06Z</time>
      </trkpt>
      <trkpt lat="45.24242" lon="6.21255">
        <ele>2340.2</ele>
        <time>2021-02-27T14:27:07Z</time>
      </trkpt>
      <trkpt lat="45.24243" lon="6.21258">
        <ele>2340.8</ele>
        <time>2021-02-27T14:27:08Z</time>
      </trkpt>
      <trkpt lat="45.24243" lon="6.21258">
        <ele>2341.2</ele>
        <time>2021-02-27T14:27:09Z</time>
      </trkpt>
      <trkpt lat="45.24243" lon="6.21258">
        <ele>2341.4</ele>
        <time>2021-02-27T14:27:10Z</time>
      </trkpt>
      <trkpt lat="45.24244" lon="6.21262">
        <ele>2341.6</ele>
        <time>2021-02-27T14:27:11Z</time>
      </trkpt>
      <trkpt lat="45.24244" lon="6.21262">
        <ele>2341.6</ele>
        <time>2021-02-27T14:27:12Z</time>
      </trkpt>
      <trkpt lat="45.24244" lon="6.21262">
        <ele>2341.8</ele>
        <time>2021-02-27T14:27:13Z</time>
      </trkpt>
      <trkpt lat="45.24244" lon="6.21265">
        <ele>2342.2</ele>
        <time>2021-02-27T14:27:14Z</time>
      </trkpt>
      <trkpt lat="45.24244" lon="6.21265">
        <ele>2342.4</ele>
        <time>2021-02-27T14:27:15Z</time>
      </trkpt>
      <trkpt lat="45.24244" lon="6.21265">
        <ele>2342.8</ele>
        <time>2021-02-27T14:27:16Z</time>
      </trkpt>
      <trkpt lat="45.24244" lon="6.21269">
        <ele>2343</ele>
        <time>2021-02-27T14:27:17Z</time>
      </trkpt>
      <trkpt lat="45.24244" lon="6.21269">
        <ele>2343</ele>
        <time>2021-02-27T14:27:18Z</time>
      </trkpt>
      <trkpt lat="45.24244" lon="6.21269">
        <ele>2343.4</ele>
        <time>2021-02-27T14:27:19Z</time>
      </trkpt>
      <trkpt lat="45.24244" lon="6.21272">
        <ele>2343.6</ele>
        <time>2021-02-27T14:27:20Z</time>
      </trkpt>
      <trkpt lat="45.24244" lon="6.21272">
        <ele>2343.6</ele>
        <time>2021-02-27T14:27:21Z</time>
      </trkpt>
      <trkpt lat="45.24244" lon="6.21272">
        <ele>2343.8</ele>
        <time>2021-02-27T14:27:22Z</time>
      </trkpt>
      <trkpt lat="45.24245" lon="6.21276">
        <ele>2344</ele>
        <time>2021-02-27T14:27:23Z</time>
      </trkpt>
      <trkpt lat="45.24245" lon="6.21276">
        <ele>2344.4</ele>
        <time>2021-02-27T14:27:24Z</time>
      </trkpt>
      <trkpt lat="45.24245" lon="6.21276">
        <ele>2344.4</ele>
        <time>2021-02-27T14:27:25Z</time>
      </trkpt>
      <trkpt lat="45.24245" lon="6.21279">
        <ele>2344.6</ele>
        <time>2021-02-27T14:27:26Z</time>
      </trkpt>
      <trkpt lat="45.24245" lon="6.21279">
        <ele>2344.8</ele>
        <time>2021-02-27T14:27:27Z</time>
      </trkpt>
      <trkpt lat="45.24245" lon="6.21279">
        <ele>2345.2</ele>
        <time>2021-02-27T14:27:28Z</time>
      </trkpt>
      <trkpt lat="45.24246" lon="6.21282">
        <ele>2345.4</ele>
        <time>2021-02-27T14:27:29Z</time>
      </trkpt>
      <trkpt lat="45.24246" lon="6.21282">
        <ele>2345.6</ele>
        <time>2021-02-27T14:27:30Z</time>
      </trkpt>
      <trkpt lat="45.24246" lon="6.21282">
        <ele>2345.6</ele>
        <time>2021-02-27T14:27:31Z</time>
      </trkpt>
      <trkpt lat="45.24247" lon="6.21285">
        <ele>2346</ele>
        <time>2021-02-27T14:27:32Z</time>
      </trkpt>
      <trkpt lat="45.24247" lon="6.21285">
        <ele>2346.2</ele>
        <time>2021-02-27T14:27:33Z</time>
      </trkpt>
      <trkpt lat="45.24247" lon="6.21285">
        <ele>2346.6</ele>
        <time>2021-02-27T14:27:34Z</time>
      </trkpt>
      <trkpt lat="45.24248" lon="6.21289">
        <ele>2346.8</ele>
        <time>2021-02-27T14:27:35Z</time>
      </trkpt>
      <trkpt lat="45.24248" lon="6.21289">
        <ele>2347</ele>
        <time>2021-02-27T14:27:36Z</time>
      </trkpt>
      <trkpt lat="45.24248" lon="6.21292">
        <ele>2347.4</ele>
        <time>2021-02-27T14:27:37Z</time>
      </trkpt>
      <trkpt lat="45.24248" lon="6.21292">
        <ele>2347.4</ele>
        <time>2021-02-27T14:27:38Z</time>
      </trkpt>
      <trkpt lat="45.24248" lon="6.21292">
        <ele>2347.6</ele>
        <time>2021-02-27T14:27:39Z</time>
      </trkpt>
      <trkpt lat="45.24248" lon="6.21296">
        <ele>2348</ele>
        <time>2021-02-27T14:27:40Z</time>
      </trkpt>
      <trkpt lat="45.24248" lon="6.21296">
        <ele>2348.2</ele>
        <time>2021-02-27T14:27:41Z</time>
      </trkpt>
      <trkpt lat="45.24249" lon="6.21299">
        <ele>2348</ele>
        <time>2021-02-27T14:27:42Z</time>
      </trkpt>
      <trkpt lat="45.24249" lon="6.21299">
        <ele>2348.2</ele>
        <time>2021-02-27T14:27:43Z</time>
      </trkpt>
      <trkpt lat="45.24249" lon="6.21299">
        <ele>2348.2</ele>
        <time>2021-02-27T14:27:44Z</time>
      </trkpt>
      <trkpt lat="45.24249" lon="6.21299">
        <ele>2348.6</ele>
        <time>2021-02-27T14:27:45Z</time>
      </trkpt>
      <trkpt lat="45.24248" lon="6.21303">
        <ele>2349</ele>
        <time>2021-02-27T14:27:46Z</time>
      </trkpt>
      <trkpt lat="45.24248" lon="6.21303">
        <ele>2349</ele>
        <time>2021-02-27T14:27:47Z</time>
      </trkpt>
      <trkpt lat="45.24248" lon="6.21306">
        <ele>2349.6</ele>
        <time>2021-02-27T14:27:48Z</time>
      </trkpt>
      <trkpt lat="45.24248" lon="6.21306">
        <ele>2350.2</ele>
        <time>2021-02-27T14:27:49Z</time>
      </trkpt>
      <trkpt lat="45.24248" lon="6.21306">
        <ele>2350</ele>
        <time>2021-02-27T14:27:50Z</time>
      </trkpt>
      <trkpt lat="45.24248" lon="6.21308">
        <ele>2350.2</ele>
        <time>2021-02-27T14:27:51Z</time>
      </trkpt>
      <trkpt lat="45.24248" lon="6.21308">
        <ele>2350.2</ele>
        <time>2021-02-27T14:27:52Z</time>
      </trkpt>
      <trkpt lat="45.24248" lon="6.21308">
        <ele>2350.4</ele>
        <time>2021-02-27T14:27:53Z</time>
      </trkpt>
      <trkpt lat="45.24248" lon="6.21312">
        <ele>2351</ele>
        <time>2021-02-27T14:27:54Z</time>
      </trkpt>
      <trkpt lat="45.24248" lon="6.21312">
        <ele>2351.6</ele>
        <time>2021-02-27T14:27:55Z</time>
      </trkpt>
      <trkpt lat="45.24248" lon="6.21312">
        <ele>2351.2</ele>
        <time>2021-02-27T14:27:56Z</time>
      </trkpt>
      <trkpt lat="45.24248" lon="6.21312">
        <ele>2351.4</ele>
        <time>2021-02-27T14:27:57Z</time>
      </trkpt>
      <trkpt lat="45.24249" lon="6.21315">
        <ele>2351.8</ele>
        <time>2021-02-27T14:27:58Z</time>
      </trkpt>
      <trkpt lat="45.24249" lon="6.21315">
        <ele>2352.2</ele>
        <time>2021-02-27T14:27:59Z</time>
      </trkpt>
      <trkpt lat="45.24249" lon="6.21315">
        <ele>2352.2</ele>
        <time>2021-02-27T14:28:00Z</time>
      </trkpt>
      <trkpt lat="45.24249" lon="6.21319">
        <ele>2352.8</ele>
        <time>2021-02-27T14:28:01Z</time>
      </trkpt>
      <trkpt lat="45.24249" lon="6.21319">
        <ele>2352.4</ele>
        <time>2021-02-27T14:28:02Z</time>
      </trkpt>
      <trkpt lat="45.2425" lon="6.21321">
        <ele>2352.4</ele>
        <time>2021-02-27T14:28:03Z</time>
      </trkpt>
      <trkpt lat="45.2425" lon="6.21321">
        <ele>2353</ele>
        <time>2021-02-27T14:28:04Z</time>
      </trkpt>
      <trkpt lat="45.2425" lon="6.21321">
        <ele>2353.4</ele>
        <time>2021-02-27T14:28:05Z</time>
      </trkpt>
      <trkpt lat="45.2425" lon="6.21325">
        <ele>2353.8</ele>
        <time>2021-02-27T14:28:06Z</time>
      </trkpt>
      <trkpt lat="45.2425" lon="6.21325">
        <ele>2354</ele>
        <time>2021-02-27T14:28:07Z</time>
      </trkpt>
      <trkpt lat="45.2425" lon="6.21327">
        <ele>2353.8</ele>
        <time>2021-02-27T14:28:08Z</time>
      </trkpt>
      <trkpt lat="45.2425" lon="6.21327">
        <ele>2354</ele>
        <time>2021-02-27T14:28:09Z</time>
      </trkpt>
      <trkpt lat="45.24251" lon="6.2133">
        <ele>2354.4</ele>
        <time>2021-02-27T14:28:10Z</time>
      </trkpt>
      <trkpt lat="45.24251" lon="6.2133">
        <ele>2354.2</ele>
        <time>2021-02-27T14:28:11Z</time>
      </trkpt>
      <trkpt lat="45.24252" lon="6.21332">
        <ele>2354.2</ele>
        <time>2021-02-27T14:28:12Z</time>
      </trkpt>
      <trkpt lat="45.24252" lon="6.21332">
        <ele>2354.2</ele>
        <time>2021-02-27T14:28:13Z</time>
      </trkpt>
      <trkpt lat="45.24253" lon="6.21335">
        <ele>2354.8</ele>
        <time>2021-02-27T14:28:14Z</time>
      </trkpt>
      <trkpt lat="45.24253" lon="6.21335">
        <ele>2354.8</ele>
        <time>2021-02-27T14:28:15Z</time>
      </trkpt>
      <trkpt lat="45.24253" lon="6.21335">
        <ele>2354.8</ele>
        <time>2021-02-27T14:28:16Z</time>
      </trkpt>
      <trkpt lat="45.24254" lon="6.21339">
        <ele>2355.2</ele>
        <time>2021-02-27T14:28:17Z</time>
      </trkpt>
      <trkpt lat="45.24254" lon="6.21339">
        <ele>2355.6</ele>
        <time>2021-02-27T14:28:18Z</time>
      </trkpt>
      <trkpt lat="45.24255" lon="6.21341">
        <ele>2356.2</ele>
        <time>2021-02-27T14:28:19Z</time>
      </trkpt>
      <trkpt lat="45.24255" lon="6.21341">
        <ele>2356</ele>
        <time>2021-02-27T14:28:20Z</time>
      </trkpt>
      <trkpt lat="45.24255" lon="6.21341">
        <ele>2356</ele>
        <time>2021-02-27T14:28:21Z</time>
      </trkpt>
      <trkpt lat="45.24256" lon="6.21345">
        <ele>2356.2</ele>
        <time>2021-02-27T14:28:22Z</time>
      </trkpt>
      <trkpt lat="45.24256" lon="6.21345">
        <ele>2356</ele>
        <time>2021-02-27T14:28:23Z</time>
      </trkpt>
      <trkpt lat="45.24256" lon="6.21345">
        <ele>2356.6</ele>
        <time>2021-02-27T14:28:24Z</time>
      </trkpt>
      <trkpt lat="45.24257" lon="6.21348">
        <ele>2357</ele>
        <time>2021-02-27T14:28:25Z</time>
      </trkpt>
      <trkpt lat="45.24257" lon="6.21348">
        <ele>2356.6</ele>
        <time>2021-02-27T14:28:26Z</time>
      </trkpt>
      <trkpt lat="45.24257" lon="6.21348">
        <ele>2357</ele>
        <time>2021-02-27T14:28:27Z</time>
      </trkpt>
      <trkpt lat="45.24257" lon="6.21352">
        <ele>2357</ele>
        <time>2021-02-27T14:28:28Z</time>
      </trkpt>
      <trkpt lat="45.24257" lon="6.21352">
        <ele>2356.8</ele>
        <time>2021-02-27T14:28:29Z</time>
      </trkpt>
      <trkpt lat="45.24257" lon="6.21355">
        <ele>2357</ele>
        <time>2021-02-27T14:28:30Z</time>
      </trkpt>
      <trkpt lat="45.24257" lon="6.21355">
        <ele>2357.2</ele>
        <time>2021-02-27T14:28:31Z</time>
      </trkpt>
      <trkpt lat="45.24258" lon="6.21358">
        <ele>2357.4</ele>
        <time>2021-02-27T14:28:32Z</time>
      </trkpt>
      <trkpt lat="45.24258" lon="6.21358">
        <ele>2357.8</ele>
        <time>2021-02-27T14:28:33Z</time>
      </trkpt>
      <trkpt lat="45.24258" lon="6.21361">
        <ele>2358.2</ele>
        <time>2021-02-27T14:28:34Z</time>
      </trkpt>
      <trkpt lat="45.24258" lon="6.21361">
        <ele>2358.8</ele>
        <time>2021-02-27T14:28:35Z</time>
      </trkpt>
      <trkpt lat="45.24258" lon="6.21361">
        <ele>2358.8</ele>
        <time>2021-02-27T14:28:36Z</time>
      </trkpt>
      <trkpt lat="45.24257" lon="6.21365">
        <ele>2359.2</ele>
        <time>2021-02-27T14:28:37Z</time>
      </trkpt>
      <trkpt lat="45.24257" lon="6.21365">
        <ele>2359</ele>
        <time>2021-02-27T14:28:38Z</time>
      </trkpt>
      <trkpt lat="45.24257" lon="6.21365">
        <ele>2359.2</ele>
        <time>2021-02-27T14:28:39Z</time>
      </trkpt>
      <trkpt lat="45.24257" lon="6.21368">
        <ele>2360</ele>
        <time>2021-02-27T14:28:40Z</time>
      </trkpt>
      <trkpt lat="45.24257" lon="6.21368">
        <ele>2360.4</ele>
        <time>2021-02-27T14:28:41Z</time>
      </trkpt>
      <trkpt lat="45.24257" lon="6.21371">
        <ele>2360.8</ele>
        <time>2021-02-27T14:28:42Z</time>
      </trkpt>
      <trkpt lat="45.24257" lon="6.21371">
        <ele>2360.8</ele>
        <time>2021-02-27T14:28:43Z</time>
      </trkpt>
      <trkpt lat="45.24257" lon="6.21373">
        <ele>2360.6</ele>
        <time>2021-02-27T14:28:44Z</time>
      </trkpt>
      <trkpt lat="45.24257" lon="6.21373">
        <ele>2360.8</ele>
        <time>2021-02-27T14:28:45Z</time>
      </trkpt>
      <trkpt lat="45.24257" lon="6.21373">
        <ele>2360.8</ele>
        <time>2021-02-27T14:28:46Z</time>
      </trkpt>
      <trkpt lat="45.24258" lon="6.21377">
        <ele>2360.8</ele>
        <time>2021-02-27T14:28:47Z</time>
      </trkpt>
      <trkpt lat="45.24258" lon="6.21377">
        <ele>2360.6</ele>
        <time>2021-02-27T14:28:48Z</time>
      </trkpt>
      <trkpt lat="45.24258" lon="6.21377">
        <ele>2360.6</ele>
        <time>2021-02-27T14:28:49Z</time>
      </trkpt>
      <trkpt lat="45.24257" lon="6.21381">
        <ele>2360.2</ele>
        <time>2021-02-27T14:28:50Z</time>
      </trkpt>
      <trkpt lat="45.24257" lon="6.21381">
        <ele>2360.6</ele>
        <time>2021-02-27T14:28:51Z</time>
      </trkpt>
      <trkpt lat="45.24257" lon="6.21381">
        <ele>2360.6</ele>
        <time>2021-02-27T14:28:52Z</time>
      </trkpt>
      <trkpt lat="45.24257" lon="6.21384">
        <ele>2360.8</ele>
        <time>2021-02-27T14:28:53Z</time>
      </trkpt>
      <trkpt lat="45.24257" lon="6.21384">
        <ele>2361</ele>
        <time>2021-02-27T14:28:54Z</time>
      </trkpt>
      <trkpt lat="45.24257" lon="6.21384">
        <ele>2361.4</ele>
        <time>2021-02-27T14:28:55Z</time>
      </trkpt>
      <trkpt lat="45.24257" lon="6.21384">
        <ele>2361.6</ele>
        <time>2021-02-27T14:28:56Z</time>
      </trkpt>
      <trkpt lat="45.24256" lon="6.21386">
        <ele>2361.6</ele>
        <time>2021-02-27T14:28:57Z</time>
      </trkpt>
      <trkpt lat="45.24256" lon="6.21386">
        <ele>2361.6</ele>
        <time>2021-02-27T14:28:58Z</time>
      </trkpt>
      <trkpt lat="45.24256" lon="6.21389">
        <ele>2361.8</ele>
        <time>2021-02-27T14:28:59Z</time>
      </trkpt>
      <trkpt lat="45.24256" lon="6.21389">
        <ele>2361.4</ele>
        <time>2021-02-27T14:29:00Z</time>
      </trkpt>
      <trkpt lat="45.24257" lon="6.21391">
        <ele>2361.6</ele>
        <time>2021-02-27T14:29:01Z</time>
      </trkpt>
      <trkpt lat="45.24257" lon="6.21391">
        <ele>2361.8</ele>
        <time>2021-02-27T14:29:02Z</time>
      </trkpt>
      <trkpt lat="45.24257" lon="6.21391">
        <ele>2362</ele>
        <time>2021-02-27T14:29:03Z</time>
      </trkpt>
      <trkpt lat="45.24257" lon="6.21395">
        <ele>2362.4</ele>
        <time>2021-02-27T14:29:04Z</time>
      </trkpt>
      <trkpt lat="45.24257" lon="6.21395">
        <ele>2362.4</ele>
        <time>2021-02-27T14:29:05Z</time>
      </trkpt>
      <trkpt lat="45.24257" lon="6.21398">
        <ele>2362.4</ele>
        <time>2021-02-27T14:29:06Z</time>
      </trkpt>
      <trkpt lat="45.24257" lon="6.21398">
        <ele>2362.6</ele>
        <time>2021-02-27T14:29:07Z</time>
      </trkpt>
      <trkpt lat="45.24256" lon="6.21401">
        <ele>2362.8</ele>
        <time>2021-02-27T14:29:08Z</time>
      </trkpt>
      <trkpt lat="45.24256" lon="6.21401">
        <ele>2363</ele>
        <time>2021-02-27T14:29:09Z</time>
      </trkpt>
      <trkpt lat="45.24256" lon="6.21403">
        <ele>2362.8</ele>
        <time>2021-02-27T14:29:10Z</time>
      </trkpt>
      <trkpt lat="45.24256" lon="6.21403">
        <ele>2362.6</ele>
        <time>2021-02-27T14:29:11Z</time>
      </trkpt>
      <trkpt lat="45.24256" lon="6.21403">
        <ele>2363</ele>
        <time>2021-02-27T14:29:12Z</time>
      </trkpt>
      <trkpt lat="45.24256" lon="6.21407">
        <ele>2363.4</ele>
        <time>2021-02-27T14:29:13Z</time>
      </trkpt>
      <trkpt lat="45.24256" lon="6.21407">
        <ele>2363.6</ele>
        <time>2021-02-27T14:29:14Z</time>
      </trkpt>
      <trkpt lat="45.24256" lon="6.21407">
        <ele>2363.8</ele>
        <time>2021-02-27T14:29:15Z</time>
      </trkpt>
      <trkpt lat="45.24255" lon="6.2141">
        <ele>2363.8</ele>
        <time>2021-02-27T14:29:16Z</time>
      </trkpt>
      <trkpt lat="45.24255" lon="6.2141">
        <ele>2364.2</ele>
        <time>2021-02-27T14:29:17Z</time>
      </trkpt>
      <trkpt lat="45.24255" lon="6.2141">
        <ele>2364.2</ele>
        <time>2021-02-27T14:29:18Z</time>
      </trkpt>
      <trkpt lat="45.24254" lon="6.21414">
        <ele>2364.6</ele>
        <time>2021-02-27T14:29:19Z</time>
      </trkpt>
      <trkpt lat="45.24254" lon="6.21414">
        <ele>2364.8</ele>
        <time>2021-02-27T14:29:20Z</time>
      </trkpt>
      <trkpt lat="45.24254" lon="6.21417">
        <ele>2365.2</ele>
        <time>2021-02-27T14:29:21Z</time>
      </trkpt>
      <trkpt lat="45.24254" lon="6.21417">
        <ele>2365.4</ele>
        <time>2021-02-27T14:29:22Z</time>
      </trkpt>
      <trkpt lat="45.24253" lon="6.2142">
        <ele>2365.8</ele>
        <time>2021-02-27T14:29:23Z</time>
      </trkpt>
      <trkpt lat="45.24253" lon="6.2142">
        <ele>2366</ele>
        <time>2021-02-27T14:29:24Z</time>
      </trkpt>
      <trkpt lat="45.24252" lon="6.21422">
        <ele>2365.8</ele>
        <time>2021-02-27T14:29:25Z</time>
      </trkpt>
      <trkpt lat="45.24252" lon="6.21422">
        <ele>2365.4</ele>
        <time>2021-02-27T14:29:26Z</time>
      </trkpt>
      <trkpt lat="45.24252" lon="6.21425">
        <ele>2365.8</ele>
        <time>2021-02-27T14:29:27Z</time>
      </trkpt>
      <trkpt lat="45.24252" lon="6.21425">
        <ele>2366.4</ele>
        <time>2021-02-27T14:29:28Z</time>
      </trkpt>
      <trkpt lat="45.24251" lon="6.21428">
        <ele>2366.4</ele>
        <time>2021-02-27T14:29:29Z</time>
      </trkpt>
      <trkpt lat="45.24251" lon="6.21428">
        <ele>2365.8</ele>
        <time>2021-02-27T14:29:30Z</time>
      </trkpt>
      <trkpt lat="45.24251" lon="6.21428">
        <ele>2366.4</ele>
        <time>2021-02-27T14:29:31Z</time>
      </trkpt>
      <trkpt lat="45.2425" lon="6.21432">
        <ele>2366</ele>
        <time>2021-02-27T14:29:32Z</time>
      </trkpt>
      <trkpt lat="45.2425" lon="6.21432">
        <ele>2365.4</ele>
        <time>2021-02-27T14:29:33Z</time>
      </trkpt>
      <trkpt lat="45.2425" lon="6.21432">
        <ele>2366</ele>
        <time>2021-02-27T14:29:34Z</time>
      </trkpt>
      <trkpt lat="45.24249" lon="6.21435">
        <ele>2366.2</ele>
        <time>2021-02-27T14:29:35Z</time>
      </trkpt>
      <trkpt lat="45.24249" lon="6.21435">
        <ele>2366</ele>
        <time>2021-02-27T14:29:36Z</time>
      </trkpt>
      <trkpt lat="45.24249" lon="6.21435">
        <ele>2366.8</ele>
        <time>2021-02-27T14:29:37Z</time>
      </trkpt>
      <trkpt lat="45.24248" lon="6.21439">
        <ele>2367</ele>
        <time>2021-02-27T14:29:38Z</time>
      </trkpt>
      <trkpt lat="45.24248" lon="6.21439">
        <ele>2366.8</ele>
        <time>2021-02-27T14:29:39Z</time>
      </trkpt>
      <trkpt lat="45.24248" lon="6.21439">
        <ele>2367.4</ele>
        <time>2021-02-27T14:29:40Z</time>
      </trkpt>
      <trkpt lat="45.24247" lon="6.21443">
        <ele>2367.8</ele>
        <time>2021-02-27T14:29:41Z</time>
      </trkpt>
      <trkpt lat="45.24247" lon="6.21443">
        <ele>2367.4</ele>
        <time>2021-02-27T14:29:42Z</time>
      </trkpt>
      <trkpt lat="45.24247" lon="6.21443">
        <ele>2368</ele>
        <time>2021-02-27T14:29:43Z</time>
      </trkpt>
      <trkpt lat="45.24247" lon="6.21443">
        <ele>2368.2</ele>
        <time>2021-02-27T14:29:44Z</time>
      </trkpt>
      <trkpt lat="45.24247" lon="6.21443">
        <ele>2368.4</ele>
        <time>2021-02-27T14:29:45Z</time>
      </trkpt>
      <trkpt lat="45.24247" lon="6.21443">
        <ele>2368.4</ele>
        <time>2021-02-27T14:29:46Z</time>
      </trkpt>
      <trkpt lat="45.24247" lon="6.21443">
        <ele>2368.4</ele>
        <time>2021-02-27T14:29:47Z</time>
      </trkpt>
      <trkpt lat="45.24247" lon="6.21443">
        <ele>2368.4</ele>
        <time>2021-02-27T14:29:48Z</time>
      </trkpt>
      <trkpt lat="45.24247" lon="6.21443">
        <ele>2368.8</ele>
        <time>2021-02-27T14:29:49Z</time>
      </trkpt>
      <trkpt lat="45.24247" lon="6.21443">
        <ele>2369.4</ele>
        <time>2021-02-27T14:29:50Z</time>
      </trkpt>
      <trkpt lat="45.24247" lon="6.21443">
        <ele>2369</ele>
        <time>2021-02-27T14:29:51Z</time>
      </trkpt>
      <trkpt lat="45.24247" lon="6.21443">
        <ele>2369</ele>
        <time>2021-02-27T14:29:52Z</time>
      </trkpt>
      <trkpt lat="45.24247" lon="6.21443">
        <ele>2368.8</ele>
        <time>2021-02-27T14:29:53Z</time>
      </trkpt>
      <trkpt lat="45.24247" lon="6.21443">
        <ele>2368.6</ele>
        <time>2021-02-27T14:29:54Z</time>
      </trkpt>
      <trkpt lat="45.24247" lon="6.21443">
        <ele>2368</ele>
        <time>2021-02-27T14:29:55Z</time>
      </trkpt>
      <trkpt lat="45.24247" lon="6.21443">
        <ele>2368</ele>
        <time>2021-02-27T14:29:56Z</time>
      </trkpt>
      <trkpt lat="45.24247" lon="6.21443">
        <ele>2368.2</ele>
        <time>2021-02-27T14:29:57Z</time>
      </trkpt>
      <trkpt lat="45.24247" lon="6.21443">
        <ele>2367.8</ele>
        <time>2021-02-27T14:29:58Z</time>
      </trkpt>
      <trkpt lat="45.24247" lon="6.21443">
        <ele>2367.8</ele>
        <time>2021-02-27T14:29:59Z</time>
      </trkpt>
      <trkpt lat="45.24247" lon="6.21443">
        <ele>2367.8</ele>
        <time>2021-02-27T14:30:00Z</time>
      </trkpt>
      <trkpt lat="45.24247" lon="6.21443">
        <ele>2367.8</ele>
        <time>2021-02-27T14:30:01Z</time>
      </trkpt>
      <trkpt lat="45.24247" lon="6.21443">
        <ele>2367.6</ele>
        <time>2021-02-27T14:30:02Z</time>
      </trkpt>
      <trkpt lat="45.24247" lon="6.21443">
        <ele>2367.8</ele>
        <time>2021-02-27T14:30:03Z</time>
      </trkpt>
      <trkpt lat="45.24247" lon="6.21443">
        <ele>2368</ele>
        <time>2021-02-27T14:30:04Z</time>
      </trkpt>
      <trkpt lat="45.24247" lon="6.21443">
        <ele>2368.6</ele>
        <time>2021-02-27T14:30:05Z</time>
      </trkpt>
      <trkpt lat="45.24247" lon="6.21443">
        <ele>2369.2</ele>
        <time>2021-02-27T14:30:06Z</time>
      </trkpt>
      <trkpt lat="45.24247" lon="6.21443">
        <ele>2369.6</ele>
        <time>2021-02-27T14:30:07Z</time>
      </trkpt>
      <trkpt lat="45.24247" lon="6.21443">
        <ele>2370</ele>
        <time>2021-02-27T14:30:08Z</time>
      </trkpt>
      <trkpt lat="45.24247" lon="6.21443">
        <ele>2370</ele>
        <time>2021-02-27T14:30:09Z</time>
      </trkpt>
      <trkpt lat="45.24247" lon="6.21443">
        <ele>2370.4</ele>
        <time>2021-02-27T14:30:10Z</time>
      </trkpt>
      <trkpt lat="45.24247" lon="6.21443">
        <ele>2370.6</ele>
        <time>2021-02-27T14:30:11Z</time>
      </trkpt>
      <trkpt lat="45.24247" lon="6.21443">
        <ele>2370.8</ele>
        <time>2021-02-27T14:30:12Z</time>
      </trkpt>
      <trkpt lat="45.24247" lon="6.21443">
        <ele>2371</ele>
        <time>2021-02-27T14:30:13Z</time>
      </trkpt>
      <trkpt lat="45.24247" lon="6.21443">
        <ele>2370.8</ele>
        <time>2021-02-27T14:30:14Z</time>
      </trkpt>
      <trkpt lat="45.24247" lon="6.21443">
        <ele>2370.8</ele>
        <time>2021-02-27T14:30:15Z</time>
      </trkpt>
      <trkpt lat="45.24247" lon="6.21443">
        <ele>2370.4</ele>
        <time>2021-02-27T14:30:16Z</time>
      </trkpt>
      <trkpt lat="45.24247" lon="6.21443">
        <ele>2370</ele>
        <time>2021-02-27T14:30:17Z</time>
      </trkpt>
      <trkpt lat="45.24247" lon="6.21443">
        <ele>2370</ele>
        <time>2021-02-27T14:30:18Z</time>
      </trkpt>
      <trkpt lat="45.24247" lon="6.21443">
        <ele>2369.6</ele>
        <time>2021-02-27T14:30:19Z</time>
      </trkpt>
      <trkpt lat="45.24247" lon="6.21443">
        <ele>2369.2</ele>
        <time>2021-02-27T14:30:20Z</time>
      </trkpt>
      <trkpt lat="45.24247" lon="6.21443">
        <ele>2369</ele>
        <time>2021-02-27T14:30:21Z</time>
      </trkpt>
      <trkpt lat="45.24247" lon="6.21443">
        <ele>2369.4</ele>
        <time>2021-02-27T14:30:22Z</time>
      </trkpt>
      <trkpt lat="45.24247" lon="6.21443">
        <ele>2369.2</ele>
        <time>2021-02-27T14:30:23Z</time>
      </trkpt>
      <trkpt lat="45.24247" lon="6.21443">
        <ele>2369.4</ele>
        <time>2021-02-27T14:30:24Z</time>
      </trkpt>
      <trkpt lat="45.24247" lon="6.21443">
        <ele>2370</ele>
        <time>2021-02-27T14:30:25Z</time>
      </trkpt>
      <trkpt lat="45.24247" lon="6.21443">
        <ele>2370.2</ele>
        <time>2021-02-27T14:30:26Z</time>
      </trkpt>
      <trkpt lat="45.24247" lon="6.21443">
        <ele>2370.4</ele>
        <time>2021-02-27T14:30:27Z</time>
      </trkpt>
      <trkpt lat="45.24247" lon="6.21443">
        <ele>2370.2</ele>
        <time>2021-02-27T14:30:28Z</time>
      </trkpt>
      <trkpt lat="45.24247" lon="6.21443">
        <ele>2370.2</ele>
        <time>2021-02-27T14:30:29Z</time>
      </trkpt>
      <trkpt lat="45.24247" lon="6.21443">
        <ele>2370.6</ele>
        <time>2021-02-27T14:30:30Z</time>
      </trkpt>
      <trkpt lat="45.24247" lon="6.21443">
        <ele>2370.6</ele>
        <time>2021-02-27T14:30:31Z</time>
      </trkpt>
      <trkpt lat="45.24247" lon="6.21443">
        <ele>2370.4</ele>
        <time>2021-02-27T14:30:32Z</time>
      </trkpt>
      <trkpt lat="45.24247" lon="6.21443">
        <ele>2370</ele>
        <time>2021-02-27T14:30:33Z</time>
      </trkpt>
      <trkpt lat="45.24247" lon="6.21443">
        <ele>2369.8</ele>
        <time>2021-02-27T14:30:34Z</time>
      </trkpt>
      <trkpt lat="45.24247" lon="6.21443">
        <ele>2369.8</ele>
        <time>2021-02-27T14:30:35Z</time>
      </trkpt>
      <trkpt lat="45.24247" lon="6.21443">
        <ele>2369.4</ele>
        <time>2021-02-27T14:30:36Z</time>
      </trkpt>
      <trkpt lat="45.24247" lon="6.21443">
        <ele>2369.6</ele>
        <time>2021-02-27T14:30:37Z</time>
      </trkpt>
      <trkpt lat="45.24247" lon="6.21443">
        <ele>2369.8</ele>
        <time>2021-02-27T14:30:38Z</time>
      </trkpt>
      <trkpt lat="45.24247" lon="6.21443">
        <ele>2369.8</ele>
        <time>2021-02-27T14:30:39Z</time>
      </trkpt>
      <trkpt lat="45.24247" lon="6.21443">
        <ele>2369.8</ele>
        <time>2021-02-27T14:30:40Z</time>
      </trkpt>
      <trkpt lat="45.24247" lon="6.21443">
        <ele>2369.8</ele>
        <time>2021-02-27T14:30:41Z</time>
      </trkpt>
      <trkpt lat="45.24247" lon="6.21443">
        <ele>2370</ele>
        <time>2021-02-27T14:30:42Z</time>
      </trkpt>
      <trkpt lat="45.24247" lon="6.21443">
        <ele>2370</ele>
        <time>2021-02-27T14:30:43Z</time>
      </trkpt>
      <trkpt lat="45.24247" lon="6.21443">
        <ele>2369.6</ele>
        <time>2021-02-27T14:30:44Z</time>
      </trkpt>
      <trkpt lat="45.24247" lon="6.21443">
        <ele>2369.4</ele>
        <time>2021-02-27T14:30:45Z</time>
      </trkpt>
      <trkpt lat="45.24247" lon="6.21443">
        <ele>2369.6</ele>
        <time>2021-02-27T14:30:46Z</time>
      </trkpt>
      <trkpt lat="45.24247" lon="6.21443">
        <ele>2369.6</ele>
        <time>2021-02-27T14:30:47Z</time>
      </trkpt>
      <trkpt lat="45.24247" lon="6.21443">
        <ele>2370.2</ele>
        <time>2021-02-27T14:30:48Z</time>
      </trkpt>
      <trkpt lat="45.24247" lon="6.21443">
        <ele>2370.4</ele>
        <time>2021-02-27T14:30:49Z</time>
      </trkpt>
      <trkpt lat="45.24247" lon="6.21443">
        <ele>2370.4</ele>
        <time>2021-02-27T14:30:50Z</time>
      </trkpt>
      <trkpt lat="45.24247" lon="6.21443">
        <ele>2370.4</ele>
        <time>2021-02-27T14:30:51Z</time>
      </trkpt>
      <trkpt lat="45.24247" lon="6.21443">
        <ele>2370.6</ele>
        <time>2021-02-27T14:30:52Z</time>
      </trkpt>
      <trkpt lat="45.24247" lon="6.21443">
        <ele>2370.6</ele>
        <time>2021-02-27T14:30:53Z</time>
      </trkpt>
      <trkpt lat="45.24247" lon="6.21443">
        <ele>2370.4</ele>
        <time>2021-02-27T14:30:54Z</time>
      </trkpt>
      <trkpt lat="45.24247" lon="6.21443">
        <ele>2370.2</ele>
        <time>2021-02-27T14:30:55Z</time>
      </trkpt>
      <trkpt lat="45.24247" lon="6.21443">
        <ele>2370.4</ele>
        <time>2021-02-27T14:30:56Z</time>
      </trkpt>
      <trkpt lat="45.24247" lon="6.21443">
        <ele>2370.8</ele>
        <time>2021-02-27T14:30:57Z</time>
      </trkpt>
      <trkpt lat="45.24247" lon="6.21443">
        <ele>2370.8</ele>
        <time>2021-02-27T14:30:58Z</time>
      </trkpt>
      <trkpt lat="45.24247" lon="6.21443">
        <ele>2371</ele>
        <time>2021-02-27T14:30:59Z</time>
      </trkpt>
      <trkpt lat="45.24247" lon="6.21443">
        <ele>2371</ele>
        <time>2021-02-27T14:31:00Z</time>
      </trkpt>
      <trkpt lat="45.24247" lon="6.21443">
        <ele>2371</ele>
        <time>2021-02-27T14:31:01Z</time>
      </trkpt>
      <trkpt lat="45.24247" lon="6.21443">
        <ele>2371</ele>
        <time>2021-02-27T14:31:02Z</time>
      </trkpt>
      <trkpt lat="45.24247" lon="6.21443">
        <ele>2371</ele>
        <time>2021-02-27T14:31:03Z</time>
      </trkpt>
      <trkpt lat="45.24247" lon="6.21443">
        <ele>2371</ele>
        <time>2021-02-27T14:31:04Z</time>
      </trkpt>
      <trkpt lat="45.24247" lon="6.21443">
        <ele>2371</ele>
        <time>2021-02-27T14:31:05Z</time>
      </trkpt>
      <trkpt lat="45.24247" lon="6.21443">
        <ele>2371.2</ele>
        <time>2021-02-27T14:31:06Z</time>
      </trkpt>
      <trkpt lat="45.24247" lon="6.21443">
        <ele>2371.2</ele>
        <time>2021-02-27T14:31:07Z</time>
      </trkpt>
      <trkpt lat="45.24247" lon="6.21443">
        <ele>2371.2</ele>
        <time>2021-02-27T14:31:08Z</time>
      </trkpt>
      <trkpt lat="45.24247" lon="6.21443">
        <ele>2371.4</ele>
        <time>2021-02-27T14:31:09Z</time>
      </trkpt>
      <trkpt lat="45.24247" lon="6.21443">
        <ele>2371</ele>
        <time>2021-02-27T14:31:10Z</time>
      </trkpt>
      <trkpt lat="45.24247" lon="6.21443">
        <ele>2371.2</ele>
        <time>2021-02-27T14:31:11Z</time>
      </trkpt>
      <trkpt lat="45.24247" lon="6.21443">
        <ele>2371.2</ele>
        <time>2021-02-27T14:31:12Z</time>
      </trkpt>
      <trkpt lat="45.24247" lon="6.21443">
        <ele>2371.8</ele>
        <time>2021-02-27T14:31:13Z</time>
      </trkpt>
      <trkpt lat="45.24247" lon="6.21443">
        <ele>2372</ele>
        <time>2021-02-27T14:31:14Z</time>
      </trkpt>
      <trkpt lat="45.24247" lon="6.21443">
        <ele>2372</ele>
        <time>2021-02-27T14:31:15Z</time>
      </trkpt>
      <trkpt lat="45.24247" lon="6.21443">
        <ele>2371.6</ele>
        <time>2021-02-27T14:31:16Z</time>
      </trkpt>
      <trkpt lat="45.24247" lon="6.21443">
        <ele>2371.4</ele>
        <time>2021-02-27T14:31:17Z</time>
      </trkpt>
      <trkpt lat="45.24247" lon="6.21443">
        <ele>2371.2</ele>
        <time>2021-02-27T14:31:18Z</time>
      </trkpt>
      <trkpt lat="45.24247" lon="6.21443">
        <ele>2371</ele>
        <time>2021-02-27T14:31:19Z</time>
      </trkpt>
      <trkpt lat="45.24247" lon="6.21443">
        <ele>2371</ele>
        <time>2021-02-27T14:31:20Z</time>
      </trkpt>
      <trkpt lat="45.24247" lon="6.21443">
        <ele>2371.2</ele>
        <time>2021-02-27T14:31:21Z</time>
      </trkpt>
      <trkpt lat="45.24247" lon="6.21443">
        <ele>2371.2</ele>
        <time>2021-02-27T14:31:22Z</time>
      </trkpt>
      <trkpt lat="45.24247" lon="6.21443">
        <ele>2371.2</ele>
        <time>2021-02-27T14:31:23Z</time>
      </trkpt>
      <trkpt lat="45.24247" lon="6.21443">
        <ele>2371.4</ele>
        <time>2021-02-27T14:31:24Z</time>
      </trkpt>
      <trkpt lat="45.24247" lon="6.21443">
        <ele>2371.6</ele>
        <time>2021-02-27T14:31:25Z</time>
      </trkpt>
      <trkpt lat="45.24247" lon="6.21443">
        <ele>2371.8</ele>
        <time>2021-02-27T14:31:26Z</time>
      </trkpt>
      <trkpt lat="45.24247" lon="6.21443">
        <ele>2371.8</ele>
        <time>2021-02-27T14:31:27Z</time>
      </trkpt>
      <trkpt lat="45.24247" lon="6.21443">
        <ele>2371.8</ele>
        <time>2021-02-27T14:31:28Z</time>
      </trkpt>
      <trkpt lat="45.24247" lon="6.21443">
        <ele>2371.4</ele>
        <time>2021-02-27T14:31:29Z</time>
      </trkpt>
      <trkpt lat="45.24247" lon="6.21443">
        <ele>2371.4</ele>
        <time>2021-02-27T14:31:30Z</time>
      </trkpt>
      <trkpt lat="45.24247" lon="6.21443">
        <ele>2371</ele>
        <time>2021-02-27T14:31:31Z</time>
      </trkpt>
      <trkpt lat="45.24247" lon="6.21443">
        <ele>2371.2</ele>
        <time>2021-02-27T14:31:32Z</time>
      </trkpt>
      <trkpt lat="45.24247" lon="6.21443">
        <ele>2371</ele>
        <time>2021-02-27T14:31:33Z</time>
      </trkpt>
      <trkpt lat="45.24247" lon="6.21443">
        <ele>2370.6</ele>
        <time>2021-02-27T14:31:34Z</time>
      </trkpt>
      <trkpt lat="45.24247" lon="6.21443">
        <ele>2370.6</ele>
        <time>2021-02-27T14:31:35Z</time>
      </trkpt>
      <trkpt lat="45.24247" lon="6.21443">
        <ele>2370.2</ele>
        <time>2021-02-27T14:31:36Z</time>
      </trkpt>
      <trkpt lat="45.24246" lon="6.21444">
        <ele>2369.8</ele>
        <time>2021-02-27T14:31:37Z</time>
      </trkpt>
      <trkpt lat="45.24246" lon="6.21444">
        <ele>2369.6</ele>
        <time>2021-02-27T14:31:38Z</time>
      </trkpt>
      <trkpt lat="45.24246" lon="6.21444">
        <ele>2369.8</ele>
        <time>2021-02-27T14:31:39Z</time>
      </trkpt>
      <trkpt lat="45.24246" lon="6.21444">
        <ele>2369.6</ele>
        <time>2021-02-27T14:31:40Z</time>
      </trkpt>
      <trkpt lat="45.24246" lon="6.21444">
        <ele>2369.2</ele>
        <time>2021-02-27T14:31:41Z</time>
      </trkpt>
      <trkpt lat="45.24246" lon="6.21444">
        <ele>2368.6</ele>
        <time>2021-02-27T14:31:42Z</time>
      </trkpt>
      <trkpt lat="45.24246" lon="6.21444">
        <ele>2368.4</ele>
        <time>2021-02-27T14:31:43Z</time>
      </trkpt>
      <trkpt lat="45.24246" lon="6.21444">
        <ele>2368.6</ele>
        <time>2021-02-27T14:31:44Z</time>
      </trkpt>
      <trkpt lat="45.24246" lon="6.21444">
        <ele>2369</ele>
        <time>2021-02-27T14:31:45Z</time>
      </trkpt>
      <trkpt lat="45.24246" lon="6.21444">
        <ele>2369.2</ele>
        <time>2021-02-27T14:31:46Z</time>
      </trkpt>
      <trkpt lat="45.24246" lon="6.21444">
        <ele>2369.8</ele>
        <time>2021-02-27T14:31:47Z</time>
      </trkpt>
      <trkpt lat="45.24246" lon="6.21444">
        <ele>2370.6</ele>
        <time>2021-02-27T14:31:48Z</time>
      </trkpt>
      <trkpt lat="45.24246" lon="6.21444">
        <ele>2371</ele>
        <time>2021-02-27T14:31:49Z</time>
      </trkpt>
      <trkpt lat="45.24246" lon="6.21444">
        <ele>2371.4</ele>
        <time>2021-02-27T14:31:50Z</time>
      </trkpt>
      <trkpt lat="45.24246" lon="6.21444">
        <ele>2371.8</ele>
        <time>2021-02-27T14:31:51Z</time>
      </trkpt>
      <trkpt lat="45.24246" lon="6.21444">
        <ele>2372</ele>
        <time>2021-02-27T14:31:52Z</time>
      </trkpt>
      <trkpt lat="45.24246" lon="6.21444">
        <ele>2372</ele>
        <time>2021-02-27T14:31:53Z</time>
      </trkpt>
      <trkpt lat="45.24246" lon="6.21444">
        <ele>2372.2</ele>
        <time>2021-02-27T14:31:54Z</time>
      </trkpt>
      <trkpt lat="45.24246" lon="6.21444">
        <ele>2371.6</ele>
        <time>2021-02-27T14:31:55Z</time>
      </trkpt>
      <trkpt lat="45.24246" lon="6.21444">
        <ele>2371.8</ele>
        <time>2021-02-27T14:31:56Z</time>
      </trkpt>
      <trkpt lat="45.24246" lon="6.21444">
        <ele>2372</ele>
        <time>2021-02-27T14:31:57Z</time>
      </trkpt>
      <trkpt lat="45.24246" lon="6.21444">
        <ele>2371.8</ele>
        <time>2021-02-27T14:31:58Z</time>
      </trkpt>
      <trkpt lat="45.24246" lon="6.21444">
        <ele>2372</ele>
        <time>2021-02-27T14:31:59Z</time>
      </trkpt>
      <trkpt lat="45.24246" lon="6.21444">
        <ele>2372.2</ele>
        <time>2021-02-27T14:32:00Z</time>
      </trkpt>
      <trkpt lat="45.24244" lon="6.21446">
        <ele>2371.2</ele>
        <time>2021-02-27T14:32:01Z</time>
      </trkpt>
      <trkpt lat="45.24244" lon="6.21446">
        <ele>2370.6</ele>
        <time>2021-02-27T14:32:02Z</time>
      </trkpt>
      <trkpt lat="45.24243" lon="6.21449">
        <ele>2371</ele>
        <time>2021-02-27T14:32:03Z</time>
      </trkpt>
      <trkpt lat="45.24243" lon="6.21449">
        <ele>2370.6</ele>
        <time>2021-02-27T14:32:04Z</time>
      </trkpt>
      <trkpt lat="45.24242" lon="6.21452">
        <ele>2369.4</ele>
        <time>2021-02-27T14:32:05Z</time>
      </trkpt>
      <trkpt lat="45.24242" lon="6.21452">
        <ele>2370.4</ele>
        <time>2021-02-27T14:32:06Z</time>
      </trkpt>
      <trkpt lat="45.24241" lon="6.21455">
        <ele>2370.4</ele>
        <time>2021-02-27T14:32:07Z</time>
      </trkpt>
      <trkpt lat="45.24241" lon="6.21455">
        <ele>2370.6</ele>
        <time>2021-02-27T14:32:08Z</time>
      </trkpt>
      <trkpt lat="45.24239" lon="6.21458">
        <ele>2370.4</ele>
        <time>2021-02-27T14:32:09Z</time>
      </trkpt>
      <trkpt lat="45.24239" lon="6.21458">
        <ele>2370</ele>
        <time>2021-02-27T14:32:10Z</time>
      </trkpt>
      <trkpt lat="45.24238" lon="6.21461">
        <ele>2370.4</ele>
        <time>2021-02-27T14:32:11Z</time>
      </trkpt>
      <trkpt lat="45.24238" lon="6.21461">
        <ele>2370.8</ele>
        <time>2021-02-27T14:32:12Z</time>
      </trkpt>
      <trkpt lat="45.24236" lon="6.21464">
        <ele>2371</ele>
        <time>2021-02-27T14:32:13Z</time>
      </trkpt>
      <trkpt lat="45.24236" lon="6.21464">
        <ele>2371</ele>
        <time>2021-02-27T14:32:14Z</time>
      </trkpt>
      <trkpt lat="45.24235" lon="6.21468">
        <ele>2371</ele>
        <time>2021-02-27T14:32:15Z</time>
      </trkpt>
      <trkpt lat="45.24235" lon="6.21468">
        <ele>2371.4</ele>
        <time>2021-02-27T14:32:16Z</time>
      </trkpt>
      <trkpt lat="45.24234" lon="6.21471">
        <ele>2371.6</ele>
        <time>2021-02-27T14:32:17Z</time>
      </trkpt>
      <trkpt lat="45.24234" lon="6.21471">
        <ele>2371</ele>
        <time>2021-02-27T14:32:18Z</time>
      </trkpt>
      <trkpt lat="45.24233" lon="6.21473">
        <ele>2371</ele>
        <time>2021-02-27T14:32:19Z</time>
      </trkpt>
      <trkpt lat="45.24233" lon="6.21473">
        <ele>2370.4</ele>
        <time>2021-02-27T14:32:20Z</time>
      </trkpt>
      <trkpt lat="45.24232" lon="6.21476">
        <ele>2370.6</ele>
        <time>2021-02-27T14:32:21Z</time>
      </trkpt>
      <trkpt lat="45.24232" lon="6.21476">
        <ele>2370.6</ele>
        <time>2021-02-27T14:32:22Z</time>
      </trkpt>
      <trkpt lat="45.24231" lon="6.21479">
        <ele>2370.8</ele>
        <time>2021-02-27T14:32:23Z</time>
      </trkpt>
      <trkpt lat="45.24231" lon="6.21479">
        <ele>2370.8</ele>
        <time>2021-02-27T14:32:24Z</time>
      </trkpt>
      <trkpt lat="45.2423" lon="6.21482">
        <ele>2370.6</ele>
        <time>2021-02-27T14:32:25Z</time>
      </trkpt>
      <trkpt lat="45.2423" lon="6.21482">
        <ele>2370.4</ele>
        <time>2021-02-27T14:32:26Z</time>
      </trkpt>
      <trkpt lat="45.2423" lon="6.21482">
        <ele>2370.6</ele>
        <time>2021-02-27T14:32:27Z</time>
      </trkpt>
      <trkpt lat="45.24229" lon="6.21487">
        <ele>2370.8</ele>
        <time>2021-02-27T14:32:28Z</time>
      </trkpt>
      <trkpt lat="45.24229" lon="6.21487">
        <ele>2370.6</ele>
        <time>2021-02-27T14:32:29Z</time>
      </trkpt>
      <trkpt lat="45.24227" lon="6.21491">
        <ele>2370.8</ele>
        <time>2021-02-27T14:32:30Z</time>
      </trkpt>
      <trkpt lat="45.24227" lon="6.21491">
        <ele>2371.6</ele>
        <time>2021-02-27T14:32:31Z</time>
      </trkpt>
      <trkpt lat="45.24226" lon="6.21493">
        <ele>2372</ele>
        <time>2021-02-27T14:32:32Z</time>
      </trkpt>
      <trkpt lat="45.24226" lon="6.21493">
        <ele>2371.6</ele>
        <time>2021-02-27T14:32:33Z</time>
      </trkpt>
      <trkpt lat="45.24225" lon="6.21497">
        <ele>2371.6</ele>
        <time>2021-02-27T14:32:34Z</time>
      </trkpt>
      <trkpt lat="45.24225" lon="6.21497">
        <ele>2371.8</ele>
        <time>2021-02-27T14:32:35Z</time>
      </trkpt>
      <trkpt lat="45.24225" lon="6.215">
        <ele>2372.8</ele>
        <time>2021-02-27T14:32:36Z</time>
      </trkpt>
      <trkpt lat="45.24225" lon="6.215">
        <ele>2372.8</ele>
        <time>2021-02-27T14:32:37Z</time>
      </trkpt>
      <trkpt lat="45.24224" lon="6.21504">
        <ele>2372.4</ele>
        <time>2021-02-27T14:32:38Z</time>
      </trkpt>
      <trkpt lat="45.24224" lon="6.21504">
        <ele>2372.8</ele>
        <time>2021-02-27T14:32:39Z</time>
      </trkpt>
      <trkpt lat="45.24223" lon="6.21507">
        <ele>2372.8</ele>
        <time>2021-02-27T14:32:40Z</time>
      </trkpt>
      <trkpt lat="45.24223" lon="6.21507">
        <ele>2373.4</ele>
        <time>2021-02-27T14:32:41Z</time>
      </trkpt>
      <trkpt lat="45.24222" lon="6.21511">
        <ele>2373.6</ele>
        <time>2021-02-27T14:32:42Z</time>
      </trkpt>
      <trkpt lat="45.24222" lon="6.21511">
        <ele>2374</ele>
        <time>2021-02-27T14:32:43Z</time>
      </trkpt>
      <trkpt lat="45.24222" lon="6.21514">
        <ele>2374</ele>
        <time>2021-02-27T14:32:44Z</time>
      </trkpt>
      <trkpt lat="45.24222" lon="6.21514">
        <ele>2374.6</ele>
        <time>2021-02-27T14:32:45Z</time>
      </trkpt>
      <trkpt lat="45.24221" lon="6.21517">
        <ele>2375</ele>
        <time>2021-02-27T14:32:46Z</time>
      </trkpt>
      <trkpt lat="45.24221" lon="6.21517">
        <ele>2375.4</ele>
        <time>2021-02-27T14:32:47Z</time>
      </trkpt>
      <trkpt lat="45.2422" lon="6.2152">
        <ele>2375.8</ele>
        <time>2021-02-27T14:32:48Z</time>
      </trkpt>
      <trkpt lat="45.2422" lon="6.2152">
        <ele>2376</ele>
        <time>2021-02-27T14:32:49Z</time>
      </trkpt>
      <trkpt lat="45.2422" lon="6.21523">
        <ele>2376</ele>
        <time>2021-02-27T14:32:50Z</time>
      </trkpt>
      <trkpt lat="45.2422" lon="6.21523">
        <ele>2375.6</ele>
        <time>2021-02-27T14:32:51Z</time>
      </trkpt>
      <trkpt lat="45.2422" lon="6.21526">
        <ele>2376.2</ele>
        <time>2021-02-27T14:32:52Z</time>
      </trkpt>
      <trkpt lat="45.2422" lon="6.21526">
        <ele>2376.4</ele>
        <time>2021-02-27T14:32:53Z</time>
      </trkpt>
      <trkpt lat="45.2422" lon="6.21526">
        <ele>2376.6</ele>
        <time>2021-02-27T14:32:54Z</time>
      </trkpt>
      <trkpt lat="45.2422" lon="6.2153">
        <ele>2376.4</ele>
        <time>2021-02-27T14:32:55Z</time>
      </trkpt>
      <trkpt lat="45.2422" lon="6.2153">
        <ele>2376.6</ele>
        <time>2021-02-27T14:32:56Z</time>
      </trkpt>
      <trkpt lat="45.2422" lon="6.2153">
        <ele>2376.6</ele>
        <time>2021-02-27T14:32:57Z</time>
      </trkpt>
      <trkpt lat="45.2422" lon="6.2153">
        <ele>2376.8</ele>
        <time>2021-02-27T14:32:58Z</time>
      </trkpt>
      <trkpt lat="45.2422" lon="6.2153">
        <ele>2376.8</ele>
        <time>2021-02-27T14:32:59Z</time>
      </trkpt>
      <trkpt lat="45.2422" lon="6.2153">
        <ele>2377</ele>
        <time>2021-02-27T14:33:00Z</time>
      </trkpt>
      <trkpt lat="45.2422" lon="6.2153">
        <ele>2377.2</ele>
        <time>2021-02-27T14:33:01Z</time>
      </trkpt>
      <trkpt lat="45.2422" lon="6.2153">
        <ele>2377</ele>
        <time>2021-02-27T14:33:02Z</time>
      </trkpt>
      <trkpt lat="45.2422" lon="6.2153">
        <ele>2377.2</ele>
        <time>2021-02-27T14:33:03Z</time>
      </trkpt>
      <trkpt lat="45.2422" lon="6.2153">
        <ele>2377.2</ele>
        <time>2021-02-27T14:33:04Z</time>
      </trkpt>
      <trkpt lat="45.24219" lon="6.21532">
        <ele>2377.2</ele>
        <time>2021-02-27T14:33:05Z</time>
      </trkpt>
      <trkpt lat="45.24219" lon="6.21532">
        <ele>2377.2</ele>
        <time>2021-02-27T14:33:06Z</time>
      </trkpt>
      <trkpt lat="45.24219" lon="6.21532">
        <ele>2377.4</ele>
        <time>2021-02-27T14:33:07Z</time>
      </trkpt>
      <trkpt lat="45.24219" lon="6.21532">
        <ele>2376.8</ele>
        <time>2021-02-27T14:33:08Z</time>
      </trkpt>
      <trkpt lat="45.24219" lon="6.21532">
        <ele>2376.8</ele>
        <time>2021-02-27T14:33:09Z</time>
      </trkpt>
      <trkpt lat="45.24219" lon="6.21532">
        <ele>2376.6</ele>
        <time>2021-02-27T14:33:10Z</time>
      </trkpt>
      <trkpt lat="45.24219" lon="6.21532">
        <ele>2376.4</ele>
        <time>2021-02-27T14:33:11Z</time>
      </trkpt>
      <trkpt lat="45.24219" lon="6.21532">
        <ele>2376.2</ele>
        <time>2021-02-27T14:33:12Z</time>
      </trkpt>
      <trkpt lat="45.24219" lon="6.21532">
        <ele>2376.2</ele>
        <time>2021-02-27T14:33:13Z</time>
      </trkpt>
      <trkpt lat="45.24219" lon="6.21532">
        <ele>2376.4</ele>
        <time>2021-02-27T14:33:14Z</time>
      </trkpt>
      <trkpt lat="45.24219" lon="6.21532">
        <ele>2376.4</ele>
        <time>2021-02-27T14:33:15Z</time>
      </trkpt>
      <trkpt lat="45.24219" lon="6.21532">
        <ele>2376.4</ele>
        <time>2021-02-27T14:33:16Z</time>
      </trkpt>
      <trkpt lat="45.24219" lon="6.21532">
        <ele>2376.2</ele>
        <time>2021-02-27T14:33:17Z</time>
      </trkpt>
      <trkpt lat="45.24219" lon="6.21532">
        <ele>2376.6</ele>
        <time>2021-02-27T14:33:18Z</time>
      </trkpt>
      <trkpt lat="45.24219" lon="6.21532">
        <ele>2375.8</ele>
        <time>2021-02-27T14:33:19Z</time>
      </trkpt>
      <trkpt lat="45.24219" lon="6.21532">
        <ele>2376</ele>
        <time>2021-02-27T14:33:20Z</time>
      </trkpt>
      <trkpt lat="45.24219" lon="6.21532">
        <ele>2375.4</ele>
        <time>2021-02-27T14:33:21Z</time>
      </trkpt>
      <trkpt lat="45.24219" lon="6.21532">
        <ele>2375.4</ele>
        <time>2021-02-27T14:33:22Z</time>
      </trkpt>
      <trkpt lat="45.24219" lon="6.21532">
        <ele>2376</ele>
        <time>2021-02-27T14:33:23Z</time>
      </trkpt>
      <trkpt lat="45.24219" lon="6.21532">
        <ele>2377</ele>
        <time>2021-02-27T14:33:24Z</time>
      </trkpt>
      <trkpt lat="45.24219" lon="6.21532">
        <ele>2378</ele>
        <time>2021-02-27T14:33:25Z</time>
      </trkpt>
      <trkpt lat="45.24219" lon="6.21532">
        <ele>2378.4</ele>
        <time>2021-02-27T14:33:26Z</time>
      </trkpt>
      <trkpt lat="45.24219" lon="6.21532">
        <ele>2378.8</ele>
        <time>2021-02-27T14:33:27Z</time>
      </trkpt>
      <trkpt lat="45.24219" lon="6.21532">
        <ele>2379.4</ele>
        <time>2021-02-27T14:33:28Z</time>
      </trkpt>
      <trkpt lat="45.24219" lon="6.21532">
        <ele>2379.6</ele>
        <time>2021-02-27T14:33:29Z</time>
      </trkpt>
      <trkpt lat="45.24219" lon="6.21532">
        <ele>2379.2</ele>
        <time>2021-02-27T14:33:30Z</time>
      </trkpt>
      <trkpt lat="45.24219" lon="6.21532">
        <ele>2378.6</ele>
        <time>2021-02-27T14:33:31Z</time>
      </trkpt>
      <trkpt lat="45.24219" lon="6.21532">
        <ele>2379.6</ele>
        <time>2021-02-27T14:33:32Z</time>
      </trkpt>
      <trkpt lat="45.24219" lon="6.21532">
        <ele>2379.6</ele>
        <time>2021-02-27T14:33:33Z</time>
      </trkpt>
      <trkpt lat="45.24219" lon="6.21532">
        <ele>2379.8</ele>
        <time>2021-02-27T14:33:34Z</time>
      </trkpt>
      <trkpt lat="45.24219" lon="6.21532">
        <ele>2379.8</ele>
        <time>2021-02-27T14:33:35Z</time>
      </trkpt>
      <trkpt lat="45.24219" lon="6.21532">
        <ele>2379.8</ele>
        <time>2021-02-27T14:33:36Z</time>
      </trkpt>
      <trkpt lat="45.24219" lon="6.21532">
        <ele>2380</ele>
        <time>2021-02-27T14:33:37Z</time>
      </trkpt>
      <trkpt lat="45.24219" lon="6.21532">
        <ele>2380</ele>
        <time>2021-02-27T14:33:38Z</time>
      </trkpt>
      <trkpt lat="45.24219" lon="6.21532">
        <ele>2380</ele>
        <time>2021-02-27T14:33:39Z</time>
      </trkpt>
      <trkpt lat="45.24219" lon="6.21532">
        <ele>2380.4</ele>
        <time>2021-02-27T14:33:40Z</time>
      </trkpt>
      <trkpt lat="45.24219" lon="6.21532">
        <ele>2381</ele>
        <time>2021-02-27T14:33:41Z</time>
      </trkpt>
      <trkpt lat="45.24219" lon="6.21532">
        <ele>2380</ele>
        <time>2021-02-27T14:33:43Z</time>
      </trkpt>
      <trkpt lat="45.24219" lon="6.21532">
        <ele>2379.6</ele>
        <time>2021-02-27T14:33:44Z</time>
      </trkpt>
      <trkpt lat="45.24219" lon="6.21532">
        <ele>2379.2</ele>
        <time>2021-02-27T14:33:45Z</time>
      </trkpt>
      <trkpt lat="45.24219" lon="6.21532">
        <ele>2378.4</ele>
        <time>2021-02-27T14:33:46Z</time>
      </trkpt>
      <trkpt lat="45.24219" lon="6.21532">
        <ele>2378.2</ele>
        <time>2021-02-27T14:33:47Z</time>
      </trkpt>
      <trkpt lat="45.24217" lon="6.21533">
        <ele>2377.6</ele>
        <time>2021-02-27T14:33:48Z</time>
      </trkpt>
      <trkpt lat="45.24217" lon="6.21533">
        <ele>2377</ele>
        <time>2021-02-27T14:33:49Z</time>
      </trkpt>
      <trkpt lat="45.24217" lon="6.21533">
        <ele>2377</ele>
        <time>2021-02-27T14:33:50Z</time>
      </trkpt>
      <trkpt lat="45.24217" lon="6.21533">
        <ele>2376.8</ele>
        <time>2021-02-27T14:33:51Z</time>
      </trkpt>
      <trkpt lat="45.24217" lon="6.21533">
        <ele>2376.2</ele>
        <time>2021-02-27T14:33:52Z</time>
      </trkpt>
      <trkpt lat="45.24217" lon="6.21533">
        <ele>2376.6</ele>
        <time>2021-02-27T14:33:53Z</time>
      </trkpt>
      <trkpt lat="45.24217" lon="6.21533">
        <ele>2376.8</ele>
        <time>2021-02-27T14:33:54Z</time>
      </trkpt>
      <trkpt lat="45.24217" lon="6.21533">
        <ele>2377.6</ele>
        <time>2021-02-27T14:33:55Z</time>
      </trkpt>
      <trkpt lat="45.24217" lon="6.21533">
        <ele>2377.8</ele>
        <time>2021-02-27T14:33:56Z</time>
      </trkpt>
      <trkpt lat="45.24217" lon="6.21533">
        <ele>2378</ele>
        <time>2021-02-27T14:33:57Z</time>
      </trkpt>
      <trkpt lat="45.24217" lon="6.21533">
        <ele>2378.2</ele>
        <time>2021-02-27T14:33:58Z</time>
      </trkpt>
      <trkpt lat="45.24217" lon="6.21533">
        <ele>2378</ele>
        <time>2021-02-27T14:33:59Z</time>
      </trkpt>
      <trkpt lat="45.24217" lon="6.21533">
        <ele>2378.4</ele>
        <time>2021-02-27T14:34:00Z</time>
      </trkpt>
      <trkpt lat="45.24217" lon="6.21533">
        <ele>2378.6</ele>
        <time>2021-02-27T14:34:01Z</time>
      </trkpt>
      <trkpt lat="45.24217" lon="6.21533">
        <ele>2378</ele>
        <time>2021-02-27T14:34:02Z</time>
      </trkpt>
      <trkpt lat="45.24217" lon="6.21533">
        <ele>2377.8</ele>
        <time>2021-02-27T14:34:03Z</time>
      </trkpt>
      <trkpt lat="45.24217" lon="6.21533">
        <ele>2378</ele>
        <time>2021-02-27T14:34:04Z</time>
      </trkpt>
      <trkpt lat="45.24217" lon="6.21533">
        <ele>2377.8</ele>
        <time>2021-02-27T14:34:05Z</time>
      </trkpt>
      <trkpt lat="45.24217" lon="6.21533">
        <ele>2377.8</ele>
        <time>2021-02-27T14:34:06Z</time>
      </trkpt>
      <trkpt lat="45.24217" lon="6.21533">
        <ele>2377.6</ele>
        <time>2021-02-27T14:34:07Z</time>
      </trkpt>
      <trkpt lat="45.24217" lon="6.21533">
        <ele>2377.8</ele>
        <time>2021-02-27T14:34:08Z</time>
      </trkpt>
      <trkpt lat="45.24217" lon="6.21533">
        <ele>2377.4</ele>
        <time>2021-02-27T14:34:09Z</time>
      </trkpt>
      <trkpt lat="45.24217" lon="6.21533">
        <ele>2377.4</ele>
        <time>2021-02-27T14:34:10Z</time>
      </trkpt>
      <trkpt lat="45.24217" lon="6.21533">
        <ele>2377.8</ele>
        <time>2021-02-27T14:34:11Z</time>
      </trkpt>
      <trkpt lat="45.24217" lon="6.21533">
        <ele>2377.6</ele>
        <time>2021-02-27T14:34:12Z</time>
      </trkpt>
      <trkpt lat="45.24216" lon="6.21535">
        <ele>2377.6</ele>
        <time>2021-02-27T14:34:13Z</time>
      </trkpt>
      <trkpt lat="45.24216" lon="6.21535">
        <ele>2377.4</ele>
        <time>2021-02-27T14:34:14Z</time>
      </trkpt>
      <trkpt lat="45.24216" lon="6.21535">
        <ele>2377.4</ele>
        <time>2021-02-27T14:34:15Z</time>
      </trkpt>
      <trkpt lat="45.24216" lon="6.21535">
        <ele>2376.8</ele>
        <time>2021-02-27T14:34:16Z</time>
      </trkpt>
      <trkpt lat="45.24216" lon="6.21535">
        <ele>2376.8</ele>
        <time>2021-02-27T14:34:17Z</time>
      </trkpt>
      <trkpt lat="45.24216" lon="6.21535">
        <ele>2377.6</ele>
        <time>2021-02-27T14:34:18Z</time>
      </trkpt>
      <trkpt lat="45.24216" lon="6.21535">
        <ele>2378</ele>
        <time>2021-02-27T14:34:19Z</time>
      </trkpt>
      <trkpt lat="45.24216" lon="6.21535">
        <ele>2377.4</ele>
        <time>2021-02-27T14:34:20Z</time>
      </trkpt>
      <trkpt lat="45.24216" lon="6.21535">
        <ele>2378</ele>
        <time>2021-02-27T14:34:21Z</time>
      </trkpt>
      <trkpt lat="45.24216" lon="6.21535">
        <ele>2378.2</ele>
        <time>2021-02-27T14:34:22Z</time>
      </trkpt>
      <trkpt lat="45.24216" lon="6.21535">
        <ele>2378</ele>
        <time>2021-02-27T14:34:23Z</time>
      </trkpt>
      <trkpt lat="45.24216" lon="6.21535">
        <ele>2377.4</ele>
        <time>2021-02-27T14:34:24Z</time>
      </trkpt>
      <trkpt lat="45.24216" lon="6.21535">
        <ele>2377.4</ele>
        <time>2021-02-27T14:34:25Z</time>
      </trkpt>
      <trkpt lat="45.24216" lon="6.21535">
        <ele>2377.6</ele>
        <time>2021-02-27T14:34:26Z</time>
      </trkpt>
      <trkpt lat="45.24216" lon="6.21535">
        <ele>2377.6</ele>
        <time>2021-02-27T14:34:27Z</time>
      </trkpt>
      <trkpt lat="45.24216" lon="6.21535">
        <ele>2377.4</ele>
        <time>2021-02-27T14:34:28Z</time>
      </trkpt>
      <trkpt lat="45.24216" lon="6.21535">
        <ele>2377.8</ele>
        <time>2021-02-27T14:34:29Z</time>
      </trkpt>
      <trkpt lat="45.24216" lon="6.21535">
        <ele>2378</ele>
        <time>2021-02-27T14:34:30Z</time>
      </trkpt>
      <trkpt lat="45.24216" lon="6.21535">
        <ele>2378</ele>
        <time>2021-02-27T14:34:31Z</time>
      </trkpt>
      <trkpt lat="45.24216" lon="6.21535">
        <ele>2378.2</ele>
        <time>2021-02-27T14:34:32Z</time>
      </trkpt>
      <trkpt lat="45.24216" lon="6.21535">
        <ele>2378.2</ele>
        <time>2021-02-27T14:34:33Z</time>
      </trkpt>
      <trkpt lat="45.24216" lon="6.21535">
        <ele>2378</ele>
        <time>2021-02-27T14:34:34Z</time>
      </trkpt>
      <trkpt lat="45.24216" lon="6.21535">
        <ele>2378.4</ele>
        <time>2021-02-27T14:34:35Z</time>
      </trkpt>
      <trkpt lat="45.24216" lon="6.21535">
        <ele>2378.4</ele>
        <time>2021-02-27T14:34:36Z</time>
      </trkpt>
      <trkpt lat="45.24216" lon="6.21535">
        <ele>2379.2</ele>
        <time>2021-02-27T14:34:37Z</time>
      </trkpt>
      <trkpt lat="45.24216" lon="6.21535">
        <ele>2379.8</ele>
        <time>2021-02-27T14:34:38Z</time>
      </trkpt>
      <trkpt lat="45.24216" lon="6.21535">
        <ele>2380</ele>
        <time>2021-02-27T14:34:39Z</time>
      </trkpt>
      <trkpt lat="45.24214" lon="6.21535">
        <ele>2379.4</ele>
        <time>2021-02-27T14:34:40Z</time>
      </trkpt>
      <trkpt lat="45.24214" lon="6.21535">
        <ele>2378.6</ele>
        <time>2021-02-27T14:34:41Z</time>
      </trkpt>
      <trkpt lat="45.24214" lon="6.21535">
        <ele>2378</ele>
        <time>2021-02-27T14:34:42Z</time>
      </trkpt>
      <trkpt lat="45.24213" lon="6.21537">
        <ele>2377.2</ele>
        <time>2021-02-27T14:34:43Z</time>
      </trkpt>
      <trkpt lat="45.24213" lon="6.21537">
        <ele>2376.8</ele>
        <time>2021-02-27T14:34:44Z</time>
      </trkpt>
      <trkpt lat="45.24211" lon="6.21539">
        <ele>2377.2</ele>
        <time>2021-02-27T14:34:45Z</time>
      </trkpt>
      <trkpt lat="45.2421" lon="6.21541">
        <ele>2376.6</ele>
        <time>2021-02-27T14:34:46Z</time>
      </trkpt>
      <trkpt lat="45.24208" lon="6.21543">
        <ele>2376.2</ele>
        <time>2021-02-27T14:34:47Z</time>
      </trkpt>
      <trkpt lat="45.24207" lon="6.21545">
        <ele>2376.4</ele>
        <time>2021-02-27T14:34:48Z</time>
      </trkpt>
      <trkpt lat="45.24205" lon="6.21547">
        <ele>2376.2</ele>
        <time>2021-02-27T14:34:49Z</time>
      </trkpt>
      <trkpt lat="45.24205" lon="6.21547">
        <ele>2375.8</ele>
        <time>2021-02-27T14:34:50Z</time>
      </trkpt>
      <trkpt lat="45.24203" lon="6.2155">
        <ele>2375.6</ele>
        <time>2021-02-27T14:34:51Z</time>
      </trkpt>
      <trkpt lat="45.24203" lon="6.2155">
        <ele>2375.6</ele>
        <time>2021-02-27T14:34:52Z</time>
      </trkpt>
      <trkpt lat="45.24201" lon="6.21552">
        <ele>2376</ele>
        <time>2021-02-27T14:34:53Z</time>
      </trkpt>
      <trkpt lat="45.24201" lon="6.21552">
        <ele>2375.8</ele>
        <time>2021-02-27T14:34:54Z</time>
      </trkpt>
      <trkpt lat="45.24199" lon="6.21554">
        <ele>2376.6</ele>
        <time>2021-02-27T14:34:55Z</time>
      </trkpt>
      <trkpt lat="45.24199" lon="6.21554">
        <ele>2376</ele>
        <time>2021-02-27T14:34:56Z</time>
      </trkpt>
      <trkpt lat="45.24197" lon="6.21557">
        <ele>2375.6</ele>
        <time>2021-02-27T14:34:57Z</time>
      </trkpt>
      <trkpt lat="45.24197" lon="6.21557">
        <ele>2375.2</ele>
        <time>2021-02-27T14:34:58Z</time>
      </trkpt>
      <trkpt lat="45.24195" lon="6.21561">
        <ele>2374.6</ele>
        <time>2021-02-27T14:34:59Z</time>
      </trkpt>
      <trkpt lat="45.24193" lon="6.21563">
        <ele>2374</ele>
        <time>2021-02-27T14:35:00Z</time>
      </trkpt>
      <trkpt lat="45.24191" lon="6.21565">
        <ele>2374</ele>
        <time>2021-02-27T14:35:01Z</time>
      </trkpt>
      <trkpt lat="45.24189" lon="6.21568">
        <ele>2373.6</ele>
        <time>2021-02-27T14:35:02Z</time>
      </trkpt>
      <trkpt lat="45.24186" lon="6.21572">
        <ele>2373.8</ele>
        <time>2021-02-27T14:35:03Z</time>
      </trkpt>
      <trkpt lat="45.24184" lon="6.21575">
        <ele>2373.8</ele>
        <time>2021-02-27T14:35:04Z</time>
      </trkpt>
      <trkpt lat="45.24181" lon="6.21578">
        <ele>2373.4</ele>
        <time>2021-02-27T14:35:05Z</time>
      </trkpt>
      <trkpt lat="45.24178" lon="6.21583">
        <ele>2373</ele>
        <time>2021-02-27T14:35:06Z</time>
      </trkpt>
      <trkpt lat="45.24175" lon="6.21587">
        <ele>2372</ele>
        <time>2021-02-27T14:35:07Z</time>
      </trkpt>
      <trkpt lat="45.24172" lon="6.21592">
        <ele>2371.2</ele>
        <time>2021-02-27T14:35:08Z</time>
      </trkpt>
      <trkpt lat="45.24169" lon="6.21597">
        <ele>2370.2</ele>
        <time>2021-02-27T14:35:09Z</time>
      </trkpt>
      <trkpt lat="45.24166" lon="6.21602">
        <ele>2369.4</ele>
        <time>2021-02-27T14:35:10Z</time>
      </trkpt>
      <trkpt lat="45.24163" lon="6.21607">
        <ele>2368.8</ele>
        <time>2021-02-27T14:35:11Z</time>
      </trkpt>
      <trkpt lat="45.2416" lon="6.21612">
        <ele>2368</ele>
        <time>2021-02-27T14:35:12Z</time>
      </trkpt>
      <trkpt lat="45.24158" lon="6.21617">
        <ele>2367</ele>
        <time>2021-02-27T14:35:13Z</time>
      </trkpt>
      <trkpt lat="45.24156" lon="6.21621">
        <ele>2366.2</ele>
        <time>2021-02-27T14:35:14Z</time>
      </trkpt>
      <trkpt lat="45.24154" lon="6.21625">
        <ele>2365.2</ele>
        <time>2021-02-27T14:35:15Z</time>
      </trkpt>
      <trkpt lat="45.24152" lon="6.21628">
        <ele>2365</ele>
        <time>2021-02-27T14:35:16Z</time>
      </trkpt>
      <trkpt lat="45.2415" lon="6.21632">
        <ele>2364.8</ele>
        <time>2021-02-27T14:35:17Z</time>
      </trkpt>
      <trkpt lat="45.24148" lon="6.21635">
        <ele>2364.4</ele>
        <time>2021-02-27T14:35:18Z</time>
      </trkpt>
      <trkpt lat="45.24146" lon="6.21639">
        <ele>2364</ele>
        <time>2021-02-27T14:35:19Z</time>
      </trkpt>
      <trkpt lat="45.24143" lon="6.21644">
        <ele>2363.4</ele>
        <time>2021-02-27T14:35:20Z</time>
      </trkpt>
      <trkpt lat="45.24139" lon="6.21649">
        <ele>2362.6</ele>
        <time>2021-02-27T14:35:21Z</time>
      </trkpt>
      <trkpt lat="45.24135" lon="6.21656">
        <ele>2362</ele>
        <time>2021-02-27T14:35:22Z</time>
      </trkpt>
      <trkpt lat="45.24131" lon="6.21662">
        <ele>2361</ele>
        <time>2021-02-27T14:35:23Z</time>
      </trkpt>
      <trkpt lat="45.24128" lon="6.21669">
        <ele>2360</ele>
        <time>2021-02-27T14:35:24Z</time>
      </trkpt>
      <trkpt lat="45.24125" lon="6.21675">
        <ele>2359.4</ele>
        <time>2021-02-27T14:35:25Z</time>
      </trkpt>
      <trkpt lat="45.24123" lon="6.21681">
        <ele>2358.8</ele>
        <time>2021-02-27T14:35:26Z</time>
      </trkpt>
      <trkpt lat="45.24121" lon="6.21688">
        <ele>2358</ele>
        <time>2021-02-27T14:35:27Z</time>
      </trkpt>
      <trkpt lat="45.24118" lon="6.21694">
        <ele>2357.6</ele>
        <time>2021-02-27T14:35:28Z</time>
      </trkpt>
      <trkpt lat="45.24116" lon="6.21701">
        <ele>2357</ele>
        <time>2021-02-27T14:35:29Z</time>
      </trkpt>
      <trkpt lat="45.24113" lon="6.21708">
        <ele>2356.8</ele>
        <time>2021-02-27T14:35:30Z</time>
      </trkpt>
      <trkpt lat="45.24111" lon="6.21714">
        <ele>2356</ele>
        <time>2021-02-27T14:35:31Z</time>
      </trkpt>
      <trkpt lat="45.24109" lon="6.21721">
        <ele>2355.4</ele>
        <time>2021-02-27T14:35:32Z</time>
      </trkpt>
      <trkpt lat="45.24107" lon="6.21727">
        <ele>2354.8</ele>
        <time>2021-02-27T14:35:33Z</time>
      </trkpt>
      <trkpt lat="45.24105" lon="6.21732">
        <ele>2354.6</ele>
        <time>2021-02-27T14:35:34Z</time>
      </trkpt>
      <trkpt lat="45.24103" lon="6.21737">
        <ele>2354.4</ele>
        <time>2021-02-27T14:35:35Z</time>
      </trkpt>
      <trkpt lat="45.24102" lon="6.21742">
        <ele>2353.8</ele>
        <time>2021-02-27T14:35:36Z</time>
      </trkpt>
      <trkpt lat="45.241" lon="6.21746">
        <ele>2353.6</ele>
        <time>2021-02-27T14:35:37Z</time>
      </trkpt>
      <trkpt lat="45.24099" lon="6.2175">
        <ele>2353.6</ele>
        <time>2021-02-27T14:35:38Z</time>
      </trkpt>
      <trkpt lat="45.24098" lon="6.21754">
        <ele>2353.6</ele>
        <time>2021-02-27T14:35:39Z</time>
      </trkpt>
      <trkpt lat="45.24096" lon="6.21757">
        <ele>2353</ele>
        <time>2021-02-27T14:35:40Z</time>
      </trkpt>
      <trkpt lat="45.24094" lon="6.21761">
        <ele>2353</ele>
        <time>2021-02-27T14:35:41Z</time>
      </trkpt>
      <trkpt lat="45.24092" lon="6.21766">
        <ele>2352.6</ele>
        <time>2021-02-27T14:35:42Z</time>
      </trkpt>
      <trkpt lat="45.2409" lon="6.21771">
        <ele>2352.2</ele>
        <time>2021-02-27T14:35:43Z</time>
      </trkpt>
      <trkpt lat="45.24087" lon="6.21777">
        <ele>2352</ele>
        <time>2021-02-27T14:35:44Z</time>
      </trkpt>
      <trkpt lat="45.24084" lon="6.21784">
        <ele>2351.2</ele>
        <time>2021-02-27T14:35:45Z</time>
      </trkpt>
      <trkpt lat="45.24081" lon="6.21792">
        <ele>2350.6</ele>
        <time>2021-02-27T14:35:46Z</time>
      </trkpt>
      <trkpt lat="45.24077" lon="6.218">
        <ele>2349.8</ele>
        <time>2021-02-27T14:35:47Z</time>
      </trkpt>
      <trkpt lat="45.24074" lon="6.21809">
        <ele>2348.6</ele>
        <time>2021-02-27T14:35:48Z</time>
      </trkpt>
      <trkpt lat="45.24071" lon="6.21818">
        <ele>2346.6</ele>
        <time>2021-02-27T14:35:49Z</time>
      </trkpt>
      <trkpt lat="45.24069" lon="6.21826">
        <ele>2345.8</ele>
        <time>2021-02-27T14:35:50Z</time>
      </trkpt>
      <trkpt lat="45.24066" lon="6.21834">
        <ele>2345</ele>
        <time>2021-02-27T14:35:51Z</time>
      </trkpt>
      <trkpt lat="45.24062" lon="6.21842">
        <ele>2343.8</ele>
        <time>2021-02-27T14:35:52Z</time>
      </trkpt>
      <trkpt lat="45.24059" lon="6.2185">
        <ele>2342.8</ele>
        <time>2021-02-27T14:35:53Z</time>
      </trkpt>
      <trkpt lat="45.24056" lon="6.21858">
        <ele>2342</ele>
        <time>2021-02-27T14:35:54Z</time>
      </trkpt>
      <trkpt lat="45.24053" lon="6.21866">
        <ele>2341.4</ele>
        <time>2021-02-27T14:35:55Z</time>
      </trkpt>
      <trkpt lat="45.2405" lon="6.21874">
        <ele>2340.4</ele>
        <time>2021-02-27T14:35:56Z</time>
      </trkpt>
      <trkpt lat="45.24047" lon="6.21883">
        <ele>2339.8</ele>
        <time>2021-02-27T14:35:57Z</time>
      </trkpt>
      <trkpt lat="45.24044" lon="6.21892">
        <ele>2339</ele>
        <time>2021-02-27T14:35:58Z</time>
      </trkpt>
      <trkpt lat="45.24042" lon="6.21901">
        <ele>2337.8</ele>
        <time>2021-02-27T14:35:59Z</time>
      </trkpt>
      <trkpt lat="45.2404" lon="6.21909">
        <ele>2337</ele>
        <time>2021-02-27T14:36:00Z</time>
      </trkpt>
      <trkpt lat="45.24039" lon="6.21916">
        <ele>2336.2</ele>
        <time>2021-02-27T14:36:01Z</time>
      </trkpt>
      <trkpt lat="45.24038" lon="6.21923">
        <ele>2335.6</ele>
        <time>2021-02-27T14:36:02Z</time>
      </trkpt>
      <trkpt lat="45.24037" lon="6.2193">
        <ele>2335.2</ele>
        <time>2021-02-27T14:36:03Z</time>
      </trkpt>
      <trkpt lat="45.24037" lon="6.21937">
        <ele>2334.6</ele>
        <time>2021-02-27T14:36:04Z</time>
      </trkpt>
      <trkpt lat="45.24036" lon="6.21945">
        <ele>2334</ele>
        <time>2021-02-27T14:36:05Z</time>
      </trkpt>
      <trkpt lat="45.24035" lon="6.21954">
        <ele>2333.8</ele>
        <time>2021-02-27T14:36:06Z</time>
      </trkpt>
      <trkpt lat="45.24035" lon="6.21962">
        <ele>2332.8</ele>
        <time>2021-02-27T14:36:07Z</time>
      </trkpt>
      <trkpt lat="45.24034" lon="6.2197">
        <ele>2332</ele>
        <time>2021-02-27T14:36:08Z</time>
      </trkpt>
      <trkpt lat="45.24034" lon="6.21977">
        <ele>2330.8</ele>
        <time>2021-02-27T14:36:09Z</time>
      </trkpt>
      <trkpt lat="45.24034" lon="6.21984">
        <ele>2330.2</ele>
        <time>2021-02-27T14:36:10Z</time>
      </trkpt>
      <trkpt lat="45.24033" lon="6.21991">
        <ele>2329.6</ele>
        <time>2021-02-27T14:36:11Z</time>
      </trkpt>
      <trkpt lat="45.24033" lon="6.21998">
        <ele>2328.8</ele>
        <time>2021-02-27T14:36:12Z</time>
      </trkpt>
      <trkpt lat="45.24033" lon="6.22005">
        <ele>2328.4</ele>
        <time>2021-02-27T14:36:13Z</time>
      </trkpt>
      <trkpt lat="45.24032" lon="6.22013">
        <ele>2328</ele>
        <time>2021-02-27T14:36:14Z</time>
      </trkpt>
      <trkpt lat="45.2403" lon="6.2202">
        <ele>2327.4</ele>
        <time>2021-02-27T14:36:15Z</time>
      </trkpt>
      <trkpt lat="45.24028" lon="6.22027">
        <ele>2326.8</ele>
        <time>2021-02-27T14:36:16Z</time>
      </trkpt>
      <trkpt lat="45.24026" lon="6.22034">
        <ele>2326</ele>
        <time>2021-02-27T14:36:17Z</time>
      </trkpt>
      <trkpt lat="45.24024" lon="6.22041">
        <ele>2325.2</ele>
        <time>2021-02-27T14:36:18Z</time>
      </trkpt>
      <trkpt lat="45.24023" lon="6.22048">
        <ele>2324.4</ele>
        <time>2021-02-27T14:36:19Z</time>
      </trkpt>
      <trkpt lat="45.2402" lon="6.22055">
        <ele>2324</ele>
        <time>2021-02-27T14:36:20Z</time>
      </trkpt>
      <trkpt lat="45.24019" lon="6.22063">
        <ele>2323</ele>
        <time>2021-02-27T14:36:21Z</time>
      </trkpt>
      <trkpt lat="45.24018" lon="6.22071">
        <ele>2322.4</ele>
        <time>2021-02-27T14:36:22Z</time>
      </trkpt>
      <trkpt lat="45.24018" lon="6.22079">
        <ele>2321.6</ele>
        <time>2021-02-27T14:36:23Z</time>
      </trkpt>
      <trkpt lat="45.24019" lon="6.22085">
        <ele>2320.4</ele>
        <time>2021-02-27T14:36:24Z</time>
      </trkpt>
      <trkpt lat="45.24019" lon="6.22091">
        <ele>2319.8</ele>
        <time>2021-02-27T14:36:25Z</time>
      </trkpt>
      <trkpt lat="45.2402" lon="6.22097">
        <ele>2319.6</ele>
        <time>2021-02-27T14:36:26Z</time>
      </trkpt>
      <trkpt lat="45.24021" lon="6.22103">
        <ele>2319</ele>
        <time>2021-02-27T14:36:27Z</time>
      </trkpt>
      <trkpt lat="45.24021" lon="6.22109">
        <ele>2318.2</ele>
        <time>2021-02-27T14:36:28Z</time>
      </trkpt>
      <trkpt lat="45.24021" lon="6.22116">
        <ele>2317.8</ele>
        <time>2021-02-27T14:36:29Z</time>
      </trkpt>
      <trkpt lat="45.2402" lon="6.22123">
        <ele>2317</ele>
        <time>2021-02-27T14:36:30Z</time>
      </trkpt>
      <trkpt lat="45.2402" lon="6.22131">
        <ele>2316.8</ele>
        <time>2021-02-27T14:36:31Z</time>
      </trkpt>
      <trkpt lat="45.2402" lon="6.22139">
        <ele>2316.2</ele>
        <time>2021-02-27T14:36:32Z</time>
      </trkpt>
      <trkpt lat="45.24019" lon="6.22147">
        <ele>2315</ele>
        <time>2021-02-27T14:36:33Z</time>
      </trkpt>
      <trkpt lat="45.24018" lon="6.22155">
        <ele>2314</ele>
        <time>2021-02-27T14:36:34Z</time>
      </trkpt>
      <trkpt lat="45.24018" lon="6.22164">
        <ele>2312.6</ele>
        <time>2021-02-27T14:36:35Z</time>
      </trkpt>
      <trkpt lat="45.24017" lon="6.22171">
        <ele>2311</ele>
        <time>2021-02-27T14:36:36Z</time>
      </trkpt>
      <trkpt lat="45.24017" lon="6.22179">
        <ele>2310.4</ele>
        <time>2021-02-27T14:36:37Z</time>
      </trkpt>
      <trkpt lat="45.24018" lon="6.22187">
        <ele>2309.4</ele>
        <time>2021-02-27T14:36:38Z</time>
      </trkpt>
      <trkpt lat="45.24018" lon="6.22194">
        <ele>2309.4</ele>
        <time>2021-02-27T14:36:39Z</time>
      </trkpt>
      <trkpt lat="45.24018" lon="6.22202">
        <ele>2308.4</ele>
        <time>2021-02-27T14:36:40Z</time>
      </trkpt>
      <trkpt lat="45.24018" lon="6.2221">
        <ele>2308</ele>
        <time>2021-02-27T14:36:41Z</time>
      </trkpt>
      <trkpt lat="45.24018" lon="6.22219">
        <ele>2307.6</ele>
        <time>2021-02-27T14:36:42Z</time>
      </trkpt>
      <trkpt lat="45.24017" lon="6.22227">
        <ele>2306.4</ele>
        <time>2021-02-27T14:36:43Z</time>
      </trkpt>
      <trkpt lat="45.24017" lon="6.22227">
        <ele>2305.4</ele>
        <time>2021-02-27T14:36:44Z</time>
      </trkpt>
      <trkpt lat="45.24015" lon="6.22248">
        <ele>2306.4</ele>
        <time>2021-02-27T14:36:45Z</time>
      </trkpt>
      <trkpt lat="45.24014" lon="6.22251">
        <ele>2304.8</ele>
        <time>2021-02-27T14:36:46Z</time>
      </trkpt>
      <trkpt lat="45.24012" lon="6.22259">
        <ele>2303.4</ele>
        <time>2021-02-27T14:36:47Z</time>
      </trkpt>
      <trkpt lat="45.24007" lon="6.22266">
        <ele>2302</ele>
        <time>2021-02-27T14:36:48Z</time>
      </trkpt>
      <trkpt lat="45.24003" lon="6.22272">
        <ele>2301</ele>
        <time>2021-02-27T14:36:49Z</time>
      </trkpt>
      <trkpt lat="45.24" lon="6.22278">
        <ele>2300.2</ele>
        <time>2021-02-27T14:36:50Z</time>
      </trkpt>
      <trkpt lat="45.23996" lon="6.22284">
        <ele>2299</ele>
        <time>2021-02-27T14:36:51Z</time>
      </trkpt>
      <trkpt lat="45.23993" lon="6.22287">
        <ele>2298</ele>
        <time>2021-02-27T14:36:52Z</time>
      </trkpt>
      <trkpt lat="45.2399" lon="6.22292">
        <ele>2297.2</ele>
        <time>2021-02-27T14:36:53Z</time>
      </trkpt>
      <trkpt lat="45.23988" lon="6.22298">
        <ele>2296.4</ele>
        <time>2021-02-27T14:36:54Z</time>
      </trkpt>
      <trkpt lat="45.23986" lon="6.22308">
        <ele>2294.8</ele>
        <time>2021-02-27T14:36:55Z</time>
      </trkpt>
      <trkpt lat="45.23985" lon="6.22318">
        <ele>2293.4</ele>
        <time>2021-02-27T14:36:56Z</time>
      </trkpt>
      <trkpt lat="45.23984" lon="6.22328">
        <ele>2291.6</ele>
        <time>2021-02-27T14:36:57Z</time>
      </trkpt>
      <trkpt lat="45.23983" lon="6.22337">
        <ele>2290.2</ele>
        <time>2021-02-27T14:36:58Z</time>
      </trkpt>
      <trkpt lat="45.23982" lon="6.22345">
        <ele>2289</ele>
        <time>2021-02-27T14:36:59Z</time>
      </trkpt>
      <trkpt lat="45.23981" lon="6.22352">
        <ele>2288</ele>
        <time>2021-02-27T14:37:00Z</time>
      </trkpt>
      <trkpt lat="45.2398" lon="6.22358">
        <ele>2287.2</ele>
        <time>2021-02-27T14:37:01Z</time>
      </trkpt>
      <trkpt lat="45.23978" lon="6.22365">
        <ele>2286.4</ele>
        <time>2021-02-27T14:37:02Z</time>
      </trkpt>
      <trkpt lat="45.23977" lon="6.22373">
        <ele>2286</ele>
        <time>2021-02-27T14:37:03Z</time>
      </trkpt>
      <trkpt lat="45.23976" lon="6.22381">
        <ele>2285</ele>
        <time>2021-02-27T14:37:04Z</time>
      </trkpt>
      <trkpt lat="45.23974" lon="6.2239">
        <ele>2284</ele>
        <time>2021-02-27T14:37:05Z</time>
      </trkpt>
      <trkpt lat="45.23972" lon="6.224">
        <ele>2283.2</ele>
        <time>2021-02-27T14:37:06Z</time>
      </trkpt>
      <trkpt lat="45.2397" lon="6.2241">
        <ele>2281.6</ele>
        <time>2021-02-27T14:37:07Z</time>
      </trkpt>
      <trkpt lat="45.23969" lon="6.22419">
        <ele>2280.8</ele>
        <time>2021-02-27T14:37:08Z</time>
      </trkpt>
      <trkpt lat="45.23968" lon="6.22429">
        <ele>2279.4</ele>
        <time>2021-02-27T14:37:09Z</time>
      </trkpt>
      <trkpt lat="45.23966" lon="6.22437">
        <ele>2278.2</ele>
        <time>2021-02-27T14:37:10Z</time>
      </trkpt>
      <trkpt lat="45.23964" lon="6.22446">
        <ele>2277.6</ele>
        <time>2021-02-27T14:37:11Z</time>
      </trkpt>
      <trkpt lat="45.23961" lon="6.22454">
        <ele>2276.6</ele>
        <time>2021-02-27T14:37:12Z</time>
      </trkpt>
      <trkpt lat="45.23957" lon="6.2246">
        <ele>2276</ele>
        <time>2021-02-27T14:37:13Z</time>
      </trkpt>
      <trkpt lat="45.23955" lon="6.22466">
        <ele>2275.4</ele>
        <time>2021-02-27T14:37:14Z</time>
      </trkpt>
      <trkpt lat="45.23951" lon="6.22472">
        <ele>2274.6</ele>
        <time>2021-02-27T14:37:15Z</time>
      </trkpt>
      <trkpt lat="45.23947" lon="6.22478">
        <ele>2274.2</ele>
        <time>2021-02-27T14:37:16Z</time>
      </trkpt>
      <trkpt lat="45.23943" lon="6.22484">
        <ele>2273.4</ele>
        <time>2021-02-27T14:37:17Z</time>
      </trkpt>
      <trkpt lat="45.2394" lon="6.2249">
        <ele>2272.4</ele>
        <time>2021-02-27T14:37:18Z</time>
      </trkpt>
      <trkpt lat="45.23937" lon="6.22495">
        <ele>2271.6</ele>
        <time>2021-02-27T14:37:19Z</time>
      </trkpt>
      <trkpt lat="45.23935" lon="6.22499">
        <ele>2271.2</ele>
        <time>2021-02-27T14:37:20Z</time>
      </trkpt>
      <trkpt lat="45.23933" lon="6.22503">
        <ele>2271</ele>
        <time>2021-02-27T14:37:21Z</time>
      </trkpt>
      <trkpt lat="45.2393" lon="6.22507">
        <ele>2270.6</ele>
        <time>2021-02-27T14:37:22Z</time>
      </trkpt>
      <trkpt lat="45.23927" lon="6.22513">
        <ele>2270.2</ele>
        <time>2021-02-27T14:37:23Z</time>
      </trkpt>
      <trkpt lat="45.23923" lon="6.22519">
        <ele>2269.8</ele>
        <time>2021-02-27T14:37:24Z</time>
      </trkpt>
      <trkpt lat="45.23919" lon="6.22527">
        <ele>2269.4</ele>
        <time>2021-02-27T14:37:25Z</time>
      </trkpt>
      <trkpt lat="45.23913" lon="6.22537">
        <ele>2268.2</ele>
        <time>2021-02-27T14:37:26Z</time>
      </trkpt>
      <trkpt lat="45.23907" lon="6.22548">
        <ele>2265.8</ele>
        <time>2021-02-27T14:37:27Z</time>
      </trkpt>
      <trkpt lat="45.23901" lon="6.2256">
        <ele>2263.4</ele>
        <time>2021-02-27T14:37:28Z</time>
      </trkpt>
      <trkpt lat="45.23895" lon="6.22573">
        <ele>2261.4</ele>
        <time>2021-02-27T14:37:29Z</time>
      </trkpt>
      <trkpt lat="45.2389" lon="6.22588">
        <ele>2258.8</ele>
        <time>2021-02-27T14:37:30Z</time>
      </trkpt>
      <trkpt lat="45.23886" lon="6.22602">
        <ele>2256.8</ele>
        <time>2021-02-27T14:37:31Z</time>
      </trkpt>
      <trkpt lat="45.23883" lon="6.22616">
        <ele>2254.6</ele>
        <time>2021-02-27T14:37:32Z</time>
      </trkpt>
      <trkpt lat="45.23881" lon="6.22629">
        <ele>2252.8</ele>
        <time>2021-02-27T14:37:33Z</time>
      </trkpt>
      <trkpt lat="45.2388" lon="6.22639">
        <ele>2251.4</ele>
        <time>2021-02-27T14:37:34Z</time>
      </trkpt>
      <trkpt lat="45.2388" lon="6.22648">
        <ele>2250.2</ele>
        <time>2021-02-27T14:37:35Z</time>
      </trkpt>
      <trkpt lat="45.23881" lon="6.22655">
        <ele>2249.2</ele>
        <time>2021-02-27T14:37:36Z</time>
      </trkpt>
      <trkpt lat="45.23881" lon="6.22661">
        <ele>2249</ele>
        <time>2021-02-27T14:37:37Z</time>
      </trkpt>
      <trkpt lat="45.23883" lon="6.22666">
        <ele>2249.8</ele>
        <time>2021-02-27T14:37:38Z</time>
      </trkpt>
      <trkpt lat="45.23885" lon="6.22671">
        <ele>2250</ele>
        <time>2021-02-27T14:37:39Z</time>
      </trkpt>
      <trkpt lat="45.23888" lon="6.22675">
        <ele>2249.4</ele>
        <time>2021-02-27T14:37:40Z</time>
      </trkpt>
      <trkpt lat="45.2389" lon="6.22679">
        <ele>2249.2</ele>
        <time>2021-02-27T14:37:41Z</time>
      </trkpt>
      <trkpt lat="45.23892" lon="6.22684">
        <ele>2249.2</ele>
        <time>2021-02-27T14:37:42Z</time>
      </trkpt>
      <trkpt lat="45.23895" lon="6.22689">
        <ele>2249.4</ele>
        <time>2021-02-27T14:37:43Z</time>
      </trkpt>
      <trkpt lat="45.23897" lon="6.22694">
        <ele>2248.4</ele>
        <time>2021-02-27T14:37:44Z</time>
      </trkpt>
      <trkpt lat="45.23898" lon="6.22699">
        <ele>2248.8</ele>
        <time>2021-02-27T14:37:45Z</time>
      </trkpt>
      <trkpt lat="45.23899" lon="6.22704">
        <ele>2248.4</ele>
        <time>2021-02-27T14:37:46Z</time>
      </trkpt>
      <trkpt lat="45.239" lon="6.22709">
        <ele>2247.8</ele>
        <time>2021-02-27T14:37:47Z</time>
      </trkpt>
      <trkpt lat="45.23901" lon="6.22715">
        <ele>2247.6</ele>
        <time>2021-02-27T14:37:48Z</time>
      </trkpt>
      <trkpt lat="45.239" lon="6.2272">
        <ele>2247</ele>
        <time>2021-02-27T14:37:49Z</time>
      </trkpt>
      <trkpt lat="45.23899" lon="6.22725">
        <ele>2246.2</ele>
        <time>2021-02-27T14:37:50Z</time>
      </trkpt>
      <trkpt lat="45.23898" lon="6.22732">
        <ele>2245.6</ele>
        <time>2021-02-27T14:37:51Z</time>
      </trkpt>
      <trkpt lat="45.23896" lon="6.22738">
        <ele>2245</ele>
        <time>2021-02-27T14:37:52Z</time>
      </trkpt>
      <trkpt lat="45.23894" lon="6.22745">
        <ele>2244.2</ele>
        <time>2021-02-27T14:37:53Z</time>
      </trkpt>
      <trkpt lat="45.23889" lon="6.22751">
        <ele>2243</ele>
        <time>2021-02-27T14:37:54Z</time>
      </trkpt>
      <trkpt lat="45.23884" lon="6.22756">
        <ele>2242</ele>
        <time>2021-02-27T14:37:55Z</time>
      </trkpt>
      <trkpt lat="45.23878" lon="6.22762">
        <ele>2240.8</ele>
        <time>2021-02-27T14:37:56Z</time>
      </trkpt>
      <trkpt lat="45.23873" lon="6.22767">
        <ele>2239.8</ele>
        <time>2021-02-27T14:37:57Z</time>
      </trkpt>
      <trkpt lat="45.23866" lon="6.22773">
        <ele>2238.8</ele>
        <time>2021-02-27T14:37:58Z</time>
      </trkpt>
      <trkpt lat="45.23859" lon="6.2278">
        <ele>2237.6</ele>
        <time>2021-02-27T14:37:59Z</time>
      </trkpt>
      <trkpt lat="45.23852" lon="6.22787">
        <ele>2236.6</ele>
        <time>2021-02-27T14:38:00Z</time>
      </trkpt>
      <trkpt lat="45.23846" lon="6.22796">
        <ele>2235</ele>
        <time>2021-02-27T14:38:01Z</time>
      </trkpt>
      <trkpt lat="45.23841" lon="6.22804">
        <ele>2233.4</ele>
        <time>2021-02-27T14:38:02Z</time>
      </trkpt>
      <trkpt lat="45.23836" lon="6.22813">
        <ele>2232.2</ele>
        <time>2021-02-27T14:38:03Z</time>
      </trkpt>
      <trkpt lat="45.23832" lon="6.22823">
        <ele>2230.8</ele>
        <time>2021-02-27T14:38:04Z</time>
      </trkpt>
      <trkpt lat="45.23828" lon="6.22832">
        <ele>2229.6</ele>
        <time>2021-02-27T14:38:05Z</time>
      </trkpt>
      <trkpt lat="45.23824" lon="6.2284">
        <ele>2228.4</ele>
        <time>2021-02-27T14:38:06Z</time>
      </trkpt>
      <trkpt lat="45.23822" lon="6.22848">
        <ele>2227.6</ele>
        <time>2021-02-27T14:38:07Z</time>
      </trkpt>
      <trkpt lat="45.2382" lon="6.22855">
        <ele>2226.8</ele>
        <time>2021-02-27T14:38:08Z</time>
      </trkpt>
      <trkpt lat="45.23819" lon="6.22859">
        <ele>2226.2</ele>
        <time>2021-02-27T14:38:09Z</time>
      </trkpt>
      <trkpt lat="45.23819" lon="6.22859">
        <ele>2225.8</ele>
        <time>2021-02-27T14:38:10Z</time>
      </trkpt>
      <trkpt lat="45.23817" lon="6.2286">
        <ele>2226</ele>
        <time>2021-02-27T14:38:11Z</time>
      </trkpt>
      <trkpt lat="45.23817" lon="6.2286">
        <ele>2226</ele>
        <time>2021-02-27T14:38:12Z</time>
      </trkpt>
      <trkpt lat="45.23817" lon="6.2286">
        <ele>2226</ele>
        <time>2021-02-27T14:38:13Z</time>
      </trkpt>
      <trkpt lat="45.23817" lon="6.2286">
        <ele>2226</ele>
        <time>2021-02-27T14:38:14Z</time>
      </trkpt>
      <trkpt lat="45.23817" lon="6.2286">
        <ele>2226</ele>
        <time>2021-02-27T14:38:15Z</time>
      </trkpt>
      <trkpt lat="45.23817" lon="6.2286">
        <ele>2225.6</ele>
        <time>2021-02-27T14:38:16Z</time>
      </trkpt>
      <trkpt lat="45.23817" lon="6.2286">
        <ele>2225.6</ele>
        <time>2021-02-27T14:38:17Z</time>
      </trkpt>
      <trkpt lat="45.23817" lon="6.2286">
        <ele>2225.6</ele>
        <time>2021-02-27T14:38:18Z</time>
      </trkpt>
      <trkpt lat="45.23817" lon="6.2286">
        <ele>2225.4</ele>
        <time>2021-02-27T14:38:19Z</time>
      </trkpt>
      <trkpt lat="45.23817" lon="6.2286">
        <ele>2226</ele>
        <time>2021-02-27T14:38:20Z</time>
      </trkpt>
      <trkpt lat="45.23817" lon="6.2286">
        <ele>2226</ele>
        <time>2021-02-27T14:38:21Z</time>
      </trkpt>
      <trkpt lat="45.23817" lon="6.2286">
        <ele>2226</ele>
        <time>2021-02-27T14:38:22Z</time>
      </trkpt>
      <trkpt lat="45.23817" lon="6.2286">
        <ele>2226.2</ele>
        <time>2021-02-27T14:38:23Z</time>
      </trkpt>
      <trkpt lat="45.23817" lon="6.2286">
        <ele>2226.2</ele>
        <time>2021-02-27T14:38:24Z</time>
      </trkpt>
      <trkpt lat="45.23817" lon="6.2286">
        <ele>2226</ele>
        <time>2021-02-27T14:38:25Z</time>
      </trkpt>
      <trkpt lat="45.23817" lon="6.2286">
        <ele>2226</ele>
        <time>2021-02-27T14:38:26Z</time>
      </trkpt>
      <trkpt lat="45.23817" lon="6.2286">
        <ele>2226</ele>
        <time>2021-02-27T14:38:27Z</time>
      </trkpt>
      <trkpt lat="45.23817" lon="6.2286">
        <ele>2226</ele>
        <time>2021-02-27T14:38:28Z</time>
      </trkpt>
      <trkpt lat="45.23817" lon="6.2286">
        <ele>2225.8</ele>
        <time>2021-02-27T14:38:29Z</time>
      </trkpt>
      <trkpt lat="45.23817" lon="6.2286">
        <ele>2225.8</ele>
        <time>2021-02-27T14:38:30Z</time>
      </trkpt>
      <trkpt lat="45.23817" lon="6.2286">
        <ele>2225.8</ele>
        <time>2021-02-27T14:38:31Z</time>
      </trkpt>
      <trkpt lat="45.23817" lon="6.2286">
        <ele>2225.8</ele>
        <time>2021-02-27T14:38:32Z</time>
      </trkpt>
      <trkpt lat="45.23817" lon="6.2286">
        <ele>2225.8</ele>
        <time>2021-02-27T14:38:33Z</time>
      </trkpt>
      <trkpt lat="45.23817" lon="6.2286">
        <ele>2225.8</ele>
        <time>2021-02-27T14:38:34Z</time>
      </trkpt>
      <trkpt lat="45.23817" lon="6.2286">
        <ele>2226</ele>
        <time>2021-02-27T14:38:35Z</time>
      </trkpt>
      <trkpt lat="45.23817" lon="6.2286">
        <ele>2225.8</ele>
        <time>2021-02-27T14:38:36Z</time>
      </trkpt>
      <trkpt lat="45.23817" lon="6.2286">
        <ele>2225.8</ele>
        <time>2021-02-27T14:38:37Z</time>
      </trkpt>
      <trkpt lat="45.23817" lon="6.2286">
        <ele>2225.8</ele>
        <time>2021-02-27T14:38:38Z</time>
      </trkpt>
      <trkpt lat="45.23817" lon="6.2286">
        <ele>2225.6</ele>
        <time>2021-02-27T14:38:39Z</time>
      </trkpt>
      <trkpt lat="45.23817" lon="6.2286">
        <ele>2225.8</ele>
        <time>2021-02-27T14:38:40Z</time>
      </trkpt>
      <trkpt lat="45.23817" lon="6.2286">
        <ele>2225.8</ele>
        <time>2021-02-27T14:38:41Z</time>
      </trkpt>
      <trkpt lat="45.23817" lon="6.2286">
        <ele>2225.8</ele>
        <time>2021-02-27T14:38:42Z</time>
      </trkpt>
      <trkpt lat="45.23817" lon="6.2286">
        <ele>2225.6</ele>
        <time>2021-02-27T14:38:43Z</time>
      </trkpt>
      <trkpt lat="45.23817" lon="6.2286">
        <ele>2225.2</ele>
        <time>2021-02-27T14:38:44Z</time>
      </trkpt>
      <trkpt lat="45.23817" lon="6.2286">
        <ele>2225.4</ele>
        <time>2021-02-27T14:38:45Z</time>
      </trkpt>
      <trkpt lat="45.23817" lon="6.2286">
        <ele>2225.8</ele>
        <time>2021-02-27T14:38:46Z</time>
      </trkpt>
      <trkpt lat="45.23817" lon="6.22857">
        <ele>2225.8</ele>
        <time>2021-02-27T14:38:47Z</time>
      </trkpt>
      <trkpt lat="45.23817" lon="6.22857">
        <ele>2225.6</ele>
        <time>2021-02-27T14:38:48Z</time>
      </trkpt>
      <trkpt lat="45.23817" lon="6.22857">
        <ele>2225.4</ele>
        <time>2021-02-27T14:38:49Z</time>
      </trkpt>
      <trkpt lat="45.23817" lon="6.22857">
        <ele>2225.2</ele>
        <time>2021-02-27T14:38:50Z</time>
      </trkpt>
      <trkpt lat="45.23817" lon="6.22857">
        <ele>2225</ele>
        <time>2021-02-27T14:38:51Z</time>
      </trkpt>
      <trkpt lat="45.23817" lon="6.22857">
        <ele>2225</ele>
        <time>2021-02-27T14:38:52Z</time>
      </trkpt>
      <trkpt lat="45.23817" lon="6.22857">
        <ele>2224.6</ele>
        <time>2021-02-27T14:38:53Z</time>
      </trkpt>
      <trkpt lat="45.23817" lon="6.22857">
        <ele>2224.6</ele>
        <time>2021-02-27T14:38:54Z</time>
      </trkpt>
      <trkpt lat="45.23817" lon="6.22857">
        <ele>2224.6</ele>
        <time>2021-02-27T14:38:55Z</time>
      </trkpt>
      <trkpt lat="45.23817" lon="6.22857">
        <ele>2224.4</ele>
        <time>2021-02-27T14:38:56Z</time>
      </trkpt>
      <trkpt lat="45.23817" lon="6.22857">
        <ele>2224.2</ele>
        <time>2021-02-27T14:38:57Z</time>
      </trkpt>
      <trkpt lat="45.23817" lon="6.22857">
        <ele>2224.4</ele>
        <time>2021-02-27T14:38:58Z</time>
      </trkpt>
      <trkpt lat="45.23817" lon="6.22857">
        <ele>2224.6</ele>
        <time>2021-02-27T14:38:59Z</time>
      </trkpt>
      <trkpt lat="45.23817" lon="6.22857">
        <ele>2224.6</ele>
        <time>2021-02-27T14:39:00Z</time>
      </trkpt>
      <trkpt lat="45.23817" lon="6.22857">
        <ele>2224.6</ele>
        <time>2021-02-27T14:39:01Z</time>
      </trkpt>
      <trkpt lat="45.23817" lon="6.22857">
        <ele>2224.4</ele>
        <time>2021-02-27T14:39:02Z</time>
      </trkpt>
      <trkpt lat="45.23817" lon="6.22857">
        <ele>2224.4</ele>
        <time>2021-02-27T14:39:03Z</time>
      </trkpt>
      <trkpt lat="45.23817" lon="6.22857">
        <ele>2224.8</ele>
        <time>2021-02-27T14:39:04Z</time>
      </trkpt>
      <trkpt lat="45.23817" lon="6.22857">
        <ele>2224.8</ele>
        <time>2021-02-27T14:39:05Z</time>
      </trkpt>
      <trkpt lat="45.23817" lon="6.22857">
        <ele>2224.6</ele>
        <time>2021-02-27T14:39:06Z</time>
      </trkpt>
      <trkpt lat="45.23817" lon="6.22857">
        <ele>2224.8</ele>
        <time>2021-02-27T14:39:07Z</time>
      </trkpt>
      <trkpt lat="45.23817" lon="6.22857">
        <ele>2224.8</ele>
        <time>2021-02-27T14:39:08Z</time>
      </trkpt>
      <trkpt lat="45.23817" lon="6.22857">
        <ele>2225</ele>
        <time>2021-02-27T14:39:09Z</time>
      </trkpt>
      <trkpt lat="45.23817" lon="6.22857">
        <ele>2224.6</ele>
        <time>2021-02-27T14:39:10Z</time>
      </trkpt>
      <trkpt lat="45.23817" lon="6.22857">
        <ele>2224.2</ele>
        <time>2021-02-27T14:39:11Z</time>
      </trkpt>
      <trkpt lat="45.23817" lon="6.22857">
        <ele>2224</ele>
        <time>2021-02-27T14:39:12Z</time>
      </trkpt>
      <trkpt lat="45.23817" lon="6.22857">
        <ele>2224</ele>
        <time>2021-02-27T14:39:13Z</time>
      </trkpt>
      <trkpt lat="45.23817" lon="6.22857">
        <ele>2224</ele>
        <time>2021-02-27T14:39:14Z</time>
      </trkpt>
      <trkpt lat="45.23817" lon="6.22857">
        <ele>2223.6</ele>
        <time>2021-02-27T14:39:15Z</time>
      </trkpt>
      <trkpt lat="45.23817" lon="6.22857">
        <ele>2223.6</ele>
        <time>2021-02-27T14:39:16Z</time>
      </trkpt>
      <trkpt lat="45.23817" lon="6.22857">
        <ele>2223.4</ele>
        <time>2021-02-27T14:39:17Z</time>
      </trkpt>
      <trkpt lat="45.23817" lon="6.22857">
        <ele>2223.2</ele>
        <time>2021-02-27T14:39:18Z</time>
      </trkpt>
      <trkpt lat="45.23817" lon="6.22857">
        <ele>2223.2</ele>
        <time>2021-02-27T14:39:19Z</time>
      </trkpt>
      <trkpt lat="45.23817" lon="6.22857">
        <ele>2223.2</ele>
        <time>2021-02-27T14:39:20Z</time>
      </trkpt>
      <trkpt lat="45.23817" lon="6.22857">
        <ele>2222.8</ele>
        <time>2021-02-27T14:39:21Z</time>
      </trkpt>
      <trkpt lat="45.23817" lon="6.22857">
        <ele>2222.8</ele>
        <time>2021-02-27T14:39:22Z</time>
      </trkpt>
      <trkpt lat="45.23817" lon="6.22857">
        <ele>2222.8</ele>
        <time>2021-02-27T14:39:23Z</time>
      </trkpt>
      <trkpt lat="45.23817" lon="6.22857">
        <ele>2222.8</ele>
        <time>2021-02-27T14:39:24Z</time>
      </trkpt>
      <trkpt lat="45.23817" lon="6.22857">
        <ele>2222.6</ele>
        <time>2021-02-27T14:39:25Z</time>
      </trkpt>
      <trkpt lat="45.23817" lon="6.22857">
        <ele>2222.4</ele>
        <time>2021-02-27T14:39:26Z</time>
      </trkpt>
      <trkpt lat="45.23817" lon="6.22857">
        <ele>2222.2</ele>
        <time>2021-02-27T14:39:27Z</time>
      </trkpt>
      <trkpt lat="45.23817" lon="6.22857">
        <ele>2222.6</ele>
        <time>2021-02-27T14:39:28Z</time>
      </trkpt>
      <trkpt lat="45.23817" lon="6.22857">
        <ele>2222.4</ele>
        <time>2021-02-27T14:39:29Z</time>
      </trkpt>
      <trkpt lat="45.23817" lon="6.22857">
        <ele>2222.6</ele>
        <time>2021-02-27T14:39:30Z</time>
      </trkpt>
      <trkpt lat="45.23817" lon="6.22857">
        <ele>2222.4</ele>
        <time>2021-02-27T14:39:31Z</time>
      </trkpt>
      <trkpt lat="45.23817" lon="6.22857">
        <ele>2222.4</ele>
        <time>2021-02-27T14:39:32Z</time>
      </trkpt>
      <trkpt lat="45.23819" lon="6.2286">
        <ele>2222.6</ele>
        <time>2021-02-27T14:39:33Z</time>
      </trkpt>
      <trkpt lat="45.23819" lon="6.2286">
        <ele>2222.6</ele>
        <time>2021-02-27T14:39:34Z</time>
      </trkpt>
      <trkpt lat="45.23819" lon="6.2286">
        <ele>2222.8</ele>
        <time>2021-02-27T14:39:35Z</time>
      </trkpt>
      <trkpt lat="45.23819" lon="6.2286">
        <ele>2223</ele>
        <time>2021-02-27T14:39:36Z</time>
      </trkpt>
      <trkpt lat="45.2382" lon="6.22861">
        <ele>2223</ele>
        <time>2021-02-27T14:39:37Z</time>
      </trkpt>
      <trkpt lat="45.2382" lon="6.22861">
        <ele>2223</ele>
        <time>2021-02-27T14:39:38Z</time>
      </trkpt>
      <trkpt lat="45.2382" lon="6.22861">
        <ele>2223.2</ele>
        <time>2021-02-27T14:39:39Z</time>
      </trkpt>
      <trkpt lat="45.2382" lon="6.22861">
        <ele>2223.4</ele>
        <time>2021-02-27T14:39:40Z</time>
      </trkpt>
      <trkpt lat="45.23822" lon="6.22863">
        <ele>2223.6</ele>
        <time>2021-02-27T14:39:41Z</time>
      </trkpt>
      <trkpt lat="45.23822" lon="6.22863">
        <ele>2223.2</ele>
        <time>2021-02-27T14:39:42Z</time>
      </trkpt>
      <trkpt lat="45.23824" lon="6.22866">
        <ele>2223.2</ele>
        <time>2021-02-27T14:39:43Z</time>
      </trkpt>
      <trkpt lat="45.23824" lon="6.22866">
        <ele>2223</ele>
        <time>2021-02-27T14:39:44Z</time>
      </trkpt>
      <trkpt lat="45.23824" lon="6.22866">
        <ele>2222.6</ele>
        <time>2021-02-27T14:39:45Z</time>
      </trkpt>
      <trkpt lat="45.23826" lon="6.22868">
        <ele>2222.6</ele>
        <time>2021-02-27T14:39:46Z</time>
      </trkpt>
      <trkpt lat="45.23826" lon="6.22868">
        <ele>2222</ele>
        <time>2021-02-27T14:39:47Z</time>
      </trkpt>
      <trkpt lat="45.23828" lon="6.22872">
        <ele>2221.8</ele>
        <time>2021-02-27T14:39:48Z</time>
      </trkpt>
      <trkpt lat="45.23831" lon="6.22876">
        <ele>2221.6</ele>
        <time>2021-02-27T14:39:49Z</time>
      </trkpt>
      <trkpt lat="45.23833" lon="6.22881">
        <ele>2221.6</ele>
        <time>2021-02-27T14:39:50Z</time>
      </trkpt>
      <trkpt lat="45.23836" lon="6.22889">
        <ele>2221.4</ele>
        <time>2021-02-27T14:39:51Z</time>
      </trkpt>
      <trkpt lat="45.2384" lon="6.22897">
        <ele>2220.8</ele>
        <time>2021-02-27T14:39:52Z</time>
      </trkpt>
      <trkpt lat="45.23845" lon="6.22905">
        <ele>2219.8</ele>
        <time>2021-02-27T14:39:53Z</time>
      </trkpt>
      <trkpt lat="45.2385" lon="6.22912">
        <ele>2219.2</ele>
        <time>2021-02-27T14:39:54Z</time>
      </trkpt>
      <trkpt lat="45.23851" lon="6.22919">
        <ele>2217.6</ele>
        <time>2021-02-27T14:39:55Z</time>
      </trkpt>
      <trkpt lat="45.23849" lon="6.22926">
        <ele>2215.4</ele>
        <time>2021-02-27T14:39:56Z</time>
      </trkpt>
      <trkpt lat="45.23849" lon="6.22935">
        <ele>2213.8</ele>
        <time>2021-02-27T14:39:57Z</time>
      </trkpt>
      <trkpt lat="45.23853" lon="6.22943">
        <ele>2212</ele>
        <time>2021-02-27T14:39:58Z</time>
      </trkpt>
      <trkpt lat="45.23859" lon="6.22951">
        <ele>2210.2</ele>
        <time>2021-02-27T14:39:59Z</time>
      </trkpt>
      <trkpt lat="45.23866" lon="6.22959">
        <ele>2208</ele>
        <time>2021-02-27T14:40:00Z</time>
      </trkpt>
      <trkpt lat="45.23874" lon="6.22965">
        <ele>2205.6</ele>
        <time>2021-02-27T14:40:01Z</time>
      </trkpt>
      <trkpt lat="45.23882" lon="6.2297">
        <ele>2203.6</ele>
        <time>2021-02-27T14:40:02Z</time>
      </trkpt>
      <trkpt lat="45.23891" lon="6.22976">
        <ele>2201.2</ele>
        <time>2021-02-27T14:40:03Z</time>
      </trkpt>
      <trkpt lat="45.23899" lon="6.22983">
        <ele>2199.4</ele>
        <time>2021-02-27T14:40:04Z</time>
      </trkpt>
      <trkpt lat="45.23907" lon="6.22992">
        <ele>2197.6</ele>
        <time>2021-02-27T14:40:05Z</time>
      </trkpt>
      <trkpt lat="45.23911" lon="6.23004">
        <ele>2195.4</ele>
        <time>2021-02-27T14:40:06Z</time>
      </trkpt>
      <trkpt lat="45.23912" lon="6.23019">
        <ele>2193</ele>
        <time>2021-02-27T14:40:07Z</time>
      </trkpt>
      <trkpt lat="45.23912" lon="6.23035">
        <ele>2190.2</ele>
        <time>2021-02-27T14:40:08Z</time>
      </trkpt>
      <trkpt lat="45.23912" lon="6.23051">
        <ele>2187.4</ele>
        <time>2021-02-27T14:40:09Z</time>
      </trkpt>
      <trkpt lat="45.23911" lon="6.23065">
        <ele>2184.8</ele>
        <time>2021-02-27T14:40:10Z</time>
      </trkpt>
      <trkpt lat="45.23911" lon="6.23077">
        <ele>2182.2</ele>
        <time>2021-02-27T14:40:11Z</time>
      </trkpt>
      <trkpt lat="45.23911" lon="6.23087">
        <ele>2180.8</ele>
        <time>2021-02-27T14:40:12Z</time>
      </trkpt>
      <trkpt lat="45.23912" lon="6.23096">
        <ele>2180.2</ele>
        <time>2021-02-27T14:40:13Z</time>
      </trkpt>
      <trkpt lat="45.23912" lon="6.23103">
        <ele>2180</ele>
        <time>2021-02-27T14:40:14Z</time>
      </trkpt>
      <trkpt lat="45.23912" lon="6.23109">
        <ele>2180</ele>
        <time>2021-02-27T14:40:15Z</time>
      </trkpt>
      <trkpt lat="45.23912" lon="6.23114">
        <ele>2180</ele>
        <time>2021-02-27T14:40:16Z</time>
      </trkpt>
      <trkpt lat="45.23912" lon="6.23118">
        <ele>2179.8</ele>
        <time>2021-02-27T14:40:17Z</time>
      </trkpt>
      <trkpt lat="45.23912" lon="6.23118">
        <ele>2180</ele>
        <time>2021-02-27T14:40:18Z</time>
      </trkpt>
      <trkpt lat="45.23913" lon="6.23122">
        <ele>2180</ele>
        <time>2021-02-27T14:40:19Z</time>
      </trkpt>
      <trkpt lat="45.23913" lon="6.23122">
        <ele>2180.2</ele>
        <time>2021-02-27T14:40:20Z</time>
      </trkpt>
      <trkpt lat="45.23913" lon="6.23122">
        <ele>2180.6</ele>
        <time>2021-02-27T14:40:21Z</time>
      </trkpt>
      <trkpt lat="45.23913" lon="6.23122">
        <ele>2180.6</ele>
        <time>2021-02-27T14:40:22Z</time>
      </trkpt>
      <trkpt lat="45.23913" lon="6.23122">
        <ele>2180.6</ele>
        <time>2021-02-27T14:40:23Z</time>
      </trkpt>
      <trkpt lat="45.23913" lon="6.23122">
        <ele>2180.8</ele>
        <time>2021-02-27T14:40:24Z</time>
      </trkpt>
      <trkpt lat="45.23913" lon="6.23122">
        <ele>2180.8</ele>
        <time>2021-02-27T14:40:25Z</time>
      </trkpt>
      <trkpt lat="45.23913" lon="6.23122">
        <ele>2180.8</ele>
        <time>2021-02-27T14:40:26Z</time>
      </trkpt>
      <trkpt lat="45.23913" lon="6.23122">
        <ele>2180.8</ele>
        <time>2021-02-27T14:40:27Z</time>
      </trkpt>
      <trkpt lat="45.23913" lon="6.23122">
        <ele>2181</ele>
        <time>2021-02-27T14:40:28Z</time>
      </trkpt>
      <trkpt lat="45.23913" lon="6.23122">
        <ele>2181.2</ele>
        <time>2021-02-27T14:40:29Z</time>
      </trkpt>
      <trkpt lat="45.23913" lon="6.23122">
        <ele>2181.4</ele>
        <time>2021-02-27T14:40:30Z</time>
      </trkpt>
      <trkpt lat="45.23913" lon="6.23122">
        <ele>2181.8</ele>
        <time>2021-02-27T14:40:31Z</time>
      </trkpt>
      <trkpt lat="45.23913" lon="6.23122">
        <ele>2181.6</ele>
        <time>2021-02-27T14:40:32Z</time>
      </trkpt>
      <trkpt lat="45.23913" lon="6.23122">
        <ele>2181.4</ele>
        <time>2021-02-27T14:40:33Z</time>
      </trkpt>
      <trkpt lat="45.23913" lon="6.23122">
        <ele>2181</ele>
        <time>2021-02-27T14:40:34Z</time>
      </trkpt>
      <trkpt lat="45.23913" lon="6.23122">
        <ele>2180.6</ele>
        <time>2021-02-27T14:40:35Z</time>
      </trkpt>
      <trkpt lat="45.23913" lon="6.23122">
        <ele>2180.6</ele>
        <time>2021-02-27T14:40:36Z</time>
      </trkpt>
      <trkpt lat="45.23913" lon="6.23122">
        <ele>2180.2</ele>
        <time>2021-02-27T14:40:37Z</time>
      </trkpt>
      <trkpt lat="45.23913" lon="6.23122">
        <ele>2180</ele>
        <time>2021-02-27T14:40:38Z</time>
      </trkpt>
      <trkpt lat="45.23913" lon="6.23122">
        <ele>2179.8</ele>
        <time>2021-02-27T14:40:39Z</time>
      </trkpt>
      <trkpt lat="45.23913" lon="6.23122">
        <ele>2179.8</ele>
        <time>2021-02-27T14:40:40Z</time>
      </trkpt>
      <trkpt lat="45.23913" lon="6.23122">
        <ele>2179.8</ele>
        <time>2021-02-27T14:40:41Z</time>
      </trkpt>
      <trkpt lat="45.23913" lon="6.23122">
        <ele>2180</ele>
        <time>2021-02-27T14:40:42Z</time>
      </trkpt>
      <trkpt lat="45.23913" lon="6.23122">
        <ele>2179.8</ele>
        <time>2021-02-27T14:40:43Z</time>
      </trkpt>
      <trkpt lat="45.23913" lon="6.23122">
        <ele>2180.6</ele>
        <time>2021-02-27T14:40:44Z</time>
      </trkpt>
      <trkpt lat="45.23913" lon="6.23122">
        <ele>2180.8</ele>
        <time>2021-02-27T14:40:45Z</time>
      </trkpt>
      <trkpt lat="45.23913" lon="6.23122">
        <ele>2180.8</ele>
        <time>2021-02-27T14:40:46Z</time>
      </trkpt>
      <trkpt lat="45.23913" lon="6.23122">
        <ele>2180.8</ele>
        <time>2021-02-27T14:40:47Z</time>
      </trkpt>
      <trkpt lat="45.23913" lon="6.23122">
        <ele>2180.8</ele>
        <time>2021-02-27T14:40:48Z</time>
      </trkpt>
      <trkpt lat="45.23913" lon="6.23122">
        <ele>2180.6</ele>
        <time>2021-02-27T14:40:49Z</time>
      </trkpt>
      <trkpt lat="45.23913" lon="6.23122">
        <ele>2180.4</ele>
        <time>2021-02-27T14:40:50Z</time>
      </trkpt>
      <trkpt lat="45.23913" lon="6.23122">
        <ele>2180.4</ele>
        <time>2021-02-27T14:40:51Z</time>
      </trkpt>
      <trkpt lat="45.23913" lon="6.23122">
        <ele>2180.4</ele>
        <time>2021-02-27T14:40:52Z</time>
      </trkpt>
      <trkpt lat="45.23913" lon="6.23122">
        <ele>2180.4</ele>
        <time>2021-02-27T14:40:53Z</time>
      </trkpt>
      <trkpt lat="45.23913" lon="6.23122">
        <ele>2180.6</ele>
        <time>2021-02-27T14:40:54Z</time>
      </trkpt>
      <trkpt lat="45.23913" lon="6.23122">
        <ele>2180.6</ele>
        <time>2021-02-27T14:40:55Z</time>
      </trkpt>
      <trkpt lat="45.23913" lon="6.23122">
        <ele>2180.6</ele>
        <time>2021-02-27T14:40:56Z</time>
      </trkpt>
      <trkpt lat="45.23913" lon="6.23122">
        <ele>2180.6</ele>
        <time>2021-02-27T14:40:57Z</time>
      </trkpt>
      <trkpt lat="45.23913" lon="6.23122">
        <ele>2180.6</ele>
        <time>2021-02-27T14:40:58Z</time>
      </trkpt>
      <trkpt lat="45.23913" lon="6.23122">
        <ele>2180.6</ele>
        <time>2021-02-27T14:40:59Z</time>
      </trkpt>
      <trkpt lat="45.23913" lon="6.23122">
        <ele>2180.4</ele>
        <time>2021-02-27T14:41:00Z</time>
      </trkpt>
      <trkpt lat="45.23913" lon="6.23122">
        <ele>2180.4</ele>
        <time>2021-02-27T14:41:01Z</time>
      </trkpt>
      <trkpt lat="45.23913" lon="6.23122">
        <ele>2180.6</ele>
        <time>2021-02-27T14:41:02Z</time>
      </trkpt>
      <trkpt lat="45.23913" lon="6.23122">
        <ele>2180.4</ele>
        <time>2021-02-27T14:41:03Z</time>
      </trkpt>
      <trkpt lat="45.23913" lon="6.23122">
        <ele>2180.2</ele>
        <time>2021-02-27T14:41:04Z</time>
      </trkpt>
      <trkpt lat="45.23913" lon="6.23122">
        <ele>2180</ele>
        <time>2021-02-27T14:41:05Z</time>
      </trkpt>
      <trkpt lat="45.23913" lon="6.23122">
        <ele>2179.8</ele>
        <time>2021-02-27T14:41:06Z</time>
      </trkpt>
      <trkpt lat="45.23913" lon="6.23122">
        <ele>2179.8</ele>
        <time>2021-02-27T14:41:07Z</time>
      </trkpt>
      <trkpt lat="45.23913" lon="6.23122">
        <ele>2179.8</ele>
        <time>2021-02-27T14:41:08Z</time>
      </trkpt>
      <trkpt lat="45.23913" lon="6.23122">
        <ele>2179.8</ele>
        <time>2021-02-27T14:41:09Z</time>
      </trkpt>
      <trkpt lat="45.23913" lon="6.23122">
        <ele>2179.6</ele>
        <time>2021-02-27T14:41:10Z</time>
      </trkpt>
      <trkpt lat="45.23913" lon="6.23122">
        <ele>2179.4</ele>
        <time>2021-02-27T14:41:11Z</time>
      </trkpt>
      <trkpt lat="45.23913" lon="6.23122">
        <ele>2179.2</ele>
        <time>2021-02-27T14:41:12Z</time>
      </trkpt>
      <trkpt lat="45.23913" lon="6.23122">
        <ele>2179.2</ele>
        <time>2021-02-27T14:41:13Z</time>
      </trkpt>
      <trkpt lat="45.23913" lon="6.23122">
        <ele>2179.4</ele>
        <time>2021-02-27T14:41:14Z</time>
      </trkpt>
      <trkpt lat="45.23913" lon="6.23122">
        <ele>2179.2</ele>
        <time>2021-02-27T14:41:15Z</time>
      </trkpt>
      <trkpt lat="45.23913" lon="6.23122">
        <ele>2179.2</ele>
        <time>2021-02-27T14:41:16Z</time>
      </trkpt>
      <trkpt lat="45.23913" lon="6.23122">
        <ele>2179.2</ele>
        <time>2021-02-27T14:41:17Z</time>
      </trkpt>
      <trkpt lat="45.23913" lon="6.23122">
        <ele>2179.2</ele>
        <time>2021-02-27T14:41:18Z</time>
      </trkpt>
      <trkpt lat="45.23913" lon="6.23122">
        <ele>2179.2</ele>
        <time>2021-02-27T14:41:19Z</time>
      </trkpt>
      <trkpt lat="45.23913" lon="6.23122">
        <ele>2179.4</ele>
        <time>2021-02-27T14:41:20Z</time>
      </trkpt>
      <trkpt lat="45.23913" lon="6.23122">
        <ele>2179.4</ele>
        <time>2021-02-27T14:41:21Z</time>
      </trkpt>
      <trkpt lat="45.23913" lon="6.23122">
        <ele>2179.2</ele>
        <time>2021-02-27T14:41:22Z</time>
      </trkpt>
      <trkpt lat="45.23913" lon="6.23122">
        <ele>2179.2</ele>
        <time>2021-02-27T14:41:23Z</time>
      </trkpt>
      <trkpt lat="45.23913" lon="6.23122">
        <ele>2179.4</ele>
        <time>2021-02-27T14:41:24Z</time>
      </trkpt>
      <trkpt lat="45.23913" lon="6.23122">
        <ele>2179</ele>
        <time>2021-02-27T14:41:25Z</time>
      </trkpt>
      <trkpt lat="45.23913" lon="6.23122">
        <ele>2179</ele>
        <time>2021-02-27T14:41:26Z</time>
      </trkpt>
      <trkpt lat="45.23913" lon="6.23122">
        <ele>2179</ele>
        <time>2021-02-27T14:41:27Z</time>
      </trkpt>
      <trkpt lat="45.23913" lon="6.23122">
        <ele>2179.2</ele>
        <time>2021-02-27T14:41:28Z</time>
      </trkpt>
      <trkpt lat="45.23913" lon="6.23122">
        <ele>2179.4</ele>
        <time>2021-02-27T14:41:29Z</time>
      </trkpt>
      <trkpt lat="45.23913" lon="6.23122">
        <ele>2179.6</ele>
        <time>2021-02-27T14:41:30Z</time>
      </trkpt>
      <trkpt lat="45.23913" lon="6.23122">
        <ele>2179.8</ele>
        <time>2021-02-27T14:41:31Z</time>
      </trkpt>
      <trkpt lat="45.23913" lon="6.23122">
        <ele>2180.2</ele>
        <time>2021-02-27T14:41:32Z</time>
      </trkpt>
      <trkpt lat="45.23913" lon="6.23122">
        <ele>2180</ele>
        <time>2021-02-27T14:41:33Z</time>
      </trkpt>
      <trkpt lat="45.23913" lon="6.23122">
        <ele>2180</ele>
        <time>2021-02-27T14:41:34Z</time>
      </trkpt>
      <trkpt lat="45.23913" lon="6.23122">
        <ele>2180.2</ele>
        <time>2021-02-27T14:41:35Z</time>
      </trkpt>
      <trkpt lat="45.23913" lon="6.23122">
        <ele>2180.2</ele>
        <time>2021-02-27T14:41:36Z</time>
      </trkpt>
      <trkpt lat="45.23913" lon="6.23122">
        <ele>2180.2</ele>
        <time>2021-02-27T14:41:37Z</time>
      </trkpt>
      <trkpt lat="45.23913" lon="6.23122">
        <ele>2180.4</ele>
        <time>2021-02-27T14:41:38Z</time>
      </trkpt>
      <trkpt lat="45.23913" lon="6.23122">
        <ele>2180.6</ele>
        <time>2021-02-27T14:41:39Z</time>
      </trkpt>
      <trkpt lat="45.23913" lon="6.23122">
        <ele>2180.8</ele>
        <time>2021-02-27T14:41:40Z</time>
      </trkpt>
      <trkpt lat="45.23913" lon="6.23122">
        <ele>2180.8</ele>
        <time>2021-02-27T14:41:41Z</time>
      </trkpt>
      <trkpt lat="45.23913" lon="6.23122">
        <ele>2180.8</ele>
        <time>2021-02-27T14:41:42Z</time>
      </trkpt>
      <trkpt lat="45.23913" lon="6.23122">
        <ele>2180.6</ele>
        <time>2021-02-27T14:41:43Z</time>
      </trkpt>
      <trkpt lat="45.23913" lon="6.23122">
        <ele>2180.6</ele>
        <time>2021-02-27T14:41:44Z</time>
      </trkpt>
      <trkpt lat="45.23913" lon="6.23122">
        <ele>2180.4</ele>
        <time>2021-02-27T14:41:45Z</time>
      </trkpt>
      <trkpt lat="45.23913" lon="6.23122">
        <ele>2180.6</ele>
        <time>2021-02-27T14:41:46Z</time>
      </trkpt>
      <trkpt lat="45.23913" lon="6.23119">
        <ele>2180.6</ele>
        <time>2021-02-27T14:41:47Z</time>
      </trkpt>
      <trkpt lat="45.23913" lon="6.23119">
        <ele>2180.4</ele>
        <time>2021-02-27T14:41:48Z</time>
      </trkpt>
      <trkpt lat="45.23913" lon="6.23119">
        <ele>2180.2</ele>
        <time>2021-02-27T14:41:49Z</time>
      </trkpt>
      <trkpt lat="45.23913" lon="6.23119">
        <ele>2180.2</ele>
        <time>2021-02-27T14:41:50Z</time>
      </trkpt>
      <trkpt lat="45.23913" lon="6.23119">
        <ele>2180.2</ele>
        <time>2021-02-27T14:41:51Z</time>
      </trkpt>
      <trkpt lat="45.23913" lon="6.23119">
        <ele>2180</ele>
        <time>2021-02-27T14:41:52Z</time>
      </trkpt>
      <trkpt lat="45.23913" lon="6.23119">
        <ele>2179.4</ele>
        <time>2021-02-27T14:41:53Z</time>
      </trkpt>
      <trkpt lat="45.23913" lon="6.23119">
        <ele>2179.8</ele>
        <time>2021-02-27T14:41:54Z</time>
      </trkpt>
      <trkpt lat="45.23913" lon="6.23119">
        <ele>2179.8</ele>
        <time>2021-02-27T14:41:55Z</time>
      </trkpt>
      <trkpt lat="45.23913" lon="6.23119">
        <ele>2179.8</ele>
        <time>2021-02-27T14:41:56Z</time>
      </trkpt>
      <trkpt lat="45.23913" lon="6.23119">
        <ele>2179.6</ele>
        <time>2021-02-27T14:41:57Z</time>
      </trkpt>
      <trkpt lat="45.23913" lon="6.23119">
        <ele>2179.4</ele>
        <time>2021-02-27T14:41:58Z</time>
      </trkpt>
      <trkpt lat="45.23913" lon="6.23119">
        <ele>2179</ele>
        <time>2021-02-27T14:41:59Z</time>
      </trkpt>
      <trkpt lat="45.23913" lon="6.23119">
        <ele>2179</ele>
        <time>2021-02-27T14:42:00Z</time>
      </trkpt>
      <trkpt lat="45.23913" lon="6.23119">
        <ele>2178.6</ele>
        <time>2021-02-27T14:42:01Z</time>
      </trkpt>
      <trkpt lat="45.23913" lon="6.23119">
        <ele>2178.4</ele>
        <time>2021-02-27T14:42:02Z</time>
      </trkpt>
      <trkpt lat="45.23913" lon="6.23119">
        <ele>2178.8</ele>
        <time>2021-02-27T14:42:03Z</time>
      </trkpt>
      <trkpt lat="45.23913" lon="6.23119">
        <ele>2179</ele>
        <time>2021-02-27T14:42:04Z</time>
      </trkpt>
      <trkpt lat="45.23913" lon="6.23119">
        <ele>2179.2</ele>
        <time>2021-02-27T14:42:05Z</time>
      </trkpt>
      <trkpt lat="45.23913" lon="6.23119">
        <ele>2179.4</ele>
        <time>2021-02-27T14:42:06Z</time>
      </trkpt>
      <trkpt lat="45.23913" lon="6.23119">
        <ele>2179.6</ele>
        <time>2021-02-27T14:42:07Z</time>
      </trkpt>
      <trkpt lat="45.23913" lon="6.23119">
        <ele>2179.8</ele>
        <time>2021-02-27T14:42:08Z</time>
      </trkpt>
      <trkpt lat="45.23913" lon="6.23119">
        <ele>2179.4</ele>
        <time>2021-02-27T14:42:09Z</time>
      </trkpt>
      <trkpt lat="45.23913" lon="6.23119">
        <ele>2179.4</ele>
        <time>2021-02-27T14:42:10Z</time>
      </trkpt>
      <trkpt lat="45.23913" lon="6.23119">
        <ele>2179.4</ele>
        <time>2021-02-27T14:42:11Z</time>
      </trkpt>
      <trkpt lat="45.23913" lon="6.23119">
        <ele>2179.2</ele>
        <time>2021-02-27T14:42:12Z</time>
      </trkpt>
      <trkpt lat="45.23914" lon="6.23121">
        <ele>2179.4</ele>
        <time>2021-02-27T14:42:13Z</time>
      </trkpt>
      <trkpt lat="45.23914" lon="6.23121">
        <ele>2179.6</ele>
        <time>2021-02-27T14:42:14Z</time>
      </trkpt>
      <trkpt lat="45.23914" lon="6.23121">
        <ele>2179.6</ele>
        <time>2021-02-27T14:42:15Z</time>
      </trkpt>
      <trkpt lat="45.23914" lon="6.23125">
        <ele>2180</ele>
        <time>2021-02-27T14:42:16Z</time>
      </trkpt>
      <trkpt lat="45.23914" lon="6.23125">
        <ele>2180</ele>
        <time>2021-02-27T14:42:17Z</time>
      </trkpt>
      <trkpt lat="45.23914" lon="6.23125">
        <ele>2180.4</ele>
        <time>2021-02-27T14:42:18Z</time>
      </trkpt>
      <trkpt lat="45.23914" lon="6.23125">
        <ele>2180.4</ele>
        <time>2021-02-27T14:42:19Z</time>
      </trkpt>
      <trkpt lat="45.23914" lon="6.23125">
        <ele>2180.6</ele>
        <time>2021-02-27T14:42:20Z</time>
      </trkpt>
      <trkpt lat="45.23914" lon="6.23125">
        <ele>2180.6</ele>
        <time>2021-02-27T14:42:21Z</time>
      </trkpt>
      <trkpt lat="45.23914" lon="6.23125">
        <ele>2180.4</ele>
        <time>2021-02-27T14:42:22Z</time>
      </trkpt>
      <trkpt lat="45.23914" lon="6.23125">
        <ele>2180.6</ele>
        <time>2021-02-27T14:42:23Z</time>
      </trkpt>
      <trkpt lat="45.23914" lon="6.23125">
        <ele>2180.6</ele>
        <time>2021-02-27T14:42:24Z</time>
      </trkpt>
      <trkpt lat="45.23914" lon="6.23125">
        <ele>2180.8</ele>
        <time>2021-02-27T14:42:25Z</time>
      </trkpt>
      <trkpt lat="45.23914" lon="6.23125">
        <ele>2181</ele>
        <time>2021-02-27T14:42:26Z</time>
      </trkpt>
      <trkpt lat="45.23914" lon="6.23125">
        <ele>2181</ele>
        <time>2021-02-27T14:42:27Z</time>
      </trkpt>
      <trkpt lat="45.23914" lon="6.23125">
        <ele>2180.8</ele>
        <time>2021-02-27T14:42:28Z</time>
      </trkpt>
      <trkpt lat="45.23914" lon="6.23125">
        <ele>2180.8</ele>
        <time>2021-02-27T14:42:29Z</time>
      </trkpt>
      <trkpt lat="45.23914" lon="6.23125">
        <ele>2181</ele>
        <time>2021-02-27T14:42:30Z</time>
      </trkpt>
      <trkpt lat="45.23914" lon="6.23125">
        <ele>2181.2</ele>
        <time>2021-02-27T14:42:31Z</time>
      </trkpt>
      <trkpt lat="45.23914" lon="6.23125">
        <ele>2181.2</ele>
        <time>2021-02-27T14:42:32Z</time>
      </trkpt>
      <trkpt lat="45.23914" lon="6.23125">
        <ele>2181.4</ele>
        <time>2021-02-27T14:42:33Z</time>
      </trkpt>
      <trkpt lat="45.23914" lon="6.23125">
        <ele>2181.4</ele>
        <time>2021-02-27T14:42:34Z</time>
      </trkpt>
      <trkpt lat="45.23914" lon="6.23125">
        <ele>2181.4</ele>
        <time>2021-02-27T14:42:35Z</time>
      </trkpt>
      <trkpt lat="45.23914" lon="6.23125">
        <ele>2181.4</ele>
        <time>2021-02-27T14:42:36Z</time>
      </trkpt>
      <trkpt lat="45.23914" lon="6.23125">
        <ele>2181.4</ele>
        <time>2021-02-27T14:42:37Z</time>
      </trkpt>
      <trkpt lat="45.23914" lon="6.23125">
        <ele>2181.2</ele>
        <time>2021-02-27T14:42:38Z</time>
      </trkpt>
      <trkpt lat="45.23914" lon="6.23125">
        <ele>2181.2</ele>
        <time>2021-02-27T14:42:39Z</time>
      </trkpt>
      <trkpt lat="45.23914" lon="6.23125">
        <ele>2181</ele>
        <time>2021-02-27T14:42:40Z</time>
      </trkpt>
      <trkpt lat="45.23914" lon="6.23125">
        <ele>2181.2</ele>
        <time>2021-02-27T14:42:41Z</time>
      </trkpt>
      <trkpt lat="45.23914" lon="6.23125">
        <ele>2181.2</ele>
        <time>2021-02-27T14:42:42Z</time>
      </trkpt>
      <trkpt lat="45.23914" lon="6.23125">
        <ele>2181.4</ele>
        <time>2021-02-27T14:42:43Z</time>
      </trkpt>
      <trkpt lat="45.23914" lon="6.23125">
        <ele>2181.2</ele>
        <time>2021-02-27T14:42:44Z</time>
      </trkpt>
      <trkpt lat="45.23914" lon="6.23125">
        <ele>2181</ele>
        <time>2021-02-27T14:42:45Z</time>
      </trkpt>
      <trkpt lat="45.23914" lon="6.23125">
        <ele>2181</ele>
        <time>2021-02-27T14:42:46Z</time>
      </trkpt>
      <trkpt lat="45.23914" lon="6.23125">
        <ele>2181</ele>
        <time>2021-02-27T14:42:47Z</time>
      </trkpt>
      <trkpt lat="45.23914" lon="6.23125">
        <ele>2181.2</ele>
        <time>2021-02-27T14:42:48Z</time>
      </trkpt>
      <trkpt lat="45.23914" lon="6.23125">
        <ele>2181.2</ele>
        <time>2021-02-27T14:42:49Z</time>
      </trkpt>
      <trkpt lat="45.23914" lon="6.23125">
        <ele>2181.2</ele>
        <time>2021-02-27T14:42:50Z</time>
      </trkpt>
      <trkpt lat="45.23914" lon="6.23125">
        <ele>2181.2</ele>
        <time>2021-02-27T14:42:51Z</time>
      </trkpt>
      <trkpt lat="45.23914" lon="6.23125">
        <ele>2181.2</ele>
        <time>2021-02-27T14:42:52Z</time>
      </trkpt>
      <trkpt lat="45.23914" lon="6.23125">
        <ele>2181</ele>
        <time>2021-02-27T14:42:53Z</time>
      </trkpt>
      <trkpt lat="45.23914" lon="6.23125">
        <ele>2181</ele>
        <time>2021-02-27T14:42:54Z</time>
      </trkpt>
      <trkpt lat="45.23914" lon="6.23125">
        <ele>2181</ele>
        <time>2021-02-27T14:42:55Z</time>
      </trkpt>
      <trkpt lat="45.23914" lon="6.23125">
        <ele>2180.8</ele>
        <time>2021-02-27T14:42:56Z</time>
      </trkpt>
      <trkpt lat="45.23914" lon="6.23125">
        <ele>2181</ele>
        <time>2021-02-27T14:42:57Z</time>
      </trkpt>
      <trkpt lat="45.23914" lon="6.23125">
        <ele>2180.6</ele>
        <time>2021-02-27T14:42:58Z</time>
      </trkpt>
      <trkpt lat="45.23914" lon="6.23125">
        <ele>2180.6</ele>
        <time>2021-02-27T14:42:59Z</time>
      </trkpt>
      <trkpt lat="45.23914" lon="6.23125">
        <ele>2180.4</ele>
        <time>2021-02-27T14:43:00Z</time>
      </trkpt>
      <trkpt lat="45.23914" lon="6.23125">
        <ele>2180.6</ele>
        <time>2021-02-27T14:43:01Z</time>
      </trkpt>
      <trkpt lat="45.23914" lon="6.23125">
        <ele>2180.4</ele>
        <time>2021-02-27T14:43:02Z</time>
      </trkpt>
      <trkpt lat="45.23914" lon="6.23125">
        <ele>2180.4</ele>
        <time>2021-02-27T14:43:03Z</time>
      </trkpt>
      <trkpt lat="45.23914" lon="6.23125">
        <ele>2180.4</ele>
        <time>2021-02-27T14:43:04Z</time>
      </trkpt>
      <trkpt lat="45.23914" lon="6.23125">
        <ele>2180.6</ele>
        <time>2021-02-27T14:43:05Z</time>
      </trkpt>
      <trkpt lat="45.23914" lon="6.23125">
        <ele>2180.8</ele>
        <time>2021-02-27T14:43:06Z</time>
      </trkpt>
      <trkpt lat="45.23914" lon="6.23125">
        <ele>2180.4</ele>
        <time>2021-02-27T14:43:07Z</time>
      </trkpt>
      <trkpt lat="45.23914" lon="6.23125">
        <ele>2180.2</ele>
        <time>2021-02-27T14:43:08Z</time>
      </trkpt>
      <trkpt lat="45.23914" lon="6.23125">
        <ele>2180.2</ele>
        <time>2021-02-27T14:43:09Z</time>
      </trkpt>
      <trkpt lat="45.23914" lon="6.23125">
        <ele>2180.2</ele>
        <time>2021-02-27T14:43:10Z</time>
      </trkpt>
      <trkpt lat="45.23914" lon="6.23125">
        <ele>2180</ele>
        <time>2021-02-27T14:43:11Z</time>
      </trkpt>
      <trkpt lat="45.23914" lon="6.23125">
        <ele>2180.2</ele>
        <time>2021-02-27T14:43:12Z</time>
      </trkpt>
      <trkpt lat="45.23914" lon="6.23125">
        <ele>2179.8</ele>
        <time>2021-02-27T14:43:13Z</time>
      </trkpt>
      <trkpt lat="45.23914" lon="6.23125">
        <ele>2180</ele>
        <time>2021-02-27T14:43:14Z</time>
      </trkpt>
      <trkpt lat="45.23914" lon="6.23125">
        <ele>2180</ele>
        <time>2021-02-27T14:43:15Z</time>
      </trkpt>
      <trkpt lat="45.23914" lon="6.23125">
        <ele>2180</ele>
        <time>2021-02-27T14:43:16Z</time>
      </trkpt>
      <trkpt lat="45.23914" lon="6.23125">
        <ele>2180</ele>
        <time>2021-02-27T14:43:17Z</time>
      </trkpt>
      <trkpt lat="45.23914" lon="6.23125">
        <ele>2180.2</ele>
        <time>2021-02-27T14:43:18Z</time>
      </trkpt>
      <trkpt lat="45.23914" lon="6.23125">
        <ele>2180</ele>
        <time>2021-02-27T14:43:19Z</time>
      </trkpt>
      <trkpt lat="45.23914" lon="6.23125">
        <ele>2180.2</ele>
        <time>2021-02-27T14:43:20Z</time>
      </trkpt>
      <trkpt lat="45.23914" lon="6.23125">
        <ele>2180.2</ele>
        <time>2021-02-27T14:43:21Z</time>
      </trkpt>
      <trkpt lat="45.23914" lon="6.23125">
        <ele>2180.2</ele>
        <time>2021-02-27T14:43:22Z</time>
      </trkpt>
      <trkpt lat="45.23914" lon="6.23125">
        <ele>2180</ele>
        <time>2021-02-27T14:43:23Z</time>
      </trkpt>
      <trkpt lat="45.23914" lon="6.23125">
        <ele>2180</ele>
        <time>2021-02-27T14:43:24Z</time>
      </trkpt>
      <trkpt lat="45.23914" lon="6.23125">
        <ele>2180</ele>
        <time>2021-02-27T14:43:25Z</time>
      </trkpt>
      <trkpt lat="45.23914" lon="6.23125">
        <ele>2180</ele>
        <time>2021-02-27T14:43:26Z</time>
      </trkpt>
      <trkpt lat="45.23914" lon="6.23125">
        <ele>2179.8</ele>
        <time>2021-02-27T14:43:27Z</time>
      </trkpt>
      <trkpt lat="45.23914" lon="6.23125">
        <ele>2180</ele>
        <time>2021-02-27T14:43:28Z</time>
      </trkpt>
      <trkpt lat="45.23914" lon="6.23125">
        <ele>2179.6</ele>
        <time>2021-02-27T14:43:29Z</time>
      </trkpt>
      <trkpt lat="45.23914" lon="6.23125">
        <ele>2179.8</ele>
        <time>2021-02-27T14:43:30Z</time>
      </trkpt>
      <trkpt lat="45.23914" lon="6.23125">
        <ele>2180</ele>
        <time>2021-02-27T14:43:31Z</time>
      </trkpt>
      <trkpt lat="45.23914" lon="6.23125">
        <ele>2180</ele>
        <time>2021-02-27T14:43:32Z</time>
      </trkpt>
      <trkpt lat="45.23914" lon="6.23125">
        <ele>2179.6</ele>
        <time>2021-02-27T14:43:33Z</time>
      </trkpt>
      <trkpt lat="45.23914" lon="6.23125">
        <ele>2179.6</ele>
        <time>2021-02-27T14:43:34Z</time>
      </trkpt>
      <trkpt lat="45.23914" lon="6.23125">
        <ele>2179.6</ele>
        <time>2021-02-27T14:43:35Z</time>
      </trkpt>
      <trkpt lat="45.23914" lon="6.23125">
        <ele>2179.4</ele>
        <time>2021-02-27T14:43:36Z</time>
      </trkpt>
      <trkpt lat="45.23914" lon="6.23125">
        <ele>2179.4</ele>
        <time>2021-02-27T14:43:37Z</time>
      </trkpt>
      <trkpt lat="45.23914" lon="6.23125">
        <ele>2179.2</ele>
        <time>2021-02-27T14:43:38Z</time>
      </trkpt>
      <trkpt lat="45.23914" lon="6.23125">
        <ele>2179.2</ele>
        <time>2021-02-27T14:43:39Z</time>
      </trkpt>
      <trkpt lat="45.23914" lon="6.23125">
        <ele>2179</ele>
        <time>2021-02-27T14:43:40Z</time>
      </trkpt>
      <trkpt lat="45.23914" lon="6.23125">
        <ele>2179</ele>
        <time>2021-02-27T14:43:41Z</time>
      </trkpt>
      <trkpt lat="45.23914" lon="6.23125">
        <ele>2179</ele>
        <time>2021-02-27T14:43:42Z</time>
      </trkpt>
      <trkpt lat="45.23914" lon="6.23125">
        <ele>2179</ele>
        <time>2021-02-27T14:43:43Z</time>
      </trkpt>
      <trkpt lat="45.23914" lon="6.23125">
        <ele>2179</ele>
        <time>2021-02-27T14:43:44Z</time>
      </trkpt>
      <trkpt lat="45.23914" lon="6.23125">
        <ele>2179</ele>
        <time>2021-02-27T14:43:45Z</time>
      </trkpt>
      <trkpt lat="45.23914" lon="6.23125">
        <ele>2178.8</ele>
        <time>2021-02-27T14:43:46Z</time>
      </trkpt>
      <trkpt lat="45.23914" lon="6.23125">
        <ele>2179</ele>
        <time>2021-02-27T14:43:47Z</time>
      </trkpt>
      <trkpt lat="45.23914" lon="6.23125">
        <ele>2178.8</ele>
        <time>2021-02-27T14:43:48Z</time>
      </trkpt>
      <trkpt lat="45.23914" lon="6.23125">
        <ele>2178.8</ele>
        <time>2021-02-27T14:43:49Z</time>
      </trkpt>
      <trkpt lat="45.23914" lon="6.23125">
        <ele>2178.8</ele>
        <time>2021-02-27T14:43:50Z</time>
      </trkpt>
      <trkpt lat="45.23914" lon="6.23125">
        <ele>2178.6</ele>
        <time>2021-02-27T14:43:51Z</time>
      </trkpt>
      <trkpt lat="45.23913" lon="6.23128">
        <ele>2178.6</ele>
        <time>2021-02-27T14:43:52Z</time>
      </trkpt>
      <trkpt lat="45.23913" lon="6.23128">
        <ele>2178.6</ele>
        <time>2021-02-27T14:43:53Z</time>
      </trkpt>
      <trkpt lat="45.23913" lon="6.23132">
        <ele>2178.4</ele>
        <time>2021-02-27T14:43:54Z</time>
      </trkpt>
      <trkpt lat="45.23913" lon="6.23132">
        <ele>2177.8</ele>
        <time>2021-02-27T14:43:55Z</time>
      </trkpt>
      <trkpt lat="45.23914" lon="6.23135">
        <ele>2177.6</ele>
        <time>2021-02-27T14:43:56Z</time>
      </trkpt>
      <trkpt lat="45.23914" lon="6.23135">
        <ele>2177.6</ele>
        <time>2021-02-27T14:43:57Z</time>
      </trkpt>
      <trkpt lat="45.23914" lon="6.23139">
        <ele>2177.6</ele>
        <time>2021-02-27T14:43:58Z</time>
      </trkpt>
      <trkpt lat="45.23914" lon="6.23139">
        <ele>2177.6</ele>
        <time>2021-02-27T14:43:59Z</time>
      </trkpt>
      <trkpt lat="45.23914" lon="6.23142">
        <ele>2177.6</ele>
        <time>2021-02-27T14:44:00Z</time>
      </trkpt>
      <trkpt lat="45.23914" lon="6.23142">
        <ele>2177.8</ele>
        <time>2021-02-27T14:44:01Z</time>
      </trkpt>
      <trkpt lat="45.23914" lon="6.23145">
        <ele>2178</ele>
        <time>2021-02-27T14:44:02Z</time>
      </trkpt>
      <trkpt lat="45.23914" lon="6.23145">
        <ele>2178.2</ele>
        <time>2021-02-27T14:44:03Z</time>
      </trkpt>
      <trkpt lat="45.23915" lon="6.23148">
        <ele>2178</ele>
        <time>2021-02-27T14:44:04Z</time>
      </trkpt>
      <trkpt lat="45.23915" lon="6.23148">
        <ele>2178</ele>
        <time>2021-02-27T14:44:05Z</time>
      </trkpt>
      <trkpt lat="45.23915" lon="6.23152">
        <ele>2178</ele>
        <time>2021-02-27T14:44:06Z</time>
      </trkpt>
      <trkpt lat="45.23915" lon="6.23152">
        <ele>2178.2</ele>
        <time>2021-02-27T14:44:07Z</time>
      </trkpt>
      <trkpt lat="45.23916" lon="6.23155">
        <ele>2178</ele>
        <time>2021-02-27T14:44:08Z</time>
      </trkpt>
      <trkpt lat="45.23916" lon="6.23155">
        <ele>2178.6</ele>
        <time>2021-02-27T14:44:09Z</time>
      </trkpt>
      <trkpt lat="45.23917" lon="6.23159">
        <ele>2178.4</ele>
        <time>2021-02-27T14:44:10Z</time>
      </trkpt>
      <trkpt lat="45.23917" lon="6.23159">
        <ele>2178.4</ele>
        <time>2021-02-27T14:44:11Z</time>
      </trkpt>
      <trkpt lat="45.23918" lon="6.23162">
        <ele>2178.6</ele>
        <time>2021-02-27T14:44:12Z</time>
      </trkpt>
      <trkpt lat="45.23918" lon="6.23162">
        <ele>2178.6</ele>
        <time>2021-02-27T14:44:13Z</time>
      </trkpt>
      <trkpt lat="45.23919" lon="6.23165">
        <ele>2178.8</ele>
        <time>2021-02-27T14:44:14Z</time>
      </trkpt>
      <trkpt lat="45.23919" lon="6.23165">
        <ele>2179</ele>
        <time>2021-02-27T14:44:15Z</time>
      </trkpt>
      <trkpt lat="45.23919" lon="6.23168">
        <ele>2179</ele>
        <time>2021-02-27T14:44:16Z</time>
      </trkpt>
      <trkpt lat="45.23919" lon="6.23168">
        <ele>2179.2</ele>
        <time>2021-02-27T14:44:17Z</time>
      </trkpt>
      <trkpt lat="45.2392" lon="6.23171">
        <ele>2179.2</ele>
        <time>2021-02-27T14:44:18Z</time>
      </trkpt>
      <trkpt lat="45.2392" lon="6.23171">
        <ele>2179.6</ele>
        <time>2021-02-27T14:44:19Z</time>
      </trkpt>
      <trkpt lat="45.23919" lon="6.23175">
        <ele>2179.8</ele>
        <time>2021-02-27T14:44:20Z</time>
      </trkpt>
      <trkpt lat="45.23919" lon="6.23175">
        <ele>2179.8</ele>
        <time>2021-02-27T14:44:21Z</time>
      </trkpt>
      <trkpt lat="45.23919" lon="6.23178">
        <ele>2179.8</ele>
        <time>2021-02-27T14:44:22Z</time>
      </trkpt>
      <trkpt lat="45.23919" lon="6.23178">
        <ele>2179.8</ele>
        <time>2021-02-27T14:44:23Z</time>
      </trkpt>
      <trkpt lat="45.23918" lon="6.23182">
        <ele>2179.8</ele>
        <time>2021-02-27T14:44:24Z</time>
      </trkpt>
      <trkpt lat="45.23918" lon="6.23182">
        <ele>2180</ele>
        <time>2021-02-27T14:44:25Z</time>
      </trkpt>
      <trkpt lat="45.23916" lon="6.23185">
        <ele>2180.4</ele>
        <time>2021-02-27T14:44:26Z</time>
      </trkpt>
      <trkpt lat="45.23916" lon="6.23185">
        <ele>2180.4</ele>
        <time>2021-02-27T14:44:27Z</time>
      </trkpt>
      <trkpt lat="45.23916" lon="6.23188">
        <ele>2180.6</ele>
        <time>2021-02-27T14:44:28Z</time>
      </trkpt>
      <trkpt lat="45.23916" lon="6.23188">
        <ele>2180.4</ele>
        <time>2021-02-27T14:44:29Z</time>
      </trkpt>
      <trkpt lat="45.23915" lon="6.23191">
        <ele>2180.4</ele>
        <time>2021-02-27T14:44:30Z</time>
      </trkpt>
      <trkpt lat="45.23915" lon="6.23191">
        <ele>2180.4</ele>
        <time>2021-02-27T14:44:31Z</time>
      </trkpt>
      <trkpt lat="45.23915" lon="6.23194">
        <ele>2180.8</ele>
        <time>2021-02-27T14:44:32Z</time>
      </trkpt>
      <trkpt lat="45.23915" lon="6.23194">
        <ele>2181</ele>
        <time>2021-02-27T14:44:33Z</time>
      </trkpt>
      <trkpt lat="45.23914" lon="6.23197">
        <ele>2181.2</ele>
        <time>2021-02-27T14:44:34Z</time>
      </trkpt>
      <trkpt lat="45.23914" lon="6.23197">
        <ele>2181</ele>
        <time>2021-02-27T14:44:35Z</time>
      </trkpt>
      <trkpt lat="45.23914" lon="6.23197">
        <ele>2180.8</ele>
        <time>2021-02-27T14:44:36Z</time>
      </trkpt>
      <trkpt lat="45.23914" lon="6.23199">
        <ele>2181</ele>
        <time>2021-02-27T14:44:37Z</time>
      </trkpt>
      <trkpt lat="45.23914" lon="6.23199">
        <ele>2180.8</ele>
        <time>2021-02-27T14:44:38Z</time>
      </trkpt>
      <trkpt lat="45.23914" lon="6.23199">
        <ele>2181.4</ele>
        <time>2021-02-27T14:44:39Z</time>
      </trkpt>
      <trkpt lat="45.23914" lon="6.23199">
        <ele>2181.8</ele>
        <time>2021-02-27T14:44:40Z</time>
      </trkpt>
      <trkpt lat="45.23914" lon="6.23199">
        <ele>2181.8</ele>
        <time>2021-02-27T14:44:41Z</time>
      </trkpt>
      <trkpt lat="45.23914" lon="6.23199">
        <ele>2181.8</ele>
        <time>2021-02-27T14:44:42Z</time>
      </trkpt>
      <trkpt lat="45.23914" lon="6.23199">
        <ele>2182</ele>
        <time>2021-02-27T14:44:43Z</time>
      </trkpt>
      <trkpt lat="45.23914" lon="6.23199">
        <ele>2182</ele>
        <time>2021-02-27T14:44:44Z</time>
      </trkpt>
      <trkpt lat="45.23914" lon="6.23199">
        <ele>2182</ele>
        <time>2021-02-27T14:44:45Z</time>
      </trkpt>
      <trkpt lat="45.23914" lon="6.23199">
        <ele>2182</ele>
        <time>2021-02-27T14:44:46Z</time>
      </trkpt>
      <trkpt lat="45.23914" lon="6.23199">
        <ele>2181.6</ele>
        <time>2021-02-27T14:44:47Z</time>
      </trkpt>
      <trkpt lat="45.23914" lon="6.23199">
        <ele>2181.6</ele>
        <time>2021-02-27T14:44:48Z</time>
      </trkpt>
      <trkpt lat="45.23914" lon="6.23199">
        <ele>2181.6</ele>
        <time>2021-02-27T14:44:49Z</time>
      </trkpt>
      <trkpt lat="45.23914" lon="6.23199">
        <ele>2181.6</ele>
        <time>2021-02-27T14:44:50Z</time>
      </trkpt>
      <trkpt lat="45.23914" lon="6.23199">
        <ele>2181.6</ele>
        <time>2021-02-27T14:44:51Z</time>
      </trkpt>
      <trkpt lat="45.23914" lon="6.23199">
        <ele>2181.8</ele>
        <time>2021-02-27T14:44:52Z</time>
      </trkpt>
      <trkpt lat="45.23914" lon="6.23199">
        <ele>2182</ele>
        <time>2021-02-27T14:44:53Z</time>
      </trkpt>
      <trkpt lat="45.23914" lon="6.23199">
        <ele>2181.8</ele>
        <time>2021-02-27T14:44:54Z</time>
      </trkpt>
      <trkpt lat="45.23914" lon="6.23199">
        <ele>2182</ele>
        <time>2021-02-27T14:44:55Z</time>
      </trkpt>
      <trkpt lat="45.23914" lon="6.23199">
        <ele>2182</ele>
        <time>2021-02-27T14:44:56Z</time>
      </trkpt>
      <trkpt lat="45.23914" lon="6.23199">
        <ele>2181.6</ele>
        <time>2021-02-27T14:44:57Z</time>
      </trkpt>
      <trkpt lat="45.23914" lon="6.23199">
        <ele>2181.4</ele>
        <time>2021-02-27T14:44:58Z</time>
      </trkpt>
      <trkpt lat="45.23914" lon="6.23199">
        <ele>2181.2</ele>
        <time>2021-02-27T14:44:59Z</time>
      </trkpt>
      <trkpt lat="45.23914" lon="6.23199">
        <ele>2181</ele>
        <time>2021-02-27T14:45:00Z</time>
      </trkpt>
      <trkpt lat="45.23914" lon="6.23199">
        <ele>2180.8</ele>
        <time>2021-02-27T14:45:01Z</time>
      </trkpt>
      <trkpt lat="45.23914" lon="6.23199">
        <ele>2180.8</ele>
        <time>2021-02-27T14:45:02Z</time>
      </trkpt>
      <trkpt lat="45.23914" lon="6.23199">
        <ele>2180.8</ele>
        <time>2021-02-27T14:45:03Z</time>
      </trkpt>
      <trkpt lat="45.23914" lon="6.23199">
        <ele>2180.6</ele>
        <time>2021-02-27T14:45:04Z</time>
      </trkpt>
      <trkpt lat="45.23914" lon="6.23199">
        <ele>2180.6</ele>
        <time>2021-02-27T14:45:05Z</time>
      </trkpt>
      <trkpt lat="45.23914" lon="6.23199">
        <ele>2180.6</ele>
        <time>2021-02-27T14:45:06Z</time>
      </trkpt>
      <trkpt lat="45.23914" lon="6.23199">
        <ele>2180.4</ele>
        <time>2021-02-27T14:45:07Z</time>
      </trkpt>
      <trkpt lat="45.23914" lon="6.23199">
        <ele>2180.4</ele>
        <time>2021-02-27T14:45:08Z</time>
      </trkpt>
      <trkpt lat="45.23914" lon="6.23199">
        <ele>2180.4</ele>
        <time>2021-02-27T14:45:09Z</time>
      </trkpt>
      <trkpt lat="45.23914" lon="6.23199">
        <ele>2180.2</ele>
        <time>2021-02-27T14:45:10Z</time>
      </trkpt>
      <trkpt lat="45.23914" lon="6.23199">
        <ele>2180</ele>
        <time>2021-02-27T14:45:11Z</time>
      </trkpt>
      <trkpt lat="45.23914" lon="6.23199">
        <ele>2180.2</ele>
        <time>2021-02-27T14:45:12Z</time>
      </trkpt>
      <trkpt lat="45.23914" lon="6.23199">
        <ele>2180.2</ele>
        <time>2021-02-27T14:45:13Z</time>
      </trkpt>
      <trkpt lat="45.23914" lon="6.23199">
        <ele>2180</ele>
        <time>2021-02-27T14:45:14Z</time>
      </trkpt>
      <trkpt lat="45.23913" lon="6.23202">
        <ele>2180</ele>
        <time>2021-02-27T14:45:15Z</time>
      </trkpt>
      <trkpt lat="45.23913" lon="6.23202">
        <ele>2180.2</ele>
        <time>2021-02-27T14:45:16Z</time>
      </trkpt>
      <trkpt lat="45.23911" lon="6.23205">
        <ele>2180.2</ele>
        <time>2021-02-27T14:45:17Z</time>
      </trkpt>
      <trkpt lat="45.23911" lon="6.23205">
        <ele>2180.6</ele>
        <time>2021-02-27T14:45:18Z</time>
      </trkpt>
      <trkpt lat="45.2391" lon="6.23208">
        <ele>2180.8</ele>
        <time>2021-02-27T14:45:19Z</time>
      </trkpt>
      <trkpt lat="45.2391" lon="6.23208">
        <ele>2180.8</ele>
        <time>2021-02-27T14:45:20Z</time>
      </trkpt>
      <trkpt lat="45.23909" lon="6.2321">
        <ele>2181</ele>
        <time>2021-02-27T14:45:21Z</time>
      </trkpt>
      <trkpt lat="45.23909" lon="6.2321">
        <ele>2181.2</ele>
        <time>2021-02-27T14:45:22Z</time>
      </trkpt>
      <trkpt lat="45.23908" lon="6.23213">
        <ele>2181.2</ele>
        <time>2021-02-27T14:45:23Z</time>
      </trkpt>
      <trkpt lat="45.23908" lon="6.23213">
        <ele>2181.2</ele>
        <time>2021-02-27T14:45:24Z</time>
      </trkpt>
      <trkpt lat="45.23908" lon="6.23215">
        <ele>2181</ele>
        <time>2021-02-27T14:45:25Z</time>
      </trkpt>
      <trkpt lat="45.23908" lon="6.23215">
        <ele>2181.2</ele>
        <time>2021-02-27T14:45:26Z</time>
      </trkpt>
      <trkpt lat="45.23907" lon="6.23218">
        <ele>2181.4</ele>
        <time>2021-02-27T14:45:27Z</time>
      </trkpt>
      <trkpt lat="45.23907" lon="6.23218">
        <ele>2182</ele>
        <time>2021-02-27T14:45:28Z</time>
      </trkpt>
      <trkpt lat="45.23906" lon="6.23221">
        <ele>2182</ele>
        <time>2021-02-27T14:45:29Z</time>
      </trkpt>
      <trkpt lat="45.23906" lon="6.23221">
        <ele>2182.4</ele>
        <time>2021-02-27T14:45:30Z</time>
      </trkpt>
      <trkpt lat="45.23905" lon="6.23224">
        <ele>2182.4</ele>
        <time>2021-02-27T14:45:31Z</time>
      </trkpt>
      <trkpt lat="45.23905" lon="6.23224">
        <ele>2182.4</ele>
        <time>2021-02-27T14:45:32Z</time>
      </trkpt>
      <trkpt lat="45.23905" lon="6.23227">
        <ele>2183</ele>
        <time>2021-02-27T14:45:33Z</time>
      </trkpt>
      <trkpt lat="45.23905" lon="6.23227">
        <ele>2182.8</ele>
        <time>2021-02-27T14:45:34Z</time>
      </trkpt>
      <trkpt lat="45.23904" lon="6.2323">
        <ele>2182.8</ele>
        <time>2021-02-27T14:45:35Z</time>
      </trkpt>
      <trkpt lat="45.23904" lon="6.2323">
        <ele>2182.6</ele>
        <time>2021-02-27T14:45:36Z</time>
      </trkpt>
      <trkpt lat="45.23903" lon="6.23233">
        <ele>2182.8</ele>
        <time>2021-02-27T14:45:37Z</time>
      </trkpt>
      <trkpt lat="45.23903" lon="6.23233">
        <ele>2183.2</ele>
        <time>2021-02-27T14:45:38Z</time>
      </trkpt>
      <trkpt lat="45.23902" lon="6.23236">
        <ele>2183.2</ele>
        <time>2021-02-27T14:45:39Z</time>
      </trkpt>
      <trkpt lat="45.23902" lon="6.23236">
        <ele>2183.6</ele>
        <time>2021-02-27T14:45:40Z</time>
      </trkpt>
      <trkpt lat="45.23902" lon="6.23236">
        <ele>2183.4</ele>
        <time>2021-02-27T14:45:41Z</time>
      </trkpt>
      <trkpt lat="45.239" lon="6.23238">
        <ele>2183.8</ele>
        <time>2021-02-27T14:45:42Z</time>
      </trkpt>
      <trkpt lat="45.239" lon="6.23238">
        <ele>2184</ele>
        <time>2021-02-27T14:45:43Z</time>
      </trkpt>
      <trkpt lat="45.239" lon="6.23238">
        <ele>2184.2</ele>
        <time>2021-02-27T14:45:44Z</time>
      </trkpt>
      <trkpt lat="45.239" lon="6.23238">
        <ele>2184</ele>
        <time>2021-02-27T14:45:45Z</time>
      </trkpt>
      <trkpt lat="45.239" lon="6.23238">
        <ele>2184.2</ele>
        <time>2021-02-27T14:45:46Z</time>
      </trkpt>
      <trkpt lat="45.239" lon="6.23238">
        <ele>2184.2</ele>
        <time>2021-02-27T14:45:47Z</time>
      </trkpt>
      <trkpt lat="45.239" lon="6.23238">
        <ele>2184.4</ele>
        <time>2021-02-27T14:45:48Z</time>
      </trkpt>
      <trkpt lat="45.239" lon="6.23238">
        <ele>2184.4</ele>
        <time>2021-02-27T14:45:49Z</time>
      </trkpt>
      <trkpt lat="45.239" lon="6.23238">
        <ele>2184.2</ele>
        <time>2021-02-27T14:45:50Z</time>
      </trkpt>
      <trkpt lat="45.239" lon="6.23238">
        <ele>2184.6</ele>
        <time>2021-02-27T14:45:51Z</time>
      </trkpt>
      <trkpt lat="45.239" lon="6.23238">
        <ele>2184.4</ele>
        <time>2021-02-27T14:45:52Z</time>
      </trkpt>
      <trkpt lat="45.239" lon="6.23238">
        <ele>2184.6</ele>
        <time>2021-02-27T14:45:53Z</time>
      </trkpt>
      <trkpt lat="45.239" lon="6.23238">
        <ele>2184.6</ele>
        <time>2021-02-27T14:45:54Z</time>
      </trkpt>
      <trkpt lat="45.239" lon="6.23238">
        <ele>2184.6</ele>
        <time>2021-02-27T14:45:55Z</time>
      </trkpt>
      <trkpt lat="45.239" lon="6.23243">
        <ele>2184.8</ele>
        <time>2021-02-27T14:45:56Z</time>
      </trkpt>
      <trkpt lat="45.239" lon="6.23243">
        <ele>2184.6</ele>
        <time>2021-02-27T14:45:57Z</time>
      </trkpt>
      <trkpt lat="45.239" lon="6.23244">
        <ele>2185</ele>
        <time>2021-02-27T14:45:58Z</time>
      </trkpt>
      <trkpt lat="45.23899" lon="6.23246">
        <ele>2184.6</ele>
        <time>2021-02-27T14:45:59Z</time>
      </trkpt>
      <trkpt lat="45.23899" lon="6.23247">
        <ele>2185</ele>
        <time>2021-02-27T14:46:00Z</time>
      </trkpt>
      <trkpt lat="45.23898" lon="6.23249">
        <ele>2185</ele>
        <time>2021-02-27T14:46:01Z</time>
      </trkpt>
      <trkpt lat="45.23898" lon="6.23252">
        <ele>2185</ele>
        <time>2021-02-27T14:46:02Z</time>
      </trkpt>
      <trkpt lat="45.23898" lon="6.23252">
        <ele>2185</ele>
        <time>2021-02-27T14:46:03Z</time>
      </trkpt>
      <trkpt lat="45.23897" lon="6.23255">
        <ele>2185.2</ele>
        <time>2021-02-27T14:46:04Z</time>
      </trkpt>
      <trkpt lat="45.23897" lon="6.23255">
        <ele>2185.4</ele>
        <time>2021-02-27T14:46:05Z</time>
      </trkpt>
      <trkpt lat="45.23896" lon="6.23259">
        <ele>2185.4</ele>
        <time>2021-02-27T14:46:06Z</time>
      </trkpt>
      <trkpt lat="45.23896" lon="6.23259">
        <ele>2185.2</ele>
        <time>2021-02-27T14:46:07Z</time>
      </trkpt>
      <trkpt lat="45.23894" lon="6.23263">
        <ele>2185.4</ele>
        <time>2021-02-27T14:46:08Z</time>
      </trkpt>
      <trkpt lat="45.23894" lon="6.23263">
        <ele>2185.6</ele>
        <time>2021-02-27T14:46:09Z</time>
      </trkpt>
      <trkpt lat="45.23893" lon="6.23266">
        <ele>2186</ele>
        <time>2021-02-27T14:46:10Z</time>
      </trkpt>
      <trkpt lat="45.23893" lon="6.23266">
        <ele>2186</ele>
        <time>2021-02-27T14:46:11Z</time>
      </trkpt>
      <trkpt lat="45.23891" lon="6.2327">
        <ele>2186.4</ele>
        <time>2021-02-27T14:46:12Z</time>
      </trkpt>
      <trkpt lat="45.23891" lon="6.2327">
        <ele>2186.6</ele>
        <time>2021-02-27T14:46:13Z</time>
      </trkpt>
      <trkpt lat="45.2389" lon="6.23273">
        <ele>2186.4</ele>
        <time>2021-02-27T14:46:14Z</time>
      </trkpt>
      <trkpt lat="45.2389" lon="6.23273">
        <ele>2186.4</ele>
        <time>2021-02-27T14:46:15Z</time>
      </trkpt>
      <trkpt lat="45.23889" lon="6.23278">
        <ele>2186.4</ele>
        <time>2021-02-27T14:46:16Z</time>
      </trkpt>
      <trkpt lat="45.23889" lon="6.23278">
        <ele>2186.4</ele>
        <time>2021-02-27T14:46:17Z</time>
      </trkpt>
      <trkpt lat="45.23888" lon="6.23282">
        <ele>2186.6</ele>
        <time>2021-02-27T14:46:18Z</time>
      </trkpt>
      <trkpt lat="45.23888" lon="6.23282">
        <ele>2186.6</ele>
        <time>2021-02-27T14:46:19Z</time>
      </trkpt>
      <trkpt lat="45.23887" lon="6.23286">
        <ele>2186.4</ele>
        <time>2021-02-27T14:46:20Z</time>
      </trkpt>
      <trkpt lat="45.23887" lon="6.23286">
        <ele>2186.4</ele>
        <time>2021-02-27T14:46:21Z</time>
      </trkpt>
      <trkpt lat="45.23886" lon="6.23291">
        <ele>2186.4</ele>
        <time>2021-02-27T14:46:22Z</time>
      </trkpt>
      <trkpt lat="45.23886" lon="6.23294">
        <ele>2186.4</ele>
        <time>2021-02-27T14:46:23Z</time>
      </trkpt>
      <trkpt lat="45.23886" lon="6.23294">
        <ele>2186.4</ele>
        <time>2021-02-27T14:46:24Z</time>
      </trkpt>
      <trkpt lat="45.23885" lon="6.23298">
        <ele>2186.6</ele>
        <time>2021-02-27T14:46:25Z</time>
      </trkpt>
      <trkpt lat="45.23884" lon="6.233">
        <ele>2186.6</ele>
        <time>2021-02-27T14:46:26Z</time>
      </trkpt>
      <trkpt lat="45.23884" lon="6.233">
        <ele>2186.4</ele>
        <time>2021-02-27T14:46:27Z</time>
      </trkpt>
      <trkpt lat="45.23883" lon="6.23305">
        <ele>2186.4</ele>
        <time>2021-02-27T14:46:28Z</time>
      </trkpt>
      <trkpt lat="45.23882" lon="6.23307">
        <ele>2186.2</ele>
        <time>2021-02-27T14:46:29Z</time>
      </trkpt>
      <trkpt lat="45.23882" lon="6.23307">
        <ele>2186.6</ele>
        <time>2021-02-27T14:46:30Z</time>
      </trkpt>
      <trkpt lat="45.23881" lon="6.23309">
        <ele>2186.2</ele>
        <time>2021-02-27T14:46:31Z</time>
      </trkpt>
      <trkpt lat="45.2388" lon="6.23312">
        <ele>2186</ele>
        <time>2021-02-27T14:46:32Z</time>
      </trkpt>
      <trkpt lat="45.2388" lon="6.23314">
        <ele>2186.2</ele>
        <time>2021-02-27T14:46:33Z</time>
      </trkpt>
      <trkpt lat="45.23879" lon="6.23316">
        <ele>2186</ele>
        <time>2021-02-27T14:46:34Z</time>
      </trkpt>
      <trkpt lat="45.23878" lon="6.23319">
        <ele>2186.2</ele>
        <time>2021-02-27T14:46:35Z</time>
      </trkpt>
      <trkpt lat="45.23877" lon="6.23321">
        <ele>2186</ele>
        <time>2021-02-27T14:46:36Z</time>
      </trkpt>
      <trkpt lat="45.23877" lon="6.23324">
        <ele>2186</ele>
        <time>2021-02-27T14:46:37Z</time>
      </trkpt>
      <trkpt lat="45.23876" lon="6.23326">
        <ele>2186</ele>
        <time>2021-02-27T14:46:38Z</time>
      </trkpt>
      <trkpt lat="45.23876" lon="6.23329">
        <ele>2186</ele>
        <time>2021-02-27T14:46:39Z</time>
      </trkpt>
      <trkpt lat="45.23875" lon="6.23332">
        <ele>2185.8</ele>
        <time>2021-02-27T14:46:40Z</time>
      </trkpt>
      <trkpt lat="45.23875" lon="6.23334">
        <ele>2186.2</ele>
        <time>2021-02-27T14:46:41Z</time>
      </trkpt>
      <trkpt lat="45.23874" lon="6.23336">
        <ele>2186.2</ele>
        <time>2021-02-27T14:46:42Z</time>
      </trkpt>
      <trkpt lat="45.23874" lon="6.23338">
        <ele>2186.2</ele>
        <time>2021-02-27T14:46:43Z</time>
      </trkpt>
      <trkpt lat="45.23872" lon="6.23342">
        <ele>2186.2</ele>
        <time>2021-02-27T14:46:44Z</time>
      </trkpt>
      <trkpt lat="45.23872" lon="6.23342">
        <ele>2186.4</ele>
        <time>2021-02-27T14:46:45Z</time>
      </trkpt>
      <trkpt lat="45.2387" lon="6.23345">
        <ele>2186</ele>
        <time>2021-02-27T14:46:46Z</time>
      </trkpt>
      <trkpt lat="45.2387" lon="6.23345">
        <ele>2186.2</ele>
        <time>2021-02-27T14:46:47Z</time>
      </trkpt>
      <trkpt lat="45.23869" lon="6.23349">
        <ele>2186.2</ele>
        <time>2021-02-27T14:46:48Z</time>
      </trkpt>
      <trkpt lat="45.23869" lon="6.23349">
        <ele>2186.4</ele>
        <time>2021-02-27T14:46:49Z</time>
      </trkpt>
      <trkpt lat="45.23868" lon="6.23353">
        <ele>2186.2</ele>
        <time>2021-02-27T14:46:50Z</time>
      </trkpt>
      <trkpt lat="45.23868" lon="6.23353">
        <ele>2186.6</ele>
        <time>2021-02-27T14:46:51Z</time>
      </trkpt>
      <trkpt lat="45.23867" lon="6.23357">
        <ele>2186.6</ele>
        <time>2021-02-27T14:46:52Z</time>
      </trkpt>
      <trkpt lat="45.23867" lon="6.23357">
        <ele>2186.6</ele>
        <time>2021-02-27T14:46:53Z</time>
      </trkpt>
      <trkpt lat="45.23866" lon="6.23361">
        <ele>2186.8</ele>
        <time>2021-02-27T14:46:54Z</time>
      </trkpt>
      <trkpt lat="45.23866" lon="6.23361">
        <ele>2186.6</ele>
        <time>2021-02-27T14:46:55Z</time>
      </trkpt>
      <trkpt lat="45.23866" lon="6.23365">
        <ele>2186.8</ele>
        <time>2021-02-27T14:46:56Z</time>
      </trkpt>
      <trkpt lat="45.23866" lon="6.23365">
        <ele>2186.8</ele>
        <time>2021-02-27T14:46:57Z</time>
      </trkpt>
      <trkpt lat="45.23865" lon="6.23369">
        <ele>2186.8</ele>
        <time>2021-02-27T14:46:58Z</time>
      </trkpt>
      <trkpt lat="45.23865" lon="6.23369">
        <ele>2187</ele>
        <time>2021-02-27T14:46:59Z</time>
      </trkpt>
      <trkpt lat="45.23864" lon="6.23373">
        <ele>2187.4</ele>
        <time>2021-02-27T14:47:00Z</time>
      </trkpt>
      <trkpt lat="45.23864" lon="6.23373">
        <ele>2187.4</ele>
        <time>2021-02-27T14:47:01Z</time>
      </trkpt>
      <trkpt lat="45.23863" lon="6.23376">
        <ele>2187.8</ele>
        <time>2021-02-27T14:47:02Z</time>
      </trkpt>
      <trkpt lat="45.23863" lon="6.23376">
        <ele>2188</ele>
        <time>2021-02-27T14:47:03Z</time>
      </trkpt>
      <trkpt lat="45.23862" lon="6.2338">
        <ele>2188</ele>
        <time>2021-02-27T14:47:04Z</time>
      </trkpt>
      <trkpt lat="45.23862" lon="6.2338">
        <ele>2188.4</ele>
        <time>2021-02-27T14:47:05Z</time>
      </trkpt>
      <trkpt lat="45.23861" lon="6.23383">
        <ele>2188.6</ele>
        <time>2021-02-27T14:47:06Z</time>
      </trkpt>
      <trkpt lat="45.23861" lon="6.23383">
        <ele>2188.6</ele>
        <time>2021-02-27T14:47:07Z</time>
      </trkpt>
      <trkpt lat="45.2386" lon="6.23387">
        <ele>2188.8</ele>
        <time>2021-02-27T14:47:08Z</time>
      </trkpt>
      <trkpt lat="45.2386" lon="6.23387">
        <ele>2188.6</ele>
        <time>2021-02-27T14:47:09Z</time>
      </trkpt>
      <trkpt lat="45.23859" lon="6.2339">
        <ele>2189</ele>
        <time>2021-02-27T14:47:10Z</time>
      </trkpt>
      <trkpt lat="45.23859" lon="6.2339">
        <ele>2189.2</ele>
        <time>2021-02-27T14:47:11Z</time>
      </trkpt>
      <trkpt lat="45.23858" lon="6.23392">
        <ele>2189.4</ele>
        <time>2021-02-27T14:47:12Z</time>
      </trkpt>
      <trkpt lat="45.23858" lon="6.23392">
        <ele>2189.4</ele>
        <time>2021-02-27T14:47:13Z</time>
      </trkpt>
      <trkpt lat="45.23857" lon="6.23395">
        <ele>2189.4</ele>
        <time>2021-02-27T14:47:14Z</time>
      </trkpt>
      <trkpt lat="45.23857" lon="6.23395">
        <ele>2190</ele>
        <time>2021-02-27T14:47:15Z</time>
      </trkpt>
      <trkpt lat="45.23856" lon="6.23398">
        <ele>2190</ele>
        <time>2021-02-27T14:47:16Z</time>
      </trkpt>
      <trkpt lat="45.23856" lon="6.23398">
        <ele>2190</ele>
        <time>2021-02-27T14:47:17Z</time>
      </trkpt>
      <trkpt lat="45.23855" lon="6.23401">
        <ele>2190</ele>
        <time>2021-02-27T14:47:18Z</time>
      </trkpt>
      <trkpt lat="45.23855" lon="6.23401">
        <ele>2190.4</ele>
        <time>2021-02-27T14:47:19Z</time>
      </trkpt>
      <trkpt lat="45.23854" lon="6.23403">
        <ele>2190.6</ele>
        <time>2021-02-27T14:47:20Z</time>
      </trkpt>
      <trkpt lat="45.23854" lon="6.23403">
        <ele>2190.8</ele>
        <time>2021-02-27T14:47:21Z</time>
      </trkpt>
      <trkpt lat="45.23854" lon="6.23405">
        <ele>2191</ele>
        <time>2021-02-27T14:47:22Z</time>
      </trkpt>
      <trkpt lat="45.23854" lon="6.23406">
        <ele>2191</ele>
        <time>2021-02-27T14:47:23Z</time>
      </trkpt>
      <trkpt lat="45.23853" lon="6.23408">
        <ele>2191.4</ele>
        <time>2021-02-27T14:47:24Z</time>
      </trkpt>
      <trkpt lat="45.23853" lon="6.23409">
        <ele>2191.4</ele>
        <time>2021-02-27T14:47:25Z</time>
      </trkpt>
      <trkpt lat="45.23853" lon="6.23411">
        <ele>2191.4</ele>
        <time>2021-02-27T14:47:26Z</time>
      </trkpt>
      <trkpt lat="45.23853" lon="6.23412">
        <ele>2192</ele>
        <time>2021-02-27T14:47:27Z</time>
      </trkpt>
      <trkpt lat="45.23852" lon="6.23414">
        <ele>2192.2</ele>
        <time>2021-02-27T14:47:28Z</time>
      </trkpt>
      <trkpt lat="45.23852" lon="6.23415">
        <ele>2192.4</ele>
        <time>2021-02-27T14:47:29Z</time>
      </trkpt>
      <trkpt lat="45.23852" lon="6.23417">
        <ele>2192.6</ele>
        <time>2021-02-27T14:47:30Z</time>
      </trkpt>
      <trkpt lat="45.23852" lon="6.23417">
        <ele>2192.6</ele>
        <time>2021-02-27T14:47:31Z</time>
      </trkpt>
      <trkpt lat="45.23851" lon="6.23421">
        <ele>2193.4</ele>
        <time>2021-02-27T14:47:32Z</time>
      </trkpt>
      <trkpt lat="45.23851" lon="6.23421">
        <ele>2193.2</ele>
        <time>2021-02-27T14:47:33Z</time>
      </trkpt>
      <trkpt lat="45.2385" lon="6.23424">
        <ele>2193.4</ele>
        <time>2021-02-27T14:47:34Z</time>
      </trkpt>
      <trkpt lat="45.2385" lon="6.23424">
        <ele>2193.6</ele>
        <time>2021-02-27T14:47:35Z</time>
      </trkpt>
      <trkpt lat="45.23849" lon="6.23426">
        <ele>2193.8</ele>
        <time>2021-02-27T14:47:36Z</time>
      </trkpt>
      <trkpt lat="45.23849" lon="6.23426">
        <ele>2194</ele>
        <time>2021-02-27T14:47:37Z</time>
      </trkpt>
      <trkpt lat="45.23848" lon="6.23429">
        <ele>2194.2</ele>
        <time>2021-02-27T14:47:38Z</time>
      </trkpt>
      <trkpt lat="45.23848" lon="6.23429">
        <ele>2194.6</ele>
        <time>2021-02-27T14:47:39Z</time>
      </trkpt>
      <trkpt lat="45.23847" lon="6.23432">
        <ele>2194.8</ele>
        <time>2021-02-27T14:47:40Z</time>
      </trkpt>
      <trkpt lat="45.23847" lon="6.23432">
        <ele>2195</ele>
        <time>2021-02-27T14:47:41Z</time>
      </trkpt>
      <trkpt lat="45.23846" lon="6.23435">
        <ele>2195.4</ele>
        <time>2021-02-27T14:47:42Z</time>
      </trkpt>
      <trkpt lat="45.23846" lon="6.23435">
        <ele>2195.6</ele>
        <time>2021-02-27T14:47:43Z</time>
      </trkpt>
      <trkpt lat="45.23845" lon="6.23437">
        <ele>2195.4</ele>
        <time>2021-02-27T14:47:44Z</time>
      </trkpt>
      <trkpt lat="45.23845" lon="6.23437">
        <ele>2195.4</ele>
        <time>2021-02-27T14:47:45Z</time>
      </trkpt>
      <trkpt lat="45.23844" lon="6.23439">
        <ele>2195.6</ele>
        <time>2021-02-27T14:47:46Z</time>
      </trkpt>
      <trkpt lat="45.23844" lon="6.2344">
        <ele>2195.8</ele>
        <time>2021-02-27T14:47:47Z</time>
      </trkpt>
      <trkpt lat="45.23844" lon="6.23442">
        <ele>2196.2</ele>
        <time>2021-02-27T14:47:48Z</time>
      </trkpt>
      <trkpt lat="45.23843" lon="6.23444">
        <ele>2196.4</ele>
        <time>2021-02-27T14:47:49Z</time>
      </trkpt>
      <trkpt lat="45.23843" lon="6.23445">
        <ele>2196.6</ele>
        <time>2021-02-27T14:47:50Z</time>
      </trkpt>
      <trkpt lat="45.23843" lon="6.23447">
        <ele>2197</ele>
        <time>2021-02-27T14:47:51Z</time>
      </trkpt>
      <trkpt lat="45.23842" lon="6.23448">
        <ele>2197.2</ele>
        <time>2021-02-27T14:47:52Z</time>
      </trkpt>
      <trkpt lat="45.23842" lon="6.2345">
        <ele>2197</ele>
        <time>2021-02-27T14:47:53Z</time>
      </trkpt>
      <trkpt lat="45.23841" lon="6.23451">
        <ele>2197.2</ele>
        <time>2021-02-27T14:47:54Z</time>
      </trkpt>
      <trkpt lat="45.23841" lon="6.23453">
        <ele>2197.4</ele>
        <time>2021-02-27T14:47:55Z</time>
      </trkpt>
      <trkpt lat="45.2384" lon="6.23454">
        <ele>2197.6</ele>
        <time>2021-02-27T14:47:56Z</time>
      </trkpt>
      <trkpt lat="45.2384" lon="6.23456">
        <ele>2197.4</ele>
        <time>2021-02-27T14:47:57Z</time>
      </trkpt>
      <trkpt lat="45.23839" lon="6.23457">
        <ele>2197.4</ele>
        <time>2021-02-27T14:47:58Z</time>
      </trkpt>
      <trkpt lat="45.23839" lon="6.23459">
        <ele>2197.8</ele>
        <time>2021-02-27T14:47:59Z</time>
      </trkpt>
      <trkpt lat="45.23838" lon="6.2346">
        <ele>2198.2</ele>
        <time>2021-02-27T14:48:00Z</time>
      </trkpt>
      <trkpt lat="45.23838" lon="6.23462">
        <ele>2198.4</ele>
        <time>2021-02-27T14:48:01Z</time>
      </trkpt>
      <trkpt lat="45.23837" lon="6.23463">
        <ele>2198.6</ele>
        <time>2021-02-27T14:48:02Z</time>
      </trkpt>
      <trkpt lat="45.23836" lon="6.23465">
        <ele>2198.6</ele>
        <time>2021-02-27T14:48:03Z</time>
      </trkpt>
      <trkpt lat="45.23836" lon="6.23467">
        <ele>2198.8</ele>
        <time>2021-02-27T14:48:04Z</time>
      </trkpt>
      <trkpt lat="45.23835" lon="6.23468">
        <ele>2199</ele>
        <time>2021-02-27T14:48:05Z</time>
      </trkpt>
      <trkpt lat="45.23834" lon="6.2347">
        <ele>2199</ele>
        <time>2021-02-27T14:48:06Z</time>
      </trkpt>
      <trkpt lat="45.23834" lon="6.23472">
        <ele>2199.4</ele>
        <time>2021-02-27T14:48:07Z</time>
      </trkpt>
      <trkpt lat="45.23833" lon="6.23473">
        <ele>2199.2</ele>
        <time>2021-02-27T14:48:08Z</time>
      </trkpt>
      <trkpt lat="45.23833" lon="6.23474">
        <ele>2199.6</ele>
        <time>2021-02-27T14:48:09Z</time>
      </trkpt>
      <trkpt lat="45.23832" lon="6.23476">
        <ele>2199.6</ele>
        <time>2021-02-27T14:48:10Z</time>
      </trkpt>
      <trkpt lat="45.23832" lon="6.23477">
        <ele>2199.8</ele>
        <time>2021-02-27T14:48:11Z</time>
      </trkpt>
      <trkpt lat="45.23831" lon="6.23478">
        <ele>2200</ele>
        <time>2021-02-27T14:48:12Z</time>
      </trkpt>
      <trkpt lat="45.23831" lon="6.2348">
        <ele>2200.4</ele>
        <time>2021-02-27T14:48:13Z</time>
      </trkpt>
      <trkpt lat="45.23831" lon="6.23481">
        <ele>2200.6</ele>
        <time>2021-02-27T14:48:14Z</time>
      </trkpt>
      <trkpt lat="45.2383" lon="6.23482">
        <ele>2200.6</ele>
        <time>2021-02-27T14:48:15Z</time>
      </trkpt>
      <trkpt lat="45.2383" lon="6.23484">
        <ele>2201</ele>
        <time>2021-02-27T14:48:16Z</time>
      </trkpt>
      <trkpt lat="45.2383" lon="6.23485">
        <ele>2201.2</ele>
        <time>2021-02-27T14:48:17Z</time>
      </trkpt>
      <trkpt lat="45.23829" lon="6.23488">
        <ele>2201.2</ele>
        <time>2021-02-27T14:48:18Z</time>
      </trkpt>
      <trkpt lat="45.23829" lon="6.23488">
        <ele>2201.4</ele>
        <time>2021-02-27T14:48:19Z</time>
      </trkpt>
      <trkpt lat="45.23828" lon="6.23491">
        <ele>2201.8</ele>
        <time>2021-02-27T14:48:20Z</time>
      </trkpt>
      <trkpt lat="45.23828" lon="6.23491">
        <ele>2201.8</ele>
        <time>2021-02-27T14:48:21Z</time>
      </trkpt>
      <trkpt lat="45.23828" lon="6.23493">
        <ele>2202</ele>
        <time>2021-02-27T14:48:22Z</time>
      </trkpt>
      <trkpt lat="45.23828" lon="6.23493">
        <ele>2202.4</ele>
        <time>2021-02-27T14:48:23Z</time>
      </trkpt>
      <trkpt lat="45.23827" lon="6.23496">
        <ele>2203.2</ele>
        <time>2021-02-27T14:48:24Z</time>
      </trkpt>
      <trkpt lat="45.23827" lon="6.23496">
        <ele>2203</ele>
        <time>2021-02-27T14:48:25Z</time>
      </trkpt>
      <trkpt lat="45.23827" lon="6.23499">
        <ele>2202.8</ele>
        <time>2021-02-27T14:48:26Z</time>
      </trkpt>
      <trkpt lat="45.23827" lon="6.23499">
        <ele>2203</ele>
        <time>2021-02-27T14:48:27Z</time>
      </trkpt>
      <trkpt lat="45.23826" lon="6.23502">
        <ele>2203.2</ele>
        <time>2021-02-27T14:48:28Z</time>
      </trkpt>
      <trkpt lat="45.23826" lon="6.23502">
        <ele>2203.6</ele>
        <time>2021-02-27T14:48:29Z</time>
      </trkpt>
      <trkpt lat="45.23826" lon="6.23502">
        <ele>2203.6</ele>
        <time>2021-02-27T14:48:30Z</time>
      </trkpt>
      <trkpt lat="45.23825" lon="6.23506">
        <ele>2204</ele>
        <time>2021-02-27T14:48:31Z</time>
      </trkpt>
      <trkpt lat="45.23825" lon="6.23506">
        <ele>2204</ele>
        <time>2021-02-27T14:48:32Z</time>
      </trkpt>
      <trkpt lat="45.23824" lon="6.23509">
        <ele>2204.2</ele>
        <time>2021-02-27T14:48:33Z</time>
      </trkpt>
      <trkpt lat="45.23824" lon="6.23509">
        <ele>2204.2</ele>
        <time>2021-02-27T14:48:34Z</time>
      </trkpt>
      <trkpt lat="45.23823" lon="6.23512">
        <ele>2203.8</ele>
        <time>2021-02-27T14:48:35Z</time>
      </trkpt>
      <trkpt lat="45.23823" lon="6.23512">
        <ele>2204.2</ele>
        <time>2021-02-27T14:48:36Z</time>
      </trkpt>
      <trkpt lat="45.23823" lon="6.23516">
        <ele>2204.2</ele>
        <time>2021-02-27T14:48:37Z</time>
      </trkpt>
      <trkpt lat="45.23823" lon="6.23516">
        <ele>2204.2</ele>
        <time>2021-02-27T14:48:38Z</time>
      </trkpt>
      <trkpt lat="45.23822" lon="6.2352">
        <ele>2204.2</ele>
        <time>2021-02-27T14:48:39Z</time>
      </trkpt>
      <trkpt lat="45.23822" lon="6.2352">
        <ele>2204.2</ele>
        <time>2021-02-27T14:48:40Z</time>
      </trkpt>
      <trkpt lat="45.23821" lon="6.23522">
        <ele>2204.2</ele>
        <time>2021-02-27T14:48:41Z</time>
      </trkpt>
      <trkpt lat="45.23821" lon="6.23522">
        <ele>2204.2</ele>
        <time>2021-02-27T14:48:42Z</time>
      </trkpt>
      <trkpt lat="45.23821" lon="6.23522">
        <ele>2204.2</ele>
        <time>2021-02-27T14:48:43Z</time>
      </trkpt>
      <trkpt lat="45.2382" lon="6.23525">
        <ele>2204.4</ele>
        <time>2021-02-27T14:48:44Z</time>
      </trkpt>
      <trkpt lat="45.2382" lon="6.23525">
        <ele>2204.4</ele>
        <time>2021-02-27T14:48:45Z</time>
      </trkpt>
      <trkpt lat="45.2382" lon="6.23525">
        <ele>2204.4</ele>
        <time>2021-02-27T14:48:46Z</time>
      </trkpt>
      <trkpt lat="45.23818" lon="6.23527">
        <ele>2204.2</ele>
        <time>2021-02-27T14:48:47Z</time>
      </trkpt>
      <trkpt lat="45.23818" lon="6.23527">
        <ele>2204.4</ele>
        <time>2021-02-27T14:48:48Z</time>
      </trkpt>
      <trkpt lat="45.23818" lon="6.23527">
        <ele>2204.4</ele>
        <time>2021-02-27T14:48:49Z</time>
      </trkpt>
      <trkpt lat="45.23817" lon="6.2353">
        <ele>2204.4</ele>
        <time>2021-02-27T14:48:50Z</time>
      </trkpt>
      <trkpt lat="45.23817" lon="6.2353">
        <ele>2204.6</ele>
        <time>2021-02-27T14:48:51Z</time>
      </trkpt>
      <trkpt lat="45.23816" lon="6.23533">
        <ele>2204.6</ele>
        <time>2021-02-27T14:48:52Z</time>
      </trkpt>
      <trkpt lat="45.23816" lon="6.23533">
        <ele>2204.6</ele>
        <time>2021-02-27T14:48:53Z</time>
      </trkpt>
      <trkpt lat="45.23816" lon="6.23533">
        <ele>2204.6</ele>
        <time>2021-02-27T14:48:54Z</time>
      </trkpt>
      <trkpt lat="45.23815" lon="6.23536">
        <ele>2204.4</ele>
        <time>2021-02-27T14:48:55Z</time>
      </trkpt>
      <trkpt lat="45.23814" lon="6.23538">
        <ele>2204.4</ele>
        <time>2021-02-27T14:48:56Z</time>
      </trkpt>
      <trkpt lat="45.23813" lon="6.23541">
        <ele>2204.2</ele>
        <time>2021-02-27T14:48:57Z</time>
      </trkpt>
      <trkpt lat="45.23813" lon="6.23544">
        <ele>2204</ele>
        <time>2021-02-27T14:48:58Z</time>
      </trkpt>
      <trkpt lat="45.23813" lon="6.23548">
        <ele>2203.6</ele>
        <time>2021-02-27T14:48:59Z</time>
      </trkpt>
      <trkpt lat="45.23812" lon="6.23553">
        <ele>2203</ele>
        <time>2021-02-27T14:49:00Z</time>
      </trkpt>
      <trkpt lat="45.23811" lon="6.23558">
        <ele>2202.4</ele>
        <time>2021-02-27T14:49:01Z</time>
      </trkpt>
      <trkpt lat="45.2381" lon="6.23563">
        <ele>2201.6</ele>
        <time>2021-02-27T14:49:02Z</time>
      </trkpt>
      <trkpt lat="45.23809" lon="6.23569">
        <ele>2200.8</ele>
        <time>2021-02-27T14:49:03Z</time>
      </trkpt>
      <trkpt lat="45.23809" lon="6.23575">
        <ele>2200.4</ele>
        <time>2021-02-27T14:49:04Z</time>
      </trkpt>
      <trkpt lat="45.23808" lon="6.2358">
        <ele>2199.8</ele>
        <time>2021-02-27T14:49:05Z</time>
      </trkpt>
      <trkpt lat="45.23807" lon="6.23585">
        <ele>2199</ele>
        <time>2021-02-27T14:49:06Z</time>
      </trkpt>
      <trkpt lat="45.23806" lon="6.2359">
        <ele>2198.4</ele>
        <time>2021-02-27T14:49:07Z</time>
      </trkpt>
      <trkpt lat="45.23804" lon="6.23595">
        <ele>2198.6</ele>
        <time>2021-02-27T14:49:08Z</time>
      </trkpt>
      <trkpt lat="45.23802" lon="6.23601">
        <ele>2197.6</ele>
        <time>2021-02-27T14:49:09Z</time>
      </trkpt>
      <trkpt lat="45.23801" lon="6.23606">
        <ele>2197</ele>
        <time>2021-02-27T14:49:10Z</time>
      </trkpt>
      <trkpt lat="45.23799" lon="6.23613">
        <ele>2195.8</ele>
        <time>2021-02-27T14:49:11Z</time>
      </trkpt>
      <trkpt lat="45.23797" lon="6.23619">
        <ele>2194.6</ele>
        <time>2021-02-27T14:49:12Z</time>
      </trkpt>
      <trkpt lat="45.23796" lon="6.23626">
        <ele>2194.2</ele>
        <time>2021-02-27T14:49:13Z</time>
      </trkpt>
      <trkpt lat="45.23794" lon="6.23631">
        <ele>2193</ele>
        <time>2021-02-27T14:49:14Z</time>
      </trkpt>
      <trkpt lat="45.23792" lon="6.23637">
        <ele>2192.4</ele>
        <time>2021-02-27T14:49:15Z</time>
      </trkpt>
      <trkpt lat="45.23791" lon="6.23643">
        <ele>2191.8</ele>
        <time>2021-02-27T14:49:16Z</time>
      </trkpt>
      <trkpt lat="45.2379" lon="6.23648">
        <ele>2190.8</ele>
        <time>2021-02-27T14:49:17Z</time>
      </trkpt>
      <trkpt lat="45.23789" lon="6.23653">
        <ele>2190.4</ele>
        <time>2021-02-27T14:49:18Z</time>
      </trkpt>
      <trkpt lat="45.23789" lon="6.23653">
        <ele>2190</ele>
        <time>2021-02-27T14:49:19Z</time>
      </trkpt>
      <trkpt lat="45.23788" lon="6.23659">
        <ele>2190</ele>
        <time>2021-02-27T14:49:20Z</time>
      </trkpt>
      <trkpt lat="45.23787" lon="6.23664">
        <ele>2189.4</ele>
        <time>2021-02-27T14:49:21Z</time>
      </trkpt>
      <trkpt lat="45.23786" lon="6.2367">
        <ele>2189</ele>
        <time>2021-02-27T14:49:22Z</time>
      </trkpt>
      <trkpt lat="45.23785" lon="6.23674">
        <ele>2188.2</ele>
        <time>2021-02-27T14:49:23Z</time>
      </trkpt>
      <trkpt lat="45.23784" lon="6.23678">
        <ele>2187.4</ele>
        <time>2021-02-27T14:49:24Z</time>
      </trkpt>
      <trkpt lat="45.23784" lon="6.23683">
        <ele>2186.8</ele>
        <time>2021-02-27T14:49:25Z</time>
      </trkpt>
      <trkpt lat="45.23783" lon="6.23687">
        <ele>2186.8</ele>
        <time>2021-02-27T14:49:26Z</time>
      </trkpt>
      <trkpt lat="45.23783" lon="6.2369">
        <ele>2186.6</ele>
        <time>2021-02-27T14:49:27Z</time>
      </trkpt>
      <trkpt lat="45.23782" lon="6.23693">
        <ele>2186.2</ele>
        <time>2021-02-27T14:49:28Z</time>
      </trkpt>
      <trkpt lat="45.23781" lon="6.23696">
        <ele>2186</ele>
        <time>2021-02-27T14:49:29Z</time>
      </trkpt>
      <trkpt lat="45.2378" lon="6.23698">
        <ele>2185.6</ele>
        <time>2021-02-27T14:49:30Z</time>
      </trkpt>
      <trkpt lat="45.23779" lon="6.23701">
        <ele>2185.4</ele>
        <time>2021-02-27T14:49:31Z</time>
      </trkpt>
      <trkpt lat="45.23778" lon="6.23703">
        <ele>2185.2</ele>
        <time>2021-02-27T14:49:32Z</time>
      </trkpt>
      <trkpt lat="45.23778" lon="6.23703">
        <ele>2185</ele>
        <time>2021-02-27T14:49:33Z</time>
      </trkpt>
      <trkpt lat="45.23777" lon="6.23707">
        <ele>2185</ele>
        <time>2021-02-27T14:49:34Z</time>
      </trkpt>
      <trkpt lat="45.23777" lon="6.23707">
        <ele>2184.8</ele>
        <time>2021-02-27T14:49:35Z</time>
      </trkpt>
      <trkpt lat="45.23776" lon="6.23711">
        <ele>2185</ele>
        <time>2021-02-27T14:49:36Z</time>
      </trkpt>
      <trkpt lat="45.23776" lon="6.23711">
        <ele>2184.6</ele>
        <time>2021-02-27T14:49:37Z</time>
      </trkpt>
      <trkpt lat="45.23775" lon="6.23715">
        <ele>2184.6</ele>
        <time>2021-02-27T14:49:38Z</time>
      </trkpt>
      <trkpt lat="45.23775" lon="6.23715">
        <ele>2184.4</ele>
        <time>2021-02-27T14:49:39Z</time>
      </trkpt>
      <trkpt lat="45.23773" lon="6.23719">
        <ele>2184.8</ele>
        <time>2021-02-27T14:49:40Z</time>
      </trkpt>
      <trkpt lat="45.23773" lon="6.23719">
        <ele>2185</ele>
        <time>2021-02-27T14:49:41Z</time>
      </trkpt>
      <trkpt lat="45.23772" lon="6.23724">
        <ele>2185</ele>
        <time>2021-02-27T14:49:42Z</time>
      </trkpt>
      <trkpt lat="45.23771" lon="6.23727">
        <ele>2184.8</ele>
        <time>2021-02-27T14:49:43Z</time>
      </trkpt>
      <trkpt lat="45.2377" lon="6.2373">
        <ele>2185</ele>
        <time>2021-02-27T14:49:44Z</time>
      </trkpt>
      <trkpt lat="45.23769" lon="6.23733">
        <ele>2184.6</ele>
        <time>2021-02-27T14:49:45Z</time>
      </trkpt>
      <trkpt lat="45.23769" lon="6.23736">
        <ele>2184.6</ele>
        <time>2021-02-27T14:49:46Z</time>
      </trkpt>
      <trkpt lat="45.23768" lon="6.23739">
        <ele>2184</ele>
        <time>2021-02-27T14:49:47Z</time>
      </trkpt>
      <trkpt lat="45.23767" lon="6.23744">
        <ele>2183.8</ele>
        <time>2021-02-27T14:49:48Z</time>
      </trkpt>
      <trkpt lat="45.23765" lon="6.23749">
        <ele>2183</ele>
        <time>2021-02-27T14:49:49Z</time>
      </trkpt>
      <trkpt lat="45.23764" lon="6.23755">
        <ele>2182.4</ele>
        <time>2021-02-27T14:49:50Z</time>
      </trkpt>
      <trkpt lat="45.23763" lon="6.2376">
        <ele>2182.2</ele>
        <time>2021-02-27T14:49:51Z</time>
      </trkpt>
      <trkpt lat="45.23761" lon="6.23765">
        <ele>2181.8</ele>
        <time>2021-02-27T14:49:52Z</time>
      </trkpt>
      <trkpt lat="45.2376" lon="6.23768">
        <ele>2180.8</ele>
        <time>2021-02-27T14:49:53Z</time>
      </trkpt>
      <trkpt lat="45.23759" lon="6.23771">
        <ele>2181</ele>
        <time>2021-02-27T14:49:54Z</time>
      </trkpt>
      <trkpt lat="45.23758" lon="6.23773">
        <ele>2181</ele>
        <time>2021-02-27T14:49:55Z</time>
      </trkpt>
      <trkpt lat="45.23758" lon="6.23773">
        <ele>2180.4</ele>
        <time>2021-02-27T14:49:56Z</time>
      </trkpt>
      <trkpt lat="45.23757" lon="6.23777">
        <ele>2180.4</ele>
        <time>2021-02-27T14:49:57Z</time>
      </trkpt>
      <trkpt lat="45.23757" lon="6.23777">
        <ele>2180.4</ele>
        <time>2021-02-27T14:49:58Z</time>
      </trkpt>
      <trkpt lat="45.23756" lon="6.2378">
        <ele>2180.6</ele>
        <time>2021-02-27T14:49:59Z</time>
      </trkpt>
      <trkpt lat="45.23756" lon="6.2378">
        <ele>2180.6</ele>
        <time>2021-02-27T14:50:00Z</time>
      </trkpt>
      <trkpt lat="45.23755" lon="6.23783">
        <ele>2181</ele>
        <time>2021-02-27T14:50:01Z</time>
      </trkpt>
      <trkpt lat="45.23755" lon="6.23783">
        <ele>2180.6</ele>
        <time>2021-02-27T14:50:02Z</time>
      </trkpt>
      <trkpt lat="45.23753" lon="6.23786">
        <ele>2180.8</ele>
        <time>2021-02-27T14:50:03Z</time>
      </trkpt>
      <trkpt lat="45.23753" lon="6.23786">
        <ele>2181.2</ele>
        <time>2021-02-27T14:50:04Z</time>
      </trkpt>
      <trkpt lat="45.23752" lon="6.23789">
        <ele>2181.4</ele>
        <time>2021-02-27T14:50:05Z</time>
      </trkpt>
      <trkpt lat="45.23752" lon="6.23789">
        <ele>2181.4</ele>
        <time>2021-02-27T14:50:06Z</time>
      </trkpt>
      <trkpt lat="45.23752" lon="6.23792">
        <ele>2181.2</ele>
        <time>2021-02-27T14:50:07Z</time>
      </trkpt>
      <trkpt lat="45.23752" lon="6.23792">
        <ele>2181.2</ele>
        <time>2021-02-27T14:50:08Z</time>
      </trkpt>
      <trkpt lat="45.23751" lon="6.23795">
        <ele>2181.4</ele>
        <time>2021-02-27T14:50:09Z</time>
      </trkpt>
      <trkpt lat="45.23751" lon="6.23795">
        <ele>2181.4</ele>
        <time>2021-02-27T14:50:10Z</time>
      </trkpt>
      <trkpt lat="45.23749" lon="6.23798">
        <ele>2181.6</ele>
        <time>2021-02-27T14:50:11Z</time>
      </trkpt>
      <trkpt lat="45.23749" lon="6.23798">
        <ele>2181.6</ele>
        <time>2021-02-27T14:50:12Z</time>
      </trkpt>
      <trkpt lat="45.23748" lon="6.23801">
        <ele>2181.8</ele>
        <time>2021-02-27T14:50:13Z</time>
      </trkpt>
      <trkpt lat="45.23748" lon="6.23801">
        <ele>2182.2</ele>
        <time>2021-02-27T14:50:14Z</time>
      </trkpt>
      <trkpt lat="45.23747" lon="6.23804">
        <ele>2182.6</ele>
        <time>2021-02-27T14:50:15Z</time>
      </trkpt>
      <trkpt lat="45.23747" lon="6.23804">
        <ele>2183</ele>
        <time>2021-02-27T14:50:16Z</time>
      </trkpt>
      <trkpt lat="45.23745" lon="6.23807">
        <ele>2183</ele>
        <time>2021-02-27T14:50:17Z</time>
      </trkpt>
      <trkpt lat="45.23745" lon="6.23807">
        <ele>2183.4</ele>
        <time>2021-02-27T14:50:18Z</time>
      </trkpt>
      <trkpt lat="45.23745" lon="6.23809">
        <ele>2183.8</ele>
        <time>2021-02-27T14:50:19Z</time>
      </trkpt>
      <trkpt lat="45.23744" lon="6.23811">
        <ele>2184.2</ele>
        <time>2021-02-27T14:50:20Z</time>
      </trkpt>
      <trkpt lat="45.23744" lon="6.23813">
        <ele>2184.2</ele>
        <time>2021-02-27T14:50:21Z</time>
      </trkpt>
      <trkpt lat="45.23743" lon="6.23815">
        <ele>2184.2</ele>
        <time>2021-02-27T14:50:22Z</time>
      </trkpt>
      <trkpt lat="45.23742" lon="6.23817">
        <ele>2184.6</ele>
        <time>2021-02-27T14:50:23Z</time>
      </trkpt>
      <trkpt lat="45.23742" lon="6.23819">
        <ele>2184.8</ele>
        <time>2021-02-27T14:50:24Z</time>
      </trkpt>
      <trkpt lat="45.23741" lon="6.23821">
        <ele>2184.6</ele>
        <time>2021-02-27T14:50:25Z</time>
      </trkpt>
      <trkpt lat="45.23741" lon="6.23823">
        <ele>2185</ele>
        <time>2021-02-27T14:50:26Z</time>
      </trkpt>
      <trkpt lat="45.2374" lon="6.23825">
        <ele>2184.8</ele>
        <time>2021-02-27T14:50:27Z</time>
      </trkpt>
      <trkpt lat="45.23739" lon="6.23827">
        <ele>2185</ele>
        <time>2021-02-27T14:50:28Z</time>
      </trkpt>
      <trkpt lat="45.23739" lon="6.23829">
        <ele>2184.8</ele>
        <time>2021-02-27T14:50:29Z</time>
      </trkpt>
      <trkpt lat="45.23738" lon="6.23831">
        <ele>2184.8</ele>
        <time>2021-02-27T14:50:30Z</time>
      </trkpt>
      <trkpt lat="45.23738" lon="6.23834">
        <ele>2184.6</ele>
        <time>2021-02-27T14:50:31Z</time>
      </trkpt>
      <trkpt lat="45.23736" lon="6.23837">
        <ele>2184.8</ele>
        <time>2021-02-27T14:50:32Z</time>
      </trkpt>
      <trkpt lat="45.23736" lon="6.23837">
        <ele>2184.8</ele>
        <time>2021-02-27T14:50:33Z</time>
      </trkpt>
      <trkpt lat="45.23735" lon="6.23841">
        <ele>2184.6</ele>
        <time>2021-02-27T14:50:34Z</time>
      </trkpt>
      <trkpt lat="45.23735" lon="6.23841">
        <ele>2184.4</ele>
        <time>2021-02-27T14:50:35Z</time>
      </trkpt>
      <trkpt lat="45.23734" lon="6.23844">
        <ele>2184.6</ele>
        <time>2021-02-27T14:50:36Z</time>
      </trkpt>
      <trkpt lat="45.23734" lon="6.23844">
        <ele>2185</ele>
        <time>2021-02-27T14:50:37Z</time>
      </trkpt>
      <trkpt lat="45.23733" lon="6.23847">
        <ele>2185.2</ele>
        <time>2021-02-27T14:50:38Z</time>
      </trkpt>
      <trkpt lat="45.23733" lon="6.23847">
        <ele>2185.4</ele>
        <time>2021-02-27T14:50:39Z</time>
      </trkpt>
      <trkpt lat="45.23732" lon="6.2385">
        <ele>2185.4</ele>
        <time>2021-02-27T14:50:40Z</time>
      </trkpt>
      <trkpt lat="45.23732" lon="6.2385">
        <ele>2186</ele>
        <time>2021-02-27T14:50:41Z</time>
      </trkpt>
      <trkpt lat="45.23731" lon="6.23853">
        <ele>2186</ele>
        <time>2021-02-27T14:50:42Z</time>
      </trkpt>
      <trkpt lat="45.23731" lon="6.23853">
        <ele>2186.2</ele>
        <time>2021-02-27T14:50:43Z</time>
      </trkpt>
      <trkpt lat="45.23731" lon="6.23853">
        <ele>2186.4</ele>
        <time>2021-02-27T14:50:44Z</time>
      </trkpt>
      <trkpt lat="45.23731" lon="6.23853">
        <ele>2186.2</ele>
        <time>2021-02-27T14:50:45Z</time>
      </trkpt>
      <trkpt lat="45.23731" lon="6.23853">
        <ele>2186.6</ele>
        <time>2021-02-27T14:50:46Z</time>
      </trkpt>
      <trkpt lat="45.2373" lon="6.23856">
        <ele>2187</ele>
        <time>2021-02-27T14:50:47Z</time>
      </trkpt>
      <trkpt lat="45.2373" lon="6.23856">
        <ele>2187</ele>
        <time>2021-02-27T14:50:48Z</time>
      </trkpt>
      <trkpt lat="45.2373" lon="6.23859">
        <ele>2187</ele>
        <time>2021-02-27T14:50:49Z</time>
      </trkpt>
      <trkpt lat="45.2373" lon="6.23859">
        <ele>2186.8</ele>
        <time>2021-02-27T14:50:50Z</time>
      </trkpt>
      <trkpt lat="45.2373" lon="6.23862">
        <ele>2186.6</ele>
        <time>2021-02-27T14:50:51Z</time>
      </trkpt>
      <trkpt lat="45.2373" lon="6.23862">
        <ele>2186.2</ele>
        <time>2021-02-27T14:50:52Z</time>
      </trkpt>
      <trkpt lat="45.23729" lon="6.23864">
        <ele>2187</ele>
        <time>2021-02-27T14:50:53Z</time>
      </trkpt>
      <trkpt lat="45.23728" lon="6.23865">
        <ele>2186.6</ele>
        <time>2021-02-27T14:50:54Z</time>
      </trkpt>
      <trkpt lat="45.23728" lon="6.23867">
        <ele>2186.8</ele>
        <time>2021-02-27T14:50:55Z</time>
      </trkpt>
      <trkpt lat="45.23727" lon="6.23869">
        <ele>2186.8</ele>
        <time>2021-02-27T14:50:56Z</time>
      </trkpt>
      <trkpt lat="45.23727" lon="6.2387">
        <ele>2187</ele>
        <time>2021-02-27T14:50:57Z</time>
      </trkpt>
      <trkpt lat="45.23726" lon="6.23872">
        <ele>2186.8</ele>
        <time>2021-02-27T14:50:58Z</time>
      </trkpt>
      <trkpt lat="45.23726" lon="6.23874">
        <ele>2186.6</ele>
        <time>2021-02-27T14:50:59Z</time>
      </trkpt>
      <trkpt lat="45.23725" lon="6.23875">
        <ele>2186.6</ele>
        <time>2021-02-27T14:51:00Z</time>
      </trkpt>
      <trkpt lat="45.23724" lon="6.23878">
        <ele>2186.8</ele>
        <time>2021-02-27T14:51:01Z</time>
      </trkpt>
      <trkpt lat="45.23724" lon="6.23878">
        <ele>2187</ele>
        <time>2021-02-27T14:51:02Z</time>
      </trkpt>
      <trkpt lat="45.23724" lon="6.23881">
        <ele>2187.2</ele>
        <time>2021-02-27T14:51:03Z</time>
      </trkpt>
      <trkpt lat="45.23724" lon="6.23881">
        <ele>2187.6</ele>
        <time>2021-02-27T14:51:04Z</time>
      </trkpt>
      <trkpt lat="45.23723" lon="6.23884">
        <ele>2187.6</ele>
        <time>2021-02-27T14:51:05Z</time>
      </trkpt>
      <trkpt lat="45.23723" lon="6.23884">
        <ele>2187.8</ele>
        <time>2021-02-27T14:51:06Z</time>
      </trkpt>
      <trkpt lat="45.23721" lon="6.23887">
        <ele>2188</ele>
        <time>2021-02-27T14:51:07Z</time>
      </trkpt>
      <trkpt lat="45.23721" lon="6.23887">
        <ele>2188.2</ele>
        <time>2021-02-27T14:51:08Z</time>
      </trkpt>
      <trkpt lat="45.23721" lon="6.23887">
        <ele>2188.2</ele>
        <time>2021-02-27T14:51:09Z</time>
      </trkpt>
      <trkpt lat="45.23721" lon="6.2389">
        <ele>2188</ele>
        <time>2021-02-27T14:51:10Z</time>
      </trkpt>
      <trkpt lat="45.23721" lon="6.2389">
        <ele>2188.2</ele>
        <time>2021-02-27T14:51:11Z</time>
      </trkpt>
      <trkpt lat="45.23721" lon="6.2389">
        <ele>2188.6</ele>
        <time>2021-02-27T14:51:12Z</time>
      </trkpt>
      <trkpt lat="45.2372" lon="6.23894">
        <ele>2188.8</ele>
        <time>2021-02-27T14:51:13Z</time>
      </trkpt>
      <trkpt lat="45.2372" lon="6.23894">
        <ele>2189</ele>
        <time>2021-02-27T14:51:14Z</time>
      </trkpt>
      <trkpt lat="45.23719" lon="6.23896">
        <ele>2189.4</ele>
        <time>2021-02-27T14:51:15Z</time>
      </trkpt>
      <trkpt lat="45.23719" lon="6.23896">
        <ele>2189.4</ele>
        <time>2021-02-27T14:51:16Z</time>
      </trkpt>
      <trkpt lat="45.23719" lon="6.23896">
        <ele>2189.8</ele>
        <time>2021-02-27T14:51:17Z</time>
      </trkpt>
      <trkpt lat="45.23719" lon="6.239">
        <ele>2189.6</ele>
        <time>2021-02-27T14:51:18Z</time>
      </trkpt>
      <trkpt lat="45.23719" lon="6.239">
        <ele>2189.8</ele>
        <time>2021-02-27T14:51:19Z</time>
      </trkpt>
      <trkpt lat="45.23718" lon="6.23903">
        <ele>2190</ele>
        <time>2021-02-27T14:51:20Z</time>
      </trkpt>
      <trkpt lat="45.23718" lon="6.23903">
        <ele>2190.2</ele>
        <time>2021-02-27T14:51:21Z</time>
      </trkpt>
      <trkpt lat="45.23717" lon="6.23905">
        <ele>2190.4</ele>
        <time>2021-02-27T14:51:22Z</time>
      </trkpt>
      <trkpt lat="45.23717" lon="6.23905">
        <ele>2190.4</ele>
        <time>2021-02-27T14:51:23Z</time>
      </trkpt>
      <trkpt lat="45.23717" lon="6.23905">
        <ele>2191</ele>
        <time>2021-02-27T14:51:24Z</time>
      </trkpt>
      <trkpt lat="45.23716" lon="6.23908">
        <ele>2191.2</ele>
        <time>2021-02-27T14:51:25Z</time>
      </trkpt>
      <trkpt lat="45.23716" lon="6.23908">
        <ele>2191.8</ele>
        <time>2021-02-27T14:51:26Z</time>
      </trkpt>
      <trkpt lat="45.23716" lon="6.23908">
        <ele>2192</ele>
        <time>2021-02-27T14:51:27Z</time>
      </trkpt>
      <trkpt lat="45.23715" lon="6.23912">
        <ele>2192.4</ele>
        <time>2021-02-27T14:51:28Z</time>
      </trkpt>
      <trkpt lat="45.23715" lon="6.23912">
        <ele>2192.8</ele>
        <time>2021-02-27T14:51:29Z</time>
      </trkpt>
      <trkpt lat="45.23714" lon="6.23915">
        <ele>2193</ele>
        <time>2021-02-27T14:51:30Z</time>
      </trkpt>
      <trkpt lat="45.23714" lon="6.23915">
        <ele>2193.6</ele>
        <time>2021-02-27T14:51:31Z</time>
      </trkpt>
      <trkpt lat="45.23714" lon="6.23915">
        <ele>2194</ele>
        <time>2021-02-27T14:51:32Z</time>
      </trkpt>
      <trkpt lat="45.23713" lon="6.23918">
        <ele>2194.4</ele>
        <time>2021-02-27T14:51:33Z</time>
      </trkpt>
      <trkpt lat="45.23713" lon="6.23918">
        <ele>2194.2</ele>
        <time>2021-02-27T14:51:34Z</time>
      </trkpt>
      <trkpt lat="45.23713" lon="6.23918">
        <ele>2194.8</ele>
        <time>2021-02-27T14:51:35Z</time>
      </trkpt>
      <trkpt lat="45.23712" lon="6.23922">
        <ele>2195</ele>
        <time>2021-02-27T14:51:36Z</time>
      </trkpt>
      <trkpt lat="45.23712" lon="6.23922">
        <ele>2195.4</ele>
        <time>2021-02-27T14:51:37Z</time>
      </trkpt>
      <trkpt lat="45.23712" lon="6.23922">
        <ele>2195.4</ele>
        <time>2021-02-27T14:51:38Z</time>
      </trkpt>
      <trkpt lat="45.23711" lon="6.23925">
        <ele>2195.8</ele>
        <time>2021-02-27T14:51:39Z</time>
      </trkpt>
      <trkpt lat="45.23711" lon="6.23925">
        <ele>2195.8</ele>
        <time>2021-02-27T14:51:40Z</time>
      </trkpt>
      <trkpt lat="45.23711" lon="6.23925">
        <ele>2195.8</ele>
        <time>2021-02-27T14:51:41Z</time>
      </trkpt>
      <trkpt lat="45.23711" lon="6.23928">
        <ele>2196.8</ele>
        <time>2021-02-27T14:51:42Z</time>
      </trkpt>
      <trkpt lat="45.23711" lon="6.23928">
        <ele>2196.6</ele>
        <time>2021-02-27T14:51:43Z</time>
      </trkpt>
      <trkpt lat="45.23711" lon="6.23928">
        <ele>2196.8</ele>
        <time>2021-02-27T14:51:44Z</time>
      </trkpt>
      <trkpt lat="45.2371" lon="6.23931">
        <ele>2197</ele>
        <time>2021-02-27T14:51:45Z</time>
      </trkpt>
      <trkpt lat="45.2371" lon="6.23931">
        <ele>2197.2</ele>
        <time>2021-02-27T14:51:46Z</time>
      </trkpt>
      <trkpt lat="45.23709" lon="6.23934">
        <ele>2197.6</ele>
        <time>2021-02-27T14:51:47Z</time>
      </trkpt>
      <trkpt lat="45.23709" lon="6.23934">
        <ele>2197.8</ele>
        <time>2021-02-27T14:51:48Z</time>
      </trkpt>
      <trkpt lat="45.23709" lon="6.23934">
        <ele>2198.8</ele>
        <time>2021-02-27T14:51:49Z</time>
      </trkpt>
      <trkpt lat="45.23708" lon="6.23937">
        <ele>2198.8</ele>
        <time>2021-02-27T14:51:50Z</time>
      </trkpt>
      <trkpt lat="45.23708" lon="6.23937">
        <ele>2198.8</ele>
        <time>2021-02-27T14:51:51Z</time>
      </trkpt>
      <trkpt lat="45.23708" lon="6.23937">
        <ele>2199.6</ele>
        <time>2021-02-27T14:51:52Z</time>
      </trkpt>
      <trkpt lat="45.23707" lon="6.2394">
        <ele>2199.6</ele>
        <time>2021-02-27T14:51:53Z</time>
      </trkpt>
      <trkpt lat="45.23707" lon="6.2394">
        <ele>2199.6</ele>
        <time>2021-02-27T14:51:54Z</time>
      </trkpt>
      <trkpt lat="45.23707" lon="6.2394">
        <ele>2199.8</ele>
        <time>2021-02-27T14:51:55Z</time>
      </trkpt>
      <trkpt lat="45.23705" lon="6.23943">
        <ele>2199.8</ele>
        <time>2021-02-27T14:51:56Z</time>
      </trkpt>
      <trkpt lat="45.23705" lon="6.23943">
        <ele>2200</ele>
        <time>2021-02-27T14:51:57Z</time>
      </trkpt>
      <trkpt lat="45.23705" lon="6.23943">
        <ele>2200.2</ele>
        <time>2021-02-27T14:51:58Z</time>
      </trkpt>
      <trkpt lat="45.23704" lon="6.23946">
        <ele>2200.8</ele>
        <time>2021-02-27T14:51:59Z</time>
      </trkpt>
      <trkpt lat="45.23704" lon="6.23946">
        <ele>2200.8</ele>
        <time>2021-02-27T14:52:00Z</time>
      </trkpt>
      <trkpt lat="45.23704" lon="6.23948">
        <ele>2201.2</ele>
        <time>2021-02-27T14:52:01Z</time>
      </trkpt>
      <trkpt lat="45.23704" lon="6.23948">
        <ele>2201</ele>
        <time>2021-02-27T14:52:02Z</time>
      </trkpt>
      <trkpt lat="45.23703" lon="6.23951">
        <ele>2201.6</ele>
        <time>2021-02-27T14:52:03Z</time>
      </trkpt>
      <trkpt lat="45.23703" lon="6.23951">
        <ele>2202</ele>
        <time>2021-02-27T14:52:04Z</time>
      </trkpt>
      <trkpt lat="45.23702" lon="6.23953">
        <ele>2202.2</ele>
        <time>2021-02-27T14:52:05Z</time>
      </trkpt>
      <trkpt lat="45.23702" lon="6.23953">
        <ele>2202.6</ele>
        <time>2021-02-27T14:52:06Z</time>
      </trkpt>
      <trkpt lat="45.23701" lon="6.23956">
        <ele>2202.8</ele>
        <time>2021-02-27T14:52:07Z</time>
      </trkpt>
      <trkpt lat="45.23701" lon="6.23956">
        <ele>2203</ele>
        <time>2021-02-27T14:52:08Z</time>
      </trkpt>
      <trkpt lat="45.23701" lon="6.23958">
        <ele>2203</ele>
        <time>2021-02-27T14:52:09Z</time>
      </trkpt>
      <trkpt lat="45.23701" lon="6.23958">
        <ele>2203.2</ele>
        <time>2021-02-27T14:52:10Z</time>
      </trkpt>
      <trkpt lat="45.237" lon="6.23961">
        <ele>2204</ele>
        <time>2021-02-27T14:52:11Z</time>
      </trkpt>
      <trkpt lat="45.237" lon="6.23961">
        <ele>2204</ele>
        <time>2021-02-27T14:52:12Z</time>
      </trkpt>
      <trkpt lat="45.23699" lon="6.23964">
        <ele>2204.6</ele>
        <time>2021-02-27T14:52:13Z</time>
      </trkpt>
      <trkpt lat="45.23699" lon="6.23964">
        <ele>2204.6</ele>
        <time>2021-02-27T14:52:14Z</time>
      </trkpt>
      <trkpt lat="45.23699" lon="6.23966">
        <ele>2204.8</ele>
        <time>2021-02-27T14:52:15Z</time>
      </trkpt>
      <trkpt lat="45.23699" lon="6.23966">
        <ele>2205</ele>
        <time>2021-02-27T14:52:16Z</time>
      </trkpt>
      <trkpt lat="45.23698" lon="6.23968">
        <ele>2205</ele>
        <time>2021-02-27T14:52:17Z</time>
      </trkpt>
      <trkpt lat="45.23697" lon="6.23969">
        <ele>2205.2</ele>
        <time>2021-02-27T14:52:18Z</time>
      </trkpt>
      <trkpt lat="45.23696" lon="6.23971">
        <ele>2205</ele>
        <time>2021-02-27T14:52:19Z</time>
      </trkpt>
      <trkpt lat="45.23696" lon="6.23972">
        <ele>2205.2</ele>
        <time>2021-02-27T14:52:20Z</time>
      </trkpt>
      <trkpt lat="45.23695" lon="6.23975">
        <ele>2205.4</ele>
        <time>2021-02-27T14:52:21Z</time>
      </trkpt>
      <trkpt lat="45.23695" lon="6.23975">
        <ele>2205.6</ele>
        <time>2021-02-27T14:52:22Z</time>
      </trkpt>
      <trkpt lat="45.23694" lon="6.23979">
        <ele>2205.6</ele>
        <time>2021-02-27T14:52:23Z</time>
      </trkpt>
      <trkpt lat="45.23694" lon="6.23979">
        <ele>2206</ele>
        <time>2021-02-27T14:52:24Z</time>
      </trkpt>
      <trkpt lat="45.23693" lon="6.23982">
        <ele>2206</ele>
        <time>2021-02-27T14:52:25Z</time>
      </trkpt>
      <trkpt lat="45.23693" lon="6.23982">
        <ele>2206.2</ele>
        <time>2021-02-27T14:52:26Z</time>
      </trkpt>
      <trkpt lat="45.23692" lon="6.23985">
        <ele>2206.4</ele>
        <time>2021-02-27T14:52:27Z</time>
      </trkpt>
      <trkpt lat="45.23692" lon="6.23985">
        <ele>2206.6</ele>
        <time>2021-02-27T14:52:28Z</time>
      </trkpt>
      <trkpt lat="45.23691" lon="6.23988">
        <ele>2206.6</ele>
        <time>2021-02-27T14:52:29Z</time>
      </trkpt>
      <trkpt lat="45.23691" lon="6.23988">
        <ele>2206.6</ele>
        <time>2021-02-27T14:52:30Z</time>
      </trkpt>
      <trkpt lat="45.23691" lon="6.23992">
        <ele>2206.6</ele>
        <time>2021-02-27T14:52:31Z</time>
      </trkpt>
      <trkpt lat="45.23691" lon="6.23992">
        <ele>2207</ele>
        <time>2021-02-27T14:52:32Z</time>
      </trkpt>
      <trkpt lat="45.2369" lon="6.23995">
        <ele>2207.2</ele>
        <time>2021-02-27T14:52:33Z</time>
      </trkpt>
      <trkpt lat="45.2369" lon="6.23995">
        <ele>2206.6</ele>
        <time>2021-02-27T14:52:34Z</time>
      </trkpt>
      <trkpt lat="45.2369" lon="6.23999">
        <ele>2206.6</ele>
        <time>2021-02-27T14:52:35Z</time>
      </trkpt>
      <trkpt lat="45.2369" lon="6.23999">
        <ele>2206.4</ele>
        <time>2021-02-27T14:52:36Z</time>
      </trkpt>
      <trkpt lat="45.23689" lon="6.24003">
        <ele>2206.6</ele>
        <time>2021-02-27T14:52:37Z</time>
      </trkpt>
      <trkpt lat="45.23689" lon="6.24003">
        <ele>2206.6</ele>
        <time>2021-02-27T14:52:38Z</time>
      </trkpt>
      <trkpt lat="45.23689" lon="6.24006">
        <ele>2206.8</ele>
        <time>2021-02-27T14:52:39Z</time>
      </trkpt>
      <trkpt lat="45.23689" lon="6.24006">
        <ele>2207.2</ele>
        <time>2021-02-27T14:52:40Z</time>
      </trkpt>
      <trkpt lat="45.23688" lon="6.24009">
        <ele>2207.4</ele>
        <time>2021-02-27T14:52:41Z</time>
      </trkpt>
      <trkpt lat="45.23688" lon="6.24009">
        <ele>2207.4</ele>
        <time>2021-02-27T14:52:42Z</time>
      </trkpt>
      <trkpt lat="45.23688" lon="6.24013">
        <ele>2207.6</ele>
        <time>2021-02-27T14:52:43Z</time>
      </trkpt>
      <trkpt lat="45.23688" lon="6.24013">
        <ele>2207.8</ele>
        <time>2021-02-27T14:52:44Z</time>
      </trkpt>
      <trkpt lat="45.23687" lon="6.24016">
        <ele>2207.8</ele>
        <time>2021-02-27T14:52:45Z</time>
      </trkpt>
      <trkpt lat="45.23687" lon="6.24016">
        <ele>2207.8</ele>
        <time>2021-02-27T14:52:46Z</time>
      </trkpt>
      <trkpt lat="45.23686" lon="6.2402">
        <ele>2208.2</ele>
        <time>2021-02-27T14:52:47Z</time>
      </trkpt>
      <trkpt lat="45.23686" lon="6.2402">
        <ele>2208.4</ele>
        <time>2021-02-27T14:52:48Z</time>
      </trkpt>
      <trkpt lat="45.23685" lon="6.24023">
        <ele>2208.6</ele>
        <time>2021-02-27T14:52:49Z</time>
      </trkpt>
      <trkpt lat="45.23685" lon="6.24023">
        <ele>2208.6</ele>
        <time>2021-02-27T14:52:50Z</time>
      </trkpt>
      <trkpt lat="45.23685" lon="6.24027">
        <ele>2208.8</ele>
        <time>2021-02-27T14:52:51Z</time>
      </trkpt>
      <trkpt lat="45.23685" lon="6.24027">
        <ele>2209.2</ele>
        <time>2021-02-27T14:52:52Z</time>
      </trkpt>
      <trkpt lat="45.23684" lon="6.24031">
        <ele>2208.8</ele>
        <time>2021-02-27T14:52:53Z</time>
      </trkpt>
      <trkpt lat="45.23684" lon="6.24031">
        <ele>2208.6</ele>
        <time>2021-02-27T14:52:54Z</time>
      </trkpt>
      <trkpt lat="45.23683" lon="6.24034">
        <ele>2209.2</ele>
        <time>2021-02-27T14:52:55Z</time>
      </trkpt>
      <trkpt lat="45.23683" lon="6.24034">
        <ele>2209.4</ele>
        <time>2021-02-27T14:52:56Z</time>
      </trkpt>
      <trkpt lat="45.23682" lon="6.24038">
        <ele>2209.2</ele>
        <time>2021-02-27T14:52:57Z</time>
      </trkpt>
      <trkpt lat="45.23682" lon="6.24038">
        <ele>2209</ele>
        <time>2021-02-27T14:52:58Z</time>
      </trkpt>
      <trkpt lat="45.23681" lon="6.24041">
        <ele>2209.4</ele>
        <time>2021-02-27T14:52:59Z</time>
      </trkpt>
      <trkpt lat="45.23681" lon="6.24041">
        <ele>2209.4</ele>
        <time>2021-02-27T14:53:00Z</time>
      </trkpt>
      <trkpt lat="45.23679" lon="6.24044">
        <ele>2209.6</ele>
        <time>2021-02-27T14:53:01Z</time>
      </trkpt>
      <trkpt lat="45.23679" lon="6.24044">
        <ele>2209.4</ele>
        <time>2021-02-27T14:53:02Z</time>
      </trkpt>
      <trkpt lat="45.23678" lon="6.24048">
        <ele>2209.8</ele>
        <time>2021-02-27T14:53:03Z</time>
      </trkpt>
      <trkpt lat="45.23678" lon="6.24048">
        <ele>2210</ele>
        <time>2021-02-27T14:53:04Z</time>
      </trkpt>
      <trkpt lat="45.23677" lon="6.24052">
        <ele>2211.4</ele>
        <time>2021-02-27T14:53:05Z</time>
      </trkpt>
      <trkpt lat="45.23677" lon="6.24052">
        <ele>2210.8</ele>
        <time>2021-02-27T14:53:06Z</time>
      </trkpt>
      <trkpt lat="45.23675" lon="6.24055">
        <ele>2210.8</ele>
        <time>2021-02-27T14:53:07Z</time>
      </trkpt>
      <trkpt lat="45.23675" lon="6.24055">
        <ele>2210.8</ele>
        <time>2021-02-27T14:53:08Z</time>
      </trkpt>
      <trkpt lat="45.23675" lon="6.24058">
        <ele>2210.8</ele>
        <time>2021-02-27T14:53:09Z</time>
      </trkpt>
      <trkpt lat="45.23675" lon="6.24058">
        <ele>2210.8</ele>
        <time>2021-02-27T14:53:10Z</time>
      </trkpt>
      <trkpt lat="45.23674" lon="6.24062">
        <ele>2210.8</ele>
        <time>2021-02-27T14:53:11Z</time>
      </trkpt>
      <trkpt lat="45.23674" lon="6.24062">
        <ele>2211</ele>
        <time>2021-02-27T14:53:12Z</time>
      </trkpt>
      <trkpt lat="45.23674" lon="6.24064">
        <ele>2212</ele>
        <time>2021-02-27T14:53:13Z</time>
      </trkpt>
      <trkpt lat="45.23674" lon="6.24064">
        <ele>2212</ele>
        <time>2021-02-27T14:53:14Z</time>
      </trkpt>
      <trkpt lat="45.23673" lon="6.24068">
        <ele>2211.6</ele>
        <time>2021-02-27T14:53:15Z</time>
      </trkpt>
      <trkpt lat="45.23673" lon="6.24068">
        <ele>2212.2</ele>
        <time>2021-02-27T14:53:16Z</time>
      </trkpt>
      <trkpt lat="45.23673" lon="6.2407">
        <ele>2213.4</ele>
        <time>2021-02-27T14:53:17Z</time>
      </trkpt>
      <trkpt lat="45.23673" lon="6.2407">
        <ele>2213.6</ele>
        <time>2021-02-27T14:53:18Z</time>
      </trkpt>
      <trkpt lat="45.23672" lon="6.24073">
        <ele>2213.8</ele>
        <time>2021-02-27T14:53:19Z</time>
      </trkpt>
      <trkpt lat="45.23672" lon="6.24073">
        <ele>2213.2</ele>
        <time>2021-02-27T14:53:20Z</time>
      </trkpt>
      <trkpt lat="45.23672" lon="6.24074">
        <ele>2213.8</ele>
        <time>2021-02-27T14:53:21Z</time>
      </trkpt>
      <trkpt lat="45.23671" lon="6.24075">
        <ele>2214</ele>
        <time>2021-02-27T14:53:22Z</time>
      </trkpt>
      <trkpt lat="45.23671" lon="6.24077">
        <ele>2214.8</ele>
        <time>2021-02-27T14:53:23Z</time>
      </trkpt>
      <trkpt lat="45.23671" lon="6.24078">
        <ele>2215</ele>
        <time>2021-02-27T14:53:24Z</time>
      </trkpt>
      <trkpt lat="45.2367" lon="6.2408">
        <ele>2215.2</ele>
        <time>2021-02-27T14:53:25Z</time>
      </trkpt>
      <trkpt lat="45.2367" lon="6.24081">
        <ele>2215.4</ele>
        <time>2021-02-27T14:53:26Z</time>
      </trkpt>
      <trkpt lat="45.2367" lon="6.24082">
        <ele>2214.8</ele>
        <time>2021-02-27T14:53:27Z</time>
      </trkpt>
      <trkpt lat="45.23669" lon="6.24084">
        <ele>2214.8</ele>
        <time>2021-02-27T14:53:28Z</time>
      </trkpt>
      <trkpt lat="45.23669" lon="6.24085">
        <ele>2215</ele>
        <time>2021-02-27T14:53:29Z</time>
      </trkpt>
      <trkpt lat="45.23669" lon="6.24085">
        <ele>2215.2</ele>
        <time>2021-02-27T14:53:30Z</time>
      </trkpt>
      <trkpt lat="45.23668" lon="6.2409">
        <ele>2214.8</ele>
        <time>2021-02-27T14:53:31Z</time>
      </trkpt>
      <trkpt lat="45.23668" lon="6.2409">
        <ele>2215.4</ele>
        <time>2021-02-27T14:53:32Z</time>
      </trkpt>
      <trkpt lat="45.23667" lon="6.24093">
        <ele>2215.6</ele>
        <time>2021-02-27T14:53:33Z</time>
      </trkpt>
      <trkpt lat="45.23667" lon="6.24093">
        <ele>2215</ele>
        <time>2021-02-27T14:53:34Z</time>
      </trkpt>
      <trkpt lat="45.23666" lon="6.24097">
        <ele>2214.8</ele>
        <time>2021-02-27T14:53:35Z</time>
      </trkpt>
      <trkpt lat="45.23666" lon="6.24097">
        <ele>2216.2</ele>
        <time>2021-02-27T14:53:36Z</time>
      </trkpt>
      <trkpt lat="45.23666" lon="6.241">
        <ele>2215.6</ele>
        <time>2021-02-27T14:53:37Z</time>
      </trkpt>
      <trkpt lat="45.23666" lon="6.241">
        <ele>2215.2</ele>
        <time>2021-02-27T14:53:38Z</time>
      </trkpt>
      <trkpt lat="45.23665" lon="6.24104">
        <ele>2216.4</ele>
        <time>2021-02-27T14:53:39Z</time>
      </trkpt>
      <trkpt lat="45.23665" lon="6.24104">
        <ele>2216</ele>
        <time>2021-02-27T14:53:40Z</time>
      </trkpt>
      <trkpt lat="45.23664" lon="6.24108">
        <ele>2215.4</ele>
        <time>2021-02-27T14:53:41Z</time>
      </trkpt>
      <trkpt lat="45.23664" lon="6.24108">
        <ele>2215.8</ele>
        <time>2021-02-27T14:53:42Z</time>
      </trkpt>
      <trkpt lat="45.23662" lon="6.24112">
        <ele>2216</ele>
        <time>2021-02-27T14:53:43Z</time>
      </trkpt>
      <trkpt lat="45.23662" lon="6.24112">
        <ele>2215.2</ele>
        <time>2021-02-27T14:53:44Z</time>
      </trkpt>
      <trkpt lat="45.23661" lon="6.24117">
        <ele>2215.4</ele>
        <time>2021-02-27T14:53:45Z</time>
      </trkpt>
      <trkpt lat="45.23661" lon="6.24117">
        <ele>2215.6</ele>
        <time>2021-02-27T14:53:46Z</time>
      </trkpt>
      <trkpt lat="45.23659" lon="6.24121">
        <ele>2215.2</ele>
        <time>2021-02-27T14:53:47Z</time>
      </trkpt>
      <trkpt lat="45.23659" lon="6.24121">
        <ele>2214.8</ele>
        <time>2021-02-27T14:53:48Z</time>
      </trkpt>
      <trkpt lat="45.23657" lon="6.24126">
        <ele>2215.8</ele>
        <time>2021-02-27T14:53:49Z</time>
      </trkpt>
      <trkpt lat="45.23656" lon="6.24128">
        <ele>2215</ele>
        <time>2021-02-27T14:53:50Z</time>
      </trkpt>
      <trkpt lat="45.23655" lon="6.24131">
        <ele>2214.4</ele>
        <time>2021-02-27T14:53:51Z</time>
      </trkpt>
      <trkpt lat="45.23655" lon="6.24131">
        <ele>2214.6</ele>
        <time>2021-02-27T14:53:52Z</time>
      </trkpt>
      <trkpt lat="45.23654" lon="6.24134">
        <ele>2214.6</ele>
        <time>2021-02-27T14:53:53Z</time>
      </trkpt>
      <trkpt lat="45.23654" lon="6.24134">
        <ele>2214.2</ele>
        <time>2021-02-27T14:53:54Z</time>
      </trkpt>
      <trkpt lat="45.23653" lon="6.24138">
        <ele>2213.8</ele>
        <time>2021-02-27T14:53:55Z</time>
      </trkpt>
      <trkpt lat="45.23653" lon="6.24138">
        <ele>2214</ele>
        <time>2021-02-27T14:53:56Z</time>
      </trkpt>
      <trkpt lat="45.23653" lon="6.24141">
        <ele>2214.8</ele>
        <time>2021-02-27T14:53:57Z</time>
      </trkpt>
      <trkpt lat="45.23653" lon="6.24141">
        <ele>2214.6</ele>
        <time>2021-02-27T14:53:58Z</time>
      </trkpt>
      <trkpt lat="45.23652" lon="6.24145">
        <ele>2214.6</ele>
        <time>2021-02-27T14:53:59Z</time>
      </trkpt>
      <trkpt lat="45.23652" lon="6.24145">
        <ele>2215</ele>
        <time>2021-02-27T14:54:00Z</time>
      </trkpt>
      <trkpt lat="45.23651" lon="6.24149">
        <ele>2214.8</ele>
        <time>2021-02-27T14:54:01Z</time>
      </trkpt>
      <trkpt lat="45.23651" lon="6.24149">
        <ele>2214.2</ele>
        <time>2021-02-27T14:54:02Z</time>
      </trkpt>
      <trkpt lat="45.2365" lon="6.24152">
        <ele>2214.6</ele>
        <time>2021-02-27T14:54:03Z</time>
      </trkpt>
      <trkpt lat="45.2365" lon="6.24152">
        <ele>2214.6</ele>
        <time>2021-02-27T14:54:04Z</time>
      </trkpt>
      <trkpt lat="45.23649" lon="6.24156">
        <ele>2214.6</ele>
        <time>2021-02-27T14:54:05Z</time>
      </trkpt>
      <trkpt lat="45.23649" lon="6.24156">
        <ele>2214.2</ele>
        <time>2021-02-27T14:54:06Z</time>
      </trkpt>
      <trkpt lat="45.23648" lon="6.24159">
        <ele>2214.6</ele>
        <time>2021-02-27T14:54:07Z</time>
      </trkpt>
      <trkpt lat="45.23648" lon="6.24159">
        <ele>2214.8</ele>
        <time>2021-02-27T14:54:08Z</time>
      </trkpt>
      <trkpt lat="45.23647" lon="6.24163">
        <ele>2214.6</ele>
        <time>2021-02-27T14:54:09Z</time>
      </trkpt>
      <trkpt lat="45.23647" lon="6.24163">
        <ele>2214.2</ele>
        <time>2021-02-27T14:54:10Z</time>
      </trkpt>
      <trkpt lat="45.23646" lon="6.24165">
        <ele>2215.4</ele>
        <time>2021-02-27T14:54:11Z</time>
      </trkpt>
      <trkpt lat="45.23646" lon="6.24165">
        <ele>2215.6</ele>
        <time>2021-02-27T14:54:12Z</time>
      </trkpt>
      <trkpt lat="45.23646" lon="6.24165">
        <ele>2215</ele>
        <time>2021-02-27T14:54:13Z</time>
      </trkpt>
      <trkpt lat="45.23646" lon="6.24169">
        <ele>2215.2</ele>
        <time>2021-02-27T14:54:14Z</time>
      </trkpt>
      <trkpt lat="45.23646" lon="6.24169">
        <ele>2215.8</ele>
        <time>2021-02-27T14:54:15Z</time>
      </trkpt>
      <trkpt lat="45.23645" lon="6.24172">
        <ele>2215.2</ele>
        <time>2021-02-27T14:54:16Z</time>
      </trkpt>
      <trkpt lat="45.23645" lon="6.24172">
        <ele>2215.8</ele>
        <time>2021-02-27T14:54:17Z</time>
      </trkpt>
      <trkpt lat="45.23645" lon="6.24175">
        <ele>2216.6</ele>
        <time>2021-02-27T14:54:18Z</time>
      </trkpt>
      <trkpt lat="45.23645" lon="6.24175">
        <ele>2216.4</ele>
        <time>2021-02-27T14:54:19Z</time>
      </trkpt>
      <trkpt lat="45.23645" lon="6.24179">
        <ele>2216.4</ele>
        <time>2021-02-27T14:54:20Z</time>
      </trkpt>
      <trkpt lat="45.23645" lon="6.24179">
        <ele>2216.6</ele>
        <time>2021-02-27T14:54:21Z</time>
      </trkpt>
      <trkpt lat="45.23644" lon="6.24182">
        <ele>2217.4</ele>
        <time>2021-02-27T14:54:22Z</time>
      </trkpt>
      <trkpt lat="45.23644" lon="6.24182">
        <ele>2217.2</ele>
        <time>2021-02-27T14:54:23Z</time>
      </trkpt>
      <trkpt lat="45.23644" lon="6.24186">
        <ele>2217</ele>
        <time>2021-02-27T14:54:24Z</time>
      </trkpt>
      <trkpt lat="45.23644" lon="6.24186">
        <ele>2216.6</ele>
        <time>2021-02-27T14:54:25Z</time>
      </trkpt>
      <trkpt lat="45.23644" lon="6.24186">
        <ele>2217.4</ele>
        <time>2021-02-27T14:54:26Z</time>
      </trkpt>
      <trkpt lat="45.23645" lon="6.24189">
        <ele>2217.4</ele>
        <time>2021-02-27T14:54:27Z</time>
      </trkpt>
      <trkpt lat="45.23645" lon="6.24189">
        <ele>2216.8</ele>
        <time>2021-02-27T14:54:28Z</time>
      </trkpt>
      <trkpt lat="45.23645" lon="6.24189">
        <ele>2217.8</ele>
        <time>2021-02-27T14:54:29Z</time>
      </trkpt>
      <trkpt lat="45.23645" lon="6.24189">
        <ele>2217.4</ele>
        <time>2021-02-27T14:54:30Z</time>
      </trkpt>
      <trkpt lat="45.23645" lon="6.24189">
        <ele>2218.2</ele>
        <time>2021-02-27T14:54:31Z</time>
      </trkpt>
      <trkpt lat="45.23645" lon="6.24189">
        <ele>2217.6</ele>
        <time>2021-02-27T14:54:32Z</time>
      </trkpt>
      <trkpt lat="45.23645" lon="6.24189">
        <ele>2217.6</ele>
        <time>2021-02-27T14:54:33Z</time>
      </trkpt>
      <trkpt lat="45.23645" lon="6.24192">
        <ele>2217.8</ele>
        <time>2021-02-27T14:54:34Z</time>
      </trkpt>
      <trkpt lat="45.23645" lon="6.24192">
        <ele>2217.8</ele>
        <time>2021-02-27T14:54:35Z</time>
      </trkpt>
      <trkpt lat="45.23645" lon="6.24192">
        <ele>2218.4</ele>
        <time>2021-02-27T14:54:36Z</time>
      </trkpt>
      <trkpt lat="45.23645" lon="6.24192">
        <ele>2218.8</ele>
        <time>2021-02-27T14:54:37Z</time>
      </trkpt>
      <trkpt lat="45.23645" lon="6.24192">
        <ele>2218.6</ele>
        <time>2021-02-27T14:54:38Z</time>
      </trkpt>
      <trkpt lat="45.23645" lon="6.24192">
        <ele>2219</ele>
        <time>2021-02-27T14:54:39Z</time>
      </trkpt>
      <trkpt lat="45.23645" lon="6.24192">
        <ele>2218.4</ele>
        <time>2021-02-27T14:54:40Z</time>
      </trkpt>
      <trkpt lat="45.23645" lon="6.24192">
        <ele>2217.8</ele>
        <time>2021-02-27T14:54:41Z</time>
      </trkpt>
      <trkpt lat="45.23645" lon="6.24192">
        <ele>2217.8</ele>
        <time>2021-02-27T14:54:42Z</time>
      </trkpt>
      <trkpt lat="45.23645" lon="6.24192">
        <ele>2217.8</ele>
        <time>2021-02-27T14:54:43Z</time>
      </trkpt>
      <trkpt lat="45.23645" lon="6.24192">
        <ele>2218</ele>
        <time>2021-02-27T14:54:44Z</time>
      </trkpt>
      <trkpt lat="45.23643" lon="6.24193">
        <ele>2217.8</ele>
        <time>2021-02-27T14:54:45Z</time>
      </trkpt>
      <trkpt lat="45.23643" lon="6.24193">
        <ele>2217.6</ele>
        <time>2021-02-27T14:54:46Z</time>
      </trkpt>
      <trkpt lat="45.23643" lon="6.24193">
        <ele>2217.6</ele>
        <time>2021-02-27T14:54:47Z</time>
      </trkpt>
      <trkpt lat="45.23643" lon="6.24193">
        <ele>2217.6</ele>
        <time>2021-02-27T14:54:48Z</time>
      </trkpt>
      <trkpt lat="45.23643" lon="6.24193">
        <ele>2217.8</ele>
        <time>2021-02-27T14:54:49Z</time>
      </trkpt>
      <trkpt lat="45.23643" lon="6.24193">
        <ele>2217.8</ele>
        <time>2021-02-27T14:54:50Z</time>
      </trkpt>
      <trkpt lat="45.23643" lon="6.24193">
        <ele>2218.6</ele>
        <time>2021-02-27T14:54:51Z</time>
      </trkpt>
      <trkpt lat="45.23643" lon="6.24193">
        <ele>2219</ele>
        <time>2021-02-27T14:54:52Z</time>
      </trkpt>
      <trkpt lat="45.23643" lon="6.24193">
        <ele>2219.4</ele>
        <time>2021-02-27T14:54:53Z</time>
      </trkpt>
      <trkpt lat="45.23643" lon="6.24193">
        <ele>2219.4</ele>
        <time>2021-02-27T14:54:54Z</time>
      </trkpt>
      <trkpt lat="45.23643" lon="6.24193">
        <ele>2219.6</ele>
        <time>2021-02-27T14:54:55Z</time>
      </trkpt>
      <trkpt lat="45.23643" lon="6.24193">
        <ele>2219.8</ele>
        <time>2021-02-27T14:54:56Z</time>
      </trkpt>
      <trkpt lat="45.23643" lon="6.24193">
        <ele>2220</ele>
        <time>2021-02-27T14:54:57Z</time>
      </trkpt>
      <trkpt lat="45.23643" lon="6.24193">
        <ele>2220</ele>
        <time>2021-02-27T14:54:58Z</time>
      </trkpt>
      <trkpt lat="45.23643" lon="6.24193">
        <ele>2220</ele>
        <time>2021-02-27T14:54:59Z</time>
      </trkpt>
      <trkpt lat="45.23643" lon="6.24193">
        <ele>2219.8</ele>
        <time>2021-02-27T14:55:00Z</time>
      </trkpt>
      <trkpt lat="45.23643" lon="6.24193">
        <ele>2220</ele>
        <time>2021-02-27T14:55:01Z</time>
      </trkpt>
      <trkpt lat="45.23643" lon="6.24193">
        <ele>2220</ele>
        <time>2021-02-27T14:55:02Z</time>
      </trkpt>
      <trkpt lat="45.23643" lon="6.24193">
        <ele>2220</ele>
        <time>2021-02-27T14:55:03Z</time>
      </trkpt>
      <trkpt lat="45.23643" lon="6.24193">
        <ele>2219.8</ele>
        <time>2021-02-27T14:55:04Z</time>
      </trkpt>
      <trkpt lat="45.23643" lon="6.24193">
        <ele>2219.8</ele>
        <time>2021-02-27T14:55:05Z</time>
      </trkpt>
      <trkpt lat="45.23643" lon="6.24193">
        <ele>2220</ele>
        <time>2021-02-27T14:55:06Z</time>
      </trkpt>
      <trkpt lat="45.23643" lon="6.24193">
        <ele>2220</ele>
        <time>2021-02-27T14:55:07Z</time>
      </trkpt>
      <trkpt lat="45.23643" lon="6.24193">
        <ele>2220.2</ele>
        <time>2021-02-27T14:55:08Z</time>
      </trkpt>
      <trkpt lat="45.23643" lon="6.24193">
        <ele>2220.2</ele>
        <time>2021-02-27T14:55:09Z</time>
      </trkpt>
      <trkpt lat="45.23643" lon="6.24193">
        <ele>2220.2</ele>
        <time>2021-02-27T14:55:10Z</time>
      </trkpt>
      <trkpt lat="45.23643" lon="6.24193">
        <ele>2220.6</ele>
        <time>2021-02-27T14:55:11Z</time>
      </trkpt>
      <trkpt lat="45.23643" lon="6.24193">
        <ele>2220.4</ele>
        <time>2021-02-27T14:55:12Z</time>
      </trkpt>
      <trkpt lat="45.23643" lon="6.24193">
        <ele>2220.2</ele>
        <time>2021-02-27T14:55:13Z</time>
      </trkpt>
      <trkpt lat="45.23643" lon="6.24193">
        <ele>2220</ele>
        <time>2021-02-27T14:55:14Z</time>
      </trkpt>
      <trkpt lat="45.23643" lon="6.24193">
        <ele>2219.8</ele>
        <time>2021-02-27T14:55:15Z</time>
      </trkpt>
      <trkpt lat="45.23644" lon="6.24193">
        <ele>2219.6</ele>
        <time>2021-02-27T14:55:16Z</time>
      </trkpt>
      <trkpt lat="45.23644" lon="6.24193">
        <ele>2219.4</ele>
        <time>2021-02-27T14:55:17Z</time>
      </trkpt>
      <trkpt lat="45.23644" lon="6.24193">
        <ele>2219.2</ele>
        <time>2021-02-27T14:55:18Z</time>
      </trkpt>
      <trkpt lat="45.23644" lon="6.24193">
        <ele>2219</ele>
        <time>2021-02-27T14:55:19Z</time>
      </trkpt>
      <trkpt lat="45.23644" lon="6.24193">
        <ele>2218.4</ele>
        <time>2021-02-27T14:55:20Z</time>
      </trkpt>
      <trkpt lat="45.23644" lon="6.24193">
        <ele>2219</ele>
        <time>2021-02-27T14:55:21Z</time>
      </trkpt>
      <trkpt lat="45.23644" lon="6.24193">
        <ele>2219.2</ele>
        <time>2021-02-27T14:55:22Z</time>
      </trkpt>
      <trkpt lat="45.23644" lon="6.24193">
        <ele>2219.4</ele>
        <time>2021-02-27T14:55:23Z</time>
      </trkpt>
      <trkpt lat="45.23644" lon="6.24193">
        <ele>2219.2</ele>
        <time>2021-02-27T14:55:24Z</time>
      </trkpt>
      <trkpt lat="45.23644" lon="6.24193">
        <ele>2219</ele>
        <time>2021-02-27T14:55:25Z</time>
      </trkpt>
      <trkpt lat="45.23644" lon="6.24193">
        <ele>2219</ele>
        <time>2021-02-27T14:55:26Z</time>
      </trkpt>
      <trkpt lat="45.23644" lon="6.24193">
        <ele>2219</ele>
        <time>2021-02-27T14:55:27Z</time>
      </trkpt>
      <trkpt lat="45.23644" lon="6.24193">
        <ele>2219.2</ele>
        <time>2021-02-27T14:55:28Z</time>
      </trkpt>
      <trkpt lat="45.23644" lon="6.24193">
        <ele>2219.4</ele>
        <time>2021-02-27T14:55:29Z</time>
      </trkpt>
      <trkpt lat="45.23644" lon="6.24193">
        <ele>2219.6</ele>
        <time>2021-02-27T14:55:30Z</time>
      </trkpt>
      <trkpt lat="45.23644" lon="6.24193">
        <ele>2219.8</ele>
        <time>2021-02-27T14:55:31Z</time>
      </trkpt>
      <trkpt lat="45.23644" lon="6.24193">
        <ele>2219.6</ele>
        <time>2021-02-27T14:55:32Z</time>
      </trkpt>
      <trkpt lat="45.23644" lon="6.24193">
        <ele>2219.4</ele>
        <time>2021-02-27T14:55:33Z</time>
      </trkpt>
      <trkpt lat="45.23644" lon="6.24193">
        <ele>2219.4</ele>
        <time>2021-02-27T14:55:34Z</time>
      </trkpt>
      <trkpt lat="45.23644" lon="6.24193">
        <ele>2219</ele>
        <time>2021-02-27T14:55:35Z</time>
      </trkpt>
      <trkpt lat="45.23644" lon="6.24193">
        <ele>2219.2</ele>
        <time>2021-02-27T14:55:36Z</time>
      </trkpt>
      <trkpt lat="45.23644" lon="6.24193">
        <ele>2219</ele>
        <time>2021-02-27T14:55:37Z</time>
      </trkpt>
      <trkpt lat="45.23644" lon="6.24193">
        <ele>2219</ele>
        <time>2021-02-27T14:55:38Z</time>
      </trkpt>
      <trkpt lat="45.23644" lon="6.24193">
        <ele>2219.2</ele>
        <time>2021-02-27T14:55:39Z</time>
      </trkpt>
      <trkpt lat="45.23644" lon="6.24193">
        <ele>2219</ele>
        <time>2021-02-27T14:55:40Z</time>
      </trkpt>
      <trkpt lat="45.23644" lon="6.24193">
        <ele>2219</ele>
        <time>2021-02-27T14:55:41Z</time>
      </trkpt>
      <trkpt lat="45.23644" lon="6.24193">
        <ele>2219.4</ele>
        <time>2021-02-27T14:55:42Z</time>
      </trkpt>
      <trkpt lat="45.23644" lon="6.24193">
        <ele>2219.2</ele>
        <time>2021-02-27T14:55:43Z</time>
      </trkpt>
      <trkpt lat="45.23644" lon="6.24193">
        <ele>2219.2</ele>
        <time>2021-02-27T14:55:44Z</time>
      </trkpt>
      <trkpt lat="45.23644" lon="6.24193">
        <ele>2219.2</ele>
        <time>2021-02-27T14:55:45Z</time>
      </trkpt>
      <trkpt lat="45.23644" lon="6.24193">
        <ele>2219.4</ele>
        <time>2021-02-27T14:55:46Z</time>
      </trkpt>
      <trkpt lat="45.23644" lon="6.24193">
        <ele>2219.6</ele>
        <time>2021-02-27T14:55:47Z</time>
      </trkpt>
      <trkpt lat="45.23644" lon="6.24193">
        <ele>2219.6</ele>
        <time>2021-02-27T14:55:48Z</time>
      </trkpt>
      <trkpt lat="45.23644" lon="6.24193">
        <ele>2219.8</ele>
        <time>2021-02-27T14:55:49Z</time>
      </trkpt>
      <trkpt lat="45.23644" lon="6.24193">
        <ele>2219.6</ele>
        <time>2021-02-27T14:55:50Z</time>
      </trkpt>
      <trkpt lat="45.23644" lon="6.24193">
        <ele>2219.8</ele>
        <time>2021-02-27T14:55:51Z</time>
      </trkpt>
      <trkpt lat="45.23644" lon="6.24193">
        <ele>2220</ele>
        <time>2021-02-27T14:55:52Z</time>
      </trkpt>
      <trkpt lat="45.23644" lon="6.24193">
        <ele>2219.8</ele>
        <time>2021-02-27T14:55:53Z</time>
      </trkpt>
      <trkpt lat="45.23644" lon="6.24193">
        <ele>2219.8</ele>
        <time>2021-02-27T14:55:54Z</time>
      </trkpt>
      <trkpt lat="45.23644" lon="6.24193">
        <ele>2219.8</ele>
        <time>2021-02-27T14:55:55Z</time>
      </trkpt>
      <trkpt lat="45.23644" lon="6.24193">
        <ele>2219.8</ele>
        <time>2021-02-27T14:55:56Z</time>
      </trkpt>
      <trkpt lat="45.23644" lon="6.24193">
        <ele>2219.4</ele>
        <time>2021-02-27T14:55:57Z</time>
      </trkpt>
      <trkpt lat="45.23644" lon="6.24193">
        <ele>2219.4</ele>
        <time>2021-02-27T14:55:58Z</time>
      </trkpt>
      <trkpt lat="45.23644" lon="6.24193">
        <ele>2220</ele>
        <time>2021-02-27T14:55:59Z</time>
      </trkpt>
      <trkpt lat="45.23644" lon="6.24193">
        <ele>2220.6</ele>
        <time>2021-02-27T14:56:00Z</time>
      </trkpt>
      <trkpt lat="45.23644" lon="6.24193">
        <ele>2221</ele>
        <time>2021-02-27T14:56:01Z</time>
      </trkpt>
      <trkpt lat="45.23644" lon="6.24193">
        <ele>2221.2</ele>
        <time>2021-02-27T14:56:02Z</time>
      </trkpt>
      <trkpt lat="45.23644" lon="6.24193">
        <ele>2221.2</ele>
        <time>2021-02-27T14:56:03Z</time>
      </trkpt>
      <trkpt lat="45.23644" lon="6.24193">
        <ele>2220.8</ele>
        <time>2021-02-27T14:56:04Z</time>
      </trkpt>
      <trkpt lat="45.23644" lon="6.24193">
        <ele>2220.6</ele>
        <time>2021-02-27T14:56:05Z</time>
      </trkpt>
      <trkpt lat="45.23644" lon="6.24193">
        <ele>2220.4</ele>
        <time>2021-02-27T14:56:06Z</time>
      </trkpt>
      <trkpt lat="45.23644" lon="6.24193">
        <ele>2220.4</ele>
        <time>2021-02-27T14:56:07Z</time>
      </trkpt>
      <trkpt lat="45.23644" lon="6.24193">
        <ele>2220.2</ele>
        <time>2021-02-27T14:56:08Z</time>
      </trkpt>
      <trkpt lat="45.23644" lon="6.24193">
        <ele>2220</ele>
        <time>2021-02-27T14:56:09Z</time>
      </trkpt>
      <trkpt lat="45.23644" lon="6.24193">
        <ele>2219.8</ele>
        <time>2021-02-27T14:56:10Z</time>
      </trkpt>
      <trkpt lat="45.23644" lon="6.24193">
        <ele>2219.8</ele>
        <time>2021-02-27T14:56:11Z</time>
      </trkpt>
      <trkpt lat="45.23644" lon="6.24193">
        <ele>2219.8</ele>
        <time>2021-02-27T14:56:12Z</time>
      </trkpt>
      <trkpt lat="45.23644" lon="6.24193">
        <ele>2219.8</ele>
        <time>2021-02-27T14:56:13Z</time>
      </trkpt>
      <trkpt lat="45.23644" lon="6.24193">
        <ele>2219.8</ele>
        <time>2021-02-27T14:56:14Z</time>
      </trkpt>
      <trkpt lat="45.23644" lon="6.24193">
        <ele>2219.6</ele>
        <time>2021-02-27T14:56:15Z</time>
      </trkpt>
      <trkpt lat="45.23644" lon="6.24193">
        <ele>2220</ele>
        <time>2021-02-27T14:56:16Z</time>
      </trkpt>
      <trkpt lat="45.23644" lon="6.24193">
        <ele>2219.8</ele>
        <time>2021-02-27T14:56:17Z</time>
      </trkpt>
      <trkpt lat="45.23644" lon="6.24195">
        <ele>2220</ele>
        <time>2021-02-27T14:56:18Z</time>
      </trkpt>
      <trkpt lat="45.23644" lon="6.24195">
        <ele>2220.2</ele>
        <time>2021-02-27T14:56:19Z</time>
      </trkpt>
      <trkpt lat="45.23644" lon="6.24195">
        <ele>2220</ele>
        <time>2021-02-27T14:56:20Z</time>
      </trkpt>
      <trkpt lat="45.23644" lon="6.24195">
        <ele>2219.8</ele>
        <time>2021-02-27T14:56:21Z</time>
      </trkpt>
      <trkpt lat="45.23644" lon="6.24195">
        <ele>2220.2</ele>
        <time>2021-02-27T14:56:22Z</time>
      </trkpt>
      <trkpt lat="45.23644" lon="6.24195">
        <ele>2220.2</ele>
        <time>2021-02-27T14:56:23Z</time>
      </trkpt>
      <trkpt lat="45.23644" lon="6.24195">
        <ele>2220.2</ele>
        <time>2021-02-27T14:56:24Z</time>
      </trkpt>
      <trkpt lat="45.23644" lon="6.24195">
        <ele>2219.8</ele>
        <time>2021-02-27T14:56:25Z</time>
      </trkpt>
      <trkpt lat="45.23644" lon="6.24195">
        <ele>2219.6</ele>
        <time>2021-02-27T14:56:26Z</time>
      </trkpt>
      <trkpt lat="45.23644" lon="6.24195">
        <ele>2219.8</ele>
        <time>2021-02-27T14:56:27Z</time>
      </trkpt>
      <trkpt lat="45.23644" lon="6.24195">
        <ele>2220</ele>
        <time>2021-02-27T14:56:28Z</time>
      </trkpt>
      <trkpt lat="45.23646" lon="6.24196">
        <ele>2220.2</ele>
        <time>2021-02-27T14:56:29Z</time>
      </trkpt>
      <trkpt lat="45.23646" lon="6.24196">
        <ele>2220</ele>
        <time>2021-02-27T14:56:30Z</time>
      </trkpt>
      <trkpt lat="45.23646" lon="6.24196">
        <ele>2220.4</ele>
        <time>2021-02-27T14:56:31Z</time>
      </trkpt>
      <trkpt lat="45.23646" lon="6.24196">
        <ele>2220.6</ele>
        <time>2021-02-27T14:56:32Z</time>
      </trkpt>
      <trkpt lat="45.23646" lon="6.24196">
        <ele>2220.8</ele>
        <time>2021-02-27T14:56:33Z</time>
      </trkpt>
      <trkpt lat="45.23646" lon="6.24196">
        <ele>2221.2</ele>
        <time>2021-02-27T14:56:34Z</time>
      </trkpt>
      <trkpt lat="45.23646" lon="6.24196">
        <ele>2221.2</ele>
        <time>2021-02-27T14:56:35Z</time>
      </trkpt>
      <trkpt lat="45.23646" lon="6.24196">
        <ele>2221.6</ele>
        <time>2021-02-27T14:56:36Z</time>
      </trkpt>
      <trkpt lat="45.23646" lon="6.24196">
        <ele>2221.6</ele>
        <time>2021-02-27T14:56:37Z</time>
      </trkpt>
      <trkpt lat="45.23646" lon="6.24196">
        <ele>2221.6</ele>
        <time>2021-02-27T14:56:38Z</time>
      </trkpt>
      <trkpt lat="45.23646" lon="6.24196">
        <ele>2221.6</ele>
        <time>2021-02-27T14:56:39Z</time>
      </trkpt>
      <trkpt lat="45.23648" lon="6.24198">
        <ele>2221.8</ele>
        <time>2021-02-27T14:56:40Z</time>
      </trkpt>
      <trkpt lat="45.23649" lon="6.242">
        <ele>2221</ele>
        <time>2021-02-27T14:56:41Z</time>
      </trkpt>
      <trkpt lat="45.2365" lon="6.24203">
        <ele>2220.6</ele>
        <time>2021-02-27T14:56:42Z</time>
      </trkpt>
      <trkpt lat="45.23651" lon="6.24205">
        <ele>2220</ele>
        <time>2021-02-27T14:56:43Z</time>
      </trkpt>
      <trkpt lat="45.23653" lon="6.24209">
        <ele>2219.2</ele>
        <time>2021-02-27T14:56:44Z</time>
      </trkpt>
      <trkpt lat="45.23655" lon="6.24214">
        <ele>2219.4</ele>
        <time>2021-02-27T14:56:45Z</time>
      </trkpt>
      <trkpt lat="45.23657" lon="6.24218">
        <ele>2219</ele>
        <time>2021-02-27T14:56:46Z</time>
      </trkpt>
      <trkpt lat="45.23659" lon="6.24223">
        <ele>2218.4</ele>
        <time>2021-02-27T14:56:47Z</time>
      </trkpt>
      <trkpt lat="45.23661" lon="6.24228">
        <ele>2218.8</ele>
        <time>2021-02-27T14:56:48Z</time>
      </trkpt>
      <trkpt lat="45.23662" lon="6.24234">
        <ele>2219</ele>
        <time>2021-02-27T14:56:49Z</time>
      </trkpt>
      <trkpt lat="45.23664" lon="6.24239">
        <ele>2219</ele>
        <time>2021-02-27T14:56:50Z</time>
      </trkpt>
      <trkpt lat="45.23665" lon="6.24244">
        <ele>2218.8</ele>
        <time>2021-02-27T14:56:51Z</time>
      </trkpt>
      <trkpt lat="45.23667" lon="6.24249">
        <ele>2218</ele>
        <time>2021-02-27T14:56:52Z</time>
      </trkpt>
      <trkpt lat="45.23667" lon="6.24253">
        <ele>2218.4</ele>
        <time>2021-02-27T14:56:53Z</time>
      </trkpt>
      <trkpt lat="45.23668" lon="6.24256">
        <ele>2217.2</ele>
        <time>2021-02-27T14:56:54Z</time>
      </trkpt>
      <trkpt lat="45.23669" lon="6.2426">
        <ele>2218</ele>
        <time>2021-02-27T14:56:55Z</time>
      </trkpt>
      <trkpt lat="45.23669" lon="6.2426">
        <ele>2217.6</ele>
        <time>2021-02-27T14:56:56Z</time>
      </trkpt>
      <trkpt lat="45.2367" lon="6.24265">
        <ele>2216.4</ele>
        <time>2021-02-27T14:56:57Z</time>
      </trkpt>
      <trkpt lat="45.2367" lon="6.24269">
        <ele>2215.2</ele>
        <time>2021-02-27T14:56:58Z</time>
      </trkpt>
      <trkpt lat="45.23671" lon="6.24274">
        <ele>2216</ele>
        <time>2021-02-27T14:56:59Z</time>
      </trkpt>
      <trkpt lat="45.23672" lon="6.24278">
        <ele>2215.4</ele>
        <time>2021-02-27T14:57:00Z</time>
      </trkpt>
      <trkpt lat="45.23672" lon="6.24282">
        <ele>2215.8</ele>
        <time>2021-02-27T14:57:01Z</time>
      </trkpt>
      <trkpt lat="45.23672" lon="6.24287">
        <ele>2215.2</ele>
        <time>2021-02-27T14:57:02Z</time>
      </trkpt>
      <trkpt lat="45.23672" lon="6.24291">
        <ele>2214.8</ele>
        <time>2021-02-27T14:57:03Z</time>
      </trkpt>
      <trkpt lat="45.23672" lon="6.24294">
        <ele>2214.4</ele>
        <time>2021-02-27T14:57:04Z</time>
      </trkpt>
      <trkpt lat="45.23673" lon="6.24298">
        <ele>2215</ele>
        <time>2021-02-27T14:57:05Z</time>
      </trkpt>
      <trkpt lat="45.23673" lon="6.24302">
        <ele>2214.4</ele>
        <time>2021-02-27T14:57:06Z</time>
      </trkpt>
      <trkpt lat="45.23673" lon="6.24306">
        <ele>2214.6</ele>
        <time>2021-02-27T14:57:07Z</time>
      </trkpt>
      <trkpt lat="45.23673" lon="6.2431">
        <ele>2213.6</ele>
        <time>2021-02-27T14:57:08Z</time>
      </trkpt>
      <trkpt lat="45.23674" lon="6.24314">
        <ele>2212.8</ele>
        <time>2021-02-27T14:57:09Z</time>
      </trkpt>
      <trkpt lat="45.23674" lon="6.24318">
        <ele>2213.8</ele>
        <time>2021-02-27T14:57:10Z</time>
      </trkpt>
      <trkpt lat="45.23674" lon="6.24323">
        <ele>2213.2</ele>
        <time>2021-02-27T14:57:11Z</time>
      </trkpt>
      <trkpt lat="45.23675" lon="6.24328">
        <ele>2213.8</ele>
        <time>2021-02-27T14:57:12Z</time>
      </trkpt>
      <trkpt lat="45.23675" lon="6.24332">
        <ele>2213</ele>
        <time>2021-02-27T14:57:13Z</time>
      </trkpt>
      <trkpt lat="45.23675" lon="6.24338">
        <ele>2214</ele>
        <time>2021-02-27T14:57:14Z</time>
      </trkpt>
      <trkpt lat="45.23675" lon="6.24344">
        <ele>2213</ele>
        <time>2021-02-27T14:57:15Z</time>
      </trkpt>
      <trkpt lat="45.23675" lon="6.2435">
        <ele>2213.2</ele>
        <time>2021-02-27T14:57:16Z</time>
      </trkpt>
      <trkpt lat="45.23675" lon="6.24354">
        <ele>2212.8</ele>
        <time>2021-02-27T14:57:17Z</time>
      </trkpt>
      <trkpt lat="45.23675" lon="6.24354">
        <ele>2213.6</ele>
        <time>2021-02-27T14:57:18Z</time>
      </trkpt>
      <trkpt lat="45.23673" lon="6.24365">
        <ele>2213.8</ele>
        <time>2021-02-27T14:57:19Z</time>
      </trkpt>
      <trkpt lat="45.23673" lon="6.24367">
        <ele>2213.8</ele>
        <time>2021-02-27T14:57:20Z</time>
      </trkpt>
      <trkpt lat="45.23673" lon="6.24371">
        <ele>2213.8</ele>
        <time>2021-02-27T14:57:21Z</time>
      </trkpt>
      <trkpt lat="45.23672" lon="6.24376">
        <ele>2213.4</ele>
        <time>2021-02-27T14:57:22Z</time>
      </trkpt>
      <trkpt lat="45.23672" lon="6.2438">
        <ele>2213.8</ele>
        <time>2021-02-27T14:57:23Z</time>
      </trkpt>
      <trkpt lat="45.23671" lon="6.24385">
        <ele>2213.4</ele>
        <time>2021-02-27T14:57:24Z</time>
      </trkpt>
      <trkpt lat="45.2367" lon="6.2439">
        <ele>2212.8</ele>
        <time>2021-02-27T14:57:25Z</time>
      </trkpt>
      <trkpt lat="45.23669" lon="6.24395">
        <ele>2211</ele>
        <time>2021-02-27T14:57:26Z</time>
      </trkpt>
      <trkpt lat="45.23667" lon="6.244">
        <ele>2211.4</ele>
        <time>2021-02-27T14:57:27Z</time>
      </trkpt>
      <trkpt lat="45.23665" lon="6.24405">
        <ele>2211.8</ele>
        <time>2021-02-27T14:57:28Z</time>
      </trkpt>
      <trkpt lat="45.23663" lon="6.2441">
        <ele>2212</ele>
        <time>2021-02-27T14:57:29Z</time>
      </trkpt>
      <trkpt lat="45.23661" lon="6.24416">
        <ele>2212</ele>
        <time>2021-02-27T14:57:30Z</time>
      </trkpt>
      <trkpt lat="45.23659" lon="6.24421">
        <ele>2211.8</ele>
        <time>2021-02-27T14:57:31Z</time>
      </trkpt>
      <trkpt lat="45.23656" lon="6.24427">
        <ele>2211.6</ele>
        <time>2021-02-27T14:57:32Z</time>
      </trkpt>
      <trkpt lat="45.23654" lon="6.24433">
        <ele>2211.6</ele>
        <time>2021-02-27T14:57:33Z</time>
      </trkpt>
      <trkpt lat="45.23651" lon="6.24439">
        <ele>2211.4</ele>
        <time>2021-02-27T14:57:34Z</time>
      </trkpt>
      <trkpt lat="45.23649" lon="6.24445">
        <ele>2211</ele>
        <time>2021-02-27T14:57:35Z</time>
      </trkpt>
      <trkpt lat="45.23646" lon="6.24452">
        <ele>2210.6</ele>
        <time>2021-02-27T14:57:36Z</time>
      </trkpt>
      <trkpt lat="45.23643" lon="6.24459">
        <ele>2210.4</ele>
        <time>2021-02-27T14:57:37Z</time>
      </trkpt>
      <trkpt lat="45.23641" lon="6.24467">
        <ele>2210</ele>
        <time>2021-02-27T14:57:38Z</time>
      </trkpt>
      <trkpt lat="45.23639" lon="6.24476">
        <ele>2209.6</ele>
        <time>2021-02-27T14:57:39Z</time>
      </trkpt>
      <trkpt lat="45.23638" lon="6.24484">
        <ele>2209</ele>
        <time>2021-02-27T14:57:40Z</time>
      </trkpt>
      <trkpt lat="45.23637" lon="6.24493">
        <ele>2208.8</ele>
        <time>2021-02-27T14:57:41Z</time>
      </trkpt>
      <trkpt lat="45.23636" lon="6.24501">
        <ele>2208.4</ele>
        <time>2021-02-27T14:57:42Z</time>
      </trkpt>
      <trkpt lat="45.23635" lon="6.24511">
        <ele>2208.2</ele>
        <time>2021-02-27T14:57:43Z</time>
      </trkpt>
      <trkpt lat="45.23633" lon="6.2452">
        <ele>2208</ele>
        <time>2021-02-27T14:57:44Z</time>
      </trkpt>
      <trkpt lat="45.2363" lon="6.24529">
        <ele>2207.8</ele>
        <time>2021-02-27T14:57:45Z</time>
      </trkpt>
      <trkpt lat="45.23627" lon="6.24539">
        <ele>2205.4</ele>
        <time>2021-02-27T14:57:46Z</time>
      </trkpt>
      <trkpt lat="45.23625" lon="6.24548">
        <ele>2205</ele>
        <time>2021-02-27T14:57:47Z</time>
      </trkpt>
      <trkpt lat="45.23621" lon="6.24557">
        <ele>2205</ele>
        <time>2021-02-27T14:57:48Z</time>
      </trkpt>
      <trkpt lat="45.23617" lon="6.24566">
        <ele>2204.8</ele>
        <time>2021-02-27T14:57:49Z</time>
      </trkpt>
      <trkpt lat="45.23612" lon="6.24575">
        <ele>2204.2</ele>
        <time>2021-02-27T14:57:50Z</time>
      </trkpt>
      <trkpt lat="45.23607" lon="6.24584">
        <ele>2203.4</ele>
        <time>2021-02-27T14:57:51Z</time>
      </trkpt>
      <trkpt lat="45.23603" lon="6.24593">
        <ele>2200.6</ele>
        <time>2021-02-27T14:57:52Z</time>
      </trkpt>
      <trkpt lat="45.23598" lon="6.24603">
        <ele>2199.2</ele>
        <time>2021-02-27T14:57:53Z</time>
      </trkpt>
      <trkpt lat="45.23593" lon="6.24613">
        <ele>2197.4</ele>
        <time>2021-02-27T14:57:54Z</time>
      </trkpt>
      <trkpt lat="45.23588" lon="6.24623">
        <ele>2195.8</ele>
        <time>2021-02-27T14:57:55Z</time>
      </trkpt>
      <trkpt lat="45.23582" lon="6.24633">
        <ele>2193.8</ele>
        <time>2021-02-27T14:57:56Z</time>
      </trkpt>
      <trkpt lat="45.23577" lon="6.24644">
        <ele>2192.6</ele>
        <time>2021-02-27T14:57:57Z</time>
      </trkpt>
      <trkpt lat="45.23577" lon="6.24644">
        <ele>2191.4</ele>
        <time>2021-02-27T14:57:58Z</time>
      </trkpt>
      <trkpt lat="45.23561" lon="6.24664">
        <ele>2189.6</ele>
        <time>2021-02-27T14:57:59Z</time>
      </trkpt>
      <trkpt lat="45.23557" lon="6.24668">
        <ele>2188.8</ele>
        <time>2021-02-27T14:58:00Z</time>
      </trkpt>
      <trkpt lat="45.23547" lon="6.24679">
        <ele>2187.4</ele>
        <time>2021-02-27T14:58:01Z</time>
      </trkpt>
      <trkpt lat="45.23543" lon="6.24682">
        <ele>2186.6</ele>
        <time>2021-02-27T14:58:02Z</time>
      </trkpt>
      <trkpt lat="45.23535" lon="6.24689">
        <ele>2184.8</ele>
        <time>2021-02-27T14:58:03Z</time>
      </trkpt>
      <trkpt lat="45.23525" lon="6.24692">
        <ele>2183.6</ele>
        <time>2021-02-27T14:58:04Z</time>
      </trkpt>
      <trkpt lat="45.23516" lon="6.24696">
        <ele>2182</ele>
        <time>2021-02-27T14:58:05Z</time>
      </trkpt>
      <trkpt lat="45.23506" lon="6.247">
        <ele>2180.8</ele>
        <time>2021-02-27T14:58:06Z</time>
      </trkpt>
      <trkpt lat="45.23496" lon="6.24702">
        <ele>2179.2</ele>
        <time>2021-02-27T14:58:07Z</time>
      </trkpt>
      <trkpt lat="45.23486" lon="6.24705">
        <ele>2177.6</ele>
        <time>2021-02-27T14:58:08Z</time>
      </trkpt>
      <trkpt lat="45.23476" lon="6.24707">
        <ele>2176.6</ele>
        <time>2021-02-27T14:58:09Z</time>
      </trkpt>
      <trkpt lat="45.23466" lon="6.24708">
        <ele>2175.4</ele>
        <time>2021-02-27T14:58:10Z</time>
      </trkpt>
      <trkpt lat="45.23455" lon="6.24709">
        <ele>2174</ele>
        <time>2021-02-27T14:58:11Z</time>
      </trkpt>
      <trkpt lat="45.23445" lon="6.24712">
        <ele>2171.8</ele>
        <time>2021-02-27T14:58:12Z</time>
      </trkpt>
      <trkpt lat="45.23435" lon="6.24713">
        <ele>2170.4</ele>
        <time>2021-02-27T14:58:13Z</time>
      </trkpt>
      <trkpt lat="45.23425" lon="6.24713">
        <ele>2168.8</ele>
        <time>2021-02-27T14:58:14Z</time>
      </trkpt>
      <trkpt lat="45.23425" lon="6.24713">
        <ele>2167.8</ele>
        <time>2021-02-27T14:58:15Z</time>
      </trkpt>
      <trkpt lat="45.23401" lon="6.24715">
        <ele>2167.2</ele>
        <time>2021-02-27T14:58:16Z</time>
      </trkpt>
      <trkpt lat="45.23396" lon="6.24716">
        <ele>2165.6</ele>
        <time>2021-02-27T14:58:17Z</time>
      </trkpt>
      <trkpt lat="45.23386" lon="6.24718">
        <ele>2164.6</ele>
        <time>2021-02-27T14:58:18Z</time>
      </trkpt>
      <trkpt lat="45.23375" lon="6.24718">
        <ele>2163.4</ele>
        <time>2021-02-27T14:58:19Z</time>
      </trkpt>
      <trkpt lat="45.23365" lon="6.24719">
        <ele>2161.6</ele>
        <time>2021-02-27T14:58:20Z</time>
      </trkpt>
      <trkpt lat="45.23356" lon="6.24718">
        <ele>2159.8</ele>
        <time>2021-02-27T14:58:21Z</time>
      </trkpt>
      <trkpt lat="45.23356" lon="6.24718">
        <ele>2157.4</ele>
        <time>2021-02-27T14:58:22Z</time>
      </trkpt>
      <trkpt lat="45.23335" lon="6.24717">
        <ele>2156.6</ele>
        <time>2021-02-27T14:58:23Z</time>
      </trkpt>
      <trkpt lat="45.23331" lon="6.24716">
        <ele>2154.6</ele>
        <time>2021-02-27T14:58:24Z</time>
      </trkpt>
      <trkpt lat="45.23318" lon="6.24716">
        <ele>2153.8</ele>
        <time>2021-02-27T14:58:25Z</time>
      </trkpt>
      <trkpt lat="45.23313" lon="6.24715">
        <ele>2152.6</ele>
        <time>2021-02-27T14:58:26Z</time>
      </trkpt>
      <trkpt lat="45.23299" lon="6.24715">
        <ele>2151.6</ele>
        <time>2021-02-27T14:58:27Z</time>
      </trkpt>
      <trkpt lat="45.23294" lon="6.24715">
        <ele>2150.8</ele>
        <time>2021-02-27T14:58:28Z</time>
      </trkpt>
      <trkpt lat="45.23283" lon="6.24715">
        <ele>2149.2</ele>
        <time>2021-02-27T14:58:29Z</time>
      </trkpt>
      <trkpt lat="45.23272" lon="6.24714">
        <ele>2148.2</ele>
        <time>2021-02-27T14:58:30Z</time>
      </trkpt>
      <trkpt lat="45.23251" lon="6.24715">
        <ele>2147</ele>
        <time>2021-02-27T14:58:31Z</time>
      </trkpt>
      <trkpt lat="45.2324" lon="6.24712">
        <ele>2145.2</ele>
        <time>2021-02-27T14:58:32Z</time>
      </trkpt>
      <trkpt lat="45.23229" lon="6.24709">
        <ele>2144.4</ele>
        <time>2021-02-27T14:58:33Z</time>
      </trkpt>
      <trkpt lat="45.2322" lon="6.24705">
        <ele>2143.8</ele>
        <time>2021-02-27T14:58:34Z</time>
      </trkpt>
      <trkpt lat="45.2321" lon="6.247">
        <ele>2142.6</ele>
        <time>2021-02-27T14:58:35Z</time>
      </trkpt>
      <trkpt lat="45.232" lon="6.24698">
        <ele>2141.8</ele>
        <time>2021-02-27T14:58:36Z</time>
      </trkpt>
      <trkpt lat="45.23189" lon="6.24696">
        <ele>2140.4</ele>
        <time>2021-02-27T14:58:37Z</time>
      </trkpt>
      <trkpt lat="45.23178" lon="6.24695">
        <ele>2137.8</ele>
        <time>2021-02-27T14:58:38Z</time>
      </trkpt>
      <trkpt lat="45.23166" lon="6.24694">
        <ele>2136</ele>
        <time>2021-02-27T14:58:39Z</time>
      </trkpt>
      <trkpt lat="45.23155" lon="6.24694">
        <ele>2133.6</ele>
        <time>2021-02-27T14:58:40Z</time>
      </trkpt>
      <trkpt lat="45.23144" lon="6.24696">
        <ele>2132.2</ele>
        <time>2021-02-27T14:58:41Z</time>
      </trkpt>
      <trkpt lat="45.23132" lon="6.247">
        <ele>2130.8</ele>
        <time>2021-02-27T14:58:42Z</time>
      </trkpt>
      <trkpt lat="45.23121" lon="6.24705">
        <ele>2129.6</ele>
        <time>2021-02-27T14:58:43Z</time>
      </trkpt>
      <trkpt lat="45.23111" lon="6.24714">
        <ele>2128.8</ele>
        <time>2021-02-27T14:58:44Z</time>
      </trkpt>
      <trkpt lat="45.23103" lon="6.24726">
        <ele>2127.4</ele>
        <time>2021-02-27T14:58:45Z</time>
      </trkpt>
      <trkpt lat="45.23098" lon="6.2474">
        <ele>2126.2</ele>
        <time>2021-02-27T14:58:46Z</time>
      </trkpt>
      <trkpt lat="45.23094" lon="6.24757">
        <ele>2124.6</ele>
        <time>2021-02-27T14:58:47Z</time>
      </trkpt>
      <trkpt lat="45.23094" lon="6.24774">
        <ele>2124</ele>
        <time>2021-02-27T14:58:48Z</time>
      </trkpt>
      <trkpt lat="45.23097" lon="6.2479">
        <ele>2123.4</ele>
        <time>2021-02-27T14:58:49Z</time>
      </trkpt>
      <trkpt lat="45.23098" lon="6.24805">
        <ele>2121.8</ele>
        <time>2021-02-27T14:58:50Z</time>
      </trkpt>
      <trkpt lat="45.23097" lon="6.24818">
        <ele>2116.6</ele>
        <time>2021-02-27T14:58:51Z</time>
      </trkpt>
      <trkpt lat="45.23091" lon="6.24828">
        <ele>2112.4</ele>
        <time>2021-02-27T14:58:52Z</time>
      </trkpt>
      <trkpt lat="45.23084" lon="6.24837">
        <ele>2108.8</ele>
        <time>2021-02-27T14:58:53Z</time>
      </trkpt>
      <trkpt lat="45.23077" lon="6.24846">
        <ele>2106</ele>
        <time>2021-02-27T14:58:54Z</time>
      </trkpt>
      <trkpt lat="45.23068" lon="6.24853">
        <ele>2105.2</ele>
        <time>2021-02-27T14:58:55Z</time>
      </trkpt>
      <trkpt lat="45.2306" lon="6.24862">
        <ele>2102.4</ele>
        <time>2021-02-27T14:58:56Z</time>
      </trkpt>
      <trkpt lat="45.23052" lon="6.24869">
        <ele>2102</ele>
        <time>2021-02-27T14:58:57Z</time>
      </trkpt>
      <trkpt lat="45.23044" lon="6.24876">
        <ele>2100.2</ele>
        <time>2021-02-27T14:58:58Z</time>
      </trkpt>
      <trkpt lat="45.23035" lon="6.24885">
        <ele>2098.8</ele>
        <time>2021-02-27T14:58:59Z</time>
      </trkpt>
      <trkpt lat="45.23026" lon="6.24894">
        <ele>2097.4</ele>
        <time>2021-02-27T14:59:00Z</time>
      </trkpt>
      <trkpt lat="45.23016" lon="6.24901">
        <ele>2095.6</ele>
        <time>2021-02-27T14:59:01Z</time>
      </trkpt>
      <trkpt lat="45.23005" lon="6.24909">
        <ele>2094.2</ele>
        <time>2021-02-27T14:59:02Z</time>
      </trkpt>
      <trkpt lat="45.22994" lon="6.24915">
        <ele>2092.6</ele>
        <time>2021-02-27T14:59:03Z</time>
      </trkpt>
      <trkpt lat="45.22983" lon="6.2492">
        <ele>2089.4</ele>
        <time>2021-02-27T14:59:04Z</time>
      </trkpt>
      <trkpt lat="45.22972" lon="6.24925">
        <ele>2087.6</ele>
        <time>2021-02-27T14:59:05Z</time>
      </trkpt>
      <trkpt lat="45.22963" lon="6.24931">
        <ele>2084.6</ele>
        <time>2021-02-27T14:59:06Z</time>
      </trkpt>
      <trkpt lat="45.22954" lon="6.24936">
        <ele>2083.6</ele>
        <time>2021-02-27T14:59:07Z</time>
      </trkpt>
      <trkpt lat="45.22944" lon="6.2494">
        <ele>2082.4</ele>
        <time>2021-02-27T14:59:08Z</time>
      </trkpt>
      <trkpt lat="45.22936" lon="6.24944">
        <ele>2080.6</ele>
        <time>2021-02-27T14:59:09Z</time>
      </trkpt>
      <trkpt lat="45.22926" lon="6.24949">
        <ele>2080</ele>
        <time>2021-02-27T14:59:10Z</time>
      </trkpt>
      <trkpt lat="45.22917" lon="6.24952">
        <ele>2078</ele>
        <time>2021-02-27T14:59:11Z</time>
      </trkpt>
      <trkpt lat="45.22907" lon="6.24956">
        <ele>2076.8</ele>
        <time>2021-02-27T14:59:12Z</time>
      </trkpt>
      <trkpt lat="45.22897" lon="6.24959">
        <ele>2075</ele>
        <time>2021-02-27T14:59:13Z</time>
      </trkpt>
      <trkpt lat="45.22886" lon="6.24961">
        <ele>2073.8</ele>
        <time>2021-02-27T14:59:14Z</time>
      </trkpt>
      <trkpt lat="45.22876" lon="6.24962">
        <ele>2072.6</ele>
        <time>2021-02-27T14:59:15Z</time>
      </trkpt>
      <trkpt lat="45.22866" lon="6.24962">
        <ele>2071.8</ele>
        <time>2021-02-27T14:59:16Z</time>
      </trkpt>
      <trkpt lat="45.22856" lon="6.24961">
        <ele>2069.4</ele>
        <time>2021-02-27T14:59:17Z</time>
      </trkpt>
      <trkpt lat="45.22845" lon="6.24958">
        <ele>2067.2</ele>
        <time>2021-02-27T14:59:18Z</time>
      </trkpt>
      <trkpt lat="45.22835" lon="6.24956">
        <ele>2066</ele>
        <time>2021-02-27T14:59:19Z</time>
      </trkpt>
      <trkpt lat="45.22824" lon="6.24956">
        <ele>2064</ele>
        <time>2021-02-27T14:59:20Z</time>
      </trkpt>
      <trkpt lat="45.22813" lon="6.24956">
        <ele>2062.6</ele>
        <time>2021-02-27T14:59:21Z</time>
      </trkpt>
      <trkpt lat="45.22802" lon="6.24958">
        <ele>2060</ele>
        <time>2021-02-27T14:59:22Z</time>
      </trkpt>
      <trkpt lat="45.22792" lon="6.24964">
        <ele>2058.6</ele>
        <time>2021-02-27T14:59:23Z</time>
      </trkpt>
      <trkpt lat="45.22782" lon="6.2497">
        <ele>2058</ele>
        <time>2021-02-27T14:59:24Z</time>
      </trkpt>
      <trkpt lat="45.22772" lon="6.24974">
        <ele>2056</ele>
        <time>2021-02-27T14:59:25Z</time>
      </trkpt>
      <trkpt lat="45.22764" lon="6.24978">
        <ele>2053.2</ele>
        <time>2021-02-27T14:59:26Z</time>
      </trkpt>
      <trkpt lat="45.22756" lon="6.24985">
        <ele>2051.8</ele>
        <time>2021-02-27T14:59:27Z</time>
      </trkpt>
      <trkpt lat="45.22747" lon="6.2499">
        <ele>2050.6</ele>
        <time>2021-02-27T14:59:28Z</time>
      </trkpt>
      <trkpt lat="45.22737" lon="6.24994">
        <ele>2046.8</ele>
        <time>2021-02-27T14:59:29Z</time>
      </trkpt>
      <trkpt lat="45.22727" lon="6.25002">
        <ele>2044.2</ele>
        <time>2021-02-27T14:59:30Z</time>
      </trkpt>
      <trkpt lat="45.22718" lon="6.25013">
        <ele>2044.2</ele>
        <time>2021-02-27T14:59:31Z</time>
      </trkpt>
      <trkpt lat="45.22713" lon="6.25028">
        <ele>2043.4</ele>
        <time>2021-02-27T14:59:32Z</time>
      </trkpt>
      <trkpt lat="45.22711" lon="6.25044">
        <ele>2042.2</ele>
        <time>2021-02-27T14:59:33Z</time>
      </trkpt>
      <trkpt lat="45.22714" lon="6.25059">
        <ele>2040.6</ele>
        <time>2021-02-27T14:59:34Z</time>
      </trkpt>
      <trkpt lat="45.22716" lon="6.25072">
        <ele>2038.6</ele>
        <time>2021-02-27T14:59:35Z</time>
      </trkpt>
      <trkpt lat="45.22719" lon="6.25083">
        <ele>2034.2</ele>
        <time>2021-02-27T14:59:36Z</time>
      </trkpt>
      <trkpt lat="45.22723" lon="6.25092">
        <ele>2032.8</ele>
        <time>2021-02-27T14:59:37Z</time>
      </trkpt>
      <trkpt lat="45.22727" lon="6.25101">
        <ele>2030.4</ele>
        <time>2021-02-27T14:59:38Z</time>
      </trkpt>
      <trkpt lat="45.22729" lon="6.25107">
        <ele>2026.6</ele>
        <time>2021-02-27T14:59:39Z</time>
      </trkpt>
      <trkpt lat="45.22732" lon="6.25111">
        <ele>2026.2</ele>
        <time>2021-02-27T14:59:40Z</time>
      </trkpt>
      <trkpt lat="45.22735" lon="6.25115">
        <ele>2025</ele>
        <time>2021-02-27T14:59:41Z</time>
      </trkpt>
      <trkpt lat="45.22736" lon="6.25118">
        <ele>2023.4</ele>
        <time>2021-02-27T14:59:42Z</time>
      </trkpt>
      <trkpt lat="45.22738" lon="6.25121">
        <ele>2022.8</ele>
        <time>2021-02-27T14:59:43Z</time>
      </trkpt>
      <trkpt lat="45.22739" lon="6.25125">
        <ele>2023</ele>
        <time>2021-02-27T14:59:44Z</time>
      </trkpt>
      <trkpt lat="45.22739" lon="6.25128">
        <ele>2022</ele>
        <time>2021-02-27T14:59:45Z</time>
      </trkpt>
      <trkpt lat="45.2274" lon="6.2513">
        <ele>2022</ele>
        <time>2021-02-27T14:59:46Z</time>
      </trkpt>
      <trkpt lat="45.2274" lon="6.2513">
        <ele>2021.2</ele>
        <time>2021-02-27T14:59:47Z</time>
      </trkpt>
      <trkpt lat="45.22741" lon="6.25134">
        <ele>2020.8</ele>
        <time>2021-02-27T14:59:48Z</time>
      </trkpt>
      <trkpt lat="45.22741" lon="6.25134">
        <ele>2020.2</ele>
        <time>2021-02-27T14:59:49Z</time>
      </trkpt>
      <trkpt lat="45.22741" lon="6.25134">
        <ele>2020.4</ele>
        <time>2021-02-27T14:59:50Z</time>
      </trkpt>
      <trkpt lat="45.22741" lon="6.25134">
        <ele>2020</ele>
        <time>2021-02-27T14:59:51Z</time>
      </trkpt>
      <trkpt lat="45.22741" lon="6.25134">
        <ele>2020</ele>
        <time>2021-02-27T14:59:52Z</time>
      </trkpt>
      <trkpt lat="45.22741" lon="6.25134">
        <ele>2019.8</ele>
        <time>2021-02-27T14:59:53Z</time>
      </trkpt>
      <trkpt lat="45.22741" lon="6.25134">
        <ele>2019.8</ele>
        <time>2021-02-27T14:59:54Z</time>
      </trkpt>
      <trkpt lat="45.22741" lon="6.25134">
        <ele>2020.2</ele>
        <time>2021-02-27T14:59:55Z</time>
      </trkpt>
      <trkpt lat="45.22744" lon="6.25134">
        <ele>2020.2</ele>
        <time>2021-02-27T14:59:56Z</time>
      </trkpt>
      <trkpt lat="45.22744" lon="6.25134">
        <ele>2020.4</ele>
        <time>2021-02-27T14:59:57Z</time>
      </trkpt>
      <trkpt lat="45.22747" lon="6.25134">
        <ele>2020.8</ele>
        <time>2021-02-27T14:59:58Z</time>
      </trkpt>
      <trkpt lat="45.22749" lon="6.25135">
        <ele>2021.2</ele>
        <time>2021-02-27T14:59:59Z</time>
      </trkpt>
      <trkpt lat="45.22753" lon="6.25135">
        <ele>2021.6</ele>
        <time>2021-02-27T15:00:00Z</time>
      </trkpt>
      <trkpt lat="45.22757" lon="6.25137">
        <ele>2021.8</ele>
        <time>2021-02-27T15:00:01Z</time>
      </trkpt>
      <trkpt lat="45.2276" lon="6.25142">
        <ele>2021.6</ele>
        <time>2021-02-27T15:00:02Z</time>
      </trkpt>
      <trkpt lat="45.22764" lon="6.25146">
        <ele>2020.6</ele>
        <time>2021-02-27T15:00:03Z</time>
      </trkpt>
      <trkpt lat="45.22769" lon="6.2515">
        <ele>2019</ele>
        <time>2021-02-27T15:00:04Z</time>
      </trkpt>
      <trkpt lat="45.22773" lon="6.25155">
        <ele>2019.2</ele>
        <time>2021-02-27T15:00:05Z</time>
      </trkpt>
      <trkpt lat="45.22776" lon="6.25163">
        <ele>2017.6</ele>
        <time>2021-02-27T15:00:06Z</time>
      </trkpt>
      <trkpt lat="45.2278" lon="6.25171">
        <ele>2015.6</ele>
        <time>2021-02-27T15:00:07Z</time>
      </trkpt>
      <trkpt lat="45.22784" lon="6.25179">
        <ele>2015.6</ele>
        <time>2021-02-27T15:00:08Z</time>
      </trkpt>
      <trkpt lat="45.22787" lon="6.25189">
        <ele>2014.6</ele>
        <time>2021-02-27T15:00:09Z</time>
      </trkpt>
      <trkpt lat="45.22787" lon="6.252">
        <ele>2013.2</ele>
        <time>2021-02-27T15:00:10Z</time>
      </trkpt>
      <trkpt lat="45.22786" lon="6.25212">
        <ele>2009.4</ele>
        <time>2021-02-27T15:00:11Z</time>
      </trkpt>
      <trkpt lat="45.22786" lon="6.25212">
        <ele>2006.8</ele>
        <time>2021-02-27T15:00:12Z</time>
      </trkpt>
      <trkpt lat="45.22776" lon="6.25236">
        <ele>2005</ele>
        <time>2021-02-27T15:00:13Z</time>
      </trkpt>
      <trkpt lat="45.22773" lon="6.2524">
        <ele>2001</ele>
        <time>2021-02-27T15:00:14Z</time>
      </trkpt>
      <trkpt lat="45.22767" lon="6.25248">
        <ele>1999</ele>
        <time>2021-02-27T15:00:15Z</time>
      </trkpt>
      <trkpt lat="45.2276" lon="6.25257">
        <ele>1996.6</ele>
        <time>2021-02-27T15:00:16Z</time>
      </trkpt>
      <trkpt lat="45.2276" lon="6.25257">
        <ele>1995</ele>
        <time>2021-02-27T15:00:17Z</time>
      </trkpt>
      <trkpt lat="45.22744" lon="6.25275">
        <ele>1992.6</ele>
        <time>2021-02-27T15:00:18Z</time>
      </trkpt>
      <trkpt lat="45.2274" lon="6.25279">
        <ele>1990</ele>
        <time>2021-02-27T15:00:19Z</time>
      </trkpt>
      <trkpt lat="45.22734" lon="6.25286">
        <ele>1988</ele>
        <time>2021-02-27T15:00:20Z</time>
      </trkpt>
      <trkpt lat="45.22727" lon="6.25293">
        <ele>1986</ele>
        <time>2021-02-27T15:00:21Z</time>
      </trkpt>
      <trkpt lat="45.2272" lon="6.25301">
        <ele>1983.6</ele>
        <time>2021-02-27T15:00:22Z</time>
      </trkpt>
      <trkpt lat="45.22713" lon="6.25309">
        <ele>1981.8</ele>
        <time>2021-02-27T15:00:23Z</time>
      </trkpt>
      <trkpt lat="45.22706" lon="6.25317">
        <ele>1979.8</ele>
        <time>2021-02-27T15:00:24Z</time>
      </trkpt>
      <trkpt lat="45.22699" lon="6.25326">
        <ele>1977.6</ele>
        <time>2021-02-27T15:00:25Z</time>
      </trkpt>
      <trkpt lat="45.22691" lon="6.25332">
        <ele>1975.4</ele>
        <time>2021-02-27T15:00:26Z</time>
      </trkpt>
      <trkpt lat="45.22683" lon="6.2534">
        <ele>1972.2</ele>
        <time>2021-02-27T15:00:27Z</time>
      </trkpt>
      <trkpt lat="45.22676" lon="6.25347">
        <ele>1970.2</ele>
        <time>2021-02-27T15:00:28Z</time>
      </trkpt>
      <trkpt lat="45.22668" lon="6.25354">
        <ele>1967.8</ele>
        <time>2021-02-27T15:00:29Z</time>
      </trkpt>
      <trkpt lat="45.22661" lon="6.2536">
        <ele>1965.4</ele>
        <time>2021-02-27T15:00:30Z</time>
      </trkpt>
      <trkpt lat="45.22652" lon="6.25367">
        <ele>1963</ele>
        <time>2021-02-27T15:00:31Z</time>
      </trkpt>
      <trkpt lat="45.22644" lon="6.25372">
        <ele>1960.2</ele>
        <time>2021-02-27T15:00:32Z</time>
      </trkpt>
      <trkpt lat="45.22637" lon="6.25378">
        <ele>1958</ele>
        <time>2021-02-27T15:00:33Z</time>
      </trkpt>
      <trkpt lat="45.22629" lon="6.25385">
        <ele>1955.2</ele>
        <time>2021-02-27T15:00:34Z</time>
      </trkpt>
      <trkpt lat="45.22621" lon="6.25393">
        <ele>1952.8</ele>
        <time>2021-02-27T15:00:35Z</time>
      </trkpt>
      <trkpt lat="45.22613" lon="6.25403">
        <ele>1949.2</ele>
        <time>2021-02-27T15:00:36Z</time>
      </trkpt>
      <trkpt lat="45.22605" lon="6.25414">
        <ele>1947.6</ele>
        <time>2021-02-27T15:00:37Z</time>
      </trkpt>
      <trkpt lat="45.22598" lon="6.25426">
        <ele>1944.6</ele>
        <time>2021-02-27T15:00:38Z</time>
      </trkpt>
      <trkpt lat="45.22598" lon="6.25442">
        <ele>1942</ele>
        <time>2021-02-27T15:00:39Z</time>
      </trkpt>
      <trkpt lat="45.22599" lon="6.25459">
        <ele>1940</ele>
        <time>2021-02-27T15:00:40Z</time>
      </trkpt>
      <trkpt lat="45.22601" lon="6.25475">
        <ele>1938.2</ele>
        <time>2021-02-27T15:00:41Z</time>
      </trkpt>
      <trkpt lat="45.22601" lon="6.2549">
        <ele>1937.2</ele>
        <time>2021-02-27T15:00:42Z</time>
      </trkpt>
      <trkpt lat="45.22599" lon="6.25503">
        <ele>1934.8</ele>
        <time>2021-02-27T15:00:43Z</time>
      </trkpt>
      <trkpt lat="45.22596" lon="6.25516">
        <ele>1932.8</ele>
        <time>2021-02-27T15:00:44Z</time>
      </trkpt>
      <trkpt lat="45.22592" lon="6.25529">
        <ele>1930.2</ele>
        <time>2021-02-27T15:00:45Z</time>
      </trkpt>
      <trkpt lat="45.22588" lon="6.25541">
        <ele>1928.4</ele>
        <time>2021-02-27T15:00:46Z</time>
      </trkpt>
      <trkpt lat="45.22588" lon="6.25541">
        <ele>1925.6</ele>
        <time>2021-02-27T15:00:47Z</time>
      </trkpt>
      <trkpt lat="45.22581" lon="6.25557">
        <ele>1923.4</ele>
        <time>2021-02-27T15:00:48Z</time>
      </trkpt>
      <trkpt lat="45.22581" lon="6.25558">
        <ele>1921.6</ele>
        <time>2021-02-27T15:00:49Z</time>
      </trkpt>
      <trkpt lat="45.22581" lon="6.2556">
        <ele>1920.8</ele>
        <time>2021-02-27T15:00:50Z</time>
      </trkpt>
      <trkpt lat="45.22581" lon="6.2556">
        <ele>1919.8</ele>
        <time>2021-02-27T15:00:51Z</time>
      </trkpt>
      <trkpt lat="45.22581" lon="6.2556">
        <ele>1919.8</ele>
        <time>2021-02-27T15:00:52Z</time>
      </trkpt>
      <trkpt lat="45.22581" lon="6.2556">
        <ele>1919.8</ele>
        <time>2021-02-27T15:00:53Z</time>
      </trkpt>
      <trkpt lat="45.22581" lon="6.2556">
        <ele>1919.8</ele>
        <time>2021-02-27T15:00:54Z</time>
      </trkpt>
      <trkpt lat="45.22581" lon="6.2556">
        <ele>1919.8</ele>
        <time>2021-02-27T15:00:55Z</time>
      </trkpt>
      <trkpt lat="45.22581" lon="6.2556">
        <ele>1919.6</ele>
        <time>2021-02-27T15:00:56Z</time>
      </trkpt>
      <trkpt lat="45.22581" lon="6.2556">
        <ele>1919.6</ele>
        <time>2021-02-27T15:00:57Z</time>
      </trkpt>
      <trkpt lat="45.22581" lon="6.2556">
        <ele>1919.8</ele>
        <time>2021-02-27T15:00:58Z</time>
      </trkpt>
      <trkpt lat="45.22581" lon="6.2556">
        <ele>1919.8</ele>
        <time>2021-02-27T15:00:59Z</time>
      </trkpt>
      <trkpt lat="45.22581" lon="6.2556">
        <ele>1919.8</ele>
        <time>2021-02-27T15:01:00Z</time>
      </trkpt>
      <trkpt lat="45.22581" lon="6.2556">
        <ele>1919.6</ele>
        <time>2021-02-27T15:01:01Z</time>
      </trkpt>
      <trkpt lat="45.22581" lon="6.2556">
        <ele>1919.6</ele>
        <time>2021-02-27T15:01:02Z</time>
      </trkpt>
      <trkpt lat="45.22581" lon="6.2556">
        <ele>1919.8</ele>
        <time>2021-02-27T15:01:03Z</time>
      </trkpt>
      <trkpt lat="45.22581" lon="6.2556">
        <ele>1919.8</ele>
        <time>2021-02-27T15:01:04Z</time>
      </trkpt>
      <trkpt lat="45.22581" lon="6.2556">
        <ele>1919.8</ele>
        <time>2021-02-27T15:01:05Z</time>
      </trkpt>
      <trkpt lat="45.22581" lon="6.2556">
        <ele>1919.8</ele>
        <time>2021-02-27T15:01:06Z</time>
      </trkpt>
      <trkpt lat="45.22581" lon="6.2556">
        <ele>1919.8</ele>
        <time>2021-02-27T15:01:07Z</time>
      </trkpt>
      <trkpt lat="45.22581" lon="6.2556">
        <ele>1919.6</ele>
        <time>2021-02-27T15:01:08Z</time>
      </trkpt>
      <trkpt lat="45.22581" lon="6.2556">
        <ele>1919.8</ele>
        <time>2021-02-27T15:01:09Z</time>
      </trkpt>
      <trkpt lat="45.22581" lon="6.2556">
        <ele>1920</ele>
        <time>2021-02-27T15:01:10Z</time>
      </trkpt>
      <trkpt lat="45.22581" lon="6.2556">
        <ele>1920.2</ele>
        <time>2021-02-27T15:01:11Z</time>
      </trkpt>
      <trkpt lat="45.22581" lon="6.2556">
        <ele>1920.2</ele>
        <time>2021-02-27T15:01:12Z</time>
      </trkpt>
      <trkpt lat="45.22581" lon="6.2556">
        <ele>1920.2</ele>
        <time>2021-02-27T15:01:13Z</time>
      </trkpt>
      <trkpt lat="45.22581" lon="6.2556">
        <ele>1920.2</ele>
        <time>2021-02-27T15:01:14Z</time>
      </trkpt>
      <trkpt lat="45.22581" lon="6.2556">
        <ele>1920.2</ele>
        <time>2021-02-27T15:01:15Z</time>
      </trkpt>
      <trkpt lat="45.22581" lon="6.2556">
        <ele>1920.4</ele>
        <time>2021-02-27T15:01:16Z</time>
      </trkpt>
      <trkpt lat="45.22581" lon="6.2556">
        <ele>1920.2</ele>
        <time>2021-02-27T15:01:17Z</time>
      </trkpt>
      <trkpt lat="45.22581" lon="6.2556">
        <ele>1920</ele>
        <time>2021-02-27T15:01:18Z</time>
      </trkpt>
      <trkpt lat="45.22581" lon="6.2556">
        <ele>1919.8</ele>
        <time>2021-02-27T15:01:19Z</time>
      </trkpt>
      <trkpt lat="45.22581" lon="6.2556">
        <ele>1919.6</ele>
        <time>2021-02-27T15:01:20Z</time>
      </trkpt>
      <trkpt lat="45.22581" lon="6.2556">
        <ele>1919.6</ele>
        <time>2021-02-27T15:01:21Z</time>
      </trkpt>
      <trkpt lat="45.22581" lon="6.2556">
        <ele>1919.4</ele>
        <time>2021-02-27T15:01:22Z</time>
      </trkpt>
      <trkpt lat="45.22581" lon="6.2556">
        <ele>1919.4</ele>
        <time>2021-02-27T15:01:23Z</time>
      </trkpt>
      <trkpt lat="45.22581" lon="6.2556">
        <ele>1919.2</ele>
        <time>2021-02-27T15:01:24Z</time>
      </trkpt>
      <trkpt lat="45.22581" lon="6.2556">
        <ele>1919.2</ele>
        <time>2021-02-27T15:01:25Z</time>
      </trkpt>
      <trkpt lat="45.22583" lon="6.25562">
        <ele>1919</ele>
        <time>2021-02-27T15:01:26Z</time>
      </trkpt>
      <trkpt lat="45.22583" lon="6.25562">
        <ele>1919.2</ele>
        <time>2021-02-27T15:01:27Z</time>
      </trkpt>
      <trkpt lat="45.22583" lon="6.25562">
        <ele>1919</ele>
        <time>2021-02-27T15:01:28Z</time>
      </trkpt>
      <trkpt lat="45.22583" lon="6.25562">
        <ele>1919.4</ele>
        <time>2021-02-27T15:01:29Z</time>
      </trkpt>
      <trkpt lat="45.22583" lon="6.25562">
        <ele>1919.2</ele>
        <time>2021-02-27T15:01:30Z</time>
      </trkpt>
      <trkpt lat="45.22583" lon="6.25562">
        <ele>1919.2</ele>
        <time>2021-02-27T15:01:31Z</time>
      </trkpt>
      <trkpt lat="45.22583" lon="6.25562">
        <ele>1919</ele>
        <time>2021-02-27T15:01:32Z</time>
      </trkpt>
      <trkpt lat="45.22583" lon="6.25562">
        <ele>1919</ele>
        <time>2021-02-27T15:01:33Z</time>
      </trkpt>
      <trkpt lat="45.22583" lon="6.25562">
        <ele>1919</ele>
        <time>2021-02-27T15:01:34Z</time>
      </trkpt>
      <trkpt lat="45.22583" lon="6.25562">
        <ele>1918.8</ele>
        <time>2021-02-27T15:01:35Z</time>
      </trkpt>
      <trkpt lat="45.22583" lon="6.25562">
        <ele>1919</ele>
        <time>2021-02-27T15:01:36Z</time>
      </trkpt>
      <trkpt lat="45.22583" lon="6.25562">
        <ele>1918.8</ele>
        <time>2021-02-27T15:01:37Z</time>
      </trkpt>
      <trkpt lat="45.22583" lon="6.25562">
        <ele>1918.8</ele>
        <time>2021-02-27T15:01:38Z</time>
      </trkpt>
      <trkpt lat="45.22583" lon="6.25562">
        <ele>1918.8</ele>
        <time>2021-02-27T15:01:39Z</time>
      </trkpt>
      <trkpt lat="45.22583" lon="6.25562">
        <ele>1918.6</ele>
        <time>2021-02-27T15:01:40Z</time>
      </trkpt>
      <trkpt lat="45.22583" lon="6.25562">
        <ele>1918.4</ele>
        <time>2021-02-27T15:01:41Z</time>
      </trkpt>
      <trkpt lat="45.22583" lon="6.25562">
        <ele>1918.6</ele>
        <time>2021-02-27T15:01:42Z</time>
      </trkpt>
      <trkpt lat="45.22583" lon="6.25562">
        <ele>1918.8</ele>
        <time>2021-02-27T15:01:43Z</time>
      </trkpt>
      <trkpt lat="45.22583" lon="6.25562">
        <ele>1918.8</ele>
        <time>2021-02-27T15:01:44Z</time>
      </trkpt>
      <trkpt lat="45.22583" lon="6.25562">
        <ele>1918.8</ele>
        <time>2021-02-27T15:01:45Z</time>
      </trkpt>
      <trkpt lat="45.22583" lon="6.25562">
        <ele>1918.6</ele>
        <time>2021-02-27T15:01:46Z</time>
      </trkpt>
      <trkpt lat="45.22583" lon="6.25562">
        <ele>1918.8</ele>
        <time>2021-02-27T15:01:47Z</time>
      </trkpt>
      <trkpt lat="45.22583" lon="6.25562">
        <ele>1918.8</ele>
        <time>2021-02-27T15:01:48Z</time>
      </trkpt>
      <trkpt lat="45.22583" lon="6.25562">
        <ele>1918.4</ele>
        <time>2021-02-27T15:01:49Z</time>
      </trkpt>
      <trkpt lat="45.22583" lon="6.25562">
        <ele>1918.6</ele>
        <time>2021-02-27T15:01:50Z</time>
      </trkpt>
      <trkpt lat="45.22583" lon="6.25562">
        <ele>1918.4</ele>
        <time>2021-02-27T15:01:51Z</time>
      </trkpt>
      <trkpt lat="45.22583" lon="6.25562">
        <ele>1918.2</ele>
        <time>2021-02-27T15:01:52Z</time>
      </trkpt>
      <trkpt lat="45.22583" lon="6.25562">
        <ele>1918.4</ele>
        <time>2021-02-27T15:01:53Z</time>
      </trkpt>
      <trkpt lat="45.22583" lon="6.25562">
        <ele>1918.4</ele>
        <time>2021-02-27T15:01:54Z</time>
      </trkpt>
      <trkpt lat="45.22583" lon="6.25562">
        <ele>1918.4</ele>
        <time>2021-02-27T15:01:55Z</time>
      </trkpt>
      <trkpt lat="45.22583" lon="6.25562">
        <ele>1918.2</ele>
        <time>2021-02-27T15:01:56Z</time>
      </trkpt>
      <trkpt lat="45.22583" lon="6.25562">
        <ele>1918.2</ele>
        <time>2021-02-27T15:01:57Z</time>
      </trkpt>
      <trkpt lat="45.22583" lon="6.25562">
        <ele>1918.6</ele>
        <time>2021-02-27T15:01:58Z</time>
      </trkpt>
      <trkpt lat="45.22583" lon="6.25562">
        <ele>1918.6</ele>
        <time>2021-02-27T15:01:59Z</time>
      </trkpt>
      <trkpt lat="45.22583" lon="6.25562">
        <ele>1918.2</ele>
        <time>2021-02-27T15:02:00Z</time>
      </trkpt>
      <trkpt lat="45.22583" lon="6.25562">
        <ele>1918.2</ele>
        <time>2021-02-27T15:02:01Z</time>
      </trkpt>
      <trkpt lat="45.22583" lon="6.25562">
        <ele>1918</ele>
        <time>2021-02-27T15:02:02Z</time>
      </trkpt>
      <trkpt lat="45.22583" lon="6.25562">
        <ele>1918</ele>
        <time>2021-02-27T15:02:03Z</time>
      </trkpt>
      <trkpt lat="45.22583" lon="6.25562">
        <ele>1918</ele>
        <time>2021-02-27T15:02:04Z</time>
      </trkpt>
      <trkpt lat="45.22583" lon="6.25562">
        <ele>1918</ele>
        <time>2021-02-27T15:02:05Z</time>
      </trkpt>
      <trkpt lat="45.22583" lon="6.25562">
        <ele>1917.8</ele>
        <time>2021-02-27T15:02:06Z</time>
      </trkpt>
      <trkpt lat="45.22583" lon="6.25562">
        <ele>1917.8</ele>
        <time>2021-02-27T15:02:07Z</time>
      </trkpt>
      <trkpt lat="45.22583" lon="6.25562">
        <ele>1918</ele>
        <time>2021-02-27T15:02:08Z</time>
      </trkpt>
      <trkpt lat="45.22583" lon="6.25562">
        <ele>1917.8</ele>
        <time>2021-02-27T15:02:09Z</time>
      </trkpt>
      <trkpt lat="45.22583" lon="6.25559">
        <ele>1917.8</ele>
        <time>2021-02-27T15:02:10Z</time>
      </trkpt>
      <trkpt lat="45.22583" lon="6.25559">
        <ele>1917.6</ele>
        <time>2021-02-27T15:02:11Z</time>
      </trkpt>
      <trkpt lat="45.22583" lon="6.25559">
        <ele>1917.8</ele>
        <time>2021-02-27T15:02:12Z</time>
      </trkpt>
      <trkpt lat="45.22583" lon="6.2556">
        <ele>1917.6</ele>
        <time>2021-02-27T15:02:13Z</time>
      </trkpt>
      <trkpt lat="45.22583" lon="6.2556">
        <ele>1917</ele>
        <time>2021-02-27T15:02:14Z</time>
      </trkpt>
      <trkpt lat="45.22583" lon="6.2556">
        <ele>1916.6</ele>
        <time>2021-02-27T15:02:15Z</time>
      </trkpt>
      <trkpt lat="45.22583" lon="6.2556">
        <ele>1916.6</ele>
        <time>2021-02-27T15:02:16Z</time>
      </trkpt>
      <trkpt lat="45.22583" lon="6.25561">
        <ele>1916.4</ele>
        <time>2021-02-27T15:02:17Z</time>
      </trkpt>
      <trkpt lat="45.22583" lon="6.25561">
        <ele>1916.2</ele>
        <time>2021-02-27T15:02:18Z</time>
      </trkpt>
      <trkpt lat="45.22583" lon="6.25561">
        <ele>1916</ele>
        <time>2021-02-27T15:02:19Z</time>
      </trkpt>
      <trkpt lat="45.22583" lon="6.25562">
        <ele>1916</ele>
        <time>2021-02-27T15:02:20Z</time>
      </trkpt>
      <trkpt lat="45.22583" lon="6.25562">
        <ele>1916</ele>
        <time>2021-02-27T15:02:21Z</time>
      </trkpt>
      <trkpt lat="45.22583" lon="6.25562">
        <ele>1915.6</ele>
        <time>2021-02-27T15:02:22Z</time>
      </trkpt>
      <trkpt lat="45.22582" lon="6.25563">
        <ele>1915.6</ele>
        <time>2021-02-27T15:02:23Z</time>
      </trkpt>
      <trkpt lat="45.22582" lon="6.25563">
        <ele>1915.4</ele>
        <time>2021-02-27T15:02:24Z</time>
      </trkpt>
      <trkpt lat="45.22582" lon="6.25563">
        <ele>1915.4</ele>
        <time>2021-02-27T15:02:25Z</time>
      </trkpt>
      <trkpt lat="45.22582" lon="6.25563">
        <ele>1915.4</ele>
        <time>2021-02-27T15:02:26Z</time>
      </trkpt>
      <trkpt lat="45.22582" lon="6.25564">
        <ele>1915.2</ele>
        <time>2021-02-27T15:02:27Z</time>
      </trkpt>
      <trkpt lat="45.22582" lon="6.25564">
        <ele>1915</ele>
        <time>2021-02-27T15:02:28Z</time>
      </trkpt>
      <trkpt lat="45.22582" lon="6.25564">
        <ele>1915</ele>
        <time>2021-02-27T15:02:29Z</time>
      </trkpt>
      <trkpt lat="45.22582" lon="6.25565">
        <ele>1915.2</ele>
        <time>2021-02-27T15:02:30Z</time>
      </trkpt>
      <trkpt lat="45.22582" lon="6.25565">
        <ele>1915.2</ele>
        <time>2021-02-27T15:02:31Z</time>
      </trkpt>
      <trkpt lat="45.22582" lon="6.25565">
        <ele>1915</ele>
        <time>2021-02-27T15:02:32Z</time>
      </trkpt>
      <trkpt lat="45.22582" lon="6.25565">
        <ele>1915.2</ele>
        <time>2021-02-27T15:02:33Z</time>
      </trkpt>
      <trkpt lat="45.22582" lon="6.25566">
        <ele>1915</ele>
        <time>2021-02-27T15:02:34Z</time>
      </trkpt>
      <trkpt lat="45.22582" lon="6.25566">
        <ele>1915.2</ele>
        <time>2021-02-27T15:02:35Z</time>
      </trkpt>
      <trkpt lat="45.22582" lon="6.25566">
        <ele>1915</ele>
        <time>2021-02-27T15:02:36Z</time>
      </trkpt>
      <trkpt lat="45.22582" lon="6.25567">
        <ele>1915</ele>
        <time>2021-02-27T15:02:37Z</time>
      </trkpt>
      <trkpt lat="45.22581" lon="6.25567">
        <ele>1915.2</ele>
        <time>2021-02-27T15:02:38Z</time>
      </trkpt>
      <trkpt lat="45.22581" lon="6.25567">
        <ele>1915.2</ele>
        <time>2021-02-27T15:02:39Z</time>
      </trkpt>
      <trkpt lat="45.22581" lon="6.25567">
        <ele>1915</ele>
        <time>2021-02-27T15:02:40Z</time>
      </trkpt>
      <trkpt lat="45.22581" lon="6.25568">
        <ele>1915</ele>
        <time>2021-02-27T15:02:41Z</time>
      </trkpt>
      <trkpt lat="45.22581" lon="6.25568">
        <ele>1914.8</ele>
        <time>2021-02-27T15:02:42Z</time>
      </trkpt>
      <trkpt lat="45.22581" lon="6.25568">
        <ele>1914.8</ele>
        <time>2021-02-27T15:02:43Z</time>
      </trkpt>
      <trkpt lat="45.22581" lon="6.25569">
        <ele>1914.8</ele>
        <time>2021-02-27T15:02:44Z</time>
      </trkpt>
      <trkpt lat="45.22581" lon="6.25569">
        <ele>1914.8</ele>
        <time>2021-02-27T15:02:45Z</time>
      </trkpt>
      <trkpt lat="45.22581" lon="6.25569">
        <ele>1914.8</ele>
        <time>2021-02-27T15:02:46Z</time>
      </trkpt>
      <trkpt lat="45.22581" lon="6.25569">
        <ele>1914.6</ele>
        <time>2021-02-27T15:02:47Z</time>
      </trkpt>
      <trkpt lat="45.22581" lon="6.2557">
        <ele>1914.4</ele>
        <time>2021-02-27T15:02:48Z</time>
      </trkpt>
      <trkpt lat="45.22581" lon="6.2557">
        <ele>1914.4</ele>
        <time>2021-02-27T15:02:49Z</time>
      </trkpt>
      <trkpt lat="45.22581" lon="6.2557">
        <ele>1914.2</ele>
        <time>2021-02-27T15:02:50Z</time>
      </trkpt>
      <trkpt lat="45.22581" lon="6.25571">
        <ele>1914.6</ele>
        <time>2021-02-27T15:02:51Z</time>
      </trkpt>
      <trkpt lat="45.22581" lon="6.25571">
        <ele>1914.6</ele>
        <time>2021-02-27T15:02:52Z</time>
      </trkpt>
      <trkpt lat="45.2258" lon="6.25571">
        <ele>1914.6</ele>
        <time>2021-02-27T15:02:53Z</time>
      </trkpt>
      <trkpt lat="45.2258" lon="6.25571">
        <ele>1914.8</ele>
        <time>2021-02-27T15:02:54Z</time>
      </trkpt>
      <trkpt lat="45.2258" lon="6.25572">
        <ele>1914.8</ele>
        <time>2021-02-27T15:02:55Z</time>
      </trkpt>
      <trkpt lat="45.2258" lon="6.25572">
        <ele>1915</ele>
        <time>2021-02-27T15:02:56Z</time>
      </trkpt>
      <trkpt lat="45.2258" lon="6.25572">
        <ele>1914.6</ele>
        <time>2021-02-27T15:02:57Z</time>
      </trkpt>
      <trkpt lat="45.2258" lon="6.25573">
        <ele>1914.4</ele>
        <time>2021-02-27T15:02:58Z</time>
      </trkpt>
      <trkpt lat="45.22579" lon="6.25581">
        <ele>1913.8</ele>
        <time>2021-02-27T15:02:59Z</time>
      </trkpt>
      <trkpt lat="45.22577" lon="6.25589">
        <ele>1912.8</ele>
        <time>2021-02-27T15:03:00Z</time>
      </trkpt>
      <trkpt lat="45.22575" lon="6.25598">
        <ele>1911.6</ele>
        <time>2021-02-27T15:03:01Z</time>
      </trkpt>
      <trkpt lat="45.22573" lon="6.25608">
        <ele>1910.6</ele>
        <time>2021-02-27T15:03:02Z</time>
      </trkpt>
      <trkpt lat="45.22571" lon="6.25619">
        <ele>1908.2</ele>
        <time>2021-02-27T15:03:03Z</time>
      </trkpt>
      <trkpt lat="45.22568" lon="6.2563">
        <ele>1907.4</ele>
        <time>2021-02-27T15:03:04Z</time>
      </trkpt>
      <trkpt lat="45.22566" lon="6.25642">
        <ele>1905.6</ele>
        <time>2021-02-27T15:03:05Z</time>
      </trkpt>
      <trkpt lat="45.22565" lon="6.25654">
        <ele>1902.8</ele>
        <time>2021-02-27T15:03:06Z</time>
      </trkpt>
      <trkpt lat="45.22563" lon="6.25666">
        <ele>1901.4</ele>
        <time>2021-02-27T15:03:07Z</time>
      </trkpt>
      <trkpt lat="45.22559" lon="6.25676">
        <ele>1899.8</ele>
        <time>2021-02-27T15:03:08Z</time>
      </trkpt>
      <trkpt lat="45.22557" lon="6.25688">
        <ele>1897.2</ele>
        <time>2021-02-27T15:03:09Z</time>
      </trkpt>
      <trkpt lat="45.22553" lon="6.25698">
        <ele>1895.2</ele>
        <time>2021-02-27T15:03:10Z</time>
      </trkpt>
      <trkpt lat="45.22547" lon="6.25706">
        <ele>1892.6</ele>
        <time>2021-02-27T15:03:11Z</time>
      </trkpt>
      <trkpt lat="45.22542" lon="6.25716">
        <ele>1890.4</ele>
        <time>2021-02-27T15:03:12Z</time>
      </trkpt>
      <trkpt lat="45.2254" lon="6.25727">
        <ele>1888.8</ele>
        <time>2021-02-27T15:03:13Z</time>
      </trkpt>
      <trkpt lat="45.22539" lon="6.25737">
        <ele>1886.8</ele>
        <time>2021-02-27T15:03:14Z</time>
      </trkpt>
      <trkpt lat="45.22535" lon="6.25743">
        <ele>1885.4</ele>
        <time>2021-02-27T15:03:15Z</time>
      </trkpt>
      <trkpt lat="45.22528" lon="6.25745">
        <ele>1882.8</ele>
        <time>2021-02-27T15:03:16Z</time>
      </trkpt>
      <trkpt lat="45.2252" lon="6.25749">
        <ele>1880.6</ele>
        <time>2021-02-27T15:03:17Z</time>
      </trkpt>
      <trkpt lat="45.22513" lon="6.25749">
        <ele>1878.4</ele>
        <time>2021-02-27T15:03:18Z</time>
      </trkpt>
      <trkpt lat="45.22507" lon="6.25746">
        <ele>1875.6</ele>
        <time>2021-02-27T15:03:19Z</time>
      </trkpt>
      <trkpt lat="45.225" lon="6.25745">
        <ele>1873.2</ele>
        <time>2021-02-27T15:03:20Z</time>
      </trkpt>
      <trkpt lat="45.22491" lon="6.25744">
        <ele>1871.4</ele>
        <time>2021-02-27T15:03:21Z</time>
      </trkpt>
      <trkpt lat="45.22483" lon="6.2574">
        <ele>1869</ele>
        <time>2021-02-27T15:03:22Z</time>
      </trkpt>
      <trkpt lat="45.22475" lon="6.25736">
        <ele>1867.2</ele>
        <time>2021-02-27T15:03:23Z</time>
      </trkpt>
      <trkpt lat="45.22475" lon="6.25736">
        <ele>1865</ele>
        <time>2021-02-27T15:03:24Z</time>
      </trkpt>
      <trkpt lat="45.22458" lon="6.25722">
        <ele>1862.4</ele>
        <time>2021-02-27T15:03:25Z</time>
      </trkpt>
      <trkpt lat="45.22455" lon="6.25722">
        <ele>1859.4</ele>
        <time>2021-02-27T15:03:26Z</time>
      </trkpt>
      <trkpt lat="45.22447" lon="6.25721">
        <ele>1856.8</ele>
        <time>2021-02-27T15:03:27Z</time>
      </trkpt>
      <trkpt lat="45.2244" lon="6.25725">
        <ele>1854.2</ele>
        <time>2021-02-27T15:03:28Z</time>
      </trkpt>
      <trkpt lat="45.22432" lon="6.2573">
        <ele>1852</ele>
        <time>2021-02-27T15:03:29Z</time>
      </trkpt>
      <trkpt lat="45.22423" lon="6.25736">
        <ele>1849.4</ele>
        <time>2021-02-27T15:03:30Z</time>
      </trkpt>
      <trkpt lat="45.22411" lon="6.25746">
        <ele>1846.4</ele>
        <time>2021-02-27T15:03:31Z</time>
      </trkpt>
      <trkpt lat="45.22401" lon="6.25758">
        <ele>1844.6</ele>
        <time>2021-02-27T15:03:32Z</time>
      </trkpt>
      <trkpt lat="45.22391" lon="6.25771">
        <ele>1842</ele>
        <time>2021-02-27T15:03:33Z</time>
      </trkpt>
      <trkpt lat="45.22382" lon="6.25785">
        <ele>1840</ele>
        <time>2021-02-27T15:03:34Z</time>
      </trkpt>
      <trkpt lat="45.22374" lon="6.25797">
        <ele>1838</ele>
        <time>2021-02-27T15:03:35Z</time>
      </trkpt>
      <trkpt lat="45.22366" lon="6.25802">
        <ele>1836.4</ele>
        <time>2021-02-27T15:03:36Z</time>
      </trkpt>
      <trkpt lat="45.22357" lon="6.25803">
        <ele>1833</ele>
        <time>2021-02-27T15:03:37Z</time>
      </trkpt>
      <trkpt lat="45.22348" lon="6.25803">
        <ele>1830.2</ele>
        <time>2021-02-27T15:03:38Z</time>
      </trkpt>
      <trkpt lat="45.22339" lon="6.25803">
        <ele>1829.2</ele>
        <time>2021-02-27T15:03:39Z</time>
      </trkpt>
      <trkpt lat="45.2233" lon="6.25804">
        <ele>1827.8</ele>
        <time>2021-02-27T15:03:40Z</time>
      </trkpt>
      <trkpt lat="45.2232" lon="6.25805">
        <ele>1826.4</ele>
        <time>2021-02-27T15:03:41Z</time>
      </trkpt>
      <trkpt lat="45.2231" lon="6.25805">
        <ele>1825.6</ele>
        <time>2021-02-27T15:03:42Z</time>
      </trkpt>
      <trkpt lat="45.223" lon="6.25806">
        <ele>1824.2</ele>
        <time>2021-02-27T15:03:43Z</time>
      </trkpt>
      <trkpt lat="45.2229" lon="6.25808">
        <ele>1823.2</ele>
        <time>2021-02-27T15:03:44Z</time>
      </trkpt>
      <trkpt lat="45.2228" lon="6.2581">
        <ele>1822.6</ele>
        <time>2021-02-27T15:03:45Z</time>
      </trkpt>
      <trkpt lat="45.22269" lon="6.2581">
        <ele>1821.6</ele>
        <time>2021-02-27T15:03:46Z</time>
      </trkpt>
      <trkpt lat="45.2226" lon="6.25811">
        <ele>1820</ele>
        <time>2021-02-27T15:03:47Z</time>
      </trkpt>
      <trkpt lat="45.2225" lon="6.25811">
        <ele>1818.6</ele>
        <time>2021-02-27T15:03:48Z</time>
      </trkpt>
      <trkpt lat="45.22241" lon="6.25806">
        <ele>1818.2</ele>
        <time>2021-02-27T15:03:49Z</time>
      </trkpt>
      <trkpt lat="45.22233" lon="6.258">
        <ele>1816.4</ele>
        <time>2021-02-27T15:03:50Z</time>
      </trkpt>
      <trkpt lat="45.22225" lon="6.25795">
        <ele>1815.4</ele>
        <time>2021-02-27T15:03:51Z</time>
      </trkpt>
      <trkpt lat="45.22216" lon="6.25792">
        <ele>1814.8</ele>
        <time>2021-02-27T15:03:52Z</time>
      </trkpt>
      <trkpt lat="45.22206" lon="6.2579">
        <ele>1814.2</ele>
        <time>2021-02-27T15:03:53Z</time>
      </trkpt>
      <trkpt lat="45.22196" lon="6.25786">
        <ele>1813.2</ele>
        <time>2021-02-27T15:03:54Z</time>
      </trkpt>
      <trkpt lat="45.22187" lon="6.2578">
        <ele>1812.4</ele>
        <time>2021-02-27T15:03:55Z</time>
      </trkpt>
      <trkpt lat="45.22179" lon="6.25774">
        <ele>1810</ele>
        <time>2021-02-27T15:03:56Z</time>
      </trkpt>
      <trkpt lat="45.2217" lon="6.25769">
        <ele>1808.8</ele>
        <time>2021-02-27T15:03:57Z</time>
      </trkpt>
      <trkpt lat="45.22161" lon="6.25763">
        <ele>1807.4</ele>
        <time>2021-02-27T15:03:58Z</time>
      </trkpt>
      <trkpt lat="45.22151" lon="6.25758">
        <ele>1805.2</ele>
        <time>2021-02-27T15:03:59Z</time>
      </trkpt>
      <trkpt lat="45.22143" lon="6.25752">
        <ele>1803.6</ele>
        <time>2021-02-27T15:04:00Z</time>
      </trkpt>
      <trkpt lat="45.22133" lon="6.25746">
        <ele>1801.4</ele>
        <time>2021-02-27T15:04:01Z</time>
      </trkpt>
      <trkpt lat="45.22124" lon="6.25739">
        <ele>1800.2</ele>
        <time>2021-02-27T15:04:02Z</time>
      </trkpt>
      <trkpt lat="45.22114" lon="6.25733">
        <ele>1798.4</ele>
        <time>2021-02-27T15:04:03Z</time>
      </trkpt>
      <trkpt lat="45.22105" lon="6.25726">
        <ele>1796.6</ele>
        <time>2021-02-27T15:04:04Z</time>
      </trkpt>
      <trkpt lat="45.22097" lon="6.2572">
        <ele>1794</ele>
        <time>2021-02-27T15:04:05Z</time>
      </trkpt>
      <trkpt lat="45.22088" lon="6.25716">
        <ele>1791.4</ele>
        <time>2021-02-27T15:04:06Z</time>
      </trkpt>
      <trkpt lat="45.22081" lon="6.25713">
        <ele>1789.4</ele>
        <time>2021-02-27T15:04:07Z</time>
      </trkpt>
      <trkpt lat="45.22073" lon="6.25708">
        <ele>1787.4</ele>
        <time>2021-02-27T15:04:08Z</time>
      </trkpt>
      <trkpt lat="45.22064" lon="6.25705">
        <ele>1785.2</ele>
        <time>2021-02-27T15:04:09Z</time>
      </trkpt>
      <trkpt lat="45.22056" lon="6.25702">
        <ele>1783.4</ele>
        <time>2021-02-27T15:04:10Z</time>
      </trkpt>
      <trkpt lat="45.22048" lon="6.25697">
        <ele>1781.4</ele>
        <time>2021-02-27T15:04:11Z</time>
      </trkpt>
      <trkpt lat="45.2204" lon="6.25693">
        <ele>1778.8</ele>
        <time>2021-02-27T15:04:12Z</time>
      </trkpt>
      <trkpt lat="45.22032" lon="6.25689">
        <ele>1776.6</ele>
        <time>2021-02-27T15:04:13Z</time>
      </trkpt>
      <trkpt lat="45.22024" lon="6.25686">
        <ele>1774.6</ele>
        <time>2021-02-27T15:04:14Z</time>
      </trkpt>
      <trkpt lat="45.22016" lon="6.25683">
        <ele>1772.8</ele>
        <time>2021-02-27T15:04:15Z</time>
      </trkpt>
      <trkpt lat="45.22009" lon="6.2568">
        <ele>1770.6</ele>
        <time>2021-02-27T15:04:16Z</time>
      </trkpt>
      <trkpt lat="45.22" lon="6.25679">
        <ele>1768.8</ele>
        <time>2021-02-27T15:04:17Z</time>
      </trkpt>
      <trkpt lat="45.21992" lon="6.25677">
        <ele>1766.6</ele>
        <time>2021-02-27T15:04:18Z</time>
      </trkpt>
      <trkpt lat="45.21982" lon="6.25678">
        <ele>1764.2</ele>
        <time>2021-02-27T15:04:19Z</time>
      </trkpt>
      <trkpt lat="45.21973" lon="6.25677">
        <ele>1762</ele>
        <time>2021-02-27T15:04:20Z</time>
      </trkpt>
      <trkpt lat="45.21963" lon="6.2568">
        <ele>1758.2</ele>
        <time>2021-02-27T15:04:21Z</time>
      </trkpt>
      <trkpt lat="45.21952" lon="6.25688">
        <ele>1756</ele>
        <time>2021-02-27T15:04:22Z</time>
      </trkpt>
      <trkpt lat="45.2194" lon="6.25694">
        <ele>1753.2</ele>
        <time>2021-02-27T15:04:23Z</time>
      </trkpt>
      <trkpt lat="45.21929" lon="6.257">
        <ele>1748.4</ele>
        <time>2021-02-27T15:04:24Z</time>
      </trkpt>
      <trkpt lat="45.21917" lon="6.25706">
        <ele>1745.6</ele>
        <time>2021-02-27T15:04:25Z</time>
      </trkpt>
      <trkpt lat="45.21905" lon="6.25713">
        <ele>1740.4</ele>
        <time>2021-02-27T15:04:26Z</time>
      </trkpt>
      <trkpt lat="45.21894" lon="6.25716">
        <ele>1738.6</ele>
        <time>2021-02-27T15:04:27Z</time>
      </trkpt>
      <trkpt lat="45.21884" lon="6.25714">
        <ele>1735</ele>
        <time>2021-02-27T15:04:28Z</time>
      </trkpt>
      <trkpt lat="45.21873" lon="6.25714">
        <ele>1730.2</ele>
        <time>2021-02-27T15:04:29Z</time>
      </trkpt>
      <trkpt lat="45.21861" lon="6.25714">
        <ele>1727.4</ele>
        <time>2021-02-27T15:04:30Z</time>
      </trkpt>
      <trkpt lat="45.21852" lon="6.25707">
        <ele>1725.2</ele>
        <time>2021-02-27T15:04:31Z</time>
      </trkpt>
      <trkpt lat="45.21843" lon="6.25695">
        <ele>1722.4</ele>
        <time>2021-02-27T15:04:32Z</time>
      </trkpt>
      <trkpt lat="45.21834" lon="6.25684">
        <ele>1719.2</ele>
        <time>2021-02-27T15:04:33Z</time>
      </trkpt>
      <trkpt lat="45.21824" lon="6.25676">
        <ele>1716.8</ele>
        <time>2021-02-27T15:04:34Z</time>
      </trkpt>
      <trkpt lat="45.21812" lon="6.25674">
        <ele>1714.8</ele>
        <time>2021-02-27T15:04:35Z</time>
      </trkpt>
      <trkpt lat="45.21801" lon="6.25681">
        <ele>1713.2</ele>
        <time>2021-02-27T15:04:36Z</time>
      </trkpt>
      <trkpt lat="45.21793" lon="6.25692">
        <ele>1712</ele>
        <time>2021-02-27T15:04:37Z</time>
      </trkpt>
      <trkpt lat="45.21786" lon="6.25705">
        <ele>1710</ele>
        <time>2021-02-27T15:04:38Z</time>
      </trkpt>
      <trkpt lat="45.2178" lon="6.25719">
        <ele>1708.2</ele>
        <time>2021-02-27T15:04:39Z</time>
      </trkpt>
      <trkpt lat="45.21777" lon="6.25733">
        <ele>1707.2</ele>
        <time>2021-02-27T15:04:40Z</time>
      </trkpt>
      <trkpt lat="45.21773" lon="6.25748">
        <ele>1706</ele>
        <time>2021-02-27T15:04:41Z</time>
      </trkpt>
      <trkpt lat="45.21771" lon="6.25763">
        <ele>1704.4</ele>
        <time>2021-02-27T15:04:42Z</time>
      </trkpt>
      <trkpt lat="45.21768" lon="6.25778">
        <ele>1702.4</ele>
        <time>2021-02-27T15:04:43Z</time>
      </trkpt>
      <trkpt lat="45.21766" lon="6.25793">
        <ele>1700.8</ele>
        <time>2021-02-27T15:04:44Z</time>
      </trkpt>
      <trkpt lat="45.21764" lon="6.25808">
        <ele>1699.6</ele>
        <time>2021-02-27T15:04:45Z</time>
      </trkpt>
      <trkpt lat="45.21763" lon="6.25823">
        <ele>1697.4</ele>
        <time>2021-02-27T15:04:46Z</time>
      </trkpt>
      <trkpt lat="45.21762" lon="6.25838">
        <ele>1695</ele>
        <time>2021-02-27T15:04:47Z</time>
      </trkpt>
      <trkpt lat="45.21762" lon="6.25854">
        <ele>1692.8</ele>
        <time>2021-02-27T15:04:48Z</time>
      </trkpt>
      <trkpt lat="45.21761" lon="6.2587">
        <ele>1690</ele>
        <time>2021-02-27T15:04:49Z</time>
      </trkpt>
      <trkpt lat="45.21759" lon="6.25887">
        <ele>1687.2</ele>
        <time>2021-02-27T15:04:50Z</time>
      </trkpt>
      <trkpt lat="45.21758" lon="6.25903">
        <ele>1684.4</ele>
        <time>2021-02-27T15:04:51Z</time>
      </trkpt>
      <trkpt lat="45.21757" lon="6.2592">
        <ele>1682</ele>
        <time>2021-02-27T15:04:52Z</time>
      </trkpt>
      <trkpt lat="45.21755" lon="6.25937">
        <ele>1679.6</ele>
        <time>2021-02-27T15:04:53Z</time>
      </trkpt>
      <trkpt lat="45.21752" lon="6.25953">
        <ele>1677.4</ele>
        <time>2021-02-27T15:04:54Z</time>
      </trkpt>
      <trkpt lat="45.21749" lon="6.25969">
        <ele>1674.8</ele>
        <time>2021-02-27T15:04:55Z</time>
      </trkpt>
      <trkpt lat="45.21745" lon="6.25985">
        <ele>1672.2</ele>
        <time>2021-02-27T15:04:56Z</time>
      </trkpt>
      <trkpt lat="45.21741" lon="6.26">
        <ele>1669.6</ele>
        <time>2021-02-27T15:04:57Z</time>
      </trkpt>
      <trkpt lat="45.21736" lon="6.26013">
        <ele>1667</ele>
        <time>2021-02-27T15:04:58Z</time>
      </trkpt>
      <trkpt lat="45.21731" lon="6.26023">
        <ele>1664.4</ele>
        <time>2021-02-27T15:04:59Z</time>
      </trkpt>
      <trkpt lat="45.21725" lon="6.26033">
        <ele>1662.6</ele>
        <time>2021-02-27T15:05:00Z</time>
      </trkpt>
      <trkpt lat="45.2172" lon="6.26042">
        <ele>1661.4</ele>
        <time>2021-02-27T15:05:01Z</time>
      </trkpt>
      <trkpt lat="45.21713" lon="6.26053">
        <ele>1659.4</ele>
        <time>2021-02-27T15:05:02Z</time>
      </trkpt>
      <trkpt lat="45.21707" lon="6.26063">
        <ele>1657.8</ele>
        <time>2021-02-27T15:05:03Z</time>
      </trkpt>
      <trkpt lat="45.21702" lon="6.26074">
        <ele>1655.8</ele>
        <time>2021-02-27T15:05:04Z</time>
      </trkpt>
      <trkpt lat="45.21696" lon="6.26085">
        <ele>1654.6</ele>
        <time>2021-02-27T15:05:05Z</time>
      </trkpt>
      <trkpt lat="45.21691" lon="6.26095">
        <ele>1653.2</ele>
        <time>2021-02-27T15:05:06Z</time>
      </trkpt>
      <trkpt lat="45.21686" lon="6.26106">
        <ele>1652.2</ele>
        <time>2021-02-27T15:05:07Z</time>
      </trkpt>
      <trkpt lat="45.21681" lon="6.26116">
        <ele>1651.2</ele>
        <time>2021-02-27T15:05:08Z</time>
      </trkpt>
      <trkpt lat="45.21677" lon="6.26127">
        <ele>1650</ele>
        <time>2021-02-27T15:05:09Z</time>
      </trkpt>
      <trkpt lat="45.21674" lon="6.26137">
        <ele>1649</ele>
        <time>2021-02-27T15:05:10Z</time>
      </trkpt>
      <trkpt lat="45.2167" lon="6.26147">
        <ele>1648.2</ele>
        <time>2021-02-27T15:05:11Z</time>
      </trkpt>
      <trkpt lat="45.21667" lon="6.26156">
        <ele>1647.2</ele>
        <time>2021-02-27T15:05:12Z</time>
      </trkpt>
      <trkpt lat="45.21663" lon="6.26167">
        <ele>1646.8</ele>
        <time>2021-02-27T15:05:13Z</time>
      </trkpt>
      <trkpt lat="45.2166" lon="6.26177">
        <ele>1646</ele>
        <time>2021-02-27T15:05:14Z</time>
      </trkpt>
      <trkpt lat="45.21656" lon="6.26188">
        <ele>1644.6</ele>
        <time>2021-02-27T15:05:15Z</time>
      </trkpt>
      <trkpt lat="45.21652" lon="6.26198">
        <ele>1644</ele>
        <time>2021-02-27T15:05:16Z</time>
      </trkpt>
      <trkpt lat="45.21648" lon="6.26208">
        <ele>1642.6</ele>
        <time>2021-02-27T15:05:17Z</time>
      </trkpt>
      <trkpt lat="45.21644" lon="6.26218">
        <ele>1641.2</ele>
        <time>2021-02-27T15:05:18Z</time>
      </trkpt>
      <trkpt lat="45.21641" lon="6.26227">
        <ele>1640.2</ele>
        <time>2021-02-27T15:05:19Z</time>
      </trkpt>
      <trkpt lat="45.21638" lon="6.26236">
        <ele>1639.2</ele>
        <time>2021-02-27T15:05:20Z</time>
      </trkpt>
      <trkpt lat="45.21637" lon="6.26246">
        <ele>1638.2</ele>
        <time>2021-02-27T15:05:21Z</time>
      </trkpt>
      <trkpt lat="45.21636" lon="6.26257">
        <ele>1637.2</ele>
        <time>2021-02-27T15:05:22Z</time>
      </trkpt>
      <trkpt lat="45.21635" lon="6.26267">
        <ele>1636.6</ele>
        <time>2021-02-27T15:05:23Z</time>
      </trkpt>
      <trkpt lat="45.21634" lon="6.26277">
        <ele>1636</ele>
        <time>2021-02-27T15:05:24Z</time>
      </trkpt>
      <trkpt lat="45.21633" lon="6.26288">
        <ele>1635</ele>
        <time>2021-02-27T15:05:25Z</time>
      </trkpt>
      <trkpt lat="45.21633" lon="6.26299">
        <ele>1634</ele>
        <time>2021-02-27T15:05:26Z</time>
      </trkpt>
      <trkpt lat="45.21633" lon="6.26309">
        <ele>1633</ele>
        <time>2021-02-27T15:05:27Z</time>
      </trkpt>
      <trkpt lat="45.21633" lon="6.26319">
        <ele>1632</ele>
        <time>2021-02-27T15:05:28Z</time>
      </trkpt>
      <trkpt lat="45.21633" lon="6.26329">
        <ele>1631.2</ele>
        <time>2021-02-27T15:05:29Z</time>
      </trkpt>
      <trkpt lat="45.21634" lon="6.26338">
        <ele>1630.8</ele>
        <time>2021-02-27T15:05:30Z</time>
      </trkpt>
      <trkpt lat="45.21635" lon="6.26346">
        <ele>1630.4</ele>
        <time>2021-02-27T15:05:31Z</time>
      </trkpt>
      <trkpt lat="45.21636" lon="6.26355">
        <ele>1629.8</ele>
        <time>2021-02-27T15:05:32Z</time>
      </trkpt>
      <trkpt lat="45.21637" lon="6.26363">
        <ele>1629.2</ele>
        <time>2021-02-27T15:05:33Z</time>
      </trkpt>
      <trkpt lat="45.21638" lon="6.26371">
        <ele>1628</ele>
        <time>2021-02-27T15:05:34Z</time>
      </trkpt>
      <trkpt lat="45.21639" lon="6.2638">
        <ele>1627.6</ele>
        <time>2021-02-27T15:05:35Z</time>
      </trkpt>
      <trkpt lat="45.2164" lon="6.26388">
        <ele>1627.4</ele>
        <time>2021-02-27T15:05:36Z</time>
      </trkpt>
      <trkpt lat="45.2164" lon="6.26396">
        <ele>1626.8</ele>
        <time>2021-02-27T15:05:37Z</time>
      </trkpt>
      <trkpt lat="45.2164" lon="6.26403">
        <ele>1626.2</ele>
        <time>2021-02-27T15:05:38Z</time>
      </trkpt>
      <trkpt lat="45.2164" lon="6.2641">
        <ele>1625.8</ele>
        <time>2021-02-27T15:05:39Z</time>
      </trkpt>
      <trkpt lat="45.2164" lon="6.26417">
        <ele>1625.4</ele>
        <time>2021-02-27T15:05:40Z</time>
      </trkpt>
      <trkpt lat="45.2164" lon="6.26423">
        <ele>1624.2</ele>
        <time>2021-02-27T15:05:41Z</time>
      </trkpt>
      <trkpt lat="45.21639" lon="6.26429">
        <ele>1623.8</ele>
        <time>2021-02-27T15:05:42Z</time>
      </trkpt>
      <trkpt lat="45.21638" lon="6.26435">
        <ele>1623.4</ele>
        <time>2021-02-27T15:05:43Z</time>
      </trkpt>
      <trkpt lat="45.21636" lon="6.26441">
        <ele>1623</ele>
        <time>2021-02-27T15:05:44Z</time>
      </trkpt>
      <trkpt lat="45.21635" lon="6.26447">
        <ele>1622.2</ele>
        <time>2021-02-27T15:05:45Z</time>
      </trkpt>
      <trkpt lat="45.21633" lon="6.26453">
        <ele>1621.8</ele>
        <time>2021-02-27T15:05:46Z</time>
      </trkpt>
      <trkpt lat="45.21631" lon="6.26459">
        <ele>1621.4</ele>
        <time>2021-02-27T15:05:47Z</time>
      </trkpt>
      <trkpt lat="45.21629" lon="6.26466">
        <ele>1621</ele>
        <time>2021-02-27T15:05:48Z</time>
      </trkpt>
      <trkpt lat="45.21627" lon="6.26473">
        <ele>1620.4</ele>
        <time>2021-02-27T15:05:49Z</time>
      </trkpt>
      <trkpt lat="45.21624" lon="6.26481">
        <ele>1620.2</ele>
        <time>2021-02-27T15:05:50Z</time>
      </trkpt>
      <trkpt lat="45.21621" lon="6.26489">
        <ele>1619.6</ele>
        <time>2021-02-27T15:05:51Z</time>
      </trkpt>
      <trkpt lat="45.21617" lon="6.26498">
        <ele>1619.2</ele>
        <time>2021-02-27T15:05:52Z</time>
      </trkpt>
      <trkpt lat="45.21612" lon="6.26506">
        <ele>1618</ele>
        <time>2021-02-27T15:05:53Z</time>
      </trkpt>
      <trkpt lat="45.21606" lon="6.26515">
        <ele>1617</ele>
        <time>2021-02-27T15:05:54Z</time>
      </trkpt>
      <trkpt lat="45.21599" lon="6.26524">
        <ele>1616.2</ele>
        <time>2021-02-27T15:05:55Z</time>
      </trkpt>
      <trkpt lat="45.21591" lon="6.26534">
        <ele>1614.6</ele>
        <time>2021-02-27T15:05:56Z</time>
      </trkpt>
      <trkpt lat="45.21583" lon="6.26543">
        <ele>1613</ele>
        <time>2021-02-27T15:05:57Z</time>
      </trkpt>
      <trkpt lat="45.21574" lon="6.26551">
        <ele>1610.6</ele>
        <time>2021-02-27T15:05:58Z</time>
      </trkpt>
      <trkpt lat="45.21566" lon="6.26561">
        <ele>1608.8</ele>
        <time>2021-02-27T15:05:59Z</time>
      </trkpt>
      <trkpt lat="45.21558" lon="6.26571">
        <ele>1606.6</ele>
        <time>2021-02-27T15:06:00Z</time>
      </trkpt>
      <trkpt lat="45.2155" lon="6.26579">
        <ele>1603.4</ele>
        <time>2021-02-27T15:06:01Z</time>
      </trkpt>
      <trkpt lat="45.21541" lon="6.26586">
        <ele>1601.4</ele>
        <time>2021-02-27T15:06:02Z</time>
      </trkpt>
      <trkpt lat="45.21532" lon="6.26593">
        <ele>1599.8</ele>
        <time>2021-02-27T15:06:03Z</time>
      </trkpt>
      <trkpt lat="45.21522" lon="6.26601">
        <ele>1598.2</ele>
        <time>2021-02-27T15:06:04Z</time>
      </trkpt>
      <trkpt lat="45.21513" lon="6.26604">
        <ele>1596.6</ele>
        <time>2021-02-27T15:06:05Z</time>
      </trkpt>
      <trkpt lat="45.21504" lon="6.26607">
        <ele>1593.8</ele>
        <time>2021-02-27T15:06:06Z</time>
      </trkpt>
      <trkpt lat="45.21495" lon="6.26611">
        <ele>1592</ele>
        <time>2021-02-27T15:06:07Z</time>
      </trkpt>
      <trkpt lat="45.21485" lon="6.26613">
        <ele>1590.2</ele>
        <time>2021-02-27T15:06:08Z</time>
      </trkpt>
      <trkpt lat="45.21475" lon="6.26615">
        <ele>1587.2</ele>
        <time>2021-02-27T15:06:09Z</time>
      </trkpt>
      <trkpt lat="45.21464" lon="6.2662">
        <ele>1586</ele>
        <time>2021-02-27T15:06:10Z</time>
      </trkpt>
      <trkpt lat="45.21457" lon="6.26629">
        <ele>1583.8</ele>
        <time>2021-02-27T15:06:11Z</time>
      </trkpt>
      <trkpt lat="45.21451" lon="6.26642">
        <ele>1581.2</ele>
        <time>2021-02-27T15:06:12Z</time>
      </trkpt>
      <trkpt lat="45.21445" lon="6.26655">
        <ele>1579</ele>
        <time>2021-02-27T15:06:13Z</time>
      </trkpt>
      <trkpt lat="45.21439" lon="6.26669">
        <ele>1576.4</ele>
        <time>2021-02-27T15:06:14Z</time>
      </trkpt>
      <trkpt lat="45.2143" lon="6.26682">
        <ele>1574.8</ele>
        <time>2021-02-27T15:06:15Z</time>
      </trkpt>
      <trkpt lat="45.21421" lon="6.26694">
        <ele>1570.6</ele>
        <time>2021-02-27T15:06:16Z</time>
      </trkpt>
      <trkpt lat="45.21411" lon="6.26705">
        <ele>1569</ele>
        <time>2021-02-27T15:06:17Z</time>
      </trkpt>
      <trkpt lat="45.21401" lon="6.26715">
        <ele>1566.2</ele>
        <time>2021-02-27T15:06:18Z</time>
      </trkpt>
      <trkpt lat="45.21391" lon="6.26725">
        <ele>1562</ele>
        <time>2021-02-27T15:06:19Z</time>
      </trkpt>
      <trkpt lat="45.21381" lon="6.26732">
        <ele>1561.2</ele>
        <time>2021-02-27T15:06:20Z</time>
      </trkpt>
      <trkpt lat="45.21372" lon="6.26734">
        <ele>1558.8</ele>
        <time>2021-02-27T15:06:21Z</time>
      </trkpt>
      <trkpt lat="45.21365" lon="6.2673">
        <ele>1557.2</ele>
        <time>2021-02-27T15:06:22Z</time>
      </trkpt>
      <trkpt lat="45.21358" lon="6.26726">
        <ele>1556.2</ele>
        <time>2021-02-27T15:06:23Z</time>
      </trkpt>
      <trkpt lat="45.21353" lon="6.2672">
        <ele>1555.4</ele>
        <time>2021-02-27T15:06:24Z</time>
      </trkpt>
      <trkpt lat="45.21349" lon="6.26714">
        <ele>1554.6</ele>
        <time>2021-02-27T15:06:25Z</time>
      </trkpt>
      <trkpt lat="45.21345" lon="6.26706">
        <ele>1554.2</ele>
        <time>2021-02-27T15:06:26Z</time>
      </trkpt>
      <trkpt lat="45.21343" lon="6.26699">
        <ele>1553.8</ele>
        <time>2021-02-27T15:06:27Z</time>
      </trkpt>
      <trkpt lat="45.21341" lon="6.26693">
        <ele>1553.2</ele>
        <time>2021-02-27T15:06:28Z</time>
      </trkpt>
      <trkpt lat="45.21339" lon="6.26687">
        <ele>1552.8</ele>
        <time>2021-02-27T15:06:29Z</time>
      </trkpt>
      <trkpt lat="45.21336" lon="6.26682">
        <ele>1552.2</ele>
        <time>2021-02-27T15:06:30Z</time>
      </trkpt>
      <trkpt lat="45.21334" lon="6.26679">
        <ele>1551.6</ele>
        <time>2021-02-27T15:06:31Z</time>
      </trkpt>
      <trkpt lat="45.21331" lon="6.26676">
        <ele>1551.4</ele>
        <time>2021-02-27T15:06:32Z</time>
      </trkpt>
      <trkpt lat="45.21328" lon="6.26676">
        <ele>1551</ele>
        <time>2021-02-27T15:06:33Z</time>
      </trkpt>
      <trkpt lat="45.21326" lon="6.26676">
        <ele>1550.6</ele>
        <time>2021-02-27T15:06:34Z</time>
      </trkpt>
      <trkpt lat="45.21326" lon="6.26676">
        <ele>1550.2</ele>
        <time>2021-02-27T15:06:35Z</time>
      </trkpt>
      <trkpt lat="45.21326" lon="6.26676">
        <ele>1549.8</ele>
        <time>2021-02-27T15:06:36Z</time>
      </trkpt>
      <trkpt lat="45.21326" lon="6.26676">
        <ele>1549.6</ele>
        <time>2021-02-27T15:06:37Z</time>
      </trkpt>
      <trkpt lat="45.21326" lon="6.26676">
        <ele>1549.6</ele>
        <time>2021-02-27T15:06:38Z</time>
      </trkpt>
      <trkpt lat="45.21326" lon="6.26676">
        <ele>1549.6</ele>
        <time>2021-02-27T15:06:39Z</time>
      </trkpt>
      <trkpt lat="45.21326" lon="6.26676">
        <ele>1549.8</ele>
        <time>2021-02-27T15:06:40Z</time>
      </trkpt>
      <trkpt lat="45.21326" lon="6.26676">
        <ele>1550</ele>
        <time>2021-02-27T15:06:41Z</time>
      </trkpt>
      <trkpt lat="45.21326" lon="6.26676">
        <ele>1550</ele>
        <time>2021-02-27T15:06:42Z</time>
      </trkpt>
      <trkpt lat="45.21326" lon="6.26676">
        <ele>1550</ele>
        <time>2021-02-27T15:06:43Z</time>
      </trkpt>
      <trkpt lat="45.21326" lon="6.26676">
        <ele>1550.2</ele>
        <time>2021-02-27T15:06:44Z</time>
      </trkpt>
      <trkpt lat="45.21326" lon="6.26676">
        <ele>1550</ele>
        <time>2021-02-27T15:06:45Z</time>
      </trkpt>
      <trkpt lat="45.21326" lon="6.26676">
        <ele>1549.8</ele>
        <time>2021-02-27T15:06:46Z</time>
      </trkpt>
      <trkpt lat="45.21326" lon="6.26676">
        <ele>1550</ele>
        <time>2021-02-27T15:06:47Z</time>
      </trkpt>
      <trkpt lat="45.21326" lon="6.26676">
        <ele>1550</ele>
        <time>2021-02-27T15:06:48Z</time>
      </trkpt>
      <trkpt lat="45.21326" lon="6.26676">
        <ele>1549.8</ele>
        <time>2021-02-27T15:06:49Z</time>
      </trkpt>
      <trkpt lat="45.21326" lon="6.26676">
        <ele>1550</ele>
        <time>2021-02-27T15:06:50Z</time>
      </trkpt>
      <trkpt lat="45.21326" lon="6.26676">
        <ele>1550.2</ele>
        <time>2021-02-27T15:06:51Z</time>
      </trkpt>
      <trkpt lat="45.21326" lon="6.26676">
        <ele>1550.2</ele>
        <time>2021-02-27T15:06:52Z</time>
      </trkpt>
      <trkpt lat="45.21326" lon="6.26676">
        <ele>1550.2</ele>
        <time>2021-02-27T15:06:53Z</time>
      </trkpt>
      <trkpt lat="45.21326" lon="6.26676">
        <ele>1550.2</ele>
        <time>2021-02-27T15:06:54Z</time>
      </trkpt>
      <trkpt lat="45.21327" lon="6.26678">
        <ele>1550</ele>
        <time>2021-02-27T15:06:55Z</time>
      </trkpt>
      <trkpt lat="45.21327" lon="6.26678">
        <ele>1549.6</ele>
        <time>2021-02-27T15:06:56Z</time>
      </trkpt>
      <trkpt lat="45.21327" lon="6.26678">
        <ele>1549.4</ele>
        <time>2021-02-27T15:06:57Z</time>
      </trkpt>
      <trkpt lat="45.21327" lon="6.26678">
        <ele>1549.4</ele>
        <time>2021-02-27T15:06:58Z</time>
      </trkpt>
      <trkpt lat="45.21327" lon="6.26678">
        <ele>1549.6</ele>
        <time>2021-02-27T15:06:59Z</time>
      </trkpt>
      <trkpt lat="45.21327" lon="6.26678">
        <ele>1549.8</ele>
        <time>2021-02-27T15:07:00Z</time>
      </trkpt>
      <trkpt lat="45.21327" lon="6.26678">
        <ele>1550</ele>
        <time>2021-02-27T15:07:01Z</time>
      </trkpt>
      <trkpt lat="45.21327" lon="6.26678">
        <ele>1550</ele>
        <time>2021-02-27T15:07:02Z</time>
      </trkpt>
      <trkpt lat="45.21327" lon="6.26678">
        <ele>1550</ele>
        <time>2021-02-27T15:07:03Z</time>
      </trkpt>
      <trkpt lat="45.21327" lon="6.26678">
        <ele>1550</ele>
        <time>2021-02-27T15:07:04Z</time>
      </trkpt>
      <trkpt lat="45.21327" lon="6.26678">
        <ele>1549.8</ele>
        <time>2021-02-27T15:07:05Z</time>
      </trkpt>
      <trkpt lat="45.21327" lon="6.26678">
        <ele>1550</ele>
        <time>2021-02-27T15:07:06Z</time>
      </trkpt>
      <trkpt lat="45.21327" lon="6.26678">
        <ele>1550</ele>
        <time>2021-02-27T15:07:07Z</time>
      </trkpt>
      <trkpt lat="45.21327" lon="6.26678">
        <ele>1549.8</ele>
        <time>2021-02-27T15:07:08Z</time>
      </trkpt>
      <trkpt lat="45.21327" lon="6.26678">
        <ele>1550</ele>
        <time>2021-02-27T15:07:09Z</time>
      </trkpt>
      <trkpt lat="45.21327" lon="6.26678">
        <ele>1549.8</ele>
        <time>2021-02-27T15:07:10Z</time>
      </trkpt>
      <trkpt lat="45.21327" lon="6.26678">
        <ele>1549.8</ele>
        <time>2021-02-27T15:07:11Z</time>
      </trkpt>
      <trkpt lat="45.21327" lon="6.26678">
        <ele>1550</ele>
        <time>2021-02-27T15:07:12Z</time>
      </trkpt>
    </trkseg>
  </trk>
</gpx>